<?xml version="1.0" encoding="UTF-8"?>
<gpx creator="Garmin Connect" version="1.1"
  xsi:schemaLocation="http://www.topografix.com/GPX/1/1 http://www.topografix.com/GPX/11.xsd"
  xmlns:ns3="http://www.garmin.com/xmlschemas/TrackPointExtension/v1"
  xmlns="http://www.topografix.com/GPX/1/1"
  xmlns:xsi="http://www.w3.org/2001/XMLSchema-instance" xmlns:ns2="http://www.garmin.com/xmlschemas/GpxExtensions/v3">
  <metadata>
    <name>Vänern gpx453,39 km - feb. 02</name>
    <link href="connect.garmin.com">
      <text>Garmin Connect</text>
    </link>
    <time>2025-02-02T20:20:36.000Z</time>
  </metadata>
  <trk>
    <name>Vänern gpx453,39 km - feb. 02</name>
    <trkseg>
      <trkpt lat="59.39102299511433" lon="13.533978927880526">
        <ele>49.67</ele>
        <time>2025-02-02T20:20:36.000Z</time>
      </trkpt>
      <trkpt lat="59.3910329695791" lon="13.53396593593061">
        <ele>49.67</ele>
        <time>2025-02-02T20:20:36.000Z</time>
      </trkpt>
      <trkpt lat="59.391044955700636" lon="13.533958978950977">
        <ele>49.67</ele>
        <time>2025-02-02T20:20:36.000Z</time>
      </trkpt>
      <trkpt lat="59.39105593599379" lon="13.533945987001061">
        <ele>49.68</ele>
        <time>2025-02-02T20:20:36.001Z</time>
      </trkpt>
      <trkpt lat="59.391063982620835" lon="13.533927965909243">
        <ele>49.68</ele>
        <time>2025-02-02T20:20:36.002Z</time>
      </trkpt>
      <trkpt lat="59.39106993377209" lon="13.533905921503901">
        <ele>49.68</ele>
        <time>2025-02-02T20:20:36.003Z</time>
      </trkpt>
      <trkpt lat="59.39107798039913" lon="13.533886978402734">
        <ele>49.69</ele>
        <time>2025-02-02T20:20:36.004Z</time>
      </trkpt>
      <trkpt lat="59.391085943207145" lon="13.533867951482534">
        <ele>49.69</ele>
        <time>2025-02-02T20:20:36.005Z</time>
      </trkpt>
      <trkpt lat="59.39109298400581" lon="13.533851942047477">
        <ele>49.69</ele>
        <time>2025-02-02T20:20:36.007Z</time>
      </trkpt>
      <trkpt lat="59.39109893515706" lon="13.533832998946309">
        <ele>49.69</ele>
        <time>2025-02-02T20:20:36.009Z</time>
      </trkpt>
      <trkpt lat="59.39110295847058" lon="13.53381497785449">
        <ele>49.69</ele>
        <time>2025-02-02T20:20:36.011Z</time>
      </trkpt>
      <trkpt lat="59.391106981784105" lon="13.53379293344915">
        <ele>49.69</ele>
        <time>2025-02-02T20:20:36.013Z</time>
      </trkpt>
      <trkpt lat="59.39111494459212" lon="13.533767955377698">
        <ele>49.69</ele>
        <time>2025-02-02T20:20:36.015Z</time>
      </trkpt>
      <trkpt lat="59.39112592488527" lon="13.533742977306247">
        <ele>49.69</ele>
        <time>2025-02-02T20:20:36.018Z</time>
      </trkpt>
      <trkpt lat="59.39114092849195" lon="13.533718921244144">
        <ele>49.68</ele>
        <time>2025-02-02T20:20:36.021Z</time>
      </trkpt>
      <trkpt lat="59.39115995541215" lon="13.533700983971357">
        <ele>49.68</ele>
        <time>2025-02-02T20:20:36.024Z</time>
      </trkpt>
      <trkpt lat="59.39118199981749" lon="13.533693943172693">
        <ele>49.67</ele>
        <time>2025-02-02T20:20:36.028Z</time>
      </trkpt>
      <trkpt lat="59.3912039604038" lon="13.533692937344313">
        <ele>49.66</ele>
        <time>2025-02-02T20:20:36.032Z</time>
      </trkpt>
      <trkpt lat="59.39122399315238" lon="13.533696960657835">
        <ele>49.66</ele>
        <time>2025-02-02T20:20:36.036Z</time>
      </trkpt>
      <trkpt lat="59.39124293625355" lon="13.533703917637467">
        <ele>49.65</ele>
        <time>2025-02-02T20:20:36.041Z</time>
      </trkpt>
      <trkpt lat="59.39126498065889" lon="13.53370794095099">
        <ele>49.64</ele>
        <time>2025-02-02T20:20:36.046Z</time>
      </trkpt>
      <trkpt lat="59.3912869412452" lon="13.533704923465848">
        <ele>49.64</ele>
        <time>2025-02-02T20:20:36.051Z</time>
      </trkpt>
      <trkpt lat="59.39130797982216" lon="13.533689919859171">
        <ele>49.63</ele>
        <time>2025-02-02T20:20:36.057Z</time>
      </trkpt>
      <trkpt lat="59.39133295789361" lon="13.533660918474197">
        <ele>49.62</ele>
        <time>2025-02-02T20:20:36.063Z</time>
      </trkpt>
      <trkpt lat="59.39135299064219" lon="13.533619930967689">
        <ele>49.61</ele>
        <time>2025-02-02T20:20:36.070Z</time>
      </trkpt>
      <trkpt lat="59.3913699220866" lon="13.533575925976038">
        <ele>49.6</ele>
        <time>2025-02-02T20:20:36.077Z</time>
      </trkpt>
      <trkpt lat="59.39138492569327" lon="13.533527981489897">
        <ele>49.59</ele>
        <time>2025-02-02T20:20:36.085Z</time>
      </trkpt>
      <trkpt lat="59.39139598980546" lon="13.533478947356343">
        <ele>49.58</ele>
        <time>2025-02-02T20:20:36.093Z</time>
      </trkpt>
      <trkpt lat="59.39139992929995" lon="13.533421950414777">
        <ele>49.57</ele>
        <time>2025-02-02T20:20:36.101Z</time>
      </trkpt>
      <trkpt lat="59.39139992929995" lon="13.533365959301591">
        <ele>49.55</ele>
        <time>2025-02-02T20:20:36.110Z</time>
      </trkpt>
      <trkpt lat="59.39139498397708" lon="13.533305944874883">
        <ele>49.53</ele>
        <time>2025-02-02T20:20:36.119Z</time>
      </trkpt>
      <trkpt lat="59.391388949006796" lon="13.533244924619794">
        <ele>49.52</ele>
        <time>2025-02-02T20:20:36.129Z</time>
      </trkpt>
      <trkpt lat="59.391387943178415" lon="13.533181976526976">
        <ele>49.5</ele>
        <time>2025-02-02T20:20:36.139Z</time>
      </trkpt>
      <trkpt lat="59.391385931521654" lon="13.533118944615126">
        <ele>49.48</ele>
        <time>2025-02-02T20:20:36.150Z</time>
      </trkpt>
      <trkpt lat="59.39138391986489" lon="13.533055996522307">
        <ele>49.46</ele>
        <time>2025-02-02T20:20:36.161Z</time>
      </trkpt>
      <trkpt lat="59.3913799803704" lon="13.532992964610457">
        <ele>49.43</ele>
        <time>2025-02-02T20:20:36.173Z</time>
      </trkpt>
      <trkpt lat="59.39137394540012" lon="13.532924987375736">
        <ele>49.41</ele>
        <time>2025-02-02T20:20:36.186Z</time>
      </trkpt>
      <trkpt lat="59.3913699220866" lon="13.532854998484254">
        <ele>49.39</ele>
        <time>2025-02-02T20:20:36.199Z</time>
      </trkpt>
      <trkpt lat="59.391362965106964" lon="13.532792972400784">
        <ele>49.37</ele>
        <time>2025-02-02T20:20:36.213Z</time>
      </trkpt>
      <trkpt lat="59.39135491847992" lon="13.532729940488935">
        <ele>49.34</ele>
        <time>2025-02-02T20:20:36.227Z</time>
      </trkpt>
      <trkpt lat="59.39135097898543" lon="13.532658945769072">
        <ele>49.32</ele>
        <time>2025-02-02T20:20:36.242Z</time>
      </trkpt>
      <trkpt lat="59.39134695567191" lon="13.532579988241196">
        <ele>49.3</ele>
        <time>2025-02-02T20:20:36.257Z</time>
      </trkpt>
      <trkpt lat="59.39133899286389" lon="13.532507987692952">
        <ele>49.28</ele>
        <time>2025-02-02T20:20:36.273Z</time>
      </trkpt>
      <trkpt lat="59.39133195206523" lon="13.532432969659567">
        <ele>49.26</ele>
        <time>2025-02-02T20:20:36.290Z</time>
      </trkpt>
      <trkpt lat="59.39132692292333" lon="13.532358957454562">
        <ele>49.24</ele>
        <time>2025-02-02T20:20:36.307Z</time>
      </trkpt>
      <trkpt lat="59.391320971772075" lon="13.532281927764416">
        <ele>49.22</ele>
        <time>2025-02-02T20:20:36.325Z</time>
      </trkpt>
      <trkpt lat="59.3913109973073" lon="13.532199952751398">
        <ele>49.2</ele>
        <time>2025-02-02T20:20:36.344Z</time>
      </trkpt>
      <trkpt lat="59.39129892736673" lon="13.532113954424858">
        <ele>49.18</ele>
        <time>2025-02-02T20:20:36.363Z</time>
      </trkpt>
      <trkpt lat="59.39128593541682" lon="13.53202996775508">
        <ele>49.16</ele>
        <time>2025-02-02T20:20:36.383Z</time>
      </trkpt>
      <trkpt lat="59.39126699231565" lon="13.53194497525692">
        <ele>49.15</ele>
        <time>2025-02-02T20:20:36.404Z</time>
      </trkpt>
      <trkpt lat="59.39124092459679" lon="13.531860988587141">
        <ele>49.14</ele>
        <time>2025-02-02T20:20:36.426Z</time>
      </trkpt>
      <trkpt lat="59.39120999537408" lon="13.53177691809833">
        <ele>49.12</ele>
        <time>2025-02-02T20:20:36.448Z</time>
      </trkpt>
      <trkpt lat="59.39117898233235" lon="13.531700978055596">
        <ele>49.11</ele>
        <time>2025-02-02T20:20:36.471Z</time>
      </trkpt>
      <trkpt lat="59.39114696346223" lon="13.531627971678972">
        <ele>49.1</ele>
        <time>2025-02-02T20:20:36.495Z</time>
      </trkpt>
      <trkpt lat="59.39111293293536" lon="13.531554965302348">
        <ele>49.1</ele>
        <time>2025-02-02T20:20:36.520Z</time>
      </trkpt>
      <trkpt lat="59.39107898622751" lon="13.531484976410866">
        <ele>49.09</ele>
        <time>2025-02-02T20:20:36.546Z</time>
      </trkpt>
      <trkpt lat="59.391044955700636" lon="13.531414987519383">
        <ele>49.08</ele>
        <time>2025-02-02T20:20:36.572Z</time>
      </trkpt>
      <trkpt lat="59.39101092517376" lon="13.531347932294011">
        <ele>49.07</ele>
        <time>2025-02-02T20:20:36.599Z</time>
      </trkpt>
      <trkpt lat="59.390976978465915" lon="13.531276937574148">
        <ele>49.06</ele>
        <time>2025-02-02T20:20:36.627Z</time>
      </trkpt>
      <trkpt lat="59.39094596542418" lon="13.531198985874653">
        <ele>49.05</ele>
        <time>2025-02-02T20:20:36.656Z</time>
      </trkpt>
      <trkpt lat="59.39091696403921" lon="13.531118938699365">
        <ele>49.04</ele>
        <time>2025-02-02T20:20:36.686Z</time>
      </trkpt>
      <trkpt lat="59.39088796265423" lon="13.531032940372825">
        <ele>49.04</ele>
        <time>2025-02-02T20:20:36.716Z</time>
      </trkpt>
      <trkpt lat="59.39086298458278" lon="13.530941996723413">
        <ele>49.03</ele>
        <time>2025-02-02T20:20:36.747Z</time>
      </trkpt>
      <trkpt lat="59.39083993434906" lon="13.530847951769829">
        <ele>49.03</ele>
        <time>2025-02-02T20:20:36.779Z</time>
      </trkpt>
      <trkpt lat="59.39081998541951" lon="13.530748961493373">
        <ele>49.02</ele>
        <time>2025-02-02T20:20:36.812Z</time>
      </trkpt>
      <trkpt lat="59.39080095849931" lon="13.530649971216917">
        <ele>49.02</ele>
        <time>2025-02-02T20:20:36.846Z</time>
      </trkpt>
      <trkpt lat="59.390782937407494" lon="13.530553998425603">
        <ele>49.01</ele>
        <time>2025-02-02T20:20:36.881Z</time>
      </trkpt>
      <trkpt lat="59.390765922144055" lon="13.530468922108412">
        <ele>49.0</ele>
        <time>2025-02-02T20:20:36.916Z</time>
      </trkpt>
      <trkpt lat="59.39075393602252" lon="13.530390970408916">
        <ele>49.0</ele>
        <time>2025-02-02T20:20:36.952Z</time>
      </trkpt>
      <trkpt lat="59.390742955729365" lon="13.530316958203912">
        <ele>48.99</ele>
        <time>2025-02-02T20:20:36.989Z</time>
      </trkpt>
      <trkpt lat="59.39073599874973" lon="13.530244957655668">
        <ele>48.99</ele>
        <time>2025-02-02T20:20:37.026Z</time>
      </trkpt>
      <trkpt lat="59.39072594046593" lon="13.530175974592566">
        <ele>48.98</ele>
        <time>2025-02-02T20:20:37.064Z</time>
      </trkpt>
      <trkpt lat="59.39071395434439" lon="13.530110931023955">
        <ele>48.97</ele>
        <time>2025-02-02T20:20:37.102Z</time>
      </trkpt>
      <trkpt lat="59.39070297405124" lon="13.530046977102757">
        <ele>48.97</ele>
        <time>2025-02-02T20:20:37.141Z</time>
      </trkpt>
      <trkpt lat="59.39069392159581" lon="13.529983945190907">
        <ele>48.96</ele>
        <time>2025-02-02T20:20:37.181Z</time>
      </trkpt>
      <trkpt lat="59.39068495295942" lon="13.529921919107437">
        <ele>48.95</ele>
        <time>2025-02-02T20:20:37.221Z</time>
      </trkpt>
      <trkpt lat="59.390674978494644" lon="13.52986198849976">
        <ele>48.95</ele>
        <time>2025-02-02T20:20:37.262Z</time>
      </trkpt>
      <trkpt lat="59.39066399820149" lon="13.529802979901433">
        <ele>48.94</ele>
        <time>2025-02-02T20:20:37.303Z</time>
      </trkpt>
      <trkpt lat="59.39065192826092" lon="13.529746988788247">
        <ele>48.94</ele>
        <time>2025-02-02T20:20:37.345Z</time>
      </trkpt>
      <trkpt lat="59.39064094796777" lon="13.529690997675061">
        <ele>48.93</ele>
        <time>2025-02-02T20:20:37.387Z</time>
      </trkpt>
      <trkpt lat="59.390630973502994" lon="13.529635928571224">
        <ele>48.92</ele>
        <time>2025-02-02T20:20:37.430Z</time>
      </trkpt>
      <trkpt lat="59.39062099903822" lon="13.529580943286419">
        <ele>48.92</ele>
        <time>2025-02-02T20:20:37.473Z</time>
      </trkpt>
      <trkpt lat="59.390612952411175" lon="13.529526963829994">
        <ele>48.91</ele>
        <time>2025-02-02T20:20:37.517Z</time>
      </trkpt>
      <trkpt lat="59.39060599543154" lon="13.529471978545189">
        <ele>48.9</ele>
        <time>2025-02-02T20:20:37.561Z</time>
      </trkpt>
      <trkpt lat="59.3905979488045" lon="13.529417999088764">
        <ele>48.9</ele>
        <time>2025-02-02T20:20:37.605Z</time>
      </trkpt>
      <trkpt lat="59.390591997653246" lon="13.529363935813308">
        <ele>48.89</ele>
        <time>2025-02-02T20:20:37.650Z</time>
      </trkpt>
      <trkpt lat="59.390587974339724" lon="13.529307944700122">
        <ele>48.88</ele>
        <time>2025-02-02T20:20:37.695Z</time>
      </trkpt>
      <trkpt lat="59.39058294519782" lon="13.529253965243697">
        <ele>48.88</ele>
        <time>2025-02-02T20:20:37.741Z</time>
      </trkpt>
      <trkpt lat="59.39057699404657" lon="13.529200991615653">
        <ele>48.87</ele>
        <time>2025-02-02T20:20:37.787Z</time>
      </trkpt>
      <trkpt lat="59.390568947419524" lon="13.529150951653719">
        <ele>48.87</ele>
        <time>2025-02-02T20:20:37.834Z</time>
      </trkpt>
      <trkpt lat="59.39055997878313" lon="13.529101917520165">
        <ele>48.86</ele>
        <time>2025-02-02T20:20:37.881Z</time>
      </trkpt>
      <trkpt lat="59.39055293798447" lon="13.529052967205644">
        <ele>48.86</ele>
        <time>2025-02-02T20:20:37.929Z</time>
      </trkpt>
      <trkpt lat="59.390546986833215" lon="13.52900292724371">
        <ele>48.85</ele>
        <time>2025-02-02T20:20:37.977Z</time>
      </trkpt>
      <trkpt lat="59.39053994603455" lon="13.528953976929188">
        <ele>48.85</ele>
        <time>2025-02-02T20:20:38.025Z</time>
      </trkpt>
      <trkpt lat="59.39053298905492" lon="13.528906954452395">
        <ele>48.84</ele>
        <time>2025-02-02T20:20:38.074Z</time>
      </trkpt>
      <trkpt lat="59.390527959913015" lon="13.528857920318842">
        <ele>48.84</ele>
        <time>2025-02-02T20:20:38.123Z</time>
      </trkpt>
      <trkpt lat="59.39052293077111" lon="13.528806958347559">
        <ele>48.83</ele>
        <time>2025-02-02T20:20:38.173Z</time>
      </trkpt>
      <trkpt lat="59.39051697961986" lon="13.528750967234373">
        <ele>48.83</ele>
        <time>2025-02-02T20:20:38.223Z</time>
      </trkpt>
      <trkpt lat="59.390508932992816" lon="13.528689946979284">
        <ele>48.83</ele>
        <time>2025-02-02T20:20:38.274Z</time>
      </trkpt>
      <trkpt lat="59.3905009701848" lon="13.528622975572944">
        <ele>48.82</ele>
        <time>2025-02-02T20:20:38.325Z</time>
      </trkpt>
      <trkpt lat="59.39049099572003" lon="13.528552986681461">
        <ele>48.82</ele>
        <time>2025-02-02T20:20:38.377Z</time>
      </trkpt>
      <trkpt lat="59.390481943264604" lon="13.528481991961598">
        <ele>48.82</ele>
        <time>2025-02-02T20:20:38.429Z</time>
      </trkpt>
      <trkpt lat="59.39047398045659" lon="13.528406973928213">
        <ele>48.82</ele>
        <time>2025-02-02T20:20:38.482Z</time>
      </trkpt>
      <trkpt lat="59.39046794548631" lon="13.528332961723208">
        <ele>48.82</ele>
        <time>2025-02-02T20:20:38.536Z</time>
      </trkpt>
      <trkpt lat="59.390459982678294" lon="13.528257943689823">
        <ele>48.81</ele>
        <time>2025-02-02T20:20:38.590Z</time>
      </trkpt>
      <trkpt lat="59.39045193605125" lon="13.528184937313199">
        <ele>48.81</ele>
        <time>2025-02-02T20:20:38.645Z</time>
      </trkpt>
      <trkpt lat="59.390442967414856" lon="13.528111930936575">
        <ele>48.81</ele>
        <time>2025-02-02T20:20:38.700Z</time>
      </trkpt>
      <trkpt lat="59.39043299295008" lon="13.52803892455995">
        <ele>48.8</ele>
        <time>2025-02-02T20:20:38.756Z</time>
      </trkpt>
      <trkpt lat="59.39042494632304" lon="13.527967929840088">
        <ele>48.8</ele>
        <time>2025-02-02T20:20:38.813Z</time>
      </trkpt>
      <trkpt lat="59.390416983515024" lon="13.527897940948606">
        <ele>48.8</ele>
        <time>2025-02-02T20:20:38.870Z</time>
      </trkpt>
      <trkpt lat="59.39040893688798" lon="13.527828957885504">
        <ele>48.79</ele>
        <time>2025-02-02T20:20:38.928Z</time>
      </trkpt>
      <trkpt lat="59.390399968251586" lon="13.527758968994021">
        <ele>48.79</ele>
        <time>2025-02-02T20:20:38.986Z</time>
      </trkpt>
      <trkpt lat="59.39039292745292" lon="13.527687974274158">
        <ele>48.79</ele>
        <time>2025-02-02T20:20:39.045Z</time>
      </trkpt>
      <trkpt lat="59.39038496464491" lon="13.527611950412393">
        <ele>48.79</ele>
        <time>2025-02-02T20:20:39.105Z</time>
      </trkpt>
      <trkpt lat="59.390372978523374" lon="13.527536932379007">
        <ele>48.79</ele>
        <time>2025-02-02T20:20:39.165Z</time>
      </trkpt>
      <trkpt lat="59.39036199823022" lon="13.527464931830764">
        <ele>48.79</ele>
        <time>2025-02-02T20:20:39.226Z</time>
      </trkpt>
      <trkpt lat="59.39034699462354" lon="13.52739192545414">
        <ele>48.79</ele>
        <time>2025-02-02T20:20:39.288Z</time>
      </trkpt>
      <trkpt lat="59.390329979360104" lon="13.527314979583025">
        <ele>48.78</ele>
        <time>2025-02-02T20:20:39.350Z</time>
      </trkpt>
      <trkpt lat="59.39031799323857" lon="13.527230992913246">
        <ele>48.78</ele>
        <time>2025-02-02T20:20:39.413Z</time>
      </trkpt>
      <trkpt lat="59.390313969925046" lon="13.527140971273184">
        <ele>48.78</ele>
        <time>2025-02-02T20:20:39.477Z</time>
      </trkpt>
      <trkpt lat="59.39032193273306" lon="13.527050949633121">
        <ele>48.78</ele>
        <time>2025-02-02T20:20:39.541Z</time>
      </trkpt>
      <trkpt lat="59.39033995382488" lon="13.526963945478201">
        <ele>48.78</ele>
        <time>2025-02-02T20:20:39.606Z</time>
      </trkpt>
      <trkpt lat="59.39036794938147" lon="13.526881970465183">
        <ele>48.78</ele>
        <time>2025-02-02T20:20:39.672Z</time>
      </trkpt>
      <trkpt lat="59.39040298573673" lon="13.526803934946656">
        <ele>48.77</ele>
        <time>2025-02-02T20:20:39.739Z</time>
      </trkpt>
      <trkpt lat="59.390439949929714" lon="13.526729922741652">
        <ele>48.77</ele>
        <time>2025-02-02T20:20:39.807Z</time>
      </trkpt>
      <trkpt lat="59.39047993160784" lon="13.526657922193408">
        <ele>48.77</ele>
        <time>2025-02-02T20:20:39.876Z</time>
      </trkpt>
      <trkpt lat="59.39051899127662" lon="13.526584999635816">
        <ele>48.77</ele>
        <time>2025-02-02T20:20:39.945Z</time>
      </trkpt>
      <trkpt lat="59.39055796712637" lon="13.526506964117289">
        <ele>48.78</ele>
        <time>2025-02-02T20:20:40.015Z</time>
      </trkpt>
      <trkpt lat="59.39059694297612" lon="13.526429934427142">
        <ele>48.78</ele>
        <time>2025-02-02T20:20:40.086Z</time>
      </trkpt>
      <trkpt lat="59.39063893631101" lon="13.526351982727647">
        <ele>48.78</ele>
        <time>2025-02-02T20:20:40.158Z</time>
      </trkpt>
      <trkpt lat="59.390678917989135" lon="13.52627294138074">
        <ele>48.79</ele>
        <time>2025-02-02T20:20:40.231Z</time>
      </trkpt>
      <trkpt lat="59.390721917152405" lon="13.526193983852863">
        <ele>48.79</ele>
        <time>2025-02-02T20:20:40.305Z</time>
      </trkpt>
      <trkpt lat="59.390766927972436" lon="13.526114942505956">
        <ele>48.79</ele>
        <time>2025-02-02T20:20:40.380Z</time>
      </trkpt>
      <trkpt lat="59.39081093296409" lon="13.526033973321319">
        <ele>48.8</ele>
        <time>2025-02-02T20:20:40.456Z</time>
      </trkpt>
      <trkpt lat="59.39085594378412" lon="13.52594998665154">
        <ele>48.8</ele>
        <time>2025-02-02T20:20:40.533Z</time>
      </trkpt>
      <trkpt lat="59.39090196043253" lon="13.52586499415338">
        <ele>48.81</ele>
        <time>2025-02-02T20:20:40.611Z</time>
      </trkpt>
      <trkpt lat="59.39094596542418" lon="13.52578192949295">
        <ele>48.81</ele>
        <time>2025-02-02T20:20:40.690Z</time>
      </trkpt>
      <trkpt lat="59.39098997041583" lon="13.525702971965075">
        <ele>48.82</ele>
        <time>2025-02-02T20:20:40.770Z</time>
      </trkpt>
      <trkpt lat="59.39103095792234" lon="13.525620996952057">
        <ele>48.82</ele>
        <time>2025-02-02T20:20:40.851Z</time>
      </trkpt>
      <trkpt lat="59.39106892794371" lon="13.525537932291627">
        <ele>48.83</ele>
        <time>2025-02-02T20:20:40.933Z</time>
      </trkpt>
      <trkpt lat="59.391104970127344" lon="13.52545696310699">
        <ele>48.83</ele>
        <time>2025-02-02T20:20:41.016Z</time>
      </trkpt>
      <trkpt lat="59.39113891683519" lon="13.525381945073605">
        <ele>48.83</ele>
        <time>2025-02-02T20:20:41.099Z</time>
      </trkpt>
      <trkpt lat="59.391172947362065" lon="13.5253079328686">
        <ele>48.83</ele>
        <time>2025-02-02T20:20:41.183Z</time>
      </trkpt>
      <trkpt lat="59.3912089895457" lon="13.525239955633879">
        <ele>48.84</ele>
        <time>2025-02-02T20:20:41.268Z</time>
      </trkpt>
      <trkpt lat="59.39124293625355" lon="13.525167955085635">
        <ele>48.84</ele>
        <time>2025-02-02T20:20:41.354Z</time>
      </trkpt>
      <trkpt lat="59.391276966780424" lon="13.525103917345405">
        <ele>48.85</ele>
        <time>2025-02-02T20:20:41.441Z</time>
      </trkpt>
      <trkpt lat="59.39130898565054" lon="13.525036945939064">
        <ele>48.85</ele>
        <time>2025-02-02T20:20:41.528Z</time>
      </trkpt>
      <trkpt lat="59.391339998692274" lon="13.524977937340736">
        <ele>48.86</ele>
        <time>2025-02-02T20:20:41.616Z</time>
      </trkpt>
      <trkpt lat="59.39137293957174" lon="13.52491993457079">
        <ele>48.86</ele>
        <time>2025-02-02T20:20:41.705Z</time>
      </trkpt>
      <trkpt lat="59.391407975926995" lon="13.524860925972462">
        <ele>48.87</ele>
        <time>2025-02-02T20:20:41.795Z</time>
      </trkpt>
      <trkpt lat="59.39144192263484" lon="13.524796972051263">
        <ele>48.87</ele>
        <time>2025-02-02T20:20:41.885Z</time>
      </trkpt>
      <trkpt lat="59.391474947333336" lon="13.524736957624555">
        <ele>48.88</ele>
        <time>2025-02-02T20:20:41.976Z</time>
      </trkpt>
      <trkpt lat="59.39150797203183" lon="13.524677949026227">
        <ele>48.88</ele>
        <time>2025-02-02T20:20:42.068Z</time>
      </trkpt>
      <trkpt lat="59.39154099673033" lon="13.524613995105028">
        <ele>48.89</ele>
        <time>2025-02-02T20:20:42.160Z</time>
      </trkpt>
      <trkpt lat="59.39157293178141" lon="13.52455398067832">
        <ele>48.9</ele>
        <time>2025-02-02T20:20:42.253Z</time>
      </trkpt>
      <trkpt lat="59.391603944823146" lon="13.524486925452948">
        <ele>48.9</ele>
        <time>2025-02-02T20:20:42.347Z</time>
      </trkpt>
      <trkpt lat="59.39163294620812" lon="13.524415930733085">
        <ele>48.91</ele>
        <time>2025-02-02T20:20:42.442Z</time>
      </trkpt>
      <trkpt lat="59.39166094176471" lon="13.524343930184841">
        <ele>48.92</ele>
        <time>2025-02-02T20:20:42.537Z</time>
      </trkpt>
      <trkpt lat="59.391689943149686" lon="13.524277964606881">
        <ele>48.92</ele>
        <time>2025-02-02T20:20:42.633Z</time>
      </trkpt>
      <trkpt lat="59.39171995036304" lon="13.52420998737216">
        <ele>48.93</ele>
        <time>2025-02-02T20:20:42.730Z</time>
      </trkpt>
      <trkpt lat="59.391750963404775" lon="13.524138992652297">
        <ele>48.93</ele>
        <time>2025-02-02T20:20:42.828Z</time>
      </trkpt>
      <trkpt lat="59.39177795313299" lon="13.524069925770164">
        <ele>48.94</ele>
        <time>2025-02-02T20:20:42.926Z</time>
      </trkpt>
      <trkpt lat="59.39180796034634" lon="13.524000942707062">
        <ele>48.94</ele>
        <time>2025-02-02T20:20:43.025Z</time>
      </trkpt>
      <trkpt lat="59.39184199087322" lon="13.523937994614244">
        <ele>48.95</ele>
        <time>2025-02-02T20:20:43.125Z</time>
      </trkpt>
      <trkpt lat="59.39187593758106" lon="13.523873956874013">
        <ele>48.95</ele>
        <time>2025-02-02T20:20:43.226Z</time>
      </trkpt>
      <trkpt lat="59.39191499724984" lon="13.523804973810911">
        <ele>48.96</ele>
        <time>2025-02-02T20:20:43.327Z</time>
      </trkpt>
      <trkpt lat="59.39195497892797" lon="13.523730961605906">
        <ele>48.96</ele>
        <time>2025-02-02T20:20:43.429Z</time>
      </trkpt>
      <trkpt lat="59.39199395477772" lon="13.523655943572521">
        <ele>48.96</ele>
        <time>2025-02-02T20:20:43.532Z</time>
      </trkpt>
      <trkpt lat="59.392030918970704" lon="13.523579919710755">
        <ele>48.95</ele>
        <time>2025-02-02T20:20:43.636Z</time>
      </trkpt>
      <trkpt lat="59.39206696115434" lon="13.523504985496402">
        <ele>48.95</ele>
        <time>2025-02-02T20:20:43.741Z</time>
      </trkpt>
      <trkpt lat="59.39210493117571" lon="13.52343793027103">
        <ele>48.95</ele>
        <time>2025-02-02T20:20:43.847Z</time>
      </trkpt>
      <trkpt lat="59.39214499667287" lon="13.523369953036308">
        <ele>48.94</ele>
        <time>2025-02-02T20:20:43.954Z</time>
      </trkpt>
      <trkpt lat="59.392183972522616" lon="13.523294935002923">
        <ele>48.94</ele>
        <time>2025-02-02T20:20:44.061Z</time>
      </trkpt>
      <trkpt lat="59.392222948372364" lon="13.523216983303428">
        <ele>48.94</ele>
        <time>2025-02-02T20:20:44.169Z</time>
      </trkpt>
      <trkpt lat="59.39226192422211" lon="13.5231389477849">
        <ele>48.94</ele>
        <time>2025-02-02T20:20:44.278Z</time>
      </trkpt>
      <trkpt lat="59.39229997806251" lon="13.523059990257025">
        <ele>48.94</ele>
        <time>2025-02-02T20:20:44.388Z</time>
      </trkpt>
      <trkpt lat="59.39234096556902" lon="13.522979943081737">
        <ele>48.94</ele>
        <time>2025-02-02T20:20:44.499Z</time>
      </trkpt>
      <trkpt lat="59.39238295890391" lon="13.522915989160538">
        <ele>48.94</ele>
        <time>2025-02-02T20:20:44.611Z</time>
      </trkpt>
      <trkpt lat="59.39242294058204" lon="13.522842982783914">
        <ele>48.94</ele>
        <time>2025-02-02T20:20:44.724Z</time>
      </trkpt>
      <trkpt lat="59.392462922260165" lon="13.522772993892431">
        <ele>48.94</ele>
        <time>2025-02-02T20:20:44.838Z</time>
      </trkpt>
      <trkpt lat="59.392501981928945" lon="13.522691940888762">
        <ele>48.94</ele>
        <time>2025-02-02T20:20:44.953Z</time>
      </trkpt>
      <trkpt lat="59.39254296943545" lon="13.522605942562222">
        <ele>48.94</ele>
        <time>2025-02-02T20:20:45.068Z</time>
      </trkpt>
      <trkpt lat="59.392587980255485" lon="13.522519944235682">
        <ele>48.94</ele>
        <time>2025-02-02T20:20:45.184Z</time>
      </trkpt>
      <trkpt lat="59.392632991075516" lon="13.52242992259562">
        <ele>48.94</ele>
        <time>2025-02-02T20:20:45.302Z</time>
      </trkpt>
      <trkpt lat="59.392677918076515" lon="13.522337973117828">
        <ele>48.94</ele>
        <time>2025-02-02T20:20:45.421Z</time>
      </trkpt>
      <trkpt lat="59.39272494055331" lon="13.522249963134527">
        <ele>48.93</ele>
        <time>2025-02-02T20:20:45.541Z</time>
      </trkpt>
      <trkpt lat="59.39276793971658" lon="13.522152984514832">
        <ele>48.93</ele>
        <time>2025-02-02T20:20:45.662Z</time>
      </trkpt>
      <trkpt lat="59.39281295053661" lon="13.522053994238377">
        <ele>48.93</ele>
        <time>2025-02-02T20:20:45.784Z</time>
      </trkpt>
      <trkpt lat="59.39285695552826" lon="13.521950980648398">
        <ele>48.93</ele>
        <time>2025-02-02T20:20:45.907Z</time>
      </trkpt>
      <trkpt lat="59.39289995469153" lon="13.52184696123004">
        <ele>48.93</ele>
        <time>2025-02-02T20:20:46.031Z</time>
      </trkpt>
      <trkpt lat="59.39294094219804" lon="13.521739924326539">
        <ele>48.93</ele>
        <time>2025-02-02T20:20:46.156Z</time>
      </trkpt>
      <trkpt lat="59.392977990210056" lon="13.521628947928548">
        <ele>48.93</ele>
        <time>2025-02-02T20:20:46.282Z</time>
      </trkpt>
      <trkpt lat="59.39301596023142" lon="13.521512942388654">
        <ele>48.94</ele>
        <time>2025-02-02T20:20:46.409Z</time>
      </trkpt>
      <trkpt lat="59.39305493608117" lon="13.521399954333901">
        <ele>48.94</ele>
        <time>2025-02-02T20:20:46.537Z</time>
      </trkpt>
      <trkpt lat="59.39309592358768" lon="13.521295934915543">
        <ele>48.93</ele>
        <time>2025-02-02T20:20:46.666Z</time>
      </trkpt>
      <trkpt lat="59.39313598908484" lon="13.521191999316216">
        <ele>48.93</ele>
        <time>2025-02-02T20:20:46.796Z</time>
      </trkpt>
      <trkpt lat="59.39317597076297" lon="13.521088985726237">
        <ele>48.93</ele>
        <time>2025-02-02T20:20:46.928Z</time>
      </trkpt>
      <trkpt lat="59.393214946612716" lon="13.520982954651117">
        <ele>48.93</ele>
        <time>2025-02-02T20:20:47.061Z</time>
      </trkpt>
      <trkpt lat="59.39325392246246" lon="13.520873989909887">
        <ele>48.93</ele>
        <time>2025-02-02T20:20:47.195Z</time>
      </trkpt>
      <trkpt lat="59.39329097047448" lon="13.520762929692864">
        <ele>48.92</ele>
        <time>2025-02-02T20:20:47.330Z</time>
      </trkpt>
      <trkpt lat="59.39332894049585" lon="13.520653964951634">
        <ele>48.9</ele>
        <time>2025-02-02T20:20:47.466Z</time>
      </trkpt>
      <trkpt lat="59.39336598850787" lon="13.52053896524012">
        <ele>48.89</ele>
        <time>2025-02-02T20:20:47.603Z</time>
      </trkpt>
      <trkpt lat="59.39339993521571" lon="13.52042698301375">
        <ele>48.88</ele>
        <time>2025-02-02T20:20:47.741Z</time>
      </trkpt>
      <trkpt lat="59.39343195408583" lon="13.520306954160333">
        <ele>48.87</ele>
        <time>2025-02-02T20:20:47.880Z</time>
      </trkpt>
      <trkpt lat="59.39346196129918" lon="13.520182985812426">
        <ele>48.86</ele>
        <time>2025-02-02T20:20:48.020Z</time>
      </trkpt>
      <trkpt lat="59.393491968512535" lon="13.520059939473867">
        <ele>48.85</ele>
        <time>2025-02-02T20:20:48.161Z</time>
      </trkpt>
      <trkpt lat="59.39352398738265" lon="13.519937982782722">
        <ele>48.84</ele>
        <time>2025-02-02T20:20:48.304Z</time>
      </trkpt>
      <trkpt lat="59.393555922433734" lon="13.519818959757686">
        <ele>48.82</ele>
        <time>2025-02-02T20:20:48.448Z</time>
      </trkpt>
      <trkpt lat="59.39358299598098" lon="13.519697925075889">
        <ele>48.81</ele>
        <time>2025-02-02T20:20:48.593Z</time>
      </trkpt>
      <trkpt lat="59.39360797405243" lon="13.519568927586079">
        <ele>48.79</ele>
        <time>2025-02-02T20:20:48.739Z</time>
      </trkpt>
      <trkpt lat="59.39363094046712" lon="13.519439930096269">
        <ele>48.77</ele>
        <time>2025-02-02T20:20:48.886Z</time>
      </trkpt>
      <trkpt lat="59.39365399070084" lon="13.519310932606459">
        <ele>48.76</ele>
        <time>2025-02-02T20:20:49.034Z</time>
      </trkpt>
      <trkpt lat="59.39367494545877" lon="13.519179923459888">
        <ele>48.74</ele>
        <time>2025-02-02T20:20:49.183Z</time>
      </trkpt>
      <trkpt lat="59.39369497820735" lon="13.519050925970078">
        <ele>48.72</ele>
        <time>2025-02-02T20:20:49.333Z</time>
      </trkpt>
      <trkpt lat="59.3937149271369" lon="13.51892695762217">
        <ele>48.7</ele>
        <time>2025-02-02T20:20:49.484Z</time>
      </trkpt>
      <trkpt lat="59.39373495988548" lon="13.518803995102644">
        <ele>48.68</ele>
        <time>2025-02-02T20:20:49.636Z</time>
      </trkpt>
      <trkpt lat="59.39375692047179" lon="13.518679942935705">
        <ele>48.66</ele>
        <time>2025-02-02T20:20:49.789Z</time>
      </trkpt>
      <trkpt lat="59.39377795904875" lon="13.518550945445895">
        <ele>48.64</ele>
        <time>2025-02-02T20:20:49.944Z</time>
      </trkpt>
      <trkpt lat="59.39379991963506" lon="13.51842999458313">
        <ele>48.61</ele>
        <time>2025-02-02T20:20:50.100Z</time>
      </trkpt>
      <trkpt lat="59.39382296986878" lon="13.518309965729713">
        <ele>48.58</ele>
        <time>2025-02-02T20:20:50.257Z</time>
      </trkpt>
      <trkpt lat="59.39384493045509" lon="13.518187925219536">
        <ele>48.56</ele>
        <time>2025-02-02T20:20:50.415Z</time>
      </trkpt>
      <trkpt lat="59.39386697486043" lon="13.51806596852839">
        <ele>48.54</ele>
        <time>2025-02-02T20:20:50.574Z</time>
      </trkpt>
      <trkpt lat="59.39388994127512" lon="13.517943928018212">
        <ele>48.51</ele>
        <time>2025-02-02T20:20:50.734Z</time>
      </trkpt>
      <trkpt lat="59.39391491934657" lon="13.517821971327066">
        <ele>48.48</ele>
        <time>2025-02-02T20:20:50.895Z</time>
      </trkpt>
      <trkpt lat="59.39394794404507" lon="13.517708983272314">
        <ele>48.46</ele>
        <time>2025-02-02T20:20:51.057Z</time>
      </trkpt>
      <trkpt lat="59.393986919894814" lon="13.517606975510716">
        <ele>48.43</ele>
        <time>2025-02-02T20:20:51.220Z</time>
      </trkpt>
      <trkpt lat="59.394028997048736" lon="13.517512930557132">
        <ele>48.41</ele>
        <time>2025-02-02T20:20:51.384Z</time>
      </trkpt>
      <trkpt lat="59.39406797289848" lon="13.517416957765818">
        <ele>48.38</ele>
        <time>2025-02-02T20:20:51.549Z</time>
      </trkpt>
      <trkpt lat="59.394095968455076" lon="13.517308998852968">
        <ele>48.36</ele>
        <time>2025-02-02T20:20:51.715Z</time>
      </trkpt>
      <trkpt lat="59.39411097206175" lon="13.517192993313074">
        <ele>48.34</ele>
        <time>2025-02-02T20:20:51.882Z</time>
      </trkpt>
      <trkpt lat="59.394115917384624" lon="13.517078999429941">
        <ele>48.31</ele>
        <time>2025-02-02T20:20:52.050Z</time>
      </trkpt>
      <trkpt lat="59.394115917384624" lon="13.516966933384538">
        <ele>48.29</ele>
        <time>2025-02-02T20:20:52.219Z</time>
      </trkpt>
      <trkpt lat="59.39412496984005" lon="13.516858974471688">
        <ele>48.27</ele>
        <time>2025-02-02T20:20:52.389Z</time>
      </trkpt>
      <trkpt lat="59.39414894208312" lon="13.516767947003245">
        <ele>48.24</ele>
        <time>2025-02-02T20:20:52.560Z</time>
      </trkpt>
      <trkpt lat="59.39418791793287" lon="13.516698963940144">
        <ele>48.22</ele>
        <time>2025-02-02T20:20:52.731Z</time>
      </trkpt>
      <trkpt lat="59.39423494040966" lon="13.51665093563497">
        <ele>48.19</ele>
        <time>2025-02-02T20:20:52.903Z</time>
      </trkpt>
      <trkpt lat="59.394283974543214" lon="13.516622940078378">
        <ele>48.16</ele>
        <time>2025-02-02T20:20:53.076Z</time>
      </trkpt>
      <trkpt lat="59.394332924857736" lon="13.516610953956842">
        <ele>48.13</ele>
        <time>2025-02-02T20:20:53.250Z</time>
      </trkpt>
      <trkpt lat="59.39437894150615" lon="13.516612965613604">
        <ele>48.1</ele>
        <time>2025-02-02T20:20:53.425Z</time>
      </trkpt>
      <trkpt lat="59.39442696981132" lon="13.516615983098745">
        <ele>48.07</ele>
        <time>2025-02-02T20:20:53.600Z</time>
      </trkpt>
      <trkpt lat="59.39447399228811" lon="13.516617994755507">
        <ele>48.04</ele>
        <time>2025-02-02T20:20:53.776Z</time>
      </trkpt>
      <trkpt lat="59.394523948431015" lon="13.516617994755507">
        <ele>48.0</ele>
        <time>2025-02-02T20:20:53.953Z</time>
      </trkpt>
      <trkpt lat="59.39457398839295" lon="13.516619922593236">
        <ele>47.97</ele>
        <time>2025-02-02T20:20:54.131Z</time>
      </trkpt>
      <trkpt lat="59.39462293870747" lon="13.51662595756352">
        <ele>47.94</ele>
        <time>2025-02-02T20:20:54.310Z</time>
      </trkpt>
      <trkpt lat="59.394671972841024" lon="13.516636937856674">
        <ele>47.9</ele>
        <time>2025-02-02T20:20:54.489Z</time>
      </trkpt>
      <trkpt lat="59.39472293481231" lon="13.51664892397821">
        <ele>47.87</ele>
        <time>2025-02-02T20:20:54.669Z</time>
      </trkpt>
      <trkpt lat="59.39477096311748" lon="13.516660993918777">
        <ele>47.84</ele>
        <time>2025-02-02T20:20:54.850Z</time>
      </trkpt>
      <trkpt lat="59.39481798559427" lon="13.516674991697073">
        <ele>47.8</ele>
        <time>2025-02-02T20:20:55.032Z</time>
      </trkpt>
      <trkpt lat="59.394862996414304" lon="13.51669192314148">
        <ele>47.76</ele>
        <time>2025-02-02T20:20:55.215Z</time>
      </trkpt>
      <trkpt lat="59.39490691758692" lon="13.516707932576537">
        <ele>47.73</ele>
        <time>2025-02-02T20:20:55.398Z</time>
      </trkpt>
      <trkpt lat="59.394948994740844" lon="13.516720924526453">
        <ele>47.69</ele>
        <time>2025-02-02T20:20:55.582Z</time>
      </trkpt>
      <trkpt lat="59.39498998224735" lon="13.516729976981878">
        <ele>47.65</ele>
        <time>2025-02-02T20:20:55.767Z</time>
      </trkpt>
      <trkpt lat="59.39503197558224" lon="13.516739951446652">
        <ele>47.61</ele>
        <time>2025-02-02T20:20:55.952Z</time>
      </trkpt>
      <trkpt lat="59.39507396891713" lon="13.516750931739807">
        <ele>47.57</ele>
        <time>2025-02-02T20:20:56.138Z</time>
      </trkpt>
      <trkpt lat="59.39511395059526" lon="13.516752943396568">
        <ele>47.53</ele>
        <time>2025-02-02T20:20:56.325Z</time>
      </trkpt>
      <trkpt lat="59.39514898695052" lon="13.516730982810259">
        <ele>47.49</ele>
        <time>2025-02-02T20:20:56.512Z</time>
      </trkpt>
      <trkpt lat="59.39517396502197" lon="13.516679937019944">
        <ele>47.45</ele>
        <time>2025-02-02T20:20:56.700Z</time>
      </trkpt>
      <trkpt lat="59.395187962800264" lon="13.516608942300081">
        <ele>47.4</ele>
        <time>2025-02-02T20:20:56.888Z</time>
      </trkpt>
      <trkpt lat="59.3951949197799" lon="13.5165199264884">
        <ele>47.36</ele>
        <time>2025-02-02T20:20:57.077Z</time>
      </trkpt>
      <trkpt lat="59.39520196057856" lon="13.516416996717453">
        <ele>47.31</ele>
        <time>2025-02-02T20:20:57.267Z</time>
      </trkpt>
      <trkpt lat="59.39521495252848" lon="13.516299985349178">
        <ele>47.26</ele>
        <time>2025-02-02T20:20:57.458Z</time>
      </trkpt>
      <trkpt lat="59.39523498527706" lon="13.516168976202607">
        <ele>47.21</ele>
        <time>2025-02-02T20:20:57.650Z</time>
      </trkpt>
      <trkpt lat="59.39526298083365" lon="13.516020951792598">
        <ele>47.16</ele>
        <time>2025-02-02T20:20:57.843Z</time>
      </trkpt>
      <trkpt lat="59.395292988047004" lon="13.515865970402956">
        <ele>47.11</ele>
        <time>2025-02-02T20:20:58.038Z</time>
      </trkpt>
      <trkpt lat="59.3953209836036" lon="13.515698919072747">
        <ele>47.06</ele>
        <time>2025-02-02T20:20:58.234Z</time>
      </trkpt>
      <trkpt lat="59.39534495584667" lon="13.515523988753557">
        <ele>47.02</ele>
        <time>2025-02-02T20:20:58.432Z</time>
      </trkpt>
      <trkpt lat="59.39536599442363" lon="13.515343945473433">
        <ele>46.97</ele>
        <time>2025-02-02T20:20:58.631Z</time>
      </trkpt>
      <trkpt lat="59.39539197832346" lon="13.51516893133521">
        <ele>46.93</ele>
        <time>2025-02-02T20:20:58.832Z</time>
      </trkpt>
      <trkpt lat="59.395422991365194" lon="13.515001963824034">
        <ele>46.88</ele>
        <time>2025-02-02T20:20:59.034Z</time>
      </trkpt>
      <trkpt lat="59.395464984700084" lon="13.514851927757263">
        <ele>46.84</ele>
        <time>2025-02-02T20:20:59.237Z</time>
      </trkpt>
      <trkpt lat="59.395510917529464" lon="13.514708932489157">
        <ele>46.8</ele>
        <time>2025-02-02T20:20:59.442Z</time>
      </trkpt>
      <trkpt lat="59.395557940006256" lon="13.514574989676476">
        <ele>46.77</ele>
        <time>2025-02-02T20:20:59.648Z</time>
      </trkpt>
      <trkpt lat="59.39560395665467" lon="13.514438951388001">
        <ele>46.74</ele>
        <time>2025-02-02T20:20:59.856Z</time>
      </trkpt>
      <trkpt lat="59.39564796164632" lon="13.514309953898191">
        <ele>46.71</ele>
        <time>2025-02-02T20:21:00.065Z</time>
      </trkpt>
      <trkpt lat="59.39568894915283" lon="13.514169976115227">
        <ele>46.67</ele>
        <time>2025-02-02T20:21:00.275Z</time>
      </trkpt>
      <trkpt lat="59.395726919174194" lon="13.514030920341611">
        <ele>46.63</ele>
        <time>2025-02-02T20:21:00.486Z</time>
      </trkpt>
      <trkpt lat="59.395765978842974" lon="13.513892954215407">
        <ele>46.58</ele>
        <time>2025-02-02T20:21:00.699Z</time>
      </trkpt>
      <trkpt lat="59.39580193720758" lon="13.513753982260823">
        <ele>46.54</ele>
        <time>2025-02-02T20:21:00.913Z</time>
      </trkpt>
      <trkpt lat="59.3958389852196" lon="13.513622973114252">
        <ele>46.49</ele>
        <time>2025-02-02T20:21:01.128Z</time>
      </trkpt>
      <trkpt lat="59.39587393775582" lon="13.513492969796062">
        <ele>46.45</ele>
        <time>2025-02-02T20:21:01.344Z</time>
      </trkpt>
      <trkpt lat="59.3959079682827" lon="13.51336095482111">
        <ele>46.4</ele>
        <time>2025-02-02T20:21:01.562Z</time>
      </trkpt>
      <trkpt lat="59.395937975496054" lon="13.513228939846158">
        <ele>46.36</ele>
        <time>2025-02-02T20:21:01.781Z</time>
      </trkpt>
      <trkpt lat="59.39595893025398" lon="13.513089967891574">
        <ele>46.31</ele>
        <time>2025-02-02T20:21:02.001Z</time>
      </trkpt>
      <trkpt lat="59.39597493968904" lon="13.512951917946339">
        <ele>46.27</ele>
        <time>2025-02-02T20:21:02.222Z</time>
      </trkpt>
      <trkpt lat="59.39599497243762" lon="13.512822920456529">
        <ele>46.22</ele>
        <time>2025-02-02T20:21:02.444Z</time>
      </trkpt>
      <trkpt lat="59.39602196216583" lon="13.512698952108622">
        <ele>46.18</ele>
        <time>2025-02-02T20:21:02.667Z</time>
      </trkpt>
      <trkpt lat="59.39605599269271" lon="13.512581940740347">
        <ele>46.13</ele>
        <time>2025-02-02T20:21:02.891Z</time>
      </trkpt>
      <trkpt lat="59.396091951057315" lon="13.512465935200453">
        <ele>46.09</ele>
        <time>2025-02-02T20:21:03.117Z</time>
      </trkpt>
      <trkpt lat="59.39612598158419" lon="13.512348923832178">
        <ele>46.04</ele>
        <time>2025-02-02T20:21:03.344Z</time>
      </trkpt>
      <trkpt lat="59.396158922463655" lon="13.512231996282935">
        <ele>46.0</ele>
        <time>2025-02-02T20:21:03.572Z</time>
      </trkpt>
      <trkpt lat="59.39619395881891" lon="13.51211791858077">
        <ele>45.95</ele>
        <time>2025-02-02T20:21:03.801Z</time>
      </trkpt>
      <trkpt lat="59.39622899517417" lon="13.51200794801116">
        <ele>45.91</ele>
        <time>2025-02-02T20:21:04.031Z</time>
      </trkpt>
      <trkpt lat="59.39625992439687" lon="13.511891942471266">
        <ele>45.86</ele>
        <time>2025-02-02T20:21:04.262Z</time>
      </trkpt>
      <trkpt lat="59.39629294909537" lon="13.51177291944623">
        <ele>45.82</ele>
        <time>2025-02-02T20:21:04.494Z</time>
      </trkpt>
      <trkpt lat="59.396327985450625" lon="13.511648951098323">
        <ele>45.77</ele>
        <time>2025-02-02T20:21:04.727Z</time>
      </trkpt>
      <trkpt lat="59.39636595547199" lon="13.511518947780132">
        <ele>45.73</ele>
        <time>2025-02-02T20:21:04.961Z</time>
      </trkpt>
      <trkpt lat="59.39640794880688" lon="13.511391961947083">
        <ele>45.69</ele>
        <time>2025-02-02T20:21:05.197Z</time>
      </trkpt>
      <trkpt lat="59.39644893631339" lon="13.511263970285654">
        <ele>45.65</ele>
        <time>2025-02-02T20:21:05.434Z</time>
      </trkpt>
      <trkpt lat="59.39649193547666" lon="13.511136984452605">
        <ele>45.6</ele>
        <time>2025-02-02T20:21:05.672Z</time>
      </trkpt>
      <trkpt lat="59.39653392881155" lon="13.511005975306034">
        <ele>45.57</ele>
        <time>2025-02-02T20:21:05.911Z</time>
      </trkpt>
      <trkpt lat="59.39657692797482" lon="13.510874966159463">
        <ele>45.53</ele>
        <time>2025-02-02T20:21:06.152Z</time>
      </trkpt>
      <trkpt lat="59.39661799930036" lon="13.510744962841272">
        <ele>45.49</ele>
        <time>2025-02-02T20:21:06.394Z</time>
      </trkpt>
      <trkpt lat="59.39665898680687" lon="13.510614959523082">
        <ele>45.45</ele>
        <time>2025-02-02T20:21:06.637Z</time>
      </trkpt>
      <trkpt lat="59.396698968485" lon="13.51048395037651">
        <ele>45.41</ele>
        <time>2025-02-02T20:21:06.881Z</time>
      </trkpt>
      <trkpt lat="59.396737944334745" lon="13.510351935401559">
        <ele>45.37</ele>
        <time>2025-02-02T20:21:07.127Z</time>
      </trkpt>
      <trkpt lat="59.39677692018449" lon="13.510220926254988">
        <ele>45.33</ele>
        <time>2025-02-02T20:21:07.374Z</time>
      </trkpt>
      <trkpt lat="59.39681296236813" lon="13.510083965957165">
        <ele>45.29</ele>
        <time>2025-02-02T20:21:07.622Z</time>
      </trkpt>
      <trkpt lat="59.39684892073274" lon="13.509950945153832">
        <ele>45.25</ele>
        <time>2025-02-02T20:21:07.871Z</time>
      </trkpt>
      <trkpt lat="59.39688295125961" lon="13.5098179243505">
        <ele>45.21</ele>
        <time>2025-02-02T20:21:08.122Z</time>
      </trkpt>
      <trkpt lat="59.39691698178649" lon="13.50968599319458">
        <ele>45.18</ele>
        <time>2025-02-02T20:21:08.374Z</time>
      </trkpt>
      <trkpt lat="59.396949922665954" lon="13.509554984048009">
        <ele>45.14</ele>
        <time>2025-02-02T20:21:08.627Z</time>
      </trkpt>
      <trkpt lat="59.396990993991494" lon="13.509434955194592">
        <ele>45.11</ele>
        <time>2025-02-02T20:21:08.881Z</time>
      </trkpt>
      <trkpt lat="59.3970459792763" lon="13.50934099406004">
        <ele>45.07</ele>
        <time>2025-02-02T20:21:09.136Z</time>
      </trkpt>
      <trkpt lat="59.39710892736912" lon="13.509294977411628">
        <ele>45.03</ele>
        <time>2025-02-02T20:21:09.392Z</time>
      </trkpt>
      <trkpt lat="59.39717497676611" lon="13.509299922734499">
        <ele>44.99</ele>
        <time>2025-02-02T20:21:09.650Z</time>
      </trkpt>
      <trkpt lat="59.39723691903055" lon="13.509331941604614">
        <ele>44.94</ele>
        <time>2025-02-02T20:21:09.909Z</time>
      </trkpt>
      <trkpt lat="59.39730296842754" lon="13.50936496630311">
        <ele>44.9</ele>
        <time>2025-02-02T20:21:10.169Z</time>
      </trkpt>
      <trkpt lat="59.39736591652036" lon="13.50936496630311">
        <ele>44.86</ele>
        <time>2025-02-02T20:21:10.430Z</time>
      </trkpt>
      <trkpt lat="59.39741495065391" lon="13.509314926341176">
        <ele>44.83</ele>
        <time>2025-02-02T20:21:10.692Z</time>
      </trkpt>
      <trkpt lat="59.39744898118079" lon="13.509220965206623">
        <ele>44.8</ele>
        <time>2025-02-02T20:21:10.955Z</time>
      </trkpt>
      <trkpt lat="59.397475970909" lon="13.509114934131503">
        <ele>44.77</ele>
        <time>2025-02-02T20:21:11.218Z</time>
      </trkpt>
      <trkpt lat="59.39750195480883" lon="13.509012926369905">
        <ele>44.74</ele>
        <time>2025-02-02T20:21:11.482Z</time>
      </trkpt>
      <trkpt lat="59.39752693288028" lon="13.508909996598959">
        <ele>44.71</ele>
        <time>2025-02-02T20:21:11.747Z</time>
      </trkpt>
      <trkpt lat="59.397550988942385" lon="13.50880991667509">
        <ele>44.69</ele>
        <time>2025-02-02T20:21:12.013Z</time>
      </trkpt>
      <trkpt lat="59.397575967013836" lon="13.508706986904144">
        <ele>44.66</ele>
        <time>2025-02-02T20:21:12.280Z</time>
      </trkpt>
      <trkpt lat="59.39760094508529" lon="13.508600955829024">
        <ele>44.63</ele>
        <time>2025-02-02T20:21:12.548Z</time>
      </trkpt>
      <trkpt lat="59.39762399531901" lon="13.508499953895807">
        <ele>44.6</ele>
        <time>2025-02-02T20:21:12.817Z</time>
      </trkpt>
      <trkpt lat="59.3976469617337" lon="13.50839995779097">
        <ele>44.58</ele>
        <time>2025-02-02T20:21:13.087Z</time>
      </trkpt>
      <trkpt lat="59.39767093397677" lon="13.50829292088747">
        <ele>44.56</ele>
        <time>2025-02-02T20:21:13.358Z</time>
      </trkpt>
      <trkpt lat="59.39769297838211" lon="13.508188985288143">
        <ele>44.54</ele>
        <time>2025-02-02T20:21:13.630Z</time>
      </trkpt>
      <trkpt lat="59.39771493896842" lon="13.508086977526546">
        <ele>44.52</ele>
        <time>2025-02-02T20:21:13.903Z</time>
      </trkpt>
      <trkpt lat="59.39773698337376" lon="13.50798798725009">
        <ele>44.5</ele>
        <time>2025-02-02T20:21:14.177Z</time>
      </trkpt>
      <trkpt lat="59.39775793813169" lon="13.507889918982983">
        <ele>44.48</ele>
        <time>2025-02-02T20:21:14.451Z</time>
      </trkpt>
      <trkpt lat="59.39777696505189" lon="13.507790928706527">
        <ele>44.47</ele>
        <time>2025-02-02T20:21:14.726Z</time>
      </trkpt>
      <trkpt lat="59.39779599197209" lon="13.50769193843007">
        <ele>44.46</ele>
        <time>2025-02-02T20:21:15.002Z</time>
      </trkpt>
      <trkpt lat="59.397813929244876" lon="13.507590936496854">
        <ele>44.44</ele>
        <time>2025-02-02T20:21:15.279Z</time>
      </trkpt>
      <trkpt lat="59.397830944508314" lon="13.507486917078495">
        <ele>44.43</ele>
        <time>2025-02-02T20:21:15.557Z</time>
      </trkpt>
      <trkpt lat="59.39784695394337" lon="13.507382981479168">
        <ele>44.42</ele>
        <time>2025-02-02T20:21:15.836Z</time>
      </trkpt>
      <trkpt lat="59.39786095172167" lon="13.507277956232429">
        <ele>44.41</ele>
        <time>2025-02-02T20:21:16.116Z</time>
      </trkpt>
      <trkpt lat="59.3978729378432" lon="13.507171925157309">
        <ele>44.39</ele>
        <time>2025-02-02T20:21:16.397Z</time>
      </trkpt>
      <trkpt lat="59.39788299612701" lon="13.50706597790122">
        <ele>44.36</ele>
        <time>2025-02-02T20:21:16.679Z</time>
      </trkpt>
      <trkpt lat="59.39789297059178" lon="13.506956929340959">
        <ele>44.34</ele>
        <time>2025-02-02T20:21:16.961Z</time>
      </trkpt>
      <trkpt lat="59.39790193922818" lon="13.50684997625649">
        <ele>44.34</ele>
        <time>2025-02-02T20:21:17.244Z</time>
      </trkpt>
      <trkpt lat="59.39790998585522" lon="13.506746962666512">
        <ele>44.35</ele>
        <time>2025-02-02T20:21:17.528Z</time>
      </trkpt>
      <trkpt lat="59.397916942834854" lon="13.506645960733294">
        <ele>44.37</ele>
        <time>2025-02-02T20:21:17.813Z</time>
      </trkpt>
      <trkpt lat="59.39792297780514" lon="13.506543952971697">
        <ele>44.38</ele>
        <time>2025-02-02T20:21:18.099Z</time>
      </trkpt>
      <trkpt lat="59.39792792312801" lon="13.5064419452101">
        <ele>44.4</ele>
        <time>2025-02-02T20:21:18.386Z</time>
      </trkpt>
      <trkpt lat="59.39793194644153" lon="13.50633792579174">
        <ele>44.42</ele>
        <time>2025-02-02T20:21:18.674Z</time>
      </trkpt>
      <trkpt lat="59.397936975583434" lon="13.506233990192413">
        <ele>44.44</ele>
        <time>2025-02-02T20:21:18.962Z</time>
      </trkpt>
      <trkpt lat="59.397941920906305" lon="13.506129970774055">
        <ele>44.47</ele>
        <time>2025-02-02T20:21:19.251Z</time>
      </trkpt>
      <trkpt lat="59.39794493839145" lon="13.506025951355696">
        <ele>44.49</ele>
        <time>2025-02-02T20:21:19.541Z</time>
      </trkpt>
      <trkpt lat="59.39794594421983" lon="13.505921931937337">
        <ele>44.52</ele>
        <time>2025-02-02T20:21:19.832Z</time>
      </trkpt>
      <trkpt lat="59.39794695004821" lon="13.50581699050963">
        <ele>44.55</ele>
        <time>2025-02-02T20:21:20.124Z</time>
      </trkpt>
      <trkpt lat="59.39794795587659" lon="13.505713976919651">
        <ele>44.58</ele>
        <time>2025-02-02T20:21:20.417Z</time>
      </trkpt>
      <trkpt lat="59.39794795587659" lon="13.505609957501292">
        <ele>44.61</ele>
        <time>2025-02-02T20:21:20.711Z</time>
      </trkpt>
      <trkpt lat="59.39794795587659" lon="13.505504932254553">
        <ele>44.65</ele>
        <time>2025-02-02T20:21:21.005Z</time>
      </trkpt>
      <trkpt lat="59.39794594421983" lon="13.505398984998465">
        <ele>44.68</ele>
        <time>2025-02-02T20:21:21.300Z</time>
      </trkpt>
      <trkpt lat="59.39794393256307" lon="13.505291948094964">
        <ele>44.72</ele>
        <time>2025-02-02T20:21:21.596Z</time>
      </trkpt>
      <trkpt lat="59.397941920906305" lon="13.505183989182115">
        <ele>44.76</ele>
        <time>2025-02-02T20:21:21.893Z</time>
      </trkpt>
      <trkpt lat="59.397937981411815" lon="13.505075946450233">
        <ele>44.81</ele>
        <time>2025-02-02T20:21:22.191Z</time>
      </trkpt>
      <trkpt lat="59.39793496392667" lon="13.504967987537384">
        <ele>44.85</ele>
        <time>2025-02-02T20:21:22.490Z</time>
      </trkpt>
      <trkpt lat="59.39793094061315" lon="13.504858938977122">
        <ele>44.9</ele>
        <time>2025-02-02T20:21:22.790Z</time>
      </trkpt>
      <trkpt lat="59.3979249894619" lon="13.504749974235892">
        <ele>44.95</ele>
        <time>2025-02-02T20:21:23.091Z</time>
      </trkpt>
      <trkpt lat="59.397918954491615" lon="13.50464092567563">
        <ele>45.0</ele>
        <time>2025-02-02T20:21:23.392Z</time>
      </trkpt>
      <trkpt lat="59.39791199751198" lon="13.504532966762781">
        <ele>45.05</ele>
        <time>2025-02-02T20:21:23.694Z</time>
      </trkpt>
      <trkpt lat="59.39790495671332" lon="13.50442592985928">
        <ele>45.11</ele>
        <time>2025-02-02T20:21:23.997Z</time>
      </trkpt>
      <trkpt lat="59.397896993905306" lon="13.504317970946431">
        <ele>45.16</ele>
        <time>2025-02-02T20:21:24.301Z</time>
      </trkpt>
      <trkpt lat="59.39788794144988" lon="13.50421093404293">
        <ele>45.22</ele>
        <time>2025-02-02T20:21:24.606Z</time>
      </trkpt>
      <trkpt lat="59.39787796698511" lon="13.504106998443604">
        <ele>45.28</ele>
        <time>2025-02-02T20:21:24.912Z</time>
      </trkpt>
      <trkpt lat="59.39786799252033" lon="13.504005996510386">
        <ele>45.34</ele>
        <time>2025-02-02T20:21:25.219Z</time>
      </trkpt>
      <trkpt lat="59.39785793423653" lon="13.503906922414899">
        <ele>45.41</ele>
        <time>2025-02-02T20:21:25.527Z</time>
      </trkpt>
      <trkpt lat="59.39784795977175" lon="13.503808937966824">
        <ele>45.47</ele>
        <time>2025-02-02T20:21:25.835Z</time>
      </trkpt>
      <trkpt lat="59.3978369794786" lon="13.503719922155142">
        <ele>45.54</ele>
        <time>2025-02-02T20:21:26.144Z</time>
      </trkpt>
      <trkpt lat="59.39781895838678" lon="13.503642976284027">
        <ele>45.61</ele>
        <time>2025-02-02T20:21:26.454Z</time>
      </trkpt>
      <trkpt lat="59.397790962830186" lon="13.503601988777518">
        <ele>45.68</ele>
        <time>2025-02-02T20:21:26.764Z</time>
      </trkpt>
      <trkpt lat="59.39775492064655" lon="13.503593942150474">
        <ele>45.75</ele>
        <time>2025-02-02T20:21:27.075Z</time>
      </trkpt>
      <trkpt lat="59.39771393314004" lon="13.503600982949138">
        <ele>45.82</ele>
        <time>2025-02-02T20:21:27.387Z</time>
      </trkpt>
      <trkpt lat="59.39766892232001" lon="13.50360894575715">
        <ele>45.89</ele>
        <time>2025-02-02T20:21:27.699Z</time>
      </trkpt>
      <trkpt lat="59.397616954520345" lon="13.503616992384195">
        <ele>45.97</ele>
        <time>2025-02-02T20:21:28.012Z</time>
      </trkpt>
      <trkpt lat="59.39756096340716" lon="13.50362696684897">
        <ele>46.04</ele>
        <time>2025-02-02T20:21:28.326Z</time>
      </trkpt>
      <trkpt lat="59.39750195480883" lon="13.503640964627266">
        <ele>46.12</ele>
        <time>2025-02-02T20:21:28.641Z</time>
      </trkpt>
      <trkpt lat="59.39744194038212" lon="13.503668960183859">
        <ele>46.2</ele>
        <time>2025-02-02T20:21:28.957Z</time>
      </trkpt>
      <trkpt lat="59.397381925955415" lon="13.503719922155142">
        <ele>46.28</ele>
        <time>2025-02-02T20:21:29.274Z</time>
      </trkpt>
      <trkpt lat="59.39732098951936" lon="13.503782954066992">
        <ele>46.36</ele>
        <time>2025-02-02T20:21:29.592Z</time>
      </trkpt>
      <trkpt lat="59.39725795760751" lon="13.503833999857306">
        <ele>46.44</ele>
        <time>2025-02-02T20:21:29.911Z</time>
      </trkpt>
      <trkpt lat="59.39719391986728" lon="13.503847997635603">
        <ele>46.52</ele>
        <time>2025-02-02T20:21:30.231Z</time>
      </trkpt>
      <trkpt lat="59.397125942632556" lon="13.50382192991674">
        <ele>46.63</ele>
        <time>2025-02-02T20:21:30.552Z</time>
      </trkpt>
      <trkpt lat="59.39705394208431" lon="13.503770967945457">
        <ele>46.74</ele>
        <time>2025-02-02T20:21:30.875Z</time>
      </trkpt>
      <trkpt lat="59.39698093570769" lon="13.503702990710735">
        <ele>46.84</ele>
        <time>2025-02-02T20:21:31.199Z</time>
      </trkpt>
      <trkpt lat="59.396903989836574" lon="13.503631995990872">
        <ele>46.94</ele>
        <time>2025-02-02T20:21:31.524Z</time>
      </trkpt>
      <trkpt lat="59.396821931004524" lon="13.503569969907403">
        <ele>47.01</ele>
        <time>2025-02-02T20:21:31.851Z</time>
      </trkpt>
      <trkpt lat="59.39674196764827" lon="13.503510961309075">
        <ele>47.08</ele>
        <time>2025-02-02T20:21:32.179Z</time>
      </trkpt>
      <trkpt lat="59.39666292630136" lon="13.503450946882367">
        <ele>47.15</ele>
        <time>2025-02-02T20:21:32.508Z</time>
      </trkpt>
      <trkpt lat="59.396584974601865" lon="13.50339193828404">
        <ele>47.23</ele>
        <time>2025-02-02T20:21:32.839Z</time>
      </trkpt>
      <trkpt lat="59.39651096239686" lon="13.503334941342473">
        <ele>47.3</ele>
        <time>2025-02-02T20:21:33.171Z</time>
      </trkpt>
      <trkpt lat="59.396435944363475" lon="13.503269981592894">
        <ele>47.37</ele>
        <time>2025-02-02T20:21:33.504Z</time>
      </trkpt>
      <trkpt lat="59.39636293798685" lon="13.50319697521627">
        <ele>47.44</ele>
        <time>2025-02-02T20:21:33.839Z</time>
      </trkpt>
      <trkpt lat="59.39629395492375" lon="13.503117933869362">
        <ele>47.5</ele>
        <time>2025-02-02T20:21:34.175Z</time>
      </trkpt>
      <trkpt lat="59.3962309230119" lon="13.503036964684725">
        <ele>47.57</ele>
        <time>2025-02-02T20:21:34.512Z</time>
      </trkpt>
      <trkpt lat="59.396175937727094" lon="13.502952978014946">
        <ele>47.63</ele>
        <time>2025-02-02T20:21:34.850Z</time>
      </trkpt>
      <trkpt lat="59.39612095244229" lon="13.502858933061361">
        <ele>47.7</ele>
        <time>2025-02-02T20:21:35.189Z</time>
      </trkpt>
      <trkpt lat="59.396067978814244" lon="13.502763966098428">
        <ele>47.77</ele>
        <time>2025-02-02T20:21:35.530Z</time>
      </trkpt>
      <trkpt lat="59.39601995050907" lon="13.502667993307114">
        <ele>47.84</ele>
        <time>2025-02-02T20:21:35.872Z</time>
      </trkpt>
      <trkpt lat="59.39597091637552" lon="13.502571936696768">
        <ele>47.91</ele>
        <time>2025-02-02T20:21:36.215Z</time>
      </trkpt>
      <trkpt lat="59.395920960232615" lon="13.502474958077073">
        <ele>47.97</ele>
        <time>2025-02-02T20:21:36.559Z</time>
      </trkpt>
      <trkpt lat="59.39587293192744" lon="13.502378985285759">
        <ele>48.03</ele>
        <time>2025-02-02T20:21:36.904Z</time>
      </trkpt>
      <trkpt lat="59.39582297578454" lon="13.502288963645697">
        <ele>48.09</ele>
        <time>2025-02-02T20:21:37.250Z</time>
      </trkpt>
      <trkpt lat="59.395772935822606" lon="13.502200953662395">
        <ele>48.16</ele>
        <time>2025-02-02T20:21:37.597Z</time>
      </trkpt>
      <trkpt lat="59.39572197385132" lon="13.502116966992617">
        <ele>48.22</ele>
        <time>2025-02-02T20:21:37.945Z</time>
      </trkpt>
      <trkpt lat="59.39567193388939" lon="13.502033986151218">
        <ele>48.29</ele>
        <time>2025-02-02T20:21:38.294Z</time>
      </trkpt>
      <trkpt lat="59.395620971918106" lon="13.501939941197634">
        <ele>48.35</ele>
        <time>2025-02-02T20:21:38.644Z</time>
      </trkpt>
      <trkpt lat="59.39557193778455" lon="13.501841956749558">
        <ele>48.41</ele>
        <time>2025-02-02T20:21:38.996Z</time>
      </trkpt>
      <trkpt lat="59.39552499912679" lon="13.501740954816341">
        <ele>48.46</ele>
        <time>2025-02-02T20:21:39.349Z</time>
      </trkpt>
      <trkpt lat="59.39547697082162" lon="13.501638947054744">
        <ele>48.52</ele>
        <time>2025-02-02T20:21:39.703Z</time>
      </trkpt>
      <trkpt lat="59.39542994834483" lon="13.501533921808004">
        <ele>48.57</ele>
        <time>2025-02-02T20:21:40.058Z</time>
      </trkpt>
      <trkpt lat="59.395383931696415" lon="13.501428980380297">
        <ele>48.63</ele>
        <time>2025-02-02T20:21:40.414Z</time>
      </trkpt>
      <trkpt lat="59.395336993038654" lon="13.501318925991654">
        <ele>48.68</ele>
        <time>2025-02-02T20:21:40.771Z</time>
      </trkpt>
      <trkpt lat="59.39528997056186" lon="13.501205937936902">
        <ele>48.73</ele>
        <time>2025-02-02T20:21:41.129Z</time>
      </trkpt>
      <trkpt lat="59.39524294808507" lon="13.501098984852433">
        <ele>48.78</ele>
        <time>2025-02-02T20:21:41.489Z</time>
      </trkpt>
      <trkpt lat="59.3951949197799" lon="13.500988930463791">
        <ele>48.82</ele>
        <time>2025-02-02T20:21:41.850Z</time>
      </trkpt>
      <trkpt lat="59.395146975293756" lon="13.500874936580658">
        <ele>48.87</ele>
        <time>2025-02-02T20:21:42.212Z</time>
      </trkpt>
      <trkpt lat="59.39509995281696" lon="13.500760942697525">
        <ele>48.91</ele>
        <time>2025-02-02T20:21:42.575Z</time>
      </trkpt>
      <trkpt lat="59.39505293034017" lon="13.500632951036096">
        <ele>48.96</ele>
        <time>2025-02-02T20:21:42.940Z</time>
      </trkpt>
      <trkpt lat="59.39500398002565" lon="13.500508982688189">
        <ele>49.01</ele>
        <time>2025-02-02T20:21:43.306Z</time>
      </trkpt>
      <trkpt lat="59.394953940063715" lon="13.500387948006392">
        <ele>49.06</ele>
        <time>2025-02-02T20:21:43.673Z</time>
      </trkpt>
      <trkpt lat="59.39490498974919" lon="13.500270936638117">
        <ele>49.11</ele>
        <time>2025-02-02T20:21:44.041Z</time>
      </trkpt>
      <trkpt lat="59.39485394395888" lon="13.500151997432113">
        <ele>49.17</ele>
        <time>2025-02-02T20:21:44.411Z</time>
      </trkpt>
      <trkpt lat="59.394802981987596" lon="13.500030962750316">
        <ele>49.22</ele>
        <time>2025-02-02T20:21:44.782Z</time>
      </trkpt>
      <trkpt lat="59.3947509303689" lon="13.499907916411757">
        <ele>49.28</ele>
        <time>2025-02-02T20:21:45.154Z</time>
      </trkpt>
      <trkpt lat="59.39469896256924" lon="13.499787971377373">
        <ele>49.34</ele>
        <time>2025-02-02T20:21:45.527Z</time>
      </trkpt>
      <trkpt lat="59.39464699476957" lon="13.499669954180717">
        <ele>49.4</ele>
        <time>2025-02-02T20:21:45.902Z</time>
      </trkpt>
      <trkpt lat="59.3945939373225" lon="13.499551936984062">
        <ele>49.46</ele>
        <time>2025-02-02T20:21:46.278Z</time>
      </trkpt>
      <trkpt lat="59.394542975351214" lon="13.499432997778058">
        <ele>49.52</ele>
        <time>2025-02-02T20:21:46.655Z</time>
      </trkpt>
      <trkpt lat="59.39449092373252" lon="13.499317998066545">
        <ele>49.57</ele>
        <time>2025-02-02T20:21:47.034Z</time>
      </trkpt>
      <trkpt lat="59.394437950104475" lon="13.49920392036438">
        <ele>49.63</ele>
        <time>2025-02-02T20:21:47.414Z</time>
      </trkpt>
      <trkpt lat="59.39438497647643" lon="13.499091938138008">
        <ele>49.69</ele>
        <time>2025-02-02T20:21:47.795Z</time>
      </trkpt>
      <trkpt lat="59.394330997020006" lon="13.498982973396778">
        <ele>49.74</ele>
        <time>2025-02-02T20:21:48.177Z</time>
      </trkpt>
      <trkpt lat="59.39427592791617" lon="13.498875936493278">
        <ele>49.8</ele>
        <time>2025-02-02T20:21:48.561Z</time>
      </trkpt>
      <trkpt lat="59.39421993680298" lon="13.498767977580428">
        <ele>49.85</ele>
        <time>2025-02-02T20:21:48.946Z</time>
      </trkpt>
      <trkpt lat="59.39416293986142" lon="13.498661946505308">
        <ele>49.9</ele>
        <time>2025-02-02T20:21:49.332Z</time>
      </trkpt>
      <trkpt lat="59.39410493709147" lon="13.49855893291533">
        <ele>49.95</ele>
        <time>2025-02-02T20:21:49.719Z</time>
      </trkpt>
      <trkpt lat="59.39404492266476" lon="13.498461954295635">
        <ele>50.01</ele>
        <time>2025-02-02T20:21:50.108Z</time>
      </trkpt>
      <trkpt lat="59.393986919894814" lon="13.498370926827192">
        <ele>50.06</ele>
        <time>2025-02-02T20:21:50.498Z</time>
      </trkpt>
      <trkpt lat="59.39392799511552" lon="13.49827696569264">
        <ele>50.11</ele>
        <time>2025-02-02T20:21:50.889Z</time>
      </trkpt>
      <trkpt lat="59.39386898651719" lon="13.498187949880958">
        <ele>50.15</ele>
        <time>2025-02-02T20:21:51.281Z</time>
      </trkpt>
      <trkpt lat="59.393810983747244" lon="13.498100945726037">
        <ele>50.2</ele>
        <time>2025-02-02T20:21:51.674Z</time>
      </trkpt>
      <trkpt lat="59.393749963492155" lon="13.498013941571116">
        <ele>50.24</ele>
        <time>2025-02-02T20:21:52.069Z</time>
      </trkpt>
      <trkpt lat="59.393687937408686" lon="13.49793397821486">
        <ele>50.28</ele>
        <time>2025-02-02T20:21:52.465Z</time>
      </trkpt>
      <trkpt lat="59.39362498931587" lon="13.497854936867952">
        <ele>50.33</ele>
        <time>2025-02-02T20:21:52.862Z</time>
      </trkpt>
      <trkpt lat="59.39356195740402" lon="13.497778996825218">
        <ele>50.36</ele>
        <time>2025-02-02T20:21:53.260Z</time>
      </trkpt>
      <trkpt lat="59.39349993132055" lon="13.497701967135072">
        <ele>50.39</ele>
        <time>2025-02-02T20:21:53.659Z</time>
      </trkpt>
      <trkpt lat="59.39343698322773" lon="13.497623931616545">
        <ele>50.42</ele>
        <time>2025-02-02T20:21:54.060Z</time>
      </trkpt>
      <trkpt lat="59.39337395131588" lon="13.49754799157381">
        <ele>50.44</ele>
        <time>2025-02-02T20:21:54.462Z</time>
      </trkpt>
      <trkpt lat="59.39330999739468" lon="13.497479930520058">
        <ele>50.47</ele>
        <time>2025-02-02T20:21:54.865Z</time>
      </trkpt>
      <trkpt lat="59.39324595965445" lon="13.497409941628575">
        <ele>50.5</ele>
        <time>2025-02-02T20:21:55.269Z</time>
      </trkpt>
      <trkpt lat="59.39318099990487" lon="13.497337941080332">
        <ele>50.53</ele>
        <time>2025-02-02T20:21:55.674Z</time>
      </trkpt>
      <trkpt lat="59.3931139446795" lon="13.497266946360469">
        <ele>50.55</ele>
        <time>2025-02-02T20:21:56.080Z</time>
      </trkpt>
      <trkpt lat="59.39304697327316" lon="13.497193939983845">
        <ele>50.58</ele>
        <time>2025-02-02T20:21:56.488Z</time>
      </trkpt>
      <trkpt lat="59.39297899603844" lon="13.497124956920743">
        <ele>50.61</ele>
        <time>2025-02-02T20:21:56.897Z</time>
      </trkpt>
      <trkpt lat="59.392912946641445" lon="13.497059997171164">
        <ele>50.65</ele>
        <time>2025-02-02T20:21:57.307Z</time>
      </trkpt>
      <trkpt lat="59.392844969406724" lon="13.496994953602552">
        <ele>50.68</ele>
        <time>2025-02-02T20:21:57.718Z</time>
      </trkpt>
      <trkpt lat="59.39277498051524" lon="13.496932927519083">
        <ele>50.71</ele>
        <time>2025-02-02T20:21:58.131Z</time>
      </trkpt>
      <trkpt lat="59.39270398579538" lon="13.496878948062658">
        <ele>50.74</ele>
        <time>2025-02-02T20:21:58.545Z</time>
      </trkpt>
      <trkpt lat="59.392631985247135" lon="13.496828991919756">
        <ele>50.78</ele>
        <time>2025-02-02T20:21:58.960Z</time>
      </trkpt>
      <trkpt lat="59.39255897887051" lon="13.49677694030106">
        <ele>50.81</ele>
        <time>2025-02-02T20:21:59.376Z</time>
      </trkpt>
      <trkpt lat="59.392484966665506" lon="13.496722960844636">
        <ele>50.84</ele>
        <time>2025-02-02T20:21:59.794Z</time>
      </trkpt>
      <trkpt lat="59.39241397194564" lon="13.496668981388211">
        <ele>50.87</ele>
        <time>2025-02-02T20:22:00.213Z</time>
      </trkpt>
      <trkpt lat="59.39234096556902" lon="13.496616929769516">
        <ele>50.89</ele>
        <time>2025-02-02T20:22:00.633Z</time>
      </trkpt>
      <trkpt lat="59.39226393587887" lon="13.496566973626614">
        <ele>50.91</ele>
        <time>2025-02-02T20:22:01.054Z</time>
      </trkpt>
      <trkpt lat="59.39218992367387" lon="13.49651693366468">
        <ele>50.94</ele>
        <time>2025-02-02T20:22:01.477Z</time>
      </trkpt>
      <trkpt lat="59.39211096614599" lon="13.496462954208255">
        <ele>50.96</ele>
        <time>2025-02-02T20:22:01.901Z</time>
      </trkpt>
      <trkpt lat="59.39203594811261" lon="13.49640998058021">
        <ele>50.98</ele>
        <time>2025-02-02T20:22:02.326Z</time>
      </trkpt>
      <trkpt lat="59.39195891842246" lon="13.496356923133135">
        <ele>51.0</ele>
        <time>2025-02-02T20:22:02.752Z</time>
      </trkpt>
      <trkpt lat="59.391881972551346" lon="13.496306966990232">
        <ele>51.02</ele>
        <time>2025-02-02T20:22:03.180Z</time>
      </trkpt>
      <trkpt lat="59.3918049428612" lon="13.49625994451344">
        <ele>51.04</ele>
        <time>2025-02-02T20:22:03.609Z</time>
      </trkpt>
      <trkpt lat="59.39172891899943" lon="13.496213927865028">
        <ele>51.06</ele>
        <time>2025-02-02T20:22:04.039Z</time>
      </trkpt>
      <trkpt lat="59.3916529789567" lon="13.496164977550507">
        <ele>51.08</ele>
        <time>2025-02-02T20:22:04.471Z</time>
      </trkpt>
      <trkpt lat="59.39157695509493" lon="13.496116949245334">
        <ele>51.11</ele>
        <time>2025-02-02T20:22:04.904Z</time>
      </trkpt>
      <trkpt lat="59.39150093123317" lon="13.496067998930812">
        <ele>51.13</ele>
        <time>2025-02-02T20:22:05.338Z</time>
      </trkpt>
      <trkpt lat="59.39142691902816" lon="13.496017958968878">
        <ele>51.15</ele>
        <time>2025-02-02T20:22:05.773Z</time>
      </trkpt>
      <trkpt lat="59.39134997315705" lon="13.495966996997595">
        <ele>51.17</ele>
        <time>2025-02-02T20:22:06.210Z</time>
      </trkpt>
      <trkpt lat="59.39127394929528" lon="13.495917962864041">
        <ele>51.2</ele>
        <time>2025-02-02T20:22:06.648Z</time>
      </trkpt>
      <trkpt lat="59.39119792543352" lon="13.495869934558868">
        <ele>51.22</ele>
        <time>2025-02-02T20:22:07.087Z</time>
      </trkpt>
      <trkpt lat="59.39112198539078" lon="13.495823917910457">
        <ele>51.24</ele>
        <time>2025-02-02T20:22:07.528Z</time>
      </trkpt>
      <trkpt lat="59.39104596152902" lon="13.495781924575567">
        <ele>51.27</ele>
        <time>2025-02-02T20:22:07.970Z</time>
      </trkpt>
      <trkpt lat="59.39096893183887" lon="13.495746972039342">
        <ele>51.29</ele>
        <time>2025-02-02T20:22:08.413Z</time>
      </trkpt>
      <trkpt lat="59.390891985967755" lon="13.495714953169227">
        <ele>51.32</ele>
        <time>2025-02-02T20:22:08.857Z</time>
      </trkpt>
      <trkpt lat="59.39081696793437" lon="13.495682934299111">
        <ele>51.34</ele>
        <time>2025-02-02T20:22:09.303Z</time>
      </trkpt>
      <trkpt lat="59.390740944072604" lon="13.495651921257377">
        <ele>51.37</ele>
        <time>2025-02-02T20:22:09.750Z</time>
      </trkpt>
      <trkpt lat="59.39066492021084" lon="13.495620992034674">
        <ele>51.39</ele>
        <time>2025-02-02T20:22:10.198Z</time>
      </trkpt>
      <trkpt lat="59.390589985996485" lon="13.495589978992939">
        <ele>51.41</ele>
        <time>2025-02-02T20:22:10.647Z</time>
      </trkpt>
      <trkpt lat="59.39051597379148" lon="13.495553936809301">
        <ele>51.44</ele>
        <time>2025-02-02T20:22:11.098Z</time>
      </trkpt>
      <trkpt lat="59.390441961586475" lon="13.495512949302793">
        <ele>51.45</ele>
        <time>2025-02-02T20:22:11.550Z</time>
      </trkpt>
      <trkpt lat="59.39036694355309" lon="13.495471961796284">
        <ele>51.47</ele>
        <time>2025-02-02T20:22:12.003Z</time>
      </trkpt>
      <trkpt lat="59.390290919691324" lon="13.495437931269407">
        <ele>51.49</ele>
        <time>2025-02-02T20:22:12.457Z</time>
      </trkpt>
      <trkpt lat="59.39021598547697" lon="13.495415970683098">
        <ele>51.5</ele>
        <time>2025-02-02T20:22:12.913Z</time>
      </trkpt>
      <trkpt lat="59.390140967443585" lon="13.495401972904801">
        <ele>51.52</ele>
        <time>2025-02-02T20:22:13.370Z</time>
      </trkpt>
      <trkpt lat="59.39006494358182" lon="13.495394932106137">
        <ele>51.53</ele>
        <time>2025-02-02T20:22:13.828Z</time>
      </trkpt>
      <trkpt lat="59.389989925548434" lon="13.495387975126505">
        <ele>51.54</ele>
        <time>2025-02-02T20:22:14.287Z</time>
      </trkpt>
      <trkpt lat="59.3899139855057" lon="13.495382945984602">
        <ele>51.55</ele>
        <time>2025-02-02T20:22:14.747Z</time>
      </trkpt>
      <trkpt lat="59.389838967472315" lon="13.495386969298124">
        <ele>51.56</ele>
        <time>2025-02-02T20:22:15.209Z</time>
      </trkpt>
      <trkpt lat="59.38976495526731" lon="13.495392920449376">
        <ele>51.57</ele>
        <time>2025-02-02T20:22:15.672Z</time>
      </trkpt>
      <trkpt lat="59.389690943062305" lon="13.495401972904801">
        <ele>51.58</ele>
        <time>2025-02-02T20:22:16.136Z</time>
      </trkpt>
      <trkpt lat="59.38961793668568" lon="13.495411947369576">
        <ele>51.58</ele>
        <time>2025-02-02T20:22:16.601Z</time>
      </trkpt>
      <trkpt lat="59.389542918652296" lon="13.495426950976253">
        <ele>51.58</ele>
        <time>2025-02-02T20:22:17.067Z</time>
      </trkpt>
      <trkpt lat="59.38946899026632" lon="13.495444972068071">
        <ele>51.59</ele>
        <time>2025-02-02T20:22:17.535Z</time>
      </trkpt>
      <trkpt lat="59.3893959838897" lon="13.495460981503129">
        <ele>51.59</ele>
        <time>2025-02-02T20:22:18.004Z</time>
      </trkpt>
      <trkpt lat="59.38931996002793" lon="13.495476990938187">
        <ele>51.59</ele>
        <time>2025-02-02T20:22:18.474Z</time>
      </trkpt>
      <trkpt lat="59.38924293033779" lon="13.495493922382593">
        <ele>51.59</ele>
        <time>2025-02-02T20:22:18.945Z</time>
      </trkpt>
      <trkpt lat="59.38916891813278" lon="13.495511943474412">
        <ele>51.6</ele>
        <time>2025-02-02T20:22:19.417Z</time>
      </trkpt>
      <trkpt lat="59.38909398391843" lon="13.495530970394611">
        <ele>51.6</ele>
        <time>2025-02-02T20:22:19.891Z</time>
      </trkpt>
      <trkpt lat="59.38901796005666" lon="13.495554942637682">
        <ele>51.59</ele>
        <time>2025-02-02T20:22:20.366Z</time>
      </trkpt>
      <trkpt lat="59.38894394785166" lon="13.495580926537514">
        <ele>51.59</ele>
        <time>2025-02-02T20:22:20.842Z</time>
      </trkpt>
      <trkpt lat="59.388870941475034" lon="13.495604982599616">
        <ele>51.59</ele>
        <time>2025-02-02T20:22:21.319Z</time>
      </trkpt>
      <trkpt lat="59.38879592344165" lon="13.495632978156209">
        <ele>51.59</ele>
        <time>2025-02-02T20:22:21.797Z</time>
      </trkpt>
      <trkpt lat="59.388723922893405" lon="13.495661979541183">
        <ele>51.59</ele>
        <time>2025-02-02T20:22:22.277Z</time>
      </trkpt>
      <trkpt lat="59.38864999450743" lon="13.495688969269395">
        <ele>51.59</ele>
        <time>2025-02-02T20:22:22.758Z</time>
      </trkpt>
      <trkpt lat="59.38857698813081" lon="13.495710929855704">
        <ele>51.59</ele>
        <time>2025-02-02T20:22:23.240Z</time>
      </trkpt>
      <trkpt lat="59.3885029759258" lon="13.495733980089426">
        <ele>51.58</ele>
        <time>2025-02-02T20:22:23.723Z</time>
      </trkpt>
      <trkpt lat="59.3884289637208" lon="13.495756946504116">
        <ele>51.58</ele>
        <time>2025-02-02T20:22:24.207Z</time>
      </trkpt>
      <trkpt lat="59.388354951515794" lon="13.495778990909457">
        <ele>51.58</ele>
        <time>2025-02-02T20:22:24.693Z</time>
      </trkpt>
      <trkpt lat="59.38828093931079" lon="13.495800951495767">
        <ele>51.58</ele>
        <time>2025-02-02T20:22:25.180Z</time>
      </trkpt>
      <trkpt lat="59.388206927105784" lon="13.495824923738837">
        <ele>51.58</ele>
        <time>2025-02-02T20:22:25.668Z</time>
      </trkpt>
      <trkpt lat="59.3881369382143" lon="13.49584998562932">
        <ele>51.58</ele>
        <time>2025-02-02T20:22:26.157Z</time>
      </trkpt>
      <trkpt lat="59.38806694932282" lon="13.495875969529152">
        <ele>51.58</ele>
        <time>2025-02-02T20:22:26.647Z</time>
      </trkpt>
      <trkpt lat="59.38799595460296" lon="13.495897930115461">
        <ele>51.58</ele>
        <time>2025-02-02T20:22:27.138Z</time>
      </trkpt>
      <trkpt lat="59.38792194239795" lon="13.495921986177564">
        <ele>51.57</ele>
        <time>2025-02-02T20:22:27.631Z</time>
      </trkpt>
      <trkpt lat="59.38784893602133" lon="13.495946964249015">
        <ele>51.57</ele>
        <time>2025-02-02T20:22:28.125Z</time>
      </trkpt>
      <trkpt lat="59.387776935473084" lon="13.495967919006944">
        <ele>51.56</ele>
        <time>2025-02-02T20:22:28.620Z</time>
      </trkpt>
      <trkpt lat="59.38770099543035" lon="13.495988957583904">
        <ele>51.55</ele>
        <time>2025-02-02T20:22:29.116Z</time>
      </trkpt>
      <trkpt lat="59.38762195408344" lon="13.496009996160865">
        <ele>51.54</ele>
        <time>2025-02-02T20:22:29.614Z</time>
      </trkpt>
      <trkpt lat="59.387543918564916" lon="13.496030950918794">
        <ele>51.54</ele>
        <time>2025-02-02T20:22:30.113Z</time>
      </trkpt>
      <trkpt lat="59.38746496103704" lon="13.496047966182232">
        <ele>51.53</ele>
        <time>2025-02-02T20:22:30.613Z</time>
      </trkpt>
      <trkpt lat="59.38738591969013" lon="13.496069926768541">
        <ele>51.52</ele>
        <time>2025-02-02T20:22:31.114Z</time>
      </trkpt>
      <trkpt lat="59.387306962162256" lon="13.49608895368874">
        <ele>51.52</ele>
        <time>2025-02-02T20:22:31.617Z</time>
      </trkpt>
      <trkpt lat="59.38722892664373" lon="13.496104963123798">
        <ele>51.51</ele>
        <time>2025-02-02T20:22:32.121Z</time>
      </trkpt>
      <trkpt lat="59.387150974944234" lon="13.496121978387237">
        <ele>51.48</ele>
        <time>2025-02-02T20:22:32.626Z</time>
      </trkpt>
      <trkpt lat="59.387071933597326" lon="13.496141927316785">
        <ele>51.44</ele>
        <time>2025-02-02T20:22:33.132Z</time>
      </trkpt>
      <trkpt lat="59.38699297606945" lon="13.4961549192667">
        <ele>51.4</ele>
        <time>2025-02-02T20:22:33.640Z</time>
      </trkpt>
      <trkpt lat="59.38691192306578" lon="13.496170928701758">
        <ele>51.39</ele>
        <time>2025-02-02T20:22:34.149Z</time>
      </trkpt>
      <trkpt lat="59.386831959709525" lon="13.496189955621958">
        <ele>51.43</ele>
        <time>2025-02-02T20:22:34.659Z</time>
      </trkpt>
      <trkpt lat="59.38674998469651" lon="13.496207976713777">
        <ele>51.47</ele>
        <time>2025-02-02T20:22:35.171Z</time>
      </trkpt>
      <trkpt lat="59.38666893169284" lon="13.496223986148834">
        <ele>51.47</ele>
        <time>2025-02-02T20:22:35.684Z</time>
      </trkpt>
      <trkpt lat="59.38658997416496" lon="13.496238989755511">
        <ele>51.47</ele>
        <time>2025-02-02T20:22:36.198Z</time>
      </trkpt>
      <trkpt lat="59.386510932818055" lon="13.496256927028298">
        <ele>51.46</ele>
        <time>2025-02-02T20:22:36.713Z</time>
      </trkpt>
      <trkpt lat="59.38643298111856" lon="13.496272936463356">
        <ele>51.46</ele>
        <time>2025-02-02T20:22:37.230Z</time>
      </trkpt>
      <trkpt lat="59.38635293394327" lon="13.496287940070033">
        <ele>51.46</ele>
        <time>2025-02-02T20:22:37.748Z</time>
      </trkpt>
      <trkpt lat="59.386274982243776" lon="13.49630394950509">
        <ele>51.46</ele>
        <time>2025-02-02T20:22:38.267Z</time>
      </trkpt>
      <trkpt lat="59.38619594089687" lon="13.496319958940148">
        <ele>51.49</ele>
        <time>2025-02-02T20:22:38.788Z</time>
      </trkpt>
      <trkpt lat="59.38611798919737" lon="13.496333956718445">
        <ele>51.53</ele>
        <time>2025-02-02T20:22:39.310Z</time>
      </trkpt>
      <trkpt lat="59.38604095950723" lon="13.496350971981883">
        <ele>51.54</ele>
        <time>2025-02-02T20:22:39.833Z</time>
      </trkpt>
      <trkpt lat="59.38596493564546" lon="13.496367987245321">
        <ele>51.54</ele>
        <time>2025-02-02T20:22:40.357Z</time>
      </trkpt>
      <trkpt lat="59.38588899560273" lon="13.496382990851998">
        <ele>51.53</ele>
        <time>2025-02-02T20:22:40.882Z</time>
      </trkpt>
      <trkpt lat="59.38580995425582" lon="13.496398916468024">
        <ele>51.53</ele>
        <time>2025-02-02T20:22:41.409Z</time>
      </trkpt>
      <trkpt lat="59.38573191873729" lon="13.496414925903082">
        <ele>51.53</ele>
        <time>2025-02-02T20:22:41.937Z</time>
      </trkpt>
      <trkpt lat="59.3856539670378" lon="13.49643093533814">
        <ele>51.52</ele>
        <time>2025-02-02T20:22:42.466Z</time>
      </trkpt>
      <trkpt lat="59.38557593151927" lon="13.4964519739151">
        <ele>51.52</ele>
        <time>2025-02-02T20:22:42.997Z</time>
      </trkpt>
      <trkpt lat="59.385498985648155" lon="13.496476951986551">
        <ele>51.52</ele>
        <time>2025-02-02T20:22:43.529Z</time>
      </trkpt>
      <trkpt lat="59.38541994430125" lon="13.496506959199905">
        <ele>51.52</ele>
        <time>2025-02-02T20:22:44.062Z</time>
      </trkpt>
      <trkpt lat="59.38534098677337" lon="13.496539983898401">
        <ele>51.53</ele>
        <time>2025-02-02T20:22:44.596Z</time>
      </trkpt>
      <trkpt lat="59.38526697456837" lon="13.496574936434627">
        <ele>51.53</ele>
        <time>2025-02-02T20:22:45.132Z</time>
      </trkpt>
      <trkpt lat="59.38519296236336" lon="13.496610978618264">
        <ele>51.53</ele>
        <time>2025-02-02T20:22:45.669Z</time>
      </trkpt>
      <trkpt lat="59.38511895015836" lon="13.496653977781534">
        <ele>51.52</ele>
        <time>2025-02-02T20:22:46.207Z</time>
      </trkpt>
      <trkpt lat="59.38504393212497" lon="13.496697982773185">
        <ele>51.52</ele>
        <time>2025-02-02T20:22:46.746Z</time>
      </trkpt>
      <trkpt lat="59.38496799208224" lon="13.496742993593216">
        <ele>51.51</ele>
        <time>2025-02-02T20:22:47.287Z</time>
      </trkpt>
      <trkpt lat="59.38489297404885" lon="13.496787920594215">
        <ele>51.5</ele>
        <time>2025-02-02T20:22:47.829Z</time>
      </trkpt>
      <trkpt lat="59.38481795601547" lon="13.496830919757485">
        <ele>51.49</ele>
        <time>2025-02-02T20:22:48.372Z</time>
      </trkpt>
      <trkpt lat="59.3847419321537" lon="13.496870985254645">
        <ele>51.47</ele>
        <time>2025-02-02T20:22:48.916Z</time>
      </trkpt>
      <trkpt lat="59.38466498628259" lon="13.496910966932774">
        <ele>51.45</ele>
        <time>2025-02-02T20:22:49.462Z</time>
      </trkpt>
      <trkpt lat="59.3845899682492" lon="13.496953966096044">
        <ele>51.44</ele>
        <time>2025-02-02T20:22:50.009Z</time>
      </trkpt>
      <trkpt lat="59.3845159560442" lon="13.496997971087694">
        <ele>51.42</ele>
        <time>2025-02-02T20:22:50.557Z</time>
      </trkpt>
      <trkpt lat="59.38443993218243" lon="13.497041976079345">
        <ele>51.4</ele>
        <time>2025-02-02T20:22:51.106Z</time>
      </trkpt>
      <trkpt lat="59.38436499796808" lon="13.497086986899376">
        <ele>51.39</ele>
        <time>2025-02-02T20:22:51.657Z</time>
      </trkpt>
      <trkpt lat="59.38428997993469" lon="13.497130991891026">
        <ele>51.37</ele>
        <time>2025-02-02T20:22:52.209Z</time>
      </trkpt>
      <trkpt lat="59.38421496190131" lon="13.497174996882677">
        <ele>51.36</ele>
        <time>2025-02-02T20:22:52.762Z</time>
      </trkpt>
      <trkpt lat="59.38413994386792" lon="13.497219923883677">
        <ele>51.35</ele>
        <time>2025-02-02T20:22:53.316Z</time>
      </trkpt>
      <trkpt lat="59.38406492583454" lon="13.497264934703708">
        <ele>51.35</ele>
        <time>2025-02-02T20:22:53.872Z</time>
      </trkpt>
      <trkpt lat="59.38398999162018" lon="13.49731095135212">
        <ele>51.34</ele>
        <time>2025-02-02T20:22:54.429Z</time>
      </trkpt>
      <trkpt lat="59.3839149735868" lon="13.497358979657292">
        <ele>51.33</ele>
        <time>2025-02-02T20:22:54.987Z</time>
      </trkpt>
      <trkpt lat="59.38383995555341" lon="13.497404996305704">
        <ele>51.31</ele>
        <time>2025-02-02T20:22:55.546Z</time>
      </trkpt>
      <trkpt lat="59.38376393169165" lon="13.497447995468974">
        <ele>51.3</ele>
        <time>2025-02-02T20:22:56.107Z</time>
      </trkpt>
      <trkpt lat="59.38368899747729" lon="13.497490994632244">
        <ele>51.3</ele>
        <time>2025-02-02T20:22:56.669Z</time>
      </trkpt>
      <trkpt lat="59.38361397944391" lon="13.497532987967134">
        <ele>51.29</ele>
        <time>2025-02-02T20:22:57.232Z</time>
      </trkpt>
      <trkpt lat="59.3835399672389" lon="13.497577998787165">
        <ele>51.28</ele>
        <time>2025-02-02T20:22:57.796Z</time>
      </trkpt>
      <trkpt lat="59.38346394337714" lon="13.497621919959784">
        <ele>51.27</ele>
        <time>2025-02-02T20:22:58.362Z</time>
      </trkpt>
      <trkpt lat="59.38339093700051" lon="13.497664919123054">
        <ele>51.26</ele>
        <time>2025-02-02T20:22:58.929Z</time>
      </trkpt>
      <trkpt lat="59.38331793062389" lon="13.497711941599846">
        <ele>51.25</ele>
        <time>2025-02-02T20:22:59.497Z</time>
      </trkpt>
      <trkpt lat="59.383246935904026" lon="13.4977609757334">
        <ele>51.25</ele>
        <time>2025-02-02T20:23:00.066Z</time>
      </trkpt>
      <trkpt lat="59.38317594118416" lon="13.497809926047921">
        <ele>51.23</ele>
        <time>2025-02-02T20:23:00.637Z</time>
      </trkpt>
      <trkpt lat="59.38310394063592" lon="13.497860971838236">
        <ele>51.21</ele>
        <time>2025-02-02T20:23:01.209Z</time>
      </trkpt>
      <trkpt lat="59.38303696922958" lon="13.49791495129466">
        <ele>51.19</ele>
        <time>2025-02-02T20:23:01.782Z</time>
      </trkpt>
      <trkpt lat="59.38297494314611" lon="13.497973959892988">
        <ele>51.16</ele>
        <time>2025-02-02T20:23:02.356Z</time>
      </trkpt>
      <trkpt lat="59.38291392289102" lon="13.498030956834555">
        <ele>51.14</ele>
        <time>2025-02-02T20:23:02.931Z</time>
      </trkpt>
      <trkpt lat="59.382852986454964" lon="13.498082924634218">
        <ele>51.14</ele>
        <time>2025-02-02T20:23:03.507Z</time>
      </trkpt>
      <trkpt lat="59.38279699534178" lon="13.498115949332714">
        <ele>51.14</ele>
        <time>2025-02-02T20:23:04.084Z</time>
      </trkpt>
      <trkpt lat="59.3827439378947" lon="13.498121984302998">
        <ele>51.15</ele>
        <time>2025-02-02T20:23:04.662Z</time>
      </trkpt>
      <trkpt lat="59.38269993290305" lon="13.498094994574785">
        <ele>51.17</ele>
        <time>2025-02-02T20:23:05.241Z</time>
      </trkpt>
      <trkpt lat="59.382662968710065" lon="13.498028945177794">
        <ele>51.19</ele>
        <time>2025-02-02T20:23:05.821Z</time>
      </trkpt>
      <trkpt lat="59.38263698481023" lon="13.49793498404324">
        <ele>51.21</ele>
        <time>2025-02-02T20:23:06.401Z</time>
      </trkpt>
      <trkpt lat="59.38261393457651" lon="13.49782895296812">
        <ele>51.26</ele>
        <time>2025-02-02T20:23:06.982Z</time>
      </trkpt>
      <trkpt lat="59.38259398564696" lon="13.49771898239851">
        <ele>51.28</ele>
        <time>2025-02-02T20:23:07.564Z</time>
      </trkpt>
      <trkpt lat="59.38257294707" lon="13.497597947716713">
        <ele>51.27</ele>
        <time>2025-02-02T20:23:08.147Z</time>
      </trkpt>
      <trkpt lat="59.382551992312074" lon="13.497475991025567">
        <ele>51.27</ele>
        <time>2025-02-02T20:23:08.731Z</time>
      </trkpt>
      <trkpt lat="59.382531959563494" lon="13.497352944687009">
        <ele>51.26</ele>
        <time>2025-02-02T20:23:09.317Z</time>
      </trkpt>
      <trkpt lat="59.38251092098653" lon="13.497228976339102">
        <ele>51.26</ele>
        <time>2025-02-02T20:23:09.904Z</time>
      </trkpt>
      <trkpt lat="59.382490972056985" lon="13.497104924172163">
        <ele>51.25</ele>
        <time>2025-02-02T20:23:10.492Z</time>
      </trkpt>
      <trkpt lat="59.382470939308405" lon="13.496980955824256">
        <ele>51.25</ele>
        <time>2025-02-02T20:23:11.081Z</time>
      </trkpt>
      <trkpt lat="59.382449984550476" lon="13.49685799330473">
        <ele>51.24</ele>
        <time>2025-02-02T20:23:11.671Z</time>
      </trkpt>
      <trkpt lat="59.382428945973516" lon="13.49673192948103">
        <ele>51.23</ele>
        <time>2025-02-02T20:23:12.262Z</time>
      </trkpt>
      <trkpt lat="59.38240899704397" lon="13.496607961133122">
        <ele>51.22</ele>
        <time>2025-02-02T20:23:12.854Z</time>
      </trkpt>
      <trkpt lat="59.38239097595215" lon="13.496480975300074">
        <ele>51.21</ele>
        <time>2025-02-02T20:23:13.447Z</time>
      </trkpt>
      <trkpt lat="59.38237496651709" lon="13.496353989467025">
        <ele>51.2</ele>
        <time>2025-02-02T20:23:14.041Z</time>
      </trkpt>
      <trkpt lat="59.38235795125365" lon="13.496227925643325">
        <ele>51.18</ele>
        <time>2025-02-02T20:23:14.636Z</time>
      </trkpt>
      <trkpt lat="59.382340935990214" lon="13.496098928153515">
        <ele>51.16</ele>
        <time>2025-02-02T20:23:15.232Z</time>
      </trkpt>
      <trkpt lat="59.382323920726776" lon="13.495969930663705">
        <ele>51.14</ele>
        <time>2025-02-02T20:23:15.829Z</time>
      </trkpt>
      <trkpt lat="59.38230698928237" lon="13.495839927345514">
        <ele>51.12</ele>
        <time>2025-02-02T20:23:16.427Z</time>
      </trkpt>
      <trkpt lat="59.38228896819055" lon="13.495708918198943">
        <ele>51.11</ele>
        <time>2025-02-02T20:23:17.027Z</time>
      </trkpt>
      <trkpt lat="59.38226994127035" lon="13.495574975386262">
        <ele>51.09</ele>
        <time>2025-02-02T20:23:17.628Z</time>
      </trkpt>
      <trkpt lat="59.38224898651242" lon="13.495438937097788">
        <ele>51.08</ele>
        <time>2025-02-02T20:23:18.230Z</time>
      </trkpt>
      <trkpt lat="59.38222794793546" lon="13.495303988456726">
        <ele>51.07</ele>
        <time>2025-02-02T20:23:18.833Z</time>
      </trkpt>
      <trkpt lat="59.382207999005914" lon="13.495171973481774">
        <ele>51.06</ele>
        <time>2025-02-02T20:23:19.437Z</time>
      </trkpt>
      <trkpt lat="59.38218595460057" lon="13.495037946850061">
        <ele>51.05</ele>
        <time>2025-02-02T20:23:20.042Z</time>
      </trkpt>
      <trkpt lat="59.38216399401426" lon="13.494904926046729">
        <ele>51.04</ele>
        <time>2025-02-02T20:23:20.648Z</time>
      </trkpt>
      <trkpt lat="59.3821429554373" lon="13.494771989062428">
        <ele>51.03</ele>
        <time>2025-02-02T20:23:21.256Z</time>
      </trkpt>
      <trkpt lat="59.38212191686034" lon="13.494638968259096">
        <ele>51.02</ele>
        <time>2025-02-02T20:23:21.865Z</time>
      </trkpt>
      <trkpt lat="59.382101967930794" lon="13.494506953284144">
        <ele>51.0</ele>
        <time>2025-02-02T20:23:22.475Z</time>
      </trkpt>
      <trkpt lat="59.38207992352545" lon="13.494370998814702">
        <ele>50.98</ele>
        <time>2025-02-02T20:23:23.086Z</time>
      </trkpt>
      <trkpt lat="59.38205796293914" lon="13.494235966354609">
        <ele>50.96</ele>
        <time>2025-02-02T20:23:23.698Z</time>
      </trkpt>
      <trkpt lat="59.38203499652445" lon="13.494099928066134">
        <ele>50.94</ele>
        <time>2025-02-02T20:23:24.311Z</time>
      </trkpt>
      <trkpt lat="59.38201395794749" lon="13.493963973596692">
        <ele>50.91</ele>
        <time>2025-02-02T20:23:24.926Z</time>
      </trkpt>
      <trkpt lat="59.38199291937053" lon="13.493825923651457">
        <ele>50.9</ele>
        <time>2025-02-02T20:23:25.542Z</time>
      </trkpt>
      <trkpt lat="59.3819719646126" lon="13.493686951696873">
        <ele>50.88</ele>
        <time>2025-02-02T20:23:26.159Z</time>
      </trkpt>
      <trkpt lat="59.38194899819791" lon="13.493547979742289">
        <ele>50.86</ele>
        <time>2025-02-02T20:23:26.777Z</time>
      </trkpt>
      <trkpt lat="59.38192594796419" lon="13.493410935625434">
        <ele>50.84</ele>
        <time>2025-02-02T20:23:27.396Z</time>
      </trkpt>
      <trkpt lat="59.3819029815495" lon="13.493273975327611">
        <ele>50.83</ele>
        <time>2025-02-02T20:23:28.016Z</time>
      </trkpt>
      <trkpt lat="59.38188093714416" lon="13.493133997544646">
        <ele>50.81</ele>
        <time>2025-02-02T20:23:28.638Z</time>
      </trkpt>
      <trkpt lat="59.38186299987137" lon="13.49299393594265">
        <ele>50.79</ele>
        <time>2025-02-02T20:23:29.261Z</time>
      </trkpt>
      <trkpt lat="59.381850929930806" lon="13.492852952331305">
        <ele>50.77</ele>
        <time>2025-02-02T20:23:29.885Z</time>
      </trkpt>
      <trkpt lat="59.38184095546603" lon="13.492710962891579">
        <ele>50.75</ele>
        <time>2025-02-02T20:23:30.510Z</time>
      </trkpt>
      <trkpt lat="59.38183098100126" lon="13.492566961795092">
        <ele>50.73</ele>
        <time>2025-02-02T20:23:31.136Z</time>
      </trkpt>
      <trkpt lat="59.38182092271745" lon="13.492420949041843">
        <ele>50.72</ele>
        <time>2025-02-02T20:23:31.764Z</time>
      </trkpt>
      <trkpt lat="59.3818099424243" lon="13.492278959602118">
        <ele>50.7</ele>
        <time>2025-02-02T20:23:32.393Z</time>
      </trkpt>
      <trkpt lat="59.38179695047438" lon="13.492131941020489">
        <ele>50.67</ele>
        <time>2025-02-02T20:23:33.023Z</time>
      </trkpt>
      <trkpt lat="59.381783958524466" lon="13.49198299460113">
        <ele>50.65</ele>
        <time>2025-02-02T20:23:33.654Z</time>
      </trkpt>
      <trkpt lat="59.38177197240293" lon="13.491834970191121">
        <ele>50.63</ele>
        <time>2025-02-02T20:23:34.286Z</time>
      </trkpt>
      <trkpt lat="59.381759986281395" lon="13.491687951609492">
        <ele>50.61</ele>
        <time>2025-02-02T20:23:34.920Z</time>
      </trkpt>
      <trkpt lat="59.3817459885031" lon="13.491538921371102">
        <ele>50.58</ele>
        <time>2025-02-02T20:23:35.555Z</time>
      </trkpt>
      <trkpt lat="59.38173299655318" lon="13.491394920274615">
        <ele>50.55</ele>
        <time>2025-02-02T20:23:36.191Z</time>
      </trkpt>
      <trkpt lat="59.381719920784235" lon="13.491251925006509">
        <ele>50.52</ele>
        <time>2025-02-02T20:23:36.828Z</time>
      </trkpt>
      <trkpt lat="59.38170692883432" lon="13.491109935566783">
        <ele>50.49</ele>
        <time>2025-02-02T20:23:37.466Z</time>
      </trkpt>
      <trkpt lat="59.381694942712784" lon="13.490967946127057">
        <ele>50.46</ele>
        <time>2025-02-02T20:23:38.106Z</time>
      </trkpt>
      <trkpt lat="59.38168597407639" lon="13.490827968344092">
        <ele>50.43</ele>
        <time>2025-02-02T20:23:38.747Z</time>
      </trkpt>
      <trkpt lat="59.381677927449346" lon="13.490687990561128">
        <ele>50.39</ele>
        <time>2025-02-02T20:23:39.389Z</time>
      </trkpt>
      <trkpt lat="59.38166996464133" lon="13.490540971979499">
        <ele>50.35</ele>
        <time>2025-02-02T20:23:40.032Z</time>
      </trkpt>
      <trkpt lat="59.38166493549943" lon="13.490396970883012">
        <ele>50.32</ele>
        <time>2025-02-02T20:23:40.676Z</time>
      </trkpt>
      <trkpt lat="59.38165697269142" lon="13.490250958129764">
        <ele>50.29</ele>
        <time>2025-02-02T20:23:41.322Z</time>
      </trkpt>
      <trkpt lat="59.38165093772113" lon="13.490105951204896">
        <ele>50.25</ele>
        <time>2025-02-02T20:23:41.969Z</time>
      </trkpt>
      <trkpt lat="59.38165093772113" lon="13.489959938451648">
        <ele>50.21</ele>
        <time>2025-02-02T20:23:42.617Z</time>
      </trkpt>
      <trkpt lat="59.38166191801429" lon="13.48981593735516">
        <ele>50.16</ele>
        <time>2025-02-02T20:23:43.266Z</time>
      </trkpt>
      <trkpt lat="59.381675999611616" lon="13.489674953743815">
        <ele>50.13</ele>
        <time>2025-02-02T20:23:43.916Z</time>
      </trkpt>
      <trkpt lat="59.38168295659125" lon="13.48953397013247">
        <ele>50.1</ele>
        <time>2025-02-02T20:23:44.567Z</time>
      </trkpt>
      <trkpt lat="59.38168597407639" lon="13.489392986521125">
        <ele>50.06</ele>
        <time>2025-02-02T20:23:45.220Z</time>
      </trkpt>
      <trkpt lat="59.38168798573315" lon="13.489245967939496">
        <ele>50.02</ele>
        <time>2025-02-02T20:23:45.874Z</time>
      </trkpt>
      <trkpt lat="59.38168999738991" lon="13.489091992378235">
        <ele>49.98</ele>
        <time>2025-02-02T20:23:46.529Z</time>
      </trkpt>
      <trkpt lat="59.38169293105602" lon="13.488934999331832">
        <ele>49.95</ele>
        <time>2025-02-02T20:23:47.185Z</time>
      </trkpt>
      <trkpt lat="59.38169293105602" lon="13.48878194577992">
        <ele>49.92</ele>
        <time>2025-02-02T20:23:47.843Z</time>
      </trkpt>
      <trkpt lat="59.38168798573315" lon="13.4886309877038">
        <ele>49.88</ele>
        <time>2025-02-02T20:23:48.502Z</time>
      </trkpt>
      <trkpt lat="59.38168195076287" lon="13.488477934151888">
        <ele>49.85</ele>
        <time>2025-02-02T20:23:49.162Z</time>
      </trkpt>
      <trkpt lat="59.381671976298094" lon="13.488316917791963">
        <ele>49.81</ele>
        <time>2025-02-02T20:23:49.823Z</time>
      </trkpt>
      <trkpt lat="59.381634928286076" lon="13.488185992464423">
        <ele>49.78</ele>
        <time>2025-02-02T20:23:50.486Z</time>
      </trkpt>
      <trkpt lat="59.38159595243633" lon="13.48807099275291">
        <ele>49.75</ele>
        <time>2025-02-02T20:23:51.150Z</time>
      </trkpt>
      <trkpt lat="59.3815509416163" lon="13.48796496167779">
        <ele>49.72</ele>
        <time>2025-02-02T20:23:51.815Z</time>
      </trkpt>
      <trkpt lat="59.38150794245303" lon="13.48785893060267">
        <ele>49.69</ele>
        <time>2025-02-02T20:23:52.481Z</time>
      </trkpt>
      <trkpt lat="59.38146594911814" lon="13.48774896003306">
        <ele>49.66</ele>
        <time>2025-02-02T20:23:53.148Z</time>
      </trkpt>
      <trkpt lat="59.38142898492515" lon="13.487637983635068">
        <ele>49.63</ele>
        <time>2025-02-02T20:23:53.816Z</time>
      </trkpt>
      <trkpt lat="59.381396966055036" lon="13.487522983923554">
        <ele>49.6</ele>
        <time>2025-02-02T20:23:54.485Z</time>
      </trkpt>
      <trkpt lat="59.38136192969978" lon="13.487407984212041">
        <ele>49.56</ele>
        <time>2025-02-02T20:23:55.155Z</time>
      </trkpt>
      <trkpt lat="59.381327982991934" lon="13.487293990328908">
        <ele>49.52</ele>
        <time>2025-02-02T20:23:55.826Z</time>
      </trkpt>
      <trkpt lat="59.38129395246506" lon="13.487172955647111">
        <ele>49.48</ele>
        <time>2025-02-02T20:23:56.499Z</time>
      </trkpt>
      <trkpt lat="59.38125992193818" lon="13.487049993127584">
        <ele>49.44</ele>
        <time>2025-02-02T20:23:57.173Z</time>
      </trkpt>
      <trkpt lat="59.381225975230336" lon="13.486926946789026">
        <ele>49.39</ele>
        <time>2025-02-02T20:23:57.848Z</time>
      </trkpt>
      <trkpt lat="59.38118892721832" lon="13.48680297844112">
        <ele>49.35</ele>
        <time>2025-02-02T20:23:58.524Z</time>
      </trkpt>
      <trkpt lat="59.38114793971181" lon="13.48667892627418">
        <ele>49.31</ele>
        <time>2025-02-02T20:23:59.201Z</time>
      </trkpt>
      <trkpt lat="59.38110594637692" lon="13.486557975411415">
        <ele>49.26</ele>
        <time>2025-02-02T20:23:59.879Z</time>
      </trkpt>
      <trkpt lat="59.38106294721365" lon="13.48643995821476">
        <ele>49.2</ele>
        <time>2025-02-02T20:24:00.559Z</time>
      </trkpt>
      <trkpt lat="59.38102195970714" lon="13.486324958503246">
        <ele>49.14</ele>
        <time>2025-02-02T20:24:01.240Z</time>
      </trkpt>
      <trkpt lat="59.38097896054387" lon="13.486212976276875">
        <ele>49.07</ele>
        <time>2025-02-02T20:24:01.922Z</time>
      </trkpt>
      <trkpt lat="59.38093394972384" lon="13.486102921888232">
        <ele>49.0</ele>
        <time>2025-02-02T20:24:02.605Z</time>
      </trkpt>
      <trkpt lat="59.38089095056057" lon="13.485991945490241">
        <ele>48.94</ele>
        <time>2025-02-02T20:24:03.289Z</time>
      </trkpt>
      <trkpt lat="59.38085197471082" lon="13.48587996326387">
        <ele>48.88</ele>
        <time>2025-02-02T20:24:03.974Z</time>
      </trkpt>
      <trkpt lat="59.38081392087042" lon="13.485763957723975">
        <ele>48.82</ele>
        <time>2025-02-02T20:24:04.660Z</time>
      </trkpt>
      <trkpt lat="59.38077695667744" lon="13.48564493469894">
        <ele>48.76</ele>
        <time>2025-02-02T20:24:05.348Z</time>
      </trkpt>
      <trkpt lat="59.38073898665607" lon="13.485523983836174">
        <ele>48.71</ele>
        <time>2025-02-02T20:24:06.037Z</time>
      </trkpt>
      <trkpt lat="59.38070294447243" lon="13.485399931669235">
        <ele>48.67</ele>
        <time>2025-02-02T20:24:06.727Z</time>
      </trkpt>
      <trkpt lat="59.38066799193621" lon="13.485274957492948">
        <ele>48.62</ele>
        <time>2025-02-02T20:24:07.418Z</time>
      </trkpt>
      <trkpt lat="59.38063295558095" lon="13.485156940296292">
        <ele>48.58</ele>
        <time>2025-02-02T20:24:08.110Z</time>
      </trkpt>
      <trkpt lat="59.38059892505407" lon="13.485033977776766">
        <ele>48.54</ele>
        <time>2025-02-02T20:24:08.803Z</time>
      </trkpt>
      <trkpt lat="59.38056598417461" lon="13.484908919781446">
        <ele>48.5</ele>
        <time>2025-02-02T20:24:09.498Z</time>
      </trkpt>
      <trkpt lat="59.38053295947611" lon="13.484791992232203">
        <ele>48.46</ele>
        <time>2025-02-02T20:24:10.194Z</time>
      </trkpt>
      <trkpt lat="59.38049993477762" lon="13.48467699252069">
        <ele>48.41</ele>
        <time>2025-02-02T20:24:10.891Z</time>
      </trkpt>
      <trkpt lat="59.38046992756426" lon="13.484560986980796">
        <ele>48.37</ele>
        <time>2025-02-02T20:24:11.589Z</time>
      </trkpt>
      <trkpt lat="59.38043992035091" lon="13.484443975612521">
        <ele>48.33</ele>
        <time>2025-02-02T20:24:12.288Z</time>
      </trkpt>
      <trkpt lat="59.380410918965936" lon="13.484325958415866">
        <ele>48.29</ele>
        <time>2025-02-02T20:24:12.988Z</time>
      </trkpt>
      <trkpt lat="59.38038191758096" lon="13.48420693539083">
        <ele>48.24</ele>
        <time>2025-02-02T20:24:13.689Z</time>
      </trkpt>
      <trkpt lat="59.38035492785275" lon="13.484087996184826">
        <ele>48.19</ele>
        <time>2025-02-02T20:24:14.391Z</time>
      </trkpt>
      <trkpt lat="59.38032894395292" lon="13.48396897315979">
        <ele>48.14</ele>
        <time>2025-02-02T20:24:15.094Z</time>
      </trkpt>
      <trkpt lat="59.38030396588147" lon="13.483848944306374">
        <ele>48.1</ele>
        <time>2025-02-02T20:24:15.798Z</time>
      </trkpt>
      <trkpt lat="59.380277981981635" lon="13.483725981786847">
        <ele>48.06</ele>
        <time>2025-02-02T20:24:16.503Z</time>
      </trkpt>
      <trkpt lat="59.380256943404675" lon="13.483596984297037">
        <ele>48.01</ele>
        <time>2025-02-02T20:24:17.209Z</time>
      </trkpt>
      <trkpt lat="59.380238922312856" lon="13.483463963493705">
        <ele>47.96</ele>
        <time>2025-02-02T20:24:17.917Z</time>
      </trkpt>
      <trkpt lat="59.38021897338331" lon="13.483329936861992">
        <ele>47.91</ele>
        <time>2025-02-02T20:24:18.626Z</time>
      </trkpt>
      <trkpt lat="59.38020296394825" lon="13.48319599404931">
        <ele>47.86</ele>
        <time>2025-02-02T20:24:19.336Z</time>
      </trkpt>
      <trkpt lat="59.38018594868481" lon="13.483061967417598">
        <ele>47.81</ele>
        <time>2025-02-02T20:24:20.047Z</time>
      </trkpt>
      <trkpt lat="59.38016692176461" lon="13.482927940785885">
        <ele>47.76</ele>
        <time>2025-02-02T20:24:20.759Z</time>
      </trkpt>
      <trkpt lat="59.380147978663445" lon="13.482791986316442">
        <ele>47.7</ele>
        <time>2025-02-02T20:24:21.472Z</time>
      </trkpt>
      <trkpt lat="59.380127945914865" lon="13.48265795968473">
        <ele>47.65</ele>
        <time>2025-02-02T20:24:22.186Z</time>
      </trkpt>
      <trkpt lat="59.380109924823046" lon="13.482523933053017">
        <ele>47.6</ele>
        <time>2025-02-02T20:24:22.901Z</time>
      </trkpt>
      <trkpt lat="59.38009198755026" lon="13.482387978583574">
        <ele>47.55</ele>
        <time>2025-02-02T20:24:23.618Z</time>
      </trkpt>
      <trkpt lat="59.38007296063006" lon="13.4822519402951">
        <ele>47.5</ele>
        <time>2025-02-02T20:24:24.336Z</time>
      </trkpt>
      <trkpt lat="59.38005493953824" lon="13.482115985825658">
        <ele>47.46</ele>
        <time>2025-02-02T20:24:25.055Z</time>
      </trkpt>
      <trkpt lat="59.38003599643707" lon="13.481979947537184">
        <ele>47.41</ele>
        <time>2025-02-02T20:24:25.775Z</time>
      </trkpt>
      <trkpt lat="59.380017975345254" lon="13.48184298723936">
        <ele>47.37</ele>
        <time>2025-02-02T20:24:26.496Z</time>
      </trkpt>
      <trkpt lat="59.379997942596674" lon="13.481704937294126">
        <ele>47.32</ele>
        <time>2025-02-02T20:24:27.218Z</time>
      </trkpt>
      <trkpt lat="59.379977993667126" lon="13.481567976996303">
        <ele>47.28</ele>
        <time>2025-02-02T20:24:27.942Z</time>
      </trkpt>
      <trkpt lat="59.37995997257531" lon="13.481430932879448">
        <ele>47.24</ele>
        <time>2025-02-02T20:24:28.667Z</time>
      </trkpt>
      <trkpt lat="59.37994396314025" lon="13.481291960924864">
        <ele>47.19</ele>
        <time>2025-02-02T20:24:29.393Z</time>
      </trkpt>
      <trkpt lat="59.37992795370519" lon="13.481151983141899">
        <ele>47.15</ele>
        <time>2025-02-02T20:24:30.120Z</time>
      </trkpt>
      <trkpt lat="59.379912950098515" lon="13.481010999530554">
        <ele>47.11</ele>
        <time>2025-02-02T20:24:30.848Z</time>
      </trkpt>
      <trkpt lat="59.37989794649184" lon="13.480869932100177">
        <ele>47.07</ele>
        <time>2025-02-02T20:24:31.577Z</time>
      </trkpt>
      <trkpt lat="59.37988394871354" lon="13.48072693683207">
        <ele>47.03</ele>
        <time>2025-02-02T20:24:32.308Z</time>
      </trkpt>
      <trkpt lat="59.379869950935245" lon="13.480584947392344">
        <ele>47.0</ele>
        <time>2025-02-02T20:24:33.040Z</time>
      </trkpt>
      <trkpt lat="59.37985494732857" lon="13.480440946295857">
        <ele>46.97</ele>
        <time>2025-02-02T20:24:33.773Z</time>
      </trkpt>
      <trkpt lat="59.37983994372189" lon="13.480297951027751">
        <ele>46.93</ele>
        <time>2025-02-02T20:24:34.507Z</time>
      </trkpt>
      <trkpt lat="59.379826951771975" lon="13.480154955759645">
        <ele>46.89</ele>
        <time>2025-02-02T20:24:35.242Z</time>
      </trkpt>
      <trkpt lat="59.37981094233692" lon="13.480010954663157">
        <ele>46.85</ele>
        <time>2025-02-02T20:24:35.979Z</time>
      </trkpt>
      <trkpt lat="59.37979694455862" lon="13.47986594773829">
        <ele>46.81</ele>
        <time>2025-02-02T20:24:36.717Z</time>
      </trkpt>
      <trkpt lat="59.379783952608705" lon="13.479721946641803">
        <ele>46.77</ele>
        <time>2025-02-02T20:24:37.456Z</time>
      </trkpt>
      <trkpt lat="59.37977096065879" lon="13.479573922231793">
        <ele>46.73</ele>
        <time>2025-02-02T20:24:38.196Z</time>
      </trkpt>
      <trkpt lat="59.37975796870887" lon="13.479427993297577">
        <ele>46.7</ele>
        <time>2025-02-02T20:24:38.937Z</time>
      </trkpt>
      <trkpt lat="59.37974598258734" lon="13.479280974715948">
        <ele>46.65</ele>
        <time>2025-02-02T20:24:39.680Z</time>
      </trkpt>
      <trkpt lat="59.37973491847515" lon="13.47913395613432">
        <ele>46.62</ele>
        <time>2025-02-02T20:24:40.424Z</time>
      </trkpt>
      <trkpt lat="59.379723938181996" lon="13.478987943381071">
        <ele>46.58</ele>
        <time>2025-02-02T20:24:41.169Z</time>
      </trkpt>
      <trkpt lat="59.37971597537398" lon="13.478840924799442">
        <ele>46.55</ele>
        <time>2025-02-02T20:24:41.915Z</time>
      </trkpt>
      <trkpt lat="59.37970792874694" lon="13.478693990036845">
        <ele>46.52</ele>
        <time>2025-02-02T20:24:42.663Z</time>
      </trkpt>
      <trkpt lat="59.37970298342407" lon="13.478546971455216">
        <ele>46.49</ele>
        <time>2025-02-02T20:24:43.412Z</time>
      </trkpt>
      <trkpt lat="59.379698960110545" lon="13.478400958701968">
        <ele>46.46</ele>
        <time>2025-02-02T20:24:44.162Z</time>
      </trkpt>
      <trkpt lat="59.379697954282165" lon="13.4782559517771">
        <ele>46.43</ele>
        <time>2025-02-02T20:24:44.913Z</time>
      </trkpt>
      <trkpt lat="59.379696948453784" lon="13.478107927367091">
        <ele>46.4</ele>
        <time>2025-02-02T20:24:45.665Z</time>
      </trkpt>
      <trkpt lat="59.379696948453784" lon="13.477956969290972">
        <ele>46.38</ele>
        <time>2025-02-02T20:24:46.419Z</time>
      </trkpt>
      <trkpt lat="59.379698960110545" lon="13.47780492156744">
        <ele>46.36</ele>
        <time>2025-02-02T20:24:47.174Z</time>
      </trkpt>
      <trkpt lat="59.37970197759569" lon="13.47765295766294">
        <ele>46.34</ele>
        <time>2025-02-02T20:24:47.930Z</time>
      </trkpt>
      <trkpt lat="59.37970591709018" lon="13.47750199958682">
        <ele>46.31</ele>
        <time>2025-02-02T20:24:48.687Z</time>
      </trkpt>
      <trkpt lat="59.37970893457532" lon="13.47735095769167">
        <ele>46.3</ele>
        <time>2025-02-02T20:24:49.446Z</time>
      </trkpt>
      <trkpt lat="59.37971094623208" lon="13.477196982130408">
        <ele>46.28</ele>
        <time>2025-02-02T20:24:50.206Z</time>
      </trkpt>
      <trkpt lat="59.37971396371722" lon="13.477043928578496">
        <ele>46.25</ele>
        <time>2025-02-02T20:24:50.967Z</time>
      </trkpt>
      <trkpt lat="59.379717987030745" lon="13.476889953017235">
        <ele>46.22</ele>
        <time>2025-02-02T20:24:51.729Z</time>
      </trkpt>
      <trkpt lat="59.379720920696855" lon="13.476738994941115">
        <ele>46.2</ele>
        <time>2025-02-02T20:24:52.493Z</time>
      </trkpt>
      <trkpt lat="59.37972494401038" lon="13.476586947217584">
        <ele>46.18</ele>
        <time>2025-02-02T20:24:53.258Z</time>
      </trkpt>
      <trkpt lat="59.3797289673239" lon="13.476434983313084">
        <ele>46.17</ele>
        <time>2025-02-02T20:24:54.024Z</time>
      </trkpt>
      <trkpt lat="59.3797339964658" lon="13.476282935589552">
        <ele>46.15</ele>
        <time>2025-02-02T20:24:54.791Z</time>
      </trkpt>
      <trkpt lat="59.379741959273815" lon="13.476131977513433">
        <ele>46.13</ele>
        <time>2025-02-02T20:24:55.560Z</time>
      </trkpt>
      <trkpt lat="59.37975293956697" lon="13.475981941446662">
        <ele>46.11</ele>
        <time>2025-02-02T20:24:56.330Z</time>
      </trkpt>
      <trkpt lat="59.379764925688505" lon="13.475831989198923">
        <ele>46.1</ele>
        <time>2025-02-02T20:24:57.101Z</time>
      </trkpt>
      <trkpt lat="59.37977699562907" lon="13.475681953132153">
        <ele>46.08</ele>
        <time>2025-02-02T20:24:57.873Z</time>
      </trkpt>
      <trkpt lat="59.37979199923575" lon="13.475533928722143">
        <ele>46.07</ele>
        <time>2025-02-02T20:24:58.646Z</time>
      </trkpt>
      <trkpt lat="59.379806919023395" lon="13.475385988131166">
        <ele>46.06</ele>
        <time>2025-02-02T20:24:59.421Z</time>
      </trkpt>
      <trkpt lat="59.37982192263007" lon="13.475237963721156">
        <ele>46.06</ele>
        <time>2025-02-02T20:25:00.197Z</time>
      </trkpt>
      <trkpt lat="59.37983499839902" lon="13.475091950967908">
        <ele>46.05</ele>
        <time>2025-02-02T20:25:00.974Z</time>
      </trkpt>
      <trkpt lat="59.379849918186665" lon="13.47494593821466">
        <ele>46.05</ele>
        <time>2025-02-02T20:25:01.752Z</time>
      </trkpt>
      <trkpt lat="59.37986592762172" lon="13.474798919633031">
        <ele>46.05</ele>
        <time>2025-02-02T20:25:02.532Z</time>
      </trkpt>
      <trkpt lat="59.37988294288516" lon="13.474655924364924">
        <ele>46.05</ele>
        <time>2025-02-02T20:25:03.313Z</time>
      </trkpt>
      <trkpt lat="59.37990196980536" lon="13.474510917440057">
        <ele>46.05</ele>
        <time>2025-02-02T20:25:04.095Z</time>
      </trkpt>
      <trkpt lat="59.37991999089718" lon="13.47436297684908">
        <ele>46.05</ele>
        <time>2025-02-02T20:25:04.878Z</time>
      </trkpt>
      <trkpt lat="59.37993993982673" lon="13.474217969924212">
        <ele>46.06</ele>
        <time>2025-02-02T20:25:05.663Z</time>
      </trkpt>
      <trkpt lat="59.37996097840369" lon="13.474076986312866">
        <ele>46.06</ele>
        <time>2025-02-02T20:25:06.449Z</time>
      </trkpt>
      <trkpt lat="59.379981933161616" lon="13.47393692471087">
        <ele>46.07</ele>
        <time>2025-02-02T20:25:07.236Z</time>
      </trkpt>
      <trkpt lat="59.380001965910196" lon="13.473794935271144">
        <ele>46.07</ele>
        <time>2025-02-02T20:25:08.024Z</time>
      </trkpt>
      <trkpt lat="59.380022920668125" lon="13.473653951659799">
        <ele>46.08</ele>
        <time>2025-02-02T20:25:08.813Z</time>
      </trkpt>
      <trkpt lat="59.380044965073466" lon="13.473514979705215">
        <ele>46.09</ele>
        <time>2025-02-02T20:25:09.603Z</time>
      </trkpt>
      <trkpt lat="59.380066925659776" lon="13.473375923931599">
        <ele>46.11</ele>
        <time>2025-02-02T20:25:10.395Z</time>
      </trkpt>
      <trkpt lat="59.380087964236736" lon="13.473236951977015">
        <ele>46.12</ele>
        <time>2025-02-02T20:25:11.188Z</time>
      </trkpt>
      <trkpt lat="59.380107996985316" lon="13.47309596836567">
        <ele>46.14</ele>
        <time>2025-02-02T20:25:11.982Z</time>
      </trkpt>
      <trkpt lat="59.380127945914865" lon="13.472954984754324">
        <ele>46.15</ele>
        <time>2025-02-02T20:25:12.777Z</time>
      </trkpt>
      <trkpt lat="59.380147978663445" lon="13.472812995314598">
        <ele>46.17</ele>
        <time>2025-02-02T20:25:13.573Z</time>
      </trkpt>
      <trkpt lat="59.38016792759299" lon="13.47266991622746">
        <ele>46.18</ele>
        <time>2025-02-02T20:25:14.371Z</time>
      </trkpt>
      <trkpt lat="59.38018796034157" lon="13.472527926787734">
        <ele>46.2</ele>
        <time>2025-02-02T20:25:15.170Z</time>
      </trkpt>
      <trkpt lat="59.38020799309015" lon="13.472384931519628">
        <ele>46.22</ele>
        <time>2025-02-02T20:25:15.970Z</time>
      </trkpt>
      <trkpt lat="59.38022693619132" lon="13.47223992459476">
        <ele>46.23</ele>
        <time>2025-02-02T20:25:16.771Z</time>
      </trkpt>
      <trkpt lat="59.38024596311152" lon="13.472095923498273">
        <ele>46.25</ele>
        <time>2025-02-02T20:25:17.574Z</time>
      </trkpt>
      <trkpt lat="59.38026499003172" lon="13.471949994564056">
        <ele>46.28</ele>
        <time>2025-02-02T20:25:18.378Z</time>
      </trkpt>
      <trkpt lat="59.38028393313289" lon="13.471801970154047">
        <ele>46.31</ele>
        <time>2025-02-02T20:25:19.183Z</time>
      </trkpt>
      <trkpt lat="59.380301954224706" lon="13.471654951572418">
        <ele>46.34</ele>
        <time>2025-02-02T20:25:19.989Z</time>
      </trkpt>
      <trkpt lat="59.380321986973286" lon="13.471506927162409">
        <ele>46.38</ele>
        <time>2025-02-02T20:25:20.797Z</time>
      </trkpt>
      <trkpt lat="59.380341935902834" lon="13.471359992399812">
        <ele>46.42</ele>
        <time>2025-02-02T20:25:21.606Z</time>
      </trkpt>
      <trkpt lat="59.380361968651414" lon="13.471210962161422">
        <ele>46.46</ele>
        <time>2025-02-02T20:25:22.416Z</time>
      </trkpt>
      <trkpt lat="59.38038292340934" lon="13.471062937751412">
        <ele>46.49</ele>
        <time>2025-02-02T20:25:23.227Z</time>
      </trkpt>
      <trkpt lat="59.38040295615792" lon="13.470912985503674">
        <ele>46.54</ele>
        <time>2025-02-02T20:25:24.040Z</time>
      </trkpt>
      <trkpt lat="59.38042491674423" lon="13.470763955265284">
        <ele>46.58</ele>
        <time>2025-02-02T20:25:24.854Z</time>
      </trkpt>
      <trkpt lat="59.380450984463096" lon="13.470617942512035">
        <ele>46.62</ele>
        <time>2025-02-02T20:25:25.669Z</time>
      </trkpt>
      <trkpt lat="59.38048199750483" lon="13.47047695890069">
        <ele>46.65</ele>
        <time>2025-02-02T20:25:26.485Z</time>
      </trkpt>
      <trkpt lat="59.380516950041056" lon="13.470339998602867">
        <ele>46.7</ele>
        <time>2025-02-02T20:25:27.303Z</time>
      </trkpt>
      <trkpt lat="59.380556931719184" lon="13.470206977799535">
        <ele>46.74</ele>
        <time>2025-02-02T20:25:28.122Z</time>
      </trkpt>
      <trkpt lat="59.38059791922569" lon="13.470077980309725">
        <ele>46.79</ele>
        <time>2025-02-02T20:25:28.942Z</time>
      </trkpt>
      <trkpt lat="59.38064192421734" lon="13.469952922314405">
        <ele>46.83</ele>
        <time>2025-02-02T20:25:29.763Z</time>
      </trkpt>
      <trkpt lat="59.380686935037374" lon="13.469829959794879">
        <ele>46.88</ele>
        <time>2025-02-02T20:25:30.586Z</time>
      </trkpt>
      <trkpt lat="59.380730940029025" lon="13.469707919284701">
        <ele>46.94</ele>
        <time>2025-02-02T20:25:31.410Z</time>
      </trkpt>
      <trkpt lat="59.380774945020676" lon="13.469584956765175">
        <ele>46.99</ele>
        <time>2025-02-02T20:25:32.235Z</time>
      </trkpt>
      <trkpt lat="59.380817944183946" lon="13.469465933740139">
        <ele>47.05</ele>
        <time>2025-02-02T20:25:33.061Z</time>
      </trkpt>
      <trkpt lat="59.380860943347216" lon="13.469346994534135">
        <ele>47.1</ele>
        <time>2025-02-02T20:25:33.888Z</time>
      </trkpt>
      <trkpt lat="59.380902936682105" lon="13.469223948195577">
        <ele>47.16</ele>
        <time>2025-02-02T20:25:34.717Z</time>
      </trkpt>
      <trkpt lat="59.380941996350884" lon="13.469095956534147">
        <ele>47.22</ele>
        <time>2025-02-02T20:25:35.547Z</time>
      </trkpt>
      <trkpt lat="59.38097896054387" lon="13.468964947387576">
        <ele>47.28</ele>
        <time>2025-02-02T20:25:36.378Z</time>
      </trkpt>
      <trkpt lat="59.38101198524237" lon="13.468830920755863">
        <ele>47.34</ele>
        <time>2025-02-02T20:25:37.210Z</time>
      </trkpt>
      <trkpt lat="59.38103998079896" lon="13.468691948801279">
        <ele>47.41</ele>
        <time>2025-02-02T20:25:38.044Z</time>
      </trkpt>
      <trkpt lat="59.38106596469879" lon="13.468550965189934">
        <ele>47.47</ele>
        <time>2025-02-02T20:25:38.879Z</time>
      </trkpt>
      <trkpt lat="59.38109094277024" lon="13.468408975750208">
        <ele>47.54</ele>
        <time>2025-02-02T20:25:39.715Z</time>
      </trkpt>
      <trkpt lat="59.381115920841694" lon="13.468266986310482">
        <ele>47.6</ele>
        <time>2025-02-02T20:25:40.552Z</time>
      </trkpt>
      <trkpt lat="59.381138971075416" lon="13.468122985213995">
        <ele>47.67</ele>
        <time>2025-02-02T20:25:41.390Z</time>
      </trkpt>
      <trkpt lat="59.381160931661725" lon="13.467979989945889">
        <ele>47.74</ele>
        <time>2025-02-02T20:25:42.230Z</time>
      </trkpt>
      <trkpt lat="59.381181970238686" lon="13.467838922515512">
        <ele>47.81</ele>
        <time>2025-02-02T20:25:43.071Z</time>
      </trkpt>
      <trkpt lat="59.381201919168234" lon="13.46770397387445">
        <ele>47.89</ele>
        <time>2025-02-02T20:25:43.913Z</time>
      </trkpt>
      <trkpt lat="59.38121994026005" lon="13.467570953071117">
        <ele>47.96</ele>
        <time>2025-02-02T20:25:44.756Z</time>
      </trkpt>
      <trkpt lat="59.38123393803835" lon="13.467439943924546">
        <ele>48.04</ele>
        <time>2025-02-02T20:25:45.600Z</time>
      </trkpt>
      <trkpt lat="59.381245924159884" lon="13.467310946434736">
        <ele>48.12</ele>
        <time>2025-02-02T20:25:46.445Z</time>
      </trkpt>
      <trkpt lat="59.38126092776656" lon="13.46718798391521">
        <ele>48.19</ele>
        <time>2025-02-02T20:25:47.291Z</time>
      </trkpt>
      <trkpt lat="59.38128196634352" lon="13.467071978375316">
        <ele>48.27</ele>
        <time>2025-02-02T20:25:48.138Z</time>
      </trkpt>
      <trkpt lat="59.38130593858659" lon="13.466957984492183">
        <ele>48.35</ele>
        <time>2025-02-02T20:25:48.986Z</time>
      </trkpt>
      <trkpt lat="59.38132697716355" lon="13.466841978952289">
        <ele>48.43</ele>
        <time>2025-02-02T20:25:49.835Z</time>
      </trkpt>
      <trkpt lat="59.38133996911347" lon="13.466721950098872">
        <ele>48.51</ele>
        <time>2025-02-02T20:25:50.685Z</time>
      </trkpt>
      <trkpt lat="59.38133996911347" lon="13.466599993407726">
        <ele>48.59</ele>
        <time>2025-02-02T20:25:51.536Z</time>
      </trkpt>
      <trkpt lat="59.381328988820314" lon="13.466474935412407">
        <ele>48.68</ele>
        <time>2025-02-02T20:25:52.388Z</time>
      </trkpt>
      <trkpt lat="59.38131398521364" lon="13.46634996123612">
        <ele>48.77</ele>
        <time>2025-02-02T20:25:53.241Z</time>
      </trkpt>
      <trkpt lat="59.3812969699502" lon="13.466225992888212">
        <ele>48.87</ele>
        <time>2025-02-02T20:25:54.096Z</time>
      </trkpt>
      <trkpt lat="59.38128196634352" lon="13.466102946549654">
        <ele>48.96</ele>
        <time>2025-02-02T20:25:54.952Z</time>
      </trkpt>
      <trkpt lat="59.381268974393606" lon="13.465978978201747">
        <ele>49.06</ele>
        <time>2025-02-02T20:25:55.809Z</time>
      </trkpt>
      <trkpt lat="59.38125497661531" lon="13.465854926034808">
        <ele>49.16</ele>
        <time>2025-02-02T20:25:56.667Z</time>
      </trkpt>
      <trkpt lat="59.38123997300863" lon="13.465732969343662">
        <ele>49.25</ele>
        <time>2025-02-02T20:25:57.526Z</time>
      </trkpt>
      <trkpt lat="59.381223963573575" lon="13.465612940490246">
        <ele>49.35</ele>
        <time>2025-02-02T20:25:58.386Z</time>
      </trkpt>
      <trkpt lat="59.38120694831014" lon="13.46549391746521">
        <ele>49.46</ele>
        <time>2025-02-02T20:25:59.247Z</time>
      </trkpt>
      <trkpt lat="59.3811899330467" lon="13.465376989915967">
        <ele>49.56</ele>
        <time>2025-02-02T20:26:00.109Z</time>
      </trkpt>
      <trkpt lat="59.38117392361164" lon="13.465261990204453">
        <ele>49.66</ele>
        <time>2025-02-02T20:26:00.972Z</time>
      </trkpt>
      <trkpt lat="59.381156992167234" lon="13.46514992415905">
        <ele>49.76</ele>
        <time>2025-02-02T20:26:01.836Z</time>
      </trkpt>
      <trkpt lat="59.381137965247035" lon="13.46504095941782">
        <ele>49.86</ele>
        <time>2025-02-02T20:26:02.701Z</time>
      </trkpt>
      <trkpt lat="59.381117932498455" lon="13.464932916685939">
        <ele>49.96</ele>
        <time>2025-02-02T20:26:03.567Z</time>
      </trkpt>
      <trkpt lat="59.38109999522567" lon="13.46482696942985">
        <ele>50.07</ele>
        <time>2025-02-02T20:26:04.433Z</time>
      </trkpt>
      <trkpt lat="59.38107795082033" lon="13.464725967496634">
        <ele>50.18</ele>
        <time>2025-02-02T20:26:05.300Z</time>
      </trkpt>
      <trkpt lat="59.38104894943535" lon="13.464638963341713">
        <ele>50.28</ele>
        <time>2025-02-02T20:26:06.168Z</time>
      </trkpt>
      <trkpt lat="59.381009973585606" lon="13.464564951136708">
        <ele>50.38</ele>
        <time>2025-02-02T20:26:07.037Z</time>
      </trkpt>
      <trkpt lat="59.38096194528043" lon="13.46450594253838">
        <ele>50.49</ele>
        <time>2025-02-02T20:26:07.907Z</time>
      </trkpt>
      <trkpt lat="59.38090695999563" lon="13.464459925889969">
        <ele>50.59</ele>
        <time>2025-02-02T20:26:08.778Z</time>
      </trkpt>
      <trkpt lat="59.3808479513973" lon="13.464426985010505">
        <ele>50.7</ele>
        <time>2025-02-02T20:26:09.650Z</time>
      </trkpt>
      <trkpt lat="59.38078299164772" lon="13.464402928948402">
        <ele>50.8</ele>
        <time>2025-02-02T20:26:10.523Z</time>
      </trkpt>
      <trkpt lat="59.38071694225073" lon="13.464389936998487">
        <ele>50.9</ele>
        <time>2025-02-02T20:26:11.397Z</time>
      </trkpt>
      <trkpt lat="59.38064795918763" lon="13.464386919513345">
        <ele>51.0</ele>
        <time>2025-02-02T20:26:12.272Z</time>
      </trkpt>
      <trkpt lat="59.380577970296144" lon="13.464391948655248">
        <ele>51.1</ele>
        <time>2025-02-02T20:26:13.148Z</time>
      </trkpt>
      <trkpt lat="59.38050898723304" lon="13.464400917291641">
        <ele>51.2</ele>
        <time>2025-02-02T20:26:14.025Z</time>
      </trkpt>
      <trkpt lat="59.38043899834156" lon="13.464411981403828">
        <ele>51.3</ele>
        <time>2025-02-02T20:26:14.903Z</time>
      </trkpt>
      <trkpt lat="59.380368925631046" lon="13.464420950040221">
        <ele>51.4</ele>
        <time>2025-02-02T20:26:15.783Z</time>
      </trkpt>
      <trkpt lat="59.380299942567945" lon="13.464427990838885">
        <ele>51.5</ele>
        <time>2025-02-02T20:26:16.664Z</time>
      </trkpt>
      <trkpt lat="59.38022995367646" lon="13.464429918676615">
        <ele>51.6</ele>
        <time>2025-02-02T20:26:17.546Z</time>
      </trkpt>
      <trkpt lat="59.38016197644174" lon="13.464413993060589">
        <ele>51.7</ele>
        <time>2025-02-02T20:26:18.429Z</time>
      </trkpt>
      <trkpt lat="59.38009894452989" lon="13.464362947270274">
        <ele>51.8</ele>
        <time>2025-02-02T20:26:19.313Z</time>
      </trkpt>
      <trkpt lat="59.38004798255861" lon="13.464274937286973">
        <ele>51.91</ele>
        <time>2025-02-02T20:26:20.198Z</time>
      </trkpt>
      <trkpt lat="59.38001194037497" lon="13.46416094340384">
        <ele>52.01</ele>
        <time>2025-02-02T20:26:21.084Z</time>
      </trkpt>
      <trkpt lat="59.37998595647514" lon="13.464039992541075">
        <ele>52.1</ele>
        <time>2025-02-02T20:26:21.971Z</time>
      </trkpt>
      <trkpt lat="59.37995997257531" lon="13.463920969516039">
        <ele>52.2</ele>
        <time>2025-02-02T20:26:22.859Z</time>
      </trkpt>
      <trkpt lat="59.379931977018714" lon="13.463806975632906">
        <ele>52.3</ele>
        <time>2025-02-02T20:26:23.748Z</time>
      </trkpt>
      <trkpt lat="59.37990196980536" lon="13.463702956214547">
        <ele>52.4</ele>
        <time>2025-02-02T20:26:24.638Z</time>
      </trkpt>
      <trkpt lat="59.37986492179334" lon="13.463609917089343">
        <ele>52.5</ele>
        <time>2025-02-02T20:26:25.529Z</time>
      </trkpt>
      <trkpt lat="59.379825945943594" lon="13.463525930419564">
        <ele>52.59</ele>
        <time>2025-02-02T20:26:26.421Z</time>
      </trkpt>
      <trkpt lat="59.379784958437085" lon="13.463446972891688">
        <ele>52.68</ele>
        <time>2025-02-02T20:26:27.314Z</time>
      </trkpt>
      <trkpt lat="59.379743970930576" lon="13.463369943201542">
        <ele>52.77</ele>
        <time>2025-02-02T20:26:28.208Z</time>
      </trkpt>
      <trkpt lat="59.37970398925245" lon="13.463292997330427">
        <ele>52.86</ele>
        <time>2025-02-02T20:26:29.103Z</time>
      </trkpt>
      <trkpt lat="59.37967297621071" lon="13.463205993175507">
        <ele>52.95</ele>
        <time>2025-02-02T20:26:29.999Z</time>
      </trkpt>
      <trkpt lat="59.379657972604036" lon="13.46310993656516">
        <ele>53.03</ele>
        <time>2025-02-02T20:26:30.896Z</time>
      </trkpt>
      <trkpt lat="59.3796599842608" lon="13.463010946288705">
        <ele>53.12</ele>
        <time>2025-02-02T20:26:31.793Z</time>
      </trkpt>
      <trkpt lat="59.379674987867475" lon="13.46291296184063">
        <ele>53.2</ele>
        <time>2025-02-02T20:26:32.691Z</time>
      </trkpt>
      <trkpt lat="59.37968797981739" lon="13.462809948250651">
        <ele>53.28</ele>
        <time>2025-02-02T20:26:33.590Z</time>
      </trkpt>
      <trkpt lat="59.37970197759569" lon="13.462707940489054">
        <ele>53.35</ele>
        <time>2025-02-02T20:26:34.490Z</time>
      </trkpt>
      <trkpt lat="59.37971396371722" lon="13.462606938555837">
        <ele>53.42</ele>
        <time>2025-02-02T20:26:35.391Z</time>
      </trkpt>
      <trkpt lat="59.37972594983876" lon="13.46250593662262">
        <ele>53.5</ele>
        <time>2025-02-02T20:26:36.293Z</time>
      </trkpt>
      <trkpt lat="59.37973793596029" lon="13.462405940517783">
        <ele>53.57</ele>
        <time>2025-02-02T20:26:37.196Z</time>
      </trkpt>
      <trkpt lat="59.37974992208183" lon="13.462305944412947">
        <ele>53.64</ele>
        <time>2025-02-02T20:26:38.099Z</time>
      </trkpt>
      <trkpt lat="59.379760986194015" lon="13.46220494247973">
        <ele>53.71</ele>
        <time>2025-02-02T20:26:39.003Z</time>
      </trkpt>
      <trkpt lat="59.37977297231555" lon="13.462103940546513">
        <ele>53.78</ele>
        <time>2025-02-02T20:26:39.908Z</time>
      </trkpt>
      <trkpt lat="59.379785964265466" lon="13.462000926956534">
        <ele>53.84</ele>
        <time>2025-02-02T20:26:40.814Z</time>
      </trkpt>
      <trkpt lat="59.37979996204376" lon="13.461894979700446">
        <ele>53.91</ele>
        <time>2025-02-02T20:26:41.721Z</time>
      </trkpt>
      <trkpt lat="59.37981496565044" lon="13.461784925311804">
        <ele>53.98</ele>
        <time>2025-02-02T20:26:42.629Z</time>
      </trkpt>
      <trkpt lat="59.379829969257116" lon="13.461671937257051">
        <ele>54.05</ele>
        <time>2025-02-02T20:26:43.538Z</time>
      </trkpt>
      <trkpt lat="59.37984497286379" lon="13.461551992222667">
        <ele>54.11</ele>
        <time>2025-02-02T20:26:44.448Z</time>
      </trkpt>
      <trkpt lat="59.37985997647047" lon="13.461427940055728">
        <ele>54.17</ele>
        <time>2025-02-02T20:26:45.359Z</time>
      </trkpt>
      <trkpt lat="59.37987397424877" lon="13.46130095422268">
        <ele>54.22</ele>
        <time>2025-02-02T20:26:46.271Z</time>
      </trkpt>
      <trkpt lat="59.3798859603703" lon="13.461169945076108">
        <ele>54.28</ele>
        <time>2025-02-02T20:26:47.184Z</time>
      </trkpt>
      <trkpt lat="59.3798999581486" lon="13.461036924272776">
        <ele>54.34</ele>
        <time>2025-02-02T20:26:48.098Z</time>
      </trkpt>
      <trkpt lat="59.379915967583656" lon="13.460904993116856">
        <ele>54.4</ele>
        <time>2025-02-02T20:26:49.013Z</time>
      </trkpt>
      <trkpt lat="59.379932982847095" lon="13.460770966485143">
        <ele>54.45</ele>
        <time>2025-02-02T20:26:49.929Z</time>
      </trkpt>
      <trkpt lat="59.37994999811053" lon="13.460638951510191">
        <ele>54.49</ele>
        <time>2025-02-02T20:26:50.846Z</time>
      </trkpt>
      <trkpt lat="59.37996592372656" lon="13.46050693653524">
        <ele>54.54</ele>
        <time>2025-02-02T20:26:51.765Z</time>
      </trkpt>
      <trkpt lat="59.379980927333236" lon="13.460375927388668">
        <ele>54.59</ele>
        <time>2025-02-02T20:26:52.685Z</time>
      </trkpt>
      <trkpt lat="59.37999593093991" lon="13.460246929898858">
        <ele>54.64</ele>
        <time>2025-02-02T20:26:53.606Z</time>
      </trkpt>
      <trkpt lat="59.38001093454659" lon="13.460116926580667">
        <ele>54.69</ele>
        <time>2025-02-02T20:26:54.528Z</time>
      </trkpt>
      <trkpt lat="59.38002794981003" lon="13.459989940747619">
        <ele>54.74</ele>
        <time>2025-02-02T20:26:55.451Z</time>
      </trkpt>
      <trkpt lat="59.380043959245086" lon="13.459859937429428">
        <ele>54.79</ele>
        <time>2025-02-02T20:26:56.375Z</time>
      </trkpt>
      <trkpt lat="59.38005996868014" lon="13.45973496325314">
        <ele>54.83</ele>
        <time>2025-02-02T20:26:57.300Z</time>
      </trkpt>
      <trkpt lat="59.38007698394358" lon="13.459613928571343">
        <ele>54.88</ele>
        <time>2025-02-02T20:26:58.226Z</time>
      </trkpt>
      <trkpt lat="59.38009198755026" lon="13.459492977708578">
        <ele>54.92</ele>
        <time>2025-02-02T20:26:59.153Z</time>
      </trkpt>
      <trkpt lat="59.380106991156936" lon="13.459371943026781">
        <ele>54.96</ele>
        <time>2025-02-02T20:27:00.081Z</time>
      </trkpt>
      <trkpt lat="59.380127945914865" lon="13.45926096662879">
        <ele>54.99</ele>
        <time>2025-02-02T20:27:01.010Z</time>
      </trkpt>
      <trkpt lat="59.38014596700668" lon="13.459152923896909">
        <ele>55.02</ele>
        <time>2025-02-02T20:27:01.940Z</time>
      </trkpt>
      <trkpt lat="59.38016197644174" lon="13.459040941670537">
        <ele>55.05</ele>
        <time>2025-02-02T20:27:02.871Z</time>
      </trkpt>
      <trkpt lat="59.3801779858768" lon="13.458927953615785">
        <ele>55.09</ele>
        <time>2025-02-02T20:27:03.803Z</time>
      </trkpt>
      <trkpt lat="59.380192989483476" lon="13.458818988874555">
        <ele>55.11</ele>
        <time>2025-02-02T20:27:04.736Z</time>
      </trkpt>
      <trkpt lat="59.38020598143339" lon="13.458708934485912">
        <ele>55.14</ele>
        <time>2025-02-02T20:27:05.670Z</time>
      </trkpt>
      <trkpt lat="59.38021796755493" lon="13.458600975573063">
        <ele>55.16</ele>
        <time>2025-02-02T20:27:06.605Z</time>
      </trkpt>
      <trkpt lat="59.38023095950484" lon="13.45848698168993">
        <ele>55.18</ele>
        <time>2025-02-02T20:27:07.541Z</time>
      </trkpt>
      <trkpt lat="59.380239928141236" lon="13.45837994478643">
        <ele>55.21</ele>
        <time>2025-02-02T20:27:08.478Z</time>
      </trkpt>
      <trkpt lat="59.38024898059666" lon="13.45827198587358">
        <ele>55.23</ele>
        <time>2025-02-02T20:27:09.415Z</time>
      </trkpt>
      <trkpt lat="59.380259960889816" lon="13.458156986162066">
        <ele>55.24</ele>
        <time>2025-02-02T20:27:10.353Z</time>
      </trkpt>
      <trkpt lat="59.38026993535459" lon="13.45803595148027">
        <ele>55.26</ele>
        <time>2025-02-02T20:27:11.292Z</time>
      </trkpt>
      <trkpt lat="59.380278987810016" lon="13.45790896564722">
        <ele>55.27</ele>
        <time>2025-02-02T20:27:12.232Z</time>
      </trkpt>
      <trkpt lat="59.38028594478965" lon="13.45777896232903">
        <ele>55.28</ele>
        <time>2025-02-02T20:27:13.174Z</time>
      </trkpt>
      <trkpt lat="59.38029197975993" lon="13.45764996483922">
        <ele>55.29</ele>
        <time>2025-02-02T20:27:14.117Z</time>
      </trkpt>
      <trkpt lat="59.38029499724507" lon="13.457513926550746">
        <ele>55.3</ele>
        <time>2025-02-02T20:27:15.061Z</time>
      </trkpt>
      <trkpt lat="59.3802969250828" lon="13.457379983738065">
        <ele>55.32</ele>
        <time>2025-02-02T20:27:16.006Z</time>
      </trkpt>
      <trkpt lat="59.38029793091118" lon="13.457247968763113">
        <ele>55.33</ele>
        <time>2025-02-02T20:27:16.952Z</time>
      </trkpt>
      <trkpt lat="59.38029399141669" lon="13.457120982930064">
        <ele>55.34</ele>
        <time>2025-02-02T20:27:17.899Z</time>
      </trkpt>
      <trkpt lat="59.38028896227479" lon="13.456999948248267">
        <ele>55.34</ele>
        <time>2025-02-02T20:27:18.847Z</time>
      </trkpt>
      <trkpt lat="59.380279993638396" lon="13.45687991939485">
        <ele>55.35</ele>
        <time>2025-02-02T20:27:19.796Z</time>
      </trkpt>
      <trkpt lat="59.38026197254658" lon="13.456758968532085">
        <ele>55.36</ele>
        <time>2025-02-02T20:27:20.746Z</time>
      </trkpt>
      <trkpt lat="59.380233976989985" lon="13.45663994550705">
        <ele>55.36</ele>
        <time>2025-02-02T20:27:21.697Z</time>
      </trkpt>
      <trkpt lat="59.38020296394825" lon="13.45653299242258">
        <ele>55.37</ele>
        <time>2025-02-02T20:27:22.649Z</time>
      </trkpt>
      <trkpt lat="59.38016692176461" lon="13.456419920548797">
        <ele>55.37</ele>
        <time>2025-02-02T20:27:23.602Z</time>
      </trkpt>
      <trkpt lat="59.38013398088515" lon="13.45632093027234">
        <ele>55.38</ele>
        <time>2025-02-02T20:27:24.556Z</time>
      </trkpt>
      <trkpt lat="59.38010296784341" lon="13.456213977187872">
        <ele>55.38</ele>
        <time>2025-02-02T20:27:25.511Z</time>
      </trkpt>
      <trkpt lat="59.38007991760969" lon="13.456095959991217">
        <ele>55.37</ele>
        <time>2025-02-02T20:27:26.467Z</time>
      </trkpt>
      <trkpt lat="59.380062986165285" lon="13.45597693696618">
        <ele>55.37</ele>
        <time>2025-02-02T20:27:27.424Z</time>
      </trkpt>
      <trkpt lat="59.38004597090185" lon="13.455836959183216">
        <ele>55.36</ele>
        <time>2025-02-02T20:27:28.382Z</time>
      </trkpt>
      <trkpt lat="59.38003096729517" lon="13.455686923116446">
        <ele>55.35</ele>
        <time>2025-02-02T20:27:29.342Z</time>
      </trkpt>
      <trkpt lat="59.38001596368849" lon="13.455526996403933">
        <ele>55.34</ele>
        <time>2025-02-02T20:27:30.303Z</time>
      </trkpt>
      <trkpt lat="59.37999693676829" lon="13.455364974215627">
        <ele>55.33</ele>
        <time>2025-02-02T20:27:31.265Z</time>
      </trkpt>
      <trkpt lat="59.37997296452522" lon="13.455198928713799">
        <ele>55.31</ele>
        <time>2025-02-02T20:27:32.229Z</time>
      </trkpt>
      <trkpt lat="59.37994597479701" lon="13.455033972859383">
        <ele>55.29</ele>
        <time>2025-02-02T20:27:33.194Z</time>
      </trkpt>
      <trkpt lat="59.37990892678499" lon="13.454862982034683">
        <ele>55.27</ele>
        <time>2025-02-02T20:27:34.161Z</time>
      </trkpt>
      <trkpt lat="59.379868945106864" lon="13.454686962068081">
        <ele>55.25</ele>
        <time>2025-02-02T20:27:35.129Z</time>
      </trkpt>
      <trkpt lat="59.379828963428736" lon="13.454514965415001">
        <ele>55.22</ele>
        <time>2025-02-02T20:27:36.099Z</time>
      </trkpt>
      <trkpt lat="59.37978998757899" lon="13.454342968761921">
        <ele>55.19</ele>
        <time>2025-02-02T20:27:37.070Z</time>
      </trkpt>
      <trkpt lat="59.37975193373859" lon="13.45416996628046">
        <ele>55.17</ele>
        <time>2025-02-02T20:27:38.043Z</time>
      </trkpt>
      <trkpt lat="59.3797149695456" lon="13.453993946313858">
        <ele>55.15</ele>
        <time>2025-02-02T20:27:39.017Z</time>
      </trkpt>
      <trkpt lat="59.37968295067549" lon="13.453817926347256">
        <ele>55.14</ele>
        <time>2025-02-02T20:27:39.993Z</time>
      </trkpt>
      <trkpt lat="59.379654955118895" lon="13.453640984371305">
        <ele>55.13</ele>
        <time>2025-02-02T20:27:40.970Z</time>
      </trkpt>
      <trkpt lat="59.37962997704744" lon="13.453465970233083">
        <ele>55.14</ele>
        <time>2025-02-02T20:27:41.949Z</time>
      </trkpt>
      <trkpt lat="59.3796079326421" lon="13.453290956094861">
        <ele>55.14</ele>
        <time>2025-02-02T20:27:42.929Z</time>
      </trkpt>
      <trkpt lat="59.379587983712554" lon="13.453121976926923">
        <ele>55.15</ele>
        <time>2025-02-02T20:27:43.911Z</time>
      </trkpt>
      <trkpt lat="59.379568956792355" lon="13.452953919768333">
        <ele>55.16</ele>
        <time>2025-02-02T20:27:44.894Z</time>
      </trkpt>
      <trkpt lat="59.379549929872155" lon="13.452787958085537">
        <ele>55.16</ele>
        <time>2025-02-02T20:27:45.879Z</time>
      </trkpt>
      <trkpt lat="59.37953299842775" lon="13.452628953382373">
        <ele>55.18</ele>
        <time>2025-02-02T20:27:46.865Z</time>
      </trkpt>
      <trkpt lat="59.37951698899269" lon="13.45247196033597">
        <ele>55.18</ele>
        <time>2025-02-02T20:27:47.852Z</time>
      </trkpt>
      <trkpt lat="59.379501985386014" lon="13.45232293009758">
        <ele>55.18</ele>
        <time>2025-02-02T20:27:48.840Z</time>
      </trkpt>
      <trkpt lat="59.37948999926448" lon="13.452185969799757">
        <ele>55.18</ele>
        <time>2025-02-02T20:27:49.830Z</time>
      </trkpt>
      <trkpt lat="59.37947893515229" lon="13.452058983966708">
        <ele>55.18</ele>
        <time>2025-02-02T20:27:50.821Z</time>
      </trkpt>
      <trkpt lat="59.379463931545615" lon="13.45193593762815">
        <ele>55.18</ele>
        <time>2025-02-02T20:27:51.813Z</time>
      </trkpt>
      <trkpt lat="59.3794509395957" lon="13.451831918209791">
        <ele>55.18</ele>
        <time>2025-02-02T20:27:52.806Z</time>
      </trkpt>
      <trkpt lat="59.379438953474164" lon="13.451730916276574">
        <ele>55.17</ele>
        <time>2025-02-02T20:27:53.799Z</time>
      </trkpt>
      <trkpt lat="59.37942797318101" lon="13.451627986505628">
        <ele>55.17</ele>
        <time>2025-02-02T20:27:54.793Z</time>
      </trkpt>
      <trkpt lat="59.37941397540271" lon="13.451509969308972">
        <ele>55.17</ele>
        <time>2025-02-02T20:27:55.788Z</time>
      </trkpt>
      <trkpt lat="59.3794009834528" lon="13.451386922970414">
        <ele>55.16</ele>
        <time>2025-02-02T20:27:56.784Z</time>
      </trkpt>
      <trkpt lat="59.37938799150288" lon="13.45124895684421">
        <ele>55.16</ele>
        <time>2025-02-02T20:27:57.781Z</time>
      </trkpt>
      <trkpt lat="59.37937198206782" lon="13.451106967404485">
        <ele>55.15</ele>
        <time>2025-02-02T20:27:58.780Z</time>
      </trkpt>
      <trkpt lat="59.379356978461146" lon="13.450956931337714">
        <ele>55.15</ele>
        <time>2025-02-02T20:27:59.780Z</time>
      </trkpt>
      <trkpt lat="59.37934298068285" lon="13.450806979089975">
        <ele>55.14</ele>
        <time>2025-02-02T20:28:00.781Z</time>
      </trkpt>
      <trkpt lat="59.37932697124779" lon="13.450651997700334">
        <ele>55.14</ele>
        <time>2025-02-02T20:28:01.783Z</time>
      </trkpt>
      <trkpt lat="59.379312973469496" lon="13.45049399882555">
        <ele>55.14</ele>
        <time>2025-02-02T20:28:02.787Z</time>
      </trkpt>
      <trkpt lat="59.37930098734796" lon="13.450334994122386">
        <ele>55.14</ele>
        <time>2025-02-02T20:28:03.792Z</time>
      </trkpt>
      <trkpt lat="59.379290929064155" lon="13.450176995247602">
        <ele>55.15</ele>
        <time>2025-02-02T20:28:04.798Z</time>
      </trkpt>
      <trkpt lat="59.37928095459938" lon="13.450017990544438">
        <ele>55.15</ele>
        <time>2025-02-02T20:28:05.806Z</time>
      </trkpt>
      <trkpt lat="59.37927198596299" lon="13.449859991669655">
        <ele>55.16</ele>
        <time>2025-02-02T20:28:06.815Z</time>
      </trkpt>
      <trkpt lat="59.37926192767918" lon="13.449706938117743">
        <ele>55.17</ele>
        <time>2025-02-02T20:28:07.825Z</time>
      </trkpt>
      <trkpt lat="59.37925295904279" lon="13.449553968384862">
        <ele>55.19</ele>
        <time>2025-02-02T20:28:08.837Z</time>
      </trkpt>
      <trkpt lat="59.379243990406394" lon="13.449404938146472">
        <ele>55.21</ele>
        <time>2025-02-02T20:28:09.850Z</time>
      </trkpt>
      <trkpt lat="59.37923493795097" lon="13.449255991727114">
        <ele>55.23</ele>
        <time>2025-02-02T20:28:10.864Z</time>
      </trkpt>
      <trkpt lat="59.379225969314575" lon="13.449109978973866">
        <ele>55.25</ele>
        <time>2025-02-02T20:28:11.879Z</time>
      </trkpt>
      <trkpt lat="59.37921691685915" lon="13.448964972048998">
        <ele>55.28</ele>
        <time>2025-02-02T20:28:12.895Z</time>
      </trkpt>
      <trkpt lat="59.379207948222756" lon="13.448822982609272">
        <ele>55.31</ele>
        <time>2025-02-02T20:28:13.913Z</time>
      </trkpt>
      <trkpt lat="59.37919897958636" lon="13.448678981512785">
        <ele>55.34</ele>
        <time>2025-02-02T20:28:14.932Z</time>
      </trkpt>
      <trkpt lat="59.37918992713094" lon="13.448538919910789">
        <ele>55.38</ele>
        <time>2025-02-02T20:28:15.952Z</time>
      </trkpt>
      <trkpt lat="59.379180958494544" lon="13.448399947956204">
        <ele>55.42</ele>
        <time>2025-02-02T20:28:16.973Z</time>
      </trkpt>
      <trkpt lat="59.37917299568653" lon="13.448264999315143">
        <ele>55.46</ele>
        <time>2025-02-02T20:28:17.995Z</time>
      </trkpt>
      <trkpt lat="59.379163943231106" lon="13.44812996685505">
        <ele>55.5</ele>
        <time>2025-02-02T20:28:19.018Z</time>
      </trkpt>
      <trkpt lat="59.37915497459471" lon="13.447995940223336">
        <ele>55.54</ele>
        <time>2025-02-02T20:28:20.042Z</time>
      </trkpt>
      <trkpt lat="59.37914592213929" lon="13.447862919420004">
        <ele>55.59</ele>
        <time>2025-02-02T20:28:21.067Z</time>
      </trkpt>
      <trkpt lat="59.37913494184613" lon="13.447728976607323">
        <ele>55.64</ele>
        <time>2025-02-02T20:28:22.094Z</time>
      </trkpt>
      <trkpt lat="59.37912396155298" lon="13.44759394414723">
        <ele>55.69</ele>
        <time>2025-02-02T20:28:23.122Z</time>
      </trkpt>
      <trkpt lat="59.379114992916584" lon="13.447458995506167">
        <ele>55.74</ele>
        <time>2025-02-02T20:28:24.151Z</time>
      </trkpt>
      <trkpt lat="59.37910594046116" lon="13.447321951389313">
        <ele>55.8</ele>
        <time>2025-02-02T20:28:25.181Z</time>
      </trkpt>
      <trkpt lat="59.379094960168004" lon="13.44718398526311">
        <ele>55.86</ele>
        <time>2025-02-02T20:28:26.212Z</time>
      </trkpt>
      <trkpt lat="59.37908297404647" lon="13.447043923661113">
        <ele>55.92</ele>
        <time>2025-02-02T20:28:27.244Z</time>
      </trkpt>
      <trkpt lat="59.37906998209655" lon="13.446900928393006">
        <ele>55.98</ele>
        <time>2025-02-02T20:28:28.277Z</time>
      </trkpt>
      <trkpt lat="59.379053972661495" lon="13.446755921468139">
        <ele>56.05</ele>
        <time>2025-02-02T20:28:29.312Z</time>
      </trkpt>
      <trkpt lat="59.379032934084535" lon="13.446610998362303">
        <ele>56.12</ele>
        <time>2025-02-02T20:28:30.348Z</time>
      </trkpt>
      <trkpt lat="59.3790019210428" lon="13.446469930931926">
        <ele>56.19</ele>
        <time>2025-02-02T20:28:31.385Z</time>
      </trkpt>
      <trkpt lat="59.37896395102143" lon="13.446334982290864">
        <ele>56.26</ele>
        <time>2025-02-02T20:28:32.423Z</time>
      </trkpt>
      <trkpt lat="59.37892195768654" lon="13.446205984801054">
        <ele>56.33</ele>
        <time>2025-02-02T20:28:33.463Z</time>
      </trkpt>
      <trkpt lat="59.37887694686651" lon="13.446081932634115">
        <ele>56.4</ele>
        <time>2025-02-02T20:28:34.504Z</time>
      </trkpt>
      <trkpt lat="59.37883193604648" lon="13.44596098177135">
        <ele>56.47</ele>
        <time>2025-02-02T20:28:35.546Z</time>
      </trkpt>
      <trkpt lat="59.37878692522645" lon="13.445840952917933">
        <ele>56.56</ele>
        <time>2025-02-02T20:28:36.589Z</time>
      </trkpt>
      <trkpt lat="59.37874099239707" lon="13.445722935721278">
        <ele>56.64</ele>
        <time>2025-02-02T20:28:37.634Z</time>
      </trkpt>
      <trkpt lat="59.37869598157704" lon="13.445606930181384">
        <ele>56.72</ele>
        <time>2025-02-02T20:28:38.680Z</time>
      </trkpt>
      <trkpt lat="59.37864996492863" lon="13.445493942126632">
        <ele>56.81</ele>
        <time>2025-02-02T20:28:39.727Z</time>
      </trkpt>
      <trkpt lat="59.378603948280215" lon="13.445383971557021">
        <ele>56.9</ele>
        <time>2025-02-02T20:28:40.775Z</time>
      </trkpt>
      <trkpt lat="59.37855692580342" lon="13.44527592882514">
        <ele>56.99</ele>
        <time>2025-02-02T20:28:41.824Z</time>
      </trkpt>
      <trkpt lat="59.37850998714566" lon="13.445170987397432">
        <ele>57.08</ele>
        <time>2025-02-02T20:28:42.874Z</time>
      </trkpt>
      <trkpt lat="59.37846497632563" lon="13.445068979635835">
        <ele>57.18</ele>
        <time>2025-02-02T20:28:43.925Z</time>
      </trkpt>
      <trkpt lat="59.37841694802046" lon="13.444971917197108">
        <ele>57.28</ele>
        <time>2025-02-02T20:28:44.978Z</time>
      </trkpt>
      <trkpt lat="59.378367997705936" lon="13.444879967719316">
        <ele>57.38</ele>
        <time>2025-02-02T20:28:46.032Z</time>
      </trkpt>
      <trkpt lat="59.378317957744" lon="13.444789946079254">
        <ele>57.48</ele>
        <time>2025-02-02T20:28:47.087Z</time>
      </trkpt>
      <trkpt lat="59.37826699577272" lon="13.444699924439192">
        <ele>57.59</ele>
        <time>2025-02-02T20:28:48.143Z</time>
      </trkpt>
      <trkpt lat="59.37821393832564" lon="13.44460898078978">
        <ele>57.69</ele>
        <time>2025-02-02T20:28:49.200Z</time>
      </trkpt>
      <trkpt lat="59.37815895304084" lon="13.444518959149718">
        <ele>57.8</ele>
        <time>2025-02-02T20:28:50.258Z</time>
      </trkpt>
      <trkpt lat="59.37810396775603" lon="13.444428937509656">
        <ele>57.91</ele>
        <time>2025-02-02T20:28:51.317Z</time>
      </trkpt>
      <trkpt lat="59.37804797664285" lon="13.444335982203484">
        <ele>58.02</ele>
        <time>2025-02-02T20:28:52.377Z</time>
      </trkpt>
      <trkpt lat="59.37799097970128" lon="13.44424394890666">
        <ele>58.13</ele>
        <time>2025-02-02T20:28:53.439Z</time>
      </trkpt>
      <trkpt lat="59.37793197110295" lon="13.444150993600488">
        <ele>58.24</ele>
        <time>2025-02-02T20:28:54.502Z</time>
      </trkpt>
      <trkpt lat="59.377871956676245" lon="13.444055942818522">
        <ele>58.35</ele>
        <time>2025-02-02T20:28:55.566Z</time>
      </trkpt>
      <trkpt lat="59.3778139539063" lon="13.443957958370447">
        <ele>58.47</ele>
        <time>2025-02-02T20:28:56.631Z</time>
      </trkpt>
      <trkpt lat="59.37775896862149" lon="13.443852933123708">
        <ele>58.59</ele>
        <time>2025-02-02T20:28:57.698Z</time>
      </trkpt>
      <trkpt lat="59.3777069170028" lon="13.443742962554097">
        <ele>58.71</ele>
        <time>2025-02-02T20:28:58.766Z</time>
      </trkpt>
      <trkpt lat="59.377656960859895" lon="13.443630980327725">
        <ele>58.83</ele>
        <time>2025-02-02T20:28:59.835Z</time>
      </trkpt>
      <trkpt lat="59.3776099383831" lon="13.443514974787831">
        <ele>58.95</ele>
        <time>2025-02-02T20:29:00.905Z</time>
      </trkpt>
      <trkpt lat="59.37756593339145" lon="13.443395951762795">
        <ele>59.08</ele>
        <time>2025-02-02T20:29:01.976Z</time>
      </trkpt>
      <trkpt lat="59.377525951713324" lon="13.443275922909379">
        <ele>59.21</ele>
        <time>2025-02-02T20:29:03.049Z</time>
      </trkpt>
      <trkpt lat="59.37748798169196" lon="13.443154972046614">
        <ele>59.34</ele>
        <time>2025-02-02T20:29:04.123Z</time>
      </trkpt>
      <trkpt lat="59.37745093367994" lon="13.443034943193197">
        <ele>59.47</ele>
        <time>2025-02-02T20:29:05.198Z</time>
      </trkpt>
      <trkpt lat="59.37741598114371" lon="13.442915920168161">
        <ele>59.6</ele>
        <time>2025-02-02T20:29:06.274Z</time>
      </trkpt>
      <trkpt lat="59.37738195061684" lon="13.442798992618918">
        <ele>59.73</ele>
        <time>2025-02-02T20:29:07.351Z</time>
      </trkpt>
      <trkpt lat="59.37734892591834" lon="13.442682987079024">
        <ele>59.87</ele>
        <time>2025-02-02T20:29:08.429Z</time>
      </trkpt>
      <trkpt lat="59.37731598503888" lon="13.44257092103362">
        <ele>60.0</ele>
        <time>2025-02-02T20:29:09.508Z</time>
      </trkpt>
      <trkpt lat="59.37728396616876" lon="13.442462962120771">
        <ele>60.14</ele>
        <time>2025-02-02T20:29:10.588Z</time>
      </trkpt>
      <trkpt lat="59.377250941470265" lon="13.442358942702413">
        <ele>60.27</ele>
        <time>2025-02-02T20:29:11.669Z</time>
      </trkpt>
      <trkpt lat="59.37721892260015" lon="13.442253917455673">
        <ele>60.4</ele>
        <time>2025-02-02T20:29:12.751Z</time>
      </trkpt>
      <trkpt lat="59.37718799337745" lon="13.442148976027966">
        <ele>60.53</ele>
        <time>2025-02-02T20:29:13.834Z</time>
      </trkpt>
      <trkpt lat="59.37715798616409" lon="13.442042944952846">
        <ele>60.66</ele>
        <time>2025-02-02T20:29:14.918Z</time>
      </trkpt>
      <trkpt lat="59.37712898477912" lon="13.441937919706106">
        <ele>60.79</ele>
        <time>2025-02-02T20:29:16.003Z</time>
      </trkpt>
      <trkpt lat="59.37710098922253" lon="13.441832978278399">
        <ele>60.92</ele>
        <time>2025-02-02T20:29:17.089Z</time>
      </trkpt>
      <trkpt lat="59.37707198783755" lon="13.44172895886004">
        <ele>61.05</ele>
        <time>2025-02-02T20:29:18.176Z</time>
      </trkpt>
      <trkpt lat="59.37704298645258" lon="13.441625945270061">
        <ele>61.17</ele>
        <time>2025-02-02T20:29:19.264Z</time>
      </trkpt>
      <trkpt lat="59.37701499089599" lon="13.441522931680083">
        <ele>61.3</ele>
        <time>2025-02-02T20:29:20.353Z</time>
      </trkpt>
      <trkpt lat="59.37698791734874" lon="13.441416984423995">
        <ele>61.43</ele>
        <time>2025-02-02T20:29:21.443Z</time>
      </trkpt>
      <trkpt lat="59.37696495093405" lon="13.441313970834017">
        <ele>61.55</ele>
        <time>2025-02-02T20:29:22.534Z</time>
      </trkpt>
      <trkpt lat="59.376946929842234" lon="13.4412129689008">
        <ele>61.67</ele>
        <time>2025-02-02T20:29:23.626Z</time>
      </trkpt>
      <trkpt lat="59.376930920407176" lon="13.441113978624344">
        <ele>61.79</ele>
        <time>2025-02-02T20:29:24.719Z</time>
      </trkpt>
      <trkpt lat="59.37691692262888" lon="13.441012976691127">
        <ele>61.91</ele>
        <time>2025-02-02T20:29:25.813Z</time>
      </trkpt>
      <trkpt lat="59.376907953992486" lon="13.440916920080781">
        <ele>62.03</ele>
        <time>2025-02-02T20:29:26.907Z</time>
      </trkpt>
      <trkpt lat="59.376900997012854" lon="13.440821953117847">
        <ele>62.14</ele>
        <time>2025-02-02T20:29:28.002Z</time>
      </trkpt>
      <trkpt lat="59.37689596787095" lon="13.440722962841392">
        <ele>62.26</ele>
        <time>2025-02-02T20:29:29.098Z</time>
      </trkpt>
      <trkpt lat="59.37688993290067" lon="13.440622966736555">
        <ele>62.37</ele>
        <time>2025-02-02T20:29:30.195Z</time>
      </trkpt>
      <trkpt lat="59.37688699923456" lon="13.4405239764601">
        <ele>62.48</ele>
        <time>2025-02-02T20:29:31.293Z</time>
      </trkpt>
      <trkpt lat="59.37689093872905" lon="13.440424986183643">
        <ele>62.6</ele>
        <time>2025-02-02T20:29:32.391Z</time>
      </trkpt>
      <trkpt lat="59.37689898535609" lon="13.440321972593665">
        <ele>62.71</ele>
        <time>2025-02-02T20:29:33.490Z</time>
      </trkpt>
      <trkpt lat="59.376905942335725" lon="13.440220970660448">
        <ele>62.82</ele>
        <time>2025-02-02T20:29:34.590Z</time>
      </trkpt>
      <trkpt lat="59.376923963427544" lon="13.440124997869134">
        <ele>62.92</ele>
        <time>2025-02-02T20:29:35.691Z</time>
      </trkpt>
      <trkpt lat="59.376946929842234" lon="13.440025923773646">
        <ele>63.03</ele>
        <time>2025-02-02T20:29:36.793Z</time>
      </trkpt>
      <trkpt lat="59.376973919570446" lon="13.439938919618726">
        <ele>63.12</ele>
        <time>2025-02-02T20:29:37.896Z</time>
      </trkpt>
      <trkpt lat="59.37700593844056" lon="13.439850993454456">
        <ele>63.22</ele>
        <time>2025-02-02T20:29:39.000Z</time>
      </trkpt>
      <trkpt lat="59.37704499810934" lon="13.439777987077832">
        <ele>63.31</ele>
        <time>2025-02-02T20:29:40.104Z</time>
      </trkpt>
      <trkpt lat="59.37709495425224" lon="13.439727947115898">
        <ele>63.4</ele>
        <time>2025-02-02T20:29:41.209Z</time>
      </trkpt>
      <trkpt lat="59.37714893370867" lon="13.439693916589022">
        <ele>63.49</ele>
        <time>2025-02-02T20:29:42.315Z</time>
      </trkpt>
      <trkpt lat="59.377205930650234" lon="13.439662987366319">
        <ele>63.57</ele>
        <time>2025-02-02T20:29:43.422Z</time>
      </trkpt>
      <trkpt lat="59.37726493924856" lon="13.439634991809726">
        <ele>63.65</ele>
        <time>2025-02-02T20:29:44.530Z</time>
      </trkpt>
      <trkpt lat="59.37732294201851" lon="13.439599955454469">
        <ele>63.73</ele>
        <time>2025-02-02T20:29:45.639Z</time>
      </trkpt>
      <trkpt lat="59.37738697975874" lon="13.43955997377634">
        <ele>63.81</ele>
        <time>2025-02-02T20:29:46.749Z</time>
      </trkpt>
      <trkpt lat="59.37744699418545" lon="13.43953994102776">
        <ele>63.88</ele>
        <time>2025-02-02T20:29:47.860Z</time>
      </trkpt>
      <trkpt lat="59.37751396559179" lon="13.439518986269832">
        <ele>63.95</ele>
        <time>2025-02-02T20:29:48.972Z</time>
      </trkpt>
      <trkpt lat="59.37757599167526" lon="13.439477998763323">
        <ele>64.02</ele>
        <time>2025-02-02T20:29:50.085Z</time>
      </trkpt>
      <trkpt lat="59.37762695364654" lon="13.439416978508234">
        <ele>64.09</ele>
        <time>2025-02-02T20:29:51.199Z</time>
      </trkpt>
      <trkpt lat="59.37765293754637" lon="13.439328968524933">
        <ele>64.16</ele>
        <time>2025-02-02T20:29:52.314Z</time>
      </trkpt>
      <trkpt lat="59.3776619900018" lon="13.439227966591716">
        <ele>64.22</ele>
        <time>2025-02-02T20:29:53.430Z</time>
      </trkpt>
      <trkpt lat="59.37766693532467" lon="13.439123947173357">
        <ele>64.27</ele>
        <time>2025-02-02T20:29:54.547Z</time>
      </trkpt>
      <trkpt lat="59.37766894698143" lon="13.43902395106852">
        <ele>64.32</ele>
        <time>2025-02-02T20:29:55.665Z</time>
      </trkpt>
      <trkpt lat="59.37766794115305" lon="13.438920937478542">
        <ele>64.37</ele>
        <time>2025-02-02T20:29:56.784Z</time>
      </trkpt>
      <trkpt lat="59.37766391783953" lon="13.438816918060184">
        <ele>64.41</ele>
        <time>2025-02-02T20:29:57.903Z</time>
      </trkpt>
      <trkpt lat="59.377656960859895" lon="13.438717927783728">
        <ele>64.45</ele>
        <time>2025-02-02T20:29:59.023Z</time>
      </trkpt>
      <trkpt lat="59.37764698639512" lon="13.438618937507272">
        <ele>64.48</ele>
        <time>2025-02-02T20:30:00.144Z</time>
      </trkpt>
      <trkpt lat="59.377634916454554" lon="13.4385259822011">
        <ele>64.51</ele>
        <time>2025-02-02T20:30:01.266Z</time>
      </trkpt>
      <trkpt lat="59.37761798501015" lon="13.438431937247515">
        <ele>64.54</ele>
        <time>2025-02-02T20:30:02.389Z</time>
      </trkpt>
      <trkpt lat="59.37760096974671" lon="13.438340993598104">
        <ele>64.55</ele>
        <time>2025-02-02T20:30:03.512Z</time>
      </trkpt>
      <trkpt lat="59.37758294865489" lon="13.43824996612966">
        <ele>64.57</ele>
        <time>2025-02-02T20:30:04.636Z</time>
      </trkpt>
      <trkpt lat="59.37756392173469" lon="13.438158938661218">
        <ele>64.58</ele>
        <time>2025-02-02T20:30:05.761Z</time>
      </trkpt>
      <trkpt lat="59.377547996118665" lon="13.438065983355045">
        <ele>64.58</ele>
        <time>2025-02-02T20:30:06.887Z</time>
      </trkpt>
      <trkpt lat="59.37753693200648" lon="13.4379699267447">
        <ele>64.58</ele>
        <time>2025-02-02T20:30:08.014Z</time>
      </trkpt>
      <trkpt lat="59.37752494588494" lon="13.437865991145372">
        <ele>64.58</ele>
        <time>2025-02-02T20:30:09.141Z</time>
      </trkpt>
      <trkpt lat="59.37751798890531" lon="13.437761971727014">
        <ele>64.57</ele>
        <time>2025-02-02T20:30:10.269Z</time>
      </trkpt>
      <trkpt lat="59.37751396559179" lon="13.437655940651894">
        <ele>64.56</ele>
        <time>2025-02-02T20:30:11.398Z</time>
      </trkpt>
      <trkpt lat="59.37751497142017" lon="13.437548987567425">
        <ele>64.55</ele>
        <time>2025-02-02T20:30:12.528Z</time>
      </trkpt>
      <trkpt lat="59.37751798890531" lon="13.437439939007163">
        <ele>64.53</ele>
        <time>2025-02-02T20:30:13.659Z</time>
      </trkpt>
      <trkpt lat="59.37752394005656" lon="13.437329968437552">
        <ele>64.51</ele>
        <time>2025-02-02T20:30:14.791Z</time>
      </trkpt>
      <trkpt lat="59.37753198668361" lon="13.437219997867942">
        <ele>64.48</ele>
        <time>2025-02-02T20:30:15.924Z</time>
      </trkpt>
      <trkpt lat="59.37754196114838" lon="13.43711195513606">
        <ele>64.44</ele>
        <time>2025-02-02T20:30:17.058Z</time>
      </trkpt>
      <trkpt lat="59.377551935613155" lon="13.43700299039483">
        <ele>64.39</ele>
        <time>2025-02-02T20:30:18.193Z</time>
      </trkpt>
      <trkpt lat="59.37756299972534" lon="13.436893941834569">
        <ele>64.35</ele>
        <time>2025-02-02T20:30:19.329Z</time>
      </trkpt>
      <trkpt lat="59.37757599167526" lon="13.436784977093339">
        <ele>64.3</ele>
        <time>2025-02-02T20:30:20.465Z</time>
      </trkpt>
      <trkpt lat="59.377588983625174" lon="13.436672994866967">
        <ele>64.24</ele>
        <time>2025-02-02T20:30:21.602Z</time>
      </trkpt>
      <trkpt lat="59.37760298140347" lon="13.436560928821564">
        <ele>64.18</ele>
        <time>2025-02-02T20:30:22.740Z</time>
      </trkpt>
      <trkpt lat="59.377615973353386" lon="13.43644693493843">
        <ele>64.11</ele>
        <time>2025-02-02T20:30:23.879Z</time>
      </trkpt>
      <trkpt lat="59.3776289653033" lon="13.436329923570156">
        <ele>64.04</ele>
        <time>2025-02-02T20:30:25.019Z</time>
      </trkpt>
      <trkpt lat="59.37764195725322" lon="13.436215929687023">
        <ele>63.96</ele>
        <time>2025-02-02T20:30:26.160Z</time>
      </trkpt>
      <trkpt lat="59.377655955031514" lon="13.436098918318748">
        <ele>63.88</ele>
        <time>2025-02-02T20:30:27.302Z</time>
      </trkpt>
      <trkpt lat="59.37766995280981" lon="13.435978973284364">
        <ele>63.8</ele>
        <time>2025-02-02T20:30:28.445Z</time>
      </trkpt>
      <trkpt lat="59.37768294475973" lon="13.435856932774186">
        <ele>63.71</ele>
        <time>2025-02-02T20:30:29.589Z</time>
      </trkpt>
      <trkpt lat="59.37769593670964" lon="13.435736987739801">
        <ele>63.62</ele>
        <time>2025-02-02T20:30:30.734Z</time>
      </trkpt>
      <trkpt lat="59.37770892865956" lon="13.435615953058004">
        <ele>63.52</ele>
        <time>2025-02-02T20:30:31.880Z</time>
      </trkpt>
      <trkpt lat="59.377720998600125" lon="13.435495924204588">
        <ele>63.41</ele>
        <time>2025-02-02T20:30:33.027Z</time>
      </trkpt>
      <trkpt lat="59.37773197889328" lon="13.435373967513442">
        <ele>63.31</ele>
        <time>2025-02-02T20:30:34.175Z</time>
      </trkpt>
      <trkpt lat="59.377743965014815" lon="13.435252932831645">
        <ele>63.2</ele>
        <time>2025-02-02T20:30:35.324Z</time>
      </trkpt>
      <trkpt lat="59.37775796279311" lon="13.4351309761405">
        <ele>63.09</ele>
        <time>2025-02-02T20:30:36.474Z</time>
      </trkpt>
      <trkpt lat="59.37777095474303" lon="13.43500591814518">
        <ele>62.97</ele>
        <time>2025-02-02T20:30:37.625Z</time>
      </trkpt>
      <trkpt lat="59.377783946692944" lon="13.434878932312131">
        <ele>62.84</ele>
        <time>2025-02-02T20:30:38.777Z</time>
      </trkpt>
      <trkpt lat="59.37779693864286" lon="13.434749934822321">
        <ele>62.71</ele>
        <time>2025-02-02T20:30:39.930Z</time>
      </trkpt>
      <trkpt lat="59.377808924764395" lon="13.43461791984737">
        <ele>62.57</ele>
        <time>2025-02-02T20:30:41.085Z</time>
      </trkpt>
      <trkpt lat="59.37782099470496" lon="13.434482971206307">
        <ele>62.44</ele>
        <time>2025-02-02T20:30:42.241Z</time>
      </trkpt>
      <trkpt lat="59.37783398665488" lon="13.434345927089453">
        <ele>62.3</ele>
        <time>2025-02-02T20:30:43.398Z</time>
      </trkpt>
      <trkpt lat="59.377848990261555" lon="13.434210978448391">
        <ele>62.15</ele>
        <time>2025-02-02T20:30:44.556Z</time>
      </trkpt>
      <trkpt lat="59.37786298803985" lon="13.434069994837046">
        <ele>62.0</ele>
        <time>2025-02-02T20:30:45.715Z</time>
      </trkpt>
      <trkpt lat="59.37787597998977" lon="13.43392699956894">
        <ele>61.84</ele>
        <time>2025-02-02T20:30:46.875Z</time>
      </trkpt>
      <trkpt lat="59.37788997776806" lon="13.433780986815691">
        <ele>61.68</ele>
        <time>2025-02-02T20:30:48.037Z</time>
      </trkpt>
      <trkpt lat="59.37790397554636" lon="13.43362994492054">
        <ele>61.52</ele>
        <time>2025-02-02T20:30:49.200Z</time>
      </trkpt>
      <trkpt lat="59.37791797332466" lon="13.433475969359279">
        <ele>61.36</ele>
        <time>2025-02-02T20:30:50.364Z</time>
      </trkpt>
      <trkpt lat="59.37793297693133" lon="13.433318976312876">
        <ele>61.18</ele>
        <time>2025-02-02T20:30:51.529Z</time>
      </trkpt>
      <trkpt lat="59.37794898636639" lon="13.433160977438092">
        <ele>61.01</ele>
        <time>2025-02-02T20:30:52.696Z</time>
      </trkpt>
      <trkpt lat="59.37796499580145" lon="13.432997949421406">
        <ele>60.84</ele>
        <time>2025-02-02T20:30:53.864Z</time>
      </trkpt>
      <trkpt lat="59.377980921417475" lon="13.43283198773861">
        <ele>60.67</ele>
        <time>2025-02-02T20:30:55.033Z</time>
      </trkpt>
      <trkpt lat="59.37799793668091" lon="13.4326649364084">
        <ele>60.49</ele>
        <time>2025-02-02T20:30:56.204Z</time>
      </trkpt>
      <trkpt lat="59.37801595777273" lon="13.432494951412082">
        <ele>60.31</ele>
        <time>2025-02-02T20:30:57.376Z</time>
      </trkpt>
      <trkpt lat="59.37803599052131" lon="13.432322954759002">
        <ele>60.13</ele>
        <time>2025-02-02T20:30:58.550Z</time>
      </trkpt>
      <trkpt lat="59.37805694527924" lon="13.432150958105922">
        <ele>59.95</ele>
        <time>2025-02-02T20:30:59.725Z</time>
      </trkpt>
      <trkpt lat="59.37807999551296" lon="13.431978961452842">
        <ele>59.75</ele>
        <time>2025-02-02T20:31:00.902Z</time>
      </trkpt>
      <trkpt lat="59.37810497358441" lon="13.431807970628142">
        <ele>59.56</ele>
        <time>2025-02-02T20:31:02.080Z</time>
      </trkpt>
      <trkpt lat="59.378130957484245" lon="13.431633962318301">
        <ele>59.36</ele>
        <time>2025-02-02T20:31:03.260Z</time>
      </trkpt>
      <trkpt lat="59.37815895304084" lon="13.43145894818008">
        <ele>59.17</ele>
        <time>2025-02-02T20:31:04.441Z</time>
      </trkpt>
      <trkpt lat="59.37818896025419" lon="13.431283934041858">
        <ele>58.97</ele>
        <time>2025-02-02T20:31:05.624Z</time>
      </trkpt>
      <trkpt lat="59.37821997329593" lon="13.431108919903636">
        <ele>58.77</ele>
        <time>2025-02-02T20:31:06.808Z</time>
      </trkpt>
      <trkpt lat="59.37825199216604" lon="13.430933989584446">
        <ele>58.57</ele>
        <time>2025-02-02T20:31:07.994Z</time>
      </trkpt>
      <trkpt lat="59.37828593887389" lon="13.430760987102985">
        <ele>58.37</ele>
        <time>2025-02-02T20:31:09.181Z</time>
      </trkpt>
      <trkpt lat="59.378325920552015" lon="13.430595947429538">
        <ele>58.16</ele>
        <time>2025-02-02T20:31:10.370Z</time>
      </trkpt>
      <trkpt lat="59.37837797217071" lon="13.430444989353418">
        <ele>57.97</ele>
        <time>2025-02-02T20:31:11.560Z</time>
      </trkpt>
      <trkpt lat="59.3784389924258" lon="13.430309956893325">
        <ele>57.77</ele>
        <time>2025-02-02T20:31:12.752Z</time>
      </trkpt>
      <trkpt lat="59.378493977710605" lon="13.430165955796838">
        <ele>57.57</ele>
        <time>2025-02-02T20:31:13.945Z</time>
      </trkpt>
      <trkpt lat="59.37852893024683" lon="13.430000999942422">
        <ele>57.37</ele>
        <time>2025-02-02T20:31:15.140Z</time>
      </trkpt>
      <trkpt lat="59.37855198048055" lon="13.42982699163258">
        <ele>57.16</ele>
        <time>2025-02-02T20:31:16.336Z</time>
      </trkpt>
      <trkpt lat="59.37857494689524" lon="13.429651977494359">
        <ele>56.96</ele>
        <time>2025-02-02T20:31:17.533Z</time>
      </trkpt>
      <trkpt lat="59.378605959936976" lon="13.429479980841279">
        <ele>56.75</ele>
        <time>2025-02-02T20:31:18.732Z</time>
      </trkpt>
      <trkpt lat="59.378646947443485" lon="13.429315946996212">
        <ele>56.54</ele>
        <time>2025-02-02T20:31:19.932Z</time>
      </trkpt>
      <trkpt lat="59.378689946606755" lon="13.429152918979526">
        <ele>56.33</ele>
        <time>2025-02-02T20:31:21.134Z</time>
      </trkpt>
      <trkpt lat="59.378730934113264" lon="13.428986957296729">
        <ele>56.11</ele>
        <time>2025-02-02T20:31:22.337Z</time>
      </trkpt>
      <trkpt lat="59.37876999378204" lon="13.42881797812879">
        <ele>55.91</ele>
        <time>2025-02-02T20:31:23.542Z</time>
      </trkpt>
      <trkpt lat="59.37880796380341" lon="13.42864598147571">
        <ele>55.69</ele>
        <time>2025-02-02T20:31:24.749Z</time>
      </trkpt>
      <trkpt lat="59.37884895130992" lon="13.428474990651011">
        <ele>55.47</ele>
        <time>2025-02-02T20:31:25.957Z</time>
      </trkpt>
      <trkpt lat="59.37889094464481" lon="13.428305927664042">
        <ele>55.26</ele>
        <time>2025-02-02T20:31:27.167Z</time>
      </trkpt>
      <trkpt lat="59.37893494963646" lon="13.428136948496103">
        <ele>55.05</ele>
        <time>2025-02-02T20:31:28.378Z</time>
      </trkpt>
      <trkpt lat="59.37897996045649" lon="13.427966963499784">
        <ele>54.84</ele>
        <time>2025-02-02T20:31:29.591Z</time>
      </trkpt>
      <trkpt lat="59.37902798876166" lon="13.427799995988607">
        <ele>54.64</ele>
        <time>2025-02-02T20:31:30.805Z</time>
      </trkpt>
      <trkpt lat="59.379075933247805" lon="13.427631938830018">
        <ele>54.43</ele>
        <time>2025-02-02T20:31:32.021Z</time>
      </trkpt>
      <trkpt lat="59.37912396155298" lon="13.427464971318841">
        <ele>54.22</ele>
        <time>2025-02-02T20:31:33.238Z</time>
      </trkpt>
      <trkpt lat="59.37917299568653" lon="13.427298925817013">
        <ele>54.03</ele>
        <time>2025-02-02T20:31:34.457Z</time>
      </trkpt>
      <trkpt lat="59.37922094017267" lon="13.427133969962597">
        <ele>53.83</ele>
        <time>2025-02-02T20:31:35.678Z</time>
      </trkpt>
      <trkpt lat="59.379267962649465" lon="13.42696893028915">
        <ele>53.63</ele>
        <time>2025-02-02T20:31:36.900Z</time>
      </trkpt>
      <trkpt lat="59.37931599095464" lon="13.426806991919875">
        <ele>53.43</ele>
        <time>2025-02-02T20:31:38.124Z</time>
      </trkpt>
      <trkpt lat="59.37936997041106" lon="13.426658967509866">
        <ele>53.22</ele>
        <time>2025-02-02T20:31:39.349Z</time>
      </trkpt>
      <trkpt lat="59.37943291850388" lon="13.426528964191675">
        <ele>53.03</ele>
        <time>2025-02-02T20:31:40.576Z</time>
      </trkpt>
      <trkpt lat="59.37949092127383" lon="13.426396949216723">
        <ele>52.84</ele>
        <time>2025-02-02T20:31:41.804Z</time>
      </trkpt>
      <trkpt lat="59.37953299842775" lon="13.426243979483843">
        <ele>52.64</ele>
        <time>2025-02-02T20:31:43.033Z</time>
      </trkpt>
      <trkpt lat="59.37955898232758" lon="13.426078939810395">
        <ele>52.45</ele>
        <time>2025-02-02T20:31:44.264Z</time>
      </trkpt>
      <trkpt lat="59.37958094291389" lon="13.425907948985696">
        <ele>52.26</ele>
        <time>2025-02-02T20:31:45.496Z</time>
      </trkpt>
      <trkpt lat="59.37960592098534" lon="13.425737963989377">
        <ele>52.07</ele>
        <time>2025-02-02T20:31:46.730Z</time>
      </trkpt>
      <trkpt lat="59.379636934027076" lon="13.42557292431593">
        <ele>51.88</ele>
        <time>2025-02-02T20:31:47.965Z</time>
      </trkpt>
      <trkpt lat="59.37966895289719" lon="13.425410985946655">
        <ele>51.69</ele>
        <time>2025-02-02T20:31:49.202Z</time>
      </trkpt>
      <trkpt lat="59.379700971767306" lon="13.425247957929969">
        <ele>51.51</ele>
        <time>2025-02-02T20:31:50.440Z</time>
      </trkpt>
      <trkpt lat="59.37972997315228" lon="13.425084929913282">
        <ele>51.34</ele>
        <time>2025-02-02T20:31:51.679Z</time>
      </trkpt>
      <trkpt lat="59.37975796870887" lon="13.424921985715628">
        <ele>51.17</ele>
        <time>2025-02-02T20:31:52.920Z</time>
      </trkpt>
      <trkpt lat="59.37978093512356" lon="13.424754934385419">
        <ele>51.0</ele>
        <time>2025-02-02T20:31:54.162Z</time>
      </trkpt>
      <trkpt lat="59.37980197370052" lon="13.424587966874242">
        <ele>50.84</ele>
        <time>2025-02-02T20:31:55.406Z</time>
      </trkpt>
      <trkpt lat="59.37982292845845" lon="13.424421921372414">
        <ele>50.68</ele>
        <time>2025-02-02T20:31:56.651Z</time>
      </trkpt>
      <trkpt lat="59.37983994372189" lon="13.424257971346378">
        <ele>50.51</ele>
        <time>2025-02-02T20:31:57.897Z</time>
      </trkpt>
      <trkpt lat="59.37985494732857" lon="13.424093937501311">
        <ele>50.35</ele>
        <time>2025-02-02T20:31:59.145Z</time>
      </trkpt>
      <trkpt lat="59.379869950935245" lon="13.423928981646895">
        <ele>50.2</ele>
        <time>2025-02-02T20:32:00.394Z</time>
      </trkpt>
      <trkpt lat="59.37988495454192" lon="13.423765953630209">
        <ele>50.05</ele>
        <time>2025-02-02T20:32:01.645Z</time>
      </trkpt>
      <trkpt lat="59.37990096397698" lon="13.423604937270284">
        <ele>49.9</ele>
        <time>2025-02-02T20:32:02.897Z</time>
      </trkpt>
      <trkpt lat="59.379915967583656" lon="13.4234469383955">
        <ele>49.76</ele>
        <time>2025-02-02T20:32:04.150Z</time>
      </trkpt>
      <trkpt lat="59.37993097119033" lon="13.423291957005858">
        <ele>49.61</ele>
        <time>2025-02-02T20:32:05.404Z</time>
      </trkpt>
      <trkpt lat="59.37994295731187" lon="13.423137981444597">
        <ele>49.46</ele>
        <time>2025-02-02T20:32:06.660Z</time>
      </trkpt>
      <trkpt lat="59.37994899228215" lon="13.422982916235924">
        <ele>49.32</ele>
        <time>2025-02-02T20:32:07.917Z</time>
      </trkpt>
      <trkpt lat="59.37994899228215" lon="13.422828940674663">
        <ele>49.18</ele>
        <time>2025-02-02T20:32:09.175Z</time>
      </trkpt>
      <trkpt lat="59.37994195148349" lon="13.42267395928502">
        <ele>49.05</ele>
        <time>2025-02-02T20:32:10.435Z</time>
      </trkpt>
      <trkpt lat="59.37992795370519" lon="13.422517972066998">
        <ele>48.92</ele>
        <time>2025-02-02T20:32:11.696Z</time>
      </trkpt>
      <trkpt lat="59.37990398146212" lon="13.42237095348537">
        <ele>48.8</ele>
        <time>2025-02-02T20:32:12.958Z</time>
      </trkpt>
      <trkpt lat="59.379893923178315" lon="13.422226952388883">
        <ele>48.67</ele>
        <time>2025-02-02T20:32:14.221Z</time>
      </trkpt>
      <trkpt lat="59.37990993261337" lon="13.422085968777537">
        <ele>48.55</ele>
        <time>2025-02-02T20:32:15.486Z</time>
      </trkpt>
      <trkpt lat="59.37992996536195" lon="13.421949930489063">
        <ele>48.44</ele>
        <time>2025-02-02T20:32:16.752Z</time>
      </trkpt>
      <trkpt lat="59.37994094565511" lon="13.421809952706099">
        <ele>48.33</ele>
        <time>2025-02-02T20:32:18.019Z</time>
      </trkpt>
      <trkpt lat="59.37994195148349" lon="13.421666957437992">
        <ele>48.22</ele>
        <time>2025-02-02T20:32:19.287Z</time>
      </trkpt>
      <trkpt lat="59.379937928169966" lon="13.421521950513124">
        <ele>48.13</ele>
        <time>2025-02-02T20:32:20.556Z</time>
      </trkpt>
      <trkpt lat="59.379936922341585" lon="13.421377949416637">
        <ele>48.03</ele>
        <time>2025-02-02T20:32:21.826Z</time>
      </trkpt>
      <trkpt lat="59.37994295731187" lon="13.421234954148531">
        <ele>47.94</ele>
        <time>2025-02-02T20:32:23.098Z</time>
      </trkpt>
      <trkpt lat="59.379954943433404" lon="13.421091958880424">
        <ele>47.85</ele>
        <time>2025-02-02T20:32:24.371Z</time>
      </trkpt>
      <trkpt lat="59.37997195869684" lon="13.420949969440699">
        <ele>47.76</ele>
        <time>2025-02-02T20:32:25.645Z</time>
      </trkpt>
      <trkpt lat="59.37999098561704" lon="13.420808985829353">
        <ele>47.67</ele>
        <time>2025-02-02T20:32:26.920Z</time>
      </trkpt>
      <trkpt lat="59.38001495786011" lon="13.420670935884118">
        <ele>47.59</ele>
        <time>2025-02-02T20:32:28.196Z</time>
      </trkpt>
      <trkpt lat="59.380042953416705" lon="13.420537998899817">
        <ele>47.51</ele>
        <time>2025-02-02T20:32:29.473Z</time>
      </trkpt>
      <trkpt lat="59.38007698394358" lon="13.420412940904498">
        <ele>47.43</ele>
        <time>2025-02-02T20:32:30.752Z</time>
      </trkpt>
      <trkpt lat="59.38011595979333" lon="13.420296935364604">
        <ele>47.36</ele>
        <time>2025-02-02T20:32:32.032Z</time>
      </trkpt>
      <trkpt lat="59.38015694729984" lon="13.420184953138232">
        <ele>47.28</ele>
        <time>2025-02-02T20:32:33.313Z</time>
      </trkpt>
      <trkpt lat="59.38020296394825" lon="13.420079927891493">
        <ele>47.22</ele>
        <time>2025-02-02T20:32:34.595Z</time>
      </trkpt>
      <trkpt lat="59.38025292009115" lon="13.419979931786656">
        <ele>47.16</ele>
        <time>2025-02-02T20:32:35.878Z</time>
      </trkpt>
      <trkpt lat="59.380302960053086" lon="13.41987892985344">
        <ele>47.09</ele>
        <time>2025-02-02T20:32:37.162Z</time>
      </trkpt>
      <trkpt lat="59.38035098835826" lon="13.419777927920222">
        <ele>47.03</ele>
        <time>2025-02-02T20:32:38.447Z</time>
      </trkpt>
      <trkpt lat="59.38039599917829" lon="13.419673992320895">
        <ele>46.98</ele>
        <time>2025-02-02T20:32:39.734Z</time>
      </trkpt>
      <trkpt lat="59.3804369866848" lon="13.419566955417395">
        <ele>46.93</ele>
        <time>2025-02-02T20:32:41.022Z</time>
      </trkpt>
      <trkpt lat="59.380472945049405" lon="13.419455979019403">
        <ele>46.89</ele>
        <time>2025-02-02T20:32:42.311Z</time>
      </trkpt>
      <trkpt lat="59.38050697557628" lon="13.419343996793032">
        <ele>46.85</ele>
        <time>2025-02-02T20:32:43.601Z</time>
      </trkpt>
      <trkpt lat="59.380539916455746" lon="13.419231930747628">
        <ele>46.81</ele>
        <time>2025-02-02T20:32:44.892Z</time>
      </trkpt>
      <trkpt lat="59.38057294115424" lon="13.419116931036115">
        <ele>46.77</ele>
        <time>2025-02-02T20:32:46.184Z</time>
      </trkpt>
      <trkpt lat="59.38060496002436" lon="13.418998997658491">
        <ele>46.75</ele>
        <time>2025-02-02T20:32:47.477Z</time>
      </trkpt>
      <trkpt lat="59.38063798472285" lon="13.418876957148314">
        <ele>46.72</ele>
        <time>2025-02-02T20:32:48.771Z</time>
      </trkpt>
      <trkpt lat="59.380669919773936" lon="13.418751982972026">
        <ele>46.69</ele>
        <time>2025-02-02T20:32:50.066Z</time>
      </trkpt>
      <trkpt lat="59.38070294447243" lon="13.418623991310596">
        <ele>46.68</ele>
        <time>2025-02-02T20:32:51.363Z</time>
      </trkpt>
      <trkpt lat="59.38073596917093" lon="13.418495999649167">
        <ele>46.66</ele>
        <time>2025-02-02T20:32:52.661Z</time>
      </trkpt>
      <trkpt lat="59.38076798804104" lon="13.418366918340325">
        <ele>46.65</ele>
        <time>2025-02-02T20:32:53.960Z</time>
      </trkpt>
      <trkpt lat="59.3807979952544" lon="13.418235993012786">
        <ele>46.64</ele>
        <time>2025-02-02T20:32:55.260Z</time>
      </trkpt>
      <trkpt lat="59.38082599081099" lon="13.418101966381073">
        <ele>46.63</ele>
        <time>2025-02-02T20:32:56.561Z</time>
      </trkpt>
      <trkpt lat="59.3808529805392" lon="13.41796894557774">
        <ele>46.64</ele>
        <time>2025-02-02T20:32:57.863Z</time>
      </trkpt>
      <trkpt lat="59.380879970267415" lon="13.417833996936679">
        <ele>46.65</ele>
        <time>2025-02-02T20:32:59.167Z</time>
      </trkpt>
      <trkpt lat="59.38090595416725" lon="13.417697958648205">
        <ele>46.65</ele>
        <time>2025-02-02T20:33:00.472Z</time>
      </trkpt>
      <trkpt lat="59.38092892058194" lon="13.417559992522001">
        <ele>46.66</ele>
        <time>2025-02-02T20:33:01.778Z</time>
      </trkpt>
      <trkpt lat="59.38095096498728" lon="13.417418925091624">
        <ele>46.68</ele>
        <time>2025-02-02T20:33:03.085Z</time>
      </trkpt>
      <trkpt lat="59.38097191974521" lon="13.417276935651898">
        <ele>46.7</ele>
        <time>2025-02-02T20:33:04.393Z</time>
      </trkpt>
      <trkpt lat="59.38099295832217" lon="13.417134946212173">
        <ele>46.73</ele>
        <time>2025-02-02T20:33:05.703Z</time>
      </trkpt>
      <trkpt lat="59.38101399689913" lon="13.416991950944066">
        <ele>46.76</ele>
        <time>2025-02-02T20:33:07.014Z</time>
      </trkpt>
      <trkpt lat="59.381033945828676" lon="13.41684895567596">
        <ele>46.8</ele>
        <time>2025-02-02T20:33:08.326Z</time>
      </trkpt>
      <trkpt lat="59.38105498440564" lon="13.416704954579473">
        <ele>46.84</ele>
        <time>2025-02-02T20:33:09.639Z</time>
      </trkpt>
      <trkpt lat="59.381074933335185" lon="13.416562965139747">
        <ele>46.88</ele>
        <time>2025-02-02T20:33:10.953Z</time>
      </trkpt>
      <trkpt lat="59.381095971912146" lon="13.41641996987164">
        <ele>46.93</ele>
        <time>2025-02-02T20:33:12.269Z</time>
      </trkpt>
      <trkpt lat="59.381116926670074" lon="13.416276974603534">
        <ele>46.98</ele>
        <time>2025-02-02T20:33:13.586Z</time>
      </trkpt>
      <trkpt lat="59.381136959418654" lon="13.416133979335427">
        <ele>47.05</ele>
        <time>2025-02-02T20:33:14.904Z</time>
      </trkpt>
      <trkpt lat="59.381157997995615" lon="13.41598997823894">
        <ele>47.1</ele>
        <time>2025-02-02T20:33:16.223Z</time>
      </trkpt>
      <trkpt lat="59.38117794692516" lon="13.415846982970834">
        <ele>47.16</ele>
        <time>2025-02-02T20:33:17.544Z</time>
      </trkpt>
      <trkpt lat="59.38119596801698" lon="13.415701976045966">
        <ele>47.23</ele>
        <time>2025-02-02T20:33:18.866Z</time>
      </trkpt>
      <trkpt lat="59.38121499493718" lon="13.415557974949479">
        <ele>47.3</ele>
        <time>2025-02-02T20:33:20.189Z</time>
      </trkpt>
      <trkpt lat="59.38123293220997" lon="13.415413973852992">
        <ele>47.37</ele>
        <time>2025-02-02T20:33:21.513Z</time>
      </trkpt>
      <trkpt lat="59.38124994747341" lon="13.415269972756505">
        <ele>47.45</ele>
        <time>2025-02-02T20:33:22.838Z</time>
      </trkpt>
      <trkpt lat="59.381266962736845" lon="13.41512798331678">
        <ele>47.53</ele>
        <time>2025-02-02T20:33:24.165Z</time>
      </trkpt>
      <trkpt lat="59.381284983828664" lon="13.414984988048673">
        <ele>47.61</ele>
        <time>2025-02-02T20:33:25.493Z</time>
      </trkpt>
      <trkpt lat="59.3813019990921" lon="13.414843920618296">
        <ele>47.69</ele>
        <time>2025-02-02T20:33:26.822Z</time>
      </trkpt>
      <trkpt lat="59.38131691887975" lon="13.414703942835331">
        <ele>47.77</ele>
        <time>2025-02-02T20:33:28.152Z</time>
      </trkpt>
      <trkpt lat="59.381332928314805" lon="13.414562959223986">
        <ele>47.86</ele>
        <time>2025-02-02T20:33:29.483Z</time>
      </trkpt>
      <trkpt lat="59.38134499825537" lon="13.414422981441021">
        <ele>47.95</ele>
        <time>2025-02-02T20:33:30.815Z</time>
      </trkpt>
      <trkpt lat="59.381353966891766" lon="13.414281997829676">
        <ele>48.04</ele>
        <time>2025-02-02T20:33:32.149Z</time>
      </trkpt>
      <trkpt lat="59.38135991804302" lon="13.414139924570918">
        <ele>48.13</ele>
        <time>2025-02-02T20:33:33.484Z</time>
      </trkpt>
      <trkpt lat="59.38136394135654" lon="13.413995923474431">
        <ele>48.24</ele>
        <time>2025-02-02T20:33:34.820Z</time>
      </trkpt>
      <trkpt lat="59.3813659530133" lon="13.413853934034705">
        <ele>48.34</ele>
        <time>2025-02-02T20:33:36.157Z</time>
      </trkpt>
      <trkpt lat="59.38136897049844" lon="13.41371295042336">
        <ele>48.43</ele>
        <time>2025-02-02T20:33:37.495Z</time>
      </trkpt>
      <trkpt lat="59.381370982155204" lon="13.413571966812015">
        <ele>48.53</ele>
        <time>2025-02-02T20:33:38.834Z</time>
      </trkpt>
      <trkpt lat="59.381371987983584" lon="13.41343098320067">
        <ele>48.63</ele>
        <time>2025-02-02T20:33:40.175Z</time>
      </trkpt>
      <trkpt lat="59.381372993811965" lon="13.413287987932563">
        <ele>48.74</ele>
        <time>2025-02-02T20:33:41.517Z</time>
      </trkpt>
      <trkpt lat="59.381372993811965" lon="13.413144992664456">
        <ele>48.85</ele>
        <time>2025-02-02T20:33:42.860Z</time>
      </trkpt>
      <trkpt lat="59.381372993811965" lon="13.41300392523408">
        <ele>48.96</ele>
        <time>2025-02-02T20:33:44.204Z</time>
      </trkpt>
      <trkpt lat="59.381372993811965" lon="13.412861935794353">
        <ele>49.07</ele>
        <time>2025-02-02T20:33:45.549Z</time>
      </trkpt>
      <trkpt lat="59.381371987983584" lon="13.412721958011389">
        <ele>49.18</ele>
        <time>2025-02-02T20:33:46.895Z</time>
      </trkpt>
      <trkpt lat="59.38136997632682" lon="13.412582986056805">
        <ele>49.3</ele>
        <time>2025-02-02T20:33:48.243Z</time>
      </trkpt>
      <trkpt lat="59.38136695884168" lon="13.412443930283189">
        <ele>49.42</ele>
        <time>2025-02-02T20:33:49.592Z</time>
      </trkpt>
      <trkpt lat="59.38136293552816" lon="13.412306969985366">
        <ele>49.55</ele>
        <time>2025-02-02T20:33:50.942Z</time>
      </trkpt>
      <trkpt lat="59.38135799020529" lon="13.412170931696892">
        <ele>49.67</ele>
        <time>2025-02-02T20:33:52.293Z</time>
      </trkpt>
      <trkpt lat="59.38134994357824" lon="13.41203992255032">
        <ele>49.8</ele>
        <time>2025-02-02T20:33:53.645Z</time>
      </trkpt>
      <trkpt lat="59.38134198077023" lon="13.411911930888891">
        <ele>49.93</ele>
        <time>2025-02-02T20:33:54.998Z</time>
      </trkpt>
      <trkpt lat="59.381332928314805" lon="13.411787962540984">
        <ele>50.05</ele>
        <time>2025-02-02T20:33:56.352Z</time>
      </trkpt>
      <trkpt lat="59.38132597133517" lon="13.411668939515948">
        <ele>50.18</ele>
        <time>2025-02-02T20:33:57.707Z</time>
      </trkpt>
      <trkpt lat="59.38131993636489" lon="13.411552933976054">
        <ele>50.3</ele>
        <time>2025-02-02T20:33:59.063Z</time>
      </trkpt>
      <trkpt lat="59.38131398521364" lon="13.411439945921302">
        <ele>50.43</ele>
        <time>2025-02-02T20:34:00.420Z</time>
      </trkpt>
      <trkpt lat="59.381307950243354" lon="13.411330981180072">
        <ele>50.56</ele>
        <time>2025-02-02T20:34:01.778Z</time>
      </trkpt>
      <trkpt lat="59.3813019990921" lon="13.411223944276571">
        <ele>50.68</ele>
        <time>2025-02-02T20:34:03.137Z</time>
      </trkpt>
      <trkpt lat="59.38129495829344" lon="13.411118919029832">
        <ele>50.8</ele>
        <time>2025-02-02T20:34:04.497Z</time>
      </trkpt>
      <trkpt lat="59.381288923323154" lon="13.411014983430505">
        <ele>50.92</ele>
        <time>2025-02-02T20:34:05.857Z</time>
      </trkpt>
      <trkpt lat="59.3812829721719" lon="13.410909958183765">
        <ele>51.04</ele>
        <time>2025-02-02T20:34:07.218Z</time>
      </trkpt>
      <trkpt lat="59.38127693720162" lon="13.410803927108645">
        <ele>51.16</ele>
        <time>2025-02-02T20:34:08.580Z</time>
      </trkpt>
      <trkpt lat="59.38126998022199" lon="13.410697979852557">
        <ele>51.27</ele>
        <time>2025-02-02T20:34:09.943Z</time>
      </trkpt>
      <trkpt lat="59.38126293942332" lon="13.410591948777437">
        <ele>51.39</ele>
        <time>2025-02-02T20:34:11.307Z</time>
      </trkpt>
      <trkpt lat="59.38125598244369" lon="13.410483989864588">
        <ele>51.51</ele>
        <time>2025-02-02T20:34:12.672Z</time>
      </trkpt>
      <trkpt lat="59.381247935816646" lon="13.410375947132707">
        <ele>51.62</ele>
        <time>2025-02-02T20:34:14.038Z</time>
      </trkpt>
      <trkpt lat="59.38124097883701" lon="13.410267988219857">
        <ele>51.74</ele>
        <time>2025-02-02T20:34:15.405Z</time>
      </trkpt>
      <trkpt lat="59.38123393803835" lon="13.410157933831215">
        <ele>51.85</ele>
        <time>2025-02-02T20:34:16.773Z</time>
      </trkpt>
      <trkpt lat="59.38122698105872" lon="13.410047963261604">
        <ele>51.96</ele>
        <time>2025-02-02T20:34:18.141Z</time>
      </trkpt>
      <trkpt lat="59.381221951916814" lon="13.409937992691994">
        <ele>52.07</ele>
        <time>2025-02-02T20:34:19.510Z</time>
      </trkpt>
      <trkpt lat="59.38121591694653" lon="13.40982693247497">
        <ele>52.18</ele>
        <time>2025-02-02T20:34:20.880Z</time>
      </trkpt>
      <trkpt lat="59.38120996579528" lon="13.40971796773374">
        <ele>52.29</ele>
        <time>2025-02-02T20:34:22.251Z</time>
      </trkpt>
      <trkpt lat="59.381203930824995" lon="13.409608919173479">
        <ele>52.39</ele>
        <time>2025-02-02T20:34:23.623Z</time>
      </trkpt>
      <trkpt lat="59.38119797967374" lon="13.409499954432249">
        <ele>52.5</ele>
        <time>2025-02-02T20:34:24.996Z</time>
      </trkpt>
      <trkpt lat="59.38119295053184" lon="13.409388978034258">
        <ele>52.6</ele>
        <time>2025-02-02T20:34:26.370Z</time>
      </trkpt>
      <trkpt lat="59.38118599355221" lon="13.409278923645616">
        <ele>52.7</ele>
        <time>2025-02-02T20:34:27.745Z</time>
      </trkpt>
      <trkpt lat="59.381178952753544" lon="13.409168953076005">
        <ele>52.8</ele>
        <time>2025-02-02T20:34:29.121Z</time>
      </trkpt>
      <trkpt lat="59.38117291778326" lon="13.409057976678014">
        <ele>52.9</ele>
        <time>2025-02-02T20:34:30.498Z</time>
      </trkpt>
      <trkpt lat="59.38116596080363" lon="13.408945994451642">
        <ele>53.0</ele>
        <time>2025-02-02T20:34:31.876Z</time>
      </trkpt>
      <trkpt lat="59.381159925833344" lon="13.408833928406239">
        <ele>53.09</ele>
        <time>2025-02-02T20:34:33.254Z</time>
      </trkpt>
      <trkpt lat="59.38115397468209" lon="13.408720940351486">
        <ele>53.18</ele>
        <time>2025-02-02T20:34:34.633Z</time>
      </trkpt>
      <trkpt lat="59.38114793971181" lon="13.408609963953495">
        <ele>53.27</ele>
        <time>2025-02-02T20:34:36.013Z</time>
      </trkpt>
      <trkpt lat="59.38114198856056" lon="13.408496975898743">
        <ele>53.36</ele>
        <time>2025-02-02T20:34:37.394Z</time>
      </trkpt>
      <trkpt lat="59.381136959418654" lon="13.40838298201561">
        <ele>53.44</ele>
        <time>2025-02-02T20:34:38.776Z</time>
      </trkpt>
      <trkpt lat="59.38113092444837" lon="13.408270999789238">
        <ele>53.53</ele>
        <time>2025-02-02T20:34:40.159Z</time>
      </trkpt>
      <trkpt lat="59.38112497329712" lon="13.408156922087073">
        <ele>53.62</ele>
        <time>2025-02-02T20:34:41.543Z</time>
      </trkpt>
      <trkpt lat="59.381118938326836" lon="13.408043934032321">
        <ele>53.7</ele>
        <time>2025-02-02T20:34:42.928Z</time>
      </trkpt>
      <trkpt lat="59.3811119813472" lon="13.407930945977569">
        <ele>53.78</ele>
        <time>2025-02-02T20:34:44.314Z</time>
      </trkpt>
      <trkpt lat="59.38110494054854" lon="13.407817957922816">
        <ele>53.86</ele>
        <time>2025-02-02T20:34:45.701Z</time>
      </trkpt>
      <trkpt lat="59.381095971912146" lon="13.407704969868064">
        <ele>53.94</ele>
        <time>2025-02-02T20:34:47.089Z</time>
      </trkpt>
      <trkpt lat="59.38108499161899" lon="13.407590975984931">
        <ele>54.01</ele>
        <time>2025-02-02T20:34:48.478Z</time>
      </trkpt>
      <trkpt lat="59.38106898218393" lon="13.407476982101798">
        <ele>54.09</ele>
        <time>2025-02-02T20:34:49.868Z</time>
      </trkpt>
      <trkpt lat="59.38104492612183" lon="13.407366927713156">
        <ele>54.15</ele>
        <time>2025-02-02T20:34:51.259Z</time>
      </trkpt>
      <trkpt lat="59.381010979413986" lon="13.4072679374367">
        <ele>54.22</ele>
        <time>2025-02-02T20:34:52.651Z</time>
      </trkpt>
      <trkpt lat="59.3809689860791" lon="13.407179927453399">
        <ele>54.29</ele>
        <time>2025-02-02T20:34:54.044Z</time>
      </trkpt>
      <trkpt lat="59.380920957773924" lon="13.407103987410665">
        <ele>54.35</ele>
        <time>2025-02-02T20:34:55.438Z</time>
      </trkpt>
      <trkpt lat="59.38086898997426" lon="13.407037938013673">
        <ele>54.41</ele>
        <time>2025-02-02T20:34:56.833Z</time>
      </trkpt>
      <trkpt lat="59.380814926698804" lon="13.406974989920855">
        <ele>54.47</ele>
        <time>2025-02-02T20:34:58.229Z</time>
      </trkpt>
      <trkpt lat="59.38076195307076" lon="13.406911958009005">
        <ele>54.53</ele>
        <time>2025-02-02T20:34:59.626Z</time>
      </trkpt>
      <trkpt lat="59.380706967785954" lon="13.406849931925535">
        <ele>54.58</ele>
        <time>2025-02-02T20:35:01.024Z</time>
      </trkpt>
      <trkpt lat="59.38065298832953" lon="13.406786983832717">
        <ele>54.63</ele>
        <time>2025-02-02T20:35:02.423Z</time>
      </trkpt>
      <trkpt lat="59.380599930882454" lon="13.406719928607345">
        <ele>54.67</ele>
        <time>2025-02-02T20:35:03.823Z</time>
      </trkpt>
      <trkpt lat="59.38054896891117" lon="13.406648933887482">
        <ele>54.72</ele>
        <time>2025-02-02T20:35:05.224Z</time>
      </trkpt>
      <trkpt lat="59.380500940606" lon="13.406572993844748">
        <ele>54.75</ele>
        <time>2025-02-02T20:35:06.626Z</time>
      </trkpt>
      <trkpt lat="59.380453918129206" lon="13.406491940841079">
        <ele>54.79</ele>
        <time>2025-02-02T20:35:08.029Z</time>
      </trkpt>
      <trkpt lat="59.380407985299826" lon="13.406404936686158">
        <ele>54.82</ele>
        <time>2025-02-02T20:35:09.433Z</time>
      </trkpt>
      <trkpt lat="59.380364986136556" lon="13.406304940581322">
        <ele>54.85</ele>
        <time>2025-02-02T20:35:10.838Z</time>
      </trkpt>
      <trkpt lat="59.38032894395292" lon="13.406185917556286">
        <ele>54.88</ele>
        <time>2025-02-02T20:35:12.244Z</time>
      </trkpt>
      <trkpt lat="59.380301954224706" lon="13.406050968915224">
        <ele>54.91</ele>
        <time>2025-02-02T20:35:13.651Z</time>
      </trkpt>
      <trkpt lat="59.380278987810016" lon="13.405904956161976">
        <ele>54.92</ele>
        <time>2025-02-02T20:35:15.059Z</time>
      </trkpt>
      <trkpt lat="59.380256943404675" lon="13.405750980600715">
        <ele>54.94</ele>
        <time>2025-02-02T20:35:16.469Z</time>
      </trkpt>
      <trkpt lat="59.38023196533322" lon="13.40559197589755">
        <ele>54.96</ele>
        <time>2025-02-02T20:35:17.880Z</time>
      </trkpt>
      <trkpt lat="59.38020396977663" lon="13.405429953709245">
        <ele>54.97</ele>
        <time>2025-02-02T20:35:19.292Z</time>
      </trkpt>
      <trkpt lat="59.380171950906515" lon="13.405266925692558">
        <ele>54.99</ele>
        <time>2025-02-02T20:35:20.706Z</time>
      </trkpt>
      <trkpt lat="59.38013297505677" lon="13.405105993151665">
        <ele>55.0</ele>
        <time>2025-02-02T20:35:22.121Z</time>
      </trkpt>
      <trkpt lat="59.380084946751595" lon="13.404952939599752">
        <ele>55.02</ele>
        <time>2025-02-02T20:35:23.538Z</time>
      </trkpt>
      <trkpt lat="59.3800379242748" lon="13.40479795821011">
        <ele>55.03</ele>
        <time>2025-02-02T20:35:24.956Z</time>
      </trkpt>
      <trkpt lat="59.38000397756696" lon="13.404631996527314">
        <ele>55.05</ele>
        <time>2025-02-02T20:35:26.376Z</time>
      </trkpt>
      <trkpt lat="59.379974976181984" lon="13.404464945197105">
        <ele>55.07</ele>
        <time>2025-02-02T20:35:27.797Z</time>
      </trkpt>
      <trkpt lat="59.37993097119033" lon="13.404311975464225">
        <ele>55.07</ele>
        <time>2025-02-02T20:35:29.220Z</time>
      </trkpt>
      <trkpt lat="59.379870956763625" lon="13.404182977974415">
        <ele>55.08</ele>
        <time>2025-02-02T20:35:30.644Z</time>
      </trkpt>
      <trkpt lat="59.37980197370052" lon="13.404069989919662">
        <ele>55.07</ele>
        <time>2025-02-02T20:35:32.069Z</time>
      </trkpt>
      <trkpt lat="59.37973097898066" lon="13.403963958844543">
        <ele>55.07</ele>
        <time>2025-02-02T20:35:33.496Z</time>
      </trkpt>
      <trkpt lat="59.37966099008918" lon="13.403856921941042">
        <ele>55.07</ele>
        <time>2025-02-02T20:35:34.924Z</time>
      </trkpt>
      <trkpt lat="59.379593934863806" lon="13.40374594554305">
        <ele>55.05</ele>
        <time>2025-02-02T20:35:36.354Z</time>
      </trkpt>
      <trkpt lat="59.37952998094261" lon="13.403626922518015">
        <ele>55.04</ele>
        <time>2025-02-02T20:35:37.785Z</time>
      </trkpt>
      <trkpt lat="59.3794699665159" lon="13.403500942513347">
        <ele>55.02</ele>
        <time>2025-02-02T20:35:39.217Z</time>
      </trkpt>
      <trkpt lat="59.37941397540271" lon="13.403369933366776">
        <ele>55.01</ele>
        <time>2025-02-02T20:35:40.651Z</time>
      </trkpt>
      <trkpt lat="59.3793629296124" lon="13.403235990554094">
        <ele>54.99</ele>
        <time>2025-02-02T20:35:42.086Z</time>
      </trkpt>
      <trkpt lat="59.37931498512626" lon="13.403096934780478">
        <ele>54.97</ele>
        <time>2025-02-02T20:35:43.523Z</time>
      </trkpt>
      <trkpt lat="59.37927198596299" lon="13.402952933683991">
        <ele>54.95</ele>
        <time>2025-02-02T20:35:44.961Z</time>
      </trkpt>
      <trkpt lat="59.37923292629421" lon="13.402803987264633">
        <ele>54.93</ele>
        <time>2025-02-02T20:35:46.400Z</time>
      </trkpt>
      <trkpt lat="59.37919395044446" lon="13.402655962854624">
        <ele>54.9</ele>
        <time>2025-02-02T20:35:47.841Z</time>
      </trkpt>
      <trkpt lat="59.37915497459471" lon="13.402506932616234">
        <ele>54.87</ele>
        <time>2025-02-02T20:35:49.283Z</time>
      </trkpt>
      <trkpt lat="59.379117926582694" lon="13.402359997853637">
        <ele>54.83</ele>
        <time>2025-02-02T20:35:50.726Z</time>
      </trkpt>
      <trkpt lat="59.379078950732946" lon="13.402214990928769">
        <ele>54.8</ele>
        <time>2025-02-02T20:35:52.171Z</time>
      </trkpt>
      <trkpt lat="59.37904198653996" lon="13.402070989832282">
        <ele>54.76</ele>
        <time>2025-02-02T20:35:53.617Z</time>
      </trkpt>
      <trkpt lat="59.37900493852794" lon="13.401926988735795">
        <ele>54.72</ele>
        <time>2025-02-02T20:35:55.064Z</time>
      </trkpt>
      <trkpt lat="59.378968980163336" lon="13.401782987639308">
        <ele>54.67</ele>
        <time>2025-02-02T20:35:56.513Z</time>
      </trkpt>
      <trkpt lat="59.3789329379797" lon="13.40163697488606">
        <ele>54.63</ele>
        <time>2025-02-02T20:35:57.963Z</time>
      </trkpt>
      <trkpt lat="59.37889597378671" lon="13.401491967961192">
        <ele>54.58</ele>
        <time>2025-02-02T20:35:59.414Z</time>
      </trkpt>
      <trkpt lat="59.37885791994631" lon="13.401346961036325">
        <ele>54.54</ele>
        <time>2025-02-02T20:36:00.867Z</time>
      </trkpt>
      <trkpt lat="59.378819949924946" lon="13.401201954111457">
        <ele>54.48</ele>
        <time>2025-02-02T20:36:02.321Z</time>
      </trkpt>
      <trkpt lat="59.37878399156034" lon="13.401055941358209">
        <ele>54.42</ele>
        <time>2025-02-02T20:36:03.776Z</time>
      </trkpt>
      <trkpt lat="59.37874694354832" lon="13.40090992860496">
        <ele>54.37</ele>
        <time>2025-02-02T20:36:05.233Z</time>
      </trkpt>
      <trkpt lat="59.378707967698574" lon="13.400760982185602">
        <ele>54.32</ele>
        <time>2025-02-02T20:36:06.691Z</time>
      </trkpt>
      <trkpt lat="59.378668991848826" lon="13.400613963603973">
        <ele>54.26</ele>
        <time>2025-02-02T20:36:08.150Z</time>
      </trkpt>
      <trkpt lat="59.37863194383681" lon="13.400465939193964">
        <ele>54.21</ele>
        <time>2025-02-02T20:36:09.611Z</time>
      </trkpt>
      <trkpt lat="59.37859497964382" lon="13.400316992774606">
        <ele>54.16</ele>
        <time>2025-02-02T20:36:11.073Z</time>
      </trkpt>
      <trkpt lat="59.3785579316318" lon="13.400167962536216">
        <ele>54.11</ele>
        <time>2025-02-02T20:36:12.537Z</time>
      </trkpt>
      <trkpt lat="59.37852096743882" lon="13.400017926469445">
        <ele>54.05</ele>
        <time>2025-02-02T20:36:14.002Z</time>
      </trkpt>
      <trkpt lat="59.37848299741745" lon="13.399868980050087">
        <ele>54.0</ele>
        <time>2025-02-02T20:36:15.468Z</time>
      </trkpt>
      <trkpt lat="59.37844594940543" lon="13.399720955640078">
        <ele>53.94</ele>
        <time>2025-02-02T20:36:16.936Z</time>
      </trkpt>
      <trkpt lat="59.378408985212445" lon="13.399573937058449">
        <ele>53.88</ele>
        <time>2025-02-02T20:36:18.405Z</time>
      </trkpt>
      <trkpt lat="59.37837193720043" lon="13.39942691847682">
        <ele>53.82</ele>
        <time>2025-02-02T20:36:19.875Z</time>
      </trkpt>
      <trkpt lat="59.37833497300744" lon="13.399280989542603">
        <ele>53.75</ele>
        <time>2025-02-02T20:36:21.347Z</time>
      </trkpt>
      <trkpt lat="59.37829792499542" lon="13.399136988446116">
        <ele>53.69</ele>
        <time>2025-02-02T20:36:22.820Z</time>
      </trkpt>
      <trkpt lat="59.37826196663082" lon="13.398991981521249">
        <ele>53.63</ele>
        <time>2025-02-02T20:36:24.294Z</time>
      </trkpt>
      <trkpt lat="59.37822592444718" lon="13.398846974596381">
        <ele>53.56</ele>
        <time>2025-02-02T20:36:25.770Z</time>
      </trkpt>
      <trkpt lat="59.37818896025419" lon="13.398702973499894">
        <ele>53.5</ele>
        <time>2025-02-02T20:36:27.247Z</time>
      </trkpt>
      <trkpt lat="59.378152918070555" lon="13.398559978231788">
        <ele>53.44</ele>
        <time>2025-02-02T20:36:28.725Z</time>
      </trkpt>
      <trkpt lat="59.37811695970595" lon="13.398418994620442">
        <ele>53.38</ele>
        <time>2025-02-02T20:36:30.204Z</time>
      </trkpt>
      <trkpt lat="59.37807999551296" lon="13.398278933018446">
        <ele>53.31</ele>
        <time>2025-02-02T20:36:31.685Z</time>
      </trkpt>
      <trkpt lat="59.378044959157705" lon="13.398138955235481">
        <ele>53.25</ele>
        <time>2025-02-02T20:36:33.167Z</time>
      </trkpt>
      <trkpt lat="59.37800992280245" lon="13.398000989109278">
        <ele>53.18</ele>
        <time>2025-02-02T20:36:34.650Z</time>
      </trkpt>
      <trkpt lat="59.3779759760946" lon="13.397863944992423">
        <ele>53.12</ele>
        <time>2025-02-02T20:36:36.135Z</time>
      </trkpt>
      <trkpt lat="59.377939933910966" lon="13.39772799052298">
        <ele>53.05</ele>
        <time>2025-02-02T20:36:37.621Z</time>
      </trkpt>
      <trkpt lat="59.37790498137474" lon="13.397594969719648">
        <ele>52.99</ele>
        <time>2025-02-02T20:36:39.108Z</time>
      </trkpt>
      <trkpt lat="59.37786793336272" lon="13.397462954744697">
        <ele>52.93</ele>
        <time>2025-02-02T20:36:40.596Z</time>
      </trkpt>
      <trkpt lat="59.377829963341355" lon="13.397332951426506">
        <ele>52.86</ele>
        <time>2025-02-02T20:36:42.086Z</time>
      </trkpt>
      <trkpt lat="59.37778998166323" lon="13.397206971421838">
        <ele>52.79</ele>
        <time>2025-02-02T20:36:43.577Z</time>
      </trkpt>
      <trkpt lat="59.3777499999851" lon="13.39708099141717">
        <ele>52.72</ele>
        <time>2025-02-02T20:36:45.069Z</time>
      </trkpt>
      <trkpt lat="59.37770792283118" lon="13.396959956735373">
        <ele>52.64</ele>
        <time>2025-02-02T20:36:46.562Z</time>
      </trkpt>
      <trkpt lat="59.37766098417342" lon="13.396842945367098">
        <ele>52.57</ele>
        <time>2025-02-02T20:36:48.056Z</time>
      </trkpt>
      <trkpt lat="59.377611950039864" lon="13.396729957312346">
        <ele>52.5</ele>
        <time>2025-02-02T20:36:49.552Z</time>
      </trkpt>
      <trkpt lat="59.37756492756307" lon="13.396613951772451">
        <ele>52.43</ele>
        <time>2025-02-02T20:36:51.049Z</time>
      </trkpt>
      <trkpt lat="59.377526957541704" lon="13.396489983424544">
        <ele>52.35</ele>
        <time>2025-02-02T20:36:52.547Z</time>
      </trkpt>
      <trkpt lat="59.377503991127014" lon="13.39635293930769">
        <ele>52.28</ele>
        <time>2025-02-02T20:36:54.046Z</time>
      </trkpt>
      <trkpt lat="59.37750197947025" lon="13.396209944039583">
        <ele>52.2</ele>
        <time>2025-02-02T20:36:55.546Z</time>
      </trkpt>
      <trkpt lat="59.37751295976341" lon="13.396067954599857">
        <ele>52.13</ele>
        <time>2025-02-02T20:36:57.047Z</time>
      </trkpt>
      <trkpt lat="59.37753198668361" lon="13.395927976816893">
        <ele>52.06</ele>
        <time>2025-02-02T20:36:58.550Z</time>
      </trkpt>
      <trkpt lat="59.377552941441536" lon="13.395788921043277">
        <ele>51.99</ele>
        <time>2025-02-02T20:37:00.054Z</time>
      </trkpt>
      <trkpt lat="59.377572974190116" lon="13.395649949088693">
        <ele>51.92</ele>
        <time>2025-02-02T20:37:01.559Z</time>
      </trkpt>
      <trkpt lat="59.377589989453554" lon="13.395509971305728">
        <ele>51.85</ele>
        <time>2025-02-02T20:37:03.065Z</time>
      </trkpt>
      <trkpt lat="59.37760398723185" lon="13.395368987694383">
        <ele>51.78</ele>
        <time>2025-02-02T20:37:04.572Z</time>
      </trkpt>
      <trkpt lat="59.377615973353386" lon="13.395227920264006">
        <ele>51.7</ele>
        <time>2025-02-02T20:37:06.081Z</time>
      </trkpt>
      <trkpt lat="59.37762795947492" lon="13.39508693665266">
        <ele>51.63</ele>
        <time>2025-02-02T20:37:07.591Z</time>
      </trkpt>
      <trkpt lat="59.37763994559646" lon="13.394945953041315">
        <ele>51.55</ele>
        <time>2025-02-02T20:37:09.102Z</time>
      </trkpt>
      <trkpt lat="59.37765092588961" lon="13.39480597525835">
        <ele>51.48</ele>
        <time>2025-02-02T20:37:10.614Z</time>
      </trkpt>
      <trkpt lat="59.37766299583018" lon="13.394664991647005">
        <ele>51.41</ele>
        <time>2025-02-02T20:37:12.127Z</time>
      </trkpt>
      <trkpt lat="59.377674981951714" lon="13.394524930045009">
        <ele>51.34</ele>
        <time>2025-02-02T20:37:13.641Z</time>
      </trkpt>
      <trkpt lat="59.37768596224487" lon="13.394385958090425">
        <ele>51.26</ele>
        <time>2025-02-02T20:37:15.157Z</time>
      </trkpt>
      <trkpt lat="59.377697948366404" lon="13.39424698613584">
        <ele>51.2</ele>
        <time>2025-02-02T20:37:16.674Z</time>
      </trkpt>
      <trkpt lat="59.37770892865956" lon="13.394108936190605">
        <ele>51.13</ele>
        <time>2025-02-02T20:37:18.192Z</time>
      </trkpt>
      <trkpt lat="59.377719992771745" lon="13.393970970064402">
        <ele>51.07</ele>
        <time>2025-02-02T20:37:19.711Z</time>
      </trkpt>
      <trkpt lat="59.3777309730649" lon="13.393832920119166">
        <ele>51.02</ele>
        <time>2025-02-02T20:37:21.231Z</time>
      </trkpt>
      <trkpt lat="59.377740947529674" lon="13.393695959821343">
        <ele>50.95</ele>
        <time>2025-02-02T20:37:22.752Z</time>
      </trkpt>
      <trkpt lat="59.37775192782283" lon="13.39355899952352">
        <ele>50.89</ele>
        <time>2025-02-02T20:37:24.274Z</time>
      </trkpt>
      <trkpt lat="59.377762991935015" lon="13.393421955406666">
        <ele>50.83</ele>
        <time>2025-02-02T20:37:25.798Z</time>
      </trkpt>
      <trkpt lat="59.37777397222817" lon="13.393284995108843">
        <ele>50.78</ele>
        <time>2025-02-02T20:37:27.323Z</time>
      </trkpt>
      <trkpt lat="59.377783946692944" lon="13.393147950991988">
        <ele>50.72</ele>
        <time>2025-02-02T20:37:28.849Z</time>
      </trkpt>
      <trkpt lat="59.3777949269861" lon="13.393008979037404">
        <ele>50.66</ele>
        <time>2025-02-02T20:37:30.376Z</time>
      </trkpt>
      <trkpt lat="59.377805991098285" lon="13.392870929092169">
        <ele>50.6</ele>
        <time>2025-02-02T20:37:31.904Z</time>
      </trkpt>
      <trkpt lat="59.37781697139144" lon="13.392731957137585">
        <ele>50.54</ele>
        <time>2025-02-02T20:37:33.433Z</time>
      </trkpt>
      <trkpt lat="59.377830969169736" lon="13.39259197935462">
        <ele>50.49</ele>
        <time>2025-02-02T20:37:34.963Z</time>
      </trkpt>
      <trkpt lat="59.37784396111965" lon="13.392451917752624">
        <ele>50.42</ele>
        <time>2025-02-02T20:37:36.495Z</time>
      </trkpt>
      <trkpt lat="59.377853935584426" lon="13.39231294579804">
        <ele>50.36</ele>
        <time>2025-02-02T20:37:38.028Z</time>
      </trkpt>
      <trkpt lat="59.37786298803985" lon="13.392173973843455">
        <ele>50.3</ele>
        <time>2025-02-02T20:37:39.562Z</time>
      </trkpt>
      <trkpt lat="59.377871956676245" lon="13.39203592389822">
        <ele>50.25</ele>
        <time>2025-02-02T20:37:41.097Z</time>
      </trkpt>
      <trkpt lat="59.37788092531264" lon="13.391899969428778">
        <ele>50.18</ele>
        <time>2025-02-02T20:37:42.633Z</time>
      </trkpt>
      <trkpt lat="59.37788897193968" lon="13.391759991645813">
        <ele>50.13</ele>
        <time>2025-02-02T20:37:44.170Z</time>
      </trkpt>
      <trkpt lat="59.377895928919315" lon="13.391615990549326">
        <ele>50.08</ele>
        <time>2025-02-02T20:37:45.708Z</time>
      </trkpt>
      <trkpt lat="59.37789995223284" lon="13.39147299528122">
        <ele>50.02</ele>
        <time>2025-02-02T20:37:47.248Z</time>
      </trkpt>
      <trkpt lat="59.37790397554636" lon="13.391329916194081">
        <ele>49.97</ele>
        <time>2025-02-02T20:37:48.789Z</time>
      </trkpt>
      <trkpt lat="59.37790598720312" lon="13.391187926754355">
        <ele>49.91</ele>
        <time>2025-02-02T20:37:50.331Z</time>
      </trkpt>
      <trkpt lat="59.37790992669761" lon="13.39104694314301">
        <ele>49.86</ele>
        <time>2025-02-02T20:37:51.874Z</time>
      </trkpt>
      <trkpt lat="59.37790992669761" lon="13.390903947874904">
        <ele>49.81</ele>
        <time>2025-02-02T20:37:53.418Z</time>
      </trkpt>
      <trkpt lat="59.37790892086923" lon="13.390760952606797">
        <ele>49.76</ele>
        <time>2025-02-02T20:37:54.963Z</time>
      </trkpt>
      <trkpt lat="59.37790498137474" lon="13.39061795733869">
        <ele>49.72</ele>
        <time>2025-02-02T20:37:56.510Z</time>
      </trkpt>
      <trkpt lat="59.37790095806122" lon="13.390474962070584">
        <ele>49.67</ele>
        <time>2025-02-02T20:37:58.058Z</time>
      </trkpt>
      <trkpt lat="59.377895928919315" lon="13.390331966802478">
        <ele>49.63</ele>
        <time>2025-02-02T20:37:59.607Z</time>
      </trkpt>
      <trkpt lat="59.377891989424825" lon="13.390189977362752">
        <ele>49.58</ele>
        <time>2025-02-02T20:38:01.157Z</time>
      </trkpt>
      <trkpt lat="59.37788696028292" lon="13.390048993751407">
        <ele>49.54</ele>
        <time>2025-02-02T20:38:02.708Z</time>
      </trkpt>
      <trkpt lat="59.37787899747491" lon="13.389906920492649">
        <ele>49.5</ele>
        <time>2025-02-02T20:38:04.260Z</time>
      </trkpt>
      <trkpt lat="59.377870950847864" lon="13.389765936881304">
        <ele>49.46</ele>
        <time>2025-02-02T20:38:05.814Z</time>
      </trkpt>
      <trkpt lat="59.37786097638309" lon="13.389623947441578">
        <ele>49.42</ele>
        <time>2025-02-02T20:38:07.369Z</time>
      </trkpt>
      <trkpt lat="59.377851923927665" lon="13.389486987143755">
        <ele>49.39</ele>
        <time>2025-02-02T20:38:08.925Z</time>
      </trkpt>
      <trkpt lat="59.37784094363451" lon="13.38934793137014">
        <ele>49.35</ele>
        <time>2025-02-02T20:38:10.482Z</time>
      </trkpt>
      <trkpt lat="59.377827951684594" lon="13.389207953587174">
        <ele>49.32</ele>
        <time>2025-02-02T20:38:12.040Z</time>
      </trkpt>
      <trkpt lat="59.3778139539063" lon="13.38906797580421">
        <ele>49.3</ele>
        <time>2025-02-02T20:38:13.599Z</time>
      </trkpt>
      <trkpt lat="59.377799956128" lon="13.388928920030594">
        <ele>49.28</ele>
        <time>2025-02-02T20:38:15.160Z</time>
      </trkpt>
      <trkpt lat="59.37778294086456" lon="13.388791959732771">
        <ele>49.26</ele>
        <time>2025-02-02T20:38:16.722Z</time>
      </trkpt>
      <trkpt lat="59.377764919772744" lon="13.388656927272677">
        <ele>49.24</ele>
        <time>2025-02-02T20:38:18.285Z</time>
      </trkpt>
      <trkpt lat="59.377744970843196" lon="13.388520972803235">
        <ele>49.22</ele>
        <time>2025-02-02T20:38:19.849Z</time>
      </trkpt>
      <trkpt lat="59.377723932266235" lon="13.388382922858">
        <ele>49.21</ele>
        <time>2025-02-02T20:38:21.414Z</time>
      </trkpt>
      <trkpt lat="59.377700965851545" lon="13.388245962560177">
        <ele>49.2</ele>
        <time>2025-02-02T20:38:22.980Z</time>
      </trkpt>
      <trkpt lat="59.377678921446204" lon="13.388107996433973">
        <ele>49.19</ele>
        <time>2025-02-02T20:38:24.548Z</time>
      </trkpt>
      <trkpt lat="59.377656960859895" lon="13.387969946488738">
        <ele>49.18</ele>
        <time>2025-02-02T20:38:26.117Z</time>
      </trkpt>
      <trkpt lat="59.377632988616824" lon="13.387833992019296">
        <ele>49.17</ele>
        <time>2025-02-02T20:38:27.687Z</time>
      </trkpt>
      <trkpt lat="59.37760893255472" lon="13.387696947902441">
        <ele>49.17</ele>
        <time>2025-02-02T20:38:29.258Z</time>
      </trkpt>
      <trkpt lat="59.37758395448327" lon="13.387560993432999">
        <ele>49.16</ele>
        <time>2025-02-02T20:38:30.830Z</time>
      </trkpt>
      <trkpt lat="59.37755897641182" lon="13.387424955144525">
        <ele>49.16</ele>
        <time>2025-02-02T20:38:32.404Z</time>
      </trkpt>
      <trkpt lat="59.37753399834037" lon="13.387289922684431">
        <ele>49.16</ele>
        <time>2025-02-02T20:38:33.979Z</time>
      </trkpt>
      <trkpt lat="59.37751094810665" lon="13.38715597987175">
        <ele>49.17</ele>
        <time>2025-02-02T20:38:35.555Z</time>
      </trkpt>
      <trkpt lat="59.377486975863576" lon="13.387021953240037">
        <ele>49.17</ele>
        <time>2025-02-02T20:38:37.132Z</time>
      </trkpt>
      <trkpt lat="59.377462919801474" lon="13.386888932436705">
        <ele>49.18</ele>
        <time>2025-02-02T20:38:38.710Z</time>
      </trkpt>
      <trkpt lat="59.377439953386784" lon="13.386755995452404">
        <ele>49.2</ele>
        <time>2025-02-02T20:38:40.289Z</time>
      </trkpt>
      <trkpt lat="59.377417992800474" lon="13.38662096299231">
        <ele>49.21</ele>
        <time>2025-02-02T20:38:41.869Z</time>
      </trkpt>
      <trkpt lat="59.37739494256675" lon="13.386486936360598">
        <ele>49.23</ele>
        <time>2025-02-02T20:38:43.451Z</time>
      </trkpt>
      <trkpt lat="59.37737197615206" lon="13.386348970234394">
        <ele>49.25</ele>
        <time>2025-02-02T20:38:45.034Z</time>
      </trkpt>
      <trkpt lat="59.37734993174672" lon="13.386215949431062">
        <ele>49.28</ele>
        <time>2025-02-02T20:38:46.618Z</time>
      </trkpt>
      <trkpt lat="59.37732897698879" lon="13.386081922799349">
        <ele>49.3</ele>
        <time>2025-02-02T20:38:48.203Z</time>
      </trkpt>
      <trkpt lat="59.37730793841183" lon="13.385945968329906">
        <ele>49.33</ele>
        <time>2025-02-02T20:38:49.789Z</time>
      </trkpt>
      <trkpt lat="59.377287989482284" lon="13.385808924213052">
        <ele>49.36</ele>
        <time>2025-02-02T20:38:51.376Z</time>
      </trkpt>
      <trkpt lat="59.37726695090532" lon="13.38567296974361">
        <ele>49.4</ele>
        <time>2025-02-02T20:38:52.965Z</time>
      </trkpt>
      <trkpt lat="59.37724691815674" lon="13.385535925626755">
        <ele>49.44</ele>
        <time>2025-02-02T20:38:54.555Z</time>
      </trkpt>
      <trkpt lat="59.377226969227195" lon="13.385397959500551">
        <ele>49.49</ele>
        <time>2025-02-02T20:38:56.146Z</time>
      </trkpt>
      <trkpt lat="59.377207942306995" lon="13.385258987545967">
        <ele>49.53</ele>
        <time>2025-02-02T20:38:57.738Z</time>
      </trkpt>
      <trkpt lat="59.37718799337745" lon="13.385120937600732">
        <ele>49.59</ele>
        <time>2025-02-02T20:38:59.331Z</time>
      </trkpt>
      <trkpt lat="59.37716896645725" lon="13.384983977302909">
        <ele>49.65</ele>
        <time>2025-02-02T20:39:00.925Z</time>
      </trkpt>
      <trkpt lat="59.37715094536543" lon="13.384846933186054">
        <ele>49.7</ele>
        <time>2025-02-02T20:39:02.521Z</time>
      </trkpt>
      <trkpt lat="59.37713292427361" lon="13.384710978716612">
        <ele>49.76</ele>
        <time>2025-02-02T20:39:04.118Z</time>
      </trkpt>
      <trkpt lat="59.37711297534406" lon="13.384574940428138">
        <ele>49.83</ele>
        <time>2025-02-02T20:39:05.716Z</time>
      </trkpt>
      <trkpt lat="59.37709394842386" lon="13.384440997615457">
        <ele>49.9</ele>
        <time>2025-02-02T20:39:07.315Z</time>
      </trkpt>
      <trkpt lat="59.37707492150366" lon="13.384307976812124">
        <ele>49.97</ele>
        <time>2025-02-02T20:39:08.915Z</time>
      </trkpt>
      <trkpt lat="59.377054972574115" lon="13.384175961837173">
        <ele>50.04</ele>
        <time>2025-02-02T20:39:10.516Z</time>
      </trkpt>
      <trkpt lat="59.377034939825535" lon="13.384044952690601">
        <ele>50.11</ele>
        <time>2025-02-02T20:39:12.118Z</time>
      </trkpt>
      <trkpt lat="59.377013985067606" lon="13.38391293771565">
        <ele>50.19</ele>
        <time>2025-02-02T20:39:13.722Z</time>
      </trkpt>
      <trkpt lat="59.37699495814741" lon="13.383781928569078">
        <ele>50.27</ele>
        <time>2025-02-02T20:39:15.327Z</time>
      </trkpt>
      <trkpt lat="59.37697492539883" lon="13.383651925250888">
        <ele>50.35</ele>
        <time>2025-02-02T20:39:16.933Z</time>
      </trkpt>
      <trkpt lat="59.37695195898414" lon="13.383523933589458">
        <ele>50.44</ele>
        <time>2025-02-02T20:39:18.540Z</time>
      </trkpt>
      <trkpt lat="59.376927986741066" lon="13.38339895941317">
        <ele>50.53</ele>
        <time>2025-02-02T20:39:20.148Z</time>
      </trkpt>
      <trkpt lat="59.37690292485058" lon="13.383277924731374">
        <ele>50.63</ele>
        <time>2025-02-02T20:39:21.757Z</time>
      </trkpt>
      <trkpt lat="59.37687492929399" lon="13.38316099718213">
        <ele>50.73</ele>
        <time>2025-02-02T20:39:23.367Z</time>
      </trkpt>
      <trkpt lat="59.37685095705092" lon="13.383045997470617">
        <ele>50.83</ele>
        <time>2025-02-02T20:39:24.978Z</time>
      </trkpt>
      <trkpt lat="59.376838970929384" lon="13.382939966395497">
        <ele>50.95</ele>
        <time>2025-02-02T20:39:26.590Z</time>
      </trkpt>
      <trkpt lat="59.37684592790902" lon="13.382850950583816">
        <ele>51.06</ele>
        <time>2025-02-02T20:39:28.203Z</time>
      </trkpt>
      <trkpt lat="59.3768709897995" lon="13.382806945592165">
        <ele>51.17</ele>
        <time>2025-02-02T20:39:29.816Z</time>
      </trkpt>
      <trkpt lat="59.37690895982087" lon="13.382791941985488">
        <ele>51.29</ele>
        <time>2025-02-02T20:39:31.430Z</time>
      </trkpt>
      <trkpt lat="59.37695497646928" lon="13.38279596529901">
        <ele>51.41</ele>
        <time>2025-02-02T20:39:33.045Z</time>
      </trkpt>
      <trkpt lat="59.3770039267838" lon="13.382813986390829">
        <ele>51.52</ele>
        <time>2025-02-02T20:39:34.660Z</time>
      </trkpt>
      <trkpt lat="59.377052960917354" lon="13.38283997029066">
        <ele>51.64</ele>
        <time>2025-02-02T20:39:36.276Z</time>
      </trkpt>
      <trkpt lat="59.37710199505091" lon="13.38286293670535">
        <ele>51.77</ele>
        <time>2025-02-02T20:39:37.893Z</time>
      </trkpt>
      <trkpt lat="59.37715094536543" lon="13.382884981110692">
        <ele>51.89</ele>
        <time>2025-02-02T20:39:39.511Z</time>
      </trkpt>
      <trkpt lat="59.37720391899347" lon="13.38290392421186">
        <ele>52.03</ele>
        <time>2025-02-02T20:39:41.130Z</time>
      </trkpt>
      <trkpt lat="59.37725597061217" lon="13.382915994152427">
        <ele>52.16</ele>
        <time>2025-02-02T20:39:42.750Z</time>
      </trkpt>
      <trkpt lat="59.377311961725354" lon="13.382918927818537">
        <ele>52.3</ele>
        <time>2025-02-02T20:39:44.370Z</time>
      </trkpt>
      <trkpt lat="59.3773699644953" lon="13.382913982495666">
        <ele>52.44</ele>
        <time>2025-02-02T20:39:45.991Z</time>
      </trkpt>
      <trkpt lat="59.37742696143687" lon="13.38290593586862">
        <ele>52.58</ele>
        <time>2025-02-02T20:39:47.613Z</time>
      </trkpt>
      <trkpt lat="59.377484964206815" lon="13.382896967232227">
        <ele>52.72</ele>
        <time>2025-02-02T20:39:49.236Z</time>
      </trkpt>
      <trkpt lat="59.37754296697676" lon="13.382884981110692">
        <ele>52.87</ele>
        <time>2025-02-02T20:39:50.860Z</time>
      </trkpt>
      <trkpt lat="59.37760298140347" lon="13.382874922826886">
        <ele>53.03</ele>
        <time>2025-02-02T20:39:52.485Z</time>
      </trkpt>
      <trkpt lat="59.37766391783953" lon="13.382866960018873">
        <ele>53.18</ele>
        <time>2025-02-02T20:39:54.111Z</time>
      </trkpt>
      <trkpt lat="59.377725943923" lon="13.382856985554099">
        <ele>53.34</ele>
        <time>2025-02-02T20:39:55.738Z</time>
      </trkpt>
      <trkpt lat="59.377784952521324" lon="13.382845921441913">
        <ele>53.51</ele>
        <time>2025-02-02T20:39:57.366Z</time>
      </trkpt>
      <trkpt lat="59.37784396111965" lon="13.382836952805519">
        <ele>53.67</ele>
        <time>2025-02-02T20:39:58.995Z</time>
      </trkpt>
      <trkpt lat="59.3779019638896" lon="13.382828989997506">
        <ele>53.85</ele>
        <time>2025-02-02T20:40:00.625Z</time>
      </trkpt>
      <trkpt lat="59.37796097248793" lon="13.38281993754208">
        <ele>54.02</ele>
        <time>2025-02-02T20:40:02.256Z</time>
      </trkpt>
      <trkpt lat="59.378020986914635" lon="13.382812980562449">
        <ele>54.2</ele>
        <time>2025-02-02T20:40:03.888Z</time>
      </trkpt>
      <trkpt lat="59.37808091752231" lon="13.382803928107023">
        <ele>54.4</ele>
        <time>2025-02-02T20:40:05.521Z</time>
      </trkpt>
      <trkpt lat="59.37813892029226" lon="13.38279596529901">
        <ele>54.59</ele>
        <time>2025-02-02T20:40:07.155Z</time>
      </trkpt>
      <trkpt lat="59.378195917233825" lon="13.382786996662617">
        <ele>54.78</ele>
        <time>2025-02-02T20:40:08.790Z</time>
      </trkpt>
      <trkpt lat="59.37825098633766" lon="13.382779955863953">
        <ele>54.97</ele>
        <time>2025-02-02T20:40:10.426Z</time>
      </trkpt>
      <trkpt lat="59.37830597162247" lon="13.382782973349094">
        <ele>55.17</ele>
        <time>2025-02-02T20:40:12.062Z</time>
      </trkpt>
      <trkpt lat="59.37836095690727" lon="13.382805939763784">
        <ele>55.37</ele>
        <time>2025-02-02T20:40:13.699Z</time>
      </trkpt>
      <trkpt lat="59.37841895967722" lon="13.38283997029066">
        <ele>55.57</ele>
        <time>2025-02-02T20:40:15.337Z</time>
      </trkpt>
      <trkpt lat="59.378475956618786" lon="13.382868971675634">
        <ele>55.77</ele>
        <time>2025-02-02T20:40:16.976Z</time>
      </trkpt>
      <trkpt lat="59.37853295356035" lon="13.382863942533731">
        <ele>55.98</ele>
        <time>2025-02-02T20:40:18.616Z</time>
      </trkpt>
      <trkpt lat="59.37858894467354" lon="13.382832929491997">
        <ele>56.19</ele>
        <time>2025-02-02T20:40:20.257Z</time>
      </trkpt>
      <trkpt lat="59.37864292412996" lon="13.38279697112739">
        <ele>56.4</ele>
        <time>2025-02-02T20:40:21.899Z</time>
      </trkpt>
      <trkpt lat="59.37869396992028" lon="13.382768975570798">
        <ele>56.61</ele>
        <time>2025-02-02T20:40:23.542Z</time>
      </trkpt>
      <trkpt lat="59.3787429202348" lon="13.382742991670966">
        <ele>56.83</ele>
        <time>2025-02-02T20:40:25.186Z</time>
      </trkpt>
      <trkpt lat="59.37879195436835" lon="13.382724970579147">
        <ele>57.04</ele>
        <time>2025-02-02T20:40:26.831Z</time>
      </trkpt>
      <trkpt lat="59.378837971016765" lon="13.382698986679316">
        <ele>57.26</ele>
        <time>2025-02-02T20:40:28.476Z</time>
      </trkpt>
      <trkpt lat="59.37887895852327" lon="13.382673924788833">
        <ele>57.48</ele>
        <time>2025-02-02T20:40:30.122Z</time>
      </trkpt>
      <trkpt lat="59.37892095185816" lon="13.382650958374143">
        <ele>57.7</ele>
        <time>2025-02-02T20:40:31.769Z</time>
      </trkpt>
      <trkpt lat="59.37895992770791" lon="13.382627991959453">
        <ele>57.92</ele>
        <time>2025-02-02T20:40:33.416Z</time>
      </trkpt>
      <trkpt lat="59.37899496406317" lon="13.382604941725731">
        <ele>58.14</ele>
        <time>2025-02-02T20:40:35.064Z</time>
      </trkpt>
      <trkpt lat="59.379028994590044" lon="13.382589938119054">
        <ele>58.37</ele>
        <time>2025-02-02T20:40:36.712Z</time>
      </trkpt>
      <trkpt lat="59.37906595878303" lon="13.382573928683996">
        <ele>58.59</ele>
        <time>2025-02-02T20:40:38.361Z</time>
      </trkpt>
      <trkpt lat="59.37910493463278" lon="13.38256093673408">
        <ele>58.82</ele>
        <time>2025-02-02T20:40:40.011Z</time>
      </trkpt>
      <trkpt lat="59.37914298847318" lon="13.382554985582829">
        <ele>59.05</ele>
        <time>2025-02-02T20:40:41.661Z</time>
      </trkpt>
      <trkpt lat="59.3791779410094" lon="13.382547944784164">
        <ele>59.28</ele>
        <time>2025-02-02T20:40:43.312Z</time>
      </trkpt>
      <trkpt lat="59.37921297736466" lon="13.382544927299023">
        <ele>59.51</ele>
        <time>2025-02-02T20:40:44.963Z</time>
      </trkpt>
      <trkpt lat="59.37924591824412" lon="13.382539981976151">
        <ele>59.75</ele>
        <time>2025-02-02T20:40:46.615Z</time>
      </trkpt>
      <trkpt lat="59.37927793711424" lon="13.382529923692346">
        <ele>59.99</ele>
        <time>2025-02-02T20:40:48.268Z</time>
      </trkpt>
      <trkpt lat="59.37930593267083" lon="13.382518943399191">
        <ele>60.23</ele>
        <time>2025-02-02T20:40:49.921Z</time>
      </trkpt>
      <trkpt lat="59.37933895736933" lon="13.382504945620894">
        <ele>60.47</ele>
        <time>2025-02-02T20:40:51.575Z</time>
      </trkpt>
      <trkpt lat="59.379376927390695" lon="13.38249295949936">
        <ele>60.71</ele>
        <time>2025-02-02T20:40:53.229Z</time>
      </trkpt>
      <trkpt lat="59.379417998716235" lon="13.382477955892682">
        <ele>60.95</ele>
        <time>2025-02-02T20:40:54.884Z</time>
      </trkpt>
      <trkpt lat="59.379459992051125" lon="13.382461946457624">
        <ele>61.2</ele>
        <time>2025-02-02T20:40:56.539Z</time>
      </trkpt>
      <trkpt lat="59.37949293293059" lon="13.382446942850947">
        <ele>61.44</ele>
        <time>2025-02-02T20:40:58.195Z</time>
      </trkpt>
      <trkpt lat="59.379526963457465" lon="13.38243193924427">
        <ele>61.69</ele>
        <time>2025-02-02T20:40:59.852Z</time>
      </trkpt>
      <trkpt lat="59.37956199981272" lon="13.382409978657961">
        <ele>61.94</ele>
        <time>2025-02-02T20:41:01.509Z</time>
      </trkpt>
      <trkpt lat="59.37959795817733" lon="13.382390951737761">
        <ele>62.18</ele>
        <time>2025-02-02T20:41:03.167Z</time>
      </trkpt>
      <trkpt lat="59.379637939855456" lon="13.382356921210885">
        <ele>62.44</ele>
        <time>2025-02-02T20:41:04.825Z</time>
      </trkpt>
      <trkpt lat="59.37968395650387" lon="13.382311994209886">
        <ele>62.69</ele>
        <time>2025-02-02T20:41:06.484Z</time>
      </trkpt>
      <trkpt lat="59.37973592430353" lon="13.382263965904713">
        <ele>62.94</ele>
        <time>2025-02-02T20:41:08.144Z</time>
      </trkpt>
      <trkpt lat="59.37978998757899" lon="13.38221493177116">
        <ele>63.2</ele>
        <time>2025-02-02T20:41:09.805Z</time>
      </trkpt>
      <trkpt lat="59.37983994372189" lon="13.38217394426465">
        <ele>63.46</ele>
        <time>2025-02-02T20:41:11.467Z</time>
      </trkpt>
      <trkpt lat="59.37988797202706" lon="13.382145948708057">
        <ele>63.72</ele>
        <time>2025-02-02T20:41:13.130Z</time>
      </trkpt>
      <trkpt lat="59.379938933998346" lon="13.382119964808226">
        <ele>63.97</ele>
        <time>2025-02-02T20:41:14.794Z</time>
      </trkpt>
      <trkpt lat="59.37998897396028" lon="13.382098926231265">
        <ele>64.23</ele>
        <time>2025-02-02T20:41:16.459Z</time>
      </trkpt>
      <trkpt lat="59.38003893010318" lon="13.38208593428135">
        <ele>64.48</ele>
        <time>2025-02-02T20:41:18.124Z</time>
      </trkpt>
      <trkpt lat="59.3800899758935" lon="13.382075959816575">
        <ele>64.74</ele>
        <time>2025-02-02T20:41:19.790Z</time>
      </trkpt>
      <trkpt lat="59.3801399320364" lon="13.382066991180182">
        <ele>64.99</ele>
        <time>2025-02-02T20:41:21.457Z</time>
      </trkpt>
      <trkpt lat="59.380189971998334" lon="13.38206497952342">
        <ele>65.25</ele>
        <time>2025-02-02T20:41:23.125Z</time>
      </trkpt>
      <trkpt lat="59.380234982818365" lon="13.38206397369504">
        <ele>65.51</ele>
        <time>2025-02-02T20:41:24.793Z</time>
      </trkpt>
      <trkpt lat="59.38027395866811" lon="13.382066991180182">
        <ele>65.77</ele>
        <time>2025-02-02T20:41:26.462Z</time>
      </trkpt>
      <trkpt lat="59.38031494617462" lon="13.382078977301717">
        <ele>66.03</ele>
        <time>2025-02-02T20:41:28.132Z</time>
      </trkpt>
      <trkpt lat="59.38035593368113" lon="13.382095992565155">
        <ele>66.29</ele>
        <time>2025-02-02T20:41:29.802Z</time>
      </trkpt>
      <trkpt lat="59.38039792701602" lon="13.382116947323084">
        <ele>66.55</ele>
        <time>2025-02-02T20:41:31.473Z</time>
      </trkpt>
      <trkpt lat="59.38044595532119" lon="13.382136980071664">
        <ele>66.81</ele>
        <time>2025-02-02T20:41:33.145Z</time>
      </trkpt>
      <trkpt lat="59.380496917292476" lon="13.382139997556806">
        <ele>67.07</ele>
        <time>2025-02-02T20:41:34.818Z</time>
      </trkpt>
      <trkpt lat="59.380553998053074" lon="13.382126921787858">
        <ele>67.33</ele>
        <time>2025-02-02T20:41:36.492Z</time>
      </trkpt>
      <trkpt lat="59.38060496002436" lon="13.382088951766491">
        <ele>67.59</ele>
        <time>2025-02-02T20:41:38.167Z</time>
      </trkpt>
      <trkpt lat="59.38065692782402" lon="13.382038995623589">
        <ele>67.86</ele>
        <time>2025-02-02T20:41:39.842Z</time>
      </trkpt>
      <trkpt lat="59.38070395030081" lon="13.381982920691371">
        <ele>68.13</ele>
        <time>2025-02-02T20:41:41.518Z</time>
      </trkpt>
      <trkpt lat="59.38074795529246" lon="13.381921984255314">
        <ele>68.4</ele>
        <time>2025-02-02T20:41:43.195Z</time>
      </trkpt>
      <trkpt lat="59.38078994862735" lon="13.381861969828606">
        <ele>68.66</ele>
        <time>2025-02-02T20:41:44.873Z</time>
      </trkpt>
      <trkpt lat="59.38083294779062" lon="13.381801955401897">
        <ele>68.92</ele>
        <time>2025-02-02T20:41:46.552Z</time>
      </trkpt>
      <trkpt lat="59.38087494112551" lon="13.381737917661667">
        <ele>69.19</ele>
        <time>2025-02-02T20:41:48.232Z</time>
      </trkpt>
      <trkpt lat="59.38090695999563" lon="13.381668934598565">
        <ele>69.45</ele>
        <time>2025-02-02T20:41:49.913Z</time>
      </trkpt>
      <trkpt lat="59.38093696720898" lon="13.38159391656518">
        <ele>69.72</ele>
        <time>2025-02-02T20:41:51.594Z</time>
      </trkpt>
      <trkpt lat="59.38096194528043" lon="13.381506996229291">
        <ele>69.98</ele>
        <time>2025-02-02T20:41:53.276Z</time>
      </trkpt>
      <trkpt lat="59.38098197802901" lon="13.381411945447326">
        <ele>70.25</ele>
        <time>2025-02-02T20:41:54.959Z</time>
      </trkpt>
      <trkpt lat="59.38099798746407" lon="13.381308931857347">
        <ele>70.52</ele>
        <time>2025-02-02T20:41:56.643Z</time>
      </trkpt>
      <trkpt lat="59.38101198524237" lon="13.381200972944498">
        <ele>70.78</ele>
        <time>2025-02-02T20:41:58.328Z</time>
      </trkpt>
      <trkpt lat="59.38102598302066" lon="13.381092930212617">
        <ele>71.04</ele>
        <time>2025-02-02T20:42:00.014Z</time>
      </trkpt>
      <trkpt lat="59.38103696331382" lon="13.380981953814626">
        <ele>71.31</ele>
        <time>2025-02-02T20:42:01.701Z</time>
      </trkpt>
      <trkpt lat="59.38104894943535" lon="13.380869971588254">
        <ele>71.57</ele>
        <time>2025-02-02T20:42:03.389Z</time>
      </trkpt>
      <trkpt lat="59.38106294721365" lon="13.380759917199612">
        <ele>71.84</ele>
        <time>2025-02-02T20:42:05.077Z</time>
      </trkpt>
      <trkpt lat="59.381075939163566" lon="13.380653969943523">
        <ele>72.11</ele>
        <time>2025-02-02T20:42:06.766Z</time>
      </trkpt>
      <trkpt lat="59.381093960255384" lon="13.380545927211642">
        <ele>72.37</ele>
        <time>2025-02-02T20:42:08.456Z</time>
      </trkpt>
      <trkpt lat="59.38110795803368" lon="13.380441991612315">
        <ele>72.64</ele>
        <time>2025-02-02T20:42:10.147Z</time>
      </trkpt>
      <trkpt lat="59.3811209499836" lon="13.380344929173589">
        <ele>72.9</ele>
        <time>2025-02-02T20:42:11.839Z</time>
      </trkpt>
      <trkpt lat="59.381135953590274" lon="13.380254991352558">
        <ele>73.16</ele>
        <time>2025-02-02T20:42:13.532Z</time>
      </trkpt>
      <trkpt lat="59.38114995136857" lon="13.380167987197638">
        <ele>73.43</ele>
        <time>2025-02-02T20:42:15.226Z</time>
      </trkpt>
      <trkpt lat="59.38116394914687" lon="13.380084922537208">
        <ele>73.69</ele>
        <time>2025-02-02T20:42:16.920Z</time>
      </trkpt>
      <trkpt lat="59.38117794692516" lon="13.380000935867429">
        <ele>73.95</ele>
        <time>2025-02-02T20:42:18.615Z</time>
      </trkpt>
      <trkpt lat="59.3811899330467" lon="13.37991594336927">
        <ele>74.21</ele>
        <time>2025-02-02T20:42:20.311Z</time>
      </trkpt>
      <trkpt lat="59.381200997158885" lon="13.37983095087111">
        <ele>74.48</ele>
        <time>2025-02-02T20:42:22.007Z</time>
      </trkpt>
      <trkpt lat="59.38120996579528" lon="13.37974595837295">
        <ele>74.74</ele>
        <time>2025-02-02T20:42:23.704Z</time>
      </trkpt>
      <trkpt lat="59.38121591694653" lon="13.379660965874791">
        <ele>75.01</ele>
        <time>2025-02-02T20:42:25.402Z</time>
      </trkpt>
      <trkpt lat="59.381221951916814" lon="13.379574967548251">
        <ele>75.27</ele>
        <time>2025-02-02T20:42:27.101Z</time>
      </trkpt>
      <trkpt lat="59.3812279868871" lon="13.37948595173657">
        <ele>75.53</ele>
        <time>2025-02-02T20:42:28.800Z</time>
      </trkpt>
      <trkpt lat="59.38123293220997" lon="13.379395930096507">
        <ele>75.79</ele>
        <time>2025-02-02T20:42:30.500Z</time>
      </trkpt>
      <trkpt lat="59.38123796135187" lon="13.379302974790335">
        <ele>76.05</ele>
        <time>2025-02-02T20:42:32.201Z</time>
      </trkpt>
      <trkpt lat="59.381241984665394" lon="13.37920499034226">
        <ele>76.31</ele>
        <time>2025-02-02T20:42:33.903Z</time>
      </trkpt>
      <trkpt lat="59.38125195913017" lon="13.379108933731914">
        <ele>76.57</ele>
        <time>2025-02-02T20:42:35.605Z</time>
      </trkpt>
      <trkpt lat="59.381264951080084" lon="13.37901497259736">
        <ele>76.83</ele>
        <time>2025-02-02T20:42:37.308Z</time>
      </trkpt>
      <trkpt lat="59.38128397800028" lon="13.378921933472157">
        <ele>77.08</ele>
        <time>2025-02-02T20:42:39.012Z</time>
      </trkpt>
      <trkpt lat="59.38130292110145" lon="13.378832917660475">
        <ele>77.34</ele>
        <time>2025-02-02T20:42:40.717Z</time>
      </trkpt>
      <trkpt lat="59.38132395967841" lon="13.378741974011064">
        <ele>77.6</ele>
        <time>2025-02-02T20:42:42.423Z</time>
      </trkpt>
      <trkpt lat="59.3813469260931" lon="13.378643989562988">
        <ele>77.85</ele>
        <time>2025-02-02T20:42:44.129Z</time>
      </trkpt>
      <trkpt lat="59.381374921649694" lon="13.37854097597301">
        <ele>78.11</ele>
        <time>2025-02-02T20:42:45.836Z</time>
      </trkpt>
      <trkpt lat="59.38140098936856" lon="13.378426982089877">
        <ele>78.36</ele>
        <time>2025-02-02T20:42:47.544Z</time>
      </trkpt>
      <trkpt lat="59.38142496161163" lon="13.3783049415797">
        <ele>78.61</ele>
        <time>2025-02-02T20:42:49.254Z</time>
      </trkpt>
      <trkpt lat="59.38144692219794" lon="13.37817594408989">
        <ele>78.86</ele>
        <time>2025-02-02T20:42:50.965Z</time>
      </trkpt>
      <trkpt lat="59.38146594911814" lon="13.378045940771699">
        <ele>79.12</ele>
        <time>2025-02-02T20:42:52.677Z</time>
      </trkpt>
      <trkpt lat="59.381479946896434" lon="13.377914931625128">
        <ele>79.37</ele>
        <time>2025-02-02T20:42:54.390Z</time>
      </trkpt>
      <trkpt lat="59.38148992136121" lon="13.377782916650176">
        <ele>79.62</ele>
        <time>2025-02-02T20:42:56.104Z</time>
      </trkpt>
      <trkpt lat="59.381499979645014" lon="13.377653919160366">
        <ele>79.87</ele>
        <time>2025-02-02T20:42:57.819Z</time>
      </trkpt>
      <trkpt lat="59.38151095993817" lon="13.377526933327317">
        <ele>80.12</ele>
        <time>2025-02-02T20:42:59.535Z</time>
      </trkpt>
      <trkpt lat="59.381523951888084" lon="13.377396930009127">
        <ele>80.36</ele>
        <time>2025-02-02T20:43:01.252Z</time>
      </trkpt>
      <trkpt lat="59.38153895549476" lon="13.377264998853207">
        <ele>80.6</ele>
        <time>2025-02-02T20:43:02.970Z</time>
      </trkpt>
      <trkpt lat="59.38155194744468" lon="13.377127954736352">
        <ele>80.84</ele>
        <time>2025-02-02T20:43:04.689Z</time>
      </trkpt>
      <trkpt lat="59.38156393356621" lon="13.376981941983104">
        <ele>81.09</ele>
        <time>2025-02-02T20:43:06.410Z</time>
      </trkpt>
      <trkpt lat="59.38157692551613" lon="13.376832995563745">
        <ele>81.33</ele>
        <time>2025-02-02T20:43:08.132Z</time>
      </trkpt>
      <trkpt lat="59.381592934951186" lon="13.376681953668594">
        <ele>81.56</ele>
        <time>2025-02-02T20:43:09.855Z</time>
      </trkpt>
      <trkpt lat="59.38160693272948" lon="13.376529989764094">
        <ele>81.79</ele>
        <time>2025-02-02T20:43:11.579Z</time>
      </trkpt>
      <trkpt lat="59.38162093050778" lon="13.376378947868943">
        <ele>82.02</ele>
        <time>2025-02-02T20:43:13.305Z</time>
      </trkpt>
      <trkpt lat="59.381632916629314" lon="13.376224972307682">
        <ele>82.25</ele>
        <time>2025-02-02T20:43:15.032Z</time>
      </trkpt>
      <trkpt lat="59.38164599239826" lon="13.37607292458415">
        <ele>82.48</ele>
        <time>2025-02-02T20:43:16.760Z</time>
      </trkpt>
      <trkpt lat="59.38166099600494" lon="13.375925989821553">
        <ele>82.71</ele>
        <time>2025-02-02T20:43:18.489Z</time>
      </trkpt>
      <trkpt lat="59.381674993783236" lon="13.375778971239924">
        <ele>82.93</ele>
        <time>2025-02-02T20:43:20.220Z</time>
      </trkpt>
      <trkpt lat="59.38168999738991" lon="13.375635975971818">
        <ele>83.15</ele>
        <time>2025-02-02T20:43:21.952Z</time>
      </trkpt>
      <trkpt lat="59.38170198351145" lon="13.375493986532092">
        <ele>83.37</ele>
        <time>2025-02-02T20:43:23.685Z</time>
      </trkpt>
      <trkpt lat="59.381715981289744" lon="13.375351997092366">
        <ele>83.6</ele>
        <time>2025-02-02T20:43:25.419Z</time>
      </trkpt>
      <trkpt lat="59.38172997906804" lon="13.375215958803892">
        <ele>83.82</ele>
        <time>2025-02-02T20:43:27.154Z</time>
      </trkpt>
      <trkpt lat="59.38174397684634" lon="13.375084949657321">
        <ele>84.04</ele>
        <time>2025-02-02T20:43:28.890Z</time>
      </trkpt>
      <trkpt lat="59.381757974624634" lon="13.374957963824272">
        <ele>84.25</ele>
        <time>2025-02-02T20:43:30.627Z</time>
      </trkpt>
      <trkpt lat="59.38177398405969" lon="13.374833995476365">
        <ele>84.46</ele>
        <time>2025-02-02T20:43:32.365Z</time>
      </trkpt>
      <trkpt lat="59.38178898766637" lon="13.374711954966187">
        <ele>84.67</ele>
        <time>2025-02-02T20:43:34.105Z</time>
      </trkpt>
      <trkpt lat="59.381801979616284" lon="13.374584969133139">
        <ele>84.88</ele>
        <time>2025-02-02T20:43:35.846Z</time>
      </trkpt>
      <trkpt lat="59.3818149715662" lon="13.374451948329806">
        <ele>85.09</ele>
        <time>2025-02-02T20:43:37.588Z</time>
      </trkpt>
      <trkpt lat="59.3818289693445" lon="13.374320939183235">
        <ele>85.29</ele>
        <time>2025-02-02T20:43:39.331Z</time>
      </trkpt>
      <trkpt lat="59.38184196129441" lon="13.374191941693425">
        <ele>85.49</ele>
        <time>2025-02-02T20:43:41.075Z</time>
      </trkpt>
      <trkpt lat="59.38185495324433" lon="13.374065961688757">
        <ele>85.69</ele>
        <time>2025-02-02T20:43:42.820Z</time>
      </trkpt>
      <trkpt lat="59.3818649277091" lon="13.37394392117858">
        <ele>85.88</ele>
        <time>2025-02-02T20:43:44.566Z</time>
      </trkpt>
      <trkpt lat="59.38187398016453" lon="13.373824981972575">
        <ele>86.08</ele>
        <time>2025-02-02T20:43:46.313Z</time>
      </trkpt>
      <trkpt lat="59.38188194297254" lon="13.373704953119159">
        <ele>86.27</ele>
        <time>2025-02-02T20:43:48.061Z</time>
      </trkpt>
      <trkpt lat="59.381890995427966" lon="13.373587941750884">
        <ele>86.45</ele>
        <time>2025-02-02T20:43:49.810Z</time>
      </trkpt>
      <trkpt lat="59.3818979524076" lon="13.37347093038261">
        <ele>86.63</ele>
        <time>2025-02-02T20:43:51.560Z</time>
      </trkpt>
      <trkpt lat="59.3819029815495" lon="13.373352997004986">
        <ele>86.81</ele>
        <time>2025-02-02T20:43:53.311Z</time>
      </trkpt>
      <trkpt lat="59.38190599903464" lon="13.37323296815157">
        <ele>86.98</ele>
        <time>2025-02-02T20:43:55.063Z</time>
      </trkpt>
      <trkpt lat="59.38190599903464" lon="13.373114950954914">
        <ele>87.16</ele>
        <time>2025-02-02T20:43:56.816Z</time>
      </trkpt>
      <trkpt lat="59.3819029815495" lon="13.372996933758259">
        <ele>87.33</ele>
        <time>2025-02-02T20:43:58.570Z</time>
      </trkpt>
      <trkpt lat="59.3818979524076" lon="13.372877994552255">
        <ele>87.5</ele>
        <time>2025-02-02T20:44:00.325Z</time>
      </trkpt>
      <trkpt lat="59.381892923265696" lon="13.372758971527219">
        <ele>87.67</ele>
        <time>2025-02-02T20:44:02.081Z</time>
      </trkpt>
      <trkpt lat="59.381886972114444" lon="13.372639948502183">
        <ele>87.83</ele>
        <time>2025-02-02T20:44:03.838Z</time>
      </trkpt>
      <trkpt lat="59.38188093714416" lon="13.372522937133908">
        <ele>87.99</ele>
        <time>2025-02-02T20:44:05.596Z</time>
      </trkpt>
      <trkpt lat="59.38187498599291" lon="13.372408943250775">
        <ele>88.15</ele>
        <time>2025-02-02T20:44:07.355Z</time>
      </trkpt>
      <trkpt lat="59.381867945194244" lon="13.372294949367642">
        <ele>88.3</ele>
        <time>2025-02-02T20:44:09.114Z</time>
      </trkpt>
      <trkpt lat="59.38185897655785" lon="13.37218196131289">
        <ele>88.45</ele>
        <time>2025-02-02T20:44:10.874Z</time>
      </trkpt>
      <trkpt lat="59.381846990436316" lon="13.372069979086518">
        <ele>88.6</ele>
        <time>2025-02-02T20:44:12.635Z</time>
      </trkpt>
      <trkpt lat="59.38183098100126" lon="13.371959924697876">
        <ele>88.74</ele>
        <time>2025-02-02T20:44:14.397Z</time>
      </trkpt>
      <trkpt lat="59.38181094825268" lon="13.371853977441788">
        <ele>88.88</ele>
        <time>2025-02-02T20:44:16.160Z</time>
      </trkpt>
      <trkpt lat="59.38178999349475" lon="13.37175096385181">
        <ele>89.01</ele>
        <time>2025-02-02T20:44:17.924Z</time>
      </trkpt>
      <trkpt lat="59.38176895491779" lon="13.371652979403734">
        <ele>89.13</ele>
        <time>2025-02-02T20:44:19.689Z</time>
      </trkpt>
      <trkpt lat="59.38175093382597" lon="13.371554994955659">
        <ele>89.26</ele>
        <time>2025-02-02T20:44:21.455Z</time>
      </trkpt>
      <trkpt lat="59.381737941876054" lon="13.371456926688552">
        <ele>89.38</ele>
        <time>2025-02-02T20:44:23.222Z</time>
      </trkpt>
      <trkpt lat="59.3817319907248" lon="13.371359948068857">
        <ele>89.5</ele>
        <time>2025-02-02T20:44:24.989Z</time>
      </trkpt>
      <trkpt lat="59.38173492439091" lon="13.371260957792401">
        <ele>89.61</ele>
        <time>2025-02-02T20:44:26.757Z</time>
      </trkpt>
      <trkpt lat="59.38174699433148" lon="13.371163979172707">
        <ele>89.72</ele>
        <time>2025-02-02T20:44:28.526Z</time>
      </trkpt>
      <trkpt lat="59.381763925775886" lon="13.37106691673398">
        <ele>89.83</ele>
        <time>2025-02-02T20:44:30.296Z</time>
      </trkpt>
      <trkpt lat="59.381782952696085" lon="13.370968932285905">
        <ele>89.94</ele>
        <time>2025-02-02T20:44:32.067Z</time>
      </trkpt>
      <trkpt lat="59.381803991273046" lon="13.370869942009449">
        <ele>90.04</ele>
        <time>2025-02-02T20:44:33.839Z</time>
      </trkpt>
      <trkpt lat="59.381825951859355" lon="13.370772963389754">
        <ele>90.14</ele>
        <time>2025-02-02T20:44:35.612Z</time>
      </trkpt>
      <trkpt lat="59.381849924102426" lon="13.370674978941679">
        <ele>90.23</ele>
        <time>2025-02-02T20:44:37.385Z</time>
      </trkpt>
      <trkpt lat="59.38187498599291" lon="13.370575988665223">
        <ele>90.33</ele>
        <time>2025-02-02T20:44:39.159Z</time>
      </trkpt>
      <trkpt lat="59.38189996406436" lon="13.370478926226497">
        <ele>90.42</ele>
        <time>2025-02-02T20:44:40.934Z</time>
      </trkpt>
      <trkpt lat="59.38192594796419" lon="13.370381947606802">
        <ele>90.51</ele>
        <time>2025-02-02T20:44:42.710Z</time>
      </trkpt>
      <trkpt lat="59.381953943520784" lon="13.370286980643868">
        <ele>90.6</ele>
        <time>2025-02-02T20:44:44.487Z</time>
      </trkpt>
      <trkpt lat="59.38198897987604" lon="13.370196959003806">
        <ele>90.68</ele>
        <time>2025-02-02T20:44:46.265Z</time>
      </trkpt>
      <trkpt lat="59.38202694989741" lon="13.370114983990788">
        <ele>90.76</ele>
        <time>2025-02-02T20:44:48.044Z</time>
      </trkpt>
      <trkpt lat="59.382065925747156" lon="13.3700349368155">
        <ele>90.84</ele>
        <time>2025-02-02T20:44:49.824Z</time>
      </trkpt>
      <trkpt lat="59.382101967930794" lon="13.369952961802483">
        <ele>90.91</ele>
        <time>2025-02-02T20:44:51.605Z</time>
      </trkpt>
      <trkpt lat="59.3821379262954" lon="13.369865957647562">
        <ele>90.98</ele>
        <time>2025-02-02T20:44:53.387Z</time>
      </trkpt>
      <trkpt lat="59.382170950993896" lon="13.369771996513009">
        <ele>91.06</ele>
        <time>2025-02-02T20:44:55.169Z</time>
      </trkpt>
      <trkpt lat="59.38219894655049" lon="13.36966898292303">
        <ele>91.12</ele>
        <time>2025-02-02T20:44:56.952Z</time>
      </trkpt>
      <trkpt lat="59.38222493045032" lon="13.369558928534389">
        <ele>91.18</ele>
        <time>2025-02-02T20:44:58.736Z</time>
      </trkpt>
      <trkpt lat="59.3822449631989" lon="13.369445940479636">
        <ele>91.24</ele>
        <time>2025-02-02T20:45:00.521Z</time>
      </trkpt>
      <trkpt lat="59.38226197846234" lon="13.369332952424884">
        <ele>91.3</ele>
        <time>2025-02-02T20:45:02.307Z</time>
      </trkpt>
      <trkpt lat="59.38228192739189" lon="13.36921795271337">
        <ele>91.36</ele>
        <time>2025-02-02T20:45:04.094Z</time>
      </trkpt>
      <trkpt lat="59.382297936826944" lon="13.369104964658618">
        <ele>91.41</ele>
        <time>2025-02-02T20:45:05.882Z</time>
      </trkpt>
      <trkpt lat="59.38231495209038" lon="13.368991976603866">
        <ele>91.46</ele>
        <time>2025-02-02T20:45:07.671Z</time>
      </trkpt>
      <trkpt lat="59.38233397901058" lon="13.368875971063972">
        <ele>91.51</ele>
        <time>2025-02-02T20:45:09.461Z</time>
      </trkpt>
      <trkpt lat="59.38235292211175" lon="13.368755942210555">
        <ele>91.55</ele>
        <time>2025-02-02T20:45:11.252Z</time>
      </trkpt>
      <trkpt lat="59.38237194903195" lon="13.36863499134779">
        <ele>91.6</ele>
        <time>2025-02-02T20:45:13.044Z</time>
      </trkpt>
      <trkpt lat="59.38238896429539" lon="13.368513956665993">
        <ele>91.63</ele>
        <time>2025-02-02T20:45:14.837Z</time>
      </trkpt>
      <trkpt lat="59.38240899704397" lon="13.368391999974847">
        <ele>91.67</ele>
        <time>2025-02-02T20:45:16.631Z</time>
      </trkpt>
      <trkpt lat="59.382426934316754" lon="13.368266941979527">
        <ele>91.71</ele>
        <time>2025-02-02T20:45:18.427Z</time>
      </trkpt>
      <trkpt lat="59.382445961236954" lon="13.368139956146479">
        <ele>91.74</ele>
        <time>2025-02-02T20:45:20.224Z</time>
      </trkpt>
      <trkpt lat="59.38246398232877" lon="13.36801196448505">
        <ele>91.77</ele>
        <time>2025-02-02T20:45:22.022Z</time>
      </trkpt>
      <trkpt lat="59.38248292542994" lon="13.367885984480381">
        <ele>91.8</ele>
        <time>2025-02-02T20:45:23.821Z</time>
      </trkpt>
      <trkpt lat="59.38250295817852" lon="13.367758998647332">
        <ele>91.82</ele>
        <time>2025-02-02T20:45:25.621Z</time>
      </trkpt>
      <trkpt lat="59.38252097927034" lon="13.367628995329142">
        <ele>91.84</ele>
        <time>2025-02-02T20:45:27.422Z</time>
      </trkpt>
      <trkpt lat="59.38253992237151" lon="13.36749798618257">
        <ele>91.86</ele>
        <time>2025-02-02T20:45:29.224Z</time>
      </trkpt>
      <trkpt lat="59.382555931806564" lon="13.367366977036">
        <ele>91.88</ele>
        <time>2025-02-02T20:45:31.027Z</time>
      </trkpt>
      <trkpt lat="59.38257194124162" lon="13.367231944575906">
        <ele>91.9</ele>
        <time>2025-02-02T20:45:32.831Z</time>
      </trkpt>
      <trkpt lat="59.38258795067668" lon="13.367098923772573">
        <ele>91.91</ele>
        <time>2025-02-02T20:45:34.636Z</time>
      </trkpt>
      <trkpt lat="59.38260496594012" lon="13.366964980959892">
        <ele>91.92</ele>
        <time>2025-02-02T20:45:36.443Z</time>
      </trkpt>
      <trkpt lat="59.382619969546795" lon="13.366822991520166">
        <ele>91.94</ele>
        <time>2025-02-02T20:45:38.251Z</time>
      </trkpt>
      <trkpt lat="59.38263497315347" lon="13.366676978766918">
        <ele>91.94</ele>
        <time>2025-02-02T20:45:40.060Z</time>
      </trkpt>
      <trkpt lat="59.38264997676015" lon="13.366525936871767">
        <ele>91.95</ele>
        <time>2025-02-02T20:45:41.870Z</time>
      </trkpt>
      <trkpt lat="59.38266699202359" lon="13.366378918290138">
        <ele>91.95</ele>
        <time>2025-02-02T20:45:43.681Z</time>
      </trkpt>
      <trkpt lat="59.382685935124755" lon="13.366231983527541">
        <ele>91.96</ele>
        <time>2025-02-02T20:45:45.494Z</time>
      </trkpt>
      <trkpt lat="59.38270093873143" lon="13.36608194746077">
        <ele>91.96</ele>
        <time>2025-02-02T20:45:47.308Z</time>
      </trkpt>
      <trkpt lat="59.38271795399487" lon="13.36592797189951">
        <ele>91.95</ele>
        <time>2025-02-02T20:45:49.123Z</time>
      </trkpt>
      <trkpt lat="59.38273295760155" lon="13.365772990509868">
        <ele>91.95</ele>
        <time>2025-02-02T20:45:50.940Z</time>
      </trkpt>
      <trkpt lat="59.382746955379844" lon="13.365614991635084">
        <ele>91.95</ele>
        <time>2025-02-02T20:45:52.758Z</time>
      </trkpt>
      <trkpt lat="59.3827629648149" lon="13.36545892059803">
        <ele>91.95</ele>
        <time>2025-02-02T20:45:54.577Z</time>
      </trkpt>
      <trkpt lat="59.38277897424996" lon="13.365302933380008">
        <ele>91.94</ele>
        <time>2025-02-02T20:45:56.397Z</time>
      </trkpt>
      <trkpt lat="59.3827959895134" lon="13.365150969475508">
        <ele>91.94</ele>
        <time>2025-02-02T20:45:58.219Z</time>
      </trkpt>
      <trkpt lat="59.382812920957804" lon="13.365000933408737">
        <ele>91.93</ele>
        <time>2025-02-02T20:46:00.042Z</time>
      </trkpt>
      <trkpt lat="59.38282893039286" lon="13.36485299281776">
        <ele>91.92</ele>
        <time>2025-02-02T20:46:01.866Z</time>
      </trkpt>
      <trkpt lat="59.38284493982792" lon="13.364706980064511">
        <ele>91.9</ele>
        <time>2025-02-02T20:46:03.691Z</time>
      </trkpt>
      <trkpt lat="59.382857931777835" lon="13.364563984796405">
        <ele>91.89</ele>
        <time>2025-02-02T20:46:05.518Z</time>
      </trkpt>
      <trkpt lat="59.38287293538451" lon="13.364421995356679">
        <ele>91.87</ele>
        <time>2025-02-02T20:46:07.346Z</time>
      </trkpt>
      <trkpt lat="59.38288592733443" lon="13.364279922097921">
        <ele>91.84</ele>
        <time>2025-02-02T20:46:09.175Z</time>
      </trkpt>
      <trkpt lat="59.382898919284344" lon="13.364134998992085">
        <ele>91.82</ele>
        <time>2025-02-02T20:46:11.005Z</time>
      </trkpt>
      <trkpt lat="59.38291098922491" lon="13.363991919904947">
        <ele>91.81</ele>
        <time>2025-02-02T20:46:12.836Z</time>
      </trkpt>
      <trkpt lat="59.382922975346446" lon="13.36384892463684">
        <ele>91.78</ele>
        <time>2025-02-02T20:46:14.669Z</time>
      </trkpt>
      <trkpt lat="59.38293496146798" lon="13.363704923540354">
        <ele>91.76</ele>
        <time>2025-02-02T20:46:16.503Z</time>
      </trkpt>
      <trkpt lat="59.38294694758952" lon="13.363560922443867">
        <ele>91.73</ele>
        <time>2025-02-02T20:46:18.338Z</time>
      </trkpt>
      <trkpt lat="59.38295893371105" lon="13.36341499350965">
        <ele>91.7</ele>
        <time>2025-02-02T20:46:20.174Z</time>
      </trkpt>
      <trkpt lat="59.38296999782324" lon="13.36326696909964">
        <ele>91.67</ele>
        <time>2025-02-02T20:46:22.011Z</time>
      </trkpt>
      <trkpt lat="59.382981983944774" lon="13.363119950518012">
        <ele>91.64</ele>
        <time>2025-02-02T20:46:23.850Z</time>
      </trkpt>
      <trkpt lat="59.38299497589469" lon="13.362973937764764">
        <ele>91.61</ele>
        <time>2025-02-02T20:46:25.690Z</time>
      </trkpt>
      <trkpt lat="59.383005956187844" lon="13.362823985517025">
        <ele>91.58</ele>
        <time>2025-02-02T20:46:27.531Z</time>
      </trkpt>
      <trkpt lat="59.38301794230938" lon="13.362671937793493">
        <ele>91.54</ele>
        <time>2025-02-02T20:46:29.373Z</time>
      </trkpt>
      <trkpt lat="59.383029928430915" lon="13.362519973888993">
        <ele>91.51</ele>
        <time>2025-02-02T20:46:31.217Z</time>
      </trkpt>
      <trkpt lat="59.38304292038083" lon="13.362364992499352">
        <ele>91.47</ele>
        <time>2025-02-02T20:46:33.062Z</time>
      </trkpt>
      <trkpt lat="59.38305691815913" lon="13.362209927290678">
        <ele>91.43</ele>
        <time>2025-02-02T20:46:34.908Z</time>
      </trkpt>
      <trkpt lat="59.383070999756455" lon="13.362054945901036">
        <ele>91.39</ele>
        <time>2025-02-02T20:46:36.755Z</time>
      </trkpt>
      <trkpt lat="59.38308399170637" lon="13.361895941197872">
        <ele>91.35</ele>
        <time>2025-02-02T20:46:38.604Z</time>
      </trkpt>
      <trkpt lat="59.38309899531305" lon="13.361734924837947">
        <ele>91.31</ele>
        <time>2025-02-02T20:46:40.454Z</time>
      </trkpt>
      <trkpt lat="59.383114920929074" lon="13.361575920134783">
        <ele>91.28</ele>
        <time>2025-02-02T20:46:42.305Z</time>
      </trkpt>
      <trkpt lat="59.38313193619251" lon="13.36141599342227">
        <ele>91.23</ele>
        <time>2025-02-02T20:46:44.158Z</time>
      </trkpt>
      <trkpt lat="59.38314995728433" lon="13.361256988719106">
        <ele>91.19</ele>
        <time>2025-02-02T20:46:46.012Z</time>
      </trkpt>
      <trkpt lat="59.38316797837615" lon="13.361098989844322">
        <ele>91.14</ele>
        <time>2025-02-02T20:46:47.867Z</time>
      </trkpt>
      <trkpt lat="59.38318692147732" lon="13.36094199679792">
        <ele>91.09</ele>
        <time>2025-02-02T20:46:49.724Z</time>
      </trkpt>
      <trkpt lat="59.38320594839752" lon="13.360786931589246">
        <ele>91.05</ele>
        <time>2025-02-02T20:46:51.582Z</time>
      </trkpt>
      <trkpt lat="59.383222963660955" lon="13.360627926886082">
        <ele>91.0</ele>
        <time>2025-02-02T20:46:53.441Z</time>
      </trkpt>
      <trkpt lat="59.383239978924394" lon="13.360469928011298">
        <ele>90.95</ele>
        <time>2025-02-02T20:46:55.302Z</time>
      </trkpt>
      <trkpt lat="59.38325892202556" lon="13.360311929136515">
        <ele>90.9</ele>
        <time>2025-02-02T20:46:57.164Z</time>
      </trkpt>
      <trkpt lat="59.38327694311738" lon="13.360153930261731">
        <ele>90.85</ele>
        <time>2025-02-02T20:46:59.027Z</time>
      </trkpt>
      <trkpt lat="59.38329597003758" lon="13.359996937215328">
        <ele>90.81</ele>
        <time>2025-02-02T20:47:00.892Z</time>
      </trkpt>
      <trkpt lat="59.38331692479551" lon="13.359840949997306">
        <ele>90.76</ele>
        <time>2025-02-02T20:47:02.758Z</time>
      </trkpt>
      <trkpt lat="59.38334098085761" lon="13.359684962779284">
        <ele>90.71</ele>
        <time>2025-02-02T20:47:04.625Z</time>
      </trkpt>
      <trkpt lat="59.38336797058582" lon="13.359532998874784">
        <ele>90.66</ele>
        <time>2025-02-02T20:47:06.494Z</time>
      </trkpt>
      <trkpt lat="59.383393954485655" lon="13.359380951151252">
        <ele>90.61</ele>
        <time>2025-02-02T20:47:08.364Z</time>
      </trkpt>
      <trkpt lat="59.38342094421387" lon="13.35922697558999">
        <ele>90.56</ele>
        <time>2025-02-02T20:47:10.235Z</time>
      </trkpt>
      <trkpt lat="59.3834469281137" lon="13.359065959230065">
        <ele>90.51</ele>
        <time>2025-02-02T20:47:12.108Z</time>
      </trkpt>
      <trkpt lat="59.38347299583256" lon="13.35890494287014">
        <ele>90.46</ele>
        <time>2025-02-02T20:47:13.982Z</time>
      </trkpt>
      <trkpt lat="59.383499985560775" lon="13.358740992844105">
        <ele>90.41</ele>
        <time>2025-02-02T20:47:15.857Z</time>
      </trkpt>
      <trkpt lat="59.383524963632226" lon="13.358578970655799">
        <ele>90.36</ele>
        <time>2025-02-02T20:47:17.734Z</time>
      </trkpt>
      <trkpt lat="59.38354994170368" lon="13.358417954295874">
        <ele>90.31</ele>
        <time>2025-02-02T20:47:19.612Z</time>
      </trkpt>
      <trkpt lat="59.38357198610902" lon="13.358255932107568">
        <ele>90.26</ele>
        <time>2025-02-02T20:47:21.492Z</time>
      </trkpt>
      <trkpt lat="59.383590929210186" lon="13.358096927404404">
        <ele>90.2</ele>
        <time>2025-02-02T20:47:23.373Z</time>
      </trkpt>
      <trkpt lat="59.383607944473624" lon="13.357936916872859">
        <ele>90.15</ele>
        <time>2025-02-02T20:47:25.255Z</time>
      </trkpt>
      <trkpt lat="59.3836229480803" lon="13.357777995988727">
        <ele>90.09</ele>
        <time>2025-02-02T20:47:27.139Z</time>
      </trkpt>
      <trkpt lat="59.3836369458586" lon="13.357616979628801">
        <ele>90.03</ele>
        <time>2025-02-02T20:47:29.024Z</time>
      </trkpt>
      <trkpt lat="59.38364893198013" lon="13.357456969097257">
        <ele>89.98</ele>
        <time>2025-02-02T20:47:30.910Z</time>
      </trkpt>
      <trkpt lat="59.38365999609232" lon="13.357298970222473">
        <ele>89.93</ele>
        <time>2025-02-02T20:47:32.798Z</time>
      </trkpt>
      <trkpt lat="59.383670976385474" lon="13.357137953862548">
        <ele>89.87</ele>
        <time>2025-02-02T20:47:34.687Z</time>
      </trkpt>
      <trkpt lat="59.38368195667863" lon="13.356978949159384">
        <ele>89.82</ele>
        <time>2025-02-02T20:47:36.577Z</time>
      </trkpt>
      <trkpt lat="59.383692936971784" lon="13.356818938627839">
        <ele>89.77</ele>
        <time>2025-02-02T20:47:38.469Z</time>
      </trkpt>
      <trkpt lat="59.38370492309332" lon="13.356661945581436">
        <ele>89.71</ele>
        <time>2025-02-02T20:47:40.362Z</time>
      </trkpt>
      <trkpt lat="59.383715987205505" lon="13.356507970020175">
        <ele>89.66</ele>
        <time>2025-02-02T20:47:42.256Z</time>
      </trkpt>
      <trkpt lat="59.38372696749866" lon="13.356353994458914">
        <ele>89.61</ele>
        <time>2025-02-02T20:47:44.151Z</time>
      </trkpt>
      <trkpt lat="59.383737947791815" lon="13.356200940907001">
        <ele>89.56</ele>
        <time>2025-02-02T20:47:46.048Z</time>
      </trkpt>
      <trkpt lat="59.38375194557011" lon="13.356050988659263">
        <ele>89.51</ele>
        <time>2025-02-02T20:47:47.946Z</time>
      </trkpt>
      <trkpt lat="59.38376795500517" lon="13.355900952592492">
        <ele>89.45</ele>
        <time>2025-02-02T20:47:49.845Z</time>
      </trkpt>
      <trkpt lat="59.38378396444023" lon="13.355747982859612">
        <ele>89.4</ele>
        <time>2025-02-02T20:47:51.745Z</time>
      </trkpt>
      <trkpt lat="59.383799973875284" lon="13.355592917650938">
        <ele>89.34</ele>
        <time>2025-02-02T20:47:53.647Z</time>
      </trkpt>
      <trkpt lat="59.38381598331034" lon="13.355438942089677">
        <ele>89.29</ele>
        <time>2025-02-02T20:47:55.550Z</time>
      </trkpt>
      <trkpt lat="59.38383392058313" lon="13.355284966528416">
        <ele>89.23</ele>
        <time>2025-02-02T20:47:57.454Z</time>
      </trkpt>
      <trkpt lat="59.38385194167495" lon="13.355129985138774">
        <ele>89.17</ele>
        <time>2025-02-02T20:47:59.360Z</time>
      </trkpt>
      <trkpt lat="59.383866945281625" lon="13.35497198626399">
        <ele>89.12</ele>
        <time>2025-02-02T20:48:01.267Z</time>
      </trkpt>
      <trkpt lat="59.38388295471668" lon="13.354811975732446">
        <ele>89.07</ele>
        <time>2025-02-02T20:48:03.175Z</time>
      </trkpt>
      <trkpt lat="59.38390198163688" lon="13.354654982686043">
        <ele>89.02</ele>
        <time>2025-02-02T20:48:05.085Z</time>
      </trkpt>
      <trkpt lat="59.38391899690032" lon="13.35449899546802">
        <ele>88.97</ele>
        <time>2025-02-02T20:48:06.996Z</time>
      </trkpt>
      <trkpt lat="59.38393592834473" lon="13.354341918602586">
        <ele>88.92</ele>
        <time>2025-02-02T20:48:08.908Z</time>
      </trkpt>
      <trkpt lat="59.383951937779784" lon="13.354185931384563">
        <ele>88.87</ele>
        <time>2025-02-02T20:48:10.821Z</time>
      </trkpt>
      <trkpt lat="59.38396593555808" lon="13.354029944166541">
        <ele>88.82</ele>
        <time>2025-02-02T20:48:12.736Z</time>
      </trkpt>
      <trkpt lat="59.38398093916476" lon="13.353870939463377">
        <ele>88.77</ele>
        <time>2025-02-02T20:48:14.652Z</time>
      </trkpt>
      <trkpt lat="59.383996948599815" lon="13.353715958073735">
        <ele>88.72</ele>
        <time>2025-02-02T20:48:16.569Z</time>
      </trkpt>
      <trkpt lat="59.384013963863254" lon="13.353561982512474">
        <ele>88.67</ele>
        <time>2025-02-02T20:48:18.488Z</time>
      </trkpt>
      <trkpt lat="59.38403097912669" lon="13.353409934788942">
        <ele>88.62</ele>
        <time>2025-02-02T20:48:20.408Z</time>
      </trkpt>
      <trkpt lat="59.38404698856175" lon="13.353255959227681">
        <ele>88.57</ele>
        <time>2025-02-02T20:48:22.329Z</time>
      </trkpt>
      <trkpt lat="59.38406299799681" lon="13.353103995323181">
        <ele>88.52</ele>
        <time>2025-02-02T20:48:24.252Z</time>
      </trkpt>
      <trkpt lat="59.38407598994672" lon="13.352949935942888">
        <ele>88.47</ele>
        <time>2025-02-02T20:48:26.176Z</time>
      </trkpt>
      <trkpt lat="59.38409199938178" lon="13.352793948724866">
        <ele>88.42</ele>
        <time>2025-02-02T20:48:28.101Z</time>
      </trkpt>
      <trkpt lat="59.38410792499781" lon="13.352642990648746">
        <ele>88.37</ele>
        <time>2025-02-02T20:48:30.027Z</time>
      </trkpt>
      <trkpt lat="59.384125946089625" lon="13.352488931268454">
        <ele>88.32</ele>
        <time>2025-02-02T20:48:31.955Z</time>
      </trkpt>
      <trkpt lat="59.384143967181444" lon="13.352337973192334">
        <ele>88.28</ele>
        <time>2025-02-02T20:48:33.884Z</time>
      </trkpt>
      <trkpt lat="59.3841599766165" lon="13.352184919640422">
        <ele>88.23</ele>
        <time>2025-02-02T20:48:35.814Z</time>
      </trkpt>
      <trkpt lat="59.38417498022318" lon="13.352032955735922">
        <ele>88.18</ele>
        <time>2025-02-02T20:48:37.745Z</time>
      </trkpt>
      <trkpt lat="59.384189983829856" lon="13.351881997659802">
        <ele>88.14</ele>
        <time>2025-02-02T20:48:39.678Z</time>
      </trkpt>
      <trkpt lat="59.38420398160815" lon="13.351731961593032">
        <ele>88.08</ele>
        <time>2025-02-02T20:48:41.612Z</time>
      </trkpt>
      <trkpt lat="59.38421898521483" lon="13.351583937183022">
        <ele>88.03</ele>
        <time>2025-02-02T20:48:43.547Z</time>
      </trkpt>
      <trkpt lat="59.38423499464989" lon="13.351435996592045">
        <ele>87.99</ele>
        <time>2025-02-02T20:48:45.483Z</time>
      </trkpt>
      <trkpt lat="59.384251926094294" lon="13.351288978010416">
        <ele>87.94</ele>
        <time>2025-02-02T20:48:47.421Z</time>
      </trkpt>
      <trkpt lat="59.38426894135773" lon="13.351143971085548">
        <ele>87.89</ele>
        <time>2025-02-02T20:48:49.360Z</time>
      </trkpt>
      <trkpt lat="59.38428696244955" lon="13.350995946675539">
        <ele>87.85</ele>
        <time>2025-02-02T20:48:51.300Z</time>
      </trkpt>
      <trkpt lat="59.38430297188461" lon="13.35084892809391">
        <ele>87.8</ele>
        <time>2025-02-02T20:48:53.241Z</time>
      </trkpt>
      <trkpt lat="59.384318981319666" lon="13.350702999159694">
        <ele>87.76</ele>
        <time>2025-02-02T20:48:55.184Z</time>
      </trkpt>
      <trkpt lat="59.384335996583104" lon="13.350557992234826">
        <ele>87.71</ele>
        <time>2025-02-02T20:48:57.128Z</time>
      </trkpt>
      <trkpt lat="59.38435091637075" lon="13.35041499696672">
        <ele>87.67</ele>
        <time>2025-02-02T20:48:59.073Z</time>
      </trkpt>
      <trkpt lat="59.38436591997743" lon="13.350268984213471">
        <ele>87.63</ele>
        <time>2025-02-02T20:49:01.019Z</time>
      </trkpt>
      <trkpt lat="59.384380923584104" lon="13.350123977288604">
        <ele>87.58</ele>
        <time>2025-02-02T20:49:02.966Z</time>
      </trkpt>
      <trkpt lat="59.38439894467592" lon="13.349981987848878">
        <ele>87.54</ele>
        <time>2025-02-02T20:49:04.915Z</time>
      </trkpt>
      <trkpt lat="59.38441696576774" lon="13.349839998409152">
        <ele>87.49</ele>
        <time>2025-02-02T20:49:06.865Z</time>
      </trkpt>
      <trkpt lat="59.38443398103118" lon="13.349696919322014">
        <ele>87.45</ele>
        <time>2025-02-02T20:49:08.816Z</time>
      </trkpt>
      <trkpt lat="59.38444999046624" lon="13.349553924053907">
        <ele>87.4</ele>
        <time>2025-02-02T20:49:10.768Z</time>
      </trkpt>
      <trkpt lat="59.384466921910644" lon="13.349411934614182">
        <ele>87.35</ele>
        <time>2025-02-02T20:49:12.721Z</time>
      </trkpt>
      <trkpt lat="59.3844829313457" lon="13.349274974316359">
        <ele>87.3</ele>
        <time>2025-02-02T20:49:14.676Z</time>
      </trkpt>
      <trkpt lat="59.38449592329562" lon="13.349136924371123">
        <ele>87.26</ele>
        <time>2025-02-02T20:49:16.632Z</time>
      </trkpt>
      <trkpt lat="59.384508999064565" lon="13.349000969901681">
        <ele>87.22</ele>
        <time>2025-02-02T20:49:18.589Z</time>
      </trkpt>
      <trkpt lat="59.3845209851861" lon="13.348864931613207">
        <ele>87.18</ele>
        <time>2025-02-02T20:49:20.547Z</time>
      </trkpt>
      <trkpt lat="59.384532971307635" lon="13.348730988800526">
        <ele>87.14</ele>
        <time>2025-02-02T20:49:22.506Z</time>
      </trkpt>
      <trkpt lat="59.38454294577241" lon="13.348594950512052">
        <ele>87.1</ele>
        <time>2025-02-02T20:49:24.466Z</time>
      </trkpt>
      <trkpt lat="59.384551998227835" lon="13.348457990214229">
        <ele>87.06</ele>
        <time>2025-02-02T20:49:26.427Z</time>
      </trkpt>
      <trkpt lat="59.38456197269261" lon="13.348320946097374">
        <ele>87.02</ele>
        <time>2025-02-02T20:49:28.389Z</time>
      </trkpt>
      <trkpt lat="59.38457194715738" lon="13.348179962486029">
        <ele>86.98</ele>
        <time>2025-02-02T20:49:30.353Z</time>
      </trkpt>
      <trkpt lat="59.38458292745054" lon="13.348037973046303">
        <ele>86.95</ele>
        <time>2025-02-02T20:49:32.318Z</time>
      </trkpt>
      <trkpt lat="59.384594997391105" lon="13.347896989434958">
        <ele>86.91</ele>
        <time>2025-02-02T20:49:34.284Z</time>
      </trkpt>
      <trkpt lat="59.38460597768426" lon="13.347760951146483">
        <ele>86.87</ele>
        <time>2025-02-02T20:49:36.251Z</time>
      </trkpt>
      <trkpt lat="59.384618969634175" lon="13.3476219791919">
        <ele>86.84</ele>
        <time>2025-02-02T20:49:38.219Z</time>
      </trkpt>
      <trkpt lat="59.38462793827057" lon="13.347478983923793">
        <ele>86.8</ele>
        <time>2025-02-02T20:49:40.188Z</time>
      </trkpt>
      <trkpt lat="59.384636990725994" lon="13.347331965342164">
        <ele>86.77</ele>
        <time>2025-02-02T20:49:42.159Z</time>
      </trkpt>
      <trkpt lat="59.38464595936239" lon="13.347181929275393">
        <ele>86.73</ele>
        <time>2025-02-02T20:49:44.131Z</time>
      </trkpt>
      <trkpt lat="59.38465291634202" lon="13.347026947885752">
        <ele>86.71</ele>
        <time>2025-02-02T20:49:46.104Z</time>
      </trkpt>
      <trkpt lat="59.3846589513123" lon="13.346867943182588">
        <ele>86.68</ele>
        <time>2025-02-02T20:49:48.078Z</time>
      </trkpt>
      <trkpt lat="59.38466498628259" lon="13.346701981499791">
        <ele>86.65</ele>
        <time>2025-02-02T20:49:50.054Z</time>
      </trkpt>
      <trkpt lat="59.3846729490906" lon="13.346534930169582">
        <ele>86.62</ele>
        <time>2025-02-02T20:49:52.031Z</time>
      </trkpt>
      <trkpt lat="59.3846779782325" lon="13.346366956830025">
        <ele>86.59</ele>
        <time>2025-02-02T20:49:54.010Z</time>
      </trkpt>
      <trkpt lat="59.384679989889264" lon="13.346193954348564">
        <ele>86.56</ele>
        <time>2025-02-02T20:49:55.990Z</time>
      </trkpt>
      <trkpt lat="59.384682923555374" lon="13.346022963523865">
        <ele>86.53</ele>
        <time>2025-02-02T20:49:57.971Z</time>
      </trkpt>
      <trkpt lat="59.384683929383755" lon="13.345854990184307">
        <ele>86.51</ele>
        <time>2025-02-02T20:49:59.954Z</time>
      </trkpt>
      <trkpt lat="59.384683929383755" lon="13.345685927197337">
        <ele>86.48</ele>
        <time>2025-02-02T20:50:01.938Z</time>
      </trkpt>
      <trkpt lat="59.384681917726994" lon="13.345514936372638">
        <ele>86.46</ele>
        <time>2025-02-02T20:50:03.924Z</time>
      </trkpt>
      <trkpt lat="59.38467898406088" lon="13.345339922234416">
        <ele>86.44</ele>
        <time>2025-02-02T20:50:05.911Z</time>
      </trkpt>
      <trkpt lat="59.38467596657574" lon="13.345162980258465">
        <ele>86.41</ele>
        <time>2025-02-02T20:50:07.899Z</time>
      </trkpt>
      <trkpt lat="59.3846729490906" lon="13.344984948635101">
        <ele>86.39</ele>
        <time>2025-02-02T20:50:09.889Z</time>
      </trkpt>
      <trkpt lat="59.38466993160546" lon="13.344805995002389">
        <ele>86.37</ele>
        <time>2025-02-02T20:50:11.880Z</time>
      </trkpt>
      <trkpt lat="59.38466599211097" lon="13.344630980864167">
        <ele>86.35</ele>
        <time>2025-02-02T20:50:13.873Z</time>
      </trkpt>
      <trkpt lat="59.384659957140684" lon="13.344458984211087">
        <ele>86.33</ele>
        <time>2025-02-02T20:50:15.867Z</time>
      </trkpt>
      <trkpt lat="59.3846539221704" lon="13.344289921224117">
        <ele>86.31</ele>
        <time>2025-02-02T20:50:17.863Z</time>
      </trkpt>
      <trkpt lat="59.38464797101915" lon="13.34412194788456">
        <ele>86.29</ele>
        <time>2025-02-02T20:50:19.860Z</time>
      </trkpt>
      <trkpt lat="59.384641936048865" lon="13.343952968716621">
        <ele>86.27</ele>
        <time>2025-02-02T20:50:21.858Z</time>
      </trkpt>
      <trkpt lat="59.38463497906923" lon="13.343783989548683">
        <ele>86.25</ele>
        <time>2025-02-02T20:50:23.858Z</time>
      </trkpt>
      <trkpt lat="59.38462793827057" lon="13.343614926561713">
        <ele>86.24</ele>
        <time>2025-02-02T20:50:25.859Z</time>
      </trkpt>
      <trkpt lat="59.38462098129094" lon="13.343446953222156">
        <ele>86.23</ele>
        <time>2025-02-02T20:50:27.862Z</time>
      </trkpt>
      <trkpt lat="59.38461293466389" lon="13.343279985710979">
        <ele>86.22</ele>
        <time>2025-02-02T20:50:29.866Z</time>
      </trkpt>
      <trkpt lat="59.38460597768426" lon="13.343114946037531">
        <ele>86.21</ele>
        <time>2025-02-02T20:50:31.871Z</time>
      </trkpt>
      <trkpt lat="59.384598936885595" lon="13.342950996011496">
        <ele>86.21</ele>
        <time>2025-02-02T20:50:33.878Z</time>
      </trkpt>
      <trkpt lat="59.38459097407758" lon="13.342786962166429">
        <ele>86.21</ele>
        <time>2025-02-02T20:50:35.886Z</time>
      </trkpt>
      <trkpt lat="59.38458292745054" lon="13.342625945806503">
        <ele>86.22</ele>
        <time>2025-02-02T20:50:37.895Z</time>
      </trkpt>
      <trkpt lat="59.384574964642525" lon="13.34246694110334">
        <ele>86.23</ele>
        <time>2025-02-02T20:50:39.906Z</time>
      </trkpt>
      <trkpt lat="59.38456792384386" lon="13.342309948056936">
        <ele>86.25</ele>
        <time>2025-02-02T20:50:41.918Z</time>
      </trkpt>
      <trkpt lat="59.38455996103585" lon="13.342151949182153">
        <ele>86.26</ele>
        <time>2025-02-02T20:50:43.931Z</time>
      </trkpt>
      <trkpt lat="59.384551998227835" lon="13.341991938650608">
        <ele>86.28</ele>
        <time>2025-02-02T20:50:45.945Z</time>
      </trkpt>
      <trkpt lat="59.38454395160079" lon="13.341829916462302">
        <ele>86.31</ele>
        <time>2025-02-02T20:50:47.961Z</time>
      </trkpt>
      <trkpt lat="59.38453699462116" lon="13.341665966436267">
        <ele>86.34</ele>
        <time>2025-02-02T20:50:49.978Z</time>
      </trkpt>
      <trkpt lat="59.384529953822494" lon="13.341503944247961">
        <ele>86.37</ele>
        <time>2025-02-02T20:50:51.996Z</time>
      </trkpt>
      <trkpt lat="59.38452199101448" lon="13.341343933716416">
        <ele>86.4</ele>
        <time>2025-02-02T20:50:54.016Z</time>
      </trkpt>
      <trkpt lat="59.38451495021582" lon="13.341183923184872">
        <ele>86.44</ele>
        <time>2025-02-02T20:50:56.037Z</time>
      </trkpt>
      <trkpt lat="59.3845069874078" lon="13.341022990643978">
        <ele>86.48</ele>
        <time>2025-02-02T20:50:58.059Z</time>
      </trkpt>
      <trkpt lat="59.38449994660914" lon="13.340859962627292">
        <ele>86.52</ele>
        <time>2025-02-02T20:51:00.083Z</time>
      </trkpt>
      <trkpt lat="59.38449198380113" lon="13.340695928782225">
        <ele>86.57</ele>
        <time>2025-02-02T20:51:02.108Z</time>
      </trkpt>
      <trkpt lat="59.38448494300246" lon="13.34053197875619">
        <ele>86.61</ele>
        <time>2025-02-02T20:51:04.134Z</time>
      </trkpt>
      <trkpt lat="59.38447597436607" lon="13.340367944911122">
        <ele>86.66</ele>
        <time>2025-02-02T20:51:06.162Z</time>
      </trkpt>
      <trkpt lat="59.384467927739024" lon="13.340206928551197">
        <ele>86.71</ele>
        <time>2025-02-02T20:51:08.191Z</time>
      </trkpt>
      <trkpt lat="59.38445996493101" lon="13.340044990181923">
        <ele>86.76</ele>
        <time>2025-02-02T20:51:10.221Z</time>
      </trkpt>
      <trkpt lat="59.38445191830397" lon="13.339884979650378">
        <ele>86.81</ele>
        <time>2025-02-02T20:51:12.253Z</time>
      </trkpt>
      <trkpt lat="59.38444294966757" lon="13.339727986603975">
        <ele>86.86</ele>
        <time>2025-02-02T20:51:14.286Z</time>
      </trkpt>
      <trkpt lat="59.38443498685956" lon="13.339570993557572">
        <ele>86.92</ele>
        <time>2025-02-02T20:51:16.320Z</time>
      </trkpt>
      <trkpt lat="59.384424928575754" lon="13.339414922520518">
        <ele>86.98</ele>
        <time>2025-02-02T20:51:18.356Z</time>
      </trkpt>
      <trkpt lat="59.38441193662584" lon="13.339258935302496">
        <ele>87.04</ele>
        <time>2025-02-02T20:51:20.393Z</time>
      </trkpt>
      <trkpt lat="59.38439299352467" lon="13.339103953912854">
        <ele>87.09</ele>
        <time>2025-02-02T20:51:22.431Z</time>
      </trkpt>
      <trkpt lat="59.3843639921397" lon="13.338955929502845">
        <ele>87.16</ele>
        <time>2025-02-02T20:51:24.471Z</time>
      </trkpt>
      <trkpt lat="59.38432694412768" lon="13.33881695754826">
        <ele>87.23</ele>
        <time>2025-02-02T20:51:26.512Z</time>
      </trkpt>
      <trkpt lat="59.38428092747927" lon="13.338684942573309">
        <ele>87.31</ele>
        <time>2025-02-02T20:51:28.554Z</time>
      </trkpt>
      <trkpt lat="59.384231977164745" lon="13.33855795674026">
        <ele>87.38</ele>
        <time>2025-02-02T20:51:30.597Z</time>
      </trkpt>
      <trkpt lat="59.384185960516334" lon="13.33842996507883">
        <ele>87.46</ele>
        <time>2025-02-02T20:51:32.642Z</time>
      </trkpt>
      <trkpt lat="59.384146984666586" lon="13.338291998952627">
        <ele>87.54</ele>
        <time>2025-02-02T20:51:34.688Z</time>
      </trkpt>
      <trkpt lat="59.38411496579647" lon="13.338148919865489">
        <ele>87.63</ele>
        <time>2025-02-02T20:51:36.735Z</time>
      </trkpt>
      <trkpt lat="59.384082946926355" lon="13.338008942082524">
        <ele>87.71</ele>
        <time>2025-02-02T20:51:38.784Z</time>
      </trkpt>
      <trkpt lat="59.38404598273337" lon="13.337873993441463">
        <ele>87.81</ele>
        <time>2025-02-02T20:51:40.834Z</time>
      </trkpt>
      <trkpt lat="59.38400591723621" lon="13.337748935446143">
        <ele>87.9</ele>
        <time>2025-02-02T20:51:42.885Z</time>
      </trkpt>
      <trkpt lat="59.38396593555808" lon="13.337631924077868">
        <ele>88.0</ele>
        <time>2025-02-02T20:51:44.937Z</time>
      </trkpt>
      <trkpt lat="59.383927965536714" lon="13.337519941851497">
        <ele>88.1</ele>
        <time>2025-02-02T20:51:46.990Z</time>
      </trkpt>
      <trkpt lat="59.38389393500984" lon="13.337415922433138">
        <ele>88.2</ele>
        <time>2025-02-02T20:51:49.044Z</time>
      </trkpt>
      <trkpt lat="59.38385998830199" lon="13.337318943813443">
        <ele>88.31</ele>
        <time>2025-02-02T20:51:51.099Z</time>
      </trkpt>
      <trkpt lat="59.38382796943188" lon="13.337227916345">
        <ele>88.41</ele>
        <time>2025-02-02T20:51:53.155Z</time>
      </trkpt>
      <trkpt lat="59.38379595056176" lon="13.337136972695589">
        <ele>88.52</ele>
        <time>2025-02-02T20:51:55.212Z</time>
      </trkpt>
      <trkpt lat="59.38376896083355" lon="13.337044939398766">
        <ele>88.63</ele>
        <time>2025-02-02T20:51:57.270Z</time>
      </trkpt>
      <trkpt lat="59.38374792225659" lon="13.33694695495069">
        <ele>88.74</ele>
        <time>2025-02-02T20:51:59.329Z</time>
      </trkpt>
      <trkpt lat="59.38373291864991" lon="13.336844947189093">
        <ele>88.86</ele>
        <time>2025-02-02T20:52:01.389Z</time>
      </trkpt>
      <trkpt lat="59.38372093252838" lon="13.336738999933004">
        <ele>88.98</ele>
        <time>2025-02-02T20:52:03.450Z</time>
      </trkpt>
      <trkpt lat="59.38370391726494" lon="13.336633974686265">
        <ele>89.11</ele>
        <time>2025-02-02T20:52:05.511Z</time>
      </trkpt>
      <trkpt lat="59.383675921708345" lon="13.33653498440981">
        <ele>89.23</ele>
        <time>2025-02-02T20:52:07.573Z</time>
      </trkpt>
      <trkpt lat="59.38364096917212" lon="13.336446974426508">
        <ele>89.36</ele>
        <time>2025-02-02T20:52:09.636Z</time>
      </trkpt>
      <trkpt lat="59.38360199332237" lon="13.33636499941349">
        <ele>89.49</ele>
        <time>2025-02-02T20:52:11.700Z</time>
      </trkpt>
      <trkpt lat="59.383563939481974" lon="13.336282940581441">
        <ele>89.62</ele>
        <time>2025-02-02T20:52:13.765Z</time>
      </trkpt>
      <trkpt lat="59.38352697528899" lon="13.336203983053565">
        <ele>89.75</ele>
        <time>2025-02-02T20:52:15.831Z</time>
      </trkpt>
      <trkpt lat="59.38349395059049" lon="13.336130976676941">
        <ele>89.89</ele>
        <time>2025-02-02T20:52:17.898Z</time>
      </trkpt>
      <trkpt lat="59.3834709841758" lon="13.336055958643556">
        <ele>90.03</ele>
        <time>2025-02-02T20:52:19.966Z</time>
      </trkpt>
      <trkpt lat="59.3834659550339" lon="13.335971971973777">
        <ele>90.17</ele>
        <time>2025-02-02T20:52:22.034Z</time>
      </trkpt>
      <trkpt lat="59.383479952812195" lon="13.335899971425533">
        <ele>90.31</ele>
        <time>2025-02-02T20:52:24.103Z</time>
      </trkpt>
      <trkpt lat="59.38350694254041" lon="13.335853954777122">
        <ele>90.45</ele>
        <time>2025-02-02T20:52:26.172Z</time>
      </trkpt>
      <trkpt lat="59.38353795558214" lon="13.335819924250245">
        <ele>90.59</ele>
        <time>2025-02-02T20:52:28.242Z</time>
      </trkpt>
      <trkpt lat="59.383567962795496" lon="13.335775919258595">
        <ele>90.73</ele>
        <time>2025-02-02T20:52:30.313Z</time>
      </trkpt>
      <trkpt lat="59.38359595835209" lon="13.33572193980217">
        <ele>90.88</ele>
        <time>2025-02-02T20:52:32.384Z</time>
      </trkpt>
      <trkpt lat="59.383626971393824" lon="13.335670977830887">
        <ele>91.03</ele>
        <time>2025-02-02T20:52:34.456Z</time>
      </trkpt>
      <trkpt lat="59.38366795890033" lon="13.335639964789152">
        <ele>91.18</ele>
        <time>2025-02-02T20:52:36.529Z</time>
      </trkpt>
      <trkpt lat="59.383713975548744" lon="13.335628984495997">
        <ele>91.32</ele>
        <time>2025-02-02T20:52:38.602Z</time>
      </trkpt>
      <trkpt lat="59.38376393169165" lon="13.335624961182475">
        <ele>91.47</ele>
        <time>2025-02-02T20:52:40.676Z</time>
      </trkpt>
      <trkpt lat="59.38381598331034" lon="13.335618926212192">
        <ele>91.63</ele>
        <time>2025-02-02T20:52:42.751Z</time>
      </trkpt>
      <trkpt lat="59.38386996276677" lon="13.335610963404179">
        <ele>91.78</ele>
        <time>2025-02-02T20:52:44.827Z</time>
      </trkpt>
      <trkpt lat="59.38392595387995" lon="13.335599983111024">
        <ele>91.93</ele>
        <time>2025-02-02T20:52:46.904Z</time>
      </trkpt>
      <trkpt lat="59.38398295082152" lon="13.335586991161108">
        <ele>92.09</ele>
        <time>2025-02-02T20:52:48.982Z</time>
      </trkpt>
      <trkpt lat="59.384040953591466" lon="13.33557098172605">
        <ele>92.24</ele>
        <time>2025-02-02T20:52:51.061Z</time>
      </trkpt>
      <trkpt lat="59.384099962189794" lon="13.335555978119373">
        <ele>92.39</ele>
        <time>2025-02-02T20:52:53.141Z</time>
      </trkpt>
      <trkpt lat="59.38415695913136" lon="13.335542986169457">
        <ele>92.54</ele>
        <time>2025-02-02T20:52:55.221Z</time>
      </trkpt>
      <trkpt lat="59.38421395607293" lon="13.335531922057271">
        <ele>92.7</ele>
        <time>2025-02-02T20:52:57.302Z</time>
      </trkpt>
      <trkpt lat="59.38426692970097" lon="13.335519935935736">
        <ele>92.86</ele>
        <time>2025-02-02T20:52:59.384Z</time>
      </trkpt>
      <trkpt lat="59.38431998714805" lon="13.335509961470962">
        <ele>93.01</ele>
        <time>2025-02-02T20:53:01.467Z</time>
      </trkpt>
      <trkpt lat="59.38437296077609" lon="13.335501998662949">
        <ele>93.17</ele>
        <time>2025-02-02T20:53:03.551Z</time>
      </trkpt>
      <trkpt lat="59.384427946060896" lon="13.335493952035904">
        <ele>93.32</ele>
        <time>2025-02-02T20:53:05.636Z</time>
      </trkpt>
      <trkpt lat="59.38448393717408" lon="13.33548498339951">
        <ele>93.47</ele>
        <time>2025-02-02T20:53:07.722Z</time>
      </trkpt>
      <trkpt lat="59.38454093411565" lon="13.335473919287324">
        <ele>93.63</ele>
        <time>2025-02-02T20:53:09.809Z</time>
      </trkpt>
      <trkpt lat="59.3846039660275" lon="13.335460927337408">
        <ele>93.78</ele>
        <time>2025-02-02T20:53:11.897Z</time>
      </trkpt>
      <trkpt lat="59.38466599211097" lon="13.335450952872634">
        <ele>93.92</ele>
        <time>2025-02-02T20:53:13.986Z</time>
      </trkpt>
      <trkpt lat="59.38472994603217" lon="13.335438966751099">
        <ele>94.07</ele>
        <time>2025-02-02T20:53:16.076Z</time>
      </trkpt>
      <trkpt lat="59.38479297794402" lon="13.335424968972802">
        <ele>94.21</ele>
        <time>2025-02-02T20:53:18.167Z</time>
      </trkpt>
      <trkpt lat="59.384856931865215" lon="13.335413988679647">
        <ele>94.36</ele>
        <time>2025-02-02T20:53:20.259Z</time>
      </trkpt>
      <trkpt lat="59.384920969605446" lon="13.335403930395842">
        <ele>94.5</ele>
        <time>2025-02-02T20:53:22.352Z</time>
      </trkpt>
      <trkpt lat="59.384985929355025" lon="13.335394961759448">
        <ele>94.63</ele>
        <time>2025-02-02T20:53:24.446Z</time>
      </trkpt>
      <trkpt lat="59.38505197875202" lon="13.335385993123055">
        <ele>94.77</ele>
        <time>2025-02-02T20:53:26.541Z</time>
      </trkpt>
      <trkpt lat="59.38511895015836" lon="13.33537895232439">
        <ele>94.91</ele>
        <time>2025-02-02T20:53:28.637Z</time>
      </trkpt>
      <trkpt lat="59.38518692739308" lon="13.33537694066763">
        <ele>95.04</ele>
        <time>2025-02-02T20:53:30.734Z</time>
      </trkpt>
      <trkpt lat="59.38525498844683" lon="13.335375934839249">
        <ele>95.17</ele>
        <time>2025-02-02T20:53:32.832Z</time>
      </trkpt>
      <trkpt lat="59.38532296568155" lon="13.33537895232439">
        <ele>95.3</ele>
        <time>2025-02-02T20:53:34.931Z</time>
      </trkpt>
      <trkpt lat="59.385391948744655" lon="13.335385993123055">
        <ele>95.44</ele>
        <time>2025-02-02T20:53:37.031Z</time>
      </trkpt>
      <trkpt lat="59.385460931807756" lon="13.33539697341621">
        <ele>95.56</ele>
        <time>2025-02-02T20:53:39.132Z</time>
      </trkpt>
      <trkpt lat="59.38552899286151" lon="13.335408959537745">
        <ele>95.68</ele>
        <time>2025-02-02T20:53:41.235Z</time>
      </trkpt>
      <trkpt lat="59.38559697009623" lon="13.335424968972802">
        <ele>95.8</ele>
        <time>2025-02-02T20:53:43.339Z</time>
      </trkpt>
      <trkpt lat="59.38566394150257" lon="13.33543997257948">
        <ele>95.91</ele>
        <time>2025-02-02T20:53:45.444Z</time>
      </trkpt>
      <trkpt lat="59.38573099672794" lon="13.335456987842917">
        <ele>96.02</ele>
        <time>2025-02-02T20:53:47.550Z</time>
      </trkpt>
      <trkpt lat="59.3857969623059" lon="13.335478948429227">
        <ele>96.13</ele>
        <time>2025-02-02T20:53:49.657Z</time>
      </trkpt>
      <trkpt lat="59.3858609162271" lon="13.335502920672297">
        <ele>96.23</ele>
        <time>2025-02-02T20:53:51.765Z</time>
      </trkpt>
      <trkpt lat="59.38592595979571" lon="13.33552597090602">
        <ele>96.34</ele>
        <time>2025-02-02T20:53:53.874Z</time>
      </trkpt>
      <trkpt lat="59.38598899170756" lon="13.33554893732071">
        <ele>96.43</ele>
        <time>2025-02-02T20:53:55.984Z</time>
      </trkpt>
      <trkpt lat="59.38605294562876" lon="13.33557098172605">
        <ele>96.53</ele>
        <time>2025-02-02T20:53:58.095Z</time>
      </trkpt>
      <trkpt lat="59.38611497171223" lon="13.33559294231236">
        <ele>96.62</ele>
        <time>2025-02-02T20:54:00.207Z</time>
      </trkpt>
      <trkpt lat="59.3861769977957" lon="13.33561398088932">
        <ele>96.7</ele>
        <time>2025-02-02T20:54:02.320Z</time>
      </trkpt>
      <trkpt lat="59.38623692840338" lon="13.33563594147563">
        <ele>96.78</ele>
        <time>2025-02-02T20:54:04.434Z</time>
      </trkpt>
      <trkpt lat="59.386296942830086" lon="13.335658991709352">
        <ele>96.86</ele>
        <time>2025-02-02T20:54:06.549Z</time>
      </trkpt>
      <trkpt lat="59.386356957256794" lon="13.335681958124042">
        <ele>96.93</ele>
        <time>2025-02-02T20:54:08.665Z</time>
      </trkpt>
      <trkpt lat="59.38641596585512" lon="13.335704924538732">
        <ele>97.0</ele>
        <time>2025-02-02T20:54:10.782Z</time>
      </trkpt>
      <trkpt lat="59.38647497445345" lon="13.335724957287312">
        <ele>97.06</ele>
        <time>2025-02-02T20:54:12.900Z</time>
      </trkpt>
      <trkpt lat="59.38653398305178" lon="13.335745995864272">
        <ele>97.12</ele>
        <time>2025-02-02T20:54:15.019Z</time>
      </trkpt>
      <trkpt lat="59.386592991650105" lon="13.335767956450582">
        <ele>97.18</ele>
        <time>2025-02-02T20:54:17.139Z</time>
      </trkpt>
      <trkpt lat="59.3866519164294" lon="13.335792934522033">
        <ele>97.23</ele>
        <time>2025-02-02T20:54:19.260Z</time>
      </trkpt>
      <trkpt lat="59.38671092502773" lon="13.335818918421865">
        <ele>97.27</ele>
        <time>2025-02-02T20:54:21.382Z</time>
      </trkpt>
      <trkpt lat="59.386769933626056" lon="13.335848925635219">
        <ele>97.31</ele>
        <time>2025-02-02T20:54:23.505Z</time>
      </trkpt>
      <trkpt lat="59.38682894222438" lon="13.335880944505334">
        <ele>97.35</ele>
        <time>2025-02-02T20:54:25.629Z</time>
      </trkpt>
      <trkpt lat="59.38688795082271" lon="13.335918998345733">
        <ele>97.39</ele>
        <time>2025-02-02T20:54:27.754Z</time>
      </trkpt>
      <trkpt lat="59.38694494776428" lon="13.335964931175113">
        <ele>97.41</ele>
        <time>2025-02-02T20:54:29.880Z</time>
      </trkpt>
      <trkpt lat="59.3869989272207" lon="13.33602192811668">
        <ele>97.43</ele>
        <time>2025-02-02T20:54:32.007Z</time>
      </trkpt>
      <trkpt lat="59.38705198466778" lon="13.33608596585691">
        <ele>97.45</ele>
        <time>2025-02-02T20:54:34.135Z</time>
      </trkpt>
      <trkpt lat="59.387108981609344" lon="13.336133994162083">
        <ele>97.47</ele>
        <time>2025-02-02T20:54:36.264Z</time>
      </trkpt>
      <trkpt lat="59.3871699180454" lon="13.336149919778109">
        <ele>97.47</ele>
        <time>2025-02-02T20:54:38.394Z</time>
      </trkpt>
      <trkpt lat="59.38722892664373" lon="13.336120918393135">
        <ele>97.47</ele>
        <time>2025-02-02T20:54:40.525Z</time>
      </trkpt>
      <trkpt lat="59.38727594912052" lon="13.336050929501653">
        <ele>97.48</ele>
        <time>2025-02-02T20:54:42.657Z</time>
      </trkpt>
      <trkpt lat="59.3873099796474" lon="13.335958980023861">
        <ele>97.48</ele>
        <time>2025-02-02T20:54:44.790Z</time>
      </trkpt>
      <trkpt lat="59.387329928576946" lon="13.335845991969109">
        <ele>97.49</ele>
        <time>2025-02-02T20:54:46.924Z</time>
      </trkpt>
      <trkpt lat="59.38734292052686" lon="13.33572093397379">
        <ele>97.49</ele>
        <time>2025-02-02T20:54:49.059Z</time>
      </trkpt>
      <trkpt lat="59.38735096715391" lon="13.335595959797502">
        <ele>97.49</ele>
        <time>2025-02-02T20:54:51.195Z</time>
      </trkpt>
      <trkpt lat="59.38735792413354" lon="13.335470985621214">
        <ele>97.48</ele>
        <time>2025-02-02T20:54:53.332Z</time>
      </trkpt>
      <trkpt lat="59.38736295327544" lon="13.335340982303023">
        <ele>97.47</ele>
        <time>2025-02-02T20:54:55.470Z</time>
      </trkpt>
      <trkpt lat="59.387367982417345" lon="13.335207961499691">
        <ele>97.45</ele>
        <time>2025-02-02T20:54:57.609Z</time>
      </trkpt>
      <trkpt lat="59.387372927740216" lon="13.335072929039598">
        <ele>97.43</ele>
        <time>2025-02-02T20:54:59.749Z</time>
      </trkpt>
      <trkpt lat="59.3873789627105" lon="13.33492792211473">
        <ele>97.41</ele>
        <time>2025-02-02T20:55:01.890Z</time>
      </trkpt>
      <trkpt lat="59.38738591969013" lon="13.334785932675004">
        <ele>97.39</ele>
        <time>2025-02-02T20:55:04.032Z</time>
      </trkpt>
      <trkpt lat="59.387392960488796" lon="13.334641931578517">
        <ele>97.37</ele>
        <time>2025-02-02T20:55:06.175Z</time>
      </trkpt>
      <trkpt lat="59.38739899545908" lon="13.33449793048203">
        <ele>97.34</ele>
        <time>2025-02-02T20:55:08.320Z</time>
      </trkpt>
      <trkpt lat="59.38740494661033" lon="13.334353929385543">
        <ele>97.3</ele>
        <time>2025-02-02T20:55:10.466Z</time>
      </trkpt>
      <trkpt lat="59.387410981580615" lon="13.334209928289056">
        <ele>97.26</ele>
        <time>2025-02-02T20:55:12.613Z</time>
      </trkpt>
      <trkpt lat="59.387415926903486" lon="13.334064921364188">
        <ele>97.21</ele>
        <time>2025-02-02T20:55:14.761Z</time>
      </trkpt>
      <trkpt lat="59.38742095604539" lon="13.333921926096082">
        <ele>97.17</ele>
        <time>2025-02-02T20:55:16.910Z</time>
      </trkpt>
      <trkpt lat="59.38742497935891" lon="13.333777924999595">
        <ele>97.12</ele>
        <time>2025-02-02T20:55:19.061Z</time>
      </trkpt>
      <trkpt lat="59.387431936338544" lon="13.333633923903108">
        <ele>97.06</ele>
        <time>2025-02-02T20:55:21.213Z</time>
      </trkpt>
      <trkpt lat="59.38743998296559" lon="13.333490928635001">
        <ele>97.01</ele>
        <time>2025-02-02T20:55:23.366Z</time>
      </trkpt>
      <trkpt lat="59.3874479457736" lon="13.333347933366895">
        <ele>96.95</ele>
        <time>2025-02-02T20:55:25.520Z</time>
      </trkpt>
      <trkpt lat="59.387452974915504" lon="13.33320694975555">
        <ele>96.88</ele>
        <time>2025-02-02T20:55:27.675Z</time>
      </trkpt>
      <trkpt lat="59.38745993189514" lon="13.333064960315824">
        <ele>96.82</ele>
        <time>2025-02-02T20:55:29.831Z</time>
      </trkpt>
      <trkpt lat="59.38746496103704" lon="13.332920959219337">
        <ele>96.74</ele>
        <time>2025-02-02T20:55:31.989Z</time>
      </trkpt>
      <trkpt lat="59.3874669726938" lon="13.332772934809327">
        <ele>96.67</ele>
        <time>2025-02-02T20:55:34.148Z</time>
      </trkpt>
      <trkpt lat="59.38747191801667" lon="13.33262792788446">
        <ele>96.59</ele>
        <time>2025-02-02T20:55:36.308Z</time>
      </trkpt>
      <trkpt lat="59.387477952986956" lon="13.332486944273114">
        <ele>96.51</ele>
        <time>2025-02-02T20:55:38.469Z</time>
      </trkpt>
      <trkpt lat="59.38748499378562" lon="13.332342943176627">
        <ele>96.42</ele>
        <time>2025-02-02T20:55:40.631Z</time>
      </trkpt>
      <trkpt lat="59.38749094493687" lon="13.332196930423379">
        <ele>96.34</ele>
        <time>2025-02-02T20:55:42.795Z</time>
      </trkpt>
      <trkpt lat="59.387496979907155" lon="13.332049995660782">
        <ele>96.25</ele>
        <time>2025-02-02T20:55:44.960Z</time>
      </trkpt>
      <trkpt lat="59.38750494271517" lon="13.331907922402024">
        <ele>96.16</ele>
        <time>2025-02-02T20:55:47.126Z</time>
      </trkpt>
      <trkpt lat="59.38751298934221" lon="13.331765932962298">
        <ele>96.07</ele>
        <time>2025-02-02T20:55:49.293Z</time>
      </trkpt>
      <trkpt lat="59.387520952150226" lon="13.331621931865811">
        <ele>95.98</ele>
        <time>2025-02-02T20:55:51.461Z</time>
      </trkpt>
      <trkpt lat="59.38752698712051" lon="13.331472985446453">
        <ele>95.88</ele>
        <time>2025-02-02T20:55:53.630Z</time>
      </trkpt>
      <trkpt lat="59.38753394410014" lon="13.331325966864824">
        <ele>95.78</ele>
        <time>2025-02-02T20:55:55.801Z</time>
      </trkpt>
      <trkpt lat="59.387539979070425" lon="13.331174924969673">
        <ele>95.68</ele>
        <time>2025-02-02T20:55:57.973Z</time>
      </trkpt>
      <trkpt lat="59.38754693605006" lon="13.331024972721934">
        <ele>95.58</ele>
        <time>2025-02-02T20:56:00.146Z</time>
      </trkpt>
      <trkpt lat="59.38755196519196" lon="13.330876948311925">
        <ele>95.48</ele>
        <time>2025-02-02T20:56:02.320Z</time>
      </trkpt>
      <trkpt lat="59.38755892217159" lon="13.330725990235806">
        <ele>95.37</ele>
        <time>2025-02-02T20:56:04.496Z</time>
      </trkpt>
      <trkpt lat="59.387563951313496" lon="13.330576959997416">
        <ele>95.25</ele>
        <time>2025-02-02T20:56:06.673Z</time>
      </trkpt>
      <trkpt lat="59.38756797462702" lon="13.330428935587406">
        <ele>95.14</ele>
        <time>2025-02-02T20:56:08.851Z</time>
      </trkpt>
      <trkpt lat="59.38757392577827" lon="13.330279989168048">
        <ele>95.02</ele>
        <time>2025-02-02T20:56:11.030Z</time>
      </trkpt>
      <trkpt lat="59.387580966576934" lon="13.330125929787755">
        <ele>94.9</ele>
        <time>2025-02-02T20:56:13.211Z</time>
      </trkpt>
      <trkpt lat="59.387587923556566" lon="13.329974971711636">
        <ele>94.77</ele>
        <time>2025-02-02T20:56:15.393Z</time>
      </trkpt>
      <trkpt lat="59.38759194687009" lon="13.329822923988104">
        <ele>94.65</ele>
        <time>2025-02-02T20:56:17.576Z</time>
      </trkpt>
      <trkpt lat="59.38759798184037" lon="13.329670960083604">
        <ele>94.52</ele>
        <time>2025-02-02T20:56:19.760Z</time>
      </trkpt>
      <trkpt lat="59.387604938820004" lon="13.329519918188453">
        <ele>94.38</ele>
        <time>2025-02-02T20:56:21.946Z</time>
      </trkpt>
      <trkpt lat="59.38761298544705" lon="13.329368960112333">
        <ele>94.25</ele>
        <time>2025-02-02T20:56:24.133Z</time>
      </trkpt>
      <trkpt lat="59.38762094825506" lon="13.329215990379453">
        <ele>94.11</ele>
        <time>2025-02-02T20:56:26.321Z</time>
      </trkpt>
      <trkpt lat="59.38762899488211" lon="13.32905799150467">
        <ele>93.97</ele>
        <time>2025-02-02T20:56:28.510Z</time>
      </trkpt>
      <trkpt lat="59.38763394020498" lon="13.328899992629886">
        <ele>93.82</ele>
        <time>2025-02-02T20:56:30.701Z</time>
      </trkpt>
      <trkpt lat="59.38763997517526" lon="13.328739982098341">
        <ele>93.68</ele>
        <time>2025-02-02T20:56:32.893Z</time>
      </trkpt>
      <trkpt lat="59.387646932154894" lon="13.328580977395177">
        <ele>93.53</ele>
        <time>2025-02-02T20:56:35.086Z</time>
      </trkpt>
      <trkpt lat="59.38765497878194" lon="13.328421972692013">
        <ele>93.38</ele>
        <time>2025-02-02T20:56:37.281Z</time>
      </trkpt>
      <trkpt lat="59.38766394741833" lon="13.328261962160468">
        <ele>93.23</ele>
        <time>2025-02-02T20:56:39.477Z</time>
      </trkpt>
      <trkpt lat="59.38767199404538" lon="13.328098934143782">
        <ele>93.08</ele>
        <time>2025-02-02T20:56:41.674Z</time>
      </trkpt>
      <trkpt lat="59.38768196851015" lon="13.327933978289366">
        <ele>92.92</ele>
        <time>2025-02-02T20:56:43.873Z</time>
      </trkpt>
      <trkpt lat="59.387692948803306" lon="13.327769944444299">
        <ele>92.77</ele>
        <time>2025-02-02T20:56:46.073Z</time>
      </trkpt>
      <trkpt lat="59.38770392909646" lon="13.327605994418263">
        <ele>92.62</ele>
        <time>2025-02-02T20:56:48.274Z</time>
      </trkpt>
      <trkpt lat="59.387716921046376" lon="13.327441960573196">
        <ele>92.47</ele>
        <time>2025-02-02T20:56:50.477Z</time>
      </trkpt>
      <trkpt lat="59.38773091882467" lon="13.3272759988904">
        <ele>92.32</ele>
        <time>2025-02-02T20:56:52.681Z</time>
      </trkpt>
      <trkpt lat="59.38774491660297" lon="13.327108947560191">
        <ele>92.16</ele>
        <time>2025-02-02T20:56:54.886Z</time>
      </trkpt>
      <trkpt lat="59.38776092603803" lon="13.326939968392253">
        <ele>92.01</ele>
        <time>2025-02-02T20:56:57.093Z</time>
      </trkpt>
      <trkpt lat="59.387777941301465" lon="13.326768977567554">
        <ele>91.86</ele>
        <time>2025-02-02T20:56:59.301Z</time>
      </trkpt>
      <trkpt lat="59.387795962393284" lon="13.326595975086093">
        <ele>91.71</ele>
        <time>2025-02-02T20:57:01.511Z</time>
      </trkpt>
      <trkpt lat="59.387815995141864" lon="13.326423978433013">
        <ele>91.55</ele>
        <time>2025-02-02T20:57:03.722Z</time>
      </trkpt>
      <trkpt lat="59.38783795572817" lon="13.32624795846641">
        <ele>91.4</ele>
        <time>2025-02-02T20:57:05.935Z</time>
      </trkpt>
      <trkpt lat="59.38786092214286" lon="13.326069926843047">
        <ele>91.24</ele>
        <time>2025-02-02T20:57:08.149Z</time>
      </trkpt>
      <trkpt lat="59.387885984033346" lon="13.325889967381954">
        <ele>91.08</ele>
        <time>2025-02-02T20:57:10.365Z</time>
      </trkpt>
      <trkpt lat="59.387908950448036" lon="13.32570992410183">
        <ele>90.92</ele>
        <time>2025-02-02T20:57:12.582Z</time>
      </trkpt>
      <trkpt lat="59.38793493434787" lon="13.325523929670453">
        <ele>90.76</ele>
        <time>2025-02-02T20:57:14.801Z</time>
      </trkpt>
      <trkpt lat="59.38796393573284" lon="13.325336929410696">
        <ele>90.59</ele>
        <time>2025-02-02T20:57:17.021Z</time>
      </trkpt>
      <trkpt lat="59.387994948774576" lon="13.325153952464461">
        <ele>90.42</ele>
        <time>2025-02-02T20:57:19.243Z</time>
      </trkpt>
      <trkpt lat="59.38802696764469" lon="13.324969969689846">
        <ele>90.26</ele>
        <time>2025-02-02T20:57:21.466Z</time>
      </trkpt>
      <trkpt lat="59.38805999234319" lon="13.324790932238102">
        <ele>90.09</ele>
        <time>2025-02-02T20:57:23.691Z</time>
      </trkpt>
      <trkpt lat="59.388096956536174" lon="13.324607955291867">
        <ele>89.93</ele>
        <time>2025-02-02T20:57:25.918Z</time>
      </trkpt>
      <trkpt lat="59.38813492655754" lon="13.324426990002394">
        <ele>89.76</ele>
        <time>2025-02-02T20:57:28.146Z</time>
      </trkpt>
      <trkpt lat="59.3881749920547" lon="13.324243929237127">
        <ele>89.6</ele>
        <time>2025-02-02T20:57:30.376Z</time>
      </trkpt>
      <trkpt lat="59.38821698538959" lon="13.324061958119273">
        <ele>89.44</ele>
        <time>2025-02-02T20:57:32.608Z</time>
      </trkpt>
      <trkpt lat="59.3882579728961" lon="13.323879987001419">
        <ele>89.27</ele>
        <time>2025-02-02T20:57:34.841Z</time>
      </trkpt>
      <trkpt lat="59.38829996623099" lon="13.323697932064533">
        <ele>89.11</ele>
        <time>2025-02-02T20:57:37.076Z</time>
      </trkpt>
      <trkpt lat="59.38834497705102" lon="13.32351596094668">
        <ele>88.95</ele>
        <time>2025-02-02T20:57:39.312Z</time>
      </trkpt>
      <trkpt lat="59.38839099369943" lon="13.323334995657206">
        <ele>88.79</ele>
        <time>2025-02-02T20:57:41.550Z</time>
      </trkpt>
      <trkpt lat="59.38843893818557" lon="13.323155958205462">
        <ele>88.63</ele>
        <time>2025-02-02T20:57:43.790Z</time>
      </trkpt>
      <trkpt lat="59.38848897814751" lon="13.322978932410479">
        <ele>88.48</ele>
        <time>2025-02-02T20:57:46.031Z</time>
      </trkpt>
      <trkpt lat="59.38853994011879" lon="13.32280794158578">
        <ele>88.32</ele>
        <time>2025-02-02T20:57:48.274Z</time>
      </trkpt>
      <trkpt lat="59.388593919575214" lon="13.322638962417841">
        <ele>88.17</ele>
        <time>2025-02-02T20:57:50.519Z</time>
      </trkpt>
      <trkpt lat="59.38864898867905" lon="13.322468977421522">
        <ele>88.01</ele>
        <time>2025-02-02T20:57:52.765Z</time>
      </trkpt>
      <trkpt lat="59.388702968135476" lon="13.322299998253584">
        <ele>87.86</ele>
        <time>2025-02-02T20:57:55.013Z</time>
      </trkpt>
      <trkpt lat="59.38875795342028" lon="13.322132946923375">
        <ele>87.72</ele>
        <time>2025-02-02T20:57:57.263Z</time>
      </trkpt>
      <trkpt lat="59.38881394453347" lon="13.32196799106896">
        <ele>87.56</ele>
        <time>2025-02-02T20:57:59.514Z</time>
      </trkpt>
      <trkpt lat="59.388872953131795" lon="13.321807980537415">
        <ele>87.4</ele>
        <time>2025-02-02T20:58:01.767Z</time>
      </trkpt>
      <trkpt lat="59.3889329675585" lon="13.321644952520728">
        <ele>87.24</ele>
        <time>2025-02-02T20:58:04.021Z</time>
      </trkpt>
      <trkpt lat="59.38899398781359" lon="13.321481924504042">
        <ele>87.09</ele>
        <time>2025-02-02T20:58:06.277Z</time>
      </trkpt>
      <trkpt lat="59.38905492424965" lon="13.321319986134768">
        <ele>86.92</ele>
        <time>2025-02-02T20:58:08.535Z</time>
      </trkpt>
      <trkpt lat="59.38911695033312" lon="13.321158969774842">
        <ele>86.77</ele>
        <time>2025-02-02T20:58:10.794Z</time>
      </trkpt>
      <trkpt lat="59.38918098807335" lon="13.320998959243298">
        <ele>86.62</ele>
        <time>2025-02-02T20:58:13.055Z</time>
      </trkpt>
      <trkpt lat="59.38924393616617" lon="13.320839954540133">
        <ele>86.46</ele>
        <time>2025-02-02T20:58:15.318Z</time>
      </trkpt>
      <trkpt lat="59.38930596224964" lon="13.320679944008589">
        <ele>86.31</ele>
        <time>2025-02-02T20:58:17.582Z</time>
      </trkpt>
      <trkpt lat="59.389367988333106" lon="13.320522950962186">
        <ele>86.17</ele>
        <time>2025-02-02T20:58:19.848Z</time>
      </trkpt>
      <trkpt lat="59.389430936425924" lon="13.320369981229305">
        <ele>86.03</ele>
        <time>2025-02-02T20:58:22.116Z</time>
      </trkpt>
      <trkpt lat="59.389492962509394" lon="13.320216927677393">
        <ele>85.89</ele>
        <time>2025-02-02T20:58:24.385Z</time>
      </trkpt>
      <trkpt lat="59.3895529769361" lon="13.320063957944512">
        <ele>85.75</ele>
        <time>2025-02-02T20:58:26.656Z</time>
      </trkpt>
      <trkpt lat="59.38961198553443" lon="13.319914927706122">
        <ele>85.61</ele>
        <time>2025-02-02T20:58:28.928Z</time>
      </trkpt>
      <trkpt lat="59.38967292197049" lon="13.319769920781255">
        <ele>85.48</ele>
        <time>2025-02-02T20:58:31.202Z</time>
      </trkpt>
      <trkpt lat="59.389732936397195" lon="13.319625919684768">
        <ele>85.35</ele>
        <time>2025-02-02T20:58:33.477Z</time>
      </trkpt>
      <trkpt lat="59.38979194499552" lon="13.319482924416661">
        <ele>85.21</ele>
        <time>2025-02-02T20:58:35.754Z</time>
      </trkpt>
      <trkpt lat="59.38984994776547" lon="13.319337917491794">
        <ele>85.08</ele>
        <time>2025-02-02T20:58:38.032Z</time>
      </trkpt>
      <trkpt lat="59.389906944707036" lon="13.319194922223687">
        <ele>84.95</ele>
        <time>2025-02-02T20:58:40.312Z</time>
      </trkpt>
      <trkpt lat="59.3899639416486" lon="13.319057961925864">
        <ele>84.82</ele>
        <time>2025-02-02T20:58:42.593Z</time>
      </trkpt>
      <trkpt lat="59.39001993276179" lon="13.318924941122532">
        <ele>84.7</ele>
        <time>2025-02-02T20:58:44.876Z</time>
      </trkpt>
      <trkpt lat="59.390074918046594" lon="13.31879393197596">
        <ele>84.58</ele>
        <time>2025-02-02T20:58:47.160Z</time>
      </trkpt>
      <trkpt lat="59.39012998715043" lon="13.31866493448615">
        <ele>84.46</ele>
        <time>2025-02-02T20:58:49.445Z</time>
      </trkpt>
      <trkpt lat="59.390183966606855" lon="13.318537948653102">
        <ele>84.34</ele>
        <time>2025-02-02T20:58:51.732Z</time>
      </trkpt>
      <trkpt lat="59.39023794606328" lon="13.318407945334911">
        <ele>84.22</ele>
        <time>2025-02-02T20:58:54.020Z</time>
      </trkpt>
      <trkpt lat="59.390291925519705" lon="13.318278947845101">
        <ele>84.1</ele>
        <time>2025-02-02T20:58:56.310Z</time>
      </trkpt>
      <trkpt lat="59.39034791663289" lon="13.31814894452691">
        <ele>83.98</ele>
        <time>2025-02-02T20:58:58.601Z</time>
      </trkpt>
      <trkpt lat="59.39040097407997" lon="13.31801894120872">
        <ele>83.87</ele>
        <time>2025-02-02T20:59:00.893Z</time>
      </trkpt>
      <trkpt lat="59.39045495353639" lon="13.317887932062149">
        <ele>83.76</ele>
        <time>2025-02-02T20:59:03.187Z</time>
      </trkpt>
      <trkpt lat="59.390506921336055" lon="13.317752983421087">
        <ele>83.65</ele>
        <time>2025-02-02T20:59:05.482Z</time>
      </trkpt>
      <trkpt lat="59.39056391827762" lon="13.317616945132613">
        <ele>83.55</ele>
        <time>2025-02-02T20:59:07.779Z</time>
      </trkpt>
      <trkpt lat="59.39061898738146" lon="13.317489959299564">
        <ele>83.45</ele>
        <time>2025-02-02T20:59:10.077Z</time>
      </trkpt>
      <trkpt lat="59.390673972666264" lon="13.317359955981374">
        <ele>83.35</ele>
        <time>2025-02-02T20:59:12.376Z</time>
      </trkpt>
      <trkpt lat="59.39072694629431" lon="13.317229952663183">
        <ele>83.25</ele>
        <time>2025-02-02T20:59:14.677Z</time>
      </trkpt>
      <trkpt lat="59.39077799208462" lon="13.317102966830134">
        <ele>83.15</ele>
        <time>2025-02-02T20:59:16.979Z</time>
      </trkpt>
      <trkpt lat="59.390827948227525" lon="13.316972963511944">
        <ele>83.05</ele>
        <time>2025-02-02T20:59:19.282Z</time>
      </trkpt>
      <trkpt lat="59.3908759765327" lon="13.31683692522347">
        <ele>82.97</ele>
        <time>2025-02-02T20:59:21.587Z</time>
      </trkpt>
      <trkpt lat="59.39091998152435" lon="13.316695941612124">
        <ele>82.88</ele>
        <time>2025-02-02T20:59:23.893Z</time>
      </trkpt>
      <trkpt lat="59.39096499234438" lon="13.316558981314301">
        <ele>82.78</ele>
        <time>2025-02-02T20:59:26.200Z</time>
      </trkpt>
      <trkpt lat="59.39101293683052" lon="13.31642797216773">
        <ele>82.69</ele>
        <time>2025-02-02T20:59:28.509Z</time>
      </trkpt>
      <trkpt lat="59.39105895347893" lon="13.316294951364398">
        <ele>82.61</ele>
        <time>2025-02-02T20:59:30.819Z</time>
      </trkpt>
      <trkpt lat="59.391106981784105" lon="13.316161930561066">
        <ele>82.52</ele>
        <time>2025-02-02T20:59:33.130Z</time>
      </trkpt>
      <trkpt lat="59.39115492627025" lon="13.316027987748384">
        <ele>82.44</ele>
        <time>2025-02-02T20:59:35.443Z</time>
      </trkpt>
      <trkpt lat="59.39120094291866" lon="13.315893961116672">
        <ele>82.35</ele>
        <time>2025-02-02T20:59:37.757Z</time>
      </trkpt>
      <trkpt lat="59.39124997705221" lon="13.315752977505326">
        <ele>82.26</ele>
        <time>2025-02-02T20:59:40.072Z</time>
      </trkpt>
      <trkpt lat="59.39129599370062" lon="13.315611993893981">
        <ele>82.17</ele>
        <time>2025-02-02T20:59:42.389Z</time>
      </trkpt>
      <trkpt lat="59.39134092070162" lon="13.315470926463604">
        <ele>82.09</ele>
        <time>2025-02-02T20:59:44.707Z</time>
      </trkpt>
      <trkpt lat="59.39138492569327" lon="13.315333966165781">
        <ele>82.0</ele>
        <time>2025-02-02T20:59:47.026Z</time>
      </trkpt>
      <trkpt lat="59.39142691902816" lon="13.315196922048926">
        <ele>81.92</ele>
        <time>2025-02-02T20:59:49.347Z</time>
      </trkpt>
      <trkpt lat="59.39146991819143" lon="13.31505199894309">
        <ele>81.84</ele>
        <time>2025-02-02T20:59:51.669Z</time>
      </trkpt>
      <trkpt lat="59.39151392318308" lon="13.314908919855952">
        <ele>81.77</ele>
        <time>2025-02-02T20:59:53.992Z</time>
      </trkpt>
      <trkpt lat="59.39155591651797" lon="13.314762990921736">
        <ele>81.69</ele>
        <time>2025-02-02T20:59:56.317Z</time>
      </trkpt>
      <trkpt lat="59.391597993671894" lon="13.31462292931974">
        <ele>81.61</ele>
        <time>2025-02-02T20:59:58.643Z</time>
      </trkpt>
      <trkpt lat="59.391640992835164" lon="13.314480939880013">
        <ele>81.53</ele>
        <time>2025-02-02T21:00:00.970Z</time>
      </trkpt>
      <trkpt lat="59.39167996868491" lon="13.314336938783526">
        <ele>81.46</ele>
        <time>2025-02-02T21:00:03.299Z</time>
      </trkpt>
      <trkpt lat="59.39171995036304" lon="13.314195955172181">
        <ele>81.39</ele>
        <time>2025-02-02T21:00:05.629Z</time>
      </trkpt>
      <trkpt lat="59.39175993204117" lon="13.314048936590552">
        <ele>81.32</ele>
        <time>2025-02-02T21:00:07.961Z</time>
      </trkpt>
      <trkpt lat="59.391795974224806" lon="13.313898984342813">
        <ele>81.25</ele>
        <time>2025-02-02T21:00:10.294Z</time>
      </trkpt>
      <trkpt lat="59.39183193258941" lon="13.313750959932804">
        <ele>81.18</ele>
        <time>2025-02-02T21:00:12.628Z</time>
      </trkpt>
      <trkpt lat="59.39186898060143" lon="13.313601929694414">
        <ele>81.11</ele>
        <time>2025-02-02T21:00:14.964Z</time>
      </trkpt>
      <trkpt lat="59.391905944794416" lon="13.313451977446675">
        <ele>81.04</ele>
        <time>2025-02-02T21:00:17.301Z</time>
      </trkpt>
      <trkpt lat="59.391941986978054" lon="13.313301941379905">
        <ele>80.97</ele>
        <time>2025-02-02T21:00:19.639Z</time>
      </trkpt>
      <trkpt lat="59.39197693951428" lon="13.313157940283418">
        <ele>80.9</ele>
        <time>2025-02-02T21:00:21.979Z</time>
      </trkpt>
      <trkpt lat="59.39201298169792" lon="13.313016956672072">
        <ele>80.84</ele>
        <time>2025-02-02T21:00:24.320Z</time>
      </trkpt>
      <trkpt lat="59.3920499458909" lon="13.312874967232347">
        <ele>80.77</ele>
        <time>2025-02-02T21:00:26.662Z</time>
      </trkpt>
      <trkpt lat="59.39208498224616" lon="13.312729960307479">
        <ele>80.7</ele>
        <time>2025-02-02T21:00:29.005Z</time>
      </trkpt>
      <trkpt lat="59.392119934782386" lon="13.31258294172585">
        <ele>80.64</ele>
        <time>2025-02-02T21:00:31.350Z</time>
      </trkpt>
      <trkpt lat="59.39215295948088" lon="13.31243491731584">
        <ele>80.58</ele>
        <time>2025-02-02T21:00:33.696Z</time>
      </trkpt>
      <trkpt lat="59.39218598417938" lon="13.312287982553244">
        <ele>80.51</ele>
        <time>2025-02-02T21:00:36.043Z</time>
      </trkpt>
      <trkpt lat="59.39221892505884" lon="13.312138952314854">
        <ele>80.44</ele>
        <time>2025-02-02T21:00:38.392Z</time>
      </trkpt>
      <trkpt lat="59.39225194975734" lon="13.311994951218367">
        <ele>80.38</ele>
        <time>2025-02-02T21:00:40.742Z</time>
      </trkpt>
      <trkpt lat="59.39228497445583" lon="13.311849944293499">
        <ele>80.31</ele>
        <time>2025-02-02T21:00:43.093Z</time>
      </trkpt>
      <trkpt lat="59.39231598749757" lon="13.31170393154025">
        <ele>80.25</ele>
        <time>2025-02-02T21:00:45.446Z</time>
      </trkpt>
      <trkpt lat="59.39234892837703" lon="13.311555990949273">
        <ele>80.19</ele>
        <time>2025-02-02T21:00:47.800Z</time>
      </trkpt>
      <trkpt lat="59.39237994141877" lon="13.311413917690516">
        <ele>80.13</ele>
        <time>2025-02-02T21:00:50.155Z</time>
      </trkpt>
      <trkpt lat="59.3924109544605" lon="13.311270922422409">
        <ele>80.07</ele>
        <time>2025-02-02T21:00:52.512Z</time>
      </trkpt>
      <trkpt lat="59.39244498498738" lon="13.31112197600305">
        <ele>80.01</ele>
        <time>2025-02-02T21:00:54.870Z</time>
      </trkpt>
      <trkpt lat="59.39247692003846" lon="13.310974957421422">
        <ele>79.94</ele>
        <time>2025-02-02T21:00:57.229Z</time>
      </trkpt>
      <trkpt lat="59.392507933080196" lon="13.310826933011413">
        <ele>79.88</ele>
        <time>2025-02-02T21:00:59.589Z</time>
      </trkpt>
      <trkpt lat="59.39253894612193" lon="13.310677986592054">
        <ele>79.82</ele>
        <time>2025-02-02T21:01:01.951Z</time>
      </trkpt>
      <trkpt lat="59.392569959163666" lon="13.310524933040142">
        <ele>79.76</ele>
        <time>2025-02-02T21:01:04.314Z</time>
      </trkpt>
      <trkpt lat="59.3926009722054" lon="13.310371963307261">
        <ele>79.69</ele>
        <time>2025-02-02T21:01:06.678Z</time>
      </trkpt>
      <trkpt lat="59.392629973590374" lon="13.310219999402761">
        <ele>79.63</ele>
        <time>2025-02-02T21:01:09.044Z</time>
      </trkpt>
      <trkpt lat="59.39265998080373" lon="13.31006795167923">
        <ele>79.57</ele>
        <time>2025-02-02T21:01:11.411Z</time>
      </trkpt>
      <trkpt lat="59.39268998801708" lon="13.30991892144084">
        <ele>79.51</ele>
        <time>2025-02-02T21:01:13.779Z</time>
      </trkpt>
      <trkpt lat="59.392720917239785" lon="13.309769975021482">
        <ele>79.45</ele>
        <time>2025-02-02T21:01:16.149Z</time>
      </trkpt>
      <trkpt lat="59.39275092445314" lon="13.309622956439853">
        <ele>79.39</ele>
        <time>2025-02-02T21:01:18.520Z</time>
      </trkpt>
      <trkpt lat="59.39278093166649" lon="13.309476943686604">
        <ele>79.32</ele>
        <time>2025-02-02T21:01:20.892Z</time>
      </trkpt>
      <trkpt lat="59.39281093887985" lon="13.309329925104976">
        <ele>79.25</ele>
        <time>2025-02-02T21:01:23.266Z</time>
      </trkpt>
      <trkpt lat="59.39283994026482" lon="13.309175949543715">
        <ele>79.18</ele>
        <time>2025-02-02T21:01:25.641Z</time>
      </trkpt>
      <trkpt lat="59.392868941649795" lon="13.309022979810834">
        <ele>79.12</ele>
        <time>2025-02-02T21:01:28.017Z</time>
      </trkpt>
      <trkpt lat="59.39289995469153" lon="13.308869926258922">
        <ele>79.05</ele>
        <time>2025-02-02T21:01:30.395Z</time>
      </trkpt>
      <trkpt lat="59.3929289560765" lon="13.308719974011183">
        <ele>78.99</ele>
        <time>2025-02-02T21:01:32.774Z</time>
      </trkpt>
      <trkpt lat="59.392957957461476" lon="13.30856398679316">
        <ele>78.93</ele>
        <time>2025-02-02T21:01:35.154Z</time>
      </trkpt>
      <trkpt lat="59.39298494718969" lon="13.308411939069629">
        <ele>78.86</ele>
        <time>2025-02-02T21:01:37.536Z</time>
      </trkpt>
      <trkpt lat="59.39301294274628" lon="13.308259975165129">
        <ele>78.8</ele>
        <time>2025-02-02T21:01:39.919Z</time>
      </trkpt>
      <trkpt lat="59.393040938302875" lon="13.308108933269978">
        <ele>78.75</ele>
        <time>2025-02-02T21:01:42.303Z</time>
      </trkpt>
      <trkpt lat="59.39306993968785" lon="13.307957975193858">
        <ele>78.69</ele>
        <time>2025-02-02T21:01:44.689Z</time>
      </trkpt>
      <trkpt lat="59.39309894107282" lon="13.307807939127088">
        <ele>78.63</ele>
        <time>2025-02-02T21:01:47.076Z</time>
      </trkpt>
      <trkpt lat="59.393128948286176" lon="13.307657986879349">
        <ele>78.57</ele>
        <time>2025-02-02T21:01:49.464Z</time>
      </trkpt>
      <trkpt lat="59.39315794967115" lon="13.307508956640959">
        <ele>78.51</ele>
        <time>2025-02-02T21:01:51.854Z</time>
      </trkpt>
      <trkpt lat="59.39318594522774" lon="13.30736093223095">
        <ele>78.44</ele>
        <time>2025-02-02T21:01:54.245Z</time>
      </trkpt>
      <trkpt lat="59.393213940784335" lon="13.307205950841308">
        <ele>78.37</ele>
        <time>2025-02-02T21:01:56.637Z</time>
      </trkpt>
      <trkpt lat="59.39324193634093" lon="13.307053986936808">
        <ele>78.3</ele>
        <time>2025-02-02T21:01:59.031Z</time>
      </trkpt>
      <trkpt lat="59.3932709377259" lon="13.306901939213276">
        <ele>78.23</ele>
        <time>2025-02-02T21:02:01.426Z</time>
      </trkpt>
      <trkpt lat="59.393301950767636" lon="13.306752992793918">
        <ele>78.17</ele>
        <time>2025-02-02T21:02:03.822Z</time>
      </trkpt>
      <trkpt lat="59.39333195798099" lon="13.306602956727147">
        <ele>78.11</ele>
        <time>2025-02-02T21:02:06.219Z</time>
      </trkpt>
      <trkpt lat="59.393361965194345" lon="13.306450992822647">
        <ele>78.04</ele>
        <time>2025-02-02T21:02:08.618Z</time>
      </trkpt>
      <trkpt lat="59.39339096657932" lon="13.306300956755877">
        <ele>77.98</ele>
        <time>2025-02-02T21:02:11.018Z</time>
      </trkpt>
      <trkpt lat="59.39342197962105" lon="13.306150920689106">
        <ele>77.92</ele>
        <time>2025-02-02T21:02:13.419Z</time>
      </trkpt>
      <trkpt lat="59.39345198683441" lon="13.306002980098128">
        <ele>77.86</ele>
        <time>2025-02-02T21:02:15.822Z</time>
      </trkpt>
      <trkpt lat="59.39348098821938" lon="13.30585696734488">
        <ele>77.81</ele>
        <time>2025-02-02T21:02:18.226Z</time>
      </trkpt>
      <trkpt lat="59.393509989604354" lon="13.305711960420012">
        <ele>77.75</ele>
        <time>2025-02-02T21:02:20.631Z</time>
      </trkpt>
      <trkpt lat="59.39353798516095" lon="13.305568965151906">
        <ele>77.69</ele>
        <time>2025-02-02T21:02:23.038Z</time>
      </trkpt>
      <trkpt lat="59.3935679923743" lon="13.305421946570277">
        <ele>77.63</ele>
        <time>2025-02-02T21:02:25.446Z</time>
      </trkpt>
      <trkpt lat="59.393597999587655" lon="13.305275933817029">
        <ele>77.57</ele>
        <time>2025-02-02T21:02:27.855Z</time>
      </trkpt>
      <trkpt lat="59.39362792298198" lon="13.305132938548923">
        <ele>77.51</ele>
        <time>2025-02-02T21:02:30.265Z</time>
      </trkpt>
      <trkpt lat="59.39365793019533" lon="13.304983992129564">
        <ele>77.45</ele>
        <time>2025-02-02T21:02:32.677Z</time>
      </trkpt>
      <trkpt lat="59.393688943237066" lon="13.304837979376316">
        <ele>77.39</ele>
        <time>2025-02-02T21:02:35.090Z</time>
      </trkpt>
      <trkpt lat="59.39371794462204" lon="13.304689954966307">
        <ele>77.33</ele>
        <time>2025-02-02T21:02:37.504Z</time>
      </trkpt>
      <trkpt lat="59.39374694600701" lon="13.304539918899536">
        <ele>77.27</ele>
        <time>2025-02-02T21:02:39.920Z</time>
      </trkpt>
      <trkpt lat="59.39377594739199" lon="13.304392984136939">
        <ele>77.22</ele>
        <time>2025-02-02T21:02:42.337Z</time>
      </trkpt>
      <trkpt lat="59.39380494877696" lon="13.304242948070168">
        <ele>77.16</ele>
        <time>2025-02-02T21:02:44.755Z</time>
      </trkpt>
      <trkpt lat="59.39383294433355" lon="13.304091989994049">
        <ele>77.1</ele>
        <time>2025-02-02T21:02:47.175Z</time>
      </trkpt>
      <trkpt lat="59.39386194571853" lon="13.303942959755659">
        <ele>77.04</ele>
        <time>2025-02-02T21:02:49.596Z</time>
      </trkpt>
      <trkpt lat="59.39389195293188" lon="13.303792923688889">
        <ele>76.99</ele>
        <time>2025-02-02T21:02:52.018Z</time>
      </trkpt>
      <trkpt lat="59.393921960145235" lon="13.30364297144115">
        <ele>76.93</ele>
        <time>2025-02-02T21:02:54.441Z</time>
      </trkpt>
      <trkpt lat="59.39395196735859" lon="13.30349293537438">
        <ele>76.88</ele>
        <time>2025-02-02T21:02:56.866Z</time>
      </trkpt>
      <trkpt lat="59.39398197457194" lon="13.303343988955021">
        <ele>76.83</ele>
        <time>2025-02-02T21:02:59.292Z</time>
      </trkpt>
      <trkpt lat="59.39401298761368" lon="13.30319395288825">
        <ele>76.77</ele>
        <time>2025-02-02T21:03:01.719Z</time>
      </trkpt>
      <trkpt lat="59.39404299482703" lon="13.30304391682148">
        <ele>76.73</ele>
        <time>2025-02-02T21:03:04.148Z</time>
      </trkpt>
      <trkpt lat="59.394072918221354" lon="13.302893964573741">
        <ele>76.68</ele>
        <time>2025-02-02T21:03:06.578Z</time>
      </trkpt>
      <trkpt lat="59.39410292543471" lon="13.30274392850697">
        <ele>76.63</ele>
        <time>2025-02-02T21:03:09.009Z</time>
      </trkpt>
      <trkpt lat="59.39413293264806" lon="13.302594982087612">
        <ele>76.58</ele>
        <time>2025-02-02T21:03:11.442Z</time>
      </trkpt>
      <trkpt lat="59.39416293986142" lon="13.302444946020842">
        <ele>76.53</ele>
        <time>2025-02-02T21:03:13.876Z</time>
      </trkpt>
      <trkpt lat="59.39419194124639" lon="13.302294993773103">
        <ele>76.49</ele>
        <time>2025-02-02T21:03:16.311Z</time>
      </trkpt>
      <trkpt lat="59.39421993680298" lon="13.302144957706332">
        <ele>76.44</ele>
        <time>2025-02-02T21:03:18.748Z</time>
      </trkpt>
      <trkpt lat="59.394247932359576" lon="13.301996933296323">
        <ele>76.4</ele>
        <time>2025-02-02T21:03:21.186Z</time>
      </trkpt>
      <trkpt lat="59.39427592791617" lon="13.301850920543075">
        <ele>76.36</ele>
        <time>2025-02-02T21:03:23.625Z</time>
      </trkpt>
      <trkpt lat="59.39430291764438" lon="13.301702979952097">
        <ele>76.31</ele>
        <time>2025-02-02T21:03:26.066Z</time>
      </trkpt>
      <trkpt lat="59.394329991191626" lon="13.301554955542088">
        <ele>76.26</ele>
        <time>2025-02-02T21:03:28.508Z</time>
      </trkpt>
      <trkpt lat="59.3943589925766" lon="13.30140894278884">
        <ele>76.21</ele>
        <time>2025-02-02T21:03:30.951Z</time>
      </trkpt>
      <trkpt lat="59.39438799396157" lon="13.301263935863972">
        <ele>76.17</ele>
        <time>2025-02-02T21:03:33.395Z</time>
      </trkpt>
      <trkpt lat="59.394416995346546" lon="13.301119934767485">
        <ele>76.13</ele>
        <time>2025-02-02T21:03:35.841Z</time>
      </trkpt>
      <trkpt lat="59.39444691874087" lon="13.300973922014236">
        <ele>76.09</ele>
        <time>2025-02-02T21:03:38.288Z</time>
      </trkpt>
      <trkpt lat="59.39447692595422" lon="13.300825981423259">
        <ele>76.04</ele>
        <time>2025-02-02T21:03:40.736Z</time>
      </trkpt>
      <trkpt lat="59.39450693316758" lon="13.300674939528108">
        <ele>76.0</ele>
        <time>2025-02-02T21:03:43.186Z</time>
      </trkpt>
      <trkpt lat="59.39453794620931" lon="13.30052699893713">
        <ele>75.96</ele>
        <time>2025-02-02T21:03:45.637Z</time>
      </trkpt>
      <trkpt lat="59.394567953422666" lon="13.30037796869874">
        <ele>75.92</ele>
        <time>2025-02-02T21:03:48.089Z</time>
      </trkpt>
      <trkpt lat="59.39459796063602" lon="13.300226926803589">
        <ele>75.88</ele>
        <time>2025-02-02T21:03:50.542Z</time>
      </trkpt>
      <trkpt lat="59.39462696202099" lon="13.300079992040992">
        <ele>75.84</ele>
        <time>2025-02-02T21:03:52.997Z</time>
      </trkpt>
      <trkpt lat="59.39465596340597" lon="13.299933979287744">
        <ele>75.79</ele>
        <time>2025-02-02T21:03:55.453Z</time>
      </trkpt>
      <trkpt lat="59.3946869764477" lon="13.299788972362876">
        <ele>75.76</ele>
        <time>2025-02-02T21:03:57.910Z</time>
      </trkpt>
      <trkpt lat="59.394717989489436" lon="13.299641953781247">
        <ele>75.73</ele>
        <time>2025-02-02T21:04:00.369Z</time>
      </trkpt>
      <trkpt lat="59.39474891871214" lon="13.299493929371238">
        <ele>75.69</ele>
        <time>2025-02-02T21:04:02.829Z</time>
      </trkpt>
      <trkpt lat="59.39477892592549" lon="13.29934791661799">
        <ele>75.66</ele>
        <time>2025-02-02T21:04:05.290Z</time>
      </trkpt>
      <trkpt lat="59.39480893313885" lon="13.299202993512154">
        <ele>75.62</ele>
        <time>2025-02-02T21:04:07.753Z</time>
      </trkpt>
      <trkpt lat="59.3948389403522" lon="13.299058992415667">
        <ele>75.59</ele>
        <time>2025-02-02T21:04:10.217Z</time>
      </trkpt>
      <trkpt lat="59.394868947565556" lon="13.298913985490799">
        <ele>75.55</ele>
        <time>2025-02-02T21:04:12.682Z</time>
      </trkpt>
      <trkpt lat="59.39489694312215" lon="13.29876596108079">
        <ele>75.52</ele>
        <time>2025-02-02T21:04:15.148Z</time>
      </trkpt>
      <trkpt lat="59.39492594450712" lon="13.298619948327541">
        <ele>75.49</ele>
        <time>2025-02-02T21:04:17.616Z</time>
      </trkpt>
      <trkpt lat="59.394955951720476" lon="13.298473935574293">
        <ele>75.46</ele>
        <time>2025-02-02T21:04:20.085Z</time>
      </trkpt>
      <trkpt lat="59.39498495310545" lon="13.298324989154935">
        <ele>75.42</ele>
        <time>2025-02-02T21:04:22.555Z</time>
      </trkpt>
      <trkpt lat="59.39501395449042" lon="13.298176964744925">
        <ele>75.4</ele>
        <time>2025-02-02T21:04:25.027Z</time>
      </trkpt>
      <trkpt lat="59.39504396170378" lon="13.298027934506536">
        <ele>75.37</ele>
        <time>2025-02-02T21:04:27.500Z</time>
      </trkpt>
      <trkpt lat="59.39507396891713" lon="13.297878988087177">
        <ele>75.35</ele>
        <time>2025-02-02T21:04:29.974Z</time>
      </trkpt>
      <trkpt lat="59.395103976130486" lon="13.297730963677168">
        <ele>75.32</ele>
        <time>2025-02-02T21:04:32.449Z</time>
      </trkpt>
      <trkpt lat="59.39513297751546" lon="13.297581933438778">
        <ele>75.3</ele>
        <time>2025-02-02T21:04:34.926Z</time>
      </trkpt>
      <trkpt lat="59.39516197890043" lon="13.29743298701942">
        <ele>75.29</ele>
        <time>2025-02-02T21:04:37.404Z</time>
      </trkpt>
      <trkpt lat="59.39519198611379" lon="13.29728395678103">
        <ele>75.27</ele>
        <time>2025-02-02T21:04:39.883Z</time>
      </trkpt>
      <trkpt lat="59.39522199332714" lon="13.29713299870491">
        <ele>75.25</ele>
        <time>2025-02-02T21:04:42.364Z</time>
      </trkpt>
      <trkpt lat="59.395250994712114" lon="13.29698195680976">
        <ele>75.23</ele>
        <time>2025-02-02T21:04:44.846Z</time>
      </trkpt>
      <trkpt lat="59.39527999609709" lon="13.296831920742989">
        <ele>75.21</ele>
        <time>2025-02-02T21:04:47.329Z</time>
      </trkpt>
      <trkpt lat="59.39530799165368" lon="13.29668196849525">
        <ele>75.18</ele>
        <time>2025-02-02T21:04:49.814Z</time>
      </trkpt>
      <trkpt lat="59.395335987210274" lon="13.296530926600099">
        <ele>75.16</ele>
        <time>2025-02-02T21:04:52.300Z</time>
      </trkpt>
      <trkpt lat="59.395362976938486" lon="13.29638097435236">
        <ele>75.14</ele>
        <time>2025-02-02T21:04:54.787Z</time>
      </trkpt>
      <trkpt lat="59.3953899666667" lon="13.296229932457209">
        <ele>75.12</ele>
        <time>2025-02-02T21:04:57.276Z</time>
      </trkpt>
      <trkpt lat="59.39541695639491" lon="13.29607897438109">
        <ele>75.1</ele>
        <time>2025-02-02T21:04:59.766Z</time>
      </trkpt>
      <trkpt lat="59.39544294029474" lon="13.295926926657557">
        <ele>75.08</ele>
        <time>2025-02-02T21:05:02.257Z</time>
      </trkpt>
      <trkpt lat="59.395467918366194" lon="13.295773956924677">
        <ele>75.06</ele>
        <time>2025-02-02T21:05:04.749Z</time>
      </trkpt>
      <trkpt lat="59.39549298025668" lon="13.295618975535035">
        <ele>75.04</ele>
        <time>2025-02-02T21:05:07.243Z</time>
      </trkpt>
      <trkpt lat="59.39551896415651" lon="13.295463994145393">
        <ele>75.02</ele>
        <time>2025-02-02T21:05:09.738Z</time>
      </trkpt>
      <trkpt lat="59.39554394222796" lon="13.29530892893672">
        <ele>75.01</ele>
        <time>2025-02-02T21:05:12.234Z</time>
      </trkpt>
      <trkpt lat="59.39556799829006" lon="13.295154953375459">
        <ele>75.0</ele>
        <time>2025-02-02T21:05:14.732Z</time>
      </trkpt>
      <trkpt lat="59.39559096470475" lon="13.294999971985817">
        <ele>74.99</ele>
        <time>2025-02-02T21:05:17.231Z</time>
      </trkpt>
      <trkpt lat="59.39561393111944" lon="13.294844990596175">
        <ele>74.98</ele>
        <time>2025-02-02T21:05:19.731Z</time>
      </trkpt>
      <trkpt lat="59.39563597552478" lon="13.294691937044263">
        <ele>74.97</ele>
        <time>2025-02-02T21:05:22.233Z</time>
      </trkpt>
      <trkpt lat="59.39565793611109" lon="13.294539973139763">
        <ele>74.96</ele>
        <time>2025-02-02T21:05:24.736Z</time>
      </trkpt>
      <trkpt lat="59.39567897468805" lon="13.29438691958785">
        <ele>74.95</ele>
        <time>2025-02-02T21:05:27.240Z</time>
      </trkpt>
      <trkpt lat="59.39569699577987" lon="13.294229926541448">
        <ele>74.94</ele>
        <time>2025-02-02T21:05:29.746Z</time>
      </trkpt>
      <trkpt lat="59.39571392722428" lon="13.294071927666664">
        <ele>74.93</ele>
        <time>2025-02-02T21:05:32.253Z</time>
      </trkpt>
      <trkpt lat="59.395729936659336" lon="13.293914934620261">
        <ele>74.92</ele>
        <time>2025-02-02T21:05:34.761Z</time>
      </trkpt>
      <trkpt lat="59.39574494026601" lon="13.293758947402239">
        <ele>74.91</ele>
        <time>2025-02-02T21:05:37.271Z</time>
      </trkpt>
      <trkpt lat="59.39575893804431" lon="13.293603966012597">
        <ele>74.91</ele>
        <time>2025-02-02T21:05:39.782Z</time>
      </trkpt>
      <trkpt lat="59.39577394165099" lon="13.293450996279716">
        <ele>74.91</ele>
        <time>2025-02-02T21:05:42.294Z</time>
      </trkpt>
      <trkpt lat="59.3957869336009" lon="13.293296936899424">
        <ele>74.9</ele>
        <time>2025-02-02T21:05:44.807Z</time>
      </trkpt>
      <trkpt lat="59.39579992555082" lon="13.293144972994924">
        <ele>74.9</ele>
        <time>2025-02-02T21:05:47.322Z</time>
      </trkpt>
      <trkpt lat="59.395811995491385" lon="13.292996948584914">
        <ele>74.9</ele>
        <time>2025-02-02T21:05:49.838Z</time>
      </trkpt>
      <trkpt lat="59.39582297578454" lon="13.292855964973569">
        <ele>74.89</ele>
        <time>2025-02-02T21:05:52.355Z</time>
      </trkpt>
      <trkpt lat="59.395831944420934" lon="13.292720932513475">
        <ele>74.89</ele>
        <time>2025-02-02T21:05:54.873Z</time>
      </trkpt>
      <trkpt lat="59.39584099687636" lon="13.292596964165568">
        <ele>74.89</ele>
        <time>2025-02-02T21:05:57.392Z</time>
      </trkpt>
      <trkpt lat="59.39584795385599" lon="13.292484981939197">
        <ele>74.9</ele>
        <time>2025-02-02T21:05:59.912Z</time>
      </trkpt>
      <trkpt lat="59.395853988826275" lon="13.292380962520838">
        <ele>74.9</ele>
        <time>2025-02-02T21:06:02.433Z</time>
      </trkpt>
      <trkpt lat="59.39585993997753" lon="13.292284989729524">
        <ele>74.91</ele>
        <time>2025-02-02T21:06:04.955Z</time>
      </trkpt>
      <trkpt lat="59.39586698077619" lon="13.292200919240713">
        <ele>74.92</ele>
        <time>2025-02-02T21:06:07.477Z</time>
      </trkpt>
      <trkpt lat="59.39587192609906" lon="13.29212891869247">
        <ele>74.93</ele>
        <time>2025-02-02T21:06:10.000Z</time>
      </trkpt>
      <trkpt lat="59.39587293192744" lon="13.292067982256413">
        <ele>74.94</ele>
        <time>2025-02-02T21:06:12.524Z</time>
      </trkpt>
      <trkpt lat="59.39586899243295" lon="13.292008973658085">
        <ele>74.95</ele>
        <time>2025-02-02T21:06:15.048Z</time>
      </trkpt>
      <trkpt lat="59.39586396329105" lon="13.291950970888138">
        <ele>74.96</ele>
        <time>2025-02-02T21:06:17.573Z</time>
      </trkpt>
      <trkpt lat="59.39587092027068" lon="13.29189095646143">
        <ele>74.97</ele>
        <time>2025-02-02T21:06:20.098Z</time>
      </trkpt>
      <trkpt lat="59.39588793553412" lon="13.291831947863102">
        <ele>74.98</ele>
        <time>2025-02-02T21:06:22.624Z</time>
      </trkpt>
      <trkpt lat="59.39591098576784" lon="13.291766988113523">
        <ele>75.0</ele>
        <time>2025-02-02T21:06:25.150Z</time>
      </trkpt>
      <trkpt lat="59.39593596383929" lon="13.291692975908518">
        <ele>75.01</ele>
        <time>2025-02-02T21:06:27.677Z</time>
      </trkpt>
      <trkpt lat="59.395962953567505" lon="13.291602954268456">
        <ele>75.03</ele>
        <time>2025-02-02T21:06:30.205Z</time>
      </trkpt>
      <trkpt lat="59.39599195495248" lon="13.291508993133903">
        <ele>75.04</ele>
        <time>2025-02-02T21:06:32.734Z</time>
      </trkpt>
      <trkpt lat="59.396024979650974" lon="13.291409919038415">
        <ele>75.06</ele>
        <time>2025-02-02T21:06:35.264Z</time>
      </trkpt>
      <trkpt lat="59.39606395550072" lon="13.2913139462471">
        <ele>75.08</ele>
        <time>2025-02-02T21:06:37.795Z</time>
      </trkpt>
      <trkpt lat="59.396109972149134" lon="13.291221996769309">
        <ele>75.1</ele>
        <time>2025-02-02T21:06:40.327Z</time>
      </trkpt>
      <trkpt lat="59.39616093412042" lon="13.291136920452118">
        <ele>75.13</ele>
        <time>2025-02-02T21:06:42.860Z</time>
      </trkpt>
      <trkpt lat="59.3962169252336" lon="13.29105595126748">
        <ele>75.15</ele>
        <time>2025-02-02T21:06:45.394Z</time>
      </trkpt>
      <trkpt lat="59.39627593383193" lon="13.290983950719237">
        <ele>75.17</ele>
        <time>2025-02-02T21:06:47.929Z</time>
      </trkpt>
      <trkpt lat="59.39633695408702" lon="13.290916979312897">
        <ele>75.2</ele>
        <time>2025-02-02T21:06:50.465Z</time>
      </trkpt>
      <trkpt lat="59.39639696851373" lon="13.290852941572666">
        <ele>75.23</ele>
        <time>2025-02-02T21:06:53.002Z</time>
      </trkpt>
      <trkpt lat="59.396455977112055" lon="13.290789993479848">
        <ele>75.26</ele>
        <time>2025-02-02T21:06:55.540Z</time>
      </trkpt>
      <trkpt lat="59.396513979882" lon="13.290725955739617">
        <ele>75.29</ele>
        <time>2025-02-02T21:06:58.079Z</time>
      </trkpt>
      <trkpt lat="59.39656896516681" lon="13.290658984333277">
        <ele>75.32</ele>
        <time>2025-02-02T21:07:00.619Z</time>
      </trkpt>
      <trkpt lat="59.39662093296647" lon="13.290587989613414">
        <ele>75.35</ele>
        <time>2025-02-02T21:07:03.160Z</time>
      </trkpt>
      <trkpt lat="59.396670972928405" lon="13.290519928559661">
        <ele>75.38</ele>
        <time>2025-02-02T21:07:05.702Z</time>
      </trkpt>
      <trkpt lat="59.396718917414546" lon="13.29045295715332">
        <ele>75.41</ele>
        <time>2025-02-02T21:07:08.245Z</time>
      </trkpt>
      <trkpt lat="59.39676493406296" lon="13.290382968261838">
        <ele>75.44</ele>
        <time>2025-02-02T21:07:10.789Z</time>
      </trkpt>
      <trkpt lat="59.39681095071137" lon="13.290309961885214">
        <ele>75.47</ele>
        <time>2025-02-02T21:07:13.334Z</time>
      </trkpt>
      <trkpt lat="59.39685797318816" lon="13.29023796133697">
        <ele>75.5</ele>
        <time>2025-02-02T21:07:15.880Z</time>
      </trkpt>
      <trkpt lat="59.396904995664954" lon="13.290164954960346">
        <ele>75.53</ele>
        <time>2025-02-02T21:07:18.427Z</time>
      </trkpt>
      <trkpt lat="59.396950928494334" lon="13.2900879252702">
        <ele>75.57</ele>
        <time>2025-02-02T21:07:20.975Z</time>
      </trkpt>
      <trkpt lat="59.396993927657604" lon="13.290009973570704">
        <ele>75.6</ele>
        <time>2025-02-02T21:07:23.524Z</time>
      </trkpt>
      <trkpt lat="59.397034998983145" lon="13.289924981072545">
        <ele>75.63</ele>
        <time>2025-02-02T21:07:26.074Z</time>
      </trkpt>
      <trkpt lat="59.39707397483289" lon="13.289832947775722">
        <ele>75.67</ele>
        <time>2025-02-02T21:07:28.625Z</time>
      </trkpt>
      <trkpt lat="59.39710892736912" lon="13.28973999246955">
        <ele>75.7</ele>
        <time>2025-02-02T21:07:31.177Z</time>
      </trkpt>
      <trkpt lat="59.397141952067614" lon="13.28963496722281">
        <ele>75.74</ele>
        <time>2025-02-02T21:07:33.730Z</time>
      </trkpt>
      <trkpt lat="59.39717497676611" lon="13.289523990824819">
        <ele>75.77</ele>
        <time>2025-02-02T21:07:36.284Z</time>
      </trkpt>
      <trkpt lat="59.397208923473954" lon="13.289410918951035">
        <ele>75.8</ele>
        <time>2025-02-02T21:07:38.839Z</time>
      </trkpt>
      <trkpt lat="59.39724295400083" lon="13.289298936724663">
        <ele>75.84</ele>
        <time>2025-02-02T21:07:41.395Z</time>
      </trkpt>
      <trkpt lat="59.39727698452771" lon="13.28918494284153">
        <ele>75.88</ele>
        <time>2025-02-02T21:07:43.952Z</time>
      </trkpt>
      <trkpt lat="59.39731093123555" lon="13.289070948958397">
        <ele>75.92</ele>
        <time>2025-02-02T21:07:46.510Z</time>
      </trkpt>
      <trkpt lat="59.39734496176243" lon="13.288951925933361">
        <ele>75.95</ele>
        <time>2025-02-02T21:07:49.069Z</time>
      </trkpt>
      <trkpt lat="59.397381925955415" lon="13.288835920393467">
        <ele>75.99</ele>
        <time>2025-02-02T21:07:51.630Z</time>
      </trkpt>
      <trkpt lat="59.39741796813905" lon="13.288715975359082">
        <ele>76.03</ele>
        <time>2025-02-02T21:07:54.192Z</time>
      </trkpt>
      <trkpt lat="59.39745292067528" lon="13.288599969819188">
        <ele>76.07</ele>
        <time>2025-02-02T21:07:56.755Z</time>
      </trkpt>
      <trkpt lat="59.397486951202154" lon="13.288479940965772">
        <ele>76.11</ele>
        <time>2025-02-02T21:07:59.319Z</time>
      </trkpt>
      <trkpt lat="59.39751997590065" lon="13.288358990103006">
        <ele>76.14</ele>
        <time>2025-02-02T21:08:01.884Z</time>
      </trkpt>
      <trkpt lat="59.397554928436875" lon="13.288236949592829">
        <ele>76.19</ele>
        <time>2025-02-02T21:08:04.450Z</time>
      </trkpt>
      <trkpt lat="59.39758795313537" lon="13.288117926567793">
        <ele>76.24</ele>
        <time>2025-02-02T21:08:07.017Z</time>
      </trkpt>
      <trkpt lat="59.39762097783387" lon="13.28800099901855">
        <ele>76.27</ele>
        <time>2025-02-02T21:08:09.585Z</time>
      </trkpt>
      <trkpt lat="59.39765391871333" lon="13.287883987650275">
        <ele>76.32</ele>
        <time>2025-02-02T21:08:12.155Z</time>
      </trkpt>
      <trkpt lat="59.39768593758345" lon="13.28776597045362">
        <ele>76.35</ele>
        <time>2025-02-02T21:08:14.726Z</time>
      </trkpt>
      <trkpt lat="59.39771795645356" lon="13.287641918286681">
        <ele>76.39</ele>
        <time>2025-02-02T21:08:17.298Z</time>
      </trkpt>
      <trkpt lat="59.39775098115206" lon="13.287516944110394">
        <ele>76.43</ele>
        <time>2025-02-02T21:08:19.871Z</time>
      </trkpt>
      <trkpt lat="59.3977849278599" lon="13.287388952448964">
        <ele>76.47</ele>
        <time>2025-02-02T21:08:22.445Z</time>
      </trkpt>
      <trkpt lat="59.39781895838678" lon="13.287258949130774">
        <ele>76.51</ele>
        <time>2025-02-02T21:08:25.020Z</time>
      </trkpt>
      <trkpt lat="59.397852988913655" lon="13.287125928327441">
        <ele>76.56</ele>
        <time>2025-02-02T21:08:27.596Z</time>
      </trkpt>
      <trkpt lat="59.39788794144988" lon="13.286989973857999">
        <ele>76.6</ele>
        <time>2025-02-02T21:08:30.174Z</time>
      </trkpt>
      <trkpt lat="59.3979249894619" lon="13.286853935569525">
        <ele>76.64</ele>
        <time>2025-02-02T21:08:32.753Z</time>
      </trkpt>
      <trkpt lat="59.397962959483266" lon="13.28671496361494">
        <ele>76.69</ele>
        <time>2025-02-02T21:08:35.333Z</time>
      </trkpt>
      <trkpt lat="59.39800092950463" lon="13.286574985831976">
        <ele>76.74</ele>
        <time>2025-02-02T21:08:37.915Z</time>
      </trkpt>
      <trkpt lat="59.39803898334503" lon="13.286427967250347">
        <ele>76.79</ele>
        <time>2025-02-02T21:08:40.498Z</time>
      </trkpt>
      <trkpt lat="59.3980769533664" lon="13.286275919526815">
        <ele>76.85</ele>
        <time>2025-02-02T21:08:43.082Z</time>
      </trkpt>
      <trkpt lat="59.398114923387766" lon="13.286127978935838">
        <ele>76.89</ele>
        <time>2025-02-02T21:08:45.668Z</time>
      </trkpt>
      <trkpt lat="59.398152977228165" lon="13.285978948697448">
        <ele>76.94</ele>
        <time>2025-02-02T21:08:48.255Z</time>
      </trkpt>
      <trkpt lat="59.398194970563054" lon="13.285835953429341">
        <ele>76.99</ele>
        <time>2025-02-02T21:08:50.843Z</time>
      </trkpt>
      <trkpt lat="59.39823595806956" lon="13.285687929019332">
        <ele>77.04</ele>
        <time>2025-02-02T21:08:53.433Z</time>
      </trkpt>
      <trkpt lat="59.39827392809093" lon="13.285540994256735">
        <ele>77.08</ele>
        <time>2025-02-02T21:08:56.024Z</time>
      </trkpt>
      <trkpt lat="59.39831399358809" lon="13.285396993160248">
        <ele>77.12</ele>
        <time>2025-02-02T21:08:58.616Z</time>
      </trkpt>
      <trkpt lat="59.3983549810946" lon="13.28525491990149">
        <ele>77.16</ele>
        <time>2025-02-02T21:09:01.210Z</time>
      </trkpt>
      <trkpt lat="59.39839798025787" lon="13.285118965432048">
        <ele>77.2</ele>
        <time>2025-02-02T21:09:03.805Z</time>
      </trkpt>
      <trkpt lat="59.39843896776438" lon="13.284981921315193">
        <ele>77.24</ele>
        <time>2025-02-02T21:09:06.401Z</time>
      </trkpt>
      <trkpt lat="59.39848096109927" lon="13.284839931875467">
        <ele>77.29</ele>
        <time>2025-02-02T21:09:08.999Z</time>
      </trkpt>
      <trkpt lat="59.39852396026254" lon="13.284703977406025">
        <ele>77.32</ele>
        <time>2025-02-02T21:09:11.598Z</time>
      </trkpt>
      <trkpt lat="59.39856695942581" lon="13.28456793911755">
        <ele>77.36</ele>
        <time>2025-02-02T21:09:14.198Z</time>
      </trkpt>
      <trkpt lat="59.3986139819026" lon="13.28443399630487">
        <ele>77.4</ele>
        <time>2025-02-02T21:09:16.800Z</time>
      </trkpt>
      <trkpt lat="59.39866192638874" lon="13.28430793248117">
        <ele>77.45</ele>
        <time>2025-02-02T21:09:19.403Z</time>
      </trkpt>
      <trkpt lat="59.39870894886553" lon="13.284176923334599">
        <ele>77.49</ele>
        <time>2025-02-02T21:09:22.007Z</time>
      </trkpt>
      <trkpt lat="59.398754965513945" lon="13.28404893167317">
        <ele>77.53</ele>
        <time>2025-02-02T21:09:24.613Z</time>
      </trkpt>
      <trkpt lat="59.39880299381912" lon="13.28392194584012">
        <ele>77.57</ele>
        <time>2025-02-02T21:09:27.220Z</time>
      </trkpt>
      <trkpt lat="59.39885194413364" lon="13.283796971663833">
        <ele>77.6</ele>
        <time>2025-02-02T21:09:29.828Z</time>
      </trkpt>
      <trkpt lat="59.39890097826719" lon="13.283672919496894">
        <ele>77.64</ele>
        <time>2025-02-02T21:09:32.437Z</time>
      </trkpt>
      <trkpt lat="59.398952946066856" lon="13.283549956977367">
        <ele>77.69</ele>
        <time>2025-02-02T21:09:35.048Z</time>
      </trkpt>
      <trkpt lat="59.39900692552328" lon="13.283426994457841">
        <ele>77.73</ele>
        <time>2025-02-02T21:09:37.660Z</time>
      </trkpt>
      <trkpt lat="59.399058977141976" lon="13.283304953947663">
        <ele>77.76</ele>
        <time>2025-02-02T21:09:40.273Z</time>
      </trkpt>
      <trkpt lat="59.39911195077002" lon="13.28318894840777">
        <ele>77.8</ele>
        <time>2025-02-02T21:09:42.888Z</time>
      </trkpt>
      <trkpt lat="59.399162996560335" lon="13.2830819953233">
        <ele>77.84</ele>
        <time>2025-02-02T21:09:45.504Z</time>
      </trkpt>
      <trkpt lat="59.39921194687486" lon="13.282977975904942">
        <ele>77.87</ele>
        <time>2025-02-02T21:09:48.121Z</time>
      </trkpt>
      <trkpt lat="59.39926098100841" lon="13.282877979800105">
        <ele>77.91</ele>
        <time>2025-02-02T21:09:50.739Z</time>
      </trkpt>
      <trkpt lat="59.39930699765682" lon="13.28277898952365">
        <ele>77.94</ele>
        <time>2025-02-02T21:09:53.358Z</time>
      </trkpt>
      <trkpt lat="59.39934999682009" lon="13.282680921256542">
        <ele>77.97</ele>
        <time>2025-02-02T21:09:55.978Z</time>
      </trkpt>
      <trkpt lat="59.39938394352794" lon="13.282583942636847">
        <ele>78.01</ele>
        <time>2025-02-02T21:09:58.599Z</time>
      </trkpt>
      <trkpt lat="59.399401964619756" lon="13.282491993159056">
        <ele>78.04</ele>
        <time>2025-02-02T21:10:01.221Z</time>
      </trkpt>
      <trkpt lat="59.39940397627652" lon="13.282397948205471">
        <ele>78.07</ele>
        <time>2025-02-02T21:10:03.844Z</time>
      </trkpt>
      <trkpt lat="59.399398947134614" lon="13.28231094405055">
        <ele>78.11</ele>
        <time>2025-02-02T21:10:06.468Z</time>
      </trkpt>
      <trkpt lat="59.39940892159939" lon="13.28222293406725">
        <ele>78.14</ele>
        <time>2025-02-02T21:10:09.092Z</time>
      </trkpt>
      <trkpt lat="59.39943792298436" lon="13.282154956832528">
        <ele>78.17</ele>
        <time>2025-02-02T21:10:11.717Z</time>
      </trkpt>
      <trkpt lat="59.39948092214763" lon="13.28209393657744">
        <ele>78.2</ele>
        <time>2025-02-02T21:10:14.343Z</time>
      </trkpt>
      <trkpt lat="59.39952593296766" lon="13.282022941857576">
        <ele>78.22</ele>
        <time>2025-02-02T21:10:16.970Z</time>
      </trkpt>
      <trkpt lat="59.399573961272836" lon="13.281952952966094">
        <ele>78.25</ele>
        <time>2025-02-02T21:10:19.598Z</time>
      </trkpt>
      <trkpt lat="59.39962693490088" lon="13.28187894076109">
        <ele>78.28</ele>
        <time>2025-02-02T21:10:22.227Z</time>
      </trkpt>
      <trkpt lat="59.399682926014066" lon="13.281797971576452">
        <ele>78.3</ele>
        <time>2025-02-02T21:10:24.857Z</time>
      </trkpt>
      <trkpt lat="59.39973598346114" lon="13.28170694410801">
        <ele>78.33</ele>
        <time>2025-02-02T21:10:27.488Z</time>
      </trkpt>
      <trkpt lat="59.399786945432425" lon="13.281618934124708">
        <ele>78.35</ele>
        <time>2025-02-02T21:10:30.120Z</time>
      </trkpt>
      <trkpt lat="59.39983698539436" lon="13.281525978818536">
        <ele>78.38</ele>
        <time>2025-02-02T21:10:32.753Z</time>
      </trkpt>
      <trkpt lat="59.39988593570888" lon="13.281437968835235">
        <ele>78.4</ele>
        <time>2025-02-02T21:10:35.387Z</time>
      </trkpt>
      <trkpt lat="59.399935975670815" lon="13.28134099021554">
        <ele>78.41</ele>
        <time>2025-02-02T21:10:38.022Z</time>
      </trkpt>
      <trkpt lat="59.399984925985336" lon="13.281241999939084">
        <ele>78.43</ele>
        <time>2025-02-02T21:10:40.659Z</time>
      </trkpt>
      <trkpt lat="59.40003496594727" lon="13.281146949157119">
        <ele>78.45</ele>
        <time>2025-02-02T21:10:43.297Z</time>
      </trkpt>
      <trkpt lat="59.40008492209017" lon="13.281044941395521">
        <ele>78.47</ele>
        <time>2025-02-02T21:10:45.936Z</time>
      </trkpt>
      <trkpt lat="59.40013496205211" lon="13.280940921977162">
        <ele>78.48</ele>
        <time>2025-02-02T21:10:48.576Z</time>
      </trkpt>
      <trkpt lat="59.40018491819501" lon="13.280831957235932">
        <ele>78.49</ele>
        <time>2025-02-02T21:10:51.217Z</time>
      </trkpt>
      <trkpt lat="59.40023395232856" lon="13.280728943645954">
        <ele>78.5</ele>
        <time>2025-02-02T21:10:53.859Z</time>
      </trkpt>
      <trkpt lat="59.400281980633736" lon="13.280622996389866">
        <ele>78.51</ele>
        <time>2025-02-02T21:10:56.503Z</time>
      </trkpt>
      <trkpt lat="59.40033093094826" lon="13.280512942001224">
        <ele>78.51</ele>
        <time>2025-02-02T21:10:59.148Z</time>
      </trkpt>
      <trkpt lat="59.40037996508181" lon="13.280405988916755">
        <ele>78.52</ele>
        <time>2025-02-02T21:11:01.794Z</time>
      </trkpt>
      <trkpt lat="59.400430927053094" lon="13.280299957841635">
        <ele>78.52</ele>
        <time>2025-02-02T21:11:04.441Z</time>
      </trkpt>
      <trkpt lat="59.40048297867179" lon="13.280193926766515">
        <ele>78.53</ele>
        <time>2025-02-02T21:11:07.089Z</time>
      </trkpt>
      <trkpt lat="59.40053293481469" lon="13.280084962025285">
        <ele>78.53</ele>
        <time>2025-02-02T21:11:09.738Z</time>
      </trkpt>
      <trkpt lat="59.400582974776626" lon="13.279969962313771">
        <ele>78.53</ele>
        <time>2025-02-02T21:11:12.389Z</time>
      </trkpt>
      <trkpt lat="59.40063494257629" lon="13.27985999174416">
        <ele>78.53</ele>
        <time>2025-02-02T21:11:15.041Z</time>
      </trkpt>
      <trkpt lat="59.400685988366604" lon="13.279740968719125">
        <ele>78.53</ele>
        <time>2025-02-02T21:11:17.694Z</time>
      </trkpt>
      <trkpt lat="59.400734938681126" lon="13.279625969007611">
        <ele>78.52</ele>
        <time>2025-02-02T21:11:20.348Z</time>
      </trkpt>
      <trkpt lat="59.40078598447144" lon="13.279505940154195">
        <ele>78.52</ele>
        <time>2025-02-02T21:11:23.004Z</time>
      </trkpt>
      <trkpt lat="59.40083594061434" lon="13.279386917129159">
        <ele>78.51</ele>
        <time>2025-02-02T21:11:25.661Z</time>
      </trkpt>
      <trkpt lat="59.40088698640466" lon="13.279263954609632">
        <ele>78.51</ele>
        <time>2025-02-02T21:11:28.319Z</time>
      </trkpt>
      <trkpt lat="59.40094197168946" lon="13.279140992090106">
        <ele>78.5</ele>
        <time>2025-02-02T21:11:30.979Z</time>
      </trkpt>
      <trkpt lat="59.40099595114589" lon="13.279016939923167">
        <ele>78.5</ele>
        <time>2025-02-02T21:11:33.640Z</time>
      </trkpt>
      <trkpt lat="59.40105093643069" lon="13.278887942433357">
        <ele>78.49</ele>
        <time>2025-02-02T21:11:36.302Z</time>
      </trkpt>
      <trkpt lat="59.4011059217155" lon="13.278758944943547">
        <ele>78.47</ele>
        <time>2025-02-02T21:11:38.966Z</time>
      </trkpt>
      <trkpt lat="59.401162918657064" lon="13.278631959110498">
        <ele>78.46</ele>
        <time>2025-02-02T21:11:41.631Z</time>
      </trkpt>
      <trkpt lat="59.40121899358928" lon="13.27850597910583">
        <ele>78.45</ele>
        <time>2025-02-02T21:11:44.297Z</time>
      </trkpt>
      <trkpt lat="59.40127297304571" lon="13.27837698161602">
        <ele>78.43</ele>
        <time>2025-02-02T21:11:46.965Z</time>
      </trkpt>
      <trkpt lat="59.40132494084537" lon="13.278239937499166">
        <ele>78.41</ele>
        <time>2025-02-02T21:11:49.634Z</time>
      </trkpt>
      <trkpt lat="59.401377998292446" lon="13.278104988858104">
        <ele>78.39</ele>
        <time>2025-02-02T21:11:52.305Z</time>
      </trkpt>
      <trkpt lat="59.40143197774887" lon="13.277973979711533">
        <ele>78.36</ele>
        <time>2025-02-02T21:11:54.977Z</time>
      </trkpt>
      <trkpt lat="59.401486963033676" lon="13.277848921716213">
        <ele>78.34</ele>
        <time>2025-02-02T21:11:57.650Z</time>
      </trkpt>
      <trkpt lat="59.40153893083334" lon="13.277721935883164">
        <ele>78.3</ele>
        <time>2025-02-02T21:12:00.325Z</time>
      </trkpt>
      <trkpt lat="59.401591988280416" lon="13.277590926736593">
        <ele>78.27</ele>
        <time>2025-02-02T21:12:03.001Z</time>
      </trkpt>
      <trkpt lat="59.40164395608008" lon="13.277458995580673">
        <ele>78.24</ele>
        <time>2025-02-02T21:12:05.678Z</time>
      </trkpt>
      <trkpt lat="59.40169299021363" lon="13.277325974777341">
        <ele>78.2</ele>
        <time>2025-02-02T21:12:08.357Z</time>
      </trkpt>
      <trkpt lat="59.40173791721463" lon="13.277189936488867">
        <ele>78.15</ele>
        <time>2025-02-02T21:12:11.037Z</time>
      </trkpt>
      <trkpt lat="59.401783933863044" lon="13.277049958705902">
        <ele>78.12</ele>
        <time>2025-02-02T21:12:13.718Z</time>
      </trkpt>
      <trkpt lat="59.401829950511456" lon="13.276911992579699">
        <ele>78.08</ele>
        <time>2025-02-02T21:12:16.401Z</time>
      </trkpt>
      <trkpt lat="59.40187496133149" lon="13.276773942634463">
        <ele>78.03</ele>
        <time>2025-02-02T21:12:19.085Z</time>
      </trkpt>
      <trkpt lat="59.40191997215152" lon="13.276631953194737">
        <ele>77.99</ele>
        <time>2025-02-02T21:12:21.770Z</time>
      </trkpt>
      <trkpt lat="59.40196297131479" lon="13.276490969583392">
        <ele>77.95</ele>
        <time>2025-02-02T21:12:24.457Z</time>
      </trkpt>
      <trkpt lat="59.40200597047806" lon="13.27635895460844">
        <ele>77.89</ele>
        <time>2025-02-02T21:12:27.145Z</time>
      </trkpt>
      <trkpt lat="59.40204695798457" lon="13.276226939633489">
        <ele>77.84</ele>
        <time>2025-02-02T21:12:29.834Z</time>
      </trkpt>
      <trkpt lat="59.402087945491076" lon="13.276090985164046">
        <ele>77.79</ele>
        <time>2025-02-02T21:12:32.525Z</time>
      </trkpt>
      <trkpt lat="59.402125999331474" lon="13.27594899572432">
        <ele>77.73</ele>
        <time>2025-02-02T21:12:35.217Z</time>
      </trkpt>
      <trkpt lat="59.40216992050409" lon="13.275814969092607">
        <ele>77.67</ele>
        <time>2025-02-02T21:12:37.910Z</time>
      </trkpt>
      <trkpt lat="59.402213925495744" lon="13.275676919147372">
        <ele>77.61</ele>
        <time>2025-02-02T21:12:40.605Z</time>
      </trkpt>
      <trkpt lat="59.40225591883063" lon="13.275536941364408">
        <ele>77.54</ele>
        <time>2025-02-02T21:12:43.301Z</time>
      </trkpt>
      <trkpt lat="59.4022989179939" lon="13.275395957753062">
        <ele>77.47</ele>
        <time>2025-02-02T21:12:45.998Z</time>
      </trkpt>
      <trkpt lat="59.402340995147824" lon="13.275248939171433">
        <ele>77.39</ele>
        <time>2025-02-02T21:12:48.697Z</time>
      </trkpt>
      <trkpt lat="59.40237997099757" lon="13.275103932246566">
        <ele>77.32</ele>
        <time>2025-02-02T21:12:51.397Z</time>
      </trkpt>
      <trkpt lat="59.40241693519056" lon="13.274954985827208">
        <ele>77.23</ele>
        <time>2025-02-02T21:12:54.098Z</time>
      </trkpt>
      <trkpt lat="59.402452977374196" lon="13.274802938103676">
        <ele>77.15</ele>
        <time>2025-02-02T21:12:56.801Z</time>
      </trkpt>
      <trkpt lat="59.40248994156718" lon="13.274635970592499">
        <ele>77.08</ele>
        <time>2025-02-02T21:12:59.505Z</time>
      </trkpt>
      <trkpt lat="59.40252296626568" lon="13.274480989202857">
        <ele>76.99</ele>
        <time>2025-02-02T21:13:02.211Z</time>
      </trkpt>
      <trkpt lat="59.402554985135794" lon="13.274328941479325">
        <ele>76.9</ele>
        <time>2025-02-02T21:13:04.918Z</time>
      </trkpt>
      <trkpt lat="59.40258792601526" lon="13.274177983403206">
        <ele>76.82</ele>
        <time>2025-02-02T21:13:07.626Z</time>
      </trkpt>
      <trkpt lat="59.40261994488537" lon="13.274028953164816">
        <ele>76.72</ele>
        <time>2025-02-02T21:13:10.336Z</time>
      </trkpt>
      <trkpt lat="59.40265196375549" lon="13.273880928754807">
        <ele>76.63</ele>
        <time>2025-02-02T21:13:13.047Z</time>
      </trkpt>
      <trkpt lat="59.40268197096884" lon="13.273729970678687">
        <ele>76.53</ele>
        <time>2025-02-02T21:13:15.759Z</time>
      </trkpt>
      <trkpt lat="59.40271298401058" lon="13.273577922955155">
        <ele>76.44</ele>
        <time>2025-02-02T21:13:18.473Z</time>
      </trkpt>
      <trkpt lat="59.40274299122393" lon="13.273424953222275">
        <ele>76.34</ele>
        <time>2025-02-02T21:13:21.188Z</time>
      </trkpt>
      <trkpt lat="59.402773920446634" lon="13.273270977661014">
        <ele>76.24</ele>
        <time>2025-02-02T21:13:23.904Z</time>
      </trkpt>
      <trkpt lat="59.40280593931675" lon="13.27311691828072">
        <ele>76.14</ele>
        <time>2025-02-02T21:13:26.622Z</time>
      </trkpt>
      <trkpt lat="59.402837958186865" lon="13.27296495437622">
        <ele>76.04</ele>
        <time>2025-02-02T21:13:29.341Z</time>
      </trkpt>
      <trkpt lat="59.40286997705698" lon="13.272804943844676">
        <ele>75.93</ele>
        <time>2025-02-02T21:13:32.061Z</time>
      </trkpt>
      <trkpt lat="59.402899984270334" lon="13.272644933313131">
        <ele>75.82</ele>
        <time>2025-02-02T21:13:34.783Z</time>
      </trkpt>
      <trkpt lat="59.40292999148369" lon="13.272485928609967">
        <ele>75.7</ele>
        <time>2025-02-02T21:13:37.506Z</time>
      </trkpt>
      <trkpt lat="59.40296293236315" lon="13.272330947220325">
        <ele>75.58</ele>
        <time>2025-02-02T21:13:40.231Z</time>
      </trkpt>
      <trkpt lat="59.40299293957651" lon="13.272179989144206">
        <ele>75.46</ele>
        <time>2025-02-02T21:13:42.957Z</time>
      </trkpt>
      <trkpt lat="59.40302495844662" lon="13.272031964734197">
        <ele>75.33</ele>
        <time>2025-02-02T21:13:45.684Z</time>
      </trkpt>
      <trkpt lat="59.40305597148836" lon="13.271883940324187">
        <ele>75.2</ele>
        <time>2025-02-02T21:13:48.412Z</time>
      </trkpt>
      <trkpt lat="59.40308698453009" lon="13.271732982248068">
        <ele>75.06</ele>
        <time>2025-02-02T21:13:51.142Z</time>
      </trkpt>
      <trkpt lat="59.403116991743445" lon="13.271575989201665">
        <ele>74.92</ele>
        <time>2025-02-02T21:13:53.873Z</time>
      </trkpt>
      <trkpt lat="59.40314892679453" lon="13.271418996155262">
        <ele>74.78</ele>
        <time>2025-02-02T21:13:56.606Z</time>
      </trkpt>
      <trkpt lat="59.403179939836264" lon="13.271260997280478">
        <ele>74.63</ele>
        <time>2025-02-02T21:13:59.340Z</time>
      </trkpt>
      <trkpt lat="59.40321397036314" lon="13.271106937900186">
        <ele>74.49</ele>
        <time>2025-02-02T21:14:02.075Z</time>
      </trkpt>
      <trkpt lat="59.403247917070985" lon="13.270954973995686">
        <ele>74.35</ele>
        <time>2025-02-02T21:14:04.812Z</time>
      </trkpt>
      <trkpt lat="59.40328295342624" lon="13.270805943757296">
        <ele>74.2</ele>
        <time>2025-02-02T21:14:07.550Z</time>
      </trkpt>
      <trkpt lat="59.4033179897815" lon="13.270658925175667">
        <ele>74.06</ele>
        <time>2025-02-02T21:14:10.289Z</time>
      </trkpt>
      <trkpt lat="59.403352942317724" lon="13.270509978756309">
        <ele>73.91</ele>
        <time>2025-02-02T21:14:13.030Z</time>
      </trkpt>
      <trkpt lat="59.4033869728446" lon="13.270360948517919">
        <ele>73.76</ele>
        <time>2025-02-02T21:14:15.772Z</time>
      </trkpt>
      <trkpt lat="59.403420919552445" lon="13.2702099904418">
        <ele>73.61</ele>
        <time>2025-02-02T21:14:18.515Z</time>
      </trkpt>
      <trkpt lat="59.40345394425094" lon="13.270059954375029">
        <ele>73.47</ele>
        <time>2025-02-02T21:14:21.260Z</time>
      </trkpt>
      <trkpt lat="59.40348797477782" lon="13.269909918308258">
        <ele>73.32</ele>
        <time>2025-02-02T21:14:24.006Z</time>
      </trkpt>
      <trkpt lat="59.40352192148566" lon="13.26975996606052">
        <ele>73.17</ele>
        <time>2025-02-02T21:14:26.753Z</time>
      </trkpt>
      <trkpt lat="59.4035579636693" lon="13.269609929993749">
        <ele>73.02</ele>
        <time>2025-02-02T21:14:29.502Z</time>
      </trkpt>
      <trkpt lat="59.403592916205525" lon="13.26945897191763">
        <ele>72.86</ele>
        <time>2025-02-02T21:14:32.252Z</time>
      </trkpt>
      <trkpt lat="59.40362795256078" lon="13.26930994167924">
        <ele>72.71</ele>
        <time>2025-02-02T21:14:35.003Z</time>
      </trkpt>
      <trkpt lat="59.40366399474442" lon="13.2691599894315">
        <ele>72.55</ele>
        <time>2025-02-02T21:14:37.756Z</time>
      </trkpt>
      <trkpt lat="59.403699953109026" lon="13.26900995336473">
        <ele>72.37</ele>
        <time>2025-02-02T21:14:40.510Z</time>
      </trkpt>
      <trkpt lat="59.40373691730201" lon="13.26885899528861">
        <ele>72.2</ele>
        <time>2025-02-02T21:14:43.266Z</time>
      </trkpt>
      <trkpt lat="59.40377396531403" lon="13.268705941736698">
        <ele>72.02</ele>
        <time>2025-02-02T21:14:46.023Z</time>
      </trkpt>
      <trkpt lat="59.403808917850256" lon="13.268553977832198">
        <ele>71.84</ele>
        <time>2025-02-02T21:14:48.781Z</time>
      </trkpt>
      <trkpt lat="59.40384395420551" lon="13.268400924280286">
        <ele>71.66</ele>
        <time>2025-02-02T21:14:51.541Z</time>
      </trkpt>
      <trkpt lat="59.4038809183985" lon="13.268249966204166">
        <ele>71.47</ele>
        <time>2025-02-02T21:14:54.302Z</time>
      </trkpt>
      <trkpt lat="59.40391796641052" lon="13.268100935965776">
        <ele>71.28</ele>
        <time>2025-02-02T21:14:57.064Z</time>
      </trkpt>
      <trkpt lat="59.403953924775124" lon="13.267950983718038">
        <ele>71.09</ele>
        <time>2025-02-02T21:14:59.828Z</time>
      </trkpt>
      <trkpt lat="59.40399097278714" lon="13.267801953479648">
        <ele>70.89</ele>
        <time>2025-02-02T21:15:02.593Z</time>
      </trkpt>
      <trkpt lat="59.40402693115175" lon="13.267654934898019">
        <ele>70.7</ele>
        <time>2025-02-02T21:15:05.359Z</time>
      </trkpt>
      <trkpt lat="59.404060961678624" lon="13.26750791631639">
        <ele>70.5</ele>
        <time>2025-02-02T21:15:08.127Z</time>
      </trkpt>
      <trkpt lat="59.40409398637712" lon="13.267364921048284">
        <ele>70.3</ele>
        <time>2025-02-02T21:15:10.896Z</time>
      </trkpt>
      <trkpt lat="59.404128938913345" lon="13.267219997942448">
        <ele>70.09</ele>
        <time>2025-02-02T21:15:13.666Z</time>
      </trkpt>
      <trkpt lat="59.40416296944022" lon="13.267070967704058">
        <ele>69.88</ele>
        <time>2025-02-02T21:15:16.438Z</time>
      </trkpt>
      <trkpt lat="59.40419599413872" lon="13.266921937465668">
        <ele>69.67</ele>
        <time>2025-02-02T21:15:19.211Z</time>
      </trkpt>
      <trkpt lat="59.40422994084656" lon="13.266771985217929">
        <ele>69.45</ele>
        <time>2025-02-02T21:15:21.985Z</time>
      </trkpt>
      <trkpt lat="59.40426195971668" lon="13.266622954979539">
        <ele>69.24</ele>
        <time>2025-02-02T21:15:24.761Z</time>
      </trkpt>
      <trkpt lat="59.40429196693003" lon="13.26647694222629">
        <ele>69.02</ele>
        <time>2025-02-02T21:15:27.538Z</time>
      </trkpt>
      <trkpt lat="59.40432398580015" lon="13.266329923644662">
        <ele>68.8</ele>
        <time>2025-02-02T21:15:30.316Z</time>
      </trkpt>
      <trkpt lat="59.40435499884188" lon="13.266182988882065">
        <ele>68.58</ele>
        <time>2025-02-02T21:15:33.096Z</time>
      </trkpt>
      <trkpt lat="59.404385928064585" lon="13.266038987785578">
        <ele>68.34</ele>
        <time>2025-02-02T21:15:35.877Z</time>
      </trkpt>
      <trkpt lat="59.40441593527794" lon="13.265887945890427">
        <ele>68.11</ele>
        <time>2025-02-02T21:15:38.659Z</time>
      </trkpt>
      <trkpt lat="59.40444594249129" lon="13.265736987814307">
        <ele>67.88</ele>
        <time>2025-02-02T21:15:41.443Z</time>
      </trkpt>
      <trkpt lat="59.40447594970465" lon="13.265586951747537">
        <ele>67.65</ele>
        <time>2025-02-02T21:15:44.228Z</time>
      </trkpt>
      <trkpt lat="59.40450495108962" lon="13.265434987843037">
        <ele>67.41</ele>
        <time>2025-02-02T21:15:47.014Z</time>
      </trkpt>
      <trkpt lat="59.404534958302975" lon="13.265283945947886">
        <ele>67.18</ele>
        <time>2025-02-02T21:15:49.801Z</time>
      </trkpt>
      <trkpt lat="59.40456496551633" lon="13.265131982043386">
        <ele>66.93</ele>
        <time>2025-02-02T21:15:52.590Z</time>
      </trkpt>
      <trkpt lat="59.4045939669013" lon="13.264980940148234">
        <ele>66.69</ele>
        <time>2025-02-02T21:15:55.380Z</time>
      </trkpt>
      <trkpt lat="59.40462397411466" lon="13.264831993728876">
        <ele>66.45</ele>
        <time>2025-02-02T21:15:58.171Z</time>
      </trkpt>
      <trkpt lat="59.40465398132801" lon="13.264681957662106">
        <ele>66.2</ele>
        <time>2025-02-02T21:16:00.964Z</time>
      </trkpt>
      <trkpt lat="59.404683988541365" lon="13.264532927423716">
        <ele>65.95</ele>
        <time>2025-02-02T21:16:03.758Z</time>
      </trkpt>
      <trkpt lat="59.40471491776407" lon="13.264385992661119">
        <ele>65.7</ele>
        <time>2025-02-02T21:16:06.553Z</time>
      </trkpt>
      <trkpt lat="59.4047459308058" lon="13.26423997990787">
        <ele>65.44</ele>
        <time>2025-02-02T21:16:09.350Z</time>
      </trkpt>
      <trkpt lat="59.40477694384754" lon="13.264093967154622">
        <ele>65.18</ele>
        <time>2025-02-02T21:16:12.148Z</time>
      </trkpt>
      <trkpt lat="59.40480695106089" lon="13.263947954401374">
        <ele>64.92</ele>
        <time>2025-02-02T21:16:14.947Z</time>
      </trkpt>
      <trkpt lat="59.404836958274245" lon="13.263800935819745">
        <ele>64.65</ele>
        <time>2025-02-02T21:16:17.748Z</time>
      </trkpt>
      <trkpt lat="59.40486595965922" lon="13.263651989400387">
        <ele>64.38</ele>
        <time>2025-02-02T21:16:20.550Z</time>
      </trkpt>
      <trkpt lat="59.40489496104419" lon="13.263500947505236">
        <ele>64.1</ele>
        <time>2025-02-02T21:16:23.353Z</time>
      </trkpt>
      <trkpt lat="59.404923962429166" lon="13.263348983600736">
        <ele>63.83</ele>
        <time>2025-02-02T21:16:26.157Z</time>
      </trkpt>
      <trkpt lat="59.40495296381414" lon="13.263194924220443">
        <ele>63.55</ele>
        <time>2025-02-02T21:16:28.963Z</time>
      </trkpt>
      <trkpt lat="59.40497995354235" lon="13.263039942830801">
        <ele>63.26</ele>
        <time>2025-02-02T21:16:31.770Z</time>
      </trkpt>
      <trkpt lat="59.405006943270564" lon="13.262882949784398">
        <ele>62.98</ele>
        <time>2025-02-02T21:16:34.579Z</time>
      </trkpt>
      <trkpt lat="59.405032927170396" lon="13.262719921767712">
        <ele>62.69</ele>
        <time>2025-02-02T21:16:37.389Z</time>
      </trkpt>
      <trkpt lat="59.40505991689861" lon="13.262558989226818">
        <ele>62.39</ele>
        <time>2025-02-02T21:16:40.200Z</time>
      </trkpt>
      <trkpt lat="59.40508598461747" lon="13.262396967038512">
        <ele>62.1</ele>
        <time>2025-02-02T21:16:43.013Z</time>
      </trkpt>
      <trkpt lat="59.405112974345684" lon="13.262231927365065">
        <ele>61.81</ele>
        <time>2025-02-02T21:16:45.827Z</time>
      </trkpt>
      <trkpt lat="59.40514096990228" lon="13.262063954025507">
        <ele>61.51</ele>
        <time>2025-02-02T21:16:48.643Z</time>
      </trkpt>
      <trkpt lat="59.40516896545887" lon="13.26189598068595">
        <ele>61.22</ele>
        <time>2025-02-02T21:16:51.460Z</time>
      </trkpt>
      <trkpt lat="59.40519796684384" lon="13.261729935184121">
        <ele>60.92</ele>
        <time>2025-02-02T21:16:54.278Z</time>
      </trkpt>
      <trkpt lat="59.405225962400436" lon="13.261559950187802">
        <ele>60.62</ele>
        <time>2025-02-02T21:16:57.098Z</time>
      </trkpt>
      <trkpt lat="59.40525094047189" lon="13.26138493604958">
        <ele>60.31</ele>
        <time>2025-02-02T21:16:59.919Z</time>
      </trkpt>
      <trkpt lat="59.40527591854334" lon="13.261201959103346">
        <ele>60.0</ele>
        <time>2025-02-02T21:17:02.742Z</time>
      </trkpt>
      <trkpt lat="59.40529997460544" lon="13.261018982157111">
        <ele>59.69</ele>
        <time>2025-02-02T21:17:05.566Z</time>
      </trkpt>
      <trkpt lat="59.40532193519175" lon="13.260829970240593">
        <ele>59.36</ele>
        <time>2025-02-02T21:17:08.392Z</time>
      </trkpt>
      <trkpt lat="59.40534096211195" lon="13.260635929182172">
        <ele>59.05</ele>
        <time>2025-02-02T21:17:11.220Z</time>
      </trkpt>
      <trkpt lat="59.40535998903215" lon="13.260434931144118">
        <ele>58.73</ele>
        <time>2025-02-02T21:17:14.049Z</time>
      </trkpt>
      <trkpt lat="59.40537893213332" lon="13.260230999439955">
        <ele>58.42</ele>
        <time>2025-02-02T21:17:16.880Z</time>
      </trkpt>
      <trkpt lat="59.405395947396755" lon="13.260019943118095">
        <ele>58.11</ele>
        <time>2025-02-02T21:17:19.713Z</time>
      </trkpt>
      <trkpt lat="59.405413968488574" lon="13.259804947301745">
        <ele>57.79</ele>
        <time>2025-02-02T21:17:22.548Z</time>
      </trkpt>
      <trkpt lat="59.40543098375201" lon="13.259587939828634">
        <ele>57.48</ele>
        <time>2025-02-02T21:17:25.384Z</time>
      </trkpt>
      <trkpt lat="59.40544799901545" lon="13.259364981204271">
        <ele>57.16</ele>
        <time>2025-02-02T21:17:28.222Z</time>
      </trkpt>
      <trkpt lat="59.405463924631476" lon="13.259138921275735">
        <ele>56.84</ele>
        <time>2025-02-02T21:17:31.062Z</time>
      </trkpt>
      <trkpt lat="59.40547792240977" lon="13.258906994014978">
        <ele>56.51</ele>
        <time>2025-02-02T21:17:33.904Z</time>
      </trkpt>
      <trkpt lat="59.40548999235034" lon="13.25867397710681">
        <ele>56.18</ele>
        <time>2025-02-02T21:17:36.748Z</time>
      </trkpt>
      <trkpt lat="59.40549896098673" lon="13.25843894854188">
        <ele>55.85</ele>
        <time>2025-02-02T21:17:39.594Z</time>
      </trkpt>
      <trkpt lat="59.40550499595702" lon="13.258199980482459">
        <ele>55.52</ele>
        <time>2025-02-02T21:17:42.442Z</time>
      </trkpt>
      <trkpt lat="59.40551195293665" lon="13.257960928604007">
        <ele>55.2</ele>
        <time>2025-02-02T21:17:45.292Z</time>
      </trkpt>
      <trkpt lat="59.40551798790693" lon="13.257722966372967">
        <ele>54.87</ele>
        <time>2025-02-02T21:17:48.144Z</time>
      </trkpt>
      <trkpt lat="59.40552092157304" lon="13.257480980828404">
        <ele>54.55</ele>
        <time>2025-02-02T21:17:50.998Z</time>
      </trkpt>
      <trkpt lat="59.405519999563694" lon="13.2572359777987">
        <ele>54.23</ele>
        <time>2025-02-02T21:17:53.854Z</time>
      </trkpt>
      <trkpt lat="59.40551798790693" lon="13.256989968940616">
        <ele>53.92</ele>
        <time>2025-02-02T21:17:56.712Z</time>
      </trkpt>
      <trkpt lat="59.40551597625017" lon="13.25674194842577">
        <ele>53.61</ele>
        <time>2025-02-02T21:17:59.572Z</time>
      </trkpt>
      <trkpt lat="59.40551295876503" lon="13.256490994244814">
        <ele>53.3</ele>
        <time>2025-02-02T21:18:02.434Z</time>
      </trkpt>
      <trkpt lat="59.40550893545151" lon="13.256237944588065">
        <ele>53.01</ele>
        <time>2025-02-02T21:18:05.298Z</time>
      </trkpt>
      <trkpt lat="59.405503990128636" lon="13.255981961265206">
        <ele>52.7</ele>
        <time>2025-02-02T21:18:08.164Z</time>
      </trkpt>
      <trkpt lat="59.40549795515835" lon="13.255726983770728">
        <ele>52.41</ele>
        <time>2025-02-02T21:18:11.032Z</time>
      </trkpt>
      <trkpt lat="59.40549393184483" lon="13.25547393411398">
        <ele>52.13</ele>
        <time>2025-02-02T21:18:13.902Z</time>
      </trkpt>
      <trkpt lat="59.40548798069358" lon="13.255224991589785">
        <ele>51.84</ele>
        <time>2025-02-02T21:18:16.774Z</time>
      </trkpt>
      <trkpt lat="59.405480939894915" lon="13.254984933882952">
        <ele>51.56</ele>
        <time>2025-02-02T21:18:19.648Z</time>
      </trkpt>
      <trkpt lat="59.40547498874366" lon="13.254750994965434">
        <ele>51.28</ele>
        <time>2025-02-02T21:18:22.524Z</time>
      </trkpt>
      <trkpt lat="59.40546895377338" lon="13.254520995542407">
        <ele>51.0</ele>
        <time>2025-02-02T21:18:25.402Z</time>
      </trkpt>
      <trkpt lat="59.405463924631476" lon="13.25429493561387">
        <ele>50.73</ele>
        <time>2025-02-02T21:18:28.282Z</time>
      </trkpt>
      <trkpt lat="59.405459985136986" lon="13.254071976989508">
        <ele>50.46</ele>
        <time>2025-02-02T21:18:31.164Z</time>
      </trkpt>
      <trkpt lat="59.40545596182346" lon="13.253854969516397">
        <ele>50.2</ele>
        <time>2025-02-02T21:18:34.047Z</time>
      </trkpt>
      <trkpt lat="59.40545093268156" lon="13.253642991185188">
        <ele>49.93</ele>
        <time>2025-02-02T21:18:36.932Z</time>
      </trkpt>
      <trkpt lat="59.40544498153031" lon="13.25343294069171">
        <ele>49.67</ele>
        <time>2025-02-02T21:18:39.819Z</time>
      </trkpt>
      <trkpt lat="59.405440958216786" lon="13.253224985674024">
        <ele>49.41</ele>
        <time>2025-02-02T21:18:42.708Z</time>
      </trkpt>
      <trkpt lat="59.4054349232465" lon="13.253017952665687">
        <ele>49.16</ele>
        <time>2025-02-02T21:18:45.598Z</time>
      </trkpt>
      <trkpt lat="59.40542997792363" lon="13.25281192548573">
        <ele>48.9</ele>
        <time>2025-02-02T21:18:48.490Z</time>
      </trkpt>
      <trkpt lat="59.40542494878173" lon="13.252608999609947">
        <ele>48.66</ele>
        <time>2025-02-02T21:18:51.384Z</time>
      </trkpt>
      <trkpt lat="59.405419919639826" lon="13.252406995743513">
        <ele>48.42</ele>
        <time>2025-02-02T21:18:54.279Z</time>
      </trkpt>
      <trkpt lat="59.405413968488574" lon="13.252206919714808">
        <ele>48.18</ele>
        <time>2025-02-02T21:18:57.176Z</time>
      </trkpt>
      <trkpt lat="59.40540793351829" lon="13.252006927505136">
        <ele>47.95</ele>
        <time>2025-02-02T21:19:00.075Z</time>
      </trkpt>
      <trkpt lat="59.40540198236704" lon="13.251809952780604">
        <ele>47.73</ele>
        <time>2025-02-02T21:19:02.975Z</time>
      </trkpt>
      <trkpt lat="59.405395947396755" lon="13.251613983884454">
        <ele>47.5</ele>
        <time>2025-02-02T21:19:05.877Z</time>
      </trkpt>
      <trkpt lat="59.4053899962455" lon="13.25141692534089">
        <ele>47.28</ele>
        <time>2025-02-02T21:19:08.780Z</time>
      </trkpt>
      <trkpt lat="59.40538295544684" lon="13.25122196227312">
        <ele>47.06</ele>
        <time>2025-02-02T21:19:11.685Z</time>
      </trkpt>
      <trkpt lat="59.405373986810446" lon="13.25102699920535">
        <ele>46.85</ele>
        <time>2025-02-02T21:19:14.592Z</time>
      </trkpt>
      <trkpt lat="59.40536392852664" lon="13.250830946490169">
        <ele>46.64</ele>
        <time>2025-02-02T21:19:17.500Z</time>
      </trkpt>
      <trkpt lat="59.405351942405105" lon="13.250632965937257">
        <ele>46.44</ele>
        <time>2025-02-02T21:19:20.410Z</time>
      </trkpt>
      <trkpt lat="59.40533895045519" lon="13.250436997041106">
        <ele>46.24</ele>
        <time>2025-02-02T21:19:23.321Z</time>
      </trkpt>
      <trkpt lat="59.40532495267689" lon="13.250242955982685">
        <ele>46.05</ele>
        <time>2025-02-02T21:19:26.234Z</time>
      </trkpt>
      <trkpt lat="59.405308943241835" lon="13.250050926581025">
        <ele>45.86</ele>
        <time>2025-02-02T21:19:29.149Z</time>
      </trkpt>
      <trkpt lat="59.405291927978396" lon="13.249859986826777">
        <ele>45.68</ele>
        <time>2025-02-02T21:19:32.065Z</time>
      </trkpt>
      <trkpt lat="59.40527399070561" lon="13.249669969081879">
        <ele>45.5</ele>
        <time>2025-02-02T21:19:34.983Z</time>
      </trkpt>
      <trkpt lat="59.40525496378541" lon="13.24948095716536">
        <ele>45.33</ele>
        <time>2025-02-02T21:19:37.902Z</time>
      </trkpt>
      <trkpt lat="59.40523593686521" lon="13.249293956905603">
        <ele>45.17</ele>
        <time>2025-02-02T21:19:40.823Z</time>
      </trkpt>
      <trkpt lat="59.40521799959242" lon="13.249108968302608">
        <ele>45.02</ele>
        <time>2025-02-02T21:19:43.745Z</time>
      </trkpt>
      <trkpt lat="59.40519796684384" lon="13.248926997184753">
        <ele>44.86</ele>
        <time>2025-02-02T21:19:46.669Z</time>
      </trkpt>
      <trkpt lat="59.40517793409526" lon="13.24874795973301">
        <ele>44.71</ele>
        <time>2025-02-02T21:19:49.594Z</time>
      </trkpt>
      <trkpt lat="59.405156979337335" lon="13.248568922281265">
        <ele>44.56</ele>
        <time>2025-02-02T21:19:52.521Z</time>
      </trkpt>
      <trkpt lat="59.405135940760374" lon="13.248389968648553">
        <ele>44.42</ele>
        <time>2025-02-02T21:19:55.449Z</time>
      </trkpt>
      <trkpt lat="59.405114986002445" lon="13.248210931196809">
        <ele>44.28</ele>
        <time>2025-02-02T21:19:58.379Z</time>
      </trkpt>
      <trkpt lat="59.405093947425485" lon="13.248034995049238">
        <ele>44.15</ele>
        <time>2025-02-02T21:20:01.310Z</time>
      </trkpt>
      <trkpt lat="59.405071986839175" lon="13.247860986739397">
        <ele>44.03</ele>
        <time>2025-02-02T21:20:04.243Z</time>
      </trkpt>
      <trkpt lat="59.405050948262215" lon="13.247686978429556">
        <ele>43.91</ele>
        <time>2025-02-02T21:20:07.177Z</time>
      </trkpt>
      <trkpt lat="59.405029993504286" lon="13.247512970119715">
        <ele>43.79</ele>
        <time>2025-02-02T21:20:10.113Z</time>
      </trkpt>
      <trkpt lat="59.405007949098945" lon="13.247338961809874">
        <ele>43.69</ele>
        <time>2025-02-02T21:20:13.050Z</time>
      </trkpt>
      <trkpt lat="59.404985988512635" lon="13.247165959328413">
        <ele>43.59</ele>
        <time>2025-02-02T21:20:15.989Z</time>
      </trkpt>
      <trkpt lat="59.404964949935675" lon="13.246991951018572">
        <ele>43.48</ele>
        <time>2025-02-02T21:20:18.929Z</time>
      </trkpt>
      <trkpt lat="59.404943995177746" lon="13.246818948537111">
        <ele>43.38</ele>
        <time>2025-02-02T21:20:21.871Z</time>
      </trkpt>
      <trkpt lat="59.404922956600785" lon="13.246648963540792">
        <ele>43.29</ele>
        <time>2025-02-02T21:20:24.814Z</time>
      </trkpt>
      <trkpt lat="59.404902923852205" lon="13.246478978544474">
        <ele>43.2</ele>
        <time>2025-02-02T21:20:27.759Z</time>
      </trkpt>
      <trkpt lat="59.40488297492266" lon="13.246308993548155">
        <ele>43.11</ele>
        <time>2025-02-02T21:20:30.705Z</time>
      </trkpt>
      <trkpt lat="59.4048619363457" lon="13.246138924732804">
        <ele>43.04</ele>
        <time>2025-02-02T21:20:33.652Z</time>
      </trkpt>
      <trkpt lat="59.40484198741615" lon="13.245968939736485">
        <ele>42.97</ele>
        <time>2025-02-02T21:20:36.601Z</time>
      </trkpt>
      <trkpt lat="59.40482094883919" lon="13.245797948911786">
        <ele>42.9</ele>
        <time>2025-02-02T21:20:39.551Z</time>
      </trkpt>
      <trkpt lat="59.40479999408126" lon="13.245626958087087">
        <ele>42.84</ele>
        <time>2025-02-02T21:20:42.503Z</time>
      </trkpt>
      <trkpt lat="59.40477996133268" lon="13.245455967262387">
        <ele>42.78</ele>
        <time>2025-02-02T21:20:45.456Z</time>
      </trkpt>
      <trkpt lat="59.40476093441248" lon="13.245283970609307">
        <ele>42.73</ele>
        <time>2025-02-02T21:20:48.411Z</time>
      </trkpt>
      <trkpt lat="59.40474299713969" lon="13.245112979784608">
        <ele>42.69</ele>
        <time>2025-02-02T21:20:51.367Z</time>
      </trkpt>
      <trkpt lat="59.40472397021949" lon="13.244944922626019">
        <ele>42.66</ele>
        <time>2025-02-02T21:20:54.324Z</time>
      </trkpt>
      <trkpt lat="59.40470494329929" lon="13.244778960943222">
        <ele>42.62</ele>
        <time>2025-02-02T21:20:57.283Z</time>
      </trkpt>
      <trkpt lat="59.404685916379094" lon="13.244612999260426">
        <ele>42.59</ele>
        <time>2025-02-02T21:21:00.243Z</time>
      </trkpt>
      <trkpt lat="59.40466898493469" lon="13.244444942101836">
        <ele>42.56</ele>
        <time>2025-02-02T21:21:03.205Z</time>
      </trkpt>
      <trkpt lat="59.40465297549963" lon="13.244276968762279">
        <ele>42.54</ele>
        <time>2025-02-02T21:21:06.168Z</time>
      </trkpt>
      <trkpt lat="59.40463897772133" lon="13.24410698376596">
        <ele>42.52</ele>
        <time>2025-02-02T21:21:09.132Z</time>
      </trkpt>
      <trkpt lat="59.4046269915998" lon="13.24393792077899">
        <ele>42.5</ele>
        <time>2025-02-02T21:21:12.098Z</time>
      </trkpt>
      <trkpt lat="59.40461592748761" lon="13.243768941611052">
        <ele>42.49</ele>
        <time>2025-02-02T21:21:15.065Z</time>
      </trkpt>
      <trkpt lat="59.40460595302284" lon="13.243600968271494">
        <ele>42.49</ele>
        <time>2025-02-02T21:21:18.034Z</time>
      </trkpt>
      <trkpt lat="59.40459497272968" lon="13.243434922769666">
        <ele>42.49</ele>
        <time>2025-02-02T21:21:21.004Z</time>
      </trkpt>
      <trkpt lat="59.40458399243653" lon="13.24326896108687">
        <ele>42.49</ele>
        <time>2025-02-02T21:21:23.975Z</time>
      </trkpt>
      <trkpt lat="59.40457292832434" lon="13.243102999404073">
        <ele>42.5</ele>
        <time>2025-02-02T21:21:26.948Z</time>
      </trkpt>
      <trkpt lat="59.40456194803119" lon="13.242936953902245">
        <ele>42.51</ele>
        <time>2025-02-02T21:21:29.922Z</time>
      </trkpt>
      <trkpt lat="59.40455197356641" lon="13.242770992219448">
        <ele>42.53</ele>
        <time>2025-02-02T21:21:32.897Z</time>
      </trkpt>
      <trkpt lat="59.40454199910164" lon="13.24260394088924">
        <ele>42.55</ele>
        <time>2025-02-02T21:21:35.874Z</time>
      </trkpt>
      <trkpt lat="59.40453194081783" lon="13.242438985034823">
        <ele>42.57</ele>
        <time>2025-02-02T21:21:38.852Z</time>
      </trkpt>
      <trkpt lat="59.40452196635306" lon="13.242272939532995">
        <ele>42.6</ele>
        <time>2025-02-02T21:21:41.832Z</time>
      </trkpt>
      <trkpt lat="59.404512997716665" lon="13.24210898950696">
        <ele>42.63</ele>
        <time>2025-02-02T21:21:44.813Z</time>
      </trkpt>
      <trkpt lat="59.40450394526124" lon="13.241945961490273">
        <ele>42.66</ele>
        <time>2025-02-02T21:21:47.795Z</time>
      </trkpt>
      <trkpt lat="59.404492964968085" lon="13.241782933473587">
        <ele>42.69</ele>
        <time>2025-02-02T21:21:50.779Z</time>
      </trkpt>
      <trkpt lat="59.40448198467493" lon="13.241619989275932">
        <ele>42.73</ele>
        <time>2025-02-02T21:21:53.764Z</time>
      </trkpt>
      <trkpt lat="59.404471926391125" lon="13.241456961259246">
        <ele>42.77</ele>
        <time>2025-02-02T21:21:56.750Z</time>
      </trkpt>
      <trkpt lat="59.40446195192635" lon="13.24129393324256">
        <ele>42.82</ele>
        <time>2025-02-02T21:21:59.738Z</time>
      </trkpt>
      <trkpt lat="59.40445197746158" lon="13.241129983216524">
        <ele>42.88</ele>
        <time>2025-02-02T21:22:02.727Z</time>
      </trkpt>
      <trkpt lat="59.40444292500615" lon="13.240965949371457">
        <ele>42.94</ele>
        <time>2025-02-02T21:22:05.717Z</time>
      </trkpt>
      <trkpt lat="59.404431944713" lon="13.240803927183151">
        <ele>42.99</ele>
        <time>2025-02-02T21:22:08.709Z</time>
      </trkpt>
      <trkpt lat="59.40442197024822" lon="13.240643916651607">
        <ele>43.06</ele>
        <time>2025-02-02T21:22:11.702Z</time>
      </trkpt>
      <trkpt lat="59.4044129177928" lon="13.240486923605204">
        <ele>43.13</ele>
        <time>2025-02-02T21:22:14.696Z</time>
      </trkpt>
      <trkpt lat="59.40440294332802" lon="13.24032892473042">
        <ele>43.2</ele>
        <time>2025-02-02T21:22:17.692Z</time>
      </trkpt>
      <trkpt lat="59.40439397469163" lon="13.240172937512398">
        <ele>43.27</ele>
        <time>2025-02-02T21:22:20.689Z</time>
      </trkpt>
      <trkpt lat="59.404384922236204" lon="13.240016950294375">
        <ele>43.35</ele>
        <time>2025-02-02T21:22:23.687Z</time>
      </trkpt>
      <trkpt lat="59.40437494777143" lon="13.239861968904734">
        <ele>43.43</ele>
        <time>2025-02-02T21:22:26.686Z</time>
      </trkpt>
      <trkpt lat="59.40436597913504" lon="13.239705981686711">
        <ele>43.51</ele>
        <time>2025-02-02T21:22:29.687Z</time>
      </trkpt>
      <trkpt lat="59.40435793250799" lon="13.239550916478038">
        <ele>43.59</ele>
        <time>2025-02-02T21:22:32.689Z</time>
      </trkpt>
      <trkpt lat="59.4043489638716" lon="13.239395935088396">
        <ele>43.67</ele>
        <time>2025-02-02T21:22:35.692Z</time>
      </trkpt>
      <trkpt lat="59.404340917244554" lon="13.239239947870374">
        <ele>43.76</ele>
        <time>2025-02-02T21:22:38.696Z</time>
      </trkpt>
      <trkpt lat="59.40433194860816" lon="13.239085972309113">
        <ele>43.85</ele>
        <time>2025-02-02T21:22:41.702Z</time>
      </trkpt>
      <trkpt lat="59.40432398580015" lon="13.2389329187572">
        <ele>43.94</ele>
        <time>2025-02-02T21:22:44.709Z</time>
      </trkpt>
      <trkpt lat="59.40431493334472" lon="13.238783972337842">
        <ele>44.03</ele>
        <time>2025-02-02T21:22:47.717Z</time>
      </trkpt>
      <trkpt lat="59.40430596470833" lon="13.238636953756213">
        <ele>44.12</ele>
        <time>2025-02-02T21:22:50.726Z</time>
      </trkpt>
      <trkpt lat="59.404296996071935" lon="13.238490941002965">
        <ele>44.22</ele>
        <time>2025-02-02T21:22:53.737Z</time>
      </trkpt>
      <trkpt lat="59.40428794361651" lon="13.238342916592956">
        <ele>44.32</ele>
        <time>2025-02-02T21:22:56.749Z</time>
      </trkpt>
      <trkpt lat="59.404277969151735" lon="13.238192964345217">
        <ele>44.42</ele>
        <time>2025-02-02T21:22:59.762Z</time>
      </trkpt>
      <trkpt lat="59.40426799468696" lon="13.238043934106827">
        <ele>44.53</ele>
        <time>2025-02-02T21:23:02.776Z</time>
      </trkpt>
      <trkpt lat="59.404258942231536" lon="13.237893981859088">
        <ele>44.63</ele>
        <time>2025-02-02T21:23:05.792Z</time>
      </trkpt>
      <trkpt lat="59.40425097942352" lon="13.237744951620698">
        <ele>44.74</ele>
        <time>2025-02-02T21:23:08.809Z</time>
      </trkpt>
      <trkpt lat="59.40424293279648" lon="13.23759793303907">
        <ele>44.85</ele>
        <time>2025-02-02T21:23:11.827Z</time>
      </trkpt>
      <trkpt lat="59.404234969988465" lon="13.237455943599343">
        <ele>44.95</ele>
        <time>2025-02-02T21:23:14.846Z</time>
      </trkpt>
      <trkpt lat="59.40422591753304" lon="13.237313954159617">
        <ele>45.07</ele>
        <time>2025-02-02T21:23:17.866Z</time>
      </trkpt>
      <trkpt lat="59.40421896055341" lon="13.237172970548272">
        <ele>45.18</ele>
        <time>2025-02-02T21:23:20.888Z</time>
      </trkpt>
      <trkpt lat="59.404211919754744" lon="13.237032992765307">
        <ele>45.3</ele>
        <time>2025-02-02T21:23:23.911Z</time>
      </trkpt>
      <trkpt lat="59.40420395694673" lon="13.236893936991692">
        <ele>45.41</ele>
        <time>2025-02-02T21:23:26.935Z</time>
      </trkpt>
      <trkpt lat="59.40419599413872" lon="13.236756976693869">
        <ele>45.53</ele>
        <time>2025-02-02T21:23:29.960Z</time>
      </trkpt>
      <trkpt lat="59.40418794751167" lon="13.236623955890536">
        <ele>45.64</ele>
        <time>2025-02-02T21:23:32.986Z</time>
      </trkpt>
      <trkpt lat="59.40417897887528" lon="13.236489929258823">
        <ele>45.76</ele>
        <time>2025-02-02T21:23:36.013Z</time>
      </trkpt>
      <trkpt lat="59.404168920591474" lon="13.236353974789381">
        <ele>45.87</ele>
        <time>2025-02-02T21:23:39.041Z</time>
      </trkpt>
      <trkpt lat="59.40416095778346" lon="13.236216930672526">
        <ele>45.99</ele>
        <time>2025-02-02T21:23:42.070Z</time>
      </trkpt>
      <trkpt lat="59.40415492281318" lon="13.236076952889562">
        <ele>46.11</ele>
        <time>2025-02-02T21:23:45.101Z</time>
      </trkpt>
      <trkpt lat="59.404147965833545" lon="13.235933957621455">
        <ele>46.22</ele>
        <time>2025-02-02T21:23:48.133Z</time>
      </trkpt>
      <trkpt lat="59.40414092503488" lon="13.235788950696588">
        <ele>46.34</ele>
        <time>2025-02-02T21:23:51.166Z</time>
      </trkpt>
      <trkpt lat="59.40413497388363" lon="13.235648972913623">
        <ele>46.45</ele>
        <time>2025-02-02T21:23:54.200Z</time>
      </trkpt>
      <trkpt lat="59.404126927256584" lon="13.235503965988755">
        <ele>46.57</ele>
        <time>2025-02-02T21:23:57.235Z</time>
      </trkpt>
      <trkpt lat="59.40411795862019" lon="13.235357953235507">
        <ele>46.69</ele>
        <time>2025-02-02T21:24:00.271Z</time>
      </trkpt>
      <trkpt lat="59.4041089899838" lon="13.23521294631064">
        <ele>46.8</ele>
        <time>2025-02-02T21:24:03.309Z</time>
      </trkpt>
      <trkpt lat="59.40410094335675" lon="13.235069951042533">
        <ele>46.92</ele>
        <time>2025-02-02T21:24:06.348Z</time>
      </trkpt>
      <trkpt lat="59.40409197472036" lon="13.234928967431188">
        <ele>47.03</ele>
        <time>2025-02-02T21:24:09.388Z</time>
      </trkpt>
      <trkpt lat="59.404082922264934" lon="13.23478295467794">
        <ele>47.15</ele>
        <time>2025-02-02T21:24:12.429Z</time>
      </trkpt>
      <trkpt lat="59.40407495945692" lon="13.234639959409833">
        <ele>47.27</ele>
        <time>2025-02-02T21:24:15.471Z</time>
      </trkpt>
      <trkpt lat="59.40406599082053" lon="13.234497969970107">
        <ele>47.38</ele>
        <time>2025-02-02T21:24:18.515Z</time>
      </trkpt>
      <trkpt lat="59.4040569383651" lon="13.234355980530381">
        <ele>47.5</ele>
        <time>2025-02-02T21:24:21.560Z</time>
      </trkpt>
      <trkpt lat="59.40404696390033" lon="13.234213991090655">
        <ele>47.62</ele>
        <time>2025-02-02T21:24:24.606Z</time>
      </trkpt>
      <trkpt lat="59.40403698943555" lon="13.234070995822549">
        <ele>47.73</ele>
        <time>2025-02-02T21:24:27.653Z</time>
      </trkpt>
      <trkpt lat="59.40402693115175" lon="13.23392791673541">
        <ele>47.85</ele>
        <time>2025-02-02T21:24:30.701Z</time>
      </trkpt>
      <trkpt lat="59.404017962515354" lon="13.233782993629575">
        <ele>47.96</ele>
        <time>2025-02-02T21:24:33.750Z</time>
      </trkpt>
      <trkpt lat="59.40401092171669" lon="13.233636980876327">
        <ele>48.08</ele>
        <time>2025-02-02T21:24:36.801Z</time>
      </trkpt>
      <trkpt lat="59.40400295890868" lon="13.233489962294698">
        <ele>48.19</ele>
        <time>2025-02-02T21:24:39.853Z</time>
      </trkpt>
      <trkpt lat="59.403993990272284" lon="13.233342943713069">
        <ele>48.31</ele>
        <time>2025-02-02T21:24:42.906Z</time>
      </trkpt>
      <trkpt lat="59.40398493781686" lon="13.23319592513144">
        <ele>48.42</ele>
        <time>2025-02-02T21:24:45.960Z</time>
      </trkpt>
      <trkpt lat="59.403975969180465" lon="13.233048990368843">
        <ele>48.54</ele>
        <time>2025-02-02T21:24:49.015Z</time>
      </trkpt>
      <trkpt lat="59.40396691672504" lon="13.232901971787214">
        <ele>48.65</ele>
        <time>2025-02-02T21:24:52.072Z</time>
      </trkpt>
      <trkpt lat="59.403957948088646" lon="13.232753947377205">
        <ele>48.76</ele>
        <time>2025-02-02T21:24:55.130Z</time>
      </trkpt>
      <trkpt lat="59.403950991109014" lon="13.232605922967196">
        <ele>48.87</ele>
        <time>2025-02-02T21:24:58.189Z</time>
      </trkpt>
      <trkpt lat="59.40394093282521" lon="13.232454964891076">
        <ele>48.99</ele>
        <time>2025-02-02T21:25:01.249Z</time>
      </trkpt>
      <trkpt lat="59.403931964188814" lon="13.232306940481067">
        <ele>49.1</ele>
        <time>2025-02-02T21:25:04.311Z</time>
      </trkpt>
      <trkpt lat="59.40392299555242" lon="13.232158999890089">
        <ele>49.21</ele>
        <time>2025-02-02T21:25:07.374Z</time>
      </trkpt>
      <trkpt lat="59.403913943096995" lon="13.232009969651699">
        <ele>49.33</ele>
        <time>2025-02-02T21:25:10.438Z</time>
      </trkpt>
      <trkpt lat="59.4039049744606" lon="13.23186295107007">
        <ele>49.44</ele>
        <time>2025-02-02T21:25:13.503Z</time>
      </trkpt>
      <trkpt lat="59.40389592200518" lon="13.231715932488441">
        <ele>49.56</ele>
        <time>2025-02-02T21:25:16.569Z</time>
      </trkpt>
      <trkpt lat="59.40388695336878" lon="13.231565980240703">
        <ele>49.68</ele>
        <time>2025-02-02T21:25:19.637Z</time>
      </trkpt>
      <trkpt lat="59.40387798473239" lon="13.231414938345551">
        <ele>49.8</ele>
        <time>2025-02-02T21:25:22.706Z</time>
      </trkpt>
      <trkpt lat="59.403869938105345" lon="13.231263980269432">
        <ele>49.93</ele>
        <time>2025-02-02T21:25:25.776Z</time>
      </trkpt>
      <trkpt lat="59.40386197529733" lon="13.231114950031042">
        <ele>50.05</ele>
        <time>2025-02-02T21:25:28.847Z</time>
      </trkpt>
      <trkpt lat="59.40385493449867" lon="13.230964997783303">
        <ele>50.17</ele>
        <time>2025-02-02T21:25:31.920Z</time>
      </trkpt>
      <trkpt lat="59.403845965862274" lon="13.230814961716533">
        <ele>50.3</ele>
        <time>2025-02-02T21:25:34.994Z</time>
      </trkpt>
      <trkpt lat="59.40383791923523" lon="13.230665931478143">
        <ele>50.43</ele>
        <time>2025-02-02T21:25:38.069Z</time>
      </trkpt>
      <trkpt lat="59.403828950598836" lon="13.230516985058784">
        <ele>50.56</ele>
        <time>2025-02-02T21:25:41.145Z</time>
      </trkpt>
      <trkpt lat="59.40381998196244" lon="13.230370972305536">
        <ele>50.68</ele>
        <time>2025-02-02T21:25:44.223Z</time>
      </trkpt>
      <trkpt lat="59.40381092950702" lon="13.230221942067146">
        <ele>50.8</ele>
        <time>2025-02-02T21:25:47.302Z</time>
      </trkpt>
      <trkpt lat="59.40380095504224" lon="13.230070983991027">
        <ele>50.93</ele>
        <time>2025-02-02T21:25:50.382Z</time>
      </trkpt>
      <trkpt lat="59.40379198640585" lon="13.229917930439115">
        <ele>51.06</ele>
        <time>2025-02-02T21:25:53.463Z</time>
      </trkpt>
      <trkpt lat="59.403781928122044" lon="13.229764960706234">
        <ele>51.19</ele>
        <time>2025-02-02T21:25:56.546Z</time>
      </trkpt>
      <trkpt lat="59.40377195365727" lon="13.229611990973353">
        <ele>51.32</ele>
        <time>2025-02-02T21:25:59.630Z</time>
      </trkpt>
      <trkpt lat="59.403762985020876" lon="13.229458937421441">
        <ele>51.44</ele>
        <time>2025-02-02T21:26:02.715Z</time>
      </trkpt>
      <trkpt lat="59.40375493839383" lon="13.229306973516941">
        <ele>51.56</ele>
        <time>2025-02-02T21:26:05.801Z</time>
      </trkpt>
      <trkpt lat="59.40374596975744" lon="13.229153919965029">
        <ele>51.68</ele>
        <time>2025-02-02T21:26:08.889Z</time>
      </trkpt>
      <trkpt lat="59.40373691730201" lon="13.229000950232148">
        <ele>51.8</ele>
        <time>2025-02-02T21:26:11.978Z</time>
      </trkpt>
      <trkpt lat="59.40372794866562" lon="13.228847980499268">
        <ele>51.93</ele>
        <time>2025-02-02T21:26:15.068Z</time>
      </trkpt>
      <trkpt lat="59.403718980029225" lon="13.228696938604116">
        <ele>52.05</ele>
        <time>2025-02-02T21:26:18.159Z</time>
      </trkpt>
      <trkpt lat="59.40371093340218" lon="13.228543968871236">
        <ele>52.17</ele>
        <time>2025-02-02T21:26:21.252Z</time>
      </trkpt>
      <trkpt lat="59.40370196476579" lon="13.228389993309975">
        <ele>52.29</ele>
        <time>2025-02-02T21:26:24.346Z</time>
      </trkpt>
      <trkpt lat="59.40369199030101" lon="13.228235933929682">
        <ele>52.41</ele>
        <time>2025-02-02T21:26:27.441Z</time>
      </trkpt>
      <trkpt lat="59.40368092618883" lon="13.22808195836842">
        <ele>52.53</ele>
        <time>2025-02-02T21:26:30.537Z</time>
      </trkpt>
      <trkpt lat="59.40367095172405" lon="13.22792898863554">
        <ele>52.65</ele>
        <time>2025-02-02T21:26:33.635Z</time>
      </trkpt>
      <trkpt lat="59.40366097725928" lon="13.227776940912008">
        <ele>52.76</ele>
        <time>2025-02-02T21:26:36.734Z</time>
      </trkpt>
      <trkpt lat="59.403649996966124" lon="13.22762698866427">
        <ele>52.88</ele>
        <time>2025-02-02T21:26:39.834Z</time>
      </trkpt>
      <trkpt lat="59.40363993868232" lon="13.227475946769118">
        <ele>53.0</ele>
        <time>2025-02-02T21:26:42.935Z</time>
      </trkpt>
      <trkpt lat="59.40362895838916" lon="13.22732599452138">
        <ele>53.12</ele>
        <time>2025-02-02T21:26:46.038Z</time>
      </trkpt>
      <trkpt lat="59.40361797809601" lon="13.227175958454609">
        <ele>53.23</ele>
        <time>2025-02-02T21:26:49.142Z</time>
      </trkpt>
      <trkpt lat="59.40360599197447" lon="13.2270279340446">
        <ele>53.35</ele>
        <time>2025-02-02T21:26:52.247Z</time>
      </trkpt>
      <trkpt lat="59.403592916205525" lon="13.226880999282002">
        <ele>53.47</ele>
        <time>2025-02-02T21:26:55.353Z</time>
      </trkpt>
      <trkpt lat="59.40357992425561" lon="13.226732974871993">
        <ele>53.58</ele>
        <time>2025-02-02T21:26:58.461Z</time>
      </trkpt>
      <trkpt lat="59.40356592647731" lon="13.226583944633603">
        <ele>53.69</ele>
        <time>2025-02-02T21:27:01.570Z</time>
      </trkpt>
      <trkpt lat="59.403550922870636" lon="13.226432986557484">
        <ele>53.81</ele>
        <time>2025-02-02T21:27:04.680Z</time>
      </trkpt>
      <trkpt lat="59.40353692509234" lon="13.226281944662333">
        <ele>53.92</ele>
        <time>2025-02-02T21:27:07.791Z</time>
      </trkpt>
      <trkpt lat="59.40352292731404" lon="13.226130986586213">
        <ele>54.03</ele>
        <time>2025-02-02T21:27:10.904Z</time>
      </trkpt>
      <trkpt lat="59.40350892953575" lon="13.225979944691062">
        <ele>54.14</ele>
        <time>2025-02-02T21:27:14.018Z</time>
      </trkpt>
      <trkpt lat="59.40349292010069" lon="13.225830998271704">
        <ele>54.25</ele>
        <time>2025-02-02T21:27:17.133Z</time>
      </trkpt>
      <trkpt lat="59.40347699448466" lon="13.225681968033314">
        <ele>54.36</ele>
        <time>2025-02-02T21:27:20.249Z</time>
      </trkpt>
      <trkpt lat="59.403459979221225" lon="13.225532937794924">
        <ele>54.46</ele>
        <time>2025-02-02T21:27:23.367Z</time>
      </trkpt>
      <trkpt lat="59.403441958129406" lon="13.225382985547185">
        <ele>54.57</ele>
        <time>2025-02-02T21:27:26.486Z</time>
      </trkpt>
      <trkpt lat="59.40342393703759" lon="13.225231943652034">
        <ele>54.66</ele>
        <time>2025-02-02T21:27:29.606Z</time>
      </trkpt>
      <trkpt lat="59.4034059997648" lon="13.225082997232676">
        <ele>54.77</ele>
        <time>2025-02-02T21:27:32.727Z</time>
      </trkpt>
      <trkpt lat="59.40338797867298" lon="13.224934972822666">
        <ele>54.87</ele>
        <time>2025-02-02T21:27:35.850Z</time>
      </trkpt>
      <trkpt lat="59.40336995758116" lon="13.224787954241037">
        <ele>54.97</ele>
        <time>2025-02-02T21:27:38.974Z</time>
      </trkpt>
      <trkpt lat="59.40335093066096" lon="13.224644958972931">
        <ele>55.07</ele>
        <time>2025-02-02T21:27:42.099Z</time>
      </trkpt>
      <trkpt lat="59.403330981731415" lon="13.224502969533205">
        <ele>55.18</ele>
        <time>2025-02-02T21:27:45.225Z</time>
      </trkpt>
      <trkpt lat="59.403310948982835" lon="13.224359974265099">
        <ele>55.28</ele>
        <time>2025-02-02T21:27:48.352Z</time>
      </trkpt>
      <trkpt lat="59.403289994224906" lon="13.224214967340231">
        <ele>55.39</ele>
        <time>2025-02-02T21:27:51.481Z</time>
      </trkpt>
      <trkpt lat="59.403268955647945" lon="13.224071972072124">
        <ele>55.49</ele>
        <time>2025-02-02T21:27:54.611Z</time>
      </trkpt>
      <trkpt lat="59.403246995061636" lon="13.223928976804018">
        <ele>55.58</ele>
        <time>2025-02-02T21:27:57.742Z</time>
      </trkpt>
      <trkpt lat="59.403223944827914" lon="13.223785981535912">
        <ele>55.67</ele>
        <time>2025-02-02T21:28:00.874Z</time>
      </trkpt>
      <trkpt lat="59.403200978413224" lon="13.223642986267805">
        <ele>55.77</ele>
        <time>2025-02-02T21:28:04.008Z</time>
      </trkpt>
      <trkpt lat="59.4031779281795" lon="13.22350099682808">
        <ele>55.86</ele>
        <time>2025-02-02T21:28:07.143Z</time>
      </trkpt>
      <trkpt lat="59.40315295010805" lon="13.223361941054463">
        <ele>55.95</ele>
        <time>2025-02-02T21:28:10.279Z</time>
      </trkpt>
      <trkpt lat="59.40312998369336" lon="13.22322397492826">
        <ele>56.03</ele>
        <time>2025-02-02T21:28:13.416Z</time>
      </trkpt>
      <trkpt lat="59.40310693345964" lon="13.223088942468166">
        <ele>56.12</ele>
        <time>2025-02-02T21:28:16.554Z</time>
      </trkpt>
      <trkpt lat="59.40308497287333" lon="13.222956927493215">
        <ele>56.2</ele>
        <time>2025-02-02T21:28:19.693Z</time>
      </trkpt>
      <trkpt lat="59.40306292846799" lon="13.222826924175024">
        <ele>56.29</ele>
        <time>2025-02-02T21:28:22.834Z</time>
      </trkpt>
      <trkpt lat="59.4030399620533" lon="13.222698932513595">
        <ele>56.37</ele>
        <time>2025-02-02T21:28:25.976Z</time>
      </trkpt>
      <trkpt lat="59.40301699563861" lon="13.222570940852165">
        <ele>56.45</ele>
        <time>2025-02-02T21:28:29.119Z</time>
      </trkpt>
      <trkpt lat="59.40299394540489" lon="13.222443955019116">
        <ele>56.53</ele>
        <time>2025-02-02T21:28:32.263Z</time>
      </trkpt>
      <trkpt lat="59.4029709789902" lon="13.222318980842829">
        <ele>56.61</ele>
        <time>2025-02-02T21:28:35.408Z</time>
      </trkpt>
      <trkpt lat="59.402947928756475" lon="13.22219593450427">
        <ele>56.7</ele>
        <time>2025-02-02T21:28:38.554Z</time>
      </trkpt>
      <trkpt lat="59.402925968170166" lon="13.222073977813125">
        <ele>56.77</ele>
        <time>2025-02-02T21:28:41.701Z</time>
      </trkpt>
      <trkpt lat="59.402903923764825" lon="13.221954954788089">
        <ele>56.84</ele>
        <time>2025-02-02T21:28:44.849Z</time>
      </trkpt>
      <trkpt lat="59.402881963178515" lon="13.221835931763053">
        <ele>56.92</ele>
        <time>2025-02-02T21:28:47.998Z</time>
      </trkpt>
      <trkpt lat="59.402860924601555" lon="13.221716992557049">
        <ele>56.99</ele>
        <time>2025-02-02T21:28:51.148Z</time>
      </trkpt>
      <trkpt lat="59.402839969843626" lon="13.221600987017155">
        <ele>57.06</ele>
        <time>2025-02-02T21:28:54.299Z</time>
      </trkpt>
      <trkpt lat="59.40282194875181" lon="13.221488920971751">
        <ele>57.12</ele>
        <time>2025-02-02T21:28:57.451Z</time>
      </trkpt>
      <trkpt lat="59.40280292183161" lon="13.221380962058902">
        <ele>57.18</ele>
        <time>2025-02-02T21:29:00.604Z</time>
      </trkpt>
      <trkpt lat="59.40278397873044" lon="13.221274930983782">
        <ele>57.23</ele>
        <time>2025-02-02T21:29:03.758Z</time>
      </trkpt>
      <trkpt lat="59.40276495181024" lon="13.221168983727694">
        <ele>57.28</ele>
        <time>2025-02-02T21:29:06.913Z</time>
      </trkpt>
      <trkpt lat="59.40274693071842" lon="13.221062952652574">
        <ele>57.32</ele>
        <time>2025-02-02T21:29:10.069Z</time>
      </trkpt>
      <trkpt lat="59.402728993445635" lon="13.220954993739724">
        <ele>57.36</ele>
        <time>2025-02-02T21:29:13.226Z</time>
      </trkpt>
      <trkpt lat="59.402708960697055" lon="13.220844939351082">
        <ele>57.4</ele>
        <time>2025-02-02T21:29:16.384Z</time>
      </trkpt>
      <trkpt lat="59.402690939605236" lon="13.22073295712471">
        <ele>57.43</ele>
        <time>2025-02-02T21:29:19.543Z</time>
      </trkpt>
      <trkpt lat="59.40266998484731" lon="13.220619969069958">
        <ele>57.46</ele>
        <time>2025-02-02T21:29:22.703Z</time>
      </trkpt>
      <trkpt lat="59.40265196375549" lon="13.220508992671967">
        <ele>57.49</ele>
        <time>2025-02-02T21:29:25.864Z</time>
      </trkpt>
      <trkpt lat="59.40263394266367" lon="13.220397932454944">
        <ele>57.51</ele>
        <time>2025-02-02T21:29:29.026Z</time>
      </trkpt>
      <trkpt lat="59.4026149995625" lon="13.220288967713714">
        <ele>57.53</ele>
        <time>2025-02-02T21:29:32.189Z</time>
      </trkpt>
      <trkpt lat="59.402597984299064" lon="13.220181930810213">
        <ele>57.55</ele>
        <time>2025-02-02T21:29:35.352Z</time>
      </trkpt>
      <trkpt lat="59.402579963207245" lon="13.220075983554125">
        <ele>57.56</ele>
        <time>2025-02-02T21:29:38.516Z</time>
      </trkpt>
      <trkpt lat="59.40256294794381" lon="13.219970958307385">
        <ele>57.58</ele>
        <time>2025-02-02T21:29:41.681Z</time>
      </trkpt>
      <trkpt lat="59.40254693850875" lon="13.219867944717407">
        <ele>57.59</ele>
        <time>2025-02-02T21:29:44.847Z</time>
      </trkpt>
      <trkpt lat="59.40253294073045" lon="13.219762919470668">
        <ele>57.6</ele>
        <time>2025-02-02T21:29:48.014Z</time>
      </trkpt>
      <trkpt lat="59.402518942952156" lon="13.21965797804296">
        <ele>57.6</ele>
        <time>2025-02-02T21:29:51.182Z</time>
      </trkpt>
      <trkpt lat="59.40250393934548" lon="13.21955194696784">
        <ele>57.6</ele>
        <time>2025-02-02T21:29:54.351Z</time>
      </trkpt>
      <trkpt lat="59.402491953223944" lon="13.219444993883371">
        <ele>57.59</ele>
        <time>2025-02-02T21:29:57.521Z</time>
      </trkpt>
      <trkpt lat="59.40248097293079" lon="13.219333933666348">
        <ele>57.58</ele>
        <time>2025-02-02T21:30:00.692Z</time>
      </trkpt>
      <trkpt lat="59.402470998466015" lon="13.219218933954835">
        <ele>57.56</ele>
        <time>2025-02-02T21:30:03.864Z</time>
      </trkpt>
      <trkpt lat="59.40246194601059" lon="13.219103934243321">
        <ele>57.54</ele>
        <time>2025-02-02T21:30:07.037Z</time>
      </trkpt>
      <trkpt lat="59.402452977374196" lon="13.218986922875047">
        <ele>57.52</ele>
        <time>2025-02-02T21:30:10.211Z</time>
      </trkpt>
      <trkpt lat="59.40244694240391" lon="13.218868989497423">
        <ele>57.49</ele>
        <time>2025-02-02T21:30:13.386Z</time>
      </trkpt>
      <trkpt lat="59.40244099125266" lon="13.218749966472387">
        <ele>57.46</ele>
        <time>2025-02-02T21:30:16.561Z</time>
      </trkpt>
      <trkpt lat="59.402433950454" lon="13.21862692013383">
        <ele>57.42</ele>
        <time>2025-02-02T21:30:19.737Z</time>
      </trkpt>
      <trkpt lat="59.402427999302745" lon="13.218501945957541">
        <ele>57.38</ele>
        <time>2025-02-02T21:30:22.915Z</time>
      </trkpt>
      <trkpt lat="59.40242196433246" lon="13.218373954296112">
        <ele>57.34</ele>
        <time>2025-02-02T21:30:26.094Z</time>
      </trkpt>
      <trkpt lat="59.40241693519056" lon="13.218244956806302">
        <ele>57.3</ele>
        <time>2025-02-02T21:30:29.274Z</time>
      </trkpt>
      <trkpt lat="59.4024149235338" lon="13.218114953488111">
        <ele>57.25</ele>
        <time>2025-02-02T21:30:32.455Z</time>
      </trkpt>
      <trkpt lat="59.4024149235338" lon="13.21798293851316">
        <ele>57.2</ele>
        <time>2025-02-02T21:30:35.637Z</time>
      </trkpt>
      <trkpt lat="59.40241592936218" lon="13.217850923538208">
        <ele>57.16</ele>
        <time>2025-02-02T21:30:38.820Z</time>
      </trkpt>
      <trkpt lat="59.40241693519056" lon="13.217715974897146">
        <ele>57.11</ele>
        <time>2025-02-02T21:30:42.004Z</time>
      </trkpt>
      <trkpt lat="59.40241894684732" lon="13.217577924951911">
        <ele>57.05</ele>
        <time>2025-02-02T21:30:45.189Z</time>
      </trkpt>
      <trkpt lat="59.40242196433246" lon="13.217437947168946">
        <ele>56.99</ele>
        <time>2025-02-02T21:30:48.375Z</time>
      </trkpt>
      <trkpt lat="59.402425987645984" lon="13.217296963557601">
        <ele>56.94</ele>
        <time>2025-02-02T21:30:51.562Z</time>
      </trkpt>
      <trkpt lat="59.402430932968855" lon="13.217154974117875">
        <ele>56.88</ele>
        <time>2025-02-02T21:30:54.751Z</time>
      </trkpt>
      <trkpt lat="59.40243696793914" lon="13.217011978849769">
        <ele>56.81</ele>
        <time>2025-02-02T21:30:57.941Z</time>
      </trkpt>
      <trkpt lat="59.40244392491877" lon="13.216866971924901">
        <ele>56.75</ele>
        <time>2025-02-02T21:31:01.132Z</time>
      </trkpt>
      <trkpt lat="59.402450965717435" lon="13.216720959171653">
        <ele>56.68</ele>
        <time>2025-02-02T21:31:04.324Z</time>
      </trkpt>
      <trkpt lat="59.40245993435383" lon="13.216574946418405">
        <ele>56.61</ele>
        <time>2025-02-02T21:31:07.517Z</time>
      </trkpt>
      <trkpt lat="59.402469992637634" lon="13.216428933665156">
        <ele>56.54</ele>
        <time>2025-02-02T21:31:10.712Z</time>
      </trkpt>
      <trkpt lat="59.40247896127403" lon="13.21628199890256">
        <ele>56.46</ele>
        <time>2025-02-02T21:31:13.908Z</time>
      </trkpt>
      <trkpt lat="59.40248692408204" lon="13.21613397449255">
        <ele>56.38</ele>
        <time>2025-02-02T21:31:17.105Z</time>
      </trkpt>
      <trkpt lat="59.402493964880705" lon="13.215987961739302">
        <ele>56.3</ele>
        <time>2025-02-02T21:31:20.303Z</time>
      </trkpt>
      <trkpt lat="59.40250192768872" lon="13.215839937329292">
        <ele>56.22</ele>
        <time>2025-02-02T21:31:23.502Z</time>
      </trkpt>
      <trkpt lat="59.40250997431576" lon="13.215691996738315">
        <ele>56.14</ele>
        <time>2025-02-02T21:31:26.703Z</time>
      </trkpt>
      <trkpt lat="59.402517937123775" lon="13.215541960671544">
        <ele>56.05</ele>
        <time>2025-02-02T21:31:29.905Z</time>
      </trkpt>
      <trkpt lat="59.4025269895792" lon="13.215390918776393">
        <ele>55.96</ele>
        <time>2025-02-02T21:31:33.108Z</time>
      </trkpt>
      <trkpt lat="59.402535958215594" lon="13.215239960700274">
        <ele>55.87</ele>
        <time>2025-02-02T21:31:36.312Z</time>
      </trkpt>
      <trkpt lat="59.40254492685199" lon="13.215088918805122">
        <ele>55.79</ele>
        <time>2025-02-02T21:31:39.518Z</time>
      </trkpt>
      <trkpt lat="59.40255397930741" lon="13.214936954900622">
        <ele>55.7</ele>
        <time>2025-02-02T21:31:42.725Z</time>
      </trkpt>
      <trkpt lat="59.402561942115426" lon="13.214784990996122">
        <ele>55.6</ele>
        <time>2025-02-02T21:31:45.933Z</time>
      </trkpt>
      <trkpt lat="59.40256998874247" lon="13.21463294327259">
        <ele>55.5</ele>
        <time>2025-02-02T21:31:49.142Z</time>
      </trkpt>
      <trkpt lat="59.4025769457221" lon="13.21447896771133">
        <ele>55.4</ele>
        <time>2025-02-02T21:31:52.353Z</time>
      </trkpt>
      <trkpt lat="59.40258499234915" lon="13.214322980493307">
        <ele>55.3</ele>
        <time>2025-02-02T21:31:55.565Z</time>
      </trkpt>
      <trkpt lat="59.40259396098554" lon="13.214164981618524">
        <ele>55.2</ele>
        <time>2025-02-02T21:31:58.778Z</time>
      </trkpt>
      <trkpt lat="59.402602929621935" lon="13.214003965258598">
        <ele>55.11</ele>
        <time>2025-02-02T21:32:01.992Z</time>
      </trkpt>
      <trkpt lat="59.40261097624898" lon="13.21383791975677">
        <ele>55.02</ele>
        <time>2025-02-02T21:32:05.208Z</time>
      </trkpt>
      <trkpt lat="59.40261893905699" lon="13.213668940588832">
        <ele>54.92</ele>
        <time>2025-02-02T21:32:08.425Z</time>
      </trkpt>
      <trkpt lat="59.40262698568404" lon="13.213498955592513">
        <ele>54.83</ele>
        <time>2025-02-02T21:32:11.644Z</time>
      </trkpt>
      <trkpt lat="59.40263494849205" lon="13.213325953111053">
        <ele>54.74</ele>
        <time>2025-02-02T21:32:14.864Z</time>
      </trkpt>
      <trkpt lat="59.402641989290714" lon="13.213152950629592">
        <ele>54.65</ele>
        <time>2025-02-02T21:32:18.085Z</time>
      </trkpt>
      <trkpt lat="59.402646934613585" lon="13.21297693066299">
        <ele>54.56</ele>
        <time>2025-02-02T21:32:21.308Z</time>
      </trkpt>
      <trkpt lat="59.40265296958387" lon="13.212798982858658">
        <ele>54.46</ele>
        <time>2025-02-02T21:32:24.532Z</time>
      </trkpt>
      <trkpt lat="59.40265892073512" lon="13.212617933750153">
        <ele>54.36</ele>
        <time>2025-02-02T21:32:27.758Z</time>
      </trkpt>
      <trkpt lat="59.402664955705404" lon="13.212432945147157">
        <ele>54.26</ele>
        <time>2025-02-02T21:32:30.985Z</time>
      </trkpt>
      <trkpt lat="59.40266897901893" lon="13.212243933230639">
        <ele>54.15</ele>
        <time>2025-02-02T21:32:34.214Z</time>
      </trkpt>
      <trkpt lat="59.40267199650407" lon="13.21205098181963">
        <ele>54.04</ele>
        <time>2025-02-02T21:32:37.444Z</time>
      </trkpt>
      <trkpt lat="59.4026739243418" lon="13.211853923276067">
        <ele>53.92</ele>
        <time>2025-02-02T21:32:40.676Z</time>
      </trkpt>
      <trkpt lat="59.40267593599856" lon="13.211651919409633">
        <ele>53.8</ele>
        <time>2025-02-02T21:32:43.910Z</time>
      </trkpt>
      <trkpt lat="59.40267794765532" lon="13.211446981877089">
        <ele>53.69</ele>
        <time>2025-02-02T21:32:47.145Z</time>
      </trkpt>
      <trkpt lat="59.40267995931208" lon="13.211239948868752">
        <ele>53.57</ele>
        <time>2025-02-02T21:32:50.382Z</time>
      </trkpt>
      <trkpt lat="59.40268297679722" lon="13.211031993851066">
        <ele>53.46</ele>
        <time>2025-02-02T21:32:53.621Z</time>
      </trkpt>
      <trkpt lat="59.402686916291714" lon="13.210822949185967">
        <ele>53.35</ele>
        <time>2025-02-02T21:32:56.862Z</time>
      </trkpt>
      <trkpt lat="59.402690939605236" lon="13.210617927834392">
        <ele>53.25</ele>
        <time>2025-02-02T21:33:00.104Z</time>
      </trkpt>
      <trkpt lat="59.402692951262" lon="13.210415923967957">
        <ele>53.14</ele>
        <time>2025-02-02T21:33:03.348Z</time>
      </trkpt>
      <trkpt lat="59.40269395709038" lon="13.210214925929904">
        <ele>53.04</ele>
        <time>2025-02-02T21:33:06.594Z</time>
      </trkpt>
      <trkpt lat="59.40269194543362" lon="13.210017951205373">
        <ele>52.94</ele>
        <time>2025-02-02T21:33:09.841Z</time>
      </trkpt>
      <trkpt lat="59.402685994282365" lon="13.209825921803713">
        <ele>52.84</ele>
        <time>2025-02-02T21:33:13.090Z</time>
      </trkpt>
      <trkpt lat="59.40267794765532" lon="13.209634982049465">
        <ele>52.74</ele>
        <time>2025-02-02T21:33:16.340Z</time>
      </trkpt>
      <trkpt lat="59.40266897901893" lon="13.209443958476186">
        <ele>52.65</ele>
        <time>2025-02-02T21:33:19.592Z</time>
      </trkpt>
      <trkpt lat="59.40265892073512" lon="13.209250923246145">
        <ele>52.55</ele>
        <time>2025-02-02T21:33:22.845Z</time>
      </trkpt>
      <trkpt lat="59.402645928785205" lon="13.209057971835136">
        <ele>52.45</ele>
        <time>2025-02-02T21:33:26.100Z</time>
      </trkpt>
      <trkpt lat="59.40263092517853" lon="13.208865942433476">
        <ele>52.36</ele>
        <time>2025-02-02T21:33:29.357Z</time>
      </trkpt>
      <trkpt lat="59.40261298790574" lon="13.208674918860197">
        <ele>52.27</ele>
        <time>2025-02-02T21:33:32.615Z</time>
      </trkpt>
      <trkpt lat="59.40259396098554" lon="13.208486996591091">
        <ele>52.18</ele>
        <time>2025-02-02T21:33:35.875Z</time>
      </trkpt>
      <trkpt lat="59.40257292240858" lon="13.208300918340683">
        <ele>52.09</ele>
        <time>2025-02-02T21:33:39.136Z</time>
      </trkpt>
      <trkpt lat="59.40254995599389" lon="13.208117941394448">
        <ele>52.0</ele>
        <time>2025-02-02T21:33:42.399Z</time>
      </trkpt>
      <trkpt lat="59.40252497792244" lon="13.207937981933355">
        <ele>51.91</ele>
        <time>2025-02-02T21:33:45.663Z</time>
      </trkpt>
      <trkpt lat="59.40249899402261" lon="13.207760956138372">
        <ele>51.83</ele>
        <time>2025-02-02T21:33:48.929Z</time>
      </trkpt>
      <trkpt lat="59.402471920475364" lon="13.207587953656912">
        <ele>51.74</ele>
        <time>2025-02-02T21:33:52.196Z</time>
      </trkpt>
      <trkpt lat="59.40244199708104" lon="13.207419980317354">
        <ele>51.66</ele>
        <time>2025-02-02T21:33:55.465Z</time>
      </trkpt>
      <trkpt lat="59.40241098403931" lon="13.207253934815526">
        <ele>51.58</ele>
        <time>2025-02-02T21:33:58.735Z</time>
      </trkpt>
      <trkpt lat="59.40237695351243" lon="13.207090990617871">
        <ele>51.5</ele>
        <time>2025-02-02T21:34:02.007Z</time>
      </trkpt>
      <trkpt lat="59.40234191715717" lon="13.206928968429565">
        <ele>51.42</ele>
        <time>2025-02-02T21:34:05.280Z</time>
      </trkpt>
      <trkpt lat="59.40230495296419" lon="13.20676795206964">
        <ele>51.34</ele>
        <time>2025-02-02T21:34:08.555Z</time>
      </trkpt>
      <trkpt lat="59.40226698294282" lon="13.206606935709715">
        <ele>51.27</ele>
        <time>2025-02-02T21:34:11.831Z</time>
      </trkpt>
      <trkpt lat="59.40222792327404" lon="13.20644793100655">
        <ele>51.19</ele>
        <time>2025-02-02T21:34:15.108Z</time>
      </trkpt>
      <trkpt lat="59.40218693576753" lon="13.206290937960148">
        <ele>51.11</ele>
        <time>2025-02-02T21:34:18.387Z</time>
      </trkpt>
      <trkpt lat="59.40214494243264" lon="13.206138974055648">
        <ele>51.05</ele>
        <time>2025-02-02T21:34:21.667Z</time>
      </trkpt>
      <trkpt lat="59.40210294909775" lon="13.205989943817258">
        <ele>50.98</ele>
        <time>2025-02-02T21:34:24.949Z</time>
      </trkpt>
      <trkpt lat="59.40205994993448" lon="13.20584393106401">
        <ele>50.92</ele>
        <time>2025-02-02T21:34:28.232Z</time>
      </trkpt>
      <trkpt lat="59.40201493911445" lon="13.205698924139142">
        <ele>50.86</ele>
        <time>2025-02-02T21:34:31.517Z</time>
      </trkpt>
      <trkpt lat="59.40196892246604" lon="13.205555928871036">
        <ele>50.79</ele>
        <time>2025-02-02T21:34:34.803Z</time>
      </trkpt>
      <trkpt lat="59.40192198380828" lon="13.20541494525969">
        <ele>50.73</ele>
        <time>2025-02-02T21:34:38.090Z</time>
      </trkpt>
      <trkpt lat="59.401873955503106" lon="13.205277984961867">
        <ele>50.67</ele>
        <time>2025-02-02T21:34:41.379Z</time>
      </trkpt>
      <trkpt lat="59.401823999360204" lon="13.205141946673393">
        <ele>50.61</ele>
        <time>2025-02-02T21:34:44.669Z</time>
      </trkpt>
      <trkpt lat="59.40177194774151" lon="13.20500792004168">
        <ele>50.56</ele>
        <time>2025-02-02T21:34:47.960Z</time>
      </trkpt>
      <trkpt lat="59.401719979941845" lon="13.204873977229">
        <ele>50.5</ele>
        <time>2025-02-02T21:34:51.253Z</time>
      </trkpt>
      <trkpt lat="59.40166591666639" lon="13.204742968082428">
        <ele>50.45</ele>
        <time>2025-02-02T21:34:54.547Z</time>
      </trkpt>
      <trkpt lat="59.40161093138158" lon="13.204614976420999">
        <ele>50.39</ele>
        <time>2025-02-02T21:34:57.843Z</time>
      </trkpt>
      <trkpt lat="59.4015549402684" lon="13.20448991842568">
        <ele>50.34</ele>
        <time>2025-02-02T21:35:01.140Z</time>
      </trkpt>
      <trkpt lat="59.40149593167007" lon="13.204367961734533">
        <ele>50.28</ele>
        <time>2025-02-02T21:35:04.438Z</time>
      </trkpt>
      <trkpt lat="59.40143692307174" lon="13.204246927052736">
        <ele>50.23</ele>
        <time>2025-02-02T21:35:07.738Z</time>
      </trkpt>
      <trkpt lat="59.401376992464066" lon="13.20412497036159">
        <ele>50.18</ele>
        <time>2025-02-02T21:35:11.039Z</time>
      </trkpt>
      <trkpt lat="59.40131898969412" lon="13.204001924023032">
        <ele>50.13</ele>
        <time>2025-02-02T21:35:14.341Z</time>
      </trkpt>
      <trkpt lat="59.40125897526741" lon="13.203879967331886">
        <ele>50.08</ele>
        <time>2025-02-02T21:35:17.645Z</time>
      </trkpt>
      <trkpt lat="59.4011989608407" lon="13.203757926821709">
        <ele>50.03</ele>
        <time>2025-02-02T21:35:20.950Z</time>
      </trkpt>
      <trkpt lat="59.40113794058561" lon="13.203635970130563">
        <ele>49.99</ele>
        <time>2025-02-02T21:35:24.257Z</time>
      </trkpt>
      <trkpt lat="59.401077926158905" lon="13.203511917963624">
        <ele>49.94</ele>
        <time>2025-02-02T21:35:27.565Z</time>
      </trkpt>
      <trkpt lat="59.40101698972285" lon="13.203388955444098">
        <ele>49.91</ele>
        <time>2025-02-02T21:35:30.874Z</time>
      </trkpt>
      <trkpt lat="59.40095596946776" lon="13.203268926590681">
        <ele>49.87</ele>
        <time>2025-02-02T21:35:34.185Z</time>
      </trkpt>
      <trkpt lat="59.40089595504105" lon="13.203147975727916">
        <ele>49.84</ele>
        <time>2025-02-02T21:35:37.497Z</time>
      </trkpt>
      <trkpt lat="59.40083594061434" lon="13.2030279468745">
        <ele>49.81</ele>
        <time>2025-02-02T21:35:40.810Z</time>
      </trkpt>
      <trkpt lat="59.400775926187634" lon="13.202909929677844">
        <ele>49.77</ele>
        <time>2025-02-02T21:35:44.125Z</time>
      </trkpt>
      <trkpt lat="59.40071691758931" lon="13.20279492996633">
        <ele>49.74</ele>
        <time>2025-02-02T21:35:47.441Z</time>
      </trkpt>
      <trkpt lat="59.40065799281001" lon="13.202681941911578">
        <ele>49.71</ele>
        <time>2025-02-02T21:35:50.759Z</time>
      </trkpt>
      <trkpt lat="59.400599990040064" lon="13.202569959685206">
        <ele>49.68</ele>
        <time>2025-02-02T21:35:54.078Z</time>
      </trkpt>
      <trkpt lat="59.400540981441736" lon="13.202455965802073">
        <ele>49.65</ele>
        <time>2025-02-02T21:35:57.398Z</time>
      </trkpt>
      <trkpt lat="59.40048197284341" lon="13.20234096609056">
        <ele>49.63</ele>
        <time>2025-02-02T21:36:00.719Z</time>
      </trkpt>
      <trkpt lat="59.40042397007346" lon="13.202227978035808">
        <ele>49.6</ele>
        <time>2025-02-02T21:36:04.042Z</time>
      </trkpt>
      <trkpt lat="59.400364961475134" lon="13.202115995809436">
        <ele>49.58</ele>
        <time>2025-02-02T21:36:07.366Z</time>
      </trkpt>
      <trkpt lat="59.40030796453357" lon="13.202004935592413">
        <ele>49.56</ele>
        <time>2025-02-02T21:36:10.691Z</time>
      </trkpt>
      <trkpt lat="59.40025297924876" lon="13.201896976679564">
        <ele>49.53</ele>
        <time>2025-02-02T21:36:14.018Z</time>
      </trkpt>
      <trkpt lat="59.40019799396396" lon="13.201789939776063">
        <ele>49.51</ele>
        <time>2025-02-02T21:36:17.346Z</time>
      </trkpt>
      <trkpt lat="59.4001439306885" lon="13.201680975034833">
        <ele>49.49</ele>
        <time>2025-02-02T21:36:20.675Z</time>
      </trkpt>
      <trkpt lat="59.400089951232076" lon="13.201572932302952">
        <ele>49.48</ele>
        <time>2025-02-02T21:36:24.005Z</time>
      </trkpt>
      <trkpt lat="59.40003496594727" lon="13.201465979218483">
        <ele>49.46</ele>
        <time>2025-02-02T21:36:27.337Z</time>
      </trkpt>
      <trkpt lat="59.399978974834085" lon="13.201357936486602">
        <ele>49.44</ele>
        <time>2025-02-02T21:36:30.670Z</time>
      </trkpt>
      <trkpt lat="59.39992499537766" lon="13.201251989230514">
        <ele>49.43</ele>
        <time>2025-02-02T21:36:34.004Z</time>
      </trkpt>
      <trkpt lat="59.399871937930584" lon="13.201146963983774">
        <ele>49.41</ele>
        <time>2025-02-02T21:36:37.339Z</time>
      </trkpt>
      <trkpt lat="59.39981997013092" lon="13.201041938737035">
        <ele>49.4</ele>
        <time>2025-02-02T21:36:40.675Z</time>
      </trkpt>
      <trkpt lat="59.399767918512225" lon="13.200941942632198">
        <ele>49.39</ele>
        <time>2025-02-02T21:36:44.013Z</time>
      </trkpt>
      <trkpt lat="59.39971494488418" lon="13.200842952355742">
        <ele>49.38</ele>
        <time>2025-02-02T21:36:47.352Z</time>
      </trkpt>
      <trkpt lat="59.39966297708452" lon="13.200742956250906">
        <ele>49.37</ele>
        <time>2025-02-02T21:36:50.692Z</time>
      </trkpt>
      <trkpt lat="59.39961092546582" lon="13.200641954317689">
        <ele>49.36</ele>
        <time>2025-02-02T21:36:54.033Z</time>
      </trkpt>
      <trkpt lat="59.39955795183778" lon="13.200540952384472">
        <ele>49.36</ele>
        <time>2025-02-02T21:36:57.375Z</time>
      </trkpt>
      <trkpt lat="59.399504978209734" lon="13.200439950451255">
        <ele>49.35</ele>
        <time>2025-02-02T21:37:00.719Z</time>
      </trkpt>
      <trkpt lat="59.39945292659104" lon="13.200336936861277">
        <ele>49.35</ele>
        <time>2025-02-02T21:37:04.064Z</time>
      </trkpt>
      <trkpt lat="59.399400958791375" lon="13.200233923271298">
        <ele>49.35</ele>
        <time>2025-02-02T21:37:07.410Z</time>
      </trkpt>
      <trkpt lat="59.39934697933495" lon="13.200130993500352">
        <ele>49.34</ele>
        <time>2025-02-02T21:37:10.757Z</time>
      </trkpt>
      <trkpt lat="59.399293921887875" lon="13.200027979910374">
        <ele>49.34</ele>
        <time>2025-02-02T21:37:14.105Z</time>
      </trkpt>
      <trkpt lat="59.39923793077469" lon="13.199921948835254">
        <ele>49.34</ele>
        <time>2025-02-02T21:37:17.455Z</time>
      </trkpt>
      <trkpt lat="59.39918294548988" lon="13.199814995750785">
        <ele>49.34</ele>
        <time>2025-02-02T21:37:20.806Z</time>
      </trkpt>
      <trkpt lat="59.39912896603346" lon="13.199707958847284">
        <ele>49.34</ele>
        <time>2025-02-02T21:37:24.158Z</time>
      </trkpt>
      <trkpt lat="59.399075992405415" lon="13.199599999934435">
        <ele>49.34</ele>
        <time>2025-02-02T21:37:27.511Z</time>
      </trkpt>
      <trkpt lat="59.39902293495834" lon="13.199489945545793">
        <ele>49.34</ele>
        <time>2025-02-02T21:37:30.866Z</time>
      </trkpt>
      <trkpt lat="59.398968955501914" lon="13.199381986632943">
        <ele>49.35</ele>
        <time>2025-02-02T21:37:34.222Z</time>
      </trkpt>
      <trkpt lat="59.39891397021711" lon="13.199273943901062">
        <ele>49.35</ele>
        <time>2025-02-02T21:37:37.579Z</time>
      </trkpt>
      <trkpt lat="59.398859990760684" lon="13.199165984988213">
        <ele>49.35</ele>
        <time>2025-02-02T21:37:40.937Z</time>
      </trkpt>
      <trkpt lat="59.39880592748523" lon="13.19905693642795">
        <ele>49.35</ele>
        <time>2025-02-02T21:37:44.296Z</time>
      </trkpt>
      <trkpt lat="59.3987519480288" lon="13.19894797168672">
        <ele>49.35</ele>
        <time>2025-02-02T21:37:47.657Z</time>
      </trkpt>
      <trkpt lat="59.398696962744" lon="13.19883699528873">
        <ele>49.35</ele>
        <time>2025-02-02T21:37:51.019Z</time>
      </trkpt>
      <trkpt lat="59.39864097163081" lon="13.198727946728468">
        <ele>49.36</ele>
        <time>2025-02-02T21:37:54.382Z</time>
      </trkpt>
      <trkpt lat="59.398582968860865" lon="13.198622921481729">
        <ele>49.36</ele>
        <time>2025-02-02T21:37:57.747Z</time>
      </trkpt>
      <trkpt lat="59.39852396026254" lon="13.198518985882401">
        <ele>49.36</ele>
        <time>2025-02-02T21:38:01.113Z</time>
      </trkpt>
      <trkpt lat="59.39846495166421" lon="13.198415972292423">
        <ele>49.36</ele>
        <time>2025-02-02T21:38:04.480Z</time>
      </trkpt>
      <trkpt lat="59.39840393140912" lon="13.198315976187587">
        <ele>49.36</ele>
        <time>2025-02-02T21:38:07.848Z</time>
      </trkpt>
      <trkpt lat="59.39834492281079" lon="13.198218997567892">
        <ele>49.36</ele>
        <time>2025-02-02T21:38:11.218Z</time>
      </trkpt>
      <trkpt lat="59.398283986374736" lon="13.198124952614307">
        <ele>49.37</ele>
        <time>2025-02-02T21:38:14.589Z</time>
      </trkpt>
      <trkpt lat="59.39822296611965" lon="13.198032919317484">
        <ele>49.37</ele>
        <time>2025-02-02T21:38:17.961Z</time>
      </trkpt>
      <trkpt lat="59.39815892837942" lon="13.197944993153214">
        <ele>49.38</ele>
        <time>2025-02-02T21:38:21.334Z</time>
      </trkpt>
      <trkpt lat="59.39809396862984" lon="13.197859916836023">
        <ele>49.38</ele>
        <time>2025-02-02T21:38:24.709Z</time>
      </trkpt>
      <trkpt lat="59.398025991395116" lon="13.197776935994625">
        <ele>49.39</ele>
        <time>2025-02-02T21:38:28.085Z</time>
      </trkpt>
      <trkpt lat="59.39795793034136" lon="13.197694960981607">
        <ele>49.39</ele>
        <time>2025-02-02T21:38:31.462Z</time>
      </trkpt>
      <trkpt lat="59.39788794144988" lon="13.19761298596859">
        <ele>49.4</ele>
        <time>2025-02-02T21:38:34.840Z</time>
      </trkpt>
      <trkpt lat="59.3978179525584" lon="13.197531932964921">
        <ele>49.41</ele>
        <time>2025-02-02T21:38:38.220Z</time>
      </trkpt>
      <trkpt lat="59.3977489694953" lon="13.197451969608665">
        <ele>49.41</ele>
        <time>2025-02-02T21:38:41.601Z</time>
      </trkpt>
      <trkpt lat="59.397679986432195" lon="13.197372928261757">
        <ele>49.42</ele>
        <time>2025-02-02T21:38:44.983Z</time>
      </trkpt>
      <trkpt lat="59.39761192537844" lon="13.1972929649055">
        <ele>49.43</ele>
        <time>2025-02-02T21:38:48.367Z</time>
      </trkpt>
      <trkpt lat="59.39754394814372" lon="13.197212917730212">
        <ele>49.44</ele>
        <time>2025-02-02T21:38:51.752Z</time>
      </trkpt>
      <trkpt lat="59.39747496508062" lon="13.197133960202336">
        <ele>49.44</ele>
        <time>2025-02-02T21:38:55.138Z</time>
      </trkpt>
      <trkpt lat="59.3974069878459" lon="13.19705793634057">
        <ele>49.45</ele>
        <time>2025-02-02T21:38:58.525Z</time>
      </trkpt>
      <trkpt lat="59.397337920963764" lon="13.196982918307185">
        <ele>49.45</ele>
        <time>2025-02-02T21:39:01.914Z</time>
      </trkpt>
      <trkpt lat="59.39726893790066" lon="13.196906978264451">
        <ele>49.46</ele>
        <time>2025-02-02T21:39:05.304Z</time>
      </trkpt>
      <trkpt lat="59.39719894900918" lon="13.196832966059446">
        <ele>49.47</ele>
        <time>2025-02-02T21:39:08.695Z</time>
      </trkpt>
      <trkpt lat="59.39712694846094" lon="13.196759959682822">
        <ele>49.47</ele>
        <time>2025-02-02T21:39:12.087Z</time>
      </trkpt>
      <trkpt lat="59.397055953741074" lon="13.196682929992676">
        <ele>49.48</ele>
        <time>2025-02-02T21:39:15.481Z</time>
      </trkpt>
      <trkpt lat="59.39698495902121" lon="13.19660497829318">
        <ele>49.48</ele>
        <time>2025-02-02T21:39:18.876Z</time>
      </trkpt>
      <trkpt lat="59.39691396430135" lon="13.196524931117892">
        <ele>49.49</ele>
        <time>2025-02-02T21:39:22.272Z</time>
      </trkpt>
      <trkpt lat="59.396843975409865" lon="13.196442956104875">
        <ele>49.5</ele>
        <time>2025-02-02T21:39:25.670Z</time>
      </trkpt>
      <trkpt lat="59.396774992346764" lon="13.196362992748618">
        <ele>49.51</ele>
        <time>2025-02-02T21:39:29.069Z</time>
      </trkpt>
      <trkpt lat="59.39670491963625" lon="13.196284957230091">
        <ele>49.52</ele>
        <time>2025-02-02T21:39:32.469Z</time>
      </trkpt>
      <trkpt lat="59.39663593657315" lon="13.196209939196706">
        <ele>49.53</ele>
        <time>2025-02-02T21:39:35.871Z</time>
      </trkpt>
      <trkpt lat="59.396566953510046" lon="13.196132993325591">
        <ele>49.55</ele>
        <time>2025-02-02T21:39:39.274Z</time>
      </trkpt>
      <trkpt lat="59.396496964618564" lon="13.196056969463825">
        <ele>49.56</ele>
        <time>2025-02-02T21:39:42.678Z</time>
      </trkpt>
      <trkpt lat="59.39642798155546" lon="13.19598195143044">
        <ele>49.58</ele>
        <time>2025-02-02T21:39:46.083Z</time>
      </trkpt>
      <trkpt lat="59.39635799266398" lon="13.195902993902564">
        <ele>49.59</ele>
        <time>2025-02-02T21:39:49.490Z</time>
      </trkpt>
      <trkpt lat="59.396287919953465" lon="13.195822946727276">
        <ele>49.61</ele>
        <time>2025-02-02T21:39:52.898Z</time>
      </trkpt>
      <trkpt lat="59.39621793106198" lon="13.195741977542639">
        <ele>49.62</ele>
        <time>2025-02-02T21:39:56.307Z</time>
      </trkpt>
      <trkpt lat="59.39614894799888" lon="13.19565991871059">
        <ele>49.64</ele>
        <time>2025-02-02T21:39:59.718Z</time>
      </trkpt>
      <trkpt lat="59.39607996493578" lon="13.195576937869191">
        <ele>49.66</ele>
        <time>2025-02-02T21:40:03.130Z</time>
      </trkpt>
      <trkpt lat="59.39601198770106" lon="13.195490939542651">
        <ele>49.67</ele>
        <time>2025-02-02T21:40:06.543Z</time>
      </trkpt>
      <trkpt lat="59.395944932475686" lon="13.19540393538773">
        <ele>49.68</ele>
        <time>2025-02-02T21:40:09.957Z</time>
      </trkpt>
      <trkpt lat="59.395877961069345" lon="13.19531592540443">
        <ele>49.69</ele>
        <time>2025-02-02T21:40:13.373Z</time>
      </trkpt>
      <trkpt lat="59.395811995491385" lon="13.19522799924016">
        <ele>49.71</ele>
        <time>2025-02-02T21:40:16.790Z</time>
      </trkpt>
      <trkpt lat="59.395748963579535" lon="13.195137977600098">
        <ele>49.72</ele>
        <time>2025-02-02T21:40:20.208Z</time>
      </trkpt>
      <trkpt lat="59.39569096080959" lon="13.195044938474894">
        <ele>49.73</ele>
        <time>2025-02-02T21:40:23.627Z</time>
      </trkpt>
      <trkpt lat="59.39563597552478" lon="13.194952988997102">
        <ele>49.75</ele>
        <time>2025-02-02T21:40:27.048Z</time>
      </trkpt>
      <trkpt lat="59.39557897858322" lon="13.194861961528659">
        <ele>49.76</ele>
        <time>2025-02-02T21:40:30.470Z</time>
      </trkpt>
      <trkpt lat="59.39551896415651" lon="13.194770934060216">
        <ele>49.78</ele>
        <time>2025-02-02T21:40:33.893Z</time>
      </trkpt>
      <trkpt lat="59.3954589497298" lon="13.194680996239185">
        <ele>49.8</ele>
        <time>2025-02-02T21:40:37.317Z</time>
      </trkpt>
      <trkpt lat="59.39539692364633" lon="13.194591980427504">
        <ele>49.82</ele>
        <time>2025-02-02T21:40:40.742Z</time>
      </trkpt>
      <trkpt lat="59.395335987210274" lon="13.194504976272583">
        <ele>49.84</ele>
        <time>2025-02-02T21:40:44.169Z</time>
      </trkpt>
      <trkpt lat="59.395273961126804" lon="13.194416966289282">
        <ele>49.86</ele>
        <time>2025-02-02T21:40:47.597Z</time>
      </trkpt>
      <trkpt lat="59.395210929214954" lon="13.1943279504776">
        <ele>49.88</ele>
        <time>2025-02-02T21:40:51.026Z</time>
      </trkpt>
      <trkpt lat="59.395147981122136" lon="13.194235917180777">
        <ele>49.9</ele>
        <time>2025-02-02T21:40:54.456Z</time>
      </trkpt>
      <trkpt lat="59.395084949210286" lon="13.194144973531365">
        <ele>49.93</ele>
        <time>2025-02-02T21:40:57.888Z</time>
      </trkpt>
      <trkpt lat="59.39502292312682" lon="13.194051934406161">
        <ele>49.95</ele>
        <time>2025-02-02T21:41:01.321Z</time>
      </trkpt>
      <trkpt lat="59.39496098086238" lon="13.193958979099989">
        <ele>49.98</ele>
        <time>2025-02-02T21:41:04.755Z</time>
      </trkpt>
      <trkpt lat="59.39489895477891" lon="13.193862922489643">
        <ele>50.0</ele>
        <time>2025-02-02T21:41:08.190Z</time>
      </trkpt>
      <trkpt lat="59.39483491703868" lon="13.193764938041568">
        <ele>50.02</ele>
        <time>2025-02-02T21:41:11.627Z</time>
      </trkpt>
      <trkpt lat="59.3947699572891" lon="13.193667959421873">
        <ele>50.04</ele>
        <time>2025-02-02T21:41:15.065Z</time>
      </trkpt>
      <trkpt lat="59.39470399171114" lon="13.193569974973798">
        <ele>50.06</ele>
        <time>2025-02-02T21:41:18.504Z</time>
      </trkpt>
      <trkpt lat="59.39463894814253" lon="13.193472996354103">
        <ele>50.08</ele>
        <time>2025-02-02T21:41:21.945Z</time>
      </trkpt>
      <trkpt lat="59.39457398839295" lon="13.193375933915377">
        <ele>50.11</ele>
        <time>2025-02-02T21:41:25.387Z</time>
      </trkpt>
      <trkpt lat="59.3945109564811" lon="13.193277949467301">
        <ele>50.13</ele>
        <time>2025-02-02T21:41:28.830Z</time>
      </trkpt>
      <trkpt lat="59.39444792456925" lon="13.193180970847607">
        <ele>50.16</ele>
        <time>2025-02-02T21:41:32.275Z</time>
      </trkpt>
      <trkpt lat="59.39438397064805" lon="13.193086925894022">
        <ele>50.19</ele>
        <time>2025-02-02T21:41:35.721Z</time>
      </trkpt>
      <trkpt lat="59.39431792125106" lon="13.192996988072991">
        <ele>50.21</ele>
        <time>2025-02-02T21:41:39.168Z</time>
      </trkpt>
      <trkpt lat="59.39424893818796" lon="13.192910989746451">
        <ele>50.24</ele>
        <time>2025-02-02T21:41:42.616Z</time>
      </trkpt>
      <trkpt lat="59.394177943468094" lon="13.192828930914402">
        <ele>50.27</ele>
        <time>2025-02-02T21:41:46.066Z</time>
      </trkpt>
      <trkpt lat="59.39410694874823" lon="13.192749973386526">
        <ele>50.3</ele>
        <time>2025-02-02T21:41:49.517Z</time>
      </trkpt>
      <trkpt lat="59.39403494819999" lon="13.192677972838283">
        <ele>50.32</ele>
        <time>2025-02-02T21:41:52.969Z</time>
      </trkpt>
      <trkpt lat="59.39396093599498" lon="13.192617958411574">
        <ele>50.35</ele>
        <time>2025-02-02T21:41:56.423Z</time>
      </trkpt>
      <trkpt lat="59.3938859179616" lon="13.19256892427802">
        <ele>50.38</ele>
        <time>2025-02-02T21:41:59.878Z</time>
      </trkpt>
      <trkpt lat="59.393810983747244" lon="13.192531960085034">
        <ele>50.41</ele>
        <time>2025-02-02T21:42:03.334Z</time>
      </trkpt>
      <trkpt lat="59.39373697154224" lon="13.192498935386539">
        <ele>50.45</ele>
        <time>2025-02-02T21:42:06.791Z</time>
      </trkpt>
      <trkpt lat="59.393664970993996" lon="13.19245995953679">
        <ele>50.48</ele>
        <time>2025-02-02T21:42:10.250Z</time>
      </trkpt>
      <trkpt lat="59.39359397627413" lon="13.192420983687043">
        <ele>50.51</ele>
        <time>2025-02-02T21:42:13.710Z</time>
      </trkpt>
      <trkpt lat="59.39352096989751" lon="13.19239592179656">
        <ele>50.55</ele>
        <time>2025-02-02T21:42:17.171Z</time>
      </trkpt>
      <trkpt lat="59.39344595186412" lon="13.192379996180534">
        <ele>50.58</ele>
        <time>2025-02-02T21:42:20.633Z</time>
      </trkpt>
      <trkpt lat="59.39336992800236" lon="13.192370943725109">
        <ele>50.62</ele>
        <time>2025-02-02T21:42:24.096Z</time>
      </trkpt>
      <trkpt lat="59.39329398795962" lon="13.192362980917096">
        <ele>50.65</ele>
        <time>2025-02-02T21:42:27.561Z</time>
      </trkpt>
      <trkpt lat="59.39321695826948" lon="13.19235392846167">
        <ele>50.69</ele>
        <time>2025-02-02T21:42:31.027Z</time>
      </trkpt>
      <trkpt lat="59.39314194023609" lon="13.192342948168516">
        <ele>50.72</ele>
        <time>2025-02-02T21:42:34.494Z</time>
      </trkpt>
      <trkpt lat="59.393066922202706" lon="13.192331967875361">
        <ele>50.76</ele>
        <time>2025-02-02T21:42:37.962Z</time>
      </trkpt>
      <trkpt lat="59.39299492165446" lon="13.192318975925446">
        <ele>50.79</ele>
        <time>2025-02-02T21:42:41.431Z</time>
      </trkpt>
      <trkpt lat="59.3929239269346" lon="13.192298943176866">
        <ele>50.83</ele>
        <time>2025-02-02T21:42:44.902Z</time>
      </trkpt>
      <trkpt lat="59.3928549438715" lon="13.192278994247317">
        <ele>50.86</ele>
        <time>2025-02-02T21:42:48.374Z</time>
      </trkpt>
      <trkpt lat="59.392785960808396" lon="13.192259967327118">
        <ele>50.89</ele>
        <time>2025-02-02T21:42:51.847Z</time>
      </trkpt>
      <trkpt lat="59.39271496608853" lon="13.192238928750157">
        <ele>50.92</ele>
        <time>2025-02-02T21:42:55.321Z</time>
      </trkpt>
      <trkpt lat="59.39264296554029" lon="13.192211939021945">
        <ele>50.94</ele>
        <time>2025-02-02T21:42:58.796Z</time>
      </trkpt>
      <trkpt lat="59.39257197082043" lon="13.19217992015183">
        <ele>50.97</ele>
        <time>2025-02-02T21:43:02.272Z</time>
      </trkpt>
      <trkpt lat="59.392500976100564" lon="13.192143961787224">
        <ele>51.0</ele>
        <time>2025-02-02T21:43:05.750Z</time>
      </trkpt>
      <trkpt lat="59.39243098720908" lon="13.192101968452334">
        <ele>51.03</ele>
        <time>2025-02-02T21:43:09.229Z</time>
      </trkpt>
      <trkpt lat="59.39236192032695" lon="13.192052934318781">
        <ele>51.07</ele>
        <time>2025-02-02T21:43:12.709Z</time>
      </trkpt>
      <trkpt lat="59.39229394309223" lon="13.192001972347498">
        <ele>51.1</ele>
        <time>2025-02-02T21:43:16.190Z</time>
      </trkpt>
      <trkpt lat="59.392224960029125" lon="13.191948998719454">
        <ele>51.14</ele>
        <time>2025-02-02T21:43:19.672Z</time>
      </trkpt>
      <trkpt lat="59.392157988622785" lon="13.191890995949507">
        <ele>51.18</ele>
        <time>2025-02-02T21:43:23.155Z</time>
      </trkpt>
      <trkpt lat="59.39209093339741" lon="13.191829975694418">
        <ele>51.21</ele>
        <time>2025-02-02T21:43:26.640Z</time>
      </trkpt>
      <trkpt lat="59.39202295616269" lon="13.191765937954187">
        <ele>51.25</ele>
        <time>2025-02-02T21:43:30.126Z</time>
      </trkpt>
      <trkpt lat="59.39195397309959" lon="13.191700978204608">
        <ele>51.29</ele>
        <time>2025-02-02T21:43:33.613Z</time>
      </trkpt>
      <trkpt lat="59.39188599586487" lon="13.191635934635997">
        <ele>51.32</ele>
        <time>2025-02-02T21:43:37.101Z</time>
      </trkpt>
      <trkpt lat="59.391816928982735" lon="13.191570974886417">
        <ele>51.36</ele>
        <time>2025-02-02T21:43:40.590Z</time>
      </trkpt>
      <trkpt lat="59.391749957576394" lon="13.191503919661045">
        <ele>51.39</ele>
        <time>2025-02-02T21:43:44.081Z</time>
      </trkpt>
      <trkpt lat="59.39168198034167" lon="13.191437954083085">
        <ele>51.42</ele>
        <time>2025-02-02T21:43:47.573Z</time>
      </trkpt>
      <trkpt lat="59.39161391928792" lon="13.191372994333506">
        <ele>51.46</ele>
        <time>2025-02-02T21:43:51.066Z</time>
      </trkpt>
      <trkpt lat="59.39154493622482" lon="13.191306944936514">
        <ele>51.49</ele>
        <time>2025-02-02T21:43:54.560Z</time>
      </trkpt>
      <trkpt lat="59.391474947333336" lon="13.191240979358554">
        <ele>51.52</ele>
        <time>2025-02-02T21:43:58.056Z</time>
      </trkpt>
      <trkpt lat="59.39140495844185" lon="13.191173924133182">
        <ele>51.56</ele>
        <time>2025-02-02T21:44:01.553Z</time>
      </trkpt>
      <trkpt lat="59.39133597537875" lon="13.19110594689846">
        <ele>51.59</ele>
        <time>2025-02-02T21:44:05.051Z</time>
      </trkpt>
      <trkpt lat="59.39126799814403" lon="13.19103897549212">
        <ele>51.62</ele>
        <time>2025-02-02T21:44:08.550Z</time>
      </trkpt>
      <trkpt lat="59.39119993709028" lon="13.19097594358027">
        <ele>51.65</ele>
        <time>2025-02-02T21:44:12.050Z</time>
      </trkpt>
      <trkpt lat="59.39113296568394" lon="13.190911989659071">
        <ele>51.68</ele>
        <time>2025-02-02T21:44:15.552Z</time>
      </trkpt>
      <trkpt lat="59.391063982620835" lon="13.190851975232363">
        <ele>51.72</ele>
        <time>2025-02-02T21:44:19.055Z</time>
      </trkpt>
      <trkpt lat="59.39099399372935" lon="13.190801935270429">
        <ele>51.75</ele>
        <time>2025-02-02T21:44:22.559Z</time>
      </trkpt>
      <trkpt lat="59.39091998152435" lon="13.190765976905823">
        <ele>51.78</ele>
        <time>2025-02-02T21:44:26.064Z</time>
      </trkpt>
      <trkpt lat="59.390845969319344" lon="13.190742926672101">
        <ele>51.81</ele>
        <time>2025-02-02T21:44:29.571Z</time>
      </trkpt>
      <trkpt lat="59.39077296294272" lon="13.190732952207327">
        <ele>51.84</ele>
        <time>2025-02-02T21:44:33.079Z</time>
      </trkpt>
      <trkpt lat="59.390698950737715" lon="13.190723983570933">
        <ele>51.87</ele>
        <time>2025-02-02T21:44:36.588Z</time>
      </trkpt>
      <trkpt lat="59.39062393270433" lon="13.190710991621017">
        <ele>51.89</ele>
        <time>2025-02-02T21:44:40.098Z</time>
      </trkpt>
      <trkpt lat="59.390546986833215" lon="13.190703950822353">
        <ele>51.92</ele>
        <time>2025-02-02T21:44:43.609Z</time>
      </trkpt>
      <trkpt lat="59.39046794548631" lon="13.190706968307495">
        <ele>51.95</ele>
        <time>2025-02-02T21:44:47.122Z</time>
      </trkpt>
      <trkpt lat="59.39038898795843" lon="13.190712919458747">
        <ele>51.98</ele>
        <time>2025-02-02T21:44:50.636Z</time>
      </trkpt>
      <trkpt lat="59.39030692912638" lon="13.190715936943889">
        <ele>52.01</ele>
        <time>2025-02-02T21:44:54.151Z</time>
      </trkpt>
      <trkpt lat="59.390224954113364" lon="13.190705962479115">
        <ele>52.03</ele>
        <time>2025-02-02T21:44:57.668Z</time>
      </trkpt>
      <trkpt lat="59.39014499075711" lon="13.190672937780619">
        <ele>52.06</ele>
        <time>2025-02-02T21:45:01.186Z</time>
      </trkpt>
      <trkpt lat="59.39006896689534" lon="13.190622981637716">
        <ele>52.09</ele>
        <time>2025-02-02T21:45:04.705Z</time>
      </trkpt>
      <trkpt lat="59.38999495469034" lon="13.190558943897486">
        <ele>52.12</ele>
        <time>2025-02-02T21:45:08.225Z</time>
      </trkpt>
      <trkpt lat="59.389925971627235" lon="13.19047998636961">
        <ele>52.15</ele>
        <time>2025-02-02T21:45:11.747Z</time>
      </trkpt>
      <trkpt lat="59.389857994392514" lon="13.190390970557928">
        <ele>52.18</ele>
        <time>2025-02-02T21:45:15.270Z</time>
      </trkpt>
      <trkpt lat="59.389794962480664" lon="13.190292986109853">
        <ele>52.21</ele>
        <time>2025-02-02T21:45:18.794Z</time>
      </trkpt>
      <trkpt lat="59.389731930568814" lon="13.190192990005016">
        <ele>52.25</ele>
        <time>2025-02-02T21:45:22.320Z</time>
      </trkpt>
      <trkpt lat="59.389666970819235" lon="13.19009492173791">
        <ele>52.27</ele>
        <time>2025-02-02T21:45:25.847Z</time>
      </trkpt>
      <trkpt lat="59.389602933079004" lon="13.189998948946595">
        <ele>52.29</ele>
        <time>2025-02-02T21:45:29.375Z</time>
      </trkpt>
      <trkpt lat="59.389535961672664" lon="13.189905993640423">
        <ele>52.32</ele>
        <time>2025-02-02T21:45:32.905Z</time>
      </trkpt>
      <trkpt lat="59.389469996094704" lon="13.189811948686838">
        <ele>52.34</ele>
        <time>2025-02-02T21:45:36.436Z</time>
      </trkpt>
      <trkpt lat="59.38940595835447" lon="13.189714970067143">
        <ele>52.36</ele>
        <time>2025-02-02T21:45:39.968Z</time>
      </trkpt>
      <trkpt lat="59.38934292644262" lon="13.189615979790688">
        <ele>52.38</ele>
        <time>2025-02-02T21:45:43.501Z</time>
      </trkpt>
      <trkpt lat="59.389279978349805" lon="13.189518917351961">
        <ele>52.4</ele>
        <time>2025-02-02T21:45:47.036Z</time>
      </trkpt>
      <trkpt lat="59.3892199639231" lon="13.189423950389028">
        <ele>52.42</ele>
        <time>2025-02-02T21:45:50.572Z</time>
      </trkpt>
      <trkpt lat="59.38916196115315" lon="13.189331917092204">
        <ele>52.44</ele>
        <time>2025-02-02T21:45:54.109Z</time>
      </trkpt>
      <trkpt lat="59.38910496421158" lon="13.189245918765664">
        <ele>52.46</ele>
        <time>2025-02-02T21:45:57.647Z</time>
      </trkpt>
      <trkpt lat="59.389046961441636" lon="13.189163943752646">
        <ele>52.47</ele>
        <time>2025-02-02T21:46:01.186Z</time>
      </trkpt>
      <trkpt lat="59.38898895867169" lon="13.189080962911248">
        <ele>52.49</ele>
        <time>2025-02-02T21:46:04.727Z</time>
      </trkpt>
      <trkpt lat="59.38893196173012" lon="13.18899697624147">
        <ele>52.51</ele>
        <time>2025-02-02T21:46:08.269Z</time>
      </trkpt>
      <trkpt lat="59.3888779822737" lon="13.18891491740942">
        <ele>52.53</ele>
        <time>2025-02-02T21:46:11.812Z</time>
      </trkpt>
      <trkpt lat="59.388827942311764" lon="13.188831936568022">
        <ele>52.55</ele>
        <time>2025-02-02T21:46:15.356Z</time>
      </trkpt>
      <trkpt lat="59.38877999782562" lon="13.188753984868526">
        <ele>52.57</ele>
        <time>2025-02-02T21:46:18.901Z</time>
      </trkpt>
      <trkpt lat="59.38873498700559" lon="13.18867796100676">
        <ele>52.59</ele>
        <time>2025-02-02T21:46:22.447Z</time>
      </trkpt>
      <trkpt lat="59.38869198784232" lon="13.188599925488234">
        <ele>52.6</ele>
        <time>2025-02-02T21:46:25.994Z</time>
      </trkpt>
      <trkpt lat="59.38865292817354" lon="13.18852599710226">
        <ele>52.61</ele>
        <time>2025-02-02T21:46:29.542Z</time>
      </trkpt>
      <trkpt lat="59.388615963980556" lon="13.188453996554017">
        <ele>52.63</ele>
        <time>2025-02-02T21:46:33.090Z</time>
      </trkpt>
      <trkpt lat="59.38858293928206" lon="13.188383923843503">
        <ele>52.64</ele>
        <time>2025-02-02T21:46:36.639Z</time>
      </trkpt>
      <trkpt lat="59.388549998402596" lon="13.188316952437162">
        <ele>52.66</ele>
        <time>2025-02-02T21:46:40.189Z</time>
      </trkpt>
      <trkpt lat="59.38851395621896" lon="13.188259955495596">
        <ele>52.67</ele>
        <time>2025-02-02T21:46:43.740Z</time>
      </trkpt>
      <trkpt lat="59.38847397454083" lon="13.188217962160707">
        <ele>52.68</ele>
        <time>2025-02-02T21:46:47.291Z</time>
      </trkpt>
      <trkpt lat="59.388424940407276" lon="13.188200946897268">
        <ele>52.7</ele>
        <time>2025-02-02T21:46:50.843Z</time>
      </trkpt>
      <trkpt lat="59.38837297260761" lon="13.188210921362042">
        <ele>52.71</ele>
        <time>2025-02-02T21:46:54.396Z</time>
      </trkpt>
      <trkpt lat="59.38831798732281" lon="13.18822793662548">
        <ele>52.72</ele>
        <time>2025-02-02T21:46:57.950Z</time>
      </trkpt>
      <trkpt lat="59.3882579728961" lon="13.188232965767384">
        <ele>52.73</ele>
        <time>2025-02-02T21:47:01.505Z</time>
      </trkpt>
      <trkpt lat="59.38819695264101" lon="13.188221985474229">
        <ele>52.75</ele>
        <time>2025-02-02T21:47:05.061Z</time>
      </trkpt>
      <trkpt lat="59.38813299871981" lon="13.188200946897268">
        <ele>52.76</ele>
        <time>2025-02-02T21:47:08.618Z</time>
      </trkpt>
      <trkpt lat="59.38806493766606" lon="13.188178986310959">
        <ele>52.78</ele>
        <time>2025-02-02T21:47:12.176Z</time>
      </trkpt>
      <trkpt lat="59.38800098374486" lon="13.188156941905618">
        <ele>52.79</ele>
        <time>2025-02-02T21:47:15.735Z</time>
      </trkpt>
      <trkpt lat="59.38793594017625" lon="13.188138920813799">
        <ele>52.8</ele>
        <time>2025-02-02T21:47:19.295Z</time>
      </trkpt>
      <trkpt lat="59.38786896876991" lon="13.188124923035502">
        <ele>52.81</ele>
        <time>2025-02-02T21:47:22.856Z</time>
      </trkpt>
      <trkpt lat="59.387799985706806" lon="13.188115954399109">
        <ele>52.82</ele>
        <time>2025-02-02T21:47:26.418Z</time>
      </trkpt>
      <trkpt lat="59.38773192465305" lon="13.188110925257206">
        <ele>52.83</ele>
        <time>2025-02-02T21:47:29.981Z</time>
      </trkpt>
      <trkpt lat="59.38766193576157" lon="13.188107991591096">
        <ele>52.83</ele>
        <time>2025-02-02T21:47:33.546Z</time>
      </trkpt>
      <trkpt lat="59.38759194687009" lon="13.188104974105954">
        <ele>52.84</ele>
        <time>2025-02-02T21:47:37.112Z</time>
      </trkpt>
      <trkpt lat="59.387520952150226" lon="13.188100950792432">
        <ele>52.84</ele>
        <time>2025-02-02T21:47:40.679Z</time>
      </trkpt>
      <trkpt lat="59.38744895160198" lon="13.188092987984419">
        <ele>52.84</ele>
        <time>2025-02-02T21:47:44.247Z</time>
      </trkpt>
      <trkpt lat="59.38737493939698" lon="13.188081923872232">
        <ele>52.84</ele>
        <time>2025-02-02T21:47:47.816Z</time>
      </trkpt>
      <trkpt lat="59.387302938848734" lon="13.188065998256207">
        <ele>52.84</ele>
        <time>2025-02-02T21:47:51.386Z</time>
      </trkpt>
      <trkpt lat="59.38722993247211" lon="13.188051916658878">
        <ele>52.83</ele>
        <time>2025-02-02T21:47:54.958Z</time>
      </trkpt>
      <trkpt lat="59.387156926095486" lon="13.188036996871233">
        <ele>52.82</ele>
        <time>2025-02-02T21:47:58.531Z</time>
      </trkpt>
      <trkpt lat="59.38708098605275" lon="13.188021993264556">
        <ele>52.81</ele>
        <time>2025-02-02T21:48:02.105Z</time>
      </trkpt>
      <trkpt lat="59.38700697384775" lon="13.18800799548626">
        <ele>52.8</ele>
        <time>2025-02-02T21:48:05.680Z</time>
      </trkpt>
      <trkpt lat="59.3869349732995" lon="13.18798997439444">
        <ele>52.78</ele>
        <time>2025-02-02T21:48:09.256Z</time>
      </trkpt>
      <trkpt lat="59.38686397857964" lon="13.187970947474241">
        <ele>52.77</ele>
        <time>2025-02-02T21:48:12.833Z</time>
      </trkpt>
      <trkpt lat="59.3867919780314" lon="13.187951920554042">
        <ele>52.75</ele>
        <time>2025-02-02T21:48:16.412Z</time>
      </trkpt>
      <trkpt lat="59.386720983311534" lon="13.187934989109635">
        <ele>52.73</ele>
        <time>2025-02-02T21:48:19.992Z</time>
      </trkpt>
      <trkpt lat="59.38664898276329" lon="13.187919985502958">
        <ele>52.71</ele>
        <time>2025-02-02T21:48:23.573Z</time>
      </trkpt>
      <trkpt lat="59.38657798804343" lon="13.187905987724662">
        <ele>52.7</ele>
        <time>2025-02-02T21:48:27.155Z</time>
      </trkpt>
      <trkpt lat="59.386508921161294" lon="13.187890984117985">
        <ele>52.68</ele>
        <time>2025-02-02T21:48:30.738Z</time>
      </trkpt>
      <trkpt lat="59.38643792644143" lon="13.187875980511308">
        <ele>52.67</ele>
        <time>2025-02-02T21:48:34.322Z</time>
      </trkpt>
      <trkpt lat="59.38636793754995" lon="13.18785896524787">
        <ele>52.65</ele>
        <time>2025-02-02T21:48:37.907Z</time>
      </trkpt>
      <trkpt lat="59.386296942830086" lon="13.187842955812812">
        <ele>52.63</ele>
        <time>2025-02-02T21:48:41.494Z</time>
      </trkpt>
      <trkpt lat="59.3862269539386" lon="13.187828958034515">
        <ele>52.62</ele>
        <time>2025-02-02T21:48:45.082Z</time>
      </trkpt>
      <trkpt lat="59.38615696504712" lon="13.187812948599458">
        <ele>52.6</ele>
        <time>2025-02-02T21:48:48.671Z</time>
      </trkpt>
      <trkpt lat="59.38608697615564" lon="13.18779593333602">
        <ele>52.58</ele>
        <time>2025-02-02T21:48:52.261Z</time>
      </trkpt>
      <trkpt lat="59.386016987264156" lon="13.187779923900962">
        <ele>52.55</ele>
        <time>2025-02-02T21:48:55.852Z</time>
      </trkpt>
      <trkpt lat="59.38594599254429" lon="13.187762992456555">
        <ele>52.53</ele>
        <time>2025-02-02T21:48:59.444Z</time>
      </trkpt>
      <trkpt lat="59.38587399199605" lon="13.187745977193117">
        <ele>52.5</ele>
        <time>2025-02-02T21:49:03.037Z</time>
      </trkpt>
      <trkpt lat="59.385801991447806" lon="13.18773097358644">
        <ele>52.47</ele>
        <time>2025-02-02T21:49:06.632Z</time>
      </trkpt>
      <trkpt lat="59.38572999089956" lon="13.187715969979763">
        <ele>52.45</ele>
        <time>2025-02-02T21:49:10.228Z</time>
      </trkpt>
      <trkpt lat="59.3856589961797" lon="13.187699960544705">
        <ele>52.42</ele>
        <time>2025-02-02T21:49:13.825Z</time>
      </trkpt>
      <trkpt lat="59.385587917640805" lon="13.187684956938028">
        <ele>52.39</ele>
        <time>2025-02-02T21:49:17.423Z</time>
      </trkpt>
      <trkpt lat="59.38551591709256" lon="13.187669953331351">
        <ele>52.36</ele>
        <time>2025-02-02T21:49:21.022Z</time>
      </trkpt>
      <trkpt lat="59.38544391654432" lon="13.187654949724674">
        <ele>52.33</ele>
        <time>2025-02-02T21:49:24.622Z</time>
      </trkpt>
      <trkpt lat="59.385370993986726" lon="13.187640951946378">
        <ele>52.3</ele>
        <time>2025-02-02T21:49:28.224Z</time>
      </trkpt>
      <trkpt lat="59.38529899343848" lon="13.18762494251132">
        <ele>52.26</ele>
        <time>2025-02-02T21:49:31.827Z</time>
      </trkpt>
      <trkpt lat="59.38522598706186" lon="13.187608933076262">
        <ele>52.23</ele>
        <time>2025-02-02T21:49:35.431Z</time>
      </trkpt>
      <trkpt lat="59.38515197485685" lon="13.187591917812824">
        <ele>52.19</ele>
        <time>2025-02-02T21:49:39.036Z</time>
      </trkpt>
      <trkpt lat="59.38507695682347" lon="13.187574986368418">
        <ele>52.16</ele>
        <time>2025-02-02T21:49:42.642Z</time>
      </trkpt>
      <trkpt lat="59.38500294461846" lon="13.18755797110498">
        <ele>52.12</ele>
        <time>2025-02-02T21:49:46.250Z</time>
      </trkpt>
      <trkpt lat="59.38492893241346" lon="13.18753995001316">
        <ele>52.09</ele>
        <time>2025-02-02T21:49:49.859Z</time>
      </trkpt>
      <trkpt lat="59.384854920208454" lon="13.18751991726458">
        <ele>52.05</ele>
        <time>2025-02-02T21:49:53.469Z</time>
      </trkpt>
      <trkpt lat="59.38478392548859" lon="13.187499968335032">
        <ele>52.01</ele>
        <time>2025-02-02T21:49:57.080Z</time>
      </trkpt>
      <trkpt lat="59.38471393659711" lon="13.187480941414833">
        <ele>51.98</ele>
        <time>2025-02-02T21:50:00.692Z</time>
      </trkpt>
      <trkpt lat="59.38464394770563" lon="13.187462920323014">
        <ele>51.94</ele>
        <time>2025-02-02T21:50:04.305Z</time>
      </trkpt>
      <trkpt lat="59.384573958814144" lon="13.187445988878608">
        <ele>51.9</ele>
        <time>2025-02-02T21:50:07.919Z</time>
      </trkpt>
      <trkpt lat="59.3845019582659" lon="13.187426961958408">
        <ele>51.85</ele>
        <time>2025-02-02T21:50:11.535Z</time>
      </trkpt>
      <trkpt lat="59.38442895188928" lon="13.187403995543718">
        <ele>51.81</ele>
        <time>2025-02-02T21:50:15.152Z</time>
      </trkpt>
      <trkpt lat="59.38435393385589" lon="13.187376921996474">
        <ele>51.77</ele>
        <time>2025-02-02T21:50:18.770Z</time>
      </trkpt>
      <trkpt lat="59.38427899964154" lon="13.187348926439881">
        <ele>51.73</ele>
        <time>2025-02-02T21:50:22.389Z</time>
      </trkpt>
      <trkpt lat="59.38420398160815" lon="13.187318919226527">
        <ele>51.69</ele>
        <time>2025-02-02T21:50:26.009Z</time>
      </trkpt>
      <trkpt lat="59.38412996940315" lon="13.187286984175444">
        <ele>51.65</ele>
        <time>2025-02-02T21:50:29.631Z</time>
      </trkpt>
      <trkpt lat="59.38405495136976" lon="13.187253959476948">
        <ele>51.6</ele>
        <time>2025-02-02T21:50:33.254Z</time>
      </trkpt>
      <trkpt lat="59.38398093916476" lon="13.18721598945558">
        <ele>51.56</ele>
        <time>2025-02-02T21:50:36.878Z</time>
      </trkpt>
      <trkpt lat="59.38390692695975" lon="13.18717299029231">
        <ele>51.51</ele>
        <time>2025-02-02T21:50:40.503Z</time>
      </trkpt>
      <trkpt lat="59.38383299857378" lon="13.18712797947228">
        <ele>51.46</ele>
        <time>2025-02-02T21:50:44.130Z</time>
      </trkpt>
      <trkpt lat="59.383757980540395" lon="13.187083974480629">
        <ele>51.42</ele>
        <time>2025-02-02T21:50:47.758Z</time>
      </trkpt>
      <trkpt lat="59.38368396833539" lon="13.187035946175456">
        <ele>51.37</ele>
        <time>2025-02-02T21:50:51.387Z</time>
      </trkpt>
      <trkpt lat="59.383608950302005" lon="13.186983978375793">
        <ele>51.32</ele>
        <time>2025-02-02T21:50:55.017Z</time>
      </trkpt>
      <trkpt lat="59.38353393226862" lon="13.186929998919368">
        <ele>51.28</ele>
        <time>2025-02-02T21:50:58.649Z</time>
      </trkpt>
      <trkpt lat="59.383457992225885" lon="13.18687392398715">
        <ele>51.23</ele>
        <time>2025-02-02T21:51:02.282Z</time>
      </trkpt>
      <trkpt lat="59.38337895087898" lon="13.186820950359106">
        <ele>51.18</ele>
        <time>2025-02-02T21:51:05.916Z</time>
      </trkpt>
      <trkpt lat="59.38329898752272" lon="13.186774933710694">
        <ele>51.13</ele>
        <time>2025-02-02T21:51:09.552Z</time>
      </trkpt>
      <trkpt lat="59.38321894034743" lon="13.186730928719044">
        <ele>51.08</ele>
        <time>2025-02-02T21:51:13.189Z</time>
      </trkpt>
      <trkpt lat="59.383137971162796" lon="13.186683990061283">
        <ele>51.03</ele>
        <time>2025-02-02T21:51:16.827Z</time>
      </trkpt>
      <trkpt lat="59.38305792398751" lon="13.186632944270968">
        <ele>50.98</ele>
        <time>2025-02-02T21:51:20.467Z</time>
      </trkpt>
      <trkpt lat="59.38297695480287" lon="13.186577958986163">
        <ele>50.93</ele>
        <time>2025-02-02T21:51:24.108Z</time>
      </trkpt>
      <trkpt lat="59.38289397396147" lon="13.186520962044597">
        <ele>50.88</ele>
        <time>2025-02-02T21:51:27.751Z</time>
      </trkpt>
      <trkpt lat="59.382810993120074" lon="13.186465976759791">
        <ele>50.83</ele>
        <time>2025-02-02T21:51:31.395Z</time>
      </trkpt>
      <trkpt lat="59.382726922631264" lon="13.186411997303367">
        <ele>50.77</ele>
        <time>2025-02-02T21:51:35.040Z</time>
      </trkpt>
      <trkpt lat="59.382641930133104" lon="13.18635692819953">
        <ele>50.72</ele>
        <time>2025-02-02T21:51:38.687Z</time>
      </trkpt>
      <trkpt lat="59.382557943463326" lon="13.186300937086344">
        <ele>50.67</ele>
        <time>2025-02-02T21:51:42.335Z</time>
      </trkpt>
      <trkpt lat="59.38247596845031" lon="13.186241928488016">
        <ele>50.61</ele>
        <time>2025-02-02T21:51:45.985Z</time>
      </trkpt>
      <trkpt lat="59.38239198178053" lon="13.186180992051959">
        <ele>50.56</ele>
        <time>2025-02-02T21:51:49.636Z</time>
      </trkpt>
      <trkpt lat="59.38230698928237" lon="13.186123995110393">
        <ele>50.5</ele>
        <time>2025-02-02T21:51:53.288Z</time>
      </trkpt>
      <trkpt lat="59.38222291879356" lon="13.186069931834936">
        <ele>50.45</ele>
        <time>2025-02-02T21:51:56.942Z</time>
      </trkpt>
      <trkpt lat="59.38214194960892" lon="13.18601494655013">
        <ele>50.39</ele>
        <time>2025-02-02T21:52:00.597Z</time>
      </trkpt>
      <trkpt lat="59.382059974595904" lon="13.185961972922087">
        <ele>50.34</ele>
        <time>2025-02-02T21:52:04.254Z</time>
      </trkpt>
      <trkpt lat="59.381978921592236" lon="13.185907993465662">
        <ele>50.29</ele>
        <time>2025-02-02T21:52:07.912Z</time>
      </trkpt>
      <trkpt lat="59.38189694657922" lon="13.185851918533444">
        <ele>50.24</ele>
        <time>2025-02-02T21:52:11.571Z</time>
      </trkpt>
      <trkpt lat="59.38181597739458" lon="13.185795927420259">
        <ele>50.18</ele>
        <time>2025-02-02T21:52:15.232Z</time>
      </trkpt>
      <trkpt lat="59.38173492439091" lon="13.185739936307073">
        <ele>50.13</ele>
        <time>2025-02-02T21:52:18.894Z</time>
      </trkpt>
      <trkpt lat="59.381654961034656" lon="13.185682939365506">
        <ele>50.07</ele>
        <time>2025-02-02T21:52:22.558Z</time>
      </trkpt>
      <trkpt lat="59.38157298602164" lon="13.18562694825232">
        <ele>50.02</ele>
        <time>2025-02-02T21:52:26.223Z</time>
      </trkpt>
      <trkpt lat="59.38149193301797" lon="13.185572968795896">
        <ele>49.96</ele>
        <time>2025-02-02T21:52:29.889Z</time>
      </trkpt>
      <trkpt lat="59.38140995800495" lon="13.18551697768271">
        <ele>49.9</ele>
        <time>2025-02-02T21:52:33.557Z</time>
      </trkpt>
      <trkpt lat="59.381327982991934" lon="13.185460986569524">
        <ele>49.84</ele>
        <time>2025-02-02T21:52:37.226Z</time>
      </trkpt>
      <trkpt lat="59.381247935816646" lon="13.185405917465687">
        <ele>49.78</ele>
        <time>2025-02-02T21:52:40.896Z</time>
      </trkpt>
      <trkpt lat="59.38116696663201" lon="13.185350932180882">
        <ele>49.72</ele>
        <time>2025-02-02T21:52:44.568Z</time>
      </trkpt>
      <trkpt lat="59.38108599744737" lon="13.185295946896076">
        <ele>49.66</ele>
        <time>2025-02-02T21:52:48.241Z</time>
      </trkpt>
      <trkpt lat="59.38100293278694" lon="13.185240961611271">
        <ele>49.6</ele>
        <time>2025-02-02T21:52:51.916Z</time>
      </trkpt>
      <trkpt lat="59.380920957773924" lon="13.185185976326466">
        <ele>49.54</ele>
        <time>2025-02-02T21:52:55.592Z</time>
      </trkpt>
      <trkpt lat="59.380838982760906" lon="13.185131996870041">
        <ele>49.48</ele>
        <time>2025-02-02T21:52:59.269Z</time>
      </trkpt>
      <trkpt lat="59.38075692392886" lon="13.185078939422965">
        <ele>49.42</ele>
        <time>2025-02-02T21:53:02.948Z</time>
      </trkpt>
      <trkpt lat="59.38067494891584" lon="13.185025965794921">
        <ele>49.36</ele>
        <time>2025-02-02T21:53:06.628Z</time>
      </trkpt>
      <trkpt lat="59.3805939797312" lon="13.184969974681735">
        <ele>49.3</ele>
        <time>2025-02-02T21:53:10.310Z</time>
      </trkpt>
      <trkpt lat="59.38051292672753" lon="13.18491398356855">
        <ele>49.24</ele>
        <time>2025-02-02T21:53:13.993Z</time>
      </trkpt>
      <trkpt lat="59.380431957542896" lon="13.184856986626983">
        <ele>49.18</ele>
        <time>2025-02-02T21:53:17.677Z</time>
      </trkpt>
      <trkpt lat="59.38035291619599" lon="13.184798983857036">
        <ele>49.11</ele>
        <time>2025-02-02T21:53:21.363Z</time>
      </trkpt>
      <trkpt lat="59.38027395866811" lon="13.18474592640996">
        <ele>49.05</ele>
        <time>2025-02-02T21:53:25.050Z</time>
      </trkpt>
      <trkpt lat="59.380193995311856" lon="13.184692952781916">
        <ele>48.99</ele>
        <time>2025-02-02T21:53:28.738Z</time>
      </trkpt>
      <trkpt lat="59.38011495396495" lon="13.18463796749711">
        <ele>48.92</ele>
        <time>2025-02-02T21:53:32.428Z</time>
      </trkpt>
      <trkpt lat="59.38003599643707" lon="13.184585999697447">
        <ele>48.86</ele>
        <time>2025-02-02T21:53:36.119Z</time>
      </trkpt>
      <trkpt lat="59.379956955090165" lon="13.18452992476523">
        <ele>48.79</ele>
        <time>2025-02-02T21:53:39.811Z</time>
      </trkpt>
      <trkpt lat="59.37987891957164" lon="13.184472927823663">
        <ele>48.72</ele>
        <time>2025-02-02T21:53:43.505Z</time>
      </trkpt>
      <trkpt lat="59.37980197370052" lon="13.184418948367238">
        <ele>48.66</ele>
        <time>2025-02-02T21:53:47.200Z</time>
      </trkpt>
      <trkpt lat="59.37972594983876" lon="13.184365974739194">
        <ele>48.59</ele>
        <time>2025-02-02T21:53:50.896Z</time>
      </trkpt>
      <trkpt lat="59.37965093180537" lon="13.184310989454389">
        <ele>48.53</ele>
        <time>2025-02-02T21:53:54.594Z</time>
      </trkpt>
      <trkpt lat="59.37957691960037" lon="13.184256926178932">
        <ele>48.47</ele>
        <time>2025-02-02T21:53:58.293Z</time>
      </trkpt>
      <trkpt lat="59.379503997042775" lon="13.184199929237366">
        <ele>48.41</ele>
        <time>2025-02-02T21:54:01.993Z</time>
      </trkpt>
      <trkpt lat="59.37943099066615" lon="13.184140920639038">
        <ele>48.35</ele>
        <time>2025-02-02T21:54:05.694Z</time>
      </trkpt>
      <trkpt lat="59.37935798428953" lon="13.184082917869091">
        <ele>48.3</ele>
        <time>2025-02-02T21:54:09.397Z</time>
      </trkpt>
      <trkpt lat="59.379286989569664" lon="13.184024998918176">
        <ele>48.24</ele>
        <time>2025-02-02T21:54:13.101Z</time>
      </trkpt>
      <trkpt lat="59.37921792268753" lon="13.183968923985958">
        <ele>48.18</ele>
        <time>2025-02-02T21:54:16.806Z</time>
      </trkpt>
      <trkpt lat="59.37915095128119" lon="13.183913938701153">
        <ele>48.12</ele>
        <time>2025-02-02T21:54:20.512Z</time>
      </trkpt>
      <trkpt lat="59.37908297404647" lon="13.183858953416348">
        <ele>48.06</ele>
        <time>2025-02-02T21:54:24.219Z</time>
      </trkpt>
      <trkpt lat="59.37901499681175" lon="13.183801956474781">
        <ele>48.01</ele>
        <time>2025-02-02T21:54:27.928Z</time>
      </trkpt>
      <trkpt lat="59.378946935757995" lon="13.183745965361595">
        <ele>47.95</ele>
        <time>2025-02-02T21:54:31.638Z</time>
      </trkpt>
      <trkpt lat="59.37887795269489" lon="13.183688968420029">
        <ele>47.89</ele>
        <time>2025-02-02T21:54:35.349Z</time>
      </trkpt>
      <trkpt lat="59.37880796380341" lon="13.183632977306843">
        <ele>47.83</ele>
        <time>2025-02-02T21:54:39.061Z</time>
      </trkpt>
      <trkpt lat="59.37873696908355" lon="13.183578997850418">
        <ele>47.78</ele>
        <time>2025-02-02T21:54:42.774Z</time>
      </trkpt>
      <trkpt lat="59.378667986020446" lon="13.1835229229182">
        <ele>47.73</ele>
        <time>2025-02-02T21:54:46.489Z</time>
      </trkpt>
      <trkpt lat="59.37859992496669" lon="13.183464920148253">
        <ele>47.68</ele>
        <time>2025-02-02T21:54:50.205Z</time>
      </trkpt>
      <trkpt lat="59.37853194773197" lon="13.183406917378306">
        <ele>47.63</ele>
        <time>2025-02-02T21:54:53.922Z</time>
      </trkpt>
      <trkpt lat="59.37846497632563" lon="13.18334799259901">
        <ele>47.58</ele>
        <time>2025-02-02T21:54:57.640Z</time>
      </trkpt>
      <trkpt lat="59.37839892692864" lon="13.183288984000683">
        <ele>47.53</ele>
        <time>2025-02-02T21:55:01.359Z</time>
      </trkpt>
      <trkpt lat="59.3783319555223" lon="13.183231987059116">
        <ele>47.48</ele>
        <time>2025-02-02T21:55:05.080Z</time>
      </trkpt>
      <trkpt lat="59.37826397828758" lon="13.18317499011755">
        <ele>47.43</ele>
        <time>2025-02-02T21:55:08.802Z</time>
      </trkpt>
      <trkpt lat="59.378195917233825" lon="13.183117993175983">
        <ele>47.39</ele>
        <time>2025-02-02T21:55:12.525Z</time>
      </trkpt>
      <trkpt lat="59.378128945827484" lon="13.183060996234417">
        <ele>47.35</ele>
        <time>2025-02-02T21:55:16.249Z</time>
      </trkpt>
      <trkpt lat="59.378062980249524" lon="13.18300399929285">
        <ele>47.31</ele>
        <time>2025-02-02T21:55:19.974Z</time>
      </trkpt>
      <trkpt lat="59.377998942509294" lon="13.182948930189013">
        <ele>47.27</ele>
        <time>2025-02-02T21:55:23.700Z</time>
      </trkpt>
      <trkpt lat="59.377935994416475" lon="13.182893944904208">
        <ele>47.22</ele>
        <time>2025-02-02T21:55:27.427Z</time>
      </trkpt>
      <trkpt lat="59.377872962504625" lon="13.182838959619403">
        <ele>47.18</ele>
        <time>2025-02-02T21:55:31.156Z</time>
      </trkpt>
      <trkpt lat="59.377806996926665" lon="13.182781962677836">
        <ele>47.14</ele>
        <time>2025-02-02T21:55:34.886Z</time>
      </trkpt>
      <trkpt lat="59.377741953358054" lon="13.18272395990789">
        <ele>47.11</ele>
        <time>2025-02-02T21:55:38.617Z</time>
      </trkpt>
      <trkpt lat="59.377674981951714" lon="13.182665957137942">
        <ele>47.07</ele>
        <time>2025-02-02T21:55:42.349Z</time>
      </trkpt>
      <trkpt lat="59.37760792672634" lon="13.182608960196376">
        <ele>47.03</ele>
        <time>2025-02-02T21:55:46.082Z</time>
      </trkpt>
      <trkpt lat="59.37753994949162" lon="13.182550957426429">
        <ele>46.99</ele>
        <time>2025-02-02T21:55:49.816Z</time>
      </trkpt>
      <trkpt lat="59.37747297808528" lon="13.18249094299972">
        <ele>46.95</ele>
        <time>2025-02-02T21:55:53.552Z</time>
      </trkpt>
      <trkpt lat="59.37740692868829" lon="13.182430928573012">
        <ele>46.92</ele>
        <time>2025-02-02T21:55:57.289Z</time>
      </trkpt>
      <trkpt lat="59.37734096311033" lon="13.182371919974685">
        <ele>46.89</ele>
        <time>2025-02-02T21:56:01.027Z</time>
      </trkpt>
      <trkpt lat="59.37727591954172" lon="13.18231693468988">
        <ele>46.87</ele>
        <time>2025-02-02T21:56:04.766Z</time>
      </trkpt>
      <trkpt lat="59.37721095979214" lon="13.182262955233455">
        <ele>46.84</ele>
        <time>2025-02-02T21:56:08.506Z</time>
      </trkpt>
      <trkpt lat="59.377145916223526" lon="13.18220897577703">
        <ele>46.82</ele>
        <time>2025-02-02T21:56:12.247Z</time>
      </trkpt>
      <trkpt lat="59.377079950645566" lon="13.182153990492225">
        <ele>46.8</ele>
        <time>2025-02-02T21:56:15.989Z</time>
      </trkpt>
      <trkpt lat="59.377013985067606" lon="13.182100933045149">
        <ele>46.78</ele>
        <time>2025-02-02T21:56:19.733Z</time>
      </trkpt>
      <trkpt lat="59.376948941498995" lon="13.182049971073866">
        <ele>46.76</ele>
        <time>2025-02-02T21:56:23.478Z</time>
      </trkpt>
      <trkpt lat="59.37688599340618" lon="13.182000936940312">
        <ele>46.74</ele>
        <time>2025-02-02T21:56:27.224Z</time>
      </trkpt>
      <trkpt lat="59.37682396732271" lon="13.181953998282552">
        <ele>46.72</ele>
        <time>2025-02-02T21:56:30.971Z</time>
      </trkpt>
      <trkpt lat="59.37676495872438" lon="13.18190697580576">
        <ele>46.71</ele>
        <time>2025-02-02T21:56:34.719Z</time>
      </trkpt>
      <trkpt lat="59.37670796178281" lon="13.181857941672206">
        <ele>46.7</ele>
        <time>2025-02-02T21:56:38.468Z</time>
      </trkpt>
      <trkpt lat="59.37665498815477" lon="13.181803962215781">
        <ele>46.69</ele>
        <time>2025-02-02T21:56:42.218Z</time>
      </trkpt>
      <trkpt lat="59.3766119889915" lon="13.18173598498106">
        <ele>46.68</ele>
        <time>2025-02-02T21:56:45.969Z</time>
      </trkpt>
      <trkpt lat="59.3765879329294" lon="13.181657949462533">
        <ele>46.67</ele>
        <time>2025-02-02T21:56:49.720Z</time>
      </trkpt>
      <trkpt lat="59.376579970121384" lon="13.181573962792754">
        <ele>46.66</ele>
        <time>2025-02-02T21:56:53.472Z</time>
      </trkpt>
      <trkpt lat="59.376581981778145" lon="13.18148092366755">
        <ele>46.66</ele>
        <time>2025-02-02T21:56:57.225Z</time>
      </trkpt>
      <trkpt lat="59.3765929620713" lon="13.181373970583081">
        <ele>46.65</ele>
        <time>2025-02-02T21:57:00.979Z</time>
      </trkpt>
      <trkpt lat="59.37660897150636" lon="13.181251930072904">
        <ele>46.65</ele>
        <time>2025-02-02T21:57:04.734Z</time>
      </trkpt>
      <trkpt lat="59.376629926264286" lon="13.181120920926332">
        <ele>46.65</ele>
        <time>2025-02-02T21:57:08.490Z</time>
      </trkpt>
      <trkpt lat="59.37665096484125" lon="13.180986978113651">
        <ele>46.65</ele>
        <time>2025-02-02T21:57:12.247Z</time>
      </trkpt>
      <trkpt lat="59.37667393125594" lon="13.180848928168416">
        <ele>46.65</ele>
        <time>2025-02-02T21:57:16.005Z</time>
      </trkpt>
      <trkpt lat="59.37669597566128" lon="13.18070794455707">
        <ele>46.66</ele>
        <time>2025-02-02T21:57:19.765Z</time>
      </trkpt>
      <trkpt lat="59.37671894207597" lon="13.180564949288964">
        <ele>46.67</ele>
        <time>2025-02-02T21:57:23.526Z</time>
      </trkpt>
      <trkpt lat="59.37674098648131" lon="13.180422959849238">
        <ele>46.68</ele>
        <time>2025-02-02T21:57:27.288Z</time>
      </trkpt>
      <trkpt lat="59.37676596455276" lon="13.180283987894654">
        <ele>46.69</ele>
        <time>2025-02-02T21:57:31.051Z</time>
      </trkpt>
      <trkpt lat="59.37678893096745" lon="13.180145937949419">
        <ele>46.7</ele>
        <time>2025-02-02T21:57:34.815Z</time>
      </trkpt>
      <trkpt lat="59.37680996954441" lon="13.180010989308357">
        <ele>46.71</ele>
        <time>2025-02-02T21:57:38.581Z</time>
      </trkpt>
      <trkpt lat="59.37682991847396" lon="13.179877968505025">
        <ele>46.73</ele>
        <time>2025-02-02T21:57:42.348Z</time>
      </trkpt>
      <trkpt lat="59.37684995122254" lon="13.179743941873312">
        <ele>46.75</ele>
        <time>2025-02-02T21:57:46.116Z</time>
      </trkpt>
      <trkpt lat="59.3768709897995" lon="13.17960999906063">
        <ele>46.77</ele>
        <time>2025-02-02T21:57:49.885Z</time>
      </trkpt>
      <trkpt lat="59.37689295038581" lon="13.179474966600537">
        <ele>46.79</ele>
        <time>2025-02-02T21:57:53.655Z</time>
      </trkpt>
      <trkpt lat="59.37691499479115" lon="13.179334988817573">
        <ele>46.82</ele>
        <time>2025-02-02T21:57:57.426Z</time>
      </trkpt>
      <trkpt lat="59.37693695537746" lon="13.179198950529099">
        <ele>46.84</ele>
        <time>2025-02-02T21:58:01.198Z</time>
      </trkpt>
      <trkpt lat="59.37695799395442" lon="13.179062996059656">
        <ele>46.87</ele>
        <time>2025-02-02T21:58:04.972Z</time>
      </trkpt>
      <trkpt lat="59.37697894871235" lon="13.178930981084704">
        <ele>46.91</ele>
        <time>2025-02-02T21:58:08.747Z</time>
      </trkpt>
      <trkpt lat="59.37699797563255" lon="13.178798966109753">
        <ele>46.95</ele>
        <time>2025-02-02T21:58:12.523Z</time>
      </trkpt>
      <trkpt lat="59.3770179245621" lon="13.178671980276704">
        <ele>46.99</ele>
        <time>2025-02-02T21:58:16.300Z</time>
      </trkpt>
      <trkpt lat="59.37703896313906" lon="13.178542982786894">
        <ele>47.03</ele>
        <time>2025-02-02T21:58:20.078Z</time>
      </trkpt>
      <trkpt lat="59.377059917896986" lon="13.178408956155181">
        <ele>47.08</ele>
        <time>2025-02-02T21:58:23.857Z</time>
      </trkpt>
      <trkpt lat="59.37708095647395" lon="13.178274929523468">
        <ele>47.13</ele>
        <time>2025-02-02T21:58:27.637Z</time>
      </trkpt>
      <trkpt lat="59.37710199505091" lon="13.178141992539167">
        <ele>47.18</ele>
        <time>2025-02-02T21:58:31.419Z</time>
      </trkpt>
      <trkpt lat="59.37712395563722" lon="13.178005954250693">
        <ele>47.24</ele>
        <time>2025-02-02T21:58:35.202Z</time>
      </trkpt>
      <trkpt lat="59.37714692205191" lon="13.177869999781251">
        <ele>47.29</ele>
        <time>2025-02-02T21:58:38.986Z</time>
      </trkpt>
      <trkpt lat="59.37717097811401" lon="13.177734967321157">
        <ele>47.36</ele>
        <time>2025-02-02T21:58:42.771Z</time>
      </trkpt>
      <trkpt lat="59.37719696201384" lon="13.177596917375922">
        <ele>47.42</ele>
        <time>2025-02-02T21:58:46.557Z</time>
      </trkpt>
      <trkpt lat="59.37722093425691" lon="13.177458951249719">
        <ele>47.49</ele>
        <time>2025-02-02T21:58:50.344Z</time>
      </trkpt>
      <trkpt lat="59.37724197283387" lon="13.177319979295135">
        <ele>47.56</ele>
        <time>2025-02-02T21:58:54.133Z</time>
      </trkpt>
      <trkpt lat="59.37726192176342" lon="13.177180923521519">
        <ele>47.63</ele>
        <time>2025-02-02T21:58:57.923Z</time>
      </trkpt>
      <trkpt lat="59.37728296034038" lon="13.177043963223696">
        <ele>47.71</ele>
        <time>2025-02-02T21:59:01.714Z</time>
      </trkpt>
      <trkpt lat="59.37730693258345" lon="13.176906919106841">
        <ele>47.79</ele>
        <time>2025-02-02T21:59:05.506Z</time>
      </trkpt>
      <trkpt lat="59.377331994473934" lon="13.17677398212254">
        <ele>47.87</ele>
        <time>2025-02-02T21:59:09.299Z</time>
      </trkpt>
      <trkpt lat="59.377356972545385" lon="13.176641967147589">
        <ele>47.96</ele>
        <time>2025-02-02T21:59:13.093Z</time>
      </trkpt>
      <trkpt lat="59.377380944788456" lon="13.176509952172637">
        <ele>48.05</ele>
        <time>2025-02-02T21:59:16.889Z</time>
      </trkpt>
      <trkpt lat="59.37740399502218" lon="13.176376931369305">
        <ele>48.15</ele>
        <time>2025-02-02T21:59:20.686Z</time>
      </trkpt>
      <trkpt lat="59.377422938123345" lon="13.176246928051114">
        <ele>48.25</ele>
        <time>2025-02-02T21:59:24.484Z</time>
      </trkpt>
      <trkpt lat="59.377441965043545" lon="13.176117930561304">
        <ele>48.35</ele>
        <time>2025-02-02T21:59:28.283Z</time>
      </trkpt>
      <trkpt lat="59.377462919801474" lon="13.175990944728255">
        <ele>48.45</ele>
        <time>2025-02-02T21:59:32.083Z</time>
      </trkpt>
      <trkpt lat="59.377484964206815" lon="13.175865970551968">
        <ele>48.57</ele>
        <time>2025-02-02T21:59:35.884Z</time>
      </trkpt>
      <trkpt lat="59.377506924793124" lon="13.175741918385029">
        <ele>48.68</ele>
        <time>2025-02-02T21:59:39.686Z</time>
      </trkpt>
      <trkpt lat="59.377527963370085" lon="13.175616944208741">
        <ele>48.79</ele>
        <time>2025-02-02T21:59:43.489Z</time>
      </trkpt>
      <trkpt lat="59.377549923956394" lon="13.175489958375692">
        <ele>48.91</ele>
        <time>2025-02-02T21:59:47.293Z</time>
      </trkpt>
      <trkpt lat="59.377571968361735" lon="13.175361966714263">
        <ele>49.03</ele>
        <time>2025-02-02T21:59:51.099Z</time>
      </trkpt>
      <trkpt lat="59.377594934776425" lon="13.175234980881214">
        <ele>49.15</ele>
        <time>2025-02-02T21:59:54.906Z</time>
      </trkpt>
      <trkpt lat="59.37761798501015" lon="13.175106989219785">
        <ele>49.28</ele>
        <time>2025-02-02T21:59:58.714Z</time>
      </trkpt>
      <trkpt lat="59.37763994559646" lon="13.174977991729975">
        <ele>49.4</ele>
        <time>2025-02-02T22:00:02.523Z</time>
      </trkpt>
      <trkpt lat="59.3776619900018" lon="13.174846982583404">
        <ele>49.53</ele>
        <time>2025-02-02T22:00:06.333Z</time>
      </trkpt>
      <trkpt lat="59.37768294475973" lon="13.174714967608452">
        <ele>49.66</ele>
        <time>2025-02-02T22:00:10.144Z</time>
      </trkpt>
      <trkpt lat="59.37770297750831" lon="13.174579935148358">
        <ele>49.8</ele>
        <time>2025-02-02T22:00:13.956Z</time>
      </trkpt>
      <trkpt lat="59.377723932266235" lon="13.174445992335677">
        <ele>49.94</ele>
        <time>2025-02-02T22:00:17.769Z</time>
      </trkpt>
      <trkpt lat="59.37774698249996" lon="13.174312971532345">
        <ele>50.09</ele>
        <time>2025-02-02T22:00:21.584Z</time>
      </trkpt>
      <trkpt lat="59.37777095474303" lon="13.174180956557393">
        <ele>50.24</ele>
        <time>2025-02-02T22:00:25.400Z</time>
      </trkpt>
      <trkpt lat="59.3777949269861" lon="13.174051959067583">
        <ele>50.39</ele>
        <time>2025-02-02T22:00:29.217Z</time>
      </trkpt>
      <trkpt lat="59.3778189830482" lon="13.173921955749393">
        <ele>50.56</ele>
        <time>2025-02-02T22:00:33.035Z</time>
      </trkpt>
      <trkpt lat="59.37784194946289" lon="13.173791952431202">
        <ele>50.72</ele>
        <time>2025-02-02T22:00:36.854Z</time>
      </trkpt>
      <trkpt lat="59.37786499969661" lon="13.173662954941392">
        <ele>50.89</ele>
        <time>2025-02-02T22:00:40.674Z</time>
      </trkpt>
      <trkpt lat="59.3778879661113" lon="13.173535969108343">
        <ele>51.06</ele>
        <time>2025-02-02T22:00:44.495Z</time>
      </trkpt>
      <trkpt lat="59.37790892086923" lon="13.173408983275294">
        <ele>51.24</ele>
        <time>2025-02-02T22:00:48.317Z</time>
      </trkpt>
      <trkpt lat="59.37793096527457" lon="13.173282919451594">
        <ele>51.42</ele>
        <time>2025-02-02T22:00:52.140Z</time>
      </trkpt>
      <trkpt lat="59.37795292586088" lon="13.173156939446926">
        <ele>51.6</ele>
        <time>2025-02-02T22:00:55.965Z</time>
      </trkpt>
      <trkpt lat="59.37797497026622" lon="13.173029953613877">
        <ele>51.78</ele>
        <time>2025-02-02T22:00:59.791Z</time>
      </trkpt>
      <trkpt lat="59.37799592502415" lon="13.172902967780828">
        <ele>51.96</ele>
        <time>2025-02-02T22:01:03.618Z</time>
      </trkpt>
      <trkpt lat="59.37801796942949" lon="13.172773970291018">
        <ele>52.14</ele>
        <time>2025-02-02T22:01:07.446Z</time>
      </trkpt>
      <trkpt lat="59.37804093584418" lon="13.172645978629589">
        <ele>52.33</ele>
        <time>2025-02-02T22:01:11.275Z</time>
      </trkpt>
      <trkpt lat="59.378063986077905" lon="13.17251999862492">
        <ele>52.52</ele>
        <time>2025-02-02T22:01:15.105Z</time>
      </trkpt>
      <trkpt lat="59.378085946664214" lon="13.172393934801221">
        <ele>52.72</ele>
        <time>2025-02-02T22:01:18.936Z</time>
      </trkpt>
      <trkpt lat="59.378107991069555" lon="13.172266948968172">
        <ele>52.92</ele>
        <time>2025-02-02T22:01:22.768Z</time>
      </trkpt>
      <trkpt lat="59.378128945827484" lon="13.172137951478362">
        <ele>53.12</ele>
        <time>2025-02-02T22:01:26.601Z</time>
      </trkpt>
      <trkpt lat="59.378148978576064" lon="13.172009959816933">
        <ele>53.32</ele>
        <time>2025-02-02T22:01:30.435Z</time>
      </trkpt>
      <trkpt lat="59.37817093916237" lon="13.171878950670362">
        <ele>53.53</ele>
        <time>2025-02-02T22:01:34.271Z</time>
      </trkpt>
      <trkpt lat="59.378194995224476" lon="13.17174794152379">
        <ele>53.74</ele>
        <time>2025-02-02T22:01:38.108Z</time>
      </trkpt>
      <trkpt lat="59.378217961639166" lon="13.171615926548839">
        <ele>53.95</ele>
        <time>2025-02-02T22:01:41.946Z</time>
      </trkpt>
      <trkpt lat="59.378237994387746" lon="13.171485923230648">
        <ele>54.17</ele>
        <time>2025-02-02T22:01:45.785Z</time>
      </trkpt>
      <trkpt lat="59.37825693748891" lon="13.171357931569219">
        <ele>54.39</ele>
        <time>2025-02-02T22:01:49.625Z</time>
      </trkpt>
      <trkpt lat="59.37827596440911" lon="13.17123195156455">
        <ele>54.61</ele>
        <time>2025-02-02T22:01:53.466Z</time>
      </trkpt>
      <trkpt lat="59.37829297967255" lon="13.171105971559882">
        <ele>54.84</ele>
        <time>2025-02-02T22:01:57.308Z</time>
      </trkpt>
      <trkpt lat="59.37830898910761" lon="13.170979991555214">
        <ele>55.06</ele>
        <time>2025-02-02T22:02:01.151Z</time>
      </trkpt>
      <trkpt lat="59.378325920552015" lon="13.170855939388275">
        <ele>55.29</ele>
        <time>2025-02-02T22:02:04.995Z</time>
      </trkpt>
      <trkpt lat="59.378346959128976" lon="13.170739933848381">
        <ele>55.52</ele>
        <time>2025-02-02T22:02:08.840Z</time>
      </trkpt>
      <trkpt lat="59.378368919715285" lon="13.170623928308487">
        <ele>55.76</ele>
        <time>2025-02-02T22:02:12.686Z</time>
      </trkpt>
      <trkpt lat="59.378389958292246" lon="13.170509934425354">
        <ele>56.01</ele>
        <time>2025-02-02T22:02:16.533Z</time>
      </trkpt>
      <trkpt lat="59.378409991040826" lon="13.170400969684124">
        <ele>56.25</ele>
        <time>2025-02-02T22:02:20.381Z</time>
      </trkpt>
      <trkpt lat="59.378429939970374" lon="13.170290999114513">
        <ele>56.49</ele>
        <time>2025-02-02T22:02:24.230Z</time>
      </trkpt>
      <trkpt lat="59.37844896689057" lon="13.170181950554252">
        <ele>56.74</ele>
        <time>2025-02-02T22:02:28.080Z</time>
      </trkpt>
      <trkpt lat="59.37846497632563" lon="13.170073991641402">
        <ele>56.99</ele>
        <time>2025-02-02T22:02:31.931Z</time>
      </trkpt>
      <trkpt lat="59.37847897410393" lon="13.169965948909521">
        <ele>57.24</ele>
        <time>2025-02-02T22:02:35.783Z</time>
      </trkpt>
      <trkpt lat="59.378492971882224" lon="13.169860923662782">
        <ele>57.49</ele>
        <time>2025-02-02T22:02:39.636Z</time>
      </trkpt>
      <trkpt lat="59.37850998714566" lon="13.169757993891835">
        <ele>57.75</ele>
        <time>2025-02-02T22:02:43.490Z</time>
      </trkpt>
      <trkpt lat="59.37852691859007" lon="13.169658919796348">
        <ele>58.01</ele>
        <time>2025-02-02T22:02:47.345Z</time>
      </trkpt>
      <trkpt lat="59.37854393385351" lon="13.169561941176653">
        <ele>58.27</ele>
        <time>2025-02-02T22:02:51.201Z</time>
      </trkpt>
      <trkpt lat="59.378558937460184" lon="13.1694679800421">
        <ele>58.53</ele>
        <time>2025-02-02T22:02:55.057Z</time>
      </trkpt>
      <trkpt lat="59.37857293523848" lon="13.169377958402038">
        <ele>58.78</ele>
        <time>2025-02-02T22:02:58.914Z</time>
      </trkpt>
      <trkpt lat="59.37858793884516" lon="13.169293971732259">
        <ele>59.05</ele>
        <time>2025-02-02T22:03:02.772Z</time>
      </trkpt>
      <trkpt lat="59.378605959936976" lon="13.169220965355635">
        <ele>59.31</ele>
        <time>2025-02-02T22:03:06.630Z</time>
      </trkpt>
      <trkpt lat="59.378622975200415" lon="13.169151982292533">
        <ele>59.58</ele>
        <time>2025-02-02T22:03:10.489Z</time>
      </trkpt>
      <trkpt lat="59.37863999046385" lon="13.16907998174429">
        <ele>59.84</ele>
        <time>2025-02-02T22:03:14.349Z</time>
      </trkpt>
      <trkpt lat="59.37865499407053" lon="13.169005969539285">
        <ele>60.11</ele>
        <time>2025-02-02T22:03:18.209Z</time>
      </trkpt>
      <trkpt lat="59.378670919686556" lon="13.16893195733428">
        <ele>60.38</ele>
        <time>2025-02-02T22:03:22.070Z</time>
      </trkpt>
      <trkpt lat="59.37868491746485" lon="13.168856939300895">
        <ele>60.65</ele>
        <time>2025-02-02T22:03:25.932Z</time>
      </trkpt>
      <trkpt lat="59.37869497574866" lon="13.16878393292427">
        <ele>60.92</ele>
        <time>2025-02-02T22:03:29.794Z</time>
      </trkpt>
      <trkpt lat="59.378707967698574" lon="13.168714949861169">
        <ele>61.19</ele>
        <time>2025-02-02T22:03:33.657Z</time>
      </trkpt>
      <trkpt lat="59.37872196547687" lon="13.168642949312925">
        <ele>61.46</ele>
        <time>2025-02-02T22:03:37.521Z</time>
      </trkpt>
      <trkpt lat="59.37873696908355" lon="13.168570948764682">
        <ele>61.73</ele>
        <time>2025-02-02T22:03:41.385Z</time>
      </trkpt>
      <trkpt lat="59.37874996103346" lon="13.1685009598732">
        <ele>62.01</ele>
        <time>2025-02-02T22:03:45.250Z</time>
      </trkpt>
      <trkpt lat="59.37876094132662" lon="13.168427953496575">
        <ele>62.28</ele>
        <time>2025-02-02T22:03:49.115Z</time>
      </trkpt>
      <trkpt lat="59.378770999610424" lon="13.168355952948332">
        <ele>62.55</ele>
        <time>2025-02-02T22:03:52.981Z</time>
      </trkpt>
      <trkpt lat="59.37878298573196" lon="13.168283952400088">
        <ele>62.82</ele>
        <time>2025-02-02T22:03:56.848Z</time>
      </trkpt>
      <trkpt lat="59.37879094853997" lon="13.168206922709942">
        <ele>63.1</ele>
        <time>2025-02-02T22:04:00.715Z</time>
      </trkpt>
      <trkpt lat="59.378795977681875" lon="13.168127965182066">
        <ele>63.37</ele>
        <time>2025-02-02T22:04:04.583Z</time>
      </trkpt>
      <trkpt lat="59.37880394048989" lon="13.168049929663539">
        <ele>63.64</ele>
        <time>2025-02-02T22:04:08.452Z</time>
      </trkpt>
      <trkpt lat="59.37881592661142" lon="13.167977929115295">
        <ele>63.91</ele>
        <time>2025-02-02T22:04:12.321Z</time>
      </trkpt>
      <trkpt lat="59.37883193604648" lon="13.167910957708955">
        <ele>64.18</ele>
        <time>2025-02-02T22:04:16.191Z</time>
      </trkpt>
      <trkpt lat="59.37884593382478" lon="13.167848931625485">
        <ele>64.45</ele>
        <time>2025-02-02T22:04:20.061Z</time>
      </trkpt>
      <trkpt lat="59.37885892577469" lon="13.167789923027158">
        <ele>64.71</ele>
        <time>2025-02-02T22:04:23.932Z</time>
      </trkpt>
      <trkpt lat="59.37886998988688" lon="13.167735943570733">
        <ele>64.98</ele>
        <time>2025-02-02T22:04:27.803Z</time>
      </trkpt>
      <trkpt lat="59.37887895852327" lon="13.167682969942689">
        <ele>65.25</ele>
        <time>2025-02-02T22:04:31.675Z</time>
      </trkpt>
      <trkpt lat="59.378886921331286" lon="13.167631924152374">
        <ele>65.51</ele>
        <time>2025-02-02T22:04:35.547Z</time>
      </trkpt>
      <trkpt lat="59.37889195047319" lon="13.167585991322994">
        <ele>65.78</ele>
        <time>2025-02-02T22:04:39.420Z</time>
      </trkpt>
      <trkpt lat="59.37889899127185" lon="13.167537963017821">
        <ele>66.04</ele>
        <time>2025-02-02T22:04:43.293Z</time>
      </trkpt>
      <trkpt lat="59.37890896573663" lon="13.167482977733016">
        <ele>66.31</ele>
        <time>2025-02-02T22:04:47.167Z</time>
      </trkpt>
      <trkpt lat="59.3789189402014" lon="13.167432937771082">
        <ele>66.56</ele>
        <time>2025-02-02T22:04:51.041Z</time>
      </trkpt>
      <trkpt lat="59.37893092632294" lon="13.167381975799799">
        <ele>66.82</ele>
        <time>2025-02-02T22:04:54.915Z</time>
      </trkpt>
      <trkpt lat="59.37893696129322" lon="13.167331935837865">
        <ele>67.08</ele>
        <time>2025-02-02T22:04:58.790Z</time>
      </trkpt>
      <trkpt lat="59.3789379671216" lon="13.16727795638144">
        <ele>67.34</ele>
        <time>2025-02-02T22:05:02.665Z</time>
      </trkpt>
      <trkpt lat="59.37893897294998" lon="13.167217941954732">
        <ele>67.59</ele>
        <time>2025-02-02T22:05:06.541Z</time>
      </trkpt>
      <trkpt lat="59.378942996263504" lon="13.167155999690294">
        <ele>67.84</ele>
        <time>2025-02-02T22:05:10.417Z</time>
      </trkpt>
      <trkpt lat="59.378947941586375" lon="13.167088944464922">
        <ele>68.1</ele>
        <time>2025-02-02T22:05:14.294Z</time>
      </trkpt>
      <trkpt lat="59.37895498238504" lon="13.167016943916678">
        <ele>68.35</ele>
        <time>2025-02-02T22:05:18.171Z</time>
      </trkpt>
      <trkpt lat="59.37895598821342" lon="13.166944943368435">
        <ele>68.6</ele>
        <time>2025-02-02T22:05:22.049Z</time>
      </trkpt>
      <trkpt lat="59.37895397655666" lon="13.16687093116343">
        <ele>68.84</ele>
        <time>2025-02-02T22:05:25.928Z</time>
      </trkpt>
      <trkpt lat="59.378949953243136" lon="13.166792979463935">
        <ele>69.09</ele>
        <time>2025-02-02T22:05:29.807Z</time>
      </trkpt>
      <trkpt lat="59.37894391827285" lon="13.166714943945408">
        <ele>69.33</ele>
        <time>2025-02-02T22:05:33.687Z</time>
      </trkpt>
      <trkpt lat="59.37893897294998" lon="13.166636992245913">
        <ele>69.56</ele>
        <time>2025-02-02T22:05:37.568Z</time>
      </trkpt>
      <trkpt lat="59.37893193215132" lon="13.166556945070624">
        <ele>69.79</ele>
        <time>2025-02-02T22:05:41.449Z</time>
      </trkpt>
      <trkpt lat="59.37892799265683" lon="13.166476981714368">
        <ele>70.03</ele>
        <time>2025-02-02T22:05:45.331Z</time>
      </trkpt>
      <trkpt lat="59.378924975171685" lon="13.16639894619584">
        <ele>70.25</ele>
        <time>2025-02-02T22:05:49.214Z</time>
      </trkpt>
      <trkpt lat="59.37892195768654" lon="13.166322922334075">
        <ele>70.48</ele>
        <time>2025-02-02T22:05:53.097Z</time>
      </trkpt>
      <trkpt lat="59.37891994602978" lon="13.166247988119721">
        <ele>70.69</ele>
        <time>2025-02-02T22:05:56.981Z</time>
      </trkpt>
      <trkpt lat="59.37891793437302" lon="13.166172970086336">
        <ele>70.9</ele>
        <time>2025-02-02T22:06:00.865Z</time>
      </trkpt>
      <trkpt lat="59.37891692854464" lon="13.16609594039619">
        <ele>71.11</ele>
        <time>2025-02-02T22:06:04.750Z</time>
      </trkpt>
      <trkpt lat="59.3789189402014" lon="13.166017988696694">
        <ele>71.32</ele>
        <time>2025-02-02T22:06:08.636Z</time>
      </trkpt>
      <trkpt lat="59.378922963514924" lon="13.165942970663309">
        <ele>71.52</ele>
        <time>2025-02-02T22:06:12.522Z</time>
      </trkpt>
      <trkpt lat="59.37892799265683" lon="13.165865940973163">
        <ele>71.72</ele>
        <time>2025-02-02T22:06:16.409Z</time>
      </trkpt>
      <trkpt lat="59.3789379671216" lon="13.165790922939777">
        <ele>71.92</ele>
        <time>2025-02-02T22:06:20.297Z</time>
      </trkpt>
      <trkpt lat="59.37895095907152" lon="13.165714982897043">
        <ele>72.11</ele>
        <time>2025-02-02T22:06:24.185Z</time>
      </trkpt>
      <trkpt lat="59.37896395102143" lon="13.165635941550136">
        <ele>72.29</ele>
        <time>2025-02-02T22:06:28.074Z</time>
      </trkpt>
      <trkpt lat="59.37897895462811" lon="13.16555991768837">
        <ele>72.46</ele>
        <time>2025-02-02T22:06:31.964Z</time>
      </trkpt>
      <trkpt lat="59.378991946578026" lon="13.165483977645636">
        <ele>72.64</ele>
        <time>2025-02-02T22:06:35.854Z</time>
      </trkpt>
      <trkpt lat="59.37900393269956" lon="13.16540795378387">
        <ele>72.81</ele>
        <time>2025-02-02T22:06:39.745Z</time>
      </trkpt>
      <trkpt lat="59.37901692464948" lon="13.165335953235626">
        <ele>72.98</ele>
        <time>2025-02-02T22:06:43.637Z</time>
      </trkpt>
      <trkpt lat="59.37903092242777" lon="13.165267976000905">
        <ele>73.15</ele>
        <time>2025-02-02T22:06:47.529Z</time>
      </trkpt>
      <trkpt lat="59.37904399819672" lon="13.165199998766184">
        <ele>73.31</ele>
        <time>2025-02-02T22:06:51.422Z</time>
      </trkpt>
      <trkpt lat="59.379055984318256" lon="13.165122969076037">
        <ele>73.47</ele>
        <time>2025-02-02T22:06:55.315Z</time>
      </trkpt>
      <trkpt lat="59.37906998209655" lon="13.165045939385891">
        <ele>73.62</ele>
        <time>2025-02-02T22:06:59.209Z</time>
      </trkpt>
      <trkpt lat="59.37908699735999" lon="13.164970921352506">
        <ele>73.77</ele>
        <time>2025-02-02T22:07:03.104Z</time>
      </trkpt>
      <trkpt lat="59.37910694628954" lon="13.164882995188236">
        <ele>73.92</ele>
        <time>2025-02-02T22:07:06.999Z</time>
      </trkpt>
      <trkpt lat="59.37913293018937" lon="13.164793979376554">
        <ele>74.06</ele>
        <time>2025-02-02T22:07:10.895Z</time>
      </trkpt>
      <trkpt lat="59.379163943231106" lon="13.164705969393253">
        <ele>74.21</ele>
        <time>2025-02-02T22:07:14.792Z</time>
      </trkpt>
      <trkpt lat="59.37919395044446" lon="13.164619971066713">
        <ele>74.35</ele>
        <time>2025-02-02T22:07:18.690Z</time>
      </trkpt>
      <trkpt lat="59.37921892851591" lon="13.164536990225315">
        <ele>74.48</ele>
        <time>2025-02-02T22:07:22.589Z</time>
      </trkpt>
      <trkpt lat="59.37924097292125" lon="13.164456943050027">
        <ele>74.61</ele>
        <time>2025-02-02T22:07:26.489Z</time>
      </trkpt>
      <trkpt lat="59.37926494516432" lon="13.164382930845022">
        <ele>74.74</ele>
        <time>2025-02-02T22:07:30.389Z</time>
      </trkpt>
      <trkpt lat="59.379289923235774" lon="13.164315959438682">
        <ele>74.87</ele>
        <time>2025-02-02T22:07:34.290Z</time>
      </trkpt>
      <trkpt lat="59.379313979297876" lon="13.1642459705472">
        <ele>74.99</ele>
        <time>2025-02-02T22:07:38.192Z</time>
      </trkpt>
      <trkpt lat="59.379333928227425" lon="13.164177993312478">
        <ele>75.11</ele>
        <time>2025-02-02T22:07:42.094Z</time>
      </trkpt>
      <trkpt lat="59.37935194931924" lon="13.164113955572248">
        <ele>75.22</ele>
        <time>2025-02-02T22:07:45.997Z</time>
      </trkpt>
      <trkpt lat="59.37936896458268" lon="13.164058970287442">
        <ele>75.33</ele>
        <time>2025-02-02T22:07:49.900Z</time>
      </trkpt>
      <trkpt lat="59.37938396818936" lon="13.16401094198227">
        <ele>75.43</ele>
        <time>2025-02-02T22:07:53.804Z</time>
      </trkpt>
      <trkpt lat="59.379395954310894" lon="13.163966936990619">
        <ele>75.53</ele>
        <time>2025-02-02T22:07:57.708Z</time>
      </trkpt>
      <trkpt lat="59.37940894626081" lon="13.163921926170588">
        <ele>75.62</ele>
        <time>2025-02-02T22:08:01.613Z</time>
      </trkpt>
      <trkpt lat="59.379422944039106" lon="13.163876999169588">
        <ele>75.71</ele>
        <time>2025-02-02T22:08:05.518Z</time>
      </trkpt>
      <trkpt lat="59.37943593598902" lon="13.163822935894132">
        <ele>75.8</ele>
        <time>2025-02-02T22:08:09.424Z</time>
      </trkpt>
      <trkpt lat="59.37944599427283" lon="13.16375294700265">
        <ele>75.88</ele>
        <time>2025-02-02T22:08:13.330Z</time>
      </trkpt>
      <trkpt lat="59.37945496290922" lon="13.163669966161251">
        <ele>75.96</ele>
        <time>2025-02-02T22:08:17.237Z</time>
      </trkpt>
      <trkpt lat="59.379458986222744" lon="13.163586985319853">
        <ele>76.04</ele>
        <time>2025-02-02T22:08:21.145Z</time>
      </trkpt>
      <trkpt lat="59.37945496290922" lon="13.163499981164932">
        <ele>76.11</ele>
        <time>2025-02-02T22:08:25.053Z</time>
      </trkpt>
      <trkpt lat="59.379439959302545" lon="13.163420939818025">
        <ele>76.17</ele>
        <time>2025-02-02T22:08:28.962Z</time>
      </trkpt>
      <trkpt lat="59.379418920725584" lon="13.163338964805007">
        <ele>76.23</ele>
        <time>2025-02-02T22:08:32.872Z</time>
      </trkpt>
      <trkpt lat="59.37939394265413" lon="13.163249948993325">
        <ele>76.29</ele>
        <time>2025-02-02T22:08:36.783Z</time>
      </trkpt>
      <trkpt lat="59.37936494126916" lon="13.163156993687153">
        <ele>76.34</ele>
        <time>2025-02-02T22:08:40.695Z</time>
      </trkpt>
      <trkpt lat="59.379333928227425" lon="13.163060937076807">
        <ele>76.38</ele>
        <time>2025-02-02T22:08:44.607Z</time>
      </trkpt>
      <trkpt lat="59.37930199317634" lon="13.16295993514359">
        <ele>76.43</ele>
        <time>2025-02-02T22:08:48.520Z</time>
      </trkpt>
      <trkpt lat="59.37926494516432" lon="13.16285197623074">
        <ele>76.47</ele>
        <time>2025-02-02T22:08:52.434Z</time>
      </trkpt>
      <trkpt lat="59.379225969314575" lon="13.162737982347608">
        <ele>76.5</ele>
        <time>2025-02-02T22:08:56.350Z</time>
      </trkpt>
      <trkpt lat="59.379183975979686" lon="13.162619965150952">
        <ele>76.53</ele>
        <time>2025-02-02T22:09:00.267Z</time>
      </trkpt>
      <trkpt lat="59.379141982644796" lon="13.162496918812394">
        <ele>76.55</ele>
        <time>2025-02-02T22:09:04.185Z</time>
      </trkpt>
      <trkpt lat="59.379097977653146" lon="13.162371944636106">
        <ele>76.57</ele>
        <time>2025-02-02T22:09:08.104Z</time>
      </trkpt>
      <trkpt lat="59.379052966833115" lon="13.162243952974677">
        <ele>76.59</ele>
        <time>2025-02-02T22:09:12.025Z</time>
      </trkpt>
      <trkpt lat="59.37900795601308" lon="13.162112943828106">
        <ele>76.61</ele>
        <time>2025-02-02T22:09:15.947Z</time>
      </trkpt>
      <trkpt lat="59.37896093353629" lon="13.161977995187044">
        <ele>76.61</ele>
        <time>2025-02-02T22:09:19.870Z</time>
      </trkpt>
      <trkpt lat="59.37891198322177" lon="13.16184296272695">
        <ele>76.62</ele>
        <time>2025-02-02T22:09:23.794Z</time>
      </trkpt>
      <trkpt lat="59.378863954916596" lon="13.161706924438477">
        <ele>76.63</ele>
        <time>2025-02-02T22:09:27.720Z</time>
      </trkpt>
      <trkpt lat="59.37881592661142" lon="13.161569964140654">
        <ele>76.63</ele>
        <time>2025-02-02T22:09:31.647Z</time>
      </trkpt>
      <trkpt lat="59.37876798212528" lon="13.16143493168056">
        <ele>76.63</ele>
        <time>2025-02-02T22:09:35.576Z</time>
      </trkpt>
      <trkpt lat="59.37872297130525" lon="13.161300988867879">
        <ele>76.62</ele>
        <time>2025-02-02T22:09:39.506Z</time>
      </trkpt>
      <trkpt lat="59.37867997214198" lon="13.161170985549688">
        <ele>76.62</ele>
        <time>2025-02-02T22:09:43.437Z</time>
      </trkpt>
      <trkpt lat="59.37863797880709" lon="13.16104399971664">
        <ele>76.6</ele>
        <time>2025-02-02T22:09:47.369Z</time>
      </trkpt>
      <trkpt lat="59.3785959854722" lon="13.16091894172132">
        <ele>76.6</ele>
        <time>2025-02-02T22:09:51.303Z</time>
      </trkpt>
      <trkpt lat="59.37855298630893" lon="13.160795979201794">
        <ele>76.59</ele>
        <time>2025-02-02T22:09:55.238Z</time>
      </trkpt>
      <trkpt lat="59.37850898131728" lon="13.160673938691616">
        <ele>76.58</ele>
        <time>2025-02-02T22:09:59.174Z</time>
      </trkpt>
      <trkpt lat="59.37846598215401" lon="13.160553993657231">
        <ele>76.57</ele>
        <time>2025-02-02T22:10:03.111Z</time>
      </trkpt>
      <trkpt lat="59.37842298299074" lon="13.160434970632195">
        <ele>76.55</ele>
        <time>2025-02-02T22:10:07.049Z</time>
      </trkpt>
      <trkpt lat="59.37838199548423" lon="13.160313935950398">
        <ele>76.53</ele>
        <time>2025-02-02T22:10:10.989Z</time>
      </trkpt>
      <trkpt lat="59.37834092415869" lon="13.160191979259253">
        <ele>76.51</ele>
        <time>2025-02-02T22:10:14.930Z</time>
      </trkpt>
      <trkpt lat="59.37829792499542" lon="13.160070944577456">
        <ele>76.49</ele>
        <time>2025-02-02T22:10:18.872Z</time>
      </trkpt>
      <trkpt lat="59.37825299799442" lon="13.15995192155242">
        <ele>76.46</ele>
        <time>2025-02-02T22:10:22.815Z</time>
      </trkpt>
      <trkpt lat="59.37820899300277" lon="13.159831976518035">
        <ele>76.43</ele>
        <time>2025-02-02T22:10:26.759Z</time>
      </trkpt>
      <trkpt lat="59.3781659938395" lon="13.159711947664618">
        <ele>76.4</ele>
        <time>2025-02-02T22:10:30.705Z</time>
      </trkpt>
      <trkpt lat="59.37812299467623" lon="13.159594936296344">
        <ele>76.36</ele>
        <time>2025-02-02T22:10:34.652Z</time>
      </trkpt>
      <trkpt lat="59.37808091752231" lon="13.159473985433578">
        <ele>76.32</ele>
        <time>2025-02-02T22:10:38.600Z</time>
      </trkpt>
      <trkpt lat="59.37803791835904" lon="13.159353956580162">
        <ele>76.27</ele>
        <time>2025-02-02T22:10:42.549Z</time>
      </trkpt>
      <trkpt lat="59.37799491919577" lon="13.159234933555126">
        <ele>76.23</ele>
        <time>2025-02-02T22:10:46.499Z</time>
      </trkpt>
      <trkpt lat="59.37794999219477" lon="13.159115994349122">
        <ele>76.19</ele>
        <time>2025-02-02T22:10:50.451Z</time>
      </trkpt>
      <trkpt lat="59.3779069930315" lon="13.158996971324086">
        <ele>76.15</ele>
        <time>2025-02-02T22:10:54.404Z</time>
      </trkpt>
      <trkpt lat="59.37786399386823" lon="13.15887694247067">
        <ele>76.1</ele>
        <time>2025-02-02T22:10:58.358Z</time>
      </trkpt>
      <trkpt lat="59.37782191671431" lon="13.158754985779524">
        <ele>76.06</ele>
        <time>2025-02-02T22:11:02.313Z</time>
      </trkpt>
      <trkpt lat="59.37777992337942" lon="13.158635962754488">
        <ele>76.01</ele>
        <time>2025-02-02T22:11:06.269Z</time>
      </trkpt>
      <trkpt lat="59.37773793004453" lon="13.158520963042974">
        <ele>75.96</ele>
        <time>2025-02-02T22:11:10.227Z</time>
      </trkpt>
      <trkpt lat="59.37769493088126" lon="13.158407974988222">
        <ele>75.91</ele>
        <time>2025-02-02T22:11:14.186Z</time>
      </trkpt>
      <trkpt lat="59.37765394337475" lon="13.15829792059958">
        <ele>75.86</ele>
        <time>2025-02-02T22:11:18.146Z</time>
      </trkpt>
      <trkpt lat="59.377613961696625" lon="13.158190967515111">
        <ele>75.8</ele>
        <time>2025-02-02T22:11:22.107Z</time>
      </trkpt>
      <trkpt lat="59.37757498584688" lon="13.15808191895485">
        <ele>75.75</ele>
        <time>2025-02-02T22:11:26.069Z</time>
      </trkpt>
      <trkpt lat="59.37753693200648" lon="13.15797295421362">
        <ele>75.69</ele>
        <time>2025-02-02T22:11:30.032Z</time>
      </trkpt>
      <trkpt lat="59.37749896198511" lon="13.157861977815628">
        <ele>75.63</ele>
        <time>2025-02-02T22:11:33.996Z</time>
      </trkpt>
      <trkpt lat="59.37745898030698" lon="13.157750917598605">
        <ele>75.56</ele>
        <time>2025-02-02T22:11:37.961Z</time>
      </trkpt>
      <trkpt lat="59.377418998628855" lon="13.157640947028995">
        <ele>75.51</ele>
        <time>2025-02-02T22:11:41.927Z</time>
      </trkpt>
      <trkpt lat="59.377378933131695" lon="13.157533993944526">
        <ele>75.45</ele>
        <time>2025-02-02T22:11:45.895Z</time>
      </trkpt>
      <trkpt lat="59.37733995728195" lon="13.157428968697786">
        <ele>75.39</ele>
        <time>2025-02-02T22:11:49.864Z</time>
      </trkpt>
      <trkpt lat="59.3773009814322" lon="13.157321931794286">
        <ele>75.33</ele>
        <time>2025-02-02T22:11:53.834Z</time>
      </trkpt>
      <trkpt lat="59.3772629275918" lon="13.157214978709817">
        <ele>75.27</ele>
        <time>2025-02-02T22:11:57.805Z</time>
      </trkpt>
      <trkpt lat="59.37722294591367" lon="13.157106935977936">
        <ele>75.21</ele>
        <time>2025-02-02T22:12:01.777Z</time>
      </trkpt>
      <trkpt lat="59.377182964235544" lon="13.156998977065086">
        <ele>75.15</ele>
        <time>2025-02-02T22:12:05.750Z</time>
      </trkpt>
      <trkpt lat="59.3771439883858" lon="13.156891940161586">
        <ele>75.08</ele>
        <time>2025-02-02T22:12:09.724Z</time>
      </trkpt>
      <trkpt lat="59.3771059345454" lon="13.156787920743227">
        <ele>75.02</ele>
        <time>2025-02-02T22:12:13.699Z</time>
      </trkpt>
      <trkpt lat="59.37706796452403" lon="13.1566839851439">
        <ele>74.95</ele>
        <time>2025-02-02T22:12:17.675Z</time>
      </trkpt>
      <trkpt lat="59.37702898867428" lon="13.15657795406878">
        <ele>74.88</ele>
        <time>2025-02-02T22:12:21.652Z</time>
      </trkpt>
      <trkpt lat="59.376990934833884" lon="13.15647292882204">
        <ele>74.81</ele>
        <time>2025-02-02T22:12:25.630Z</time>
      </trkpt>
      <trkpt lat="59.3769539706409" lon="13.156369999051094">
        <ele>74.74</ele>
        <time>2025-02-02T22:12:29.609Z</time>
      </trkpt>
      <trkpt lat="59.37691692262888" lon="13.156266985461116">
        <ele>74.67</ele>
        <time>2025-02-02T22:12:33.589Z</time>
      </trkpt>
      <trkpt lat="59.37687694095075" lon="13.156161960214376">
        <ele>74.6</ele>
        <time>2025-02-02T22:12:37.570Z</time>
      </trkpt>
      <trkpt lat="59.37683595344424" lon="13.156055929139256">
        <ele>74.53</ele>
        <time>2025-02-02T22:12:41.552Z</time>
      </trkpt>
      <trkpt lat="59.376795971766114" lon="13.155950987711549">
        <ele>74.46</ele>
        <time>2025-02-02T22:12:45.535Z</time>
      </trkpt>
      <trkpt lat="59.376754984259605" lon="13.155843950808048">
        <ele>74.39</ele>
        <time>2025-02-02T22:12:49.520Z</time>
      </trkpt>
      <trkpt lat="59.376712990924716" lon="13.15573699772358">
        <ele>74.31</ele>
        <time>2025-02-02T22:12:53.506Z</time>
      </trkpt>
      <trkpt lat="59.37667099758983" lon="13.155627949163318">
        <ele>74.24</ele>
        <time>2025-02-02T22:12:57.493Z</time>
      </trkpt>
      <trkpt lat="59.37662799842656" lon="13.155521918088198">
        <ele>74.17</ele>
        <time>2025-02-02T22:13:01.481Z</time>
      </trkpt>
      <trkpt lat="59.376585921272635" lon="13.155414965003729">
        <ele>74.1</ele>
        <time>2025-02-02T22:13:05.470Z</time>
      </trkpt>
      <trkpt lat="59.376541916280985" lon="13.155306922271848">
        <ele>74.04</ele>
        <time>2025-02-02T22:13:09.460Z</time>
      </trkpt>
      <trkpt lat="59.376497995108366" lon="13.155199969187379">
        <ele>73.97</ele>
        <time>2025-02-02T22:13:13.451Z</time>
      </trkpt>
      <trkpt lat="59.376454995945096" lon="13.155091926455498">
        <ele>73.9</ele>
        <time>2025-02-02T22:13:17.443Z</time>
      </trkpt>
      <trkpt lat="59.376409985125065" lon="13.154982961714268">
        <ele>73.83</ele>
        <time>2025-02-02T22:13:21.437Z</time>
      </trkpt>
      <trkpt lat="59.376364974305034" lon="13.154873996973038">
        <ele>73.76</ele>
        <time>2025-02-02T22:13:25.432Z</time>
      </trkpt>
      <trkpt lat="59.37631795182824" lon="13.154767965897918">
        <ele>73.69</ele>
        <time>2025-02-02T22:13:29.428Z</time>
      </trkpt>
      <trkpt lat="59.37627193517983" lon="13.154662940651178">
        <ele>73.63</ele>
        <time>2025-02-02T22:13:33.425Z</time>
      </trkpt>
      <trkpt lat="59.37622591853142" lon="13.15455799922347">
        <ele>73.56</ele>
        <time>2025-02-02T22:13:37.423Z</time>
      </trkpt>
      <trkpt lat="59.37618099153042" lon="13.154452973976731">
        <ele>73.49</ele>
        <time>2025-02-02T22:13:41.422Z</time>
      </trkpt>
      <trkpt lat="59.37613698653877" lon="13.154346942901611">
        <ele>73.42</ele>
        <time>2025-02-02T22:13:45.422Z</time>
      </trkpt>
      <trkpt lat="59.3760939873755" lon="13.154241917654872">
        <ele>73.35</ele>
        <time>2025-02-02T22:13:49.423Z</time>
      </trkpt>
      <trkpt lat="59.37604897655547" lon="13.154137982055545">
        <ele>73.28</ele>
        <time>2025-02-02T22:13:53.426Z</time>
      </trkpt>
      <trkpt lat="59.376002959907055" lon="13.154035974293947">
        <ele>73.21</ele>
        <time>2025-02-02T22:13:57.430Z</time>
      </trkpt>
      <trkpt lat="59.37595493160188" lon="13.15393497236073">
        <ele>73.15</ele>
        <time>2025-02-02T22:14:01.435Z</time>
      </trkpt>
      <trkpt lat="59.37590799294412" lon="13.153832964599133">
        <ele>73.08</ele>
        <time>2025-02-02T22:14:05.441Z</time>
      </trkpt>
      <trkpt lat="59.37585996463895" lon="13.153729951009154">
        <ele>73.02</ele>
        <time>2025-02-02T22:14:09.448Z</time>
      </trkpt>
      <trkpt lat="59.375809924677014" lon="13.153625931590796">
        <ele>72.95</ele>
        <time>2025-02-02T22:14:13.456Z</time>
      </trkpt>
      <trkpt lat="59.37576097436249" lon="13.153522918000817">
        <ele>72.88</ele>
        <time>2025-02-02T22:14:17.465Z</time>
      </trkpt>
      <trkpt lat="59.37571194022894" lon="13.15341998822987">
        <ele>72.8</ele>
        <time>2025-02-02T22:14:21.476Z</time>
      </trkpt>
      <trkpt lat="59.37566198408604" lon="13.153318986296654">
        <ele>72.73</ele>
        <time>2025-02-02T22:14:25.488Z</time>
      </trkpt>
      <trkpt lat="59.3756119441241" lon="13.153219996020198">
        <ele>72.66</ele>
        <time>2025-02-02T22:14:29.501Z</time>
      </trkpt>
      <trkpt lat="59.37555997632444" lon="13.153122933581471">
        <ele>72.59</ele>
        <time>2025-02-02T22:14:33.515Z</time>
      </trkpt>
      <trkpt lat="59.375507924705744" lon="13.153023943305016">
        <ele>72.52</ele>
        <time>2025-02-02T22:14:37.530Z</time>
      </trkpt>
      <trkpt lat="59.37545595690608" lon="13.152923947200179">
        <ele>72.45</ele>
        <time>2025-02-02T22:14:41.546Z</time>
      </trkpt>
      <trkpt lat="59.37540398910642" lon="13.15281992778182">
        <ele>72.39</ele>
        <time>2025-02-02T22:14:45.564Z</time>
      </trkpt>
      <trkpt lat="59.37535093165934" lon="13.15271096304059">
        <ele>72.32</ele>
        <time>2025-02-02T22:14:49.583Z</time>
      </trkpt>
      <trkpt lat="59.375296952202916" lon="13.15260292030871">
        <ele>72.25</ele>
        <time>2025-02-02T22:14:53.603Z</time>
      </trkpt>
      <trkpt lat="59.37524196691811" lon="13.15249496139586">
        <ele>72.19</ele>
        <time>2025-02-02T22:14:57.624Z</time>
      </trkpt>
      <trkpt lat="59.375187987461686" lon="13.152382979169488">
        <ele>72.13</ele>
        <time>2025-02-02T22:15:01.646Z</time>
      </trkpt>
      <trkpt lat="59.37513493001461" lon="13.152267979457974">
        <ele>72.07</ele>
        <time>2025-02-02T22:15:05.670Z</time>
      </trkpt>
      <trkpt lat="59.375079944729805" lon="13.1521509680897">
        <ele>72.01</ele>
        <time>2025-02-02T22:15:09.695Z</time>
      </trkpt>
      <trkpt lat="59.37502395361662" lon="13.152033956721425">
        <ele>71.95</ele>
        <time>2025-02-02T22:15:13.721Z</time>
      </trkpt>
      <trkpt lat="59.37496695667505" lon="13.15191694535315">
        <ele>71.89</ele>
        <time>2025-02-02T22:15:17.749Z</time>
      </trkpt>
      <trkpt lat="59.374908953905106" lon="13.151800939813256">
        <ele>71.84</ele>
        <time>2025-02-02T22:15:21.778Z</time>
      </trkpt>
      <trkpt lat="59.37485195696354" lon="13.151685940101743">
        <ele>71.78</ele>
        <time>2025-02-02T22:15:25.808Z</time>
      </trkpt>
      <trkpt lat="59.37479596585035" lon="13.15157194621861">
        <ele>71.72</ele>
        <time>2025-02-02T22:15:29.840Z</time>
      </trkpt>
      <trkpt lat="59.37473997473717" lon="13.151457952335477">
        <ele>71.67</ele>
        <time>2025-02-02T22:15:33.873Z</time>
      </trkpt>
      <trkpt lat="59.37468398362398" lon="13.151344964280725">
        <ele>71.63</ele>
        <time>2025-02-02T22:15:37.907Z</time>
      </trkpt>
      <trkpt lat="59.374628998339176" lon="13.151230970397592">
        <ele>71.58</ele>
        <time>2025-02-02T22:15:41.943Z</time>
      </trkpt>
      <trkpt lat="59.37457392923534" lon="13.151115970686078">
        <ele>71.54</ele>
        <time>2025-02-02T22:15:45.980Z</time>
      </trkpt>
      <trkpt lat="59.374519949778914" lon="13.151000970974565">
        <ele>71.49</ele>
        <time>2025-02-02T22:15:50.018Z</time>
      </trkpt>
      <trkpt lat="59.37446697615087" lon="13.15088496543467">
        <ele>71.45</ele>
        <time>2025-02-02T22:15:54.057Z</time>
      </trkpt>
      <trkpt lat="59.374415930360556" lon="13.150767954066396">
        <ele>71.41</ele>
        <time>2025-02-02T22:15:58.098Z</time>
      </trkpt>
      <trkpt lat="59.37436396256089" lon="13.15064993686974">
        <ele>71.37</ele>
        <time>2025-02-02T22:16:02.140Z</time>
      </trkpt>
      <trkpt lat="59.37431098893285" lon="13.150530997663736">
        <ele>71.34</ele>
        <time>2025-02-02T22:16:06.183Z</time>
      </trkpt>
      <trkpt lat="59.37425893731415" lon="13.150412980467081">
        <ele>71.31</ele>
        <time>2025-02-02T22:16:10.227Z</time>
      </trkpt>
      <trkpt lat="59.37420696951449" lon="13.150295969098806">
        <ele>71.28</ele>
        <time>2025-02-02T22:16:14.273Z</time>
      </trkpt>
      <trkpt lat="59.374155923724174" lon="13.150178957730532">
        <ele>71.24</ele>
        <time>2025-02-02T22:16:18.320Z</time>
      </trkpt>
      <trkpt lat="59.37410596758127" lon="13.150060940533876">
        <ele>71.21</ele>
        <time>2025-02-02T22:16:22.368Z</time>
      </trkpt>
      <trkpt lat="59.37405894510448" lon="13.149942923337221">
        <ele>71.18</ele>
        <time>2025-02-02T22:16:26.417Z</time>
      </trkpt>
      <trkpt lat="59.37401192262769" lon="13.149823984131217">
        <ele>71.15</ele>
        <time>2025-02-02T22:16:30.468Z</time>
      </trkpt>
      <trkpt lat="59.37396498396993" lon="13.149704961106181">
        <ele>71.12</ele>
        <time>2025-02-02T22:16:34.520Z</time>
      </trkpt>
      <trkpt lat="59.373917961493134" lon="13.149583926424384">
        <ele>71.1</ele>
        <time>2025-02-02T22:16:38.573Z</time>
      </trkpt>
      <trkpt lat="59.37387093901634" lon="13.149459958076477">
        <ele>71.07</ele>
        <time>2025-02-02T22:16:42.627Z</time>
      </trkpt>
      <trkpt lat="59.37382592819631" lon="13.149333978071809">
        <ele>71.05</ele>
        <time>2025-02-02T22:16:46.683Z</time>
      </trkpt>
      <trkpt lat="59.37378292903304" lon="13.14920699223876">
        <ele>71.03</ele>
        <time>2025-02-02T22:16:50.740Z</time>
      </trkpt>
      <trkpt lat="59.37373992986977" lon="13.14907992258668">
        <ele>71.02</ele>
        <time>2025-02-02T22:16:54.798Z</time>
      </trkpt>
      <trkpt lat="59.37369793653488" lon="13.14895293675363">
        <ele>71.0</ele>
        <time>2025-02-02T22:16:58.857Z</time>
      </trkpt>
      <trkpt lat="59.37365694902837" lon="13.148824945092201">
        <ele>70.99</ele>
        <time>2025-02-02T22:17:02.918Z</time>
      </trkpt>
      <trkpt lat="59.373616967350245" lon="13.14869293011725">
        <ele>70.98</ele>
        <time>2025-02-02T22:17:06.980Z</time>
      </trkpt>
      <trkpt lat="59.373576985672116" lon="13.148557981476188">
        <ele>70.97</ele>
        <time>2025-02-02T22:17:11.043Z</time>
      </trkpt>
      <trkpt lat="59.373536920174956" lon="13.148423954844475">
        <ele>70.96</ele>
        <time>2025-02-02T22:17:15.107Z</time>
      </trkpt>
      <trkpt lat="59.37349794432521" lon="13.148288922384381">
        <ele>70.96</ele>
        <time>2025-02-02T22:17:19.173Z</time>
      </trkpt>
      <trkpt lat="59.37345896847546" lon="13.14815397374332">
        <ele>70.95</ele>
        <time>2025-02-02T22:17:23.240Z</time>
      </trkpt>
      <trkpt lat="59.373420998454094" lon="13.148018941283226">
        <ele>70.95</ele>
        <time>2025-02-02T22:17:27.308Z</time>
      </trkpt>
      <trkpt lat="59.373383950442076" lon="13.147883992642164">
        <ele>70.94</ele>
        <time>2025-02-02T22:17:31.378Z</time>
      </trkpt>
      <trkpt lat="59.37334698624909" lon="13.14774694852531">
        <ele>70.95</ele>
        <time>2025-02-02T22:17:35.449Z</time>
      </trkpt>
      <trkpt lat="59.37330993823707" lon="13.147608982399106">
        <ele>70.95</ele>
        <time>2025-02-02T22:17:39.521Z</time>
      </trkpt>
      <trkpt lat="59.373274985700846" lon="13.14747093245387">
        <ele>70.95</ele>
        <time>2025-02-02T22:17:43.594Z</time>
      </trkpt>
      <trkpt lat="59.37324196100235" lon="13.147330954670906">
        <ele>70.96</ele>
        <time>2025-02-02T22:17:47.669Z</time>
      </trkpt>
      <trkpt lat="59.373208936303854" lon="13.1471879594028">
        <ele>70.96</ele>
        <time>2025-02-02T22:17:51.745Z</time>
      </trkpt>
      <trkpt lat="59.37317691743374" lon="13.147045969963074">
        <ele>70.97</ele>
        <time>2025-02-02T22:17:55.822Z</time>
      </trkpt>
      <trkpt lat="59.373143976554275" lon="13.146902974694967">
        <ele>70.98</ele>
        <time>2025-02-02T22:17:59.900Z</time>
      </trkpt>
      <trkpt lat="59.37311195768416" lon="13.14675997942686">
        <ele>71.0</ele>
        <time>2025-02-02T22:18:03.980Z</time>
      </trkpt>
      <trkpt lat="59.373080944642425" lon="13.146615978330374">
        <ele>71.01</ele>
        <time>2025-02-02T22:18:08.061Z</time>
      </trkpt>
      <trkpt lat="59.37305093742907" lon="13.146471977233887">
        <ele>71.03</ele>
        <time>2025-02-02T22:18:12.143Z</time>
      </trkpt>
      <trkpt lat="59.3730219360441" lon="13.146325964480639">
        <ele>71.05</ele>
        <time>2025-02-02T22:18:16.227Z</time>
      </trkpt>
      <trkpt lat="59.372994946315885" lon="13.146182969212532">
        <ele>71.07</ele>
        <time>2025-02-02T22:18:20.312Z</time>
      </trkpt>
      <trkpt lat="59.37296896241605" lon="13.146041985601187">
        <ele>71.09</ele>
        <time>2025-02-02T22:18:24.398Z</time>
      </trkpt>
      <trkpt lat="59.37294297851622" lon="13.14589999616146">
        <ele>71.11</ele>
        <time>2025-02-02T22:18:28.485Z</time>
      </trkpt>
      <trkpt lat="59.3729199282825" lon="13.145758928731084">
        <ele>71.13</ele>
        <time>2025-02-02T22:18:32.573Z</time>
      </trkpt>
      <trkpt lat="59.37289696186781" lon="13.145615933462977">
        <ele>71.15</ele>
        <time>2025-02-02T22:18:36.663Z</time>
      </trkpt>
      <trkpt lat="59.37287399545312" lon="13.14546992070973">
        <ele>71.18</ele>
        <time>2025-02-02T22:18:40.754Z</time>
      </trkpt>
      <trkpt lat="59.37285195104778" lon="13.14531996846199">
        <ele>71.21</ele>
        <time>2025-02-02T22:18:44.846Z</time>
      </trkpt>
      <trkpt lat="59.37283292412758" lon="13.145167920738459">
        <ele>71.24</ele>
        <time>2025-02-02T22:18:48.940Z</time>
      </trkpt>
      <trkpt lat="59.37281398102641" lon="13.145015956833959">
        <ele>71.27</ele>
        <time>2025-02-02T22:18:53.035Z</time>
      </trkpt>
      <trkpt lat="59.37279495410621" lon="13.144862987101078">
        <ele>71.3</ele>
        <time>2025-02-02T22:18:57.131Z</time>
      </trkpt>
      <trkpt lat="59.37277592718601" lon="13.144708927720785">
        <ele>71.33</ele>
        <time>2025-02-02T22:19:01.228Z</time>
      </trkpt>
      <trkpt lat="59.372758995741606" lon="13.144557969644666">
        <ele>71.36</ele>
        <time>2025-02-02T22:19:05.327Z</time>
      </trkpt>
      <trkpt lat="59.37274198047817" lon="13.144406927749515">
        <ele>71.4</ele>
        <time>2025-02-02T22:19:09.427Z</time>
      </trkpt>
      <trkpt lat="59.37272597104311" lon="13.144257981330156">
        <ele>71.44</ele>
        <time>2025-02-02T22:19:13.528Z</time>
      </trkpt>
      <trkpt lat="59.37271096743643" lon="13.144109956920147">
        <ele>71.47</ele>
        <time>2025-02-02T22:19:17.630Z</time>
      </trkpt>
      <trkpt lat="59.372695963829756" lon="13.143961932510138">
        <ele>71.51</ele>
        <time>2025-02-02T22:19:21.734Z</time>
      </trkpt>
      <trkpt lat="59.37268096022308" lon="13.143808962777257">
        <ele>71.55</ele>
        <time>2025-02-02T22:19:25.839Z</time>
      </trkpt>
      <trkpt lat="59.37266796827316" lon="13.143656998872757">
        <ele>71.59</ele>
        <time>2025-02-02T22:19:29.945Z</time>
      </trkpt>
      <trkpt lat="59.37265598215163" lon="13.143505956977606">
        <ele>71.63</ele>
        <time>2025-02-02T22:19:34.052Z</time>
      </trkpt>
      <trkpt lat="59.37264491803944" lon="13.143353993073106">
        <ele>71.67</ele>
        <time>2025-02-02T22:19:38.161Z</time>
      </trkpt>
      <trkpt lat="59.372633937746286" lon="13.143200939521194">
        <ele>71.71</ele>
        <time>2025-02-02T22:19:42.271Z</time>
      </trkpt>
      <trkpt lat="59.37262195162475" lon="13.143051993101835">
        <ele>71.75</ele>
        <time>2025-02-02T22:19:46.382Z</time>
      </trkpt>
      <trkpt lat="59.37261197715998" lon="13.142908997833729">
        <ele>71.78</ele>
        <time>2025-02-02T22:19:50.494Z</time>
      </trkpt>
      <trkpt lat="59.37260292470455" lon="13.1427619792521">
        <ele>71.83</ele>
        <time>2025-02-02T22:19:54.608Z</time>
      </trkpt>
      <trkpt lat="59.37259395606816" lon="13.142614960670471">
        <ele>71.87</ele>
        <time>2025-02-02T22:19:58.723Z</time>
      </trkpt>
      <trkpt lat="59.372587921097875" lon="13.142467942088842">
        <ele>71.92</ele>
        <time>2025-02-02T22:20:02.839Z</time>
      </trkpt>
      <trkpt lat="59.37258096411824" lon="13.142320923507214">
        <ele>71.96</ele>
        <time>2025-02-02T22:20:06.956Z</time>
      </trkpt>
      <trkpt lat="59.37257694080472" lon="13.142178934067488">
        <ele>72.01</ele>
        <time>2025-02-02T22:20:11.074Z</time>
      </trkpt>
      <trkpt lat="59.3725729174912" lon="13.14203292131424">
        <ele>72.05</ele>
        <time>2025-02-02T22:20:15.194Z</time>
      </trkpt>
      <trkpt lat="59.37256998382509" lon="13.141886992380023">
        <ele>72.1</ele>
        <time>2025-02-02T22:20:19.315Z</time>
      </trkpt>
      <trkpt lat="59.37256897799671" lon="13.141737962141633">
        <ele>72.15</ele>
        <time>2025-02-02T22:20:23.437Z</time>
      </trkpt>
      <trkpt lat="59.37256897799671" lon="13.141588931903243">
        <ele>72.2</ele>
        <time>2025-02-02T22:20:27.560Z</time>
      </trkpt>
      <trkpt lat="59.37256897799671" lon="13.141437973827124">
        <ele>72.24</ele>
        <time>2025-02-02T22:20:31.684Z</time>
      </trkpt>
      <trkpt lat="59.37256998382509" lon="13.141293972730637">
        <ele>72.29</ele>
        <time>2025-02-02T22:20:35.810Z</time>
      </trkpt>
      <trkpt lat="59.37257098965347" lon="13.14114997163415">
        <ele>72.34</ele>
        <time>2025-02-02T22:20:39.937Z</time>
      </trkpt>
      <trkpt lat="59.37257098965347" lon="13.141007982194424">
        <ele>72.39</ele>
        <time>2025-02-02T22:20:44.065Z</time>
      </trkpt>
      <trkpt lat="59.37256998382509" lon="13.140866998583078">
        <ele>72.43</ele>
        <time>2025-02-02T22:20:48.194Z</time>
      </trkpt>
      <trkpt lat="59.37256998382509" lon="13.140729954466224">
        <ele>72.48</ele>
        <time>2025-02-02T22:20:52.324Z</time>
      </trkpt>
      <trkpt lat="59.37257098965347" lon="13.14059492200613">
        <ele>72.53</ele>
        <time>2025-02-02T22:20:56.455Z</time>
      </trkpt>
      <trkpt lat="59.37256998382509" lon="13.140459973365068">
        <ele>72.57</ele>
        <time>2025-02-02T22:21:00.587Z</time>
      </trkpt>
      <trkpt lat="59.372566966339946" lon="13.140330975875258">
        <ele>72.62</ele>
        <time>2025-02-02T22:21:04.721Z</time>
      </trkpt>
      <trkpt lat="59.37255992554128" lon="13.14020499587059">
        <ele>72.67</ele>
        <time>2025-02-02T22:21:08.856Z</time>
      </trkpt>
      <trkpt lat="59.372547939419746" lon="13.140088990330696">
        <ele>72.72</ele>
        <time>2025-02-02T22:21:12.992Z</time>
      </trkpt>
      <trkpt lat="59.37253293581307" lon="13.139980947598815">
        <ele>72.77</ele>
        <time>2025-02-02T22:21:17.128Z</time>
      </trkpt>
      <trkpt lat="59.37251298688352" lon="13.139877934008837">
        <ele>72.81</ele>
        <time>2025-02-02T22:21:21.265Z</time>
      </trkpt>
      <trkpt lat="59.37248792499304" lon="13.139777937904">
        <ele>72.86</ele>
        <time>2025-02-02T22:21:25.403Z</time>
      </trkpt>
      <trkpt lat="59.372456995770335" lon="13.139683976769447">
        <ele>72.9</ele>
        <time>2025-02-02T22:21:29.542Z</time>
      </trkpt>
      <trkpt lat="59.37241994775832" lon="13.139594960957766">
        <ele>72.94</ele>
        <time>2025-02-02T22:21:33.682Z</time>
      </trkpt>
      <trkpt lat="59.37237996608019" lon="13.139506950974464">
        <ele>72.98</ele>
        <time>2025-02-02T22:21:37.823Z</time>
      </trkpt>
      <trkpt lat="59.37233897857368" lon="13.139417935162783">
        <ele>73.02</ele>
        <time>2025-02-02T22:21:41.965Z</time>
      </trkpt>
      <trkpt lat="59.3722999189049" lon="13.139327997341752">
        <ele>73.05</ele>
        <time>2025-02-02T22:21:46.108Z</time>
      </trkpt>
      <trkpt lat="59.372265972197056" lon="13.139231940731406">
        <ele>73.09</ele>
        <time>2025-02-02T22:21:50.252Z</time>
      </trkpt>
      <trkpt lat="59.372243927791715" lon="13.139123981818557">
        <ele>73.13</ele>
        <time>2025-02-02T22:21:54.397Z</time>
      </trkpt>
      <trkpt lat="59.372239988297224" lon="13.13900395296514">
        <ele>73.16</ele>
        <time>2025-02-02T22:21:58.543Z</time>
      </trkpt>
      <trkpt lat="59.37225398607552" lon="13.138880990445614">
        <ele>73.19</ele>
        <time>2025-02-02T22:22:02.690Z</time>
      </trkpt>
      <trkpt lat="59.37227996997535" lon="13.138760961592197">
        <ele>73.22</ele>
        <time>2025-02-02T22:22:06.838Z</time>
      </trkpt>
      <trkpt lat="59.37231198884547" lon="13.138643950223923">
        <ele>73.26</ele>
        <time>2025-02-02T22:22:10.987Z</time>
      </trkpt>
      <trkpt lat="59.37234392389655" lon="13.138524927198887">
        <ele>73.29</ele>
        <time>2025-02-02T22:22:15.137Z</time>
      </trkpt>
      <trkpt lat="59.37237795442343" lon="13.1383999530226">
        <ele>73.32</ele>
        <time>2025-02-02T22:22:19.288Z</time>
      </trkpt>
      <trkpt lat="59.37240896746516" lon="13.13827196136117">
        <ele>73.34</ele>
        <time>2025-02-02T22:22:23.441Z</time>
      </trkpt>
      <trkpt lat="59.372438974678516" lon="13.13814296387136">
        <ele>73.36</ele>
        <time>2025-02-02T22:22:27.595Z</time>
      </trkpt>
      <trkpt lat="59.37246495857835" lon="13.13801497220993">
        <ele>73.38</ele>
        <time>2025-02-02T22:22:31.750Z</time>
      </trkpt>
      <trkpt lat="59.37249094247818" lon="13.137887986376882">
        <ele>73.41</ele>
        <time>2025-02-02T22:22:35.906Z</time>
      </trkpt>
      <trkpt lat="59.37251499854028" lon="13.137758988887072">
        <ele>73.42</ele>
        <time>2025-02-02T22:22:40.063Z</time>
      </trkpt>
      <trkpt lat="59.37253595329821" lon="13.1376279797405">
        <ele>73.44</ele>
        <time>2025-02-02T22:22:44.221Z</time>
      </trkpt>
      <trkpt lat="59.37255498021841" lon="13.13749697059393">
        <ele>73.46</ele>
        <time>2025-02-02T22:22:48.380Z</time>
      </trkpt>
      <trkpt lat="59.37257199548185" lon="13.137362943962216">
        <ele>73.47</ele>
        <time>2025-02-02T22:22:52.540Z</time>
      </trkpt>
      <trkpt lat="59.372585993260145" lon="13.137228917330503">
        <ele>73.48</ele>
        <time>2025-02-02T22:22:56.702Z</time>
      </trkpt>
      <trkpt lat="59.37259797938168" lon="13.137094974517822">
        <ele>73.49</ele>
        <time>2025-02-02T22:23:00.865Z</time>
      </trkpt>
      <trkpt lat="59.372607953846455" lon="13.13696094788611">
        <ele>73.49</ele>
        <time>2025-02-02T22:23:05.029Z</time>
      </trkpt>
      <trkpt lat="59.37261591665447" lon="13.136826921254396">
        <ele>73.49</ele>
        <time>2025-02-02T22:23:09.194Z</time>
      </trkpt>
      <trkpt lat="59.37262295745313" lon="13.136692978441715">
        <ele>73.49</ele>
        <time>2025-02-02T22:23:13.360Z</time>
      </trkpt>
      <trkpt lat="59.372627986595035" lon="13.136558951810002">
        <ele>73.48</ele>
        <time>2025-02-02T22:23:17.527Z</time>
      </trkpt>
      <trkpt lat="59.372630920261145" lon="13.13642593100667">
        <ele>73.47</ele>
        <time>2025-02-02T22:23:21.695Z</time>
      </trkpt>
      <trkpt lat="59.372631926089525" lon="13.13629299402237">
        <ele>73.47</ele>
        <time>2025-02-02T22:23:25.864Z</time>
      </trkpt>
      <trkpt lat="59.372630920261145" lon="13.136160979047418">
        <ele>73.45</ele>
        <time>2025-02-02T22:23:30.034Z</time>
      </trkpt>
      <trkpt lat="59.372626980766654" lon="13.136029969900846">
        <ele>73.44</ele>
        <time>2025-02-02T22:23:34.205Z</time>
      </trkpt>
      <trkpt lat="59.37261993996799" lon="13.135898960754275">
        <ele>73.42</ele>
        <time>2025-02-02T22:23:38.377Z</time>
      </trkpt>
      <trkpt lat="59.372609965503216" lon="13.135766945779324">
        <ele>73.39</ele>
        <time>2025-02-02T22:23:42.551Z</time>
      </trkpt>
      <trkpt lat="59.37259797938168" lon="13.135636942461133">
        <ele>73.36</ele>
        <time>2025-02-02T22:23:46.726Z</time>
      </trkpt>
      <trkpt lat="59.372584987431765" lon="13.135506939142942">
        <ele>73.33</ele>
        <time>2025-02-02T22:23:50.902Z</time>
      </trkpt>
      <trkpt lat="59.37257199548185" lon="13.135377941653132">
        <ele>73.29</ele>
        <time>2025-02-02T22:23:55.079Z</time>
      </trkpt>
      <trkpt lat="59.37255498021841" lon="13.135246932506561">
        <ele>73.26</ele>
        <time>2025-02-02T22:23:59.257Z</time>
      </trkpt>
      <trkpt lat="59.37253695912659" lon="13.13511592335999">
        <ele>73.21</ele>
        <time>2025-02-02T22:24:03.436Z</time>
      </trkpt>
      <trkpt lat="59.37251793220639" lon="13.13498399220407">
        <ele>73.16</ele>
        <time>2025-02-02T22:24:07.616Z</time>
      </trkpt>
      <trkpt lat="59.37249597162008" lon="13.13485398888588">
        <ele>73.11</ele>
        <time>2025-02-02T22:24:11.797Z</time>
      </trkpt>
      <trkpt lat="59.37247392721474" lon="13.134722979739308">
        <ele>73.06</ele>
        <time>2025-02-02T22:24:15.979Z</time>
      </trkpt>
      <trkpt lat="59.37245196662843" lon="13.134588953107595">
        <ele>73.0</ele>
        <time>2025-02-02T22:24:20.163Z</time>
      </trkpt>
      <trkpt lat="59.37242891639471" lon="13.134454926475883">
        <ele>72.93</ele>
        <time>2025-02-02T22:24:24.348Z</time>
      </trkpt>
      <trkpt lat="59.37240393832326" lon="13.13431997783482">
        <ele>72.86</ele>
        <time>2025-02-02T22:24:28.534Z</time>
      </trkpt>
      <trkpt lat="59.37237996608019" lon="13.134185951203108">
        <ele>72.78</ele>
        <time>2025-02-02T22:24:32.721Z</time>
      </trkpt>
      <trkpt lat="59.37235599383712" lon="13.134050918743014">
        <ele>72.71</ele>
        <time>2025-02-02T22:24:36.909Z</time>
      </trkpt>
      <trkpt lat="59.372329926118255" lon="13.133914964273572">
        <ele>72.62</ele>
        <time>2025-02-02T22:24:41.098Z</time>
      </trkpt>
      <trkpt lat="59.37230293639004" lon="13.133778925985098">
        <ele>72.54</ele>
        <time>2025-02-02T22:24:45.289Z</time>
      </trkpt>
      <trkpt lat="59.37227594666183" lon="13.133642971515656">
        <ele>72.45</ele>
        <time>2025-02-02T22:24:49.481Z</time>
      </trkpt>
      <trkpt lat="59.37224795110524" lon="13.1335059273988">
        <ele>72.36</ele>
        <time>2025-02-02T22:24:53.674Z</time>
      </trkpt>
      <trkpt lat="59.37221894972026" lon="13.133370978757739">
        <ele>72.27</ele>
        <time>2025-02-02T22:24:57.868Z</time>
      </trkpt>
      <trkpt lat="59.37218894250691" lon="13.133234940469265">
        <ele>72.17</ele>
        <time>2025-02-02T22:25:02.063Z</time>
      </trkpt>
      <trkpt lat="59.372157929465175" lon="13.133096974343061">
        <ele>72.06</ele>
        <time>2025-02-02T22:25:06.260Z</time>
      </trkpt>
      <trkpt lat="59.37212599441409" lon="13.132957918569446">
        <ele>71.96</ele>
        <time>2025-02-02T22:25:10.458Z</time>
      </trkpt>
      <trkpt lat="59.372092969715595" lon="13.132819952443242">
        <ele>71.85</ele>
        <time>2025-02-02T22:25:14.657Z</time>
      </trkpt>
      <trkpt lat="59.37205793336034" lon="13.13268299214542">
        <ele>71.73</ele>
        <time>2025-02-02T22:25:18.857Z</time>
      </trkpt>
      <trkpt lat="59.37202096916735" lon="13.132549971342087">
        <ele>71.61</ele>
        <time>2025-02-02T22:25:23.059Z</time>
      </trkpt>
      <trkpt lat="59.371981993317604" lon="13.132415944710374">
        <ele>71.5</ele>
        <time>2025-02-02T22:25:27.262Z</time>
      </trkpt>
      <trkpt lat="59.371942933648825" lon="13.132281918078661">
        <ele>71.38</ele>
        <time>2025-02-02T22:25:31.466Z</time>
      </trkpt>
      <trkpt lat="59.3719029519707" lon="13.1321469694376">
        <ele>71.25</ele>
        <time>2025-02-02T22:25:35.671Z</time>
      </trkpt>
      <trkpt lat="59.37186196446419" lon="13.132009925320745">
        <ele>71.12</ele>
        <time>2025-02-02T22:25:39.878Z</time>
      </trkpt>
      <trkpt lat="59.37182097695768" lon="13.13187095336616">
        <ele>70.99</ele>
        <time>2025-02-02T22:25:44.086Z</time>
      </trkpt>
      <trkpt lat="59.37177697196603" lon="13.131732987239957">
        <ele>70.85</ele>
        <time>2025-02-02T22:25:48.295Z</time>
      </trkpt>
      <trkpt lat="59.37173095531762" lon="13.131594937294722">
        <ele>70.72</ele>
        <time>2025-02-02T22:25:52.506Z</time>
      </trkpt>
      <trkpt lat="59.371684938669205" lon="13.13145898282528">
        <ele>70.57</ele>
        <time>2025-02-02T22:25:56.718Z</time>
      </trkpt>
      <trkpt lat="59.37163699418306" lon="13.131320932880044">
        <ele>70.42</ele>
        <time>2025-02-02T22:26:00.931Z</time>
      </trkpt>
      <trkpt lat="59.37158695422113" lon="13.13118196092546">
        <ele>70.27</ele>
        <time>2025-02-02T22:26:05.146Z</time>
      </trkpt>
      <trkpt lat="59.37153599224985" lon="13.131041983142495">
        <ele>70.12</ele>
        <time>2025-02-02T22:26:09.362Z</time>
      </trkpt>
      <trkpt lat="59.37148394063115" lon="13.13090292736888">
        <ele>69.96</ele>
        <time>2025-02-02T22:26:13.580Z</time>
      </trkpt>
      <trkpt lat="59.37143096700311" lon="13.130762949585915">
        <ele>69.81</ele>
        <time>2025-02-02T22:26:17.799Z</time>
      </trkpt>
      <trkpt lat="59.37137497588992" lon="13.130624983459711">
        <ele>69.65</ele>
        <time>2025-02-02T22:26:22.020Z</time>
      </trkpt>
      <trkpt lat="59.371317978948355" lon="13.130487939342856">
        <ele>69.49</ele>
        <time>2025-02-02T22:26:26.242Z</time>
      </trkpt>
      <trkpt lat="59.37126198783517" lon="13.130347961559892">
        <ele>69.33</ele>
        <time>2025-02-02T22:26:30.465Z</time>
      </trkpt>
      <trkpt lat="59.37120599672198" lon="13.130204966291785">
        <ele>69.16</ele>
        <time>2025-02-02T22:26:34.690Z</time>
      </trkpt>
      <trkpt lat="59.371150927618146" lon="13.130060965195298">
        <ele>68.99</ele>
        <time>2025-02-02T22:26:38.916Z</time>
      </trkpt>
      <trkpt lat="59.37109493650496" lon="13.129918975755572">
        <ele>68.82</ele>
        <time>2025-02-02T22:26:43.144Z</time>
      </trkpt>
      <trkpt lat="59.371037939563394" lon="13.129773968830705">
        <ele>68.64</ele>
        <time>2025-02-02T22:26:47.373Z</time>
      </trkpt>
      <trkpt lat="59.37098094262183" lon="13.129624938592315">
        <ele>68.46</ele>
        <time>2025-02-02T22:26:51.604Z</time>
      </trkpt>
      <trkpt lat="59.37091992236674" lon="13.129475992172956">
        <ele>68.27</ele>
        <time>2025-02-02T22:26:55.836Z</time>
      </trkpt>
      <trkpt lat="59.37085697427392" lon="13.129324950277805">
        <ele>68.08</ele>
        <time>2025-02-02T22:27:00.070Z</time>
      </trkpt>
      <trkpt lat="59.37079494819045" lon="13.129170974716544">
        <ele>67.9</ele>
        <time>2025-02-02T22:27:04.306Z</time>
      </trkpt>
      <trkpt lat="59.37073292210698" lon="13.129013981670141">
        <ele>67.71</ele>
        <time>2025-02-02T22:27:08.543Z</time>
      </trkpt>
      <trkpt lat="59.370670979842544" lon="13.128854976966977">
        <ele>67.51</ele>
        <time>2025-02-02T22:27:12.782Z</time>
      </trkpt>
      <trkpt lat="59.37060694210231" lon="13.128694966435432">
        <ele>67.32</ele>
        <time>2025-02-02T22:27:17.023Z</time>
      </trkpt>
      <trkpt lat="59.37053997069597" lon="13.128534955903888">
        <ele>67.12</ele>
        <time>2025-02-02T22:27:21.265Z</time>
      </trkpt>
      <trkpt lat="59.37047392129898" lon="13.128372933715582">
        <ele>66.91</ele>
        <time>2025-02-02T22:27:25.509Z</time>
      </trkpt>
      <trkpt lat="59.37040996737778" lon="13.128207977861166">
        <ele>66.7</ele>
        <time>2025-02-02T22:27:29.755Z</time>
      </trkpt>
      <trkpt lat="59.37034592963755" lon="13.12804494984448">
        <ele>66.49</ele>
        <time>2025-02-02T22:27:34.002Z</time>
      </trkpt>
      <trkpt lat="59.37028096988797" lon="13.127880999818444">
        <ele>66.28</ele>
        <time>2025-02-02T22:27:38.251Z</time>
      </trkpt>
      <trkpt lat="59.37021592631936" lon="13.127718977630138">
        <ele>66.08</ele>
        <time>2025-02-02T22:27:42.502Z</time>
      </trkpt>
      <trkpt lat="59.3701499607414" lon="13.127558967098594">
        <ele>65.88</ele>
        <time>2025-02-02T22:27:46.754Z</time>
      </trkpt>
      <trkpt lat="59.37008399516344" lon="13.12739996239543">
        <ele>65.69</ele>
        <time>2025-02-02T22:27:51.008Z</time>
      </trkpt>
      <trkpt lat="59.37001895159483" lon="13.127238946035504">
        <ele>65.49</ele>
        <time>2025-02-02T22:27:55.264Z</time>
      </trkpt>
      <trkpt lat="59.36995399184525" lon="13.127074996009469">
        <ele>65.29</ele>
        <time>2025-02-02T22:27:59.521Z</time>
      </trkpt>
      <trkpt lat="59.36988894827664" lon="13.126912973821163">
        <ele>65.08</ele>
        <time>2025-02-02T22:28:03.780Z</time>
      </trkpt>
      <trkpt lat="59.36982298269868" lon="13.126751957461238">
        <ele>64.88</ele>
        <time>2025-02-02T22:28:08.041Z</time>
      </trkpt>
      <trkpt lat="59.36975693330169" lon="13.126588929444551">
        <ele>64.68</ele>
        <time>2025-02-02T22:28:12.304Z</time>
      </trkpt>
      <trkpt lat="59.36969096772373" lon="13.126425985246897">
        <ele>64.47</ele>
        <time>2025-02-02T22:28:16.568Z</time>
      </trkpt>
      <trkpt lat="59.369624918326735" lon="13.126264968886971">
        <ele>64.27</ele>
        <time>2025-02-02T22:28:20.834Z</time>
      </trkpt>
      <trkpt lat="59.369559958577156" lon="13.126105964183807">
        <ele>64.06</ele>
        <time>2025-02-02T22:28:25.102Z</time>
      </trkpt>
      <trkpt lat="59.369495920836926" lon="13.125948971137404">
        <ele>63.85</ele>
        <time>2025-02-02T22:28:29.371Z</time>
      </trkpt>
      <trkpt lat="59.36943297274411" lon="13.125795917585492">
        <ele>63.65</ele>
        <time>2025-02-02T22:28:33.642Z</time>
      </trkpt>
      <trkpt lat="59.36937195248902" lon="13.125642947852612">
        <ele>63.45</ele>
        <time>2025-02-02T22:28:37.914Z</time>
      </trkpt>
      <trkpt lat="59.36930992640555" lon="13.12548897229135">
        <ele>63.25</ele>
        <time>2025-02-02T22:28:42.188Z</time>
      </trkpt>
      <trkpt lat="59.36924898996949" lon="13.12533499673009">
        <ele>63.05</ele>
        <time>2025-02-02T22:28:46.464Z</time>
      </trkpt>
      <trkpt lat="59.36918696388602" lon="13.125180937349796">
        <ele>62.85</ele>
        <time>2025-02-02T22:28:50.741Z</time>
      </trkpt>
      <trkpt lat="59.369125943630934" lon="13.125028973445296">
        <ele>62.65</ele>
        <time>2025-02-02T22:28:55.020Z</time>
      </trkpt>
      <trkpt lat="59.369063917547464" lon="13.124878937378526">
        <ele>62.44</ele>
        <time>2025-02-02T22:28:59.300Z</time>
      </trkpt>
      <trkpt lat="59.36900197528303" lon="13.124730996787548">
        <ele>62.24</ele>
        <time>2025-02-02T22:29:03.582Z</time>
      </trkpt>
      <trkpt lat="59.36893894337118" lon="13.12458598986268">
        <ele>62.04</ele>
        <time>2025-02-02T22:29:07.866Z</time>
      </trkpt>
      <trkpt lat="59.36887892894447" lon="13.124440982937813">
        <ele>61.85</ele>
        <time>2025-02-02T22:29:12.151Z</time>
      </trkpt>
      <trkpt lat="59.36881992034614" lon="13.124295976012945">
        <ele>61.65</ele>
        <time>2025-02-02T22:29:16.438Z</time>
      </trkpt>
      <trkpt lat="59.368759989738464" lon="13.124146945774555">
        <ele>61.46</ele>
        <time>2025-02-02T22:29:20.726Z</time>
      </trkpt>
      <trkpt lat="59.36870198696852" lon="13.124001938849688">
        <ele>61.26</ele>
        <time>2025-02-02T22:29:25.016Z</time>
      </trkpt>
      <trkpt lat="59.36864398419857" lon="13.12385399825871">
        <ele>61.07</ele>
        <time>2025-02-02T22:29:29.307Z</time>
      </trkpt>
      <trkpt lat="59.36858598142862" lon="13.123706979677081">
        <ele>60.88</ele>
        <time>2025-02-02T22:29:33.600Z</time>
      </trkpt>
      <trkpt lat="59.368526972830296" lon="13.123558955267072">
        <ele>60.7</ele>
        <time>2025-02-02T22:29:37.894Z</time>
      </trkpt>
      <trkpt lat="59.36846796423197" lon="13.123409925028682">
        <ele>60.51</ele>
        <time>2025-02-02T22:29:42.190Z</time>
      </trkpt>
      <trkpt lat="59.36840895563364" lon="13.123260978609324">
        <ele>60.32</ele>
        <time>2025-02-02T22:29:46.487Z</time>
      </trkpt>
      <trkpt lat="59.36834793537855" lon="13.123114965856075">
        <ele>60.13</ele>
        <time>2025-02-02T22:29:50.786Z</time>
      </trkpt>
      <trkpt lat="59.368286998942494" lon="13.12297297641635">
        <ele>59.95</ele>
        <time>2025-02-02T22:29:55.086Z</time>
      </trkpt>
      <trkpt lat="59.368226984515786" lon="13.122829981148243">
        <ele>59.76</ele>
        <time>2025-02-02T22:29:59.388Z</time>
      </trkpt>
      <trkpt lat="59.36816797591746" lon="13.122685980051756">
        <ele>59.58</ele>
        <time>2025-02-02T22:30:03.691Z</time>
      </trkpt>
      <trkpt lat="59.36810997314751" lon="13.12254499644041">
        <ele>59.4</ele>
        <time>2025-02-02T22:30:07.996Z</time>
      </trkpt>
      <trkpt lat="59.368050964549184" lon="13.122406946495175">
        <ele>59.22</ele>
        <time>2025-02-02T22:30:12.302Z</time>
      </trkpt>
      <trkpt lat="59.36799296177924" lon="13.12226495705545">
        <ele>59.03</ele>
        <time>2025-02-02T22:30:16.610Z</time>
      </trkpt>
      <trkpt lat="59.36793797649443" lon="13.12211592681706">
        <ele>58.86</ele>
        <time>2025-02-02T22:30:20.919Z</time>
      </trkpt>
      <trkpt lat="59.367881985381246" lon="13.12196496874094">
        <ele>58.68</ele>
        <time>2025-02-02T22:30:25.230Z</time>
      </trkpt>
      <trkpt lat="59.36782297678292" lon="13.121812921017408">
        <ele>58.51</ele>
        <time>2025-02-02T22:30:29.542Z</time>
      </trkpt>
      <trkpt lat="59.36776396818459" lon="13.121659951284528">
        <ele>58.34</ele>
        <time>2025-02-02T22:30:33.856Z</time>
      </trkpt>
      <trkpt lat="59.3677029479295" lon="13.121502958238125">
        <ele>58.17</ele>
        <time>2025-02-02T22:30:38.172Z</time>
      </trkpt>
      <trkpt lat="59.36764192767441" lon="13.121346971020103">
        <ele>58.01</ele>
        <time>2025-02-02T22:30:42.489Z</time>
      </trkpt>
      <trkpt lat="59.367580991238356" lon="13.12119098380208">
        <ele>57.84</ele>
        <time>2025-02-02T22:30:46.808Z</time>
      </trkpt>
      <trkpt lat="59.367517959326506" lon="13.121037930250168">
        <ele>57.68</ele>
        <time>2025-02-02T22:30:51.128Z</time>
      </trkpt>
      <trkpt lat="59.36745693907142" lon="13.120885966345668">
        <ele>57.52</ele>
        <time>2025-02-02T22:30:55.450Z</time>
      </trkpt>
      <trkpt lat="59.36739591881633" lon="13.120732996612787">
        <ele>57.36</ele>
        <time>2025-02-02T22:30:59.774Z</time>
      </trkpt>
      <trkpt lat="59.36733498238027" lon="13.120580948889256">
        <ele>57.21</ele>
        <time>2025-02-02T22:31:04.099Z</time>
      </trkpt>
      <trkpt lat="59.36727396212518" lon="13.120430996641517">
        <ele>57.05</ele>
        <time>2025-02-02T22:31:08.426Z</time>
      </trkpt>
      <trkpt lat="59.367213947698474" lon="13.120283978059888">
        <ele>56.9</ele>
        <time>2025-02-02T22:31:12.754Z</time>
      </trkpt>
      <trkpt lat="59.367154939100146" lon="13.12013897113502">
        <ele>56.75</ele>
        <time>2025-02-02T22:31:17.084Z</time>
      </trkpt>
      <trkpt lat="59.3670969363302" lon="13.119994970038533">
        <ele>56.61</ele>
        <time>2025-02-02T22:31:21.415Z</time>
      </trkpt>
      <trkpt lat="59.36703893356025" lon="13.119849963113666">
        <ele>56.46</ele>
        <time>2025-02-02T22:31:25.748Z</time>
      </trkpt>
      <trkpt lat="59.366981936618686" lon="13.119703950360417">
        <ele>56.32</ele>
        <time>2025-02-02T22:31:30.082Z</time>
      </trkpt>
      <trkpt lat="59.36692493967712" lon="13.11955894343555">
        <ele>56.17</ele>
        <time>2025-02-02T22:31:34.418Z</time>
      </trkpt>
      <trkpt lat="59.36686693690717" lon="13.119416953995824">
        <ele>56.03</ele>
        <time>2025-02-02T22:31:38.755Z</time>
      </trkpt>
      <trkpt lat="59.366806922480464" lon="13.11927798204124">
        <ele>55.89</ele>
        <time>2025-02-02T22:31:43.094Z</time>
      </trkpt>
      <trkpt lat="59.36674799770117" lon="13.119140937924385">
        <ele>55.75</ele>
        <time>2025-02-02T22:31:47.434Z</time>
      </trkpt>
      <trkpt lat="59.36668999493122" lon="13.119003977626562">
        <ele>55.62</ele>
        <time>2025-02-02T22:31:51.776Z</time>
      </trkpt>
      <trkpt lat="59.366632997989655" lon="13.118865927681327">
        <ele>55.49</ele>
        <time>2025-02-02T22:31:56.119Z</time>
      </trkpt>
      <trkpt lat="59.36657692305744" lon="13.118727961555123">
        <ele>55.36</ele>
        <time>2025-02-02T22:32:00.464Z</time>
      </trkpt>
      <trkpt lat="59.36652093194425" lon="13.118587983772159">
        <ele>55.23</ele>
        <time>2025-02-02T22:32:04.810Z</time>
      </trkpt>
      <trkpt lat="59.366463935002685" lon="13.118449933826923">
        <ele>55.11</ele>
        <time>2025-02-02T22:32:09.158Z</time>
      </trkpt>
      <trkpt lat="59.3664079438895" lon="13.118308950215578">
        <ele>54.99</ele>
        <time>2025-02-02T22:32:13.507Z</time>
      </trkpt>
      <trkpt lat="59.36635295860469" lon="13.118166960775852">
        <ele>54.87</ele>
        <time>2025-02-02T22:32:17.858Z</time>
      </trkpt>
      <trkpt lat="59.36629696749151" lon="13.118023965507746">
        <ele>54.75</ele>
        <time>2025-02-02T22:32:22.210Z</time>
      </trkpt>
      <trkpt lat="59.36623997054994" lon="13.11788197606802">
        <ele>54.63</ele>
        <time>2025-02-02T22:32:26.563Z</time>
      </trkpt>
      <trkpt lat="59.366183979436755" lon="13.117738980799913">
        <ele>54.52</ele>
        <time>2025-02-02T22:32:30.918Z</time>
      </trkpt>
      <trkpt lat="59.36612698249519" lon="13.117594979703426">
        <ele>54.41</ele>
        <time>2025-02-02T22:32:35.274Z</time>
      </trkpt>
      <trkpt lat="59.36606897972524" lon="13.117449972778559">
        <ele>54.29</ele>
        <time>2025-02-02T22:32:39.632Z</time>
      </trkpt>
      <trkpt lat="59.366010976955295" lon="13.117305971682072">
        <ele>54.19</ele>
        <time>2025-02-02T22:32:43.991Z</time>
      </trkpt>
      <trkpt lat="59.36595297418535" lon="13.117161970585585">
        <ele>54.08</ele>
        <time>2025-02-02T22:32:48.352Z</time>
      </trkpt>
      <trkpt lat="59.36589597724378" lon="13.117018975317478">
        <ele>53.97</ele>
        <time>2025-02-02T22:32:52.714Z</time>
      </trkpt>
      <trkpt lat="59.365837974473834" lon="13.116877991706133">
        <ele>53.86</ele>
        <time>2025-02-02T22:32:57.078Z</time>
      </trkpt>
      <trkpt lat="59.36578198336065" lon="13.116737930104136">
        <ele>53.76</ele>
        <time>2025-02-02T22:33:01.443Z</time>
      </trkpt>
      <trkpt lat="59.36572699807584" lon="13.116598958149552">
        <ele>53.66</ele>
        <time>2025-02-02T22:33:05.810Z</time>
      </trkpt>
      <trkpt lat="59.365670923143625" lon="13.11646199785173">
        <ele>53.57</ele>
        <time>2025-02-02T22:33:10.178Z</time>
      </trkpt>
      <trkpt lat="59.36561593785882" lon="13.116325959563255">
        <ele>53.47</ele>
        <time>2025-02-02T22:33:14.548Z</time>
      </trkpt>
      <trkpt lat="59.365560952574015" lon="13.116189921274781">
        <ele>53.39</ele>
        <time>2025-02-02T22:33:18.919Z</time>
      </trkpt>
      <trkpt lat="59.36550496146083" lon="13.1160559784621">
        <ele>53.3</ele>
        <time>2025-02-02T22:33:23.292Z</time>
      </trkpt>
      <trkpt lat="59.36544897034764" lon="13.115921951830387">
        <ele>53.21</ele>
        <time>2025-02-02T22:33:27.666Z</time>
      </trkpt>
      <trkpt lat="59.36539297923446" lon="13.115787925198674">
        <ele>53.13</ele>
        <time>2025-02-02T22:33:32.041Z</time>
      </trkpt>
      <trkpt lat="59.36533598229289" lon="13.115655994042754">
        <ele>53.05</ele>
        <time>2025-02-02T22:33:36.418Z</time>
      </trkpt>
      <trkpt lat="59.36527797952294" lon="13.115525990724564">
        <ele>52.96</ele>
        <time>2025-02-02T22:33:40.796Z</time>
      </trkpt>
      <trkpt lat="59.365218970924616" lon="13.115397999063134">
        <ele>52.88</ele>
        <time>2025-02-02T22:33:45.176Z</time>
      </trkpt>
      <trkpt lat="59.36515996232629" lon="13.115272941067815">
        <ele>52.79</ele>
        <time>2025-02-02T22:33:49.557Z</time>
      </trkpt>
      <trkpt lat="59.36510095372796" lon="13.115148972719908">
        <ele>52.71</ele>
        <time>2025-02-02T22:33:53.939Z</time>
      </trkpt>
      <trkpt lat="59.36504093930125" lon="13.11502693220973">
        <ele>52.62</ele>
        <time>2025-02-02T22:33:58.323Z</time>
      </trkpt>
      <trkpt lat="59.364980924874544" lon="13.114903969690204">
        <ele>52.54</ele>
        <time>2025-02-02T22:34:02.708Z</time>
      </trkpt>
      <trkpt lat="59.36491898261011" lon="13.114782935008407">
        <ele>52.46</ele>
        <time>2025-02-02T22:34:07.095Z</time>
      </trkpt>
      <trkpt lat="59.36485595069826" lon="13.114665923640132">
        <ele>52.38</ele>
        <time>2025-02-02T22:34:11.483Z</time>
      </trkpt>
      <trkpt lat="59.36479199677706" lon="13.114551929756999">
        <ele>52.3</ele>
        <time>2025-02-02T22:34:15.872Z</time>
      </trkpt>
      <trkpt lat="59.36472695320845" lon="13.114439947530627">
        <ele>52.22</ele>
        <time>2025-02-02T22:34:20.263Z</time>
      </trkpt>
      <trkpt lat="59.36466199345887" lon="13.114323941990733">
        <ele>52.15</ele>
        <time>2025-02-02T22:34:24.655Z</time>
      </trkpt>
      <trkpt lat="59.364595944061875" lon="13.11420894227922">
        <ele>52.09</ele>
        <time>2025-02-02T22:34:29.049Z</time>
      </trkpt>
      <trkpt lat="59.364526960998774" lon="13.114095954224467">
        <ele>52.02</ele>
        <time>2025-02-02T22:34:33.444Z</time>
      </trkpt>
      <trkpt lat="59.36445797793567" lon="13.113986989483237">
        <ele>51.96</ele>
        <time>2025-02-02T22:34:37.840Z</time>
      </trkpt>
      <trkpt lat="59.36438798904419" lon="13.113879952579737">
        <ele>51.89</ele>
        <time>2025-02-02T22:34:42.238Z</time>
      </trkpt>
      <trkpt lat="59.364317916333675" lon="13.113774927332997">
        <ele>51.83</ele>
        <time>2025-02-02T22:34:46.637Z</time>
      </trkpt>
      <trkpt lat="59.364249939098954" lon="13.1136729195714">
        <ele>51.77</ele>
        <time>2025-02-02T22:34:51.038Z</time>
      </trkpt>
      <trkpt lat="59.36418196186423" lon="13.113570995628834">
        <ele>51.72</ele>
        <time>2025-02-02T22:34:55.440Z</time>
      </trkpt>
      <trkpt lat="59.36411297880113" lon="13.113470999523997">
        <ele>51.66</ele>
        <time>2025-02-02T22:34:59.843Z</time>
      </trkpt>
      <trkpt lat="59.36404491774738" lon="13.113374942913651">
        <ele>51.61</ele>
        <time>2025-02-02T22:35:04.248Z</time>
      </trkpt>
      <trkpt lat="59.36397694051266" lon="13.113280981779099">
        <ele>51.56</ele>
        <time>2025-02-02T22:35:08.654Z</time>
      </trkpt>
      <trkpt lat="59.363907957449555" lon="13.113186936825514">
        <ele>51.51</ele>
        <time>2025-02-02T22:35:13.061Z</time>
      </trkpt>
      <trkpt lat="59.363838974386454" lon="13.113093981519341">
        <ele>51.46</ele>
        <time>2025-02-02T22:35:17.470Z</time>
      </trkpt>
      <trkpt lat="59.36376898549497" lon="13.113000942394137">
        <ele>51.42</ele>
        <time>2025-02-02T22:35:21.880Z</time>
      </trkpt>
      <trkpt lat="59.36369799077511" lon="13.112907987087965">
        <ele>51.38</ele>
        <time>2025-02-02T22:35:26.291Z</time>
      </trkpt>
      <trkpt lat="59.363627918064594" lon="13.112817965447903">
        <ele>51.34</ele>
        <time>2025-02-02T22:35:30.704Z</time>
      </trkpt>
      <trkpt lat="59.36355692334473" lon="13.112732972949743">
        <ele>51.31</ele>
        <time>2025-02-02T22:35:35.118Z</time>
      </trkpt>
      <trkpt lat="59.36348492279649" lon="13.112649992108345">
        <ele>51.28</ele>
        <time>2025-02-02T22:35:39.534Z</time>
      </trkpt>
      <trkpt lat="59.363412922248244" lon="13.112568939104676">
        <ele>51.26</ele>
        <time>2025-02-02T22:35:43.951Z</time>
      </trkpt>
      <trkpt lat="59.36333899386227" lon="13.112493921071291">
        <ele>51.23</ele>
        <time>2025-02-02T22:35:48.369Z</time>
      </trkpt>
      <trkpt lat="59.36326498165727" lon="13.112422926351428">
        <ele>51.21</ele>
        <time>2025-02-02T22:35:52.788Z</time>
      </trkpt>
      <trkpt lat="59.3631889577955" lon="13.112353943288326">
        <ele>51.19</ele>
        <time>2025-02-02T22:35:57.209Z</time>
      </trkpt>
      <trkpt lat="59.363113939762115" lon="13.112288983538747">
        <ele>51.17</ele>
        <time>2025-02-02T22:36:01.631Z</time>
      </trkpt>
      <trkpt lat="59.36303892172873" lon="13.112222934141755">
        <ele>51.15</ele>
        <time>2025-02-02T22:36:06.054Z</time>
      </trkpt>
      <trkpt lat="59.36296398751438" lon="13.112157974392176">
        <ele>51.13</ele>
        <time>2025-02-02T22:36:10.479Z</time>
      </trkpt>
      <trkpt lat="59.36288796365261" lon="13.112094942480326">
        <ele>51.1</ele>
        <time>2025-02-02T22:36:14.905Z</time>
      </trkpt>
      <trkpt lat="59.362810933962464" lon="13.112036939710379">
        <ele>51.08</ele>
        <time>2025-02-02T22:36:19.332Z</time>
      </trkpt>
      <trkpt lat="59.36273298226297" lon="13.111984971910715">
        <ele>51.06</ele>
        <time>2025-02-02T22:36:23.761Z</time>
      </trkpt>
      <trkpt lat="59.36265394091606" lon="13.111936943605542">
        <ele>51.03</ele>
        <time>2025-02-02T22:36:28.191Z</time>
      </trkpt>
      <trkpt lat="59.362573977559805" lon="13.111888999119401">
        <ele>51.0</ele>
        <time>2025-02-02T22:36:32.622Z</time>
      </trkpt>
      <trkpt lat="59.362492924556136" lon="13.111845999956131">
        <ele>50.97</ele>
        <time>2025-02-02T22:36:37.055Z</time>
      </trkpt>
      <trkpt lat="59.36241094954312" lon="13.111806940287352">
        <ele>50.94</ele>
        <time>2025-02-02T22:36:41.489Z</time>
      </trkpt>
      <trkpt lat="59.3623289745301" lon="13.111770981922746">
        <ele>50.91</ele>
        <time>2025-02-02T22:36:45.924Z</time>
      </trkpt>
      <trkpt lat="59.36224699951708" lon="13.111739968881011">
        <ele>50.89</ele>
        <time>2025-02-02T22:36:50.361Z</time>
      </trkpt>
      <trkpt lat="59.362165946513414" lon="13.111709961667657">
        <ele>50.86</ele>
        <time>2025-02-02T22:36:54.799Z</time>
      </trkpt>
      <trkpt lat="59.3620839715004" lon="13.111683977767825">
        <ele>50.85</ele>
        <time>2025-02-02T22:36:59.238Z</time>
      </trkpt>
      <trkpt lat="59.36200199648738" lon="13.111661933362484">
        <ele>50.84</ele>
        <time>2025-02-02T22:37:03.679Z</time>
      </trkpt>
      <trkpt lat="59.36192194931209" lon="13.111642990261316">
        <ele>50.82</ele>
        <time>2025-02-02T22:37:08.121Z</time>
      </trkpt>
      <trkpt lat="59.361841985955834" lon="13.111624969169497">
        <ele>50.81</ele>
        <time>2025-02-02T22:37:12.564Z</time>
      </trkpt>
      <trkpt lat="59.36176395043731" lon="13.11160795390606">
        <ele>50.81</ele>
        <time>2025-02-02T22:37:17.009Z</time>
      </trkpt>
      <trkpt lat="59.36168599873781" lon="13.111594961956143">
        <ele>50.8</ele>
        <time>2025-02-02T22:37:21.455Z</time>
      </trkpt>
      <trkpt lat="59.361608969047666" lon="13.11158892698586">
        <ele>50.79</ele>
        <time>2025-02-02T22:37:25.902Z</time>
      </trkpt>
      <trkpt lat="59.36152992770076" lon="13.11158792115748">
        <ele>50.79</ele>
        <time>2025-02-02T22:37:30.350Z</time>
      </trkpt>
      <trkpt lat="59.36145298182964" lon="13.11158699914813">
        <ele>50.78</ele>
        <time>2025-02-02T22:37:34.800Z</time>
      </trkpt>
      <trkpt lat="59.361374946311116" lon="13.11158792115748">
        <ele>50.78</ele>
        <time>2025-02-02T22:37:39.251Z</time>
      </trkpt>
      <trkpt lat="59.36129699461162" lon="13.111590938642621">
        <ele>50.77</ele>
        <time>2025-02-02T22:37:43.703Z</time>
      </trkpt>
      <trkpt lat="59.361218959093094" lon="13.111592950299382">
        <ele>50.77</ele>
        <time>2025-02-02T22:37:48.156Z</time>
      </trkpt>
      <trkpt lat="59.36113899573684" lon="13.111593956127763">
        <ele>50.77</ele>
        <time>2025-02-02T22:37:52.611Z</time>
      </trkpt>
      <trkpt lat="59.36105794273317" lon="13.111597979441285">
        <ele>50.77</ele>
        <time>2025-02-02T22:37:57.067Z</time>
      </trkpt>
      <trkpt lat="59.36097697354853" lon="13.111606948077679">
        <ele>50.78</ele>
        <time>2025-02-02T22:38:01.524Z</time>
      </trkpt>
      <trkpt lat="59.36089399270713" lon="13.111623963341117">
        <ele>50.78</ele>
        <time>2025-02-02T22:38:05.983Z</time>
      </trkpt>
      <trkpt lat="59.360812939703465" lon="13.111640978604555">
        <ele>50.79</ele>
        <time>2025-02-02T22:38:10.443Z</time>
      </trkpt>
      <trkpt lat="59.36073096469045" lon="13.111661933362484">
        <ele>50.79</ele>
        <time>2025-02-02T22:38:14.904Z</time>
      </trkpt>
      <trkpt lat="59.36064798384905" lon="13.111684983596206">
        <ele>50.8</ele>
        <time>2025-02-02T22:38:19.367Z</time>
      </trkpt>
      <trkpt lat="59.36056693084538" lon="13.111709961667657">
        <ele>50.8</ele>
        <time>2025-02-02T22:38:23.831Z</time>
      </trkpt>
      <trkpt lat="59.36048395000398" lon="13.111739968881011">
        <ele>50.8</ele>
        <time>2025-02-02T22:38:28.296Z</time>
      </trkpt>
      <trkpt lat="59.360401974990964" lon="13.111770981922746">
        <ele>50.8</ele>
        <time>2025-02-02T22:38:32.763Z</time>
      </trkpt>
      <trkpt lat="59.360319999977946" lon="13.111806940287352">
        <ele>50.81</ele>
        <time>2025-02-02T22:38:37.231Z</time>
      </trkpt>
      <trkpt lat="59.36023894697428" lon="13.11184298247099">
        <ele>50.81</ele>
        <time>2025-02-02T22:38:41.700Z</time>
      </trkpt>
      <trkpt lat="59.3601599894464" lon="13.111878940835595">
        <ele>50.83</ele>
        <time>2025-02-02T22:38:46.171Z</time>
      </trkpt>
      <trkpt lat="59.360080948099494" lon="13.111919928342104">
        <ele>50.85</ele>
        <time>2025-02-02T22:38:50.643Z</time>
      </trkpt>
      <trkpt lat="59.36000391840935" lon="13.111959993839264">
        <ele>50.86</ele>
        <time>2025-02-02T22:38:55.116Z</time>
      </trkpt>
      <trkpt lat="59.35992797836661" lon="13.112000981345773">
        <ele>50.87</ele>
        <time>2025-02-02T22:38:59.590Z</time>
      </trkpt>
      <trkpt lat="59.35985296033323" lon="13.11203995719552">
        <ele>50.89</ele>
        <time>2025-02-02T22:39:04.066Z</time>
      </trkpt>
      <trkpt lat="59.35977794229984" lon="13.112076921388507">
        <ele>50.91</ele>
        <time>2025-02-02T22:39:08.543Z</time>
      </trkpt>
      <trkpt lat="59.35970292426646" lon="13.112115981057286">
        <ele>50.92</ele>
        <time>2025-02-02T22:39:13.021Z</time>
      </trkpt>
      <trkpt lat="59.359627990052104" lon="13.112154956907034">
        <ele>50.94</ele>
        <time>2025-02-02T22:39:17.500Z</time>
      </trkpt>
      <trkpt lat="59.35955297201872" lon="13.112192926928401">
        <ele>50.96</ele>
        <time>2025-02-02T22:39:21.981Z</time>
      </trkpt>
      <trkpt lat="59.35947694815695" lon="13.112232992425561">
        <ele>50.98</ele>
        <time>2025-02-02T22:39:26.463Z</time>
      </trkpt>
      <trkpt lat="59.35940092429519" lon="13.112270962446928">
        <ele>50.99</ele>
        <time>2025-02-02T22:39:30.946Z</time>
      </trkpt>
      <trkpt lat="59.35932397842407" lon="13.112307926639915">
        <ele>51.01</ele>
        <time>2025-02-02T22:39:35.430Z</time>
      </trkpt>
      <trkpt lat="59.35924896039069" lon="13.112346986308694">
        <ele>51.03</ele>
        <time>2025-02-02T22:39:39.916Z</time>
      </trkpt>
      <trkpt lat="59.3591739423573" lon="13.112386967986822">
        <ele>51.05</ele>
        <time>2025-02-02T22:39:44.403Z</time>
      </trkpt>
      <trkpt lat="59.35910093598068" lon="13.11242594383657">
        <ele>51.08</ele>
        <time>2025-02-02T22:39:48.891Z</time>
      </trkpt>
      <trkpt lat="59.35902692377567" lon="13.112461986020207">
        <ele>51.1</ele>
        <time>2025-02-02T22:39:53.380Z</time>
      </trkpt>
      <trkpt lat="59.3589529953897" lon="13.112497944384813">
        <ele>51.12</ele>
        <time>2025-02-02T22:39:57.871Z</time>
      </trkpt>
      <trkpt lat="59.358878983184695" lon="13.112533986568451">
        <ele>51.14</ele>
        <time>2025-02-02T22:40:02.363Z</time>
      </trkpt>
      <trkpt lat="59.35880396515131" lon="13.112571956589818">
        <ele>51.16</ele>
        <time>2025-02-02T22:40:06.856Z</time>
      </trkpt>
      <trkpt lat="59.358727941289544" lon="13.112611938267946">
        <ele>51.17</ele>
        <time>2025-02-02T22:40:11.350Z</time>
      </trkpt>
      <trkpt lat="59.35865292325616" lon="13.112648986279964">
        <ele>51.19</ele>
        <time>2025-02-02T22:40:15.846Z</time>
      </trkpt>
      <trkpt lat="59.358576983213425" lon="13.112687962129712">
        <ele>51.21</ele>
        <time>2025-02-02T22:40:20.343Z</time>
      </trkpt>
      <trkpt lat="59.35850095935166" lon="13.11272794380784">
        <ele>51.23</ele>
        <time>2025-02-02T22:40:24.841Z</time>
      </trkpt>
      <trkpt lat="59.35842493548989" lon="13.11276893131435">
        <ele>51.24</ele>
        <time>2025-02-02T22:40:29.340Z</time>
      </trkpt>
      <trkpt lat="59.3583469837904" lon="13.112810924649239">
        <ele>51.26</ele>
        <time>2025-02-02T22:40:33.841Z</time>
      </trkpt>
      <trkpt lat="59.35826995410025" lon="13.112850990146399">
        <ele>51.28</ele>
        <time>2025-02-02T22:40:38.343Z</time>
      </trkpt>
      <trkpt lat="59.358192924410105" lon="13.112887954339385">
        <ele>51.3</ele>
        <time>2025-02-02T22:40:42.846Z</time>
      </trkpt>
      <trkpt lat="59.35811396688223" lon="13.112925924360752">
        <ele>51.33</ele>
        <time>2025-02-02T22:40:47.351Z</time>
      </trkpt>
      <trkpt lat="59.35803492553532" lon="13.112966995686293">
        <ele>51.35</ele>
        <time>2025-02-02T22:40:51.857Z</time>
      </trkpt>
      <trkpt lat="59.357954962179065" lon="13.113008989021182">
        <ele>51.38</ele>
        <time>2025-02-02T22:40:56.364Z</time>
      </trkpt>
      <trkpt lat="59.35787592083216" lon="13.113050982356071">
        <ele>51.4</ele>
        <time>2025-02-02T22:41:00.872Z</time>
      </trkpt>
      <trkpt lat="59.3577959574759" lon="13.113093981519341">
        <ele>51.43</ele>
        <time>2025-02-02T22:41:05.382Z</time>
      </trkpt>
      <trkpt lat="59.357719933614135" lon="13.11313295736909">
        <ele>51.46</ele>
        <time>2025-02-02T22:41:09.893Z</time>
      </trkpt>
      <trkpt lat="59.35764097608626" lon="13.113169921562076">
        <ele>51.49</ele>
        <time>2025-02-02T22:41:14.405Z</time>
      </trkpt>
      <trkpt lat="59.35756294056773" lon="13.113207975402474">
        <ele>51.52</ele>
        <time>2025-02-02T22:41:18.919Z</time>
      </trkpt>
      <trkpt lat="59.357482977211475" lon="13.113247957080603">
        <ele>51.55</ele>
        <time>2025-02-02T22:41:23.434Z</time>
      </trkpt>
      <trkpt lat="59.35740293003619" lon="13.113287938758731">
        <ele>51.59</ele>
        <time>2025-02-02T22:41:27.950Z</time>
      </trkpt>
      <trkpt lat="59.35732296667993" lon="13.11332993209362">
        <ele>51.62</ele>
        <time>2025-02-02T22:41:32.468Z</time>
      </trkpt>
      <trkpt lat="59.35724291950464" lon="13.11337192542851">
        <ele>51.66</ele>
        <time>2025-02-02T22:41:36.987Z</time>
      </trkpt>
      <trkpt lat="59.35716396197677" lon="13.11341199092567">
        <ele>51.69</ele>
        <time>2025-02-02T22:41:41.507Z</time>
      </trkpt>
      <trkpt lat="59.35708592645824" lon="13.113451972603798">
        <ele>51.73</ele>
        <time>2025-02-02T22:41:46.029Z</time>
      </trkpt>
      <trkpt lat="59.357009986415505" lon="13.113488936796784">
        <ele>51.76</ele>
        <time>2025-02-02T22:41:50.552Z</time>
      </trkpt>
      <trkpt lat="59.35693396255374" lon="13.113525984808803">
        <ele>51.8</ele>
        <time>2025-02-02T22:41:55.076Z</time>
      </trkpt>
      <trkpt lat="59.356858944520354" lon="13.11356395483017">
        <ele>51.83</ele>
        <time>2025-02-02T22:41:59.601Z</time>
      </trkpt>
      <trkpt lat="59.35678493231535" lon="13.113598991185427">
        <ele>51.87</ele>
        <time>2025-02-02T22:42:04.128Z</time>
      </trkpt>
      <trkpt lat="59.356711925938725" lon="13.113634949550033">
        <ele>51.9</ele>
        <time>2025-02-02T22:42:08.656Z</time>
      </trkpt>
      <trkpt lat="59.35664093121886" lon="13.11366998590529">
        <ele>51.94</ele>
        <time>2025-02-02T22:42:13.185Z</time>
      </trkpt>
      <trkpt lat="59.356569936499" lon="13.113705944269896">
        <ele>51.97</ele>
        <time>2025-02-02T22:42:17.715Z</time>
      </trkpt>
      <trkpt lat="59.3565009534359" lon="13.113741986453533">
        <ele>52.01</ele>
        <time>2025-02-02T22:42:22.246Z</time>
      </trkpt>
      <trkpt lat="59.35643297620118" lon="13.11377895064652">
        <ele>52.04</ele>
        <time>2025-02-02T22:42:26.778Z</time>
      </trkpt>
      <trkpt lat="59.356365920975804" lon="13.113809963688254">
        <ele>52.08</ele>
        <time>2025-02-02T22:42:31.311Z</time>
      </trkpt>
      <trkpt lat="59.356298949569464" lon="13.113837959244847">
        <ele>52.11</ele>
        <time>2025-02-02T22:42:35.846Z</time>
      </trkpt>
      <trkpt lat="59.35623097233474" lon="13.113863943144679">
        <ele>52.14</ele>
        <time>2025-02-02T22:42:40.382Z</time>
      </trkpt>
      <trkpt lat="59.35616492293775" lon="13.113880958408117">
        <ele>52.17</ele>
        <time>2025-02-02T22:42:44.919Z</time>
      </trkpt>
      <trkpt lat="59.35609795153141" lon="13.113890932872891">
        <ele>52.21</ele>
        <time>2025-02-02T22:42:49.457Z</time>
      </trkpt>
      <trkpt lat="59.35602997429669" lon="13.113898979499936">
        <ele>52.25</ele>
        <time>2025-02-02T22:42:53.996Z</time>
      </trkpt>
      <trkpt lat="59.35595998540521" lon="13.11390794813633">
        <ele>52.28</ele>
        <time>2025-02-02T22:42:58.536Z</time>
      </trkpt>
      <trkpt lat="59.355891924351454" lon="13.11390995979309">
        <ele>52.31</ele>
        <time>2025-02-02T22:43:03.077Z</time>
      </trkpt>
      <trkpt lat="59.35582193545997" lon="13.113903924822807">
        <ele>52.35</ele>
        <time>2025-02-02T22:43:07.619Z</time>
      </trkpt>
      <trkpt lat="59.35575094074011" lon="13.113895962014794">
        <ele>52.38</ele>
        <time>2025-02-02T22:43:12.162Z</time>
      </trkpt>
      <trkpt lat="59.355679946020246" lon="13.11388498172164">
        <ele>52.42</ele>
        <time>2025-02-02T22:43:16.707Z</time>
      </trkpt>
      <trkpt lat="59.35560593381524" lon="13.113869978114963">
        <ele>52.45</ele>
        <time>2025-02-02T22:43:21.253Z</time>
      </trkpt>
      <trkpt lat="59.35553099960089" lon="13.113850951194763">
        <ele>52.49</ele>
        <time>2025-02-02T22:43:25.800Z</time>
      </trkpt>
      <trkpt lat="59.35545698739588" lon="13.11382194980979">
        <ele>52.53</ele>
        <time>2025-02-02T22:43:30.348Z</time>
      </trkpt>
      <trkpt lat="59.35538297519088" lon="13.113791942596436">
        <ele>52.56</ele>
        <time>2025-02-02T22:43:34.897Z</time>
      </trkpt>
      <trkpt lat="59.35530795715749" lon="13.113754978403449">
        <ele>52.6</ele>
        <time>2025-02-02T22:43:39.448Z</time>
      </trkpt>
      <trkpt lat="59.35523293912411" lon="13.11371692456305">
        <ele>52.63</ele>
        <time>2025-02-02T22:43:44.000Z</time>
      </trkpt>
      <trkpt lat="59.35515993274748" lon="13.113677948713303">
        <ele>52.67</ele>
        <time>2025-02-02T22:43:48.553Z</time>
      </trkpt>
      <trkpt lat="59.35508399270475" lon="13.113639978691936">
        <ele>52.7</ele>
        <time>2025-02-02T22:43:53.107Z</time>
      </trkpt>
      <trkpt lat="59.355008974671364" lon="13.113600919023156">
        <ele>52.74</ele>
        <time>2025-02-02T22:43:57.663Z</time>
      </trkpt>
      <trkpt lat="59.35493596829474" lon="13.113560937345028">
        <ele>52.77</ele>
        <time>2025-02-02T22:44:02.220Z</time>
      </trkpt>
      <trkpt lat="59.354859944432974" lon="13.11352296732366">
        <ele>52.8</ele>
        <time>2025-02-02T22:44:06.778Z</time>
      </trkpt>
      <trkpt lat="59.35478199273348" lon="13.113486925140023">
        <ele>52.83</ele>
        <time>2025-02-02T22:44:11.337Z</time>
      </trkpt>
      <trkpt lat="59.35470697470009" lon="13.113447949290276">
        <ele>52.87</ele>
        <time>2025-02-02T22:44:15.898Z</time>
      </trkpt>
      <trkpt lat="59.354627933353186" lon="13.113408973440528">
        <ele>52.9</ele>
        <time>2025-02-02T22:44:20.460Z</time>
      </trkpt>
      <trkpt lat="59.35455098748207" lon="13.11336999759078">
        <ele>52.92</ele>
        <time>2025-02-02T22:44:25.023Z</time>
      </trkpt>
      <trkpt lat="59.354474963620305" lon="13.11332993209362">
        <ele>52.95</ele>
        <time>2025-02-02T22:44:29.587Z</time>
      </trkpt>
      <trkpt lat="59.35439793393016" lon="13.113288944587111">
        <ele>52.98</ele>
        <time>2025-02-02T22:44:34.153Z</time>
      </trkpt>
      <trkpt lat="59.354320988059044" lon="13.113248962908983">
        <ele>53.01</ele>
        <time>2025-02-02T22:44:38.720Z</time>
      </trkpt>
      <trkpt lat="59.3542439583689" lon="13.113211998715997">
        <ele>53.04</ele>
        <time>2025-02-02T22:44:43.288Z</time>
      </trkpt>
      <trkpt lat="59.35416793450713" lon="13.113174950703979">
        <ele>53.07</ele>
        <time>2025-02-02T22:44:47.858Z</time>
      </trkpt>
      <trkpt lat="59.354092916473746" lon="13.113136980682611">
        <ele>53.09</ele>
        <time>2025-02-02T22:44:52.429Z</time>
      </trkpt>
      <trkpt lat="59.35401798225939" lon="13.113099932670593">
        <ele>53.12</ele>
        <time>2025-02-02T22:44:57.001Z</time>
      </trkpt>
      <trkpt lat="59.35394497588277" lon="13.113062968477607">
        <ele>53.15</ele>
        <time>2025-02-02T22:45:01.574Z</time>
      </trkpt>
      <trkpt lat="59.353871969506145" lon="13.11302793212235">
        <ele>53.17</ele>
        <time>2025-02-02T22:45:06.148Z</time>
      </trkpt>
      <trkpt lat="59.3537999689579" lon="13.112990967929363">
        <ele>53.2</ele>
        <time>2025-02-02T22:45:10.724Z</time>
      </trkpt>
      <trkpt lat="59.35372796840966" lon="13.112953919917345">
        <ele>53.23</ele>
        <time>2025-02-02T22:45:15.301Z</time>
      </trkpt>
      <trkpt lat="59.353655967861414" lon="13.112915949895978">
        <ele>53.25</ele>
        <time>2025-02-02T22:45:19.879Z</time>
      </trkpt>
      <trkpt lat="59.35358396731317" lon="13.112880997359753">
        <ele>53.28</ele>
        <time>2025-02-02T22:45:24.458Z</time>
      </trkpt>
      <trkpt lat="59.35351196676493" lon="13.112844955176115">
        <ele>53.31</ele>
        <time>2025-02-02T22:45:29.038Z</time>
      </trkpt>
      <trkpt lat="59.353440972045064" lon="13.112806985154748">
        <ele>53.35</ele>
        <time>2025-02-02T22:45:33.620Z</time>
      </trkpt>
      <trkpt lat="59.35337299481034" lon="13.112767925485969">
        <ele>53.38</ele>
        <time>2025-02-02T22:45:38.203Z</time>
      </trkpt>
      <trkpt lat="59.35330493375659" lon="13.112730961292982">
        <ele>53.41</ele>
        <time>2025-02-02T22:45:42.787Z</time>
      </trkpt>
      <trkpt lat="59.35323896817863" lon="13.112699948251247">
        <ele>53.44</ele>
        <time>2025-02-02T22:45:47.372Z</time>
      </trkpt>
      <trkpt lat="59.35317291878164" lon="13.112669941037893">
        <ele>53.46</ele>
        <time>2025-02-02T22:45:51.958Z</time>
      </trkpt>
      <trkpt lat="59.35310795903206" lon="13.11263993382454">
        <ele>53.49</ele>
        <time>2025-02-02T22:45:56.545Z</time>
      </trkpt>
      <trkpt lat="59.3530419934541" lon="13.112605987116694">
        <ele>53.52</ele>
        <time>2025-02-02T22:46:01.133Z</time>
      </trkpt>
      <trkpt lat="59.35297694988549" lon="13.112558964639902">
        <ele>53.54</ele>
        <time>2025-02-02T22:46:05.722Z</time>
      </trkpt>
      <trkpt lat="59.3529159296304" lon="13.112497944384813">
        <ele>53.56</ele>
        <time>2025-02-02T22:46:10.312Z</time>
      </trkpt>
      <trkpt lat="59.35285499319434" lon="13.112437929958105">
        <ele>53.58</ele>
        <time>2025-02-02T22:46:14.903Z</time>
      </trkpt>
      <trkpt lat="59.35279095545411" lon="13.112392919138074">
        <ele>53.6</ele>
        <time>2025-02-02T22:46:19.496Z</time>
      </trkpt>
      <trkpt lat="59.35271895490587" lon="13.112369952723384">
        <ele>53.62</ele>
        <time>2025-02-02T22:46:24.090Z</time>
      </trkpt>
      <trkpt lat="59.352647960186005" lon="13.112357966601849">
        <ele>53.64</ele>
        <time>2025-02-02T22:46:28.685Z</time>
      </trkpt>
      <trkpt lat="59.352573947981" lon="13.112348997965455">
        <ele>53.65</ele>
        <time>2025-02-02T22:46:33.281Z</time>
      </trkpt>
      <trkpt lat="59.352497924119234" lon="13.112329971045256">
        <ele>53.66</ele>
        <time>2025-02-02T22:46:37.878Z</time>
      </trkpt>
      <trkpt lat="59.3524219840765" lon="13.112300969660282">
        <ele>53.67</ele>
        <time>2025-02-02T22:46:42.477Z</time>
      </trkpt>
      <trkpt lat="59.352345960214734" lon="13.112264927476645">
        <ele>53.69</ele>
        <time>2025-02-02T22:46:47.077Z</time>
      </trkpt>
      <trkpt lat="59.35226993635297" lon="13.112227963283658">
        <ele>53.7</ele>
        <time>2025-02-02T22:46:51.678Z</time>
      </trkpt>
      <trkpt lat="59.35219491831958" lon="13.112189993262291">
        <ele>53.72</ele>
        <time>2025-02-02T22:46:56.280Z</time>
      </trkpt>
      <trkpt lat="59.35212098993361" lon="13.112153951078653">
        <ele>53.73</ele>
        <time>2025-02-02T22:47:00.884Z</time>
      </trkpt>
      <trkpt lat="59.352047983556986" lon="13.112116986885667">
        <ele>53.75</ele>
        <time>2025-02-02T22:47:05.489Z</time>
      </trkpt>
      <trkpt lat="59.35197891667485" lon="13.11208195053041">
        <ele>53.76</ele>
        <time>2025-02-02T22:47:10.095Z</time>
      </trkpt>
      <trkpt lat="59.35191093944013" lon="13.112048925831914">
        <ele>53.78</ele>
        <time>2025-02-02T22:47:14.702Z</time>
      </trkpt>
      <trkpt lat="59.35184396803379" lon="13.11201699078083">
        <ele>53.79</ele>
        <time>2025-02-02T22:47:19.310Z</time>
      </trkpt>
      <trkpt lat="59.35177892446518" lon="13.111983966082335">
        <ele>53.81</ele>
        <time>2025-02-02T22:47:23.919Z</time>
      </trkpt>
      <trkpt lat="59.35171497054398" lon="13.111955970525742">
        <ele>53.82</ele>
        <time>2025-02-02T22:47:28.529Z</time>
      </trkpt>
      <trkpt lat="59.35165395028889" lon="13.11193099245429">
        <ele>53.83</ele>
        <time>2025-02-02T22:47:33.140Z</time>
      </trkpt>
      <trkpt lat="59.35159192420542" lon="13.111907942220569">
        <ele>53.84</ele>
        <time>2025-02-02T22:47:37.752Z</time>
      </trkpt>
      <trkpt lat="59.351530987769365" lon="13.111881958320737">
        <ele>53.85</ele>
        <time>2025-02-02T22:47:42.365Z</time>
      </trkpt>
      <trkpt lat="59.35147097334266" lon="13.111855974420905">
        <ele>53.86</ele>
        <time>2025-02-02T22:47:46.979Z</time>
      </trkpt>
      <trkpt lat="59.35140995308757" lon="13.111828984692693">
        <ele>53.87</ele>
        <time>2025-02-02T22:47:51.594Z</time>
      </trkpt>
      <trkpt lat="59.35135094448924" lon="13.111797971650958">
        <ele>53.87</ele>
        <time>2025-02-02T22:47:56.210Z</time>
      </trkpt>
      <trkpt lat="59.351295959204435" lon="13.111762935295701">
        <ele>53.87</ele>
        <time>2025-02-02T22:48:00.827Z</time>
      </trkpt>
      <trkpt lat="59.3512459192425" lon="13.111721947789192">
        <ele>53.88</ele>
        <time>2025-02-02T22:48:05.445Z</time>
      </trkpt>
      <trkpt lat="59.3511959630996" lon="13.111682971939445">
        <ele>53.88</ele>
        <time>2025-02-02T22:48:10.064Z</time>
      </trkpt>
      <trkpt lat="59.351140977814794" lon="13.111643996089697">
        <ele>53.88</ele>
        <time>2025-02-02T22:48:14.684Z</time>
      </trkpt>
      <trkpt lat="59.35108792036772" lon="13.111600996926427">
        <ele>53.87</ele>
        <time>2025-02-02T22:48:19.305Z</time>
      </trkpt>
      <trkpt lat="59.35103394091129" lon="13.111550956964493">
        <ele>53.87</ele>
        <time>2025-02-02T22:48:23.927Z</time>
      </trkpt>
      <trkpt lat="59.35097895562649" lon="13.11149999499321">
        <ele>53.87</ele>
        <time>2025-02-02T22:48:28.550Z</time>
      </trkpt>
      <trkpt lat="59.35092397034168" lon="13.111450960859656">
        <ele>53.86</ele>
        <time>2025-02-02T22:48:33.174Z</time>
      </trkpt>
      <trkpt lat="59.3508679792285" lon="13.111400920897722">
        <ele>53.86</ele>
        <time>2025-02-02T22:48:37.799Z</time>
      </trkpt>
      <trkpt lat="59.35080997645855" lon="13.111352976411581">
        <ele>53.85</ele>
        <time>2025-02-02T22:48:42.425Z</time>
      </trkpt>
      <trkpt lat="59.35074996203184" lon="13.111303942278028">
        <ele>53.85</ele>
        <time>2025-02-02T22:48:47.052Z</time>
      </trkpt>
      <trkpt lat="59.35068994760513" lon="13.111252980306745">
        <ele>53.84</ele>
        <time>2025-02-02T22:48:51.680Z</time>
      </trkpt>
      <trkpt lat="59.350627921521664" lon="13.11120092868805">
        <ele>53.83</ele>
        <time>2025-02-02T22:48:56.309Z</time>
      </trkpt>
      <trkpt lat="59.350564973428845" lon="13.111145943403244">
        <ele>53.82</ele>
        <time>2025-02-02T22:49:00.939Z</time>
      </trkpt>
      <trkpt lat="59.350499929860234" lon="13.111090958118439">
        <ele>53.81</ele>
        <time>2025-02-02T22:49:05.570Z</time>
      </trkpt>
      <trkpt lat="59.35043195262551" lon="13.111037984490395">
        <ele>53.8</ele>
        <time>2025-02-02T22:49:10.202Z</time>
      </trkpt>
      <trkpt lat="59.35036397539079" lon="13.11098693870008">
        <ele>53.79</ele>
        <time>2025-02-02T22:49:14.835Z</time>
      </trkpt>
      <trkpt lat="59.35029298067093" lon="13.110940922051668">
        <ele>53.78</ele>
        <time>2025-02-02T22:49:19.470Z</time>
      </trkpt>
      <trkpt lat="59.350220980122685" lon="13.110897922888398">
        <ele>53.77</ele>
        <time>2025-02-02T22:49:24.106Z</time>
      </trkpt>
      <trkpt lat="59.35014998540282" lon="13.110849978402257">
        <ele>53.76</ele>
        <time>2025-02-02T22:49:28.743Z</time>
      </trkpt>
      <trkpt lat="59.35007899068296" lon="13.110800944268703">
        <ele>53.75</ele>
        <time>2025-02-02T22:49:33.381Z</time>
      </trkpt>
      <trkpt lat="59.350006990134716" lon="13.110751993954182">
        <ele>53.73</ele>
        <time>2025-02-02T22:49:38.020Z</time>
      </trkpt>
      <trkpt lat="59.34993498958647" lon="13.11070497147739">
        <ele>53.72</ele>
        <time>2025-02-02T22:49:42.661Z</time>
      </trkpt>
      <trkpt lat="59.34986298903823" lon="13.110656943172216">
        <ele>53.7</ele>
        <time>2025-02-02T22:49:47.303Z</time>
      </trkpt>
      <trkpt lat="59.349791994318366" lon="13.110605981200933">
        <ele>53.68</ele>
        <time>2025-02-02T22:49:51.946Z</time>
      </trkpt>
      <trkpt lat="59.34972292743623" lon="13.110548984259367">
        <ele>53.66</ele>
        <time>2025-02-02T22:49:56.590Z</time>
      </trkpt>
      <trkpt lat="59.34965193271637" lon="13.110486958175898">
        <ele>53.63</ele>
        <time>2025-02-02T22:50:01.236Z</time>
      </trkpt>
      <trkpt lat="59.34958093799651" lon="13.110420992597938">
        <ele>53.6</ele>
        <time>2025-02-02T22:50:05.883Z</time>
      </trkpt>
      <trkpt lat="59.349509943276644" lon="13.110353937372565">
        <ele>53.58</ele>
        <time>2025-02-02T22:50:10.531Z</time>
      </trkpt>
      <trkpt lat="59.34943693690002" lon="13.110291995108128">
        <ele>53.55</ele>
        <time>2025-02-02T22:50:15.180Z</time>
      </trkpt>
      <trkpt lat="59.349361918866634" lon="13.11023399233818">
        <ele>53.52</ele>
        <time>2025-02-02T22:50:19.831Z</time>
      </trkpt>
      <trkpt lat="59.3492859788239" lon="13.110176995396614">
        <ele>53.49</ele>
        <time>2025-02-02T22:50:24.483Z</time>
      </trkpt>
      <trkpt lat="59.349210960790515" lon="13.110118992626667">
        <ele>53.45</ele>
        <time>2025-02-02T22:50:29.136Z</time>
      </trkpt>
      <trkpt lat="59.34913493692875" lon="13.11006291769445">
        <ele>53.42</ele>
        <time>2025-02-02T22:50:33.791Z</time>
      </trkpt>
      <trkpt lat="59.349056985229254" lon="13.110008938238025">
        <ele>53.39</ele>
        <time>2025-02-02T22:50:38.447Z</time>
      </trkpt>
      <trkpt lat="59.34897894971073" lon="13.109958982095122">
        <ele>53.36</ele>
        <time>2025-02-02T22:50:43.104Z</time>
      </trkpt>
      <trkpt lat="59.34889798052609" lon="13.10991095378995">
        <ele>53.34</ele>
        <time>2025-02-02T22:50:47.763Z</time>
      </trkpt>
      <trkpt lat="59.34881592169404" lon="13.109865942969918">
        <ele>53.3</ele>
        <time>2025-02-02T22:50:52.423Z</time>
      </trkpt>
      <trkpt lat="59.34873193502426" lon="13.109822943806648">
        <ele>53.26</ele>
        <time>2025-02-02T22:50:57.084Z</time>
      </trkpt>
      <trkpt lat="59.3486469425261" lon="13.109784973785281">
        <ele>53.22</ele>
        <time>2025-02-02T22:51:01.747Z</time>
      </trkpt>
      <trkpt lat="59.34856195002794" lon="13.109749937430024">
        <ele>53.18</ele>
        <time>2025-02-02T22:51:06.411Z</time>
      </trkpt>
      <trkpt lat="59.34847494587302" lon="13.10971892438829">
        <ele>53.14</ele>
        <time>2025-02-02T22:51:11.076Z</time>
      </trkpt>
      <trkpt lat="59.34838693588972" lon="13.109687995165586">
        <ele>53.1</ele>
        <time>2025-02-02T22:51:15.743Z</time>
      </trkpt>
      <trkpt lat="59.34829892590642" lon="13.109658993780613">
        <ele>53.05</ele>
        <time>2025-02-02T22:51:20.411Z</time>
      </trkpt>
      <trkpt lat="59.34821099974215" lon="13.109627980738878">
        <ele>53.01</ele>
        <time>2025-02-02T22:51:25.081Z</time>
      </trkpt>
      <trkpt lat="59.34812097810209" lon="13.109601996839046">
        <ele>52.97</ele>
        <time>2025-02-02T22:51:29.752Z</time>
      </trkpt>
      <trkpt lat="59.348031962290406" lon="13.109574923291802">
        <ele>52.93</ele>
        <time>2025-02-02T22:51:34.425Z</time>
      </trkpt>
      <trkpt lat="59.347943952307105" lon="13.10954793356359">
        <ele>52.89</ele>
        <time>2025-02-02T22:51:39.099Z</time>
      </trkpt>
      <trkpt lat="59.347855942323804" lon="13.109520943835378">
        <ele>52.85</ele>
        <time>2025-02-02T22:51:43.775Z</time>
      </trkpt>
      <trkpt lat="59.3477679323405" lon="13.109492948278785">
        <ele>52.8</ele>
        <time>2025-02-02T22:51:48.452Z</time>
      </trkpt>
      <trkpt lat="59.34768092818558" lon="13.10946193523705">
        <ele>52.76</ele>
        <time>2025-02-02T22:51:53.130Z</time>
      </trkpt>
      <trkpt lat="59.34759291820228" lon="13.109430922195315">
        <ele>52.72</ele>
        <time>2025-02-02T22:51:57.810Z</time>
      </trkpt>
      <trkpt lat="59.34750599786639" lon="13.109399992972612">
        <ele>52.67</ele>
        <time>2025-02-02T22:52:02.491Z</time>
      </trkpt>
      <trkpt lat="59.34741899371147" lon="13.10937199741602">
        <ele>52.63</ele>
        <time>2025-02-02T22:52:07.174Z</time>
      </trkpt>
      <trkpt lat="59.34733198955655" lon="13.109344923868775">
        <ele>52.59</ele>
        <time>2025-02-02T22:52:11.858Z</time>
      </trkpt>
      <trkpt lat="59.34724599123001" lon="13.109316928312182">
        <ele>52.55</ele>
        <time>2025-02-02T22:52:16.543Z</time>
      </trkpt>
      <trkpt lat="59.34715898707509" lon="13.109287926927209">
        <ele>52.5</ele>
        <time>2025-02-02T22:52:21.230Z</time>
      </trkpt>
      <trkpt lat="59.34707298874855" lon="13.109257919713855">
        <ele>52.46</ele>
        <time>2025-02-02T22:52:25.918Z</time>
      </trkpt>
      <trkpt lat="59.34698699042201" lon="13.109226990491152">
        <ele>52.42</ele>
        <time>2025-02-02T22:52:30.608Z</time>
      </trkpt>
      <trkpt lat="59.34690099209547" lon="13.109197989106178">
        <ele>52.37</ele>
        <time>2025-02-02T22:52:35.299Z</time>
      </trkpt>
      <trkpt lat="59.34681398794055" lon="13.109168987721205">
        <ele>52.33</ele>
        <time>2025-02-02T22:52:39.992Z</time>
      </trkpt>
      <trkpt lat="59.34672497212887" lon="13.109140992164612">
        <ele>52.29</ele>
        <time>2025-02-02T22:52:44.686Z</time>
      </trkpt>
      <trkpt lat="59.34663696214557" lon="13.109112996608019">
        <ele>52.24</ele>
        <time>2025-02-02T22:52:49.381Z</time>
      </trkpt>
      <trkpt lat="59.34655096381903" lon="13.109086928889155">
        <ele>52.19</ele>
        <time>2025-02-02T22:52:54.078Z</time>
      </trkpt>
      <trkpt lat="59.346462953835726" lon="13.109059939160943">
        <ele>52.15</ele>
        <time>2025-02-02T22:52:58.776Z</time>
      </trkpt>
      <trkpt lat="59.346374943852425" lon="13.109029931947589">
        <ele>52.1</ele>
        <time>2025-02-02T22:53:03.476Z</time>
      </trkpt>
      <trkpt lat="59.346287939697504" lon="13.109000930562615">
        <ele>52.05</ele>
        <time>2025-02-02T22:53:08.177Z</time>
      </trkpt>
      <trkpt lat="59.34620093554258" lon="13.108970923349261">
        <ele>52.01</ele>
        <time>2025-02-02T22:53:12.879Z</time>
      </trkpt>
      <trkpt lat="59.34611493721604" lon="13.108941921964288">
        <ele>51.96</ele>
        <time>2025-02-02T22:53:17.583Z</time>
      </trkpt>
      <trkpt lat="59.3460289388895" lon="13.108913926407695">
        <ele>51.92</ele>
        <time>2025-02-02T22:53:22.288Z</time>
      </trkpt>
      <trkpt lat="59.34594193473458" lon="13.108886936679482">
        <ele>51.88</ele>
        <time>2025-02-02T22:53:26.995Z</time>
      </trkpt>
      <trkpt lat="59.34585694223642" lon="13.10885994695127">
        <ele>51.83</ele>
        <time>2025-02-02T22:53:31.703Z</time>
      </trkpt>
      <trkpt lat="59.345771949738264" lon="13.108831951394677">
        <ele>51.79</ele>
        <time>2025-02-02T22:53:36.412Z</time>
      </trkpt>
      <trkpt lat="59.345685951411724" lon="13.108805967494845">
        <ele>51.74</ele>
        <time>2025-02-02T22:53:41.123Z</time>
      </trkpt>
      <trkpt lat="59.3455989472568" lon="13.108781995251775">
        <ele>51.7</ele>
        <time>2025-02-02T22:53:45.835Z</time>
      </trkpt>
      <trkpt lat="59.34551194310188" lon="13.108758945018053">
        <ele>51.65</ele>
        <time>2025-02-02T22:53:50.549Z</time>
      </trkpt>
      <trkpt lat="59.34542594477534" lon="13.108732961118221">
        <ele>51.61</ele>
        <time>2025-02-02T22:53:55.264Z</time>
      </trkpt>
      <trkpt lat="59.34533894062042" lon="13.108705971390009">
        <ele>51.56</ele>
        <time>2025-02-02T22:53:59.980Z</time>
      </trkpt>
      <trkpt lat="59.34525294229388" lon="13.108676970005035">
        <ele>51.52</ele>
        <time>2025-02-02T22:54:04.698Z</time>
      </trkpt>
      <trkpt lat="59.34516593813896" lon="13.108650986105204">
        <ele>51.48</ele>
        <time>2025-02-02T22:54:09.417Z</time>
      </trkpt>
      <trkpt lat="59.34507792815566" lon="13.108623996376991">
        <ele>51.43</ele>
        <time>2025-02-02T22:54:14.138Z</time>
      </trkpt>
      <trkpt lat="59.34498899616301" lon="13.108597928658128">
        <ele>51.39</ele>
        <time>2025-02-02T22:54:18.860Z</time>
      </trkpt>
      <trkpt lat="59.34489998035133" lon="13.108571944758296">
        <ele>51.34</ele>
        <time>2025-02-02T22:54:23.584Z</time>
      </trkpt>
      <trkpt lat="59.34481197036803" lon="13.108544955030084">
        <ele>51.3</ele>
        <time>2025-02-02T22:54:28.309Z</time>
      </trkpt>
      <trkpt lat="59.34472496621311" lon="13.108517965301871">
        <ele>51.25</ele>
        <time>2025-02-02T22:54:33.035Z</time>
      </trkpt>
      <trkpt lat="59.344636956229806" lon="13.10849198140204">
        <ele>51.21</ele>
        <time>2025-02-02T22:54:37.763Z</time>
      </trkpt>
      <trkpt lat="59.34455196373165" lon="13.108463985845447">
        <ele>51.16</ele>
        <time>2025-02-02T22:54:42.492Z</time>
      </trkpt>
      <trkpt lat="59.34446697123349" lon="13.108436996117234">
        <ele>51.12</ele>
        <time>2025-02-02T22:54:47.223Z</time>
      </trkpt>
      <trkpt lat="59.34438399039209" lon="13.10841092839837">
        <ele>51.07</ele>
        <time>2025-02-02T22:54:51.955Z</time>
      </trkpt>
      <trkpt lat="59.34429899789393" lon="13.10838796198368">
        <ele>51.03</ele>
        <time>2025-02-02T22:54:56.688Z</time>
      </trkpt>
      <trkpt lat="59.3442159332335" lon="13.10836398974061">
        <ele>50.98</ele>
        <time>2025-02-02T22:55:01.423Z</time>
      </trkpt>
      <trkpt lat="59.3441329523921" lon="13.10834295116365">
        <ele>50.94</ele>
        <time>2025-02-02T22:55:06.159Z</time>
      </trkpt>
      <trkpt lat="59.344050977379084" lon="13.108318978920579">
        <ele>50.89</ele>
        <time>2025-02-02T22:55:10.896Z</time>
      </trkpt>
      <trkpt lat="59.343969924375415" lon="13.108293917030096">
        <ele>50.84</ele>
        <time>2025-02-02T22:55:15.635Z</time>
      </trkpt>
      <trkpt lat="59.3438929785043" lon="13.108262987807393">
        <ele>50.8</ele>
        <time>2025-02-02T22:55:20.375Z</time>
      </trkpt>
      <trkpt lat="59.343816954642534" lon="13.108230968937278">
        <ele>50.75</ele>
        <time>2025-02-02T22:55:25.116Z</time>
      </trkpt>
      <trkpt lat="59.34374294243753" lon="13.10819593258202">
        <ele>50.71</ele>
        <time>2025-02-02T22:55:29.858Z</time>
      </trkpt>
      <trkpt lat="59.34367194771767" lon="13.108156956732273">
        <ele>50.67</ele>
        <time>2025-02-02T22:55:34.602Z</time>
      </trkpt>
      <trkpt lat="59.343602964654565" lon="13.108117980882525">
        <ele>50.63</ele>
        <time>2025-02-02T22:55:39.347Z</time>
      </trkpt>
      <trkpt lat="59.343536999076605" lon="13.108075987547636">
        <ele>50.58</ele>
        <time>2025-02-02T22:55:44.093Z</time>
      </trkpt>
      <trkpt lat="59.343474972993135" lon="13.108030976727605">
        <ele>50.53</ele>
        <time>2025-02-02T22:55:48.840Z</time>
      </trkpt>
      <trkpt lat="59.34341495856643" lon="13.107983954250813">
        <ele>50.48</ele>
        <time>2025-02-02T22:55:53.588Z</time>
      </trkpt>
      <trkpt lat="59.3433559499681" lon="13.107938943430781">
        <ele>50.43</ele>
        <time>2025-02-02T22:55:58.337Z</time>
      </trkpt>
      <trkpt lat="59.34329895302653" lon="13.107891920953989">
        <ele>50.38</ele>
        <time>2025-02-02T22:56:03.087Z</time>
      </trkpt>
      <trkpt lat="59.34324396774173" lon="13.107839953154325">
        <ele>50.33</ele>
        <time>2025-02-02T22:56:07.838Z</time>
      </trkpt>
      <trkpt lat="59.34318797662854" lon="13.107789997011423">
        <ele>50.27</ele>
        <time>2025-02-02T22:56:12.590Z</time>
      </trkpt>
      <trkpt lat="59.343131985515356" lon="13.10774196870625">
        <ele>50.22</ele>
        <time>2025-02-02T22:56:17.343Z</time>
      </trkpt>
      <trkpt lat="59.34307498857379" lon="13.107692934572697">
        <ele>50.16</ele>
        <time>2025-02-02T22:56:22.097Z</time>
      </trkpt>
      <trkpt lat="59.343018997460604" lon="13.107641972601414">
        <ele>50.11</ele>
        <time>2025-02-02T22:56:26.852Z</time>
      </trkpt>
      <trkpt lat="59.34296392835677" lon="13.10759193263948">
        <ele>50.06</ele>
        <time>2025-02-02T22:56:31.608Z</time>
      </trkpt>
      <trkpt lat="59.34290894307196" lon="13.107540970668197">
        <ele>50.01</ele>
        <time>2025-02-02T22:56:36.365Z</time>
      </trkpt>
      <trkpt lat="59.342852951958776" lon="13.107492942363024">
        <ele>49.96</ele>
        <time>2025-02-02T22:56:41.123Z</time>
      </trkpt>
      <trkpt lat="59.34279796667397" lon="13.107446925714612">
        <ele>49.91</ele>
        <time>2025-02-02T22:56:45.882Z</time>
      </trkpt>
      <trkpt lat="59.342743987217546" lon="13.107401998713613">
        <ele>49.85</ele>
        <time>2025-02-02T22:56:50.642Z</time>
      </trkpt>
      <trkpt lat="59.34268891811371" lon="13.107357993721962">
        <ele>49.81</ele>
        <time>2025-02-02T22:56:55.403Z</time>
      </trkpt>
      <trkpt lat="59.3426339328289" lon="13.107314994558692">
        <ele>49.76</ele>
        <time>2025-02-02T22:57:00.165Z</time>
      </trkpt>
      <trkpt lat="59.34257794171572" lon="13.107273923233151">
        <ele>49.71</ele>
        <time>2025-02-02T22:57:04.928Z</time>
      </trkpt>
      <trkpt lat="59.34252094477415" lon="13.107235953211784">
        <ele>49.66</ele>
        <time>2025-02-02T22:57:09.692Z</time>
      </trkpt>
      <trkpt lat="59.34246193617582" lon="13.107199994847178">
        <ele>49.61</ele>
        <time>2025-02-02T22:57:14.457Z</time>
      </trkpt>
      <trkpt lat="59.342401921749115" lon="13.107166970148683">
        <ele>49.56</ele>
        <time>2025-02-02T22:57:19.223Z</time>
      </trkpt>
      <trkpt lat="59.34233997948468" lon="13.107135957106948">
        <ele>49.52</ele>
        <time>2025-02-02T22:57:23.990Z</time>
      </trkpt>
      <trkpt lat="59.34227594174445" lon="13.107106955721974">
        <ele>49.47</ele>
        <time>2025-02-02T22:57:28.758Z</time>
      </trkpt>
      <trkpt lat="59.342208970338106" lon="13.107080971822143">
        <ele>49.42</ele>
        <time>2025-02-02T22:57:33.527Z</time>
      </trkpt>
      <trkpt lat="59.34213797561824" lon="13.107060939073563">
        <ele>49.37</ele>
        <time>2025-02-02T22:57:38.297Z</time>
      </trkpt>
      <trkpt lat="59.34206597507" lon="13.107045935466886">
        <ele>49.31</ele>
        <time>2025-02-02T22:57:43.068Z</time>
      </trkpt>
      <trkpt lat="59.341991962864995" lon="13.107037972658873">
        <ele>49.25</ele>
        <time>2025-02-02T22:57:47.840Z</time>
      </trkpt>
      <trkpt lat="59.34191593900323" lon="13.107042917981744">
        <ele>49.19</ele>
        <time>2025-02-02T22:57:52.613Z</time>
      </trkpt>
      <trkpt lat="59.341837987303734" lon="13.107056999579072">
        <ele>49.13</ele>
        <time>2025-02-02T22:57:57.388Z</time>
      </trkpt>
      <trkpt lat="59.34175995178521" lon="13.10707694850862">
        <ele>49.07</ele>
        <time>2025-02-02T22:58:02.164Z</time>
      </trkpt>
      <trkpt lat="59.34168191626668" lon="13.107106955721974">
        <ele>49.0</ele>
        <time>2025-02-02T22:58:06.941Z</time>
      </trkpt>
      <trkpt lat="59.34160798788071" lon="13.107144925743341">
        <ele>48.94</ele>
        <time>2025-02-02T22:58:11.719Z</time>
      </trkpt>
      <trkpt lat="59.341537998989224" lon="13.107185997068882">
        <ele>48.87</ele>
        <time>2025-02-02T22:58:16.499Z</time>
      </trkpt>
      <trkpt lat="59.34146893210709" lon="13.107230924069881">
        <ele>48.8</ele>
        <time>2025-02-02T22:58:21.280Z</time>
      </trkpt>
      <trkpt lat="59.34140196070075" lon="13.107280964031816">
        <ele>48.74</ele>
        <time>2025-02-02T22:58:26.062Z</time>
      </trkpt>
      <trkpt lat="59.34133599512279" lon="13.107339972630143">
        <ele>48.68</ele>
        <time>2025-02-02T22:58:30.845Z</time>
      </trkpt>
      <trkpt lat="59.34127095155418" lon="13.107404932379723">
        <ele>48.61</ele>
        <time>2025-02-02T22:58:35.629Z</time>
      </trkpt>
      <trkpt lat="59.3412059918046" lon="13.107473999261856">
        <ele>48.54</ele>
        <time>2025-02-02T22:58:40.415Z</time>
      </trkpt>
      <trkpt lat="59.34114396572113" lon="13.107540970668197">
        <ele>48.48</ele>
        <time>2025-02-02T22:58:45.202Z</time>
      </trkpt>
      <trkpt lat="59.34108294546604" lon="13.107608947902918">
        <ele>48.42</ele>
        <time>2025-02-02T22:58:49.990Z</time>
      </trkpt>
      <trkpt lat="59.341023936867714" lon="13.107672985643148">
        <ele>48.36</ele>
        <time>2025-02-02T22:58:54.779Z</time>
      </trkpt>
      <trkpt lat="59.34096693992615" lon="13.10774196870625">
        <ele>48.31</ele>
        <time>2025-02-02T22:58:59.569Z</time>
      </trkpt>
      <trkpt lat="59.3409139662981" lon="13.107815980911255">
        <ele>48.25</ele>
        <time>2025-02-02T22:59:04.360Z</time>
      </trkpt>
      <trkpt lat="59.34086199849844" lon="13.107903990894556">
        <ele>48.19</ele>
        <time>2025-02-02T22:59:09.152Z</time>
      </trkpt>
      <trkpt lat="59.34081497602165" lon="13.10800096951425">
        <ele>48.14</ele>
        <time>2025-02-02T22:59:13.945Z</time>
      </trkpt>
      <trkpt lat="59.34077398851514" lon="13.108103983104229">
        <ele>48.09</ele>
        <time>2025-02-02T22:59:18.739Z</time>
      </trkpt>
      <trkpt lat="59.3407379463315" lon="13.10821495950222">
        <ele>48.04</ele>
        <time>2025-02-02T22:59:23.534Z</time>
      </trkpt>
      <trkpt lat="59.340706933289766" lon="13.108335994184017">
        <ele>47.99</ele>
        <time>2025-02-02T22:59:28.330Z</time>
      </trkpt>
      <trkpt lat="59.340679943561554" lon="13.108460968360305">
        <ele>47.94</ele>
        <time>2025-02-02T22:59:33.128Z</time>
      </trkpt>
      <trkpt lat="59.340657982975245" lon="13.108592983335257">
        <ele>47.9</ele>
        <time>2025-02-02T22:59:37.927Z</time>
      </trkpt>
      <trkpt lat="59.34064197354019" lon="13.108725920319557">
        <ele>47.85</ele>
        <time>2025-02-02T22:59:42.727Z</time>
      </trkpt>
      <trkpt lat="59.34063099324703" lon="13.108866987749934">
        <ele>47.8</ele>
        <time>2025-02-02T22:59:47.528Z</time>
      </trkpt>
      <trkpt lat="59.340619929134846" lon="13.109002942219377">
        <ele>47.76</ele>
        <time>2025-02-02T22:59:52.330Z</time>
      </trkpt>
      <trkpt lat="59.34060199186206" lon="13.109125988557935">
        <ele>47.72</ele>
        <time>2025-02-02T22:59:57.133Z</time>
      </trkpt>
      <trkpt lat="59.340577935799956" lon="13.109216932207346">
        <ele>47.68</ele>
        <time>2025-02-02T23:00:01.937Z</time>
      </trkpt>
      <trkpt lat="59.34054398909211" lon="13.109282981604338">
        <ele>47.64</ele>
        <time>2025-02-02T23:00:06.742Z</time>
      </trkpt>
      <trkpt lat="59.34050392359495" lon="13.109313994646072">
        <ele>47.61</ele>
        <time>2025-02-02T23:00:11.547Z</time>
      </trkpt>
      <trkpt lat="59.340467965230346" lon="13.109296979382634">
        <ele>47.57</ele>
        <time>2025-02-02T23:00:16.353Z</time>
      </trkpt>
      <trkpt lat="59.340445920825005" lon="13.10924299992621">
        <ele>47.54</ele>
        <time>2025-02-02T23:00:21.160Z</time>
      </trkpt>
      <trkpt lat="59.34043192304671" lon="13.109178962185979">
        <ele>47.5</ele>
        <time>2025-02-02T23:00:25.967Z</time>
      </trkpt>
      <trkpt lat="59.34040694497526" lon="13.109131939709187">
        <ele>47.47</ele>
        <time>2025-02-02T23:00:30.775Z</time>
      </trkpt>
      <trkpt lat="59.34036595746875" lon="13.109109979122877">
        <ele>47.44</ele>
        <time>2025-02-02T23:00:35.583Z</time>
      </trkpt>
      <trkpt lat="59.340316923335195" lon="13.109092963859439">
        <ele>47.41</ele>
        <time>2025-02-02T23:00:40.392Z</time>
      </trkpt>
      <trkpt lat="59.34025992639363" lon="13.109067985787988">
        <ele>47.38</ele>
        <time>2025-02-02T23:00:45.202Z</time>
      </trkpt>
      <trkpt lat="59.34019798412919" lon="13.109036972746253">
        <ele>47.36</ele>
        <time>2025-02-02T23:00:50.013Z</time>
      </trkpt>
      <trkpt lat="59.34013092890382" lon="13.10900797136128">
        <ele>47.34</ele>
        <time>2025-02-02T23:00:54.825Z</time>
      </trkpt>
      <trkpt lat="59.34005691669881" lon="13.108979975804687">
        <ele>47.32</ele>
        <time>2025-02-02T23:00:59.638Z</time>
      </trkpt>
      <trkpt lat="59.33997896499932" lon="13.108951980248094">
        <ele>47.31</ele>
        <time>2025-02-02T23:01:04.453Z</time>
      </trkpt>
      <trkpt lat="59.33989992365241" lon="13.10892197303474">
        <ele>47.28</ele>
        <time>2025-02-02T23:01:09.269Z</time>
      </trkpt>
      <trkpt lat="59.339819960296154" lon="13.108890959993005">
        <ele>47.26</ele>
        <time>2025-02-02T23:01:14.086Z</time>
      </trkpt>
      <trkpt lat="59.3397399969399" lon="13.108862964436412">
        <ele>47.24</ele>
        <time>2025-02-02T23:01:18.905Z</time>
      </trkpt>
      <trkpt lat="59.33965894393623" lon="13.108832957223058">
        <ele>47.23</ele>
        <time>2025-02-02T23:01:23.725Z</time>
      </trkpt>
      <trkpt lat="59.33957898057997" lon="13.108801944181323">
        <ele>47.21</ele>
        <time>2025-02-02T23:01:28.546Z</time>
      </trkpt>
      <trkpt lat="59.339498933404684" lon="13.108768919482827">
        <ele>47.2</ele>
        <time>2025-02-02T23:01:33.369Z</time>
      </trkpt>
      <trkpt lat="59.33941897004843" lon="13.10872994363308">
        <ele>47.18</ele>
        <time>2025-02-02T23:01:38.193Z</time>
      </trkpt>
      <trkpt lat="59.33933892287314" lon="13.108683926984668">
        <ele>47.17</ele>
        <time>2025-02-02T23:01:43.018Z</time>
      </trkpt>
      <trkpt lat="59.33925694786012" lon="13.108634976670146">
        <ele>47.16</ele>
        <time>2025-02-02T23:01:47.845Z</time>
      </trkpt>
      <trkpt lat="59.339175978675485" lon="13.108584936708212">
        <ele>47.15</ele>
        <time>2025-02-02T23:01:52.673Z</time>
      </trkpt>
      <trkpt lat="59.339094925671816" lon="13.10853498056531">
        <ele>47.15</ele>
        <time>2025-02-02T23:01:57.502Z</time>
      </trkpt>
      <trkpt lat="59.33901596814394" lon="13.108481923118234">
        <ele>47.13</ele>
        <time>2025-02-02T23:02:02.333Z</time>
      </trkpt>
      <trkpt lat="59.33893692679703" lon="13.10842995531857">
        <ele>47.12</ele>
        <time>2025-02-02T23:02:07.165Z</time>
      </trkpt>
      <trkpt lat="59.3388609867543" lon="13.108377987518907">
        <ele>47.11</ele>
        <time>2025-02-02T23:02:11.998Z</time>
      </trkpt>
      <trkpt lat="59.33878496289253" lon="13.108328953385353">
        <ele>47.11</ele>
        <time>2025-02-02T23:02:16.833Z</time>
      </trkpt>
      <trkpt lat="59.33871095068753" lon="13.108283942565322">
        <ele>47.1</ele>
        <time>2025-02-02T23:02:21.669Z</time>
      </trkpt>
      <trkpt lat="59.338638950139284" lon="13.10823893174529">
        <ele>47.1</ele>
        <time>2025-02-02T23:02:26.506Z</time>
      </trkpt>
      <trkpt lat="59.338572984561324" lon="13.108188975602388">
        <ele>47.1</ele>
        <time>2025-02-02T23:02:31.344Z</time>
      </trkpt>
      <trkpt lat="59.338508946821094" lon="13.108136923983693">
        <ele>47.1</ele>
        <time>2025-02-02T23:02:36.183Z</time>
      </trkpt>
      <trkpt lat="59.338446920737624" lon="13.108080932870507">
        <ele>47.1</ele>
        <time>2025-02-02T23:02:41.023Z</time>
      </trkpt>
      <trkpt lat="59.33837793767452" lon="13.108030976727605">
        <ele>47.1</ele>
        <time>2025-02-02T23:02:45.865Z</time>
      </trkpt>
      <trkpt lat="59.33830694295466" lon="13.10797892510891">
        <ele>47.11</ele>
        <time>2025-02-02T23:02:50.708Z</time>
      </trkpt>
      <trkpt lat="59.338232930749655" lon="13.107921928167343">
        <ele>47.11</ele>
        <time>2025-02-02T23:02:55.552Z</time>
      </trkpt>
      <trkpt lat="59.33815891854465" lon="13.107860991731286">
        <ele>47.12</ele>
        <time>2025-02-02T23:03:00.397Z</time>
      </trkpt>
      <trkpt lat="59.3380839843303" lon="13.107798965647817">
        <ele>47.12</ele>
        <time>2025-02-02T23:03:05.244Z</time>
      </trkpt>
      <trkpt lat="59.33800594881177" lon="13.107737945392728">
        <ele>47.13</ele>
        <time>2025-02-02T23:03:10.092Z</time>
      </trkpt>
      <trkpt lat="59.33792891912162" lon="13.107673991471529">
        <ele>47.13</ele>
        <time>2025-02-02T23:03:14.941Z</time>
      </trkpt>
      <trkpt lat="59.33785297907889" lon="13.10761297121644">
        <ele>47.13</ele>
        <time>2025-02-02T23:03:19.792Z</time>
      </trkpt>
      <trkpt lat="59.33777695521712" lon="13.107554968446493">
        <ele>47.13</ele>
        <time>2025-02-02T23:03:24.644Z</time>
      </trkpt>
      <trkpt lat="59.33770294301212" lon="13.107495959848166">
        <ele>47.14</ele>
        <time>2025-02-02T23:03:29.497Z</time>
      </trkpt>
      <trkpt lat="59.337629936635494" lon="13.10744198039174">
        <ele>47.14</ele>
        <time>2025-02-02T23:03:34.352Z</time>
      </trkpt>
      <trkpt lat="59.33755793608725" lon="13.107385989278555">
        <ele>47.15</ele>
        <time>2025-02-02T23:03:39.208Z</time>
      </trkpt>
      <trkpt lat="59.33748995885253" lon="13.107326980680227">
        <ele>47.16</ele>
        <time>2025-02-02T23:03:44.065Z</time>
      </trkpt>
      <trkpt lat="59.33742097578943" lon="13.10726998373866">
        <ele>47.17</ele>
        <time>2025-02-02T23:03:48.923Z</time>
      </trkpt>
      <trkpt lat="59.337354926392436" lon="13.107211980968714">
        <ele>47.18</ele>
        <time>2025-02-02T23:03:53.782Z</time>
      </trkpt>
      <trkpt lat="59.337286949157715" lon="13.107150960713625">
        <ele>47.19</ele>
        <time>2025-02-02T23:03:58.643Z</time>
      </trkpt>
      <trkpt lat="59.33721696026623" lon="13.107092957943678">
        <ele>47.2</ele>
        <time>2025-02-02T23:04:03.505Z</time>
      </trkpt>
      <trkpt lat="59.33714797720313" lon="13.10703294351697">
        <ele>47.21</ele>
        <time>2025-02-02T23:04:08.368Z</time>
      </trkpt>
      <trkpt lat="59.33707899414003" lon="13.106972929090261">
        <ele>47.22</ele>
        <time>2025-02-02T23:04:13.232Z</time>
      </trkpt>
      <trkpt lat="59.337009927257895" lon="13.106910986825824">
        <ele>47.23</ele>
        <time>2025-02-02T23:04:18.097Z</time>
      </trkpt>
      <trkpt lat="59.336940944194794" lon="13.106846949085593">
        <ele>47.24</ele>
        <time>2025-02-02T23:04:22.964Z</time>
      </trkpt>
      <trkpt lat="59.33687095530331" lon="13.106785928830504">
        <ele>47.25</ele>
        <time>2025-02-02T23:04:27.832Z</time>
      </trkpt>
      <trkpt lat="59.33680197224021" lon="13.106724992394447">
        <ele>47.26</ele>
        <time>2025-02-02T23:04:32.701Z</time>
      </trkpt>
      <trkpt lat="59.33673298917711" lon="13.106662966310978">
        <ele>47.27</ele>
        <time>2025-02-02T23:04:37.571Z</time>
      </trkpt>
      <trkpt lat="59.336663922294974" lon="13.10660194605589">
        <ele>47.29</ele>
        <time>2025-02-02T23:04:42.442Z</time>
      </trkpt>
      <trkpt lat="59.33659393340349" lon="13.10653991997242">
        <ele>47.3</ele>
        <time>2025-02-02T23:04:47.315Z</time>
      </trkpt>
      <trkpt lat="59.33652796782553" lon="13.10647496022284">
        <ele>47.31</ele>
        <time>2025-02-02T23:04:52.189Z</time>
      </trkpt>
      <trkpt lat="59.33645898476243" lon="13.106413939967752">
        <ele>47.32</ele>
        <time>2025-02-02T23:04:57.064Z</time>
      </trkpt>
      <trkpt lat="59.33638799004257" lon="13.106355937197804">
        <ele>47.33</ele>
        <time>2025-02-02T23:05:01.940Z</time>
      </trkpt>
      <trkpt lat="59.336319928988814" lon="13.106295922771096">
        <ele>47.34</ele>
        <time>2025-02-02T23:05:06.818Z</time>
      </trkpt>
      <trkpt lat="59.336252957582474" lon="13.106231968849897">
        <ele>47.35</ele>
        <time>2025-02-02T23:05:11.697Z</time>
      </trkpt>
      <trkpt lat="59.33618598617613" lon="13.106164997443557">
        <ele>47.37</ele>
        <time>2025-02-02T23:05:16.577Z</time>
      </trkpt>
      <trkpt lat="59.33611993677914" lon="13.106094924733043">
        <ele>47.38</ele>
        <time>2025-02-02T23:05:21.458Z</time>
      </trkpt>
      <trkpt lat="59.33605497702956" lon="13.10602393001318">
        <ele>47.4</ele>
        <time>2025-02-02T23:05:26.340Z</time>
      </trkpt>
      <trkpt lat="59.33598993346095" lon="13.105951929464936">
        <ele>47.42</ele>
        <time>2025-02-02T23:05:31.224Z</time>
      </trkpt>
      <trkpt lat="59.33592597953975" lon="13.105876995250583">
        <ele>47.43</ele>
        <time>2025-02-02T23:05:36.109Z</time>
      </trkpt>
      <trkpt lat="59.3358629476279" lon="13.105800971388817">
        <ele>47.45</ele>
        <time>2025-02-02T23:05:40.995Z</time>
      </trkpt>
      <trkpt lat="59.3357989937067" lon="13.10572394169867">
        <ele>47.46</ele>
        <time>2025-02-02T23:05:45.882Z</time>
      </trkpt>
      <trkpt lat="59.335736967623234" lon="13.105644984170794">
        <ele>47.47</ele>
        <time>2025-02-02T23:05:50.770Z</time>
      </trkpt>
      <trkpt lat="59.335674941539764" lon="13.105563931167126">
        <ele>47.48</ele>
        <time>2025-02-02T23:05:55.660Z</time>
      </trkpt>
      <trkpt lat="59.335614927113056" lon="13.105482961982489">
        <ele>47.49</ele>
        <time>2025-02-02T23:06:00.551Z</time>
      </trkpt>
      <trkpt lat="59.33555692434311" lon="13.10539796948433">
        <ele>47.5</ele>
        <time>2025-02-02T23:06:05.443Z</time>
      </trkpt>
      <trkpt lat="59.33549992740154" lon="13.105310965329409">
        <ele>47.51</ele>
        <time>2025-02-02T23:06:10.336Z</time>
      </trkpt>
      <trkpt lat="59.33544393628836" lon="13.105222955346107">
        <ele>47.52</ele>
        <time>2025-02-02T23:06:15.230Z</time>
      </trkpt>
      <trkpt lat="59.33538895100355" lon="13.105133939534426">
        <ele>47.53</ele>
        <time>2025-02-02T23:06:20.125Z</time>
      </trkpt>
      <trkpt lat="59.335333965718746" lon="13.105042995885015">
        <ele>47.53</ele>
        <time>2025-02-02T23:06:25.021Z</time>
      </trkpt>
      <trkpt lat="59.33527998626232" lon="13.104952974244952">
        <ele>47.53</ele>
        <time>2025-02-02T23:06:29.919Z</time>
      </trkpt>
      <trkpt lat="59.335227934643626" lon="13.104857923462987">
        <ele>47.54</ele>
        <time>2025-02-02T23:06:34.818Z</time>
      </trkpt>
      <trkpt lat="59.33517697267234" lon="13.104764968156815">
        <ele>47.54</ele>
        <time>2025-02-02T23:06:39.718Z</time>
      </trkpt>
      <trkpt lat="59.33512492105365" lon="13.10466991737485">
        <ele>47.54</ele>
        <time>2025-02-02T23:06:44.619Z</time>
      </trkpt>
      <trkpt lat="59.335073959082365" lon="13.104574950411916">
        <ele>47.54</ele>
        <time>2025-02-02T23:06:49.521Z</time>
      </trkpt>
      <trkpt lat="59.33502391912043" lon="13.104477971792221">
        <ele>47.53</ele>
        <time>2025-02-02T23:06:54.424Z</time>
      </trkpt>
      <trkpt lat="59.33497597463429" lon="13.104376969859004">
        <ele>47.53</ele>
        <time>2025-02-02T23:06:59.328Z</time>
      </trkpt>
      <trkpt lat="59.334926940500736" lon="13.104275967925787">
        <ele>47.52</ele>
        <time>2025-02-02T23:07:04.234Z</time>
      </trkpt>
      <trkpt lat="59.334877990186214" lon="13.10417396016419">
        <ele>47.52</ele>
        <time>2025-02-02T23:07:09.141Z</time>
      </trkpt>
      <trkpt lat="59.33483096770942" lon="13.104071952402592">
        <ele>47.52</ele>
        <time>2025-02-02T23:07:14.049Z</time>
      </trkpt>
      <trkpt lat="59.33478293940425" lon="13.103967932984233">
        <ele>47.51</ele>
        <time>2025-02-02T23:07:18.958Z</time>
      </trkpt>
      <trkpt lat="59.33473499491811" lon="13.103864919394255">
        <ele>47.51</ele>
        <time>2025-02-02T23:07:23.868Z</time>
      </trkpt>
      <trkpt lat="59.334686966612935" lon="13.103762995451689">
        <ele>47.5</ele>
        <time>2025-02-02T23:07:28.779Z</time>
      </trkpt>
      <trkpt lat="59.33463893830776" lon="13.10365998186171">
        <ele>47.5</ele>
        <time>2025-02-02T23:07:33.691Z</time>
      </trkpt>
      <trkpt lat="59.33459099382162" lon="13.103556968271732">
        <ele>47.5</ele>
        <time>2025-02-02T23:07:38.605Z</time>
      </trkpt>
      <trkpt lat="59.33454296551645" lon="13.103453954681754">
        <ele>47.49</ele>
        <time>2025-02-02T23:07:43.520Z</time>
      </trkpt>
      <trkpt lat="59.334494937211275" lon="13.103345995768905">
        <ele>47.48</ele>
        <time>2025-02-02T23:07:48.436Z</time>
      </trkpt>
      <trkpt lat="59.334447998553514" lon="13.103239964693785">
        <ele>47.48</ele>
        <time>2025-02-02T23:07:53.353Z</time>
      </trkpt>
      <trkpt lat="59.33439795859158" lon="13.103134939447045">
        <ele>47.47</ele>
        <time>2025-02-02T23:07:58.271Z</time>
      </trkpt>
      <trkpt lat="59.3343469966203" lon="13.103029998019338">
        <ele>47.46</ele>
        <time>2025-02-02T23:08:03.190Z</time>
      </trkpt>
      <trkpt lat="59.33429595082998" lon="13.102925978600979">
        <ele>47.45</ele>
        <time>2025-02-02T23:08:08.111Z</time>
      </trkpt>
      <trkpt lat="59.33424398303032" lon="13.102819947525859">
        <ele>47.44</ele>
        <time>2025-02-02T23:08:13.033Z</time>
      </trkpt>
      <trkpt lat="59.334191931411624" lon="13.102713916450739">
        <ele>47.43</ele>
        <time>2025-02-02T23:08:17.956Z</time>
      </trkpt>
      <trkpt lat="59.33413996361196" lon="13.102609980851412">
        <ele>47.42</ele>
        <time>2025-02-02T23:08:22.880Z</time>
      </trkpt>
      <trkpt lat="59.334086989983916" lon="13.102505961433053">
        <ele>47.42</ele>
        <time>2025-02-02T23:08:27.805Z</time>
      </trkpt>
      <trkpt lat="59.33403292670846" lon="13.102404959499836">
        <ele>47.41</ele>
        <time>2025-02-02T23:08:32.732Z</time>
      </trkpt>
      <trkpt lat="59.333979953080416" lon="13.102307980880141">
        <ele>47.41</ele>
        <time>2025-02-02T23:08:37.660Z</time>
      </trkpt>
      <trkpt lat="59.33392496779561" lon="13.102211924269795">
        <ele>47.4</ele>
        <time>2025-02-02T23:08:42.589Z</time>
      </trkpt>
      <trkpt lat="59.333868976682425" lon="13.102118968963623">
        <ele>47.4</ele>
        <time>2025-02-02T23:08:47.519Z</time>
      </trkpt>
      <trkpt lat="59.33381197974086" lon="13.1020269356668">
        <ele>47.4</ele>
        <time>2025-02-02T23:08:52.450Z</time>
      </trkpt>
      <trkpt lat="59.33375397697091" lon="13.101937919855118">
        <ele>47.4</ele>
        <time>2025-02-02T23:08:57.382Z</time>
      </trkpt>
      <trkpt lat="59.3336939625442" lon="13.101852927356958">
        <ele>47.4</ele>
        <time>2025-02-02T23:09:02.316Z</time>
      </trkpt>
      <trkpt lat="59.333634953945875" lon="13.10176894068718">
        <ele>47.39</ele>
        <time>2025-02-02T23:09:07.251Z</time>
      </trkpt>
      <trkpt lat="59.33357493951917" lon="13.1016849540174">
        <ele>47.39</ele>
        <time>2025-02-02T23:09:12.187Z</time>
      </trkpt>
      <trkpt lat="59.33351391926408" lon="13.101604990661144">
        <ele>47.39</ele>
        <time>2025-02-02T23:09:17.124Z</time>
      </trkpt>
      <trkpt lat="59.33345298282802" lon="13.101525949314237">
        <ele>47.39</ele>
        <time>2025-02-02T23:09:22.062Z</time>
      </trkpt>
      <trkpt lat="59.33338995091617" lon="13.10144891962409">
        <ele>47.39</ele>
        <time>2025-02-02T23:09:27.001Z</time>
      </trkpt>
      <trkpt lat="59.33332599699497" lon="13.101374991238117">
        <ele>47.39</ele>
        <time>2025-02-02T23:09:31.942Z</time>
      </trkpt>
      <trkpt lat="59.33326095342636" lon="13.101302990689874">
        <ele>47.39</ele>
        <time>2025-02-02T23:09:36.884Z</time>
      </trkpt>
      <trkpt lat="59.3331949878484" lon="13.10123291797936">
        <ele>47.39</ele>
        <time>2025-02-02T23:09:41.827Z</time>
      </trkpt>
      <trkpt lat="59.33312793262303" lon="13.101165946573019">
        <ele>47.39</ele>
        <time>2025-02-02T23:09:46.771Z</time>
      </trkpt>
      <trkpt lat="59.33306096121669" lon="13.10110199265182">
        <ele>47.39</ele>
        <time>2025-02-02T23:09:51.716Z</time>
      </trkpt>
      <trkpt lat="59.33299298398197" lon="13.10103996656835">
        <ele>47.39</ele>
        <time>2025-02-02T23:09:56.663Z</time>
      </trkpt>
      <trkpt lat="59.33292391709983" lon="13.100981963798404">
        <ele>47.39</ele>
        <time>2025-02-02T23:10:01.611Z</time>
      </trkpt>
      <trkpt lat="59.33285593986511" lon="13.100926978513598">
        <ele>47.38</ele>
        <time>2025-02-02T23:10:06.560Z</time>
      </trkpt>
      <trkpt lat="59.33278695680201" lon="13.100876938551664">
        <ele>47.38</ele>
        <time>2025-02-02T23:10:11.510Z</time>
      </trkpt>
      <trkpt lat="59.33271797373891" lon="13.100831927731633">
        <ele>47.38</ele>
        <time>2025-02-02T23:10:16.461Z</time>
      </trkpt>
      <trkpt lat="59.33264899067581" lon="13.100792951881886">
        <ele>47.4</ele>
        <time>2025-02-02T23:10:21.414Z</time>
      </trkpt>
      <trkpt lat="59.33257992379367" lon="13.100758921355009">
        <ele>47.42</ele>
        <time>2025-02-02T23:10:26.368Z</time>
      </trkpt>
      <trkpt lat="59.33251194655895" lon="13.100731931626797">
        <ele>47.44</ele>
        <time>2025-02-02T23:10:31.323Z</time>
      </trkpt>
      <trkpt lat="59.33244296349585" lon="13.100709971040487">
        <ele>47.46</ele>
        <time>2025-02-02T23:10:36.279Z</time>
      </trkpt>
      <trkpt lat="59.33237498626113" lon="13.100692955777049">
        <ele>47.48</ele>
        <time>2025-02-02T23:10:41.236Z</time>
      </trkpt>
      <trkpt lat="59.33230692520738" lon="13.100679963827133">
        <ele>47.51</ele>
        <time>2025-02-02T23:10:46.194Z</time>
      </trkpt>
      <trkpt lat="59.332238947972655" lon="13.100671917200089">
        <ele>47.53</ele>
        <time>2025-02-02T23:10:51.153Z</time>
      </trkpt>
      <trkpt lat="59.332170970737934" lon="13.10067099519074">
        <ele>47.56</ele>
        <time>2025-02-02T23:10:56.113Z</time>
      </trkpt>
      <trkpt lat="59.33210299350321" lon="13.100677952170372">
        <ele>47.61</ele>
        <time>2025-02-02T23:11:01.074Z</time>
      </trkpt>
      <trkpt lat="59.33203593827784" lon="13.100687926635146">
        <ele>47.65</ele>
        <time>2025-02-02T23:11:06.037Z</time>
      </trkpt>
      <trkpt lat="59.33196796104312" lon="13.100699996575713">
        <ele>47.7</ele>
        <time>2025-02-02T23:11:11.001Z</time>
      </trkpt>
      <trkpt lat="59.3318999838084" lon="13.100714916363358">
        <ele>47.75</ele>
        <time>2025-02-02T23:11:15.966Z</time>
      </trkpt>
      <trkpt lat="59.331830916926265" lon="13.1007369607687">
        <ele>47.78</ele>
        <time>2025-02-02T23:11:20.932Z</time>
      </trkpt>
      <trkpt lat="59.331762939691544" lon="13.100764956325293">
        <ele>47.81</ele>
        <time>2025-02-02T23:11:25.899Z</time>
      </trkpt>
      <trkpt lat="59.33169496245682" lon="13.100797981023788">
        <ele>47.85</ele>
        <time>2025-02-02T23:11:30.867Z</time>
      </trkpt>
      <trkpt lat="59.3316269852221" lon="13.100835951045156">
        <ele>47.89</ele>
        <time>2025-02-02T23:11:35.836Z</time>
      </trkpt>
      <trkpt lat="59.33155992999673" lon="13.100881967693567">
        <ele>47.93</ele>
        <time>2025-02-02T23:11:40.806Z</time>
      </trkpt>
      <trkpt lat="59.33149295859039" lon="13.10093192383647">
        <ele>47.98</ele>
        <time>2025-02-02T23:11:45.777Z</time>
      </trkpt>
      <trkpt lat="59.33142799884081" lon="13.100985987111926">
        <ele>48.02</ele>
        <time>2025-02-02T23:11:50.750Z</time>
      </trkpt>
      <trkpt lat="59.33136396110058" lon="13.101044995710254">
        <ele>48.07</ele>
        <time>2025-02-02T23:11:55.724Z</time>
      </trkpt>
      <trkpt lat="59.33130092918873" lon="13.101109955459833">
        <ele>48.13</ele>
        <time>2025-02-02T23:12:00.699Z</time>
      </trkpt>
      <trkpt lat="59.33123798109591" lon="13.101177932694554">
        <ele>48.18</ele>
        <time>2025-02-02T23:12:05.675Z</time>
      </trkpt>
      <trkpt lat="59.33117595501244" lon="13.10125295072794">
        <ele>48.25</ele>
        <time>2025-02-02T23:12:10.652Z</time>
      </trkpt>
      <trkpt lat="59.33111493475735" lon="13.101334925740957">
        <ele>48.32</ele>
        <time>2025-02-02T23:12:15.630Z</time>
      </trkpt>
      <trkpt lat="59.331054920330644" lon="13.101421929895878">
        <ele>48.39</ele>
        <time>2025-02-02T23:12:20.610Z</time>
      </trkpt>
      <trkpt lat="59.33099599555135" lon="13.10151295736432">
        <ele>48.46</ele>
        <time>2025-02-02T23:12:25.591Z</time>
      </trkpt>
      <trkpt lat="59.33093899860978" lon="13.101609935984015">
        <ele>48.54</ele>
        <time>2025-02-02T23:12:30.573Z</time>
      </trkpt>
      <trkpt lat="59.330883929505944" lon="13.101712949573994">
        <ele>48.62</ele>
        <time>2025-02-02T23:12:35.556Z</time>
      </trkpt>
      <trkpt lat="59.33083196170628" lon="13.101818980649114">
        <ele>48.7</ele>
        <time>2025-02-02T23:12:40.540Z</time>
      </trkpt>
      <trkpt lat="59.33078292757273" lon="13.101929957047105">
        <ele>48.78</ele>
        <time>2025-02-02T23:12:45.526Z</time>
      </trkpt>
      <trkpt lat="59.330734983086586" lon="13.102043950930238">
        <ele>48.85</ele>
        <time>2025-02-02T23:12:50.513Z</time>
      </trkpt>
      <trkpt lat="59.330688966438174" lon="13.102158950641751">
        <ele>48.92</ele>
        <time>2025-02-02T23:12:55.501Z</time>
      </trkpt>
      <trkpt lat="59.330644961446524" lon="13.102275962010026">
        <ele>48.99</ele>
        <time>2025-02-02T23:13:00.490Z</time>
      </trkpt>
      <trkpt lat="59.330601962283254" lon="13.102398924529552">
        <ele>49.07</ele>
        <time>2025-02-02T23:13:05.480Z</time>
      </trkpt>
      <trkpt lat="59.330561980605125" lon="13.102523982524872">
        <ele>49.14</ele>
        <time>2025-02-02T23:13:10.472Z</time>
      </trkpt>
      <trkpt lat="59.330522920936346" lon="13.10265096835792">
        <ele>49.21</ele>
        <time>2025-02-02T23:13:15.465Z</time>
      </trkpt>
      <trkpt lat="59.33048193342984" lon="13.10277795419097">
        <ele>49.28</ele>
        <time>2025-02-02T23:13:20.459Z</time>
      </trkpt>
      <trkpt lat="59.33043893426657" lon="13.102901922538877">
        <ele>49.35</ele>
        <time>2025-02-02T23:13:25.454Z</time>
      </trkpt>
      <trkpt lat="59.33039492927492" lon="13.103025974705815">
        <ele>49.43</ele>
        <time>2025-02-02T23:13:30.451Z</time>
      </trkpt>
      <trkpt lat="59.330350924283266" lon="13.103151954710484">
        <ele>49.51</ele>
        <time>2025-02-02T23:13:35.449Z</time>
      </trkpt>
      <trkpt lat="59.330307925119996" lon="13.103277934715152">
        <ele>49.58</ele>
        <time>2025-02-02T23:13:40.448Z</time>
      </trkpt>
      <trkpt lat="59.330263920128345" lon="13.10339997522533">
        <ele>49.67</ele>
        <time>2025-02-02T23:13:45.448Z</time>
      </trkpt>
      <trkpt lat="59.330218993127346" lon="13.103520926088095">
        <ele>49.75</ele>
        <time>2025-02-02T23:13:50.450Z</time>
      </trkpt>
      <trkpt lat="59.330174988135695" lon="13.10363894328475">
        <ele>49.83</ele>
        <time>2025-02-02T23:13:55.453Z</time>
      </trkpt>
      <trkpt lat="59.330131988972425" lon="13.103756960481405">
        <ele>49.91</ele>
        <time>2025-02-02T23:14:00.457Z</time>
      </trkpt>
      <trkpt lat="59.330087983980775" lon="13.103870954364538">
        <ele>49.99</ele>
        <time>2025-02-02T23:14:05.462Z</time>
      </trkpt>
      <trkpt lat="59.330043978989124" lon="13.103980924934149">
        <ele>50.07</ele>
        <time>2025-02-02T23:14:10.468Z</time>
      </trkpt>
      <trkpt lat="59.330001985654235" lon="13.104091985151172">
        <ele>50.14</ele>
        <time>2025-02-02T23:14:15.475Z</time>
      </trkpt>
      <trkpt lat="59.329962925985456" lon="13.104199944064021">
        <ele>50.22</ele>
        <time>2025-02-02T23:14:20.483Z</time>
      </trkpt>
      <trkpt lat="59.32992395013571" lon="13.104298934340477">
        <ele>50.31</ele>
        <time>2025-02-02T23:14:25.492Z</time>
      </trkpt>
      <trkpt lat="59.3298829626292" lon="13.10438895598054">
        <ele>50.39</ele>
        <time>2025-02-02T23:14:30.502Z</time>
      </trkpt>
      <trkpt lat="59.32983694598079" lon="13.104469925165176">
        <ele>50.47</ele>
        <time>2025-02-02T23:14:35.513Z</time>
      </trkpt>
      <trkpt lat="59.329790929332376" lon="13.104548966512084">
        <ele>50.56</ele>
        <time>2025-02-02T23:14:40.525Z</time>
      </trkpt>
      <trkpt lat="59.32974994182587" lon="13.104637982323766">
        <ele>50.64</ele>
        <time>2025-02-02T23:14:45.538Z</time>
      </trkpt>
      <trkpt lat="59.32971398346126" lon="13.104735966771841">
        <ele>50.73</ele>
        <time>2025-02-02T23:14:50.552Z</time>
      </trkpt>
      <trkpt lat="59.329681964591146" lon="13.104841997846961">
        <ele>50.81</ele>
        <time>2025-02-02T23:14:55.567Z</time>
      </trkpt>
      <trkpt lat="59.32965497486293" lon="13.104958925396204">
        <ele>50.89</ele>
        <time>2025-02-02T23:15:00.583Z</time>
      </trkpt>
      <trkpt lat="59.32962999679148" lon="13.105085995048285">
        <ele>50.98</ele>
        <time>2025-02-02T23:15:05.601Z</time>
      </trkpt>
      <trkpt lat="59.329596972092986" lon="13.105213986709714">
        <ele>51.06</ele>
        <time>2025-02-02T23:15:10.620Z</time>
      </trkpt>
      <trkpt lat="59.32955992408097" lon="13.105341978371143">
        <ele>51.15</ele>
        <time>2025-02-02T23:15:15.640Z</time>
      </trkpt>
      <trkpt lat="59.32951893657446" lon="13.105469970032573">
        <ele>51.24</ele>
        <time>2025-02-02T23:15:20.661Z</time>
      </trkpt>
      <trkpt lat="59.32947996072471" lon="13.105599973350763">
        <ele>51.33</ele>
        <time>2025-02-02T23:15:25.683Z</time>
      </trkpt>
      <trkpt lat="59.3294389732182" lon="13.105731988325715">
        <ele>51.43</ele>
        <time>2025-02-02T23:15:30.707Z</time>
      </trkpt>
      <trkpt lat="59.329398991540074" lon="13.105866936966777">
        <ele>51.52</ele>
        <time>2025-02-02T23:15:35.732Z</time>
      </trkpt>
      <trkpt lat="59.329354986548424" lon="13.10600096359849">
        <ele>51.62</ele>
        <time>2025-02-02T23:15:40.758Z</time>
      </trkpt>
      <trkpt lat="59.32930997572839" lon="13.106131972745061">
        <ele>51.71</ele>
        <time>2025-02-02T23:15:45.786Z</time>
      </trkpt>
      <trkpt lat="59.32926094159484" lon="13.106260970234871">
        <ele>51.8</ele>
        <time>2025-02-02T23:15:50.815Z</time>
      </trkpt>
      <trkpt lat="59.329209979623556" lon="13.10638695023954">
        <ele>51.9</ele>
        <time>2025-02-02T23:15:55.845Z</time>
      </trkpt>
      <trkpt lat="59.32915692217648" lon="13.106508990749717">
        <ele>52.0</ele>
        <time>2025-02-02T23:16:00.877Z</time>
      </trkpt>
      <trkpt lat="59.329100931063294" lon="13.106627929955721">
        <ele>52.1</ele>
        <time>2025-02-02T23:16:05.910Z</time>
      </trkpt>
      <trkpt lat="59.32904292829335" lon="13.106738990172744">
        <ele>52.2</ele>
        <time>2025-02-02T23:16:10.944Z</time>
      </trkpt>
      <trkpt lat="59.3289849255234" lon="13.106845943257213">
        <ele>52.3</ele>
        <time>2025-02-02T23:16:15.979Z</time>
      </trkpt>
      <trkpt lat="59.32892591692507" lon="13.106949962675571">
        <ele>52.41</ele>
        <time>2025-02-02T23:16:21.016Z</time>
      </trkpt>
      <trkpt lat="59.328865986317396" lon="13.107048952952027">
        <ele>52.51</ele>
        <time>2025-02-02T23:16:26.054Z</time>
      </trkpt>
      <trkpt lat="59.32880396023393" lon="13.107142997905612">
        <ele>52.62</ele>
        <time>2025-02-02T23:16:31.093Z</time>
      </trkpt>
      <trkpt lat="59.32874092832208" lon="13.1072299182415">
        <ele>52.73</ele>
        <time>2025-02-02T23:16:36.133Z</time>
      </trkpt>
      <trkpt lat="59.32867496274412" lon="13.10731298290193">
        <ele>52.84</ele>
        <time>2025-02-02T23:16:41.175Z</time>
      </trkpt>
      <trkpt lat="59.328606985509396" lon="13.107395963743329">
        <ele>52.94</ele>
        <time>2025-02-02T23:16:46.218Z</time>
      </trkpt>
      <trkpt lat="59.32853699661791" lon="13.107476932927966">
        <ele>53.05</ele>
        <time>2025-02-02T23:16:51.262Z</time>
      </trkpt>
      <trkpt lat="59.3284669239074" lon="13.107553962618113">
        <ele>53.15</ele>
        <time>2025-02-02T23:16:56.308Z</time>
      </trkpt>
      <trkpt lat="59.328395929187536" lon="13.107627974823117">
        <ele>53.25</ele>
        <time>2025-02-02T23:17:01.355Z</time>
      </trkpt>
      <trkpt lat="59.32832392863929" lon="13.107695952057838">
        <ele>53.35</ele>
        <time>2025-02-02T23:17:06.403Z</time>
      </trkpt>
      <trkpt lat="59.32825092226267" lon="13.107757978141308">
        <ele>53.45</ele>
        <time>2025-02-02T23:17:11.452Z</time>
      </trkpt>
      <trkpt lat="59.328177999705076" lon="13.107813969254494">
        <ele>53.54</ele>
        <time>2025-02-02T23:17:16.503Z</time>
      </trkpt>
      <trkpt lat="59.32810298167169" lon="13.107866942882538">
        <ele>53.64</ele>
        <time>2025-02-02T23:17:21.555Z</time>
      </trkpt>
      <trkpt lat="59.328028969466686" lon="13.10791497118771">
        <ele>53.73</ele>
        <time>2025-02-02T23:17:26.608Z</time>
      </trkpt>
      <trkpt lat="59.32795495726168" lon="13.1079569645226">
        <ele>53.83</ele>
        <time>2025-02-02T23:17:31.662Z</time>
      </trkpt>
      <trkpt lat="59.327879939228296" lon="13.107997952029109">
        <ele>53.93</ele>
        <time>2025-02-02T23:17:36.718Z</time>
      </trkpt>
      <trkpt lat="59.32780693285167" lon="13.108029970899224">
        <ele>54.03</ele>
        <time>2025-02-02T23:17:41.775Z</time>
      </trkpt>
      <trkpt lat="59.32773199863732" lon="13.108053943142295">
        <ele>54.12</ele>
        <time>2025-02-02T23:17:46.833Z</time>
      </trkpt>
      <trkpt lat="59.32765496894717" lon="13.108073975890875">
        <ele>54.21</ele>
        <time>2025-02-02T23:17:51.892Z</time>
      </trkpt>
      <trkpt lat="59.327576933428645" lon="13.108090991154313">
        <ele>54.31</ele>
        <time>2025-02-02T23:17:56.953Z</time>
      </trkpt>
      <trkpt lat="59.32749797590077" lon="13.108102977275848">
        <ele>54.4</ele>
        <time>2025-02-02T23:18:02.015Z</time>
      </trkpt>
      <trkpt lat="59.3274169228971" lon="13.10810993425548">
        <ele>54.5</ele>
        <time>2025-02-02T23:18:07.078Z</time>
      </trkpt>
      <trkpt lat="59.327336959540844" lon="13.10810993425548">
        <ele>54.6</ele>
        <time>2025-02-02T23:18:12.143Z</time>
      </trkpt>
      <trkpt lat="59.32725892402232" lon="13.108101971447468">
        <ele>54.7</ele>
        <time>2025-02-02T23:18:17.209Z</time>
      </trkpt>
      <trkpt lat="59.32717896066606" lon="13.108092918992043">
        <ele>54.79</ele>
        <time>2025-02-02T23:18:22.276Z</time>
      </trkpt>
      <trkpt lat="59.32710092514753" lon="13.108082944527268">
        <ele>54.89</ele>
        <time>2025-02-02T23:18:27.344Z</time>
      </trkpt>
      <trkpt lat="59.3270249851048" lon="13.108067940920591">
        <ele>54.98</ele>
        <time>2025-02-02T23:18:32.414Z</time>
      </trkpt>
      <trkpt lat="59.32694694958627" lon="13.108053943142295">
        <ele>55.08</ele>
        <time>2025-02-02T23:18:37.485Z</time>
      </trkpt>
      <trkpt lat="59.32686899788678" lon="13.108039945363998">
        <ele>55.17</ele>
        <time>2025-02-02T23:18:42.557Z</time>
      </trkpt>
      <trkpt lat="59.32679196819663" lon="13.108028965070844">
        <ele>55.26</ele>
        <time>2025-02-02T23:18:47.630Z</time>
      </trkpt>
      <trkpt lat="59.326714938506484" lon="13.108017984777689">
        <ele>55.34</ele>
        <time>2025-02-02T23:18:52.705Z</time>
      </trkpt>
      <trkpt lat="59.3266399204731" lon="13.108002981171012">
        <ele>55.43</ele>
        <time>2025-02-02T23:18:57.781Z</time>
      </trkpt>
      <trkpt lat="59.326565992087126" lon="13.107990995049477">
        <ele>55.52</ele>
        <time>2025-02-02T23:19:02.858Z</time>
      </trkpt>
      <trkpt lat="59.32649399153888" lon="13.10797892510891">
        <ele>55.61</ele>
        <time>2025-02-02T23:19:07.936Z</time>
      </trkpt>
      <trkpt lat="59.326416961848736" lon="13.107977919280529">
        <ele>55.7</ele>
        <time>2025-02-02T23:19:13.015Z</time>
      </trkpt>
      <trkpt lat="59.32634496130049" lon="13.107971968129277">
        <ele>55.79</ele>
        <time>2025-02-02T23:19:18.095Z</time>
      </trkpt>
      <trkpt lat="59.32627195492387" lon="13.107965933158994">
        <ele>55.87</ele>
        <time>2025-02-02T23:19:23.177Z</time>
      </trkpt>
      <trkpt lat="59.326199954375625" lon="13.107959982007742">
        <ele>55.96</ele>
        <time>2025-02-02T23:19:28.260Z</time>
      </trkpt>
      <trkpt lat="59.32612895965576" lon="13.107953947037458">
        <ele>56.05</ele>
        <time>2025-02-02T23:19:33.344Z</time>
      </trkpt>
      <trkpt lat="59.32605897076428" lon="13.107944978401065">
        <ele>56.13</ele>
        <time>2025-02-02T23:19:38.429Z</time>
      </trkpt>
      <trkpt lat="59.32598998770118" lon="13.107938943430781">
        <ele>56.21</ele>
        <time>2025-02-02T23:19:43.515Z</time>
      </trkpt>
      <trkpt lat="59.32592494413257" lon="13.107934920117259">
        <ele>56.3</ele>
        <time>2025-02-02T23:19:48.602Z</time>
      </trkpt>
      <trkpt lat="59.32586099021137" lon="13.107930980622768">
        <ele>56.38</ele>
        <time>2025-02-02T23:19:53.690Z</time>
      </trkpt>
      <trkpt lat="59.3257989641279" lon="13.107921928167343">
        <ele>56.46</ele>
        <time>2025-02-02T23:19:58.779Z</time>
      </trkpt>
      <trkpt lat="59.32573794387281" lon="13.107908936217427">
        <ele>56.55</ele>
        <time>2025-02-02T23:20:03.869Z</time>
      </trkpt>
      <trkpt lat="59.32567097246647" lon="13.107902985066175">
        <ele>56.63</ele>
        <time>2025-02-02T23:20:08.960Z</time>
      </trkpt>
      <trkpt lat="59.325608946383" lon="13.10789393261075">
        <ele>56.72</ele>
        <time>2025-02-02T23:20:14.052Z</time>
      </trkpt>
      <trkpt lat="59.32554893195629" lon="13.107885969802737">
        <ele>56.8</ele>
        <time>2025-02-02T23:20:19.145Z</time>
      </trkpt>
      <trkpt lat="59.325490929186344" lon="13.107874989509583">
        <ele>56.88</ele>
        <time>2025-02-02T23:20:24.239Z</time>
      </trkpt>
      <trkpt lat="59.3254329264164" lon="13.107866942882538">
        <ele>56.96</ele>
        <time>2025-02-02T23:20:29.334Z</time>
      </trkpt>
      <trkpt lat="59.32537592947483" lon="13.107856968417764">
        <ele>57.03</ele>
        <time>2025-02-02T23:20:34.430Z</time>
      </trkpt>
      <trkpt lat="59.325318932533264" lon="13.107845988124609">
        <ele>57.11</ele>
        <time>2025-02-02T23:20:39.527Z</time>
      </trkpt>
      <trkpt lat="59.3252619355917" lon="13.107833918184042">
        <ele>57.18</ele>
        <time>2025-02-02T23:20:44.625Z</time>
      </trkpt>
      <trkpt lat="59.32520493865013" lon="13.107818998396397">
        <ele>57.26</ele>
        <time>2025-02-02T23:20:49.724Z</time>
      </trkpt>
      <trkpt lat="59.325146935880184" lon="13.107805922627449">
        <ele>57.32</ele>
        <time>2025-02-02T23:20:54.824Z</time>
      </trkpt>
      <trkpt lat="59.32508993893862" lon="13.107793936505914">
        <ele>57.39</ele>
        <time>2025-02-02T23:20:59.925Z</time>
      </trkpt>
      <trkpt lat="59.32503193616867" lon="13.107781950384378">
        <ele>57.46</ele>
        <time>2025-02-02T23:21:05.027Z</time>
      </trkpt>
      <trkpt lat="59.324970999732614" lon="13.107771975919604">
        <ele>57.53</ele>
        <time>2025-02-02T23:21:10.130Z</time>
      </trkpt>
      <trkpt lat="59.324910985305905" lon="13.10776099562645">
        <ele>57.6</ele>
        <time>2025-02-02T23:21:15.234Z</time>
      </trkpt>
      <trkpt lat="59.3248509708792" lon="13.107753954827785">
        <ele>57.67</ele>
        <time>2025-02-02T23:21:20.339Z</time>
      </trkpt>
      <trkpt lat="59.32478995062411" lon="13.107744986191392">
        <ele>57.74</ele>
        <time>2025-02-02T23:21:25.444Z</time>
      </trkpt>
      <trkpt lat="59.32472096756101" lon="13.10774096287787">
        <ele>57.8</ele>
        <time>2025-02-02T23:21:30.551Z</time>
      </trkpt>
      <trkpt lat="59.324653996154666" lon="13.107731994241476">
        <ele>57.87</ele>
        <time>2025-02-02T23:21:35.659Z</time>
      </trkpt>
      <trkpt lat="59.324588952586055" lon="13.10771799646318">
        <ele>57.93</ele>
        <time>2025-02-02T23:21:40.768Z</time>
      </trkpt>
      <trkpt lat="59.324525920674205" lon="13.107703998684883">
        <ele>58.0</ele>
        <time>2025-02-02T23:21:45.878Z</time>
      </trkpt>
      <trkpt lat="59.324460960924625" lon="13.107690922915936">
        <ele>58.06</ele>
        <time>2025-02-02T23:21:50.989Z</time>
      </trkpt>
      <trkpt lat="59.324396923184395" lon="13.107676925137639">
        <ele>58.12</ele>
        <time>2025-02-02T23:21:56.101Z</time>
      </trkpt>
      <trkpt lat="59.324332969263196" lon="13.107663933187723">
        <ele>58.18</ele>
        <time>2025-02-02T23:22:01.214Z</time>
      </trkpt>
      <trkpt lat="59.324267925694585" lon="13.107646917924285">
        <ele>58.25</ele>
        <time>2025-02-02T23:22:06.328Z</time>
      </trkpt>
      <trkpt lat="59.324202965945005" lon="13.107628980651498">
        <ele>58.31</ele>
        <time>2025-02-02T23:22:11.443Z</time>
      </trkpt>
      <trkpt lat="59.324139934033155" lon="13.107614982873201">
        <ele>58.37</ele>
        <time>2025-02-02T23:22:16.559Z</time>
      </trkpt>
      <trkpt lat="59.32407799176872" lon="13.107601990923285">
        <ele>58.42</ele>
        <time>2025-02-02T23:22:21.676Z</time>
      </trkpt>
      <trkpt lat="59.32401697151363" lon="13.107586987316608">
        <ele>58.48</ele>
        <time>2025-02-02T23:22:26.794Z</time>
      </trkpt>
      <trkpt lat="59.32395595125854" lon="13.107566954568028">
        <ele>58.54</ele>
        <time>2025-02-02T23:22:31.913Z</time>
      </trkpt>
      <trkpt lat="59.32389392517507" lon="13.107539964839816">
        <ele>58.59</ele>
        <time>2025-02-02T23:22:37.033Z</time>
      </trkpt>
      <trkpt lat="59.32383097708225" lon="13.107509957626462">
        <ele>58.65</ele>
        <time>2025-02-02T23:22:42.154Z</time>
      </trkpt>
      <trkpt lat="59.32376693934202" lon="13.10748296789825">
        <ele>58.7</ele>
        <time>2025-02-02T23:22:47.276Z</time>
      </trkpt>
      <trkpt lat="59.32370197959244" lon="13.107461929321289">
        <ele>58.76</ele>
        <time>2025-02-02T23:22:52.399Z</time>
      </trkpt>
      <trkpt lat="59.32363693602383" lon="13.107446925714612">
        <ele>58.81</ele>
        <time>2025-02-02T23:22:57.523Z</time>
      </trkpt>
      <trkpt lat="59.32357197627425" lon="13.107433933764696">
        <ele>58.87</ele>
        <time>2025-02-02T23:23:02.648Z</time>
      </trkpt>
      <trkpt lat="59.32350693270564" lon="13.10742094181478">
        <ele>58.92</ele>
        <time>2025-02-02T23:23:07.774Z</time>
      </trkpt>
      <trkpt lat="59.32344398461282" lon="13.107409961521626">
        <ele>58.97</ele>
        <time>2025-02-02T23:23:12.901Z</time>
      </trkpt>
      <trkpt lat="59.323383970186114" lon="13.10739898122847">
        <ele>59.02</ele>
        <time>2025-02-02T23:23:18.029Z</time>
      </trkpt>
      <trkpt lat="59.32332596741617" lon="13.107388922944665">
        <ele>59.07</ele>
        <time>2025-02-02T23:23:23.158Z</time>
      </trkpt>
      <trkpt lat="59.32326997630298" lon="13.107375930994749">
        <ele>59.12</ele>
        <time>2025-02-02T23:23:28.288Z</time>
      </trkpt>
      <trkpt lat="59.323217924684286" lon="13.10735397040844">
        <ele>59.17</ele>
        <time>2025-02-02T23:23:33.419Z</time>
      </trkpt>
      <trkpt lat="59.323169980198145" lon="13.10731298290193">
        <ele>59.22</ele>
        <time>2025-02-02T23:23:38.551Z</time>
      </trkpt>
      <trkpt lat="59.323127986863256" lon="13.107260931283236">
        <ele>59.27</ele>
        <time>2025-02-02T23:23:43.684Z</time>
      </trkpt>
      <trkpt lat="59.323083981871605" lon="13.107221955433488">
        <ele>59.31</ele>
        <time>2025-02-02T23:23:48.817Z</time>
      </trkpt>
      <trkpt lat="59.323044922202826" lon="13.107194965705276">
        <ele>59.36</ele>
        <time>2025-02-02T23:23:53.951Z</time>
      </trkpt>
      <trkpt lat="59.32300896383822" lon="13.107179962098598">
        <ele>59.4</ele>
        <time>2025-02-02T23:23:59.086Z</time>
      </trkpt>
      <trkpt lat="59.32297392748296" lon="13.10716395266354">
        <ele>59.44</ele>
        <time>2025-02-02T23:24:04.221Z</time>
      </trkpt>
      <trkpt lat="59.3229409866035" lon="13.107146937400103">
        <ele>59.48</ele>
        <time>2025-02-02T23:24:09.357Z</time>
      </trkpt>
      <trkpt lat="59.322909973561764" lon="13.107131933793426">
        <ele>59.53</ele>
        <time>2025-02-02T23:24:14.493Z</time>
      </trkpt>
      <trkpt lat="59.32287694886327" lon="13.107135957106948">
        <ele>59.57</ele>
        <time>2025-02-02T23:24:19.630Z</time>
      </trkpt>
      <trkpt lat="59.32284492999315" lon="13.10718297958374">
        <ele>59.6</ele>
        <time>2025-02-02T23:24:24.767Z</time>
      </trkpt>
      <trkpt lat="59.3228199519217" lon="13.107266966253519">
        <ele>59.64</ele>
        <time>2025-02-02T23:24:29.905Z</time>
      </trkpt>
      <trkpt lat="59.32279799133539" lon="13.107360927388072">
        <ele>59.67</ele>
        <time>2025-02-02T23:24:35.044Z</time>
      </trkpt>
      <trkpt lat="59.32277997024357" lon="13.107457989826798">
        <ele>59.7</ele>
        <time>2025-02-02T23:24:40.184Z</time>
      </trkpt>
      <trkpt lat="59.32276798412204" lon="13.107552956789732">
        <ele>59.72</ele>
        <time>2025-02-02T23:24:45.325Z</time>
      </trkpt>
      <trkpt lat="59.32275993749499" lon="13.10763593763113">
        <ele>59.75</ele>
        <time>2025-02-02T23:24:50.466Z</time>
      </trkpt>
      <trkpt lat="59.32274895720184" lon="13.107695952057838">
        <ele>59.78</ele>
        <time>2025-02-02T23:24:55.608Z</time>
      </trkpt>
      <trkpt lat="59.322741916403174" lon="13.107751943171024">
        <ele>59.8</ele>
        <time>2025-02-02T23:25:00.750Z</time>
      </trkpt>
      <trkpt lat="59.32273093611002" lon="13.107804916799068">
        <ele>59.83</ele>
        <time>2025-02-02T23:25:05.893Z</time>
      </trkpt>
      <trkpt lat="59.32271299883723" lon="13.107837941497564">
        <ele>59.85</ele>
        <time>2025-02-02T23:25:11.036Z</time>
      </trkpt>
      <trkpt lat="59.32268592528999" lon="13.107836935669184">
        <ele>59.88</ele>
        <time>2025-02-02T23:25:16.180Z</time>
      </trkpt>
      <trkpt lat="59.32266497053206" lon="13.107804916799068">
        <ele>59.9</ele>
        <time>2025-02-02T23:25:21.324Z</time>
      </trkpt>
      <trkpt lat="59.32264996692538" lon="13.107756972312927">
        <ele>59.93</ele>
        <time>2025-02-02T23:25:26.469Z</time>
      </trkpt>
      <trkpt lat="59.32263094000518" lon="13.107704920694232">
        <ele>59.95</ele>
        <time>2025-02-02T23:25:31.614Z</time>
      </trkpt>
      <trkpt lat="59.32260596193373" lon="13.107665944844484">
        <ele>59.97</ele>
        <time>2025-02-02T23:25:36.760Z</time>
      </trkpt>
      <trkpt lat="59.32257696054876" lon="13.107647923752666">
        <ele>59.99</ele>
        <time>2025-02-02T23:25:41.906Z</time>
      </trkpt>
      <trkpt lat="59.32254494167864" lon="13.107637949287891">
        <ele>60.01</ele>
        <time>2025-02-02T23:25:47.053Z</time>
      </trkpt>
      <trkpt lat="59.322506971657276" lon="13.107620934024453">
        <ele>60.03</ele>
        <time>2025-02-02T23:25:52.200Z</time>
      </trkpt>
      <trkpt lat="59.32246698997915" lon="13.107603918761015">
        <ele>60.04</ele>
        <time>2025-02-02T23:25:57.348Z</time>
      </trkpt>
      <trkpt lat="59.322420973330736" lon="13.10759293846786">
        <ele>60.06</ele>
        <time>2025-02-02T23:26:02.497Z</time>
      </trkpt>
      <trkpt lat="59.322373950853944" lon="13.107578940689564">
        <ele>60.07</ele>
        <time>2025-02-02T23:26:07.646Z</time>
      </trkpt>
      <trkpt lat="59.32232399471104" lon="13.107558991760015">
        <ele>60.09</ele>
        <time>2025-02-02T23:26:12.796Z</time>
      </trkpt>
      <trkpt lat="59.32227294892073" lon="13.107539964839816">
        <ele>60.1</ele>
        <time>2025-02-02T23:26:17.947Z</time>
      </trkpt>
      <trkpt lat="59.322223998606205" lon="13.107512975111604">
        <ele>60.1</ele>
        <time>2025-02-02T23:26:23.099Z</time>
      </trkpt>
      <trkpt lat="59.32217395864427" lon="13.107476932927966">
        <ele>60.11</ele>
        <time>2025-02-02T23:26:28.252Z</time>
      </trkpt>
      <trkpt lat="59.32212299667299" lon="13.10743996873498">
        <ele>60.12</ele>
        <time>2025-02-02T23:26:33.406Z</time>
      </trkpt>
      <trkpt lat="59.32206993922591" lon="13.107407949864864">
        <ele>60.13</ele>
        <time>2025-02-02T23:26:38.561Z</time>
      </trkpt>
      <trkpt lat="59.32201495394111" lon="13.107379954308271">
        <ele>60.13</ele>
        <time>2025-02-02T23:26:43.716Z</time>
      </trkpt>
      <trkpt lat="59.32195896282792" lon="13.107349947094917">
        <ele>60.13</ele>
        <time>2025-02-02T23:26:48.872Z</time>
      </trkpt>
      <trkpt lat="59.321900960057974" lon="13.107317928224802">
        <ele>60.13</ele>
        <time>2025-02-02T23:26:54.029Z</time>
      </trkpt>
      <trkpt lat="59.321840945631266" lon="13.107284987345338">
        <ele>60.13</ele>
        <time>2025-02-02T23:26:59.187Z</time>
      </trkpt>
      <trkpt lat="59.321778919547796" lon="13.107251962646842">
        <ele>60.12</ele>
        <time>2025-02-02T23:27:04.346Z</time>
      </trkpt>
      <trkpt lat="59.32171395979822" lon="13.107214998453856">
        <ele>60.11</ele>
        <time>2025-02-02T23:27:09.506Z</time>
      </trkpt>
      <trkpt lat="59.32164799422026" lon="13.107176944613457">
        <ele>60.11</ele>
        <time>2025-02-02T23:27:14.668Z</time>
      </trkpt>
      <trkpt lat="59.321580938994884" lon="13.10713897459209">
        <ele>60.1</ele>
        <time>2025-02-02T23:27:19.831Z</time>
      </trkpt>
      <trkpt lat="59.32151195593178" lon="13.107101926580071">
        <ele>60.08</ele>
        <time>2025-02-02T23:27:24.995Z</time>
      </trkpt>
      <trkpt lat="59.32144297286868" lon="13.107064962387085">
        <ele>60.07</ele>
        <time>2025-02-02T23:27:30.160Z</time>
      </trkpt>
      <trkpt lat="59.3213729839772" lon="13.107024980708957">
        <ele>60.06</ele>
        <time>2025-02-02T23:27:35.326Z</time>
      </trkpt>
      <trkpt lat="59.321302995085716" lon="13.106981981545687">
        <ele>60.04</ele>
        <time>2025-02-02T23:27:40.493Z</time>
      </trkpt>
      <trkpt lat="59.32123099453747" lon="13.106937976554036">
        <ele>60.03</ele>
        <time>2025-02-02T23:27:45.662Z</time>
      </trkpt>
      <trkpt lat="59.32115999981761" lon="13.106893971562386">
        <ele>60.01</ele>
        <time>2025-02-02T23:27:50.832Z</time>
      </trkpt>
      <trkpt lat="59.321088921278715" lon="13.106849966570735">
        <ele>59.99</ele>
        <time>2025-02-02T23:27:56.003Z</time>
      </trkpt>
      <trkpt lat="59.32101792655885" lon="13.106803949922323">
        <ele>59.97</ele>
        <time>2025-02-02T23:28:01.175Z</time>
      </trkpt>
      <trkpt lat="59.32094693183899" lon="13.106756927445531">
        <ele>59.95</ele>
        <time>2025-02-02T23:28:06.348Z</time>
      </trkpt>
      <trkpt lat="59.320874931290746" lon="13.106707977131009">
        <ele>59.92</ele>
        <time>2025-02-02T23:28:11.523Z</time>
      </trkpt>
      <trkpt lat="59.32080393657088" lon="13.106654919683933">
        <ele>59.9</ele>
        <time>2025-02-02T23:28:16.699Z</time>
      </trkpt>
      <trkpt lat="59.32073093019426" lon="13.10660194605589">
        <ele>59.87</ele>
        <time>2025-02-02T23:28:21.876Z</time>
      </trkpt>
      <trkpt lat="59.320658929646015" lon="13.106545954942703">
        <ele>59.85</ele>
        <time>2025-02-02T23:28:27.054Z</time>
      </trkpt>
      <trkpt lat="59.32058692909777" lon="13.106490969657898">
        <ele>59.82</ele>
        <time>2025-02-02T23:28:32.233Z</time>
      </trkpt>
      <trkpt lat="59.32051492854953" lon="13.106434978544712">
        <ele>59.8</ele>
        <time>2025-02-02T23:28:37.414Z</time>
      </trkpt>
      <trkpt lat="59.320441922172904" lon="13.106374964118004">
        <ele>59.76</ele>
        <time>2025-02-02T23:28:42.596Z</time>
      </trkpt>
      <trkpt lat="59.32036992162466" lon="13.106312938034534">
        <ele>59.73</ele>
        <time>2025-02-02T23:28:47.779Z</time>
      </trkpt>
      <trkpt lat="59.32029792107642" lon="13.106250995770097">
        <ele>59.69</ele>
        <time>2025-02-02T23:28:52.964Z</time>
      </trkpt>
      <trkpt lat="59.320224998518825" lon="13.106187963858247">
        <ele>59.66</ele>
        <time>2025-02-02T23:28:58.150Z</time>
      </trkpt>
      <trkpt lat="59.32015299797058" lon="13.106123926118016">
        <ele>59.62</ele>
        <time>2025-02-02T23:29:03.337Z</time>
      </trkpt>
      <trkpt lat="59.32007999159396" lon="13.106057960540056">
        <ele>59.58</ele>
        <time>2025-02-02T23:29:08.525Z</time>
      </trkpt>
      <trkpt lat="59.32000698521733" lon="13.105991994962096">
        <ele>59.54</ele>
        <time>2025-02-02T23:29:13.715Z</time>
      </trkpt>
      <trkpt lat="59.31993397884071" lon="13.105922928079963">
        <ele>59.5</ele>
        <time>2025-02-02T23:29:18.906Z</time>
      </trkpt>
      <trkpt lat="59.319861978292465" lon="13.1058519333601">
        <ele>59.46</ele>
        <time>2025-02-02T23:29:24.098Z</time>
      </trkpt>
      <trkpt lat="59.31978997774422" lon="13.105780938640237">
        <ele>59.43</ele>
        <time>2025-02-02T23:29:29.292Z</time>
      </trkpt>
      <trkpt lat="59.3197169713676" lon="13.105708938091993">
        <ele>59.39</ele>
        <time>2025-02-02T23:29:34.487Z</time>
      </trkpt>
      <trkpt lat="59.319644970819354" lon="13.10563593171537">
        <ele>59.34</ele>
        <time>2025-02-02T23:29:39.683Z</time>
      </trkpt>
      <trkpt lat="59.31957297027111" lon="13.105560997501016">
        <ele>59.3</ele>
        <time>2025-02-02T23:29:44.880Z</time>
      </trkpt>
      <trkpt lat="59.319499963894486" lon="13.10548396781087">
        <ele>59.25</ele>
        <time>2025-02-02T23:29:50.079Z</time>
      </trkpt>
      <trkpt lat="59.31942796334624" lon="13.105404926463962">
        <ele>59.21</ele>
        <time>2025-02-02T23:29:55.279Z</time>
      </trkpt>
      <trkpt lat="59.31935495696962" lon="13.105322951450944">
        <ele>59.16</ele>
        <time>2025-02-02T23:30:00.480Z</time>
      </trkpt>
      <trkpt lat="59.319282956421375" lon="13.105238964781165">
        <ele>59.11</ele>
        <time>2025-02-02T23:30:05.683Z</time>
      </trkpt>
      <trkpt lat="59.31921095587313" lon="13.105154978111386">
        <ele>59.06</ele>
        <time>2025-02-02T23:30:10.887Z</time>
      </trkpt>
      <trkpt lat="59.31913794949651" lon="13.105070991441607">
        <ele>59.01</ele>
        <time>2025-02-02T23:30:16.092Z</time>
      </trkpt>
      <trkpt lat="59.319065948948264" lon="13.104984993115067">
        <ele>58.96</ele>
        <time>2025-02-02T23:30:21.299Z</time>
      </trkpt>
      <trkpt lat="59.31899596005678" lon="13.104896983131766">
        <ele>58.91</ele>
        <time>2025-02-02T23:30:26.507Z</time>
      </trkpt>
      <trkpt lat="59.31892697699368" lon="13.104807967320085">
        <ele>58.87</ele>
        <time>2025-02-02T23:30:31.717Z</time>
      </trkpt>
      <trkpt lat="59.31885598227382" lon="13.104718951508403">
        <ele>58.82</ele>
        <time>2025-02-02T23:30:36.928Z</time>
      </trkpt>
      <trkpt lat="59.318786999210715" lon="13.10462691821158">
        <ele>58.78</ele>
        <time>2025-02-02T23:30:42.140Z</time>
      </trkpt>
      <trkpt lat="59.31871893815696" lon="13.104533962905407">
        <ele>58.73</ele>
        <time>2025-02-02T23:30:47.354Z</time>
      </trkpt>
      <trkpt lat="59.31865196675062" lon="13.104438995942473">
        <ele>58.68</ele>
        <time>2025-02-02T23:30:52.569Z</time>
      </trkpt>
      <trkpt lat="59.31858591735363" lon="13.104342939332128">
        <ele>58.62</ele>
        <time>2025-02-02T23:30:57.785Z</time>
      </trkpt>
      <trkpt lat="59.31852095760405" lon="13.104248978197575">
        <ele>58.58</ele>
        <time>2025-02-02T23:31:03.002Z</time>
      </trkpt>
      <trkpt lat="59.31845691986382" lon="13.104156944900751">
        <ele>58.53</ele>
        <time>2025-02-02T23:31:08.221Z</time>
      </trkpt>
      <trkpt lat="59.31839497759938" lon="13.104065917432308">
        <ele>58.48</ele>
        <time>2025-02-02T23:31:13.441Z</time>
      </trkpt>
      <trkpt lat="59.318335969001055" lon="13.103974973782897">
        <ele>58.43</ele>
        <time>2025-02-02T23:31:18.662Z</time>
      </trkpt>
      <trkpt lat="59.31827796623111" lon="13.103882940486073">
        <ele>58.38</ele>
        <time>2025-02-02T23:31:23.884Z</time>
      </trkpt>
      <trkpt lat="59.31822197511792" lon="13.103792918846011">
        <ele>58.33</ele>
        <time>2025-02-02T23:31:29.108Z</time>
      </trkpt>
      <trkpt lat="59.318168917670846" lon="13.103704992681742">
        <ele>58.28</ele>
        <time>2025-02-02T23:31:34.333Z</time>
      </trkpt>
      <trkpt lat="59.3181159440428" lon="13.10361497104168">
        <ele>58.23</ele>
        <time>2025-02-02T23:31:39.559Z</time>
      </trkpt>
      <trkpt lat="59.31806297041476" lon="13.103523943573236">
        <ele>58.18</ele>
        <time>2025-02-02T23:31:44.786Z</time>
      </trkpt>
      <trkpt lat="59.318009996786714" lon="13.103432999923825">
        <ele>58.13</ele>
        <time>2025-02-02T23:31:50.014Z</time>
      </trkpt>
      <trkpt lat="59.31795794516802" lon="13.103341972455382">
        <ele>58.08</ele>
        <time>2025-02-02T23:31:55.243Z</time>
      </trkpt>
      <trkpt lat="59.317905977368355" lon="13.10325094498694">
        <ele>58.03</ele>
        <time>2025-02-02T23:32:00.473Z</time>
      </trkpt>
      <trkpt lat="59.31785593740642" lon="13.103158995509148">
        <ele>57.98</ele>
        <time>2025-02-02T23:32:05.704Z</time>
      </trkpt>
      <trkpt lat="59.31780598126352" lon="13.103066962212324">
        <ele>57.93</ele>
        <time>2025-02-02T23:32:10.937Z</time>
      </trkpt>
      <trkpt lat="59.317756947129965" lon="13.102975934743881">
        <ele>57.88</ele>
        <time>2025-02-02T23:32:16.171Z</time>
      </trkpt>
      <trkpt lat="59.31770799681544" lon="13.10288398526609">
        <ele>57.82</ele>
        <time>2025-02-02T23:32:21.406Z</time>
      </trkpt>
      <trkpt lat="59.31765896268189" lon="13.102791951969266">
        <ele>57.76</ele>
        <time>2025-02-02T23:32:26.642Z</time>
      </trkpt>
      <trkpt lat="59.317609928548336" lon="13.102698996663094">
        <ele>57.71</ele>
        <time>2025-02-02T23:32:31.879Z</time>
      </trkpt>
      <trkpt lat="59.317560978233814" lon="13.102604951709509">
        <ele>57.65</ele>
        <time>2025-02-02T23:32:37.117Z</time>
      </trkpt>
      <trkpt lat="59.31751194410026" lon="13.102509984746575">
        <ele>57.59</ele>
        <time>2025-02-02T23:32:42.356Z</time>
      </trkpt>
      <trkpt lat="59.31746098212898" lon="13.10241593979299">
        <ele>57.53</ele>
        <time>2025-02-02T23:32:47.596Z</time>
      </trkpt>
      <trkpt lat="59.31740993633866" lon="13.102319967001677">
        <ele>57.47</ele>
        <time>2025-02-02T23:32:52.837Z</time>
      </trkpt>
      <trkpt lat="59.31735897436738" lon="13.102221982553601">
        <ele>57.4</ele>
        <time>2025-02-02T23:32:58.079Z</time>
      </trkpt>
      <trkpt lat="59.317307928577065" lon="13.102123998105526">
        <ele>57.33</ele>
        <time>2025-02-02T23:33:03.323Z</time>
      </trkpt>
      <trkpt lat="59.31725696660578" lon="13.102024924010038">
        <ele>57.26</ele>
        <time>2025-02-02T23:33:08.568Z</time>
      </trkpt>
      <trkpt lat="59.31720499880612" lon="13.101923922076821">
        <ele>57.2</ele>
        <time>2025-02-02T23:33:13.814Z</time>
      </trkpt>
      <trkpt lat="59.317153953015804" lon="13.101821998134255">
        <ele>57.13</ele>
        <time>2025-02-02T23:33:19.061Z</time>
      </trkpt>
      <trkpt lat="59.31710198521614" lon="13.101719990372658">
        <ele>57.05</ele>
        <time>2025-02-02T23:33:24.309Z</time>
      </trkpt>
      <trkpt lat="59.317048927769065" lon="13.101615970954299">
        <ele>56.98</ele>
        <time>2025-02-02T23:33:29.559Z</time>
      </trkpt>
      <trkpt lat="59.31699796579778" lon="13.101507928222418">
        <ele>56.92</ele>
        <time>2025-02-02T23:33:34.810Z</time>
      </trkpt>
      <trkpt lat="59.31694792583585" lon="13.101397957652807">
        <ele>56.86</ele>
        <time>2025-02-02T23:33:40.062Z</time>
      </trkpt>
      <trkpt lat="59.316897969692945" lon="13.101287987083197">
        <ele>56.8</ele>
        <time>2025-02-02T23:33:45.315Z</time>
      </trkpt>
      <trkpt lat="59.31684692390263" lon="13.101177932694554">
        <ele>56.73</ele>
        <time>2025-02-02T23:33:50.569Z</time>
      </trkpt>
      <trkpt lat="59.31679897941649" lon="13.101063938811421">
        <ele>56.67</ele>
        <time>2025-02-02T23:33:55.825Z</time>
      </trkpt>
      <trkpt lat="59.3167519569397" lon="13.100945921614766">
        <ele>56.61</ele>
        <time>2025-02-02T23:34:01.082Z</time>
      </trkpt>
      <trkpt lat="59.316705940291286" lon="13.100824970752">
        <ele>56.56</ele>
        <time>2025-02-02T23:34:06.340Z</time>
      </trkpt>
      <trkpt lat="59.316659923642874" lon="13.100702930241823">
        <ele>56.51</ele>
        <time>2025-02-02T23:34:11.599Z</time>
      </trkpt>
      <trkpt lat="59.31661298498511" lon="13.100578961893916">
        <ele>56.45</ele>
        <time>2025-02-02T23:34:16.860Z</time>
      </trkpt>
      <trkpt lat="59.31656797416508" lon="13.100453987717628">
        <ele>56.4</ele>
        <time>2025-02-02T23:34:22.122Z</time>
      </trkpt>
      <trkpt lat="59.31652396917343" lon="13.10032993555069">
        <ele>56.34</ele>
        <time>2025-02-02T23:34:27.385Z</time>
      </trkpt>
      <trkpt lat="59.31648298166692" lon="13.100208984687924">
        <ele>56.29</ele>
        <time>2025-02-02T23:34:32.649Z</time>
      </trkpt>
      <trkpt lat="59.31644098833203" lon="13.100085938349366">
        <ele>56.24</ele>
        <time>2025-02-02T23:34:37.914Z</time>
      </trkpt>
      <trkpt lat="59.316398994997144" lon="13.099965993314981">
        <ele>56.19</ele>
        <time>2025-02-02T23:34:43.181Z</time>
      </trkpt>
      <trkpt lat="59.316355995833874" lon="13.099853927269578">
        <ele>56.15</ele>
        <time>2025-02-02T23:34:48.449Z</time>
      </trkpt>
      <trkpt lat="59.31631098501384" lon="13.099755942821503">
        <ele>56.1</ele>
        <time>2025-02-02T23:34:53.718Z</time>
      </trkpt>
      <trkpt lat="59.31626195088029" lon="13.099677991122007">
        <ele>56.06</ele>
        <time>2025-02-02T23:34:58.988Z</time>
      </trkpt>
      <trkpt lat="59.316209983080626" lon="13.099612947553396">
        <ele>56.01</ele>
        <time>2025-02-02T23:35:04.259Z</time>
      </trkpt>
      <trkpt lat="59.31616094894707" lon="13.099538935348392">
        <ele>55.97</ele>
        <time>2025-02-02T23:35:09.531Z</time>
      </trkpt>
      <trkpt lat="59.316122978925705" lon="13.099442962557077">
        <ele>55.94</ele>
        <time>2025-02-02T23:35:14.804Z</time>
      </trkpt>
      <trkpt lat="59.316101940348744" lon="13.099336931481957">
        <ele>55.9</ele>
        <time>2025-02-02T23:35:20.078Z</time>
      </trkpt>
      <trkpt lat="59.31609598919749" lon="13.099218998104334">
        <ele>55.88</ele>
        <time>2025-02-02T23:35:25.353Z</time>
      </trkpt>
      <trkpt lat="59.31608794257045" lon="13.099100980907679">
        <ele>55.86</ele>
        <time>2025-02-02T23:35:30.629Z</time>
      </trkpt>
      <trkpt lat="59.316061958670616" lon="13.098985981196165">
        <ele>55.84</ele>
        <time>2025-02-02T23:35:35.906Z</time>
      </trkpt>
      <trkpt lat="59.31602398864925" lon="13.098872993141413">
        <ele>55.82</ele>
        <time>2025-02-02T23:35:41.184Z</time>
      </trkpt>
      <trkpt lat="59.31598291732371" lon="13.098753970116377">
        <ele>55.8</ele>
        <time>2025-02-02T23:35:46.463Z</time>
      </trkpt>
      <trkpt lat="59.31593991816044" lon="13.098630923777819">
        <ele>55.79</ele>
        <time>2025-02-02T23:35:51.743Z</time>
      </trkpt>
      <trkpt lat="59.31589599698782" lon="13.098505949601531">
        <ele>55.77</ele>
        <time>2025-02-02T23:35:57.024Z</time>
      </trkpt>
      <trkpt lat="59.31585098616779" lon="13.098377957940102">
        <ele>55.77</ele>
        <time>2025-02-02T23:36:02.307Z</time>
      </trkpt>
      <trkpt lat="59.315803963690996" lon="13.09824493713677">
        <ele>55.77</ele>
        <time>2025-02-02T23:36:07.591Z</time>
      </trkpt>
      <trkpt lat="59.31575492955744" lon="13.098108982667327">
        <ele>55.76</ele>
        <time>2025-02-02T23:36:12.876Z</time>
      </trkpt>
      <trkpt lat="59.31570497341454" lon="13.097969926893711">
        <ele>55.76</ele>
        <time>2025-02-02T23:36:18.163Z</time>
      </trkpt>
      <trkpt lat="59.315653927624226" lon="13.097829949110746">
        <ele>55.76</ele>
        <time>2025-02-02T23:36:23.451Z</time>
      </trkpt>
      <trkpt lat="59.31560095399618" lon="13.09768795967102">
        <ele>55.76</ele>
        <time>2025-02-02T23:36:28.741Z</time>
      </trkpt>
      <trkpt lat="59.31554798036814" lon="13.097545970231295">
        <ele>55.77</ele>
        <time>2025-02-02T23:36:34.032Z</time>
      </trkpt>
      <trkpt lat="59.31549693457782" lon="13.097402974963188">
        <ele>55.77</ele>
        <time>2025-02-02T23:36:39.325Z</time>
      </trkpt>
      <trkpt lat="59.31544597260654" lon="13.09725796803832">
        <ele>55.78</ele>
        <time>2025-02-02T23:36:44.619Z</time>
      </trkpt>
      <trkpt lat="59.315393920987844" lon="13.097111955285072">
        <ele>55.8</ele>
        <time>2025-02-02T23:36:49.914Z</time>
      </trkpt>
      <trkpt lat="59.31534195318818" lon="13.096967954188585">
        <ele>55.81</ele>
        <time>2025-02-02T23:36:55.211Z</time>
      </trkpt>
      <trkpt lat="59.31528998538852" lon="13.096823953092098">
        <ele>55.82</ele>
        <time>2025-02-02T23:37:00.509Z</time>
      </trkpt>
      <trkpt lat="59.31523994542658" lon="13.09667794033885">
        <ele>55.85</ele>
        <time>2025-02-02T23:37:05.809Z</time>
      </trkpt>
      <trkpt lat="59.31518797762692" lon="13.096534945070744">
        <ele>55.89</ele>
        <time>2025-02-02T23:37:11.110Z</time>
      </trkpt>
      <trkpt lat="59.315133998170495" lon="13.096391949802637">
        <ele>55.93</ele>
        <time>2025-02-02T23:37:16.413Z</time>
      </trkpt>
      <trkpt lat="59.31507993489504" lon="13.09624895453453">
        <ele>55.97</ele>
        <time>2025-02-02T23:37:21.717Z</time>
      </trkpt>
      <trkpt lat="59.315025955438614" lon="13.096105959266424">
        <ele>56.01</ele>
        <time>2025-02-02T23:37:27.023Z</time>
      </trkpt>
      <trkpt lat="59.31497499346733" lon="13.095964975655079">
        <ele>56.06</ele>
        <time>2025-02-02T23:37:32.330Z</time>
      </trkpt>
      <trkpt lat="59.314922941848636" lon="13.095823992043734">
        <ele>56.11</ele>
        <time>2025-02-02T23:37:37.638Z</time>
      </trkpt>
      <trkpt lat="59.31487097404897" lon="13.095681918784976">
        <ele>56.17</ele>
        <time>2025-02-02T23:37:42.948Z</time>
      </trkpt>
      <trkpt lat="59.31481892243028" lon="13.09554093517363">
        <ele>56.23</ele>
        <time>2025-02-02T23:37:48.259Z</time>
      </trkpt>
      <trkpt lat="59.31476594880223" lon="13.095400957390666">
        <ele>56.29</ele>
        <time>2025-02-02T23:37:53.572Z</time>
      </trkpt>
      <trkpt lat="59.31471196934581" lon="13.095261985436082">
        <ele>56.34</ele>
        <time>2025-02-02T23:37:58.886Z</time>
      </trkpt>
      <trkpt lat="59.31465991772711" lon="13.09512997046113">
        <ele>56.4</ele>
        <time>2025-02-02T23:38:04.202Z</time>
      </trkpt>
      <trkpt lat="59.31460493244231" lon="13.095007929950953">
        <ele>56.47</ele>
        <time>2025-02-02T23:38:09.519Z</time>
      </trkpt>
      <trkpt lat="59.3145449180156" lon="13.0948949418962">
        <ele>56.54</ele>
        <time>2025-02-02T23:38:14.837Z</time>
      </trkpt>
      <trkpt lat="59.31448892690241" lon="13.094774996861815">
        <ele>56.62</ele>
        <time>2025-02-02T23:38:20.157Z</time>
      </trkpt>
      <trkpt lat="59.31443897075951" lon="13.094649938866496">
        <ele>56.7</ele>
        <time>2025-02-02T23:38:25.478Z</time>
      </trkpt>
      <trkpt lat="59.31439094245434" lon="13.094523958861828">
        <ele>56.78</ele>
        <time>2025-02-02T23:38:30.800Z</time>
      </trkpt>
      <trkpt lat="59.314344925805926" lon="13.094394961372018">
        <ele>56.87</ele>
        <time>2025-02-02T23:38:36.123Z</time>
      </trkpt>
      <trkpt lat="59.314298992976546" lon="13.094266969710588">
        <ele>56.96</ele>
        <time>2025-02-02T23:38:41.448Z</time>
      </trkpt>
      <trkpt lat="59.31424895301461" lon="13.094136966392398">
        <ele>57.06</ele>
        <time>2025-02-02T23:38:46.774Z</time>
      </trkpt>
      <trkpt lat="59.31419497355819" lon="13.094008974730968">
        <ele>57.16</ele>
        <time>2025-02-02T23:38:52.101Z</time>
      </trkpt>
      <trkpt lat="59.31413998827338" lon="13.093883916735649">
        <ele>57.27</ele>
        <time>2025-02-02T23:38:57.430Z</time>
      </trkpt>
      <trkpt lat="59.314081985503435" lon="13.093761960044503">
        <ele>57.38</ele>
        <time>2025-02-02T23:39:02.760Z</time>
      </trkpt>
      <trkpt lat="59.31402398273349" lon="13.093639919534326">
        <ele>57.5</ele>
        <time>2025-02-02T23:39:08.092Z</time>
      </trkpt>
      <trkpt lat="59.3139679916203" lon="13.093520980328321">
        <ele>57.61</ele>
        <time>2025-02-02T23:39:13.425Z</time>
      </trkpt>
      <trkpt lat="59.313911916688085" lon="13.093400951474905">
        <ele>57.74</ele>
        <time>2025-02-02T23:39:18.759Z</time>
      </trkpt>
      <trkpt lat="59.31385693140328" lon="13.093280922621489">
        <ele>57.86</ele>
        <time>2025-02-02T23:39:24.094Z</time>
      </trkpt>
      <trkpt lat="59.31380094029009" lon="13.093158965930343">
        <ele>58.0</ele>
        <time>2025-02-02T23:39:29.431Z</time>
      </trkpt>
      <trkpt lat="59.31374394334853" lon="13.093039942905307">
        <ele>58.14</ele>
        <time>2025-02-02T23:39:34.769Z</time>
      </trkpt>
      <trkpt lat="59.3136849347502" lon="13.092923937365413">
        <ele>58.28</ele>
        <time>2025-02-02T23:39:40.109Z</time>
      </trkpt>
      <trkpt lat="59.313620980829" lon="13.092815978452563">
        <ele>58.44</ele>
        <time>2025-02-02T23:39:45.450Z</time>
      </trkpt>
      <trkpt lat="59.31355392560363" lon="13.092713970690966">
        <ele>58.6</ele>
        <time>2025-02-02T23:39:50.792Z</time>
      </trkpt>
      <trkpt lat="59.31348695419729" lon="13.092607939615846">
        <ele>58.75</ele>
        <time>2025-02-02T23:39:56.136Z</time>
      </trkpt>
      <trkpt lat="59.31342492811382" lon="13.092495957389474">
        <ele>58.91</ele>
        <time>2025-02-02T23:40:01.481Z</time>
      </trkpt>
      <trkpt lat="59.31336399167776" lon="13.09238095767796">
        <ele>59.07</ele>
        <time>2025-02-02T23:40:06.827Z</time>
      </trkpt>
      <trkpt lat="59.313305988907814" lon="13.092261934652925">
        <ele>59.24</ele>
        <time>2025-02-02T23:40:12.175Z</time>
      </trkpt>
      <trkpt lat="59.31324798613787" lon="13.09214391745627">
        <ele>59.4</ele>
        <time>2025-02-02T23:40:17.524Z</time>
      </trkpt>
      <trkpt lat="59.31318897753954" lon="13.092028917744756">
        <ele>59.57</ele>
        <time>2025-02-02T23:40:22.874Z</time>
      </trkpt>
      <trkpt lat="59.31312795728445" lon="13.09192799963057">
        <ele>59.74</ele>
        <time>2025-02-02T23:40:28.226Z</time>
      </trkpt>
      <trkpt lat="59.31306199170649" lon="13.091838983818889">
        <ele>59.93</ele>
        <time>2025-02-02T23:40:33.579Z</time>
      </trkpt>
      <trkpt lat="59.3129959423095" lon="13.091751979663968">
        <ele>60.11</ele>
        <time>2025-02-02T23:40:38.933Z</time>
      </trkpt>
      <trkpt lat="59.31293299421668" lon="13.091651983559132">
        <ele>60.3</ele>
        <time>2025-02-02T23:40:44.288Z</time>
      </trkpt>
      <trkpt lat="59.312875997275114" lon="13.09154293499887">
        <ele>60.49</ele>
        <time>2025-02-02T23:40:49.645Z</time>
      </trkpt>
      <trkpt lat="59.3128249514848" lon="13.091422989964485">
        <ele>60.69</ele>
        <time>2025-02-02T23:40:55.003Z</time>
      </trkpt>
      <trkpt lat="59.31277692317963" lon="13.091302961111069">
        <ele>60.89</ele>
        <time>2025-02-02T23:41:00.362Z</time>
      </trkpt>
      <trkpt lat="59.312728978693485" lon="13.091179998591542">
        <ele>61.09</ele>
        <time>2025-02-02T23:41:05.723Z</time>
      </trkpt>
      <trkpt lat="59.31268195621669" lon="13.091058963909745">
        <ele>61.29</ele>
        <time>2025-02-02T23:41:11.085Z</time>
      </trkpt>
      <trkpt lat="59.31263593956828" lon="13.09093994088471">
        <ele>61.5</ele>
        <time>2025-02-02T23:41:16.448Z</time>
      </trkpt>
      <trkpt lat="59.31259193457663" lon="13.090824941173196">
        <ele>61.71</ele>
        <time>2025-02-02T23:41:21.812Z</time>
      </trkpt>
      <trkpt lat="59.31254994124174" lon="13.090713964775205">
        <ele>61.93</ele>
        <time>2025-02-02T23:41:27.177Z</time>
      </trkpt>
      <trkpt lat="59.31250995956361" lon="13.090606927871704">
        <ele>62.15</ele>
        <time>2025-02-02T23:41:32.543Z</time>
      </trkpt>
      <trkpt lat="59.312469977885485" lon="13.090506931766868">
        <ele>62.38</ele>
        <time>2025-02-02T23:41:37.910Z</time>
      </trkpt>
      <trkpt lat="59.31242999620736" lon="13.090408947318792">
        <ele>62.6</ele>
        <time>2025-02-02T23:41:43.279Z</time>
      </trkpt>
      <trkpt lat="59.31239194236696" lon="13.090312974527478">
        <ele>62.83</ele>
        <time>2025-02-02T23:41:48.649Z</time>
      </trkpt>
      <trkpt lat="59.31235196068883" lon="13.090223958715796">
        <ele>63.06</ele>
        <time>2025-02-02T23:41:54.019Z</time>
      </trkpt>
      <trkpt lat="59.31230896152556" lon="13.090139972046018">
        <ele>63.29</ele>
        <time>2025-02-02T23:41:59.390Z</time>
      </trkpt>
      <trkpt lat="59.31226395070553" lon="13.09005992487073">
        <ele>63.53</ele>
        <time>2025-02-02T23:42:04.762Z</time>
      </trkpt>
      <trkpt lat="59.312216928228736" lon="13.08999597094953">
        <ele>63.76</ele>
        <time>2025-02-02T23:42:10.135Z</time>
      </trkpt>
      <trkpt lat="59.31216697208583" lon="13.08993293903768">
        <ele>64.0</ele>
        <time>2025-02-02T23:42:15.509Z</time>
      </trkpt>
      <trkpt lat="59.31211894378066" lon="13.089874936267734">
        <ele>64.24</ele>
        <time>2025-02-02T23:42:20.884Z</time>
      </trkpt>
      <trkpt lat="59.31206999346614" lon="13.08982397429645">
        <ele>64.49</ele>
        <time>2025-02-02T23:42:26.260Z</time>
      </trkpt>
      <trkpt lat="59.312020959332585" lon="13.08977896347642">
        <ele>64.73</ele>
        <time>2025-02-02T23:42:31.637Z</time>
      </trkpt>
      <trkpt lat="59.31197192519903" lon="13.08973797596991">
        <ele>64.98</ele>
        <time>2025-02-02T23:42:37.015Z</time>
      </trkpt>
      <trkpt lat="59.31192297488451" lon="13.089701933786273">
        <ele>65.22</ele>
        <time>2025-02-02T23:42:42.394Z</time>
      </trkpt>
      <trkpt lat="59.31187494657934" lon="13.0896729324013">
        <ele>65.47</ele>
        <time>2025-02-02T23:42:47.773Z</time>
      </trkpt>
      <trkpt lat="59.311825996264815" lon="13.08965097181499">
        <ele>65.72</ele>
        <time>2025-02-02T23:42:53.153Z</time>
      </trkpt>
      <trkpt lat="59.31177796795964" lon="13.089627921581268">
        <ele>65.97</ele>
        <time>2025-02-02T23:42:58.534Z</time>
      </trkpt>
      <trkpt lat="59.31173195131123" lon="13.089604955166578">
        <ele>66.22</ele>
        <time>2025-02-02T23:43:03.916Z</time>
      </trkpt>
      <trkpt lat="59.3116869404912" lon="13.089580982923508">
        <ele>66.47</ele>
        <time>2025-02-02T23:43:09.299Z</time>
      </trkpt>
      <trkpt lat="59.31164192967117" lon="13.089562961831689">
        <ele>66.72</ele>
        <time>2025-02-02T23:43:14.682Z</time>
      </trkpt>
      <trkpt lat="59.31159792467952" lon="13.089551981538534">
        <ele>66.97</ele>
        <time>2025-02-02T23:43:20.066Z</time>
      </trkpt>
      <trkpt lat="59.31155391968787" lon="13.08954494073987">
        <ele>67.22</ele>
        <time>2025-02-02T23:43:25.451Z</time>
      </trkpt>
      <trkpt lat="59.31150899268687" lon="13.089536977931857">
        <ele>67.47</ele>
        <time>2025-02-02T23:43:30.836Z</time>
      </trkpt>
      <trkpt lat="59.31146498769522" lon="13.089527925476432">
        <ele>67.72</ele>
        <time>2025-02-02T23:43:36.222Z</time>
      </trkpt>
      <trkpt lat="59.31142098270357" lon="13.08952298015356">
        <ele>67.97</ele>
        <time>2025-02-02T23:43:41.609Z</time>
      </trkpt>
      <trkpt lat="59.311376977711916" lon="13.089519962668419">
        <ele>68.22</ele>
        <time>2025-02-02T23:43:46.997Z</time>
      </trkpt>
      <trkpt lat="59.311332972720265" lon="13.089516945183277">
        <ele>68.46</ele>
        <time>2025-02-02T23:43:52.385Z</time>
      </trkpt>
      <trkpt lat="59.311288967728615" lon="13.089513927698135">
        <ele>68.71</ele>
        <time>2025-02-02T23:43:57.774Z</time>
      </trkpt>
      <trkpt lat="59.311244962736964" lon="13.089511999860406">
        <ele>68.95</ele>
        <time>2025-02-02T23:44:03.164Z</time>
      </trkpt>
      <trkpt lat="59.311201963573694" lon="13.089509988203645">
        <ele>69.19</ele>
        <time>2025-02-02T23:44:08.554Z</time>
      </trkpt>
      <trkpt lat="59.311158964410424" lon="13.0895019415766">
        <ele>69.42</ele>
        <time>2025-02-02T23:44:13.945Z</time>
      </trkpt>
      <trkpt lat="59.311115965247154" lon="13.089492972940207">
        <ele>69.66</ele>
        <time>2025-02-02T23:44:19.337Z</time>
      </trkpt>
      <trkpt lat="59.311074977740645" lon="13.089486937969923">
        <ele>69.89</ele>
        <time>2025-02-02T23:44:24.729Z</time>
      </trkpt>
      <trkpt lat="59.311031978577375" lon="13.089482998475432">
        <ele>70.12</ele>
        <time>2025-02-02T23:44:30.122Z</time>
      </trkpt>
      <trkpt lat="59.31099099107087" lon="13.089482998475432">
        <ele>70.35</ele>
        <time>2025-02-02T23:44:35.516Z</time>
      </trkpt>
      <trkpt lat="59.31095293723047" lon="13.089481992647052">
        <ele>70.57</ele>
        <time>2025-02-02T23:44:40.910Z</time>
      </trkpt>
      <trkpt lat="59.31091697886586" lon="13.08947998099029">
        <ele>70.79</ele>
        <time>2025-02-02T23:44:46.305Z</time>
      </trkpt>
      <trkpt lat="59.310880936682224" lon="13.08947796933353">
        <ele>71.0</ele>
        <time>2025-02-02T23:44:51.701Z</time>
      </trkpt>
      <trkpt lat="59.31084397248924" lon="13.089473946020007">
        <ele>71.22</ele>
        <time>2025-02-02T23:44:57.097Z</time>
      </trkpt>
      <trkpt lat="59.31080298498273" lon="13.089468916878104">
        <ele>71.43</ele>
        <time>2025-02-02T23:45:02.494Z</time>
      </trkpt>
      <trkpt lat="59.31076099164784" lon="13.089470928534865">
        <ele>71.63</ele>
        <time>2025-02-02T23:45:07.891Z</time>
      </trkpt>
      <trkpt lat="59.31071598082781" lon="13.089469922706485">
        <ele>71.83</ele>
        <time>2025-02-02T23:45:13.289Z</time>
      </trkpt>
      <trkpt lat="59.310668958351016" lon="13.089468916878104">
        <ele>72.03</ele>
        <time>2025-02-02T23:45:18.688Z</time>
      </trkpt>
      <trkpt lat="59.310623947530985" lon="13.089469922706485">
        <ele>72.22</ele>
        <time>2025-02-02T23:45:24.088Z</time>
      </trkpt>
      <trkpt lat="59.310578936710954" lon="13.089472940191627">
        <ele>72.4</ele>
        <time>2025-02-02T23:45:29.488Z</time>
      </trkpt>
      <trkpt lat="59.31053199805319" lon="13.08947998099029">
        <ele>72.58</ele>
        <time>2025-02-02T23:45:34.889Z</time>
      </trkpt>
      <trkpt lat="59.31048296391964" lon="13.089489955455065">
        <ele>72.76</ele>
        <time>2025-02-02T23:45:40.291Z</time>
      </trkpt>
      <trkpt lat="59.310430996119976" lon="13.089498924091458">
        <ele>72.93</ele>
        <time>2025-02-02T23:45:45.694Z</time>
      </trkpt>
      <trkpt lat="59.31038095615804" lon="13.089507976546884">
        <ele>73.09</ele>
        <time>2025-02-02T23:45:51.098Z</time>
      </trkpt>
      <trkpt lat="59.31032798253" lon="13.089515939354897">
        <ele>73.25</ele>
        <time>2025-02-02T23:45:56.502Z</time>
      </trkpt>
      <trkpt lat="59.31027492508292" lon="13.089524991810322">
        <ele>73.4</ele>
        <time>2025-02-02T23:46:01.907Z</time>
      </trkpt>
      <trkpt lat="59.31022195145488" lon="13.089537983760238">
        <ele>73.55</ele>
        <time>2025-02-02T23:46:07.313Z</time>
      </trkpt>
      <trkpt lat="59.310168977826834" lon="13.08954594656825">
        <ele>73.69</ele>
        <time>2025-02-02T23:46:12.720Z</time>
      </trkpt>
      <trkpt lat="59.31011499837041" lon="13.089551981538534">
        <ele>73.82</ele>
        <time>2025-02-02T23:46:18.128Z</time>
      </trkpt>
      <trkpt lat="59.31006093509495" lon="13.089557932689786">
        <ele>73.95</ele>
        <time>2025-02-02T23:46:23.537Z</time>
      </trkpt>
      <trkpt lat="59.31000594981015" lon="13.089569918811321">
        <ele>74.07</ele>
        <time>2025-02-02T23:46:28.947Z</time>
      </trkpt>
      <trkpt lat="59.3099529761821" lon="13.089580982923508">
        <ele>74.18</ele>
        <time>2025-02-02T23:46:34.357Z</time>
      </trkpt>
      <trkpt lat="59.3098979908973" lon="13.089589951559901">
        <ele>74.29</ele>
        <time>2025-02-02T23:46:39.768Z</time>
      </trkpt>
      <trkpt lat="59.30984392762184" lon="13.089600931853056">
        <ele>74.39</ele>
        <time>2025-02-02T23:46:45.180Z</time>
      </trkpt>
      <trkpt lat="59.30978994816542" lon="13.089614929631352">
        <ele>74.48</ele>
        <time>2025-02-02T23:46:50.593Z</time>
      </trkpt>
      <trkpt lat="59.30973697453737" lon="13.08962699957192">
        <ele>74.57</ele>
        <time>2025-02-02T23:46:56.007Z</time>
      </trkpt>
      <trkpt lat="59.3096839170903" lon="13.089633956551552">
        <ele>74.65</ele>
        <time>2025-02-02T23:47:01.422Z</time>
      </trkpt>
      <trkpt lat="59.30963194929063" lon="13.089638985693455">
        <ele>74.72</ele>
        <time>2025-02-02T23:47:06.838Z</time>
      </trkpt>
      <trkpt lat="59.30957998149097" lon="13.089643931016326">
        <ele>74.79</ele>
        <time>2025-02-02T23:47:12.254Z</time>
      </trkpt>
      <trkpt lat="59.309527929872274" lon="13.089648960158229">
        <ele>74.84</ele>
        <time>2025-02-02T23:47:17.671Z</time>
      </trkpt>
      <trkpt lat="59.30947596207261" lon="13.08965097181499">
        <ele>74.89</ele>
        <time>2025-02-02T23:47:23.089Z</time>
      </trkpt>
      <trkpt lat="59.30942399427295" lon="13.08965097181499">
        <ele>74.94</ele>
        <time>2025-02-02T23:47:28.508Z</time>
      </trkpt>
      <trkpt lat="59.30937294848263" lon="13.089646948501468">
        <ele>74.98</ele>
        <time>2025-02-02T23:47:33.928Z</time>
      </trkpt>
      <trkpt lat="59.30932098068297" lon="13.089638985693455">
        <ele>75.01</ele>
        <time>2025-02-02T23:47:39.349Z</time>
      </trkpt>
      <trkpt lat="59.309269934892654" lon="13.089625993743539">
        <ele>75.03</ele>
        <time>2025-02-02T23:47:44.770Z</time>
      </trkpt>
      <trkpt lat="59.30921897292137" lon="13.089609984308481">
        <ele>75.04</ele>
        <time>2025-02-02T23:47:50.192Z</time>
      </trkpt>
      <trkpt lat="59.30916792713106" lon="13.08958894573152">
        <ele>75.05</ele>
        <time>2025-02-02T23:47:55.615Z</time>
      </trkpt>
      <trkpt lat="59.309116965159774" lon="13.089558938518167">
        <ele>75.05</ele>
        <time>2025-02-02T23:48:01.039Z</time>
      </trkpt>
      <trkpt lat="59.30906591936946" lon="13.08952298015356">
        <ele>75.04</ele>
        <time>2025-02-02T23:48:06.464Z</time>
      </trkpt>
      <trkpt lat="59.309011939913034" lon="13.089481992647052">
        <ele>75.02</ele>
        <time>2025-02-02T23:48:11.890Z</time>
      </trkpt>
      <trkpt lat="59.30895796045661" lon="13.08943698182702">
        <ele>74.99</ele>
        <time>2025-02-02T23:48:17.317Z</time>
      </trkpt>
      <trkpt lat="59.30890096351504" lon="13.089385936036706">
        <ele>74.96</ele>
        <time>2025-02-02T23:48:22.745Z</time>
      </trkpt>
      <trkpt lat="59.308841954916716" lon="13.08932994492352">
        <ele>74.92</ele>
        <time>2025-02-02T23:48:28.174Z</time>
      </trkpt>
      <trkpt lat="59.308779928833246" lon="13.089269930496812">
        <ele>74.87</ele>
        <time>2025-02-02T23:48:33.604Z</time>
      </trkpt>
      <trkpt lat="59.30871597491205" lon="13.089205976575613">
        <ele>74.82</ele>
        <time>2025-02-02T23:48:39.035Z</time>
      </trkpt>
      <trkpt lat="59.308650931343436" lon="13.089139927178621">
        <ele>74.76</ele>
        <time>2025-02-02T23:48:44.467Z</time>
      </trkpt>
      <trkpt lat="59.308583959937096" lon="13.089069938287139">
        <ele>74.69</ele>
        <time>2025-02-02T23:48:49.900Z</time>
      </trkpt>
      <trkpt lat="59.308514976873994" lon="13.088999949395657">
        <ele>74.62</ele>
        <time>2025-02-02T23:48:55.335Z</time>
      </trkpt>
      <trkpt lat="59.30844297632575" lon="13.088927948847413">
        <ele>74.54</ele>
        <time>2025-02-02T23:49:00.771Z</time>
      </trkpt>
      <trkpt lat="59.308368964120746" lon="13.088853936642408">
        <ele>74.45</ele>
        <time>2025-02-02T23:49:06.208Z</time>
      </trkpt>
      <trkpt lat="59.3082919344306" lon="13.088773973286152">
        <ele>74.36</ele>
        <time>2025-02-02T23:49:11.647Z</time>
      </trkpt>
      <trkpt lat="59.30821297690272" lon="13.088691998273134">
        <ele>74.26</ele>
        <time>2025-02-02T23:49:17.087Z</time>
      </trkpt>
      <trkpt lat="59.308132929727435" lon="13.088606921955943">
        <ele>74.15</ele>
        <time>2025-02-02T23:49:22.529Z</time>
      </trkpt>
      <trkpt lat="59.30805397219956" lon="13.088521929457784">
        <ele>74.04</ele>
        <time>2025-02-02T23:49:27.972Z</time>
      </trkpt>
      <trkpt lat="59.30797199718654" lon="13.088437942788005">
        <ele>73.92</ele>
        <time>2025-02-02T23:49:33.417Z</time>
      </trkpt>
      <trkpt lat="59.30788893252611" lon="13.088348926976323">
        <ele>73.8</ele>
        <time>2025-02-02T23:49:38.863Z</time>
      </trkpt>
      <trkpt lat="59.30780595168471" lon="13.088257983326912">
        <ele>73.68</ele>
        <time>2025-02-02T23:49:44.311Z</time>
      </trkpt>
      <trkpt lat="59.307722970843315" lon="13.088164944201708">
        <ele>73.55</ele>
        <time>2025-02-02T23:49:49.760Z</time>
      </trkpt>
      <trkpt lat="59.30763999000192" lon="13.088070983067155">
        <ele>73.41</ele>
        <time>2025-02-02T23:49:55.211Z</time>
      </trkpt>
      <trkpt lat="59.30755793116987" lon="13.08797794394195">
        <ele>73.27</ele>
        <time>2025-02-02T23:50:00.663Z</time>
      </trkpt>
      <trkpt lat="59.30747595615685" lon="13.087885994464159">
        <ele>73.12</ele>
        <time>2025-02-02T23:50:06.117Z</time>
      </trkpt>
      <trkpt lat="59.30739599280059" lon="13.087794966995716">
        <ele>72.97</ele>
        <time>2025-02-02T23:50:11.572Z</time>
      </trkpt>
      <trkpt lat="59.307316951453686" lon="13.087709974497557">
        <ele>72.81</ele>
        <time>2025-02-02T23:50:17.029Z</time>
      </trkpt>
      <trkpt lat="59.30723992176354" lon="13.087629927322268">
        <ele>72.65</ele>
        <time>2025-02-02T23:50:22.487Z</time>
      </trkpt>
      <trkpt lat="59.307165993377566" lon="13.087555998936296">
        <ele>72.48</ele>
        <time>2025-02-02T23:50:27.946Z</time>
      </trkpt>
      <trkpt lat="59.30709793232381" lon="13.08747997507453">
        <ele>72.31</ele>
        <time>2025-02-02T23:50:33.407Z</time>
      </trkpt>
      <trkpt lat="59.307033978402615" lon="13.087400933727622">
        <ele>72.13</ele>
        <time>2025-02-02T23:50:38.869Z</time>
      </trkpt>
      <trkpt lat="59.306971952319145" lon="13.087324993684888">
        <ele>71.95</ele>
        <time>2025-02-02T23:50:44.332Z</time>
      </trkpt>
      <trkpt lat="59.30691294372082" lon="13.087250981479883">
        <ele>71.77</ele>
        <time>2025-02-02T23:50:49.796Z</time>
      </trkpt>
      <trkpt lat="59.30685192346573" lon="13.08718392625451">
        <ele>71.58</ele>
        <time>2025-02-02T23:50:55.261Z</time>
      </trkpt>
      <trkpt lat="59.30679098702967" lon="13.087113937363029">
        <ele>71.39</ele>
        <time>2025-02-02T23:51:00.727Z</time>
      </trkpt>
      <trkpt lat="59.30672795511782" lon="13.087043948471546">
        <ele>71.19</ele>
        <time>2025-02-02T23:51:06.195Z</time>
      </trkpt>
      <trkpt lat="59.30666693486273" lon="13.086974965408444">
        <ele>70.99</ele>
        <time>2025-02-02T23:51:11.664Z</time>
      </trkpt>
      <trkpt lat="59.306603986769915" lon="13.086907994002104">
        <ele>70.79</ele>
        <time>2025-02-02T23:51:17.134Z</time>
      </trkpt>
      <trkpt lat="59.306540954858065" lon="13.086844962090254">
        <ele>70.59</ele>
        <time>2025-02-02T23:51:22.605Z</time>
      </trkpt>
      <trkpt lat="59.306478928774595" lon="13.086780924350023">
        <ele>70.38</ele>
        <time>2025-02-02T23:51:28.077Z</time>
      </trkpt>
      <trkpt lat="59.306414974853396" lon="13.086718982085586">
        <ele>70.16</ele>
        <time>2025-02-02T23:51:33.550Z</time>
      </trkpt>
      <trkpt lat="59.306349931284785" lon="13.086653938516974">
        <ele>69.95</ele>
        <time>2025-02-02T23:51:39.024Z</time>
      </trkpt>
      <trkpt lat="59.306282959878445" lon="13.08658093214035">
        <ele>69.73</ele>
        <time>2025-02-02T23:51:44.500Z</time>
      </trkpt>
      <trkpt lat="59.30621196515858" lon="13.086509937420487">
        <ele>69.5</ele>
        <time>2025-02-02T23:51:49.977Z</time>
      </trkpt>
      <trkpt lat="59.306133929640055" lon="13.086452940478921">
        <ele>69.28</ele>
        <time>2025-02-02T23:51:55.455Z</time>
      </trkpt>
      <trkpt lat="59.306048937141895" lon="13.0864039901644">
        <ele>69.05</ele>
        <time>2025-02-02T23:52:00.935Z</time>
      </trkpt>
      <trkpt lat="59.305960927158594" lon="13.086369959637523">
        <ele>68.81</ele>
        <time>2025-02-02T23:52:06.416Z</time>
      </trkpt>
      <trkpt lat="59.3058689776808" lon="13.086355961859226">
        <ele>68.57</ele>
        <time>2025-02-02T23:52:11.899Z</time>
      </trkpt>
      <trkpt lat="59.30577292107046" lon="13.086369959637523">
        <ele>68.33</ele>
        <time>2025-02-02T23:52:17.383Z</time>
      </trkpt>
      <trkpt lat="59.30567292496562" lon="13.086410947144032">
        <ele>68.08</ele>
        <time>2025-02-02T23:52:22.869Z</time>
      </trkpt>
      <trkpt lat="59.305574940517545" lon="13.086461992934346">
        <ele>67.83</ele>
        <time>2025-02-02T23:52:28.356Z</time>
      </trkpt>
      <trkpt lat="59.30547393858433" lon="13.086511949077249">
        <ele>67.58</ele>
        <time>2025-02-02T23:52:33.845Z</time>
      </trkpt>
      <trkpt lat="59.30537494830787" lon="13.086559977382421">
        <ele>67.32</ele>
        <time>2025-02-02T23:52:39.336Z</time>
      </trkpt>
      <trkpt lat="59.305271934717894" lon="13.086612951010466">
        <ele>67.06</ele>
        <time>2025-02-02T23:52:44.828Z</time>
      </trkpt>
      <trkpt lat="59.30517193861306" lon="13.086670953780413">
        <ele>66.81</ele>
        <time>2025-02-02T23:52:50.322Z</time>
      </trkpt>
      <trkpt lat="59.3050729483366" lon="13.08672795072198">
        <ele>66.54</ele>
        <time>2025-02-02T23:52:55.818Z</time>
      </trkpt>
      <trkpt lat="59.30496792308986" lon="13.086782936006784">
        <ele>66.28</ele>
        <time>2025-02-02T23:53:01.315Z</time>
      </trkpt>
      <trkpt lat="59.304866921156645" lon="13.086824929341674">
        <ele>66.02</ele>
        <time>2025-02-02T23:53:06.814Z</time>
      </trkpt>
      <trkpt lat="59.30476298555732" lon="13.086851919069886">
        <ele>65.76</ele>
        <time>2025-02-02T23:53:12.315Z</time>
      </trkpt>
      <trkpt lat="59.30466097779572" lon="13.08685895986855">
        <ele>65.5</ele>
        <time>2025-02-02T23:53:17.817Z</time>
      </trkpt>
      <trkpt lat="59.30455394089222" lon="13.086841944605112">
        <ele>65.24</ele>
        <time>2025-02-02T23:53:23.321Z</time>
      </trkpt>
      <trkpt lat="59.30445092730224" lon="13.086789976805449">
        <ele>64.97</ele>
        <time>2025-02-02T23:53:28.827Z</time>
      </trkpt>
      <trkpt lat="59.30435394868255" lon="13.086702972650528">
        <ele>64.71</ele>
        <time>2025-02-02T23:53:34.335Z</time>
      </trkpt>
      <trkpt lat="59.304263927042484" lon="13.086590990424156">
        <ele>64.44</ele>
        <time>2025-02-02T23:53:39.844Z</time>
      </trkpt>
      <trkpt lat="59.30418195202947" lon="13.086467944085598">
        <ele>64.17</ele>
        <time>2025-02-02T23:53:45.355Z</time>
      </trkpt>
      <trkpt lat="59.30410299450159" lon="13.086339952424169">
        <ele>63.9</ele>
        <time>2025-02-02T23:53:50.868Z</time>
      </trkpt>
      <trkpt lat="59.30402998812497" lon="13.086207937449217">
        <ele>63.63</ele>
        <time>2025-02-02T23:53:56.382Z</time>
      </trkpt>
      <trkpt lat="59.303959999233484" lon="13.086075922474265">
        <ele>63.36</ele>
        <time>2025-02-02T23:54:01.898Z</time>
      </trkpt>
      <trkpt lat="59.30389093235135" lon="13.085941979661584">
        <ele>63.09</ele>
        <time>2025-02-02T23:54:07.415Z</time>
      </trkpt>
      <trkpt lat="59.30382396094501" lon="13.08580493554473">
        <ele>62.83</ele>
        <time>2025-02-02T23:54:12.934Z</time>
      </trkpt>
      <trkpt lat="59.30375992320478" lon="13.085662946105003">
        <ele>62.58</ele>
        <time>2025-02-02T23:54:18.454Z</time>
      </trkpt>
      <trkpt lat="59.30369697511196" lon="13.085515927523375">
        <ele>62.33</ele>
        <time>2025-02-02T23:54:23.976Z</time>
      </trkpt>
      <trkpt lat="59.30363595485687" lon="13.085361951962113">
        <ele>62.08</ele>
        <time>2025-02-02T23:54:29.500Z</time>
      </trkpt>
      <trkpt lat="59.303575940430164" lon="13.08520395308733">
        <ele>61.84</ele>
        <time>2025-02-02T23:54:35.025Z</time>
      </trkpt>
      <trkpt lat="59.30351693183184" lon="13.085044948384166">
        <ele>61.6</ele>
        <time>2025-02-02T23:54:40.552Z</time>
      </trkpt>
      <trkpt lat="59.30345792323351" lon="13.084886949509382">
        <ele>61.36</ele>
        <time>2025-02-02T23:54:46.080Z</time>
      </trkpt>
      <trkpt lat="59.30339799262583" lon="13.084728950634599">
        <ele>61.12</ele>
        <time>2025-02-02T23:54:51.610Z</time>
      </trkpt>
      <trkpt lat="59.303336972370744" lon="13.08457799255848">
        <ele>60.87</ele>
        <time>2025-02-02T23:54:57.142Z</time>
      </trkpt>
      <trkpt lat="59.303273940458894" lon="13.084432985633612">
        <ele>60.63</ele>
        <time>2025-02-02T23:55:02.675Z</time>
      </trkpt>
      <trkpt lat="59.303208980709314" lon="13.084292924031615">
        <ele>60.39</ele>
        <time>2025-02-02T23:55:08.210Z</time>
      </trkpt>
      <trkpt lat="59.303145948797464" lon="13.084159987047315">
        <ele>60.16</ele>
        <time>2025-02-02T23:55:13.746Z</time>
      </trkpt>
      <trkpt lat="59.303082916885614" lon="13.084034929051995">
        <ele>59.92</ele>
        <time>2025-02-02T23:55:19.284Z</time>
      </trkpt>
      <trkpt lat="59.30302399210632" lon="13.083911966532469">
        <ele>59.69</ele>
        <time>2025-02-02T23:55:24.823Z</time>
      </trkpt>
      <trkpt lat="59.3029679171741" lon="13.083791937679052">
        <ele>59.47</ele>
        <time>2025-02-02T23:55:30.363Z</time>
      </trkpt>
      <trkpt lat="59.302911926060915" lon="13.083671992644668">
        <ele>59.24</ele>
        <time>2025-02-02T23:55:35.905Z</time>
      </trkpt>
      <trkpt lat="59.30285794660449" lon="13.083551963791251">
        <ele>59.01</ele>
        <time>2025-02-02T23:55:41.448Z</time>
      </trkpt>
      <trkpt lat="59.302804972976446" lon="13.083435958251357">
        <ele>58.79</ele>
        <time>2025-02-02T23:55:46.992Z</time>
      </trkpt>
      <trkpt lat="59.30275292135775" lon="13.083323976024985">
        <ele>58.58</ele>
        <time>2025-02-02T23:55:52.538Z</time>
      </trkpt>
      <trkpt lat="59.302698941901326" lon="13.083217944949865">
        <ele>58.37</ele>
        <time>2025-02-02T23:55:58.085Z</time>
      </trkpt>
      <trkpt lat="59.302649991586804" lon="13.08311895467341">
        <ele>58.16</ele>
        <time>2025-02-02T23:56:03.633Z</time>
      </trkpt>
      <trkpt lat="59.30259995162487" lon="13.083028933033347">
        <ele>57.95</ele>
        <time>2025-02-02T23:56:09.182Z</time>
      </trkpt>
      <trkpt lat="59.30254999548197" lon="13.082942934706807">
        <ele>57.75</ele>
        <time>2025-02-02T23:56:14.732Z</time>
      </trkpt>
      <trkpt lat="59.30249894969165" lon="13.082859953865409">
        <ele>57.55</ele>
        <time>2025-02-02T23:56:20.283Z</time>
      </trkpt>
      <trkpt lat="59.30244597606361" lon="13.082780996337533">
        <ele>57.35</ele>
        <time>2025-02-02T23:56:25.835Z</time>
      </trkpt>
      <trkpt lat="59.302394930273294" lon="13.082700949162245">
        <ele>57.16</ele>
        <time>2025-02-02T23:56:31.388Z</time>
      </trkpt>
      <trkpt lat="59.30233893916011" lon="13.08262299746275">
        <ele>56.97</ele>
        <time>2025-02-02T23:56:36.942Z</time>
      </trkpt>
      <trkpt lat="59.30227993056178" lon="13.082543956115842">
        <ele>56.78</ele>
        <time>2025-02-02T23:56:42.498Z</time>
      </trkpt>
      <trkpt lat="59.30221798829734" lon="13.082470949739218">
        <ele>56.6</ele>
        <time>2025-02-02T23:56:48.055Z</time>
      </trkpt>
      <trkpt lat="59.302156968042254" lon="13.082392998039722">
        <ele>56.41</ele>
        <time>2025-02-02T23:56:53.613Z</time>
      </trkpt>
      <trkpt lat="59.302093936130404" lon="13.082312950864434">
        <ele>56.23</ele>
        <time>2025-02-02T23:56:59.172Z</time>
      </trkpt>
      <trkpt lat="59.302029982209206" lon="13.082236927002668">
        <ele>56.04</ele>
        <time>2025-02-02T23:57:04.732Z</time>
      </trkpt>
      <trkpt lat="59.30196292698383" lon="13.082159981131554">
        <ele>55.87</ele>
        <time>2025-02-02T23:57:10.293Z</time>
      </trkpt>
      <trkpt lat="59.301899978891015" lon="13.082078928127885">
        <ele>55.69</ele>
        <time>2025-02-02T23:57:15.856Z</time>
      </trkpt>
      <trkpt lat="59.301838958635926" lon="13.081991923972964">
        <ele>55.52</ele>
        <time>2025-02-02T23:57:21.420Z</time>
      </trkpt>
      <trkpt lat="59.3017799500376" lon="13.081899974495173">
        <ele>55.35</ele>
        <time>2025-02-02T23:57:26.985Z</time>
      </trkpt>
      <trkpt lat="59.30172094143927" lon="13.081804923713207">
        <ele>55.19</ele>
        <time>2025-02-02T23:57:32.551Z</time>
      </trkpt>
      <trkpt lat="59.301663944497705" lon="13.081708950921893">
        <ele>55.03</ele>
        <time>2025-02-02T23:57:38.119Z</time>
      </trkpt>
      <trkpt lat="59.30160694755614" lon="13.08161691762507">
        <ele>54.88</ele>
        <time>2025-02-02T23:57:43.688Z</time>
      </trkpt>
      <trkpt lat="59.30155196227133" lon="13.08152999728918">
        <ele>54.73</ele>
        <time>2025-02-02T23:57:49.258Z</time>
      </trkpt>
      <trkpt lat="59.30150292813778" lon="13.08144399896264">
        <ele>54.58</ele>
        <time>2025-02-02T23:57:54.829Z</time>
      </trkpt>
      <trkpt lat="59.30145598948002" lon="13.08135598897934">
        <ele>54.43</ele>
        <time>2025-02-02T23:58:00.401Z</time>
      </trkpt>
      <trkpt lat="59.301406955346465" lon="13.081261944025755">
        <ele>54.29</ele>
        <time>2025-02-02T23:58:05.974Z</time>
      </trkpt>
      <trkpt lat="59.30135892704129" lon="13.081161947920918">
        <ele>54.16</ele>
        <time>2025-02-02T23:58:11.548Z</time>
      </trkpt>
      <trkpt lat="59.30130897089839" lon="13.08105792850256">
        <ele>54.03</ele>
        <time>2025-02-02T23:58:17.123Z</time>
      </trkpt>
      <trkpt lat="59.301254991441965" lon="13.080958938226104">
        <ele>53.91</ele>
        <time>2025-02-02T23:58:22.700Z</time>
      </trkpt>
      <trkpt lat="59.30119891650975" lon="13.08086296543479">
        <ele>53.79</ele>
        <time>2025-02-02T23:58:28.278Z</time>
      </trkpt>
      <trkpt lat="59.30113898590207" lon="13.080772943794727">
        <ele>53.67</ele>
        <time>2025-02-02T23:58:33.857Z</time>
      </trkpt>
      <trkpt lat="59.30107595399022" lon="13.08069096878171">
        <ele>53.55</ele>
        <time>2025-02-02T23:58:39.437Z</time>
      </trkpt>
      <trkpt lat="59.30101392790675" lon="13.080616956576705">
        <ele>53.44</ele>
        <time>2025-02-02T23:58:45.018Z</time>
      </trkpt>
      <trkpt lat="59.300952991470695" lon="13.080549985170364">
        <ele>53.34</ele>
        <time>2025-02-02T23:58:50.600Z</time>
      </trkpt>
      <trkpt lat="59.300890965387225" lon="13.080486953258514">
        <ele>53.24</ele>
        <time>2025-02-02T23:58:56.184Z</time>
      </trkpt>
      <trkpt lat="59.300829945132136" lon="13.080424927175045">
        <ele>53.14</ele>
        <time>2025-02-02T23:59:01.769Z</time>
      </trkpt>
      <trkpt lat="59.30076498538256" lon="13.080362984910607">
        <ele>53.05</ele>
        <time>2025-02-02T23:59:07.355Z</time>
      </trkpt>
      <trkpt lat="59.30070195347071" lon="13.080300958827138">
        <ele>52.97</ele>
        <time>2025-02-02T23:59:12.942Z</time>
      </trkpt>
      <trkpt lat="59.30063892155886" lon="13.080236921086907">
        <ele>52.88</ele>
        <time>2025-02-02T23:59:18.530Z</time>
      </trkpt>
      <trkpt lat="59.30057899095118" lon="13.080171961337328">
        <ele>52.8</ele>
        <time>2025-02-02T23:59:24.119Z</time>
      </trkpt>
      <trkpt lat="59.30051998235285" lon="13.080105995759368">
        <ele>52.73</ele>
        <time>2025-02-02T23:59:29.709Z</time>
      </trkpt>
      <trkpt lat="59.30046399123967" lon="13.080039946362376">
        <ele>52.65</ele>
        <time>2025-02-02T23:59:35.300Z</time>
      </trkpt>
      <trkpt lat="59.30041193962097" lon="13.079975992441177">
        <ele>52.59</ele>
        <time>2025-02-02T23:59:40.892Z</time>
      </trkpt>
      <trkpt lat="59.30036097764969" lon="13.079911954700947">
        <ele>52.52</ele>
        <time>2025-02-02T23:59:46.485Z</time>
      </trkpt>
      <trkpt lat="59.300311943516135" lon="13.079846994951367">
        <ele>52.47</ele>
        <time>2025-02-02T23:59:52.079Z</time>
      </trkpt>
      <trkpt lat="59.30026492103934" lon="13.079774994403124">
        <ele>52.41</ele>
        <time>2025-02-02T23:59:57.674Z</time>
      </trkpt>
      <trkpt lat="59.3002169765532" lon="13.07970299385488">
        <ele>52.37</ele>
        <time>2025-02-03T00:00:03.270Z</time>
      </trkpt>
      <trkpt lat="59.30016995407641" lon="13.079634932801127">
        <ele>52.32</ele>
        <time>2025-02-03T00:00:08.867Z</time>
      </trkpt>
      <trkpt lat="59.300120919942856" lon="13.079568967223167">
        <ele>52.29</ele>
        <time>2025-02-03T00:00:14.465Z</time>
      </trkpt>
      <trkpt lat="59.30007096379995" lon="13.079500989988446">
        <ele>52.25</ele>
        <time>2025-02-03T00:00:20.064Z</time>
      </trkpt>
      <trkpt lat="59.3000219296664" lon="13.079428989440203">
        <ele>52.22</ele>
        <time>2025-02-03T00:00:25.664Z</time>
      </trkpt>
      <trkpt lat="59.29997297935188" lon="13.07935698889196">
        <ele>52.2</ele>
        <time>2025-02-03T00:00:31.265Z</time>
      </trkpt>
      <trkpt lat="59.299922939389944" lon="13.079285994172096">
        <ele>52.18</ele>
        <time>2025-02-03T00:00:36.867Z</time>
      </trkpt>
      <trkpt lat="59.29987197741866" lon="13.079214999452233">
        <ele>52.16</ele>
        <time>2025-02-03T00:00:42.470Z</time>
      </trkpt>
      <trkpt lat="59.29982193745673" lon="13.07914492674172">
        <ele>52.15</ele>
        <time>2025-02-03T00:00:48.074Z</time>
      </trkpt>
      <trkpt lat="59.299772987142205" lon="13.079074937850237">
        <ele>52.14</ele>
        <time>2025-02-03T00:00:53.679Z</time>
      </trkpt>
      <trkpt lat="59.29972395300865" lon="13.079003943130374">
        <ele>52.14</ele>
        <time>2025-02-03T00:00:59.285Z</time>
      </trkpt>
      <trkpt lat="59.29967592470348" lon="13.078934960067272">
        <ele>52.14</ele>
        <time>2025-02-03T00:01:04.892Z</time>
      </trkpt>
      <trkpt lat="59.29962798021734" lon="13.078867988660932">
        <ele>52.14</ele>
        <time>2025-02-03T00:01:10.500Z</time>
      </trkpt>
      <trkpt lat="59.299580957740545" lon="13.078799927607179">
        <ele>52.15</ele>
        <time>2025-02-03T00:01:16.109Z</time>
      </trkpt>
      <trkpt lat="59.29953494109213" lon="13.078725999221206">
        <ele>52.17</ele>
        <time>2025-02-03T00:01:21.719Z</time>
      </trkpt>
      <trkpt lat="59.29949194192886" lon="13.078646957874298">
        <ele>52.19</ele>
        <time>2025-02-03T00:01:27.330Z</time>
      </trkpt>
      <trkpt lat="59.299450954422355" lon="13.078565988689661">
        <ele>52.21</ele>
        <time>2025-02-03T00:01:32.942Z</time>
      </trkpt>
      <trkpt lat="59.299409966915846" lon="13.078482924029231">
        <ele>52.24</ele>
        <time>2025-02-03T00:01:38.555Z</time>
      </trkpt>
      <trkpt lat="59.2993709910661" lon="13.078396925702691">
        <ele>52.27</ele>
        <time>2025-02-03T00:01:44.169Z</time>
      </trkpt>
      <trkpt lat="59.29933092556894" lon="13.07830598205328">
        <ele>52.3</ele>
        <time>2025-02-03T00:01:49.784Z</time>
      </trkpt>
      <trkpt lat="59.29929194971919" lon="13.078210931271315">
        <ele>52.34</ele>
        <time>2025-02-03T00:01:55.400Z</time>
      </trkpt>
      <trkpt lat="59.29925196804106" lon="13.07811294682324">
        <ele>52.38</ele>
        <time>2025-02-03T00:02:01.017Z</time>
      </trkpt>
      <trkpt lat="59.29921098053455" lon="13.078011944890022">
        <ele>52.43</ele>
        <time>2025-02-03T00:02:06.635Z</time>
      </trkpt>
      <trkpt lat="59.299169993028045" lon="13.077911948785186">
        <ele>52.48</ele>
        <time>2025-02-03T00:02:12.254Z</time>
      </trkpt>
      <trkpt lat="59.299127999693155" lon="13.07781295850873">
        <ele>52.53</ele>
        <time>2025-02-03T00:02:17.874Z</time>
      </trkpt>
      <trkpt lat="59.299086928367615" lon="13.077715979889035">
        <ele>52.59</ele>
        <time>2025-02-03T00:02:23.495Z</time>
      </trkpt>
      <trkpt lat="59.29904795251787" lon="13.077623946592212">
        <ele>52.66</ele>
        <time>2025-02-03T00:02:29.117Z</time>
      </trkpt>
      <trkpt lat="59.29901199415326" lon="13.077537948265672">
        <ele>52.73</ele>
        <time>2025-02-03T00:02:34.740Z</time>
      </trkpt>
      <trkpt lat="59.2989859264344" lon="13.077450944110751">
        <ele>52.8</ele>
        <time>2025-02-03T00:02:40.363Z</time>
      </trkpt>
      <trkpt lat="59.29896899498999" lon="13.077364945784211">
        <ele>52.88</ele>
        <time>2025-02-03T00:02:45.987Z</time>
      </trkpt>
      <trkpt lat="59.298953991383314" lon="13.077281964942813">
        <ele>52.96</ele>
        <time>2025-02-03T00:02:51.612Z</time>
      </trkpt>
      <trkpt lat="59.29893999360502" lon="13.077206946909428">
        <ele>53.05</ele>
        <time>2025-02-03T00:02:57.238Z</time>
      </trkpt>
      <trkpt lat="59.29892498999834" lon="13.077139975503087">
        <ele>53.14</ele>
        <time>2025-02-03T00:03:02.864Z</time>
      </trkpt>
      <trkpt lat="59.29890696890652" lon="13.07708197273314">
        <ele>53.23</ele>
        <time>2025-02-03T00:03:08.491Z</time>
      </trkpt>
      <trkpt lat="59.29888299666345" lon="13.077031932771206">
        <ele>53.33</ele>
        <time>2025-02-03T00:03:14.118Z</time>
      </trkpt>
      <trkpt lat="59.29885491728783" lon="13.076998991891742">
        <ele>53.43</ele>
        <time>2025-02-03T00:03:19.746Z</time>
      </trkpt>
      <trkpt lat="59.29882197640836" lon="13.076982982456684">
        <ele>53.54</ele>
        <time>2025-02-03T00:03:25.374Z</time>
      </trkpt>
      <trkpt lat="59.298784928396344" lon="13.0769769474864">
        <ele>53.66</ele>
        <time>2025-02-03T00:03:31.003Z</time>
      </trkpt>
      <trkpt lat="59.29874796420336" lon="13.076981976628304">
        <ele>53.77</ele>
        <time>2025-02-03T00:03:36.633Z</time>
      </trkpt>
      <trkpt lat="59.29871192201972" lon="13.076993962749839">
        <ele>53.89</ele>
        <time>2025-02-03T00:03:42.263Z</time>
      </trkpt>
      <trkpt lat="59.298674957826734" lon="13.077004943042994">
        <ele>54.02</ele>
        <time>2025-02-03T00:03:47.894Z</time>
      </trkpt>
      <trkpt lat="59.29863698780537" lon="13.077014917507768">
        <ele>54.14</ele>
        <time>2025-02-03T00:03:53.525Z</time>
      </trkpt>
      <trkpt lat="59.29859993979335" lon="13.077025981619954">
        <ele>54.28</ele>
        <time>2025-02-03T00:03:59.157Z</time>
      </trkpt>
      <trkpt lat="59.29856498725712" lon="13.077033944427967">
        <ele>54.41</ele>
        <time>2025-02-03T00:04:04.790Z</time>
      </trkpt>
      <trkpt lat="59.29853095673025" lon="13.077040985226631">
        <ele>54.55</ele>
        <time>2025-02-03T00:04:10.423Z</time>
      </trkpt>
      <trkpt lat="59.29849692620337" lon="13.077045930549502">
        <ele>54.69</ele>
        <time>2025-02-03T00:04:16.057Z</time>
      </trkpt>
      <trkpt lat="59.298463985323906" lon="13.077054983004928">
        <ele>54.84</ele>
        <time>2025-02-03T00:04:21.691Z</time>
      </trkpt>
      <trkpt lat="59.29843297228217" lon="13.07706294581294">
        <ele>54.99</ele>
        <time>2025-02-03T00:04:27.326Z</time>
      </trkpt>
      <trkpt lat="59.29840296506882" lon="13.077069986611605">
        <ele>55.14</ele>
        <time>2025-02-03T00:04:32.961Z</time>
      </trkpt>
      <trkpt lat="59.298375975340605" lon="13.077079961076379">
        <ele>55.29</ele>
        <time>2025-02-03T00:04:38.597Z</time>
      </trkpt>
      <trkpt lat="59.2983519192785" lon="13.077090941369534">
        <ele>55.45</ele>
        <time>2025-02-03T00:04:44.233Z</time>
      </trkpt>
      <trkpt lat="59.29832895286381" lon="13.077096976339817">
        <ele>55.62</ele>
        <time>2025-02-03T00:04:49.869Z</time>
      </trkpt>
      <trkpt lat="59.29830892011523" lon="13.077093958854675">
        <ele>55.78</ele>
        <time>2025-02-03T00:04:55.506Z</time>
      </trkpt>
      <trkpt lat="59.298289977014065" lon="13.077088929712772">
        <ele>55.95</ele>
        <time>2025-02-03T00:05:01.143Z</time>
      </trkpt>
      <trkpt lat="59.298269944265485" lon="13.077085996046662">
        <ele>56.12</ele>
        <time>2025-02-03T00:05:06.780Z</time>
      </trkpt>
      <trkpt lat="59.298250917345285" lon="13.07708297856152">
        <ele>56.3</ele>
        <time>2025-02-03T00:05:12.418Z</time>
      </trkpt>
      <trkpt lat="59.2982329800725" lon="13.077078955247998">
        <ele>56.47</ele>
        <time>2025-02-03T00:05:18.056Z</time>
      </trkpt>
      <trkpt lat="59.2982189822942" lon="13.077072920277715">
        <ele>56.65</ele>
        <time>2025-02-03T00:05:23.694Z</time>
      </trkpt>
      <trkpt lat="59.298204984515905" lon="13.077070992439985">
        <ele>56.84</ele>
        <time>2025-02-03T00:05:29.332Z</time>
      </trkpt>
      <trkpt lat="59.29819098673761" lon="13.07708096690476">
        <ele>57.02</ele>
        <time>2025-02-03T00:05:34.971Z</time>
      </trkpt>
      <trkpt lat="59.29817397147417" lon="13.077089935541153">
        <ele>57.21</ele>
        <time>2025-02-03T00:05:40.610Z</time>
      </trkpt>
      <trkpt lat="59.29815796203911" lon="13.077086918056011">
        <ele>57.4</ele>
        <time>2025-02-03T00:05:46.249Z</time>
      </trkpt>
      <trkpt lat="59.298140946775675" lon="13.077077949419618">
        <ele>57.6</ele>
        <time>2025-02-03T00:05:51.888Z</time>
      </trkpt>
      <trkpt lat="59.298125943169" lon="13.077067974954844">
        <ele>57.8</ele>
        <time>2025-02-03T00:05:57.528Z</time>
      </trkpt>
      <trkpt lat="59.29811395704746" lon="13.07706193998456">
        <ele>58.0</ele>
        <time>2025-02-03T00:06:03.168Z</time>
      </trkpt>
      <trkpt lat="59.29810892790556" lon="13.07706193998456">
        <ele>58.2</ele>
        <time>2025-02-03T00:06:08.808Z</time>
      </trkpt>
      <trkpt lat="59.2981069162488" lon="13.07706093415618">
        <ele>58.4</ele>
        <time>2025-02-03T00:06:14.448Z</time>
      </trkpt>
      <trkpt lat="59.29806894622743" lon="13.077063951641321">
        <ele>58.61</ele>
        <time>2025-02-03T00:06:20.089Z</time>
      </trkpt>
      <trkpt lat="59.29805092513561" lon="13.07706193998456">
        <ele>58.82</ele>
        <time>2025-02-03T00:06:25.730Z</time>
      </trkpt>
      <trkpt lat="59.298030976206064" lon="13.077055988833308">
        <ele>59.04</ele>
        <time>2025-02-03T00:06:31.371Z</time>
      </trkpt>
      <trkpt lat="59.298009937629104" lon="13.077047942206264">
        <ele>59.25</ele>
        <time>2025-02-03T00:06:37.013Z</time>
      </trkpt>
      <trkpt lat="59.297988982871175" lon="13.07703897356987">
        <ele>59.47</ele>
        <time>2025-02-03T00:06:42.655Z</time>
      </trkpt>
      <trkpt lat="59.29796492680907" lon="13.077024975791574">
        <ele>59.7</ele>
        <time>2025-02-03T00:06:48.297Z</time>
      </trkpt>
      <trkpt lat="59.29793894290924" lon="13.077010978013277">
        <ele>59.92</ele>
        <time>2025-02-03T00:06:53.940Z</time>
      </trkpt>
      <trkpt lat="59.29790893569589" lon="13.077000919729471">
        <ele>60.15</ele>
        <time>2025-02-03T00:06:59.583Z</time>
      </trkpt>
      <trkpt lat="59.29787792265415" lon="13.076989939436316">
        <ele>60.38</ele>
        <time>2025-02-03T00:07:05.227Z</time>
      </trkpt>
      <trkpt lat="59.29784598760307" lon="13.076980970799923">
        <ele>60.61</ele>
        <time>2025-02-03T00:07:10.871Z</time>
      </trkpt>
      <trkpt lat="59.297815980389714" lon="13.076971918344498">
        <ele>60.84</ele>
        <time>2025-02-03T00:07:16.516Z</time>
      </trkpt>
      <trkpt lat="59.2977889906615" lon="13.076960938051343">
        <ele>61.08</ele>
        <time>2025-02-03T00:07:22.161Z</time>
      </trkpt>
      <trkpt lat="59.29776392877102" lon="13.07695297524333">
        <ele>61.32</ele>
        <time>2025-02-03T00:07:27.807Z</time>
      </trkpt>
      <trkpt lat="59.29774196818471" lon="13.076948951929808">
        <ele>61.55</ele>
        <time>2025-02-03T00:07:33.453Z</time>
      </trkpt>
      <trkpt lat="59.29771992377937" lon="13.076945934444666">
        <ele>61.79</ele>
        <time>2025-02-03T00:07:39.099Z</time>
      </trkpt>
      <trkpt lat="59.2976959515363" lon="13.076937971636653">
        <ele>62.04</ele>
        <time>2025-02-03T00:07:44.746Z</time>
      </trkpt>
      <trkpt lat="59.29767097346485" lon="13.076926991343498">
        <ele>62.28</ele>
        <time>2025-02-03T00:07:50.393Z</time>
      </trkpt>
      <trkpt lat="59.297643983736634" lon="13.076913999393582">
        <ele>62.53</ele>
        <time>2025-02-03T00:07:56.041Z</time>
      </trkpt>
      <trkpt lat="59.29761699400842" lon="13.076900923624635">
        <ele>62.77</ele>
        <time>2025-02-03T00:08:01.689Z</time>
      </trkpt>
      <trkpt lat="59.29759193211794" lon="13.07688994333148">
        <ele>63.02</ele>
        <time>2025-02-03T00:08:07.337Z</time>
      </trkpt>
      <trkpt lat="59.29756795987487" lon="13.076879968866706">
        <ele>63.27</ele>
        <time>2025-02-03T00:08:12.986Z</time>
      </trkpt>
      <trkpt lat="59.29754499346018" lon="13.076873933896422">
        <ele>63.53</ele>
        <time>2025-02-03T00:08:18.635Z</time>
      </trkpt>
      <trkpt lat="59.29752294905484" lon="13.07686697691679">
        <ele>63.78</ele>
        <time>2025-02-03T00:08:24.285Z</time>
      </trkpt>
      <trkpt lat="59.29749897681177" lon="13.076852979138494">
        <ele>64.03</ele>
        <time>2025-02-03T00:08:29.935Z</time>
      </trkpt>
      <trkpt lat="59.297473998740315" lon="13.076838981360197">
        <ele>64.29</ele>
        <time>2025-02-03T00:08:35.585Z</time>
      </trkpt>
      <trkpt lat="59.29744893684983" lon="13.07682791724801">
        <ele>64.55</ele>
        <time>2025-02-03T00:08:41.236Z</time>
      </trkpt>
      <trkpt lat="59.29742395877838" lon="13.076816936954856">
        <ele>64.8</ele>
        <time>2025-02-03T00:08:46.887Z</time>
      </trkpt>
      <trkpt lat="59.29739898070693" lon="13.07680495083332">
        <ele>65.06</ele>
        <time>2025-02-03T00:08:52.539Z</time>
      </trkpt>
      <trkpt lat="59.2973729968071" lon="13.076789947226644">
        <ele>65.32</ele>
        <time>2025-02-03T00:08:58.191Z</time>
      </trkpt>
      <trkpt lat="59.297347934916615" lon="13.076776955276728">
        <ele>65.58</ele>
        <time>2025-02-03T00:09:03.843Z</time>
      </trkpt>
      <trkpt lat="59.297323962673545" lon="13.076764969155192">
        <ele>65.85</ele>
        <time>2025-02-03T00:09:09.496Z</time>
      </trkpt>
      <trkpt lat="59.297303929924965" lon="13.076757928356528">
        <ele>66.11</ele>
        <time>2025-02-03T00:09:15.149Z</time>
      </trkpt>
      <trkpt lat="59.29728892631829" lon="13.076750971376896">
        <ele>66.37</ele>
        <time>2025-02-03T00:09:20.802Z</time>
      </trkpt>
      <trkpt lat="59.29727694019675" lon="13.076742924749851">
        <ele>66.63</ele>
        <time>2025-02-03T00:09:26.456Z</time>
      </trkpt>
      <trkpt lat="59.29726696573198" lon="13.076743930578232">
        <ele>66.89</ele>
        <time>2025-02-03T00:09:32.110Z</time>
      </trkpt>
      <trkpt lat="59.297261936590075" lon="13.07674191892147">
        <ele>67.16</ele>
        <time>2025-02-03T00:09:37.764Z</time>
      </trkpt>
      <trkpt lat="59.297259924933314" lon="13.076739991083741">
        <ele>67.42</ele>
        <time>2025-02-03T00:09:43.418Z</time>
      </trkpt>
      <trkpt lat="59.297213992103934" lon="13.076753988862038">
        <ele>67.69</ele>
        <time>2025-02-03T00:09:49.073Z</time>
      </trkpt>
      <trkpt lat="59.29719999432564" lon="13.076750971376896">
        <ele>67.95</ele>
        <time>2025-02-03T00:09:54.728Z</time>
      </trkpt>
      <trkpt lat="59.29718096740544" lon="13.076743930578232">
        <ele>68.22</ele>
        <time>2025-02-03T00:10:00.383Z</time>
      </trkpt>
      <trkpt lat="59.29715992882848" lon="13.076734961941838">
        <ele>68.48</ele>
        <time>2025-02-03T00:10:06.039Z</time>
      </trkpt>
      <trkpt lat="59.297132939100266" lon="13.076727921143174">
        <ele>68.75</ele>
        <time>2025-02-03T00:10:11.695Z</time>
      </trkpt>
      <trkpt lat="59.29710092023015" lon="13.076722975820303">
        <ele>69.02</ele>
        <time>2025-02-03T00:10:17.351Z</time>
      </trkpt>
      <trkpt lat="59.297065967693925" lon="13.07671694085002">
        <ele>69.28</ele>
        <time>2025-02-03T00:10:23.008Z</time>
      </trkpt>
      <trkpt lat="59.29702699184418" lon="13.076703948900104">
        <ele>69.55</ele>
        <time>2025-02-03T00:10:28.666Z</time>
      </trkpt>
      <trkpt lat="59.29698399268091" lon="13.076688945293427">
        <ele>69.82</ele>
        <time>2025-02-03T00:10:34.324Z</time>
      </trkpt>
      <trkpt lat="59.29694099351764" lon="13.076671930029988">
        <ele>70.09</ele>
        <time>2025-02-03T00:10:39.983Z</time>
      </trkpt>
      <trkpt lat="59.296892965212464" lon="13.076658938080072">
        <ele>70.36</ele>
        <time>2025-02-03T00:10:45.643Z</time>
      </trkpt>
      <trkpt lat="59.29684191942215" lon="13.07665097527206">
        <ele>70.62</ele>
        <time>2025-02-03T00:10:51.304Z</time>
      </trkpt>
      <trkpt lat="59.296788945794106" lon="13.076637983322144">
        <ele>70.89</ele>
        <time>2025-02-03T00:10:56.966Z</time>
      </trkpt>
      <trkpt lat="59.29672993719578" lon="13.07663194835186">
        <ele>71.16</ele>
        <time>2025-02-03T00:11:02.628Z</time>
      </trkpt>
      <trkpt lat="59.29666799493134" lon="13.076627925038338">
        <ele>71.42</ele>
        <time>2025-02-03T00:11:08.291Z</time>
      </trkpt>
      <trkpt lat="59.29660295136273" lon="13.076624991372228">
        <ele>71.69</ele>
        <time>2025-02-03T00:11:13.956Z</time>
      </trkpt>
      <trkpt lat="59.29653698578477" lon="13.076616944745183">
        <ele>71.95</ele>
        <time>2025-02-03T00:11:19.622Z</time>
      </trkpt>
      <trkpt lat="59.296465991064906" lon="13.076603952795267">
        <ele>72.21</ele>
        <time>2025-02-03T00:11:25.289Z</time>
      </trkpt>
      <trkpt lat="59.29639499634504" lon="13.076581992208958">
        <ele>72.47</ele>
        <time>2025-02-03T00:11:30.957Z</time>
      </trkpt>
      <trkpt lat="59.29632693529129" lon="13.076557936146855">
        <ele>72.73</ele>
        <time>2025-02-03T00:11:36.626Z</time>
      </trkpt>
      <trkpt lat="59.29626096971333" lon="13.076531952247024">
        <ele>73.0</ele>
        <time>2025-02-03T00:11:42.296Z</time>
      </trkpt>
      <trkpt lat="59.29619592614472" lon="13.076505968347192">
        <ele>73.26</ele>
        <time>2025-02-03T00:11:47.967Z</time>
      </trkpt>
      <trkpt lat="59.2961329780519" lon="13.076474955305457">
        <ele>73.52</ele>
        <time>2025-02-03T00:11:53.639Z</time>
      </trkpt>
      <trkpt lat="59.29606894031167" lon="13.076441930606961">
        <ele>73.78</ele>
        <time>2025-02-03T00:11:59.312Z</time>
      </trkpt>
      <trkpt lat="59.29600096307695" lon="13.076410917565227">
        <ele>74.05</ele>
        <time>2025-02-03T00:12:04.986Z</time>
      </trkpt>
      <trkpt lat="59.29593399167061" lon="13.076382922008634">
        <ele>74.31</ele>
        <time>2025-02-03T00:12:10.661Z</time>
      </trkpt>
      <trkpt lat="59.295868948102" lon="13.076355932280421">
        <ele>74.57</ele>
        <time>2025-02-03T00:12:16.338Z</time>
      </trkpt>
      <trkpt lat="59.29580792784691" lon="13.076328942552209">
        <ele>74.83</ele>
        <time>2025-02-03T00:12:22.016Z</time>
      </trkpt>
      <trkpt lat="59.29574699141085" lon="13.076305976137519">
        <ele>75.08</ele>
        <time>2025-02-03T00:12:27.695Z</time>
      </trkpt>
      <trkpt lat="59.29569594562054" lon="13.076275968924165">
        <ele>75.34</ele>
        <time>2025-02-03T00:12:33.374Z</time>
      </trkpt>
      <trkpt lat="59.29564196616411" lon="13.07624395005405">
        <ele>75.59</ele>
        <time>2025-02-03T00:12:39.054Z</time>
      </trkpt>
      <trkpt lat="59.29559896700084" lon="13.07620195671916">
        <ele>75.84</ele>
        <time>2025-02-03T00:12:44.735Z</time>
      </trkpt>
      <trkpt lat="59.29555797949433" lon="13.07615895755589">
        <ele>76.09</ele>
        <time>2025-02-03T00:12:50.417Z</time>
      </trkpt>
      <trkpt lat="59.295516991987824" lon="13.076113946735859">
        <ele>76.34</ele>
        <time>2025-02-03T00:12:56.100Z</time>
      </trkpt>
      <trkpt lat="59.295478938147426" lon="13.076065918430686">
        <ele>76.58</ele>
        <time>2025-02-03T00:13:01.783Z</time>
      </trkpt>
      <trkpt lat="59.2954389564693" lon="13.076014956459403">
        <ele>76.82</ele>
        <time>2025-02-03T00:13:07.467Z</time>
      </trkpt>
      <trkpt lat="59.29539897479117" lon="13.07596692815423">
        <ele>77.06</ele>
        <time>2025-02-03T00:13:13.152Z</time>
      </trkpt>
      <trkpt lat="59.29536192677915" lon="13.075918983668089">
        <ele>77.3</ele>
        <time>2025-02-03T00:13:18.837Z</time>
      </trkpt>
      <trkpt lat="59.295325968414545" lon="13.075869949534535">
        <ele>77.53</ele>
        <time>2025-02-03T00:13:24.523Z</time>
      </trkpt>
      <trkpt lat="59.29529394954443" lon="13.075818987563252">
        <ele>77.76</ele>
        <time>2025-02-03T00:13:30.210Z</time>
      </trkpt>
      <trkpt lat="59.295260924845934" lon="13.075766935944557">
        <ele>77.99</ele>
        <time>2025-02-03T00:13:35.898Z</time>
      </trkpt>
      <trkpt lat="59.29522999562323" lon="13.075714968144894">
        <ele>78.21</ele>
        <time>2025-02-03T00:13:41.586Z</time>
      </trkpt>
      <trkpt lat="59.295197976753116" lon="13.07566693983972">
        <ele>78.43</ele>
        <time>2025-02-03T00:13:47.275Z</time>
      </trkpt>
      <trkpt lat="59.295172998681664" lon="13.075626958161592">
        <ele>78.65</ele>
        <time>2025-02-03T00:13:52.964Z</time>
      </trkpt>
      <trkpt lat="59.29514491930604" lon="13.075582953169942">
        <ele>78.86</ele>
        <time>2025-02-03T00:13:58.654Z</time>
      </trkpt>
      <trkpt lat="59.29511792957783" lon="13.075529979541898">
        <ele>79.07</ele>
        <time>2025-02-03T00:14:04.345Z</time>
      </trkpt>
      <trkpt lat="59.295090939849615" lon="13.07546996511519">
        <ele>79.27</ele>
        <time>2025-02-03T00:14:10.036Z</time>
      </trkpt>
      <trkpt lat="59.29506495594978" lon="13.075410956516862">
        <ele>79.48</ele>
        <time>2025-02-03T00:14:15.728Z</time>
      </trkpt>
      <trkpt lat="59.29503897204995" lon="13.075353959575295">
        <ele>79.68</ele>
        <time>2025-02-03T00:14:21.420Z</time>
      </trkpt>
      <trkpt lat="59.29501499980688" lon="13.075302997604012">
        <ele>79.88</ele>
        <time>2025-02-03T00:14:27.113Z</time>
      </trkpt>
      <trkpt lat="59.29499396122992" lon="13.0752569809556">
        <ele>80.07</ele>
        <time>2025-02-03T00:14:32.807Z</time>
      </trkpt>
      <trkpt lat="59.294963954016566" lon="13.075206940993667">
        <ele>80.26</ele>
        <time>2025-02-03T00:14:38.501Z</time>
      </trkpt>
      <trkpt lat="59.294939981773496" lon="13.075151955708861">
        <ele>80.44</ele>
        <time>2025-02-03T00:14:44.196Z</time>
      </trkpt>
      <trkpt lat="59.29491592571139" lon="13.075095964595675">
        <ele>80.62</ele>
        <time>2025-02-03T00:14:49.891Z</time>
      </trkpt>
      <trkpt lat="59.29487996734679" lon="13.07506293989718">
        <ele>80.8</ele>
        <time>2025-02-03T00:14:55.587Z</time>
      </trkpt>
      <trkpt lat="59.29484996013343" lon="13.075027987360954">
        <ele>80.97</ele>
        <time>2025-02-03T00:15:01.284Z</time>
      </trkpt>
      <trkpt lat="59.29482699371874" lon="13.074974929913878">
        <ele>81.14</ele>
        <time>2025-02-03T00:15:06.981Z</time>
      </trkpt>
      <trkpt lat="59.29480293765664" lon="13.07491097599268">
        <ele>81.31</ele>
        <time>2025-02-03T00:15:12.679Z</time>
      </trkpt>
      <trkpt lat="59.29477896541357" lon="13.074854984879494">
        <ele>81.47</ele>
        <time>2025-02-03T00:15:18.377Z</time>
      </trkpt>
      <trkpt lat="59.294747952371836" lon="13.074800921604037">
        <ele>81.63</ele>
        <time>2025-02-03T00:15:24.076Z</time>
      </trkpt>
      <trkpt lat="59.29471794515848" lon="13.074741996824741">
        <ele>81.79</ele>
        <time>2025-02-03T00:15:29.776Z</time>
      </trkpt>
      <trkpt lat="59.294684920459986" lon="13.074679970741272">
        <ele>81.94</ele>
        <time>2025-02-03T00:15:35.476Z</time>
      </trkpt>
      <trkpt lat="59.294641921296716" lon="13.074622973799706">
        <ele>82.08</ele>
        <time>2025-02-03T00:15:41.177Z</time>
      </trkpt>
      <trkpt lat="59.294597916305065" lon="13.074550973251462">
        <ele>82.22</ele>
        <time>2025-02-03T00:15:46.879Z</time>
      </trkpt>
      <trkpt lat="59.294556928798556" lon="13.074479978531599">
        <ele>82.35</ele>
        <time>2025-02-03T00:15:52.582Z</time>
      </trkpt>
      <trkpt lat="59.29451795294881" lon="13.074407977983356">
        <ele>82.48</ele>
        <time>2025-02-03T00:15:58.286Z</time>
      </trkpt>
      <trkpt lat="59.29447998292744" lon="13.074338994920254">
        <ele>82.61</ele>
        <time>2025-02-03T00:16:03.991Z</time>
      </trkpt>
      <trkpt lat="59.29443698376417" lon="13.074267916381359">
        <ele>82.73</ele>
        <time>2025-02-03T00:16:09.697Z</time>
      </trkpt>
      <trkpt lat="59.29439297877252" lon="13.074195999652147">
        <ele>82.85</ele>
        <time>2025-02-03T00:16:15.404Z</time>
      </trkpt>
      <trkpt lat="59.29435299709439" lon="13.074122993275523">
        <ele>82.96</ele>
        <time>2025-02-03T00:16:21.112Z</time>
      </trkpt>
      <trkpt lat="59.29430899210274" lon="13.074043951928616">
        <ele>83.07</ele>
        <time>2025-02-03T00:16:26.820Z</time>
      </trkpt>
      <trkpt lat="59.29426398128271" lon="13.073965916410089">
        <ele>83.17</ele>
        <time>2025-02-03T00:16:32.529Z</time>
      </trkpt>
      <trkpt lat="59.29421897046268" lon="13.073890982195735">
        <ele>83.27</ele>
        <time>2025-02-03T00:16:38.239Z</time>
      </trkpt>
      <trkpt lat="59.29417295381427" lon="13.07381596416235">
        <ele>83.36</ele>
        <time>2025-02-03T00:16:43.950Z</time>
      </trkpt>
      <trkpt lat="59.294126937165856" lon="13.073736922815442">
        <ele>83.45</ele>
        <time>2025-02-03T00:16:49.662Z</time>
      </trkpt>
      <trkpt lat="59.294081926345825" lon="13.073657965287566">
        <ele>83.53</ele>
        <time>2025-02-03T00:16:55.375Z</time>
      </trkpt>
      <trkpt lat="59.294037921354175" lon="13.073578923940659">
        <ele>83.61</ele>
        <time>2025-02-03T00:17:01.089Z</time>
      </trkpt>
      <trkpt lat="59.293992994353175" lon="13.073510946705937">
        <ele>83.68</ele>
        <time>2025-02-03T00:17:06.804Z</time>
      </trkpt>
      <trkpt lat="59.293944966048" lon="13.073439951986074">
        <ele>83.75</ele>
        <time>2025-02-03T00:17:12.520Z</time>
      </trkpt>
      <trkpt lat="59.29389392025769" lon="13.07336694560945">
        <ele>83.81</ele>
        <time>2025-02-03T00:17:18.237Z</time>
      </trkpt>
      <trkpt lat="59.29383994080126" lon="13.073297962546349">
        <ele>83.87</ele>
        <time>2025-02-03T00:17:23.955Z</time>
      </trkpt>
      <trkpt lat="59.29378495551646" lon="13.073231996968389">
        <ele>83.93</ele>
        <time>2025-02-03T00:17:29.674Z</time>
      </trkpt>
      <trkpt lat="59.29372795857489" lon="13.07317198254168">
        <ele>83.98</ele>
        <time>2025-02-03T00:17:35.394Z</time>
      </trkpt>
      <trkpt lat="59.293671967461705" lon="13.073118925094604">
        <ele>84.03</ele>
        <time>2025-02-03T00:17:41.115Z</time>
      </trkpt>
      <trkpt lat="59.29361396469176" lon="13.07306494563818">
        <ele>84.07</ele>
        <time>2025-02-03T00:17:46.837Z</time>
      </trkpt>
      <trkpt lat="59.29355596192181" lon="13.073012977838516">
        <ele>84.11</ele>
        <time>2025-02-03T00:17:52.560Z</time>
      </trkpt>
      <trkpt lat="59.2934959474951" lon="13.072961932048202">
        <ele>84.14</ele>
        <time>2025-02-03T00:17:58.284Z</time>
      </trkpt>
      <trkpt lat="59.293435933068395" lon="13.07291298173368">
        <ele>84.16</ele>
        <time>2025-02-03T00:18:04.009Z</time>
      </trkpt>
      <trkpt lat="59.29337499663234" lon="13.072864953428507">
        <ele>84.18</ele>
        <time>2025-02-03T00:18:09.735Z</time>
      </trkpt>
      <trkpt lat="59.29331196472049" lon="13.072820948436856">
        <ele>84.19</ele>
        <time>2025-02-03T00:18:15.463Z</time>
      </trkpt>
      <trkpt lat="59.29324993863702" lon="13.072777949273586">
        <ele>84.2</ele>
        <time>2025-02-03T00:18:21.192Z</time>
      </trkpt>
      <trkpt lat="59.29318992421031" lon="13.072733944281936">
        <ele>84.2</ele>
        <time>2025-02-03T00:18:26.922Z</time>
      </trkpt>
      <trkpt lat="59.29312798194587" lon="13.072695974260569">
        <ele>84.2</ele>
        <time>2025-02-03T00:18:32.653Z</time>
      </trkpt>
      <trkpt lat="59.2930659558624" lon="13.072666972875595">
        <ele>84.19</ele>
        <time>2025-02-03T00:18:38.385Z</time>
      </trkpt>
      <trkpt lat="59.29300392977893" lon="13.072638977319002">
        <ele>84.17</ele>
        <time>2025-02-03T00:18:44.118Z</time>
      </trkpt>
      <trkpt lat="59.292941987514496" lon="13.072605952620506">
        <ele>84.15</ele>
        <time>2025-02-03T00:18:49.852Z</time>
      </trkpt>
      <trkpt lat="59.29288096725941" lon="13.07256898842752">
        <ele>84.12</ele>
        <time>2025-02-03T00:18:55.587Z</time>
      </trkpt>
      <trkpt lat="59.29281894117594" lon="13.072541998699307">
        <ele>84.08</ele>
        <time>2025-02-03T00:19:01.323Z</time>
      </trkpt>
      <trkpt lat="59.29275892674923" lon="13.072514925152063">
        <ele>84.04</ele>
        <time>2025-02-03T00:19:07.060Z</time>
      </trkpt>
      <trkpt lat="59.29269597865641" lon="13.072490952908993">
        <ele>83.99</ele>
        <time>2025-02-03T00:19:12.798Z</time>
      </trkpt>
      <trkpt lat="59.29263395257294" lon="13.072466980665922">
        <ele>83.94</ele>
        <time>2025-02-03T00:19:18.537Z</time>
      </trkpt>
      <trkpt lat="59.29257293231785" lon="13.072445942088962">
        <ele>83.89</ele>
        <time>2025-02-03T00:19:24.277Z</time>
      </trkpt>
      <trkpt lat="59.292510990053415" lon="13.072425993159413">
        <ele>83.82</ele>
        <time>2025-02-03T00:19:30.018Z</time>
      </trkpt>
      <trkpt lat="59.29245097562671" lon="13.072409983724356">
        <ele>83.76</ele>
        <time>2025-02-03T00:19:35.760Z</time>
      </trkpt>
      <trkpt lat="59.29239196702838" lon="13.072392968460917">
        <ele>83.68</ele>
        <time>2025-02-03T00:19:41.503Z</time>
      </trkpt>
      <trkpt lat="59.29233497008681" lon="13.07237595319748">
        <ele>83.6</ele>
        <time>2025-02-03T00:19:47.247Z</time>
      </trkpt>
      <trkpt lat="59.29227998480201" lon="13.072359943762422">
        <ele>83.52</ele>
        <time>2025-02-03T00:19:52.992Z</time>
      </trkpt>
      <trkpt lat="59.29222793318331" lon="13.072342928498983">
        <ele>83.43</ele>
        <time>2025-02-03T00:19:58.737Z</time>
      </trkpt>
      <trkpt lat="59.29217495955527" lon="13.072329936549067">
        <ele>83.33</ele>
        <time>2025-02-03T00:20:04.483Z</time>
      </trkpt>
      <trkpt lat="59.292123997583985" lon="13.07231392711401">
        <ele>83.22</ele>
        <time>2025-02-03T00:20:10.230Z</time>
      </trkpt>
      <trkpt lat="59.29207094013691" lon="13.072299929335713">
        <ele>83.11</ele>
        <time>2025-02-03T00:20:15.978Z</time>
      </trkpt>
      <trkpt lat="59.292016960680485" lon="13.072286937385798">
        <ele>82.99</ele>
        <time>2025-02-03T00:20:21.727Z</time>
      </trkpt>
      <trkpt lat="59.29196298122406" lon="13.072274951264262">
        <ele>82.86</ele>
        <time>2025-02-03T00:20:27.477Z</time>
      </trkpt>
      <trkpt lat="59.291908917948604" lon="13.072263970971107">
        <ele>82.73</ele>
        <time>2025-02-03T00:20:33.228Z</time>
      </trkpt>
      <trkpt lat="59.29185292683542" lon="13.072255924344063">
        <ele>82.59</ele>
        <time>2025-02-03T00:20:38.979Z</time>
      </trkpt>
      <trkpt lat="59.29179592989385" lon="13.072242932394147">
        <ele>82.45</ele>
        <time>2025-02-03T00:20:44.731Z</time>
      </trkpt>
      <trkpt lat="59.291739938780665" lon="13.072229940444231">
        <ele>82.3</ele>
        <time>2025-02-03T00:20:50.484Z</time>
      </trkpt>
      <trkpt lat="59.29168193601072" lon="13.072219965979457">
        <ele>82.14</ele>
        <time>2025-02-03T00:20:56.238Z</time>
      </trkpt>
      <trkpt lat="59.29162192158401" lon="13.072207979857922">
        <ele>81.98</ele>
        <time>2025-02-03T00:21:01.993Z</time>
      </trkpt>
      <trkpt lat="59.29155997931957" lon="13.072193982079625">
        <ele>81.82</ele>
        <time>2025-02-03T00:21:07.749Z</time>
      </trkpt>
      <trkpt lat="59.2914979532361" lon="13.072177972644567">
        <ele>81.65</ele>
        <time>2025-02-03T00:21:13.506Z</time>
      </trkpt>
      <trkpt lat="59.291436932981014" lon="13.07216196320951">
        <ele>81.48</ele>
        <time>2025-02-03T00:21:19.264Z</time>
      </trkpt>
      <trkpt lat="59.291372979059815" lon="13.072150982916355">
        <ele>81.3</ele>
        <time>2025-02-03T00:21:25.023Z</time>
      </trkpt>
      <trkpt lat="59.291307935491204" lon="13.07214293628931">
        <ele>81.12</ele>
        <time>2025-02-03T00:21:30.783Z</time>
      </trkpt>
      <trkpt lat="59.291240964084864" lon="13.072135979309678">
        <ele>80.94</ele>
        <time>2025-02-03T00:21:36.544Z</time>
      </trkpt>
      <trkpt lat="59.29117298685014" lon="13.072133967652917">
        <ele>80.74</ele>
        <time>2025-02-03T00:21:42.306Z</time>
      </trkpt>
      <trkpt lat="59.29110391996801" lon="13.072134973481297">
        <ele>80.55</ele>
        <time>2025-02-03T00:21:48.070Z</time>
      </trkpt>
      <trkpt lat="59.29103594273329" lon="13.072135979309678">
        <ele>80.34</ele>
        <time>2025-02-03T00:21:53.835Z</time>
      </trkpt>
      <trkpt lat="59.29096897132695" lon="13.072135979309678">
        <ele>80.13</ele>
        <time>2025-02-03T00:21:59.601Z</time>
      </trkpt>
      <trkpt lat="59.290900994092226" lon="13.072135979309678">
        <ele>79.91</ele>
        <time>2025-02-03T00:22:05.368Z</time>
      </trkpt>
      <trkpt lat="59.290833938866854" lon="13.072134973481297">
        <ele>79.68</ele>
        <time>2025-02-03T00:22:11.136Z</time>
      </trkpt>
      <trkpt lat="59.29076294414699" lon="13.072134973481297">
        <ele>79.45</ele>
        <time>2025-02-03T00:22:16.905Z</time>
      </trkpt>
      <trkpt lat="59.29069194942713" lon="13.072133967652917">
        <ele>79.22</ele>
        <time>2025-02-03T00:22:22.675Z</time>
      </trkpt>
      <trkpt lat="59.290618943050504" lon="13.072129944339395">
        <ele>78.98</ele>
        <time>2025-02-03T00:22:28.446Z</time>
      </trkpt>
      <trkpt lat="59.29054392501712" lon="13.072125921025872">
        <ele>78.73</ele>
        <time>2025-02-03T00:22:34.219Z</time>
      </trkpt>
      <trkpt lat="59.29046396166086" lon="13.072125921025872">
        <ele>78.48</ele>
        <time>2025-02-03T00:22:39.993Z</time>
      </trkpt>
      <trkpt lat="59.290384920313954" lon="13.072124999016523">
        <ele>78.23</ele>
        <time>2025-02-03T00:22:45.768Z</time>
      </trkpt>
      <trkpt lat="59.29030294530094" lon="13.07211896404624">
        <ele>77.98</ele>
        <time>2025-02-03T00:22:51.544Z</time>
      </trkpt>
      <trkpt lat="59.29021895863116" lon="13.072109995409846">
        <ele>77.71</ele>
        <time>2025-02-03T00:22:57.322Z</time>
      </trkpt>
      <trkpt lat="59.290133966133" lon="13.072096919640899">
        <ele>77.45</ele>
        <time>2025-02-03T00:23:03.101Z</time>
      </trkpt>
      <trkpt lat="59.290043944492936" lon="13.072086945176125">
        <ele>77.17</ele>
        <time>2025-02-03T00:23:08.882Z</time>
      </trkpt>
      <trkpt lat="59.289950989186764" lon="13.072077976539731">
        <ele>76.89</ele>
        <time>2025-02-03T00:23:14.664Z</time>
      </trkpt>
      <trkpt lat="59.28985694423318" lon="13.072068924084306">
        <ele>76.61</ele>
        <time>2025-02-03T00:23:20.448Z</time>
      </trkpt>
      <trkpt lat="59.289759965613484" lon="13.072061967104673">
        <ele>76.32</ele>
        <time>2025-02-03T00:23:26.233Z</time>
      </trkpt>
      <trkpt lat="59.28966097533703" lon="13.07205299846828">
        <ele>76.03</ele>
        <time>2025-02-03T00:23:32.020Z</time>
      </trkpt>
      <trkpt lat="59.28955997340381" lon="13.072044951841235">
        <ele>75.73</ele>
        <time>2025-02-03T00:23:37.808Z</time>
      </trkpt>
      <trkpt lat="59.289458971470594" lon="13.072036989033222">
        <ele>75.42</ele>
        <time>2025-02-03T00:23:43.598Z</time>
      </trkpt>
      <trkpt lat="59.28936098702252" lon="13.072028942406178">
        <ele>75.12</ele>
        <time>2025-02-03T00:23:49.389Z</time>
      </trkpt>
      <trkpt lat="59.2892599850893" lon="13.07203195989132">
        <ele>74.81</ele>
        <time>2025-02-03T00:23:55.182Z</time>
      </trkpt>
      <trkpt lat="59.289159988984466" lon="13.072039922699332">
        <ele>74.49</ele>
        <time>2025-02-03T00:24:00.977Z</time>
      </trkpt>
      <trkpt lat="59.28906292654574" lon="13.072048975154757">
        <ele>74.18</ele>
        <time>2025-02-03T00:24:06.773Z</time>
      </trkpt>
      <trkpt lat="59.2889629304409" lon="13.072063978761435">
        <ele>73.87</ele>
        <time>2025-02-03T00:24:12.571Z</time>
      </trkpt>
      <trkpt lat="59.288861928507686" lon="13.072090968489647">
        <ele>73.55</ele>
        <time>2025-02-03T00:24:18.371Z</time>
      </trkpt>
      <trkpt lat="59.28876092657447" lon="13.07211896404624">
        <ele>73.23</ele>
        <time>2025-02-03T00:24:24.172Z</time>
      </trkpt>
      <trkpt lat="59.28865799680352" lon="13.07214092463255">
        <ele>72.91</ele>
        <time>2025-02-03T00:24:29.975Z</time>
      </trkpt>
      <trkpt lat="59.288554983213544" lon="13.072163974866271">
        <ele>72.58</ele>
        <time>2025-02-03T00:24:35.779Z</time>
      </trkpt>
      <trkpt lat="59.288451969623566" lon="13.07218392379582">
        <ele>72.27</ele>
        <time>2025-02-03T00:24:41.585Z</time>
      </trkpt>
      <trkpt lat="59.28834895603359" lon="13.072206974029541">
        <ele>71.94</ele>
        <time>2025-02-03T00:24:47.393Z</time>
      </trkpt>
      <trkpt lat="59.28824694827199" lon="13.072231952100992">
        <ele>71.62</ele>
        <time>2025-02-03T00:24:53.202Z</time>
      </trkpt>
      <trkpt lat="59.28814292885363" lon="13.072255924344063">
        <ele>71.31</ele>
        <time>2025-02-03T00:24:59.013Z</time>
      </trkpt>
      <trkpt lat="59.288038993254304" lon="13.072275957092643">
        <ele>70.99</ele>
        <time>2025-02-03T00:25:04.826Z</time>
      </trkpt>
      <trkpt lat="59.287934973835945" lon="13.072298923507333">
        <ele>70.66</ele>
        <time>2025-02-03T00:25:10.640Z</time>
      </trkpt>
      <trkpt lat="59.287830954417586" lon="13.072328930720687">
        <ele>70.34</ele>
        <time>2025-02-03T00:25:16.456Z</time>
      </trkpt>
      <trkpt lat="59.28772794082761" lon="13.072361955419183">
        <ele>70.02</ele>
        <time>2025-02-03T00:25:22.274Z</time>
      </trkpt>
      <trkpt lat="59.28762492723763" lon="13.07239598594606">
        <ele>69.69</ele>
        <time>2025-02-03T00:25:28.094Z</time>
      </trkpt>
      <trkpt lat="59.28752199746668" lon="13.072427920997143">
        <ele>69.37</ele>
        <time>2025-02-03T00:25:33.915Z</time>
      </trkpt>
      <trkpt lat="59.287418983876705" lon="13.072456922382116">
        <ele>69.05</ele>
        <time>2025-02-03T00:25:39.738Z</time>
      </trkpt>
      <trkpt lat="59.28731999360025" lon="13.07248299010098">
        <ele>68.74</ele>
        <time>2025-02-03T00:25:45.562Z</time>
      </trkpt>
      <trkpt lat="59.28721899166703" lon="13.07250696234405">
        <ele>68.42</ele>
        <time>2025-02-03T00:25:51.388Z</time>
      </trkpt>
      <trkpt lat="59.287116983905435" lon="13.07252992875874">
        <ele>68.11</ele>
        <time>2025-02-03T00:25:57.216Z</time>
      </trkpt>
      <trkpt lat="59.287012964487076" lon="13.072552978992462">
        <ele>67.8</ele>
        <time>2025-02-03T00:26:03.045Z</time>
      </trkpt>
      <trkpt lat="59.28690894506872" lon="13.072574939578772">
        <ele>67.48</ele>
        <time>2025-02-03T00:26:08.876Z</time>
      </trkpt>
      <trkpt lat="59.28680492565036" lon="13.07259195484221">
        <ele>67.18</ele>
        <time>2025-02-03T00:26:14.709Z</time>
      </trkpt>
      <trkpt lat="59.28670492954552" lon="13.07261098176241">
        <ele>66.87</ele>
        <time>2025-02-03T00:26:20.543Z</time>
      </trkpt>
      <trkpt lat="59.286605939269066" lon="13.072622967883945">
        <ele>66.56</ele>
        <time>2025-02-03T00:26:26.379Z</time>
      </trkpt>
      <trkpt lat="59.28650896064937" lon="13.072622967883945">
        <ele>66.26</ele>
        <time>2025-02-03T00:26:32.217Z</time>
      </trkpt>
      <trkpt lat="59.286410976201296" lon="13.072616932913661">
        <ele>65.95</ele>
        <time>2025-02-03T00:26:38.056Z</time>
      </trkpt>
      <trkpt lat="59.28631198592484" lon="13.072605952620506">
        <ele>65.65</ele>
        <time>2025-02-03T00:26:43.897Z</time>
      </trkpt>
      <trkpt lat="59.28621098399162" lon="13.072589943185449">
        <ele>65.36</ele>
        <time>2025-02-03T00:26:49.739Z</time>
      </trkpt>
      <trkpt lat="59.286109982058406" lon="13.072577957063913">
        <ele>65.07</ele>
        <time>2025-02-03T00:26:55.583Z</time>
      </trkpt>
      <trkpt lat="59.286003950983286" lon="13.072565970942378">
        <ele>64.78</ele>
        <time>2025-02-03T00:27:01.429Z</time>
      </trkpt>
      <trkpt lat="59.28589699789882" lon="13.072551973164082">
        <ele>64.5</ele>
        <time>2025-02-03T00:27:07.276Z</time>
      </trkpt>
      <trkpt lat="59.285788955166936" lon="13.072538981214166">
        <ele>64.22</ele>
        <time>2025-02-03T00:27:13.125Z</time>
      </trkpt>
      <trkpt lat="59.28568099625409" lon="13.072521965950727">
        <ele>63.94</ele>
        <time>2025-02-03T00:27:18.976Z</time>
      </trkpt>
      <trkpt lat="59.285572953522205" lon="13.072501933202147">
        <ele>63.67</ele>
        <time>2025-02-03T00:27:24.829Z</time>
      </trkpt>
      <trkpt lat="59.285466922447085" lon="13.072475949302316">
        <ele>63.4</ele>
        <time>2025-02-03T00:27:30.683Z</time>
      </trkpt>
      <trkpt lat="59.28535996936262" lon="13.072451977059245">
        <ele>63.12</ele>
        <time>2025-02-03T00:27:36.539Z</time>
      </trkpt>
      <trkpt lat="59.2852539382875" lon="13.072421969845891">
        <ele>62.86</ele>
        <time>2025-02-03T00:27:42.397Z</time>
      </trkpt>
      <trkpt lat="59.28514899685979" lon="13.072382993996143">
        <ele>62.59</ele>
        <time>2025-02-03T00:27:48.256Z</time>
      </trkpt>
      <trkpt lat="59.28504799492657" lon="13.072337983176112">
        <ele>62.32</ele>
        <time>2025-02-03T00:27:54.117Z</time>
      </trkpt>
      <trkpt lat="59.284945987164974" lon="13.0722919665277">
        <ele>62.06</ele>
        <time>2025-02-03T00:27:59.980Z</time>
      </trkpt>
      <trkpt lat="59.284842973574996" lon="13.072249973192811">
        <ele>61.8</ele>
        <time>2025-02-03T00:28:05.844Z</time>
      </trkpt>
      <trkpt lat="59.28473895415664" lon="13.072207979857922">
        <ele>61.54</ele>
        <time>2025-02-03T00:28:11.710Z</time>
      </trkpt>
      <trkpt lat="59.28463594056666" lon="13.072172943502665">
        <ele>61.29</ele>
        <time>2025-02-03T00:28:17.578Z</time>
      </trkpt>
      <trkpt lat="59.2845319211483" lon="13.072144947946072">
        <ele>61.05</ele>
        <time>2025-02-03T00:28:23.448Z</time>
      </trkpt>
      <trkpt lat="59.28442697972059" lon="13.072121981531382">
        <ele>60.81</ele>
        <time>2025-02-03T00:28:29.319Z</time>
      </trkpt>
      <trkpt lat="59.284323966130614" lon="13.072102954611182">
        <ele>60.58</ele>
        <time>2025-02-03T00:28:35.192Z</time>
      </trkpt>
      <trkpt lat="59.2842229641974" lon="13.072089962661266">
        <ele>60.35</ele>
        <time>2025-02-03T00:28:41.067Z</time>
      </trkpt>
      <trkpt lat="59.2841209564358" lon="13.072084933519363">
        <ele>60.13</ele>
        <time>2025-02-03T00:28:46.943Z</time>
      </trkpt>
      <trkpt lat="59.284021966159344" lon="13.07207596488297">
        <ele>59.91</ele>
        <time>2025-02-03T00:28:52.821Z</time>
      </trkpt>
      <trkpt lat="59.28392398171127" lon="13.072072947397828">
        <ele>59.71</ele>
        <time>2025-02-03T00:28:58.700Z</time>
      </trkpt>
      <trkpt lat="59.2838289309293" lon="13.072063978761435">
        <ele>59.51</ele>
        <time>2025-02-03T00:29:04.581Z</time>
      </trkpt>
      <trkpt lat="59.28373496979475" lon="13.072057943791151">
        <ele>59.31</ele>
        <time>2025-02-03T00:29:10.463Z</time>
      </trkpt>
      <trkpt lat="59.28364394232631" lon="13.072049980983138">
        <ele>59.12</ele>
        <time>2025-02-03T00:29:16.347Z</time>
      </trkpt>
      <trkpt lat="59.283555932343006" lon="13.072040928527713">
        <ele>58.93</ele>
        <time>2025-02-03T00:29:22.232Z</time>
      </trkpt>
      <trkpt lat="59.283467922359705" lon="13.072034977376461">
        <ele>58.75</ele>
        <time>2025-02-03T00:29:28.119Z</time>
      </trkpt>
      <trkpt lat="59.283382929861546" lon="13.072027936577797">
        <ele>58.57</ele>
        <time>2025-02-03T00:29:34.007Z</time>
      </trkpt>
      <trkpt lat="59.283296931535006" lon="13.072022991254926">
        <ele>58.39</ele>
        <time>2025-02-03T00:29:39.896Z</time>
      </trkpt>
      <trkpt lat="59.28321294486523" lon="13.072015950456262">
        <ele>58.22</ele>
        <time>2025-02-03T00:29:45.787Z</time>
      </trkpt>
      <trkpt lat="59.28312895819545" lon="13.07200999930501">
        <ele>58.06</ele>
        <time>2025-02-03T00:29:51.679Z</time>
      </trkpt>
      <trkpt lat="59.28304497152567" lon="13.072007987648249">
        <ele>57.9</ele>
        <time>2025-02-03T00:29:57.572Z</time>
      </trkpt>
      <trkpt lat="59.28296299651265" lon="13.072005975991488">
        <ele>57.75</ele>
        <time>2025-02-03T00:30:03.467Z</time>
      </trkpt>
      <trkpt lat="59.28288294933736" lon="13.071997929364443">
        <ele>57.6</ele>
        <time>2025-02-03T00:30:09.363Z</time>
      </trkpt>
      <trkpt lat="59.282801980152726" lon="13.071994995698333">
        <ele>57.45</ele>
        <time>2025-02-03T00:30:15.260Z</time>
      </trkpt>
      <trkpt lat="59.28272193297744" lon="13.071996923536062">
        <ele>57.32</ele>
        <time>2025-02-03T00:30:21.159Z</time>
      </trkpt>
      <trkpt lat="59.2826409637928" lon="13.072002958506346">
        <ele>57.19</ele>
        <time>2025-02-03T00:30:27.059Z</time>
      </trkpt>
      <trkpt lat="59.28255697712302" lon="13.072018967941403">
        <ele>57.06</ele>
        <time>2025-02-03T00:30:32.960Z</time>
      </trkpt>
      <trkpt lat="59.28247097879648" lon="13.072047969326377">
        <ele>56.94</ele>
        <time>2025-02-03T00:30:38.863Z</time>
      </trkpt>
      <trkpt lat="59.28238598629832" lon="13.07207697071135">
        <ele>56.82</ele>
        <time>2025-02-03T00:30:44.767Z</time>
      </trkpt>
      <trkpt lat="59.282301999628544" lon="13.07209893129766">
        <ele>56.71</ele>
        <time>2025-02-03T00:30:50.672Z</time>
      </trkpt>
      <trkpt lat="59.28221398964524" lon="13.072122987359762">
        <ele>56.61</ele>
        <time>2025-02-03T00:30:56.579Z</time>
      </trkpt>
      <trkpt lat="59.28211994469166" lon="13.072156934067607">
        <ele>56.51</ele>
        <time>2025-02-03T00:31:02.487Z</time>
      </trkpt>
      <trkpt lat="59.2820209544152" lon="13.072197921574116">
        <ele>56.41</ele>
        <time>2025-02-03T00:31:08.397Z</time>
      </trkpt>
      <trkpt lat="59.281917940825224" lon="13.072235975414515">
        <ele>56.32</ele>
        <time>2025-02-03T00:31:14.309Z</time>
      </trkpt>
      <trkpt lat="59.281808976083994" lon="13.072268916293979">
        <ele>56.23</ele>
        <time>2025-02-03T00:31:20.222Z</time>
      </trkpt>
      <trkpt lat="59.28169196471572" lon="13.0723109934479">
        <ele>56.15</ele>
        <time>2025-02-03T00:31:26.137Z</time>
      </trkpt>
      <trkpt lat="59.28157093003392" lon="13.0723559204489">
        <ele>56.08</ele>
        <time>2025-02-03T00:31:32.054Z</time>
      </trkpt>
      <trkpt lat="59.281448973342776" lon="13.07239992544055">
        <ele>56.01</ele>
        <time>2025-02-03T00:31:37.973Z</time>
      </trkpt>
      <trkpt lat="59.28132492117584" lon="13.07244191877544">
        <ele>55.95</ele>
        <time>2025-02-03T00:31:43.894Z</time>
      </trkpt>
      <trkpt lat="59.28120195865631" lon="13.0724819842726">
        <ele>55.9</ele>
        <time>2025-02-03T00:31:49.817Z</time>
      </trkpt>
      <trkpt lat="59.28107991814613" lon="13.072519954293966">
        <ele>55.85</ele>
        <time>2025-02-03T00:31:55.742Z</time>
      </trkpt>
      <trkpt lat="59.28096299059689" lon="13.072556918486953">
        <ele>55.82</ele>
        <time>2025-02-03T00:32:01.669Z</time>
      </trkpt>
      <trkpt lat="59.28085092455149" lon="13.072594972327352">
        <ele>55.79</ele>
        <time>2025-02-03T00:32:07.598Z</time>
      </trkpt>
      <trkpt lat="59.280740953981876" lon="13.072631936520338">
        <ele>55.77</ele>
        <time>2025-02-03T00:32:13.529Z</time>
      </trkpt>
      <trkpt lat="59.280633917078376" lon="13.072670996189117">
        <ele>55.75</ele>
        <time>2025-02-03T00:32:19.462Z</time>
      </trkpt>
      <trkpt lat="59.28052998147905" lon="13.072708966210485">
        <ele>55.74</ele>
        <time>2025-02-03T00:32:25.396Z</time>
      </trkpt>
      <trkpt lat="59.28042998537421" lon="13.072748947888613">
        <ele>55.74</ele>
        <time>2025-02-03T00:32:31.332Z</time>
      </trkpt>
      <trkpt lat="59.280331917107105" lon="13.072790941223502">
        <ele>55.74</ele>
        <time>2025-02-03T00:32:37.270Z</time>
      </trkpt>
      <trkpt lat="59.28023594431579" lon="13.072833940386772">
        <ele>55.75</ele>
        <time>2025-02-03T00:32:43.209Z</time>
      </trkpt>
      <trkpt lat="59.28013997152448" lon="13.072882974520326">
        <ele>55.76</ele>
        <time>2025-02-03T00:32:49.150Z</time>
      </trkpt>
      <trkpt lat="59.28004693239927" lon="13.072933936491609">
        <ele>55.79</ele>
        <time>2025-02-03T00:32:55.092Z</time>
      </trkpt>
      <trkpt lat="59.27995598874986" lon="13.072982970625162">
        <ele>55.82</ele>
        <time>2025-02-03T00:33:01.036Z</time>
      </trkpt>
      <trkpt lat="59.27986697293818" lon="13.073035944253206">
        <ele>55.86</ele>
        <time>2025-02-03T00:33:06.981Z</time>
      </trkpt>
      <trkpt lat="59.2797829862684" lon="13.07308891788125">
        <ele>55.9</ele>
        <time>2025-02-03T00:33:12.928Z</time>
      </trkpt>
      <trkpt lat="59.27970092743635" lon="13.073137952014804">
        <ele>55.95</ele>
        <time>2025-02-03T00:33:18.876Z</time>
      </trkpt>
      <trkpt lat="59.27962297573686" lon="13.073185980319977">
        <ele>56.01</ele>
        <time>2025-02-03T00:33:24.825Z</time>
      </trkpt>
      <trkpt lat="59.27954996936023" lon="13.073229985311627">
        <ele>56.07</ele>
        <time>2025-02-03T00:33:30.776Z</time>
      </trkpt>
      <trkpt lat="59.27948098629713" lon="13.073270972818136">
        <ele>56.14</ele>
        <time>2025-02-03T00:33:36.728Z</time>
      </trkpt>
      <trkpt lat="59.279411919415" lon="13.073314977809787">
        <ele>56.21</ele>
        <time>2025-02-03T00:33:42.681Z</time>
      </trkpt>
      <trkpt lat="59.27934494800866" lon="13.073354959487915">
        <ele>56.29</ele>
        <time>2025-02-03T00:33:48.635Z</time>
      </trkpt>
      <trkpt lat="59.27928292192519" lon="13.073391923680902">
        <ele>56.37</ele>
        <time>2025-02-03T00:33:54.590Z</time>
      </trkpt>
      <trkpt lat="59.27922097966075" lon="13.0734299775213">
        <ele>56.46</ele>
        <time>2025-02-03T00:34:00.546Z</time>
      </trkpt>
      <trkpt lat="59.27916096523404" lon="13.073464930057526">
        <ele>56.55</ele>
        <time>2025-02-03T00:34:06.503Z</time>
      </trkpt>
      <trkpt lat="59.279101956635714" lon="13.073499966412783">
        <ele>56.64</ele>
        <time>2025-02-03T00:34:12.461Z</time>
      </trkpt>
      <trkpt lat="59.279041942209005" lon="13.073535924777389">
        <ele>56.74</ele>
        <time>2025-02-03T00:34:18.420Z</time>
      </trkpt>
      <trkpt lat="59.27898393943906" lon="13.073568949475884">
        <ele>56.85</ele>
        <time>2025-02-03T00:34:24.380Z</time>
      </trkpt>
      <trkpt lat="59.27892593666911" lon="13.07360197417438">
        <ele>56.96</ele>
        <time>2025-02-03T00:34:30.341Z</time>
      </trkpt>
      <trkpt lat="59.278868939727545" lon="13.073635920882225">
        <ele>57.07</ele>
        <time>2025-02-03T00:34:36.303Z</time>
      </trkpt>
      <trkpt lat="59.27881395444274" lon="13.073669951409101">
        <ele>57.18</ele>
        <time>2025-02-03T00:34:42.266Z</time>
      </trkpt>
      <trkpt lat="59.278759974986315" lon="13.073701970279217">
        <ele>57.3</ele>
        <time>2025-02-03T00:34:48.230Z</time>
      </trkpt>
      <trkpt lat="59.27870792336762" lon="13.073733989149332">
        <ele>57.42</ele>
        <time>2025-02-03T00:34:54.195Z</time>
      </trkpt>
      <trkpt lat="59.27865696139634" lon="13.073761984705925">
        <ele>57.54</ele>
        <time>2025-02-03T00:35:00.161Z</time>
      </trkpt>
      <trkpt lat="59.278609938919544" lon="13.073784951120615">
        <ele>57.67</ele>
        <time>2025-02-03T00:35:06.127Z</time>
      </trkpt>
      <trkpt lat="59.27856291644275" lon="13.073806995525956">
        <ele>57.8</ele>
        <time>2025-02-03T00:35:12.094Z</time>
      </trkpt>
      <trkpt lat="59.27851597778499" lon="13.073832979425788">
        <ele>57.94</ele>
        <time>2025-02-03T00:35:18.062Z</time>
      </trkpt>
      <trkpt lat="59.27847499027848" lon="13.073854940012097">
        <ele>58.07</ele>
        <time>2025-02-03T00:35:24.031Z</time>
      </trkpt>
      <trkpt lat="59.2784359306097" lon="13.073875978589058">
        <ele>58.22</ele>
        <time>2025-02-03T00:35:30.000Z</time>
      </trkpt>
      <trkpt lat="59.278393937274814" lon="13.073898945003748">
        <ele>58.36</ele>
        <time>2025-02-03T00:35:35.970Z</time>
      </trkpt>
      <trkpt lat="59.27834993228316" lon="13.0739239230752">
        <ele>58.51</ele>
        <time>2025-02-03T00:35:41.941Z</time>
      </trkpt>
      <trkpt lat="59.278311962261796" lon="13.073942949995399">
        <ele>58.65</ele>
        <time>2025-02-03T00:35:47.912Z</time>
      </trkpt>
      <trkpt lat="59.27827399224043" lon="13.073959965258837">
        <ele>58.81</ele>
        <time>2025-02-03T00:35:53.884Z</time>
      </trkpt>
      <trkpt lat="59.27823996171355" lon="13.073972957208753">
        <ele>58.96</ele>
        <time>2025-02-03T00:35:59.856Z</time>
      </trkpt>
      <trkpt lat="59.27820693701506" lon="13.073986954987049">
        <ele>59.12</ele>
        <time>2025-02-03T00:36:05.829Z</time>
      </trkpt>
      <trkpt lat="59.27817198447883" lon="13.074002964422107">
        <ele>59.27</ele>
        <time>2025-02-03T00:36:11.803Z</time>
      </trkpt>
      <trkpt lat="59.278135942295194" lon="13.074022997170687">
        <ele>59.44</ele>
        <time>2025-02-03T00:36:17.777Z</time>
      </trkpt>
      <trkpt lat="59.278095960617065" lon="13.074042946100235">
        <ele>59.6</ele>
        <time>2025-02-03T00:36:23.752Z</time>
      </trkpt>
      <trkpt lat="59.27806092426181" lon="13.074063984677196">
        <ele>59.76</ele>
        <time>2025-02-03T00:36:29.727Z</time>
      </trkpt>
      <trkpt lat="59.278028989210725" lon="13.074081921949983">
        <ele>59.92</ele>
        <time>2025-02-03T00:36:35.703Z</time>
      </trkpt>
      <trkpt lat="59.27800099365413" lon="13.07409793138504">
        <ele>60.09</ele>
        <time>2025-02-03T00:36:41.679Z</time>
      </trkpt>
      <trkpt lat="59.277967968955636" lon="13.074118969962">
        <ele>60.25</ele>
        <time>2025-02-03T00:36:47.656Z</time>
      </trkpt>
      <trkpt lat="59.27793092094362" lon="13.074152916669846">
        <ele>60.42</ele>
        <time>2025-02-03T00:36:53.634Z</time>
      </trkpt>
      <trkpt lat="59.27789496257901" lon="13.074178984388709">
        <ele>60.59</ele>
        <time>2025-02-03T00:36:59.612Z</time>
      </trkpt>
      <trkpt lat="59.277856992557645" lon="13.074201950803399">
        <ele>60.75</ele>
        <time>2025-02-03T00:37:05.591Z</time>
      </trkpt>
      <trkpt lat="59.277816927060485" lon="13.07422793470323">
        <ele>60.92</ele>
        <time>2025-02-03T00:37:11.571Z</time>
      </trkpt>
      <trkpt lat="59.277771916240454" lon="13.074250984936953">
        <ele>61.08</ele>
        <time>2025-02-03T00:37:17.551Z</time>
      </trkpt>
      <trkpt lat="59.27772296592593" lon="13.074274957180023">
        <ele>61.25</ele>
        <time>2025-02-03T00:37:23.532Z</time>
      </trkpt>
      <trkpt lat="59.27767996676266" lon="13.074299935251474">
        <ele>61.41</ele>
        <time>2025-02-03T00:37:29.514Z</time>
      </trkpt>
      <trkpt lat="59.27763395011425" lon="13.074321979656816">
        <ele>61.58</ele>
        <time>2025-02-03T00:37:35.497Z</time>
      </trkpt>
      <trkpt lat="59.2775899451226" lon="13.074341928586364">
        <ele>61.74</ele>
        <time>2025-02-03T00:37:41.480Z</time>
      </trkpt>
      <trkpt lat="59.27754392847419" lon="13.07435592636466">
        <ele>61.9</ele>
        <time>2025-02-03T00:37:47.464Z</time>
      </trkpt>
      <trkpt lat="59.27749799564481" lon="13.074370929971337">
        <ele>62.06</ele>
        <time>2025-02-03T00:37:53.449Z</time>
      </trkpt>
      <trkpt lat="59.27745399065316" lon="13.074381994083524">
        <ele>62.22</ele>
        <time>2025-02-03T00:37:59.435Z</time>
      </trkpt>
      <trkpt lat="59.277405962347984" lon="13.074389956891537">
        <ele>62.38</ele>
        <time>2025-02-03T00:38:05.421Z</time>
      </trkpt>
      <trkpt lat="59.27735793404281" lon="13.07439892552793">
        <ele>62.55</ele>
        <time>2025-02-03T00:38:11.408Z</time>
      </trkpt>
      <trkpt lat="59.27730797789991" lon="13.074404960498214">
        <ele>62.71</ele>
        <time>2025-02-03T00:38:17.396Z</time>
      </trkpt>
      <trkpt lat="59.277255926281214" lon="13.074407977983356">
        <ele>62.87</ele>
        <time>2025-02-03T00:38:23.385Z</time>
      </trkpt>
      <trkpt lat="59.27720295265317" lon="13.074407977983356">
        <ele>63.02</ele>
        <time>2025-02-03T00:38:29.375Z</time>
      </trkpt>
      <trkpt lat="59.277146961539984" lon="13.074405966326594">
        <ele>63.18</ele>
        <time>2025-02-03T00:38:35.366Z</time>
      </trkpt>
      <trkpt lat="59.27708996459842" lon="13.074404960498214">
        <ele>63.33</ele>
        <time>2025-02-03T00:38:41.357Z</time>
      </trkpt>
      <trkpt lat="59.27703095600009" lon="13.07439892552793">
        <ele>63.48</ele>
        <time>2025-02-03T00:38:47.349Z</time>
      </trkpt>
      <trkpt lat="59.27697094157338" lon="13.074387945234776">
        <ele>63.63</ele>
        <time>2025-02-03T00:38:53.342Z</time>
      </trkpt>
      <trkpt lat="59.276908999308944" lon="13.07437595911324">
        <ele>63.77</ele>
        <time>2025-02-03T00:38:59.336Z</time>
      </trkpt>
      <trkpt lat="59.27684496156871" lon="13.074362967163324">
        <ele>63.92</ele>
        <time>2025-02-03T00:39:05.331Z</time>
      </trkpt>
      <trkpt lat="59.27677799016237" lon="13.074345951899886">
        <ele>64.06</ele>
        <time>2025-02-03T00:39:11.327Z</time>
      </trkpt>
      <trkpt lat="59.27670892328024" lon="13.074324997141957">
        <ele>64.21</ele>
        <time>2025-02-03T00:39:17.325Z</time>
      </trkpt>
      <trkpt lat="59.27663994021714" lon="13.074300941079855">
        <ele>64.35</ele>
        <time>2025-02-03T00:39:23.324Z</time>
      </trkpt>
      <trkpt lat="59.276569951325655" lon="13.074273951351643">
        <ele>64.48</ele>
        <time>2025-02-03T00:39:29.324Z</time>
      </trkpt>
      <trkpt lat="59.27649895660579" lon="13.07424595579505">
        <ele>64.62</ele>
        <time>2025-02-03T00:39:35.325Z</time>
      </trkpt>
      <trkpt lat="59.27642796188593" lon="13.074214942753315">
        <ele>64.75</ele>
        <time>2025-02-03T00:39:41.327Z</time>
      </trkpt>
      <trkpt lat="59.276355961337686" lon="13.0741829238832">
        <ele>64.88</ele>
        <time>2025-02-03T00:39:47.330Z</time>
      </trkpt>
      <trkpt lat="59.27628496661782" lon="13.074150988832116">
        <ele>65.0</ele>
        <time>2025-02-03T00:39:53.335Z</time>
      </trkpt>
      <trkpt lat="59.27621497772634" lon="13.074121987447143">
        <ele>65.13</ele>
        <time>2025-02-03T00:39:59.341Z</time>
      </trkpt>
      <trkpt lat="59.27614498883486" lon="13.07409692555666">
        <ele>65.25</ele>
        <time>2025-02-03T00:40:05.348Z</time>
      </trkpt>
      <trkpt lat="59.276074999943376" lon="13.07407395914197">
        <ele>65.37</ele>
        <time>2025-02-03T00:40:11.356Z</time>
      </trkpt>
      <trkpt lat="59.27600492723286" lon="13.07405292056501">
        <ele>65.48</ele>
        <time>2025-02-03T00:40:17.365Z</time>
      </trkpt>
      <trkpt lat="59.27593694999814" lon="13.074036994948983">
        <ele>65.58</ele>
        <time>2025-02-03T00:40:23.375Z</time>
      </trkpt>
      <trkpt lat="59.27587098442018" lon="13.074020985513926">
        <ele>65.68</ele>
        <time>2025-02-03T00:40:29.386Z</time>
      </trkpt>
      <trkpt lat="59.27580493502319" lon="13.074006987735629">
        <ele>65.78</ele>
        <time>2025-02-03T00:40:35.398Z</time>
      </trkpt>
      <trkpt lat="59.27573997527361" lon="13.073992989957333">
        <ele>65.87</ele>
        <time>2025-02-03T00:40:41.411Z</time>
      </trkpt>
      <trkpt lat="59.27567694336176" lon="13.073977986350656">
        <ele>65.96</ele>
        <time>2025-02-03T00:40:47.425Z</time>
      </trkpt>
      <trkpt lat="59.27561399526894" lon="13.07396499440074">
        <ele>66.05</ele>
        <time>2025-02-03T00:40:53.440Z</time>
      </trkpt>
      <trkpt lat="59.27555297501385" lon="13.073954936116934">
        <ele>66.13</ele>
        <time>2025-02-03T00:40:59.456Z</time>
      </trkpt>
      <trkpt lat="59.27549094893038" lon="13.07394697330892">
        <ele>66.2</ele>
        <time>2025-02-03T00:41:05.473Z</time>
      </trkpt>
      <trkpt lat="59.27542892284691" lon="13.073937920853496">
        <ele>66.27</ele>
        <time>2025-02-03T00:41:11.491Z</time>
      </trkpt>
      <trkpt lat="59.275365974754095" lon="13.073927946388721">
        <ele>66.34</ele>
        <time>2025-02-03T00:41:17.510Z</time>
      </trkpt>
      <trkpt lat="59.275302942842245" lon="13.073918977752328">
        <ele>66.41</ele>
        <time>2025-02-03T00:41:23.530Z</time>
      </trkpt>
      <trkpt lat="59.275237983092666" lon="13.073910931125283">
        <ele>66.47</ele>
        <time>2025-02-03T00:41:29.551Z</time>
      </trkpt>
      <trkpt lat="59.27517092786729" lon="13.073905985802412">
        <ele>66.53</ele>
        <time>2025-02-03T00:41:35.574Z</time>
      </trkpt>
      <trkpt lat="59.27510395646095" lon="13.073904979974031">
        <ele>66.58</ele>
        <time>2025-02-03T00:41:41.598Z</time>
      </trkpt>
      <trkpt lat="59.27503799088299" lon="13.07390397414565">
        <ele>66.63</ele>
        <time>2025-02-03T00:41:47.623Z</time>
      </trkpt>
      <trkpt lat="59.27497395314276" lon="13.073893999680877">
        <ele>66.68</ele>
        <time>2025-02-03T00:41:53.649Z</time>
      </trkpt>
      <trkpt lat="59.27491092123091" lon="13.073887964710593">
        <ele>66.72</ele>
        <time>2025-02-03T00:41:59.676Z</time>
      </trkpt>
      <trkpt lat="59.27484696730971" lon="13.073890982195735">
        <ele>66.76</ele>
        <time>2025-02-03T00:42:05.704Z</time>
      </trkpt>
      <trkpt lat="59.274784941226244" lon="13.073894921690226">
        <ele>66.79</ele>
        <time>2025-02-03T00:42:11.733Z</time>
      </trkpt>
      <trkpt lat="59.274722998961806" lon="13.073897939175367">
        <ele>66.82</ele>
        <time>2025-02-03T00:42:17.763Z</time>
      </trkpt>
      <trkpt lat="59.2746629845351" lon="13.073905985802412">
        <ele>66.84</ele>
        <time>2025-02-03T00:42:23.794Z</time>
      </trkpt>
      <trkpt lat="59.27460498176515" lon="13.073910931125283">
        <ele>66.86</ele>
        <time>2025-02-03T00:42:29.826Z</time>
      </trkpt>
      <trkpt lat="59.274547984823585" lon="13.073911936953664">
        <ele>66.88</ele>
        <time>2025-02-03T00:42:35.859Z</time>
      </trkpt>
      <trkpt lat="59.27449299953878" lon="13.073915960267186">
        <ele>66.89</ele>
        <time>2025-02-03T00:42:41.892Z</time>
      </trkpt>
      <trkpt lat="59.27443692460656" lon="13.07392593473196">
        <ele>66.89</ele>
        <time>2025-02-03T00:42:47.926Z</time>
      </trkpt>
      <trkpt lat="59.27438294515014" lon="13.073933981359005">
        <ele>66.89</ele>
        <time>2025-02-03T00:42:53.961Z</time>
      </trkpt>
      <trkpt lat="59.274331983178854" lon="13.073937920853496">
        <ele>66.87</ele>
        <time>2025-02-03T00:42:59.997Z</time>
      </trkpt>
      <trkpt lat="59.27427892573178" lon="13.073942949995399">
        <ele>66.86</ele>
        <time>2025-02-03T00:43:06.034Z</time>
      </trkpt>
      <trkpt lat="59.274225952103734" lon="13.073951918631792">
        <ele>66.84</ele>
        <time>2025-02-03T00:43:12.072Z</time>
      </trkpt>
      <trkpt lat="59.27417398430407" lon="13.07396499440074">
        <ele>66.81</ele>
        <time>2025-02-03T00:43:18.111Z</time>
      </trkpt>
      <trkpt lat="59.274122938513756" lon="13.073977986350656">
        <ele>66.78</ele>
        <time>2025-02-03T00:43:24.150Z</time>
      </trkpt>
      <trkpt lat="59.27407197654247" lon="13.073990978300571">
        <ele>66.74</ele>
        <time>2025-02-03T00:43:30.190Z</time>
      </trkpt>
      <trkpt lat="59.27401992492378" lon="13.074004976078868">
        <ele>66.7</ele>
        <time>2025-02-03T00:43:36.231Z</time>
      </trkpt>
      <trkpt lat="59.273969968780875" lon="13.074015956372023">
        <ele>66.64</ele>
        <time>2025-02-03T00:43:42.273Z</time>
      </trkpt>
      <trkpt lat="59.27392093464732" lon="13.074028948321939">
        <ele>66.58</ele>
        <time>2025-02-03T00:43:48.316Z</time>
      </trkpt>
      <trkpt lat="59.2738719843328" lon="13.074042946100235">
        <ele>66.52</ele>
        <time>2025-02-03T00:43:54.359Z</time>
      </trkpt>
      <trkpt lat="59.273819932714105" lon="13.074057949706912">
        <ele>66.45</ele>
        <time>2025-02-03T00:44:00.403Z</time>
      </trkpt>
      <trkpt lat="59.27376695908606" lon="13.07407395914197">
        <ele>66.38</ele>
        <time>2025-02-03T00:44:06.448Z</time>
      </trkpt>
      <trkpt lat="59.273713985458016" lon="13.074090974405408">
        <ele>66.3</ele>
        <time>2025-02-03T00:44:12.494Z</time>
      </trkpt>
      <trkpt lat="59.27365992218256" lon="13.074108995497227">
        <ele>66.22</ele>
        <time>2025-02-03T00:44:18.541Z</time>
      </trkpt>
      <trkpt lat="59.273603931069374" lon="13.074128944426775">
        <ele>66.13</ele>
        <time>2025-02-03T00:44:24.589Z</time>
      </trkpt>
      <trkpt lat="59.27354492247105" lon="13.074148977175355">
        <ele>66.03</ele>
        <time>2025-02-03T00:44:30.638Z</time>
      </trkpt>
      <trkpt lat="59.27348398603499" lon="13.074168926104903">
        <ele>65.93</ele>
        <time>2025-02-03T00:44:36.688Z</time>
      </trkpt>
      <trkpt lat="59.27342195995152" lon="13.074188958853483">
        <ele>65.82</ele>
        <time>2025-02-03T00:44:42.739Z</time>
      </trkpt>
      <trkpt lat="59.27336194552481" lon="13.07420496828854">
        <ele>65.7</ele>
        <time>2025-02-03T00:44:48.791Z</time>
      </trkpt>
      <trkpt lat="59.27329991944134" lon="13.074220977723598">
        <ele>65.59</ele>
        <time>2025-02-03T00:44:54.844Z</time>
      </trkpt>
      <trkpt lat="59.27323495969176" lon="13.074233969673514">
        <ele>65.46</ele>
        <time>2025-02-03T00:45:00.898Z</time>
      </trkpt>
      <trkpt lat="59.2731689941138" lon="13.074241932481527">
        <ele>65.33</ele>
        <time>2025-02-03T00:45:06.953Z</time>
      </trkpt>
      <trkpt lat="59.27310193888843" lon="13.074249979108572">
        <ele>65.2</ele>
        <time>2025-02-03T00:45:13.009Z</time>
      </trkpt>
      <trkpt lat="59.27303295582533" lon="13.074250984936953">
        <ele>65.06</ele>
        <time>2025-02-03T00:45:19.066Z</time>
      </trkpt>
      <trkpt lat="59.27296397276223" lon="13.07424696162343">
        <ele>64.92</ele>
        <time>2025-02-03T00:45:25.124Z</time>
      </trkpt>
      <trkpt lat="59.272895995527506" lon="13.074237992987037">
        <ele>64.77</ele>
        <time>2025-02-03T00:45:31.183Z</time>
      </trkpt>
      <trkpt lat="59.27282692864537" lon="13.074228940531611">
        <ele>64.62</ele>
        <time>2025-02-03T00:45:37.243Z</time>
      </trkpt>
      <trkpt lat="59.27275693975389" lon="13.074211925268173">
        <ele>64.47</ele>
        <time>2025-02-03T00:45:43.304Z</time>
      </trkpt>
      <trkpt lat="59.27268594503403" lon="13.074185941368341">
        <ele>64.31</ele>
        <time>2025-02-03T00:45:49.367Z</time>
      </trkpt>
      <trkpt lat="59.272613944485784" lon="13.074155934154987">
        <ele>64.15</ele>
        <time>2025-02-03T00:45:55.431Z</time>
      </trkpt>
      <trkpt lat="59.27254093810916" lon="13.074121987447143">
        <ele>63.98</ele>
        <time>2025-02-03T00:46:01.496Z</time>
      </trkpt>
      <trkpt lat="59.272464998066425" lon="13.074092986062169">
        <ele>63.81</ele>
        <time>2025-02-03T00:46:07.562Z</time>
      </trkpt>
      <trkpt lat="59.27238897420466" lon="13.074062978848815">
        <ele>63.63</ele>
        <time>2025-02-03T00:46:13.629Z</time>
      </trkpt>
      <trkpt lat="59.27230993285775" lon="13.07403297163546">
        <ele>63.45</ele>
        <time>2025-02-03T00:46:19.698Z</time>
      </trkpt>
      <trkpt lat="59.272230975329876" lon="13.074000952765346">
        <ele>63.27</ele>
        <time>2025-02-03T00:46:25.768Z</time>
      </trkpt>
      <trkpt lat="59.27215092815459" lon="13.073970945551991">
        <ele>63.08</ele>
        <time>2025-02-03T00:46:31.839Z</time>
      </trkpt>
      <trkpt lat="59.27206995896995" lon="13.073940938338637">
        <ele>62.89</ele>
        <time>2025-02-03T00:46:37.912Z</time>
      </trkpt>
      <trkpt lat="59.271988989785314" lon="13.073907997459173">
        <ele>62.69</ele>
        <time>2025-02-03T00:46:43.986Z</time>
      </trkpt>
      <trkpt lat="59.271907936781645" lon="13.073874972760677">
        <ele>62.49</ele>
        <time>2025-02-03T00:46:50.061Z</time>
      </trkpt>
      <trkpt lat="59.27182696759701" lon="13.073842953890562">
        <ele>62.28</ele>
        <time>2025-02-03T00:46:56.138Z</time>
      </trkpt>
      <trkpt lat="59.27174298092723" lon="13.073812946677208">
        <ele>62.07</ele>
        <time>2025-02-03T00:47:02.216Z</time>
      </trkpt>
      <trkpt lat="59.27165698260069" lon="13.073784951120615">
        <ele>61.86</ele>
        <time>2025-02-03T00:47:08.295Z</time>
      </trkpt>
      <trkpt lat="59.27156997844577" lon="13.073755949735641">
        <ele>61.64</ele>
        <time>2025-02-03T00:47:14.376Z</time>
      </trkpt>
      <trkpt lat="59.27148096263409" lon="13.07372896000743">
        <ele>61.41</ele>
        <time>2025-02-03T00:47:20.458Z</time>
      </trkpt>
      <trkpt lat="59.271389935165644" lon="13.073705993592739">
        <ele>61.19</ele>
        <time>2025-02-03T00:47:26.542Z</time>
      </trkpt>
      <trkpt lat="59.27129697985947" lon="13.073683949187398">
        <ele>60.96</ele>
        <time>2025-02-03T00:47:32.627Z</time>
      </trkpt>
      <trkpt lat="59.27120293490589" lon="13.073663916438818">
        <ele>60.73</ele>
        <time>2025-02-03T00:47:38.714Z</time>
      </trkpt>
      <trkpt lat="59.27110696211457" lon="13.07364597916603">
        <ele>60.5</ele>
        <time>2025-02-03T00:47:44.802Z</time>
      </trkpt>
      <trkpt lat="59.2710089776665" lon="13.073631981387734">
        <ele>60.27</ele>
        <time>2025-02-03T00:47:50.892Z</time>
      </trkpt>
      <trkpt lat="59.27090898156166" lon="13.073618989437819">
        <ele>60.03</ele>
        <time>2025-02-03T00:47:56.984Z</time>
      </trkpt>
      <trkpt lat="59.27080596797168" lon="13.073606919497252">
        <ele>59.79</ele>
        <time>2025-02-03T00:48:03.077Z</time>
      </trkpt>
      <trkpt lat="59.27070094272494" lon="13.073600968346">
        <ele>59.56</ele>
        <time>2025-02-03T00:48:09.172Z</time>
      </trkpt>
      <trkpt lat="59.270595917478204" lon="13.073594933375716">
        <ele>59.33</ele>
        <time>2025-02-03T00:48:15.269Z</time>
      </trkpt>
      <trkpt lat="59.270488964393735" lon="13.073589988052845">
        <ele>59.09</ele>
        <time>2025-02-03T00:48:21.367Z</time>
      </trkpt>
      <trkpt lat="59.270380921661854" lon="13.073586970567703">
        <ele>58.85</ele>
        <time>2025-02-03T00:48:27.467Z</time>
      </trkpt>
      <trkpt lat="59.27027095109224" lon="13.07357992976904">
        <ele>58.62</ele>
        <time>2025-02-03T00:48:33.569Z</time>
      </trkpt>
      <trkpt lat="59.27016198635101" lon="13.073572972789407">
        <ele>58.38</ele>
        <time>2025-02-03T00:48:39.673Z</time>
      </trkpt>
      <trkpt lat="59.27005092613399" lon="13.073568949475884">
        <ele>58.15</ele>
        <time>2025-02-03T00:48:45.778Z</time>
      </trkpt>
      <trkpt lat="59.26994095556438" lon="13.073563920333982">
        <ele>57.91</ele>
        <time>2025-02-03T00:48:51.885Z</time>
      </trkpt>
      <trkpt lat="59.26982997916639" lon="13.07355897501111">
        <ele>57.68</ele>
        <time>2025-02-03T00:48:57.994Z</time>
      </trkpt>
      <trkpt lat="59.26971799694002" lon="13.073553945869207">
        <ele>57.45</ele>
        <time>2025-02-03T00:49:04.105Z</time>
      </trkpt>
      <trkpt lat="59.26960593089461" lon="13.073548916727304">
        <ele>57.22</ele>
        <time>2025-02-03T00:49:10.217Z</time>
      </trkpt>
      <trkpt lat="59.26949394866824" lon="13.073544977232814">
        <ele>56.98</ele>
        <time>2025-02-03T00:49:16.331Z</time>
      </trkpt>
      <trkpt lat="59.26937894895673" lon="13.073541959747672">
        <ele>56.75</ele>
        <time>2025-02-03T00:49:22.447Z</time>
      </trkpt>
      <trkpt lat="59.269266966730356" lon="13.073541959747672">
        <ele>56.51</ele>
        <time>2025-02-03T00:49:28.565Z</time>
      </trkpt>
      <trkpt lat="59.26915297284722" lon="13.073540953919291">
        <ele>56.27</ele>
        <time>2025-02-03T00:49:34.685Z</time>
      </trkpt>
      <trkpt lat="59.26903797313571" lon="13.073545983061194">
        <ele>56.03</ele>
        <time>2025-02-03T00:49:40.807Z</time>
      </trkpt>
      <trkpt lat="59.268922973424196" lon="13.073560986667871">
        <ele>55.8</ele>
        <time>2025-02-03T00:49:46.930Z</time>
      </trkpt>
      <trkpt lat="59.268809985369444" lon="13.073585964739323">
        <ele>55.57</ele>
        <time>2025-02-03T00:49:53.055Z</time>
      </trkpt>
      <trkpt lat="59.26870294846594" lon="13.073625946417451">
        <ele>55.34</ele>
        <time>2025-02-03T00:49:59.182Z</time>
      </trkpt>
      <trkpt lat="59.26859691739082" lon="13.073678920045495">
        <ele>55.11</ele>
        <time>2025-02-03T00:50:05.311Z</time>
      </trkpt>
      <trkpt lat="59.268492981791496" lon="13.073743963614106">
        <ele>54.88</ele>
        <time>2025-02-03T00:50:11.441Z</time>
      </trkpt>
      <trkpt lat="59.2683909740299" lon="13.073812946677208">
        <ele>54.67</ele>
        <time>2025-02-03T00:50:17.573Z</time>
      </trkpt>
      <trkpt lat="59.26828796043992" lon="13.07388293556869">
        <ele>54.45</ele>
        <time>2025-02-03T00:50:23.707Z</time>
      </trkpt>
      <trkpt lat="59.2681869585067" lon="13.073953930288553">
        <ele>54.24</ele>
        <time>2025-02-03T00:50:29.843Z</time>
      </trkpt>
      <trkpt lat="59.268084950745106" lon="13.074021991342306">
        <ele>54.04</ele>
        <time>2025-02-03T00:50:35.980Z</time>
      </trkpt>
      <trkpt lat="59.26798394881189" lon="13.074082927778363">
        <ele>53.83</ele>
        <time>2025-02-03T00:50:42.119Z</time>
      </trkpt>
      <trkpt lat="59.26788194105029" lon="13.0741379968822">
        <ele>53.64</ele>
        <time>2025-02-03T00:50:48.260Z</time>
      </trkpt>
      <trkpt lat="59.26777699962258" lon="13.0741829238832">
        <ele>53.44</ele>
        <time>2025-02-03T00:50:54.403Z</time>
      </trkpt>
      <trkpt lat="59.267672980204225" lon="13.074209997430444">
        <ele>53.24</ele>
        <time>2025-02-03T00:51:00.547Z</time>
      </trkpt>
      <trkpt lat="59.267569966614246" lon="13.074214942753315">
        <ele>53.04</ele>
        <time>2025-02-03T00:51:06.693Z</time>
      </trkpt>
      <trkpt lat="59.26746795885265" lon="13.074206979945302">
        <ele>52.85</ele>
        <time>2025-02-03T00:51:12.841Z</time>
      </trkpt>
      <trkpt lat="59.26736695691943" lon="13.074189964681864">
        <ele>52.67</ele>
        <time>2025-02-03T00:51:18.990Z</time>
      </trkpt>
      <trkpt lat="59.267266960814595" lon="13.074165992438793">
        <ele>52.49</ele>
        <time>2025-02-03T00:51:25.141Z</time>
      </trkpt>
      <trkpt lat="59.2671699821949" lon="13.074135985225439">
        <ele>52.32</ele>
        <time>2025-02-03T00:51:31.293Z</time>
      </trkpt>
      <trkpt lat="59.267074931412935" lon="13.074106983840466">
        <ele>52.16</ele>
        <time>2025-02-03T00:51:37.447Z</time>
      </trkpt>
      <trkpt lat="59.26698197610676" lon="13.074071947485209">
        <ele>52.0</ele>
        <time>2025-02-03T00:51:43.602Z</time>
      </trkpt>
      <trkpt lat="59.26689094863832" lon="13.074037916958332">
        <ele>51.84</ele>
        <time>2025-02-03T00:51:49.759Z</time>
      </trkpt>
      <trkpt lat="59.26679992116988" lon="13.074005981907248">
        <ele>51.67</ele>
        <time>2025-02-03T00:51:55.917Z</time>
      </trkpt>
      <trkpt lat="59.26671098917723" lon="13.073972957208753">
        <ele>51.51</ele>
        <time>2025-02-03T00:52:02.077Z</time>
      </trkpt>
      <trkpt lat="59.266620967537165" lon="13.073940938338637">
        <ele>51.34</ele>
        <time>2025-02-03T00:52:08.238Z</time>
      </trkpt>
      <trkpt lat="59.2665309458971" lon="13.073910931125283">
        <ele>51.21</ele>
        <time>2025-02-03T00:52:14.401Z</time>
      </trkpt>
      <trkpt lat="59.26644092425704" lon="13.07388293556869">
        <ele>51.09</ele>
        <time>2025-02-03T00:52:20.565Z</time>
      </trkpt>
      <trkpt lat="59.26635299809277" lon="13.073853934183717">
        <ele>50.97</ele>
        <time>2025-02-03T00:52:26.731Z</time>
      </trkpt>
      <trkpt lat="59.26626599393785" lon="13.073825938627124">
        <ele>50.86</ele>
        <time>2025-02-03T00:52:32.898Z</time>
      </trkpt>
      <trkpt lat="59.26617898978293" lon="13.073801966384053">
        <ele>50.76</ele>
        <time>2025-02-03T00:52:39.066Z</time>
      </trkpt>
      <trkpt lat="59.26608896814287" lon="13.073793919757009">
        <ele>50.66</ele>
        <time>2025-02-03T00:52:45.236Z</time>
      </trkpt>
      <trkpt lat="59.265997940674424" lon="13.073803978040814">
        <ele>50.6</ele>
        <time>2025-02-03T00:52:51.407Z</time>
      </trkpt>
      <trkpt lat="59.26590993069112" lon="13.073832979425788">
        <ele>50.55</ele>
        <time>2025-02-03T00:52:57.580Z</time>
      </trkpt>
      <trkpt lat="59.2658229265362" lon="13.073876984417439">
        <ele>50.49</ele>
        <time>2025-02-03T00:53:03.754Z</time>
      </trkpt>
      <trkpt lat="59.265738939866424" lon="13.073933981359005">
        <ele>50.4</ele>
        <time>2025-02-03T00:53:09.930Z</time>
      </trkpt>
      <trkpt lat="59.265655959025025" lon="13.074000952765346">
        <ele>50.34</ele>
        <time>2025-02-03T00:53:16.107Z</time>
      </trkpt>
      <trkpt lat="59.26557498984039" lon="13.07407496497035">
        <ele>50.32</ele>
        <time>2025-02-03T00:53:22.286Z</time>
      </trkpt>
      <trkpt lat="59.26549695432186" lon="13.074151994660497">
        <ele>50.29</ele>
        <time>2025-02-03T00:53:28.466Z</time>
      </trkpt>
      <trkpt lat="59.265419924631715" lon="13.074232963845134">
        <ele>50.26</ele>
        <time>2025-02-03T00:53:34.647Z</time>
      </trkpt>
      <trkpt lat="59.26534398458898" lon="13.074315944686532">
        <ele>50.21</ele>
        <time>2025-02-03T00:53:40.830Z</time>
      </trkpt>
      <trkpt lat="59.265267960727215" lon="13.07439892552793">
        <ele>50.17</ele>
        <time>2025-02-03T00:53:47.014Z</time>
      </trkpt>
      <trkpt lat="59.26519294269383" lon="13.07448199018836">
        <ele>50.15</ele>
        <time>2025-02-03T00:53:53.200Z</time>
      </trkpt>
      <trkpt lat="59.265119936317205" lon="13.074565976858139">
        <ele>50.14</ele>
        <time>2025-02-03T00:53:59.387Z</time>
      </trkpt>
      <trkpt lat="59.26504994742572" lon="13.074655998498201">
        <ele>50.13</ele>
        <time>2025-02-03T00:54:05.575Z</time>
      </trkpt>
      <trkpt lat="59.264981970191" lon="13.074753982946277">
        <ele>50.12</ele>
        <time>2025-02-03T00:54:11.765Z</time>
      </trkpt>
      <trkpt lat="59.26491793245077" lon="13.074858924373984">
        <ele>50.12</ele>
        <time>2025-02-03T00:54:17.956Z</time>
      </trkpt>
      <trkpt lat="59.264856996014714" lon="13.074971996247768">
        <ele>50.13</ele>
        <time>2025-02-03T00:54:24.148Z</time>
      </trkpt>
      <trkpt lat="59.2648009210825" lon="13.075091941282153">
        <ele>50.16</ele>
        <time>2025-02-03T00:54:30.342Z</time>
      </trkpt>
      <trkpt lat="59.264751970767975" lon="13.075216999277472">
        <ele>50.18</ele>
        <time>2025-02-03T00:54:36.537Z</time>
      </trkpt>
      <trkpt lat="59.264707965776324" lon="13.075346918776631">
        <ele>50.21</ele>
        <time>2025-02-03T00:54:42.733Z</time>
      </trkpt>
      <trkpt lat="59.26466999575496" lon="13.075481951236725">
        <ele>50.25</ele>
        <time>2025-02-03T00:54:48.930Z</time>
      </trkpt>
      <trkpt lat="59.26463797688484" lon="13.07562293484807">
        <ele>50.3</ele>
        <time>2025-02-03T00:54:55.129Z</time>
      </trkpt>
      <trkpt lat="59.26460897549987" lon="13.075765930116177">
        <ele>50.36</ele>
        <time>2025-02-03T00:55:01.329Z</time>
      </trkpt>
      <trkpt lat="59.264584919437766" lon="13.075911942869425">
        <ele>50.42</ele>
        <time>2025-02-03T00:55:07.530Z</time>
      </trkpt>
      <trkpt lat="59.26456396467984" lon="13.076055943965912">
        <ele>50.49</ele>
        <time>2025-02-03T00:55:13.732Z</time>
      </trkpt>
      <trkpt lat="59.26454493775964" lon="13.076195921748877">
        <ele>50.56</ele>
        <time>2025-02-03T00:55:19.936Z</time>
      </trkpt>
      <trkpt lat="59.26452691666782" lon="13.076332965865731">
        <ele>50.64</ele>
        <time>2025-02-03T00:55:26.141Z</time>
      </trkpt>
      <trkpt lat="59.26451099105179" lon="13.076469926163554">
        <ele>50.73</ele>
        <time>2025-02-03T00:55:32.347Z</time>
      </trkpt>
      <trkpt lat="59.264493975788355" lon="13.076606970280409">
        <ele>50.82</ele>
        <time>2025-02-03T00:55:38.554Z</time>
      </trkpt>
      <trkpt lat="59.264475954696536" lon="13.076740996912122">
        <ele>50.91</ele>
        <time>2025-02-03T00:55:44.762Z</time>
      </trkpt>
      <trkpt lat="59.26445692777634" lon="13.076872928068042">
        <ele>51.01</ele>
        <time>2025-02-03T00:55:50.971Z</time>
      </trkpt>
      <trkpt lat="59.26443798467517" lon="13.076999997720122">
        <ele>51.12</ele>
        <time>2025-02-03T00:55:57.181Z</time>
      </trkpt>
      <trkpt lat="59.26441493444145" lon="13.07712396606803">
        <ele>51.23</ele>
        <time>2025-02-03T00:56:03.393Z</time>
      </trkpt>
      <trkpt lat="59.264387944713235" lon="13.077243994921446">
        <ele>51.35</ele>
        <time>2025-02-03T00:56:09.606Z</time>
      </trkpt>
      <trkpt lat="59.26435894332826" lon="13.07735899463296">
        <ele>51.47</ele>
        <time>2025-02-03T00:56:15.820Z</time>
      </trkpt>
      <trkpt lat="59.264326924458146" lon="13.07746896520257">
        <ele>51.6</ele>
        <time>2025-02-03T00:56:22.035Z</time>
      </trkpt>
      <trkpt lat="59.26429197192192" lon="13.077570972964168">
        <ele>51.74</ele>
        <time>2025-02-03T00:56:28.251Z</time>
      </trkpt>
      <trkpt lat="59.264257941395044" lon="13.07766099460423">
        <ele>51.88</ele>
        <time>2025-02-03T00:56:34.468Z</time>
      </trkpt>
      <trkpt lat="59.26422298885882" lon="13.077741963788867">
        <ele>52.03</ele>
        <time>2025-02-03T00:56:40.686Z</time>
      </trkpt>
      <trkpt lat="59.26418493501842" lon="13.077815975993872">
        <ele>52.18</ele>
        <time>2025-02-03T00:56:46.904Z</time>
      </trkpt>
      <trkpt lat="59.26414495334029" lon="13.077880935743451">
        <ele>52.35</ele>
        <time>2025-02-03T00:56:53.123Z</time>
      </trkpt>
      <trkpt lat="59.2641029600054" lon="13.077936926856637">
        <ele>52.52</ele>
        <time>2025-02-03T00:56:59.343Z</time>
      </trkpt>
      <trkpt lat="59.26405996084213" lon="13.07798596099019">
        <ele>52.69</ele>
        <time>2025-02-03T00:57:05.564Z</time>
      </trkpt>
      <trkpt lat="59.26401595585048" lon="13.078030971810222">
        <ele>52.87</ele>
        <time>2025-02-03T00:57:11.786Z</time>
      </trkpt>
      <trkpt lat="59.26397295668721" lon="13.07806994765997">
        <ele>53.05</ele>
        <time>2025-02-03T00:57:18.008Z</time>
      </trkpt>
      <trkpt lat="59.26392995752394" lon="13.078103978186846">
        <ele>53.23</ele>
        <time>2025-02-03T00:57:24.231Z</time>
      </trkpt>
      <trkpt lat="59.26388595253229" lon="13.07813691906631">
        <ele>53.42</ele>
        <time>2025-02-03T00:57:30.455Z</time>
      </trkpt>
      <trkpt lat="59.26383993588388" lon="13.078165920451283">
        <ele>53.62</ele>
        <time>2025-02-03T00:57:36.680Z</time>
      </trkpt>
      <trkpt lat="59.26379391923547" lon="13.078194921836257">
        <ele>53.82</ele>
        <time>2025-02-03T00:57:42.905Z</time>
      </trkpt>
      <trkpt lat="59.26374798640609" lon="13.07822392322123">
        <ele>54.03</ele>
        <time>2025-02-03T00:57:49.131Z</time>
      </trkpt>
      <trkpt lat="59.2637059930712" lon="13.078251918777823">
        <ele>54.24</ele>
        <time>2025-02-03T00:57:55.358Z</time>
      </trkpt>
      <trkpt lat="59.26366492174566" lon="13.078278992325068">
        <ele>54.46</ele>
        <time>2025-02-03T00:58:01.586Z</time>
      </trkpt>
      <trkpt lat="59.26362292841077" lon="13.078303970396519">
        <ele>54.68</ele>
        <time>2025-02-03T00:58:07.814Z</time>
      </trkpt>
      <trkpt lat="59.26358194090426" lon="13.078324925154448">
        <ele>54.9</ele>
        <time>2025-02-03T00:58:14.043Z</time>
      </trkpt>
      <trkpt lat="59.26353894174099" lon="13.078346969559789">
        <ele>55.12</ele>
        <time>2025-02-03T00:58:20.273Z</time>
      </trkpt>
      <trkpt lat="59.2634969484061" lon="13.07837094180286">
        <ele>55.35</ele>
        <time>2025-02-03T00:58:26.503Z</time>
      </trkpt>
      <trkpt lat="59.26345596089959" lon="13.07839591987431">
        <ele>55.58</ele>
        <time>2025-02-03T00:58:32.734Z</time>
      </trkpt>
      <trkpt lat="59.26341597922146" lon="13.078417964279652">
        <ele>55.82</ele>
        <time>2025-02-03T00:58:38.966Z</time>
      </trkpt>
      <trkpt lat="59.263376919552684" lon="13.07843891903758">
        <ele>56.06</ele>
        <time>2025-02-03T00:58:45.198Z</time>
      </trkpt>
      <trkpt lat="59.263336937874556" lon="13.07845895178616">
        <ele>56.31</ele>
        <time>2025-02-03T00:58:51.431Z</time>
      </trkpt>
      <trkpt lat="59.26329595036805" lon="13.07847697287798">
        <ele>56.56</ele>
        <time>2025-02-03T00:58:57.665Z</time>
      </trkpt>
      <trkpt lat="59.26325496286154" lon="13.078494993969798">
        <ele>56.81</ele>
        <time>2025-02-03T00:59:03.899Z</time>
      </trkpt>
      <trkpt lat="59.26321498118341" lon="13.078513937070966">
        <ele>57.07</ele>
        <time>2025-02-03T00:59:10.134Z</time>
      </trkpt>
      <trkpt lat="59.26317499950528" lon="13.078530952334404">
        <ele>57.33</ele>
        <time>2025-02-03T00:59:16.370Z</time>
      </trkpt>
      <trkpt lat="59.2631359398365" lon="13.078546961769462">
        <ele>57.59</ele>
        <time>2025-02-03T00:59:22.606Z</time>
      </trkpt>
      <trkpt lat="59.263096963986754" lon="13.078561965376139">
        <ele>57.86</ele>
        <time>2025-02-03T00:59:28.843Z</time>
      </trkpt>
      <trkpt lat="59.263056982308626" lon="13.078575963154435">
        <ele>58.12</ele>
        <time>2025-02-03T00:59:35.081Z</time>
      </trkpt>
      <trkpt lat="59.26301792263985" lon="13.07858694344759">
        <ele>58.4</ele>
        <time>2025-02-03T00:59:41.319Z</time>
      </trkpt>
      <trkpt lat="59.26297794096172" lon="13.078596917912364">
        <ele>58.67</ele>
        <time>2025-02-03T00:59:47.558Z</time>
      </trkpt>
      <trkpt lat="59.26293695345521" lon="13.07860597036779">
        <ele>58.94</ele>
        <time>2025-02-03T00:59:53.798Z</time>
      </trkpt>
      <trkpt lat="59.2628959659487" lon="13.078616950660944">
        <ele>59.22</ele>
        <time>2025-02-03T01:00:00.038Z</time>
      </trkpt>
      <trkpt lat="59.26285497844219" lon="13.078626925125718">
        <ele>59.5</ele>
        <time>2025-02-03T01:00:06.279Z</time>
      </trkpt>
      <trkpt lat="59.26281591877341" lon="13.078637989237905">
        <ele>59.78</ele>
        <time>2025-02-03T01:00:12.521Z</time>
      </trkpt>
      <trkpt lat="59.262776942923665" lon="13.078645952045918">
        <ele>60.06</ele>
        <time>2025-02-03T01:00:18.763Z</time>
      </trkpt>
      <trkpt lat="59.26273796707392" lon="13.07865098118782">
        <ele>60.35</ele>
        <time>2025-02-03T01:00:25.006Z</time>
      </trkpt>
      <trkpt lat="59.26269798539579" lon="13.078655926510692">
        <ele>60.64</ele>
        <time>2025-02-03T01:00:31.249Z</time>
      </trkpt>
      <trkpt lat="59.26265892572701" lon="13.078659949824214">
        <ele>60.92</ele>
        <time>2025-02-03T01:00:37.493Z</time>
      </trkpt>
      <trkpt lat="59.26261894404888" lon="13.078664978966117">
        <ele>61.21</ele>
        <time>2025-02-03T01:00:43.738Z</time>
      </trkpt>
      <trkpt lat="59.26257896237075" lon="13.078666990622878">
        <ele>61.51</ele>
        <time>2025-02-03T01:00:49.983Z</time>
      </trkpt>
      <trkpt lat="59.262538980692625" lon="13.078670930117369">
        <ele>61.8</ele>
        <time>2025-02-03T01:00:56.229Z</time>
      </trkpt>
      <trkpt lat="59.2624989990145" lon="13.078676965087652">
        <ele>62.1</ele>
        <time>2025-02-03T01:01:02.476Z</time>
      </trkpt>
      <trkpt lat="59.26245893351734" lon="13.078679982572794">
        <ele>62.39</ele>
        <time>2025-02-03T01:01:08.723Z</time>
      </trkpt>
      <trkpt lat="59.26241694018245" lon="13.078681994229555">
        <ele>62.69</ele>
        <time>2025-02-03T01:01:14.971Z</time>
      </trkpt>
      <trkpt lat="59.26237695850432" lon="13.078680988401175">
        <ele>62.99</ele>
        <time>2025-02-03T01:01:21.220Z</time>
      </trkpt>
      <trkpt lat="59.26233496516943" lon="13.078678976744413">
        <ele>63.29</ele>
        <time>2025-02-03T01:01:27.469Z</time>
      </trkpt>
      <trkpt lat="59.26229196600616" lon="13.078678976744413">
        <ele>63.59</ele>
        <time>2025-02-03T01:01:33.719Z</time>
      </trkpt>
      <trkpt lat="59.26224796101451" lon="13.078679982572794">
        <ele>63.89</ele>
        <time>2025-02-03T01:01:39.970Z</time>
      </trkpt>
      <trkpt lat="59.26220496185124" lon="13.078680988401175">
        <ele>64.19</ele>
        <time>2025-02-03T01:01:46.221Z</time>
      </trkpt>
      <trkpt lat="59.26216296851635" lon="13.078683922067285">
        <ele>64.49</ele>
        <time>2025-02-03T01:01:52.473Z</time>
      </trkpt>
      <trkpt lat="59.2621189635247" lon="13.078687945380807">
        <ele>64.79</ele>
        <time>2025-02-03T01:01:58.726Z</time>
      </trkpt>
      <trkpt lat="59.26207495853305" lon="13.078690962865949">
        <ele>65.1</ele>
        <time>2025-02-03T01:02:04.979Z</time>
      </trkpt>
      <trkpt lat="59.26203195936978" lon="13.07869196869433">
        <ele>65.4</ele>
        <time>2025-02-03T01:02:11.233Z</time>
      </trkpt>
      <trkpt lat="59.26198996603489" lon="13.078689957037568">
        <ele>65.7</ele>
        <time>2025-02-03T01:02:17.488Z</time>
      </trkpt>
      <trkpt lat="59.2619479727" lon="13.078688951209188">
        <ele>66.0</ele>
        <time>2025-02-03T01:02:23.744Z</time>
      </trkpt>
      <trkpt lat="59.26190597936511" lon="13.078685933724046">
        <ele>66.29</ele>
        <time>2025-02-03T01:02:30.000Z</time>
      </trkpt>
      <trkpt lat="59.26186398603022" lon="13.078682916238904">
        <ele>66.59</ele>
        <time>2025-02-03T01:02:36.257Z</time>
      </trkpt>
      <trkpt lat="59.26182098686695" lon="13.078680988401175">
        <ele>66.89</ele>
        <time>2025-02-03T01:02:42.515Z</time>
      </trkpt>
      <trkpt lat="59.2617769818753" lon="13.078677970916033">
        <ele>67.19</ele>
        <time>2025-02-03T01:02:48.773Z</time>
      </trkpt>
      <trkpt lat="59.26173197105527" lon="13.078678976744413">
        <ele>67.48</ele>
        <time>2025-02-03T01:02:55.032Z</time>
      </trkpt>
      <trkpt lat="59.26168696023524" lon="13.078678976744413">
        <ele>67.78</ele>
        <time>2025-02-03T01:03:01.292Z</time>
      </trkpt>
      <trkpt lat="59.261640943586826" lon="13.078680988401175">
        <ele>68.08</ele>
        <time>2025-02-03T01:03:07.552Z</time>
      </trkpt>
      <trkpt lat="59.261595932766795" lon="13.078680988401175">
        <ele>68.37</ele>
        <time>2025-02-03T01:03:13.813Z</time>
      </trkpt>
      <trkpt lat="59.261550921946764" lon="13.078678976744413">
        <ele>68.66</ele>
        <time>2025-02-03T01:03:20.075Z</time>
      </trkpt>
      <trkpt lat="59.261504989117384" lon="13.078677970916033">
        <ele>68.96</ele>
        <time>2025-02-03T01:03:26.338Z</time>
      </trkpt>
      <trkpt lat="59.26145796664059" lon="13.078677970916033">
        <ele>69.25</ele>
        <time>2025-02-03T01:03:32.601Z</time>
      </trkpt>
      <trkpt lat="59.26141194999218" lon="13.078675959259272">
        <ele>69.54</ele>
        <time>2025-02-03T01:03:38.865Z</time>
      </trkpt>
      <trkpt lat="59.26136492751539" lon="13.078676965087652">
        <ele>69.82</ele>
        <time>2025-02-03T01:03:45.130Z</time>
      </trkpt>
      <trkpt lat="59.261316983029246" lon="13.078676965087652">
        <ele>70.11</ele>
        <time>2025-02-03T01:03:51.396Z</time>
      </trkpt>
      <trkpt lat="59.26126895472407" lon="13.078674953430891">
        <ele>70.4</ele>
        <time>2025-02-03T01:03:57.662Z</time>
      </trkpt>
      <trkpt lat="59.26122193224728" lon="13.07867394760251">
        <ele>70.68</ele>
        <time>2025-02-03T01:04:03.929Z</time>
      </trkpt>
      <trkpt lat="59.26117398776114" lon="13.07867193594575">
        <ele>70.96</ele>
        <time>2025-02-03T01:04:10.197Z</time>
      </trkpt>
      <trkpt lat="59.261123947799206" lon="13.078669924288988">
        <ele>71.24</ele>
        <time>2025-02-03T01:04:16.466Z</time>
      </trkpt>
      <trkpt lat="59.26107298582792" lon="13.078670930117369">
        <ele>71.53</ele>
        <time>2025-02-03T01:04:22.736Z</time>
      </trkpt>
      <trkpt lat="59.26102194003761" lon="13.078670930117369">
        <ele>71.81</ele>
        <time>2025-02-03T01:04:29.006Z</time>
      </trkpt>
      <trkpt lat="59.260971983894706" lon="13.078669924288988">
        <ele>72.09</ele>
        <time>2025-02-03T01:04:35.277Z</time>
      </trkpt>
      <trkpt lat="59.26092194393277" lon="13.078668918460608">
        <ele>72.36</ele>
        <time>2025-02-03T01:04:41.549Z</time>
      </trkpt>
      <trkpt lat="59.26087198778987" lon="13.078668918460608">
        <ele>72.64</ele>
        <time>2025-02-03T01:04:47.822Z</time>
      </trkpt>
      <trkpt lat="59.260821947827935" lon="13.078667996451259">
        <ele>72.91</ele>
        <time>2025-02-03T01:04:54.096Z</time>
      </trkpt>
      <trkpt lat="59.26077199168503" lon="13.078669924288988">
        <ele>73.19</ele>
        <time>2025-02-03T01:05:00.370Z</time>
      </trkpt>
      <trkpt lat="59.26072094589472" lon="13.07867193594575">
        <ele>73.46</ele>
        <time>2025-02-03T01:05:06.645Z</time>
      </trkpt>
      <trkpt lat="59.260670989751816" lon="13.07867193594575">
        <ele>73.74</ele>
        <time>2025-02-03T01:05:12.921Z</time>
      </trkpt>
      <trkpt lat="59.26061893813312" lon="13.078670930117369">
        <ele>74.01</ele>
        <time>2025-02-03T01:05:19.198Z</time>
      </trkpt>
      <trkpt lat="59.26056697033346" lon="13.078668918460608">
        <ele>74.28</ele>
        <time>2025-02-03T01:05:25.476Z</time>
      </trkpt>
      <trkpt lat="59.26051491871476" lon="13.078667996451259">
        <ele>74.55</ele>
        <time>2025-02-03T01:05:31.755Z</time>
      </trkpt>
      <trkpt lat="59.26046194508672" lon="13.078668918460608">
        <ele>74.81</ele>
        <time>2025-02-03T01:05:38.034Z</time>
      </trkpt>
      <trkpt lat="59.260409977287054" lon="13.078669924288988">
        <ele>75.08</ele>
        <time>2025-02-03T01:05:44.314Z</time>
      </trkpt>
      <trkpt lat="59.26035691983998" lon="13.078669924288988">
        <ele>75.35</ele>
        <time>2025-02-03T01:05:50.595Z</time>
      </trkpt>
      <trkpt lat="59.260303946211934" lon="13.078670930117369">
        <ele>75.61</ele>
        <time>2025-02-03T01:05:56.877Z</time>
      </trkpt>
      <trkpt lat="59.26025097258389" lon="13.078670930117369">
        <ele>75.87</ele>
        <time>2025-02-03T01:06:03.160Z</time>
      </trkpt>
      <trkpt lat="59.260197998955846" lon="13.07867294177413">
        <ele>76.13</ele>
        <time>2025-02-03T01:06:09.444Z</time>
      </trkpt>
      <trkpt lat="59.26014494150877" lon="13.07867394760251">
        <ele>76.39</ele>
        <time>2025-02-03T01:06:15.728Z</time>
      </trkpt>
      <trkpt lat="59.260092973709106" lon="13.07867294177413">
        <ele>76.64</ele>
        <time>2025-02-03T01:06:22.013Z</time>
      </trkpt>
      <trkpt lat="59.26003991626203" lon="13.07867294177413">
        <ele>76.9</ele>
        <time>2025-02-03T01:06:28.299Z</time>
      </trkpt>
      <trkpt lat="59.25998694263399" lon="13.078674953430891">
        <ele>77.15</ele>
        <time>2025-02-03T01:06:34.586Z</time>
      </trkpt>
      <trkpt lat="59.25993396900594" lon="13.078675959259272">
        <ele>77.41</ele>
        <time>2025-02-03T01:06:40.874Z</time>
      </trkpt>
      <trkpt lat="59.2598809953779" lon="13.078675959259272">
        <ele>77.66</ele>
        <time>2025-02-03T01:06:47.163Z</time>
      </trkpt>
      <trkpt lat="59.25982793793082" lon="13.07867294177413">
        <ele>77.9</ele>
        <time>2025-02-03T01:06:53.453Z</time>
      </trkpt>
      <trkpt lat="59.25977697595954" lon="13.078664978966117">
        <ele>78.15</ele>
        <time>2025-02-03T01:06:59.743Z</time>
      </trkpt>
      <trkpt lat="59.259726935997605" lon="13.078655926510692">
        <ele>78.39</ele>
        <time>2025-02-03T01:07:06.034Z</time>
      </trkpt>
      <trkpt lat="59.25967597402632" lon="13.07864997535944">
        <ele>78.64</ele>
        <time>2025-02-03T01:07:12.326Z</time>
      </trkpt>
      <trkpt lat="59.25962492823601" lon="13.078646957874298">
        <ele>78.87</ele>
        <time>2025-02-03T01:07:18.619Z</time>
      </trkpt>
      <trkpt lat="59.259574972093105" lon="13.078645952045918">
        <ele>79.11</ele>
        <time>2025-02-03T01:07:24.913Z</time>
      </trkpt>
      <trkpt lat="59.25952392630279" lon="13.078642934560776">
        <ele>79.34</ele>
        <time>2025-02-03T01:07:31.207Z</time>
      </trkpt>
      <trkpt lat="59.25947397015989" lon="13.078637989237905">
        <ele>79.57</ele>
        <time>2025-02-03T01:07:37.502Z</time>
      </trkpt>
      <trkpt lat="59.259422924369574" lon="13.078637989237905">
        <ele>79.8</ele>
        <time>2025-02-03T01:07:43.798Z</time>
      </trkpt>
      <trkpt lat="59.25937095656991" lon="13.078636983409524">
        <ele>80.03</ele>
        <time>2025-02-03T01:07:50.095Z</time>
      </trkpt>
      <trkpt lat="59.259316977113485" lon="13.078634971752763">
        <ele>80.26</ele>
        <time>2025-02-03T01:07:56.393Z</time>
      </trkpt>
      <trkpt lat="59.25926391966641" lon="13.078633965924382">
        <ele>80.48</ele>
        <time>2025-02-03T01:08:02.692Z</time>
      </trkpt>
      <trkpt lat="59.259210946038365" lon="13.078633965924382">
        <ele>80.7</ele>
        <time>2025-02-03T01:08:08.991Z</time>
      </trkpt>
      <trkpt lat="59.2591589782387" lon="13.078634971752763">
        <ele>80.93</ele>
        <time>2025-02-03T01:08:15.291Z</time>
      </trkpt>
      <trkpt lat="59.25910692662001" lon="13.078632960096002">
        <ele>81.14</ele>
        <time>2025-02-03T01:08:21.592Z</time>
      </trkpt>
      <trkpt lat="59.259055964648724" lon="13.07862893678248">
        <ele>81.36</ele>
        <time>2025-02-03T01:08:27.894Z</time>
      </trkpt>
      <trkpt lat="59.25900299102068" lon="13.078627930954099">
        <ele>81.58</ele>
        <time>2025-02-03T01:08:34.197Z</time>
      </trkpt>
      <trkpt lat="59.258950939401984" lon="13.078627930954099">
        <ele>81.79</ele>
        <time>2025-02-03T01:08:40.501Z</time>
      </trkpt>
      <trkpt lat="59.25889897160232" lon="13.078624997287989">
        <ele>82.0</ele>
        <time>2025-02-03T01:08:46.805Z</time>
      </trkpt>
      <trkpt lat="59.25884599797428" lon="13.078622985631227">
        <ele>82.21</ele>
        <time>2025-02-03T01:08:53.110Z</time>
      </trkpt>
      <trkpt lat="59.2587929405272" lon="13.078622985631227">
        <ele>82.42</ele>
        <time>2025-02-03T01:08:59.416Z</time>
      </trkpt>
      <trkpt lat="59.25873996689916" lon="13.078624997287989">
        <ele>82.63</ele>
        <time>2025-02-03T01:09:05.723Z</time>
      </trkpt>
      <trkpt lat="59.25868699327111" lon="13.078623991459608">
        <ele>82.83</ele>
        <time>2025-02-03T01:09:12.031Z</time>
      </trkpt>
      <trkpt lat="59.258632929995656" lon="13.078619968146086">
        <ele>83.03</ele>
        <time>2025-02-03T01:09:18.340Z</time>
      </trkpt>
      <trkpt lat="59.25857794471085" lon="13.078614939004183">
        <ele>83.23</ele>
        <time>2025-02-03T01:09:24.650Z</time>
      </trkpt>
      <trkpt lat="59.25852597691119" lon="13.078608987852931">
        <ele>83.43</ele>
        <time>2025-02-03T01:09:30.960Z</time>
      </trkpt>
      <trkpt lat="59.25847493112087" lon="13.078601947054267">
        <ele>83.63</ele>
        <time>2025-02-03T01:09:37.271Z</time>
      </trkpt>
      <trkpt lat="59.25842296332121" lon="13.078592978417873">
        <ele>83.83</ele>
        <time>2025-02-03T01:09:43.583Z</time>
      </trkpt>
      <trkpt lat="59.258371917530894" lon="13.078581998124719">
        <ele>84.02</ele>
        <time>2025-02-03T01:09:49.896Z</time>
      </trkpt>
      <trkpt lat="59.25831994973123" lon="13.078570934012532">
        <ele>84.22</ele>
        <time>2025-02-03T01:09:56.210Z</time>
      </trkpt>
      <trkpt lat="59.25826798193157" lon="13.078561965376139">
        <ele>84.41</ele>
        <time>2025-02-03T01:10:02.525Z</time>
      </trkpt>
      <trkpt lat="59.25821794196963" lon="13.078548973426223">
        <ele>84.6</ele>
        <time>2025-02-03T01:10:08.840Z</time>
      </trkpt>
      <trkpt lat="59.25816697999835" lon="13.078533969819546">
        <ele>84.78</ele>
        <time>2025-02-03T01:10:15.156Z</time>
      </trkpt>
      <trkpt lat="59.258114928379655" lon="13.07852097786963">
        <ele>84.96</ele>
        <time>2025-02-03T01:10:21.473Z</time>
      </trkpt>
      <trkpt lat="59.25806396640837" lon="13.078508991748095">
        <ele>85.15</ele>
        <time>2025-02-03T01:10:27.791Z</time>
      </trkpt>
      <trkpt lat="59.25801199860871" lon="13.078496921807528">
        <ele>85.32</ele>
        <time>2025-02-03T01:10:34.110Z</time>
      </trkpt>
      <trkpt lat="59.25795994699001" lon="13.078483929857612">
        <ele>85.5</ele>
        <time>2025-02-03T01:10:40.430Z</time>
      </trkpt>
      <trkpt lat="59.25790898501873" lon="13.078470937907696">
        <ele>85.68</ele>
        <time>2025-02-03T01:10:46.750Z</time>
      </trkpt>
      <trkpt lat="59.257857939228415" lon="13.07845794595778">
        <ele>85.85</ele>
        <time>2025-02-03T01:10:53.071Z</time>
      </trkpt>
      <trkpt lat="59.25780597142875" lon="13.078442942351103">
        <ele>86.02</ele>
        <time>2025-02-03T01:10:59.393Z</time>
      </trkpt>
      <trkpt lat="59.2577569372952" lon="13.078425927087665">
        <ele>86.19</ele>
        <time>2025-02-03T01:11:05.716Z</time>
      </trkpt>
      <trkpt lat="59.257705975323915" lon="13.078408995643258">
        <ele>86.36</ele>
        <time>2025-02-03T01:11:12.040Z</time>
      </trkpt>
      <trkpt lat="59.25765694119036" lon="13.078389968723059">
        <ele>86.53</ele>
        <time>2025-02-03T01:11:18.364Z</time>
      </trkpt>
      <trkpt lat="59.25760597921908" lon="13.07837194763124">
        <ele>86.7</ele>
        <time>2025-02-03T01:11:24.689Z</time>
      </trkpt>
      <trkpt lat="59.257555939257145" lon="13.078350992873311">
        <ele>86.86</ele>
        <time>2025-02-03T01:11:31.015Z</time>
      </trkpt>
      <trkpt lat="59.25750698894262" lon="13.07832894846797">
        <ele>87.03</ele>
        <time>2025-02-03T01:11:37.342Z</time>
      </trkpt>
      <trkpt lat="59.25745795480907" lon="13.07830598205328">
        <ele>87.19</ele>
        <time>2025-02-03T01:11:43.670Z</time>
      </trkpt>
      <trkpt lat="59.2574099265039" lon="13.078281925991178">
        <ele>87.35</ele>
        <time>2025-02-03T01:11:49.999Z</time>
      </trkpt>
      <trkpt lat="59.2573649995029" lon="13.078260971233249">
        <ele>87.51</ele>
        <time>2025-02-03T01:11:56.328Z</time>
      </trkpt>
      <trkpt lat="59.257319988682866" lon="13.078239932656288">
        <ele>87.66</ele>
        <time>2025-02-03T01:12:02.658Z</time>
      </trkpt>
      <trkpt lat="59.257273972034454" lon="13.07821897789836">
        <ele>87.82</ele>
        <time>2025-02-03T01:12:08.989Z</time>
      </trkpt>
      <trkpt lat="59.25722896121442" lon="13.078195927664638">
        <ele>87.97</ele>
        <time>2025-02-03T01:12:15.321Z</time>
      </trkpt>
      <trkpt lat="59.25718294456601" lon="13.078169943764806">
        <ele>88.12</ele>
        <time>2025-02-03T01:12:21.653Z</time>
      </trkpt>
      <trkpt lat="59.2571369279176" lon="13.078146977350116">
        <ele>88.27</ele>
        <time>2025-02-03T01:12:27.986Z</time>
      </trkpt>
      <trkpt lat="59.25708998925984" lon="13.078122921288013">
        <ele>88.42</ele>
        <time>2025-02-03T01:12:34.320Z</time>
      </trkpt>
      <trkpt lat="59.25704397261143" lon="13.078097943216562">
        <ele>88.57</ele>
        <time>2025-02-03T01:12:40.655Z</time>
      </trkpt>
      <trkpt lat="59.256998961791396" lon="13.07807195931673">
        <ele>88.72</ele>
        <time>2025-02-03T01:12:46.990Z</time>
      </trkpt>
      <trkpt lat="59.256952945142984" lon="13.078044969588518">
        <ele>88.86</ele>
        <time>2025-02-03T01:12:53.326Z</time>
      </trkpt>
      <trkpt lat="59.25690592266619" lon="13.078018985688686">
        <ele>89.01</ele>
        <time>2025-02-03T01:12:59.663Z</time>
      </trkpt>
      <trkpt lat="59.25685898400843" lon="13.077989984303713">
        <ele>89.15</ele>
        <time>2025-02-03T01:13:06.001Z</time>
      </trkpt>
      <trkpt lat="59.25681196153164" lon="13.07796391658485">
        <ele>89.29</ele>
        <time>2025-02-03T01:13:12.340Z</time>
      </trkpt>
      <trkpt lat="59.25676695071161" lon="13.077936926856637">
        <ele>89.43</ele>
        <time>2025-02-03T01:13:18.679Z</time>
      </trkpt>
      <trkpt lat="59.256720934063196" lon="13.077909937128425">
        <ele>89.56</ele>
        <time>2025-02-03T01:13:25.019Z</time>
      </trkpt>
      <trkpt lat="59.256674917414784" lon="13.077881941571832">
        <ele>89.7</ele>
        <time>2025-02-03T01:13:31.360Z</time>
      </trkpt>
      <trkpt lat="59.256629990413785" lon="13.077848916873336">
        <ele>89.83</ele>
        <time>2025-02-03T01:13:37.702Z</time>
      </trkpt>
      <trkpt lat="59.25658296793699" lon="13.077815975993872">
        <ele>89.97</ele>
        <time>2025-02-03T01:13:44.044Z</time>
      </trkpt>
      <trkpt lat="59.25653493963182" lon="13.077784962952137">
        <ele>90.1</ele>
        <time>2025-02-03T01:13:50.387Z</time>
      </trkpt>
      <trkpt lat="59.25648791715503" lon="13.077752944082022">
        <ele>90.23</ele>
        <time>2025-02-03T01:13:56.731Z</time>
      </trkpt>
      <trkpt lat="59.25644198432565" lon="13.077719919383526">
        <ele>90.36</ele>
        <time>2025-02-03T01:14:03.076Z</time>
      </trkpt>
      <trkpt lat="59.256394961848855" lon="13.077686978504062">
        <ele>90.49</ele>
        <time>2025-02-03T01:14:09.422Z</time>
      </trkpt>
      <trkpt lat="59.256350956857204" lon="13.077650936320424">
        <ele>90.62</ele>
        <time>2025-02-03T01:14:15.768Z</time>
      </trkpt>
      <trkpt lat="59.256307957693934" lon="13.077614977955818">
        <ele>90.75</ele>
        <time>2025-02-03T01:14:22.115Z</time>
      </trkpt>
      <trkpt lat="59.25626898184419" lon="13.07757893577218">
        <ele>90.88</ele>
        <time>2025-02-03T01:14:28.463Z</time>
      </trkpt>
      <trkpt lat="59.25622799433768" lon="13.077542977407575">
        <ele>91.0</ele>
        <time>2025-02-03T01:14:34.812Z</time>
      </trkpt>
      <trkpt lat="59.25618591718376" lon="13.077505929395556">
        <ele>91.13</ele>
        <time>2025-02-03T01:14:41.161Z</time>
      </trkpt>
      <trkpt lat="59.25613998435438" lon="13.07746997103095">
        <ele>91.25</ele>
        <time>2025-02-03T01:14:47.511Z</time>
      </trkpt>
      <trkpt lat="59.25609698519111" lon="13.077429989352822">
        <ele>91.38</ele>
        <time>2025-02-03T01:14:53.862Z</time>
      </trkpt>
      <trkpt lat="59.256049962714314" lon="13.077390929684043">
        <ele>91.5</ele>
        <time>2025-02-03T01:15:00.214Z</time>
      </trkpt>
      <trkpt lat="59.25600495189428" lon="13.077351953834295">
        <ele>91.63</ele>
        <time>2025-02-03T01:15:06.566Z</time>
      </trkpt>
      <trkpt lat="59.25596094690263" lon="13.077313983812928">
        <ele>91.75</ele>
        <time>2025-02-03T01:15:12.919Z</time>
      </trkpt>
      <trkpt lat="59.2559159360826" lon="13.07727592997253">
        <ele>91.88</ele>
        <time>2025-02-03T01:15:19.273Z</time>
      </trkpt>
      <trkpt lat="59.25587193109095" lon="13.077240977436304">
        <ele>92.0</ele>
        <time>2025-02-03T01:15:25.628Z</time>
      </trkpt>
      <trkpt lat="59.2558279260993" lon="13.077205941081047">
        <ele>92.13</ele>
        <time>2025-02-03T01:15:31.983Z</time>
      </trkpt>
      <trkpt lat="59.25578492693603" lon="13.077164953574538">
        <ele>92.25</ele>
        <time>2025-02-03T01:15:38.339Z</time>
      </trkpt>
      <trkpt lat="59.25574192777276" lon="13.077121954411268">
        <ele>92.37</ele>
        <time>2025-02-03T01:15:44.696Z</time>
      </trkpt>
      <trkpt lat="59.25570094026625" lon="13.077075937762856">
        <ele>92.5</ele>
        <time>2025-02-03T01:15:51.054Z</time>
      </trkpt>
      <trkpt lat="59.255661964416504" lon="13.077032938599586">
        <ele>92.63</ele>
        <time>2025-02-03T01:15:57.413Z</time>
      </trkpt>
      <trkpt lat="59.255621982738376" lon="13.076990945264697">
        <ele>92.75</ele>
        <time>2025-02-03T01:16:03.772Z</time>
      </trkpt>
      <trkpt lat="59.25558493472636" lon="13.07695297524333">
        <ele>92.88</ele>
        <time>2025-02-03T01:16:10.132Z</time>
      </trkpt>
      <trkpt lat="59.25554897636175" lon="13.076917938888073">
        <ele>93.0</ele>
        <time>2025-02-03T01:16:16.493Z</time>
      </trkpt>
      <trkpt lat="59.255513940006495" lon="13.076881980523467">
        <ele>93.13</ele>
        <time>2025-02-03T01:16:22.854Z</time>
      </trkpt>
      <trkpt lat="59.25548192113638" lon="13.07684794999659">
        <ele>93.25</ele>
        <time>2025-02-03T01:16:29.216Z</time>
      </trkpt>
      <trkpt lat="59.255453925579786" lon="13.076815931126475">
        <ele>93.38</ele>
        <time>2025-02-03T01:16:35.578Z</time>
      </trkpt>
      <trkpt lat="59.25542299635708" lon="13.076785923913121">
        <ele>93.5</ele>
        <time>2025-02-03T01:16:41.941Z</time>
      </trkpt>
      <trkpt lat="59.25539491698146" lon="13.076756922528148">
        <ele>93.63</ele>
        <time>2025-02-03T01:16:48.304Z</time>
      </trkpt>
      <trkpt lat="59.255366921424866" lon="13.076725993305445">
        <ele>93.75</ele>
        <time>2025-02-03T01:16:54.668Z</time>
      </trkpt>
      <trkpt lat="59.255340937525034" lon="13.07669598609209">
        <ele>93.88</ele>
        <time>2025-02-03T01:17:01.032Z</time>
      </trkpt>
      <trkpt lat="59.25531595945358" lon="13.076665978878736">
        <ele>94.0</ele>
        <time>2025-02-03T01:17:07.397Z</time>
      </trkpt>
      <trkpt lat="59.25529492087662" lon="13.076636977493763">
        <ele>94.13</ele>
        <time>2025-02-03T01:17:13.762Z</time>
      </trkpt>
      <trkpt lat="59.25527195446193" lon="13.07660998776555">
        <ele>94.26</ele>
        <time>2025-02-03T01:17:20.128Z</time>
      </trkpt>
      <trkpt lat="59.25524798221886" lon="13.076583920046687">
        <ele>94.38</ele>
        <time>2025-02-03T01:17:26.494Z</time>
      </trkpt>
      <trkpt lat="59.25522292032838" lon="13.076558941975236">
        <ele>94.51</ele>
        <time>2025-02-03T01:17:32.861Z</time>
      </trkpt>
      <trkpt lat="59.25519794225693" lon="13.076533963903785">
        <ele>94.63</ele>
        <time>2025-02-03T01:17:39.228Z</time>
      </trkpt>
      <trkpt lat="59.25517397001386" lon="13.076506974175572">
        <ele>94.76</ele>
        <time>2025-02-03T01:17:45.595Z</time>
      </trkpt>
      <trkpt lat="59.255150919780135" lon="13.076473949477077">
        <ele>94.88</ele>
        <time>2025-02-03T01:17:51.963Z</time>
      </trkpt>
      <trkpt lat="59.255126947537065" lon="13.076441930606961">
        <ele>95.01</ele>
        <time>2025-02-03T01:17:58.331Z</time>
      </trkpt>
      <trkpt lat="59.255102975293994" lon="13.076409995555878">
        <ele>95.13</ele>
        <time>2025-02-03T01:18:04.700Z</time>
      </trkpt>
      <trkpt lat="59.25507799722254" lon="13.076380994170904">
        <ele>95.26</ele>
        <time>2025-02-03T01:18:11.069Z</time>
      </trkpt>
      <trkpt lat="59.25505293533206" lon="13.07634998112917">
        <ele>95.38</ele>
        <time>2025-02-03T01:18:17.439Z</time>
      </trkpt>
      <trkpt lat="59.25502795726061" lon="13.076320979744196">
        <ele>95.51</ele>
        <time>2025-02-03T01:18:23.809Z</time>
      </trkpt>
      <trkpt lat="59.25500499084592" lon="13.076291978359222">
        <ele>95.63</ele>
        <time>2025-02-03T01:18:30.180Z</time>
      </trkpt>
      <trkpt lat="59.2549819406122" lon="13.076261971145868">
        <ele>95.76</ele>
        <time>2025-02-03T01:18:36.551Z</time>
      </trkpt>
      <trkpt lat="59.254956962540746" lon="13.076231963932514">
        <ele>95.89</ele>
        <time>2025-02-03T01:18:42.923Z</time>
      </trkpt>
      <trkpt lat="59.254931984469295" lon="13.076204974204302">
        <ele>96.01</ele>
        <time>2025-02-03T01:18:49.295Z</time>
      </trkpt>
      <trkpt lat="59.25490591675043" lon="13.076174966990948">
        <ele>96.14</ele>
        <time>2025-02-03T01:18:55.668Z</time>
      </trkpt>
      <trkpt lat="59.25488194450736" lon="13.076142948120832">
        <ele>96.26</ele>
        <time>2025-02-03T01:19:02.041Z</time>
      </trkpt>
      <trkpt lat="59.25485696643591" lon="13.076109923422337">
        <ele>96.39</ele>
        <time>2025-02-03T01:19:08.415Z</time>
      </trkpt>
      <trkpt lat="59.25483299419284" lon="13.076078994199634">
        <ele>96.51</ele>
        <time>2025-02-03T01:19:14.789Z</time>
      </trkpt>
      <trkpt lat="59.25480994395912" lon="13.076047981157899">
        <ele>96.63</ele>
        <time>2025-02-03T01:19:21.163Z</time>
      </trkpt>
      <trkpt lat="59.254785971716046" lon="13.076016968116164">
        <ele>96.76</ele>
        <time>2025-02-03T01:19:27.538Z</time>
      </trkpt>
      <trkpt lat="59.254761999472976" lon="13.07598595507443">
        <ele>96.88</ele>
        <time>2025-02-03T01:19:33.913Z</time>
      </trkpt>
      <trkpt lat="59.254738949239254" lon="13.075957959517837">
        <ele>97.0</ele>
        <time>2025-02-03T01:19:40.289Z</time>
      </trkpt>
      <trkpt lat="59.25471497699618" lon="13.075927952304482">
        <ele>97.13</ele>
        <time>2025-02-03T01:19:46.665Z</time>
      </trkpt>
      <trkpt lat="59.25469192676246" lon="13.075896939262748">
        <ele>97.25</ele>
        <time>2025-02-03T01:19:53.042Z</time>
      </trkpt>
      <trkpt lat="59.25466896034777" lon="13.075863998383284">
        <ele>97.37</ele>
        <time>2025-02-03T01:19:59.419Z</time>
      </trkpt>
      <trkpt lat="59.2546449881047" lon="13.075828962028027">
        <ele>97.49</ele>
        <time>2025-02-03T01:20:05.797Z</time>
      </trkpt>
      <trkpt lat="59.25461892038584" lon="13.07579392567277">
        <ele>97.61</ele>
        <time>2025-02-03T01:20:12.175Z</time>
      </trkpt>
      <trkpt lat="59.254590924829245" lon="13.075760984793305">
        <ele>97.73</ele>
        <time>2025-02-03T01:20:18.554Z</time>
      </trkpt>
      <trkpt lat="59.25456393510103" lon="13.07572796009481">
        <ele>97.85</ele>
        <time>2025-02-03T01:20:24.933Z</time>
      </trkpt>
      <trkpt lat="59.25453694537282" lon="13.075693929567933">
        <ele>97.97</ele>
        <time>2025-02-03T01:20:31.313Z</time>
      </trkpt>
      <trkpt lat="59.25451096147299" lon="13.075662916526198">
        <ele>98.08</ele>
        <time>2025-02-03T01:20:37.693Z</time>
      </trkpt>
      <trkpt lat="59.25448698922992" lon="13.075634920969605">
        <ele>98.2</ele>
        <time>2025-02-03T01:20:44.074Z</time>
      </trkpt>
      <trkpt lat="59.254463938996196" lon="13.075609942898154">
        <ele>98.31</ele>
        <time>2025-02-03T01:20:50.455Z</time>
      </trkpt>
      <trkpt lat="59.254438960924745" lon="13.075581947341561">
        <ele>98.43</ele>
        <time>2025-02-03T01:20:56.836Z</time>
      </trkpt>
      <trkpt lat="59.25441398285329" lon="13.075547916814685">
        <ele>98.54</ele>
        <time>2025-02-03T01:21:03.218Z</time>
      </trkpt>
      <trkpt lat="59.25438992679119" lon="13.07551397010684">
        <ele>98.65</ele>
        <time>2025-02-03T01:21:09.600Z</time>
      </trkpt>
      <trkpt lat="59.25436595454812" lon="13.075481951236725">
        <ele>98.76</ele>
        <time>2025-02-03T01:21:15.983Z</time>
      </trkpt>
      <trkpt lat="59.25434198230505" lon="13.07545194402337">
        <ele>98.87</ele>
        <time>2025-02-03T01:21:22.366Z</time>
      </trkpt>
      <trkpt lat="59.25431893207133" lon="13.075422942638397">
        <ele>98.98</ele>
        <time>2025-02-03T01:21:28.750Z</time>
      </trkpt>
      <trkpt lat="59.254292948171496" lon="13.075392935425043">
        <ele>99.09</ele>
        <time>2025-02-03T01:21:35.134Z</time>
      </trkpt>
      <trkpt lat="59.254267970100045" lon="13.075362928211689">
        <ele>99.19</ele>
        <time>2025-02-03T01:21:41.519Z</time>
      </trkpt>
      <trkpt lat="59.25424491986632" lon="13.075331998988986">
        <ele>99.3</ele>
        <time>2025-02-03T01:21:47.904Z</time>
      </trkpt>
      <trkpt lat="59.25421591848135" lon="13.07529897429049">
        <ele>99.4</ele>
        <time>2025-02-03T01:21:54.290Z</time>
      </trkpt>
      <trkpt lat="59.254186917096376" lon="13.075263937935233">
        <ele>99.5</ele>
        <time>2025-02-03T01:22:00.676Z</time>
      </trkpt>
      <trkpt lat="59.254156993702054" lon="13.075228985399008">
        <ele>99.6</ele>
        <time>2025-02-03T01:22:07.063Z</time>
      </trkpt>
      <trkpt lat="59.25412396900356" lon="13.07519193738699">
        <ele>99.7</ele>
        <time>2025-02-03T01:22:13.450Z</time>
      </trkpt>
      <trkpt lat="59.25409094430506" lon="13.0751499440521">
        <ele>99.79</ele>
        <time>2025-02-03T01:22:19.838Z</time>
      </trkpt>
      <trkpt lat="59.25405599176884" lon="13.07510593906045">
        <ele>99.89</ele>
        <time>2025-02-03T01:22:26.227Z</time>
      </trkpt>
      <trkpt lat="59.2540199495852" lon="13.07506394572556">
        <ele>99.98</ele>
        <time>2025-02-03T01:22:32.616Z</time>
      </trkpt>
      <trkpt lat="59.25398399122059" lon="13.07502195239067">
        <ele>100.07</ele>
        <time>2025-02-03T01:22:39.006Z</time>
      </trkpt>
      <trkpt lat="59.253947949036956" lon="13.074981970712543">
        <ele>100.16</ele>
        <time>2025-02-03T01:22:45.397Z</time>
      </trkpt>
      <trkpt lat="59.25391199067235" lon="13.074940983206034">
        <ele>100.24</ele>
        <time>2025-02-03T01:22:51.788Z</time>
      </trkpt>
      <trkpt lat="59.25387594848871" lon="13.074898989871144">
        <ele>100.32</ele>
        <time>2025-02-03T01:22:58.180Z</time>
      </trkpt>
      <trkpt lat="59.253838984295726" lon="13.074853979051113">
        <ele>100.4</ele>
        <time>2025-02-03T01:23:04.573Z</time>
      </trkpt>
      <trkpt lat="59.25380093045533" lon="13.074808968231082">
        <ele>100.48</ele>
        <time>2025-02-03T01:23:10.967Z</time>
      </trkpt>
      <trkpt lat="59.25375994294882" lon="13.07476395741105">
        <ele>100.55</ele>
        <time>2025-02-03T01:23:17.361Z</time>
      </trkpt>
      <trkpt lat="59.25371694378555" lon="13.074717940762639">
        <ele>100.63</ele>
        <time>2025-02-03T01:23:23.756Z</time>
      </trkpt>
      <trkpt lat="59.2536729387939" lon="13.074672929942608">
        <ele>100.69</ele>
        <time>2025-02-03T01:23:30.152Z</time>
      </trkpt>
      <trkpt lat="59.253626922145486" lon="13.074627919122577">
        <ele>100.76</ele>
        <time>2025-02-03T01:23:36.549Z</time>
      </trkpt>
      <trkpt lat="59.253580989316106" lon="13.074580980464816">
        <ele>100.82</ele>
        <time>2025-02-03T01:23:42.947Z</time>
      </trkpt>
      <trkpt lat="59.25353396683931" lon="13.074533957988024">
        <ele>100.88</ele>
        <time>2025-02-03T01:23:49.345Z</time>
      </trkpt>
      <trkpt lat="59.25348694436252" lon="13.07448592968285">
        <ele>100.94</ele>
        <time>2025-02-03T01:23:55.744Z</time>
      </trkpt>
      <trkpt lat="59.25343992188573" lon="13.07443899102509">
        <ele>100.99</ele>
        <time>2025-02-03T01:24:02.144Z</time>
      </trkpt>
      <trkpt lat="59.25339298322797" lon="13.074391968548298">
        <ele>101.04</ele>
        <time>2025-02-03T01:24:08.545Z</time>
      </trkpt>
      <trkpt lat="59.253344954922795" lon="13.074344946071506">
        <ele>101.09</ele>
        <time>2025-02-03T01:24:14.947Z</time>
      </trkpt>
      <trkpt lat="59.25329692661762" lon="13.074296917766333">
        <ele>101.14</ele>
        <time>2025-02-03T01:24:21.350Z</time>
      </trkpt>
      <trkpt lat="59.25324697047472" lon="13.074249979108572">
        <ele>101.18</ele>
        <time>2025-02-03T01:24:27.754Z</time>
      </trkpt>
      <trkpt lat="59.253195924684405" lon="13.074205974116921">
        <ele>101.22</ele>
        <time>2025-02-03T01:24:34.158Z</time>
      </trkpt>
      <trkpt lat="59.25314496271312" lon="13.07416096329689">
        <ele>101.25</ele>
        <time>2025-02-03T01:24:40.563Z</time>
      </trkpt>
      <trkpt lat="59.25309391692281" lon="13.074114946648479">
        <ele>101.28</ele>
        <time>2025-02-03T01:24:46.969Z</time>
      </trkpt>
      <trkpt lat="59.253042954951525" lon="13.074069935828447">
        <ele>101.31</ele>
        <time>2025-02-03T01:24:53.376Z</time>
      </trkpt>
      <trkpt lat="59.25299098715186" lon="13.074023919180036">
        <ele>101.33</ele>
        <time>2025-02-03T01:24:59.784Z</time>
      </trkpt>
      <trkpt lat="59.252936923876405" lon="13.073977986350656">
        <ele>101.36</ele>
        <time>2025-02-03T01:25:06.193Z</time>
      </trkpt>
      <trkpt lat="59.25288294441998" lon="13.073930963873863">
        <ele>101.38</ele>
        <time>2025-02-03T01:25:12.603Z</time>
      </trkpt>
      <trkpt lat="59.252827959135175" lon="13.073884947225451">
        <ele>101.4</ele>
        <time>2025-02-03T01:25:19.014Z</time>
      </trkpt>
      <trkpt lat="59.25277196802199" lon="13.0738409422338">
        <ele>101.41</ele>
        <time>2025-02-03T01:25:25.426Z</time>
      </trkpt>
      <trkpt lat="59.2527159769088" lon="13.073799954727292">
        <ele>101.42</ele>
        <time>2025-02-03T01:25:31.839Z</time>
      </trkpt>
      <trkpt lat="59.25265897996724" lon="13.073758967220783">
        <ele>101.42</ele>
        <time>2025-02-03T01:25:38.253Z</time>
      </trkpt>
      <trkpt lat="59.25260198302567" lon="13.073717979714274">
        <ele>101.42</ele>
        <time>2025-02-03T01:25:44.668Z</time>
      </trkpt>
      <trkpt lat="59.25254398025572" lon="13.073679925873876">
        <ele>101.42</ele>
        <time>2025-02-03T01:25:51.084Z</time>
      </trkpt>
      <trkpt lat="59.252484971657395" lon="13.07364396750927">
        <ele>101.41</ele>
        <time>2025-02-03T01:25:57.501Z</time>
      </trkpt>
      <trkpt lat="59.25242596305907" lon="13.073604991659522">
        <ele>101.4</ele>
        <time>2025-02-03T01:26:03.919Z</time>
      </trkpt>
      <trkpt lat="59.25236594863236" lon="13.073565931990743">
        <ele>101.38</ele>
        <time>2025-02-03T01:26:10.338Z</time>
      </trkpt>
      <trkpt lat="59.25230492837727" lon="13.073526956140995">
        <ele>101.36</ele>
        <time>2025-02-03T01:26:16.758Z</time>
      </trkpt>
      <trkpt lat="59.25224298611283" lon="13.07349099777639">
        <ele>101.33</ele>
        <time>2025-02-03T01:26:23.179Z</time>
      </trkpt>
      <trkpt lat="59.252180960029364" lon="13.073454955592752">
        <ele>101.3</ele>
        <time>2025-02-03T01:26:29.601Z</time>
      </trkpt>
      <trkpt lat="59.252118933945894" lon="13.073419919237494">
        <ele>101.27</ele>
        <time>2025-02-03T01:26:36.024Z</time>
      </trkpt>
      <trkpt lat="59.25205699168146" lon="13.073383960872889">
        <ele>101.24</ele>
        <time>2025-02-03T01:26:42.448Z</time>
      </trkpt>
      <trkpt lat="59.251992953941226" lon="13.073350936174393">
        <ele>101.2</ele>
        <time>2025-02-03T01:26:48.873Z</time>
      </trkpt>
      <trkpt lat="59.251928916200995" lon="13.073319923132658">
        <ele>101.16</ele>
        <time>2025-02-03T01:26:55.299Z</time>
      </trkpt>
      <trkpt lat="59.25186596810818" lon="13.073289999738336">
        <ele>101.11</ele>
        <time>2025-02-03T01:27:01.726Z</time>
      </trkpt>
      <trkpt lat="59.25180193036795" lon="13.073259992524981">
        <ele>101.07</ele>
        <time>2025-02-03T01:27:08.154Z</time>
      </trkpt>
      <trkpt lat="59.25173797644675" lon="13.073229985311627">
        <ele>101.02</ele>
        <time>2025-02-03T01:27:14.583Z</time>
      </trkpt>
      <trkpt lat="59.25167393870652" lon="13.073200983926654">
        <ele>100.97</ele>
        <time>2025-02-03T01:27:21.013Z</time>
      </trkpt>
      <trkpt lat="59.25160897895694" lon="13.073172988370061">
        <ele>100.91</ele>
        <time>2025-02-03T01:27:27.444Z</time>
      </trkpt>
      <trkpt lat="59.25154393538833" lon="13.073143986985087">
        <ele>100.85</ele>
        <time>2025-02-03T01:27:33.876Z</time>
      </trkpt>
      <trkpt lat="59.25147796981037" lon="13.073115991428494">
        <ele>100.79</ele>
        <time>2025-02-03T01:27:40.309Z</time>
      </trkpt>
      <trkpt lat="59.251410998404026" lon="13.07308891788125">
        <ele>100.73</ele>
        <time>2025-02-03T01:27:46.744Z</time>
      </trkpt>
      <trkpt lat="59.251343943178654" lon="13.073060922324657">
        <ele>100.66</ele>
        <time>2025-02-03T01:27:53.180Z</time>
      </trkpt>
      <trkpt lat="59.251277977600694" lon="13.073029993101954">
        <ele>100.59</ele>
        <time>2025-02-03T01:27:59.617Z</time>
      </trkpt>
      <trkpt lat="59.25120991654694" lon="13.07299898006022">
        <ele>100.52</ele>
        <time>2025-02-03T01:28:06.055Z</time>
      </trkpt>
      <trkpt lat="59.25114093348384" lon="13.072969978675246">
        <ele>100.44</ele>
        <time>2025-02-03T01:28:12.494Z</time>
      </trkpt>
      <trkpt lat="59.251069938763976" lon="13.072940977290273">
        <ele>100.35</ele>
        <time>2025-02-03T01:28:18.934Z</time>
      </trkpt>
      <trkpt lat="59.25099793821573" lon="13.0729119759053">
        <ele>100.26</ele>
        <time>2025-02-03T01:28:25.375Z</time>
      </trkpt>
      <trkpt lat="59.25092493183911" lon="13.072884986177087">
        <ele>100.17</ele>
        <time>2025-02-03T01:28:31.818Z</time>
      </trkpt>
      <trkpt lat="59.250851925462484" lon="13.072858918458223">
        <ele>100.07</ele>
        <time>2025-02-03T01:28:38.262Z</time>
      </trkpt>
      <trkpt lat="59.25077799707651" lon="13.072835952043533">
        <ele>99.97</ele>
        <time>2025-02-03T01:28:44.707Z</time>
      </trkpt>
      <trkpt lat="59.25070499069989" lon="13.072817930951715">
        <ele>99.87</ele>
        <time>2025-02-03T01:28:51.153Z</time>
      </trkpt>
      <trkpt lat="59.25063198432326" lon="13.072803933173418">
        <ele>99.76</ele>
        <time>2025-02-03T01:28:57.600Z</time>
      </trkpt>
      <trkpt lat="59.25055998377502" lon="13.072797982022166">
        <ele>99.64</ele>
        <time>2025-02-03T01:29:04.048Z</time>
      </trkpt>
      <trkpt lat="59.250487983226776" lon="13.072801921516657">
        <ele>99.53</ele>
        <time>2025-02-03T01:29:10.498Z</time>
      </trkpt>
      <trkpt lat="59.25041698850691" lon="13.072811979800463">
        <ele>99.41</ele>
        <time>2025-02-03T01:29:16.949Z</time>
      </trkpt>
      <trkpt lat="59.25034699961543" lon="13.072823965921998">
        <ele>99.29</ele>
        <time>2025-02-03T01:29:23.401Z</time>
      </trkpt>
      <trkpt lat="59.25027893856168" lon="13.072837963700294">
        <ele>99.17</ele>
        <time>2025-02-03T01:29:29.854Z</time>
      </trkpt>
      <trkpt lat="59.25021196715534" lon="13.072854978963733">
        <ele>99.05</ele>
        <time>2025-02-03T01:29:36.308Z</time>
      </trkpt>
      <trkpt lat="59.250146923586726" lon="13.072871994227171">
        <ele>98.93</ele>
        <time>2025-02-03T01:29:42.763Z</time>
      </trkpt>
      <trkpt lat="59.250079952180386" lon="13.072886997833848">
        <ele>98.81</ele>
        <time>2025-02-03T01:29:49.219Z</time>
      </trkpt>
      <trkpt lat="59.25001599825919" lon="13.072899989783764">
        <ele>98.68</ele>
        <time>2025-02-03T01:29:55.676Z</time>
      </trkpt>
      <trkpt lat="59.24995397217572" lon="13.072906946763396">
        <ele>98.56</ele>
        <time>2025-02-03T01:30:02.134Z</time>
      </trkpt>
      <trkpt lat="59.24988993443549" lon="13.072909964248538">
        <ele>98.42</ele>
        <time>2025-02-03T01:30:08.593Z</time>
      </trkpt>
      <trkpt lat="59.24982598051429" lon="13.07291298173368">
        <ele>98.29</ele>
        <time>2025-02-03T01:30:15.053Z</time>
      </trkpt>
      <trkpt lat="59.249759931117296" lon="13.072914993390441">
        <ele>98.15</ele>
        <time>2025-02-03T01:30:21.514Z</time>
      </trkpt>
      <trkpt lat="59.249690948054194" lon="13.072908958420157">
        <ele>98.01</ele>
        <time>2025-02-03T01:30:27.976Z</time>
      </trkpt>
      <trkpt lat="59.24962095916271" lon="13.07289194315672">
        <ele>97.87</ele>
        <time>2025-02-03T01:30:34.440Z</time>
      </trkpt>
      <trkpt lat="59.24954694695771" lon="13.072864953428507">
        <ele>97.72</ele>
        <time>2025-02-03T01:30:40.905Z</time>
      </trkpt>
      <trkpt lat="59.24947092309594" lon="13.072832934558392">
        <ele>97.58</ele>
        <time>2025-02-03T01:30:47.371Z</time>
      </trkpt>
      <trkpt lat="59.249389953911304" lon="13.072794964537024">
        <ele>97.43</ele>
        <time>2025-02-03T01:30:53.838Z</time>
      </trkpt>
      <trkpt lat="59.249303955584764" lon="13.072750959545374">
        <ele>97.28</ele>
        <time>2025-02-03T01:31:00.307Z</time>
      </trkpt>
      <trkpt lat="59.24921292811632" lon="13.07270192541182">
        <ele>97.13</ele>
        <time>2025-02-03T01:31:06.777Z</time>
      </trkpt>
      <trkpt lat="59.24911695532501" lon="13.072646940127015">
        <ele>96.98</ele>
        <time>2025-02-03T01:31:13.249Z</time>
      </trkpt>
      <trkpt lat="59.24901595339179" lon="13.072589943185449">
        <ele>96.83</ele>
        <time>2025-02-03T01:31:19.723Z</time>
      </trkpt>
      <trkpt lat="59.24890891648829" lon="13.072533952072263">
        <ele>96.67</ele>
        <time>2025-02-03T01:31:26.198Z</time>
      </trkpt>
      <trkpt lat="59.24879592843354" lon="13.072475949302316">
        <ele>96.52</ele>
        <time>2025-02-03T01:31:32.675Z</time>
      </trkpt>
      <trkpt lat="59.24867992289364" lon="13.072407972067595">
        <ele>96.38</ele>
        <time>2025-02-03T01:31:39.154Z</time>
      </trkpt>
      <trkpt lat="59.24856391735375" lon="13.072319962084293">
        <ele>96.24</ele>
        <time>2025-02-03T01:31:45.635Z</time>
      </trkpt>
      <trkpt lat="59.24845294095576" lon="13.0722039565444">
        <ele>96.1</ele>
        <time>2025-02-03T01:31:52.118Z</time>
      </trkpt>
      <trkpt lat="59.2483489215374" lon="13.072059955447912">
        <ele>95.95</ele>
        <time>2025-02-03T01:31:58.603Z</time>
      </trkpt>
      <trkpt lat="59.24824993126094" lon="13.071892987936735">
        <ele>95.81</ele>
        <time>2025-02-03T01:32:05.090Z</time>
      </trkpt>
      <trkpt lat="59.24815898761153" lon="13.071708921343088">
        <ele>95.67</ele>
        <time>2025-02-03T01:32:11.579Z</time>
      </trkpt>
      <trkpt lat="59.24806896597147" lon="13.071522926911712">
        <ele>95.54</ele>
        <time>2025-02-03T01:32:18.071Z</time>
      </trkpt>
      <trkpt lat="59.247972993180156" lon="13.071353947743773">
        <ele>95.41</ele>
        <time>2025-02-03T01:32:24.565Z</time>
      </trkpt>
      <trkpt lat="59.2478689737618" lon="13.071207934990525">
        <ele>95.28</ele>
        <time>2025-02-03T01:32:31.061Z</time>
      </trkpt>
      <trkpt lat="59.24775397405028" lon="13.071091929450631">
        <ele>95.16</ele>
        <time>2025-02-03T01:32:37.559Z</time>
      </trkpt>
      <trkpt lat="59.24763394519687" lon="13.070998974144459">
        <ele>95.03</ele>
        <time>2025-02-03T01:32:44.059Z</time>
      </trkpt>
      <trkpt lat="59.2475129943341" lon="13.070919932797551">
        <ele>94.91</ele>
        <time>2025-02-03T01:32:50.561Z</time>
      </trkpt>
      <trkpt lat="59.247393971309066" lon="13.07085296139121">
        <ele>94.78</ele>
        <time>2025-02-03T01:32:57.065Z</time>
      </trkpt>
      <trkpt lat="59.24727796576917" lon="13.070795964449644">
        <ele>94.65</ele>
        <time>2025-02-03T01:33:03.571Z</time>
      </trkpt>
      <trkpt lat="59.24716397188604" lon="13.070748941972852">
        <ele>94.53</ele>
        <time>2025-02-03T01:33:10.079Z</time>
      </trkpt>
      <trkpt lat="59.2470539174974" lon="13.070708960294724">
        <ele>94.41</ele>
        <time>2025-02-03T01:33:16.588Z</time>
      </trkpt>
      <trkpt lat="59.24694797024131" lon="13.070670990273356">
        <ele>94.29</ele>
        <time>2025-02-03T01:33:23.099Z</time>
      </trkpt>
      <trkpt lat="59.24684696830809" lon="13.0706359539181">
        <ele>94.18</ele>
        <time>2025-02-03T01:33:29.612Z</time>
      </trkpt>
      <trkpt lat="59.24675099551678" lon="13.070605946704745">
        <ele>94.06</ele>
        <time>2025-02-03T01:33:36.126Z</time>
      </trkpt>
      <trkpt lat="59.24665896221995" lon="13.070575939491391">
        <ele>93.95</ele>
        <time>2025-02-03T01:33:42.642Z</time>
      </trkpt>
      <trkpt lat="59.24656994640827" lon="13.070547943934798">
        <ele>93.83</ele>
        <time>2025-02-03T01:33:49.159Z</time>
      </trkpt>
      <trkpt lat="59.24648394808173" lon="13.070521960034966">
        <ele>93.72</ele>
        <time>2025-02-03T01:33:55.678Z</time>
      </trkpt>
      <trkpt lat="59.24639895558357" lon="13.070499999448657">
        <ele>93.61</ele>
        <time>2025-02-03T01:34:02.198Z</time>
      </trkpt>
      <trkpt lat="59.24631396308541" lon="13.07048499584198">
        <ele>93.51</ele>
        <time>2025-02-03T01:34:08.719Z</time>
      </trkpt>
      <trkpt lat="59.246230982244015" lon="13.070474937558174">
        <ele>93.41</ele>
        <time>2025-02-03T01:34:15.242Z</time>
      </trkpt>
      <trkpt lat="59.246146995574236" lon="13.070470998063684">
        <ele>93.31</ele>
        <time>2025-02-03T01:34:21.766Z</time>
      </trkpt>
      <trkpt lat="59.24606493674219" lon="13.070469992235303">
        <ele>93.21</ele>
        <time>2025-02-03T01:34:28.291Z</time>
      </trkpt>
      <trkpt lat="59.24598095007241" lon="13.070472925901413">
        <ele>93.12</ele>
        <time>2025-02-03T01:34:34.818Z</time>
      </trkpt>
      <trkpt lat="59.24589796923101" lon="13.070477955043316">
        <ele>93.02</ele>
        <time>2025-02-03T01:34:41.346Z</time>
      </trkpt>
      <trkpt lat="59.24581599421799" lon="13.0704839900136">
        <ele>92.93</ele>
        <time>2025-02-03T01:34:47.875Z</time>
      </trkpt>
      <trkpt lat="59.24573192372918" lon="13.070491952821612">
        <ele>92.84</ele>
        <time>2025-02-03T01:34:54.406Z</time>
      </trkpt>
      <trkpt lat="59.24564693123102" lon="13.070502933114767">
        <ele>92.76</ele>
        <time>2025-02-03T01:35:00.938Z</time>
      </trkpt>
      <trkpt lat="59.24556294456124" lon="13.070523971691728">
        <ele>92.68</ele>
        <time>2025-02-03T01:35:07.472Z</time>
      </trkpt>
      <trkpt lat="59.24547493457794" lon="13.070555990561843">
        <ele>92.6</ele>
        <time>2025-02-03T01:35:14.007Z</time>
      </trkpt>
      <trkpt lat="59.24538692459464" lon="13.070598989725113">
        <ele>92.52</ele>
        <time>2025-02-03T01:35:20.543Z</time>
      </trkpt>
      <trkpt lat="59.24529799260199" lon="13.070652969181538">
        <ele>92.46</ele>
        <time>2025-02-03T01:35:27.081Z</time>
      </trkpt>
      <trkpt lat="59.24520998261869" lon="13.070720946416259">
        <ele>92.39</ele>
        <time>2025-02-03T01:35:33.620Z</time>
      </trkpt>
      <trkpt lat="59.24512599594891" lon="13.070797976106405">
        <ele>92.34</ele>
        <time>2025-02-03T01:35:40.161Z</time>
      </trkpt>
      <trkpt lat="59.24504494294524" lon="13.070879951119423">
        <ele>92.29</ele>
        <time>2025-02-03T01:35:46.703Z</time>
      </trkpt>
      <trkpt lat="59.244968919083476" lon="13.070964943617582">
        <ele>92.24</ele>
        <time>2025-02-03T01:35:53.247Z</time>
      </trkpt>
      <trkpt lat="59.244895996525884" lon="13.071045996621251">
        <ele>92.19</ele>
        <time>2025-02-03T01:35:59.792Z</time>
      </trkpt>
      <trkpt lat="59.24482491798699" lon="13.071119925007224">
        <ele>92.15</ele>
        <time>2025-02-03T01:36:06.338Z</time>
      </trkpt>
      <trkpt lat="59.24475794658065" lon="13.071187986060977">
        <ele>92.1</ele>
        <time>2025-02-03T01:36:12.886Z</time>
      </trkpt>
      <trkpt lat="59.244683934375644" lon="13.071268955245614">
        <ele>92.07</ele>
        <time>2025-02-03T01:36:19.435Z</time>
      </trkpt>
      <trkpt lat="59.2446169629693" lon="13.071326958015561">
        <ele>92.03</ele>
        <time>2025-02-03T01:36:25.985Z</time>
      </trkpt>
      <trkpt lat="59.24455099739134" lon="13.071379931643605">
        <ele>92.0</ele>
        <time>2025-02-03T01:36:32.536Z</time>
      </trkpt>
      <trkpt lat="59.24448494799435" lon="13.071425948292017">
        <ele>91.96</ele>
        <time>2025-02-03T01:36:39.088Z</time>
      </trkpt>
      <trkpt lat="59.24442099407315" lon="13.071463918313384">
        <ele>91.94</ele>
        <time>2025-02-03T01:36:45.642Z</time>
      </trkpt>
      <trkpt lat="59.24435896798968" lon="13.07149694301188">
        <ele>91.91</ele>
        <time>2025-02-03T01:36:52.197Z</time>
      </trkpt>
      <trkpt lat="59.244298953562975" lon="13.071527956053615">
        <ele>91.89</ele>
        <time>2025-02-03T01:36:58.753Z</time>
      </trkpt>
      <trkpt lat="59.24424396827817" lon="13.071552934125066">
        <ele>91.87</ele>
        <time>2025-02-03T01:37:05.309Z</time>
      </trkpt>
      <trkpt lat="59.244192922487855" lon="13.071578918024898">
        <ele>91.85</ele>
        <time>2025-02-03T01:37:11.866Z</time>
      </trkpt>
      <trkpt lat="59.24414196051657" lon="13.071606997400522">
        <ele>91.84</ele>
        <time>2025-02-03T01:37:18.424Z</time>
      </trkpt>
      <trkpt lat="59.24409192055464" lon="13.071633987128735">
        <ele>91.83</ele>
        <time>2025-02-03T01:37:24.983Z</time>
      </trkpt>
      <trkpt lat="59.244040958583355" lon="13.071660976856947">
        <ele>91.82</ele>
        <time>2025-02-03T01:37:31.543Z</time>
      </trkpt>
      <trkpt lat="59.24398798495531" lon="13.071692995727062">
        <ele>91.82</ele>
        <time>2025-02-03T01:37:38.104Z</time>
      </trkpt>
      <trkpt lat="59.243936939164996" lon="13.071723924949765">
        <ele>91.82</ele>
        <time>2025-02-03T01:37:44.666Z</time>
      </trkpt>
      <trkpt lat="59.24388597719371" lon="13.071758961305022">
        <ele>91.82</ele>
        <time>2025-02-03T01:37:51.228Z</time>
      </trkpt>
      <trkpt lat="59.2438349314034" lon="13.07179693132639">
        <ele>91.82</ele>
        <time>2025-02-03T01:37:57.791Z</time>
      </trkpt>
      <trkpt lat="59.243782963603735" lon="13.071842947974801">
        <ele>91.83</ele>
        <time>2025-02-03T01:38:04.355Z</time>
      </trkpt>
      <trkpt lat="59.24373493529856" lon="13.071888964623213">
        <ele>91.84</ele>
        <time>2025-02-03T01:38:10.920Z</time>
      </trkpt>
      <trkpt lat="59.24368497915566" lon="13.071929952129722">
        <ele>91.86</ele>
        <time>2025-02-03T01:38:17.486Z</time>
      </trkpt>
      <trkpt lat="59.243634939193726" lon="13.071971945464611">
        <ele>91.87</ele>
        <time>2025-02-03T01:38:24.053Z</time>
      </trkpt>
      <trkpt lat="59.2435809597373" lon="13.072014944627881">
        <ele>91.89</ele>
        <time>2025-02-03T01:38:30.621Z</time>
      </trkpt>
      <trkpt lat="59.243524968624115" lon="13.072058949619532">
        <ele>91.92</ele>
        <time>2025-02-03T01:38:37.190Z</time>
      </trkpt>
      <trkpt lat="59.24346897751093" lon="13.072104966267943">
        <ele>91.95</ele>
        <time>2025-02-03T01:38:43.760Z</time>
      </trkpt>
      <trkpt lat="59.24341097474098" lon="13.072152994573116">
        <ele>91.98</ele>
        <time>2025-02-03T01:38:50.331Z</time>
      </trkpt>
      <trkpt lat="59.243351966142654" lon="13.072196999564767">
        <ele>92.01</ele>
        <time>2025-02-03T01:38:56.903Z</time>
      </trkpt>
      <trkpt lat="59.243291951715946" lon="13.072238992899656">
        <ele>92.05</ele>
        <time>2025-02-03T01:39:03.476Z</time>
      </trkpt>
      <trkpt lat="59.24323093146086" lon="13.072276962921023">
        <ele>92.1</ele>
        <time>2025-02-03T01:39:10.050Z</time>
      </trkpt>
      <trkpt lat="59.2431699950248" lon="13.0723109934479">
        <ele>92.15</ele>
        <time>2025-02-03T01:39:16.625Z</time>
      </trkpt>
      <trkpt lat="59.24310796894133" lon="13.072341922670603">
        <ele>92.2</ele>
        <time>2025-02-03T01:39:23.201Z</time>
      </trkpt>
      <trkpt lat="59.24304594285786" lon="13.072369918227196">
        <ele>92.25</ele>
        <time>2025-02-03T01:39:29.778Z</time>
      </trkpt>
      <trkpt lat="59.24298198893666" lon="13.07240093126893">
        <ele>92.3</ele>
        <time>2025-02-03T01:39:36.356Z</time>
      </trkpt>
      <trkpt lat="59.24291694536805" lon="13.072431944310665">
        <ele>92.37</ele>
        <time>2025-02-03T01:39:42.935Z</time>
      </trkpt>
      <trkpt lat="59.24285399727523" lon="13.072452982887626">
        <ele>92.43</ele>
        <time>2025-02-03T01:39:49.515Z</time>
      </trkpt>
      <trkpt lat="59.24279096536338" lon="13.072472931817174">
        <ele>92.5</ele>
        <time>2025-02-03T01:39:56.096Z</time>
      </trkpt>
      <trkpt lat="59.24272592179477" lon="13.072491958737373">
        <ele>92.57</ele>
        <time>2025-02-03T01:40:02.678Z</time>
      </trkpt>
      <trkpt lat="59.24265995621681" lon="13.072513919323683">
        <ele>92.64</ele>
        <time>2025-02-03T01:40:09.261Z</time>
      </trkpt>
      <trkpt lat="59.24259499646723" lon="13.072535963729024">
        <ele>92.72</ele>
        <time>2025-02-03T01:40:15.845Z</time>
      </trkpt>
      <trkpt lat="59.24252693541348" lon="13.072559935972095">
        <ele>92.8</ele>
        <time>2025-02-03T01:40:22.430Z</time>
      </trkpt>
      <trkpt lat="59.24245895817876" lon="13.072586925700307">
        <ele>92.88</ele>
        <time>2025-02-03T01:40:29.016Z</time>
      </trkpt>
      <trkpt lat="59.24239098094404" lon="13.072613999247551">
        <ele>92.97</ele>
        <time>2025-02-03T01:40:35.604Z</time>
      </trkpt>
      <trkpt lat="59.242324931547046" lon="13.07263595983386">
        <ele>93.06</ele>
        <time>2025-02-03T01:40:42.193Z</time>
      </trkpt>
      <trkpt lat="59.24226298928261" lon="13.072650963440537">
        <ele>93.16</ele>
        <time>2025-02-03T01:40:48.783Z</time>
      </trkpt>
      <trkpt lat="59.24219995737076" lon="13.072679964825511">
        <ele>93.25</ele>
        <time>2025-02-03T01:40:55.374Z</time>
      </trkpt>
      <trkpt lat="59.24213692545891" lon="13.072707960382104">
        <ele>93.35</ele>
        <time>2025-02-03T01:41:01.966Z</time>
      </trkpt>
      <trkpt lat="59.24207498319447" lon="13.072730926796794">
        <ele>93.46</ele>
        <time>2025-02-03T01:41:08.559Z</time>
      </trkpt>
      <trkpt lat="59.24201698042452" lon="13.072749953716993">
        <ele>93.57</ele>
        <time>2025-02-03T01:41:15.153Z</time>
      </trkpt>
      <trkpt lat="59.241958977654576" lon="13.072768980637193">
        <ele>93.68</ele>
        <time>2025-02-03T01:41:21.748Z</time>
      </trkpt>
      <trkpt lat="59.24190399236977" lon="13.07278398424387">
        <ele>93.79</ele>
        <time>2025-02-03T01:41:28.344Z</time>
      </trkpt>
      <trkpt lat="59.241850934922695" lon="13.072800999507308">
        <ele>93.91</ele>
        <time>2025-02-03T01:41:34.940Z</time>
      </trkpt>
      <trkpt lat="59.241802990436554" lon="13.072816925123334">
        <ele>94.03</ele>
        <time>2025-02-03T01:41:41.537Z</time>
      </trkpt>
      <trkpt lat="59.24175596795976" lon="13.072831928730011">
        <ele>94.15</ele>
        <time>2025-02-03T01:41:48.135Z</time>
      </trkpt>
      <trkpt lat="59.24170693382621" lon="13.072842992842197">
        <ele>94.27</ele>
        <time>2025-02-03T01:41:54.734Z</time>
      </trkpt>
      <trkpt lat="59.24166292883456" lon="13.072847938165069">
        <ele>94.4</ele>
        <time>2025-02-03T01:42:01.333Z</time>
      </trkpt>
      <trkpt lat="59.24162697046995" lon="13.072846932336688">
        <ele>94.53</ele>
        <time>2025-02-03T01:42:07.933Z</time>
      </trkpt>
      <trkpt lat="59.241592939943075" lon="13.072847938165069">
        <ele>94.66</ele>
        <time>2025-02-03T01:42:14.534Z</time>
      </trkpt>
      <trkpt lat="59.24155496992171" lon="13.072858918458223">
        <ele>94.79</ele>
        <time>2025-02-03T01:42:21.135Z</time>
      </trkpt>
      <trkpt lat="59.24151892773807" lon="13.07287098839879">
        <ele>94.93</ele>
        <time>2025-02-03T01:42:27.737Z</time>
      </trkpt>
      <trkpt lat="59.241481963545084" lon="13.072882974520326">
        <ele>95.06</ele>
        <time>2025-02-03T01:42:34.339Z</time>
      </trkpt>
      <trkpt lat="59.24144893884659" lon="13.072886997833848">
        <ele>95.2</ele>
        <time>2025-02-03T01:42:40.942Z</time>
      </trkpt>
      <trkpt lat="59.2414119746536" lon="13.07289395481348">
        <ele>95.34</ele>
        <time>2025-02-03T01:42:47.545Z</time>
      </trkpt>
      <trkpt lat="59.241376938298345" lon="13.072896972298622">
        <ele>95.49</ele>
        <time>2025-02-03T01:42:54.149Z</time>
      </trkpt>
      <trkpt lat="59.2413429915905" lon="13.072900995612144">
        <ele>95.63</ele>
        <time>2025-02-03T01:43:00.754Z</time>
      </trkpt>
      <trkpt lat="59.24130594357848" lon="13.072906946763396">
        <ele>95.78</ele>
        <time>2025-02-03T01:43:07.359Z</time>
      </trkpt>
      <trkpt lat="59.24127199687064" lon="13.07291398756206">
        <ele>95.93</ele>
        <time>2025-02-03T01:43:13.965Z</time>
      </trkpt>
      <trkpt lat="59.241235954687" lon="13.072921950370073">
        <ele>96.08</ele>
        <time>2025-02-03T01:43:20.571Z</time>
      </trkpt>
      <trkpt lat="59.24119798466563" lon="13.072929996997118">
        <ele>96.24</ele>
        <time>2025-02-03T01:43:27.178Z</time>
      </trkpt>
      <trkpt lat="59.241160936653614" lon="13.07293695397675">
        <ele>96.39</ele>
        <time>2025-02-03T01:43:33.786Z</time>
      </trkpt>
      <trkpt lat="59.24112497828901" lon="13.072942988947034">
        <ele>96.55</ele>
        <time>2025-02-03T01:43:40.394Z</time>
      </trkpt>
      <trkpt lat="59.24108591862023" lon="13.07295497506857">
        <ele>96.71</ele>
        <time>2025-02-03T01:43:47.003Z</time>
      </trkpt>
      <trkpt lat="59.2410459369421" lon="13.072968972846866">
        <ele>96.87</ele>
        <time>2025-02-03T01:43:53.612Z</time>
      </trkpt>
      <trkpt lat="59.24100696109235" lon="13.072983976453543">
        <ele>97.03</ele>
        <time>2025-02-03T01:44:00.222Z</time>
      </trkpt>
      <trkpt lat="59.24096396192908" lon="13.072996968403459">
        <ele>97.2</ele>
        <time>2025-02-03T01:44:06.833Z</time>
      </trkpt>
      <trkpt lat="59.240922974422574" lon="13.073008954524994">
        <ele>97.36</ele>
        <time>2025-02-03T01:44:13.444Z</time>
      </trkpt>
      <trkpt lat="59.2408749461174" lon="13.073026975616813">
        <ele>97.53</ele>
        <time>2025-02-03T01:44:20.056Z</time>
      </trkpt>
      <trkpt lat="59.24083395861089" lon="13.073038961738348">
        <ele>97.7</ele>
        <time>2025-02-03T01:44:26.669Z</time>
      </trkpt>
      <trkpt lat="59.240791965276" lon="13.073051953688264">
        <ele>97.87</ele>
        <time>2025-02-03T01:44:33.283Z</time>
      </trkpt>
      <trkpt lat="59.24074997194111" lon="13.07306494563818">
        <ele>98.04</ele>
        <time>2025-02-03T01:44:39.897Z</time>
      </trkpt>
      <trkpt lat="59.24070294946432" lon="13.073081960901618">
        <ele>98.21</ele>
        <time>2025-02-03T01:44:46.512Z</time>
      </trkpt>
      <trkpt lat="59.2406539991498" lon="13.073096964508295">
        <ele>98.38</ele>
        <time>2025-02-03T01:44:53.128Z</time>
      </trkpt>
      <trkpt lat="59.24059993587434" lon="13.073113979771733">
        <ele>98.55</ele>
        <time>2025-02-03T01:44:59.745Z</time>
      </trkpt>
      <trkpt lat="59.240540927276015" lon="13.073132922872901">
        <ele>98.72</ele>
        <time>2025-02-03T01:45:06.363Z</time>
      </trkpt>
      <trkpt lat="59.2404779791832" lon="13.073153961449862">
        <ele>98.89</ele>
        <time>2025-02-03T01:45:12.982Z</time>
      </trkpt>
      <trkpt lat="59.240412935614586" lon="13.073178939521313">
        <ele>99.06</ele>
        <time>2025-02-03T01:45:19.602Z</time>
      </trkpt>
      <trkpt lat="59.240345964208245" lon="13.073206935077906">
        <ele>99.23</ele>
        <time>2025-02-03T01:45:26.223Z</time>
      </trkpt>
      <trkpt lat="59.24027698114514" lon="13.073238953948021">
        <ele>99.41</ele>
        <time>2025-02-03T01:45:32.845Z</time>
      </trkpt>
      <trkpt lat="59.24020799808204" lon="13.073271978646517">
        <ele>99.59</ele>
        <time>2025-02-03T01:45:39.468Z</time>
      </trkpt>
      <trkpt lat="59.24013691954315" lon="13.073306931182742">
        <ele>99.77</ele>
        <time>2025-02-03T01:45:46.092Z</time>
      </trkpt>
      <trkpt lat="59.240064918994904" lon="13.073338950052857">
        <ele>99.94</ele>
        <time>2025-02-03T01:45:52.717Z</time>
      </trkpt>
      <trkpt lat="59.23999493010342" lon="13.07336593978107">
        <ele>100.12</ele>
        <time>2025-02-03T01:45:59.344Z</time>
      </trkpt>
      <trkpt lat="59.23992292955518" lon="13.073390917852521">
        <ele>100.3</ele>
        <time>2025-02-03T01:46:05.972Z</time>
      </trkpt>
      <trkpt lat="59.239851934835315" lon="13.073412962257862">
        <ele>100.48</ele>
        <time>2025-02-03T01:46:12.601Z</time>
      </trkpt>
      <trkpt lat="59.23978194594383" lon="13.073433917015791">
        <ele>100.67</ele>
        <time>2025-02-03T01:46:19.231Z</time>
      </trkpt>
      <trkpt lat="59.23971296288073" lon="13.073449926450849">
        <ele>100.86</ele>
        <time>2025-02-03T01:46:25.862Z</time>
      </trkpt>
      <trkpt lat="59.23964791931212" lon="13.073462918400764">
        <ele>101.05</ele>
        <time>2025-02-03T01:46:32.494Z</time>
      </trkpt>
      <trkpt lat="59.2395849712193" lon="13.07347297668457">
        <ele>101.25</ele>
        <time>2025-02-03T01:46:39.127Z</time>
      </trkpt>
      <trkpt lat="59.23952495679259" lon="13.073479933664203">
        <ele>101.44</ele>
        <time>2025-02-03T01:46:45.761Z</time>
      </trkpt>
      <trkpt lat="59.23946795985103" lon="13.073484962806106">
        <ele>101.64</ele>
        <time>2025-02-03T01:46:52.396Z</time>
      </trkpt>
      <trkpt lat="59.23941297456622" lon="13.073487980291247">
        <ele>101.83</ele>
        <time>2025-02-03T01:46:59.032Z</time>
      </trkpt>
      <trkpt lat="59.239357989281416" lon="13.073487980291247">
        <ele>102.03</ele>
        <time>2025-02-03T01:47:05.669Z</time>
      </trkpt>
      <trkpt lat="59.23930099233985" lon="13.073484962806106">
        <ele>102.23</ele>
        <time>2025-02-03T01:47:12.307Z</time>
      </trkpt>
      <trkpt lat="59.23924692906439" lon="13.073476999998093">
        <ele>102.43</ele>
        <time>2025-02-03T01:47:18.946Z</time>
      </trkpt>
      <trkpt lat="59.23919294960797" lon="13.073466941714287">
        <ele>102.63</ele>
        <time>2025-02-03T01:47:25.586Z</time>
      </trkpt>
      <trkpt lat="59.23913796432316" lon="13.07345294393599">
        <ele>102.83</ele>
        <time>2025-02-03T01:47:32.226Z</time>
      </trkpt>
      <trkpt lat="59.2390809673816" lon="13.073435928672552">
        <ele>103.03</ele>
        <time>2025-02-03T01:47:38.867Z</time>
      </trkpt>
      <trkpt lat="59.23902397044003" lon="13.073419919237494">
        <ele>103.23</ele>
        <time>2025-02-03T01:47:45.509Z</time>
      </trkpt>
      <trkpt lat="59.238966973498464" lon="13.073399970307946">
        <ele>103.43</ele>
        <time>2025-02-03T01:47:52.152Z</time>
      </trkpt>
      <trkpt lat="59.23891198821366" lon="13.073380943387747">
        <ele>103.64</ele>
        <time>2025-02-03T01:47:58.796Z</time>
      </trkpt>
      <trkpt lat="59.23885691910982" lon="13.073363928124309">
        <ele>103.84</ele>
        <time>2025-02-03T01:48:05.441Z</time>
      </trkpt>
      <trkpt lat="59.2388029396534" lon="13.073347918689251">
        <ele>104.05</ele>
        <time>2025-02-03T01:48:12.087Z</time>
      </trkpt>
      <trkpt lat="59.23874996602535" lon="13.073330987244844">
        <ele>104.26</ele>
        <time>2025-02-03T01:48:18.734Z</time>
      </trkpt>
      <trkpt lat="59.23869892023504" lon="13.073313971981406">
        <ele>104.46</ele>
        <time>2025-02-03T01:48:25.382Z</time>
      </trkpt>
      <trkpt lat="59.238648964092135" lon="13.07330098003149">
        <ele>104.67</ele>
        <time>2025-02-03T01:48:32.030Z</time>
      </trkpt>
      <trkpt lat="59.23860093578696" lon="13.073291927576065">
        <ele>104.88</ele>
        <time>2025-02-03T01:48:38.679Z</time>
      </trkpt>
      <trkpt lat="59.23855592496693" lon="13.07327893562615">
        <ele>105.09</ele>
        <time>2025-02-03T01:48:45.329Z</time>
      </trkpt>
      <trkpt lat="59.23851191997528" lon="13.073264937847853">
        <ele>105.3</ele>
        <time>2025-02-03T01:48:51.980Z</time>
      </trkpt>
      <trkpt lat="59.23846699297428" lon="13.073250940069556">
        <ele>105.51</ele>
        <time>2025-02-03T01:48:58.631Z</time>
      </trkpt>
      <trkpt lat="59.23842198215425" lon="13.073234930634499">
        <ele>105.71</ele>
        <time>2025-02-03T01:49:05.283Z</time>
      </trkpt>
      <trkpt lat="59.2383779771626" lon="13.073217999190092">
        <ele>105.92</ele>
        <time>2025-02-03T01:49:11.936Z</time>
      </trkpt>
      <trkpt lat="59.23833497799933" lon="13.073199978098273">
        <ele>106.13</ele>
        <time>2025-02-03T01:49:18.589Z</time>
      </trkpt>
      <trkpt lat="59.23829197883606" lon="13.073179945349693">
        <ele>106.34</ele>
        <time>2025-02-03T01:49:25.243Z</time>
      </trkpt>
      <trkpt lat="59.23824897967279" lon="13.073158990591764">
        <ele>106.55</ele>
        <time>2025-02-03T01:49:31.898Z</time>
      </trkpt>
      <trkpt lat="59.23820799216628" lon="13.073137952014804">
        <ele>106.75</ele>
        <time>2025-02-03T01:49:38.554Z</time>
      </trkpt>
      <trkpt lat="59.23816499300301" lon="13.073116997256875">
        <ele>106.96</ele>
        <time>2025-02-03T01:49:45.210Z</time>
      </trkpt>
      <trkpt lat="59.23812199383974" lon="13.073093947023153">
        <ele>107.17</ele>
        <time>2025-02-03T01:49:51.867Z</time>
      </trkpt>
      <trkpt lat="59.23807899467647" lon="13.073070980608463">
        <ele>107.38</ele>
        <time>2025-02-03T01:49:58.525Z</time>
      </trkpt>
      <trkpt lat="59.2380359955132" lon="13.073048936203122">
        <ele>107.58</ele>
        <time>2025-02-03T01:50:05.183Z</time>
      </trkpt>
      <trkpt lat="59.23799299634993" lon="13.073023958131671">
        <ele>107.79</ele>
        <time>2025-02-03T01:50:11.842Z</time>
      </trkpt>
      <trkpt lat="59.2379479855299" lon="13.072996968403459">
        <ele>108.0</ele>
        <time>2025-02-03T01:50:18.502Z</time>
      </trkpt>
      <trkpt lat="59.23790196888149" lon="13.072970984503627">
        <ele>108.2</ele>
        <time>2025-02-03T01:50:25.163Z</time>
      </trkpt>
      <trkpt lat="59.23785796388984" lon="13.072945922613144">
        <ele>108.4</ele>
        <time>2025-02-03T01:50:31.824Z</time>
      </trkpt>
      <trkpt lat="59.237812953069806" lon="13.072919938713312">
        <ele>108.61</ele>
        <time>2025-02-03T01:50:38.486Z</time>
      </trkpt>
      <trkpt lat="59.237768948078156" lon="13.07289194315672">
        <ele>108.81</ele>
        <time>2025-02-03T01:50:45.149Z</time>
      </trkpt>
      <trkpt lat="59.237722931429744" lon="13.072861935943365">
        <ele>109.01</ele>
        <time>2025-02-03T01:50:51.813Z</time>
      </trkpt>
      <trkpt lat="59.237676998600364" lon="13.07282991707325">
        <ele>109.21</ele>
        <time>2025-02-03T01:50:58.477Z</time>
      </trkpt>
      <trkpt lat="59.23762997612357" lon="13.072799993678927">
        <ele>109.41</ele>
        <time>2025-02-03T01:51:05.142Z</time>
      </trkpt>
      <trkpt lat="59.23758295364678" lon="13.072771998122334">
        <ele>109.61</ele>
        <time>2025-02-03T01:51:11.808Z</time>
      </trkpt>
      <trkpt lat="59.23753593116999" lon="13.07274199090898">
        <ele>109.81</ele>
        <time>2025-02-03T01:51:18.475Z</time>
      </trkpt>
      <trkpt lat="59.237486980855465" lon="13.072712989524007">
        <ele>110.0</ele>
        <time>2025-02-03T01:51:25.143Z</time>
      </trkpt>
      <trkpt lat="59.23743794672191" lon="13.072686921805143">
        <ele>110.2</ele>
        <time>2025-02-03T01:51:31.811Z</time>
      </trkpt>
      <trkpt lat="59.23738799057901" lon="13.072661943733692">
        <ele>110.4</ele>
        <time>2025-02-03T01:51:38.480Z</time>
      </trkpt>
      <trkpt lat="59.237338956445456" lon="13.072636965662241">
        <ele>110.59</ele>
        <time>2025-02-03T01:51:45.150Z</time>
      </trkpt>
      <trkpt lat="59.2372899223119" lon="13.07261198759079">
        <ele>110.78</ele>
        <time>2025-02-03T01:51:51.821Z</time>
      </trkpt>
      <trkpt lat="59.23724197782576" lon="13.072586925700307">
        <ele>110.98</ele>
        <time>2025-02-03T01:51:58.493Z</time>
      </trkpt>
      <trkpt lat="59.23719193786383" lon="13.072561947628856">
        <ele>111.17</ele>
        <time>2025-02-03T01:52:05.166Z</time>
      </trkpt>
      <trkpt lat="59.237142987549305" lon="13.072535963729024">
        <ele>111.36</ele>
        <time>2025-02-03T01:52:11.839Z</time>
      </trkpt>
      <trkpt lat="59.23709294758737" lon="13.072514925152063">
        <ele>111.56</ele>
        <time>2025-02-03T01:52:18.513Z</time>
      </trkpt>
      <trkpt lat="59.23704299144447" lon="13.072492964565754">
        <ele>111.75</ele>
        <time>2025-02-03T01:52:25.188Z</time>
      </trkpt>
      <trkpt lat="59.236993957310915" lon="13.072468992322683">
        <ele>111.94</ele>
        <time>2025-02-03T01:52:31.864Z</time>
      </trkpt>
      <trkpt lat="59.23694592900574" lon="13.072444936260581">
        <ele>112.13</ele>
        <time>2025-02-03T01:52:38.541Z</time>
      </trkpt>
      <trkpt lat="59.2368979845196" lon="13.07241895236075">
        <ele>112.32</ele>
        <time>2025-02-03T01:52:45.218Z</time>
      </trkpt>
      <trkpt lat="59.23684995621443" lon="13.072391962632537">
        <ele>112.51</ele>
        <time>2025-02-03T01:52:51.896Z</time>
      </trkpt>
      <trkpt lat="59.236800922080874" lon="13.072366984561086">
        <ele>112.7</ele>
        <time>2025-02-03T01:52:58.575Z</time>
      </trkpt>
      <trkpt lat="59.23675197176635" lon="13.072341922670603">
        <ele>112.88</ele>
        <time>2025-02-03T01:53:05.255Z</time>
      </trkpt>
      <trkpt lat="59.23670394346118" lon="13.07231392711401">
        <ele>113.06</ele>
        <time>2025-02-03T01:53:11.936Z</time>
      </trkpt>
      <trkpt lat="59.23666094429791" lon="13.072281992062926">
        <ele>113.25</ele>
        <time>2025-02-03T01:53:18.617Z</time>
      </trkpt>
      <trkpt lat="59.23661593347788" lon="13.072250979021192">
        <ele>113.43</ele>
        <time>2025-02-03T01:53:25.299Z</time>
      </trkpt>
      <trkpt lat="59.23657192848623" lon="13.072219965979457">
        <ele>113.61</ele>
        <time>2025-02-03T01:53:31.982Z</time>
      </trkpt>
      <trkpt lat="59.23652599565685" lon="13.072189958766103">
        <ele>113.78</ele>
        <time>2025-02-03T01:53:38.666Z</time>
      </trkpt>
      <trkpt lat="59.236479979008436" lon="13.072158945724368">
        <ele>113.96</ele>
        <time>2025-02-03T01:53:45.350Z</time>
      </trkpt>
      <trkpt lat="59.236433962360024" lon="13.072126926854253">
        <ele>114.14</ele>
        <time>2025-02-03T01:53:52.035Z</time>
      </trkpt>
      <trkpt lat="59.23638593405485" lon="13.072093985974789">
        <ele>114.31</ele>
        <time>2025-02-03T01:53:58.721Z</time>
      </trkpt>
      <trkpt lat="59.23633497208357" lon="13.072066996246576">
        <ele>114.48</ele>
        <time>2025-02-03T01:54:05.408Z</time>
      </trkpt>
      <trkpt lat="59.236281998455524" lon="13.072040928527713">
        <ele>114.65</ele>
        <time>2025-02-03T01:54:12.096Z</time>
      </trkpt>
      <trkpt lat="59.23623095266521" lon="13.07201293297112">
        <ele>114.82</ele>
        <time>2025-02-03T01:54:18.785Z</time>
      </trkpt>
      <trkpt lat="59.23617999069393" lon="13.071985943242908">
        <ele>114.98</ele>
        <time>2025-02-03T01:54:25.474Z</time>
      </trkpt>
      <trkpt lat="59.23612693324685" lon="13.071960965171456">
        <ele>115.15</ele>
        <time>2025-02-03T01:54:32.164Z</time>
      </trkpt>
      <trkpt lat="59.23607496544719" lon="13.071937998756766">
        <ele>115.31</ele>
        <time>2025-02-03T01:54:38.855Z</time>
      </trkpt>
      <trkpt lat="59.23602391965687" lon="13.071911931037903">
        <ele>115.46</ele>
        <time>2025-02-03T01:54:45.547Z</time>
      </trkpt>
      <trkpt lat="59.23597094602883" lon="13.071885947138071">
        <ele>115.62</ele>
        <time>2025-02-03T01:54:52.240Z</time>
      </trkpt>
      <trkpt lat="59.235918978229165" lon="13.07185996323824">
        <ele>115.77</ele>
        <time>2025-02-03T01:54:58.934Z</time>
      </trkpt>
      <trkpt lat="59.23586592078209" lon="13.071832973510027">
        <ele>115.92</ele>
        <time>2025-02-03T01:55:05.629Z</time>
      </trkpt>
      <trkpt lat="59.235811941325665" lon="13.071807995438576">
        <ele>116.07</ele>
        <time>2025-02-03T01:55:12.325Z</time>
      </trkpt>
      <trkpt lat="59.23575695604086" lon="13.071781927719712">
        <ele>116.22</ele>
        <time>2025-02-03T01:55:19.021Z</time>
      </trkpt>
      <trkpt lat="59.23570096492767" lon="13.07175594381988">
        <ele>116.36</ele>
        <time>2025-02-03T01:55:25.718Z</time>
      </trkpt>
      <trkpt lat="59.23564396798611" lon="13.07173297740519">
        <ele>116.5</ele>
        <time>2025-02-03T01:55:32.416Z</time>
      </trkpt>
      <trkpt lat="59.23558495938778" lon="13.071709927171469">
        <ele>116.64</ele>
        <time>2025-02-03T01:55:39.115Z</time>
      </trkpt>
      <trkpt lat="59.23552595078945" lon="13.071683943271637">
        <ele>116.77</ele>
        <time>2025-02-03T01:55:45.815Z</time>
      </trkpt>
      <trkpt lat="59.23546593636274" lon="13.071656953543425">
        <ele>116.9</ele>
        <time>2025-02-03T01:55:52.516Z</time>
      </trkpt>
      <trkpt lat="59.235407933592796" lon="13.07162493467331">
        <ele>117.03</ele>
        <time>2025-02-03T01:55:59.218Z</time>
      </trkpt>
      <trkpt lat="59.23534699715674" lon="13.071595933288336">
        <ele>117.15</ele>
        <time>2025-02-03T01:56:05.921Z</time>
      </trkpt>
      <trkpt lat="59.23528497107327" lon="13.071571961045265">
        <ele>117.27</ele>
        <time>2025-02-03T01:56:12.625Z</time>
      </trkpt>
      <trkpt lat="59.23522596247494" lon="13.071550922468305">
        <ele>117.39</ele>
        <time>2025-02-03T01:56:19.330Z</time>
      </trkpt>
      <trkpt lat="59.23516393639147" lon="13.071536924690008">
        <ele>117.5</ele>
        <time>2025-02-03T01:56:26.036Z</time>
      </trkpt>
      <trkpt lat="59.235100988298655" lon="13.071527956053615">
        <ele>117.61</ele>
        <time>2025-02-03T01:56:32.743Z</time>
      </trkpt>
      <trkpt lat="59.235036950558424" lon="13.071520999073982">
        <ele>117.72</ele>
        <time>2025-02-03T01:56:39.451Z</time>
      </trkpt>
      <trkpt lat="59.234972996637225" lon="13.07151596993208">
        <ele>117.83</ele>
        <time>2025-02-03T01:56:46.160Z</time>
      </trkpt>
      <trkpt lat="59.2349139880389" lon="13.071502977982163">
        <ele>117.93</ele>
        <time>2025-02-03T01:56:52.870Z</time>
      </trkpt>
      <trkpt lat="59.234846932813525" lon="13.071494931355119">
        <ele>118.03</ele>
        <time>2025-02-03T01:56:59.581Z</time>
      </trkpt>
      <trkpt lat="59.23477694392204" lon="13.071490991860628">
        <ele>118.13</ele>
        <time>2025-02-03T01:57:06.293Z</time>
      </trkpt>
      <trkpt lat="59.23470393754542" lon="13.071484956890345">
        <ele>118.22</ele>
        <time>2025-02-03T01:57:13.007Z</time>
      </trkpt>
      <trkpt lat="59.23462296836078" lon="13.071475988253951">
        <ele>118.31</ele>
        <time>2025-02-03T01:57:19.722Z</time>
      </trkpt>
      <trkpt lat="59.23453797586262" lon="13.071466935798526">
        <ele>118.39</ele>
        <time>2025-02-03T01:57:26.438Z</time>
      </trkpt>
      <trkpt lat="59.23444996587932" lon="13.071455955505371">
        <ele>118.48</ele>
        <time>2025-02-03T01:57:33.156Z</time>
      </trkpt>
      <trkpt lat="59.2343579325825" lon="13.071443969383836">
        <ele>118.56</ele>
        <time>2025-02-03T01:57:39.875Z</time>
      </trkpt>
      <trkpt lat="59.234266988933086" lon="13.071426954120398">
        <ele>118.63</ele>
        <time>2025-02-03T01:57:46.596Z</time>
      </trkpt>
      <trkpt lat="59.23417495563626" lon="13.071408933028579">
        <ele>118.7</ele>
        <time>2025-02-03T01:57:53.318Z</time>
      </trkpt>
      <trkpt lat="59.23408099450171" lon="13.071397952735424">
        <ele>118.77</ele>
        <time>2025-02-03T01:58:00.042Z</time>
      </trkpt>
      <trkpt lat="59.233984937891364" lon="13.07139191776514">
        <ele>118.84</ele>
        <time>2025-02-03T01:58:06.767Z</time>
      </trkpt>
      <trkpt lat="59.23388393595815" lon="13.071389989927411">
        <ele>118.91</ele>
        <time>2025-02-03T01:58:13.494Z</time>
      </trkpt>
      <trkpt lat="59.23378595151007" lon="13.071393929421902">
        <ele>118.97</ele>
        <time>2025-02-03T01:58:20.222Z</time>
      </trkpt>
      <trkpt lat="59.23368897289038" lon="13.071404993534088">
        <ele>119.02</ele>
        <time>2025-02-03T01:58:26.952Z</time>
      </trkpt>
      <trkpt lat="59.23359199427068" lon="13.071417985484004">
        <ele>119.08</ele>
        <time>2025-02-03T01:58:33.683Z</time>
      </trkpt>
      <trkpt lat="59.23349694348872" lon="13.071438940241933">
        <ele>119.13</ele>
        <time>2025-02-03T01:58:40.416Z</time>
      </trkpt>
      <trkpt lat="59.23340197652578" lon="13.07147297076881">
        <ele>119.18</ele>
        <time>2025-02-03T01:58:47.151Z</time>
      </trkpt>
      <trkpt lat="59.23330893740058" lon="13.07151697576046">
        <ele>119.23</ele>
        <time>2025-02-03T01:58:53.887Z</time>
      </trkpt>
      <trkpt lat="59.23321698792279" lon="13.071577996015549">
        <ele>119.28</ele>
        <time>2025-02-03T01:59:00.625Z</time>
      </trkpt>
      <trkpt lat="59.233127972111106" lon="13.071653936058283">
        <ele>119.33</ele>
        <time>2025-02-03T01:59:07.364Z</time>
      </trkpt>
      <trkpt lat="59.23304398544133" lon="13.07173297740519">
        <ele>119.38</ele>
        <time>2025-02-03T01:59:14.105Z</time>
      </trkpt>
      <trkpt lat="59.23295798711479" lon="13.071807995438576">
        <ele>119.42</ele>
        <time>2025-02-03T01:59:20.847Z</time>
      </trkpt>
      <trkpt lat="59.232866959646344" lon="13.071874966844916">
        <ele>119.46</ele>
        <time>2025-02-03T01:59:27.591Z</time>
      </trkpt>
      <trkpt lat="59.23277392052114" lon="13.071929952129722">
        <ele>119.49</ele>
        <time>2025-02-03T01:59:34.336Z</time>
      </trkpt>
      <trkpt lat="59.232675936073065" lon="13.071973957121372">
        <ele>119.52</ele>
        <time>2025-02-03T01:59:41.083Z</time>
      </trkpt>
      <trkpt lat="59.23258197493851" lon="13.072002958506346">
        <ele>119.54</ele>
        <time>2025-02-03T01:59:47.831Z</time>
      </trkpt>
      <trkpt lat="59.23249094747007" lon="13.072017962113023">
        <ele>119.55</ele>
        <time>2025-02-03T01:59:54.581Z</time>
      </trkpt>
      <trkpt lat="59.23239899799228" lon="13.072027936577797">
        <ele>119.56</ele>
        <time>2025-02-03T02:00:01.332Z</time>
      </trkpt>
      <trkpt lat="59.232310988008976" lon="13.072025924921036">
        <ele>119.57</ele>
        <time>2025-02-03T02:00:08.085Z</time>
      </trkpt>
      <trkpt lat="59.232224989682436" lon="13.072024919092655">
        <ele>119.58</ele>
        <time>2025-02-03T02:00:14.839Z</time>
      </trkpt>
      <trkpt lat="59.232138991355896" lon="13.072022991254926">
        <ele>119.58</ele>
        <time>2025-02-03T02:00:21.595Z</time>
      </trkpt>
      <trkpt lat="59.232052993029356" lon="13.072024919092655">
        <ele>119.58</ele>
        <time>2025-02-03T02:00:28.352Z</time>
      </trkpt>
      <trkpt lat="59.231964983046055" lon="13.072028942406178">
        <ele>119.57</ele>
        <time>2025-02-03T02:00:35.110Z</time>
      </trkpt>
      <trkpt lat="59.231880996376276" lon="13.07203397154808">
        <ele>119.55</ele>
        <time>2025-02-03T02:00:41.870Z</time>
      </trkpt>
      <trkpt lat="59.231796925887465" lon="13.072040928527713">
        <ele>119.54</ele>
        <time>2025-02-03T02:00:48.631Z</time>
      </trkpt>
      <trkpt lat="59.23171293921769" lon="13.072046963497996">
        <ele>119.52</ele>
        <time>2025-02-03T02:00:55.393Z</time>
      </trkpt>
      <trkpt lat="59.23162995837629" lon="13.072046963497996">
        <ele>119.5</ele>
        <time>2025-02-03T02:01:02.157Z</time>
      </trkpt>
      <trkpt lat="59.23154798336327" lon="13.072042940184474">
        <ele>119.48</ele>
        <time>2025-02-03T02:01:08.922Z</time>
      </trkpt>
      <trkpt lat="59.23146491870284" lon="13.072040928527713">
        <ele>119.44</ele>
        <time>2025-02-03T02:01:15.688Z</time>
      </trkpt>
      <trkpt lat="59.231384955346584" lon="13.072040928527713">
        <ele>119.41</ele>
        <time>2025-02-03T02:01:22.456Z</time>
      </trkpt>
      <trkpt lat="59.23130298033357" lon="13.072036989033222">
        <ele>119.37</ele>
        <time>2025-02-03T02:01:29.225Z</time>
      </trkpt>
      <trkpt lat="59.2312219273299" lon="13.072025924921036">
        <ele>119.33</ele>
        <time>2025-02-03T02:01:35.995Z</time>
      </trkpt>
      <trkpt lat="59.23114095814526" lon="13.07200899347663">
        <ele>119.28</ele>
        <time>2025-02-03T02:01:42.767Z</time>
      </trkpt>
      <trkpt lat="59.23106191679835" lon="13.071983931586146">
        <ele>119.24</ele>
        <time>2025-02-03T02:01:49.540Z</time>
      </trkpt>
      <trkpt lat="59.23098295927048" lon="13.071954930201173">
        <ele>119.19</ele>
        <time>2025-02-03T02:01:56.314Z</time>
      </trkpt>
      <trkpt lat="59.23090794123709" lon="13.071917966008186">
        <ele>119.13</ele>
        <time>2025-02-03T02:02:03.089Z</time>
      </trkpt>
      <trkpt lat="59.230831917375326" lon="13.071871949359775">
        <ele>119.07</ele>
        <time>2025-02-03T02:02:09.866Z</time>
      </trkpt>
      <trkpt lat="59.23075597733259" lon="13.071820987388492">
        <ele>119.01</ele>
        <time>2025-02-03T02:02:16.644Z</time>
      </trkpt>
      <trkpt lat="59.23068196512759" lon="13.071764996275306">
        <ele>118.94</ele>
        <time>2025-02-03T02:02:23.423Z</time>
      </trkpt>
      <trkpt lat="59.23060795292258" lon="13.071708921343088">
        <ele>118.87</ele>
        <time>2025-02-03T02:02:30.204Z</time>
      </trkpt>
      <trkpt lat="59.23053695820272" lon="13.071655947715044">
        <ele>118.8</ele>
        <time>2025-02-03T02:02:36.986Z</time>
      </trkpt>
      <trkpt lat="59.23046696931124" lon="13.071600962430239">
        <ele>118.72</ele>
        <time>2025-02-03T02:02:43.769Z</time>
      </trkpt>
      <trkpt lat="59.230397986248136" lon="13.071547988802195">
        <ele>118.63</ele>
        <time>2025-02-03T02:02:50.553Z</time>
      </trkpt>
      <trkpt lat="59.23032992519438" lon="13.071500966325402">
        <ele>118.54</ele>
        <time>2025-02-03T02:02:57.338Z</time>
      </trkpt>
      <trkpt lat="59.23026395961642" lon="13.071459978818893">
        <ele>118.45</ele>
        <time>2025-02-03T02:03:04.124Z</time>
      </trkpt>
      <trkpt lat="59.23020092770457" lon="13.071418991312385">
        <ele>118.35</ele>
        <time>2025-02-03T02:03:10.911Z</time>
      </trkpt>
      <trkpt lat="59.230139991268516" lon="13.071382949128747">
        <ele>118.25</ele>
        <time>2025-02-03T02:03:17.699Z</time>
      </trkpt>
      <trkpt lat="59.23008098267019" lon="13.071351936087012">
        <ele>118.14</ele>
        <time>2025-02-03T02:03:24.488Z</time>
      </trkpt>
      <trkpt lat="59.23002297990024" lon="13.0713249463588">
        <ele>118.03</ele>
        <time>2025-02-03T02:03:31.278Z</time>
      </trkpt>
      <trkpt lat="59.229966988787055" lon="13.07130197994411">
        <ele>117.91</ele>
        <time>2025-02-03T02:03:38.069Z</time>
      </trkpt>
      <trkpt lat="59.22991393133998" lon="13.07128194719553">
        <ele>117.79</ele>
        <time>2025-02-03T02:03:44.861Z</time>
      </trkpt>
      <trkpt lat="59.229859951883554" lon="13.071261998265982">
        <ele>117.67</ele>
        <time>2025-02-03T02:03:51.654Z</time>
      </trkpt>
      <trkpt lat="59.22980597242713" lon="13.071243977174163">
        <ele>117.54</ele>
        <time>2025-02-03T02:03:58.448Z</time>
      </trkpt>
      <trkpt lat="59.229756938293576" lon="13.071225956082344">
        <ele>117.41</ele>
        <time>2025-02-03T02:04:05.243Z</time>
      </trkpt>
      <trkpt lat="59.22970597632229" lon="13.071210952475667">
        <ele>117.27</ele>
        <time>2025-02-03T02:04:12.039Z</time>
      </trkpt>
      <trkpt lat="59.22965694218874" lon="13.07119494304061">
        <ele>117.13</ele>
        <time>2025-02-03T02:04:18.835Z</time>
      </trkpt>
      <trkpt lat="59.22960698604584" lon="13.071179939433932">
        <ele>116.99</ele>
        <time>2025-02-03T02:04:25.632Z</time>
      </trkpt>
      <trkpt lat="59.22955392859876" lon="13.071166947484016">
        <ele>116.84</ele>
        <time>2025-02-03T02:04:32.430Z</time>
      </trkpt>
      <trkpt lat="59.22949994914234" lon="13.07115294970572">
        <ele>116.68</ele>
        <time>2025-02-03T02:04:39.229Z</time>
      </trkpt>
      <trkpt lat="59.22944596968591" lon="13.071137946099043">
        <ele>116.52</ele>
        <time>2025-02-03T02:04:46.029Z</time>
      </trkpt>
      <trkpt lat="59.229388972744346" lon="13.071122942492366">
        <ele>116.36</ele>
        <time>2025-02-03T02:04:52.830Z</time>
      </trkpt>
      <trkpt lat="59.22932895831764" lon="13.07110894471407">
        <ele>116.19</ele>
        <time>2025-02-03T02:04:59.632Z</time>
      </trkpt>
      <trkpt lat="59.22927095554769" lon="13.071094946935773">
        <ele>116.01</ele>
        <time>2025-02-03T02:05:06.435Z</time>
      </trkpt>
      <trkpt lat="59.229214964434505" lon="13.071078937500715">
        <ele>115.83</ele>
        <time>2025-02-03T02:05:13.239Z</time>
      </trkpt>
      <trkpt lat="59.22915897332132" lon="13.071060916408896">
        <ele>115.65</ele>
        <time>2025-02-03T02:05:20.043Z</time>
      </trkpt>
      <trkpt lat="59.22910197637975" lon="13.07104398496449">
        <ele>115.46</ele>
        <time>2025-02-03T02:05:26.848Z</time>
      </trkpt>
      <trkpt lat="59.229044979438186" lon="13.071028981357813">
        <ele>115.27</ele>
        <time>2025-02-03T02:05:33.654Z</time>
      </trkpt>
      <trkpt lat="59.22898798249662" lon="13.071012971922755">
        <ele>115.08</ele>
        <time>2025-02-03T02:05:40.461Z</time>
      </trkpt>
      <trkpt lat="59.22893199138343" lon="13.070996962487698">
        <ele>114.88</ele>
        <time>2025-02-03T02:05:47.269Z</time>
      </trkpt>
      <trkpt lat="59.22887499444187" lon="13.07098095305264">
        <ele>114.67</ele>
        <time>2025-02-03T02:05:54.078Z</time>
      </trkpt>
      <trkpt lat="59.22881699167192" lon="13.070965949445963">
        <ele>114.46</ele>
        <time>2025-02-03T02:06:00.888Z</time>
      </trkpt>
      <trkpt lat="59.22875898890197" lon="13.070952957496047">
        <ele>114.25</ele>
        <time>2025-02-03T02:06:07.699Z</time>
      </trkpt>
      <trkpt lat="59.228700986132026" lon="13.070943988859653">
        <ele>114.03</ele>
        <time>2025-02-03T02:06:14.511Z</time>
      </trkpt>
      <trkpt lat="59.228638960048556" lon="13.070934936404228">
        <ele>113.8</ele>
        <time>2025-02-03T02:06:21.324Z</time>
      </trkpt>
      <trkpt lat="59.228573916479945" lon="13.070925967767835">
        <ele>113.57</ele>
        <time>2025-02-03T02:06:28.138Z</time>
      </trkpt>
      <trkpt lat="59.22850493341684" lon="13.07091599330306">
        <ele>113.34</ele>
        <time>2025-02-03T02:06:34.953Z</time>
      </trkpt>
      <trkpt lat="59.2284329328686" lon="13.070906940847635">
        <ele>113.1</ele>
        <time>2025-02-03T02:06:41.769Z</time>
      </trkpt>
      <trkpt lat="59.228356992825866" lon="13.0708949547261">
        <ele>112.87</ele>
        <time>2025-02-03T02:06:48.586Z</time>
      </trkpt>
      <trkpt lat="59.22827795147896" lon="13.070877939462662">
        <ele>112.63</ele>
        <time>2025-02-03T02:06:55.405Z</time>
      </trkpt>
      <trkpt lat="59.22819698229432" lon="13.070853967219591">
        <ele>112.38</ele>
        <time>2025-02-03T02:07:02.225Z</time>
      </trkpt>
      <trkpt lat="59.22811492346227" lon="13.070820942521095">
        <ele>112.13</ele>
        <time>2025-02-03T02:07:09.046Z</time>
      </trkpt>
      <trkpt lat="59.22802993096411" lon="13.070783978328109">
        <ele>111.88</ele>
        <time>2025-02-03T02:07:15.869Z</time>
      </trkpt>
      <trkpt lat="59.22794493846595" lon="13.0707429908216">
        <ele>111.63</ele>
        <time>2025-02-03T02:07:22.693Z</time>
      </trkpt>
      <trkpt lat="59.22785793431103" lon="13.070696974173188">
        <ele>111.37</ele>
        <time>2025-02-03T02:07:29.519Z</time>
      </trkpt>
      <trkpt lat="59.22776992432773" lon="13.070649951696396">
        <ele>111.11</ele>
        <time>2025-02-03T02:07:36.346Z</time>
      </trkpt>
      <trkpt lat="59.2276799865067" lon="13.070603935047984">
        <ele>110.84</ele>
        <time>2025-02-03T02:07:43.175Z</time>
      </trkpt>
      <trkpt lat="59.22758996486664" lon="13.070556996390224">
        <ele>110.57</ele>
        <time>2025-02-03T02:07:50.005Z</time>
      </trkpt>
      <trkpt lat="59.227498937398195" lon="13.07050796225667">
        <ele>110.3</ele>
        <time>2025-02-03T02:07:56.837Z</time>
      </trkpt>
      <trkpt lat="59.227407993748784" lon="13.070460939779878">
        <ele>110.03</ele>
        <time>2025-02-03T02:08:03.670Z</time>
      </trkpt>
      <trkpt lat="59.22731495462358" lon="13.070410983636975">
        <ele>109.75</ele>
        <time>2025-02-03T02:08:10.505Z</time>
      </trkpt>
      <trkpt lat="59.22722199931741" lon="13.07035499252379">
        <ele>109.48</ele>
        <time>2025-02-03T02:08:17.341Z</time>
      </trkpt>
      <trkpt lat="59.22712795436382" lon="13.070296989753842">
        <ele>109.2</ele>
        <time>2025-02-03T02:08:24.179Z</time>
      </trkpt>
      <trkpt lat="59.22703298740089" lon="13.070236975327134">
        <ele>108.92</ele>
        <time>2025-02-03T02:08:31.018Z</time>
      </trkpt>
      <trkpt lat="59.226937936618924" lon="13.070172937586904">
        <ele>108.64</ele>
        <time>2025-02-03T02:08:37.859Z</time>
      </trkpt>
      <trkpt lat="59.22684296965599" lon="13.070104960352182">
        <ele>108.36</ele>
        <time>2025-02-03T02:08:44.702Z</time>
      </trkpt>
      <trkpt lat="59.22674699686468" lon="13.07003396563232">
        <ele>108.08</ele>
        <time>2025-02-03T02:08:51.546Z</time>
      </trkpt>
      <trkpt lat="59.22665094025433" lon="13.069958947598934">
        <ele>107.8</ele>
        <time>2025-02-03T02:08:58.392Z</time>
      </trkpt>
      <trkpt lat="59.226553961634636" lon="13.069883929565549">
        <ele>107.52</ele>
        <time>2025-02-03T02:09:05.240Z</time>
      </trkpt>
      <trkpt lat="59.2264539655298" lon="13.069808995351195">
        <ele>107.23</ele>
        <time>2025-02-03T02:09:12.089Z</time>
      </trkpt>
      <trkpt lat="59.22635095193982" lon="13.06973498314619">
        <ele>106.94</ele>
        <time>2025-02-03T02:09:18.940Z</time>
      </trkpt>
      <trkpt lat="59.22624693252146" lon="13.069658959284425">
        <ele>106.65</ele>
        <time>2025-02-03T02:09:25.793Z</time>
      </trkpt>
      <trkpt lat="59.226141991093755" lon="13.069576984271407">
        <ele>106.36</ele>
        <time>2025-02-03T02:09:32.648Z</time>
      </trkpt>
      <trkpt lat="59.226035960018635" lon="13.069488974288106">
        <ele>106.08</ele>
        <time>2025-02-03T02:09:39.504Z</time>
      </trkpt>
      <trkpt lat="59.225927917286754" lon="13.06939291767776">
        <ele>105.8</ele>
        <time>2025-02-03T02:09:46.362Z</time>
      </trkpt>
      <trkpt lat="59.225821970030665" lon="13.069289987906814">
        <ele>105.52</ele>
        <time>2025-02-03T02:09:53.222Z</time>
      </trkpt>
      <trkpt lat="59.22571996226907" lon="13.069176999852061">
        <ele>105.24</ele>
        <time>2025-02-03T02:10:00.084Z</time>
      </trkpt>
      <trkpt lat="59.22562097199261" lon="13.069059988483787">
        <ele>104.96</ele>
        <time>2025-02-03T02:10:06.948Z</time>
      </trkpt>
      <trkpt lat="59.225520975887775" lon="13.068942977115512">
        <ele>104.68</ele>
        <time>2025-02-03T02:10:13.814Z</time>
      </trkpt>
      <trkpt lat="59.22541896812618" lon="13.068824959918857">
        <ele>104.41</ele>
        <time>2025-02-03T02:10:20.682Z</time>
      </trkpt>
      <trkpt lat="59.22532198950648" lon="13.06870392523706">
        <ele>104.14</ele>
        <time>2025-02-03T02:10:27.552Z</time>
      </trkpt>
      <trkpt lat="59.22522693872452" lon="13.06857593357563">
        <ele>103.86</ele>
        <time>2025-02-03T02:10:34.423Z</time>
      </trkpt>
      <trkpt lat="59.225131971761584" lon="13.068436961621046">
        <ele>103.59</ele>
        <time>2025-02-03T02:10:41.296Z</time>
      </trkpt>
      <trkpt lat="59.225037926808" lon="13.06829396635294">
        <ele>103.33</ele>
        <time>2025-02-03T02:10:48.171Z</time>
      </trkpt>
      <trkpt lat="59.224939942359924" lon="13.068154994398355">
        <ele>103.07</ele>
        <time>2025-02-03T02:10:55.048Z</time>
      </trkpt>
      <trkpt lat="59.224836928769946" lon="13.068027924746275">
        <ele>102.8</ele>
        <time>2025-02-03T02:11:01.927Z</time>
      </trkpt>
      <trkpt lat="59.224727964028716" lon="13.067915942519903">
        <ele>102.54</ele>
        <time>2025-02-03T02:11:08.808Z</time>
      </trkpt>
      <trkpt lat="59.2246129643172" lon="13.067823993042111">
        <ele>102.28</ele>
        <time>2025-02-03T02:11:15.691Z</time>
      </trkpt>
      <trkpt lat="59.224489917978644" lon="13.06775794364512">
        <ele>102.02</ele>
        <time>2025-02-03T02:11:22.576Z</time>
      </trkpt>
      <trkpt lat="59.224363937973976" lon="13.067730953916907">
        <ele>101.77</ele>
        <time>2025-02-03T02:11:29.463Z</time>
      </trkpt>
      <trkpt lat="59.22423594631255" lon="13.067744951695204">
        <ele>101.53</ele>
        <time>2025-02-03T02:11:36.352Z</time>
      </trkpt>
      <trkpt lat="59.22411197796464" lon="13.06780194863677">
        <ele>101.28</ele>
        <time>2025-02-03T02:11:43.243Z</time>
      </trkpt>
      <trkpt lat="59.223995972424746" lon="13.067897921428084">
        <ele>101.04</ele>
        <time>2025-02-03T02:11:50.136Z</time>
      </trkpt>
      <trkpt lat="59.22389195300639" lon="13.068032953888178">
        <ele>100.8</ele>
        <time>2025-02-03T02:11:57.031Z</time>
      </trkpt>
      <trkpt lat="59.22379497438669" lon="13.068206962198019">
        <ele>100.56</ele>
        <time>2025-02-03T02:12:03.928Z</time>
      </trkpt>
      <trkpt lat="59.22370193526149" lon="13.068401925265789">
        <ele>100.35</ele>
        <time>2025-02-03T02:12:10.828Z</time>
      </trkpt>
      <trkpt lat="59.22360294498503" lon="13.068603929132223">
        <ele>100.12</ele>
        <time>2025-02-03T02:12:17.730Z</time>
      </trkpt>
      <trkpt lat="59.223499931395054" lon="13.068806938827038">
        <ele>99.91</ele>
        <time>2025-02-03T02:12:24.634Z</time>
      </trkpt>
      <trkpt lat="59.223393984138966" lon="13.06900592520833">
        <ele>99.71</ele>
        <time>2025-02-03T02:12:31.541Z</time>
      </trkpt>
      <trkpt lat="59.22328292392194" lon="13.069204995408654">
        <ele>99.53</ele>
        <time>2025-02-03T02:12:38.450Z</time>
      </trkpt>
      <trkpt lat="59.22316893003881" lon="13.069396940991282">
        <ele>99.35</ele>
        <time>2025-02-03T02:12:45.362Z</time>
      </trkpt>
      <trkpt lat="59.223053930327296" lon="13.069572960957885">
        <ele>99.16</ele>
        <time>2025-02-03T02:12:52.276Z</time>
      </trkpt>
      <trkpt lat="59.222940942272544" lon="13.06973498314619">
        <ele>98.99</ele>
        <time>2025-02-03T02:12:59.192Z</time>
      </trkpt>
      <trkpt lat="59.22282594256103" lon="13.06988594122231">
        <ele>98.82</ele>
        <time>2025-02-03T02:13:06.110Z</time>
      </trkpt>
      <trkpt lat="59.222708931192756" lon="13.070029942318797">
        <ele>98.66</ele>
        <time>2025-02-03T02:13:13.031Z</time>
      </trkpt>
      <trkpt lat="59.22259099781513" lon="13.070174949243665">
        <ele>98.5</ele>
        <time>2025-02-03T02:13:19.954Z</time>
      </trkpt>
      <trkpt lat="59.222469963133335" lon="13.070326996967196">
        <ele>98.34</ele>
        <time>2025-02-03T02:13:26.879Z</time>
      </trkpt>
      <trkpt lat="59.22235194593668" lon="13.0704839900136">
        <ele>98.19</ele>
        <time>2025-02-03T02:13:33.806Z</time>
      </trkpt>
      <trkpt lat="59.222229989245534" lon="13.07063695974648">
        <ele>98.05</ele>
        <time>2025-02-03T02:13:40.736Z</time>
      </trkpt>
      <trkpt lat="59.222105937078595" lon="13.07078892365098">
        <ele>97.92</ele>
        <time>2025-02-03T02:13:47.668Z</time>
      </trkpt>
      <trkpt lat="59.22198297455907" lon="13.070941977202892">
        <ele>97.81</ele>
        <time>2025-02-03T02:13:54.602Z</time>
      </trkpt>
      <trkpt lat="59.22186093404889" lon="13.071097964420915">
        <ele>97.7</ele>
        <time>2025-02-03T02:14:01.539Z</time>
      </trkpt>
      <trkpt lat="59.221742916852236" lon="13.071251939982176">
        <ele>97.61</ele>
        <time>2025-02-03T02:14:08.478Z</time>
      </trkpt>
      <trkpt lat="59.22162498347461" lon="13.071403987705708">
        <ele>97.53</ele>
        <time>2025-02-03T02:14:15.419Z</time>
      </trkpt>
      <trkpt lat="59.2215099837631" lon="13.071546982973814">
        <ele>97.46</ele>
        <time>2025-02-03T02:14:22.362Z</time>
      </trkpt>
      <trkpt lat="59.221395989879966" lon="13.071683943271637">
        <ele>97.39</ele>
        <time>2025-02-03T02:14:29.308Z</time>
      </trkpt>
      <trkpt lat="59.22128199599683" lon="13.071800954639912">
        <ele>97.34</ele>
        <time>2025-02-03T02:14:36.256Z</time>
      </trkpt>
      <trkpt lat="59.22116599045694" lon="13.071896927431226">
        <ele>97.29</ele>
        <time>2025-02-03T02:14:43.206Z</time>
      </trkpt>
      <trkpt lat="59.221051996573806" lon="13.071961970999837">
        <ele>97.26</ele>
        <time>2025-02-03T02:14:50.158Z</time>
      </trkpt>
      <trkpt lat="59.22094093635678" lon="13.072000946849585">
        <ele>97.24</ele>
        <time>2025-02-03T02:14:57.111Z</time>
      </trkpt>
      <trkpt lat="59.220835994929075" lon="13.072022991254926">
        <ele>97.23</ele>
        <time>2025-02-03T02:15:04.066Z</time>
      </trkpt>
      <trkpt lat="59.22073692083359" lon="13.072044951841235">
        <ele>97.22</ele>
        <time>2025-02-03T02:15:11.023Z</time>
      </trkpt>
      <trkpt lat="59.220642959699035" lon="13.072063978761435">
        <ele>97.22</ele>
        <time>2025-02-03T02:15:17.981Z</time>
      </trkpt>
      <trkpt lat="59.2205619905144" lon="13.072079988196492">
        <ele>97.22</ele>
        <time>2025-02-03T02:15:24.941Z</time>
      </trkpt>
      <trkpt lat="59.220489989966154" lon="13.072093985974789">
        <ele>97.23</ele>
        <time>2025-02-03T02:15:31.902Z</time>
      </trkpt>
      <trkpt lat="59.22042394056916" lon="13.072105972096324">
        <ele>97.23</ele>
        <time>2025-02-03T02:15:38.864Z</time>
      </trkpt>
      <trkpt lat="59.220363926142454" lon="13.072112929075956">
        <ele>97.24</ele>
        <time>2025-02-03T02:15:45.827Z</time>
      </trkpt>
      <trkpt lat="59.22030793502927" lon="13.072123993188143">
        <ele>97.26</ele>
        <time>2025-02-03T02:15:52.791Z</time>
      </trkpt>
      <trkpt lat="59.22026191838086" lon="13.072130950167775">
        <ele>97.28</ele>
        <time>2025-02-03T02:15:59.755Z</time>
      </trkpt>
      <trkpt lat="59.22021891921759" lon="13.072135979309678">
        <ele>97.3</ele>
        <time>2025-02-03T02:16:06.720Z</time>
      </trkpt>
      <trkpt lat="59.2201819550246" lon="13.07214293628931">
        <ele>97.33</ele>
        <time>2025-02-03T02:16:13.686Z</time>
      </trkpt>
      <trkpt lat="59.220149936154485" lon="13.072151988744736">
        <ele>97.37</ele>
        <time>2025-02-03T02:16:20.652Z</time>
      </trkpt>
      <trkpt lat="59.22012194059789" lon="13.072159951552749">
        <ele>97.41</ele>
        <time>2025-02-03T02:16:27.619Z</time>
      </trkpt>
      <trkpt lat="59.22008799389005" lon="13.072165986523032">
        <ele>97.45</ele>
        <time>2025-02-03T02:16:34.586Z</time>
      </trkpt>
      <trkpt lat="59.22005798667669" lon="13.072170931845903">
        <ele>97.5</ele>
        <time>2025-02-03T02:16:41.554Z</time>
      </trkpt>
      <trkpt lat="59.22003099694848" lon="13.07218099012971">
        <ele>97.56</ele>
        <time>2025-02-03T02:16:48.522Z</time>
      </trkpt>
      <trkpt lat="59.22000199556351" lon="13.07218593545258">
        <ele>97.62</ele>
        <time>2025-02-03T02:16:55.491Z</time>
      </trkpt>
      <trkpt lat="59.219972994178534" lon="13.072192976251245">
        <ele>97.68</ele>
        <time>2025-02-03T02:17:02.460Z</time>
      </trkpt>
      <trkpt lat="59.21994893811643" lon="13.072196999564767">
        <ele>97.75</ele>
        <time>2025-02-03T02:17:09.429Z</time>
      </trkpt>
      <trkpt lat="59.2199229542166" lon="13.072198927402496">
        <ele>97.82</ele>
        <time>2025-02-03T02:17:16.399Z</time>
      </trkpt>
      <trkpt lat="59.21990099363029" lon="13.072200939059258">
        <ele>97.89</ele>
        <time>2025-02-03T02:17:23.369Z</time>
      </trkpt>
      <trkpt lat="59.21988096088171" lon="13.072190964594483">
        <ele>97.97</ele>
        <time>2025-02-03T02:17:30.340Z</time>
      </trkpt>
      <trkpt lat="59.21985992230475" lon="13.07218392379582">
        <ele>98.05</ele>
        <time>2025-02-03T02:17:37.311Z</time>
      </trkpt>
      <trkpt lat="59.21983595006168" lon="13.072178978472948">
        <ele>98.13</ele>
        <time>2025-02-03T02:17:44.282Z</time>
      </trkpt>
      <trkpt lat="59.219806948676705" lon="13.072170931845903">
        <ele>98.22</ele>
        <time>2025-02-03T02:17:51.254Z</time>
      </trkpt>
      <trkpt lat="59.21977895312011" lon="13.07216196320951">
        <ele>98.31</ele>
        <time>2025-02-03T02:17:58.226Z</time>
      </trkpt>
      <trkpt lat="59.2197519633919" lon="13.072150982916355">
        <ele>98.4</ele>
        <time>2025-02-03T02:18:05.199Z</time>
      </trkpt>
      <trkpt lat="59.21972497366369" lon="13.072144947946072">
        <ele>98.49</ele>
        <time>2025-02-03T02:18:12.172Z</time>
      </trkpt>
      <trkpt lat="59.21969999559224" lon="13.07213899679482">
        <ele>98.59</ele>
        <time>2025-02-03T02:18:19.145Z</time>
      </trkpt>
      <trkpt lat="59.21967292204499" lon="13.072130950167775">
        <ele>98.68</ele>
        <time>2025-02-03T02:18:26.119Z</time>
      </trkpt>
      <trkpt lat="59.21964199282229" lon="13.072122987359762">
        <ele>98.78</ele>
        <time>2025-02-03T02:18:33.093Z</time>
      </trkpt>
      <trkpt lat="59.219609973952174" lon="13.072109995409846">
        <ele>98.88</ele>
        <time>2025-02-03T02:18:40.068Z</time>
      </trkpt>
      <trkpt lat="59.21957393176854" lon="13.07209599763155">
        <ele>98.98</ele>
        <time>2025-02-03T02:18:47.044Z</time>
      </trkpt>
      <trkpt lat="59.21953797340393" lon="13.072078982368112">
        <ele>99.08</ele>
        <time>2025-02-03T02:18:54.020Z</time>
      </trkpt>
      <trkpt lat="59.21949195675552" lon="13.072059955447912">
        <ele>99.18</ele>
        <time>2025-02-03T02:19:00.997Z</time>
      </trkpt>
      <trkpt lat="59.21944694593549" lon="13.072025924921036">
        <ele>99.29</ele>
        <time>2025-02-03T02:19:07.975Z</time>
      </trkpt>
      <trkpt lat="59.2194049526006" lon="13.071987954899669">
        <ele>99.39</ele>
        <time>2025-02-03T02:19:14.953Z</time>
      </trkpt>
      <trkpt lat="59.21936295926571" lon="13.071960965171456">
        <ele>99.49</ele>
        <time>2025-02-03T02:19:21.932Z</time>
      </trkpt>
      <trkpt lat="59.21932398341596" lon="13.071933975443244">
        <ele>99.59</ele>
        <time>2025-02-03T02:19:28.912Z</time>
      </trkpt>
      <trkpt lat="59.21928592957556" lon="13.071905979886651">
        <ele>99.68</ele>
        <time>2025-02-03T02:19:35.892Z</time>
      </trkpt>
      <trkpt lat="59.219247959554195" lon="13.071880917996168">
        <ele>99.78</ele>
        <time>2025-02-03T02:19:42.873Z</time>
      </trkpt>
      <trkpt lat="59.21921099536121" lon="13.071854934096336">
        <ele>99.88</ele>
        <time>2025-02-03T02:19:49.855Z</time>
      </trkpt>
      <trkpt lat="59.21917193569243" lon="13.071834985166788">
        <ele>99.97</ele>
        <time>2025-02-03T02:19:56.837Z</time>
      </trkpt>
      <trkpt lat="59.21913295984268" lon="13.071811934933066">
        <ele>100.07</ele>
        <time>2025-02-03T02:20:03.820Z</time>
      </trkpt>
      <trkpt lat="59.219097923487425" lon="13.071787962689996">
        <ele>100.16</ele>
        <time>2025-02-03T02:20:10.804Z</time>
      </trkpt>
      <trkpt lat="59.2190629709512" lon="13.071766924113035">
        <ele>100.24</ele>
        <time>2025-02-03T02:20:17.788Z</time>
      </trkpt>
      <trkpt lat="59.21902692876756" lon="13.071745969355106">
        <ele>100.33</ele>
        <time>2025-02-03T02:20:24.773Z</time>
      </trkpt>
      <trkpt lat="59.218990970402956" lon="13.071721997112036">
        <ele>100.41</ele>
        <time>2025-02-03T02:20:31.758Z</time>
      </trkpt>
      <trkpt lat="59.2189559340477" lon="13.071697941049933">
        <ele>100.49</ele>
        <time>2025-02-03T02:20:38.744Z</time>
      </trkpt>
      <trkpt lat="59.218920981511474" lon="13.071675980463624">
        <ele>100.56</ele>
        <time>2025-02-03T02:20:45.731Z</time>
      </trkpt>
      <trkpt lat="59.218884939327836" lon="13.071653936058283">
        <ele>100.63</ele>
        <time>2025-02-03T02:20:52.718Z</time>
      </trkpt>
      <trkpt lat="59.21884696930647" lon="13.071633987128735">
        <ele>100.7</ele>
        <time>2025-02-03T02:20:59.706Z</time>
      </trkpt>
      <trkpt lat="59.21880799345672" lon="13.071610936895013">
        <ele>100.76</ele>
        <time>2025-02-03T02:21:06.694Z</time>
      </trkpt>
      <trkpt lat="59.2187709454447" lon="13.0715839471668">
        <ele>100.82</ele>
        <time>2025-02-03T02:21:13.683Z</time>
      </trkpt>
      <trkpt lat="59.218732975423336" lon="13.071556957438588">
        <ele>100.87</ele>
        <time>2025-02-03T02:21:20.673Z</time>
      </trkpt>
      <trkpt lat="59.21869492158294" lon="13.071527956053615">
        <ele>100.92</ele>
        <time>2025-02-03T02:21:27.663Z</time>
      </trkpt>
      <trkpt lat="59.21865594573319" lon="13.0714959371835">
        <ele>100.96</ele>
        <time>2025-02-03T02:21:34.654Z</time>
      </trkpt>
      <trkpt lat="59.21861696988344" lon="13.071461990475655">
        <ele>101.0</ele>
        <time>2025-02-03T02:21:41.646Z</time>
      </trkpt>
      <trkpt lat="59.218581933528185" lon="13.071425948292017">
        <ele>101.03</ele>
        <time>2025-02-03T02:21:48.638Z</time>
      </trkpt>
      <trkpt lat="59.21854597516358" lon="13.07139191776514">
        <ele>101.06</ele>
        <time>2025-02-03T02:21:55.631Z</time>
      </trkpt>
      <trkpt lat="59.21850599348545" lon="13.071357971057296">
        <ele>101.09</ele>
        <time>2025-02-03T02:22:02.625Z</time>
      </trkpt>
      <trkpt lat="59.21846299432218" lon="13.071321928873658">
        <ele>101.11</ele>
        <time>2025-02-03T02:22:09.619Z</time>
      </trkpt>
      <trkpt lat="59.21842091716826" lon="13.071284964680672">
        <ele>101.13</ele>
        <time>2025-02-03T02:22:16.614Z</time>
      </trkpt>
      <trkpt lat="59.21837699599564" lon="13.071246994659305">
        <ele>101.14</ele>
        <time>2025-02-03T02:22:23.610Z</time>
      </trkpt>
      <trkpt lat="59.21833097934723" lon="13.071206929162145">
        <ele>101.14</ele>
        <time>2025-02-03T02:22:30.607Z</time>
      </trkpt>
      <trkpt lat="59.21828395687044" lon="13.071164935827255">
        <ele>101.14</ele>
        <time>2025-02-03T02:22:37.605Z</time>
      </trkpt>
      <trkpt lat="59.218232994899154" lon="13.071123948320746">
        <ele>101.14</ele>
        <time>2025-02-03T02:22:44.604Z</time>
      </trkpt>
      <trkpt lat="59.21818094328046" lon="13.071082960814238">
        <ele>101.13</ele>
        <time>2025-02-03T02:22:51.603Z</time>
      </trkpt>
      <trkpt lat="59.218128975480795" lon="13.071038955822587">
        <ele>101.12</ele>
        <time>2025-02-03T02:22:58.603Z</time>
      </trkpt>
      <trkpt lat="59.21807591803372" lon="13.070991933345795">
        <ele>101.1</ele>
        <time>2025-02-03T02:23:05.604Z</time>
      </trkpt>
      <trkpt lat="59.218020932748914" lon="13.070942983031273">
        <ele>101.08</ele>
        <time>2025-02-03T02:23:12.606Z</time>
      </trkpt>
      <trkpt lat="59.21796594746411" lon="13.07089394889772">
        <ele>101.05</ele>
        <time>2025-02-03T02:23:19.609Z</time>
      </trkpt>
      <trkpt lat="59.21790693886578" lon="13.070847932249308">
        <ele>101.01</ele>
        <time>2025-02-03T02:23:26.613Z</time>
      </trkpt>
      <trkpt lat="59.21784793026745" lon="13.070804933086038">
        <ele>100.96</ele>
        <time>2025-02-03T02:23:33.618Z</time>
      </trkpt>
      <trkpt lat="59.217784982174635" lon="13.070761933922768">
        <ele>100.92</ele>
        <time>2025-02-03T02:23:40.624Z</time>
      </trkpt>
      <trkpt lat="59.21771893277764" lon="13.070720946416259">
        <ele>100.86</ele>
        <time>2025-02-03T02:23:47.631Z</time>
      </trkpt>
      <trkpt lat="59.21764894388616" lon="13.070687921717763">
        <ele>100.8</ele>
        <time>2025-02-03T02:23:54.640Z</time>
      </trkpt>
      <trkpt lat="59.21757593750954" lon="13.070663949474692">
        <ele>100.72</ele>
        <time>2025-02-03T02:24:01.650Z</time>
      </trkpt>
      <trkpt lat="59.21749899163842" lon="13.070649951696396">
        <ele>100.65</ele>
        <time>2025-02-03T02:24:08.661Z</time>
      </trkpt>
      <trkpt lat="59.217421961948276" lon="13.070643916726112">
        <ele>100.56</ele>
        <time>2025-02-03T02:24:15.673Z</time>
      </trkpt>
      <trkpt lat="59.21734593808651" lon="13.070646934211254">
        <ele>100.47</ele>
        <time>2025-02-03T02:24:22.686Z</time>
      </trkpt>
      <trkpt lat="59.217267986387014" lon="13.07065992616117">
        <ele>100.37</ele>
        <time>2025-02-03T02:24:29.701Z</time>
      </trkpt>
      <trkpt lat="59.21718995086849" lon="13.070676941424608">
        <ele>100.27</ele>
        <time>2025-02-03T02:24:36.717Z</time>
      </trkpt>
      <trkpt lat="59.21711392700672" lon="13.07069999165833">
        <ele>100.15</ele>
        <time>2025-02-03T02:24:43.734Z</time>
      </trkpt>
      <trkpt lat="59.21703999862075" lon="13.070729998871684">
        <ele>100.03</ele>
        <time>2025-02-03T02:24:50.752Z</time>
      </trkpt>
      <trkpt lat="59.216969925910234" lon="13.070763945579529">
        <ele>99.91</ele>
        <time>2025-02-03T02:24:57.772Z</time>
      </trkpt>
      <trkpt lat="59.21689893119037" lon="13.070801999419928">
        <ele>99.77</ele>
        <time>2025-02-03T02:25:04.793Z</time>
      </trkpt>
      <trkpt lat="59.21682994812727" lon="13.070844998583198">
        <ele>99.63</ele>
        <time>2025-02-03T02:25:11.815Z</time>
      </trkpt>
      <trkpt lat="59.21676398254931" lon="13.070890931412578">
        <ele>99.47</ele>
        <time>2025-02-03T02:25:18.838Z</time>
      </trkpt>
      <trkpt lat="59.21669994480908" lon="13.070940971374512">
        <ele>99.31</ele>
        <time>2025-02-03T02:25:25.862Z</time>
      </trkpt>
      <trkpt lat="59.21663892455399" lon="13.070994950830936">
        <ele>99.15</ele>
        <time>2025-02-03T02:25:32.887Z</time>
      </trkpt>
      <trkpt lat="59.21657798811793" lon="13.071049936115742">
        <ele>98.97</ele>
        <time>2025-02-03T02:25:39.913Z</time>
      </trkpt>
      <trkpt lat="59.216516967862844" lon="13.071105927228928">
        <ele>98.79</ele>
        <time>2025-02-03T02:25:46.940Z</time>
      </trkpt>
      <trkpt lat="59.216455947607756" lon="13.071161918342113">
        <ele>98.6</ele>
        <time>2025-02-03T02:25:53.968Z</time>
      </trkpt>
      <trkpt lat="59.21639299951494" lon="13.07121497578919">
        <ele>98.4</ele>
        <time>2025-02-03T02:26:00.998Z</time>
      </trkpt>
      <trkpt lat="59.21632896177471" lon="13.071267949417233">
        <ele>98.19</ele>
        <time>2025-02-03T02:26:08.029Z</time>
      </trkpt>
      <trkpt lat="59.21626299619675" lon="13.071318995207548">
        <ele>97.98</ele>
        <time>2025-02-03T02:26:15.061Z</time>
      </trkpt>
      <trkpt lat="59.21619392931461" lon="13.07136895135045">
        <ele>97.76</ele>
        <time>2025-02-03T02:26:22.094Z</time>
      </trkpt>
      <trkpt lat="59.21612192876637" lon="13.071412956342101">
        <ele>97.53</ele>
        <time>2025-02-03T02:26:29.128Z</time>
      </trkpt>
      <trkpt lat="59.216046994552016" lon="13.071449920535088">
        <ele>97.3</ele>
        <time>2025-02-03T02:26:36.163Z</time>
      </trkpt>
      <trkpt lat="59.21596694737673" lon="13.071481939405203">
        <ele>97.06</ele>
        <time>2025-02-03T02:26:43.200Z</time>
      </trkpt>
      <trkpt lat="59.21588597819209" lon="13.071503983810544">
        <ele>96.81</ele>
        <time>2025-02-03T02:26:50.238Z</time>
      </trkpt>
      <trkpt lat="59.21579897403717" lon="13.07151697576046">
        <ele>96.55</ele>
        <time>2025-02-03T02:26:57.277Z</time>
      </trkpt>
      <trkpt lat="59.215704929083586" lon="13.071524938568473">
        <ele>96.29</ele>
        <time>2025-02-03T02:27:04.318Z</time>
      </trkpt>
      <trkpt lat="59.21560694463551" lon="13.071525944396853">
        <ele>96.03</ele>
        <time>2025-02-03T02:27:11.361Z</time>
      </trkpt>
      <trkpt lat="59.21550493687391" lon="13.07151798158884">
        <ele>95.75</ele>
        <time>2025-02-03T02:27:18.405Z</time>
      </trkpt>
      <trkpt lat="59.215400917455554" lon="13.071504989638925">
        <ele>95.47</ele>
        <time>2025-02-03T02:27:25.451Z</time>
      </trkpt>
      <trkpt lat="59.215293964371085" lon="13.071484956890345">
        <ele>95.18</ele>
        <time>2025-02-03T02:27:32.499Z</time>
      </trkpt>
      <trkpt lat="59.215184999629855" lon="13.071459978818893">
        <ele>94.89</ele>
        <time>2025-02-03T02:27:39.548Z</time>
      </trkpt>
      <trkpt lat="59.21507595106959" lon="13.071432989090681">
        <ele>94.59</ele>
        <time>2025-02-03T02:27:46.599Z</time>
      </trkpt>
      <trkpt lat="59.21496598049998" lon="13.071407927200198">
        <ele>94.29</ele>
        <time>2025-02-03T02:27:53.652Z</time>
      </trkpt>
      <trkpt lat="59.21485592611134" lon="13.071374986320734">
        <ele>93.97</ele>
        <time>2025-02-03T02:28:00.707Z</time>
      </trkpt>
      <trkpt lat="59.21474696137011" lon="13.071333998814225">
        <ele>93.65</ele>
        <time>2025-02-03T02:28:07.763Z</time>
      </trkpt>
      <trkpt lat="59.21463992446661" lon="13.071279935538769">
        <ele>93.33</ele>
        <time>2025-02-03T02:28:14.821Z</time>
      </trkpt>
      <trkpt lat="59.21453196555376" lon="13.07121598161757">
        <ele>93.0</ele>
        <time>2025-02-03T02:28:21.881Z</time>
      </trkpt>
      <trkpt lat="59.21442392282188" lon="13.071144986897707">
        <ele>92.67</ele>
        <time>2025-02-03T02:28:28.943Z</time>
      </trkpt>
      <trkpt lat="59.21431395225227" lon="13.071071980521083">
        <ele>92.34</ele>
        <time>2025-02-03T02:28:36.007Z</time>
      </trkpt>
      <trkpt lat="59.214200964197516" lon="13.0710019916296">
        <ele>92.02</ele>
        <time>2025-02-03T02:28:43.073Z</time>
      </trkpt>
      <trkpt lat="59.214085964486" lon="13.07093694806099">
        <ele>91.69</ele>
        <time>2025-02-03T02:28:50.141Z</time>
      </trkpt>
      <trkpt lat="59.21396694146097" lon="13.070877939462662">
        <ele>91.36</ele>
        <time>2025-02-03T02:28:57.211Z</time>
      </trkpt>
      <trkpt lat="59.21384892426431" lon="13.070823960006237">
        <ele>91.03</ele>
        <time>2025-02-03T02:29:04.282Z</time>
      </trkpt>
      <trkpt lat="59.21372897922993" lon="13.070775931701064">
        <ele>90.68</ele>
        <time>2025-02-03T02:29:11.355Z</time>
      </trkpt>
      <trkpt lat="59.21360794454813" lon="13.070733938366175">
        <ele>90.34</ele>
        <time>2025-02-03T02:29:18.430Z</time>
      </trkpt>
      <trkpt lat="59.213486993685365" lon="13.07069898582995">
        <ele>89.99</ele>
        <time>2025-02-03T02:29:25.507Z</time>
      </trkpt>
      <trkpt lat="59.21336495317519" lon="13.070664955303073">
        <ele>89.63</ele>
        <time>2025-02-03T02:29:32.586Z</time>
      </trkpt>
      <trkpt lat="59.21324391849339" lon="13.070631930604577">
        <ele>89.27</ele>
        <time>2025-02-03T02:29:39.667Z</time>
      </trkpt>
      <trkpt lat="59.213121961802244" lon="13.070597983896732">
        <ele>88.92</ele>
        <time>2025-02-03T02:29:46.750Z</time>
      </trkpt>
      <trkpt lat="59.21300193294883" lon="13.070560935884714">
        <ele>88.56</ele>
        <time>2025-02-03T02:29:53.835Z</time>
      </trkpt>
      <trkpt lat="59.212883999571204" lon="13.070502933114767">
        <ele>88.2</ele>
        <time>2025-02-03T02:30:00.922Z</time>
      </trkpt>
      <trkpt lat="59.21276899985969" lon="13.070414923131466">
        <ele>87.85</ele>
        <time>2025-02-03T02:30:08.011Z</time>
      </trkpt>
      <trkpt lat="59.21266095712781" lon="13.070294978097081">
        <ele>87.49</ele>
        <time>2025-02-03T02:30:15.102Z</time>
      </trkpt>
      <trkpt lat="59.21255392022431" lon="13.070153994485736">
        <ele>87.13</ele>
        <time>2025-02-03T02:30:22.195Z</time>
      </trkpt>
      <trkpt lat="59.21244596131146" lon="13.070002952590585">
        <ele>86.77</ele>
        <time>2025-02-03T02:30:29.290Z</time>
      </trkpt>
      <trkpt lat="59.21233993023634" lon="13.069845959544182">
        <ele>86.41</ele>
        <time>2025-02-03T02:30:36.387Z</time>
      </trkpt>
      <trkpt lat="59.21223297715187" lon="13.06969097815454">
        <ele>86.04</ele>
        <time>2025-02-03T02:30:43.487Z</time>
      </trkpt>
      <trkpt lat="59.21212292276323" lon="13.069539936259389">
        <ele>85.68</ele>
        <time>2025-02-03T02:30:50.589Z</time>
      </trkpt>
      <trkpt lat="59.212008928880095" lon="13.069399958476424">
        <ele>85.33</ele>
        <time>2025-02-03T02:30:57.693Z</time>
      </trkpt>
      <trkpt lat="59.21188898384571" lon="13.069271966814995">
        <ele>84.97</ele>
        <time>2025-02-03T02:31:04.799Z</time>
      </trkpt>
      <trkpt lat="59.211768954992294" lon="13.069152943789959">
        <ele>84.62</ele>
        <time>2025-02-03T02:31:11.907Z</time>
      </trkpt>
      <trkpt lat="59.2116479203105" lon="13.069037944078445">
        <ele>84.27</ele>
        <time>2025-02-03T02:31:19.017Z</time>
      </trkpt>
      <trkpt lat="59.21152797527611" lon="13.068927973508835">
        <ele>83.92</ele>
        <time>2025-02-03T02:31:26.130Z</time>
      </trkpt>
      <trkpt lat="59.21140895225108" lon="13.068819930776954">
        <ele>83.58</ele>
        <time>2025-02-03T02:31:33.245Z</time>
      </trkpt>
      <trkpt lat="59.21128992922604" lon="13.068715995177627">
        <ele>83.24</ele>
        <time>2025-02-03T02:31:40.362Z</time>
      </trkpt>
      <trkpt lat="59.21117099002004" lon="13.06861499324441">
        <ele>82.9</ele>
        <time>2025-02-03T02:31:47.481Z</time>
      </trkpt>
      <trkpt lat="59.211051966995" lon="13.068513991311193">
        <ele>82.57</ele>
        <time>2025-02-03T02:31:54.602Z</time>
      </trkpt>
      <trkpt lat="59.210930932313204" lon="13.068414917215705">
        <ele>82.24</ele>
        <time>2025-02-03T02:32:01.725Z</time>
      </trkpt>
      <trkpt lat="59.2108119931072" lon="13.06831894442439">
        <ele>81.91</ele>
        <time>2025-02-03T02:32:08.850Z</time>
      </trkpt>
      <trkpt lat="59.210694981738925" lon="13.068225989118218">
        <ele>81.58</ele>
        <time>2025-02-03T02:32:15.977Z</time>
      </trkpt>
      <trkpt lat="59.21057998202741" lon="13.068136973306537">
        <ele>81.26</ele>
        <time>2025-02-03T02:32:23.106Z</time>
      </trkpt>
      <trkpt lat="59.21046598814428" lon="13.068051980808377">
        <ele>80.94</ele>
        <time>2025-02-03T02:32:30.237Z</time>
      </trkpt>
      <trkpt lat="59.210353922098875" lon="13.067969921976328">
        <ele>80.63</ele>
        <time>2025-02-03T02:32:37.370Z</time>
      </trkpt>
      <trkpt lat="59.210244957357645" lon="13.067889958620071">
        <ele>80.32</ele>
        <time>2025-02-03T02:32:44.505Z</time>
      </trkpt>
      <trkpt lat="59.21014194376767" lon="13.067817958071828">
        <ele>80.02</ele>
        <time>2025-02-03T02:32:51.642Z</time>
      </trkpt>
      <trkpt lat="59.21004194766283" lon="13.067755931988358">
        <ele>79.73</ele>
        <time>2025-02-03T02:32:58.780Z</time>
      </trkpt>
      <trkpt lat="59.209944969043136" lon="13.067707987502217">
        <ele>79.44</ele>
        <time>2025-02-03T02:33:05.920Z</time>
      </trkpt>
      <trkpt lat="59.20985192991793" lon="13.067668927833438">
        <ele>79.15</ele>
        <time>2025-02-03T02:33:13.061Z</time>
      </trkpt>
      <trkpt lat="59.20975998044014" lon="13.067641938105226">
        <ele>78.86</ele>
        <time>2025-02-03T02:33:20.204Z</time>
      </trkpt>
      <trkpt lat="59.209667947143316" lon="13.067624922841787">
        <ele>78.58</ele>
        <time>2025-02-03T02:33:27.348Z</time>
      </trkpt>
      <trkpt lat="59.20957691967487" lon="13.067613942548633">
        <ele>78.3</ele>
        <time>2025-02-03T02:33:34.494Z</time>
      </trkpt>
      <trkpt lat="59.209488993510604" lon="13.067611930891871">
        <ele>78.03</ele>
        <time>2025-02-03T02:33:41.641Z</time>
      </trkpt>
      <trkpt lat="59.20940198935568" lon="13.067616960033774">
        <ele>77.76</ele>
        <time>2025-02-03T02:33:48.790Z</time>
      </trkpt>
      <trkpt lat="59.209316996857524" lon="13.067625928670168">
        <ele>77.5</ele>
        <time>2025-02-03T02:33:55.940Z</time>
      </trkpt>
      <trkpt lat="59.209233932197094" lon="13.067640932276845">
        <ele>77.24</ele>
        <time>2025-02-03T02:34:03.091Z</time>
      </trkpt>
      <trkpt lat="59.209150951355696" lon="13.067661970853806">
        <ele>76.99</ele>
        <time>2025-02-03T02:34:10.244Z</time>
      </trkpt>
      <trkpt lat="59.209064953029156" lon="13.067689966410398">
        <ele>76.74</ele>
        <time>2025-02-03T02:34:17.398Z</time>
      </trkpt>
      <trkpt lat="59.208976943045855" lon="13.067717961966991">
        <ele>76.49</ele>
        <time>2025-02-03T02:34:24.554Z</time>
      </trkpt>
      <trkpt lat="59.20888792723417" lon="13.067746963351965">
        <ele>76.25</ele>
        <time>2025-02-03T02:34:31.711Z</time>
      </trkpt>
      <trkpt lat="59.20879798941314" lon="13.067769929766655">
        <ele>76.02</ele>
        <time>2025-02-03T02:34:38.869Z</time>
      </trkpt>
      <trkpt lat="59.2087069619447" lon="13.067783927544951">
        <ele>75.79</ele>
        <time>2025-02-03T02:34:46.029Z</time>
      </trkpt>
      <trkpt lat="59.20861694030464" lon="13.067784933373332">
        <ele>75.56</ele>
        <time>2025-02-03T02:34:53.190Z</time>
      </trkpt>
      <trkpt lat="59.208527924492955" lon="13.067766996100545">
        <ele>75.34</ele>
        <time>2025-02-03T02:35:00.353Z</time>
      </trkpt>
      <trkpt lat="59.208441926166415" lon="13.067726930603385">
        <ele>75.13</ele>
        <time>2025-02-03T02:35:07.517Z</time>
      </trkpt>
      <trkpt lat="59.2083599511534" lon="13.067664988338947">
        <ele>74.92</ele>
        <time>2025-02-03T02:35:14.683Z</time>
      </trkpt>
      <trkpt lat="59.20828392729163" lon="13.067581923678517">
        <ele>74.71</ele>
        <time>2025-02-03T02:35:21.850Z</time>
      </trkpt>
      <trkpt lat="59.20821695588529" lon="13.067482933402061">
        <ele>74.51</ele>
        <time>2025-02-03T02:35:29.018Z</time>
      </trkpt>
      <trkpt lat="59.20815492980182" lon="13.067374974489212">
        <ele>74.32</ele>
        <time>2025-02-03T02:35:36.188Z</time>
      </trkpt>
      <trkpt lat="59.208096927031875" lon="13.06726299226284">
        <ele>74.13</ele>
        <time>2025-02-03T02:35:43.359Z</time>
      </trkpt>
      <trkpt lat="59.20803791843355" lon="13.067152937874198">
        <ele>73.95</ele>
        <time>2025-02-03T02:35:50.531Z</time>
      </trkpt>
      <trkpt lat="59.20797396451235" lon="13.067052941769361">
        <ele>73.77</ele>
        <time>2025-02-03T02:35:57.705Z</time>
      </trkpt>
      <trkpt lat="59.207904981449246" lon="13.066969960927963">
        <ele>73.6</ele>
        <time>2025-02-03T02:36:04.880Z</time>
      </trkpt>
      <trkpt lat="59.20783096924424" lon="13.066909946501255">
        <ele>73.43</ele>
        <time>2025-02-03T02:36:12.056Z</time>
      </trkpt>
      <trkpt lat="59.207754945382476" lon="13.066865941509604">
        <ele>73.28</ele>
        <time>2025-02-03T02:36:19.234Z</time>
      </trkpt>
      <trkpt lat="59.20767498202622" lon="13.066837945953012">
        <ele>73.12</ele>
        <time>2025-02-03T02:36:26.413Z</time>
      </trkpt>
      <trkpt lat="59.20759191736579" lon="13.066823948174715">
        <ele>72.97</ele>
        <time>2025-02-03T02:36:33.593Z</time>
      </trkpt>
      <trkpt lat="59.20750994235277" lon="13.066825959831476">
        <ele>72.83</ele>
        <time>2025-02-03T02:36:40.774Z</time>
      </trkpt>
      <trkpt lat="59.207428973168135" lon="13.066840963438153">
        <ele>72.69</ele>
        <time>2025-02-03T02:36:47.957Z</time>
      </trkpt>
      <trkpt lat="59.207347920164466" lon="13.066864935681224">
        <ele>72.56</ele>
        <time>2025-02-03T02:36:55.141Z</time>
      </trkpt>
      <trkpt lat="59.20726493932307" lon="13.06689695455134">
        <ele>72.43</ele>
        <time>2025-02-03T02:37:02.326Z</time>
      </trkpt>
      <trkpt lat="59.20718397013843" lon="13.066936936229467">
        <ele>72.31</ele>
        <time>2025-02-03T02:37:09.513Z</time>
      </trkpt>
      <trkpt lat="59.20710392296314" lon="13.06698496453464">
        <ele>72.21</ele>
        <time>2025-02-03T02:37:16.701Z</time>
      </trkpt>
      <trkpt lat="59.20702697709203" lon="13.067040955647826">
        <ele>72.11</ele>
        <time>2025-02-03T02:37:23.890Z</time>
      </trkpt>
      <trkpt lat="59.2069489415735" lon="13.067102981731296">
        <ele>72.01</ele>
        <time>2025-02-03T02:37:31.081Z</time>
      </trkpt>
      <trkpt lat="59.206873923540115" lon="13.067167941480875">
        <ele>71.92</ele>
        <time>2025-02-03T02:37:38.273Z</time>
      </trkpt>
      <trkpt lat="59.20680393464863" lon="13.067229967564344">
        <ele>71.84</ele>
        <time>2025-02-03T02:37:45.466Z</time>
      </trkpt>
      <trkpt lat="59.20673696324229" lon="13.067292999476194">
        <ele>71.77</ele>
        <time>2025-02-03T02:37:52.661Z</time>
      </trkpt>
      <trkpt lat="59.20667393133044" lon="13.067354941740632">
        <ele>71.71</ele>
        <time>2025-02-03T02:37:59.857Z</time>
      </trkpt>
      <trkpt lat="59.206614922732115" lon="13.06741596199572">
        <ele>71.65</ele>
        <time>2025-02-03T02:38:07.054Z</time>
      </trkpt>
      <trkpt lat="59.20655792579055" lon="13.06748192757368">
        <ele>71.59</ele>
        <time>2025-02-03T02:38:14.252Z</time>
      </trkpt>
      <trkpt lat="59.20650294050574" lon="13.067548982799053">
        <ele>71.54</ele>
        <time>2025-02-03T02:38:21.451Z</time>
      </trkpt>
      <trkpt lat="59.20644795522094" lon="13.067617965862155">
        <ele>71.5</ele>
        <time>2025-02-03T02:38:28.651Z</time>
      </trkpt>
      <trkpt lat="59.20639296993613" lon="13.067687954753637">
        <ele>71.46</ele>
        <time>2025-02-03T02:38:35.852Z</time>
      </trkpt>
      <trkpt lat="59.20633697882295" lon="13.06775794364512">
        <ele>71.43</ele>
        <time>2025-02-03T02:38:43.054Z</time>
      </trkpt>
      <trkpt lat="59.20627998188138" lon="13.067829944193363">
        <ele>71.41</ele>
        <time>2025-02-03T02:38:50.257Z</time>
      </trkpt>
      <trkpt lat="59.20621896162629" lon="13.067901944741607">
        <ele>71.39</ele>
        <time>2025-02-03T02:38:57.461Z</time>
      </trkpt>
      <trkpt lat="59.20615391805768" lon="13.06797394528985">
        <ele>71.38</ele>
        <time>2025-02-03T02:39:04.666Z</time>
      </trkpt>
      <trkpt lat="59.20608292333782" lon="13.068041922524571">
        <ele>71.37</ele>
        <time>2025-02-03T02:39:11.873Z</time>
      </trkpt>
      <trkpt lat="59.20600497163832" lon="13.06810294277966">
        <ele>71.38</ele>
        <time>2025-02-03T02:39:19.081Z</time>
      </trkpt>
      <trkpt lat="59.2059179674834" lon="13.068158933892846">
        <ele>71.38</ele>
        <time>2025-02-03T02:39:26.291Z</time>
      </trkpt>
      <trkpt lat="59.20582199469209" lon="13.068213919177651">
        <ele>71.39</ele>
        <time>2025-02-03T02:39:33.502Z</time>
      </trkpt>
      <trkpt lat="59.20572099275887" lon="13.068268988281488">
        <ele>71.4</ele>
        <time>2025-02-03T02:39:40.715Z</time>
      </trkpt>
      <trkpt lat="59.20561496168375" lon="13.068322967737913">
        <ele>71.42</ele>
        <time>2025-02-03T02:39:47.930Z</time>
      </trkpt>
      <trkpt lat="59.20550499111414" lon="13.068377953022718">
        <ele>71.46</ele>
        <time>2025-02-03T02:39:55.146Z</time>
      </trkpt>
      <trkpt lat="59.20539594255388" lon="13.068437967449427">
        <ele>71.5</ele>
        <time>2025-02-03T02:40:02.364Z</time>
      </trkpt>
      <trkpt lat="59.205282954499125" lon="13.068501921370625">
        <ele>71.55</ele>
        <time>2025-02-03T02:40:09.584Z</time>
      </trkpt>
      <trkpt lat="59.20516594313085" lon="13.068563947454095">
        <ele>71.6</ele>
        <time>2025-02-03T02:40:16.806Z</time>
      </trkpt>
      <trkpt lat="59.205044992268085" lon="13.068609964102507">
        <ele>71.65</ele>
        <time>2025-02-03T02:40:24.030Z</time>
      </trkpt>
      <trkpt lat="59.204919934272766" lon="13.068627985194325">
        <ele>71.72</ele>
        <time>2025-02-03T02:40:31.256Z</time>
      </trkpt>
      <trkpt lat="59.2047939542681" lon="13.068604934960604">
        <ele>71.79</ele>
        <time>2025-02-03T02:40:38.484Z</time>
      </trkpt>
      <trkpt lat="59.2046729195863" lon="13.068541986867785">
        <ele>71.87</ele>
        <time>2025-02-03T02:40:45.714Z</time>
      </trkpt>
      <trkpt lat="59.20455892570317" lon="13.068437967449427">
        <ele>71.96</ele>
        <time>2025-02-03T02:40:52.946Z</time>
      </trkpt>
      <trkpt lat="59.20445691794157" lon="13.068301929160953">
        <ele>72.06</ele>
        <time>2025-02-03T02:41:00.180Z</time>
      </trkpt>
      <trkpt lat="59.2043639626354" lon="13.068148959428072">
        <ele>72.17</ele>
        <time>2025-02-03T02:41:07.416Z</time>
      </trkpt>
      <trkpt lat="59.20427695848048" lon="13.067991966381669">
        <ele>72.29</ele>
        <time>2025-02-03T02:41:14.654Z</time>
      </trkpt>
      <trkpt lat="59.20418995432556" lon="13.067839918658137">
        <ele>72.41</ele>
        <time>2025-02-03T02:41:21.894Z</time>
      </trkpt>
      <trkpt lat="59.204102950170636" lon="13.067694995552301">
        <ele>72.54</ele>
        <time>2025-02-03T02:41:29.136Z</time>
      </trkpt>
      <trkpt lat="59.204015946015716" lon="13.067554933950305">
        <ele>72.69</ele>
        <time>2025-02-03T02:41:36.379Z</time>
      </trkpt>
      <trkpt lat="59.203930953517556" lon="13.067420991137624">
        <ele>72.84</ele>
        <time>2025-02-03T02:41:43.624Z</time>
      </trkpt>
      <trkpt lat="59.20384998433292" lon="13.067289981991053">
        <ele>73.01</ele>
        <time>2025-02-03T02:41:50.871Z</time>
      </trkpt>
      <trkpt lat="59.20377194881439" lon="13.0671579670161">
        <ele>73.19</ele>
        <time>2025-02-03T02:41:58.120Z</time>
      </trkpt>
      <trkpt lat="59.20370195992291" lon="13.067022934556007">
        <ele>73.38</ele>
        <time>2025-02-03T02:42:05.370Z</time>
      </trkpt>
      <trkpt lat="59.20363892801106" lon="13.066884968429804">
        <ele>73.57</ele>
        <time>2025-02-03T02:42:12.622Z</time>
      </trkpt>
      <trkpt lat="59.203586960211396" lon="13.06674792431295">
        <ele>73.78</ele>
        <time>2025-02-03T02:42:19.875Z</time>
      </trkpt>
      <trkpt lat="59.203543961048126" lon="13.066617920994759">
        <ele>73.99</ele>
        <time>2025-02-03T02:42:27.129Z</time>
      </trkpt>
      <trkpt lat="59.20350599102676" lon="13.066496970131993">
        <ele>74.21</ele>
        <time>2025-02-03T02:42:34.384Z</time>
      </trkpt>
      <trkpt lat="59.20347196049988" lon="13.066384987905622">
        <ele>74.43</ele>
        <time>2025-02-03T02:42:41.641Z</time>
      </trkpt>
      <trkpt lat="59.20344295911491" lon="13.066281974315643">
        <ele>74.66</ele>
        <time>2025-02-03T02:42:48.899Z</time>
      </trkpt>
      <trkpt lat="59.20341898687184" lon="13.066186923533678">
        <ele>74.88</ele>
        <time>2025-02-03T02:42:56.157Z</time>
      </trkpt>
      <trkpt lat="59.203394930809736" lon="13.066099919378757">
        <ele>75.12</ele>
        <time>2025-02-03T02:43:03.416Z</time>
      </trkpt>
      <trkpt lat="59.20337297022343" lon="13.06601794436574">
        <ele>75.36</ele>
        <time>2025-02-03T02:43:10.676Z</time>
      </trkpt>
      <trkpt lat="59.20335293747485" lon="13.065938986837864">
        <ele>75.61</ele>
        <time>2025-02-03T02:43:17.937Z</time>
      </trkpt>
      <trkpt lat="59.20333692803979" lon="13.065861957147717">
        <ele>75.86</ele>
        <time>2025-02-03T02:43:25.198Z</time>
      </trkpt>
      <trkpt lat="59.203318990767" lon="13.065786939114332">
        <ele>76.12</ele>
        <time>2025-02-03T02:43:32.460Z</time>
      </trkpt>
      <trkpt lat="59.203305998817086" lon="13.065709993243217">
        <ele>76.38</ele>
        <time>2025-02-03T02:43:39.723Z</time>
      </trkpt>
      <trkpt lat="59.20329191721976" lon="13.065636986866593">
        <ele>76.64</ele>
        <time>2025-02-03T02:43:46.986Z</time>
      </trkpt>
      <trkpt lat="59.20327892526984" lon="13.06556398048997">
        <ele>76.91</ele>
        <time>2025-02-03T02:43:54.250Z</time>
      </trkpt>
      <trkpt lat="59.203264927491546" lon="13.065487956628203">
        <ele>77.18</ele>
        <time>2025-02-03T02:44:01.515Z</time>
      </trkpt>
      <trkpt lat="59.20325394719839" lon="13.065410926938057">
        <ele>77.46</ele>
        <time>2025-02-03T02:44:08.780Z</time>
      </trkpt>
      <trkpt lat="59.20324799604714" lon="13.065333981066942">
        <ele>77.75</ele>
        <time>2025-02-03T02:44:16.046Z</time>
      </trkpt>
      <trkpt lat="59.203242966905236" lon="13.065253933891654">
        <ele>78.03</ele>
        <time>2025-02-03T02:44:23.313Z</time>
      </trkpt>
      <trkpt lat="59.203238943591714" lon="13.065173970535398">
        <ele>78.33</ele>
        <time>2025-02-03T02:44:30.580Z</time>
      </trkpt>
      <trkpt lat="59.20323492027819" lon="13.065090989694">
        <ele>78.62</ele>
        <time>2025-02-03T02:44:37.848Z</time>
      </trkpt>
      <trkpt lat="59.2032309807837" lon="13.065011948347092">
        <ele>78.92</ele>
        <time>2025-02-03T02:44:45.117Z</time>
      </trkpt>
      <trkpt lat="59.20322494581342" lon="13.064932990819216">
        <ele>79.23</ele>
        <time>2025-02-03T02:44:52.386Z</time>
      </trkpt>
      <trkpt lat="59.203217988833785" lon="13.064854955300689">
        <ele>79.54</ele>
        <time>2025-02-03T02:44:59.656Z</time>
      </trkpt>
      <trkpt lat="59.2032119538635" lon="13.064776919782162">
        <ele>79.85</ele>
        <time>2025-02-03T02:45:06.927Z</time>
      </trkpt>
      <trkpt lat="59.2032069247216" lon="13.064700979739428">
        <ele>80.17</ele>
        <time>2025-02-03T02:45:14.198Z</time>
      </trkpt>
      <trkpt lat="59.20320197939873" lon="13.064624955877662">
        <ele>80.49</ele>
        <time>2025-02-03T02:45:21.470Z</time>
      </trkpt>
      <trkpt lat="59.203196950256824" lon="13.064551949501038">
        <ele>80.82</ele>
        <time>2025-02-03T02:45:28.742Z</time>
      </trkpt>
      <trkpt lat="59.2031929269433" lon="13.064478943124413">
        <ele>81.15</ele>
        <time>2025-02-03T02:45:36.015Z</time>
      </trkpt>
      <trkpt lat="59.20318898744881" lon="13.06440694257617">
        <ele>81.48</ele>
        <time>2025-02-03T02:45:43.289Z</time>
      </trkpt>
      <trkpt lat="59.20318496413529" lon="13.064335947856307">
        <ele>81.82</ele>
        <time>2025-02-03T02:45:50.563Z</time>
      </trkpt>
      <trkpt lat="59.203179934993386" lon="13.064264953136444">
        <ele>82.16</ele>
        <time>2025-02-03T02:45:57.838Z</time>
      </trkpt>
      <trkpt lat="59.203174989670515" lon="13.064194964244962">
        <ele>82.51</ele>
        <time>2025-02-03T02:46:05.113Z</time>
      </trkpt>
      <trkpt lat="59.20316996052861" lon="13.06412598118186">
        <ele>82.86</ele>
        <time>2025-02-03T02:46:12.389Z</time>
      </trkpt>
      <trkpt lat="59.20316593721509" lon="13.064055992290378">
        <ele>83.21</ele>
        <time>2025-02-03T02:46:19.666Z</time>
      </trkpt>
      <trkpt lat="59.2031619977206" lon="13.063987931236625">
        <ele>83.57</ele>
        <time>2025-02-03T02:46:26.943Z</time>
      </trkpt>
      <trkpt lat="59.203156968578696" lon="13.063919954001904">
        <ele>83.93</ele>
        <time>2025-02-03T02:46:34.221Z</time>
      </trkpt>
      <trkpt lat="59.20315193943679" lon="13.063851976767182">
        <ele>84.29</ele>
        <time>2025-02-03T02:46:41.499Z</time>
      </trkpt>
      <trkpt lat="59.20314699411392" lon="13.063786933198571">
        <ele>84.66</ele>
        <time>2025-02-03T02:46:48.778Z</time>
      </trkpt>
      <trkpt lat="59.2031429708004" lon="13.06371996179223">
        <ele>85.02</ele>
        <time>2025-02-03T02:46:56.057Z</time>
      </trkpt>
      <trkpt lat="59.20313995331526" lon="13.06365491822362">
        <ele>85.4</ele>
        <time>2025-02-03T02:47:03.337Z</time>
      </trkpt>
      <trkpt lat="59.203135930001736" lon="13.06358895264566">
        <ele>85.77</ele>
        <time>2025-02-03T02:47:10.617Z</time>
      </trkpt>
      <trkpt lat="59.203131990507245" lon="13.06352399289608">
        <ele>86.15</ele>
        <time>2025-02-03T02:47:17.898Z</time>
      </trkpt>
      <trkpt lat="59.2031289730221" lon="13.06345995515585">
        <ele>86.53</ele>
        <time>2025-02-03T02:47:25.180Z</time>
      </trkpt>
      <trkpt lat="59.20312293805182" lon="13.063395917415619">
        <ele>86.91</ele>
        <time>2025-02-03T02:47:32.462Z</time>
      </trkpt>
      <trkpt lat="59.20311598107219" lon="13.06333095766604">
        <ele>87.29</ele>
        <time>2025-02-03T02:47:39.745Z</time>
      </trkpt>
      <trkpt lat="59.203110951930285" lon="13.06326599791646">
        <ele>87.68</ele>
        <time>2025-02-03T02:47:47.028Z</time>
      </trkpt>
      <trkpt lat="59.20310298912227" lon="13.063199948519468">
        <ele>88.06</ele>
        <time>2025-02-03T02:47:54.312Z</time>
      </trkpt>
      <trkpt lat="59.203092930838466" lon="13.063137922435999">
        <ele>88.45</ele>
        <time>2025-02-03T02:48:01.596Z</time>
      </trkpt>
      <trkpt lat="59.20308094471693" lon="13.063076985999942">
        <ele>88.85</ele>
        <time>2025-02-03T02:48:08.881Z</time>
      </trkpt>
      <trkpt lat="59.203067952767015" lon="13.063017977401614">
        <ele>89.24</ele>
        <time>2025-02-03T02:48:16.166Z</time>
      </trkpt>
      <trkpt lat="59.20305294916034" lon="13.062962992116809">
        <ele>89.64</ele>
        <time>2025-02-03T02:48:23.452Z</time>
      </trkpt>
      <trkpt lat="59.20303693972528" lon="13.062908928841352">
        <ele>90.03</ele>
        <time>2025-02-03T02:48:30.738Z</time>
      </trkpt>
      <trkpt lat="59.20302093029022" lon="13.062854949384928">
        <ele>90.43</ele>
        <time>2025-02-03T02:48:38.025Z</time>
      </trkpt>
      <trkpt lat="59.203003998845816" lon="13.062803987413645">
        <ele>90.82</ele>
        <time>2025-02-03T02:48:45.312Z</time>
      </trkpt>
      <trkpt lat="59.202985977754" lon="13.062756964936852">
        <ele>91.22</ele>
        <time>2025-02-03T02:48:52.600Z</time>
      </trkpt>
      <trkpt lat="59.2029669508338" lon="13.062707930803299">
        <ele>91.62</ele>
        <time>2025-02-03T02:48:59.888Z</time>
      </trkpt>
      <trkpt lat="59.20294892974198" lon="13.062659986317158">
        <ele>92.01</ele>
        <time>2025-02-03T02:49:07.177Z</time>
      </trkpt>
      <trkpt lat="59.20292898081243" lon="13.062614975497127">
        <ele>92.42</ele>
        <time>2025-02-03T02:49:14.466Z</time>
      </trkpt>
      <trkpt lat="59.20290693640709" lon="13.062571976333857">
        <ele>92.82</ele>
        <time>2025-02-03T02:49:21.756Z</time>
      </trkpt>
      <trkpt lat="59.20288296416402" lon="13.062528977170587">
        <ele>93.22</ele>
        <time>2025-02-03T02:49:29.046Z</time>
      </trkpt>
      <trkpt lat="59.20285899192095" lon="13.062487989664078">
        <ele>93.63</ele>
        <time>2025-02-03T02:49:36.337Z</time>
      </trkpt>
      <trkpt lat="59.202833930030465" lon="13.062446918338537">
        <ele>94.03</ele>
        <time>2025-02-03T02:49:43.628Z</time>
      </trkpt>
      <trkpt lat="59.202810963615775" lon="13.062405930832028">
        <ele>94.43</ele>
        <time>2025-02-03T02:49:50.920Z</time>
      </trkpt>
      <trkpt lat="59.202788919210434" lon="13.062363937497139">
        <ele>94.83</ele>
        <time>2025-02-03T02:49:58.212Z</time>
      </trkpt>
      <trkpt lat="59.202765952795744" lon="13.062324961647391">
        <ele>95.23</ele>
        <time>2025-02-03T02:50:05.505Z</time>
      </trkpt>
      <trkpt lat="59.20274198055267" lon="13.062288919463754">
        <ele>95.63</ele>
        <time>2025-02-03T02:50:12.798Z</time>
      </trkpt>
      <trkpt lat="59.20271792449057" lon="13.062251955270767">
        <ele>96.03</ele>
        <time>2025-02-03T02:50:20.092Z</time>
      </trkpt>
      <trkpt lat="59.20269294641912" lon="13.0622139852494">
        <ele>96.43</ele>
        <time>2025-02-03T02:50:27.386Z</time>
      </trkpt>
      <trkpt lat="59.20266796834767" lon="13.06217492558062">
        <ele>96.83</ele>
        <time>2025-02-03T02:50:34.681Z</time>
      </trkpt>
      <trkpt lat="59.202640978619456" lon="13.062135949730873">
        <ele>97.22</ele>
        <time>2025-02-03T02:50:41.976Z</time>
      </trkpt>
      <trkpt lat="59.20261298306286" lon="13.062096973881125">
        <ele>97.62</ele>
        <time>2025-02-03T02:50:49.272Z</time>
      </trkpt>
      <trkpt lat="59.20258699916303" lon="13.062058920040727">
        <ele>98.01</ele>
        <time>2025-02-03T02:50:56.568Z</time>
      </trkpt>
      <trkpt lat="59.20255992561579" lon="13.06202296167612">
        <ele>98.4</ele>
        <time>2025-02-03T02:51:03.865Z</time>
      </trkpt>
      <trkpt lat="59.202530924230814" lon="13.061985997483134">
        <ele>98.79</ele>
        <time>2025-02-03T02:51:11.163Z</time>
      </trkpt>
      <trkpt lat="59.20250091701746" lon="13.061948949471116">
        <ele>99.18</ele>
        <time>2025-02-03T02:51:18.461Z</time>
      </trkpt>
      <trkpt lat="59.20247099362314" lon="13.06191299110651">
        <ele>99.57</ele>
        <time>2025-02-03T02:51:25.760Z</time>
      </trkpt>
      <trkpt lat="59.20244098640978" lon="13.061875943094492">
        <ele>99.95</ele>
        <time>2025-02-03T02:51:33.059Z</time>
      </trkpt>
      <trkpt lat="59.20240896753967" lon="13.061838978901505">
        <ele>100.33</ele>
        <time>2025-02-03T02:51:40.359Z</time>
      </trkpt>
      <trkpt lat="59.202378960326314" lon="13.061804948374629">
        <ele>100.72</ele>
        <time>2025-02-03T02:51:47.659Z</time>
      </trkpt>
      <trkpt lat="59.20234995894134" lon="13.061770917847753">
        <ele>101.09</ele>
        <time>2025-02-03T02:51:54.960Z</time>
      </trkpt>
      <trkpt lat="59.202319951727986" lon="13.061735965311527">
        <ele>101.47</ele>
        <time>2025-02-03T02:52:02.262Z</time>
      </trkpt>
      <trkpt lat="59.20228893868625" lon="13.06169698946178">
        <ele>101.85</ele>
        <time>2025-02-03T02:52:09.564Z</time>
      </trkpt>
      <trkpt lat="59.20225792564452" lon="13.061660947278142">
        <ele>102.22</ele>
        <time>2025-02-03T02:52:16.867Z</time>
      </trkpt>
      <trkpt lat="59.20222599059343" lon="13.061623983085155">
        <ele>102.59</ele>
        <time>2025-02-03T02:52:24.170Z</time>
      </trkpt>
      <trkpt lat="59.202189948409796" lon="13.06159196421504">
        <ele>102.96</ele>
        <time>2025-02-03T02:52:31.474Z</time>
      </trkpt>
      <trkpt lat="59.20215499587357" lon="13.061563968658447">
        <ele>103.32</ele>
        <time>2025-02-03T02:52:38.779Z</time>
      </trkpt>
      <trkpt lat="59.20211794786155" lon="13.061538990586996">
        <ele>103.68</ele>
        <time>2025-02-03T02:52:46.084Z</time>
      </trkpt>
      <trkpt lat="59.202080983668566" lon="13.061513928696513">
        <ele>104.04</ele>
        <time>2025-02-03T02:52:53.390Z</time>
      </trkpt>
      <trkpt lat="59.202041923999786" lon="13.061488950625062">
        <ele>104.4</ele>
        <time>2025-02-03T02:53:00.696Z</time>
      </trkpt>
      <trkpt lat="59.2020049598068" lon="13.061464978381991">
        <ele>104.75</ele>
        <time>2025-02-03T02:53:08.003Z</time>
      </trkpt>
      <trkpt lat="59.20196698978543" lon="13.061444945633411">
        <ele>105.1</ele>
        <time>2025-02-03T02:53:15.311Z</time>
      </trkpt>
      <trkpt lat="59.201929941773415" lon="13.061423990875483">
        <ele>105.44</ele>
        <time>2025-02-03T02:53:22.619Z</time>
      </trkpt>
      <trkpt lat="59.20189398340881" lon="13.061403958126903">
        <ele>105.78</ele>
        <time>2025-02-03T02:53:29.928Z</time>
      </trkpt>
      <trkpt lat="59.20185693539679" lon="13.061384931206703">
        <ele>106.12</ele>
        <time>2025-02-03T02:53:37.238Z</time>
      </trkpt>
      <trkpt lat="59.20181896537542" lon="13.061367999762297">
        <ele>106.45</ele>
        <time>2025-02-03T02:53:44.548Z</time>
      </trkpt>
      <trkpt lat="59.201782923191786" lon="13.061349978670478">
        <ele>106.78</ele>
        <time>2025-02-03T02:53:51.859Z</time>
      </trkpt>
      <trkpt lat="59.20174696482718" lon="13.061328940093517">
        <ele>107.1</ele>
        <time>2025-02-03T02:53:59.170Z</time>
      </trkpt>
      <trkpt lat="59.20171092264354" lon="13.061303962022066">
        <ele>107.42</ele>
        <time>2025-02-03T02:54:06.482Z</time>
      </trkpt>
      <trkpt lat="59.201674964278936" lon="13.061274960637093">
        <ele>107.74</ele>
        <time>2025-02-03T02:54:13.795Z</time>
      </trkpt>
      <trkpt lat="59.20163791626692" lon="13.061240930110216">
        <ele>108.05</ele>
        <time>2025-02-03T02:54:21.108Z</time>
      </trkpt>
      <trkpt lat="59.20159793458879" lon="13.061202960088849">
        <ele>108.36</ele>
        <time>2025-02-03T02:54:28.422Z</time>
      </trkpt>
      <trkpt lat="59.2015609703958" lon="13.06116197258234">
        <ele>108.67</ele>
        <time>2025-02-03T02:54:35.737Z</time>
      </trkpt>
      <trkpt lat="59.201524928212166" lon="13.06111997924745">
        <ele>108.97</ele>
        <time>2025-02-03T02:54:43.052Z</time>
      </trkpt>
      <trkpt lat="59.2014869581908" lon="13.06107698008418">
        <ele>109.27</ele>
        <time>2025-02-03T02:54:50.368Z</time>
      </trkpt>
      <trkpt lat="59.20144898816943" lon="13.06103297509253">
        <ele>109.56</ele>
        <time>2025-02-03T02:54:57.685Z</time>
      </trkpt>
      <trkpt lat="59.201412945985794" lon="13.060986958444118">
        <ele>109.85</ele>
        <time>2025-02-03T02:55:05.002Z</time>
      </trkpt>
      <trkpt lat="59.201373970136046" lon="13.060939935967326">
        <ele>110.14</ele>
        <time>2025-02-03T02:55:12.320Z</time>
      </trkpt>
      <trkpt lat="59.20133893378079" lon="13.060891991481185">
        <ele>110.42</ele>
        <time>2025-02-03T02:55:19.639Z</time>
      </trkpt>
      <trkpt lat="59.201303981244564" lon="13.060842957347631">
        <ele>110.69</ele>
        <time>2025-02-03T02:55:26.959Z</time>
      </trkpt>
      <trkpt lat="59.20127095654607" lon="13.060794929042459">
        <ele>110.97</ele>
        <time>2025-02-03T02:55:34.279Z</time>
      </trkpt>
      <trkpt lat="59.2012329865247" lon="13.060747990384698">
        <ele>111.23</ele>
        <time>2025-02-03T02:55:41.600Z</time>
      </trkpt>
      <trkpt lat="59.20119593851268" lon="13.060700967907906">
        <ele>111.5</ele>
        <time>2025-02-03T02:55:48.922Z</time>
      </trkpt>
      <trkpt lat="59.201158974319696" lon="13.060653945431113">
        <ele>111.75</ele>
        <time>2025-02-03T02:55:56.244Z</time>
      </trkpt>
      <trkpt lat="59.20111999846995" lon="13.06060398928821">
        <ele>112.01</ele>
        <time>2025-02-03T02:56:03.567Z</time>
      </trkpt>
      <trkpt lat="59.20107993297279" lon="13.060552943497896">
        <ele>112.26</ele>
        <time>2025-02-03T02:56:10.891Z</time>
      </trkpt>
      <trkpt lat="59.2010429687798" lon="13.060501981526613">
        <ele>112.5</ele>
        <time>2025-02-03T02:56:18.216Z</time>
      </trkpt>
      <trkpt lat="59.201005920767784" lon="13.060450935736299">
        <ele>112.74</ele>
        <time>2025-02-03T02:56:25.541Z</time>
      </trkpt>
      <trkpt lat="59.200965939089656" lon="13.060398967936635">
        <ele>112.97</ele>
        <time>2025-02-03T02:56:32.867Z</time>
      </trkpt>
      <trkpt lat="59.200922939926386" lon="13.060345994308591">
        <ele>113.19</ele>
        <time>2025-02-03T02:56:40.194Z</time>
      </trkpt>
      <trkpt lat="59.2008809465915" lon="13.060292936861515">
        <ele>113.41</ele>
        <time>2025-02-03T02:56:47.522Z</time>
      </trkpt>
      <trkpt lat="59.20084096491337" lon="13.060242980718613">
        <ele>113.63</ele>
        <time>2025-02-03T02:56:54.850Z</time>
      </trkpt>
      <trkpt lat="59.200802994892" lon="13.060190929099917">
        <ele>113.84</ele>
        <time>2025-02-03T02:57:02.179Z</time>
      </trkpt>
      <trkpt lat="59.20076292939484" lon="13.060138961300254">
        <ele>114.04</ele>
        <time>2025-02-03T02:57:09.509Z</time>
      </trkpt>
      <trkpt lat="59.200724959373474" lon="13.06008699350059">
        <ele>114.24</ele>
        <time>2025-02-03T02:57:16.840Z</time>
      </trkpt>
      <trkpt lat="59.20068992301822" lon="13.060037959367037">
        <ele>114.43</ele>
        <time>2025-02-03T02:57:24.171Z</time>
      </trkpt>
      <trkpt lat="59.20065195299685" lon="13.059991942718625">
        <ele>114.62</ele>
        <time>2025-02-03T02:57:31.503Z</time>
      </trkpt>
      <trkpt lat="59.20061498880386" lon="13.059944920241833">
        <ele>114.8</ele>
        <time>2025-02-03T02:57:38.836Z</time>
      </trkpt>
      <trkpt lat="59.200577940791845" lon="13.059895969927311">
        <ele>114.98</ele>
        <time>2025-02-03T02:57:46.170Z</time>
      </trkpt>
      <trkpt lat="59.20054198242724" lon="13.05985196493566">
        <ele>115.15</ele>
        <time>2025-02-03T02:57:53.504Z</time>
      </trkpt>
      <trkpt lat="59.20050795190036" lon="13.05980896577239">
        <ele>115.31</ele>
        <time>2025-02-03T02:58:00.839Z</time>
      </trkpt>
      <trkpt lat="59.20047299936414" lon="13.059762949123979">
        <ele>115.47</ele>
        <time>2025-02-03T02:58:08.175Z</time>
      </trkpt>
      <trkpt lat="59.20043595135212" lon="13.059714920818806">
        <ele>115.62</ele>
        <time>2025-02-03T02:58:15.511Z</time>
      </trkpt>
      <trkpt lat="59.20039898715913" lon="13.059668987989426">
        <ele>115.77</ele>
        <time>2025-02-03T02:58:22.848Z</time>
      </trkpt>
      <trkpt lat="59.200359927490354" lon="13.059623977169394">
        <ele>115.91</ele>
        <time>2025-02-03T02:58:30.186Z</time>
      </trkpt>
      <trkpt lat="59.200318939983845" lon="13.059575948864222">
        <ele>116.05</ele>
        <time>2025-02-03T02:58:37.524Z</time>
      </trkpt>
      <trkpt lat="59.200275940820575" lon="13.059527920559049">
        <ele>116.18</ele>
        <time>2025-02-03T02:58:44.863Z</time>
      </trkpt>
      <trkpt lat="59.20022992417216" lon="13.05948299355805">
        <ele>116.3</ele>
        <time>2025-02-03T02:58:52.203Z</time>
      </trkpt>
      <trkpt lat="59.20017996802926" lon="13.059438988566399">
        <ele>116.42</ele>
        <time>2025-02-03T02:58:59.544Z</time>
      </trkpt>
      <trkpt lat="59.20012699440122" lon="13.059392971917987">
        <ele>116.53</ele>
        <time>2025-02-03T02:59:06.886Z</time>
      </trkpt>
      <trkpt lat="59.20007192529738" lon="13.059345949441195">
        <ele>116.64</ele>
        <time>2025-02-03T02:59:14.229Z</time>
      </trkpt>
      <trkpt lat="59.20001492835581" lon="13.059301944449544">
        <ele>116.74</ele>
        <time>2025-02-03T02:59:21.573Z</time>
      </trkpt>
      <trkpt lat="59.199952986091375" lon="13.059260956943035">
        <ele>116.84</ele>
        <time>2025-02-03T02:59:28.918Z</time>
      </trkpt>
      <trkpt lat="59.199888948351145" lon="13.059220975264907">
        <ele>116.93</ele>
        <time>2025-02-03T02:59:36.264Z</time>
      </trkpt>
      <trkpt lat="59.199823988601565" lon="13.059179987758398">
        <ele>117.02</ele>
        <time>2025-02-03T02:59:43.611Z</time>
      </trkpt>
      <trkpt lat="59.19975693337619" lon="13.059137994423509">
        <ele>117.1</ele>
        <time>2025-02-03T02:59:50.959Z</time>
      </trkpt>
      <trkpt lat="59.19968694448471" lon="13.059096923097968">
        <ele>117.17</ele>
        <time>2025-02-03T02:59:58.308Z</time>
      </trkpt>
      <trkpt lat="59.19961494393647" lon="13.05905694141984">
        <ele>117.24</ele>
        <time>2025-02-03T03:00:05.659Z</time>
      </trkpt>
      <trkpt lat="59.19954093173146" lon="13.059021988883615">
        <ele>117.31</ele>
        <time>2025-02-03T03:00:13.011Z</time>
      </trkpt>
      <trkpt lat="59.19946499168873" lon="13.058988964185119">
        <ele>117.36</ele>
        <time>2025-02-03T03:00:20.364Z</time>
      </trkpt>
      <trkpt lat="59.1993869561702" lon="13.058954933658242">
        <ele>117.42</ele>
        <time>2025-02-03T03:00:27.718Z</time>
      </trkpt>
      <trkpt lat="59.199308920651674" lon="13.058920986950397">
        <ele>117.46</ele>
        <time>2025-02-03T03:00:35.074Z</time>
      </trkpt>
      <trkpt lat="59.19923197478056" lon="13.05888393893838">
        <ele>117.49</ele>
        <time>2025-02-03T03:00:42.431Z</time>
      </trkpt>
      <trkpt lat="59.19915494509041" lon="13.058843957260251">
        <ele>117.51</ele>
        <time>2025-02-03T03:00:49.789Z</time>
      </trkpt>
      <trkpt lat="59.1990779992193" lon="13.058802969753742">
        <ele>117.53</ele>
        <time>2025-02-03T03:00:57.148Z</time>
      </trkpt>
      <trkpt lat="59.19900096952915" lon="13.05875494144857">
        <ele>117.55</ele>
        <time>2025-02-03T03:01:04.509Z</time>
      </trkpt>
      <trkpt lat="59.19892595149577" lon="13.058701967820525">
        <ele>117.56</ele>
        <time>2025-02-03T03:01:11.871Z</time>
      </trkpt>
      <trkpt lat="59.19885294511914" lon="13.058642959222198">
        <ele>117.56</ele>
        <time>2025-02-03T03:01:19.234Z</time>
      </trkpt>
      <trkpt lat="59.19878195039928" lon="13.058575987815857">
        <ele>117.56</ele>
        <time>2025-02-03T03:01:26.599Z</time>
      </trkpt>
      <trkpt lat="59.19871397316456" lon="13.058501975610852">
        <ele>117.56</ele>
        <time>2025-02-03T03:01:33.965Z</time>
      </trkpt>
      <trkpt lat="59.19865194708109" lon="13.058418994769454">
        <ele>117.55</ele>
        <time>2025-02-03T03:01:41.332Z</time>
      </trkpt>
      <trkpt lat="59.19859394431114" lon="13.05832696147263">
        <ele>117.54</ele>
        <time>2025-02-03T03:01:48.700Z</time>
      </trkpt>
      <trkpt lat="59.19853996485472" lon="13.058228977024555">
        <ele>117.52</ele>
        <time>2025-02-03T03:01:56.069Z</time>
      </trkpt>
      <trkpt lat="59.198490930721164" lon="13.058125963434577">
        <ele>117.5</ele>
        <time>2025-02-03T03:02:03.440Z</time>
      </trkpt>
      <trkpt lat="59.198444997891784" lon="13.058017920702696">
        <ele>117.47</ele>
        <time>2025-02-03T03:02:10.812Z</time>
      </trkpt>
      <trkpt lat="59.19840099290013" lon="13.057908955961466">
        <ele>117.43</ele>
        <time>2025-02-03T03:02:18.185Z</time>
      </trkpt>
      <trkpt lat="59.198358999565244" lon="13.057796973735094">
        <ele>117.4</ele>
        <time>2025-02-03T03:02:25.559Z</time>
      </trkpt>
      <trkpt lat="59.198320945724845" lon="13.057685997337103">
        <ele>117.36</ele>
        <time>2025-02-03T03:02:32.934Z</time>
      </trkpt>
      <trkpt lat="59.19828792102635" lon="13.05757594294846">
        <ele>117.31</ele>
        <time>2025-02-03T03:02:40.310Z</time>
      </trkpt>
      <trkpt lat="59.198256991803646" lon="13.057467984035611">
        <ele>117.26</ele>
        <time>2025-02-03T03:02:47.687Z</time>
      </trkpt>
      <trkpt lat="59.19822497293353" lon="13.05735994130373">
        <ele>117.19</ele>
        <time>2025-02-03T03:02:55.065Z</time>
      </trkpt>
      <trkpt lat="59.19819597154856" lon="13.057254999876022">
        <ele>117.12</ele>
        <time>2025-02-03T03:03:02.444Z</time>
      </trkpt>
      <trkpt lat="59.198168981820345" lon="13.057147962972522">
        <ele>117.04</ele>
        <time>2025-02-03T03:03:09.824Z</time>
      </trkpt>
      <trkpt lat="59.19814492575824" lon="13.057040926069021">
        <ele>116.96</ele>
        <time>2025-02-03T03:03:17.205Z</time>
      </trkpt>
      <trkpt lat="59.19812195934355" lon="13.05692994967103">
        <ele>116.86</ele>
        <time>2025-02-03T03:03:24.587Z</time>
      </trkpt>
      <trkpt lat="59.19810192659497" lon="13.056816961616278">
        <ele>116.77</ele>
        <time>2025-02-03T03:03:31.970Z</time>
      </trkpt>
      <trkpt lat="59.198084995150566" lon="13.056702967733145">
        <ele>116.66</ele>
        <time>2025-02-03T03:03:39.354Z</time>
      </trkpt>
      <trkpt lat="59.19807099737227" lon="13.05658696219325">
        <ele>116.55</ele>
        <time>2025-02-03T03:03:46.739Z</time>
      </trkpt>
      <trkpt lat="59.19805792160332" lon="13.056467939168215">
        <ele>116.43</ele>
        <time>2025-02-03T03:03:54.125Z</time>
      </trkpt>
      <trkpt lat="59.19804895296693" lon="13.05634698830545">
        <ele>116.31</ele>
        <time>2025-02-03T03:04:01.512Z</time>
      </trkpt>
      <trkpt lat="59.198039984330535" lon="13.05622193031013">
        <ele>116.18</ele>
        <time>2025-02-03T03:04:08.900Z</time>
      </trkpt>
      <trkpt lat="59.19803495518863" lon="13.056095950305462">
        <ele>116.04</ele>
        <time>2025-02-03T03:04:16.289Z</time>
      </trkpt>
      <trkpt lat="59.19803093187511" lon="13.055965946987271">
        <ele>115.9</ele>
        <time>2025-02-03T03:04:23.679Z</time>
      </trkpt>
      <trkpt lat="59.19802498072386" lon="13.0558349378407">
        <ele>115.75</ele>
        <time>2025-02-03T03:04:31.070Z</time>
      </trkpt>
      <trkpt lat="59.198019951581955" lon="13.055699989199638">
        <ele>115.59</ele>
        <time>2025-02-03T03:04:38.462Z</time>
      </trkpt>
      <trkpt lat="59.19801391661167" lon="13.055562945082784">
        <ele>115.42</ele>
        <time>2025-02-03T03:04:45.855Z</time>
      </trkpt>
      <trkpt lat="59.19800494797528" lon="13.055422967299819">
        <ele>115.25</ele>
        <time>2025-02-03T03:04:53.250Z</time>
      </trkpt>
      <trkpt lat="59.19799396768212" lon="13.055280977860093">
        <ele>115.08</ele>
        <time>2025-02-03T03:05:00.646Z</time>
      </trkpt>
      <trkpt lat="59.197978964075446" lon="13.055138988420367">
        <ele>114.9</ele>
        <time>2025-02-03T03:05:08.043Z</time>
      </trkpt>
      <trkpt lat="59.19796094298363" lon="13.055001944303513">
        <ele>114.72</ele>
        <time>2025-02-03T03:05:15.441Z</time>
      </trkpt>
      <trkpt lat="59.197935964912176" lon="13.054862972348928">
        <ele>114.53</ele>
        <time>2025-02-03T03:05:22.840Z</time>
      </trkpt>
      <trkpt lat="59.197909981012344" lon="13.054728945717216">
        <ele>114.33</ele>
        <time>2025-02-03T03:05:30.241Z</time>
      </trkpt>
      <trkpt lat="59.19787896797061" lon="13.054595924913883">
        <ele>114.13</ele>
        <time>2025-02-03T03:05:37.643Z</time>
      </trkpt>
      <trkpt lat="59.19784292578697" lon="13.054462987929583">
        <ele>113.92</ele>
        <time>2025-02-03T03:05:45.046Z</time>
      </trkpt>
      <trkpt lat="59.19780193828046" lon="13.054326949641109">
        <ele>113.71</ele>
        <time>2025-02-03T03:05:52.450Z</time>
      </trkpt>
      <trkpt lat="59.19775893911719" lon="13.054195940494537">
        <ele>113.48</ele>
        <time>2025-02-03T03:05:59.856Z</time>
      </trkpt>
      <trkpt lat="59.19771292246878" lon="13.054068954661489">
        <ele>113.26</ele>
        <time>2025-02-03T03:06:07.263Z</time>
      </trkpt>
      <trkpt lat="59.19766497798264" lon="13.053944986313581">
        <ele>113.02</ele>
        <time>2025-02-03T03:06:14.671Z</time>
      </trkpt>
      <trkpt lat="59.197613932192326" lon="13.053824957460165">
        <ele>112.78</ele>
        <time>2025-02-03T03:06:22.080Z</time>
      </trkpt>
      <trkpt lat="59.1975599527359" lon="13.05370694026351">
        <ele>112.53</ele>
        <time>2025-02-03T03:06:29.491Z</time>
      </trkpt>
      <trkpt lat="59.197504967451096" lon="13.053591940551996">
        <ele>112.27</ele>
        <time>2025-02-03T03:06:36.903Z</time>
      </trkpt>
      <trkpt lat="59.19745098799467" lon="13.053478952497244">
        <ele>112.01</ele>
        <time>2025-02-03T03:06:44.316Z</time>
      </trkpt>
      <trkpt lat="59.197396924719214" lon="13.053366970270872">
        <ele>111.75</ele>
        <time>2025-02-03T03:06:51.731Z</time>
      </trkpt>
      <trkpt lat="59.19734294526279" lon="13.053255993872881">
        <ele>111.47</ele>
        <time>2025-02-03T03:06:59.147Z</time>
      </trkpt>
      <trkpt lat="59.197287959977984" lon="13.053143927827477">
        <ele>111.2</ele>
        <time>2025-02-03T03:07:06.564Z</time>
      </trkpt>
      <trkpt lat="59.1972319688648" lon="13.053032951429486">
        <ele>110.92</ele>
        <time>2025-02-03T03:07:13.982Z</time>
      </trkpt>
      <trkpt lat="59.19717497192323" lon="13.052921975031495">
        <ele>110.63</ele>
        <time>2025-02-03T03:07:21.402Z</time>
      </trkpt>
      <trkpt lat="59.197114957496524" lon="13.052814938127995">
        <ele>110.34</ele>
        <time>2025-02-03T03:07:28.823Z</time>
      </trkpt>
      <trkpt lat="59.197048991918564" lon="13.052708990871906">
        <ele>110.04</ele>
        <time>2025-02-03T03:07:36.245Z</time>
      </trkpt>
      <trkpt lat="59.19697992503643" lon="13.052605977281928">
        <ele>109.74</ele>
        <time>2025-02-03T03:07:43.669Z</time>
      </trkpt>
      <trkpt lat="59.19690599665046" lon="13.052504975348711">
        <ele>109.43</ele>
        <time>2025-02-03T03:07:51.094Z</time>
      </trkpt>
      <trkpt lat="59.19682896696031" lon="13.052401961758733">
        <ele>109.11</ele>
        <time>2025-02-03T03:07:58.521Z</time>
      </trkpt>
      <trkpt lat="59.19674891978502" lon="13.052293919026852">
        <ele>108.79</ele>
        <time>2025-02-03T03:08:05.949Z</time>
      </trkpt>
      <trkpt lat="59.196665938943624" lon="13.05218193680048">
        <ele>108.46</ele>
        <time>2025-02-03T03:08:13.379Z</time>
      </trkpt>
      <trkpt lat="59.196581952273846" lon="13.052064925432205">
        <ele>108.13</ele>
        <time>2025-02-03T03:08:20.811Z</time>
      </trkpt>
      <trkpt lat="59.19649897143245" lon="13.051940957084298">
        <ele>107.8</ele>
        <time>2025-02-03T03:08:28.244Z</time>
      </trkpt>
      <trkpt lat="59.19641791842878" lon="13.051808942109346">
        <ele>107.46</ele>
        <time>2025-02-03T03:08:35.679Z</time>
      </trkpt>
      <trkpt lat="59.19633795507252" lon="13.05166695266962">
        <ele>107.11</ele>
        <time>2025-02-03T03:08:43.116Z</time>
      </trkpt>
      <trkpt lat="59.196260925382376" lon="13.051515994593501">
        <ele>106.76</ele>
        <time>2025-02-03T03:08:50.554Z</time>
      </trkpt>
      <trkpt lat="59.1961869969964" lon="13.051359923556447">
        <ele>106.4</ele>
        <time>2025-02-03T03:08:57.994Z</time>
      </trkpt>
      <trkpt lat="59.19611499644816" lon="13.051198991015553">
        <ele>106.04</ele>
        <time>2025-02-03T03:09:05.436Z</time>
      </trkpt>
      <trkpt lat="59.196043917909265" lon="13.051033951342106">
        <ele>105.67</ele>
        <time>2025-02-03T03:09:12.880Z</time>
      </trkpt>
      <trkpt lat="59.19597493484616" lon="13.050863966345787">
        <ele>105.29</ele>
        <time>2025-02-03T03:09:20.325Z</time>
      </trkpt>
      <trkpt lat="59.19590997509658" lon="13.050682917237282">
        <ele>104.92</ele>
        <time>2025-02-03T03:09:27.772Z</time>
      </trkpt>
      <trkpt lat="59.19585297815502" lon="13.050490971654654">
        <ele>104.54</ele>
        <time>2025-02-03T03:09:35.221Z</time>
      </trkpt>
      <trkpt lat="59.19579992070794" lon="13.050293996930122">
        <ele>104.17</ele>
        <time>2025-02-03T03:09:42.672Z</time>
      </trkpt>
      <trkpt lat="59.1957469470799" lon="13.050093920901418">
        <ele>103.79</ele>
        <time>2025-02-03T03:09:50.125Z</time>
      </trkpt>
      <trkpt lat="59.195696990936995" lon="13.049891917034984">
        <ele>103.41</ele>
        <time>2025-02-03T03:09:57.580Z</time>
      </trkpt>
      <trkpt lat="59.1956449393183" lon="13.04968697950244">
        <ele>103.02</ele>
        <time>2025-02-03T03:10:05.037Z</time>
      </trkpt>
      <trkpt lat="59.195590959861875" lon="13.049478940665722">
        <ele>102.63</ele>
        <time>2025-02-03T03:10:12.495Z</time>
      </trkpt>
      <trkpt lat="59.19553899206221" lon="13.049269979819655">
        <ele>102.24</ele>
        <time>2025-02-03T03:10:19.955Z</time>
      </trkpt>
      <trkpt lat="59.195485934615135" lon="13.049056995660067">
        <ele>101.84</ele>
        <time>2025-02-03T03:10:27.417Z</time>
      </trkpt>
      <trkpt lat="59.19543094933033" lon="13.048840994015336">
        <ele>101.44</ele>
        <time>2025-02-03T03:10:34.881Z</time>
      </trkpt>
      <trkpt lat="59.195378981530666" lon="13.048618957400322">
        <ele>101.04</ele>
        <time>2025-02-03T03:10:42.347Z</time>
      </trkpt>
      <trkpt lat="59.19532894156873" lon="13.048388957977295">
        <ele>100.63</ele>
        <time>2025-02-03T03:10:49.815Z</time>
      </trkpt>
      <trkpt lat="59.19528493657708" lon="13.048152923583984">
        <ele>100.22</ele>
        <time>2025-02-03T03:10:57.285Z</time>
      </trkpt>
      <trkpt lat="59.195252917706966" lon="13.04790892638266">
        <ele>99.8</ele>
        <time>2025-02-03T03:11:04.757Z</time>
      </trkpt>
      <trkpt lat="59.19523498043418" lon="13.047653948888183">
        <ele>99.37</ele>
        <time>2025-02-03T03:11:12.232Z</time>
      </trkpt>
      <trkpt lat="59.19523799791932" lon="13.047394948080182">
        <ele>98.95</ele>
        <time>2025-02-03T03:11:19.709Z</time>
      </trkpt>
      <trkpt lat="59.195266999304295" lon="13.047140976414084">
        <ele>98.52</ele>
        <time>2025-02-03T03:11:27.188Z</time>
      </trkpt>
      <trkpt lat="59.1953079868108" lon="13.046886920928955">
        <ele>98.09</ele>
        <time>2025-02-03T03:11:34.669Z</time>
      </trkpt>
      <trkpt lat="59.19534796848893" lon="13.046630937606096">
        <ele>97.67</ele>
        <time>2025-02-03T03:11:42.152Z</time>
      </trkpt>
      <trkpt lat="59.19537998735905" lon="13.046372942626476">
        <ele>97.23</ele>
        <time>2025-02-03T03:11:49.637Z</time>
      </trkpt>
      <trkpt lat="59.195398930460215" lon="13.046114947646856">
        <ele>96.81</ele>
        <time>2025-02-03T03:11:57.125Z</time>
      </trkpt>
      <trkpt lat="59.1954049654305" lon="13.04586298763752">
        <ele>96.39</ele>
        <time>2025-02-03T03:12:04.615Z</time>
      </trkpt>
      <trkpt lat="59.19540395960212" lon="13.045617984607816">
        <ele>95.97</ele>
        <time>2025-02-03T03:12:12.107Z</time>
      </trkpt>
      <trkpt lat="59.195399936288595" lon="13.045380944386125">
        <ele>95.55</ele>
        <time>2025-02-03T03:12:19.601Z</time>
      </trkpt>
      <trkpt lat="59.195394990965724" lon="13.045149939134717">
        <ele>95.14</ele>
        <time>2025-02-03T03:12:27.097Z</time>
      </trkpt>
      <trkpt lat="59.1953909676522" lon="13.044927986338735">
        <ele>94.72</ele>
        <time>2025-02-03T03:12:34.594Z</time>
      </trkpt>
      <trkpt lat="59.1953859385103" lon="13.044712990522385">
        <ele>94.31</ele>
        <time>2025-02-03T03:12:42.093Z</time>
      </trkpt>
      <trkpt lat="59.195377975702286" lon="13.044501934200525">
        <ele>93.89</ele>
        <time>2025-02-03T03:12:49.594Z</time>
      </trkpt>
      <trkpt lat="59.19536598958075" lon="13.044292973354459">
        <ele>93.48</ele>
        <time>2025-02-03T03:12:57.097Z</time>
      </trkpt>
      <trkpt lat="59.19534696266055" lon="13.044087952002883">
        <ele>93.07</ele>
        <time>2025-02-03T03:13:04.601Z</time>
      </trkpt>
      <trkpt lat="59.19532299041748" lon="13.043884942308068">
        <ele>92.64</ele>
        <time>2025-02-03T03:13:12.107Z</time>
      </trkpt>
      <trkpt lat="59.19529398903251" lon="13.043687967583537">
        <ele>92.23</ele>
        <time>2025-02-03T03:13:19.615Z</time>
      </trkpt>
      <trkpt lat="59.19526197016239" lon="13.043498955667019">
        <ele>91.82</ele>
        <time>2025-02-03T03:13:27.124Z</time>
      </trkpt>
      <trkpt lat="59.195227939635515" lon="13.043315978720784">
        <ele>91.4</ele>
        <time>2025-02-03T03:13:34.635Z</time>
      </trkpt>
      <trkpt lat="59.19519399292767" lon="13.043140964582562">
        <ele>90.98</ele>
        <time>2025-02-03T03:13:42.148Z</time>
      </trkpt>
      <trkpt lat="59.195162979885936" lon="13.042970979586244">
        <ele>90.56</ele>
        <time>2025-02-03T03:13:49.662Z</time>
      </trkpt>
      <trkpt lat="59.19513498432934" lon="13.042805939912796">
        <ele>90.15</ele>
        <time>2025-02-03T03:13:57.177Z</time>
      </trkpt>
      <trkpt lat="59.19510891661048" lon="13.042648946866393">
        <ele>89.73</ele>
        <time>2025-02-03T03:14:04.694Z</time>
      </trkpt>
      <trkpt lat="59.195080921053886" lon="13.042501928284764">
        <ele>89.31</ele>
        <time>2025-02-03T03:14:12.212Z</time>
      </trkpt>
      <trkpt lat="59.19505191966891" lon="13.042356921359897">
        <ele>88.89</ele>
        <time>2025-02-03T03:14:19.731Z</time>
      </trkpt>
      <trkpt lat="59.19502199627459" lon="13.04221099242568">
        <ele>88.47</ele>
        <time>2025-02-03T03:14:27.252Z</time>
      </trkpt>
      <trkpt lat="59.194989977404475" lon="13.042057938873768">
        <ele>88.04</ele>
        <time>2025-02-03T03:14:34.774Z</time>
      </trkpt>
      <trkpt lat="59.19495494104922" lon="13.041901951655746">
        <ele>87.61</ele>
        <time>2025-02-03T03:14:42.297Z</time>
      </trkpt>
      <trkpt lat="59.19491898268461" lon="13.04174093529582">
        <ele>87.18</ele>
        <time>2025-02-03T03:14:49.822Z</time>
      </trkpt>
      <trkpt lat="59.194883946329355" lon="13.041578996926546">
        <ele>86.74</ele>
        <time>2025-02-03T03:14:57.348Z</time>
      </trkpt>
      <trkpt lat="59.19484698213637" lon="13.04141596890986">
        <ele>86.31</ele>
        <time>2025-02-03T03:15:04.876Z</time>
      </trkpt>
      <trkpt lat="59.19481093995273" lon="13.04124891757965">
        <ele>85.87</ele>
        <time>2025-02-03T03:15:12.405Z</time>
      </trkpt>
      <trkpt lat="59.194773975759745" lon="13.041076920926571">
        <ele>85.43</ele>
        <time>2025-02-03T03:15:19.936Z</time>
      </trkpt>
      <trkpt lat="59.194736927747726" lon="13.04089897312224">
        <ele>84.99</ele>
        <time>2025-02-03T03:15:27.468Z</time>
      </trkpt>
      <trkpt lat="59.19470096938312" lon="13.040711972862482">
        <ele>84.55</ele>
        <time>2025-02-03T03:15:35.002Z</time>
      </trkpt>
      <trkpt lat="59.194667944684625" lon="13.040510974824429">
        <ele>84.11</ele>
        <time>2025-02-03T03:15:42.538Z</time>
      </trkpt>
      <trkpt lat="59.19463894329965" lon="13.04029899649322">
        <ele>83.67</ele>
        <time>2025-02-03T03:15:50.076Z</time>
      </trkpt>
      <trkpt lat="59.19462192803621" lon="13.040079977363348">
        <ele>83.24</ele>
        <time>2025-02-03T03:15:57.615Z</time>
      </trkpt>
      <trkpt lat="59.19461497105658" lon="13.039855929091573">
        <ele>82.8</ele>
        <time>2025-02-03T03:16:05.156Z</time>
      </trkpt>
      <trkpt lat="59.19461295939982" lon="13.039628947153687">
        <ele>82.37</ele>
        <time>2025-02-03T03:16:12.699Z</time>
      </trkpt>
      <trkpt lat="59.19460994191468" lon="13.039400959387422">
        <ele>81.93</ele>
        <time>2025-02-03T03:16:20.244Z</time>
      </trkpt>
      <trkpt lat="59.194603990763426" lon="13.039167942479253">
        <ele>81.49</ele>
        <time>2025-02-03T03:16:27.791Z</time>
      </trkpt>
      <trkpt lat="59.194594938308" lon="13.038934925571084">
        <ele>81.06</ele>
        <time>2025-02-03T03:16:35.340Z</time>
      </trkpt>
      <trkpt lat="59.19457993470132" lon="13.038698974996805">
        <ele>80.63</ele>
        <time>2025-02-03T03:16:42.891Z</time>
      </trkpt>
      <trkpt lat="59.194557974115014" lon="13.038465958088636">
        <ele>80.21</ele>
        <time>2025-02-03T03:16:50.444Z</time>
      </trkpt>
      <trkpt lat="59.19453199021518" lon="13.038234952837229">
        <ele>79.79</ele>
        <time>2025-02-03T03:16:57.999Z</time>
      </trkpt>
      <trkpt lat="59.19450198300183" lon="13.03800193592906">
        <ele>79.37</ele>
        <time>2025-02-03T03:17:05.556Z</time>
      </trkpt>
      <trkpt lat="59.19446996413171" lon="13.037767997011542">
        <ele>78.95</ele>
        <time>2025-02-03T03:17:13.115Z</time>
      </trkpt>
      <trkpt lat="59.194433921948075" lon="13.037534980103374">
        <ele>78.55</ele>
        <time>2025-02-03T03:17:20.676Z</time>
      </trkpt>
      <trkpt lat="59.19439595192671" lon="13.037301963195205">
        <ele>78.14</ele>
        <time>2025-02-03T03:17:28.239Z</time>
      </trkpt>
      <trkpt lat="59.19435597024858" lon="13.037069952115417">
        <ele>77.74</ele>
        <time>2025-02-03T03:17:35.804Z</time>
      </trkpt>
      <trkpt lat="59.19431498274207" lon="13.036843976005912">
        <ele>77.34</ele>
        <time>2025-02-03T03:17:43.371Z</time>
      </trkpt>
      <trkpt lat="59.1942719835788" lon="13.036622945219278">
        <ele>76.93</ele>
        <time>2025-02-03T03:17:50.940Z</time>
      </trkpt>
      <trkpt lat="59.19422999024391" lon="13.036400992423296">
        <ele>76.52</ele>
        <time>2025-02-03T03:17:58.511Z</time>
      </trkpt>
      <trkpt lat="59.19419294223189" lon="13.036179961636662">
        <ele>76.11</ele>
        <time>2025-02-03T03:18:06.083Z</time>
      </trkpt>
      <trkpt lat="59.19415497221053" lon="13.035962954163551">
        <ele>75.7</ele>
        <time>2025-02-03T03:18:13.657Z</time>
      </trkpt>
      <trkpt lat="59.19411599636078" lon="13.035750975832343">
        <ele>75.3</ele>
        <time>2025-02-03T03:18:21.233Z</time>
      </trkpt>
      <trkpt lat="59.19407995417714" lon="13.035541931167245">
        <ele>74.9</ele>
        <time>2025-02-03T03:18:28.811Z</time>
      </trkpt>
      <trkpt lat="59.194042989984155" lon="13.03533892147243">
        <ele>74.5</ele>
        <time>2025-02-03T03:18:36.391Z</time>
      </trkpt>
      <trkpt lat="59.19400694780052" lon="13.035141946747899">
        <ele>74.1</ele>
        <time>2025-02-03T03:18:43.972Z</time>
      </trkpt>
      <trkpt lat="59.19396394863725" lon="13.03494798950851">
        <ele>73.71</ele>
        <time>2025-02-03T03:18:51.555Z</time>
      </trkpt>
      <trkpt lat="59.193918937817216" lon="13.034763922914863">
        <ele>73.32</ele>
        <time>2025-02-03T03:18:59.140Z</time>
      </trkpt>
      <trkpt lat="59.19386495836079" lon="13.03458396345377">
        <ele>72.92</ele>
        <time>2025-02-03T03:19:06.727Z</time>
      </trkpt>
      <trkpt lat="59.19380293227732" lon="13.034405931830406">
        <ele>72.53</ele>
        <time>2025-02-03T03:19:14.315Z</time>
      </trkpt>
      <trkpt lat="59.19373696669936" lon="13.034230917692184">
        <ele>72.14</ele>
        <time>2025-02-03T03:19:21.905Z</time>
      </trkpt>
      <trkpt lat="59.19366798363626" lon="13.034061938524246">
        <ele>71.75</ele>
        <time>2025-02-03T03:19:29.497Z</time>
      </trkpt>
      <trkpt lat="59.193594977259636" lon="13.03389698266983">
        <ele>71.38</ele>
        <time>2025-02-03T03:19:37.091Z</time>
      </trkpt>
      <trkpt lat="59.19351794756949" lon="13.033740995451808">
        <ele>71.0</ele>
        <time>2025-02-03T03:19:44.687Z</time>
      </trkpt>
      <trkpt lat="59.19343597255647" lon="13.033591965213418">
        <ele>70.63</ele>
        <time>2025-02-03T03:19:52.284Z</time>
      </trkpt>
      <trkpt lat="59.19334695674479" lon="13.033448969945312">
        <ele>70.26</ele>
        <time>2025-02-03T03:19:59.883Z</time>
      </trkpt>
      <trkpt lat="59.19325492344797" lon="13.033314943313599">
        <ele>69.89</ele>
        <time>2025-02-03T03:20:07.484Z</time>
      </trkpt>
      <trkpt lat="59.19315794482827" lon="13.03318795748055">
        <ele>69.52</ele>
        <time>2025-02-03T03:20:15.087Z</time>
      </trkpt>
      <trkpt lat="59.193057948723435" lon="13.033066922798753">
        <ele>69.16</ele>
        <time>2025-02-03T03:20:22.692Z</time>
      </trkpt>
      <trkpt lat="59.19296097010374" lon="13.032958963885903">
        <ele>68.79</ele>
        <time>2025-02-03T03:20:30.299Z</time>
      </trkpt>
      <trkpt lat="59.19285493902862" lon="13.032856956124306">
        <ele>68.42</ele>
        <time>2025-02-03T03:20:37.907Z</time>
      </trkpt>
      <trkpt lat="59.19274999760091" lon="13.032760983332992">
        <ele>68.06</ele>
        <time>2025-02-03T03:20:45.517Z</time>
      </trkpt>
      <trkpt lat="59.192645978182554" lon="13.03267196752131">
        <ele>67.71</ele>
        <time>2025-02-03T03:20:53.129Z</time>
      </trkpt>
      <trkpt lat="59.19254397042096" lon="13.032582951709628">
        <ele>67.37</ele>
        <time>2025-02-03T03:21:00.743Z</time>
      </trkpt>
      <trkpt lat="59.19244196265936" lon="13.032494941726327">
        <ele>67.03</ele>
        <time>2025-02-03T03:21:08.359Z</time>
      </trkpt>
      <trkpt lat="59.19233894906938" lon="13.032406931743026">
        <ele>66.69</ele>
        <time>2025-02-03T03:21:15.977Z</time>
      </trkpt>
      <trkpt lat="59.192239958792925" lon="13.032318921759725">
        <ele>66.36</ele>
        <time>2025-02-03T03:21:23.596Z</time>
      </trkpt>
      <trkpt lat="59.19214197434485" lon="13.032230995595455">
        <ele>66.02</ele>
        <time>2025-02-03T03:21:31.217Z</time>
      </trkpt>
      <trkpt lat="59.192045917734504" lon="13.032140973955393">
        <ele>65.69</ele>
        <time>2025-02-03T03:21:38.840Z</time>
      </trkpt>
      <trkpt lat="59.19194893911481" lon="13.032051958143711">
        <ele>65.36</ele>
        <time>2025-02-03T03:21:46.464Z</time>
      </trkpt>
      <trkpt lat="59.191852966323495" lon="13.031955985352397">
        <ele>65.04</ele>
        <time>2025-02-03T03:21:54.090Z</time>
      </trkpt>
      <trkpt lat="59.19175799936056" lon="13.031852971762419">
        <ele>64.71</ele>
        <time>2025-02-03T03:22:01.718Z</time>
      </trkpt>
      <trkpt lat="59.191662948578596" lon="13.031739983707666">
        <ele>64.39</ele>
        <time>2025-02-03T03:22:09.348Z</time>
      </trkpt>
      <trkpt lat="59.191570999100804" lon="13.031616937369108">
        <ele>64.08</ele>
        <time>2025-02-03T03:22:16.979Z</time>
      </trkpt>
      <trkpt lat="59.19148198328912" lon="13.031485928222537">
        <ele>63.77</ele>
        <time>2025-02-03T03:22:24.612Z</time>
      </trkpt>
      <trkpt lat="59.1913949791342" lon="13.031346956267953">
        <ele>63.47</ele>
        <time>2025-02-03T03:22:32.247Z</time>
      </trkpt>
      <trkpt lat="59.19130797497928" lon="13.031203960999846">
        <ele>63.17</ele>
        <time>2025-02-03T03:22:39.884Z</time>
      </trkpt>
      <trkpt lat="59.19122097082436" lon="13.031057948246598">
        <ele>62.87</ele>
        <time>2025-02-03T03:22:47.523Z</time>
      </trkpt>
      <trkpt lat="59.19113396666944" lon="13.03091092966497">
        <ele>62.57</ele>
        <time>2025-02-03T03:22:55.164Z</time>
      </trkpt>
      <trkpt lat="59.19104595668614" lon="13.030764916911721">
        <ele>62.28</ele>
        <time>2025-02-03T03:23:02.806Z</time>
      </trkpt>
      <trkpt lat="59.19095694087446" lon="13.030616976320744">
        <ele>61.99</ele>
        <time>2025-02-03T03:23:10.450Z</time>
      </trkpt>
      <trkpt lat="59.190867925062776" lon="13.030467946082354">
        <ele>61.71</ele>
        <time>2025-02-03T03:23:18.096Z</time>
      </trkpt>
      <trkpt lat="59.190779998898506" lon="13.030318999662995">
        <ele>61.44</ele>
        <time>2025-02-03T03:23:25.744Z</time>
      </trkpt>
      <trkpt lat="59.190689977258444" lon="13.030168963596225">
        <ele>61.17</ele>
        <time>2025-02-03T03:23:33.394Z</time>
      </trkpt>
      <trkpt lat="59.19060196727514" lon="13.030017921701074">
        <ele>60.9</ele>
        <time>2025-02-03T03:23:41.046Z</time>
      </trkpt>
      <trkpt lat="59.19051395729184" lon="13.029867969453335">
        <ele>60.64</ele>
        <time>2025-02-03T03:23:48.700Z</time>
      </trkpt>
      <trkpt lat="59.19042594730854" lon="13.029717933386564">
        <ele>60.39</ele>
        <time>2025-02-03T03:23:56.356Z</time>
      </trkpt>
      <trkpt lat="59.19033894315362" lon="13.029565969482064">
        <ele>60.15</ele>
        <time>2025-02-03T03:24:04.013Z</time>
      </trkpt>
      <trkpt lat="59.19025495648384" lon="13.029411993920803">
        <ele>59.9</ele>
        <time>2025-02-03T03:24:11.672Z</time>
      </trkpt>
      <trkpt lat="59.190174993127584" lon="13.029249971732497">
        <ele>59.66</ele>
        <time>2025-02-03T03:24:19.333Z</time>
      </trkpt>
      <trkpt lat="59.19010198675096" lon="13.029076969251037">
        <ele>59.42</ele>
        <time>2025-02-03T03:24:26.996Z</time>
      </trkpt>
      <trkpt lat="59.19003694318235" lon="13.028897931799293">
        <ele>59.19</ele>
        <time>2025-02-03T03:24:34.661Z</time>
      </trkpt>
      <trkpt lat="59.18997793458402" lon="13.028713949024677">
        <ele>58.96</ele>
        <time>2025-02-03T03:24:42.328Z</time>
      </trkpt>
      <trkpt lat="59.18992697261274" lon="13.02852594293654">
        <ele>58.74</ele>
        <time>2025-02-03T03:24:49.996Z</time>
      </trkpt>
      <trkpt lat="59.18988296762109" lon="13.028333997353911">
        <ele>58.53</ele>
        <time>2025-02-03T03:24:57.666Z</time>
      </trkpt>
      <trkpt lat="59.1898409742862" lon="13.02814096212387">
        <ele>58.33</ele>
        <time>2025-02-03T03:25:05.338Z</time>
      </trkpt>
      <trkpt lat="59.18980099260807" lon="13.027949938550591">
        <ele>58.12</ele>
        <time>2025-02-03T03:25:13.012Z</time>
      </trkpt>
      <trkpt lat="59.18976092711091" lon="13.027760926634073">
        <ele>57.93</ele>
        <time>2025-02-03T03:25:20.687Z</time>
      </trkpt>
      <trkpt lat="59.189723962917924" lon="13.027576943859458">
        <ele>57.73</ele>
        <time>2025-02-03T03:25:28.364Z</time>
      </trkpt>
      <trkpt lat="59.189681969583035" lon="13.027397990226746">
        <ele>57.54</ele>
        <time>2025-02-03T03:25:36.042Z</time>
      </trkpt>
      <trkpt lat="59.189636958763" lon="13.027222976088524">
        <ele>57.36</ele>
        <time>2025-02-03T03:25:43.722Z</time>
      </trkpt>
      <trkpt lat="59.18958993628621" lon="13.027054918929935">
        <ele>57.19</ele>
        <time>2025-02-03T03:25:51.404Z</time>
      </trkpt>
      <trkpt lat="59.18953998014331" lon="13.026894992217422">
        <ele>57.0</ele>
        <time>2025-02-03T03:25:59.087Z</time>
      </trkpt>
      <trkpt lat="59.18948591686785" lon="13.026737999171019">
        <ele>56.83</ele>
        <time>2025-02-03T03:26:06.772Z</time>
      </trkpt>
      <trkpt lat="59.189429925754666" lon="13.026587963104248">
        <ele>56.66</ele>
        <time>2025-02-03T03:26:14.458Z</time>
      </trkpt>
      <trkpt lat="59.18937091715634" lon="13.026444967836142">
        <ele>56.5</ele>
        <time>2025-02-03T03:26:22.146Z</time>
      </trkpt>
      <trkpt lat="59.18930998072028" lon="13.026307923719287">
        <ele>56.35</ele>
        <time>2025-02-03T03:26:29.835Z</time>
      </trkpt>
      <trkpt lat="59.18924896046519" lon="13.026180937886238">
        <ele>56.2</ele>
        <time>2025-02-03T03:26:37.526Z</time>
      </trkpt>
      <trkpt lat="59.18918299488723" lon="13.026059987023473">
        <ele>56.05</ele>
        <time>2025-02-03T03:26:45.218Z</time>
      </trkpt>
      <trkpt lat="59.1891139280051" lon="13.02594699896872">
        <ele>55.9</ele>
        <time>2025-02-03T03:26:52.912Z</time>
      </trkpt>
      <trkpt lat="59.189042933285236" lon="13.025841973721981">
        <ele>55.76</ele>
        <time>2025-02-03T03:27:00.607Z</time>
      </trkpt>
      <trkpt lat="59.188972944393754" lon="13.025743989273906">
        <ele>55.61</ele>
        <time>2025-02-03T03:27:08.303Z</time>
      </trkpt>
      <trkpt lat="59.18890094384551" lon="13.025653967633843">
        <ele>55.47</ele>
        <time>2025-02-03T03:27:16.001Z</time>
      </trkpt>
      <trkpt lat="59.188825925812125" lon="13.025572998449206">
        <ele>55.33</ele>
        <time>2025-02-03T03:27:23.700Z</time>
      </trkpt>
      <trkpt lat="59.18874897994101" lon="13.025501919910312">
        <ele>55.2</ele>
        <time>2025-02-03T03:27:31.401Z</time>
      </trkpt>
      <trkpt lat="59.1886699385941" lon="13.025435954332352">
        <ele>55.08</ele>
        <time>2025-02-03T03:27:39.103Z</time>
      </trkpt>
      <trkpt lat="59.188589975237846" lon="13.025377951562405">
        <ele>54.96</ele>
        <time>2025-02-03T03:27:46.806Z</time>
      </trkpt>
      <trkpt lat="59.18850992806256" lon="13.025328917428851">
        <ele>54.84</ele>
        <time>2025-02-03T03:27:54.511Z</time>
      </trkpt>
      <trkpt lat="59.18842895887792" lon="13.025286924093962">
        <ele>54.73</ele>
        <time>2025-02-03T03:28:02.217Z</time>
      </trkpt>
      <trkpt lat="59.18834991753101" lon="13.025250965729356">
        <ele>54.63</ele>
        <time>2025-02-03T03:28:09.924Z</time>
      </trkpt>
      <trkpt lat="59.18827096000314" lon="13.02521894685924">
        <ele>54.53</ele>
        <time>2025-02-03T03:28:17.633Z</time>
      </trkpt>
      <trkpt lat="59.18819393031299" lon="13.025192962959409">
        <ele>54.43</ele>
        <time>2025-02-03T03:28:25.343Z</time>
      </trkpt>
      <trkpt lat="59.18811899609864" lon="13.025171924382448">
        <ele>54.33</ele>
        <time>2025-02-03T03:28:33.054Z</time>
      </trkpt>
      <trkpt lat="59.18804397806525" lon="13.025154992938042">
        <ele>54.24</ele>
        <time>2025-02-03T03:28:40.766Z</time>
      </trkpt>
      <trkpt lat="59.18797197751701" lon="13.025139989331365">
        <ele>54.15</ele>
        <time>2025-02-03T03:28:48.479Z</time>
      </trkpt>
      <trkpt lat="59.187900982797146" lon="13.025125991553068">
        <ele>54.07</ele>
        <time>2025-02-03T03:28:56.194Z</time>
      </trkpt>
      <trkpt lat="59.18783292174339" lon="13.02510998211801">
        <ele>53.98</ele>
        <time>2025-02-03T03:29:03.910Z</time>
      </trkpt>
      <trkpt lat="59.18776494450867" lon="13.02508994936943">
        <ele>53.9</ele>
        <time>2025-02-03T03:29:11.627Z</time>
      </trkpt>
      <trkpt lat="59.18769897893071" lon="13.02506698295474">
        <ele>53.82</ele>
        <time>2025-02-03T03:29:19.345Z</time>
      </trkpt>
      <trkpt lat="59.1876339353621" lon="13.025039993226528">
        <ele>53.75</ele>
        <time>2025-02-03T03:29:27.064Z</time>
      </trkpt>
      <trkpt lat="59.1875699814409" lon="13.025007974356413">
        <ele>53.67</ele>
        <time>2025-02-03T03:29:34.784Z</time>
      </trkpt>
      <trkpt lat="59.18750795535743" lon="13.024969920516014">
        <ele>53.6</ele>
        <time>2025-02-03T03:29:42.505Z</time>
      </trkpt>
      <trkpt lat="59.187446935102344" lon="13.024925999343395">
        <ele>53.54</ele>
        <time>2025-02-03T03:29:50.227Z</time>
      </trkpt>
      <trkpt lat="59.187387926504016" lon="13.02487495355308">
        <ele>53.47</ele>
        <time>2025-02-03T03:29:57.950Z</time>
      </trkpt>
      <trkpt lat="59.18733092956245" lon="13.024818962439895">
        <ele>53.41</ele>
        <time>2025-02-03T03:30:05.674Z</time>
      </trkpt>
      <trkpt lat="59.187274938449264" lon="13.024756936356425">
        <ele>53.35</ele>
        <time>2025-02-03T03:30:13.399Z</time>
      </trkpt>
      <trkpt lat="59.18721894733608" lon="13.024690970778465">
        <ele>53.29</ele>
        <time>2025-02-03T03:30:21.125Z</time>
      </trkpt>
      <trkpt lat="59.18716396205127" lon="13.024618970230222">
        <ele>53.23</ele>
        <time>2025-02-03T03:30:28.852Z</time>
      </trkpt>
      <trkpt lat="59.18711098842323" lon="13.024539928883314">
        <ele>53.17</ele>
        <time>2025-02-03T03:30:36.580Z</time>
      </trkpt>
      <trkpt lat="59.18705893680453" lon="13.024455942213535">
        <ele>53.12</ele>
        <time>2025-02-03T03:30:44.309Z</time>
      </trkpt>
      <trkpt lat="59.18700898066163" lon="13.024364998564124">
        <ele>53.07</ele>
        <time>2025-02-03T03:30:52.040Z</time>
      </trkpt>
      <trkpt lat="59.18696095235646" lon="13.024267936125398">
        <ele>53.02</ele>
        <time>2025-02-03T03:30:59.772Z</time>
      </trkpt>
      <trkpt lat="59.186914935708046" lon="13.02416492253542">
        <ele>52.98</ele>
        <time>2025-02-03T03:31:07.505Z</time>
      </trkpt>
      <trkpt lat="59.18687294237316" lon="13.02405696362257">
        <ele>52.93</ele>
        <time>2025-02-03T03:31:15.239Z</time>
      </trkpt>
      <trkpt lat="59.18683396652341" lon="13.023940958082676">
        <ele>52.89</ele>
        <time>2025-02-03T03:31:22.974Z</time>
      </trkpt>
      <trkpt lat="59.18679792433977" lon="13.02382092922926">
        <ele>52.84</ele>
        <time>2025-02-03T03:31:30.710Z</time>
      </trkpt>
      <trkpt lat="59.18676498346031" lon="13.023695955052972">
        <ele>52.8</ele>
        <time>2025-02-03T03:31:38.447Z</time>
      </trkpt>
      <trkpt lat="59.186735982075334" lon="13.023566957563162">
        <ele>52.76</ele>
        <time>2025-02-03T03:31:46.185Z</time>
      </trkpt>
      <trkpt lat="59.18671092018485" lon="13.023431925103068">
        <ele>52.72</ele>
        <time>2025-02-03T03:31:53.925Z</time>
      </trkpt>
      <trkpt lat="59.18668795377016" lon="13.023292953148484">
        <ele>52.67</ele>
        <time>2025-02-03T03:32:01.666Z</time>
      </trkpt>
      <trkpt lat="59.18666892684996" lon="13.023150963708758">
        <ele>52.63</ele>
        <time>2025-02-03T03:32:09.408Z</time>
      </trkpt>
      <trkpt lat="59.186654929071665" lon="13.02300595678389">
        <ele>52.6</ele>
        <time>2025-02-03T03:32:17.151Z</time>
      </trkpt>
      <trkpt lat="59.18664696626365" lon="13.022857932373881">
        <ele>52.56</ele>
        <time>2025-02-03T03:32:24.895Z</time>
      </trkpt>
      <trkpt lat="59.18664093129337" lon="13.022706974297762">
        <ele>52.53</ele>
        <time>2025-02-03T03:32:32.641Z</time>
      </trkpt>
      <trkpt lat="59.18663799762726" lon="13.0225529987365">
        <ele>52.5</ele>
        <time>2025-02-03T03:32:40.388Z</time>
      </trkpt>
      <trkpt lat="59.18663891963661" lon="13.022396927699447">
        <ele>52.47</ele>
        <time>2025-02-03T03:32:48.136Z</time>
      </trkpt>
      <trkpt lat="59.18664294295013" lon="13.022236917167902">
        <ele>52.44</ele>
        <time>2025-02-03T03:32:55.886Z</time>
      </trkpt>
      <trkpt lat="59.18664897792041" lon="13.022073972970247">
        <ele>52.4</ele>
        <time>2025-02-03T03:33:03.637Z</time>
      </trkpt>
      <trkpt lat="59.186656940728426" lon="13.021906921640038">
        <ele>52.37</ele>
        <time>2025-02-03T03:33:11.389Z</time>
      </trkpt>
      <trkpt lat="59.18666297569871" lon="13.021734924986959">
        <ele>52.34</ele>
        <time>2025-02-03T03:33:19.143Z</time>
      </trkpt>
      <trkpt lat="59.18667093850672" lon="13.021556977182627">
        <ele>52.3</ele>
        <time>2025-02-03T03:33:26.898Z</time>
      </trkpt>
      <trkpt lat="59.18667797930539" lon="13.021374922245741">
        <ele>52.26</ele>
        <time>2025-02-03T03:33:34.655Z</time>
      </trkpt>
      <trkpt lat="59.1866859421134" lon="13.021186999976635">
        <ele>52.22</ele>
        <time>2025-02-03T03:33:42.413Z</time>
      </trkpt>
      <trkpt lat="59.186693988740444" lon="13.020992958918214">
        <ele>52.18</ele>
        <time>2025-02-03T03:33:50.173Z</time>
      </trkpt>
      <trkpt lat="59.18670195154846" lon="13.020793972536922">
        <ele>52.15</ele>
        <time>2025-02-03T03:33:57.935Z</time>
      </trkpt>
      <trkpt lat="59.1867099981755" lon="13.020591968670487">
        <ele>52.12</ele>
        <time>2025-02-03T03:34:05.698Z</time>
      </trkpt>
      <trkpt lat="59.186717960983515" lon="13.020387953147292">
        <ele>52.09</ele>
        <time>2025-02-03T03:34:13.463Z</time>
      </trkpt>
      <trkpt lat="59.18672592379153" lon="13.020183937624097">
        <ele>52.07</ele>
        <time>2025-02-03T03:34:21.230Z</time>
      </trkpt>
      <trkpt lat="59.18673397041857" lon="13.019981933757663">
        <ele>52.04</ele>
        <time>2025-02-03T03:34:28.998Z</time>
      </trkpt>
      <trkpt lat="59.186741933226585" lon="13.019783953204751">
        <ele>52.02</ele>
        <time>2025-02-03T03:34:36.768Z</time>
      </trkpt>
      <trkpt lat="59.18675098568201" lon="13.019591923803091">
        <ele>52.0</ele>
        <time>2025-02-03T03:34:44.539Z</time>
      </trkpt>
      <trkpt lat="59.18675794266164" lon="13.019404923543334">
        <ele>51.97</ele>
        <time>2025-02-03T03:34:52.312Z</time>
      </trkpt>
      <trkpt lat="59.18676498346031" lon="13.01922395825386">
        <ele>51.94</ele>
        <time>2025-02-03T03:35:00.086Z</time>
      </trkpt>
      <trkpt lat="59.18677194043994" lon="13.019048944115639">
        <ele>51.91</ele>
        <time>2025-02-03T03:35:07.862Z</time>
      </trkpt>
      <trkpt lat="59.186782920733094" lon="13.018880970776081">
        <ele>51.89</ele>
        <time>2025-02-03T03:35:15.639Z</time>
      </trkpt>
      <trkpt lat="59.18679792433977" lon="13.018715931102633">
        <ele>51.87</ele>
        <time>2025-02-03T03:35:23.418Z</time>
      </trkpt>
      <trkpt lat="59.18681695125997" lon="13.018555920571089">
        <ele>51.84</ele>
        <time>2025-02-03T03:35:31.198Z</time>
      </trkpt>
      <trkpt lat="59.18684092350304" lon="13.018399933353066">
        <ele>51.82</ele>
        <time>2025-02-03T03:35:38.979Z</time>
      </trkpt>
      <trkpt lat="59.186866991221905" lon="13.018249981105328">
        <ele>51.79</ele>
        <time>2025-02-03T03:35:46.762Z</time>
      </trkpt>
      <trkpt lat="59.18689297512174" lon="13.018100950866938">
        <ele>51.77</ele>
        <time>2025-02-03T03:35:54.546Z</time>
      </trkpt>
      <trkpt lat="59.18692097067833" lon="13.01795694977045">
        <ele>51.75</ele>
        <time>2025-02-03T03:36:02.331Z</time>
      </trkpt>
      <trkpt lat="59.186951983720064" lon="13.017819989472628">
        <ele>51.72</ele>
        <time>2025-02-03T03:36:10.117Z</time>
      </trkpt>
      <trkpt lat="59.1869829967618" lon="13.017686968669295">
        <ele>51.7</ele>
        <time>2025-02-03T03:36:17.905Z</time>
      </trkpt>
      <trkpt lat="59.187016943469644" lon="13.017557971179485">
        <ele>51.67</ele>
        <time>2025-02-03T03:36:25.694Z</time>
      </trkpt>
      <trkpt lat="59.18704996816814" lon="13.017425956204534">
        <ele>51.65</ele>
        <time>2025-02-03T03:36:33.484Z</time>
      </trkpt>
      <trkpt lat="59.187083998695016" lon="13.017292935401201">
        <ele>51.63</ele>
        <time>2025-02-03T03:36:41.275Z</time>
      </trkpt>
      <trkpt lat="59.1871159337461" lon="13.01715798676014">
        <ele>51.6</ele>
        <time>2025-02-03T03:36:49.068Z</time>
      </trkpt>
      <trkpt lat="59.18713395483792" lon="13.017022954300046">
        <ele>51.57</ele>
        <time>2025-02-03T03:36:56.862Z</time>
      </trkpt>
      <trkpt lat="59.187128925696015" lon="13.016898985952139">
        <ele>51.55</ele>
        <time>2025-02-03T03:37:04.657Z</time>
      </trkpt>
      <trkpt lat="59.18710897676647" lon="13.016806952655315">
        <ele>51.53</ele>
        <time>2025-02-03T03:37:12.453Z</time>
      </trkpt>
      <trkpt lat="59.187085926532745" lon="13.016745932400227">
        <ele>51.51</ele>
        <time>2025-02-03T03:37:20.249Z</time>
      </trkpt>
      <trkpt lat="59.18706497177482" lon="13.016705950722098">
        <ele>51.48</ele>
        <time>2025-02-03T03:37:28.046Z</time>
      </trkpt>
      <trkpt lat="59.187043933197856" lon="13.016678960993886">
        <ele>51.46</ele>
        <time>2025-02-03T03:37:35.843Z</time>
      </trkpt>
      <trkpt lat="59.18702197261155" lon="13.016657922416925">
        <ele>51.44</ele>
        <time>2025-02-03T03:37:43.640Z</time>
      </trkpt>
      <trkpt lat="59.186999928206205" lon="13.016635961830616">
        <ele>51.42</ele>
        <time>2025-02-03T03:37:51.438Z</time>
      </trkpt>
      <trkpt lat="59.18697997927666" lon="13.016600925475359">
        <ele>51.39</ele>
        <time>2025-02-03T03:37:59.236Z</time>
      </trkpt>
      <trkpt lat="59.18696497566998" lon="13.016554992645979">
        <ele>51.37</ele>
        <time>2025-02-03T03:38:07.035Z</time>
      </trkpt>
      <trkpt lat="59.1869499720633" lon="13.016505958512425">
        <ele>51.34</ele>
        <time>2025-02-03T03:38:14.834Z</time>
      </trkpt>
      <trkpt lat="59.186932956799865" lon="13.016457930207253">
        <ele>51.32</ele>
        <time>2025-02-03T03:38:22.634Z</time>
      </trkpt>
      <trkpt lat="59.186909990385175" lon="13.016418954357505">
        <ele>51.3</ele>
        <time>2025-02-03T03:38:30.434Z</time>
      </trkpt>
      <trkpt lat="59.18688291683793" lon="13.01638894714415">
        <ele>51.28</ele>
        <time>2025-02-03T03:38:38.235Z</time>
      </trkpt>
      <trkpt lat="59.18685198761523" lon="13.016362963244319">
        <ele>51.25</ele>
        <time>2025-02-03T03:38:46.036Z</time>
      </trkpt>
      <trkpt lat="59.18681896291673" lon="13.016336979344487">
        <ele>51.23</ele>
        <time>2025-02-03T03:38:53.838Z</time>
      </trkpt>
      <trkpt lat="59.186782920733094" lon="13.016309989616275">
        <ele>51.21</ele>
        <time>2025-02-03T03:39:01.640Z</time>
      </trkpt>
      <trkpt lat="59.18674495071173" lon="13.016281994059682">
        <ele>51.19</ele>
        <time>2025-02-03T03:39:09.443Z</time>
      </trkpt>
      <trkpt lat="59.18670597486198" lon="13.016251986846328">
        <ele>51.16</ele>
        <time>2025-02-03T03:39:17.247Z</time>
      </trkpt>
      <trkpt lat="59.18666498735547" lon="13.016218962147832">
        <ele>51.14</ele>
        <time>2025-02-03T03:39:25.051Z</time>
      </trkpt>
      <trkpt lat="59.1866219881922" lon="13.016183925792575">
        <ele>51.12</ele>
        <time>2025-02-03T03:39:32.856Z</time>
      </trkpt>
      <trkpt lat="59.18657697737217" lon="13.016145955771208">
        <ele>51.1</ele>
        <time>2025-02-03T03:39:40.662Z</time>
      </trkpt>
      <trkpt lat="59.186527943238616" lon="13.01610697992146">
        <ele>51.08</ele>
        <time>2025-02-03T03:39:48.469Z</time>
      </trkpt>
      <trkpt lat="59.186477987095714" lon="13.016068926081061">
        <ele>51.06</ele>
        <time>2025-02-03T03:39:56.277Z</time>
      </trkpt>
      <trkpt lat="59.1864269413054" lon="13.016028944402933">
        <ele>51.04</ele>
        <time>2025-02-03T03:40:04.086Z</time>
      </trkpt>
      <trkpt lat="59.186373967677355" lon="13.015984939411283">
        <ele>51.02</ele>
        <time>2025-02-03T03:40:11.895Z</time>
      </trkpt>
      <trkpt lat="59.18631998822093" lon="13.015942946076393">
        <ele>50.99</ele>
        <time>2025-02-03T03:40:19.705Z</time>
      </trkpt>
      <trkpt lat="59.18626491911709" lon="13.015899946913123">
        <ele>50.97</ele>
        <time>2025-02-03T03:40:27.516Z</time>
      </trkpt>
      <trkpt lat="59.18620892800391" lon="13.015853930264711">
        <ele>50.95</ele>
        <time>2025-02-03T03:40:35.328Z</time>
      </trkpt>
      <trkpt lat="59.18615293689072" lon="13.015807997435331">
        <ele>50.93</ele>
        <time>2025-02-03T03:40:43.141Z</time>
      </trkpt>
      <trkpt lat="59.186095939949155" lon="13.01576198078692">
        <ele>50.91</ele>
        <time>2025-02-03T03:40:50.955Z</time>
      </trkpt>
      <trkpt lat="59.18603693135083" lon="13.015712946653366">
        <ele>50.89</ele>
        <time>2025-02-03T03:40:58.770Z</time>
      </trkpt>
      <trkpt lat="59.18597691692412" lon="13.015663996338844">
        <ele>50.87</ele>
        <time>2025-02-03T03:41:06.586Z</time>
      </trkpt>
      <trkpt lat="59.18591598048806" lon="13.01561395637691">
        <ele>50.85</ele>
        <time>2025-02-03T03:41:14.403Z</time>
      </trkpt>
      <trkpt lat="59.18585395440459" lon="13.015563916414976">
        <ele>50.84</ele>
        <time>2025-02-03T03:41:22.221Z</time>
      </trkpt>
      <trkpt lat="59.18579092249274" lon="13.015511948615313">
        <ele>50.82</ele>
        <time>2025-02-03T03:41:30.041Z</time>
      </trkpt>
      <trkpt lat="59.185726968571544" lon="13.015457969158888">
        <ele>50.8</ele>
        <time>2025-02-03T03:41:37.862Z</time>
      </trkpt>
      <trkpt lat="59.18566192500293" lon="13.015402983874083">
        <ele>50.78</ele>
        <time>2025-02-03T03:41:45.684Z</time>
      </trkpt>
      <trkpt lat="59.18559495359659" lon="13.015347998589277">
        <ele>50.75</ele>
        <time>2025-02-03T03:41:53.507Z</time>
      </trkpt>
      <trkpt lat="59.18552697636187" lon="13.01528999581933">
        <ele>50.73</ele>
        <time>2025-02-03T03:42:01.331Z</time>
      </trkpt>
      <trkpt lat="59.18545899912715" lon="13.015231993049383">
        <ele>50.7</ele>
        <time>2025-02-03T03:42:09.156Z</time>
      </trkpt>
      <trkpt lat="59.185388926416636" lon="13.015172984451056">
        <ele>50.68</ele>
        <time>2025-02-03T03:42:16.983Z</time>
      </trkpt>
      <trkpt lat="59.18531893752515" lon="13.015113975852728">
        <ele>50.66</ele>
        <time>2025-02-03T03:42:24.811Z</time>
      </trkpt>
      <trkpt lat="59.18524894863367" lon="13.01505396142602">
        <ele>50.64</ele>
        <time>2025-02-03T03:42:32.640Z</time>
      </trkpt>
      <trkpt lat="59.18517795391381" lon="13.014993946999311">
        <ele>50.62</ele>
        <time>2025-02-03T03:42:40.470Z</time>
      </trkpt>
      <trkpt lat="59.18510997667909" lon="13.014933932572603">
        <ele>50.6</ele>
        <time>2025-02-03T03:42:48.302Z</time>
      </trkpt>
      <trkpt lat="59.185038981959224" lon="13.014873918145895">
        <ele>50.58</ele>
        <time>2025-02-03T03:42:56.135Z</time>
      </trkpt>
      <trkpt lat="59.18496899306774" lon="13.014813987538218">
        <ele>50.56</ele>
        <time>2025-02-03T03:43:03.969Z</time>
      </trkpt>
      <trkpt lat="59.18489799834788" lon="13.014751961454749">
        <ele>50.54</ele>
        <time>2025-02-03T03:43:11.804Z</time>
      </trkpt>
      <trkpt lat="59.184827925637364" lon="13.01468993537128">
        <ele>50.52</ele>
        <time>2025-02-03T03:43:19.640Z</time>
      </trkpt>
      <trkpt lat="59.18475592508912" lon="13.014626987278461">
        <ele>50.51</ele>
        <time>2025-02-03T03:43:27.478Z</time>
      </trkpt>
      <trkpt lat="59.18468392454088" lon="13.01456093788147">
        <ele>50.49</ele>
        <time>2025-02-03T03:43:35.317Z</time>
      </trkpt>
      <trkpt lat="59.184611923992634" lon="13.01449396647513">
        <ele>50.46</ele>
        <time>2025-02-03T03:43:43.157Z</time>
      </trkpt>
      <trkpt lat="59.18453799560666" lon="13.014428922906518">
        <ele>50.44</ele>
        <time>2025-02-03T03:43:50.999Z</time>
      </trkpt>
      <trkpt lat="59.184462977573276" lon="13.0143659748137">
        <ele>50.42</ele>
        <time>2025-02-03T03:43:58.842Z</time>
      </trkpt>
      <trkpt lat="59.18438795953989" lon="13.014299925416708">
        <ele>50.39</ele>
        <time>2025-02-03T03:44:06.686Z</time>
      </trkpt>
      <trkpt lat="59.184312941506505" lon="13.014231948181987">
        <ele>50.36</ele>
        <time>2025-02-03T03:44:14.532Z</time>
      </trkpt>
      <trkpt lat="59.18423792347312" lon="13.014164976775646">
        <ele>50.33</ele>
        <time>2025-02-03T03:44:22.379Z</time>
      </trkpt>
      <trkpt lat="59.184160977602005" lon="13.014096999540925">
        <ele>50.3</ele>
        <time>2025-02-03T03:44:30.227Z</time>
      </trkpt>
      <trkpt lat="59.18408294208348" lon="13.014029944315553">
        <ele>50.27</ele>
        <time>2025-02-03T03:44:38.077Z</time>
      </trkpt>
      <trkpt lat="59.18400297872722" lon="13.013961967080832">
        <ele>50.25</ele>
        <time>2025-02-03T03:44:45.928Z</time>
      </trkpt>
      <trkpt lat="59.183923937380314" lon="13.01389398984611">
        <ele>50.23</ele>
        <time>2025-02-03T03:44:53.780Z</time>
      </trkpt>
      <trkpt lat="59.18384296819568" lon="13.013824922963977">
        <ele>50.21</ele>
        <time>2025-02-03T03:45:01.634Z</time>
      </trkpt>
      <trkpt lat="59.18376292102039" lon="13.013754934072495">
        <ele>50.2</ele>
        <time>2025-02-03T03:45:09.489Z</time>
      </trkpt>
      <trkpt lat="59.18368295766413" lon="13.013685951009393">
        <ele>50.18</ele>
        <time>2025-02-03T03:45:17.346Z</time>
      </trkpt>
      <trkpt lat="59.183601988479495" lon="13.013617973774672">
        <ele>50.16</ele>
        <time>2025-02-03T03:45:25.204Z</time>
      </trkpt>
      <trkpt lat="59.183520935475826" lon="13.01354899071157">
        <ele>50.14</ele>
        <time>2025-02-03T03:45:33.063Z</time>
      </trkpt>
      <trkpt lat="59.18343996629119" lon="13.013478918001056">
        <ele>50.12</ele>
        <time>2025-02-03T03:45:40.924Z</time>
      </trkpt>
      <trkpt lat="59.18335899710655" lon="13.013408929109573">
        <ele>50.1</ele>
        <time>2025-02-03T03:45:48.786Z</time>
      </trkpt>
      <trkpt lat="59.18327794410288" lon="13.013339946046472">
        <ele>50.08</ele>
        <time>2025-02-03T03:45:56.650Z</time>
      </trkpt>
      <trkpt lat="59.183195969089866" lon="13.01326995715499">
        <ele>50.06</ele>
        <time>2025-02-03T03:46:04.515Z</time>
      </trkpt>
      <trkpt lat="59.18311298824847" lon="13.013198962435126">
        <ele>50.03</ele>
        <time>2025-02-03T03:46:12.382Z</time>
      </trkpt>
      <trkpt lat="59.18303092941642" lon="13.013125956058502">
        <ele>50.02</ele>
        <time>2025-02-03T03:46:20.250Z</time>
      </trkpt>
      <trkpt lat="59.18294794857502" lon="13.013052949681878">
        <ele>50.0</ele>
        <time>2025-02-03T03:46:28.119Z</time>
      </trkpt>
      <trkpt lat="59.18286396190524" lon="13.012979943305254">
        <ele>49.98</ele>
        <time>2025-02-03T03:46:35.990Z</time>
      </trkpt>
      <trkpt lat="59.18277997523546" lon="13.01290794275701">
        <ele>49.97</ele>
        <time>2025-02-03T03:46:43.862Z</time>
      </trkpt>
      <trkpt lat="59.1826949827373" lon="13.012834936380386">
        <ele>49.95</ele>
        <time>2025-02-03T03:46:51.736Z</time>
      </trkpt>
      <trkpt lat="59.182610996067524" lon="13.012761930003762">
        <ele>49.93</ele>
        <time>2025-02-03T03:46:59.611Z</time>
      </trkpt>
      <trkpt lat="59.18252692557871" lon="13.012688923627138">
        <ele>49.92</ele>
        <time>2025-02-03T03:47:07.488Z</time>
      </trkpt>
      <trkpt lat="59.182442938908935" lon="13.012615917250514">
        <ele>49.9</ele>
        <time>2025-02-03T03:47:15.366Z</time>
      </trkpt>
      <trkpt lat="59.182358952239156" lon="13.012541988864541">
        <ele>49.89</ele>
        <time>2025-02-03T03:47:23.246Z</time>
      </trkpt>
      <trkpt lat="59.18227496556938" lon="13.012468982487917">
        <ele>49.87</ele>
        <time>2025-02-03T03:47:31.127Z</time>
      </trkpt>
      <trkpt lat="59.18218997307122" lon="13.012396981939673">
        <ele>49.86</ele>
        <time>2025-02-03T03:47:39.010Z</time>
      </trkpt>
      <trkpt lat="59.18210598640144" lon="13.01232397556305">
        <ele>49.84</ele>
        <time>2025-02-03T03:47:46.894Z</time>
      </trkpt>
      <trkpt lat="59.18202199973166" lon="13.012249963358045">
        <ele>49.82</ele>
        <time>2025-02-03T03:47:54.780Z</time>
      </trkpt>
      <trkpt lat="59.18193692341447" lon="13.01217595115304">
        <ele>49.8</ele>
        <time>2025-02-03T03:48:02.667Z</time>
      </trkpt>
      <trkpt lat="59.18185193091631" lon="13.012101938948035">
        <ele>49.78</ele>
        <time>2025-02-03T03:48:10.556Z</time>
      </trkpt>
      <trkpt lat="59.18176794424653" lon="13.01202792674303">
        <ele>49.76</ele>
        <time>2025-02-03T03:48:18.446Z</time>
      </trkpt>
      <trkpt lat="59.18168295174837" lon="13.011952992528677">
        <ele>49.74</ele>
        <time>2025-02-03T03:48:26.338Z</time>
      </trkpt>
      <trkpt lat="59.18159896507859" lon="13.011878980323672">
        <ele>49.72</ele>
        <time>2025-02-03T03:48:34.231Z</time>
      </trkpt>
      <trkpt lat="59.18151397258043" lon="13.011806979775429">
        <ele>49.7</ele>
        <time>2025-02-03T03:48:42.126Z</time>
      </trkpt>
      <trkpt lat="59.181430991739035" lon="13.011731961742043">
        <ele>49.68</ele>
        <time>2025-02-03T03:48:50.022Z</time>
      </trkpt>
      <trkpt lat="59.181347927078605" lon="13.011653926223516">
        <ele>49.67</ele>
        <time>2025-02-03T03:48:57.920Z</time>
      </trkpt>
      <trkpt lat="59.181263940408826" lon="13.011577986180782">
        <ele>49.65</ele>
        <time>2025-02-03T03:49:05.819Z</time>
      </trkpt>
      <trkpt lat="59.18117995373905" lon="13.011502968147397">
        <ele>49.64</ele>
        <time>2025-02-03T03:49:13.720Z</time>
      </trkpt>
      <trkpt lat="59.18109596706927" lon="13.011427950114012">
        <ele>49.62</ele>
        <time>2025-02-03T03:49:21.622Z</time>
      </trkpt>
      <trkpt lat="59.18101198039949" lon="13.011356955394149">
        <ele>49.61</ele>
        <time>2025-02-03T03:49:29.526Z</time>
      </trkpt>
      <trkpt lat="59.18092799372971" lon="13.011284954845905">
        <ele>49.6</ele>
        <time>2025-02-03T03:49:37.431Z</time>
      </trkpt>
      <trkpt lat="59.1808439232409" lon="13.011211948469281">
        <ele>49.59</ele>
        <time>2025-02-03T03:49:45.337Z</time>
      </trkpt>
      <trkpt lat="59.18075993657112" lon="13.011138942092657">
        <ele>49.58</ele>
        <time>2025-02-03T03:49:53.245Z</time>
      </trkpt>
      <trkpt lat="59.18067695572972" lon="13.011064929887652">
        <ele>49.57</ele>
        <time>2025-02-03T03:50:01.154Z</time>
      </trkpt>
      <trkpt lat="59.180593974888325" lon="13.010991923511028">
        <ele>49.57</ele>
        <time>2025-02-03T03:50:09.065Z</time>
      </trkpt>
      <trkpt lat="59.180509988218546" lon="13.010922940447927">
        <ele>49.56</ele>
        <time>2025-02-03T03:50:16.977Z</time>
      </trkpt>
      <trkpt lat="59.180426923558116" lon="13.010852951556444">
        <ele>49.55</ele>
        <time>2025-02-03T03:50:24.891Z</time>
      </trkpt>
      <trkpt lat="59.18034595437348" lon="13.010783968493342">
        <ele>49.54</ele>
        <time>2025-02-03T03:50:32.806Z</time>
      </trkpt>
      <trkpt lat="59.18026297353208" lon="13.010710962116718">
        <ele>49.52</ele>
        <time>2025-02-03T03:50:40.723Z</time>
      </trkpt>
      <trkpt lat="59.18018099851906" lon="13.010637955740094">
        <ele>49.51</ele>
        <time>2025-02-03T03:50:48.641Z</time>
      </trkpt>
      <trkpt lat="59.180098939687014" lon="13.01056494936347">
        <ele>49.5</ele>
        <time>2025-02-03T03:50:56.561Z</time>
      </trkpt>
      <trkpt lat="59.180015958845615" lon="13.010493954643607">
        <ele>49.49</ele>
        <time>2025-02-03T03:51:04.482Z</time>
      </trkpt>
      <trkpt lat="59.1799339838326" lon="13.010420948266983">
        <ele>49.49</ele>
        <time>2025-02-03T03:51:12.404Z</time>
      </trkpt>
      <trkpt lat="59.17985192500055" lon="13.01034894771874">
        <ele>49.48</ele>
        <time>2025-02-03T03:51:20.328Z</time>
      </trkpt>
      <trkpt lat="59.17977095581591" lon="13.010272923856974">
        <ele>49.48</ele>
        <time>2025-02-03T03:51:28.253Z</time>
      </trkpt>
      <trkpt lat="59.179689986631274" lon="13.01019698381424">
        <ele>49.48</ele>
        <time>2025-02-03T03:51:36.180Z</time>
      </trkpt>
      <trkpt lat="59.179609939455986" lon="13.010119954124093">
        <ele>49.48</ele>
        <time>2025-02-03T03:51:44.108Z</time>
      </trkpt>
      <trkpt lat="59.17953098192811" lon="13.010040996596217">
        <ele>49.48</ele>
        <time>2025-02-03T03:51:52.038Z</time>
      </trkpt>
      <trkpt lat="59.1794519405812" lon="13.009960949420929">
        <ele>49.48</ele>
        <time>2025-02-03T03:51:59.969Z</time>
      </trkpt>
      <trkpt lat="59.17937398888171" lon="13.009879980236292">
        <ele>49.49</ele>
        <time>2025-02-03T03:52:07.902Z</time>
      </trkpt>
      <trkpt lat="59.17929695919156" lon="13.009797921404243">
        <ele>49.49</ele>
        <time>2025-02-03T03:52:15.836Z</time>
      </trkpt>
      <trkpt lat="59.179218923673034" lon="13.009714940562844">
        <ele>49.49</ele>
        <time>2025-02-03T03:52:23.771Z</time>
      </trkpt>
      <trkpt lat="59.1791429836303" lon="13.009628942236304">
        <ele>49.5</ele>
        <time>2025-02-03T03:52:31.708Z</time>
      </trkpt>
      <trkpt lat="59.179066959768534" lon="13.009541938081384">
        <ele>49.5</ele>
        <time>2025-02-03T03:52:39.646Z</time>
      </trkpt>
      <trkpt lat="59.17899194173515" lon="13.009453928098083">
        <ele>49.51</ele>
        <time>2025-02-03T03:52:47.586Z</time>
      </trkpt>
      <trkpt lat="59.17891692370176" lon="13.009365918114781">
        <ele>49.51</ele>
        <time>2025-02-03T03:52:55.527Z</time>
      </trkpt>
      <trkpt lat="59.17884299531579" lon="13.00927598029375">
        <ele>49.52</ele>
        <time>2025-02-03T03:53:03.469Z</time>
      </trkpt>
      <trkpt lat="59.178769988939166" lon="13.009184952825308">
        <ele>49.53</ele>
        <time>2025-02-03T03:53:11.413Z</time>
      </trkpt>
      <trkpt lat="59.17869698256254" lon="13.009092919528484">
        <ele>49.53</ele>
        <time>2025-02-03T03:53:19.358Z</time>
      </trkpt>
      <trkpt lat="59.17862598784268" lon="13.009000970050693">
        <ele>49.54</ele>
        <time>2025-02-03T03:53:27.305Z</time>
      </trkpt>
      <trkpt lat="59.178554993122816" lon="13.008906925097108">
        <ele>49.55</ele>
        <time>2025-02-03T03:53:35.253Z</time>
      </trkpt>
      <trkpt lat="59.17848399840295" lon="13.008813969790936">
        <ele>49.56</ele>
        <time>2025-02-03T03:53:43.202Z</time>
      </trkpt>
      <trkpt lat="59.17841291986406" lon="13.008722942322493">
        <ele>49.58</ele>
        <time>2025-02-03T03:53:51.153Z</time>
      </trkpt>
      <trkpt lat="59.178342930972576" lon="13.008631998673081">
        <ele>49.59</ele>
        <time>2025-02-03T03:53:59.105Z</time>
      </trkpt>
      <trkpt lat="59.178273947909474" lon="13.008539965376258">
        <ele>49.61</ele>
        <time>2025-02-03T03:54:07.058Z</time>
      </trkpt>
      <trkpt lat="59.17820395901799" lon="13.008448937907815">
        <ele>49.63</ele>
        <time>2025-02-03T03:54:15.013Z</time>
      </trkpt>
      <trkpt lat="59.17813296429813" lon="13.008358916267753">
        <ele>49.64</ele>
        <time>2025-02-03T03:54:22.969Z</time>
      </trkpt>
      <trkpt lat="59.17806498706341" lon="13.00826696678996">
        <ele>49.66</ele>
        <time>2025-02-03T03:54:30.926Z</time>
      </trkpt>
      <trkpt lat="59.177995920181274" lon="13.008176945149899">
        <ele>49.68</ele>
        <time>2025-02-03T03:54:38.885Z</time>
      </trkpt>
      <trkpt lat="59.17792693711817" lon="13.008087929338217">
        <ele>49.7</ele>
        <time>2025-02-03T03:54:46.845Z</time>
      </trkpt>
      <trkpt lat="59.17785895988345" lon="13.007997991517186">
        <ele>49.72</ele>
        <time>2025-02-03T03:54:54.806Z</time>
      </trkpt>
      <trkpt lat="59.17779098264873" lon="13.007908975705504">
        <ele>49.74</ele>
        <time>2025-02-03T03:55:02.769Z</time>
      </trkpt>
      <trkpt lat="59.17772292159498" lon="13.007822977378964">
        <ele>49.77</ele>
        <time>2025-02-03T03:55:10.733Z</time>
      </trkpt>
      <trkpt lat="59.177654944360256" lon="13.007734967395663">
        <ele>49.79</ele>
        <time>2025-02-03T03:55:18.698Z</time>
      </trkpt>
      <trkpt lat="59.177585961297154" lon="13.007648969069123">
        <ele>49.81</ele>
        <time>2025-02-03T03:55:26.665Z</time>
      </trkpt>
      <trkpt lat="59.17751697823405" lon="13.007563976570964">
        <ele>49.84</ele>
        <time>2025-02-03T03:55:34.633Z</time>
      </trkpt>
      <trkpt lat="59.17744799517095" lon="13.007479989901185">
        <ele>49.87</ele>
        <time>2025-02-03T03:55:42.602Z</time>
      </trkpt>
      <trkpt lat="59.17737892828882" lon="13.007396925240755">
        <ele>49.9</ele>
        <time>2025-02-03T03:55:50.572Z</time>
      </trkpt>
      <trkpt lat="59.177308939397335" lon="13.007312938570976">
        <ele>49.92</ele>
        <time>2025-02-03T03:55:58.544Z</time>
      </trkpt>
      <trkpt lat="59.17723895050585" lon="13.007230963557959">
        <ele>49.95</ele>
        <time>2025-02-03T03:56:06.517Z</time>
      </trkpt>
      <trkpt lat="59.17716694995761" lon="13.007151922211051">
        <ele>49.99</ele>
        <time>2025-02-03T03:56:14.491Z</time>
      </trkpt>
      <trkpt lat="59.177094949409366" lon="13.007071958854795">
        <ele>50.02</ele>
        <time>2025-02-03T03:56:22.467Z</time>
      </trkpt>
      <trkpt lat="59.17702294886112" lon="13.006991995498538">
        <ele>50.06</ele>
        <time>2025-02-03T03:56:30.444Z</time>
      </trkpt>
      <trkpt lat="59.1769499424845" lon="13.00691194832325">
        <ele>50.09</ele>
        <time>2025-02-03T03:56:38.422Z</time>
      </trkpt>
      <trkpt lat="59.176876936107874" lon="13.006832990795374">
        <ele>50.13</ele>
        <time>2025-02-03T03:56:46.402Z</time>
      </trkpt>
      <trkpt lat="59.17680292390287" lon="13.006754955276847">
        <ele>50.17</ele>
        <time>2025-02-03T03:56:54.383Z</time>
      </trkpt>
      <trkpt lat="59.176726983860135" lon="13.006678931415081">
        <ele>50.21</ele>
        <time>2025-02-03T03:57:02.366Z</time>
      </trkpt>
      <trkpt lat="59.17665095999837" lon="13.006603997200727">
        <ele>50.24</ele>
        <time>2025-02-03T03:57:10.350Z</time>
      </trkpt>
      <trkpt lat="59.17657393030822" lon="13.006528979167342">
        <ele>50.28</ele>
        <time>2025-02-03T03:57:18.335Z</time>
      </trkpt>
      <trkpt lat="59.17649698443711" lon="13.006455972790718">
        <ele>50.32</ele>
        <time>2025-02-03T03:57:26.322Z</time>
      </trkpt>
      <trkpt lat="59.17641894891858" lon="13.006381960585713">
        <ele>50.36</ele>
        <time>2025-02-03T03:57:34.310Z</time>
      </trkpt>
      <trkpt lat="59.176339991390705" lon="13.006306942552328">
        <ele>50.41</ele>
        <time>2025-02-03T03:57:42.299Z</time>
      </trkpt>
      <trkpt lat="59.1762609500438" lon="13.006233936175704">
        <ele>50.45</ele>
        <time>2025-02-03T03:57:50.290Z</time>
      </trkpt>
      <trkpt lat="59.17618199251592" lon="13.006162941455841">
        <ele>50.49</ele>
        <time>2025-02-03T03:57:58.282Z</time>
      </trkpt>
      <trkpt lat="59.17610093951225" lon="13.006092952564359">
        <ele>50.54</ele>
        <time>2025-02-03T03:58:06.276Z</time>
      </trkpt>
      <trkpt lat="59.176018964499235" lon="13.006023969501257">
        <ele>50.58</ele>
        <time>2025-02-03T03:58:14.271Z</time>
      </trkpt>
      <trkpt lat="59.17593698948622" lon="13.005955992266536">
        <ele>50.63</ele>
        <time>2025-02-03T03:58:22.268Z</time>
      </trkpt>
      <trkpt lat="59.17585392482579" lon="13.005887931212783">
        <ele>50.67</ele>
        <time>2025-02-03T03:58:30.266Z</time>
      </trkpt>
      <trkpt lat="59.17576993815601" lon="13.005820959806442">
        <ele>50.72</ele>
        <time>2025-02-03T03:58:38.265Z</time>
      </trkpt>
      <trkpt lat="59.17568695731461" lon="13.005754994228482">
        <ele>50.76</ele>
        <time>2025-02-03T03:58:46.266Z</time>
      </trkpt>
      <trkpt lat="59.17560196481645" lon="13.005690956488252">
        <ele>50.81</ele>
        <time>2025-02-03T03:58:54.268Z</time>
      </trkpt>
      <trkpt lat="59.17551697231829" lon="13.005626918748021">
        <ele>50.87</ele>
        <time>2025-02-03T03:59:02.272Z</time>
      </trkpt>
      <trkpt lat="59.17543197982013" lon="13.005565982311964">
        <ele>50.92</ele>
        <time>2025-02-03T03:59:10.277Z</time>
      </trkpt>
      <trkpt lat="59.17534698732197" lon="13.005505967885256">
        <ele>50.97</ele>
        <time>2025-02-03T03:59:18.284Z</time>
      </trkpt>
      <trkpt lat="59.17526098899543" lon="13.005446959286928">
        <ele>51.02</ele>
        <time>2025-02-03T03:59:26.292Z</time>
      </trkpt>
      <trkpt lat="59.17517499066889" lon="13.005389962345362">
        <ele>51.08</ele>
        <time>2025-02-03T03:59:34.302Z</time>
      </trkpt>
      <trkpt lat="59.17508798651397" lon="13.005334977060556">
        <ele>51.13</ele>
        <time>2025-02-03T03:59:42.313Z</time>
      </trkpt>
      <trkpt lat="59.17500098235905" lon="13.00527898594737">
        <ele>51.19</ele>
        <time>2025-02-03T03:59:50.326Z</time>
      </trkpt>
      <trkpt lat="59.17491297237575" lon="13.005223916843534">
        <ele>51.25</ele>
        <time>2025-02-03T03:59:58.340Z</time>
      </trkpt>
      <trkpt lat="59.17482395656407" lon="13.005169937387109">
        <ele>51.3</ele>
        <time>2025-02-03T04:00:06.356Z</time>
      </trkpt>
      <trkpt lat="59.17473494075239" lon="13.005114952102304">
        <ele>51.35</ele>
        <time>2025-02-03T04:00:14.373Z</time>
      </trkpt>
      <trkpt lat="59.174644919112325" lon="13.005059966817498">
        <ele>51.4</ele>
        <time>2025-02-03T04:00:22.392Z</time>
      </trkpt>
      <trkpt lat="59.174554981291294" lon="13.005003975704312">
        <ele>51.46</ele>
        <time>2025-02-03T04:00:30.412Z</time>
      </trkpt>
      <trkpt lat="59.17446495965123" lon="13.004947984591126">
        <ele>51.52</ele>
        <time>2025-02-03T04:00:38.434Z</time>
      </trkpt>
      <trkpt lat="59.17437393218279" lon="13.00489392131567">
        <ele>51.58</ele>
        <time>2025-02-03T04:00:46.457Z</time>
      </trkpt>
      <trkpt lat="59.17428399436176" lon="13.004839941859245">
        <ele>51.64</ele>
        <time>2025-02-03T04:00:54.482Z</time>
      </trkpt>
      <trkpt lat="59.174193972721696" lon="13.00478596240282">
        <ele>51.71</ele>
        <time>2025-02-03T04:01:02.508Z</time>
      </trkpt>
      <trkpt lat="59.174103951081634" lon="13.004730977118015">
        <ele>51.77</ele>
        <time>2025-02-03T04:01:10.536Z</time>
      </trkpt>
      <trkpt lat="59.17401493526995" lon="13.00467599183321">
        <ele>51.84</ele>
        <time>2025-02-03T04:01:18.565Z</time>
      </trkpt>
      <trkpt lat="59.17392692528665" lon="13.004620922729373">
        <ele>51.9</ele>
        <time>2025-02-03T04:01:26.596Z</time>
      </trkpt>
      <trkpt lat="59.173837993294" lon="13.004565937444568">
        <ele>51.97</ele>
        <time>2025-02-03T04:01:34.628Z</time>
      </trkpt>
      <trkpt lat="59.17374897748232" lon="13.004510952159762">
        <ele>52.04</ele>
        <time>2025-02-03T04:01:42.662Z</time>
      </trkpt>
      <trkpt lat="59.17365996167064" lon="13.004456972703338">
        <ele>52.1</ele>
        <time>2025-02-03T04:01:50.697Z</time>
      </trkpt>
      <trkpt lat="59.173570945858955" lon="13.004401987418532">
        <ele>52.17</ele>
        <time>2025-02-03T04:01:58.734Z</time>
      </trkpt>
      <trkpt lat="59.173482935875654" lon="13.004347924143076">
        <ele>52.24</ele>
        <time>2025-02-03T04:02:06.772Z</time>
      </trkpt>
      <trkpt lat="59.17339392006397" lon="13.004293944686651">
        <ele>52.31</ele>
        <time>2025-02-03T04:02:14.812Z</time>
      </trkpt>
      <trkpt lat="59.1733059938997" lon="13.004239965230227">
        <ele>52.37</ele>
        <time>2025-02-03T04:02:22.853Z</time>
      </trkpt>
      <trkpt lat="59.17321898974478" lon="13.004186991602182">
        <ele>52.44</ele>
        <time>2025-02-03T04:02:30.896Z</time>
      </trkpt>
      <trkpt lat="59.17313198558986" lon="13.004134939983487">
        <ele>52.51</ele>
        <time>2025-02-03T04:02:38.940Z</time>
      </trkpt>
      <trkpt lat="59.17304598726332" lon="13.004081966355443">
        <ele>52.58</ele>
        <time>2025-02-03T04:02:46.985Z</time>
      </trkpt>
      <trkpt lat="59.17295998893678" lon="13.004028992727399">
        <ele>52.65</ele>
        <time>2025-02-03T04:02:55.032Z</time>
      </trkpt>
      <trkpt lat="59.17287591844797" lon="13.003976941108704">
        <ele>52.72</ele>
        <time>2025-02-03T04:03:03.080Z</time>
      </trkpt>
      <trkpt lat="59.17279092594981" lon="13.00392497330904">
        <ele>52.79</ele>
        <time>2025-02-03T04:03:11.130Z</time>
      </trkpt>
      <trkpt lat="59.17270693928003" lon="13.003873927518725">
        <ele>52.86</ele>
        <time>2025-02-03T04:03:19.181Z</time>
      </trkpt>
      <trkpt lat="59.172622952610254" lon="13.003820953890681">
        <ele>52.93</ele>
        <time>2025-02-03T04:03:27.234Z</time>
      </trkpt>
      <trkpt lat="59.172538965940475" lon="13.003768986091018">
        <ele>53.0</ele>
        <time>2025-02-03T04:03:35.288Z</time>
      </trkpt>
      <trkpt lat="59.1724549792707" lon="13.003718946129084">
        <ele>53.06</ele>
        <time>2025-02-03T04:03:43.343Z</time>
      </trkpt>
      <trkpt lat="59.17237099260092" lon="13.0036679841578">
        <ele>53.13</ele>
        <time>2025-02-03T04:03:51.400Z</time>
      </trkpt>
      <trkpt lat="59.17228792794049" lon="13.003615932539105">
        <ele>53.2</ele>
        <time>2025-02-03T04:03:59.458Z</time>
      </trkpt>
      <trkpt lat="59.17220494709909" lon="13.003562958911061">
        <ele>53.27</ele>
        <time>2025-02-03T04:04:07.518Z</time>
      </trkpt>
      <trkpt lat="59.17212096042931" lon="13.003511996939778">
        <ele>53.34</ele>
        <time>2025-02-03T04:04:15.579Z</time>
      </trkpt>
      <trkpt lat="59.17203797958791" lon="13.003460951149464">
        <ele>53.4</ele>
        <time>2025-02-03T04:04:23.641Z</time>
      </trkpt>
      <trkpt lat="59.171954998746514" lon="13.00340797752142">
        <ele>53.46</ele>
        <time>2025-02-03T04:04:31.705Z</time>
      </trkpt>
      <trkpt lat="59.171870928257704" lon="13.003356931731105">
        <ele>53.53</ele>
        <time>2025-02-03T04:04:39.770Z</time>
      </trkpt>
      <trkpt lat="59.171786941587925" lon="13.003305969759822">
        <ele>53.59</ele>
        <time>2025-02-03T04:04:47.837Z</time>
      </trkpt>
      <trkpt lat="59.17170396074653" lon="13.003254923969507">
        <ele>53.65</ele>
        <time>2025-02-03T04:04:55.905Z</time>
      </trkpt>
      <trkpt lat="59.17162097990513" lon="13.003201950341463">
        <ele>53.71</ele>
        <time>2025-02-03T04:05:03.974Z</time>
      </trkpt>
      <trkpt lat="59.17153799906373" lon="13.003148976713419">
        <ele>53.77</ele>
        <time>2025-02-03T04:05:12.045Z</time>
      </trkpt>
      <trkpt lat="59.1714549344033" lon="13.003097930923104">
        <ele>53.82</ele>
        <time>2025-02-03T04:05:20.117Z</time>
      </trkpt>
      <trkpt lat="59.17137094773352" lon="13.003046968951821">
        <ele>53.88</ele>
        <time>2025-02-03T04:05:28.191Z</time>
      </trkpt>
      <trkpt lat="59.17128696106374" lon="13.002994917333126">
        <ele>53.93</ele>
        <time>2025-02-03T04:05:36.266Z</time>
      </trkpt>
      <trkpt lat="59.171203980222344" lon="13.002942949533463">
        <ele>53.98</ele>
        <time>2025-02-03T04:05:44.342Z</time>
      </trkpt>
      <trkpt lat="59.171119993552566" lon="13.002890981733799">
        <ele>54.03</ele>
        <time>2025-02-03T04:05:52.420Z</time>
      </trkpt>
      <trkpt lat="59.171036928892136" lon="13.002840941771865">
        <ele>54.08</ele>
        <time>2025-02-03T04:06:00.499Z</time>
      </trkpt>
      <trkpt lat="59.17095294222236" lon="13.002788973972201">
        <ele>54.13</ele>
        <time>2025-02-03T04:06:08.580Z</time>
      </trkpt>
      <trkpt lat="59.17086895555258" lon="13.002736922353506">
        <ele>54.18</ele>
        <time>2025-02-03T04:06:16.662Z</time>
      </trkpt>
      <trkpt lat="59.17078396305442" lon="13.002684954553843">
        <ele>54.23</ele>
        <time>2025-02-03T04:06:24.745Z</time>
      </trkpt>
      <trkpt lat="59.17069997638464" lon="13.002631980925798">
        <ele>54.27</ele>
        <time>2025-02-03T04:06:32.830Z</time>
      </trkpt>
      <trkpt lat="59.1706139780581" lon="13.002579929307103">
        <ele>54.31</ele>
        <time>2025-02-03T04:06:40.916Z</time>
      </trkpt>
      <trkpt lat="59.17052898555994" lon="13.00252796150744">
        <ele>54.35</ele>
        <time>2025-02-03T04:06:49.004Z</time>
      </trkpt>
      <trkpt lat="59.17044198140502" lon="13.002474987879395">
        <ele>54.39</ele>
        <time>2025-02-03T04:06:57.093Z</time>
      </trkpt>
      <trkpt lat="59.1703549772501" lon="13.00242193043232">
        <ele>54.43</ele>
        <time>2025-02-03T04:07:05.184Z</time>
      </trkpt>
      <trkpt lat="59.1702669672668" lon="13.002366945147514">
        <ele>54.47</ele>
        <time>2025-02-03T04:07:13.276Z</time>
      </trkpt>
      <trkpt lat="59.1701789572835" lon="13.002311959862709">
        <ele>54.5</ele>
        <time>2025-02-03T04:07:21.370Z</time>
      </trkpt>
      <trkpt lat="59.170090947300196" lon="13.002256974577904">
        <ele>54.54</ele>
        <time>2025-02-03T04:07:29.465Z</time>
      </trkpt>
      <trkpt lat="59.17000092566013" lon="13.002201989293098">
        <ele>54.57</ele>
        <time>2025-02-03T04:07:37.562Z</time>
      </trkpt>
      <trkpt lat="59.16991199366748" lon="13.002148931846023">
        <ele>54.61</ele>
        <time>2025-02-03T04:07:45.660Z</time>
      </trkpt>
      <trkpt lat="59.16982197202742" lon="13.002093946561217">
        <ele>54.64</ele>
        <time>2025-02-03T04:07:53.760Z</time>
      </trkpt>
      <trkpt lat="59.16973195038736" lon="13.002039967104793">
        <ele>54.67</ele>
        <time>2025-02-03T04:08:01.861Z</time>
      </trkpt>
      <trkpt lat="59.169640922918916" lon="13.001985987648368">
        <ele>54.7</ele>
        <time>2025-02-03T04:08:09.964Z</time>
      </trkpt>
      <trkpt lat="59.169548973441124" lon="13.001931924372911">
        <ele>54.72</ele>
        <time>2025-02-03T04:08:18.068Z</time>
      </trkpt>
      <trkpt lat="59.16945794597268" lon="13.001875933259726">
        <ele>54.74</ele>
        <time>2025-02-03T04:08:26.174Z</time>
      </trkpt>
      <trkpt lat="59.16936691850424" lon="13.00182094797492">
        <ele>54.76</ele>
        <time>2025-02-03T04:08:34.281Z</time>
      </trkpt>
      <trkpt lat="59.169274969026446" lon="13.001764956861734">
        <ele>54.79</ele>
        <time>2025-02-03T04:08:42.390Z</time>
      </trkpt>
      <trkpt lat="59.16918293572962" lon="13.001709971576929">
        <ele>54.81</ele>
        <time>2025-02-03T04:08:50.500Z</time>
      </trkpt>
      <trkpt lat="59.16909098625183" lon="13.001653980463743">
        <ele>54.83</ele>
        <time>2025-02-03T04:08:58.612Z</time>
      </trkpt>
      <trkpt lat="59.16899895295501" lon="13.001597989350557">
        <ele>54.84</ele>
        <time>2025-02-03T04:09:06.725Z</time>
      </trkpt>
      <trkpt lat="59.168907925486565" lon="13.00154292024672">
        <ele>54.85</ele>
        <time>2025-02-03T04:09:14.840Z</time>
      </trkpt>
      <trkpt lat="59.16881597600877" lon="13.001487934961915">
        <ele>54.86</ele>
        <time>2025-02-03T04:09:22.957Z</time>
      </trkpt>
      <trkpt lat="59.16872394271195" lon="13.00143294967711">
        <ele>54.87</ele>
        <time>2025-02-03T04:09:31.075Z</time>
      </trkpt>
      <trkpt lat="59.16863299906254" lon="13.001376958563924">
        <ele>54.88</ele>
        <time>2025-02-03T04:09:39.195Z</time>
      </trkpt>
      <trkpt lat="59.168541971594095" lon="13.001320967450738">
        <ele>54.88</ele>
        <time>2025-02-03T04:09:47.316Z</time>
      </trkpt>
      <trkpt lat="59.16845094412565" lon="13.001264976337552">
        <ele>54.88</ele>
        <time>2025-02-03T04:09:55.439Z</time>
      </trkpt>
      <trkpt lat="59.16836092248559" lon="13.001209991052747">
        <ele>54.89</ele>
        <time>2025-02-03T04:10:03.563Z</time>
      </trkpt>
      <trkpt lat="59.16826997883618" lon="13.00115492194891">
        <ele>54.9</ele>
        <time>2025-02-03T04:10:11.689Z</time>
      </trkpt>
      <trkpt lat="59.168178951367736" lon="13.001099936664104">
        <ele>54.91</ele>
        <time>2025-02-03T04:10:19.816Z</time>
      </trkpt>
      <trkpt lat="59.16808792389929" lon="13.0010449513793">
        <ele>54.91</ele>
        <time>2025-02-03T04:10:27.945Z</time>
      </trkpt>
      <trkpt lat="59.16799698024988" lon="13.000988960266113">
        <ele>54.91</ele>
        <time>2025-02-03T04:10:36.075Z</time>
      </trkpt>
      <trkpt lat="59.16790595278144" lon="13.000933974981308">
        <ele>54.91</ele>
        <time>2025-02-03T04:10:44.207Z</time>
      </trkpt>
      <trkpt lat="59.167814925312996" lon="13.000877983868122">
        <ele>54.9</ele>
        <time>2025-02-03T04:10:52.340Z</time>
      </trkpt>
      <trkpt lat="59.167724987491965" lon="13.000821992754936">
        <ele>54.89</ele>
        <time>2025-02-03T04:11:00.475Z</time>
      </trkpt>
      <trkpt lat="59.1676349658519" lon="13.0007669236511">
        <ele>54.87</ele>
        <time>2025-02-03T04:11:08.611Z</time>
      </trkpt>
      <trkpt lat="59.16754595004022" lon="13.000712944194674">
        <ele>54.86</ele>
        <time>2025-02-03T04:11:16.749Z</time>
      </trkpt>
      <trkpt lat="59.16745693422854" lon="13.00065795890987">
        <ele>54.84</ele>
        <time>2025-02-03T04:11:24.888Z</time>
      </trkpt>
      <trkpt lat="59.16736791841686" lon="13.000602973625064">
        <ele>54.82</ele>
        <time>2025-02-03T04:11:33.029Z</time>
      </trkpt>
      <trkpt lat="59.16727898642421" lon="13.000547988340259">
        <ele>54.81</ele>
        <time>2025-02-03T04:11:41.171Z</time>
      </trkpt>
      <trkpt lat="59.16719097644091" lon="13.000493925064802">
        <ele>54.79</ele>
        <time>2025-02-03T04:11:49.315Z</time>
      </trkpt>
      <trkpt lat="59.167102966457605" lon="13.000439945608377">
        <ele>54.77</ele>
        <time>2025-02-03T04:11:57.460Z</time>
      </trkpt>
      <trkpt lat="59.167014956474304" lon="13.000384960323572">
        <ele>54.76</ele>
        <time>2025-02-03T04:12:05.607Z</time>
      </trkpt>
      <trkpt lat="59.166926946491" lon="13.000329975038767">
        <ele>54.74</ele>
        <time>2025-02-03T04:12:13.755Z</time>
      </trkpt>
      <trkpt lat="59.16683994233608" lon="13.000275995582342">
        <ele>54.72</ele>
        <time>2025-02-03T04:12:21.905Z</time>
      </trkpt>
      <trkpt lat="59.16675293818116" lon="13.000221932306886">
        <ele>54.7</ele>
        <time>2025-02-03T04:12:30.056Z</time>
      </trkpt>
      <trkpt lat="59.16666693985462" lon="13.0001659411937">
        <ele>54.67</ele>
        <time>2025-02-03T04:12:38.209Z</time>
      </trkpt>
      <trkpt lat="59.16658094152808" lon="13.000106932595372">
        <ele>54.69</ele>
        <time>2025-02-03T04:12:46.363Z</time>
      </trkpt>
      <trkpt lat="59.16649594902992" lon="13.000046918168664">
        <ele>54.65</ele>
        <time>2025-02-03T04:12:54.519Z</time>
      </trkpt>
      <trkpt lat="59.16641095653176" lon="12.999984975904226">
        <ele>54.62</ele>
        <time>2025-02-03T04:13:02.676Z</time>
      </trkpt>
      <trkpt lat="59.166326969861984" lon="12.999920938163996">
        <ele>54.59</ele>
        <time>2025-02-03T04:13:10.835Z</time>
      </trkpt>
      <trkpt lat="59.166243989020586" lon="12.999853966757655">
        <ele>54.56</ele>
        <time>2025-02-03T04:13:18.995Z</time>
      </trkpt>
      <trkpt lat="59.16616293601692" lon="12.999783977866173">
        <ele>54.54</ele>
        <time>2025-02-03T04:13:27.156Z</time>
      </trkpt>
      <trkpt lat="59.16608196683228" lon="12.99971197731793">
        <ele>54.5</ele>
        <time>2025-02-03T04:13:35.319Z</time>
      </trkpt>
      <trkpt lat="59.16600292548537" lon="12.999635953456163">
        <ele>54.47</ele>
        <time>2025-02-03T04:13:43.483Z</time>
      </trkpt>
      <trkpt lat="59.1659239679575" lon="12.999557917937636">
        <ele>54.44</ele>
        <time>2025-02-03T04:13:51.649Z</time>
      </trkpt>
      <trkpt lat="59.16584492661059" lon="12.99947795458138">
        <ele>54.42</ele>
        <time>2025-02-03T04:13:59.816Z</time>
      </trkpt>
      <trkpt lat="59.16576596908271" lon="12.999394973739982">
        <ele>54.39</ele>
        <time>2025-02-03T04:14:07.985Z</time>
      </trkpt>
      <trkpt lat="59.165687933564186" lon="12.999307969585061">
        <ele>54.36</ele>
        <time>2025-02-03T04:14:16.155Z</time>
      </trkpt>
      <trkpt lat="59.16560998186469" lon="12.99921895377338">
        <ele>54.32</ele>
        <time>2025-02-03T04:14:24.326Z</time>
      </trkpt>
      <trkpt lat="59.165531946346164" lon="12.999125998467207">
        <ele>54.28</ele>
        <time>2025-02-03T04:14:32.499Z</time>
      </trkpt>
      <trkpt lat="59.16545399464667" lon="12.999030947685242">
        <ele>54.24</ele>
        <time>2025-02-03T04:14:40.673Z</time>
      </trkpt>
      <trkpt lat="59.16537595912814" lon="12.998932963237166">
        <ele>54.19</ele>
        <time>2025-02-03T04:14:48.849Z</time>
      </trkpt>
      <trkpt lat="59.165298929437995" lon="12.99883196130395">
        <ele>54.15</ele>
        <time>2025-02-03T04:14:57.026Z</time>
      </trkpt>
      <trkpt lat="59.16522198356688" lon="12.99872794188559">
        <ele>54.11</ele>
        <time>2025-02-03T04:15:05.205Z</time>
      </trkpt>
      <trkpt lat="59.165145959705114" lon="12.998621994629502">
        <ele>54.07</ele>
        <time>2025-02-03T04:15:13.385Z</time>
      </trkpt>
      <trkpt lat="59.16506993584335" lon="12.998513951897621">
        <ele>54.03</ele>
        <time>2025-02-03T04:15:21.567Z</time>
      </trkpt>
      <trkpt lat="59.164992989972234" lon="12.998405992984772">
        <ele>53.99</ele>
        <time>2025-02-03T04:15:29.750Z</time>
      </trkpt>
      <trkpt lat="59.16491495445371" lon="12.99829795025289">
        <ele>53.95</ele>
        <time>2025-02-03T04:15:37.935Z</time>
      </trkpt>
      <trkpt lat="59.16483792476356" lon="12.99818797968328">
        <ele>53.91</ele>
        <time>2025-02-03T04:15:46.121Z</time>
      </trkpt>
      <trkpt lat="59.164760978892446" lon="12.998075997456908">
        <ele>53.87</ele>
        <time>2025-02-03T04:15:54.309Z</time>
      </trkpt>
      <trkpt lat="59.1646839492023" lon="12.997963931411505">
        <ele>53.84</ele>
        <time>2025-02-03T04:16:02.499Z</time>
      </trkpt>
      <trkpt lat="59.16460691951215" lon="12.997853960841894">
        <ele>53.8</ele>
        <time>2025-02-03T04:16:10.690Z</time>
      </trkpt>
      <trkpt lat="59.16452997364104" lon="12.997745918110013">
        <ele>53.77</ele>
        <time>2025-02-03T04:16:18.883Z</time>
      </trkpt>
      <trkpt lat="59.16445193812251" lon="12.997635947540402">
        <ele>53.74</ele>
        <time>2025-02-03T04:16:27.077Z</time>
      </trkpt>
      <trkpt lat="59.16437599807978" lon="12.997526982799172">
        <ele>53.71</ele>
        <time>2025-02-03T04:16:35.273Z</time>
      </trkpt>
      <trkpt lat="59.16429796256125" lon="12.99741793423891">
        <ele>53.68</ele>
        <time>2025-02-03T04:16:43.470Z</time>
      </trkpt>
      <trkpt lat="59.1642209328711" lon="12.99730896949768">
        <ele>53.66</ele>
        <time>2025-02-03T04:16:51.669Z</time>
      </trkpt>
      <trkpt lat="59.16414499282837" lon="12.99719899892807">
        <ele>53.63</ele>
        <time>2025-02-03T04:16:59.869Z</time>
      </trkpt>
      <trkpt lat="59.16406796313822" lon="12.997088944539428">
        <ele>53.6</ele>
        <time>2025-02-03T04:17:08.071Z</time>
      </trkpt>
      <trkpt lat="59.163990933448076" lon="12.996978973969817">
        <ele>53.58</ele>
        <time>2025-02-03T04:17:16.274Z</time>
      </trkpt>
      <trkpt lat="59.16391499340534" lon="12.996870931237936">
        <ele>53.55</ele>
        <time>2025-02-03T04:17:24.479Z</time>
      </trkpt>
      <trkpt lat="59.16383997537196" lon="12.996762972325087">
        <ele>53.53</ele>
        <time>2025-02-03T04:17:32.685Z</time>
      </trkpt>
      <trkpt lat="59.16376395151019" lon="12.996653923764825">
        <ele>53.51</ele>
        <time>2025-02-03T04:17:40.893Z</time>
      </trkpt>
      <trkpt lat="59.163687927648425" lon="12.996544959023595">
        <ele>53.49</ele>
        <time>2025-02-03T04:17:49.102Z</time>
      </trkpt>
      <trkpt lat="59.16361198760569" lon="12.996436916291714">
        <ele>53.47</ele>
        <time>2025-02-03T04:17:57.313Z</time>
      </trkpt>
      <trkpt lat="59.163534957915545" lon="12.996327951550484">
        <ele>53.46</ele>
        <time>2025-02-03T04:18:05.525Z</time>
      </trkpt>
      <trkpt lat="59.1634579282254" lon="12.996216975152493">
        <ele>53.44</ele>
        <time>2025-02-03T04:18:13.739Z</time>
      </trkpt>
      <trkpt lat="59.1633799765259" lon="12.99610792659223">
        <ele>53.43</ele>
        <time>2025-02-03T04:18:21.954Z</time>
      </trkpt>
      <trkpt lat="59.163302946835756" lon="12.995995944365859">
        <ele>53.41</ele>
        <time>2025-02-03T04:18:30.171Z</time>
      </trkpt>
      <trkpt lat="59.16322591714561" lon="12.995884967967868">
        <ele>53.4</ele>
        <time>2025-02-03T04:18:38.389Z</time>
      </trkpt>
      <trkpt lat="59.163148971274495" lon="12.995773991569877">
        <ele>53.39</ele>
        <time>2025-02-03T04:18:46.609Z</time>
      </trkpt>
      <trkpt lat="59.16307194158435" lon="12.995663937181234">
        <ele>53.38</ele>
        <time>2025-02-03T04:18:54.831Z</time>
      </trkpt>
      <trkpt lat="59.16299591772258" lon="12.995554972440004">
        <ele>53.37</ele>
        <time>2025-02-03T04:19:03.054Z</time>
      </trkpt>
      <trkpt lat="59.16291997767985" lon="12.995445923879743">
        <ele>53.36</ele>
        <time>2025-02-03T04:19:11.279Z</time>
      </trkpt>
      <trkpt lat="59.1628429479897" lon="12.995335953310132">
        <ele>53.36</ele>
        <time>2025-02-03T04:19:19.505Z</time>
      </trkpt>
      <trkpt lat="59.162766924127936" lon="12.995225982740521">
        <ele>53.36</ele>
        <time>2025-02-03T04:19:27.733Z</time>
      </trkpt>
      <trkpt lat="59.1626909840852" lon="12.99511693418026">
        <ele>53.36</ele>
        <time>2025-02-03T04:19:35.962Z</time>
      </trkpt>
      <trkpt lat="59.16261596605182" lon="12.99500998109579">
        <ele>53.36</ele>
        <time>2025-02-03T04:19:44.193Z</time>
      </trkpt>
      <trkpt lat="59.16253994219005" lon="12.99490294419229">
        <ele>53.37</ele>
        <time>2025-02-03T04:19:52.425Z</time>
      </trkpt>
      <trkpt lat="59.162463918328285" lon="12.99479498527944">
        <ele>53.37</ele>
        <time>2025-02-03T04:20:00.659Z</time>
      </trkpt>
      <trkpt lat="59.16238898411393" lon="12.994688954204321">
        <ele>53.38</ele>
        <time>2025-02-03T04:20:08.894Z</time>
      </trkpt>
      <trkpt lat="59.162313966080546" lon="12.994582923129201">
        <ele>53.4</ele>
        <time>2025-02-03T04:20:17.131Z</time>
      </trkpt>
      <trkpt lat="59.16223995387554" lon="12.994476975873113">
        <ele>53.41</ele>
        <time>2025-02-03T04:20:25.369Z</time>
      </trkpt>
      <trkpt lat="59.16216694749892" lon="12.994372956454754">
        <ele>53.43</ele>
        <time>2025-02-03T04:20:33.609Z</time>
      </trkpt>
      <trkpt lat="59.16209293529391" lon="12.994269942864776">
        <ele>53.45</ele>
        <time>2025-02-03T04:20:41.850Z</time>
      </trkpt>
      <trkpt lat="59.16201892308891" lon="12.994168940931559">
        <ele>53.47</ele>
        <time>2025-02-03T04:20:50.092Z</time>
      </trkpt>
      <trkpt lat="59.161946922540665" lon="12.994067938998342">
        <ele>53.5</ele>
        <time>2025-02-03T04:20:58.336Z</time>
      </trkpt>
      <trkpt lat="59.16187492199242" lon="12.993966937065125">
        <ele>53.52</ele>
        <time>2025-02-03T04:21:06.581Z</time>
      </trkpt>
      <trkpt lat="59.16180292144418" lon="12.993864929303527">
        <ele>53.56</ele>
        <time>2025-02-03T04:21:14.828Z</time>
      </trkpt>
      <trkpt lat="59.161731926724315" lon="12.99376392737031">
        <ele>53.59</ele>
        <time>2025-02-03T04:21:23.076Z</time>
      </trkpt>
      <trkpt lat="59.16166193783283" lon="12.993664937093854">
        <ele>53.62</ele>
        <time>2025-02-03T04:21:31.326Z</time>
      </trkpt>
      <trkpt lat="59.16159194894135" lon="12.993565946817398">
        <ele>53.66</ele>
        <time>2025-02-03T04:21:39.577Z</time>
      </trkpt>
      <trkpt lat="59.16152397170663" lon="12.993469974026084">
        <ele>53.7</ele>
        <time>2025-02-03T04:21:47.829Z</time>
      </trkpt>
      <trkpt lat="59.16145498864353" lon="12.99337299540639">
        <ele>53.74</ele>
        <time>2025-02-03T04:21:56.083Z</time>
      </trkpt>
      <trkpt lat="59.161386927589774" lon="12.993276938796043">
        <ele>53.78</ele>
        <time>2025-02-03T04:22:04.338Z</time>
      </trkpt>
      <trkpt lat="59.16131895035505" lon="12.99318096600473">
        <ele>53.82</ele>
        <time>2025-02-03T04:22:12.594Z</time>
      </trkpt>
      <trkpt lat="59.16125197894871" lon="12.993082981556654">
        <ele>53.87</ele>
        <time>2025-02-03T04:22:20.852Z</time>
      </trkpt>
      <trkpt lat="59.1611869353801" lon="12.992985919117928">
        <ele>53.91</ele>
        <time>2025-02-03T04:22:29.111Z</time>
      </trkpt>
      <trkpt lat="59.1611229814589" lon="12.992890952154994">
        <ele>53.96</ele>
        <time>2025-02-03T04:22:37.371Z</time>
      </trkpt>
      <trkpt lat="59.16105793789029" lon="12.99279891885817">
        <ele>54.01</ele>
        <time>2025-02-03T04:22:45.633Z</time>
      </trkpt>
      <trkpt lat="59.16099398396909" lon="12.99270797520876">
        <ele>54.06</ele>
        <time>2025-02-03T04:22:53.896Z</time>
      </trkpt>
      <trkpt lat="59.16093195788562" lon="12.992617953568697">
        <ele>54.12</ele>
        <time>2025-02-03T04:23:02.160Z</time>
      </trkpt>
      <trkpt lat="59.16086792014539" lon="12.992526926100254">
        <ele>54.18</ele>
        <time>2025-02-03T04:23:10.425Z</time>
      </trkpt>
      <trkpt lat="59.160803966224194" lon="12.992435982450843">
        <ele>54.24</ele>
        <time>2025-02-03T04:23:18.692Z</time>
      </trkpt>
      <trkpt lat="59.160740934312344" lon="12.99234596081078">
        <ele>54.3</ele>
        <time>2025-02-03T04:23:26.960Z</time>
      </trkpt>
      <trkpt lat="59.160677986219525" lon="12.992256944999099">
        <ele>54.36</ele>
        <time>2025-02-03T04:23:35.229Z</time>
      </trkpt>
      <trkpt lat="59.160613948479295" lon="12.992166923359036">
        <ele>54.43</ele>
        <time>2025-02-03T04:23:43.499Z</time>
      </trkpt>
      <trkpt lat="59.160550916567445" lon="12.992077991366386">
        <ele>54.5</ele>
        <time>2025-02-03T04:23:51.771Z</time>
      </trkpt>
      <trkpt lat="59.16048796847463" lon="12.991988975554705">
        <ele>54.56</ele>
        <time>2025-02-03T04:24:00.044Z</time>
      </trkpt>
      <trkpt lat="59.16042493656278" lon="12.991898953914642">
        <ele>54.62</ele>
        <time>2025-02-03T04:24:08.318Z</time>
      </trkpt>
      <trkpt lat="59.16036098264158" lon="12.99180893227458">
        <ele>54.69</ele>
        <time>2025-02-03T04:24:16.593Z</time>
      </trkpt>
      <trkpt lat="59.16029694490135" lon="12.99171899445355">
        <ele>54.76</ele>
        <time>2025-02-03T04:24:24.870Z</time>
      </trkpt>
      <trkpt lat="59.16023399680853" lon="12.991627966985106">
        <ele>54.83</ele>
        <time>2025-02-03T04:24:33.148Z</time>
      </trkpt>
      <trkpt lat="59.16017096489668" lon="12.991536939516664">
        <ele>54.9</ele>
        <time>2025-02-03T04:24:41.427Z</time>
      </trkpt>
      <trkpt lat="59.16010692715645" lon="12.991444990038872">
        <ele>54.98</ele>
        <time>2025-02-03T04:24:49.707Z</time>
      </trkpt>
      <trkpt lat="59.16004397906363" lon="12.99135496839881">
        <ele>55.06</ele>
        <time>2025-02-03T04:24:57.989Z</time>
      </trkpt>
      <trkpt lat="59.15997893549502" lon="12.991264946758747">
        <ele>55.13</ele>
        <time>2025-02-03T04:25:06.272Z</time>
      </trkpt>
      <trkpt lat="59.15991397574544" lon="12.991174925118685">
        <ele>55.21</ele>
        <time>2025-02-03T04:25:14.556Z</time>
      </trkpt>
      <trkpt lat="59.15984993800521" lon="12.991083981469274">
        <ele>55.29</ele>
        <time>2025-02-03T04:25:22.842Z</time>
      </trkpt>
      <trkpt lat="59.15978598408401" lon="12.99099094234407">
        <ele>55.37</ele>
        <time>2025-02-03T04:25:31.129Z</time>
      </trkpt>
      <trkpt lat="59.1597209405154" lon="12.990896981209517">
        <ele>55.45</ele>
        <time>2025-02-03T04:25:39.417Z</time>
      </trkpt>
      <trkpt lat="59.15965497493744" lon="12.990803942084312">
        <ele>55.53</ele>
        <time>2025-02-03T04:25:47.706Z</time>
      </trkpt>
      <trkpt lat="59.15958993136883" lon="12.99070998094976">
        <ele>55.61</ele>
        <time>2025-02-03T04:25:55.997Z</time>
      </trkpt>
      <trkpt lat="59.15952396579087" lon="12.990615935996175">
        <ele>55.7</ele>
        <time>2025-02-03T04:26:04.289Z</time>
      </trkpt>
      <trkpt lat="59.159457916393876" lon="12.990522980690002">
        <ele>55.79</ele>
        <time>2025-02-03T04:26:12.582Z</time>
      </trkpt>
      <trkpt lat="59.159391950815916" lon="12.990428935736418">
        <ele>55.88</ele>
        <time>2025-02-03T04:26:20.877Z</time>
      </trkpt>
      <trkpt lat="59.159323973581195" lon="12.990331957116723">
        <ele>55.97</ele>
        <time>2025-02-03T04:26:29.173Z</time>
      </trkpt>
      <trkpt lat="59.159255996346474" lon="12.990235984325409">
        <ele>56.07</ele>
        <time>2025-02-03T04:26:37.470Z</time>
      </trkpt>
      <trkpt lat="59.15918793529272" lon="12.990139927715063">
        <ele>56.16</ele>
        <time>2025-02-03T04:26:45.769Z</time>
      </trkpt>
      <trkpt lat="59.15912096388638" lon="12.99004697240889">
        <ele>56.26</ele>
        <time>2025-02-03T04:26:54.069Z</time>
      </trkpt>
      <trkpt lat="59.15905298665166" lon="12.989953933283687">
        <ele>56.35</ele>
        <time>2025-02-03T04:27:02.370Z</time>
      </trkpt>
      <trkpt lat="59.15898593142629" lon="12.989859972149134">
        <ele>56.45</ele>
        <time>2025-02-03T04:27:10.673Z</time>
      </trkpt>
      <trkpt lat="59.158917954191566" lon="12.98976399935782">
        <ele>56.55</ele>
        <time>2025-02-03T04:27:18.977Z</time>
      </trkpt>
      <trkpt lat="59.158851988613605" lon="12.989668948575854">
        <ele>56.65</ele>
        <time>2025-02-03T04:27:27.282Z</time>
      </trkpt>
      <trkpt lat="59.15878493338823" lon="12.98957297578454">
        <ele>56.75</ele>
        <time>2025-02-03T04:27:35.589Z</time>
      </trkpt>
      <trkpt lat="59.15871796198189" lon="12.989477925002575">
        <ele>56.85</ele>
        <time>2025-02-03T04:27:43.897Z</time>
      </trkpt>
      <trkpt lat="59.15865099057555" lon="12.989384969696403">
        <ele>56.95</ele>
        <time>2025-02-03T04:27:52.206Z</time>
      </trkpt>
      <trkpt lat="59.15858494117856" lon="12.989290924742818">
        <ele>57.05</ele>
        <time>2025-02-03T04:28:00.517Z</time>
      </trkpt>
      <trkpt lat="59.1585189756006" lon="12.989197969436646">
        <ele>57.15</ele>
        <time>2025-02-03T04:28:08.829Z</time>
      </trkpt>
      <trkpt lat="59.15845292620361" lon="12.98910392448306">
        <ele>57.25</ele>
        <time>2025-02-03T04:28:17.142Z</time>
      </trkpt>
      <trkpt lat="59.15838696062565" lon="12.989010969176888">
        <ele>57.35</ele>
        <time>2025-02-03T04:28:25.457Z</time>
      </trkpt>
      <trkpt lat="59.15832099504769" lon="12.988916924223304">
        <ele>57.44</ele>
        <time>2025-02-03T04:28:33.773Z</time>
      </trkpt>
      <trkpt lat="59.158253939822316" lon="12.98882296308875">
        <ele>57.54</ele>
        <time>2025-02-03T04:28:42.090Z</time>
      </trkpt>
      <trkpt lat="59.158187974244356" lon="12.988730929791927">
        <ele>57.63</ele>
        <time>2025-02-03T04:28:50.409Z</time>
      </trkpt>
      <trkpt lat="59.158121924847364" lon="12.988639986142516">
        <ele>57.73</ele>
        <time>2025-02-03T04:28:58.729Z</time>
      </trkpt>
      <trkpt lat="59.158055959269404" lon="12.988549964502454">
        <ele>57.83</ele>
        <time>2025-02-03T04:29:07.050Z</time>
      </trkpt>
      <trkpt lat="59.157989993691444" lon="12.988459942862391">
        <ele>57.92</ele>
        <time>2025-02-03T04:29:15.372Z</time>
      </trkpt>
      <trkpt lat="59.15792495012283" lon="12.98836899921298">
        <ele>58.02</ele>
        <time>2025-02-03T04:29:23.696Z</time>
      </trkpt>
      <trkpt lat="59.157859990373254" lon="12.988276965916157">
        <ele>58.11</ele>
        <time>2025-02-03T04:29:32.021Z</time>
      </trkpt>
      <trkpt lat="59.15779595263302" lon="12.988182920962572">
        <ele>58.2</ele>
        <time>2025-02-03T04:29:40.347Z</time>
      </trkpt>
      <trkpt lat="59.157733926549554" lon="12.9880899656564">
        <ele>58.29</ele>
        <time>2025-02-03T04:29:48.675Z</time>
      </trkpt>
      <trkpt lat="59.157671984285116" lon="12.987996926531196">
        <ele>58.38</ele>
        <time>2025-02-03T04:29:57.004Z</time>
      </trkpt>
      <trkpt lat="59.15761096403003" lon="12.987899947911501">
        <ele>58.46</ele>
        <time>2025-02-03T04:30:05.334Z</time>
      </trkpt>
      <trkpt lat="59.1575519554317" lon="12.987800957635045">
        <ele>58.54</ele>
        <time>2025-02-03T04:30:13.665Z</time>
      </trkpt>
      <trkpt lat="59.15749194100499" lon="12.98770196735859">
        <ele>58.62</ele>
        <time>2025-02-03T04:30:21.998Z</time>
      </trkpt>
      <trkpt lat="59.15743192657828" lon="12.987604988738894">
        <ele>58.7</ele>
        <time>2025-02-03T04:30:30.332Z</time>
      </trkpt>
      <trkpt lat="59.15737199597061" lon="12.987505998462439">
        <ele>58.77</ele>
        <time>2025-02-03T04:30:38.667Z</time>
      </trkpt>
      <trkpt lat="59.1573119815439" lon="12.987403990700841">
        <ele>58.85</ele>
        <time>2025-02-03T04:30:47.003Z</time>
      </trkpt>
      <trkpt lat="59.15725196711719" lon="12.98729695379734">
        <ele>58.93</ele>
        <time>2025-02-03T04:30:55.341Z</time>
      </trkpt>
      <trkpt lat="59.15719295851886" lon="12.98718597739935">
        <ele>59.0</ele>
        <time>2025-02-03T04:31:03.680Z</time>
      </trkpt>
      <trkpt lat="59.157133949920535" lon="12.987074917182326">
        <ele>59.08</ele>
        <time>2025-02-03T04:31:12.020Z</time>
      </trkpt>
      <trkpt lat="59.15707494132221" lon="12.986963940784335">
        <ele>59.16</ele>
        <time>2025-02-03T04:31:20.362Z</time>
      </trkpt>
      <trkpt lat="59.15701693855226" lon="12.986853970214725">
        <ele>59.24</ele>
        <time>2025-02-03T04:31:28.705Z</time>
      </trkpt>
      <trkpt lat="59.156960947439075" lon="12.986741987988353">
        <ele>59.32</ele>
        <time>2025-02-03T04:31:37.049Z</time>
      </trkpt>
      <trkpt lat="59.15690596215427" lon="12.98663092777133">
        <ele>59.4</ele>
        <time>2025-02-03T04:31:45.394Z</time>
      </trkpt>
      <trkpt lat="59.156850976869464" lon="12.986519951373339">
        <ele>59.47</ele>
        <time>2025-02-03T04:31:53.741Z</time>
      </trkpt>
      <trkpt lat="59.15679791942239" lon="12.986407969146967">
        <ele>59.55</ele>
        <time>2025-02-03T04:32:02.089Z</time>
      </trkpt>
      <trkpt lat="59.156745951622725" lon="12.986293975263834">
        <ele>59.62</ele>
        <time>2025-02-03T04:32:10.438Z</time>
      </trkpt>
      <trkpt lat="59.15669498965144" lon="12.986175958067179">
        <ele>59.69</ele>
        <time>2025-02-03T04:32:18.789Z</time>
      </trkpt>
      <trkpt lat="59.15664394386113" lon="12.986058946698904">
        <ele>59.76</ele>
        <time>2025-02-03T04:32:27.141Z</time>
      </trkpt>
      <trkpt lat="59.156592981889844" lon="12.985939923673868">
        <ele>59.83</ele>
        <time>2025-02-03T04:32:35.494Z</time>
      </trkpt>
      <trkpt lat="59.15654193609953" lon="12.985820984467864">
        <ele>59.9</ele>
        <time>2025-02-03T04:32:43.848Z</time>
      </trkpt>
      <trkpt lat="59.156490974128246" lon="12.985699949786067">
        <ele>59.97</ele>
        <time>2025-02-03T04:32:52.204Z</time>
      </trkpt>
      <trkpt lat="59.15644193999469" lon="12.98557698726654">
        <ele>60.04</ele>
        <time>2025-02-03T04:33:00.561Z</time>
      </trkpt>
      <trkpt lat="59.15639399550855" lon="12.985452935099602">
        <ele>60.1</ele>
        <time>2025-02-03T04:33:08.919Z</time>
      </trkpt>
      <trkpt lat="59.15634898468852" lon="12.985328966751695">
        <ele>60.16</ele>
        <time>2025-02-03T04:33:17.278Z</time>
      </trkpt>
      <trkpt lat="59.15630598552525" lon="12.985207932069898">
        <ele>60.22</ele>
        <time>2025-02-03T04:33:25.639Z</time>
      </trkpt>
      <trkpt lat="59.15626592002809" lon="12.985091926530004">
        <ele>60.29</ele>
        <time>2025-02-03T04:33:34.001Z</time>
      </trkpt>
      <trkpt lat="59.15622593834996" lon="12.98497793264687">
        <ele>60.35</ele>
        <time>2025-02-03T04:33:42.364Z</time>
      </trkpt>
      <trkpt lat="59.15618394501507" lon="12.984864944592118">
        <ele>60.41</ele>
        <time>2025-02-03T04:33:50.728Z</time>
      </trkpt>
      <trkpt lat="59.15614195168018" lon="12.984750950708985">
        <ele>60.47</ele>
        <time>2025-02-03T04:33:59.093Z</time>
      </trkpt>
      <trkpt lat="59.156101970002055" lon="12.984634945169091">
        <ele>60.52</ele>
        <time>2025-02-03T04:34:07.459Z</time>
      </trkpt>
      <trkpt lat="59.15606399998069" lon="12.984515922144055">
        <ele>60.58</ele>
        <time>2025-02-03T04:34:15.827Z</time>
      </trkpt>
      <trkpt lat="59.15602393448353" lon="12.98439597710967">
        <ele>60.64</ele>
        <time>2025-02-03T04:34:24.196Z</time>
      </trkpt>
      <trkpt lat="59.15598596446216" lon="12.984275948256254">
        <ele>60.7</ele>
        <time>2025-02-03T04:34:32.566Z</time>
      </trkpt>
      <trkpt lat="59.15594891645014" lon="12.984152985736728">
        <ele>60.76</ele>
        <time>2025-02-03T04:34:40.937Z</time>
      </trkpt>
      <trkpt lat="59.155911952257156" lon="12.98403094522655">
        <ele>60.82</ele>
        <time>2025-02-03T04:34:49.309Z</time>
      </trkpt>
      <trkpt lat="59.15587699972093" lon="12.983908988535404">
        <ele>60.88</ele>
        <time>2025-02-03T04:34:57.682Z</time>
      </trkpt>
      <trkpt lat="59.155841963365674" lon="12.983783930540085">
        <ele>60.94</ele>
        <time>2025-02-03T04:35:06.057Z</time>
      </trkpt>
      <trkpt lat="59.15580692701042" lon="12.983656944707036">
        <ele>61.0</ele>
        <time>2025-02-03T04:35:14.433Z</time>
      </trkpt>
      <trkpt lat="59.15577298030257" lon="12.983529958873987">
        <ele>61.05</ele>
        <time>2025-02-03T04:35:22.810Z</time>
      </trkpt>
      <trkpt lat="59.155739955604076" lon="12.983402973040938">
        <ele>61.11</ele>
        <time>2025-02-03T04:35:31.188Z</time>
      </trkpt>
      <trkpt lat="59.1557059250772" lon="12.98327799886465">
        <ele>61.17</ele>
        <time>2025-02-03T04:35:39.567Z</time>
      </trkpt>
      <trkpt lat="59.155671978369355" lon="12.983152940869331">
        <ele>61.22</ele>
        <time>2025-02-03T04:35:47.947Z</time>
      </trkpt>
      <trkpt lat="59.15563895367086" lon="12.98302293755114">
        <ele>61.27</ele>
        <time>2025-02-03T04:35:56.329Z</time>
      </trkpt>
      <trkpt lat="59.155608946457505" lon="12.98289192840457">
        <ele>61.32</ele>
        <time>2025-02-03T04:36:04.712Z</time>
      </trkpt>
      <trkpt lat="59.15557893924415" lon="12.982756979763508">
        <ele>61.36</ele>
        <time>2025-02-03T04:36:13.096Z</time>
      </trkpt>
      <trkpt lat="59.1555489320308" lon="12.982619935646653">
        <ele>61.41</ele>
        <time>2025-02-03T04:36:21.481Z</time>
      </trkpt>
      <trkpt lat="59.15551993064582" lon="12.98248398117721">
        <ele>61.45</ele>
        <time>2025-02-03T04:36:29.867Z</time>
      </trkpt>
      <trkpt lat="59.15548992343247" lon="12.982345931231976">
        <ele>61.49</ele>
        <time>2025-02-03T04:36:38.255Z</time>
      </trkpt>
      <trkpt lat="59.155458994209766" lon="12.982207965105772">
        <ele>61.53</ele>
        <time>2025-02-03T04:36:46.644Z</time>
      </trkpt>
      <trkpt lat="59.15542898699641" lon="12.982068993151188">
        <ele>61.57</ele>
        <time>2025-02-03T04:36:55.034Z</time>
      </trkpt>
      <trkpt lat="59.15539897978306" lon="12.981928931549191">
        <ele>61.61</ele>
        <time>2025-02-03T04:37:03.425Z</time>
      </trkpt>
      <trkpt lat="59.155371990054846" lon="12.981790965422988">
        <ele>61.65</ele>
        <time>2025-02-03T04:37:11.818Z</time>
      </trkpt>
      <trkpt lat="59.15534298866987" lon="12.981654927134514">
        <ele>61.69</ele>
        <time>2025-02-03T04:37:20.212Z</time>
      </trkpt>
      <trkpt lat="59.15531298145652" lon="12.981518972665071">
        <ele>61.72</ele>
        <time>2025-02-03T04:37:28.607Z</time>
      </trkpt>
      <trkpt lat="59.155283980071545" lon="12.981381928548217">
        <ele>61.75</ele>
        <time>2025-02-03T04:37:37.003Z</time>
      </trkpt>
      <trkpt lat="59.15525497868657" lon="12.981244968250394">
        <ele>61.79</ele>
        <time>2025-02-03T04:37:45.400Z</time>
      </trkpt>
      <trkpt lat="59.15522497147322" lon="12.98110792413354">
        <ele>61.82</ele>
        <time>2025-02-03T04:37:53.799Z</time>
      </trkpt>
      <trkpt lat="59.15519597008824" lon="12.980969958007336">
        <ele>61.86</ele>
        <time>2025-02-03T04:38:02.199Z</time>
      </trkpt>
      <trkpt lat="59.15516596287489" lon="12.980830986052752">
        <ele>61.9</ele>
        <time>2025-02-03T04:38:10.600Z</time>
      </trkpt>
      <trkpt lat="59.155137967318296" lon="12.980692936107516">
        <ele>61.94</ele>
        <time>2025-02-03T04:38:19.002Z</time>
      </trkpt>
      <trkpt lat="59.15510796010494" lon="12.980555975809693">
        <ele>61.98</ele>
        <time>2025-02-03T04:38:27.406Z</time>
      </trkpt>
      <trkpt lat="59.15507694706321" lon="12.98041993752122">
        <ele>62.02</ele>
        <time>2025-02-03T04:38:35.811Z</time>
      </trkpt>
      <trkpt lat="59.15504693984985" lon="12.980282977223396">
        <ele>62.05</ele>
        <time>2025-02-03T04:38:44.217Z</time>
      </trkpt>
      <trkpt lat="59.1550169326365" lon="12.980145933106542">
        <ele>62.09</ele>
        <time>2025-02-03T04:38:52.624Z</time>
      </trkpt>
      <trkpt lat="59.154984997585416" lon="12.980006961151958">
        <ele>62.12</ele>
        <time>2025-02-03T04:39:01.033Z</time>
      </trkpt>
      <trkpt lat="59.15495096705854" lon="12.979868995025754">
        <ele>62.16</ele>
        <time>2025-02-03T04:39:09.443Z</time>
      </trkpt>
      <trkpt lat="59.1549149248749" lon="12.979730945080519">
        <ele>62.19</ele>
        <time>2025-02-03T04:39:17.854Z</time>
      </trkpt>
      <trkpt lat="59.15488097816706" lon="12.979593984782696">
        <ele>62.23</ele>
        <time>2025-02-03T04:39:26.266Z</time>
      </trkpt>
      <trkpt lat="59.1548509709537" lon="12.979457946494222">
        <ele>62.26</ele>
        <time>2025-02-03T04:39:34.680Z</time>
      </trkpt>
      <trkpt lat="59.15482498705387" lon="12.97932199202478">
        <ele>62.3</ele>
        <time>2025-02-03T04:39:43.095Z</time>
      </trkpt>
      <trkpt lat="59.15479891933501" lon="12.979180924594402">
        <ele>62.33</ele>
        <time>2025-02-03T04:39:51.511Z</time>
      </trkpt>
      <trkpt lat="59.15477394126356" lon="12.979030972346663">
        <ele>62.36</ele>
        <time>2025-02-03T04:39:59.928Z</time>
      </trkpt>
      <trkpt lat="59.1547439340502" lon="12.978877918794751">
        <ele>62.39</ele>
        <time>2025-02-03T04:40:08.347Z</time>
      </trkpt>
      <trkpt lat="59.15470898151398" lon="12.978726960718632">
        <ele>62.43</ele>
        <time>2025-02-03T04:40:16.767Z</time>
      </trkpt>
      <trkpt lat="59.15467394515872" lon="12.97857591882348">
        <ele>62.46</ele>
        <time>2025-02-03T04:40:25.188Z</time>
      </trkpt>
      <trkpt lat="59.154640920460224" lon="12.97842194326222">
        <ele>62.5</ele>
        <time>2025-02-03T04:40:33.611Z</time>
      </trkpt>
      <trkpt lat="59.15460697375238" lon="12.978267967700958">
        <ele>62.54</ele>
        <time>2025-02-03T04:40:42.035Z</time>
      </trkpt>
      <trkpt lat="59.15457193739712" lon="12.978115919977427">
        <ele>62.58</ele>
        <time>2025-02-03T04:40:50.461Z</time>
      </trkpt>
      <trkpt lat="59.1545369848609" lon="12.977966973558068">
        <ele>62.63</ele>
        <time>2025-02-03T04:40:58.888Z</time>
      </trkpt>
      <trkpt lat="59.1545039601624" lon="12.977822972461581">
        <ele>62.66</ele>
        <time>2025-02-03T04:41:07.316Z</time>
      </trkpt>
      <trkpt lat="59.15447294712067" lon="12.977680983021855">
        <ele>62.7</ele>
        <time>2025-02-03T04:41:15.745Z</time>
      </trkpt>
      <trkpt lat="59.15444394573569" lon="12.97753899358213">
        <ele>62.74</ele>
        <time>2025-02-03T04:41:24.176Z</time>
      </trkpt>
      <trkpt lat="59.15441695600748" lon="12.977396920323372">
        <ele>62.79</ele>
        <time>2025-02-03T04:41:32.608Z</time>
      </trkpt>
      <trkpt lat="59.15439097210765" lon="12.977256942540407">
        <ele>62.83</ele>
        <time>2025-02-03T04:41:41.041Z</time>
      </trkpt>
      <trkpt lat="59.1543659940362" lon="12.977119982242584">
        <ele>62.86</ele>
        <time>2025-02-03T04:41:49.475Z</time>
      </trkpt>
      <trkpt lat="59.154338920488954" lon="12.97698293812573">
        <ele>62.9</ele>
        <time>2025-02-03T04:41:57.911Z</time>
      </trkpt>
      <trkpt lat="59.15430991910398" lon="12.976847989484668">
        <ele>62.95</ele>
        <time>2025-02-03T04:42:06.348Z</time>
      </trkpt>
      <trkpt lat="59.15428192354739" lon="12.976712957024574">
        <ele>62.99</ele>
        <time>2025-02-03T04:42:14.786Z</time>
      </trkpt>
      <trkpt lat="59.154254933819175" lon="12.976575996726751">
        <ele>63.03</ele>
        <time>2025-02-03T04:42:23.225Z</time>
      </trkpt>
      <trkpt lat="59.15422693826258" lon="12.976437946781516">
        <ele>63.08</ele>
        <time>2025-02-03T04:42:31.665Z</time>
      </trkpt>
      <trkpt lat="59.15419592522085" lon="12.976299980655313">
        <ele>63.12</ele>
        <time>2025-02-03T04:42:40.107Z</time>
      </trkpt>
      <trkpt lat="59.154163990169764" lon="12.976159919053316">
        <ele>63.17</ele>
        <time>2025-02-03T04:42:48.550Z</time>
      </trkpt>
      <trkpt lat="59.15413398295641" lon="12.976020947098732">
        <ele>63.21</ele>
        <time>2025-02-03T04:42:56.994Z</time>
      </trkpt>
      <trkpt lat="59.154100958257914" lon="12.975883986800909">
        <ele>63.27</ele>
        <time>2025-02-03T04:43:05.439Z</time>
      </trkpt>
      <trkpt lat="59.15406499989331" lon="12.975745936855674">
        <ele>63.32</ele>
        <time>2025-02-03T04:43:13.886Z</time>
      </trkpt>
      <trkpt lat="59.15402996353805" lon="12.97560797072947">
        <ele>63.37</ele>
        <time>2025-02-03T04:43:22.334Z</time>
      </trkpt>
      <trkpt lat="59.153995933011174" lon="12.975469920784235">
        <ele>63.42</ele>
        <time>2025-02-03T04:43:30.783Z</time>
      </trkpt>
      <trkpt lat="59.15396198630333" lon="12.975334972143173">
        <ele>63.46</ele>
        <time>2025-02-03T04:43:39.233Z</time>
      </trkpt>
      <trkpt lat="59.15392594411969" lon="12.975202957168221">
        <ele>63.51</ele>
        <time>2025-02-03T04:43:47.685Z</time>
      </trkpt>
      <trkpt lat="59.153888979926705" lon="12.975073959678411">
        <ele>63.55</ele>
        <time>2025-02-03T04:43:56.138Z</time>
      </trkpt>
      <trkpt lat="59.15385092608631" lon="12.97494295053184">
        <ele>63.61</ele>
        <time>2025-02-03T04:44:04.592Z</time>
      </trkpt>
      <trkpt lat="59.15381396189332" lon="12.974809929728508">
        <ele>63.66</ele>
        <time>2025-02-03T04:44:13.047Z</time>
      </trkpt>
      <trkpt lat="59.15377599187195" lon="12.974676992744207">
        <ele>63.72</ele>
        <time>2025-02-03T04:44:21.504Z</time>
      </trkpt>
      <trkpt lat="59.153736932203174" lon="12.974544977769256">
        <ele>63.79</ele>
        <time>2025-02-03T04:44:29.962Z</time>
      </trkpt>
      <trkpt lat="59.153697956353426" lon="12.974414974451065">
        <ele>63.85</ele>
        <time>2025-02-03T04:44:38.421Z</time>
      </trkpt>
      <trkpt lat="59.15365898050368" lon="12.974286982789636">
        <ele>63.91</ele>
        <time>2025-02-03T04:44:46.881Z</time>
      </trkpt>
      <trkpt lat="59.15361899882555" lon="12.974158991128206">
        <ele>63.97</ele>
        <time>2025-02-03T04:44:55.343Z</time>
      </trkpt>
      <trkpt lat="59.15357893332839" lon="12.974029993638396">
        <ele>64.04</ele>
        <time>2025-02-03T04:45:03.806Z</time>
      </trkpt>
      <trkpt lat="59.15353794582188" lon="12.973900996148586">
        <ele>64.11</ele>
        <time>2025-02-03T04:45:12.270Z</time>
      </trkpt>
      <trkpt lat="59.15349796414375" lon="12.973770992830396">
        <ele>64.18</ele>
        <time>2025-02-03T04:45:20.735Z</time>
      </trkpt>
      <trkpt lat="59.153456976637244" lon="12.973642917349935">
        <ele>64.25</ele>
        <time>2025-02-03T04:45:29.202Z</time>
      </trkpt>
      <trkpt lat="59.153414983302355" lon="12.973513919860125">
        <ele>64.32</ele>
        <time>2025-02-03T04:45:37.670Z</time>
      </trkpt>
      <trkpt lat="59.153372989967465" lon="12.973385928198695">
        <ele>64.4</ele>
        <time>2025-02-03T04:45:46.139Z</time>
      </trkpt>
      <trkpt lat="59.153329990804195" lon="12.973257936537266">
        <ele>64.47</ele>
        <time>2025-02-03T04:45:54.609Z</time>
      </trkpt>
      <trkpt lat="59.153287997469306" lon="12.973128939047456">
        <ele>64.56</ele>
        <time>2025-02-03T04:46:03.081Z</time>
      </trkpt>
      <trkpt lat="59.153244998306036" lon="12.972997929900885">
        <ele>64.64</ele>
        <time>2025-02-03T04:46:11.554Z</time>
      </trkpt>
      <trkpt lat="59.153201999142766" lon="12.972866920754313">
        <ele>64.72</ele>
        <time>2025-02-03T04:46:20.028Z</time>
      </trkpt>
      <trkpt lat="59.153159921988845" lon="12.972733983770013">
        <ele>64.81</ele>
        <time>2025-02-03T04:46:28.503Z</time>
      </trkpt>
      <trkpt lat="59.153116922825575" lon="12.97260096296668">
        <ele>64.89</ele>
        <time>2025-02-03T04:46:36.980Z</time>
      </trkpt>
      <trkpt lat="59.153074929490685" lon="12.972467942163348">
        <ele>64.98</ele>
        <time>2025-02-03T04:46:45.458Z</time>
      </trkpt>
      <trkpt lat="59.153031930327415" lon="12.972334921360016">
        <ele>65.07</ele>
        <time>2025-02-03T04:46:53.937Z</time>
      </trkpt>
      <trkpt lat="59.152989936992526" lon="12.972203996032476">
        <ele>65.17</ele>
        <time>2025-02-03T04:47:02.418Z</time>
      </trkpt>
      <trkpt lat="59.15294794365764" lon="12.972075920552015">
        <ele>65.27</ele>
        <time>2025-02-03T04:47:10.900Z</time>
      </trkpt>
      <trkpt lat="59.15290796197951" lon="12.971950946375728">
        <ele>65.37</ele>
        <time>2025-02-03T04:47:19.383Z</time>
      </trkpt>
      <trkpt lat="59.15286798030138" lon="12.97182697802782">
        <ele>65.48</ele>
        <time>2025-02-03T04:47:27.867Z</time>
      </trkpt>
      <trkpt lat="59.1528289206326" lon="12.971701920032501">
        <ele>65.58</ele>
        <time>2025-02-03T04:47:36.352Z</time>
      </trkpt>
      <trkpt lat="59.152790950611234" lon="12.971577951684594">
        <ele>65.69</ele>
        <time>2025-02-03T04:47:44.839Z</time>
      </trkpt>
      <trkpt lat="59.15275298058987" lon="12.971453983336687">
        <ele>65.8</ele>
        <time>2025-02-03T04:47:53.327Z</time>
      </trkpt>
      <trkpt lat="59.15271492674947" lon="12.971328925341368">
        <ele>65.92</ele>
        <time>2025-02-03T04:48:01.816Z</time>
      </trkpt>
      <trkpt lat="59.1526769567281" lon="12.971201939508319">
        <ele>66.03</ele>
        <time>2025-02-03T04:48:10.306Z</time>
      </trkpt>
      <trkpt lat="59.152639992535114" lon="12.971069924533367">
        <ele>66.15</ele>
        <time>2025-02-03T04:48:18.798Z</time>
      </trkpt>
      <trkpt lat="59.152602944523096" lon="12.970935981720686">
        <ele>66.26</ele>
        <time>2025-02-03T04:48:27.291Z</time>
      </trkpt>
      <trkpt lat="59.15256698615849" lon="12.970799943432212">
        <ele>66.37</ele>
        <time>2025-02-03T04:48:35.785Z</time>
      </trkpt>
      <trkpt lat="59.15253194980323" lon="12.970662983134389">
        <ele>66.49</ele>
        <time>2025-02-03T04:48:44.280Z</time>
      </trkpt>
      <trkpt lat="59.15249791927636" lon="12.970524933189154">
        <ele>66.61</ele>
        <time>2025-02-03T04:48:52.777Z</time>
      </trkpt>
      <trkpt lat="59.15246497839689" lon="12.970383949577808">
        <ele>66.72</ele>
        <time>2025-02-03T04:49:01.275Z</time>
      </trkpt>
      <trkpt lat="59.15243396535516" lon="12.970242965966463">
        <ele>66.84</ele>
        <time>2025-02-03T04:49:09.774Z</time>
      </trkpt>
      <trkpt lat="59.152403958141804" lon="12.970099970698357">
        <ele>66.96</ele>
        <time>2025-02-03T04:49:18.274Z</time>
      </trkpt>
      <trkpt lat="59.15237596258521" lon="12.96995798125863">
        <ele>67.08</ele>
        <time>2025-02-03T04:49:26.776Z</time>
      </trkpt>
      <trkpt lat="59.15234696120024" lon="12.969813980162144">
        <ele>67.2</ele>
        <time>2025-02-03T04:49:35.279Z</time>
      </trkpt>
      <trkpt lat="59.152319971472025" lon="12.969667967408895">
        <ele>67.32</ele>
        <time>2025-02-03T04:49:43.783Z</time>
      </trkpt>
      <trkpt lat="59.15229197591543" lon="12.969519942998886">
        <ele>67.44</ele>
        <time>2025-02-03T04:49:52.288Z</time>
      </trkpt>
      <trkpt lat="59.15226699784398" lon="12.969369990751147">
        <ele>67.57</ele>
        <time>2025-02-03T04:50:00.795Z</time>
      </trkpt>
      <trkpt lat="59.1522419359535" lon="12.969217943027616">
        <ele>67.69</ele>
        <time>2025-02-03T04:50:09.303Z</time>
      </trkpt>
      <trkpt lat="59.15221695788205" lon="12.969064973294735">
        <ele>67.81</ele>
        <time>2025-02-03T04:50:17.812Z</time>
      </trkpt>
      <trkpt lat="59.15219499729574" lon="12.968909991905093">
        <ele>67.93</ele>
        <time>2025-02-03T04:50:26.323Z</time>
      </trkpt>
      <trkpt lat="59.152172952890396" lon="12.968749981373549">
        <ele>68.06</ele>
        <time>2025-02-03T04:50:34.835Z</time>
      </trkpt>
      <trkpt lat="59.152152920141816" lon="12.968586953356862">
        <ele>68.18</ele>
        <time>2025-02-03T04:50:43.348Z</time>
      </trkpt>
      <trkpt lat="59.15213297121227" lon="12.968420991674066">
        <ele>68.31</ele>
        <time>2025-02-03T04:50:51.863Z</time>
      </trkpt>
      <trkpt lat="59.1521089989692" lon="12.968251928687096">
        <ele>68.43</ele>
        <time>2025-02-03T04:51:00.379Z</time>
      </trkpt>
      <trkpt lat="59.152082931250334" lon="12.968080937862396">
        <ele>68.56</ele>
        <time>2025-02-03T04:51:08.897Z</time>
      </trkpt>
      <trkpt lat="59.15205795317888" lon="12.967908941209316">
        <ele>68.69</ele>
        <time>2025-02-03T04:51:17.416Z</time>
      </trkpt>
      <trkpt lat="59.15203498676419" lon="12.967733927071095">
        <ele>68.83</ele>
        <time>2025-02-03T04:51:25.937Z</time>
      </trkpt>
      <trkpt lat="59.15201394818723" lon="12.967556985095143">
        <ele>68.98</ele>
        <time>2025-02-03T04:51:34.459Z</time>
      </trkpt>
      <trkpt lat="59.15199098177254" lon="12.967374930158257">
        <ele>69.13</ele>
        <time>2025-02-03T04:51:42.983Z</time>
      </trkpt>
      <trkpt lat="59.15196793153882" lon="12.967192959040403">
        <ele>69.28</ele>
        <time>2025-02-03T04:51:51.508Z</time>
      </trkpt>
      <trkpt lat="59.15194194763899" lon="12.967006964609027">
        <ele>69.43</ele>
        <time>2025-02-03T04:52:00.035Z</time>
      </trkpt>
      <trkpt lat="59.15191696956754" lon="12.966817952692509">
        <ele>69.59</ele>
        <time>2025-02-03T04:52:08.564Z</time>
      </trkpt>
      <trkpt lat="59.151893919333816" lon="12.96662894077599">
        <ele>69.76</ele>
        <time>2025-02-03T04:52:17.094Z</time>
      </trkpt>
      <trkpt lat="59.151870952919126" lon="12.966439928859472">
        <ele>69.93</ele>
        <time>2025-02-03T04:52:25.626Z</time>
      </trkpt>
      <trkpt lat="59.151846980676055" lon="12.966251922771335">
        <ele>70.09</ele>
        <time>2025-02-03T04:52:34.159Z</time>
      </trkpt>
      <trkpt lat="59.15182099677622" lon="12.9660689458251">
        <ele>70.28</ele>
        <time>2025-02-03T04:52:42.694Z</time>
      </trkpt>
      <trkpt lat="59.15179694071412" lon="12.965887980535626">
        <ele>70.46</ele>
        <time>2025-02-03T04:52:51.230Z</time>
      </trkpt>
      <trkpt lat="59.15177397429943" lon="12.965707937255502">
        <ele>70.64</ele>
        <time>2025-02-03T04:52:59.768Z</time>
      </trkpt>
      <trkpt lat="59.15174991823733" lon="12.965526971966028">
        <ele>70.83</ele>
        <time>2025-02-03T04:53:08.308Z</time>
      </trkpt>
      <trkpt lat="59.15172695182264" lon="12.965348940342665">
        <ele>71.02</ele>
        <time>2025-02-03T04:53:16.849Z</time>
      </trkpt>
      <trkpt lat="59.15170398540795" lon="12.965170992538333">
        <ele>71.21</ele>
        <time>2025-02-03T04:53:25.392Z</time>
      </trkpt>
      <trkpt lat="59.15168093517423" lon="12.964998995885253">
        <ele>71.4</ele>
        <time>2025-02-03T04:53:33.936Z</time>
      </trkpt>
      <trkpt lat="59.15165897458792" lon="12.964832950383425">
        <ele>71.58</ele>
        <time>2025-02-03T04:53:42.481Z</time>
      </trkpt>
      <trkpt lat="59.15163994766772" lon="12.96467394568026">
        <ele>71.77</ele>
        <time>2025-02-03T04:53:51.028Z</time>
      </trkpt>
      <trkpt lat="59.15162293240428" lon="12.964523993432522">
        <ele>71.96</ele>
        <time>2025-02-03T04:53:59.576Z</time>
      </trkpt>
      <trkpt lat="59.15160499513149" lon="12.964379992336035">
        <ele>72.15</ele>
        <time>2025-02-03T04:54:08.125Z</time>
      </trkpt>
      <trkpt lat="59.15158496238291" lon="12.964239930734038">
        <ele>72.35</ele>
        <time>2025-02-03T04:54:16.675Z</time>
      </trkpt>
      <trkpt lat="59.15156492963433" lon="12.964103976264596">
        <ele>72.54</ele>
        <time>2025-02-03T04:54:25.227Z</time>
      </trkpt>
      <trkpt lat="59.151544980704784" lon="12.963967937976122">
        <ele>72.74</ele>
        <time>2025-02-03T04:54:33.780Z</time>
      </trkpt>
      <trkpt lat="59.151525953784585" lon="12.96383198350668">
        <ele>72.94</ele>
        <time>2025-02-03T04:54:42.334Z</time>
      </trkpt>
      <trkpt lat="59.151507932692766" lon="12.963694939389825">
        <ele>73.14</ele>
        <time>2025-02-03T04:54:50.889Z</time>
      </trkpt>
      <trkpt lat="59.15149091742933" lon="12.963560996577144">
        <ele>73.35</ele>
        <time>2025-02-03T04:54:59.445Z</time>
      </trkpt>
      <trkpt lat="59.15147096849978" lon="12.963429987430573">
        <ele>73.55</ele>
        <time>2025-02-03T04:55:08.002Z</time>
      </trkpt>
      <trkpt lat="59.15145194157958" lon="12.963299984112382">
        <ele>73.76</ele>
        <time>2025-02-03T04:55:16.560Z</time>
      </trkpt>
      <trkpt lat="59.15143299847841" lon="12.96316897496581">
        <ele>73.97</ele>
        <time>2025-02-03T04:55:25.120Z</time>
      </trkpt>
      <trkpt lat="59.15141397155821" lon="12.963036959990859">
        <ele>74.18</ele>
        <time>2025-02-03T04:55:33.681Z</time>
      </trkpt>
      <trkpt lat="59.15139393880963" lon="12.962906956672668">
        <ele>74.4</ele>
        <time>2025-02-03T04:55:42.243Z</time>
      </trkpt>
      <trkpt lat="59.151373989880085" lon="12.962776953354478">
        <ele>74.62</ele>
        <time>2025-02-03T04:55:50.806Z</time>
      </trkpt>
      <trkpt lat="59.151353957131505" lon="12.962645944207907">
        <ele>74.85</ele>
        <time>2025-02-03T04:55:59.370Z</time>
      </trkpt>
      <trkpt lat="59.151333924382925" lon="12.962513929232955">
        <ele>75.07</ele>
        <time>2025-02-03T04:56:07.935Z</time>
      </trkpt>
      <trkpt lat="59.15131397545338" lon="12.962382920086384">
        <ele>75.3</ele>
        <time>2025-02-03T04:56:16.501Z</time>
      </trkpt>
      <trkpt lat="59.1512939427048" lon="12.962252916768193">
        <ele>75.53</ele>
        <time>2025-02-03T04:56:25.068Z</time>
      </trkpt>
      <trkpt lat="59.15127198211849" lon="12.962124925106764">
        <ele>75.77</ele>
        <time>2025-02-03T04:56:33.637Z</time>
      </trkpt>
      <trkpt lat="59.151249937713146" lon="12.961997939273715">
        <ele>76.01</ele>
        <time>2025-02-03T04:56:42.207Z</time>
      </trkpt>
      <trkpt lat="59.151226971298456" lon="12.961873970925808">
        <ele>76.25</ele>
        <time>2025-02-03T04:56:50.778Z</time>
      </trkpt>
      <trkpt lat="59.151205932721496" lon="12.96174991875887">
        <ele>76.49</ele>
        <time>2025-02-03T04:56:59.350Z</time>
      </trkpt>
      <trkpt lat="59.151183972135186" lon="12.961627962067723">
        <ele>76.73</ele>
        <time>2025-02-03T04:57:07.923Z</time>
      </trkpt>
      <trkpt lat="59.151160921901464" lon="12.961504999548197">
        <ele>76.97</ele>
        <time>2025-02-03T04:57:16.497Z</time>
      </trkpt>
      <trkpt lat="59.151136949658394" lon="12.96138295903802">
        <ele>77.21</ele>
        <time>2025-02-03T04:57:25.072Z</time>
      </trkpt>
      <trkpt lat="59.15111197158694" lon="12.961260918527842">
        <ele>77.45</ele>
        <time>2025-02-03T04:57:33.648Z</time>
      </trkpt>
      <trkpt lat="59.15108799934387" lon="12.961137956008315">
        <ele>77.69</ele>
        <time>2025-02-03T04:57:42.225Z</time>
      </trkpt>
      <trkpt lat="59.15106494911015" lon="12.961014993488789">
        <ele>77.93</ele>
        <time>2025-02-03T04:57:50.803Z</time>
      </trkpt>
      <trkpt lat="59.1510399710387" lon="12.960893958806992">
        <ele>78.18</ele>
        <time>2025-02-03T04:57:59.382Z</time>
      </trkpt>
      <trkpt lat="59.15101398713887" lon="12.960774935781956">
        <ele>78.42</ele>
        <time>2025-02-03T04:58:07.962Z</time>
      </trkpt>
      <trkpt lat="59.150987919420004" lon="12.960657924413681">
        <ele>78.66</ele>
        <time>2025-02-03T04:58:16.544Z</time>
      </trkpt>
      <trkpt lat="59.15096193552017" lon="12.960540996864438">
        <ele>78.9</ele>
        <time>2025-02-03T04:58:25.127Z</time>
      </trkpt>
      <trkpt lat="59.15093393996358" lon="12.960425997152925">
        <ele>79.14</ele>
        <time>2025-02-03T04:58:33.711Z</time>
      </trkpt>
      <trkpt lat="59.150903932750225" lon="12.960310997441411">
        <ele>79.37</ele>
        <time>2025-02-03T04:58:42.296Z</time>
      </trkpt>
      <trkpt lat="59.15087493136525" lon="12.960192980244756">
        <ele>79.61</ele>
        <time>2025-02-03T04:58:50.882Z</time>
      </trkpt>
      <trkpt lat="59.1508449241519" lon="12.960070939734578">
        <ele>79.85</ele>
        <time>2025-02-03T04:58:59.469Z</time>
      </trkpt>
      <trkpt lat="59.150815922766924" lon="12.959946971386671">
        <ele>80.09</ele>
        <time>2025-02-03T04:59:08.057Z</time>
      </trkpt>
      <trkpt lat="59.1507859993726" lon="12.959821997210383">
        <ele>80.32</ele>
        <time>2025-02-03T04:59:16.646Z</time>
      </trkpt>
      <trkpt lat="59.150753980502486" lon="12.959694927558303">
        <ele>80.55</ele>
        <time>2025-02-03T04:59:25.236Z</time>
      </trkpt>
      <trkpt lat="59.15072196163237" lon="12.959565930068493">
        <ele>80.79</ele>
        <time>2025-02-03T04:59:33.827Z</time>
      </trkpt>
      <trkpt lat="59.150690948590636" lon="12.959435926750302">
        <ele>81.03</ele>
        <time>2025-02-03T04:59:42.420Z</time>
      </trkpt>
      <trkpt lat="59.15066094137728" lon="12.959307935088873">
        <ele>81.27</ele>
        <time>2025-02-03T04:59:51.014Z</time>
      </trkpt>
      <trkpt lat="59.15062992833555" lon="12.959183966740966">
        <ele>81.5</ele>
        <time>2025-02-03T04:59:59.609Z</time>
      </trkpt>
      <trkpt lat="59.15059992112219" lon="12.959060920402408">
        <ele>81.74</ele>
        <time>2025-02-03T05:00:08.205Z</time>
      </trkpt>
      <trkpt lat="59.15056899189949" lon="12.95893594622612">
        <ele>81.97</ele>
        <time>2025-02-03T05:00:16.802Z</time>
      </trkpt>
      <trkpt lat="59.150537978857756" lon="12.958810972049832">
        <ele>82.19</ele>
        <time>2025-02-03T05:00:25.400Z</time>
      </trkpt>
      <trkpt lat="59.15050595998764" lon="12.958685997873545">
        <ele>82.41</ele>
        <time>2025-02-03T05:00:34.000Z</time>
      </trkpt>
      <trkpt lat="59.150475952774286" lon="12.958558928221464">
        <ele>82.63</ele>
        <time>2025-02-03T05:00:42.601Z</time>
      </trkpt>
      <trkpt lat="59.15044493973255" lon="12.958429930731654">
        <ele>82.85</ele>
        <time>2025-02-03T05:00:51.203Z</time>
      </trkpt>
      <trkpt lat="59.15041392669082" lon="12.958300933241844">
        <ele>83.06</ele>
        <time>2025-02-03T05:00:59.806Z</time>
      </trkpt>
      <trkpt lat="59.15038199163973" lon="12.958168918266892">
        <ele>83.27</ele>
        <time>2025-02-03T05:01:08.410Z</time>
      </trkpt>
      <trkpt lat="59.15034896694124" lon="12.95803396962583">
        <ele>83.48</ele>
        <time>2025-02-03T05:01:17.015Z</time>
      </trkpt>
      <trkpt lat="59.15031594224274" lon="12.957898937165737">
        <ele>83.68</ele>
        <time>2025-02-03T05:01:25.622Z</time>
      </trkpt>
      <trkpt lat="59.150280989706516" lon="12.957761976867914">
        <ele>83.87</ele>
        <time>2025-02-03T05:01:34.230Z</time>
      </trkpt>
      <trkpt lat="59.15024595335126" lon="12.95762593857944">
        <ele>84.07</ele>
        <time>2025-02-03T05:01:42.839Z</time>
      </trkpt>
      <trkpt lat="59.150210916996" lon="12.957489984109998">
        <ele>84.26</ele>
        <time>2025-02-03T05:01:51.449Z</time>
      </trkpt>
      <trkpt lat="59.15017697028816" lon="12.957351934164762">
        <ele>84.45</ele>
        <time>2025-02-03T05:02:00.061Z</time>
      </trkpt>
      <trkpt lat="59.15014293976128" lon="12.957210950553417">
        <ele>84.63</ele>
        <time>2025-02-03T05:02:08.674Z</time>
      </trkpt>
      <trkpt lat="59.150108993053436" lon="12.957068961113691">
        <ele>84.82</ele>
        <time>2025-02-03T05:02:17.288Z</time>
      </trkpt>
      <trkpt lat="59.15007194504142" lon="12.956926971673965">
        <ele>84.99</ele>
        <time>2025-02-03T05:02:25.904Z</time>
      </trkpt>
      <trkpt lat="59.15003598667681" lon="12.956783976405859">
        <ele>85.16</ele>
        <time>2025-02-03T05:02:34.521Z</time>
      </trkpt>
      <trkpt lat="59.149998938664794" lon="12.956639975309372">
        <ele>85.32</ele>
        <time>2025-02-03T05:02:43.139Z</time>
      </trkpt>
      <trkpt lat="59.14996096864343" lon="12.956493962556124">
        <ele>85.48</ele>
        <time>2025-02-03T05:02:51.759Z</time>
      </trkpt>
      <trkpt lat="59.14992299862206" lon="12.956346943974495">
        <ele>85.65</ele>
        <time>2025-02-03T05:03:00.380Z</time>
      </trkpt>
      <trkpt lat="59.14988695643842" lon="12.956198919564486">
        <ele>85.8</ele>
        <time>2025-02-03T05:03:09.002Z</time>
      </trkpt>
      <trkpt lat="59.149850998073816" lon="12.956052990630269">
        <ele>85.95</ele>
        <time>2025-02-03T05:03:17.626Z</time>
      </trkpt>
      <trkpt lat="59.14981495589018" lon="12.955909995362163">
        <ele>86.09</ele>
        <time>2025-02-03T05:03:26.251Z</time>
      </trkpt>
      <trkpt lat="59.14978193119168" lon="12.955770939588547">
        <ele>86.24</ele>
        <time>2025-02-03T05:03:34.877Z</time>
      </trkpt>
      <trkpt lat="59.14975091814995" lon="12.955635990947485">
        <ele>86.38</ele>
        <time>2025-02-03T05:03:43.504Z</time>
      </trkpt>
      <trkpt lat="59.149720994755626" lon="12.955505987629294">
        <ele>86.52</ele>
        <time>2025-02-03T05:03:52.133Z</time>
      </trkpt>
      <trkpt lat="59.14969299919903" lon="12.955379923805594">
        <ele>86.65</ele>
        <time>2025-02-03T05:04:00.763Z</time>
      </trkpt>
      <trkpt lat="59.14966491982341" lon="12.95525897294283">
        <ele>86.77</ele>
        <time>2025-02-03T05:04:09.394Z</time>
      </trkpt>
      <trkpt lat="59.149637930095196" lon="12.955140955746174">
        <ele>86.89</ele>
        <time>2025-02-03T05:04:18.026Z</time>
      </trkpt>
      <trkpt lat="59.14961094036698" lon="12.95502595603466">
        <ele>87.01</ele>
        <time>2025-02-03T05:04:26.659Z</time>
      </trkpt>
      <trkpt lat="59.14958395063877" lon="12.954913973808289">
        <ele>87.12</ele>
        <time>2025-02-03T05:04:35.293Z</time>
      </trkpt>
      <trkpt lat="59.14955696091056" lon="12.954803919419646">
        <ele>87.23</ele>
        <time>2025-02-03T05:04:43.928Z</time>
      </trkpt>
      <trkpt lat="59.14953198283911" lon="12.954696966335177">
        <ele>87.33</ele>
        <time>2025-02-03T05:04:52.564Z</time>
      </trkpt>
      <trkpt lat="59.149505998939276" lon="12.954591941088438">
        <ele>87.42</ele>
        <time>2025-02-03T05:05:01.201Z</time>
      </trkpt>
      <trkpt lat="59.149482948705554" lon="12.954492950811982">
        <ele>87.5</ele>
        <time>2025-02-03T05:05:09.839Z</time>
      </trkpt>
      <trkpt lat="59.1494579706341" lon="12.954392954707146">
        <ele>87.58</ele>
        <time>2025-02-03T05:05:18.478Z</time>
      </trkpt>
      <trkpt lat="59.14943399839103" lon="12.954296981915832">
        <ele>87.65</ele>
        <time>2025-02-03T05:05:27.118Z</time>
      </trkpt>
      <trkpt lat="59.14941195398569" lon="12.954200925305486">
        <ele>87.71</ele>
        <time>2025-02-03T05:05:35.758Z</time>
      </trkpt>
      <trkpt lat="59.14938999339938" lon="12.95410092920065">
        <ele>87.77</ele>
        <time>2025-02-03T05:05:44.399Z</time>
      </trkpt>
      <trkpt lat="59.14936593733728" lon="12.953996993601322">
        <ele>87.82</ele>
        <time>2025-02-03T05:05:53.041Z</time>
      </trkpt>
      <trkpt lat="59.14933995343745" lon="12.953893980011344">
        <ele>87.86</ele>
        <time>2025-02-03T05:06:01.684Z</time>
      </trkpt>
      <trkpt lat="59.14931598119438" lon="12.953789960592985">
        <ele>87.9</ele>
        <time>2025-02-03T05:06:10.328Z</time>
      </trkpt>
      <trkpt lat="59.149289997294545" lon="12.953686947003007">
        <ele>87.93</ele>
        <time>2025-02-03T05:06:18.973Z</time>
      </trkpt>
      <trkpt lat="59.14926191791892" lon="12.953583933413029">
        <ele>87.94</ele>
        <time>2025-02-03T05:06:27.619Z</time>
      </trkpt>
      <trkpt lat="59.14923492819071" lon="12.953481925651431">
        <ele>87.96</ele>
        <time>2025-02-03T05:06:36.266Z</time>
      </trkpt>
      <trkpt lat="59.149204920977354" lon="12.953380923718214">
        <ele>87.97</ele>
        <time>2025-02-03T05:06:44.914Z</time>
      </trkpt>
      <trkpt lat="59.14917399175465" lon="12.953278999775648">
        <ele>87.97</ele>
        <time>2025-02-03T05:06:53.563Z</time>
      </trkpt>
      <trkpt lat="59.149142978712916" lon="12.95317598618567">
        <ele>87.97</ele>
        <time>2025-02-03T05:07:02.213Z</time>
      </trkpt>
      <trkpt lat="59.14910693652928" lon="12.953066937625408">
        <ele>87.95</ele>
        <time>2025-02-03T05:07:10.864Z</time>
      </trkpt>
      <trkpt lat="59.149072989821434" lon="12.9529619961977">
        <ele>87.94</ele>
        <time>2025-02-03T05:07:19.516Z</time>
      </trkpt>
      <trkpt lat="59.14903895929456" lon="12.952860994264483">
        <ele>87.91</ele>
        <time>2025-02-03T05:07:28.169Z</time>
      </trkpt>
      <trkpt lat="59.14900593459606" lon="12.952762925997376">
        <ele>87.88</ele>
        <time>2025-02-03T05:07:36.823Z</time>
      </trkpt>
      <trkpt lat="59.148970982059836" lon="12.952664941549301">
        <ele>87.84</ele>
        <time>2025-02-03T05:07:45.478Z</time>
      </trkpt>
      <trkpt lat="59.14893594570458" lon="12.952566957101226">
        <ele>87.79</ele>
        <time>2025-02-03T05:07:54.134Z</time>
      </trkpt>
      <trkpt lat="59.14889998733997" lon="12.952469978481531">
        <ele>87.74</ele>
        <time>2025-02-03T05:08:02.791Z</time>
      </trkpt>
      <trkpt lat="59.148862939327955" lon="12.952372999861836">
        <ele>87.67</ele>
        <time>2025-02-03T05:08:11.449Z</time>
      </trkpt>
      <trkpt lat="59.14882597513497" lon="12.95227593742311">
        <ele>87.6</ele>
        <time>2025-02-03T05:08:20.108Z</time>
      </trkpt>
      <trkpt lat="59.14878792129457" lon="12.952178958803415">
        <ele>87.53</ele>
        <time>2025-02-03T05:08:28.768Z</time>
      </trkpt>
      <trkpt lat="59.14874592795968" lon="12.952078962698579">
        <ele>87.44</ele>
        <time>2025-02-03T05:08:37.429Z</time>
      </trkpt>
      <trkpt lat="59.14870292879641" lon="12.951978966593742">
        <ele>87.35</ele>
        <time>2025-02-03T05:08:46.091Z</time>
      </trkpt>
      <trkpt lat="59.14865992963314" lon="12.951874947175384">
        <ele>87.25</ele>
        <time>2025-02-03T05:08:54.754Z</time>
      </trkpt>
      <trkpt lat="59.14861491881311" lon="12.951768999919295">
        <ele>87.14</ele>
        <time>2025-02-03T05:09:03.418Z</time>
      </trkpt>
      <trkpt lat="59.14856798015535" lon="12.951662968844175">
        <ele>87.02</ele>
        <time>2025-02-03T05:09:12.083Z</time>
      </trkpt>
      <trkpt lat="59.148519951850176" lon="12.951556937769055">
        <ele>86.9</ele>
        <time>2025-02-03T05:09:20.750Z</time>
      </trkpt>
      <trkpt lat="59.148471923545" lon="12.951453924179077">
        <ele>86.76</ele>
        <time>2025-02-03T05:09:29.418Z</time>
      </trkpt>
      <trkpt lat="59.14842297323048" lon="12.95135191641748">
        <ele>86.62</ele>
        <time>2025-02-03T05:09:38.087Z</time>
      </trkpt>
      <trkpt lat="59.14837192744017" lon="12.951251920312643">
        <ele>86.48</ele>
        <time>2025-02-03T05:09:46.757Z</time>
      </trkpt>
      <trkpt lat="59.14832096546888" lon="12.951149996370077">
        <ele>86.32</ele>
        <time>2025-02-03T05:09:55.428Z</time>
      </trkpt>
      <trkpt lat="59.14826991967857" lon="12.95104798860848">
        <ele>86.16</ele>
        <time>2025-02-03T05:10:04.100Z</time>
      </trkpt>
      <trkpt lat="59.14821493439376" lon="12.950946986675262">
        <ele>85.99</ele>
        <time>2025-02-03T05:10:12.774Z</time>
      </trkpt>
      <trkpt lat="59.148155925795436" lon="12.950842967256904">
        <ele>85.81</ele>
        <time>2025-02-03T05:10:21.449Z</time>
      </trkpt>
      <trkpt lat="59.14809498935938" lon="12.950736936181784">
        <ele>85.63</ele>
        <time>2025-02-03T05:10:30.125Z</time>
      </trkpt>
      <trkpt lat="59.14803195744753" lon="12.950630988925695">
        <ele>85.44</ele>
        <time>2025-02-03T05:10:38.803Z</time>
      </trkpt>
      <trkpt lat="59.14796599186957" lon="12.950524957850575">
        <ele>85.24</ele>
        <time>2025-02-03T05:10:47.482Z</time>
      </trkpt>
      <trkpt lat="59.1478989366442" lon="12.950419932603836">
        <ele>85.04</ele>
        <time>2025-02-03T05:10:56.162Z</time>
      </trkpt>
      <trkpt lat="59.147828947752714" lon="12.950312979519367">
        <ele>84.82</ele>
        <time>2025-02-03T05:11:04.844Z</time>
      </trkpt>
      <trkpt lat="59.14775694720447" lon="12.950204936787486">
        <ele>84.6</ele>
        <time>2025-02-03T05:11:13.527Z</time>
      </trkpt>
      <trkpt lat="59.147682934999466" lon="12.950094966217875">
        <ele>84.38</ele>
        <time>2025-02-03T05:11:22.212Z</time>
      </trkpt>
      <trkpt lat="59.14760699495673" lon="12.949983989819884">
        <ele>84.14</ele>
        <time>2025-02-03T05:11:30.898Z</time>
      </trkpt>
      <trkpt lat="59.147527953609824" lon="12.949872929602861">
        <ele>83.9</ele>
        <time>2025-02-03T05:11:39.586Z</time>
      </trkpt>
      <trkpt lat="59.14744899608195" lon="12.949757929891348">
        <ele>83.65</ele>
        <time>2025-02-03T05:11:48.275Z</time>
      </trkpt>
      <trkpt lat="59.14737096056342" lon="12.949643936008215">
        <ele>83.39</ele>
        <time>2025-02-03T05:11:56.966Z</time>
      </trkpt>
      <trkpt lat="59.147292925044894" lon="12.949534971266985">
        <ele>83.12</ele>
        <time>2025-02-03T05:12:05.658Z</time>
      </trkpt>
      <trkpt lat="59.14721597917378" lon="12.949427934363484">
        <ele>82.86</ele>
        <time>2025-02-03T05:12:14.352Z</time>
      </trkpt>
      <trkpt lat="59.14713794365525" lon="12.949320981279016">
        <ele>82.58</ele>
        <time>2025-02-03T05:12:23.048Z</time>
      </trkpt>
      <trkpt lat="59.14705898612738" lon="12.949215956032276">
        <ele>82.3</ele>
        <time>2025-02-03T05:12:31.745Z</time>
      </trkpt>
      <trkpt lat="59.14697793312371" lon="12.949109924957156">
        <ele>82.01</ele>
        <time>2025-02-03T05:12:40.444Z</time>
      </trkpt>
      <trkpt lat="59.14689495228231" lon="12.949001966044307">
        <ele>81.72</ele>
        <time>2025-02-03T05:12:49.144Z</time>
      </trkpt>
      <trkpt lat="59.14681297726929" lon="12.948889983817935">
        <ele>81.41</ele>
        <time>2025-02-03T05:12:57.846Z</time>
      </trkpt>
      <trkpt lat="59.146729996427894" lon="12.94877297244966">
        <ele>81.1</ele>
        <time>2025-02-03T05:13:06.549Z</time>
      </trkpt>
      <trkpt lat="59.146646931767464" lon="12.948653949424624">
        <ele>80.77</ele>
        <time>2025-02-03T05:13:15.254Z</time>
      </trkpt>
      <trkpt lat="59.146563950926065" lon="12.948538949713111">
        <ele>80.44</ele>
        <time>2025-02-03T05:13:23.961Z</time>
      </trkpt>
      <trkpt lat="59.14648197591305" lon="12.94842696748674">
        <ele>80.11</ele>
        <time>2025-02-03T05:13:32.669Z</time>
      </trkpt>
      <trkpt lat="59.14640092290938" lon="12.948317918926477">
        <ele>79.76</ele>
        <time>2025-02-03T05:13:41.379Z</time>
      </trkpt>
      <trkpt lat="59.14631894789636" lon="12.948207948356867">
        <ele>79.42</ele>
        <time>2025-02-03T05:13:50.091Z</time>
      </trkpt>
      <trkpt lat="59.14623596705496" lon="12.948096971958876">
        <ele>79.07</ele>
        <time>2025-02-03T05:13:58.804Z</time>
      </trkpt>
      <trkpt lat="59.146152986213565" lon="12.947985995560884">
        <ele>78.72</ele>
        <time>2025-02-03T05:14:07.519Z</time>
      </trkpt>
      <trkpt lat="59.146068999543786" lon="12.94787191785872">
        <ele>78.37</ele>
        <time>2025-02-03T05:14:16.235Z</time>
      </trkpt>
      <trkpt lat="59.145984929054976" lon="12.947755996137857">
        <ele>78.02</ele>
        <time>2025-02-03T05:14:24.953Z</time>
      </trkpt>
      <trkpt lat="59.145897924900055" lon="12.947637978941202">
        <ele>77.66</ele>
        <time>2025-02-03T05:14:33.673Z</time>
      </trkpt>
      <trkpt lat="59.145808992907405" lon="12.947518955916166">
        <ele>77.29</ele>
        <time>2025-02-03T05:14:42.394Z</time>
      </trkpt>
      <trkpt lat="59.14571897126734" lon="12.94739699922502">
        <ele>76.91</ele>
        <time>2025-02-03T05:14:51.117Z</time>
      </trkpt>
      <trkpt lat="59.14562693797052" lon="12.947271941229701">
        <ele>76.53</ele>
        <time>2025-02-03T05:14:59.842Z</time>
      </trkpt>
      <trkpt lat="59.14553599432111" lon="12.947143949568272">
        <ele>76.14</ele>
        <time>2025-02-03T05:15:08.569Z</time>
      </trkpt>
      <trkpt lat="59.145442955195904" lon="12.947013946250081">
        <ele>75.75</ele>
        <time>2025-02-03T05:15:17.298Z</time>
      </trkpt>
      <trkpt lat="59.14534798823297" lon="12.94688293710351">
        <ele>75.36</ele>
        <time>2025-02-03T05:15:26.029Z</time>
      </trkpt>
      <trkpt lat="59.14524991996586" lon="12.946746982634068">
        <ele>74.96</ele>
        <time>2025-02-03T05:15:34.761Z</time>
      </trkpt>
      <trkpt lat="59.145148918032646" lon="12.946605999022722">
        <ele>74.56</ele>
        <time>2025-02-03T05:15:43.495Z</time>
      </trkpt>
      <trkpt lat="59.14504799991846" lon="12.946462919935584">
        <ele>74.16</ele>
        <time>2025-02-03T05:15:52.231Z</time>
      </trkpt>
      <trkpt lat="59.14494498632848" lon="12.946317996829748">
        <ele>73.75</ele>
        <time>2025-02-03T05:16:00.970Z</time>
      </trkpt>
      <trkpt lat="59.144841972738504" lon="12.94617298990488">
        <ele>73.35</ele>
        <time>2025-02-03T05:16:09.711Z</time>
      </trkpt>
      <trkpt lat="59.144738959148526" lon="12.946026977151632">
        <ele>72.96</ele>
        <time>2025-02-03T05:16:18.454Z</time>
      </trkpt>
      <trkpt lat="59.14463493973017" lon="12.945883981883526">
        <ele>72.57</ele>
        <time>2025-02-03T05:16:27.199Z</time>
      </trkpt>
      <trkpt lat="59.14453293196857" lon="12.9457419924438">
        <ele>72.17</ele>
        <time>2025-02-03T05:16:35.946Z</time>
      </trkpt>
      <trkpt lat="59.14443092420697" lon="12.945599919185042">
        <ele>71.78</ele>
        <time>2025-02-03T05:16:44.695Z</time>
      </trkpt>
      <trkpt lat="59.144330928102136" lon="12.945459941402078">
        <ele>71.39</ele>
        <time>2025-02-03T05:16:53.446Z</time>
      </trkpt>
      <trkpt lat="59.14422992616892" lon="12.945322981104255">
        <ele>70.99</ele>
        <time>2025-02-03T05:17:02.199Z</time>
      </trkpt>
      <trkpt lat="59.14412993006408" lon="12.9451859369874">
        <ele>70.58</ele>
        <time>2025-02-03T05:17:10.954Z</time>
      </trkpt>
      <trkpt lat="59.144028928130865" lon="12.945052916184068">
        <ele>70.18</ele>
        <time>2025-02-03T05:17:19.711Z</time>
      </trkpt>
      <trkpt lat="59.14393094368279" lon="12.944920985028148">
        <ele>69.78</ele>
        <time>2025-02-03T05:17:28.469Z</time>
      </trkpt>
      <trkpt lat="59.143833965063095" lon="12.944787964224815">
        <ele>69.39</ele>
        <time>2025-02-03T05:17:37.229Z</time>
      </trkpt>
      <trkpt lat="59.14373992010951" lon="12.944658966735005">
        <ele>68.99</ele>
        <time>2025-02-03T05:17:45.991Z</time>
      </trkpt>
      <trkpt lat="59.14364595897496" lon="12.944528963416815">
        <ele>68.59</ele>
        <time>2025-02-03T05:17:54.755Z</time>
      </trkpt>
      <trkpt lat="59.14355291984975" lon="12.944397954270244">
        <ele>68.19</ele>
        <time>2025-02-03T05:18:03.521Z</time>
      </trkpt>
      <trkpt lat="59.14346197620034" lon="12.944266945123672">
        <ele>67.79</ele>
        <time>2025-02-03T05:18:12.289Z</time>
      </trkpt>
      <trkpt lat="59.14336994290352" lon="12.944137947633862">
        <ele>67.39</ele>
        <time>2025-02-03T05:18:21.059Z</time>
      </trkpt>
      <trkpt lat="59.143276987597346" lon="12.944013979285955">
        <ele>66.99</ele>
        <time>2025-02-03T05:18:29.830Z</time>
      </trkpt>
      <trkpt lat="59.14318394847214" lon="12.943886993452907">
        <ele>66.59</ele>
        <time>2025-02-03T05:18:38.603Z</time>
      </trkpt>
      <trkpt lat="59.14308998733759" lon="12.943758917972445">
        <ele>66.2</ele>
        <time>2025-02-03T05:18:47.378Z</time>
      </trkpt>
      <trkpt lat="59.142994936555624" lon="12.943626986816525">
        <ele>65.8</ele>
        <time>2025-02-03T05:18:56.155Z</time>
      </trkpt>
      <trkpt lat="59.14290097542107" lon="12.943493966013193">
        <ele>65.4</ele>
        <time>2025-02-03T05:19:04.934Z</time>
      </trkpt>
      <trkpt lat="59.14280793629587" lon="12.943364968523383">
        <ele>65.0</ele>
        <time>2025-02-03T05:19:13.715Z</time>
      </trkpt>
      <trkpt lat="59.14271296933293" lon="12.943234965205193">
        <ele>64.61</ele>
        <time>2025-02-03T05:19:22.497Z</time>
      </trkpt>
      <trkpt lat="59.14261791855097" lon="12.94310194440186">
        <ele>64.22</ele>
        <time>2025-02-03T05:19:31.281Z</time>
      </trkpt>
      <trkpt lat="59.142523957416415" lon="12.942968923598528">
        <ele>63.84</ele>
        <time>2025-02-03T05:19:40.067Z</time>
      </trkpt>
      <trkpt lat="59.14243091829121" lon="12.942835986614227">
        <ele>63.46</ele>
        <time>2025-02-03T05:19:48.855Z</time>
      </trkpt>
      <trkpt lat="59.14233695715666" lon="12.942703971639276">
        <ele>63.08</ele>
        <time>2025-02-03T05:19:57.645Z</time>
      </trkpt>
      <trkpt lat="59.142244923859835" lon="12.942570950835943">
        <ele>62.71</ele>
        <time>2025-02-03T05:20:06.437Z</time>
      </trkpt>
      <trkpt lat="59.14215196855366" lon="12.94243399053812">
        <ele>62.35</ele>
        <time>2025-02-03T05:20:15.231Z</time>
      </trkpt>
      <trkpt lat="59.14205993525684" lon="12.942296946421266">
        <ele>61.98</ele>
        <time>2025-02-03T05:20:24.026Z</time>
      </trkpt>
      <trkpt lat="59.141966979950666" lon="12.942159986123443">
        <ele>61.62</ele>
        <time>2025-02-03T05:20:32.823Z</time>
      </trkpt>
      <trkpt lat="59.14187494665384" lon="12.94202495366335">
        <ele>61.27</ele>
        <time>2025-02-03T05:20:41.622Z</time>
      </trkpt>
      <trkpt lat="59.14178199134767" lon="12.941890927031636">
        <ele>60.9</ele>
        <time>2025-02-03T05:20:50.423Z</time>
      </trkpt>
      <trkpt lat="59.14168895222247" lon="12.941757990047336">
        <ele>60.54</ele>
        <time>2025-02-03T05:20:59.226Z</time>
      </trkpt>
      <trkpt lat="59.14159792475402" lon="12.941623963415623">
        <ele>60.19</ele>
        <time>2025-02-03T05:21:08.031Z</time>
      </trkpt>
      <trkpt lat="59.14150798693299" lon="12.941487925127149">
        <ele>59.84</ele>
        <time>2025-02-03T05:21:16.838Z</time>
      </trkpt>
      <trkpt lat="59.14141897112131" lon="12.941346941515803">
        <ele>59.5</ele>
        <time>2025-02-03T05:21:25.646Z</time>
      </trkpt>
      <trkpt lat="59.14133096113801" lon="12.941201934590936">
        <ele>59.16</ele>
        <time>2025-02-03T05:21:34.456Z</time>
      </trkpt>
      <trkpt lat="59.14124596863985" lon="12.941055921837687">
        <ele>58.82</ele>
        <time>2025-02-03T05:21:43.268Z</time>
      </trkpt>
      <trkpt lat="59.14116198197007" lon="12.94090697541833">
        <ele>58.5</ele>
        <time>2025-02-03T05:21:52.082Z</time>
      </trkpt>
      <trkpt lat="59.14107891730964" lon="12.94075794517994">
        <ele>58.18</ele>
        <time>2025-02-03T05:22:00.898Z</time>
      </trkpt>
      <trkpt lat="59.140996942296624" lon="12.94060698710382">
        <ele>57.86</ele>
        <time>2025-02-03T05:22:09.715Z</time>
      </trkpt>
      <trkpt lat="59.140913961455226" lon="12.940454939380288">
        <ele>57.54</ele>
        <time>2025-02-03T05:22:18.534Z</time>
      </trkpt>
      <trkpt lat="59.14083198644221" lon="12.940299957990646">
        <ele>57.24</ele>
        <time>2025-02-03T05:22:27.355Z</time>
      </trkpt>
      <trkpt lat="59.14075093343854" lon="12.940142964944243">
        <ele>56.93</ele>
        <time>2025-02-03T05:22:36.178Z</time>
      </trkpt>
      <trkpt lat="59.140671975910664" lon="12.93998496606946">
        <ele>56.63</ele>
        <time>2025-02-03T05:22:45.003Z</time>
      </trkpt>
      <trkpt lat="59.14059394039214" lon="12.939825961366296">
        <ele>56.33</ele>
        <time>2025-02-03T05:22:53.830Z</time>
      </trkpt>
      <trkpt lat="59.14051699452102" lon="12.939666956663132">
        <ele>56.04</ele>
        <time>2025-02-03T05:23:02.658Z</time>
      </trkpt>
      <trkpt lat="59.140440970659256" lon="12.939508957788348">
        <ele>55.76</ele>
        <time>2025-02-03T05:23:11.488Z</time>
      </trkpt>
      <trkpt lat="59.14036695845425" lon="12.939348947256804">
        <ele>55.5</ele>
        <time>2025-02-03T05:23:20.320Z</time>
      </trkpt>
      <trkpt lat="59.14029294624925" lon="12.939187930896878">
        <ele>55.23</ele>
        <time>2025-02-03T05:23:29.154Z</time>
      </trkpt>
      <trkpt lat="59.140221951529384" lon="12.939025992527604">
        <ele>54.97</ele>
        <time>2025-02-03T05:23:37.990Z</time>
      </trkpt>
      <trkpt lat="59.14014995098114" lon="12.938864976167679">
        <ele>54.72</ele>
        <time>2025-02-03T05:23:46.827Z</time>
      </trkpt>
      <trkpt lat="59.14007996208966" lon="12.938703959807754">
        <ele>54.47</ele>
        <time>2025-02-03T05:23:55.666Z</time>
      </trkpt>
      <trkpt lat="59.14001198485494" lon="12.938542943447828">
        <ele>54.22</ele>
        <time>2025-02-03T05:24:04.507Z</time>
      </trkpt>
      <trkpt lat="59.139945935457945" lon="12.938381927087903">
        <ele>53.98</ele>
        <time>2025-02-03T05:24:13.349Z</time>
      </trkpt>
      <trkpt lat="59.139881981536746" lon="12.938221916556358">
        <ele>53.74</ele>
        <time>2025-02-03T05:24:22.193Z</time>
      </trkpt>
      <trkpt lat="59.139818949624896" lon="12.938062995672226">
        <ele>53.5</ele>
        <time>2025-02-03T05:24:31.039Z</time>
      </trkpt>
      <trkpt lat="59.13975692354143" lon="12.937904996797442">
        <ele>53.27</ele>
        <time>2025-02-03T05:24:39.886Z</time>
      </trkpt>
      <trkpt lat="59.13969799876213" lon="12.937746997922659">
        <ele>53.04</ele>
        <time>2025-02-03T05:24:48.735Z</time>
      </trkpt>
      <trkpt lat="59.139639995992184" lon="12.937589921057224">
        <ele>52.82</ele>
        <time>2025-02-03T05:24:57.586Z</time>
      </trkpt>
      <trkpt lat="59.13958299905062" lon="12.937433933839202">
        <ele>52.61</ele>
        <time>2025-02-03T05:25:06.438Z</time>
      </trkpt>
      <trkpt lat="59.13952792994678" lon="12.93727995827794">
        <ele>52.4</ele>
        <time>2025-02-03T05:25:15.292Z</time>
      </trkpt>
      <trkpt lat="59.139473950490355" lon="12.93712799437344">
        <ele>52.19</ele>
        <time>2025-02-03T05:25:24.147Z</time>
      </trkpt>
      <trkpt lat="59.13942097686231" lon="12.936975946649909">
        <ele>51.99</ele>
        <time>2025-02-03T05:25:33.004Z</time>
      </trkpt>
      <trkpt lat="59.139367919415236" lon="12.936822976917028">
        <ele>51.8</ele>
        <time>2025-02-03T05:25:41.862Z</time>
      </trkpt>
      <trkpt lat="59.13931695744395" lon="12.936667995527387">
        <ele>51.6</ele>
        <time>2025-02-03T05:25:50.722Z</time>
      </trkpt>
      <trkpt lat="59.13926599547267" lon="12.936512930318713">
        <ele>51.41</ele>
        <time>2025-02-03T05:25:59.583Z</time>
      </trkpt>
      <trkpt lat="59.139213943853974" lon="12.93635493144393">
        <ele>51.22</ele>
        <time>2025-02-03T05:26:08.446Z</time>
      </trkpt>
      <trkpt lat="59.13916499353945" lon="12.936195926740766">
        <ele>51.04</ele>
        <time>2025-02-03T05:26:17.310Z</time>
      </trkpt>
      <trkpt lat="59.13911797106266" lon="12.93603591620922">
        <ele>50.87</ele>
        <time>2025-02-03T05:26:26.176Z</time>
      </trkpt>
      <trkpt lat="59.13907195441425" lon="12.935878923162818">
        <ele>50.7</ele>
        <time>2025-02-03T05:26:35.043Z</time>
      </trkpt>
      <trkpt lat="59.13902593776584" lon="12.935721930116415">
        <ele>50.54</ele>
        <time>2025-02-03T05:26:43.912Z</time>
      </trkpt>
      <trkpt lat="59.138980926945806" lon="12.935564937070012">
        <ele>50.39</ele>
        <time>2025-02-03T05:26:52.782Z</time>
      </trkpt>
      <trkpt lat="59.138935999944806" lon="12.935406938195229">
        <ele>50.24</ele>
        <time>2025-02-03T05:27:01.654Z</time>
      </trkpt>
      <trkpt lat="59.138890989124775" lon="12.935246927663684">
        <ele>50.1</ele>
        <time>2025-02-03T05:27:10.527Z</time>
      </trkpt>
      <trkpt lat="59.138847989961505" lon="12.93508792296052">
        <ele>49.97</ele>
        <time>2025-02-03T05:27:19.402Z</time>
      </trkpt>
      <trkpt lat="59.138804990798235" lon="12.934930929914117">
        <ele>49.83</ele>
        <time>2025-02-03T05:27:28.278Z</time>
      </trkpt>
      <trkpt lat="59.138761991634965" lon="12.934773936867714">
        <ele>49.7</ele>
        <time>2025-02-03T05:27:37.156Z</time>
      </trkpt>
      <trkpt lat="59.138720920309424" lon="12.934616943821311">
        <ele>49.58</ele>
        <time>2025-02-03T05:27:46.035Z</time>
      </trkpt>
      <trkpt lat="59.13868194445968" lon="12.934458944946527">
        <ele>49.46</ele>
        <time>2025-02-03T05:27:54.916Z</time>
      </trkpt>
      <trkpt lat="59.13864498026669" lon="12.934294994920492">
        <ele>49.34</ele>
        <time>2025-02-03T05:28:03.798Z</time>
      </trkpt>
      <trkpt lat="59.13860994391143" lon="12.934128949418664">
        <ele>49.23</ele>
        <time>2025-02-03T05:28:12.682Z</time>
      </trkpt>
      <trkpt lat="59.13857297971845" lon="12.933963993564248">
        <ele>49.12</ele>
        <time>2025-02-03T05:28:21.567Z</time>
      </trkpt>
      <trkpt lat="59.13853593170643" lon="12.933799959719181">
        <ele>49.02</ele>
        <time>2025-02-03T05:28:30.454Z</time>
      </trkpt>
      <trkpt lat="59.13849997334182" lon="12.933636931702495">
        <ele>48.93</ele>
        <time>2025-02-03T05:28:39.342Z</time>
      </trkpt>
      <trkpt lat="59.138465942814946" lon="12.93347692117095">
        <ele>48.85</ele>
        <time>2025-02-03T05:28:48.231Z</time>
      </trkpt>
      <trkpt lat="59.1384319961071" lon="12.933317916467786">
        <ele>48.77</ele>
        <time>2025-02-03T05:28:57.122Z</time>
      </trkpt>
      <trkpt lat="59.138397965580225" lon="12.933162935078144">
        <ele>48.69</ele>
        <time>2025-02-03T05:29:06.014Z</time>
      </trkpt>
      <trkpt lat="59.13836393505335" lon="12.933008959516883">
        <ele>48.62</ele>
        <time>2025-02-03T05:29:14.908Z</time>
      </trkpt>
      <trkpt lat="59.138330994173884" lon="12.932853978127241">
        <ele>48.54</ele>
        <time>2025-02-03T05:29:23.803Z</time>
      </trkpt>
      <trkpt lat="59.13829998113215" lon="12.9326989967376">
        <ele>48.47</ele>
        <time>2025-02-03T05:29:32.699Z</time>
      </trkpt>
      <trkpt lat="59.138269973918796" lon="12.932545943185687">
        <ele>48.41</ele>
        <time>2025-02-03T05:29:41.597Z</time>
      </trkpt>
      <trkpt lat="59.13823795504868" lon="12.932392973452806">
        <ele>48.34</ele>
        <time>2025-02-03T05:29:50.496Z</time>
      </trkpt>
      <trkpt lat="59.138207947835326" lon="12.932239919900894">
        <ele>48.28</ele>
        <time>2025-02-03T05:29:59.396Z</time>
      </trkpt>
      <trkpt lat="59.13817794062197" lon="12.932085944339633">
        <ele>48.21</ele>
        <time>2025-02-03T05:30:08.298Z</time>
      </trkpt>
      <trkpt lat="59.13814692758024" lon="12.931930962949991">
        <ele>48.15</ele>
        <time>2025-02-03T05:30:17.201Z</time>
      </trkpt>
      <trkpt lat="59.13811398670077" lon="12.93177598156035">
        <ele>48.1</ele>
        <time>2025-02-03T05:30:26.106Z</time>
      </trkpt>
      <trkpt lat="59.1380799561739" lon="12.931619994342327">
        <ele>48.05</ele>
        <time>2025-02-03T05:30:35.012Z</time>
      </trkpt>
      <trkpt lat="59.13804793730378" lon="12.931465934962034">
        <ele>48.0</ele>
        <time>2025-02-03T05:30:43.919Z</time>
      </trkpt>
      <trkpt lat="59.138015918433666" lon="12.931311959400773">
        <ele>47.95</ele>
        <time>2025-02-03T05:30:52.828Z</time>
      </trkpt>
      <trkpt lat="59.13798398338258" lon="12.931156978011131">
        <ele>47.91</ele>
        <time>2025-02-03T05:31:01.738Z</time>
      </trkpt>
      <trkpt lat="59.13795095868409" lon="12.93100199662149">
        <ele>47.87</ele>
        <time>2025-02-03T05:31:10.649Z</time>
      </trkpt>
      <trkpt lat="59.13791893981397" lon="12.930845925584435">
        <ele>47.83</ele>
        <time>2025-02-03T05:31:19.562Z</time>
      </trkpt>
      <trkpt lat="59.13788792677224" lon="12.930685998871922">
        <ele>47.8</ele>
        <time>2025-02-03T05:31:28.476Z</time>
      </trkpt>
      <trkpt lat="59.13785498589277" lon="12.930524982511997">
        <ele>47.78</ele>
        <time>2025-02-03T05:31:37.392Z</time>
      </trkpt>
      <trkpt lat="59.13782196119428" lon="12.930364971980453">
        <ele>47.76</ele>
        <time>2025-02-03T05:31:46.309Z</time>
      </trkpt>
      <trkpt lat="59.13778692483902" lon="12.930205967277288">
        <ele>47.74</ele>
        <time>2025-02-03T05:31:55.228Z</time>
      </trkpt>
      <trkpt lat="59.137753983959556" lon="12.930047968402505">
        <ele>47.72</ele>
        <time>2025-02-03T05:32:04.148Z</time>
      </trkpt>
      <trkpt lat="59.1377189476043" lon="12.929890975356102">
        <ele>47.71</ele>
        <time>2025-02-03T05:32:13.069Z</time>
      </trkpt>
      <trkpt lat="59.13768491707742" lon="12.929733982309699">
        <ele>47.69</ele>
        <time>2025-02-03T05:32:21.992Z</time>
      </trkpt>
      <trkpt lat="59.13765197619796" lon="12.929577995091677">
        <ele>47.69</ele>
        <time>2025-02-03T05:32:30.916Z</time>
      </trkpt>
      <trkpt lat="59.13761895149946" lon="12.929423935711384">
        <ele>47.68</ele>
        <time>2025-02-03T05:32:39.842Z</time>
      </trkpt>
      <trkpt lat="59.13758693262935" lon="12.929270965978503">
        <ele>47.68</ele>
        <time>2025-02-03T05:32:48.769Z</time>
      </trkpt>
      <trkpt lat="59.13755399174988" lon="12.929119924083352">
        <ele>47.68</ele>
        <time>2025-02-03T05:32:57.697Z</time>
      </trkpt>
      <trkpt lat="59.13752096705139" lon="12.928967960178852">
        <ele>47.68</ele>
        <time>2025-02-03T05:33:06.627Z</time>
      </trkpt>
      <trkpt lat="59.13748894818127" lon="12.928814990445971">
        <ele>47.69</ele>
        <time>2025-02-03T05:33:15.558Z</time>
      </trkpt>
      <trkpt lat="59.137456929311156" lon="12.928660931065679">
        <ele>47.7</ele>
        <time>2025-02-03T05:33:24.490Z</time>
      </trkpt>
      <trkpt lat="59.1374269220978" lon="12.928507961332798">
        <ele>47.7</ele>
        <time>2025-02-03T05:33:33.424Z</time>
      </trkpt>
      <trkpt lat="59.1373959928751" lon="12.928356919437647">
        <ele>47.72</ele>
        <time>2025-02-03T05:33:42.359Z</time>
      </trkpt>
      <trkpt lat="59.137363974004984" lon="12.92820897884667">
        <ele>47.74</ele>
        <time>2025-02-03T05:33:51.295Z</time>
      </trkpt>
      <trkpt lat="59.13732893764973" lon="12.92805994860828">
        <ele>47.77</ele>
        <time>2025-02-03T05:34:00.233Z</time>
      </trkpt>
      <trkpt lat="59.13729599677026" lon="12.92790999636054">
        <ele>47.8</ele>
        <time>2025-02-03T05:34:09.172Z</time>
      </trkpt>
      <trkpt lat="59.13726397790015" lon="12.92776096612215">
        <ele>47.82</ele>
        <time>2025-02-03T05:34:18.112Z</time>
      </trkpt>
      <trkpt lat="59.13723095320165" lon="12.927608918398619">
        <ele>47.85</ele>
        <time>2025-02-03T05:34:27.054Z</time>
      </trkpt>
      <trkpt lat="59.137197928503156" lon="12.927455948665738">
        <ele>47.89</ele>
        <time>2025-02-03T05:34:35.997Z</time>
      </trkpt>
      <trkpt lat="59.13716398179531" lon="12.927301973104477">
        <ele>47.92</ele>
        <time>2025-02-03T05:34:44.941Z</time>
      </trkpt>
      <trkpt lat="59.137131962925196" lon="12.927146991714835">
        <ele>47.95</ele>
        <time>2025-02-03T05:34:53.887Z</time>
      </trkpt>
      <trkpt lat="59.1370989382267" lon="12.926990920677781">
        <ele>47.99</ele>
        <time>2025-02-03T05:35:02.834Z</time>
      </trkpt>
      <trkpt lat="59.137066919356585" lon="12.92683694511652">
        <ele>48.03</ele>
        <time>2025-02-03T05:35:11.783Z</time>
      </trkpt>
      <trkpt lat="59.13703397847712" lon="12.926681963726878">
        <ele>48.08</ele>
        <time>2025-02-03T05:35:20.733Z</time>
      </trkpt>
      <trkpt lat="59.137002965435386" lon="12.926529999822378">
        <ele>48.12</ele>
        <time>2025-02-03T05:35:29.684Z</time>
      </trkpt>
      <trkpt lat="59.13697195239365" lon="12.926379963755608">
        <ele>48.16</ele>
        <time>2025-02-03T05:35:38.637Z</time>
      </trkpt>
      <trkpt lat="59.136938927695155" lon="12.926231939345598">
        <ele>48.21</ele>
        <time>2025-02-03T05:35:47.591Z</time>
      </trkpt>
      <trkpt lat="59.13690699264407" lon="12.92608299292624">
        <ele>48.27</ele>
        <time>2025-02-03T05:35:56.546Z</time>
      </trkpt>
      <trkpt lat="59.13687597960234" lon="12.925931951031089">
        <ele>48.33</ele>
        <time>2025-02-03T05:36:05.503Z</time>
      </trkpt>
      <trkpt lat="59.1368449665606" lon="12.92578099295497">
        <ele>48.38</ele>
        <time>2025-02-03T05:36:14.461Z</time>
      </trkpt>
      <trkpt lat="59.136811941862106" lon="12.92563196271658">
        <ele>48.44</ele>
        <time>2025-02-03T05:36:23.420Z</time>
      </trkpt>
      <trkpt lat="59.13677992299199" lon="12.92548393830657">
        <ele>48.5</ele>
        <time>2025-02-03T05:36:32.381Z</time>
      </trkpt>
      <trkpt lat="59.13674698211253" lon="12.925335997715592">
        <ele>48.57</ele>
        <time>2025-02-03T05:36:41.343Z</time>
      </trkpt>
      <trkpt lat="59.13671395741403" lon="12.925185961648822">
        <ele>48.64</ele>
        <time>2025-02-03T05:36:50.306Z</time>
      </trkpt>
      <trkpt lat="59.136681938543916" lon="12.925033997744322">
        <ele>48.7</ele>
        <time>2025-02-03T05:36:59.271Z</time>
      </trkpt>
      <trkpt lat="59.13664899766445" lon="12.924879938364029">
        <ele>48.76</ele>
        <time>2025-02-03T05:37:08.237Z</time>
      </trkpt>
      <trkpt lat="59.136615972965956" lon="12.924725962802768">
        <ele>48.82</ele>
        <time>2025-02-03T05:37:17.204Z</time>
      </trkpt>
      <trkpt lat="59.13658395409584" lon="12.924573998898268">
        <ele>48.88</ele>
        <time>2025-02-03T05:37:26.173Z</time>
      </trkpt>
      <trkpt lat="59.136552941054106" lon="12.924423962831497">
        <ele>48.95</ele>
        <time>2025-02-03T05:37:35.143Z</time>
      </trkpt>
      <trkpt lat="59.13652092218399" lon="12.924275938421488">
        <ele>49.02</ele>
        <time>2025-02-03T05:37:44.114Z</time>
      </trkpt>
      <trkpt lat="59.13648999296129" lon="12.92412799783051">
        <ele>49.11</ele>
        <time>2025-02-03T05:37:53.087Z</time>
      </trkpt>
      <trkpt lat="59.13645797409117" lon="12.92397896759212">
        <ele>49.2</ele>
        <time>2025-02-03T05:38:02.061Z</time>
      </trkpt>
      <trkpt lat="59.13642595522106" lon="12.92382893152535">
        <ele>49.31</ele>
        <time>2025-02-03T05:38:11.036Z</time>
      </trkpt>
      <trkpt lat="59.13639393635094" lon="12.923680990934372">
        <ele>49.41</ele>
        <time>2025-02-03T05:38:20.013Z</time>
      </trkpt>
      <trkpt lat="59.136361917480826" lon="12.923530954867601">
        <ele>49.53</ele>
        <time>2025-02-03T05:38:28.991Z</time>
      </trkpt>
      <trkpt lat="59.13632897660136" lon="12.923381924629211">
        <ele>49.65</ele>
        <time>2025-02-03T05:38:37.970Z</time>
      </trkpt>
      <trkpt lat="59.13629695773125" lon="12.923230966553092">
        <ele>49.78</ele>
        <time>2025-02-03T05:38:46.951Z</time>
      </trkpt>
      <trkpt lat="59.13626292720437" lon="12.923077996820211">
        <ele>49.91</ele>
        <time>2025-02-03T05:38:55.933Z</time>
      </trkpt>
      <trkpt lat="59.136229986324906" lon="12.92292594909668">
        <ele>50.05</ele>
        <time>2025-02-03T05:39:04.917Z</time>
      </trkpt>
      <trkpt lat="59.13619796745479" lon="12.922772979363799">
        <ele>50.19</ele>
        <time>2025-02-03T05:39:13.902Z</time>
      </trkpt>
      <trkpt lat="59.136166954413056" lon="12.922620931640267">
        <ele>50.33</ele>
        <time>2025-02-03T05:39:22.888Z</time>
      </trkpt>
      <trkpt lat="59.1361369471997" lon="12.922469973564148">
        <ele>50.48</ele>
        <time>2025-02-03T05:39:31.876Z</time>
      </trkpt>
      <trkpt lat="59.13610593415797" lon="12.922320943325758">
        <ele>50.63</ele>
        <time>2025-02-03T05:39:40.865Z</time>
      </trkpt>
      <trkpt lat="59.13607592694461" lon="12.922172918915749">
        <ele>50.77</ele>
        <time>2025-02-03T05:39:49.855Z</time>
      </trkpt>
      <trkpt lat="59.13604591973126" lon="12.922025984153152">
        <ele>50.92</ele>
        <time>2025-02-03T05:39:58.847Z</time>
      </trkpt>
      <trkpt lat="59.136013984680176" lon="12.921882988885045">
        <ele>51.06</ele>
        <time>2025-02-03T05:40:07.840Z</time>
      </trkpt>
      <trkpt lat="59.13598397746682" lon="12.92174099944532">
        <ele>51.21</ele>
        <time>2025-02-03T05:40:16.834Z</time>
      </trkpt>
      <trkpt lat="59.13595296442509" lon="12.921596998348832">
        <ele>51.35</ele>
        <time>2025-02-03T05:40:25.829Z</time>
      </trkpt>
      <trkpt lat="59.13592396304011" lon="12.921448973938823">
        <ele>51.5</ele>
        <time>2025-02-03T05:40:34.826Z</time>
      </trkpt>
      <trkpt lat="59.13589797914028" lon="12.92129592038691">
        <ele>51.64</ele>
        <time>2025-02-03T05:40:43.824Z</time>
      </trkpt>
      <trkpt lat="59.1358729172498" lon="12.921138927340508">
        <ele>51.79</ele>
        <time>2025-02-03T05:40:52.823Z</time>
      </trkpt>
      <trkpt lat="59.13585196249187" lon="12.920978916808963">
        <ele>51.95</ele>
        <time>2025-02-03T05:41:01.824Z</time>
      </trkpt>
      <trkpt lat="59.13583293557167" lon="12.92081999592483">
        <ele>52.1</ele>
        <time>2025-02-03T05:41:10.826Z</time>
      </trkpt>
      <trkpt lat="59.13581592030823" lon="12.920663924887776">
        <ele>52.26</ele>
        <time>2025-02-03T05:41:19.829Z</time>
      </trkpt>
      <trkpt lat="59.135799994692206" lon="12.920512966811657">
        <ele>52.42</ele>
        <time>2025-02-03T05:41:28.834Z</time>
      </trkpt>
      <trkpt lat="59.13578691892326" lon="12.920363936573267">
        <ele>52.58</ele>
        <time>2025-02-03T05:41:37.840Z</time>
      </trkpt>
      <trkpt lat="59.135775938630104" lon="12.9202189296484">
        <ele>52.75</ele>
        <time>2025-02-03T05:41:46.847Z</time>
      </trkpt>
      <trkpt lat="59.13576495833695" lon="12.920076940208673">
        <ele>52.92</ele>
        <time>2025-02-03T05:41:55.855Z</time>
      </trkpt>
      <trkpt lat="59.135755989700556" lon="12.919935956597328">
        <ele>53.09</ele>
        <time>2025-02-03T05:42:04.864Z</time>
      </trkpt>
      <trkpt lat="59.13574995473027" lon="12.919795978814363">
        <ele>53.26</ele>
        <time>2025-02-03T05:42:13.875Z</time>
      </trkpt>
      <trkpt lat="59.13574492558837" lon="12.919655917212367">
        <ele>53.42</ele>
        <time>2025-02-03T05:42:22.887Z</time>
      </trkpt>
      <trkpt lat="59.13574492558837" lon="12.919519962742925">
        <ele>53.59</ele>
        <time>2025-02-03T05:42:31.900Z</time>
      </trkpt>
      <trkpt lat="59.13574693724513" lon="12.919388953596354">
        <ele>53.76</ele>
        <time>2025-02-03T05:42:40.914Z</time>
      </trkpt>
      <trkpt lat="59.13574894890189" lon="12.919261967763305">
        <ele>53.93</ele>
        <time>2025-02-03T05:42:49.929Z</time>
      </trkpt>
      <trkpt lat="59.13575096055865" lon="12.919137999415398">
        <ele>54.1</ele>
        <time>2025-02-03T05:42:58.945Z</time>
      </trkpt>
      <trkpt lat="59.135754983872175" lon="12.919018976390362">
        <ele>54.28</ele>
        <time>2025-02-03T05:43:07.962Z</time>
      </trkpt>
      <trkpt lat="59.135757917538285" lon="12.918902970850468">
        <ele>54.45</ele>
        <time>2025-02-03T05:43:16.980Z</time>
      </trkpt>
      <trkpt lat="59.135759929195046" lon="12.918785959482193">
        <ele>54.62</ele>
        <time>2025-02-03T05:43:25.999Z</time>
      </trkpt>
      <trkpt lat="59.13576093502343" lon="12.918669953942299">
        <ele>54.8</ele>
        <time>2025-02-03T05:43:35.019Z</time>
      </trkpt>
      <trkpt lat="59.13576194085181" lon="12.918553948402405">
        <ele>54.98</ele>
        <time>2025-02-03T05:43:44.040Z</time>
      </trkpt>
      <trkpt lat="59.13576294668019" lon="12.91843794286251">
        <ele>55.16</ele>
        <time>2025-02-03T05:43:53.062Z</time>
      </trkpt>
      <trkpt lat="59.13576294668019" lon="12.918322943150997">
        <ele>55.33</ele>
        <time>2025-02-03T05:44:02.085Z</time>
      </trkpt>
      <trkpt lat="59.13576395250857" lon="12.918207943439484">
        <ele>55.51</ele>
        <time>2025-02-03T05:44:11.109Z</time>
      </trkpt>
      <trkpt lat="59.13576395250857" lon="12.91809294372797">
        <ele>55.68</ele>
        <time>2025-02-03T05:44:20.134Z</time>
      </trkpt>
      <trkpt lat="59.13576495833695" lon="12.917979955673218">
        <ele>55.86</ele>
        <time>2025-02-03T05:44:29.160Z</time>
      </trkpt>
      <trkpt lat="59.13576696999371" lon="12.917869985103607">
        <ele>56.03</ele>
        <time>2025-02-03T05:44:38.187Z</time>
      </trkpt>
      <trkpt lat="59.13576898165047" lon="12.917763954028487">
        <ele>56.21</ele>
        <time>2025-02-03T05:44:47.214Z</time>
      </trkpt>
      <trkpt lat="59.13577292114496" lon="12.917664963752031">
        <ele>56.38</ele>
        <time>2025-02-03T05:44:56.242Z</time>
      </trkpt>
      <trkpt lat="59.135776944458485" lon="12.917563961818814">
        <ele>56.56</ele>
        <time>2025-02-03T05:45:05.271Z</time>
      </trkpt>
      <trkpt lat="59.135778956115246" lon="12.917463965713978">
        <ele>56.74</ele>
        <time>2025-02-03T05:45:14.301Z</time>
      </trkpt>
      <trkpt lat="59.13578197360039" lon="12.917364975437522">
        <ele>56.92</ele>
        <time>2025-02-03T05:45:23.332Z</time>
      </trkpt>
      <trkpt lat="59.13578398525715" lon="12.917265985161066">
        <ele>57.1</ele>
        <time>2025-02-03T05:45:32.364Z</time>
      </trkpt>
      <trkpt lat="59.13578599691391" lon="12.917164983227849">
        <ele>57.28</ele>
        <time>2025-02-03T05:45:41.396Z</time>
      </trkpt>
      <trkpt lat="59.13578599691391" lon="12.917062975466251">
        <ele>57.46</ele>
        <time>2025-02-03T05:45:50.429Z</time>
      </trkpt>
      <trkpt lat="59.13578792475164" lon="12.916960967704654">
        <ele>57.65</ele>
        <time>2025-02-03T05:45:59.463Z</time>
      </trkpt>
      <trkpt lat="59.13578893058002" lon="12.916858959943056">
        <ele>57.83</ele>
        <time>2025-02-03T05:46:08.498Z</time>
      </trkpt>
      <trkpt lat="59.13579194806516" lon="12.916753934696317">
        <ele>58.01</ele>
        <time>2025-02-03T05:46:17.534Z</time>
      </trkpt>
      <trkpt lat="59.135795971378684" lon="12.916651926934719">
        <ele>58.19</ele>
        <time>2025-02-03T05:46:26.571Z</time>
      </trkpt>
      <trkpt lat="59.135799994692206" lon="12.916553942486644">
        <ele>58.36</ele>
        <time>2025-02-03T05:46:35.608Z</time>
      </trkpt>
      <trkpt lat="59.13580494001508" lon="12.916453946381807">
        <ele>58.54</ele>
        <time>2025-02-03T05:46:44.646Z</time>
      </trkpt>
      <trkpt lat="59.13580594584346" lon="12.91635193862021">
        <ele>58.72</ele>
        <time>2025-02-03T05:46:53.685Z</time>
      </trkpt>
      <trkpt lat="59.13580695167184" lon="12.916249930858612">
        <ele>58.89</ele>
        <time>2025-02-03T05:47:02.725Z</time>
      </trkpt>
      <trkpt lat="59.13580594584346" lon="12.916146917268634">
        <ele>59.07</ele>
        <time>2025-02-03T05:47:11.766Z</time>
      </trkpt>
      <trkpt lat="59.13580795750022" lon="12.916045999154449">
        <ele>59.24</ele>
        <time>2025-02-03T05:47:20.808Z</time>
      </trkpt>
      <trkpt lat="59.13580795750022" lon="12.91594591923058">
        <ele>59.41</ele>
        <time>2025-02-03T05:47:29.850Z</time>
      </trkpt>
      <trkpt lat="59.1358089633286" lon="12.915847934782505">
        <ele>59.58</ele>
        <time>2025-02-03T05:47:38.893Z</time>
      </trkpt>
      <trkpt lat="59.1358139924705" lon="12.91575095616281">
        <ele>59.75</ele>
        <time>2025-02-03T05:47:47.937Z</time>
      </trkpt>
      <trkpt lat="59.13582698442042" lon="12.915651965886354">
        <ele>59.93</ele>
        <time>2025-02-03T05:47:56.982Z</time>
      </trkpt>
      <trkpt lat="59.13585397414863" lon="12.915559932589531">
        <ele>60.1</ele>
        <time>2025-02-03T05:48:06.028Z</time>
      </trkpt>
      <trkpt lat="59.1358969733119" lon="12.915487932041287">
        <ele>60.26</ele>
        <time>2025-02-03T05:48:15.075Z</time>
      </trkpt>
      <trkpt lat="59.13595296442509" lon="12.915442921221256">
        <ele>60.43</ele>
        <time>2025-02-03T05:48:24.123Z</time>
      </trkpt>
      <trkpt lat="59.136016918346286" lon="12.915418948978186">
        <ele>60.58</ele>
        <time>2025-02-03T05:48:33.172Z</time>
      </trkpt>
      <trkpt lat="59.13608397357166" lon="12.915407968685031">
        <ele>60.74</ele>
        <time>2025-02-03T05:48:42.222Z</time>
      </trkpt>
      <trkpt lat="59.13615496829152" lon="12.915401933714747">
        <ele>60.9</ele>
        <time>2025-02-03T05:48:51.273Z</time>
      </trkpt>
      <trkpt lat="59.136228980496526" lon="12.915393970906734">
        <ele>61.05</ele>
        <time>2025-02-03T05:49:00.325Z</time>
      </trkpt>
      <trkpt lat="59.13630492053926" lon="12.915378967300057">
        <ele>61.2</ele>
        <time>2025-02-03T05:49:09.378Z</time>
      </trkpt>
      <trkpt lat="59.136380944401026" lon="12.915350971743464">
        <ele>61.35</ele>
        <time>2025-02-03T05:49:18.433Z</time>
      </trkpt>
      <trkpt lat="59.13645495660603" lon="12.915322976186872">
        <ele>61.5</ele>
        <time>2025-02-03T05:49:27.489Z</time>
      </trkpt>
      <trkpt lat="59.136527962982655" lon="12.915310990065336">
        <ele>61.65</ele>
        <time>2025-02-03T05:49:36.546Z</time>
      </trkpt>
      <trkpt lat="59.136596946045756" lon="12.915323982015252">
        <ele>61.79</ele>
        <time>2025-02-03T05:49:45.604Z</time>
      </trkpt>
      <trkpt lat="59.1366549488157" lon="12.915373938158154">
        <ele>61.95</ele>
        <time>2025-02-03T05:49:54.663Z</time>
      </trkpt>
      <trkpt lat="59.13671496324241" lon="12.915456918999553">
        <ele>62.1</ele>
        <time>2025-02-03T05:50:03.723Z</time>
      </trkpt>
      <trkpt lat="59.13675595074892" lon="12.915570996701717">
        <ele>62.24</ele>
        <time>2025-02-03T05:50:12.784Z</time>
      </trkpt>
      <trkpt lat="59.13678193464875" lon="12.915701922029257">
        <ele>62.39</ele>
        <time>2025-02-03T05:50:21.847Z</time>
      </trkpt>
      <trkpt lat="59.136787969619036" lon="12.915843995288014">
        <ele>62.53</ele>
        <time>2025-02-03T05:50:30.911Z</time>
      </trkpt>
      <trkpt lat="59.13677891716361" lon="12.91598891839385">
        <ele>62.67</ele>
        <time>2025-02-03T05:50:39.976Z</time>
      </trkpt>
      <trkpt lat="59.13675796240568" lon="12.916132919490337">
        <ele>62.82</ele>
        <time>2025-02-03T05:50:49.042Z</time>
      </trkpt>
      <trkpt lat="59.136725943535566" lon="12.916274992749095">
        <ele>62.96</ele>
        <time>2025-02-03T05:50:58.109Z</time>
      </trkpt>
      <trkpt lat="59.13668395020068" lon="12.916418993845582">
        <ele>63.1</ele>
        <time>2025-02-03T05:51:07.178Z</time>
      </trkpt>
      <trkpt lat="59.13662997074425" lon="12.916553942486644">
        <ele>63.24</ele>
        <time>2025-02-03T05:51:16.248Z</time>
      </trkpt>
      <trkpt lat="59.13656492717564" lon="12.916676988825202">
        <ele>63.37</ele>
        <time>2025-02-03T05:51:25.320Z</time>
      </trkpt>
      <trkpt lat="59.13648999296129" lon="12.91678394190967">
        <ele>63.5</ele>
        <time>2025-02-03T05:51:34.393Z</time>
      </trkpt>
      <trkpt lat="59.13640592247248" lon="12.91686893440783">
        <ele>63.63</ele>
        <time>2025-02-03T05:51:43.468Z</time>
      </trkpt>
      <trkpt lat="59.136313972994685" lon="12.916923919692636">
        <ele>63.77</ele>
        <time>2025-02-03T05:51:52.544Z</time>
      </trkpt>
      <trkpt lat="59.13621598854661" lon="12.91695099323988">
        <ele>63.91</ele>
        <time>2025-02-03T05:52:01.622Z</time>
      </trkpt>
      <trkpt lat="59.136116998270154" lon="12.916957950219512">
        <ele>64.05</ele>
        <time>2025-02-03T05:52:10.701Z</time>
      </trkpt>
      <trkpt lat="59.136017924174666" lon="12.916943952441216">
        <ele>64.19</ele>
        <time>2025-02-03T05:52:19.782Z</time>
      </trkpt>
      <trkpt lat="59.13591893389821" lon="12.916918974369764">
        <ele>64.33</ele>
        <time>2025-02-03T05:52:28.865Z</time>
      </trkpt>
      <trkpt lat="59.135822961106896" lon="12.916894918307662">
        <ele>64.47</ele>
        <time>2025-02-03T05:52:37.949Z</time>
      </trkpt>
      <trkpt lat="59.13572799414396" lon="12.91686893440783">
        <ele>64.61</ele>
        <time>2025-02-03T05:52:47.035Z</time>
      </trkpt>
      <trkpt lat="59.13563193753362" lon="12.916827946901321">
        <ele>64.74</ele>
        <time>2025-02-03T05:52:56.122Z</time>
      </trkpt>
      <trkpt lat="59.135539988055825" lon="12.916789976879954">
        <ele>64.88</ele>
        <time>2025-02-03T05:53:05.211Z</time>
      </trkpt>
      <trkpt lat="59.13544996641576" lon="12.916755946353078">
        <ele>65.01</ele>
        <time>2025-02-03T05:53:14.301Z</time>
      </trkpt>
      <trkpt lat="59.13536296226084" lon="12.916725939139724">
        <ele>65.14</ele>
        <time>2025-02-03T05:53:23.393Z</time>
      </trkpt>
      <trkpt lat="59.135279981419444" lon="12.916691992431879">
        <ele>65.27</ele>
        <time>2025-02-03T05:53:32.486Z</time>
      </trkpt>
      <trkpt lat="59.13520194590092" lon="12.916657961905003">
        <ele>65.4</ele>
        <time>2025-02-03T05:53:41.580Z</time>
      </trkpt>
      <trkpt lat="59.13512793369591" lon="12.916616974398494">
        <ele>65.53</ele>
        <time>2025-02-03T05:53:50.676Z</time>
      </trkpt>
      <trkpt lat="59.13505995646119" lon="12.916565928608179">
        <ele>65.66</ele>
        <time>2025-02-03T05:53:59.773Z</time>
      </trkpt>
      <trkpt lat="59.13499692454934" lon="12.916504992172122">
        <ele>65.8</ele>
        <time>2025-02-03T05:54:08.871Z</time>
      </trkpt>
      <trkpt lat="59.134940933436155" lon="12.916432991623878">
        <ele>65.93</ele>
        <time>2025-02-03T05:54:17.970Z</time>
      </trkpt>
      <trkpt lat="59.13489198312163" lon="12.916349926963449">
        <ele>66.06</ele>
        <time>2025-02-03T05:54:27.070Z</time>
      </trkpt>
      <trkpt lat="59.13484898395836" lon="12.916257977485657">
        <ele>66.19</ele>
        <time>2025-02-03T05:54:36.171Z</time>
      </trkpt>
      <trkpt lat="59.13481495343149" lon="12.916159993037581">
        <ele>66.32</ele>
        <time>2025-02-03T05:54:45.273Z</time>
      </trkpt>
      <trkpt lat="59.134788969531655" lon="12.916059996932745">
        <ele>66.45</ele>
        <time>2025-02-03T05:54:54.376Z</time>
      </trkpt>
      <trkpt lat="59.134769942611456" lon="12.915962934494019">
        <ele>66.59</ele>
        <time>2025-02-03T05:55:03.480Z</time>
      </trkpt>
      <trkpt lat="59.13475594483316" lon="12.915871990844607">
        <ele>66.72</ele>
        <time>2025-02-03T05:55:12.584Z</time>
      </trkpt>
      <trkpt lat="59.13474999368191" lon="12.915784986689687">
        <ele>66.84</ele>
        <time>2025-02-03T05:55:21.689Z</time>
      </trkpt>
      <trkpt lat="59.13474999368191" lon="12.91570594534278">
        <ele>66.97</ele>
        <time>2025-02-03T05:55:30.795Z</time>
      </trkpt>
      <trkpt lat="59.13475292734802" lon="12.915636962279677">
        <ele>67.1</ele>
        <time>2025-02-03T05:55:39.901Z</time>
      </trkpt>
      <trkpt lat="59.13475695066154" lon="12.915570996701717">
        <ele>67.22</ele>
        <time>2025-02-03T05:55:49.008Z</time>
      </trkpt>
      <trkpt lat="59.134763991460204" lon="12.91551299393177">
        <ele>67.35</ele>
        <time>2025-02-03T05:55:58.115Z</time>
      </trkpt>
      <trkpt lat="59.13477094843984" lon="12.915459936484694">
        <ele>67.47</ele>
        <time>2025-02-03T05:56:07.223Z</time>
      </trkpt>
      <trkpt lat="59.13478092290461" lon="12.91540696285665">
        <ele>67.6</ele>
        <time>2025-02-03T05:56:16.331Z</time>
      </trkpt>
      <trkpt lat="59.1347919870168" lon="12.915352983400226">
        <ele>67.72</ele>
        <time>2025-02-03T05:56:25.440Z</time>
      </trkpt>
      <trkpt lat="59.13480196148157" lon="12.91529892012477">
        <ele>67.84</ele>
        <time>2025-02-03T05:56:34.549Z</time>
      </trkpt>
      <trkpt lat="59.134808918461204" lon="12.915241923183203">
        <ele>67.96</ele>
        <time>2025-02-03T05:56:43.659Z</time>
      </trkpt>
      <trkpt lat="59.13481394760311" lon="12.915175957605243">
        <ele>68.08</ele>
        <time>2025-02-03T05:56:52.769Z</time>
      </trkpt>
      <trkpt lat="59.13481897674501" lon="12.915101945400238">
        <ele>68.2</ele>
        <time>2025-02-03T05:57:01.880Z</time>
      </trkpt>
      <trkpt lat="59.1348229162395" lon="12.91501997038722">
        <ele>68.32</ele>
        <time>2025-02-03T05:57:10.992Z</time>
      </trkpt>
      <trkpt lat="59.13482492789626" lon="12.914928942918777">
        <ele>68.44</ele>
        <time>2025-02-03T05:57:20.104Z</time>
      </trkpt>
      <trkpt lat="59.13482693955302" lon="12.914832970127463">
        <ele>68.56</ele>
        <time>2025-02-03T05:57:29.217Z</time>
      </trkpt>
      <trkpt lat="59.134832974523306" lon="12.914737919345498">
        <ele>68.68</ele>
        <time>2025-02-03T05:57:38.331Z</time>
      </trkpt>
      <trkpt lat="59.13484093733132" lon="12.914644964039326">
        <ele>68.79</ele>
        <time>2025-02-03T05:57:47.446Z</time>
      </trkpt>
      <trkpt lat="59.134849989786744" lon="12.914554942399263">
        <ele>68.91</ele>
        <time>2025-02-03T05:57:56.562Z</time>
      </trkpt>
      <trkpt lat="59.13485795259476" lon="12.914463998749852">
        <ele>69.02</ele>
        <time>2025-02-03T05:58:05.678Z</time>
      </trkpt>
      <trkpt lat="59.13486398756504" lon="12.914376994594932">
        <ele>69.13</ele>
        <time>2025-02-03T05:58:14.795Z</time>
      </trkpt>
      <trkpt lat="59.13487195037305" lon="12.914292924106121">
        <ele>69.24</ele>
        <time>2025-02-03T05:58:23.913Z</time>
      </trkpt>
      <trkpt lat="59.1348799970001" lon="12.914213966578245">
        <ele>69.35</ele>
        <time>2025-02-03T05:58:33.031Z</time>
      </trkpt>
      <trkpt lat="59.13488795980811" lon="12.914130985736847">
        <ele>69.46</ele>
        <time>2025-02-03T05:58:42.150Z</time>
      </trkpt>
      <trkpt lat="59.134896928444505" lon="12.914043981581926">
        <ele>69.57</ele>
        <time>2025-02-03T05:58:51.270Z</time>
      </trkpt>
      <trkpt lat="59.13490698672831" lon="12.913952954113483">
        <ele>69.67</ele>
        <time>2025-02-03T05:59:00.391Z</time>
      </trkpt>
      <trkpt lat="59.134918972849846" lon="12.91385798715055">
        <ele>69.78</ele>
        <time>2025-02-03T05:59:09.512Z</time>
      </trkpt>
      <trkpt lat="59.13493196479976" lon="12.913761930540204">
        <ele>69.88</ele>
        <time>2025-02-03T05:59:18.634Z</time>
      </trkpt>
      <trkpt lat="59.134941939264536" lon="12.91366595774889">
        <ele>69.98</ele>
        <time>2025-02-03T05:59:27.757Z</time>
      </trkpt>
      <trkpt lat="59.13494998589158" lon="12.913564955815673">
        <ele>70.08</ele>
        <time>2025-02-03T05:59:36.881Z</time>
      </trkpt>
      <trkpt lat="59.13495694287121" lon="12.913463953882456">
        <ele>70.18</ele>
        <time>2025-02-03T05:59:46.006Z</time>
      </trkpt>
      <trkpt lat="59.134961972013116" lon="12.91336395777762">
        <ele>70.28</ele>
        <time>2025-02-03T05:59:55.132Z</time>
      </trkpt>
      <trkpt lat="59.13496691733599" lon="12.913262955844402">
        <ele>70.38</ele>
        <time>2025-02-03T06:00:04.258Z</time>
      </trkpt>
      <trkpt lat="59.13496993482113" lon="12.913159942254424">
        <ele>70.47</ele>
        <time>2025-02-03T06:00:13.385Z</time>
      </trkpt>
      <trkpt lat="59.13497094064951" lon="12.913054917007685">
        <ele>70.56</ele>
        <time>2025-02-03T06:00:22.513Z</time>
      </trkpt>
      <trkpt lat="59.13496993482113" lon="12.912943940609694">
        <ele>70.66</ele>
        <time>2025-02-03T06:00:31.642Z</time>
      </trkpt>
      <trkpt lat="59.13496599532664" lon="12.91282894089818">
        <ele>70.75</ele>
        <time>2025-02-03T06:00:40.772Z</time>
      </trkpt>
      <trkpt lat="59.134958954527974" lon="12.912711929529905">
        <ele>70.85</ele>
        <time>2025-02-03T06:00:49.903Z</time>
      </trkpt>
      <trkpt lat="59.1349489800632" lon="12.912587961181998">
        <ele>70.94</ele>
        <time>2025-02-03T06:00:59.035Z</time>
      </trkpt>
      <trkpt lat="59.134937999770045" lon="12.91246097534895">
        <ele>71.03</ele>
        <time>2025-02-03T06:01:08.168Z</time>
      </trkpt>
      <trkpt lat="59.13492391817272" lon="12.912328960373998">
        <ele>71.12</ele>
        <time>2025-02-03T06:01:17.302Z</time>
      </trkpt>
      <trkpt lat="59.13490497507155" lon="12.912193927913904">
        <ele>71.21</ele>
        <time>2025-02-03T06:01:26.437Z</time>
      </trkpt>
      <trkpt lat="59.13488192483783" lon="12.9120559617877">
        <ele>71.29</ele>
        <time>2025-02-03T06:01:35.573Z</time>
      </trkpt>
      <trkpt lat="59.13485694676638" lon="12.911915984004736">
        <ele>71.38</ele>
        <time>2025-02-03T06:01:44.711Z</time>
      </trkpt>
      <trkpt lat="59.134829957038164" lon="12.91177692823112">
        <ele>71.47</ele>
        <time>2025-02-03T06:01:53.850Z</time>
      </trkpt>
      <trkpt lat="59.13480196148157" lon="12.911641979590058">
        <ele>71.55</ele>
        <time>2025-02-03T06:02:02.990Z</time>
      </trkpt>
      <trkpt lat="59.134768936783075" lon="12.911509964615107">
        <ele>71.63</ele>
        <time>2025-02-03T06:02:12.131Z</time>
      </trkpt>
      <trkpt lat="59.13473297841847" lon="12.911387924104929">
        <ele>71.71</ele>
        <time>2025-02-03T06:02:21.273Z</time>
      </trkpt>
      <trkpt lat="59.13469492457807" lon="12.911268984898925">
        <ele>71.79</ele>
        <time>2025-02-03T06:02:30.417Z</time>
      </trkpt>
      <trkpt lat="59.134659972041845" lon="12.911154991015792">
        <ele>71.87</ele>
        <time>2025-02-03T06:02:39.562Z</time>
      </trkpt>
      <trkpt lat="59.13462895900011" lon="12.911037979647517">
        <ele>71.95</ele>
        <time>2025-02-03T06:02:48.708Z</time>
      </trkpt>
      <trkpt lat="59.13459895178676" lon="12.910920968279243">
        <ele>72.02</ele>
        <time>2025-02-03T06:02:57.855Z</time>
      </trkpt>
      <trkpt lat="59.13456399925053" lon="12.91080697439611">
        <ele>72.1</ele>
        <time>2025-02-03T06:03:07.003Z</time>
      </trkpt>
      <trkpt lat="59.13452493958175" lon="12.910698931664228">
        <ele>72.18</ele>
        <time>2025-02-03T06:03:16.152Z</time>
      </trkpt>
      <trkpt lat="59.134484957903624" lon="12.910597929731011">
        <ele>72.25</ele>
        <time>2025-02-03T06:03:25.302Z</time>
      </trkpt>
      <trkpt lat="59.13444899953902" lon="12.910492988303304">
        <ele>72.32</ele>
        <time>2025-02-03T06:03:34.453Z</time>
      </trkpt>
      <trkpt lat="59.13442092016339" lon="12.910390980541706">
        <ele>72.39</ele>
        <time>2025-02-03T06:03:43.605Z</time>
      </trkpt>
      <trkpt lat="59.13439191877842" lon="12.910285955294967">
        <ele>72.45</ele>
        <time>2025-02-03T06:03:52.758Z</time>
      </trkpt>
      <trkpt lat="59.1343619953841" lon="12.910176990553737">
        <ele>72.52</ele>
        <time>2025-02-03T06:04:01.912Z</time>
      </trkpt>
      <trkpt lat="59.13432997651398" lon="12.910067941993475">
        <ele>72.59</ele>
        <time>2025-02-03T06:04:11.067Z</time>
      </trkpt>
      <trkpt lat="59.134296951815486" lon="12.909952942281961">
        <ele>72.66</ele>
        <time>2025-02-03T06:04:20.223Z</time>
      </trkpt>
      <trkpt lat="59.13426199927926" lon="12.909835930913687">
        <ele>72.73</ele>
        <time>2025-02-03T06:04:29.380Z</time>
      </trkpt>
      <trkpt lat="59.134226962924004" lon="12.909721937030554">
        <ele>72.79</ele>
        <time>2025-02-03T06:04:38.538Z</time>
      </trkpt>
      <trkpt lat="59.13419293239713" lon="12.90960794314742">
        <ele>72.86</ele>
        <time>2025-02-03T06:04:47.698Z</time>
      </trkpt>
      <trkpt lat="59.134160997346044" lon="12.90949596092105">
        <ele>72.93</ele>
        <time>2025-02-03T06:04:56.859Z</time>
      </trkpt>
      <trkpt lat="59.13412897847593" lon="12.909385990351439">
        <ele>72.99</ele>
        <time>2025-02-03T06:05:06.021Z</time>
      </trkpt>
      <trkpt lat="59.134097965434194" lon="12.909278953447938">
        <ele>73.06</ele>
        <time>2025-02-03T06:05:15.184Z</time>
      </trkpt>
      <trkpt lat="59.13406795822084" lon="12.909170994535089">
        <ele>73.11</ele>
        <time>2025-02-03T06:05:24.348Z</time>
      </trkpt>
      <trkpt lat="59.134038956835866" lon="12.90906596928835">
        <ele>73.17</ele>
        <time>2025-02-03T06:05:33.513Z</time>
      </trkpt>
      <trkpt lat="59.13401096127927" lon="12.90896194986999">
        <ele>73.23</ele>
        <time>2025-02-03T06:05:42.679Z</time>
      </trkpt>
      <trkpt lat="59.13398296572268" lon="12.908860947936773">
        <ele>73.29</ele>
        <time>2025-02-03T06:05:51.846Z</time>
      </trkpt>
      <trkpt lat="59.13395497016609" lon="12.908755922690034">
        <ele>73.35</ele>
        <time>2025-02-03T06:06:01.014Z</time>
      </trkpt>
      <trkpt lat="59.133925968781114" lon="12.908649975433946">
        <ele>73.4</ele>
        <time>2025-02-03T06:06:10.183Z</time>
      </trkpt>
      <trkpt lat="59.13389596156776" lon="12.908540926873684">
        <ele>73.46</ele>
        <time>2025-02-03T06:06:19.353Z</time>
      </trkpt>
      <trkpt lat="59.133865954354405" lon="12.908430956304073">
        <ele>73.51</ele>
        <time>2025-02-03T06:06:28.524Z</time>
      </trkpt>
      <trkpt lat="59.13383192382753" lon="12.90831696242094">
        <ele>73.56</ele>
        <time>2025-02-03T06:06:37.696Z</time>
      </trkpt>
      <trkpt lat="59.133797977119684" lon="12.908199951052666">
        <ele>73.61</ele>
        <time>2025-02-03T06:06:46.869Z</time>
      </trkpt>
      <trkpt lat="59.13376394659281" lon="12.90807799436152">
        <ele>73.66</ele>
        <time>2025-02-03T06:06:56.043Z</time>
      </trkpt>
      <trkpt lat="59.1337279882282" lon="12.907953942194581">
        <ele>73.7</ele>
        <time>2025-02-03T06:07:05.218Z</time>
      </trkpt>
      <trkpt lat="59.133691946044564" lon="12.907827962189913">
        <ele>73.75</ele>
        <time>2025-02-03T06:07:14.394Z</time>
      </trkpt>
      <trkpt lat="59.13365498185158" lon="12.907699970528483">
        <ele>73.8</ele>
        <time>2025-02-03T06:07:23.572Z</time>
      </trkpt>
      <trkpt lat="59.1336159221828" lon="12.907570973038673">
        <ele>73.85</ele>
        <time>2025-02-03T06:07:32.751Z</time>
      </trkpt>
      <trkpt lat="59.13357694633305" lon="12.907439963892102">
        <ele>73.9</ele>
        <time>2025-02-03T06:07:41.931Z</time>
      </trkpt>
      <trkpt lat="59.1335379704833" lon="12.907308954745531">
        <ele>73.94</ele>
        <time>2025-02-03T06:07:51.112Z</time>
      </trkpt>
      <trkpt lat="59.133499916642904" lon="12.907179957255721">
        <ele>73.98</ele>
        <time>2025-02-03T06:08:00.294Z</time>
      </trkpt>
      <trkpt lat="59.13346094079316" lon="12.907052971422672">
        <ele>74.02</ele>
        <time>2025-02-03T06:08:09.478Z</time>
      </trkpt>
      <trkpt lat="59.13342397660017" lon="12.906928919255733">
        <ele>74.07</ele>
        <time>2025-02-03T06:08:18.663Z</time>
      </trkpt>
      <trkpt lat="59.13338894024491" lon="12.906806962564588">
        <ele>74.12</ele>
        <time>2025-02-03T06:08:27.849Z</time>
      </trkpt>
      <trkpt lat="59.1333569213748" lon="12.90668492205441">
        <ele>74.16</ele>
        <time>2025-02-03T06:08:37.036Z</time>
      </trkpt>
      <trkpt lat="59.133324986323714" lon="12.906561959534883">
        <ele>74.21</ele>
        <time>2025-02-03T06:08:46.224Z</time>
      </trkpt>
      <trkpt lat="59.13328894414008" lon="12.906437991186976">
        <ele>74.25</ele>
        <time>2025-02-03T06:08:55.413Z</time>
      </trkpt>
      <trkpt lat="59.13325591944158" lon="12.906313939020038">
        <ele>74.3</ele>
        <time>2025-02-03T06:09:04.604Z</time>
      </trkpt>
      <trkpt lat="59.1332239843905" lon="12.906183935701847">
        <ele>74.34</ele>
        <time>2025-02-03T06:09:13.796Z</time>
      </trkpt>
      <trkpt lat="59.133194983005524" lon="12.906050998717546">
        <ele>74.39</ele>
        <time>2025-02-03T06:09:22.989Z</time>
      </trkpt>
      <trkpt lat="59.133174950256944" lon="12.905915966257453">
        <ele>74.43</ele>
        <time>2025-02-03T06:09:32.183Z</time>
      </trkpt>
      <trkpt lat="59.13316296413541" lon="12.905776994302869">
        <ele>74.48</ele>
        <time>2025-02-03T06:09:41.378Z</time>
      </trkpt>
      <trkpt lat="59.133157934993505" lon="12.90562896989286">
        <ele>74.52</ele>
        <time>2025-02-03T06:09:50.575Z</time>
      </trkpt>
      <trkpt lat="59.133157934993505" lon="12.905474994331598">
        <ele>74.56</ele>
        <time>2025-02-03T06:09:59.773Z</time>
      </trkpt>
      <trkpt lat="59.133156929165125" lon="12.905315989628434">
        <ele>74.6</ele>
        <time>2025-02-03T06:10:08.972Z</time>
      </trkpt>
      <trkpt lat="59.13314896635711" lon="12.905161930248141">
        <ele>74.64</ele>
        <time>2025-02-03T06:10:18.172Z</time>
      </trkpt>
      <trkpt lat="59.13313999772072" lon="12.905005943030119">
        <ele>74.68</ele>
        <time>2025-02-03T06:10:27.374Z</time>
      </trkpt>
      <trkpt lat="59.133131951093674" lon="12.904853979125619">
        <ele>74.73</ele>
        <time>2025-02-03T06:10:36.577Z</time>
      </trkpt>
      <trkpt lat="59.13311795331538" lon="12.904703943058848">
        <ele>74.77</ele>
        <time>2025-02-03T06:10:45.781Z</time>
      </trkpt>
      <trkpt lat="59.133090963587165" lon="12.904563965275884">
        <ele>74.81</ele>
        <time>2025-02-03T06:10:54.986Z</time>
      </trkpt>
      <trkpt lat="59.13304293528199" lon="12.904443936422467">
        <ele>74.86</ele>
        <time>2025-02-03T06:11:04.193Z</time>
      </trkpt>
      <trkpt lat="59.13297596387565" lon="12.904369924217463">
        <ele>74.9</ele>
        <time>2025-02-03T06:11:13.401Z</time>
      </trkpt>
      <trkpt lat="59.132898934185505" lon="12.90434293448925">
        <ele>74.95</ele>
        <time>2025-02-03T06:11:22.610Z</time>
      </trkpt>
      <trkpt lat="59.13282198831439" lon="12.904348969459534">
        <ele>75.0</ele>
        <time>2025-02-03T06:11:31.820Z</time>
      </trkpt>
      <trkpt lat="59.132748981937766" lon="12.90436397306621">
        <ele>75.05</ele>
        <time>2025-02-03T06:11:41.032Z</time>
      </trkpt>
      <trkpt lat="59.1326869558543" lon="12.904377970844507">
        <ele>75.09</ele>
        <time>2025-02-03T06:11:50.245Z</time>
      </trkpt>
      <trkpt lat="59.132641945034266" lon="12.90438492782414">
        <ele>75.14</ele>
        <time>2025-02-03T06:11:59.458Z</time>
      </trkpt>
      <trkpt lat="59.13260598666966" lon="12.90438299998641">
        <ele>75.18</ele>
        <time>2025-02-03T06:12:08.672Z</time>
      </trkpt>
      <trkpt lat="59.13257899694145" lon="12.904344946146011">
        <ele>75.23</ele>
        <time>2025-02-03T06:12:17.886Z</time>
      </trkpt>
      <trkpt lat="59.13256399333477" lon="12.904281998053193">
        <ele>75.28</ele>
        <time>2025-02-03T06:12:27.101Z</time>
      </trkpt>
      <trkpt lat="59.13255896419287" lon="12.904205974191427">
        <ele>75.33</ele>
        <time>2025-02-03T06:12:36.317Z</time>
      </trkpt>
      <trkpt lat="59.132554940879345" lon="12.904120981693268">
        <ele>75.37</ele>
        <time>2025-02-03T06:12:45.533Z</time>
      </trkpt>
      <trkpt lat="59.13254597224295" lon="12.904029954224825">
        <ele>75.42</ele>
        <time>2025-02-03T06:12:54.750Z</time>
      </trkpt>
      <trkpt lat="59.132530968636274" lon="12.903939932584763">
        <ele>75.47</ele>
        <time>2025-02-03T06:13:03.968Z</time>
      </trkpt>
      <trkpt lat="59.132511941716075" lon="12.903848988935351">
        <ele>75.52</ele>
        <time>2025-02-03T06:13:13.187Z</time>
      </trkpt>
      <trkpt lat="59.13249492645264" lon="12.903757961466908">
        <ele>75.57</ele>
        <time>2025-02-03T06:13:22.406Z</time>
      </trkpt>
      <trkpt lat="59.13247799500823" lon="12.903664922341704">
        <ele>75.62</ele>
        <time>2025-02-03T06:13:31.626Z</time>
      </trkpt>
      <trkpt lat="59.13246097974479" lon="12.903565932065248">
        <ele>75.66</ele>
        <time>2025-02-03T06:13:40.847Z</time>
      </trkpt>
      <trkpt lat="59.13244195282459" lon="12.903461996465921">
        <ele>75.71</ele>
        <time>2025-02-03T06:13:50.069Z</time>
      </trkpt>
      <trkpt lat="59.13242192007601" lon="12.903356971219182">
        <ele>75.75</ele>
        <time>2025-02-03T06:13:59.292Z</time>
      </trkpt>
      <trkpt lat="59.132401971146464" lon="12.903253957629204">
        <ele>75.8</ele>
        <time>2025-02-03T06:14:08.516Z</time>
      </trkpt>
      <trkpt lat="59.13237992674112" lon="12.903151949867606">
        <ele>75.84</ele>
        <time>2025-02-03T06:14:17.741Z</time>
      </trkpt>
      <trkpt lat="59.13235696032643" lon="12.90305295959115">
        <ele>75.88</ele>
        <time>2025-02-03T06:14:26.967Z</time>
      </trkpt>
      <trkpt lat="59.13234296254814" lon="12.902963943779469">
        <ele>75.92</ele>
        <time>2025-02-03T06:14:36.193Z</time>
      </trkpt>
      <trkpt lat="59.132334999740124" lon="12.902885992079973">
        <ele>75.96</ele>
        <time>2025-02-03T06:14:45.420Z</time>
      </trkpt>
      <trkpt lat="59.13232997059822" lon="12.902810974046588">
        <ele>76.0</ele>
        <time>2025-02-03T06:14:54.648Z</time>
      </trkpt>
      <trkpt lat="59.132320918142796" lon="12.902741990983486">
        <ele>76.04</ele>
        <time>2025-02-03T06:15:03.876Z</time>
      </trkpt>
      <trkpt lat="59.13230197504163" lon="12.902678959071636">
        <ele>76.08</ele>
        <time>2025-02-03T06:15:13.105Z</time>
      </trkpt>
      <trkpt lat="59.13228194229305" lon="12.902616932988167">
        <ele>76.12</ele>
        <time>2025-02-03T06:15:22.335Z</time>
      </trkpt>
      <trkpt lat="59.1322569642216" lon="12.90255599655211">
        <ele>76.16</ele>
        <time>2025-02-03T06:15:31.565Z</time>
      </trkpt>
      <trkpt lat="59.132229974493384" lon="12.902505956590176">
        <ele>76.2</ele>
        <time>2025-02-03T06:15:40.796Z</time>
      </trkpt>
      <trkpt lat="59.13220591843128" lon="12.902453988790512">
        <ele>76.24</ele>
        <time>2025-02-03T06:15:50.027Z</time>
      </trkpt>
      <trkpt lat="59.13217599503696" lon="12.902395986020565">
        <ele>76.28</ele>
        <time>2025-02-03T06:15:59.259Z</time>
      </trkpt>
      <trkpt lat="59.13214196451008" lon="12.902330942451954">
        <ele>76.33</ele>
        <time>2025-02-03T06:16:08.492Z</time>
      </trkpt>
      <trkpt lat="59.132103994488716" lon="12.902264976873994">
        <ele>76.37</ele>
        <time>2025-02-03T06:16:17.726Z</time>
      </trkpt>
      <trkpt lat="59.132063928991556" lon="12.902199933305383">
        <ele>76.41</ele>
        <time>2025-02-03T06:16:26.960Z</time>
      </trkpt>
      <trkpt lat="59.13202294148505" lon="12.902135979384184">
        <ele>76.45</ele>
        <time>2025-02-03T06:16:36.195Z</time>
      </trkpt>
      <trkpt lat="59.1319789364934" lon="12.902065990492702">
        <ele>76.5</ele>
        <time>2025-02-03T06:16:45.431Z</time>
      </trkpt>
      <trkpt lat="59.131932919844985" lon="12.901984937489033">
        <ele>76.54</ele>
        <time>2025-02-03T06:16:54.668Z</time>
      </trkpt>
      <trkpt lat="59.131885981187224" lon="12.901903968304396">
        <ele>76.59</ele>
        <time>2025-02-03T06:17:03.906Z</time>
      </trkpt>
      <trkpt lat="59.131841976195574" lon="12.901822999119759">
        <ele>76.63</ele>
        <time>2025-02-03T06:17:13.145Z</time>
      </trkpt>
      <trkpt lat="59.13179294206202" lon="12.901737922802567">
        <ele>76.67</ele>
        <time>2025-02-03T06:17:22.385Z</time>
      </trkpt>
      <trkpt lat="59.13174097426236" lon="12.90165695361793">
        <ele>76.71</ele>
        <time>2025-02-03T06:17:31.626Z</time>
      </trkpt>
      <trkpt lat="59.13168196566403" lon="12.901582941412926">
        <ele>76.75</ele>
        <time>2025-02-03T06:17:40.868Z</time>
      </trkpt>
      <trkpt lat="59.13161893375218" lon="12.901520999148488">
        <ele>76.79</ele>
        <time>2025-02-03T06:17:50.112Z</time>
      </trkpt>
      <trkpt lat="59.1315539740026" lon="12.901472970843315">
        <ele>76.83</ele>
        <time>2025-02-03T06:17:59.357Z</time>
      </trkpt>
      <trkpt lat="59.13148599676788" lon="12.901433994993567">
        <ele>76.87</ele>
        <time>2025-02-03T06:18:08.603Z</time>
      </trkpt>
      <trkpt lat="59.13142195902765" lon="12.901399964466691">
        <ele>76.91</ele>
        <time>2025-02-03T06:18:17.850Z</time>
      </trkpt>
      <trkpt lat="59.1313639562577" lon="12.901364928111434">
        <ele>76.96</ele>
        <time>2025-02-03T06:18:27.098Z</time>
      </trkpt>
      <trkpt lat="59.131309976801276" lon="12.901318995282054">
        <ele>77.0</ele>
        <time>2025-02-03T06:18:36.347Z</time>
      </trkpt>
      <trkpt lat="59.1312569193542" lon="12.90126895532012">
        <ele>77.03</ele>
        <time>2025-02-03T06:18:45.597Z</time>
      </trkpt>
      <trkpt lat="59.1312069632113" lon="12.901215981692076">
        <ele>77.07</ele>
        <time>2025-02-03T06:18:54.848Z</time>
      </trkpt>
      <trkpt lat="59.131159940734506" lon="12.901164935901761">
        <ele>77.11</ele>
        <time>2025-02-03T06:19:04.100Z</time>
      </trkpt>
      <trkpt lat="59.131115935742855" lon="12.901114979758859">
        <ele>77.14</ele>
        <time>2025-02-03T06:19:13.352Z</time>
      </trkpt>
      <trkpt lat="59.131074948236346" lon="12.901063933968544">
        <ele>77.18</ele>
        <time>2025-02-03T06:19:22.605Z</time>
      </trkpt>
      <trkpt lat="59.13103496655822" lon="12.901013977825642">
        <ele>77.22</ele>
        <time>2025-02-03T06:19:31.859Z</time>
      </trkpt>
      <trkpt lat="59.13099397905171" lon="12.900969972833991">
        <ele>77.26</ele>
        <time>2025-02-03T06:19:41.114Z</time>
      </trkpt>
      <trkpt lat="59.13094896823168" lon="12.90092596784234">
        <ele>77.3</ele>
        <time>2025-02-03T06:19:50.369Z</time>
      </trkpt>
      <trkpt lat="59.13090798072517" lon="12.900871988385916">
        <ele>77.33</ele>
        <time>2025-02-03T06:19:59.625Z</time>
      </trkpt>
      <trkpt lat="59.13087495602667" lon="12.900798982009292">
        <ele>77.37</ele>
        <time>2025-02-03T06:20:08.882Z</time>
      </trkpt>
      <trkpt lat="59.13085198961198" lon="12.900715917348862">
        <ele>77.41</ele>
        <time>2025-02-03T06:20:18.140Z</time>
      </trkpt>
      <trkpt lat="59.13082793354988" lon="12.900620950385928">
        <ele>77.45</ele>
        <time>2025-02-03T06:20:27.399Z</time>
      </trkpt>
      <trkpt lat="59.13080194965005" lon="12.900531934574246">
        <ele>77.5</ele>
        <time>2025-02-03T06:20:36.659Z</time>
      </trkpt>
      <trkpt lat="59.130772948265076" lon="12.900455994531512">
        <ele>77.54</ele>
        <time>2025-02-03T06:20:45.919Z</time>
      </trkpt>
      <trkpt lat="59.13073598407209" lon="12.900422969833016">
        <ele>77.59</ele>
        <time>2025-02-03T06:20:55.180Z</time>
      </trkpt>
      <trkpt lat="59.13068996742368" lon="12.900425987318158">
        <ele>77.63</ele>
        <time>2025-02-03T06:21:04.442Z</time>
      </trkpt>
      <trkpt lat="59.130637999624014" lon="12.900456916540861">
        <ele>77.68</ele>
        <time>2025-02-03T06:21:13.705Z</time>
      </trkpt>
      <trkpt lat="59.13058594800532" lon="12.900497987866402">
        <ele>77.72</ele>
        <time>2025-02-03T06:21:22.968Z</time>
      </trkpt>
      <trkpt lat="59.13053096272051" lon="12.900543920695782">
        <ele>77.77</ele>
        <time>2025-02-03T06:21:32.232Z</time>
      </trkpt>
      <trkpt lat="59.13047597743571" lon="12.900591949000955">
        <ele>77.82</ele>
        <time>2025-02-03T06:21:41.497Z</time>
      </trkpt>
      <trkpt lat="59.13041797466576" lon="12.900636959820986">
        <ele>77.87</ele>
        <time>2025-02-03T06:21:50.763Z</time>
      </trkpt>
      <trkpt lat="59.13035796023905" lon="12.900679958984256">
        <ele>77.91</ele>
        <time>2025-02-03T06:22:00.030Z</time>
      </trkpt>
      <trkpt lat="59.130297945812345" lon="12.900723963975906">
        <ele>77.96</ele>
        <time>2025-02-03T06:22:09.298Z</time>
      </trkpt>
      <trkpt lat="59.130235919728875" lon="12.900767968967557">
        <ele>78.01</ele>
        <time>2025-02-03T06:22:18.568Z</time>
      </trkpt>
      <trkpt lat="59.13017397746444" lon="12.90081499144435">
        <ele>78.06</ele>
        <time>2025-02-03T06:22:27.839Z</time>
      </trkpt>
      <trkpt lat="59.13011295720935" lon="12.90086193010211">
        <ele>78.12</ele>
        <time>2025-02-03T06:22:37.111Z</time>
      </trkpt>
      <trkpt lat="59.13005294278264" lon="12.900911970064044">
        <ele>78.17</ele>
        <time>2025-02-03T06:22:46.384Z</time>
      </trkpt>
      <trkpt lat="59.12999091669917" lon="12.900956980884075">
        <ele>78.23</ele>
        <time>2025-02-03T06:22:55.658Z</time>
      </trkpt>
      <trkpt lat="59.129929980263114" lon="12.901002997532487">
        <ele>78.29</ele>
        <time>2025-02-03T06:23:04.933Z</time>
      </trkpt>
      <trkpt lat="59.12987197749317" lon="12.901067957282066">
        <ele>78.35</ele>
        <time>2025-02-03T06:23:14.209Z</time>
      </trkpt>
      <trkpt lat="59.12982294335961" lon="12.901152949780226">
        <ele>78.42</ele>
        <time>2025-02-03T06:23:23.486Z</time>
      </trkpt>
      <trkpt lat="59.129784973338246" lon="12.901259986683726">
        <ele>78.49</ele>
        <time>2025-02-03T06:23:32.764Z</time>
      </trkpt>
      <trkpt lat="59.12975697778165" lon="12.90137792006135">
        <ele>78.55</ele>
        <time>2025-02-03T06:23:42.043Z</time>
      </trkpt>
      <trkpt lat="59.1297319997102" lon="12.901499960571527">
        <ele>78.61</ele>
        <time>2025-02-03T06:23:51.323Z</time>
      </trkpt>
      <trkpt lat="59.12970492616296" lon="12.901629963889718">
        <ele>78.69</ele>
        <time>2025-02-03T06:24:00.604Z</time>
      </trkpt>
      <trkpt lat="59.129674918949604" lon="12.901756949722767">
        <ele>78.76</ele>
        <time>2025-02-03T06:24:09.886Z</time>
      </trkpt>
      <trkpt lat="59.129651952534914" lon="12.901884941384196">
        <ele>78.83</ele>
        <time>2025-02-03T06:24:19.170Z</time>
      </trkpt>
      <trkpt lat="59.129633931443095" lon="12.902011927217245">
        <ele>78.9</ele>
        <time>2025-02-03T06:24:28.455Z</time>
      </trkpt>
      <trkpt lat="59.12961498834193" lon="12.902140924707055">
        <ele>78.96</ele>
        <time>2025-02-03T06:24:37.741Z</time>
      </trkpt>
      <trkpt lat="59.12959596142173" lon="12.902274951338768">
        <ele>79.03</ele>
        <time>2025-02-03T06:24:47.028Z</time>
      </trkpt>
      <trkpt lat="59.12957592867315" lon="12.902412917464972">
        <ele>79.1</ele>
        <time>2025-02-03T06:24:56.316Z</time>
      </trkpt>
      <trkpt lat="59.12955497391522" lon="12.902549961581826">
        <ele>79.16</ele>
        <time>2025-02-03T06:25:05.605Z</time>
      </trkpt>
      <trkpt lat="59.12953393533826" lon="12.90268893353641">
        <ele>79.23</ele>
        <time>2025-02-03T06:25:14.895Z</time>
      </trkpt>
      <trkpt lat="59.12951096892357" lon="12.902822960168123">
        <ele>79.3</ele>
        <time>2025-02-03T06:25:24.187Z</time>
      </trkpt>
      <trkpt lat="59.12948791868985" lon="12.902957992628217">
        <ele>79.37</ele>
        <time>2025-02-03T06:25:33.480Z</time>
      </trkpt>
      <trkpt lat="59.12946897558868" lon="12.903089923784137">
        <ele>79.45</ele>
        <time>2025-02-03T06:25:42.774Z</time>
      </trkpt>
      <trkpt lat="59.1294489428401" lon="12.903212970122695">
        <ele>79.52</ele>
        <time>2025-02-03T06:25:52.069Z</time>
      </trkpt>
      <trkpt lat="59.129418935626745" lon="12.903317995369434">
        <ele>79.6</ele>
        <time>2025-02-03T06:26:01.365Z</time>
      </trkpt>
      <trkpt lat="59.129374930635095" lon="12.903386978432536">
        <ele>79.67</ele>
        <time>2025-02-03T06:26:10.662Z</time>
      </trkpt>
      <trkpt lat="59.12931793369353" lon="12.903391923755407">
        <ele>79.74</ele>
        <time>2025-02-03T06:26:19.960Z</time>
      </trkpt>
      <trkpt lat="59.12925993092358" lon="12.903359988704324">
        <ele>79.82</ele>
        <time>2025-02-03T06:26:29.259Z</time>
      </trkpt>
      <trkpt lat="59.129201928153634" lon="12.903323946520686">
        <ele>79.89</ele>
        <time>2025-02-03T06:26:38.559Z</time>
      </trkpt>
      <trkpt lat="59.12914199754596" lon="12.903292933478951">
        <ele>79.97</ele>
        <time>2025-02-03T06:26:47.860Z</time>
      </trkpt>
      <trkpt lat="59.12907997146249" lon="12.9032679554075">
        <ele>80.05</ele>
        <time>2025-02-03T06:26:57.162Z</time>
      </trkpt>
      <trkpt lat="59.1290189512074" lon="12.90324792265892">
        <ele>80.12</ele>
        <time>2025-02-03T06:27:06.465Z</time>
      </trkpt>
      <trkpt lat="59.12895893678069" lon="12.903238954022527">
        <ele>80.2</ele>
        <time>2025-02-03T06:27:15.769Z</time>
      </trkpt>
      <trkpt lat="59.12889498285949" lon="12.903233924880624">
        <ele>80.28</ele>
        <time>2025-02-03T06:27:25.074Z</time>
      </trkpt>
      <trkpt lat="59.128834968432784" lon="12.903234930709004">
        <ele>80.35</ele>
        <time>2025-02-03T06:27:34.380Z</time>
      </trkpt>
      <trkpt lat="59.128774954006076" lon="12.903237948194146">
        <ele>80.43</ele>
        <time>2025-02-03T06:27:43.687Z</time>
      </trkpt>
      <trkpt lat="59.12871795706451" lon="12.903242977336049">
        <ele>80.51</ele>
        <time>2025-02-03T06:27:52.995Z</time>
      </trkpt>
      <trkpt lat="59.128662971779704" lon="12.90324691683054">
        <ele>80.58</ele>
        <time>2025-02-03T06:28:02.303Z</time>
      </trkpt>
      <trkpt lat="59.12860899232328" lon="12.90324792265892">
        <ele>80.66</ele>
        <time>2025-02-03T06:28:11.612Z</time>
      </trkpt>
      <trkpt lat="59.12855392321944" lon="12.90324691683054">
        <ele>80.74</ele>
        <time>2025-02-03T06:28:20.922Z</time>
      </trkpt>
      <trkpt lat="59.12849893793464" lon="12.903231997042894">
        <ele>80.81</ele>
        <time>2025-02-03T06:28:30.233Z</time>
      </trkpt>
      <trkpt lat="59.128449987620115" lon="12.903191931545734">
        <ele>80.89</ele>
        <time>2025-02-03T06:28:39.545Z</time>
      </trkpt>
      <trkpt lat="59.1284129396081" lon="12.903112974017859">
        <ele>80.96</ele>
        <time>2025-02-03T06:28:48.858Z</time>
      </trkpt>
      <trkpt lat="59.12839097902179" lon="12.9030089545995">
        <ele>81.03</ele>
        <time>2025-02-03T06:28:58.172Z</time>
      </trkpt>
      <trkpt lat="59.12837798707187" lon="12.902893954887986">
        <ele>81.1</ele>
        <time>2025-02-03T06:29:07.487Z</time>
      </trkpt>
      <trkpt lat="59.128366922959685" lon="12.902777949348092">
        <ele>81.18</ele>
        <time>2025-02-03T06:29:16.803Z</time>
      </trkpt>
      <trkpt lat="59.12835493683815" lon="12.902658926323056">
        <ele>81.26</ele>
        <time>2025-02-03T06:29:26.120Z</time>
      </trkpt>
      <trkpt lat="59.12833993323147" lon="12.902538981288671">
        <ele>81.34</ele>
        <time>2025-02-03T06:29:35.438Z</time>
      </trkpt>
      <trkpt lat="59.128323923796415" lon="12.902420964092016">
        <ele>81.41</ele>
        <time>2025-02-03T06:29:44.757Z</time>
      </trkpt>
      <trkpt lat="59.12830699235201" lon="12.90230194106698">
        <ele>81.49</ele>
        <time>2025-02-03T06:29:54.077Z</time>
      </trkpt>
      <trkpt lat="59.12829198874533" lon="12.902183923870325">
        <ele>81.57</ele>
        <time>2025-02-03T06:30:03.398Z</time>
      </trkpt>
      <trkpt lat="59.128277990967035" lon="12.902065990492702">
        <ele>81.65</ele>
        <time>2025-02-03T06:30:12.720Z</time>
      </trkpt>
      <trkpt lat="59.12826399318874" lon="12.901952918618917">
        <ele>81.73</ele>
        <time>2025-02-03T06:30:22.043Z</time>
      </trkpt>
      <trkpt lat="59.12824999541044" lon="12.901837918907404">
        <ele>81.8</ele>
        <time>2025-02-03T06:30:31.367Z</time>
      </trkpt>
      <trkpt lat="59.128233985975385" lon="12.901725936681032">
        <ele>81.87</ele>
        <time>2025-02-03T06:30:40.692Z</time>
      </trkpt>
      <trkpt lat="59.12821898236871" lon="12.901617977768183">
        <ele>81.95</ele>
        <time>2025-02-03T06:30:50.018Z</time>
      </trkpt>
      <trkpt lat="59.12820699624717" lon="12.901509935036302">
        <ele>82.02</ele>
        <time>2025-02-03T06:30:59.344Z</time>
      </trkpt>
      <trkpt lat="59.128192998468876" lon="12.901404993608594">
        <ele>82.09</ele>
        <time>2025-02-03T06:31:08.671Z</time>
      </trkpt>
      <trkpt lat="59.12817397154868" lon="12.901300974190235">
        <ele>82.16</ele>
        <time>2025-02-03T06:31:17.999Z</time>
      </trkpt>
      <trkpt lat="59.12815595045686" lon="12.901200978085399">
        <ele>82.22</ele>
        <time>2025-02-03T06:31:27.328Z</time>
      </trkpt>
      <trkpt lat="59.12813692353666" lon="12.901102993637323">
        <ele>82.29</ele>
        <time>2025-02-03T06:31:36.658Z</time>
      </trkpt>
      <trkpt lat="59.12811798043549" lon="12.901007942855358">
        <ele>82.35</ele>
        <time>2025-02-03T06:31:45.989Z</time>
      </trkpt>
      <trkpt lat="59.12809694185853" lon="12.900912975892425">
        <ele>82.41</ele>
        <time>2025-02-03T06:31:55.321Z</time>
      </trkpt>
      <trkpt lat="59.12807498127222" lon="12.90081993676722">
        <ele>82.47</ele>
        <time>2025-02-03T06:32:04.654Z</time>
      </trkpt>
      <trkpt lat="59.12804698571563" lon="12.900726981461048">
        <ele>82.53</ele>
        <time>2025-02-03T06:32:13.987Z</time>
      </trkpt>
      <trkpt lat="59.128021923825145" lon="12.900635953992605">
        <ele>82.58</ele>
        <time>2025-02-03T06:32:23.321Z</time>
      </trkpt>
      <trkpt lat="59.1280019748956" lon="12.900539981201291">
        <ele>82.64</ele>
        <time>2025-02-03T06:32:32.656Z</time>
      </trkpt>
      <trkpt lat="59.12798194214702" lon="12.900444930419326">
        <ele>82.69</ele>
        <time>2025-02-03T06:32:41.992Z</time>
      </trkpt>
      <trkpt lat="59.12795998156071" lon="12.90034694597125">
        <ele>82.74</ele>
        <time>2025-02-03T06:32:51.329Z</time>
      </trkpt>
      <trkpt lat="59.127935925498605" lon="12.900250973179936">
        <ele>82.79</ele>
        <time>2025-02-03T06:33:00.667Z</time>
      </trkpt>
      <trkpt lat="59.12790792994201" lon="12.900155922397971">
        <ele>82.83</ele>
        <time>2025-02-03T06:33:10.006Z</time>
      </trkpt>
      <trkpt lat="59.12787993438542" lon="12.900062967091799">
        <ele>82.87</ele>
        <time>2025-02-03T06:33:19.346Z</time>
      </trkpt>
      <trkpt lat="59.12785395048559" lon="12.899970933794975">
        <ele>82.9</ele>
        <time>2025-02-03T06:33:28.686Z</time>
      </trkpt>
      <trkpt lat="59.12782997824252" lon="12.899876972660422">
        <ele>82.93</ele>
        <time>2025-02-03T06:33:38.027Z</time>
      </trkpt>
      <trkpt lat="59.127803994342685" lon="12.899783933535218">
        <ele>82.97</ele>
        <time>2025-02-03T06:33:47.369Z</time>
      </trkpt>
      <trkpt lat="59.1277789324522" lon="12.899690978229046">
        <ele>83.0</ele>
        <time>2025-02-03T06:33:56.712Z</time>
      </trkpt>
      <trkpt lat="59.12775294855237" lon="12.899593999609351">
        <ele>83.03</ele>
        <time>2025-02-03T06:34:06.056Z</time>
      </trkpt>
      <trkpt lat="59.12772495299578" lon="12.899494925513864">
        <ele>83.06</ele>
        <time>2025-02-03T06:34:15.401Z</time>
      </trkpt>
      <trkpt lat="59.127697963267565" lon="12.899397946894169">
        <ele>83.08</ele>
        <time>2025-02-03T06:34:24.747Z</time>
      </trkpt>
      <trkpt lat="59.12766795605421" lon="12.899301974102855">
        <ele>83.1</ele>
        <time>2025-02-03T06:34:34.094Z</time>
      </trkpt>
      <trkpt lat="59.12763895466924" lon="12.899201977998018">
        <ele>83.12</ele>
        <time>2025-02-03T06:34:43.442Z</time>
      </trkpt>
      <trkpt lat="59.127612970769405" lon="12.899101981893182">
        <ele>83.13</ele>
        <time>2025-02-03T06:34:52.791Z</time>
      </trkpt>
      <trkpt lat="59.127588998526335" lon="12.898998968303204">
        <ele>83.14</ele>
        <time>2025-02-03T06:35:02.141Z</time>
      </trkpt>
      <trkpt lat="59.12756594829261" lon="12.898890925571322">
        <ele>83.15</ele>
        <time>2025-02-03T06:35:11.491Z</time>
      </trkpt>
      <trkpt lat="59.127543987706304" lon="12.898772992193699">
        <ele>83.15</ele>
        <time>2025-02-03T06:35:20.843Z</time>
      </trkpt>
      <trkpt lat="59.127524960786104" lon="12.898652963340282">
        <ele>83.16</ele>
        <time>2025-02-03T06:35:30.196Z</time>
      </trkpt>
      <trkpt lat="59.127504928037524" lon="12.898524971678853">
        <ele>83.15</ele>
        <time>2025-02-03T06:35:39.550Z</time>
      </trkpt>
      <trkpt lat="59.12748598493636" lon="12.898394968360662">
        <ele>83.15</ele>
        <time>2025-02-03T06:35:48.905Z</time>
      </trkpt>
      <trkpt lat="59.12746796384454" lon="12.898254990577698">
        <ele>83.14</ele>
        <time>2025-02-03T06:35:58.261Z</time>
      </trkpt>
      <trkpt lat="59.12745396606624" lon="12.89810998365283">
        <ele>83.13</ele>
        <time>2025-02-03T06:36:07.618Z</time>
      </trkpt>
      <trkpt lat="59.12744298577309" lon="12.89796095341444">
        <ele>83.12</ele>
        <time>2025-02-03T06:36:16.976Z</time>
      </trkpt>
      <trkpt lat="59.127438962459564" lon="12.89781091734767">
        <ele>83.1</ele>
        <time>2025-02-03T06:36:26.336Z</time>
      </trkpt>
      <trkpt lat="59.127440974116325" lon="12.897663982585073">
        <ele>83.08</ele>
        <time>2025-02-03T06:36:35.697Z</time>
      </trkpt>
      <trkpt lat="59.12744499742985" lon="12.897514952346683">
        <ele>83.06</ele>
        <time>2025-02-03T06:36:45.059Z</time>
      </trkpt>
      <trkpt lat="59.1274509485811" lon="12.897367933765054">
        <ele>83.04</ele>
        <time>2025-02-03T06:36:54.422Z</time>
      </trkpt>
      <trkpt lat="59.127457989379764" lon="12.897216975688934">
        <ele>83.01</ele>
        <time>2025-02-03T06:37:03.787Z</time>
      </trkpt>
      <trkpt lat="59.12746595218778" lon="12.897061994299293">
        <ele>82.98</ele>
        <time>2025-02-03T06:37:13.153Z</time>
      </trkpt>
      <trkpt lat="59.12747693248093" lon="12.896905923262239">
        <ele>82.96</ele>
        <time>2025-02-03T06:37:22.520Z</time>
      </trkpt>
      <trkpt lat="59.12748799659312" lon="12.896747924387455">
        <ele>82.92</ele>
        <time>2025-02-03T06:37:31.888Z</time>
      </trkpt>
      <trkpt lat="59.12749998271465" lon="12.89658891968429">
        <ele>82.88</ele>
        <time>2025-02-03T06:37:41.258Z</time>
      </trkpt>
      <trkpt lat="59.12751297466457" lon="12.896425975486636">
        <ele>82.85</ele>
        <time>2025-02-03T06:37:50.629Z</time>
      </trkpt>
      <trkpt lat="59.12752294912934" lon="12.896258924156427">
        <ele>82.8</ele>
        <time>2025-02-03T06:38:00.002Z</time>
      </trkpt>
      <trkpt lat="59.12753292359412" lon="12.896087933331728">
        <ele>82.76</ele>
        <time>2025-02-03T06:38:09.376Z</time>
      </trkpt>
      <trkpt lat="59.12754298187792" lon="12.895912919193506">
        <ele>82.72</ele>
        <time>2025-02-03T06:38:18.751Z</time>
      </trkpt>
      <trkpt lat="59.127550944685936" lon="12.895735977217555">
        <ele>82.67</ele>
        <time>2025-02-03T06:38:28.128Z</time>
      </trkpt>
      <trkpt lat="59.12755899131298" lon="12.895561968907714">
        <ele>82.62</ele>
        <time>2025-02-03T06:38:37.506Z</time>
      </trkpt>
      <trkpt lat="59.127568965777755" lon="12.895395923405886">
        <ele>82.58</ele>
        <time>2025-02-03T06:38:46.886Z</time>
      </trkpt>
      <trkpt lat="59.12757994607091" lon="12.89522996172309">
        <ele>82.53</ele>
        <time>2025-02-03T06:38:56.267Z</time>
      </trkpt>
      <trkpt lat="59.12759796716273" lon="12.895067939534783">
        <ele>82.47</ele>
        <time>2025-02-03T06:39:05.649Z</time>
      </trkpt>
      <trkpt lat="59.12761598825455" lon="12.89490893483162">
        <ele>82.42</ele>
        <time>2025-02-03T06:39:15.033Z</time>
      </trkpt>
      <trkpt lat="59.127630991861224" lon="12.894745990633965">
        <ele>82.36</ele>
        <time>2025-02-03T06:39:24.418Z</time>
      </trkpt>
      <trkpt lat="59.12764197215438" lon="12.894578939303756">
        <ele>82.3</ele>
        <time>2025-02-03T06:39:33.805Z</time>
      </trkpt>
      <trkpt lat="59.12765194661915" lon="12.894409960135818">
        <ele>82.24</ele>
        <time>2025-02-03T06:39:43.193Z</time>
      </trkpt>
      <trkpt lat="59.12766292691231" lon="12.894239975139499">
        <ele>82.18</ele>
        <time>2025-02-03T06:39:52.582Z</time>
      </trkpt>
      <trkpt lat="59.127672985196114" lon="12.894067978486419">
        <ele>82.12</ele>
        <time>2025-02-03T06:40:01.973Z</time>
      </trkpt>
      <trkpt lat="59.12768295966089" lon="12.893894976004958">
        <ele>82.06</ele>
        <time>2025-02-03T06:40:11.365Z</time>
      </trkpt>
      <trkpt lat="59.127696957439184" lon="12.893721973523498">
        <ele>82.0</ele>
        <time>2025-02-03T06:40:20.759Z</time>
      </trkpt>
      <trkpt lat="59.12770894356072" lon="12.893545953556895">
        <ele>81.93</ele>
        <time>2025-02-03T06:40:30.154Z</time>
      </trkpt>
      <trkpt lat="59.127719923853874" lon="12.893368927761912">
        <ele>81.87</ele>
        <time>2025-02-03T06:40:39.551Z</time>
      </trkpt>
      <trkpt lat="59.12772998213768" lon="12.893192991614342">
        <ele>81.8</ele>
        <time>2025-02-03T06:40:48.949Z</time>
      </trkpt>
      <trkpt lat="59.127739956602454" lon="12.893014959990978">
        <ele>81.73</ele>
        <time>2025-02-03T06:40:58.349Z</time>
      </trkpt>
      <trkpt lat="59.12775194272399" lon="12.892838940024376">
        <ele>81.66</ele>
        <time>2025-02-03T06:41:07.750Z</time>
      </trkpt>
      <trkpt lat="59.127764934673905" lon="12.892668955028057">
        <ele>81.59</ele>
        <time>2025-02-03T06:41:17.152Z</time>
      </trkpt>
      <trkpt lat="59.12777599878609" lon="12.892499975860119">
        <ele>81.52</ele>
        <time>2025-02-03T06:41:26.556Z</time>
      </trkpt>
      <trkpt lat="59.127783961594105" lon="12.89233393035829">
        <ele>81.44</ele>
        <time>2025-02-03T06:41:35.961Z</time>
      </trkpt>
      <trkpt lat="59.12779192440212" lon="12.892166962847114">
        <ele>81.38</ele>
        <time>2025-02-03T06:41:45.368Z</time>
      </trkpt>
      <trkpt lat="59.1277979593724" lon="12.89200996980071">
        <ele>81.3</ele>
        <time>2025-02-03T06:41:54.776Z</time>
      </trkpt>
      <trkpt lat="59.127802988514304" lon="12.89185993373394">
        <ele>81.23</ele>
        <time>2025-02-03T06:42:04.185Z</time>
      </trkpt>
      <trkpt lat="59.127808939665556" lon="12.891710987314582">
        <ele>81.15</ele>
        <time>2025-02-03T06:42:13.595Z</time>
      </trkpt>
      <trkpt lat="59.12781296297908" lon="12.891566986218095">
        <ele>81.07</ele>
        <time>2025-02-03T06:42:23.007Z</time>
      </trkpt>
      <trkpt lat="59.12781296297908" lon="12.891424996778369">
        <ele>81.0</ele>
        <time>2025-02-03T06:42:32.420Z</time>
      </trkpt>
      <trkpt lat="59.12780994549394" lon="12.891283929347992">
        <ele>80.92</ele>
        <time>2025-02-03T06:42:41.834Z</time>
      </trkpt>
      <trkpt lat="59.127803994342685" lon="12.891140934079885">
        <ele>80.84</ele>
        <time>2025-02-03T06:42:51.249Z</time>
      </trkpt>
      <trkpt lat="59.12779896520078" lon="12.890990981832147">
        <ele>80.77</ele>
        <time>2025-02-03T06:43:00.665Z</time>
      </trkpt>
      <trkpt lat="59.12778999656439" lon="12.890833988785744">
        <ele>80.68</ele>
        <time>2025-02-03T06:43:10.083Z</time>
      </trkpt>
      <trkpt lat="59.12778094410896" lon="12.89067598991096">
        <ele>80.59</ele>
        <time>2025-02-03T06:43:19.502Z</time>
      </trkpt>
      <trkpt lat="59.127764934673905" lon="12.890508938580751">
        <ele>80.51</ele>
        <time>2025-02-03T06:43:28.922Z</time>
      </trkpt>
      <trkpt lat="59.12774791941047" lon="12.890339959412813">
        <ele>80.43</ele>
        <time>2025-02-03T06:43:38.344Z</time>
      </trkpt>
      <trkpt lat="59.1277289763093" lon="12.89016293361783">
        <ele>80.34</ele>
        <time>2025-02-03T06:43:47.767Z</time>
      </trkpt>
      <trkpt lat="59.1277099493891" lon="12.889978950843215">
        <ele>80.25</ele>
        <time>2025-02-03T06:43:57.192Z</time>
      </trkpt>
      <trkpt lat="59.12769192829728" lon="12.889792956411839">
        <ele>80.16</ele>
        <time>2025-02-03T06:44:06.618Z</time>
      </trkpt>
      <trkpt lat="59.127672985196114" lon="12.88960193283856">
        <ele>80.07</ele>
        <time>2025-02-03T06:44:16.046Z</time>
      </trkpt>
      <trkpt lat="59.12765094079077" lon="12.88940797559917">
        <ele>79.98</ele>
        <time>2025-02-03T06:44:25.476Z</time>
      </trkpt>
      <trkpt lat="59.1276269685477" lon="12.889210917055607">
        <ele>79.89</ele>
        <time>2025-02-03T06:44:34.907Z</time>
      </trkpt>
      <trkpt lat="59.12760299630463" lon="12.889009919017553">
        <ele>79.8</ele>
        <time>2025-02-03T06:44:44.340Z</time>
      </trkpt>
      <trkpt lat="59.12757994607091" lon="12.888803975656629">
        <ele>79.71</ele>
        <time>2025-02-03T06:44:53.775Z</time>
      </trkpt>
      <trkpt lat="59.12755597382784" lon="12.888595936819911">
        <ele>79.61</ele>
        <time>2025-02-03T06:45:03.211Z</time>
      </trkpt>
      <trkpt lat="59.12752998992801" lon="12.888385970145464">
        <ele>79.52</ele>
        <time>2025-02-03T06:45:12.649Z</time>
      </trkpt>
      <trkpt lat="59.127504928037524" lon="12.888174997642636">
        <ele>79.43</ele>
        <time>2025-02-03T06:45:22.089Z</time>
      </trkpt>
      <trkpt lat="59.12747793830931" lon="12.887961929664016">
        <ele>79.35</ele>
        <time>2025-02-03T06:45:31.531Z</time>
      </trkpt>
      <trkpt lat="59.1274509485811" lon="12.887746933847666">
        <ele>79.27</ele>
        <time>2025-02-03T06:45:40.975Z</time>
      </trkpt>
      <trkpt lat="59.12742395885289" lon="12.887526992708445">
        <ele>79.19</ele>
        <time>2025-02-03T06:45:50.420Z</time>
      </trkpt>
      <trkpt lat="59.127396969124675" lon="12.887305961921811">
        <ele>79.12</ele>
        <time>2025-02-03T06:45:59.867Z</time>
      </trkpt>
      <trkpt lat="59.12736997939646" lon="12.887083925306797">
        <ele>79.04</ele>
        <time>2025-02-03T06:46:09.316Z</time>
      </trkpt>
      <trkpt lat="59.12734198383987" lon="12.886861972510815">
        <ele>78.96</ele>
        <time>2025-02-03T06:46:18.767Z</time>
      </trkpt>
      <trkpt lat="59.12731599994004" lon="12.88663792423904">
        <ele>78.88</ele>
        <time>2025-02-03T06:46:28.220Z</time>
      </trkpt>
      <trkpt lat="59.127289932221174" lon="12.886411948129535">
        <ele>78.8</ele>
        <time>2025-02-03T06:46:37.675Z</time>
      </trkpt>
      <trkpt lat="59.12726193666458" lon="12.886182954534888">
        <ele>78.71</ele>
        <time>2025-02-03T06:46:47.132Z</time>
      </trkpt>
      <trkpt lat="59.12723293527961" lon="12.885952955111861">
        <ele>78.63</ele>
        <time>2025-02-03T06:46:56.591Z</time>
      </trkpt>
      <trkpt lat="59.127203933894634" lon="12.885722955688834">
        <ele>78.55</ele>
        <time>2025-02-03T06:47:06.052Z</time>
      </trkpt>
      <trkpt lat="59.12717694416642" lon="12.885491950437427">
        <ele>78.47</ele>
        <time>2025-02-03T06:47:15.515Z</time>
      </trkpt>
      <trkpt lat="59.12714995443821" lon="12.8852619510144">
        <ele>78.39</ele>
        <time>2025-02-03T06:47:24.980Z</time>
      </trkpt>
      <trkpt lat="59.12712397053838" lon="12.885036980733275">
        <ele>78.31</ele>
        <time>2025-02-03T06:47:34.447Z</time>
      </trkpt>
      <trkpt lat="59.12709999829531" lon="12.884816955775023">
        <ele>78.23</ele>
        <time>2025-02-03T06:47:43.915Z</time>
      </trkpt>
      <trkpt lat="59.127075942233205" lon="12.884605983272195">
        <ele>78.17</ele>
        <time>2025-02-03T06:47:53.385Z</time>
      </trkpt>
      <trkpt lat="59.127052975818515" lon="12.88440297357738">
        <ele>78.1</ele>
        <time>2025-02-03T06:48:02.857Z</time>
      </trkpt>
      <trkpt lat="59.127030931413174" lon="12.884208932518959">
        <ele>78.03</ele>
        <time>2025-02-03T06:48:12.331Z</time>
      </trkpt>
      <trkpt lat="59.127011988312006" lon="12.884023943915963">
        <ele>77.96</ele>
        <time>2025-02-03T06:48:21.806Z</time>
      </trkpt>
      <trkpt lat="59.12699597887695" lon="12.88384792394936">
        <ele>77.89</ele>
        <time>2025-02-03T06:48:31.283Z</time>
      </trkpt>
      <trkpt lat="59.12698399275541" lon="12.883678944781423">
        <ele>77.83</ele>
        <time>2025-02-03T06:48:40.761Z</time>
      </trkpt>
      <trkpt lat="59.12697393447161" lon="12.883516922593117">
        <ele>77.76</ele>
        <time>2025-02-03T06:48:50.240Z</time>
      </trkpt>
      <trkpt lat="59.126965971663594" lon="12.883360935375094">
        <ele>77.69</ele>
        <time>2025-02-03T06:48:59.721Z</time>
      </trkpt>
      <trkpt lat="59.12695993669331" lon="12.883208971470594">
        <ele>77.62</ele>
        <time>2025-02-03T06:49:09.203Z</time>
      </trkpt>
      <trkpt lat="59.12695297971368" lon="12.883056923747063">
        <ele>77.56</ele>
        <time>2025-02-03T06:49:18.686Z</time>
      </trkpt>
      <trkpt lat="59.12693697027862" lon="12.882907977327704">
        <ele>77.49</ele>
        <time>2025-02-03T06:49:28.170Z</time>
      </trkpt>
      <trkpt lat="59.12690897472203" lon="12.882760958746076">
        <ele>77.43</ele>
        <time>2025-02-03T06:49:37.656Z</time>
      </trkpt>
      <trkpt lat="59.12687695585191" lon="12.882607989013195">
        <ele>77.36</ele>
        <time>2025-02-03T06:49:47.143Z</time>
      </trkpt>
      <trkpt lat="59.12684393115342" lon="12.882451917976141">
        <ele>77.3</ele>
        <time>2025-02-03T06:49:56.631Z</time>
      </trkpt>
      <trkpt lat="59.12681492976844" lon="12.882288973778486">
        <ele>77.24</ele>
        <time>2025-02-03T06:50:06.121Z</time>
      </trkpt>
      <trkpt lat="59.12679095752537" lon="12.882120916619897">
        <ele>77.18</ele>
        <time>2025-02-03T06:50:15.612Z</time>
      </trkpt>
      <trkpt lat="59.12676899693906" lon="12.881950931623578">
        <ele>77.12</ele>
        <time>2025-02-03T06:50:25.105Z</time>
      </trkpt>
      <trkpt lat="59.12674594670534" lon="12.88178195245564">
        <ele>77.06</ele>
        <time>2025-02-03T06:50:34.599Z</time>
      </trkpt>
      <trkpt lat="59.12672398611903" lon="12.881611967459321">
        <ele>77.0</ele>
        <time>2025-02-03T06:50:44.095Z</time>
      </trkpt>
      <trkpt lat="59.12670395337045" lon="12.881439970806241">
        <ele>76.94</ele>
        <time>2025-02-03T06:50:53.592Z</time>
      </trkpt>
      <trkpt lat="59.12668492645025" lon="12.8812659624964">
        <ele>76.88</ele>
        <time>2025-02-03T06:51:03.091Z</time>
      </trkpt>
      <trkpt lat="59.126664977520704" lon="12.88109396584332">
        <ele>76.82</ele>
        <time>2025-02-03T06:51:12.591Z</time>
      </trkpt>
      <trkpt lat="59.126645950600505" lon="12.880923980847001">
        <ele>76.76</ele>
        <time>2025-02-03T06:51:22.092Z</time>
      </trkpt>
      <trkpt lat="59.126625917851925" lon="12.880755923688412">
        <ele>76.69</ele>
        <time>2025-02-03T06:51:31.595Z</time>
      </trkpt>
      <trkpt lat="59.12660798057914" lon="12.880590967833996">
        <ele>76.62</ele>
        <time>2025-02-03T06:51:41.099Z</time>
      </trkpt>
      <trkpt lat="59.12658694200218" lon="12.88042793981731">
        <ele>76.55</ele>
        <time>2025-02-03T06:51:50.605Z</time>
      </trkpt>
      <trkpt lat="59.12656699307263" lon="12.880266923457384">
        <ele>76.48</ele>
        <time>2025-02-03T06:52:00.112Z</time>
      </trkpt>
      <trkpt lat="59.12654696032405" lon="12.88010791875422">
        <ele>76.42</ele>
        <time>2025-02-03T06:52:09.620Z</time>
      </trkpt>
      <trkpt lat="59.12652692757547" lon="12.879947992041707">
        <ele>76.36</ele>
        <time>2025-02-03T06:52:19.130Z</time>
      </trkpt>
      <trkpt lat="59.12650396116078" lon="12.879791921004653">
        <ele>76.29</ele>
        <time>2025-02-03T06:52:28.641Z</time>
      </trkpt>
      <trkpt lat="59.12648099474609" lon="12.879636939615011">
        <ele>76.24</ele>
        <time>2025-02-03T06:52:38.153Z</time>
      </trkpt>
      <trkpt lat="59.12645693868399" lon="12.879480952396989">
        <ele>76.18</ele>
        <time>2025-02-03T06:52:47.667Z</time>
      </trkpt>
      <trkpt lat="59.126431960612535" lon="12.879323959350586">
        <ele>76.13</ele>
        <time>2025-02-03T06:52:57.182Z</time>
      </trkpt>
      <trkpt lat="59.12640396505594" lon="12.879167972132564">
        <ele>76.07</ele>
        <time>2025-02-03T06:53:06.698Z</time>
      </trkpt>
      <trkpt lat="59.12637697532773" lon="12.879012990742922">
        <ele>76.01</ele>
        <time>2025-02-03T06:53:16.216Z</time>
      </trkpt>
      <trkpt lat="59.12634897977114" lon="12.878857925534248">
        <ele>75.94</ele>
        <time>2025-02-03T06:53:25.735Z</time>
      </trkpt>
      <trkpt lat="59.12631595507264" lon="12.878696992993355">
        <ele>75.88</ele>
        <time>2025-02-03T06:53:35.256Z</time>
      </trkpt>
      <trkpt lat="59.12628594785929" lon="12.878538994118571">
        <ele>75.81</ele>
        <time>2025-02-03T06:53:44.778Z</time>
      </trkpt>
      <trkpt lat="59.126256946474314" lon="12.878384934738278">
        <ele>75.74</ele>
        <time>2025-02-03T06:53:54.301Z</time>
      </trkpt>
      <trkpt lat="59.12622593343258" lon="12.878230959177017">
        <ele>75.68</ele>
        <time>2025-02-03T06:54:03.826Z</time>
      </trkpt>
      <trkpt lat="59.126192992553115" lon="12.878074971958995">
        <ele>75.61</ele>
        <time>2025-02-03T06:54:13.352Z</time>
      </trkpt>
      <trkpt lat="59.1261559445411" lon="12.877917978912592">
        <ele>75.55</ele>
        <time>2025-02-03T06:54:22.880Z</time>
      </trkpt>
      <trkpt lat="59.12611696869135" lon="12.877758974209428">
        <ele>75.48</ele>
        <time>2025-02-03T06:54:32.409Z</time>
      </trkpt>
      <trkpt lat="59.1260779928416" lon="12.877598963677883">
        <ele>75.41</ele>
        <time>2025-02-03T06:54:41.939Z</time>
      </trkpt>
      <trkpt lat="59.12603398784995" lon="12.877434929832816">
        <ele>75.34</ele>
        <time>2025-02-03T06:54:51.471Z</time>
      </trkpt>
      <trkpt lat="59.12599199451506" lon="12.877272991463542">
        <ele>75.28</ele>
        <time>2025-02-03T06:55:01.004Z</time>
      </trkpt>
      <trkpt lat="59.12594798952341" lon="12.877108957618475">
        <ele>75.22</ele>
        <time>2025-02-03T06:55:10.539Z</time>
      </trkpt>
      <trkpt lat="59.12590398453176" lon="12.876946935430169">
        <ele>75.15</ele>
        <time>2025-02-03T06:55:20.075Z</time>
      </trkpt>
      <trkpt lat="59.12586199119687" lon="12.876786924898624">
        <ele>75.09</ele>
        <time>2025-02-03T06:55:29.613Z</time>
      </trkpt>
      <trkpt lat="59.1258189920336" lon="12.87662599235773">
        <ele>75.04</ele>
        <time>2025-02-03T06:55:39.152Z</time>
      </trkpt>
      <trkpt lat="59.12577599287033" lon="12.876463970169425">
        <ele>74.98</ele>
        <time>2025-02-03T06:55:48.693Z</time>
      </trkpt>
      <trkpt lat="59.1257309820503" lon="12.8763029538095">
        <ele>74.92</ele>
        <time>2025-02-03T06:55:58.235Z</time>
      </trkpt>
      <trkpt lat="59.12568295374513" lon="12.876141937449574">
        <ele>74.85</ele>
        <time>2025-02-03T06:56:07.779Z</time>
      </trkpt>
      <trkpt lat="59.125637942925096" lon="12.87597798742354">
        <ele>74.78</ele>
        <time>2025-02-03T06:56:17.325Z</time>
      </trkpt>
      <trkpt lat="59.125593937933445" lon="12.875813953578472">
        <ele>74.71</ele>
        <time>2025-02-03T06:56:26.872Z</time>
      </trkpt>
      <trkpt lat="59.125550938770175" lon="12.875645980238914">
        <ele>74.64</ele>
        <time>2025-02-03T06:56:36.421Z</time>
      </trkpt>
      <trkpt lat="59.125506933778524" lon="12.875473983585835">
        <ele>74.57</ele>
        <time>2025-02-03T06:56:45.971Z</time>
      </trkpt>
      <trkpt lat="59.125463934615254" lon="12.875297963619232">
        <ele>74.49</ele>
        <time>2025-02-03T06:56:55.523Z</time>
      </trkpt>
      <trkpt lat="59.125422947108746" lon="12.87512093782425">
        <ele>74.42</ele>
        <time>2025-02-03T06:57:05.076Z</time>
      </trkpt>
      <trkpt lat="59.12538296543062" lon="12.874942990019917">
        <ele>74.34</ele>
        <time>2025-02-03T06:57:14.631Z</time>
      </trkpt>
      <trkpt lat="59.12534097209573" lon="12.874765964224935">
        <ele>74.25</ele>
        <time>2025-02-03T06:57:24.188Z</time>
      </trkpt>
      <trkpt lat="59.12529897876084" lon="12.8745829872787">
        <ele>74.18</ele>
        <time>2025-02-03T06:57:33.746Z</time>
      </trkpt>
      <trkpt lat="59.12525799125433" lon="12.874398920685053">
        <ele>74.1</ele>
        <time>2025-02-03T06:57:43.306Z</time>
      </trkpt>
      <trkpt lat="59.12521792575717" lon="12.874209992587566">
        <ele>74.01</ele>
        <time>2025-02-03T06:57:52.868Z</time>
      </trkpt>
      <trkpt lat="59.12517794407904" lon="12.874018969014287">
        <ele>73.92</ele>
        <time>2025-02-03T06:58:02.431Z</time>
      </trkpt>
      <trkpt lat="59.12513695657253" lon="12.873827945441008">
        <ele>73.84</ele>
        <time>2025-02-03T06:58:11.996Z</time>
      </trkpt>
      <trkpt lat="59.125097980722785" lon="12.873630970716476">
        <ele>73.75</ele>
        <time>2025-02-03T06:58:21.563Z</time>
      </trkpt>
      <trkpt lat="59.125056993216276" lon="12.873434918001294">
        <ele>73.66</ele>
        <time>2025-02-03T06:58:31.132Z</time>
      </trkpt>
      <trkpt lat="59.12501499988139" lon="12.873241966590285">
        <ele>73.57</ele>
        <time>2025-02-03T06:58:40.702Z</time>
      </trkpt>
      <trkpt lat="59.124972922727466" lon="12.873050943017006">
        <ele>73.49</ele>
        <time>2025-02-03T06:58:50.274Z</time>
      </trkpt>
      <trkpt lat="59.12493193522096" lon="12.872856985777617">
        <ele>73.4</ele>
        <time>2025-02-03T06:58:59.848Z</time>
      </trkpt>
      <trkpt lat="59.124887930229306" lon="12.872665962204337">
        <ele>73.32</ele>
        <time>2025-02-03T06:59:09.423Z</time>
      </trkpt>
      <trkpt lat="59.124844931066036" lon="12.872476950287819">
        <ele>73.23</ele>
        <time>2025-02-03T06:59:19.000Z</time>
      </trkpt>
      <trkpt lat="59.124801931902766" lon="12.872290955856442">
        <ele>73.14</ele>
        <time>2025-02-03T06:59:28.579Z</time>
      </trkpt>
      <trkpt lat="59.124756921082735" lon="12.872106973081827">
        <ele>73.05</ele>
        <time>2025-02-03T06:59:38.159Z</time>
      </trkpt>
      <trkpt lat="59.124712999910116" lon="12.871917961165309">
        <ele>72.96</ele>
        <time>2025-02-03T06:59:47.741Z</time>
      </trkpt>
      <trkpt lat="59.124667989090085" lon="12.87172794342041">
        <ele>72.87</ele>
        <time>2025-02-03T06:59:57.325Z</time>
      </trkpt>
      <trkpt lat="59.124623984098434" lon="12.87153691984713">
        <ele>72.8</ele>
        <time>2025-02-03T07:00:06.911Z</time>
      </trkpt>
      <trkpt lat="59.124580984935164" lon="12.871344974264503">
        <ele>72.73</ele>
        <time>2025-02-03T07:00:16.498Z</time>
      </trkpt>
      <trkpt lat="59.12453597411513" lon="12.871154956519604">
        <ele>72.65</ele>
        <time>2025-02-03T07:00:26.087Z</time>
      </trkpt>
      <trkpt lat="59.124493980780244" lon="12.870964938774705">
        <ele>72.58</ele>
        <time>2025-02-03T07:00:35.678Z</time>
      </trkpt>
      <trkpt lat="59.124450981616974" lon="12.870774921029806">
        <ele>72.51</ele>
        <time>2025-02-03T07:00:45.270Z</time>
      </trkpt>
      <trkpt lat="59.124408988282084" lon="12.870587920770049">
        <ele>72.43</ele>
        <time>2025-02-03T07:00:54.864Z</time>
      </trkpt>
      <trkpt lat="59.124364983290434" lon="12.870403937995434">
        <ele>72.34</ele>
        <time>2025-02-03T07:01:04.460Z</time>
      </trkpt>
      <trkpt lat="59.1243199724704" lon="12.870226996019483">
        <ele>72.25</ele>
        <time>2025-02-03T07:01:14.057Z</time>
      </trkpt>
      <trkpt lat="59.12427093833685" lon="12.870053993538022">
        <ele>72.16</ele>
        <time>2025-02-03T07:01:23.656Z</time>
      </trkpt>
      <trkpt lat="59.124219976365566" lon="12.869884930551052">
        <ele>72.07</ele>
        <time>2025-02-03T07:01:33.257Z</time>
      </trkpt>
      <trkpt lat="59.12416792474687" lon="12.869721986353397">
        <ele>71.97</ele>
        <time>2025-02-03T07:01:42.859Z</time>
      </trkpt>
      <trkpt lat="59.124113945290446" lon="12.869560969993472">
        <ele>71.87</ele>
        <time>2025-02-03T07:01:52.463Z</time>
      </trkpt>
      <trkpt lat="59.1240559425205" lon="12.869401965290308">
        <ele>71.77</ele>
        <time>2025-02-03T07:02:02.069Z</time>
      </trkpt>
      <trkpt lat="59.12399592809379" lon="12.869244972243905">
        <ele>71.69</ele>
        <time>2025-02-03T07:02:11.676Z</time>
      </trkpt>
      <trkpt lat="59.12393298000097" lon="12.869092924520373">
        <ele>71.59</ele>
        <time>2025-02-03T07:02:21.285Z</time>
      </trkpt>
      <trkpt lat="59.12386793643236" lon="12.868941966444254">
        <ele>71.5</ele>
        <time>2025-02-03T07:02:30.895Z</time>
      </trkpt>
      <trkpt lat="59.1238019708544" lon="12.868795953691006">
        <ele>71.41</ele>
        <time>2025-02-03T07:02:40.507Z</time>
      </trkpt>
      <trkpt lat="59.12373592145741" lon="12.868648935109377">
        <ele>71.32</ele>
        <time>2025-02-03T07:02:50.121Z</time>
      </trkpt>
      <trkpt lat="59.12367196753621" lon="12.86850493401289">
        <ele>71.23</ele>
        <time>2025-02-03T07:02:59.736Z</time>
      </trkpt>
      <trkpt lat="59.12360994145274" lon="12.868362944573164">
        <ele>71.14</ele>
        <time>2025-02-03T07:03:09.353Z</time>
      </trkpt>
      <trkpt lat="59.12354992702603" lon="12.86822497844696">
        <ele>71.04</ele>
        <time>2025-02-03T07:03:18.971Z</time>
      </trkpt>
      <trkpt lat="59.12349293008447" lon="12.868090951815248">
        <ele>70.94</ele>
        <time>2025-02-03T07:03:28.591Z</time>
      </trkpt>
      <trkpt lat="59.12343794479966" lon="12.867959942668676">
        <ele>70.84</ele>
        <time>2025-02-03T07:03:38.212Z</time>
      </trkpt>
      <trkpt lat="59.123381953686476" lon="12.867832956835628">
        <ele>70.74</ele>
        <time>2025-02-03T07:03:47.834Z</time>
      </trkpt>
      <trkpt lat="59.12332495674491" lon="12.86770697683096">
        <ele>70.64</ele>
        <time>2025-02-03T07:03:57.458Z</time>
      </trkpt>
      <trkpt lat="59.123270977288485" lon="12.86758292466402">
        <ele>70.54</ele>
        <time>2025-02-03T07:04:07.083Z</time>
      </trkpt>
      <trkpt lat="59.12321791984141" lon="12.867460967972875">
        <ele>70.43</ele>
        <time>2025-02-03T07:04:16.709Z</time>
      </trkpt>
      <trkpt lat="59.123164946213365" lon="12.867340939119458">
        <ele>70.31</ele>
        <time>2025-02-03T07:04:26.337Z</time>
      </trkpt>
      <trkpt lat="59.12311197258532" lon="12.867220994085073">
        <ele>70.2</ele>
        <time>2025-02-03T07:04:35.966Z</time>
      </trkpt>
      <trkpt lat="59.123058998957276" lon="12.867100965231657">
        <ele>70.09</ele>
        <time>2025-02-03T07:04:45.596Z</time>
      </trkpt>
      <trkpt lat="59.1230059415102" lon="12.86697892472148">
        <ele>69.97</ele>
        <time>2025-02-03T07:04:55.228Z</time>
      </trkpt>
      <trkpt lat="59.122951962053776" lon="12.866857973858714">
        <ele>69.84</ele>
        <time>2025-02-03T07:05:04.861Z</time>
      </trkpt>
      <trkpt lat="59.12289798259735" lon="12.866735933348536">
        <ele>69.71</ele>
        <time>2025-02-03T07:05:14.495Z</time>
      </trkpt>
      <trkpt lat="59.122842997312546" lon="12.86661397665739">
        <ele>69.58</ele>
        <time>2025-02-03T07:05:24.131Z</time>
      </trkpt>
      <trkpt lat="59.12278792820871" lon="12.866492941975594">
        <ele>69.44</ele>
        <time>2025-02-03T07:05:33.768Z</time>
      </trkpt>
      <trkpt lat="59.1227329429239" lon="12.866370985284448">
        <ele>69.3</ele>
        <time>2025-02-03T07:05:43.406Z</time>
      </trkpt>
      <trkpt lat="59.12267695181072" lon="12.866246933117509">
        <ele>69.16</ele>
        <time>2025-02-03T07:05:53.046Z</time>
      </trkpt>
      <trkpt lat="59.12261995486915" lon="12.86611894145608">
        <ele>69.01</ele>
        <time>2025-02-03T07:06:02.687Z</time>
      </trkpt>
      <trkpt lat="59.12255994044244" lon="12.865986926481128">
        <ele>68.86</ele>
        <time>2025-02-03T07:06:12.330Z</time>
      </trkpt>
      <trkpt lat="59.122499926015735" lon="12.865848960354924">
        <ele>68.71</ele>
        <time>2025-02-03T07:06:21.974Z</time>
      </trkpt>
      <trkpt lat="59.1224379837513" lon="12.86570898257196">
        <ele>68.54</ele>
        <time>2025-02-03T07:06:31.620Z</time>
      </trkpt>
      <trkpt lat="59.12237595766783" lon="12.865568920969963">
        <ele>68.38</ele>
        <time>2025-02-03T07:06:41.267Z</time>
      </trkpt>
      <trkpt lat="59.12231292575598" lon="12.865428943186998">
        <ele>68.21</ele>
        <time>2025-02-03T07:06:50.916Z</time>
      </trkpt>
      <trkpt lat="59.12224997766316" lon="12.865287959575653">
        <ele>68.04</ele>
        <time>2025-02-03T07:07:00.566Z</time>
      </trkpt>
      <trkpt lat="59.12218694575131" lon="12.865146975964308">
        <ele>67.87</ele>
        <time>2025-02-03T07:07:10.218Z</time>
      </trkpt>
      <trkpt lat="59.12212399765849" lon="12.865006998181343">
        <ele>67.69</ele>
        <time>2025-02-03T07:07:19.871Z</time>
      </trkpt>
      <trkpt lat="59.12206096574664" lon="12.864868948236108">
        <ele>67.51</ele>
        <time>2025-02-03T07:07:29.526Z</time>
      </trkpt>
      <trkpt lat="59.12199793383479" lon="12.864731987938285">
        <ele>67.33</ele>
        <time>2025-02-03T07:07:39.182Z</time>
      </trkpt>
      <trkpt lat="59.12193599157035" lon="12.86459494382143">
        <ele>67.14</ele>
        <time>2025-02-03T07:07:48.840Z</time>
      </trkpt>
      <trkpt lat="59.121876982972026" lon="12.864458989351988">
        <ele>66.96</ele>
        <time>2025-02-03T07:07:58.499Z</time>
      </trkpt>
      <trkpt lat="59.1218179743737" lon="12.864325968548656">
        <ele>66.77</ele>
        <time>2025-02-03T07:08:08.160Z</time>
      </trkpt>
      <trkpt lat="59.12175997160375" lon="12.864196971058846">
        <ele>66.57</ele>
        <time>2025-02-03T07:08:17.822Z</time>
      </trkpt>
      <trkpt lat="59.121703980490565" lon="12.864068979397416">
        <ele>66.37</ele>
        <time>2025-02-03T07:08:27.485Z</time>
      </trkpt>
      <trkpt lat="59.12164899520576" lon="12.863944927230477">
        <ele>66.16</ele>
        <time>2025-02-03T07:08:37.150Z</time>
      </trkpt>
      <trkpt lat="59.121594931930304" lon="12.863826993852854">
        <ele>65.95</ele>
        <time>2025-02-03T07:08:46.816Z</time>
      </trkpt>
      <trkpt lat="59.12154195830226" lon="12.863709982484579">
        <ele>65.74</ele>
        <time>2025-02-03T07:08:56.483Z</time>
      </trkpt>
      <trkpt lat="59.121487978845835" lon="12.863592971116304">
        <ele>65.52</ele>
        <time>2025-02-03T07:09:06.152Z</time>
      </trkpt>
      <trkpt lat="59.12143399938941" lon="12.863472942262888">
        <ele>65.3</ele>
        <time>2025-02-03T07:09:15.822Z</time>
      </trkpt>
      <trkpt lat="59.121381947770715" lon="12.863350985571742">
        <ele>65.07</ele>
        <time>2025-02-03T07:09:25.493Z</time>
      </trkpt>
      <trkpt lat="59.12132796831429" lon="12.863226933404803">
        <ele>64.84</ele>
        <time>2025-02-03T07:09:35.166Z</time>
      </trkpt>
      <trkpt lat="59.121272983029485" lon="12.863102965056896">
        <ele>64.61</ele>
        <time>2025-02-03T07:09:44.840Z</time>
      </trkpt>
      <trkpt lat="59.12121799774468" lon="12.862977990880609">
        <ele>64.39</ele>
        <time>2025-02-03T07:09:54.515Z</time>
      </trkpt>
      <trkpt lat="59.12115999497473" lon="12.86285293288529">
        <ele>64.17</ele>
        <time>2025-02-03T07:10:04.192Z</time>
      </trkpt>
      <trkpt lat="59.121101992204785" lon="12.862728964537382">
        <ele>63.94</ele>
        <time>2025-02-03T07:10:13.870Z</time>
      </trkpt>
      <trkpt lat="59.12104298360646" lon="12.862601978704333">
        <ele>63.7</ele>
        <time>2025-02-03T07:10:23.550Z</time>
      </trkpt>
      <trkpt lat="59.12098498083651" lon="12.862471975386143">
        <ele>63.47</ele>
        <time>2025-02-03T07:10:33.231Z</time>
      </trkpt>
      <trkpt lat="59.12092597223818" lon="12.862341972067952">
        <ele>63.23</ele>
        <time>2025-02-03T07:10:42.913Z</time>
      </trkpt>
      <trkpt lat="59.120867969468236" lon="12.862209957093">
        <ele>62.99</ele>
        <time>2025-02-03T07:10:52.597Z</time>
      </trkpt>
      <trkpt lat="59.12080996669829" lon="12.862076936289668">
        <ele>62.75</ele>
        <time>2025-02-03T07:11:02.282Z</time>
      </trkpt>
      <trkpt lat="59.12075196392834" lon="12.861942993476987">
        <ele>62.5</ele>
        <time>2025-02-03T07:11:11.969Z</time>
      </trkpt>
      <trkpt lat="59.120692955330014" lon="12.861811984330416">
        <ele>62.24</ele>
        <time>2025-02-03T07:11:21.657Z</time>
      </trkpt>
      <trkpt lat="59.12063394673169" lon="12.861682986840606">
        <ele>61.98</ele>
        <time>2025-02-03T07:11:31.347Z</time>
      </trkpt>
      <trkpt lat="59.12057694979012" lon="12.861555917188525">
        <ele>61.72</ele>
        <time>2025-02-03T07:11:41.038Z</time>
      </trkpt>
      <trkpt lat="59.12051894702017" lon="12.861430943012238">
        <ele>61.46</ele>
        <time>2025-02-03T07:11:50.730Z</time>
      </trkpt>
      <trkpt lat="59.120460944250226" lon="12.861307980492711">
        <ele>61.19</ele>
        <time>2025-02-03T07:12:00.424Z</time>
      </trkpt>
      <trkpt lat="59.12040092982352" lon="12.861180994659662">
        <ele>60.92</ele>
        <time>2025-02-03T07:12:10.119Z</time>
      </trkpt>
      <trkpt lat="59.12034099921584" lon="12.86104897968471">
        <ele>60.65</ele>
        <time>2025-02-03T07:12:19.816Z</time>
      </trkpt>
      <trkpt lat="59.12027997896075" lon="12.860911935567856">
        <ele>60.37</ele>
        <time>2025-02-03T07:12:29.514Z</time>
      </trkpt>
      <trkpt lat="59.1202169470489" lon="12.86076894029975">
        <ele>60.09</ele>
        <time>2025-02-03T07:12:39.214Z</time>
      </trkpt>
      <trkpt lat="59.12014997564256" lon="12.860622927546501">
        <ele>59.8</ele>
        <time>2025-02-03T07:12:48.915Z</time>
      </trkpt>
      <trkpt lat="59.12007998675108" lon="12.86046995781362">
        <ele>59.5</ele>
        <time>2025-02-03T07:12:58.618Z</time>
      </trkpt>
      <trkpt lat="59.120010919868946" lon="12.860313970595598">
        <ele>59.21</ele>
        <time>2025-02-03T07:13:08.323Z</time>
      </trkpt>
      <trkpt lat="59.119937997311354" lon="12.860155971720815">
        <ele>58.91</ele>
        <time>2025-02-03T07:13:18.029Z</time>
      </trkpt>
      <trkpt lat="59.11986297927797" lon="12.859992943704128">
        <ele>58.61</ele>
        <time>2025-02-03T07:13:27.737Z</time>
      </trkpt>
      <trkpt lat="59.1197869554162" lon="12.859827987849712">
        <ele>58.32</ele>
        <time>2025-02-03T07:13:37.447Z</time>
      </trkpt>
      <trkpt lat="59.119709925726056" lon="12.859659930691123">
        <ele>58.03</ele>
        <time>2025-02-03T07:13:47.159Z</time>
      </trkpt>
      <trkpt lat="59.11963197402656" lon="12.859487934038043">
        <ele>57.74</ele>
        <time>2025-02-03T07:13:56.873Z</time>
      </trkpt>
      <trkpt lat="59.11955293267965" lon="12.859312919899821">
        <ele>57.46</ele>
        <time>2025-02-03T07:14:06.589Z</time>
      </trkpt>
      <trkpt lat="59.1194729693234" lon="12.859132960438728">
        <ele>57.17</ele>
        <time>2025-02-03T07:14:16.307Z</time>
      </trkpt>
      <trkpt lat="59.11939099431038" lon="12.858950989320874">
        <ele>56.88</ele>
        <time>2025-02-03T07:14:26.027Z</time>
      </trkpt>
      <trkpt lat="59.11930893547833" lon="12.858764994889498">
        <ele>56.59</ele>
        <time>2025-02-03T07:14:35.749Z</time>
      </trkpt>
      <trkpt lat="59.11922595463693" lon="12.85857891663909">
        <ele>56.3</ele>
        <time>2025-02-03T07:14:45.473Z</time>
      </trkpt>
      <trkpt lat="59.11913995631039" lon="12.858391916379333">
        <ele>56.01</ele>
        <time>2025-02-03T07:14:55.199Z</time>
      </trkpt>
      <trkpt lat="59.11905395798385" lon="12.858207933604717">
        <ele>55.73</ele>
        <time>2025-02-03T07:15:04.927Z</time>
      </trkpt>
      <trkpt lat="59.11896896548569" lon="12.858022945001721">
        <ele>55.45</ele>
        <time>2025-02-03T07:15:14.657Z</time>
      </trkpt>
      <trkpt lat="59.118885984644294" lon="12.857836950570345">
        <ele>55.17</ele>
        <time>2025-02-03T07:15:24.389Z</time>
      </trkpt>
      <trkpt lat="59.118802919983864" lon="12.85765397362411">
        <ele>54.89</ele>
        <time>2025-02-03T07:15:34.123Z</time>
      </trkpt>
      <trkpt lat="59.11872195079923" lon="12.857474936172366">
        <ele>54.61</ele>
        <time>2025-02-03T07:15:43.859Z</time>
      </trkpt>
      <trkpt lat="59.11864098161459" lon="12.857297994196415">
        <ele>54.33</ele>
        <time>2025-02-03T07:15:53.597Z</time>
      </trkpt>
      <trkpt lat="59.11856194026768" lon="12.857122980058193">
        <ele>54.05</ele>
        <time>2025-02-03T07:16:03.337Z</time>
      </trkpt>
      <trkpt lat="59.11848499439657" lon="12.856949977576733">
        <ele>53.77</ele>
        <time>2025-02-03T07:16:13.079Z</time>
      </trkpt>
      <trkpt lat="59.1184089705348" lon="12.856778986752033">
        <ele>53.5</ele>
        <time>2025-02-03T07:16:22.823Z</time>
      </trkpt>
      <trkpt lat="59.1183349583298" lon="12.856606990098953">
        <ele>53.22</ele>
        <time>2025-02-03T07:16:32.568Z</time>
      </trkpt>
      <trkpt lat="59.11825893446803" lon="12.856434993445873">
        <ele>52.95</ele>
        <time>2025-02-03T07:16:42.315Z</time>
      </trkpt>
      <trkpt lat="59.118181988596916" lon="12.856261990964413">
        <ele>52.67</ele>
        <time>2025-02-03T07:16:52.064Z</time>
      </trkpt>
      <trkpt lat="59.11810596473515" lon="12.856089994311333">
        <ele>52.4</ele>
        <time>2025-02-03T07:17:01.815Z</time>
      </trkpt>
      <trkpt lat="59.118028935045004" lon="12.855918919667602">
        <ele>52.13</ele>
        <time>2025-02-03T07:17:11.568Z</time>
      </trkpt>
      <trkpt lat="59.11795198917389" lon="12.855748934671283">
        <ele>51.87</ele>
        <time>2025-02-03T07:17:21.323Z</time>
      </trkpt>
      <trkpt lat="59.11787395365536" lon="12.855577943846583">
        <ele>51.61</ele>
        <time>2025-02-03T07:17:31.080Z</time>
      </trkpt>
      <trkpt lat="59.117797929793596" lon="12.855407958850265">
        <ele>51.34</ele>
        <time>2025-02-03T07:17:40.838Z</time>
      </trkpt>
      <trkpt lat="59.11772198975086" lon="12.855235962197185">
        <ele>51.09</ele>
        <time>2025-02-03T07:17:50.598Z</time>
      </trkpt>
      <trkpt lat="59.117645965889096" lon="12.855064971372485">
        <ele>50.84</ele>
        <time>2025-02-03T07:18:00.360Z</time>
      </trkpt>
      <trkpt lat="59.11756994202733" lon="12.854893980547786">
        <ele>50.59</ele>
        <time>2025-02-03T07:18:10.124Z</time>
      </trkpt>
      <trkpt lat="59.117494923993945" lon="12.854722989723086">
        <ele>50.34</ele>
        <time>2025-02-03T07:18:19.890Z</time>
      </trkpt>
      <trkpt lat="59.11741898395121" lon="12.854549987241626">
        <ele>50.1</ele>
        <time>2025-02-03T07:18:29.658Z</time>
      </trkpt>
      <trkpt lat="59.11734698340297" lon="12.854374973103404">
        <ele>49.86</ele>
        <time>2025-02-03T07:18:39.428Z</time>
      </trkpt>
      <trkpt lat="59.117278922349215" lon="12.854197947308421">
        <ele>49.62</ele>
        <time>2025-02-03T07:18:49.199Z</time>
      </trkpt>
      <trkpt lat="59.117211950942874" lon="12.854017987847328">
        <ele>49.39</ele>
        <time>2025-02-03T07:18:58.972Z</time>
      </trkpt>
      <trkpt lat="59.117149924859405" lon="12.853836938738823">
        <ele>49.15</ele>
        <time>2025-02-03T07:19:08.747Z</time>
      </trkpt>
      <trkpt lat="59.11709192208946" lon="12.853654967620969">
        <ele>48.92</ele>
        <time>2025-02-03T07:19:18.524Z</time>
      </trkpt>
      <trkpt lat="59.11703593097627" lon="12.853473918512464">
        <ele>48.7</ele>
        <time>2025-02-03T07:19:28.303Z</time>
      </trkpt>
      <trkpt lat="59.116979939863086" lon="12.853294964879751">
        <ele>48.47</ele>
        <time>2025-02-03T07:19:38.083Z</time>
      </trkpt>
      <trkpt lat="59.11692495457828" lon="12.853118944913149">
        <ele>48.26</ele>
        <time>2025-02-03T07:19:47.865Z</time>
      </trkpt>
      <trkpt lat="59.116869969293475" lon="12.852942924946547">
        <ele>48.04</ele>
        <time>2025-02-03T07:19:57.649Z</time>
      </trkpt>
      <trkpt lat="59.11681699566543" lon="12.852767994627357">
        <ele>47.83</ele>
        <time>2025-02-03T07:20:07.434Z</time>
      </trkpt>
      <trkpt lat="59.116762932389975" lon="12.852596919983625">
        <ele>47.63</ele>
        <time>2025-02-03T07:20:17.221Z</time>
      </trkpt>
      <trkpt lat="59.11670794710517" lon="12.852424923330545">
        <ele>47.42</ele>
        <time>2025-02-03T07:20:27.010Z</time>
      </trkpt>
      <trkpt lat="59.116654973477125" lon="12.852253932505846">
        <ele>47.22</ele>
        <time>2025-02-03T07:20:36.800Z</time>
      </trkpt>
      <trkpt lat="59.1166009940207" lon="12.852082941681147">
        <ele>47.03</ele>
        <time>2025-02-03T07:20:46.592Z</time>
      </trkpt>
      <trkpt lat="59.116547936573625" lon="12.851913962513208">
        <ele>46.83</ele>
        <time>2025-02-03T07:20:56.386Z</time>
      </trkpt>
      <trkpt lat="59.11649596877396" lon="12.851746995002031">
        <ele>46.64</ele>
        <time>2025-02-03T07:21:06.181Z</time>
      </trkpt>
      <trkpt lat="59.11644592881203" lon="12.851580949500203">
        <ele>46.46</ele>
        <time>2025-02-03T07:21:15.978Z</time>
      </trkpt>
      <trkpt lat="59.116394966840744" lon="12.851419933140278">
        <ele>46.28</ele>
        <time>2025-02-03T07:21:25.776Z</time>
      </trkpt>
      <trkpt lat="59.11634392105043" lon="12.851260928437114">
        <ele>46.1</ele>
        <time>2025-02-03T07:21:35.576Z</time>
      </trkpt>
      <trkpt lat="59.116291953250766" lon="12.851104941219091">
        <ele>45.93</ele>
        <time>2025-02-03T07:21:45.378Z</time>
      </trkpt>
      <trkpt lat="59.11623897962272" lon="12.85095096565783">
        <ele>45.76</ele>
        <time>2025-02-03T07:21:55.181Z</time>
      </trkpt>
      <trkpt lat="59.116186928004026" lon="12.850799923762679">
        <ele>45.6</ele>
        <time>2025-02-03T07:22:04.986Z</time>
      </trkpt>
      <trkpt lat="59.11613496020436" lon="12.850651983171701">
        <ele>45.44</ele>
        <time>2025-02-03T07:22:14.792Z</time>
      </trkpt>
      <trkpt lat="59.11608198657632" lon="12.850506976246834">
        <ele>45.3</ele>
        <time>2025-02-03T07:22:24.599Z</time>
      </trkpt>
      <trkpt lat="59.11602892912924" lon="12.85036993212998">
        <ele>45.15</ele>
        <time>2025-02-03T07:22:34.408Z</time>
      </trkpt>
      <trkpt lat="59.11597394384444" lon="12.85024093464017">
        <ele>45.02</ele>
        <time>2025-02-03T07:22:44.218Z</time>
      </trkpt>
      <trkpt lat="59.11591996438801" lon="12.850124929100275">
        <ele>44.89</ele>
        <time>2025-02-03T07:22:54.030Z</time>
      </trkpt>
      <trkpt lat="59.11586799658835" lon="12.850016970187426">
        <ele>44.77</ele>
        <time>2025-02-03T07:23:03.843Z</time>
      </trkpt>
      <trkpt lat="59.115815944969654" lon="12.849912950769067">
        <ele>44.64</ele>
        <time>2025-02-03T07:23:13.657Z</time>
      </trkpt>
      <trkpt lat="59.11576297134161" lon="12.849808931350708">
        <ele>44.52</ele>
        <time>2025-02-03T07:23:23.472Z</time>
      </trkpt>
      <trkpt lat="59.11570496857166" lon="12.849708935245872">
        <ele>44.4</ele>
        <time>2025-02-03T07:23:33.288Z</time>
      </trkpt>
      <trkpt lat="59.115647971630096" lon="12.849622936919332">
        <ele>44.28</ele>
        <time>2025-02-03T07:23:43.106Z</time>
      </trkpt>
      <trkpt lat="59.11559097468853" lon="12.849540961906314">
        <ele>44.16</ele>
        <time>2025-02-03T07:23:52.925Z</time>
      </trkpt>
      <trkpt lat="59.11553297191858" lon="12.849452951923013">
        <ele>44.04</ele>
        <time>2025-02-03T07:24:02.745Z</time>
      </trkpt>
      <trkpt lat="59.11548092029989" lon="12.84936192445457">
        <ele>43.92</ele>
        <time>2025-02-03T07:24:12.566Z</time>
      </trkpt>
      <trkpt lat="59.115429958328605" lon="12.849265951663256">
        <ele>43.81</ele>
        <time>2025-02-03T07:24:22.388Z</time>
      </trkpt>
      <trkpt lat="59.11537597887218" lon="12.849160926416516">
        <ele>43.7</ele>
        <time>2025-02-03T07:24:32.211Z</time>
      </trkpt>
      <trkpt lat="59.11531596444547" lon="12.849051961675286">
        <ele>43.59</ele>
        <time>2025-02-03T07:24:42.036Z</time>
      </trkpt>
      <trkpt lat="59.11525494419038" lon="12.848939979448915">
        <ele>43.49</ele>
        <time>2025-02-03T07:24:51.862Z</time>
      </trkpt>
      <trkpt lat="59.115194929763675" lon="12.848831936717033">
        <ele>43.39</ele>
        <time>2025-02-03T07:25:01.689Z</time>
      </trkpt>
      <trkpt lat="59.115130975842476" lon="12.848727917298675">
        <ele>43.29</ele>
        <time>2025-02-03T07:25:11.518Z</time>
      </trkpt>
      <trkpt lat="59.115066938102245" lon="12.848622975870967">
        <ele>43.2</ele>
        <time>2025-02-03T07:25:21.348Z</time>
      </trkpt>
      <trkpt lat="59.11500399000943" lon="12.848517950624228">
        <ele>43.1</ele>
        <time>2025-02-03T07:25:31.179Z</time>
      </trkpt>
      <trkpt lat="59.114938946440816" lon="12.848406974226236">
        <ele>43.01</ele>
        <time>2025-02-03T07:25:41.012Z</time>
      </trkpt>
      <trkpt lat="59.11487893201411" lon="12.848297925665975">
        <ele>42.93</ele>
        <time>2025-02-03T07:25:50.846Z</time>
      </trkpt>
      <trkpt lat="59.11481296643615" lon="12.848180998116732">
        <ele>42.86</ele>
        <time>2025-02-03T07:26:00.682Z</time>
      </trkpt>
      <trkpt lat="59.114743983373046" lon="12.848066920414567">
        <ele>42.8</ele>
        <time>2025-02-03T07:26:10.519Z</time>
      </trkpt>
      <trkpt lat="59.11467592231929" lon="12.847955944016576">
        <ele>42.74</ele>
        <time>2025-02-03T07:26:20.357Z</time>
      </trkpt>
      <trkpt lat="59.11460794508457" lon="12.847841950133443">
        <ele>42.68</ele>
        <time>2025-02-03T07:26:30.197Z</time>
      </trkpt>
      <trkpt lat="59.11453795619309" lon="12.84772695042193">
        <ele>42.63</ele>
        <time>2025-02-03T07:26:40.038Z</time>
      </trkpt>
      <trkpt lat="59.114465955644846" lon="12.847615974023938">
        <ele>42.59</ele>
        <time>2025-02-03T07:26:49.881Z</time>
      </trkpt>
      <trkpt lat="59.1143939550966" lon="12.847498962655663">
        <ele>42.55</ele>
        <time>2025-02-03T07:26:59.725Z</time>
      </trkpt>
      <trkpt lat="59.11432195454836" lon="12.847378933802247">
        <ele>42.51</ele>
        <time>2025-02-03T07:27:09.571Z</time>
      </trkpt>
      <trkpt lat="59.114249954000115" lon="12.847258988767862">
        <ele>42.47</ele>
        <time>2025-02-03T07:27:19.418Z</time>
      </trkpt>
      <trkpt lat="59.11417694762349" lon="12.847136948257685">
        <ele>42.43</ele>
        <time>2025-02-03T07:27:29.267Z</time>
      </trkpt>
      <trkpt lat="59.114101929590106" lon="12.847013985738158">
        <ele>42.4</ele>
        <time>2025-02-03T07:27:39.117Z</time>
      </trkpt>
      <trkpt lat="59.11402598954737" lon="12.84688993357122">
        <ele>42.37</ele>
        <time>2025-02-03T07:27:48.969Z</time>
      </trkpt>
      <trkpt lat="59.113948959857225" lon="12.846763953566551">
        <ele>42.36</ele>
        <time>2025-02-03T07:27:58.823Z</time>
      </trkpt>
      <trkpt lat="59.11387293599546" lon="12.846638979390264">
        <ele>42.34</ele>
        <time>2025-02-03T07:28:08.678Z</time>
      </trkpt>
      <trkpt lat="59.113796995952725" lon="12.846511993557215">
        <ele>42.32</ele>
        <time>2025-02-03T07:28:18.535Z</time>
      </trkpt>
      <trkpt lat="59.11372097209096" lon="12.846383918076754">
        <ele>42.32</ele>
        <time>2025-02-03T07:28:28.393Z</time>
      </trkpt>
      <trkpt lat="59.11364293657243" lon="12.846256932243705">
        <ele>42.33</ele>
        <time>2025-02-03T07:28:38.253Z</time>
      </trkpt>
      <trkpt lat="59.11356498487294" lon="12.846127934753895">
        <ele>42.34</ele>
        <time>2025-02-03T07:28:48.115Z</time>
      </trkpt>
      <trkpt lat="59.11348694935441" lon="12.845999943092465">
        <ele>42.36</ele>
        <time>2025-02-03T07:28:57.978Z</time>
      </trkpt>
      <trkpt lat="59.113409919664264" lon="12.845868933945894">
        <ele>42.38</ele>
        <time>2025-02-03T07:29:07.843Z</time>
      </trkpt>
      <trkpt lat="59.11333196796477" lon="12.845739936456084">
        <ele>42.41</ele>
        <time>2025-02-03T07:29:17.710Z</time>
      </trkpt>
      <trkpt lat="59.11325493827462" lon="12.845610938966274">
        <ele>42.45</ele>
        <time>2025-02-03T07:29:27.578Z</time>
      </trkpt>
      <trkpt lat="59.11317799240351" lon="12.845481941476464">
        <ele>42.49</ele>
        <time>2025-02-03T07:29:37.448Z</time>
      </trkpt>
      <trkpt lat="59.11310297437012" lon="12.845354955643415">
        <ele>42.54</ele>
        <time>2025-02-03T07:29:47.320Z</time>
      </trkpt>
      <trkpt lat="59.11302795633674" lon="12.845228975638747">
        <ele>42.59</ele>
        <time>2025-02-03T07:29:57.193Z</time>
      </trkpt>
      <trkpt lat="59.11295394413173" lon="12.84510693512857">
        <ele>42.65</ele>
        <time>2025-02-03T07:30:07.068Z</time>
      </trkpt>
      <trkpt lat="59.11288194358349" lon="12.844986990094185">
        <ele>42.71</ele>
        <time>2025-02-03T07:30:16.944Z</time>
      </trkpt>
      <trkpt lat="59.112809943035245" lon="12.84486897289753">
        <ele>42.79</ele>
        <time>2025-02-03T07:30:26.822Z</time>
      </trkpt>
      <trkpt lat="59.112737942487" lon="12.844753973186016">
        <ele>42.86</ele>
        <time>2025-02-03T07:30:36.701Z</time>
      </trkpt>
      <trkpt lat="59.1126689594239" lon="12.844637967646122">
        <ele>42.94</ele>
        <time>2025-02-03T07:30:46.582Z</time>
      </trkpt>
      <trkpt lat="59.1125999763608" lon="12.844518944621086">
        <ele>43.03</ele>
        <time>2025-02-03T07:30:56.464Z</time>
      </trkpt>
      <trkpt lat="59.112532921135426" lon="12.844398999586701">
        <ele>43.13</ele>
        <time>2025-02-03T07:31:06.348Z</time>
      </trkpt>
      <trkpt lat="59.112464943900704" lon="12.844277964904904">
        <ele>43.23</ele>
        <time>2025-02-03T07:31:16.233Z</time>
      </trkpt>
      <trkpt lat="59.11239696666598" lon="12.844157936051488">
        <ele>43.34</ele>
        <time>2025-02-03T07:31:26.120Z</time>
      </trkpt>
      <trkpt lat="59.11232898943126" lon="12.844034973531961">
        <ele>43.45</ele>
        <time>2025-02-03T07:31:36.008Z</time>
      </trkpt>
      <trkpt lat="59.11226193420589" lon="12.843912933021784">
        <ele>43.57</ele>
        <time>2025-02-03T07:31:45.898Z</time>
      </trkpt>
      <trkpt lat="59.11219697445631" lon="12.843787958845496">
        <ele>43.69</ele>
        <time>2025-02-03T07:31:55.789Z</time>
      </trkpt>
      <trkpt lat="59.11213293671608" lon="12.843659967184067">
        <ele>43.83</ele>
        <time>2025-02-03T07:32:05.681Z</time>
      </trkpt>
      <trkpt lat="59.11207099445164" lon="12.843531975522637">
        <ele>43.97</ele>
        <time>2025-02-03T07:32:15.575Z</time>
      </trkpt>
      <trkpt lat="59.112013997510076" lon="12.843397948890924">
        <ele>44.11</ele>
        <time>2025-02-03T07:32:25.470Z</time>
      </trkpt>
      <trkpt lat="59.111960940063" lon="12.84325897693634">
        <ele>44.26</ele>
        <time>2025-02-03T07:32:35.367Z</time>
      </trkpt>
      <trkpt lat="59.11191299557686" lon="12.843112964183092">
        <ele>44.42</ele>
        <time>2025-02-03T07:32:45.265Z</time>
      </trkpt>
      <trkpt lat="59.1118729300797" lon="12.84296091645956">
        <ele>44.58</ele>
        <time>2025-02-03T07:32:55.165Z</time>
      </trkpt>
      <trkpt lat="59.111839989200234" lon="12.8428069408983">
        <ele>44.75</ele>
        <time>2025-02-03T07:33:05.066Z</time>
      </trkpt>
      <trkpt lat="59.11181199364364" lon="12.842650953680277">
        <ele>44.92</ele>
        <time>2025-02-03T07:33:14.968Z</time>
      </trkpt>
      <trkpt lat="59.11178894340992" lon="12.842494966462255">
        <ele>45.09</ele>
        <time>2025-02-03T07:33:24.872Z</time>
      </trkpt>
      <trkpt lat="59.11177293397486" lon="12.842337973415852">
        <ele>45.27</ele>
        <time>2025-02-03T07:33:34.777Z</time>
      </trkpt>
      <trkpt lat="59.11176094785333" lon="12.842180980369449">
        <ele>45.44</ele>
        <time>2025-02-03T07:33:44.683Z</time>
      </trkpt>
      <trkpt lat="59.111752985045314" lon="12.842022981494665">
        <ele>45.63</ele>
        <time>2025-02-03T07:33:54.591Z</time>
      </trkpt>
      <trkpt lat="59.11174795590341" lon="12.841863976791501">
        <ele>45.82</ele>
        <time>2025-02-03T07:34:04.500Z</time>
      </trkpt>
      <trkpt lat="59.11174393258989" lon="12.841703966259956">
        <ele>46.02</ele>
        <time>2025-02-03T07:34:14.410Z</time>
      </trkpt>
      <trkpt lat="59.11173798143864" lon="12.841544961556792">
        <ele>46.21</ele>
        <time>2025-02-03T07:34:24.322Z</time>
      </trkpt>
      <trkpt lat="59.11173194646835" lon="12.841382939368486">
        <ele>46.41</ele>
        <time>2025-02-03T07:34:34.235Z</time>
      </trkpt>
      <trkpt lat="59.1117259953171" lon="12.84121798351407">
        <ele>46.61</ele>
        <time>2025-02-03T07:34:44.149Z</time>
      </trkpt>
      <trkpt lat="59.11172297783196" lon="12.841052943840623">
        <ele>46.83</ele>
        <time>2025-02-03T07:34:54.065Z</time>
      </trkpt>
      <trkpt lat="59.11171895451844" lon="12.840889999642968">
        <ele>47.05</ele>
        <time>2025-02-03T07:35:03.982Z</time>
      </trkpt>
      <trkpt lat="59.111714931204915" lon="12.840726971626282">
        <ele>47.27</ele>
        <time>2025-02-03T07:35:13.900Z</time>
      </trkpt>
      <trkpt lat="59.111710991710424" lon="12.840563943609595">
        <ele>47.51</ele>
        <time>2025-02-03T07:35:23.820Z</time>
      </trkpt>
      <trkpt lat="59.11170596256852" lon="12.840404938906431">
        <ele>47.75</ele>
        <time>2025-02-03T07:35:33.741Z</time>
      </trkpt>
      <trkpt lat="59.111701939255" lon="12.840246940031648">
        <ele>48.0</ele>
        <time>2025-02-03T07:35:43.663Z</time>
      </trkpt>
      <trkpt lat="59.11169799976051" lon="12.840089946985245">
        <ele>48.26</ele>
        <time>2025-02-03T07:35:53.587Z</time>
      </trkpt>
      <trkpt lat="59.11169498227537" lon="12.839933959767222">
        <ele>48.52</ele>
        <time>2025-02-03T07:36:03.512Z</time>
      </trkpt>
      <trkpt lat="59.111690958961844" lon="12.83977897837758">
        <ele>48.78</ele>
        <time>2025-02-03T07:36:13.438Z</time>
      </trkpt>
      <trkpt lat="59.11168592981994" lon="12.839625924825668">
        <ele>49.05</ele>
        <time>2025-02-03T07:36:23.365Z</time>
      </trkpt>
      <trkpt lat="59.11168098449707" lon="12.839474966749549">
        <ele>49.31</ele>
        <time>2025-02-03T07:36:33.294Z</time>
      </trkpt>
      <trkpt lat="59.11167696118355" lon="12.839324930682778">
        <ele>49.59</ele>
        <time>2025-02-03T07:36:43.224Z</time>
      </trkpt>
      <trkpt lat="59.111671932041645" lon="12.83917598426342">
        <ele>49.86</ele>
        <time>2025-02-03T07:36:53.155Z</time>
      </trkpt>
      <trkpt lat="59.111666986718774" lon="12.839029971510172">
        <ele>50.14</ele>
        <time>2025-02-03T07:37:03.087Z</time>
      </trkpt>
      <trkpt lat="59.11166195757687" lon="12.838884964585304">
        <ele>50.43</ele>
        <time>2025-02-03T07:37:13.021Z</time>
      </trkpt>
      <trkpt lat="59.11165894009173" lon="12.838741969317198">
        <ele>50.72</ele>
        <time>2025-02-03T07:37:22.956Z</time>
      </trkpt>
      <trkpt lat="59.11165592260659" lon="12.838600985705853">
        <ele>51.01</ele>
        <time>2025-02-03T07:37:32.892Z</time>
      </trkpt>
      <trkpt lat="59.1116519831121" lon="12.838460924103856">
        <ele>51.32</ele>
        <time>2025-02-03T07:37:42.829Z</time>
      </trkpt>
      <trkpt lat="59.111647959798574" lon="12.838322957977653">
        <ele>51.62</ele>
        <time>2025-02-03T07:37:52.767Z</time>
      </trkpt>
      <trkpt lat="59.11164594814181" lon="12.838183986023068">
        <ele>51.93</ele>
        <time>2025-02-03T07:38:02.706Z</time>
      </trkpt>
      <trkpt lat="59.11164192482829" lon="12.838047947734594">
        <ele>52.24</ele>
        <time>2025-02-03T07:38:12.646Z</time>
      </trkpt>
      <trkpt lat="59.1116379853338" lon="12.837913921102881">
        <ele>52.55</ele>
        <time>2025-02-03T07:38:22.588Z</time>
      </trkpt>
      <trkpt lat="59.1116329561919" lon="12.83778098411858">
        <ele>52.87</ele>
        <time>2025-02-03T07:38:32.531Z</time>
      </trkpt>
      <trkpt lat="59.111629938706756" lon="12.83764997497201">
        <ele>53.18</ele>
        <time>2025-02-03T07:38:42.475Z</time>
      </trkpt>
      <trkpt lat="59.111627927049994" lon="12.83752198331058">
        <ele>53.51</ele>
        <time>2025-02-03T07:38:52.420Z</time>
      </trkpt>
      <trkpt lat="59.11162298172712" lon="12.83739692531526">
        <ele>53.83</ele>
        <time>2025-02-03T07:39:02.366Z</time>
      </trkpt>
      <trkpt lat="59.11161694675684" lon="12.837273962795734">
        <ele>54.16</ele>
        <time>2025-02-03T07:39:12.313Z</time>
      </trkpt>
      <trkpt lat="59.11161191761494" lon="12.837152928113937">
        <ele>54.49</ele>
        <time>2025-02-03T07:39:22.261Z</time>
      </trkpt>
      <trkpt lat="59.111607978120446" lon="12.837033988907933">
        <ele>54.81</ele>
        <time>2025-02-03T07:39:32.210Z</time>
      </trkpt>
      <trkpt lat="59.111605966463685" lon="12.83691898919642">
        <ele>55.15</ele>
        <time>2025-02-03T07:39:42.160Z</time>
      </trkpt>
      <trkpt lat="59.111603954806924" lon="12.836805917322636">
        <ele>55.48</ele>
        <time>2025-02-03T07:39:52.111Z</time>
      </trkpt>
      <trkpt lat="59.11160093732178" lon="12.836697958409786">
        <ele>55.82</ele>
        <time>2025-02-03T07:40:02.063Z</time>
      </trkpt>
      <trkpt lat="59.11159599199891" lon="12.836593938991427">
        <ele>56.16</ele>
        <time>2025-02-03T07:40:12.015Z</time>
      </trkpt>
      <trkpt lat="59.11159096285701" lon="12.836493942886591">
        <ele>56.51</ele>
        <time>2025-02-03T07:40:21.968Z</time>
      </trkpt>
      <trkpt lat="59.111584927886724" lon="12.836395958438516">
        <ele>56.85</ele>
        <time>2025-02-03T07:40:31.922Z</time>
      </trkpt>
      <trkpt lat="59.11157696507871" lon="12.836298979818821">
        <ele>57.21</ele>
        <time>2025-02-03T07:40:41.877Z</time>
      </trkpt>
      <trkpt lat="59.11156891845167" lon="12.836203929036856">
        <ele>57.56</ele>
        <time>2025-02-03T07:40:51.833Z</time>
      </trkpt>
      <trkpt lat="59.111561961472034" lon="12.836107956245542">
        <ele>57.9</ele>
        <time>2025-02-03T07:41:01.790Z</time>
      </trkpt>
      <trkpt lat="59.11155592650175" lon="12.836012989282608">
        <ele>58.25</ele>
        <time>2025-02-03T07:41:11.747Z</time>
      </trkpt>
      <trkpt lat="59.11154896952212" lon="12.835922967642546">
        <ele>58.6</ele>
        <time>2025-02-03T07:41:21.705Z</time>
      </trkpt>
      <trkpt lat="59.111537989228964" lon="12.835833951830864">
        <ele>58.95</ele>
        <time>2025-02-03T07:41:31.664Z</time>
      </trkpt>
      <trkpt lat="59.11152298562229" lon="12.835745941847563">
        <ele>59.31</ele>
        <time>2025-02-03T07:41:41.624Z</time>
      </trkpt>
      <trkpt lat="59.11150798201561" lon="12.8356559202075">
        <ele>59.67</ele>
        <time>2025-02-03T07:41:51.584Z</time>
      </trkpt>
      <trkpt lat="59.11149096675217" lon="12.835560953244567">
        <ele>60.02</ele>
        <time>2025-02-03T07:42:01.545Z</time>
      </trkpt>
      <trkpt lat="59.11147294566035" lon="12.835469925776124">
        <ele>60.38</ele>
        <time>2025-02-03T07:42:11.507Z</time>
      </trkpt>
      <trkpt lat="59.111451990902424" lon="12.835378982126713">
        <ele>60.73</ele>
        <time>2025-02-03T07:42:21.470Z</time>
      </trkpt>
      <trkpt lat="59.111431958153844" lon="12.835284937173128">
        <ele>61.09</ele>
        <time>2025-02-03T07:42:31.434Z</time>
      </trkpt>
      <trkpt lat="59.111412931233644" lon="12.835190976038575">
        <ele>61.44</ele>
        <time>2025-02-03T07:42:41.399Z</time>
      </trkpt>
      <trkpt lat="59.111390970647335" lon="12.835102966055274">
        <ele>61.79</ele>
        <time>2025-02-03T07:42:51.364Z</time>
      </trkpt>
      <trkpt lat="59.11136792041361" lon="12.835016967728734">
        <ele>62.14</ele>
        <time>2025-02-03T07:43:01.330Z</time>
      </trkpt>
      <trkpt lat="59.111345959827304" lon="12.834934992715716">
        <ele>62.49</ele>
        <time>2025-02-03T07:43:11.297Z</time>
      </trkpt>
      <trkpt lat="59.111323999240994" lon="12.834850922226906">
        <ele>62.84</ele>
        <time>2025-02-03T07:43:21.265Z</time>
      </trkpt>
      <trkpt lat="59.11129994317889" lon="12.834764923900366">
        <ele>63.19</ele>
        <time>2025-02-03T07:43:31.233Z</time>
      </trkpt>
      <trkpt lat="59.1112769767642" lon="12.834676997736096">
        <ele>63.54</ele>
        <time>2025-02-03T07:43:41.202Z</time>
      </trkpt>
      <trkpt lat="59.11125593818724" lon="12.834586976096034">
        <ele>63.88</ele>
        <time>2025-02-03T07:43:51.172Z</time>
      </trkpt>
      <trkpt lat="59.11123297177255" lon="12.834495948627591">
        <ele>64.23</ele>
        <time>2025-02-03T07:44:01.143Z</time>
      </trkpt>
      <trkpt lat="59.11120899952948" lon="12.834404921159148">
        <ele>64.57</ele>
        <time>2025-02-03T07:44:11.115Z</time>
      </trkpt>
      <trkpt lat="59.11118594929576" lon="12.834311965852976">
        <ele>64.91</ele>
        <time>2025-02-03T07:44:21.088Z</time>
      </trkpt>
      <trkpt lat="59.11116398870945" lon="12.834218926727772">
        <ele>65.25</ele>
        <time>2025-02-03T07:44:31.061Z</time>
      </trkpt>
      <trkpt lat="59.11114093847573" lon="12.83412697724998">
        <ele>65.59</ele>
        <time>2025-02-03T07:44:41.035Z</time>
      </trkpt>
      <trkpt lat="59.11111596040428" lon="12.834034943953156">
        <ele>65.93</ele>
        <time>2025-02-03T07:44:51.010Z</time>
      </trkpt>
      <trkpt lat="59.111094921827316" lon="12.833938971161842">
        <ele>66.26</ele>
        <time>2025-02-03T07:45:00.986Z</time>
      </trkpt>
      <trkpt lat="59.11107296124101" lon="12.833839980885386">
        <ele>66.59</ele>
        <time>2025-02-03T07:45:10.963Z</time>
      </trkpt>
      <trkpt lat="59.11104999482632" lon="12.833741996437311">
        <ele>66.92</ele>
        <time>2025-02-03T07:45:20.941Z</time>
      </trkpt>
      <trkpt lat="59.111026944592595" lon="12.833638982847333">
        <ele>67.24</ele>
        <time>2025-02-03T07:45:30.920Z</time>
      </trkpt>
      <trkpt lat="59.111005989834666" lon="12.83352892845869">
        <ele>67.57</ele>
        <time>2025-02-03T07:45:40.900Z</time>
      </trkpt>
      <trkpt lat="59.110984951257706" lon="12.833414934575558">
        <ele>67.89</ele>
        <time>2025-02-03T07:45:50.881Z</time>
      </trkpt>
      <trkpt lat="59.11096693016589" lon="12.833292977884412">
        <ele>68.2</ele>
        <time>2025-02-03T07:46:00.863Z</time>
      </trkpt>
      <trkpt lat="59.11095092073083" lon="12.833167919889092">
        <ele>68.52</ele>
        <time>2025-02-03T07:46:10.846Z</time>
      </trkpt>
      <trkpt lat="59.11093792878091" lon="12.833037916570902">
        <ele>68.82</ele>
        <time>2025-02-03T07:46:20.830Z</time>
      </trkpt>
      <trkpt lat="59.11092795431614" lon="12.832907997071743">
        <ele>69.12</ele>
        <time>2025-02-03T07:46:30.815Z</time>
      </trkpt>
      <trkpt lat="59.110919991508126" lon="12.83277497626841">
        <ele>69.41</ele>
        <time>2025-02-03T07:46:40.801Z</time>
      </trkpt>
      <trkpt lat="59.11091395653784" lon="12.832638937979937">
        <ele>69.71</ele>
        <time>2025-02-03T07:46:50.788Z</time>
      </trkpt>
      <trkpt lat="59.11090993322432" lon="12.832500971853733">
        <ele>70.0</ele>
        <time>2025-02-03T07:47:00.776Z</time>
      </trkpt>
      <trkpt lat="59.11090792156756" lon="12.832361999899149">
        <ele>70.28</ele>
        <time>2025-02-03T07:47:10.766Z</time>
      </trkpt>
      <trkpt lat="59.11090599372983" lon="12.832217998802662">
        <ele>70.56</ele>
        <time>2025-02-03T07:47:20.757Z</time>
      </trkpt>
      <trkpt lat="59.11090599372983" lon="12.832069974392653">
        <ele>70.83</ele>
        <time>2025-02-03T07:47:30.749Z</time>
      </trkpt>
      <trkpt lat="59.1109109390527" lon="12.831919938325882">
        <ele>71.1</ele>
        <time>2025-02-03T07:47:40.742Z</time>
      </trkpt>
      <trkpt lat="59.110917979851365" lon="12.831768980249763">
        <ele>71.35</ele>
        <time>2025-02-03T07:47:50.736Z</time>
      </trkpt>
      <trkpt lat="59.11092393100262" lon="12.83161693252623">
        <ele>71.61</ele>
        <time>2025-02-03T07:48:00.732Z</time>
      </trkpt>
      <trkpt lat="59.11092795431614" lon="12.83146396279335">
        <ele>71.87</ele>
        <time>2025-02-03T07:48:10.729Z</time>
      </trkpt>
      <trkpt lat="59.11093197762966" lon="12.83131099306047">
        <ele>72.13</ele>
        <time>2025-02-03T07:48:20.727Z</time>
      </trkpt>
      <trkpt lat="59.11093591712415" lon="12.831157939508557">
        <ele>72.38</ele>
        <time>2025-02-03T07:48:30.726Z</time>
      </trkpt>
      <trkpt lat="59.110940946266055" lon="12.831007987260818">
        <ele>72.63</ele>
        <time>2025-02-03T07:48:40.727Z</time>
      </trkpt>
      <trkpt lat="59.11094698123634" lon="12.830858957022429">
        <ele>72.88</ele>
        <time>2025-02-03T07:48:50.729Z</time>
      </trkpt>
      <trkpt lat="59.11095192655921" lon="12.8307119384408">
        <ele>73.12</ele>
        <time>2025-02-03T07:49:00.732Z</time>
      </trkpt>
      <trkpt lat="59.11095594987273" lon="12.830566931515932">
        <ele>73.36</ele>
        <time>2025-02-03T07:49:10.736Z</time>
      </trkpt>
      <trkpt lat="59.110959973186255" lon="12.830424942076206">
        <ele>73.6</ele>
        <time>2025-02-03T07:49:20.742Z</time>
      </trkpt>
      <trkpt lat="59.11096399649978" lon="12.830286975950003">
        <ele>73.82</ele>
        <time>2025-02-03T07:49:30.749Z</time>
      </trkpt>
      <trkpt lat="59.11096894182265" lon="12.830150937661529">
        <ele>74.04</ele>
        <time>2025-02-03T07:49:40.757Z</time>
      </trkpt>
      <trkpt lat="59.11097497679293" lon="12.830016994848847">
        <ele>74.25</ele>
        <time>2025-02-03T07:49:50.766Z</time>
      </trkpt>
      <trkpt lat="59.11097891628742" lon="12.829886991530657">
        <ele>74.46</ele>
        <time>2025-02-03T07:50:00.776Z</time>
      </trkpt>
      <trkpt lat="59.110982939600945" lon="12.829758999869227">
        <ele>74.65</ele>
        <time>2025-02-03T07:50:10.787Z</time>
      </trkpt>
      <trkpt lat="59.11098796874285" lon="12.829627990722656">
        <ele>74.84</ele>
        <time>2025-02-03T07:50:20.799Z</time>
      </trkpt>
      <trkpt lat="59.11099299788475" lon="12.829496981576085">
        <ele>75.02</ele>
        <time>2025-02-03T07:50:30.812Z</time>
      </trkpt>
      <trkpt lat="59.11099693737924" lon="12.829364966601133">
        <ele>75.19</ele>
        <time>2025-02-03T07:50:40.826Z</time>
      </trkpt>
      <trkpt lat="59.111001966521144" lon="12.829232951626182">
        <ele>75.35</ele>
        <time>2025-02-03T07:50:50.841Z</time>
      </trkpt>
      <trkpt lat="59.111003978177905" lon="12.829098924994469">
        <ele>75.51</ele>
        <time>2025-02-03T07:51:00.857Z</time>
      </trkpt>
      <trkpt lat="59.111007917672396" lon="12.828963976353407">
        <ele>75.67</ele>
        <time>2025-02-03T07:51:10.875Z</time>
      </trkpt>
      <trkpt lat="59.11100992932916" lon="12.828829949721694">
        <ele>75.82</ele>
        <time>2025-02-03T07:51:20.894Z</time>
      </trkpt>
      <trkpt lat="59.111008923500776" lon="12.828693995252252">
        <ele>75.96</ele>
        <time>2025-02-03T07:51:30.914Z</time>
      </trkpt>
      <trkpt lat="59.11100699566305" lon="12.828558962792158">
        <ele>76.1</ele>
        <time>2025-02-03T07:51:40.935Z</time>
      </trkpt>
      <trkpt lat="59.11099995486438" lon="12.828429965302348">
        <ele>76.23</ele>
        <time>2025-02-03T07:51:50.957Z</time>
      </trkpt>
      <trkpt lat="59.11098897457123" lon="12.828296944499016">
        <ele>76.35</ele>
        <time>2025-02-03T07:52:00.980Z</time>
      </trkpt>
      <trkpt lat="59.11097598262131" lon="12.828162917867303">
        <ele>76.47</ele>
        <time>2025-02-03T07:52:11.004Z</time>
      </trkpt>
      <trkpt lat="59.110960979014635" lon="12.828022940084338">
        <ele>76.58</ele>
        <time>2025-02-03T07:52:21.029Z</time>
      </trkpt>
      <trkpt lat="59.110942957922816" lon="12.827883968129754">
        <ele>76.68</ele>
        <time>2025-02-03T07:52:31.056Z</time>
      </trkpt>
      <trkpt lat="59.110924936831" lon="12.8277469240129">
        <ele>76.78</ele>
        <time>2025-02-03T07:52:41.084Z</time>
      </trkpt>
      <trkpt lat="59.11090297624469" lon="12.827608957886696">
        <ele>76.86</ele>
        <time>2025-02-03T07:52:51.113Z</time>
      </trkpt>
      <trkpt lat="59.110876992344856" lon="12.827470991760492">
        <ele>76.94</ele>
        <time>2025-02-03T07:53:01.143Z</time>
      </trkpt>
      <trkpt lat="59.11084799095988" lon="12.827333947643638">
        <ele>77.01</ele>
        <time>2025-02-03T07:53:11.174Z</time>
      </trkpt>
      <trkpt lat="59.11081597208977" lon="12.827197993174195">
        <ele>77.08</ele>
        <time>2025-02-03T07:53:21.207Z</time>
      </trkpt>
      <trkpt lat="59.11078194156289" lon="12.82705994322896">
        <ele>77.13</ele>
        <time>2025-02-03T07:53:31.241Z</time>
      </trkpt>
      <trkpt lat="59.110748916864395" lon="12.826923988759518">
        <ele>77.18</ele>
        <time>2025-02-03T07:53:41.276Z</time>
      </trkpt>
      <trkpt lat="59.11071295849979" lon="12.826786944642663">
        <ele>77.23</ele>
        <time>2025-02-03T07:53:51.312Z</time>
      </trkpt>
      <trkpt lat="59.11067993380129" lon="12.82664998434484">
        <ele>77.26</ele>
        <time>2025-02-03T07:54:01.350Z</time>
      </trkpt>
      <trkpt lat="59.11064699292183" lon="12.826511934399605">
        <ele>77.29</ele>
        <time>2025-02-03T07:54:11.389Z</time>
      </trkpt>
      <trkpt lat="59.11061396822333" lon="12.826373968273401">
        <ele>77.32</ele>
        <time>2025-02-03T07:54:21.429Z</time>
      </trkpt>
      <trkpt lat="59.110575998201966" lon="12.826234996318817">
        <ele>77.33</ele>
        <time>2025-02-03T07:54:31.470Z</time>
      </trkpt>
      <trkpt lat="59.11053794436157" lon="12.826097952201962">
        <ele>77.34</ele>
        <time>2025-02-03T07:54:41.513Z</time>
      </trkpt>
      <trkpt lat="59.11050098016858" lon="12.825957974418998">
        <ele>77.34</ele>
        <time>2025-02-03T07:54:51.557Z</time>
      </trkpt>
      <trkpt lat="59.11046393215656" lon="12.825816990807652">
        <ele>77.34</ele>
        <time>2025-02-03T07:55:01.602Z</time>
      </trkpt>
      <trkpt lat="59.11042797379196" lon="12.825675923377275">
        <ele>77.34</ele>
        <time>2025-02-03T07:55:11.649Z</time>
      </trkpt>
      <trkpt lat="59.11039193160832" lon="12.82553393393755">
        <ele>77.33</ele>
        <time>2025-02-03T07:55:21.697Z</time>
      </trkpt>
      <trkpt lat="59.110357984900475" lon="12.825390938669443">
        <ele>77.32</ele>
        <time>2025-02-03T07:55:31.746Z</time>
      </trkpt>
      <trkpt lat="59.11032596603036" lon="12.825246937572956">
        <ele>77.3</ele>
        <time>2025-02-03T07:55:41.797Z</time>
      </trkpt>
      <trkpt lat="59.11029294133186" lon="12.825096985325217">
        <ele>77.27</ele>
        <time>2025-02-03T07:55:51.849Z</time>
      </trkpt>
      <trkpt lat="59.11025991663337" lon="12.824950972571969">
        <ele>77.23</ele>
        <time>2025-02-03T07:56:01.902Z</time>
      </trkpt>
      <trkpt lat="59.110221946612" lon="12.824801942333579">
        <ele>77.19</ele>
        <time>2025-02-03T07:56:11.957Z</time>
      </trkpt>
      <trkpt lat="59.11018095910549" lon="12.82465492375195">
        <ele>77.13</ele>
        <time>2025-02-03T07:56:22.013Z</time>
      </trkpt>
      <trkpt lat="59.1101339366287" lon="12.824507988989353">
        <ele>77.07</ele>
        <time>2025-02-03T07:56:32.070Z</time>
      </trkpt>
      <trkpt lat="59.110081968829036" lon="12.824364993721247">
        <ele>77.01</ele>
        <time>2025-02-03T07:56:42.129Z</time>
      </trkpt>
      <trkpt lat="59.11002899520099" lon="12.82422292046249">
        <ele>76.93</ele>
        <time>2025-02-03T07:56:52.189Z</time>
      </trkpt>
      <trkpt lat="59.109976943582296" lon="12.824079925194383">
        <ele>76.85</ele>
        <time>2025-02-03T07:57:02.251Z</time>
      </trkpt>
      <trkpt lat="59.10991994664073" lon="12.82394497655332">
        <ele>76.76</ele>
        <time>2025-02-03T07:57:12.314Z</time>
      </trkpt>
      <trkpt lat="59.10986294969916" lon="12.82381296157837">
        <ele>76.67</ele>
        <time>2025-02-03T07:57:22.379Z</time>
      </trkpt>
      <trkpt lat="59.10980796441436" lon="12.823695950210094">
        <ele>76.57</ele>
        <time>2025-02-03T07:57:32.445Z</time>
      </trkpt>
      <trkpt lat="59.10975197330117" lon="12.823581956326962">
        <ele>76.46</ele>
        <time>2025-02-03T07:57:42.512Z</time>
      </trkpt>
      <trkpt lat="59.109691958874464" lon="12.823464944958687">
        <ele>76.35</ele>
        <time>2025-02-03T07:57:52.581Z</time>
      </trkpt>
      <trkpt lat="59.109626999124885" lon="12.823348939418793">
        <ele>76.25</ele>
        <time>2025-02-03T07:58:02.651Z</time>
      </trkpt>
      <trkpt lat="59.109562961384654" lon="12.82323494553566">
        <ele>76.13</ele>
        <time>2025-02-03T07:58:12.722Z</time>
      </trkpt>
      <trkpt lat="59.10949892364442" lon="12.823115922510624">
        <ele>76.01</ele>
        <time>2025-02-03T07:58:22.795Z</time>
      </trkpt>
      <trkpt lat="59.109435975551605" lon="12.823002934455872">
        <ele>75.88</ele>
        <time>2025-02-03T07:58:32.869Z</time>
      </trkpt>
      <trkpt lat="59.109370931982994" lon="12.822887934744358">
        <ele>75.75</ele>
        <time>2025-02-03T07:58:42.945Z</time>
      </trkpt>
      <trkpt lat="59.109305972233415" lon="12.822767989709973">
        <ele>75.61</ele>
        <time>2025-02-03T07:58:53.022Z</time>
      </trkpt>
      <trkpt lat="59.109243946149945" lon="12.822634968906641">
        <ele>75.46</ele>
        <time>2025-02-03T07:59:03.100Z</time>
      </trkpt>
      <trkpt lat="59.10918896086514" lon="12.822488956153393">
        <ele>75.31</ele>
        <time>2025-02-03T07:59:13.180Z</time>
      </trkpt>
      <trkpt lat="59.109133975580335" lon="12.822333974763751">
        <ele>75.16</ele>
        <time>2025-02-03T07:59:23.262Z</time>
      </trkpt>
      <trkpt lat="59.10908695310354" lon="12.822175975888968">
        <ele>75.0</ele>
        <time>2025-02-03T07:59:33.345Z</time>
      </trkpt>
      <trkpt lat="59.10904495976865" lon="12.822016971185803">
        <ele>74.84</ele>
        <time>2025-02-03T07:59:43.430Z</time>
      </trkpt>
      <trkpt lat="59.10900296643376" lon="12.821854948997498">
        <ele>74.68</ele>
        <time>2025-02-03T07:59:53.516Z</time>
      </trkpt>
      <trkpt lat="59.10896793007851" lon="12.82168697565794">
        <ele>74.5</ele>
        <time>2025-02-03T08:00:03.604Z</time>
      </trkpt>
      <trkpt lat="59.10893096588552" lon="12.821506932377815">
        <ele>74.32</ele>
        <time>2025-02-03T08:00:13.693Z</time>
      </trkpt>
      <trkpt lat="59.10889299586415" lon="12.82134298235178">
        <ele>74.14</ele>
        <time>2025-02-03T08:00:23.784Z</time>
      </trkpt>
      <trkpt lat="59.10885192453861" lon="12.821175931021571">
        <ele>73.95</ele>
        <time>2025-02-03T08:00:33.876Z</time>
      </trkpt>
      <trkpt lat="59.108811942860484" lon="12.821013992652297">
        <ele>73.76</ele>
        <time>2025-02-03T08:00:43.970Z</time>
      </trkpt>
      <trkpt lat="59.10877598449588" lon="12.82085096463561">
        <ele>73.57</ele>
        <time>2025-02-03T08:00:54.065Z</time>
      </trkpt>
      <trkpt lat="59.108741953969" lon="12.820685924962163">
        <ele>73.37</ele>
        <time>2025-02-03T08:01:04.162Z</time>
      </trkpt>
      <trkpt lat="59.108708929270506" lon="12.820519963279366">
        <ele>73.17</ele>
        <time>2025-02-03T08:01:14.260Z</time>
      </trkpt>
      <trkpt lat="59.10867598839104" lon="12.820349978283048">
        <ele>72.95</ele>
        <time>2025-02-03T08:01:24.360Z</time>
      </trkpt>
      <trkpt lat="59.10864396952093" lon="12.820179993286729">
        <ele>72.74</ele>
        <time>2025-02-03T08:01:34.461Z</time>
      </trkpt>
      <trkpt lat="59.108616979792714" lon="12.820001961663365">
        <ele>72.53</ele>
        <time>2025-02-03T08:01:44.564Z</time>
      </trkpt>
      <trkpt lat="59.10859493538737" lon="12.819814961403608">
        <ele>72.32</ele>
        <time>2025-02-03T08:01:54.668Z</time>
      </trkpt>
      <trkpt lat="59.10858194343746" lon="12.81962494365871">
        <ele>72.09</ele>
        <time>2025-02-03T08:02:04.774Z</time>
      </trkpt>
      <trkpt lat="59.108573980629444" lon="12.819425957277417">
        <ele>71.86</ele>
        <time>2025-02-03T08:02:14.881Z</time>
      </trkpt>
      <trkpt lat="59.10857196897268" lon="12.819232922047377">
        <ele>71.64</ele>
        <time>2025-02-03T08:02:24.990Z</time>
      </trkpt>
      <trkpt lat="59.10857297480106" lon="12.819034941494465">
        <ele>71.41</ele>
        <time>2025-02-03T08:02:35.101Z</time>
      </trkpt>
      <trkpt lat="59.108575992286205" lon="12.818836960941553">
        <ele>71.18</ele>
        <time>2025-02-03T08:02:45.213Z</time>
      </trkpt>
      <trkpt lat="59.10858194343746" lon="12.818638980388641">
        <ele>70.96</ele>
        <time>2025-02-03T08:02:55.327Z</time>
      </trkpt>
      <trkpt lat="59.10859099589288" lon="12.818447956815362">
        <ele>70.73</ele>
        <time>2025-02-03T08:03:05.442Z</time>
      </trkpt>
      <trkpt lat="59.10860298201442" lon="12.818252993747592">
        <ele>70.49</ele>
        <time>2025-02-03T08:03:15.559Z</time>
      </trkpt>
      <trkpt lat="59.10861396230757" lon="12.81805694103241">
        <ele>70.24</ele>
        <time>2025-02-03T08:03:25.678Z</time>
      </trkpt>
      <trkpt lat="59.10862594842911" lon="12.81786692328751">
        <ele>69.99</ele>
        <time>2025-02-03T08:03:35.798Z</time>
      </trkpt>
      <trkpt lat="59.1086349170655" lon="12.817673971876502">
        <ele>69.74</ele>
        <time>2025-02-03T08:03:45.920Z</time>
      </trkpt>
      <trkpt lat="59.108639946207404" lon="12.8174789249897">
        <ele>69.5</ele>
        <time>2025-02-03T08:03:56.043Z</time>
      </trkpt>
      <trkpt lat="59.108640952035785" lon="12.817284967750311">
        <ele>69.25</ele>
        <time>2025-02-03T08:04:06.168Z</time>
      </trkpt>
      <trkpt lat="59.10863793455064" lon="12.817092938348651">
        <ele>69.0</ele>
        <time>2025-02-03T08:04:16.295Z</time>
      </trkpt>
      <trkpt lat="59.10862796008587" lon="12.816900992766023">
        <ele>68.75</ele>
        <time>2025-02-03T08:04:26.423Z</time>
      </trkpt>
      <trkpt lat="59.10861496813595" lon="12.816719943657517">
        <ele>68.52</ele>
        <time>2025-02-03T08:04:36.553Z</time>
      </trkpt>
      <trkpt lat="59.108597952872515" lon="12.816539984196424">
        <ele>68.28</ele>
        <time>2025-02-03T08:04:46.684Z</time>
      </trkpt>
      <trkpt lat="59.108573980629444" lon="12.816364970058203">
        <ele>68.04</ele>
        <time>2025-02-03T08:04:56.817Z</time>
      </trkpt>
      <trkpt lat="59.10853894427419" lon="12.816191967576742">
        <ele>67.8</ele>
        <time>2025-02-03T08:05:06.951Z</time>
      </trkpt>
      <trkpt lat="59.108493933454156" lon="12.816022988408804">
        <ele>67.55</ele>
        <time>2025-02-03T08:05:17.087Z</time>
      </trkpt>
      <trkpt lat="59.10844196565449" lon="12.815855937078595">
        <ele>67.31</ele>
        <time>2025-02-03T08:05:27.224Z</time>
      </trkpt>
      <trkpt lat="59.10838798619807" lon="12.815689975395799">
        <ele>67.07</ele>
        <time>2025-02-03T08:05:37.363Z</time>
      </trkpt>
      <trkpt lat="59.10832797177136" lon="12.815528959035873">
        <ele>66.83</ele>
        <time>2025-02-03T08:05:47.504Z</time>
      </trkpt>
      <trkpt lat="59.10825999453664" lon="12.815367942675948">
        <ele>66.59</ele>
        <time>2025-02-03T08:05:57.646Z</time>
      </trkpt>
      <trkpt lat="59.108188999816775" lon="12.815213967114687">
        <ele>66.36</ele>
        <time>2025-02-03T08:06:07.790Z</time>
      </trkpt>
      <trkpt lat="59.10811398178339" lon="12.8150699660182">
        <ele>66.12</ele>
        <time>2025-02-03T08:06:17.936Z</time>
      </trkpt>
      <trkpt lat="59.10803594626486" lon="12.814935939386487">
        <ele>65.89</ele>
        <time>2025-02-03T08:06:28.084Z</time>
      </trkpt>
      <trkpt lat="59.107954977080226" lon="12.814808953553438">
        <ele>65.66</ele>
        <time>2025-02-03T08:06:38.233Z</time>
      </trkpt>
      <trkpt lat="59.10787492990494" lon="12.814688924700022">
        <ele>65.45</ele>
        <time>2025-02-03T08:06:48.384Z</time>
      </trkpt>
      <trkpt lat="59.10779496654868" lon="12.814573924988508">
        <ele>65.23</ele>
        <time>2025-02-03T08:06:58.536Z</time>
      </trkpt>
      <trkpt lat="59.107715925201774" lon="12.814460936933756">
        <ele>65.02</ele>
        <time>2025-02-03T08:07:08.690Z</time>
      </trkpt>
      <trkpt lat="59.10763897933066" lon="12.814346943050623">
        <ele>64.8</ele>
        <time>2025-02-03T08:07:18.846Z</time>
      </trkpt>
      <trkpt lat="59.10756094381213" lon="12.814236972481012">
        <ele>64.59</ele>
        <time>2025-02-03T08:07:29.003Z</time>
      </trkpt>
      <trkpt lat="59.107481986284256" lon="12.81412792392075">
        <ele>64.38</ele>
        <time>2025-02-03T08:07:39.162Z</time>
      </trkpt>
      <trkpt lat="59.10740395076573" lon="12.81401795335114">
        <ele>64.18</ele>
        <time>2025-02-03T08:07:49.322Z</time>
      </trkpt>
      <trkpt lat="59.107325999066234" lon="12.81390898860991">
        <ele>63.97</ele>
        <time>2025-02-03T08:07:59.484Z</time>
      </trkpt>
      <trkpt lat="59.10724796354771" lon="12.81380396336317">
        <ele>63.76</ele>
        <time>2025-02-03T08:08:09.647Z</time>
      </trkpt>
      <trkpt lat="59.10717093385756" lon="12.81369592063129">
        <ele>63.56</ele>
        <time>2025-02-03T08:08:19.812Z</time>
      </trkpt>
      <trkpt lat="59.107096921652555" lon="12.81358695589006">
        <ele>63.36</ele>
        <time>2025-02-03T08:08:29.978Z</time>
      </trkpt>
      <trkpt lat="59.10701997578144" lon="12.813473967835307">
        <ele>63.17</ele>
        <time>2025-02-03T08:08:40.146Z</time>
      </trkpt>
      <trkpt lat="59.10694093443453" lon="12.813364919275045">
        <ele>62.97</ele>
        <time>2025-02-03T08:08:50.315Z</time>
      </trkpt>
      <trkpt lat="59.10686298273504" lon="12.813254948705435">
        <ele>62.79</ele>
        <time>2025-02-03T08:09:00.486Z</time>
      </trkpt>
      <trkpt lat="59.10678394138813" lon="12.813145983964205">
        <ele>62.6</ele>
        <time>2025-02-03T08:09:10.658Z</time>
      </trkpt>
      <trkpt lat="59.106706995517015" lon="12.813039952889085">
        <ele>62.42</ele>
        <time>2025-02-03T08:09:20.832Z</time>
      </trkpt>
      <trkpt lat="59.10662895999849" lon="12.812932999804616">
        <ele>62.24</ele>
        <time>2025-02-03T08:09:31.007Z</time>
      </trkpt>
      <trkpt lat="59.10654899664223" lon="12.812823951244354">
        <ele>62.07</ele>
        <time>2025-02-03T08:09:41.184Z</time>
      </trkpt>
      <trkpt lat="59.106469955295324" lon="12.812714986503124">
        <ele>61.91</ele>
        <time>2025-02-03T08:09:51.363Z</time>
      </trkpt>
      <trkpt lat="59.1063919197768" lon="12.81260292045772">
        <ele>61.75</ele>
        <time>2025-02-03T08:10:01.543Z</time>
      </trkpt>
      <trkpt lat="59.10631195642054" lon="12.81249395571649">
        <ele>61.59</ele>
        <time>2025-02-03T08:10:11.725Z</time>
      </trkpt>
      <trkpt lat="59.106233920902014" lon="12.81238691881299">
        <ele>61.44</ele>
        <time>2025-02-03T08:10:21.908Z</time>
      </trkpt>
      <trkpt lat="59.10615596920252" lon="12.812280971556902">
        <ele>61.29</ele>
        <time>2025-02-03T08:10:32.093Z</time>
      </trkpt>
      <trkpt lat="59.10607592202723" lon="12.81217192299664">
        <ele>61.15</ele>
        <time>2025-02-03T08:10:42.279Z</time>
      </trkpt>
      <trkpt lat="59.105996964499354" lon="12.812060946598649">
        <ele>61.01</ele>
        <time>2025-02-03T08:10:52.467Z</time>
      </trkpt>
      <trkpt lat="59.10591892898083" lon="12.811950976029038">
        <ele>60.88</ele>
        <time>2025-02-03T08:11:02.656Z</time>
      </trkpt>
      <trkpt lat="59.10583997145295" lon="12.811838993802667">
        <ele>60.75</ele>
        <time>2025-02-03T08:11:12.847Z</time>
      </trkpt>
      <trkpt lat="59.105761935934424" lon="12.811726927757263">
        <ele>60.62</ele>
        <time>2025-02-03T08:11:23.040Z</time>
      </trkpt>
      <trkpt lat="59.10568398423493" lon="12.81161293387413">
        <ele>60.5</ele>
        <time>2025-02-03T08:11:33.234Z</time>
      </trkpt>
      <trkpt lat="59.10560796037316" lon="12.811493994668126">
        <ele>60.39</ele>
        <time>2025-02-03T08:11:43.430Z</time>
      </trkpt>
      <trkpt lat="59.10553394816816" lon="12.811366925016046">
        <ele>60.28</ele>
        <time>2025-02-03T08:11:53.627Z</time>
      </trkpt>
      <trkpt lat="59.10546496510506" lon="12.811234993860126">
        <ele>60.18</ele>
        <time>2025-02-03T08:12:03.826Z</time>
      </trkpt>
      <trkpt lat="59.105397993698716" lon="12.811099961400032">
        <ele>60.09</ele>
        <time>2025-02-03T08:12:14.026Z</time>
      </trkpt>
      <trkpt lat="59.105334961786866" lon="12.810961995273829">
        <ele>60.0</ele>
        <time>2025-02-03T08:12:24.228Z</time>
      </trkpt>
      <trkpt lat="59.10527595318854" lon="12.810821933671832">
        <ele>59.91</ele>
        <time>2025-02-03T08:12:34.431Z</time>
      </trkpt>
      <trkpt lat="59.10521593876183" lon="12.810681955888867">
        <ele>59.84</ele>
        <time>2025-02-03T08:12:44.636Z</time>
      </trkpt>
      <trkpt lat="59.10515491850674" lon="12.810543989762664">
        <ele>59.77</ele>
        <time>2025-02-03T08:12:54.842Z</time>
      </trkpt>
      <trkpt lat="59.10509197041392" lon="12.810409963130951">
        <ele>59.7</ele>
        <time>2025-02-03T08:13:05.050Z</time>
      </trkpt>
      <trkpt lat="59.10502692684531" lon="12.81027895398438">
        <ele>59.64</ele>
        <time>2025-02-03T08:13:15.259Z</time>
      </trkpt>
      <trkpt lat="59.10496196709573" lon="12.81014895066619">
        <ele>59.58</ele>
        <time>2025-02-03T08:13:25.470Z</time>
      </trkpt>
      <trkpt lat="59.10489692352712" lon="12.810017941519618">
        <ele>59.53</ele>
        <time>2025-02-03T08:13:35.682Z</time>
      </trkpt>
      <trkpt lat="59.10483095794916" lon="12.809886932373047">
        <ele>59.48</ele>
        <time>2025-02-03T08:13:45.896Z</time>
      </trkpt>
      <trkpt lat="59.10476398654282" lon="12.809756929054856">
        <ele>59.45</ele>
        <time>2025-02-03T08:13:56.111Z</time>
      </trkpt>
      <trkpt lat="59.10469491966069" lon="12.809628937393427">
        <ele>59.42</ele>
        <time>2025-02-03T08:14:06.328Z</time>
      </trkpt>
      <trkpt lat="59.104625936597586" lon="12.809499939903617">
        <ele>59.4</ele>
        <time>2025-02-03T08:14:16.547Z</time>
      </trkpt>
      <trkpt lat="59.104557959362864" lon="12.809368930757046">
        <ele>59.38</ele>
        <time>2025-02-03T08:14:26.767Z</time>
      </trkpt>
      <trkpt lat="59.104491993784904" lon="12.809239933267236">
        <ele>59.36</ele>
        <time>2025-02-03T08:14:36.989Z</time>
      </trkpt>
      <trkpt lat="59.10442493855953" lon="12.809109929949045">
        <ele>59.34</ele>
        <time>2025-02-03T08:14:47.212Z</time>
      </trkpt>
      <trkpt lat="59.10435595549643" lon="12.808979926630855">
        <ele>59.32</ele>
        <time>2025-02-03T08:14:57.437Z</time>
      </trkpt>
      <trkpt lat="59.10428596660495" lon="12.808849923312664">
        <ele>59.3</ele>
        <time>2025-02-03T08:15:07.663Z</time>
      </trkpt>
      <trkpt lat="59.104212960228324" lon="12.808715980499983">
        <ele>59.29</ele>
        <time>2025-02-03T08:15:17.891Z</time>
      </trkpt>
      <trkpt lat="59.10414095968008" lon="12.808579942211509">
        <ele>59.28</ele>
        <time>2025-02-03T08:15:28.120Z</time>
      </trkpt>
      <trkpt lat="59.104067953303456" lon="12.808442981913686">
        <ele>59.27</ele>
        <time>2025-02-03T08:15:38.351Z</time>
      </trkpt>
      <trkpt lat="59.10399595275521" lon="12.80830199830234">
        <ele>59.28</ele>
        <time>2025-02-03T08:15:48.584Z</time>
      </trkpt>
      <trkpt lat="59.10392395220697" lon="12.808158919215202">
        <ele>59.29</ele>
        <time>2025-02-03T08:15:58.818Z</time>
      </trkpt>
      <trkpt lat="59.103851951658726" lon="12.808014918118715">
        <ele>59.31</ele>
        <time>2025-02-03T08:16:09.054Z</time>
      </trkpt>
      <trkpt lat="59.10377995111048" lon="12.807868989184499">
        <ele>59.33</ele>
        <time>2025-02-03T08:16:19.292Z</time>
      </trkpt>
      <trkpt lat="59.10371297970414" lon="12.80772096477449">
        <ele>59.37</ele>
        <time>2025-02-03T08:16:29.531Z</time>
      </trkpt>
      <trkpt lat="59.10365296527743" lon="12.807564977556467">
        <ele>59.41</ele>
        <time>2025-02-03T08:16:39.772Z</time>
      </trkpt>
      <trkpt lat="59.10360099747777" lon="12.807398932054639">
        <ele>59.46</ele>
        <time>2025-02-03T08:16:50.014Z</time>
      </trkpt>
      <trkpt lat="59.10355699248612" lon="12.807224923744798">
        <ele>59.51</ele>
        <time>2025-02-03T08:17:00.258Z</time>
      </trkpt>
      <trkpt lat="59.1035199444741" lon="12.807045970112085">
        <ele>59.57</ele>
        <time>2025-02-03T08:17:10.504Z</time>
      </trkpt>
      <trkpt lat="59.10349194891751" lon="12.806863998994231">
        <ele>59.64</ele>
        <time>2025-02-03T08:17:20.751Z</time>
      </trkpt>
      <trkpt lat="59.1034699883312" lon="12.806679932400584">
        <ele>59.71</ele>
        <time>2025-02-03T08:17:31.000Z</time>
      </trkpt>
      <trkpt lat="59.103450961411" lon="12.806495949625969">
        <ele>59.78</ele>
        <time>2025-02-03T08:17:41.250Z</time>
      </trkpt>
      <trkpt lat="59.10343294031918" lon="12.806313978508115">
        <ele>59.86</ele>
        <time>2025-02-03T08:17:51.502Z</time>
      </trkpt>
      <trkpt lat="59.10341491922736" lon="12.80613292939961">
        <ele>59.95</ele>
        <time>2025-02-03T08:18:01.755Z</time>
      </trkpt>
      <trkpt lat="59.103396981954575" lon="12.805952969938517">
        <ele>60.04</ele>
        <time>2025-02-03T08:18:12.010Z</time>
      </trkpt>
      <trkpt lat="59.103379966691136" lon="12.805774938315153">
        <ele>60.14</ele>
        <time>2025-02-03T08:18:22.266Z</time>
      </trkpt>
      <trkpt lat="59.1033629514277" lon="12.805602941662073">
        <ele>60.24</ele>
        <time>2025-02-03T08:18:32.524Z</time>
      </trkpt>
      <trkpt lat="59.10334694199264" lon="12.805433962494135">
        <ele>60.35</ele>
        <time>2025-02-03T08:18:42.783Z</time>
      </trkpt>
      <trkpt lat="59.10333193838596" lon="12.805269928649068">
        <ele>60.47</ele>
        <time>2025-02-03T08:18:53.044Z</time>
      </trkpt>
      <trkpt lat="59.103316934779286" lon="12.805105978623033">
        <ele>60.59</ele>
        <time>2025-02-03T08:19:03.306Z</time>
      </trkpt>
      <trkpt lat="59.10330494865775" lon="12.804945968091488">
        <ele>60.73</ele>
        <time>2025-02-03T08:19:13.569Z</time>
      </trkpt>
      <trkpt lat="59.10329497419298" lon="12.804788975045085">
        <ele>60.86</ele>
        <time>2025-02-03T08:19:23.834Z</time>
      </trkpt>
      <trkpt lat="59.10328692756593" lon="12.804638938978314">
        <ele>61.0</ele>
        <time>2025-02-03T08:19:34.100Z</time>
      </trkpt>
      <trkpt lat="59.10328298807144" lon="12.804493932053447">
        <ele>61.14</ele>
        <time>2025-02-03T08:19:44.367Z</time>
      </trkpt>
      <trkpt lat="59.10328399389982" lon="12.804353954270482">
        <ele>61.29</ele>
        <time>2025-02-03T08:19:54.635Z</time>
      </trkpt>
      <trkpt lat="59.103289945051074" lon="12.80421799980104">
        <ele>61.44</ele>
        <time>2025-02-03T08:20:04.904Z</time>
      </trkpt>
      <trkpt lat="59.10329991951585" lon="12.804085984826088">
        <ele>61.58</ele>
        <time>2025-02-03T08:20:15.174Z</time>
      </trkpt>
      <trkpt lat="59.103313917294145" lon="12.803957993164659">
        <ele>61.73</ele>
        <time>2025-02-03T08:20:25.446Z</time>
      </trkpt>
      <trkpt lat="59.1033299267292" lon="12.80383293516934">
        <ele>61.88</ele>
        <time>2025-02-03T08:20:35.719Z</time>
      </trkpt>
      <trkpt lat="59.10334794782102" lon="12.803709972649813">
        <ele>62.03</ele>
        <time>2025-02-03T08:20:45.993Z</time>
      </trkpt>
      <trkpt lat="59.1033679805696" lon="12.803590949624777">
        <ele>62.19</ele>
        <time>2025-02-03T08:20:56.268Z</time>
      </trkpt>
      <trkpt lat="59.10338994115591" lon="12.803473938256502">
        <ele>62.35</ele>
        <time>2025-02-03T08:21:06.544Z</time>
      </trkpt>
      <trkpt lat="59.10341592505574" lon="12.803351981565356">
        <ele>62.52</ele>
        <time>2025-02-03T08:21:16.821Z</time>
      </trkpt>
      <trkpt lat="59.103444926440716" lon="12.80323195271194">
        <ele>62.68</ele>
        <time>2025-02-03T08:21:27.099Z</time>
      </trkpt>
      <trkpt lat="59.10347292199731" lon="12.803113935515285">
        <ele>62.84</ele>
        <time>2025-02-03T08:21:37.378Z</time>
      </trkpt>
      <trkpt lat="59.103504940867424" lon="12.802998935803771">
        <ele>63.02</ele>
        <time>2025-02-03T08:21:47.658Z</time>
      </trkpt>
      <trkpt lat="59.10354098305106" lon="12.802892988547683">
        <ele>63.19</ele>
        <time>2025-02-03T08:21:57.939Z</time>
      </trkpt>
      <trkpt lat="59.10357694141567" lon="12.802795926108956">
        <ele>63.37</ele>
        <time>2025-02-03T08:22:08.221Z</time>
      </trkpt>
      <trkpt lat="59.103613989427686" lon="12.802706994116306">
        <ele>63.54</ele>
        <time>2025-02-03T08:22:18.504Z</time>
      </trkpt>
      <trkpt lat="59.10365195944905" lon="12.802620995789766">
        <ele>63.71</ele>
        <time>2025-02-03T08:22:28.788Z</time>
      </trkpt>
      <trkpt lat="59.10369194112718" lon="12.802535919472575">
        <ele>63.89</ele>
        <time>2025-02-03T08:22:39.073Z</time>
      </trkpt>
      <trkpt lat="59.10372999496758" lon="12.802448999136686">
        <ele>64.07</ele>
        <time>2025-02-03T08:22:49.359Z</time>
      </trkpt>
      <trkpt lat="59.103765953332186" lon="12.802359983325005">
        <ele>64.26</ele>
        <time>2025-02-03T08:22:59.646Z</time>
      </trkpt>
      <trkpt lat="59.10380199551582" lon="12.8022669441998">
        <ele>64.45</ele>
        <time>2025-02-03T08:23:09.934Z</time>
      </trkpt>
      <trkpt lat="59.10383493639529" lon="12.802171977236867">
        <ele>64.64</ele>
        <time>2025-02-03T08:23:20.223Z</time>
      </trkpt>
      <trkpt lat="59.10386494360864" lon="12.802072986960411">
        <ele>64.83</ele>
        <time>2025-02-03T08:23:30.513Z</time>
      </trkpt>
      <trkpt lat="59.103892939165235" lon="12.80196494422853">
        <ele>65.03</ele>
        <time>2025-02-03T08:23:40.804Z</time>
      </trkpt>
      <trkpt lat="59.103918923065066" lon="12.801852962002158">
        <ele>65.22</ele>
        <time>2025-02-03T08:23:51.096Z</time>
      </trkpt>
      <trkpt lat="59.10394096747041" lon="12.801738968119025">
        <ele>65.42</ele>
        <time>2025-02-03T08:24:01.389Z</time>
      </trkpt>
      <trkpt lat="59.103958988562226" lon="12.801623968407512">
        <ele>65.61</ele>
        <time>2025-02-03T08:24:11.683Z</time>
      </trkpt>
      <trkpt lat="59.103974997997284" lon="12.801496982574463">
        <ele>65.81</ele>
        <time>2025-02-03T08:24:21.978Z</time>
      </trkpt>
      <trkpt lat="59.10398597829044" lon="12.801367985084653">
        <ele>66.01</ele>
        <time>2025-02-03T08:24:32.274Z</time>
      </trkpt>
      <trkpt lat="59.10399595275521" lon="12.801235970109701">
        <ele>66.21</ele>
        <time>2025-02-03T08:24:42.571Z</time>
      </trkpt>
      <trkpt lat="59.104004921391606" lon="12.801099931821227">
        <ele>66.41</ele>
        <time>2025-02-03T08:24:52.869Z</time>
      </trkpt>
      <trkpt lat="59.10400793887675" lon="12.800962971523404">
        <ele>66.61</ele>
        <time>2025-02-03T08:25:03.168Z</time>
      </trkpt>
      <trkpt lat="59.10400894470513" lon="12.80082399956882">
        <ele>66.82</ele>
        <time>2025-02-03T08:25:13.468Z</time>
      </trkpt>
      <trkpt lat="59.10400693304837" lon="12.800681926310062">
        <ele>67.02</ele>
        <time>2025-02-03T08:25:23.770Z</time>
      </trkpt>
      <trkpt lat="59.104001987725496" lon="12.800535997375846">
        <ele>67.22</ele>
        <time>2025-02-03T08:25:34.073Z</time>
      </trkpt>
      <trkpt lat="59.10399494692683" lon="12.800388978794217">
        <ele>67.42</ele>
        <time>2025-02-03T08:25:44.377Z</time>
      </trkpt>
      <trkpt lat="59.1039879899472" lon="12.800239948555827">
        <ele>67.62</ele>
        <time>2025-02-03T08:25:54.682Z</time>
      </trkpt>
      <trkpt lat="59.103977931663394" lon="12.800091924145818">
        <ele>67.82</ele>
        <time>2025-02-03T08:26:04.988Z</time>
      </trkpt>
      <trkpt lat="59.1039639338851" lon="12.79994792304933">
        <ele>68.02</ele>
        <time>2025-02-03T08:26:15.296Z</time>
      </trkpt>
      <trkpt lat="59.10394599661231" lon="12.799804927781224">
        <ele>68.22</ele>
        <time>2025-02-03T08:26:25.605Z</time>
      </trkpt>
      <trkpt lat="59.10392495803535" lon="12.799662938341498">
        <ele>68.41</ele>
        <time>2025-02-03T08:26:35.915Z</time>
      </trkpt>
      <trkpt lat="59.1038999799639" lon="12.799522960558534">
        <ele>68.61</ele>
        <time>2025-02-03T08:26:46.226Z</time>
      </trkpt>
      <trkpt lat="59.103872990235686" lon="12.79938499443233">
        <ele>68.8</ele>
        <time>2025-02-03T08:26:56.538Z</time>
      </trkpt>
      <trkpt lat="59.10384097136557" lon="12.799248956143856">
        <ele>68.98</ele>
        <time>2025-02-03T08:27:06.852Z</time>
      </trkpt>
      <trkpt lat="59.103805935010314" lon="12.799116941168904">
        <ele>69.17</ele>
        <time>2025-02-03T08:27:17.167Z</time>
      </trkpt>
      <trkpt lat="59.103766959160566" lon="12.798989955335855">
        <ele>69.35</ele>
        <time>2025-02-03T08:27:27.483Z</time>
      </trkpt>
      <trkpt lat="59.103723959997296" lon="12.798868920654058">
        <ele>69.53</ele>
        <time>2025-02-03T08:27:37.800Z</time>
      </trkpt>
      <trkpt lat="59.103678949177265" lon="12.798754926770926">
        <ele>69.71</ele>
        <time>2025-02-03T08:27:48.119Z</time>
      </trkpt>
      <trkpt lat="59.103633938357234" lon="12.798647973686457">
        <ele>69.89</ele>
        <time>2025-02-03T08:27:58.439Z</time>
      </trkpt>
      <trkpt lat="59.10358297638595" lon="12.798552922904491">
        <ele>70.07</ele>
        <time>2025-02-03T08:28:08.760Z</time>
      </trkpt>
      <trkpt lat="59.103526985272765" lon="12.798463990911841">
        <ele>70.26</ele>
        <time>2025-02-03T08:28:19.082Z</time>
      </trkpt>
      <trkpt lat="59.10347199998796" lon="12.798381932079792">
        <ele>70.44</ele>
        <time>2025-02-03T08:28:29.405Z</time>
      </trkpt>
      <trkpt lat="59.10341693088412" lon="12.798305992037058">
        <ele>70.62</ele>
        <time>2025-02-03T08:28:39.729Z</time>
      </trkpt>
      <trkpt lat="59.10336093977094" lon="12.798229968175292">
        <ele>70.81</ele>
        <time>2025-02-03T08:28:50.054Z</time>
      </trkpt>
      <trkpt lat="59.10330494865775" lon="12.798154950141907">
        <ele>70.99</ele>
        <time>2025-02-03T08:29:00.380Z</time>
      </trkpt>
      <trkpt lat="59.10324594005942" lon="12.798081943765283">
        <ele>71.17</ele>
        <time>2025-02-03T08:29:10.707Z</time>
      </trkpt>
      <trkpt lat="59.10318894311786" lon="12.798007931560278">
        <ele>71.35</ele>
        <time>2025-02-03T08:29:21.036Z</time>
      </trkpt>
      <trkpt lat="59.10313094034791" lon="12.797933919355273">
        <ele>71.53</ele>
        <time>2025-02-03T08:29:31.366Z</time>
      </trkpt>
      <trkpt lat="59.10306698642671" lon="12.79785898514092">
        <ele>71.7</ele>
        <time>2025-02-03T08:29:41.697Z</time>
      </trkpt>
      <trkpt lat="59.10300395451486" lon="12.797785978764296">
        <ele>71.88</ele>
        <time>2025-02-03T08:29:52.029Z</time>
      </trkpt>
      <trkpt lat="59.10293991677463" lon="12.797717917710543">
        <ele>72.05</ele>
        <time>2025-02-03T08:30:02.362Z</time>
      </trkpt>
      <trkpt lat="59.10287696868181" lon="12.797649940475821">
        <ele>72.23</ele>
        <time>2025-02-03T08:30:12.696Z</time>
      </trkpt>
      <trkpt lat="59.10280999727547" lon="12.7975819632411">
        <ele>72.4</ele>
        <time>2025-02-03T08:30:23.032Z</time>
      </trkpt>
      <trkpt lat="59.1027429420501" lon="12.797512980177999">
        <ele>72.58</ele>
        <time>2025-02-03T08:30:33.369Z</time>
      </trkpt>
      <trkpt lat="59.10267496481538" lon="12.797437962144613">
        <ele>72.75</ele>
        <time>2025-02-03T08:30:43.707Z</time>
      </trkpt>
      <trkpt lat="59.102603970095515" lon="12.797361938282847">
        <ele>72.93</ele>
        <time>2025-02-03T08:30:54.046Z</time>
      </trkpt>
      <trkpt lat="59.102536998689175" lon="12.797289937734604">
        <ele>73.1</ele>
        <time>2025-02-03T08:31:04.387Z</time>
      </trkpt>
      <trkpt lat="59.10247195512056" lon="12.797211986035109">
        <ele>73.27</ele>
        <time>2025-02-03T08:31:14.729Z</time>
      </trkpt>
      <trkpt lat="59.102406995370984" lon="12.797133950516582">
        <ele>73.45</ele>
        <time>2025-02-03T08:31:25.072Z</time>
      </trkpt>
      <trkpt lat="59.10233994014561" lon="12.797052981331944">
        <ele>73.61</ele>
        <time>2025-02-03T08:31:35.416Z</time>
      </trkpt>
      <trkpt lat="59.10226995125413" lon="12.796967988833785">
        <ele>73.78</ele>
        <time>2025-02-03T08:31:45.762Z</time>
      </trkpt>
      <trkpt lat="59.10219895653427" lon="12.796883918344975">
        <ele>73.94</ele>
        <time>2025-02-03T08:31:56.109Z</time>
      </trkpt>
      <trkpt lat="59.10212695598602" lon="12.796797920018435">
        <ele>74.11</ele>
        <time>2025-02-03T08:32:06.457Z</time>
      </trkpt>
      <trkpt lat="59.10205596126616" lon="12.796705970540643">
        <ele>74.27</ele>
        <time>2025-02-03T08:32:16.807Z</time>
      </trkpt>
      <trkpt lat="59.10198898985982" lon="12.7966149430722">
        <ele>74.43</ele>
        <time>2025-02-03T08:32:27.158Z</time>
      </trkpt>
      <trkpt lat="59.10192595794797" lon="12.796521987766027">
        <ele>74.59</ele>
        <time>2025-02-03T08:32:37.510Z</time>
      </trkpt>
      <trkpt lat="59.1018639318645" lon="12.796422997489572">
        <ele>74.75</ele>
        <time>2025-02-03T08:32:47.864Z</time>
      </trkpt>
      <trkpt lat="59.10180592909455" lon="12.79631495475769">
        <ele>74.9</ele>
        <time>2025-02-03T08:32:58.219Z</time>
      </trkpt>
      <trkpt lat="59.10175094380975" lon="12.79620599001646">
        <ele>75.06</ele>
        <time>2025-02-03T08:33:08.575Z</time>
      </trkpt>
      <trkpt lat="59.101698976010084" lon="12.796092918142676">
        <ele>75.2</ele>
        <time>2025-02-03T08:33:18.932Z</time>
      </trkpt>
      <trkpt lat="59.10164793021977" lon="12.795972973108292">
        <ele>75.34</ele>
        <time>2025-02-03T08:33:29.291Z</time>
      </trkpt>
      <trkpt lat="59.10160291939974" lon="12.795849926769733">
        <ele>75.49</ele>
        <time>2025-02-03T08:33:39.651Z</time>
      </trkpt>
      <trkpt lat="59.10155992023647" lon="12.795723946765065">
        <ele>75.63</ele>
        <time>2025-02-03T08:33:50.012Z</time>
      </trkpt>
      <trkpt lat="59.10151993855834" lon="12.795593943446875">
        <ele>75.77</ele>
        <time>2025-02-03T08:34:00.374Z</time>
      </trkpt>
      <trkpt lat="59.10148196853697" lon="12.795462934300303">
        <ele>75.9</ele>
        <time>2025-02-03T08:34:10.738Z</time>
      </trkpt>
      <trkpt lat="59.101445926353335" lon="12.795331925153732">
        <ele>76.04</ele>
        <time>2025-02-03T08:34:21.103Z</time>
      </trkpt>
      <trkpt lat="59.10140896216035" lon="12.795199993997812">
        <ele>76.17</ele>
        <time>2025-02-03T08:34:31.469Z</time>
      </trkpt>
      <trkpt lat="59.10137199796736" lon="12.79506697319448">
        <ele>76.29</ele>
        <time>2025-02-03T08:34:41.836Z</time>
      </trkpt>
      <trkpt lat="59.10133092664182" lon="12.79493898153305">
        <ele>76.42</ele>
        <time>2025-02-03T08:34:52.205Z</time>
      </trkpt>
      <trkpt lat="59.10128792747855" lon="12.794805960729718">
        <ele>76.54</ele>
        <time>2025-02-03T08:35:02.575Z</time>
      </trkpt>
      <trkpt lat="59.10124199464917" lon="12.794671934098005">
        <ele>76.67</ele>
        <time>2025-02-03T08:35:12.946Z</time>
      </trkpt>
      <trkpt lat="59.1011989954859" lon="12.794537991285324">
        <ele>76.79</ele>
        <time>2025-02-03T08:35:23.319Z</time>
      </trkpt>
      <trkpt lat="59.10115892998874" lon="12.794405976310372">
        <ele>76.91</ele>
        <time>2025-02-03T08:35:33.693Z</time>
      </trkpt>
      <trkpt lat="59.101119954138994" lon="12.79427396133542">
        <ele>77.03</ele>
        <time>2025-02-03T08:35:44.068Z</time>
      </trkpt>
      <trkpt lat="59.10108491778374" lon="12.794147981330752">
        <ele>77.14</ele>
        <time>2025-02-03T08:35:54.444Z</time>
      </trkpt>
      <trkpt lat="59.10105097107589" lon="12.794027952477336">
        <ele>77.26</ele>
        <time>2025-02-03T08:36:04.821Z</time>
      </trkpt>
      <trkpt lat="59.101014928892255" lon="12.79390498995781">
        <ele>77.37</ele>
        <time>2025-02-03T08:36:15.200Z</time>
      </trkpt>
      <trkpt lat="59.10097494721413" lon="12.793783955276012">
        <ele>77.48</ele>
        <time>2025-02-03T08:36:25.580Z</time>
      </trkpt>
      <trkpt lat="59.10093395970762" lon="12.793673984706402">
        <ele>77.59</ele>
        <time>2025-02-03T08:36:35.961Z</time>
      </trkpt>
      <trkpt lat="59.10088995471597" lon="12.793568959459662">
        <ele>77.69</ele>
        <time>2025-02-03T08:36:46.343Z</time>
      </trkpt>
      <trkpt lat="59.100842932239175" lon="12.793463934212923">
        <ele>77.8</ele>
        <time>2025-02-03T08:36:56.726Z</time>
      </trkpt>
      <trkpt lat="59.100795993581414" lon="12.793357986956835">
        <ele>77.9</ele>
        <time>2025-02-03T08:37:07.110Z</time>
      </trkpt>
      <trkpt lat="59.10075098276138" lon="12.793249944224954">
        <ele>78.0</ele>
        <time>2025-02-03T08:37:17.495Z</time>
      </trkpt>
      <trkpt lat="59.10070597194135" lon="12.79313393868506">
        <ele>78.1</ele>
        <time>2025-02-03T08:37:27.882Z</time>
      </trkpt>
      <trkpt lat="59.10066096112132" lon="12.793008964508772">
        <ele>78.2</ele>
        <time>2025-02-03T08:37:38.270Z</time>
      </trkpt>
      <trkpt lat="59.10061494447291" lon="12.7928779553622">
        <ele>78.29</ele>
        <time>2025-02-03T08:37:48.659Z</time>
      </trkpt>
      <trkpt lat="59.10056792199612" lon="12.792742922902107">
        <ele>78.39</ele>
        <time>2025-02-03T08:37:59.050Z</time>
      </trkpt>
      <trkpt lat="59.100523917004466" lon="12.792606968432665">
        <ele>78.48</ele>
        <time>2025-02-03T08:38:09.442Z</time>
      </trkpt>
      <trkpt lat="59.10047899000347" lon="12.79246799647808">
        <ele>78.57</ele>
        <time>2025-02-03T08:38:19.835Z</time>
      </trkpt>
      <trkpt lat="59.10042895004153" lon="12.792322989553213">
        <ele>78.66</ele>
        <time>2025-02-03T08:38:30.230Z</time>
      </trkpt>
      <trkpt lat="59.10037698224187" lon="12.792171947658062">
        <ele>78.75</ele>
        <time>2025-02-03T08:38:40.626Z</time>
      </trkpt>
      <trkpt lat="59.100326942279935" lon="12.792018977925181">
        <ele>78.83</ele>
        <time>2025-02-03T08:38:51.024Z</time>
      </trkpt>
      <trkpt lat="59.10027991980314" lon="12.79186793603003">
        <ele>78.91</ele>
        <time>2025-02-03T08:39:01.423Z</time>
      </trkpt>
      <trkpt lat="59.10023298114538" lon="12.791712954640388">
        <ele>78.99</ele>
        <time>2025-02-03T08:39:11.824Z</time>
      </trkpt>
      <trkpt lat="59.100179923698306" lon="12.791557973250747">
        <ele>79.06</ele>
        <time>2025-02-03T08:39:22.226Z</time>
      </trkpt>
      <trkpt lat="59.10012393258512" lon="12.791408943012357">
        <ele>79.13</ele>
        <time>2025-02-03T08:39:32.630Z</time>
      </trkpt>
      <trkpt lat="59.100067941471934" lon="12.791259996592999">
        <ele>79.19</ele>
        <time>2025-02-03T08:39:43.035Z</time>
      </trkpt>
      <trkpt lat="59.10000893287361" lon="12.791115995496511">
        <ele>79.25</ele>
        <time>2025-02-03T08:39:53.442Z</time>
      </trkpt>
      <trkpt lat="59.09994992427528" lon="12.790977945551276">
        <ele>79.31</ele>
        <time>2025-02-03T08:40:03.850Z</time>
      </trkpt>
      <trkpt lat="59.0998899936676" lon="12.790842996910214">
        <ele>79.37</ele>
        <time>2025-02-03T08:40:14.260Z</time>
      </trkpt>
      <trkpt lat="59.099828973412514" lon="12.790708970278502">
        <ele>79.42</ele>
        <time>2025-02-03T08:40:24.671Z</time>
      </trkpt>
      <trkpt lat="59.099766947329044" lon="12.790579972788692">
        <ele>79.48</ele>
        <time>2025-02-03T08:40:35.084Z</time>
      </trkpt>
      <trkpt lat="59.099703999236226" lon="12.790453992784023">
        <ele>79.53</ele>
        <time>2025-02-03T08:40:45.498Z</time>
      </trkpt>
      <trkpt lat="59.099639961495996" lon="12.790331952273846">
        <ele>79.59</ele>
        <time>2025-02-03T08:40:55.913Z</time>
      </trkpt>
      <trkpt lat="59.099573995918036" lon="12.79020898975432">
        <ele>79.64</ele>
        <time>2025-02-03T08:41:06.330Z</time>
      </trkpt>
      <trkpt lat="59.099507946521044" lon="12.790083931759">
        <ele>79.69</ele>
        <time>2025-02-03T08:41:16.748Z</time>
      </trkpt>
      <trkpt lat="59.09943996928632" lon="12.789960969239473">
        <ele>79.73</ele>
        <time>2025-02-03T08:41:27.168Z</time>
      </trkpt>
      <trkpt lat="59.0993719920516" lon="12.789841946214437">
        <ele>79.76</ele>
        <time>2025-02-03T08:41:37.589Z</time>
      </trkpt>
      <trkpt lat="59.09930694848299" lon="12.789723929017782">
        <ele>79.8</ele>
        <time>2025-02-03T08:41:48.012Z</time>
      </trkpt>
      <trkpt lat="59.09924198873341" lon="12.789605995640159">
        <ele>79.83</ele>
        <time>2025-02-03T08:41:58.436Z</time>
      </trkpt>
      <trkpt lat="59.09917795099318" lon="12.789488984271884">
        <ele>79.86</ele>
        <time>2025-02-03T08:42:08.862Z</time>
      </trkpt>
      <trkpt lat="59.09911592490971" lon="12.789369961246848">
        <ele>79.89</ele>
        <time>2025-02-03T08:42:19.289Z</time>
      </trkpt>
      <trkpt lat="59.099057922139764" lon="12.78924792073667">
        <ele>79.91</ele>
        <time>2025-02-03T08:42:29.717Z</time>
      </trkpt>
      <trkpt lat="59.09900494851172" lon="12.789122946560383">
        <ele>79.94</ele>
        <time>2025-02-03T08:42:40.147Z</time>
      </trkpt>
      <trkpt lat="59.09895499236882" lon="12.788993949070573">
        <ele>79.96</ele>
        <time>2025-02-03T08:42:50.578Z</time>
      </trkpt>
      <trkpt lat="59.098908975720406" lon="12.78885891661048">
        <ele>79.98</ele>
        <time>2025-02-03T08:43:01.010Z</time>
      </trkpt>
      <trkpt lat="59.09886999987066" lon="12.788715921342373">
        <ele>80.0</ele>
        <time>2025-02-03T08:43:11.444Z</time>
      </trkpt>
      <trkpt lat="59.09883596934378" lon="12.788566974923015">
        <ele>80.02</ele>
        <time>2025-02-03T08:43:21.879Z</time>
      </trkpt>
      <trkpt lat="59.09880797378719" lon="12.788414927199483">
        <ele>80.03</ele>
        <time>2025-02-03T08:43:32.315Z</time>
      </trkpt>
      <trkpt lat="59.09878198988736" lon="12.788260951638222">
        <ele>80.06</ele>
        <time>2025-02-03T08:43:42.753Z</time>
      </trkpt>
      <trkpt lat="59.09876195713878" lon="12.788102952763438">
        <ele>80.08</ele>
        <time>2025-02-03T08:43:53.192Z</time>
      </trkpt>
      <trkpt lat="59.09874795936048" lon="12.787942942231894">
        <ele>80.09</ele>
        <time>2025-02-03T08:44:03.632Z</time>
      </trkpt>
      <trkpt lat="59.09874293021858" lon="12.78778494335711">
        <ele>80.11</ele>
        <time>2025-02-03T08:44:14.074Z</time>
      </trkpt>
      <trkpt lat="59.09874393604696" lon="12.78763197362423">
        <ele>80.14</ele>
        <time>2025-02-03T08:44:24.517Z</time>
      </trkpt>
      <trkpt lat="59.09874896518886" lon="12.78748394921422">
        <ele>80.17</ele>
        <time>2025-02-03T08:44:34.961Z</time>
      </trkpt>
      <trkpt lat="59.098756927996874" lon="12.787338942289352">
        <ele>80.2</ele>
        <time>2025-02-03T08:44:45.406Z</time>
      </trkpt>
      <trkpt lat="59.09876698628068" lon="12.787192929536104">
        <ele>80.22</ele>
        <time>2025-02-03T08:44:55.853Z</time>
      </trkpt>
      <trkpt lat="59.098780984058976" lon="12.787044988945127">
        <ele>80.24</ele>
        <time>2025-02-03T08:45:06.301Z</time>
      </trkpt>
      <trkpt lat="59.098801938816905" lon="12.786894952878356">
        <ele>80.26</ele>
        <time>2025-02-03T08:45:16.750Z</time>
      </trkpt>
      <trkpt lat="59.098822977393866" lon="12.786744916811585">
        <ele>80.29</ele>
        <time>2025-02-03T08:45:27.200Z</time>
      </trkpt>
      <trkpt lat="59.098839992657304" lon="12.786592952907085">
        <ele>80.31</ele>
        <time>2025-02-03T08:45:37.652Z</time>
      </trkpt>
      <trkpt lat="59.09885591827333" lon="12.786436965689063">
        <ele>80.34</ele>
        <time>2025-02-03T08:45:48.105Z</time>
      </trkpt>
      <trkpt lat="59.09887293353677" lon="12.78627997264266">
        <ele>80.37</ele>
        <time>2025-02-03T08:45:58.559Z</time>
      </trkpt>
      <trkpt lat="59.09889095462859" lon="12.786120967939496">
        <ele>80.41</ele>
        <time>2025-02-03T08:46:09.015Z</time>
      </trkpt>
      <trkpt lat="59.098908975720406" lon="12.785962969064713">
        <ele>80.44</ele>
        <time>2025-02-03T08:46:19.472Z</time>
      </trkpt>
      <trkpt lat="59.09892397932708" lon="12.785799941048026">
        <ele>80.47</ele>
        <time>2025-02-03T08:46:29.930Z</time>
      </trkpt>
      <trkpt lat="59.09893998876214" lon="12.7856389246881">
        <ele>80.51</ele>
        <time>2025-02-03T08:46:40.390Z</time>
      </trkpt>
      <trkpt lat="59.098951974883676" lon="12.785473968833685">
        <ele>80.55</ele>
        <time>2025-02-03T08:46:50.851Z</time>
      </trkpt>
      <trkpt lat="59.098968990147114" lon="12.78531295247376">
        <ele>80.6</ele>
        <time>2025-02-03T08:47:01.314Z</time>
      </trkpt>
      <trkpt lat="59.09898298792541" lon="12.785148918628693">
        <ele>80.64</ele>
        <time>2025-02-03T08:47:11.778Z</time>
      </trkpt>
      <trkpt lat="59.098994974046946" lon="12.784981951117516">
        <ele>80.68</ele>
        <time>2025-02-03T08:47:22.243Z</time>
      </trkpt>
      <trkpt lat="59.09900293685496" lon="12.784813977777958">
        <ele>80.72</ele>
        <time>2025-02-03T08:47:32.710Z</time>
      </trkpt>
      <trkpt lat="59.09900696016848" lon="12.784649943932891">
        <ele>80.76</ele>
        <time>2025-02-03T08:47:43.178Z</time>
      </trkpt>
      <trkpt lat="59.09900394268334" lon="12.784483982250094">
        <ele>80.79</ele>
        <time>2025-02-03T08:47:53.647Z</time>
      </trkpt>
      <trkpt lat="59.09899698570371" lon="12.784319948405027">
        <ele>80.83</ele>
        <time>2025-02-03T08:48:04.118Z</time>
      </trkpt>
      <trkpt lat="59.09898399375379" lon="12.784156920388341">
        <ele>80.87</ele>
        <time>2025-02-03T08:48:14.590Z</time>
      </trkpt>
      <trkpt lat="59.09896597266197" lon="12.783995987847447">
        <ele>80.92</ele>
        <time>2025-02-03T08:48:25.063Z</time>
      </trkpt>
      <trkpt lat="59.09894593991339" lon="12.783835977315903">
        <ele>80.96</ele>
        <time>2025-02-03T08:48:35.538Z</time>
      </trkpt>
      <trkpt lat="59.09891995601356" lon="12.783680995926261">
        <ele>81.01</ele>
        <time>2025-02-03T08:48:46.014Z</time>
      </trkpt>
      <trkpt lat="59.09889196045697" lon="12.78352995403111">
        <ele>81.06</ele>
        <time>2025-02-03T08:48:56.491Z</time>
      </trkpt>
      <trkpt lat="59.098862959071994" lon="12.78337991796434">
        <ele>81.12</ele>
        <time>2025-02-03T08:49:06.970Z</time>
      </trkpt>
      <trkpt lat="59.09883395768702" lon="12.783230971544981">
        <ele>81.17</ele>
        <time>2025-02-03T08:49:17.450Z</time>
      </trkpt>
      <trkpt lat="59.098803950473666" lon="12.78307992964983">
        <ele>81.23</ele>
        <time>2025-02-03T08:49:27.931Z</time>
      </trkpt>
      <trkpt lat="59.098776960745454" lon="12.782934922724962">
        <ele>81.29</ele>
        <time>2025-02-03T08:49:38.414Z</time>
      </trkpt>
      <trkpt lat="59.09874997101724" lon="12.782786982133985">
        <ele>81.35</ele>
        <time>2025-02-03T08:49:48.898Z</time>
      </trkpt>
      <trkpt lat="59.09871996380389" lon="12.782644992694259">
        <ele>81.42</ele>
        <time>2025-02-03T08:49:59.383Z</time>
      </trkpt>
      <trkpt lat="59.098691968247294" lon="12.782503925263882">
        <ele>81.49</ele>
        <time>2025-02-03T08:50:09.870Z</time>
      </trkpt>
      <trkpt lat="59.09866598434746" lon="12.782363947480917">
        <ele>81.56</ele>
        <time>2025-02-03T08:50:20.358Z</time>
      </trkpt>
      <trkpt lat="59.09863899461925" lon="12.782226987183094">
        <ele>81.63</ele>
        <time>2025-02-03T08:50:30.847Z</time>
      </trkpt>
      <trkpt lat="59.09861099906266" lon="12.782097989693284">
        <ele>81.71</ele>
        <time>2025-02-03T08:50:41.337Z</time>
      </trkpt>
      <trkpt lat="59.098588954657316" lon="12.781977960839868">
        <ele>81.78</ele>
        <time>2025-02-03T08:50:51.828Z</time>
      </trkpt>
      <trkpt lat="59.098568921908736" lon="12.781859943643212">
        <ele>81.86</ele>
        <time>2025-02-03T08:51:02.320Z</time>
      </trkpt>
      <trkpt lat="59.09855391830206" lon="12.781749973073602">
        <ele>81.94</ele>
        <time>2025-02-03T08:51:12.813Z</time>
      </trkpt>
      <trkpt lat="59.098538998514414" lon="12.78164193034172">
        <ele>82.01</ele>
        <time>2025-02-03T08:51:23.307Z</time>
      </trkpt>
      <trkpt lat="59.098525922745466" lon="12.781534977257252">
        <ele>82.09</ele>
        <time>2025-02-03T08:51:33.802Z</time>
      </trkpt>
      <trkpt lat="59.09851594828069" lon="12.781429952010512">
        <ele>82.16</ele>
        <time>2025-02-03T08:51:44.298Z</time>
      </trkpt>
      <trkpt lat="59.09850999712944" lon="12.781328950077295">
        <ele>82.24</ele>
        <time>2025-02-03T08:51:54.795Z</time>
      </trkpt>
      <trkpt lat="59.0985069796443" lon="12.781228953972459">
        <ele>82.32</ele>
        <time>2025-02-03T08:52:05.293Z</time>
      </trkpt>
      <trkpt lat="59.0985069796443" lon="12.78112594038248">
        <ele>82.4</ele>
        <time>2025-02-03T08:52:15.791Z</time>
      </trkpt>
      <trkpt lat="59.09850798547268" lon="12.781027955934405">
        <ele>82.48</ele>
        <time>2025-02-03T08:52:26.290Z</time>
      </trkpt>
      <trkpt lat="59.09850798547268" lon="12.780926954001188">
        <ele>82.56</ele>
        <time>2025-02-03T08:52:36.790Z</time>
      </trkpt>
      <trkpt lat="59.09850999712944" lon="12.78082293458283">
        <ele>82.64</ele>
        <time>2025-02-03T08:52:47.291Z</time>
      </trkpt>
      <trkpt lat="59.09851091913879" lon="12.780722938477993">
        <ele>82.72</ele>
        <time>2025-02-03T08:52:57.793Z</time>
      </trkpt>
      <trkpt lat="59.09851192496717" lon="12.780626965686679">
        <ele>82.8</ele>
        <time>2025-02-03T08:53:08.296Z</time>
      </trkpt>
      <trkpt lat="59.09851293079555" lon="12.780530992895365">
        <ele>82.88</ele>
        <time>2025-02-03T08:53:18.799Z</time>
      </trkpt>
      <trkpt lat="59.09851393662393" lon="12.7804359421134">
        <ele>82.96</ele>
        <time>2025-02-03T08:53:29.303Z</time>
      </trkpt>
      <trkpt lat="59.09851695410907" lon="12.780338963493705">
        <ele>83.04</ele>
        <time>2025-02-03T08:53:39.808Z</time>
      </trkpt>
      <trkpt lat="59.098522989079356" lon="12.780247936025262">
        <ele>83.12</ele>
        <time>2025-02-03T08:53:50.314Z</time>
      </trkpt>
      <trkpt lat="59.09853195771575" lon="12.780152969062328">
        <ele>83.2</ele>
        <time>2025-02-03T08:54:00.820Z</time>
      </trkpt>
      <trkpt lat="59.09854092635214" lon="12.780053978785872">
        <ele>83.28</ele>
        <time>2025-02-03T08:54:11.327Z</time>
      </trkpt>
      <trkpt lat="59.09854796715081" lon="12.779953982681036">
        <ele>83.36</ele>
        <time>2025-02-03T08:54:21.835Z</time>
      </trkpt>
      <trkpt lat="59.09855199046433" lon="12.77985792607069">
        <ele>83.44</ele>
        <time>2025-02-03T08:54:32.344Z</time>
      </trkpt>
      <trkpt lat="59.09855492413044" lon="12.779753990471363">
        <ele>83.52</ele>
        <time>2025-02-03T08:54:42.854Z</time>
      </trkpt>
      <trkpt lat="59.09855995327234" lon="12.779648965224624">
        <ele>83.6</ele>
        <time>2025-02-03T08:54:53.365Z</time>
      </trkpt>
      <trkpt lat="59.098564982414246" lon="12.779547963291407">
        <ele>83.68</ele>
        <time>2025-02-03T08:55:03.876Z</time>
      </trkpt>
      <trkpt lat="59.0985709335655" lon="12.779441932216287">
        <ele>83.76</ele>
        <time>2025-02-03T08:55:14.388Z</time>
      </trkpt>
      <trkpt lat="59.0985759627074" lon="12.779330955818295">
        <ele>83.84</ele>
        <time>2025-02-03T08:55:24.901Z</time>
      </trkpt>
      <trkpt lat="59.0985809918493" lon="12.779215956106782">
        <ele>83.92</ele>
        <time>2025-02-03T08:55:35.415Z</time>
      </trkpt>
      <trkpt lat="59.098584931343794" lon="12.77910296805203">
        <ele>84.0</ele>
        <time>2025-02-03T08:55:45.930Z</time>
      </trkpt>
      <trkpt lat="59.098585937172174" lon="12.778992997482419">
        <ele>84.07</ele>
        <time>2025-02-03T08:55:56.446Z</time>
      </trkpt>
      <trkpt lat="59.098587948828936" lon="12.778886966407299">
        <ele>84.15</ele>
        <time>2025-02-03T08:56:06.963Z</time>
      </trkpt>
      <trkpt lat="59.0985899604857" lon="12.77878294698894">
        <ele>84.23</ele>
        <time>2025-02-03T08:56:17.481Z</time>
      </trkpt>
      <trkpt lat="59.09859599545598" lon="12.778669958934188">
        <ele>84.3</ele>
        <time>2025-02-03T08:56:28.000Z</time>
      </trkpt>
      <trkpt lat="59.09860295243561" lon="12.778550935909152">
        <ele>84.38</ele>
        <time>2025-02-03T08:56:38.520Z</time>
      </trkpt>
      <trkpt lat="59.09861099906266" lon="12.778413975611329">
        <ele>84.45</ele>
        <time>2025-02-03T08:56:49.041Z</time>
      </trkpt>
      <trkpt lat="59.09861996769905" lon="12.778271986171603">
        <ele>84.53</ele>
        <time>2025-02-03T08:56:59.563Z</time>
      </trkpt>
      <trkpt lat="59.098629942163825" lon="12.778129996731877">
        <ele>84.61</ele>
        <time>2025-02-03T08:57:10.086Z</time>
      </trkpt>
      <trkpt lat="59.09864293411374" lon="12.777982978150249">
        <ele>84.69</ele>
        <time>2025-02-03T08:57:20.610Z</time>
      </trkpt>
      <trkpt lat="59.09865793772042" lon="12.77783495374024">
        <ele>84.76</ele>
        <time>2025-02-03T08:57:31.136Z</time>
      </trkpt>
      <trkpt lat="59.09867595881224" lon="12.777688940986991">
        <ele>84.84</ele>
        <time>2025-02-03T08:57:41.663Z</time>
      </trkpt>
      <trkpt lat="59.09869599156082" lon="12.777550974860787">
        <ele>84.92</ele>
        <time>2025-02-03T08:57:52.191Z</time>
      </trkpt>
      <trkpt lat="59.09872096963227" lon="12.777420971542597">
        <ele>85.0</ele>
        <time>2025-02-03T08:58:02.720Z</time>
      </trkpt>
      <trkpt lat="59.09875298850238" lon="12.777305971831083">
        <ele>85.07</ele>
        <time>2025-02-03T08:58:13.250Z</time>
      </trkpt>
      <trkpt lat="59.09879397600889" lon="12.77719197794795">
        <ele>85.15</ele>
        <time>2025-02-03T08:58:23.781Z</time>
      </trkpt>
      <trkpt lat="59.09883898682892" lon="12.777095921337605">
        <ele>85.23</ele>
        <time>2025-02-03T08:58:34.314Z</time>
      </trkpt>
      <trkpt lat="59.098883997648954" lon="12.777009923011065">
        <ele>85.31</ele>
        <time>2025-02-03T08:58:44.848Z</time>
      </trkpt>
      <trkpt lat="59.098931942135096" lon="12.77693197131157">
        <ele>85.38</ele>
        <time>2025-02-03T08:58:55.383Z</time>
      </trkpt>
      <trkpt lat="59.098973935469985" lon="12.776848990470171">
        <ele>85.46</ele>
        <time>2025-02-03T08:59:05.919Z</time>
      </trkpt>
      <trkpt lat="59.09900897182524" lon="12.776750922203064">
        <ele>85.54</ele>
        <time>2025-02-03T08:59:16.456Z</time>
      </trkpt>
      <trkpt lat="59.09902296960354" lon="12.776620918884873">
        <ele>85.62</ele>
        <time>2025-02-03T08:59:26.994Z</time>
      </trkpt>
      <trkpt lat="59.09900997765362" lon="12.776485970243812">
        <ele>85.7</ele>
        <time>2025-02-03T08:59:37.533Z</time>
      </trkpt>
      <trkpt lat="59.09898198209703" lon="12.776348926126957">
        <ele>85.78</ele>
        <time>2025-02-03T08:59:48.073Z</time>
      </trkpt>
      <trkpt lat="59.098949963226914" lon="12.776207942515612">
        <ele>85.86</ele>
        <time>2025-02-03T08:59:58.614Z</time>
      </trkpt>
      <trkpt lat="59.09892096184194" lon="12.776067964732647">
        <ele>85.94</ele>
        <time>2025-02-03T09:00:09.156Z</time>
      </trkpt>
      <trkpt lat="59.098886931315064" lon="12.77592496946454">
        <ele>86.02</ele>
        <time>2025-02-03T09:00:19.700Z</time>
      </trkpt>
      <trkpt lat="59.09885499626398" lon="12.77577392756939">
        <ele>86.1</ele>
        <time>2025-02-03T09:00:30.245Z</time>
      </trkpt>
      <trkpt lat="59.098821971565485" lon="12.77562196366489">
        <ele>86.18</ele>
        <time>2025-02-03T09:00:40.792Z</time>
      </trkpt>
      <trkpt lat="59.09878995269537" lon="12.77546999976039">
        <ele>86.27</ele>
        <time>2025-02-03T09:00:51.340Z</time>
      </trkpt>
      <trkpt lat="59.098756927996874" lon="12.77532197535038">
        <ele>86.35</ele>
        <time>2025-02-03T09:01:01.889Z</time>
      </trkpt>
      <trkpt lat="59.09872692078352" lon="12.775176968425512">
        <ele>86.44</ele>
        <time>2025-02-03T09:01:12.439Z</time>
      </trkpt>
      <trkpt lat="59.0986969973892" lon="12.775036990642548">
        <ele>86.52</ele>
        <time>2025-02-03T09:01:22.991Z</time>
      </trkpt>
      <trkpt lat="59.09866891801357" lon="12.774899946525693">
        <ele>86.6</ele>
        <time>2025-02-03T09:01:33.544Z</time>
      </trkpt>
      <trkpt lat="59.09863899461925" lon="12.774764997884631">
        <ele>86.68</ele>
        <time>2025-02-03T09:01:44.098Z</time>
      </trkpt>
      <trkpt lat="59.098611921072006" lon="12.77463398873806">
        <ele>86.76</ele>
        <time>2025-02-03T09:01:54.653Z</time>
      </trkpt>
      <trkpt lat="59.098586943000555" lon="12.774499962106347">
        <ele>86.84</ele>
        <time>2025-02-03T09:02:05.210Z</time>
      </trkpt>
      <trkpt lat="59.09855894744396" lon="12.774363923817873">
        <ele>86.93</ele>
        <time>2025-02-03T09:02:15.768Z</time>
      </trkpt>
      <trkpt lat="59.09853296354413" lon="12.774228975176811">
        <ele>87.01</ele>
        <time>2025-02-03T09:02:26.327Z</time>
      </trkpt>
      <trkpt lat="59.09850798547268" lon="12.774086985737085">
        <ele>87.09</ele>
        <time>2025-02-03T09:02:36.887Z</time>
      </trkpt>
      <trkpt lat="59.09848099574447" lon="12.773946924135089">
        <ele>87.16</ele>
        <time>2025-02-03T09:02:47.448Z</time>
      </trkpt>
      <trkpt lat="59.0984549280256" lon="12.773805940523744">
        <ele>87.25</ele>
        <time>2025-02-03T09:02:58.011Z</time>
      </trkpt>
      <trkpt lat="59.09842994995415" lon="12.773662945255637">
        <ele>87.34</ele>
        <time>2025-02-03T09:03:08.575Z</time>
      </trkpt>
      <trkpt lat="59.09840296022594" lon="12.77351894415915">
        <ele>87.41</ele>
        <time>2025-02-03T09:03:19.140Z</time>
      </trkpt>
      <trkpt lat="59.09837798215449" lon="12.773374943062663">
        <ele>87.49</ele>
        <time>2025-02-03T09:03:29.706Z</time>
      </trkpt>
      <trkpt lat="59.09835199825466" lon="12.773233959451318">
        <ele>87.58</ele>
        <time>2025-02-03T09:03:40.274Z</time>
      </trkpt>
      <trkpt lat="59.098327942192554" lon="12.773091970011592">
        <ele>87.66</ele>
        <time>2025-02-03T09:03:50.843Z</time>
      </trkpt>
      <trkpt lat="59.098304975777864" lon="12.772948974743485">
        <ele>87.74</ele>
        <time>2025-02-03T09:04:01.413Z</time>
      </trkpt>
      <trkpt lat="59.09828192554414" lon="12.77280799113214">
        <ele>87.82</ele>
        <time>2025-02-03T09:04:11.984Z</time>
      </trkpt>
      <trkpt lat="59.09825694747269" lon="12.772665917873383">
        <ele>87.91</ele>
        <time>2025-02-03T09:04:22.557Z</time>
      </trkpt>
      <trkpt lat="59.09823196940124" lon="12.772522922605276">
        <ele>87.99</ele>
        <time>2025-02-03T09:04:33.131Z</time>
      </trkpt>
      <trkpt lat="59.09820699132979" lon="12.772378921508789">
        <ele>88.07</ele>
        <time>2025-02-03T09:04:43.706Z</time>
      </trkpt>
      <trkpt lat="59.09818293526769" lon="12.772234920412302">
        <ele>88.16</ele>
        <time>2025-02-03T09:04:54.282Z</time>
      </trkpt>
      <trkpt lat="59.09816097468138" lon="12.772089997306466">
        <ele>88.24</ele>
        <time>2025-02-03T09:05:04.860Z</time>
      </trkpt>
      <trkpt lat="59.098136918619275" lon="12.771944990381598">
        <ele>88.32</ele>
        <time>2025-02-03T09:05:15.439Z</time>
      </trkpt>
      <trkpt lat="59.098114958032966" lon="12.771794954314828">
        <ele>88.39</ele>
        <time>2025-02-03T09:05:26.019Z</time>
      </trkpt>
      <trkpt lat="59.098092997446656" lon="12.771646929904819">
        <ele>88.47</ele>
        <time>2025-02-03T09:05:36.600Z</time>
      </trkpt>
      <trkpt lat="59.098069947212934" lon="12.771499995142221">
        <ele>88.55</ele>
        <time>2025-02-03T09:05:47.183Z</time>
      </trkpt>
      <trkpt lat="59.098049998283386" lon="12.771351970732212">
        <ele>88.63</ele>
        <time>2025-02-03T09:05:57.767Z</time>
      </trkpt>
      <trkpt lat="59.098029965534806" lon="12.771203946322203">
        <ele>88.7</ele>
        <time>2025-02-03T09:06:08.352Z</time>
      </trkpt>
      <trkpt lat="59.098008926957846" lon="12.771056927740574">
        <ele>88.78</ele>
        <time>2025-02-03T09:06:18.938Z</time>
      </trkpt>
      <trkpt lat="59.09799098968506" lon="12.770907981321216">
        <ele>88.85</ele>
        <time>2025-02-03T09:06:29.526Z</time>
      </trkpt>
      <trkpt lat="59.09797095693648" lon="12.770759956911206">
        <ele>88.94</ele>
        <time>2025-02-03T09:06:40.115Z</time>
      </trkpt>
      <trkpt lat="59.0979509241879" lon="12.770607993006706">
        <ele>89.02</ele>
        <time>2025-02-03T09:06:50.705Z</time>
      </trkpt>
      <trkpt lat="59.09793198108673" lon="12.770452927798033">
        <ele>89.1</ele>
        <time>2025-02-03T09:07:01.297Z</time>
      </trkpt>
      <trkpt lat="59.09791194833815" lon="12.77029694058001">
        <ele>89.18</ele>
        <time>2025-02-03T09:07:11.890Z</time>
      </trkpt>
      <trkpt lat="59.09789292141795" lon="12.770138941705227">
        <ele>89.26</ele>
        <time>2025-02-03T09:07:22.484Z</time>
      </trkpt>
      <trkpt lat="59.097874984145164" lon="12.769981948658824">
        <ele>89.34</ele>
        <time>2025-02-03T09:07:33.080Z</time>
      </trkpt>
      <trkpt lat="59.097856963053346" lon="12.769825961440802">
        <ele>89.43</ele>
        <time>2025-02-03T09:07:43.677Z</time>
      </trkpt>
      <trkpt lat="59.097837936133146" lon="12.76967098005116">
        <ele>89.51</ele>
        <time>2025-02-03T09:07:54.275Z</time>
      </trkpt>
      <trkpt lat="59.09781698137522" lon="12.769518932327628">
        <ele>89.59</ele>
        <time>2025-02-03T09:08:04.874Z</time>
      </trkpt>
      <trkpt lat="59.09780097194016" lon="12.769366968423128">
        <ele>89.68</ele>
        <time>2025-02-03T09:08:15.475Z</time>
      </trkpt>
      <trkpt lat="59.09778596833348" lon="12.769215926527977">
        <ele>89.76</ele>
        <time>2025-02-03T09:08:26.077Z</time>
      </trkpt>
      <trkpt lat="59.097769958898425" lon="12.769065974280238">
        <ele>89.84</ele>
        <time>2025-02-03T09:08:36.680Z</time>
      </trkpt>
      <trkpt lat="59.09775394946337" lon="12.768912920728326">
        <ele>89.92</ele>
        <time>2025-02-03T09:08:47.285Z</time>
      </trkpt>
      <trkpt lat="59.09773794002831" lon="12.768759950995445">
        <ele>90.0</ele>
        <time>2025-02-03T09:08:57.891Z</time>
      </trkpt>
      <trkpt lat="59.09772193059325" lon="12.768605975434184">
        <ele>90.08</ele>
        <time>2025-02-03T09:09:08.498Z</time>
      </trkpt>
      <trkpt lat="59.097706926986575" lon="12.768451999872923">
        <ele>90.16</ele>
        <time>2025-02-03T09:09:19.106Z</time>
      </trkpt>
      <trkpt lat="59.09769292920828" lon="12.76829693466425">
        <ele>90.24</ele>
        <time>2025-02-03T09:09:29.716Z</time>
      </trkpt>
      <trkpt lat="59.09767993725836" lon="12.768140947446227">
        <ele>90.32</ele>
        <time>2025-02-03T09:09:40.327Z</time>
      </trkpt>
      <trkpt lat="59.097664933651686" lon="12.767984960228205">
        <ele>90.39</ele>
        <time>2025-02-03T09:09:50.939Z</time>
      </trkpt>
      <trkpt lat="59.09764892421663" lon="12.767827967181802">
        <ele>90.46</ele>
        <time>2025-02-03T09:10:01.553Z</time>
      </trkpt>
      <trkpt lat="59.0976329986006" lon="12.767670974135399">
        <ele>90.54</ele>
        <time>2025-02-03T09:10:12.168Z</time>
      </trkpt>
      <trkpt lat="59.097617994993925" lon="12.767510963603854">
        <ele>90.61</ele>
        <time>2025-02-03T09:10:22.784Z</time>
      </trkpt>
      <trkpt lat="59.09760299138725" lon="12.76735195890069">
        <ele>90.68</ele>
        <time>2025-02-03T09:10:33.402Z</time>
      </trkpt>
      <trkpt lat="59.09758999943733" lon="12.767192954197526">
        <ele>90.76</ele>
        <time>2025-02-03T09:10:44.021Z</time>
      </trkpt>
      <trkpt lat="59.097577929496765" lon="12.767032943665981">
        <ele>90.83</ele>
        <time>2025-02-03T09:10:54.641Z</time>
      </trkpt>
      <trkpt lat="59.09756393171847" lon="12.766872933134437">
        <ele>90.9</ele>
        <time>2025-02-03T09:11:05.263Z</time>
      </trkpt>
      <trkpt lat="59.097552951425314" lon="12.76670797728002">
        <ele>90.97</ele>
        <time>2025-02-03T09:11:15.886Z</time>
      </trkpt>
      <trkpt lat="59.09754197113216" lon="12.766545955091715">
        <ele>91.04</ele>
        <time>2025-02-03T09:11:26.510Z</time>
      </trkpt>
      <trkpt lat="59.097531996667385" lon="12.76638493873179">
        <ele>91.11</ele>
        <time>2025-02-03T09:11:37.136Z</time>
      </trkpt>
      <trkpt lat="59.09752193838358" lon="12.766223922371864">
        <ele>91.17</ele>
        <time>2025-02-03T09:11:47.763Z</time>
      </trkpt>
      <trkpt lat="59.097511963918805" lon="12.76606198400259">
        <ele>91.24</ele>
        <time>2025-02-03T09:11:58.391Z</time>
      </trkpt>
      <trkpt lat="59.09750299528241" lon="12.765900967642665">
        <ele>91.3</ele>
        <time>2025-02-03T09:12:09.021Z</time>
      </trkpt>
      <trkpt lat="59.09749494865537" lon="12.76574095711112">
        <ele>91.37</ele>
        <time>2025-02-03T09:12:19.652Z</time>
      </trkpt>
      <trkpt lat="59.09748598001897" lon="12.765580946579576">
        <ele>91.43</ele>
        <time>2025-02-03T09:12:30.284Z</time>
      </trkpt>
      <trkpt lat="59.09747793339193" lon="12.765421941876411">
        <ele>91.49</ele>
        <time>2025-02-03T09:12:40.918Z</time>
      </trkpt>
      <trkpt lat="59.097470976412296" lon="12.765261931344867">
        <ele>91.54</ele>
        <time>2025-02-03T09:12:51.553Z</time>
      </trkpt>
      <trkpt lat="59.09746494144201" lon="12.765102926641703">
        <ele>91.6</ele>
        <time>2025-02-03T09:13:02.189Z</time>
      </trkpt>
      <trkpt lat="59.09745899029076" lon="12.76494299992919">
        <ele>91.65</ele>
        <time>2025-02-03T09:13:12.827Z</time>
      </trkpt>
      <trkpt lat="59.097450943663716" lon="12.764782989397645">
        <ele>91.7</ele>
        <time>2025-02-03T09:13:23.466Z</time>
      </trkpt>
      <trkpt lat="59.0974429808557" lon="12.7646229788661">
        <ele>91.74</ele>
        <time>2025-02-03T09:13:34.106Z</time>
      </trkpt>
      <trkpt lat="59.09743694588542" lon="12.764461962506175">
        <ele>91.79</ele>
        <time>2025-02-03T09:13:44.748Z</time>
      </trkpt>
      <trkpt lat="59.09743099473417" lon="12.76430094614625">
        <ele>91.84</ele>
        <time>2025-02-03T09:13:55.391Z</time>
      </trkpt>
      <trkpt lat="59.097423953935504" lon="12.764140935614705">
        <ele>91.88</ele>
        <time>2025-02-03T09:14:06.035Z</time>
      </trkpt>
      <trkpt lat="59.09741791896522" lon="12.763981930911541">
        <ele>91.92</ele>
        <time>2025-02-03T09:14:16.681Z</time>
      </trkpt>
      <trkpt lat="59.09741196781397" lon="12.763822926208377">
        <ele>91.96</ele>
        <time>2025-02-03T09:14:27.328Z</time>
      </trkpt>
      <trkpt lat="59.097405932843685" lon="12.763663921505213">
        <ele>91.99</ele>
        <time>2025-02-03T09:14:37.976Z</time>
      </trkpt>
      <trkpt lat="59.09739998169243" lon="12.76350298896432">
        <ele>92.02</ele>
        <time>2025-02-03T09:14:48.626Z</time>
      </trkpt>
      <trkpt lat="59.09739495255053" lon="12.763341972604394">
        <ele>92.05</ele>
        <time>2025-02-03T09:14:59.277Z</time>
      </trkpt>
      <trkpt lat="59.09738992340863" lon="12.763178944587708">
        <ele>92.07</ele>
        <time>2025-02-03T09:15:09.929Z</time>
      </trkpt>
      <trkpt lat="59.097384978085756" lon="12.763014994561672">
        <ele>92.09</ele>
        <time>2025-02-03T09:15:20.583Z</time>
      </trkpt>
      <trkpt lat="59.09737894311547" lon="12.762850960716605">
        <ele>92.11</ele>
        <time>2025-02-03T09:15:31.238Z</time>
      </trkpt>
      <trkpt lat="59.09737098030746" lon="12.762687932699919">
        <ele>92.13</ele>
        <time>2025-02-03T09:15:41.894Z</time>
      </trkpt>
      <trkpt lat="59.097364945337176" lon="12.762524988502264">
        <ele>92.14</ele>
        <time>2025-02-03T09:15:52.552Z</time>
      </trkpt>
      <trkpt lat="59.097357988357544" lon="12.762361960485578">
        <ele>92.15</ele>
        <time>2025-02-03T09:16:03.211Z</time>
      </trkpt>
      <trkpt lat="59.09735295921564" lon="12.76219792664051">
        <ele>92.17</ele>
        <time>2025-02-03T09:16:13.871Z</time>
      </trkpt>
      <trkpt lat="59.0973499417305" lon="12.762032970786095">
        <ele>92.18</ele>
        <time>2025-02-03T09:16:24.533Z</time>
      </trkpt>
      <trkpt lat="59.09734499640763" lon="12.761868936941028">
        <ele>92.18</ele>
        <time>2025-02-03T09:16:35.196Z</time>
      </trkpt>
      <trkpt lat="59.097340973094106" lon="12.761704986914992">
        <ele>92.18</ele>
        <time>2025-02-03T09:16:45.860Z</time>
      </trkpt>
      <trkpt lat="59.09733694978058" lon="12.761540953069925">
        <ele>92.18</ele>
        <time>2025-02-03T09:16:56.526Z</time>
      </trkpt>
      <trkpt lat="59.09732999280095" lon="12.761376919224858">
        <ele>92.18</ele>
        <time>2025-02-03T09:17:07.193Z</time>
      </trkpt>
      <trkpt lat="59.09732295200229" lon="12.761210957542062">
        <ele>92.17</ele>
        <time>2025-02-03T09:17:17.862Z</time>
      </trkpt>
      <trkpt lat="59.097317922860384" lon="12.761045917868614">
        <ele>92.15</ele>
        <time>2025-02-03T09:17:28.532Z</time>
      </trkpt>
      <trkpt lat="59.09731197170913" lon="12.760880962014198">
        <ele>92.14</ele>
        <time>2025-02-03T09:17:39.203Z</time>
      </trkpt>
      <trkpt lat="59.09730593673885" lon="12.76071491651237">
        <ele>92.12</ele>
        <time>2025-02-03T09:17:49.876Z</time>
      </trkpt>
      <trkpt lat="59.0972999855876" lon="12.760545937344432">
        <ele>92.09</ele>
        <time>2025-02-03T09:18:00.550Z</time>
      </trkpt>
      <trkpt lat="59.097294956445694" lon="12.760377964004874">
        <ele>92.07</ele>
        <time>2025-02-03T09:18:11.225Z</time>
      </trkpt>
      <trkpt lat="59.09728992730379" lon="12.760210996493697">
        <ele>92.04</ele>
        <time>2025-02-03T09:18:21.902Z</time>
      </trkpt>
      <trkpt lat="59.09728397615254" lon="12.760048974305391">
        <ele>92.0</ele>
        <time>2025-02-03T09:18:32.580Z</time>
      </trkpt>
      <trkpt lat="59.097276935353875" lon="12.759887957945466">
        <ele>91.96</ele>
        <time>2025-02-03T09:18:43.260Z</time>
      </trkpt>
      <trkpt lat="59.09726595506072" lon="12.759728953242302">
        <ele>91.91</ele>
        <time>2025-02-03T09:18:53.941Z</time>
      </trkpt>
      <trkpt lat="59.09724097698927" lon="12.759577995166183">
        <ele>91.87</ele>
        <time>2025-02-03T09:19:04.623Z</time>
      </trkpt>
      <trkpt lat="59.09720594063401" lon="12.759432988241315">
        <ele>91.81</ele>
        <time>2025-02-03T09:19:15.306Z</time>
      </trkpt>
      <trkpt lat="59.09716294147074" lon="12.759292926639318">
        <ele>91.75</ele>
        <time>2025-02-03T09:19:25.991Z</time>
      </trkpt>
      <trkpt lat="59.09711793065071" lon="12.759156972169876">
        <ele>91.69</ele>
        <time>2025-02-03T09:19:36.677Z</time>
      </trkpt>
      <trkpt lat="59.09706998616457" lon="12.759024957194924">
        <ele>91.62</ele>
        <time>2025-02-03T09:19:47.364Z</time>
      </trkpt>
      <trkpt lat="59.0970219578594" lon="12.758896965533495">
        <ele>91.56</ele>
        <time>2025-02-03T09:19:58.053Z</time>
      </trkpt>
      <trkpt lat="59.09697895869613" lon="12.758769979700446">
        <ele>91.48</ele>
        <time>2025-02-03T09:20:08.743Z</time>
      </trkpt>
      <trkpt lat="59.09694794565439" lon="12.758635953068733">
        <ele>91.4</ele>
        <time>2025-02-03T09:20:19.434Z</time>
      </trkpt>
      <trkpt lat="59.09692699089646" lon="12.758492957800627">
        <ele>91.32</ele>
        <time>2025-02-03T09:20:30.126Z</time>
      </trkpt>
      <trkpt lat="59.096914920955896" lon="12.758345939218998">
        <ele>91.23</ele>
        <time>2025-02-03T09:20:40.820Z</time>
      </trkpt>
      <trkpt lat="59.09690394066274" lon="12.75819598697126">
        <ele>91.14</ele>
        <time>2025-02-03T09:20:51.515Z</time>
      </trkpt>
      <trkpt lat="59.096891954541206" lon="12.758042933419347">
        <ele>91.04</ele>
        <time>2025-02-03T09:21:02.211Z</time>
      </trkpt>
      <trkpt lat="59.096888937056065" lon="12.757883928716183">
        <ele>90.94</ele>
        <time>2025-02-03T09:21:12.909Z</time>
      </trkpt>
      <trkpt lat="59.09689899533987" lon="12.757720984518528">
        <ele>90.84</ele>
        <time>2025-02-03T09:21:23.608Z</time>
      </trkpt>
      <trkpt lat="59.096927996724844" lon="12.757564997300506">
        <ele>90.73</ele>
        <time>2025-02-03T09:21:34.308Z</time>
      </trkpt>
      <trkpt lat="59.096974935382605" lon="12.757423929870129">
        <ele>90.62</ele>
        <time>2025-02-03T09:21:45.010Z</time>
      </trkpt>
      <trkpt lat="59.09702992066741" lon="12.757289987057447">
        <ele>90.5</ele>
        <time>2025-02-03T09:21:55.713Z</time>
      </trkpt>
      <trkpt lat="59.097080966457725" lon="12.757150931283832">
        <ele>90.39</ele>
        <time>2025-02-03T09:22:06.418Z</time>
      </trkpt>
      <trkpt lat="59.097123965620995" lon="12.756999973207712">
        <ele>90.28</ele>
        <time>2025-02-03T09:22:17.124Z</time>
      </trkpt>
      <trkpt lat="59.097148943692446" lon="12.756836945191026">
        <ele>90.15</ele>
        <time>2025-02-03T09:22:27.831Z</time>
      </trkpt>
      <trkpt lat="59.09715497866273" lon="12.756661931052804">
        <ele>90.03</ele>
        <time>2025-02-03T09:22:38.540Z</time>
      </trkpt>
      <trkpt lat="59.097145926207304" lon="12.756483983248472">
        <ele>89.89</ele>
        <time>2025-02-03T09:22:49.250Z</time>
      </trkpt>
      <trkpt lat="59.09713394008577" lon="12.756304945796728">
        <ele>89.75</ele>
        <time>2025-02-03T09:22:59.962Z</time>
      </trkpt>
      <trkpt lat="59.09711893647909" lon="12.756124986335635">
        <ele>89.6</ele>
        <time>2025-02-03T09:23:10.675Z</time>
      </trkpt>
      <trkpt lat="59.097102927044034" lon="12.755946954712272">
        <ele>89.45</ele>
        <time>2025-02-03T09:23:21.390Z</time>
      </trkpt>
      <trkpt lat="59.09708792343736" lon="12.75577093474567">
        <ele>89.29</ele>
        <time>2025-02-03T09:23:32.106Z</time>
      </trkpt>
      <trkpt lat="59.09707199782133" lon="12.755594998598099">
        <ele>89.14</ele>
        <time>2025-02-03T09:23:42.824Z</time>
      </trkpt>
      <trkpt lat="59.09705598838627" lon="12.755420990288258">
        <ele>88.97</ele>
        <time>2025-02-03T09:23:53.543Z</time>
      </trkpt>
      <trkpt lat="59.097037967294455" lon="12.755249999463558">
        <ele>88.8</ele>
        <time>2025-02-03T09:24:04.264Z</time>
      </trkpt>
      <trkpt lat="59.097018940374255" lon="12.755079930648208">
        <ele>88.62</ele>
        <time>2025-02-03T09:24:14.986Z</time>
      </trkpt>
      <trkpt lat="59.096997985616326" lon="12.754909945651889">
        <ele>88.45</ele>
        <time>2025-02-03T09:24:25.709Z</time>
      </trkpt>
      <trkpt lat="59.096977952867746" lon="12.75473895482719">
        <ele>88.27</ele>
        <time>2025-02-03T09:24:36.434Z</time>
      </trkpt>
      <trkpt lat="59.09695699810982" lon="12.754565952345729">
        <ele>88.1</ele>
        <time>2025-02-03T09:24:47.160Z</time>
      </trkpt>
      <trkpt lat="59.096934953704476" lon="12.754390938207507">
        <ele>87.91</ele>
        <time>2025-02-03T09:24:57.888Z</time>
      </trkpt>
      <trkpt lat="59.096910981461406" lon="12.754214918240905">
        <ele>87.72</ele>
        <time>2025-02-03T09:25:08.617Z</time>
      </trkpt>
      <trkpt lat="59.09688399173319" lon="12.754039987921715">
        <ele>87.52</ele>
        <time>2025-02-03T09:25:19.348Z</time>
      </trkpt>
      <trkpt lat="59.09685792401433" lon="12.753865979611874">
        <ele>87.32</ele>
        <time>2025-02-03T09:25:30.080Z</time>
      </trkpt>
      <trkpt lat="59.0968319401145" lon="12.753689959645271">
        <ele>87.12</ele>
        <time>2025-02-03T09:25:40.814Z</time>
      </trkpt>
      <trkpt lat="59.096804950386286" lon="12.75351494550705">
        <ele>86.91</ele>
        <time>2025-02-03T09:25:51.549Z</time>
      </trkpt>
      <trkpt lat="59.09677594900131" lon="12.753339931368828">
        <ele>86.71</ele>
        <time>2025-02-03T09:26:02.286Z</time>
      </trkpt>
      <trkpt lat="59.09674694761634" lon="12.753162989392877">
        <ele>86.5</ele>
        <time>2025-02-03T09:26:13.024Z</time>
      </trkpt>
      <trkpt lat="59.096719957888126" lon="12.752986969426274">
        <ele>86.29</ele>
        <time>2025-02-03T09:26:23.764Z</time>
      </trkpt>
      <trkpt lat="59.09669196233153" lon="12.752810949459672">
        <ele>86.08</ele>
        <time>2025-02-03T09:26:34.505Z</time>
      </trkpt>
      <trkpt lat="59.09666296094656" lon="12.752633923664689">
        <ele>85.87</ele>
        <time>2025-02-03T09:26:45.248Z</time>
      </trkpt>
      <trkpt lat="59.096633959561586" lon="12.752457987517118">
        <ele>85.66</ele>
        <time>2025-02-03T09:26:55.993Z</time>
      </trkpt>
      <trkpt lat="59.09660294651985" lon="12.752281967550516">
        <ele>85.44</ele>
        <time>2025-02-03T09:27:06.739Z</time>
      </trkpt>
      <trkpt lat="59.0965729393065" lon="12.752106953412294">
        <ele>85.21</ele>
        <time>2025-02-03T09:27:17.487Z</time>
      </trkpt>
      <trkpt lat="59.09654293209314" lon="12.751932945102453">
        <ele>84.99</ele>
        <time>2025-02-03T09:27:28.236Z</time>
      </trkpt>
      <trkpt lat="59.09651292487979" lon="12.75175591930747">
        <ele>84.77</ele>
        <time>2025-02-03T09:27:38.987Z</time>
      </trkpt>
      <trkpt lat="59.09648593515158" lon="12.751576965674758">
        <ele>84.54</ele>
        <time>2025-02-03T09:27:49.739Z</time>
      </trkpt>
      <trkpt lat="59.096458945423365" lon="12.751398934051394">
        <ele>84.31</ele>
        <time>2025-02-03T09:28:00.493Z</time>
      </trkpt>
      <trkpt lat="59.09643094986677" lon="12.751217968761921">
        <ele>84.07</ele>
        <time>2025-02-03T09:28:11.248Z</time>
      </trkpt>
      <trkpt lat="59.09640295431018" lon="12.751036919653416">
        <ele>83.84</ele>
        <time>2025-02-03T09:28:22.005Z</time>
      </trkpt>
      <trkpt lat="59.096373952925205" lon="12.75085092522204">
        <ele>83.61</ele>
        <time>2025-02-03T09:28:32.763Z</time>
      </trkpt>
      <trkpt lat="59.09634495154023" lon="12.750662919133902">
        <ele>83.37</ele>
        <time>2025-02-03T09:28:43.523Z</time>
      </trkpt>
      <trkpt lat="59.09631796181202" lon="12.750471979379654">
        <ele>83.13</ele>
        <time>2025-02-03T09:28:54.285Z</time>
      </trkpt>
      <trkpt lat="59.09629298374057" lon="12.750278944149613">
        <ele>82.9</ele>
        <time>2025-02-03T09:29:05.048Z</time>
      </trkpt>
      <trkpt lat="59.096269933506846" lon="12.750084986910224">
        <ele>82.65</ele>
        <time>2025-02-03T09:29:15.813Z</time>
      </trkpt>
      <trkpt lat="59.09624797292054" lon="12.749889940023422">
        <ele>82.42</ele>
        <time>2025-02-03T09:29:26.580Z</time>
      </trkpt>
      <trkpt lat="59.096226934343576" lon="12.74969095364213">
        <ele>82.19</ele>
        <time>2025-02-03T09:29:37.348Z</time>
      </trkpt>
      <trkpt lat="59.09620497375727" lon="12.749491967260838">
        <ele>81.95</ele>
        <time>2025-02-03T09:29:48.118Z</time>
      </trkpt>
      <trkpt lat="59.09618494100869" lon="12.749290969222784">
        <ele>81.72</ele>
        <time>2025-02-03T09:29:58.890Z</time>
      </trkpt>
      <trkpt lat="59.09616691991687" lon="12.749084942042828">
        <ele>81.48</ele>
        <time>2025-02-03T09:30:09.663Z</time>
      </trkpt>
      <trkpt lat="59.0961479768157" lon="12.74887396954">
        <ele>81.24</ele>
        <time>2025-02-03T09:30:20.438Z</time>
      </trkpt>
      <trkpt lat="59.09613196738064" lon="12.74865997955203">
        <ele>81.0</ele>
        <time>2025-02-03T09:30:31.215Z</time>
      </trkpt>
      <trkpt lat="59.096116963773966" lon="12.74844297207892">
        <ele>80.76</ele>
        <time>2025-02-03T09:30:41.994Z</time>
      </trkpt>
      <trkpt lat="59.09610397182405" lon="12.748221941292286">
        <ele>80.5</ele>
        <time>2025-02-03T09:30:52.775Z</time>
      </trkpt>
      <trkpt lat="59.09608997404575" lon="12.747996971011162">
        <ele>80.25</ele>
        <time>2025-02-03T09:31:03.557Z</time>
      </trkpt>
      <trkpt lat="59.09607798792422" lon="12.747766971588135">
        <ele>80.01</ele>
        <time>2025-02-03T09:31:14.341Z</time>
      </trkpt>
      <trkpt lat="59.09606792964041" lon="12.747529931366444">
        <ele>79.76</ele>
        <time>2025-02-03T09:31:25.127Z</time>
      </trkpt>
      <trkpt lat="59.09605896100402" lon="12.747289957478642">
        <ele>79.51</ele>
        <time>2025-02-03T09:31:35.915Z</time>
      </trkpt>
      <trkpt lat="59.096048986539245" lon="12.747044954448938">
        <ele>79.28</ele>
        <time>2025-02-03T09:31:46.705Z</time>
      </trkpt>
      <trkpt lat="59.09603892825544" lon="12.746794922277331">
        <ele>79.04</ele>
        <time>2025-02-03T09:31:57.497Z</time>
      </trkpt>
      <trkpt lat="59.096029959619045" lon="12.746541956439614">
        <ele>78.8</ele>
        <time>2025-02-03T09:32:08.292Z</time>
      </trkpt>
      <trkpt lat="59.09601998515427" lon="12.746283961459994">
        <ele>78.55</ele>
        <time>2025-02-03T09:32:19.089Z</time>
      </trkpt>
      <trkpt lat="59.096010932698846" lon="12.746023954823613">
        <ele>78.31</ele>
        <time>2025-02-03T09:32:29.888Z</time>
      </trkpt>
      <trkpt lat="59.09600095823407" lon="12.74575992487371">
        <ele>78.07</ele>
        <time>2025-02-03T09:32:40.689Z</time>
      </trkpt>
      <trkpt lat="59.09598997794092" lon="12.745492961257696">
        <ele>77.83</ele>
        <time>2025-02-03T09:32:51.492Z</time>
      </trkpt>
      <trkpt lat="59.09597899764776" lon="12.74522197432816">
        <ele>77.59</ele>
        <time>2025-02-03T09:33:02.297Z</time>
      </trkpt>
      <trkpt lat="59.095967933535576" lon="12.744948975741863">
        <ele>77.36</ele>
        <time>2025-02-03T09:33:13.105Z</time>
      </trkpt>
      <trkpt lat="59.09595896489918" lon="12.744673965498805">
        <ele>77.14</ele>
        <time>2025-02-03T09:33:23.915Z</time>
      </trkpt>
      <trkpt lat="59.09594899043441" lon="12.744399961084127">
        <ele>76.92</ele>
        <time>2025-02-03T09:33:34.727Z</time>
      </trkpt>
      <trkpt lat="59.09594094380736" lon="12.74412495084107">
        <ele>76.7</ele>
        <time>2025-02-03T09:33:45.542Z</time>
      </trkpt>
      <trkpt lat="59.09593096934259" lon="12.743853963911533">
        <ele>76.48</ele>
        <time>2025-02-03T09:33:56.359Z</time>
      </trkpt>
      <trkpt lat="59.095921916887164" lon="12.743583982810378">
        <ele>76.27</ele>
        <time>2025-02-03T09:34:07.178Z</time>
      </trkpt>
      <trkpt lat="59.09591294825077" lon="12.743315929546952">
        <ele>76.06</ele>
        <time>2025-02-03T09:34:17.999Z</time>
      </trkpt>
      <trkpt lat="59.09590397961438" lon="12.74304997175932">
        <ele>75.86</ele>
        <time>2025-02-03T09:34:28.822Z</time>
      </trkpt>
      <trkpt lat="59.09589492715895" lon="12.742786947637796">
        <ele>75.67</ele>
        <time>2025-02-03T09:34:39.648Z</time>
      </trkpt>
      <trkpt lat="59.09588495269418" lon="12.742527946829796">
        <ele>75.47</ele>
        <time>2025-02-03T09:34:50.476Z</time>
      </trkpt>
      <trkpt lat="59.0958749782294" lon="12.742274980992079">
        <ele>75.29</ele>
        <time>2025-02-03T09:35:01.306Z</time>
      </trkpt>
      <trkpt lat="59.09586592577398" lon="12.742029977962375">
        <ele>75.11</ele>
        <time>2025-02-03T09:35:12.138Z</time>
      </trkpt>
      <trkpt lat="59.095855951309204" lon="12.741791931912303">
        <ele>74.93</ele>
        <time>2025-02-03T09:35:22.972Z</time>
      </trkpt>
      <trkpt lat="59.09584798850119" lon="12.741563944146037">
        <ele>74.76</ele>
        <time>2025-02-03T09:35:33.808Z</time>
      </trkpt>
      <trkpt lat="59.09583994187415" lon="12.741341991350055">
        <ele>74.59</ele>
        <time>2025-02-03T09:35:44.646Z</time>
      </trkpt>
      <trkpt lat="59.09582996740937" lon="12.741128923371434">
        <ele>74.43</ele>
        <time>2025-02-03T09:35:55.485Z</time>
      </trkpt>
      <trkpt lat="59.09582192078233" lon="12.74092298001051">
        <ele>74.27</ele>
        <time>2025-02-03T09:36:06.326Z</time>
      </trkpt>
      <trkpt lat="59.095812952145934" lon="12.740723993629217">
        <ele>74.11</ele>
        <time>2025-02-03T09:36:17.169Z</time>
      </trkpt>
      <trkpt lat="59.09580398350954" lon="12.740530958399177">
        <ele>73.95</ele>
        <time>2025-02-03T09:36:28.013Z</time>
      </trkpt>
      <trkpt lat="59.095793925225735" lon="12.740342952311039">
        <ele>73.8</ele>
        <time>2025-02-03T09:36:38.859Z</time>
      </trkpt>
      <trkpt lat="59.09578495658934" lon="12.740157963708043">
        <ele>73.66</ele>
        <time>2025-02-03T09:36:49.706Z</time>
      </trkpt>
      <trkpt lat="59.095773976296186" lon="12.73997699841857">
        <ele>73.51</ele>
        <time>2025-02-03T09:37:00.555Z</time>
      </trkpt>
      <trkpt lat="59.09576299600303" lon="12.739800978451967">
        <ele>73.37</ele>
        <time>2025-02-03T09:37:11.405Z</time>
      </trkpt>
      <trkpt lat="59.095747992396355" lon="12.739626970142126">
        <ele>73.24</ele>
        <time>2025-02-03T09:37:22.257Z</time>
      </trkpt>
      <trkpt lat="59.09573298878968" lon="12.739455979317427">
        <ele>73.1</ele>
        <time>2025-02-03T09:37:33.110Z</time>
      </trkpt>
      <trkpt lat="59.095717985183" lon="12.739285994321108">
        <ele>72.97</ele>
        <time>2025-02-03T09:37:43.965Z</time>
      </trkpt>
      <trkpt lat="59.095703987404704" lon="12.739117937162519">
        <ele>72.84</ele>
        <time>2025-02-03T09:37:54.821Z</time>
      </trkpt>
      <trkpt lat="59.095686972141266" lon="12.738953987136483">
        <ele>72.71</ele>
        <time>2025-02-03T09:38:05.678Z</time>
      </trkpt>
      <trkpt lat="59.09566895104945" lon="12.738792970776558">
        <ele>72.59</ele>
        <time>2025-02-03T09:38:16.537Z</time>
      </trkpt>
      <trkpt lat="59.09564891830087" lon="12.738634971901774">
        <ele>72.47</ele>
        <time>2025-02-03T09:38:27.397Z</time>
      </trkpt>
      <trkpt lat="59.09562796354294" lon="12.738479990512133">
        <ele>72.36</ele>
        <time>2025-02-03T09:38:38.258Z</time>
      </trkpt>
      <trkpt lat="59.09560893662274" lon="12.738328948616982">
        <ele>72.25</ele>
        <time>2025-02-03T09:38:49.121Z</time>
      </trkpt>
      <trkpt lat="59.09558898769319" lon="12.738182935863733">
        <ele>72.13</ele>
        <time>2025-02-03T09:38:59.985Z</time>
      </trkpt>
      <trkpt lat="59.09556794911623" lon="12.738042958080769">
        <ele>72.02</ele>
        <time>2025-02-03T09:39:10.850Z</time>
      </trkpt>
      <trkpt lat="59.09554598852992" lon="12.737908931449056">
        <ele>71.92</ele>
        <time>2025-02-03T09:39:21.716Z</time>
      </trkpt>
      <trkpt lat="59.09552494995296" lon="12.737784963101149">
        <ele>71.82</ele>
        <time>2025-02-03T09:39:32.583Z</time>
      </trkpt>
      <trkpt lat="59.09550491720438" lon="12.737667951732874">
        <ele>71.72</ele>
        <time>2025-02-03T09:39:43.451Z</time>
      </trkpt>
      <trkpt lat="59.09548496827483" lon="12.737556975334883">
        <ele>71.62</ele>
        <time>2025-02-03T09:39:54.320Z</time>
      </trkpt>
      <trkpt lat="59.09546392969787" lon="12.737448932603002">
        <ele>71.52</ele>
        <time>2025-02-03T09:40:05.190Z</time>
      </trkpt>
      <trkpt lat="59.09544196911156" lon="12.737343991175294">
        <ele>71.42</ele>
        <time>2025-02-03T09:40:16.061Z</time>
      </trkpt>
      <trkpt lat="59.09542193636298" lon="12.737240977585316">
        <ele>71.33</ele>
        <time>2025-02-03T09:40:26.933Z</time>
      </trkpt>
      <trkpt lat="59.09539997577667" lon="12.73714299313724">
        <ele>71.23</ele>
        <time>2025-02-03T09:40:37.806Z</time>
      </trkpt>
      <trkpt lat="59.09537893719971" lon="12.737049954012036">
        <ele>71.13</ele>
        <time>2025-02-03T09:40:48.680Z</time>
      </trkpt>
      <trkpt lat="59.095360999926925" lon="12.736963955685496">
        <ele>71.04</ele>
        <time>2025-02-03T09:40:59.555Z</time>
      </trkpt>
      <trkpt lat="59.09534599632025" lon="12.73688692599535">
        <ele>70.95</ele>
        <time>2025-02-03T09:41:10.430Z</time>
      </trkpt>
      <trkpt lat="59.09533493220806" lon="12.736815931275487">
        <ele>70.86</ele>
        <time>2025-02-03T09:41:21.306Z</time>
      </trkpt>
      <trkpt lat="59.09532395191491" lon="12.73675398901105">
        <ele>70.77</ele>
        <time>2025-02-03T09:41:32.183Z</time>
      </trkpt>
      <trkpt lat="59.09531196579337" lon="12.736707972362638">
        <ele>70.69</ele>
        <time>2025-02-03T09:41:43.060Z</time>
      </trkpt>
      <trkpt lat="59.09530391916633" lon="12.736676959320903">
        <ele>70.61</ele>
        <time>2025-02-03T09:41:53.937Z</time>
      </trkpt>
      <trkpt lat="59.095299979671836" lon="12.736663967370987">
        <ele>70.53</ele>
        <time>2025-02-03T09:42:04.814Z</time>
      </trkpt>
      <trkpt lat="59.095297968015075" lon="12.736660949885845">
        <ele>70.45</ele>
        <time>2025-02-03T09:42:15.691Z</time>
      </trkpt>
      <trkpt lat="59.095297968015075" lon="12.736662961542606">
        <ele>70.37</ele>
        <time>2025-02-03T09:42:26.568Z</time>
      </trkpt>
      <trkpt lat="59.09526092000306" lon="12.736555924639106">
        <ele>70.3</ele>
        <time>2025-02-03T09:42:37.446Z</time>
      </trkpt>
      <trkpt lat="59.095254968851805" lon="12.736528934910893">
        <ele>70.22</ele>
        <time>2025-02-03T09:42:48.325Z</time>
      </trkpt>
      <trkpt lat="59.09524591639638" lon="12.736501945182681">
        <ele>70.15</ele>
        <time>2025-02-03T09:42:59.204Z</time>
      </trkpt>
      <trkpt lat="59.095234936103225" lon="12.736470932140946">
        <ele>70.08</ele>
        <time>2025-02-03T09:43:10.083Z</time>
      </trkpt>
      <trkpt lat="59.09522496163845" lon="12.73643396794796">
        <ele>70.01</ele>
        <time>2025-02-03T09:43:20.963Z</time>
      </trkpt>
      <trkpt lat="59.095212975516915" lon="12.73639197461307">
        <ele>69.94</ele>
        <time>2025-02-03T09:43:31.843Z</time>
      </trkpt>
      <trkpt lat="59.09520291723311" lon="12.7363489754498">
        <ele>69.87</ele>
        <time>2025-02-03T09:43:42.723Z</time>
      </trkpt>
      <trkpt lat="59.095193948596716" lon="12.73630497045815">
        <ele>69.8</ele>
        <time>2025-02-03T09:43:53.604Z</time>
      </trkpt>
      <trkpt lat="59.0951859857887" lon="12.7362609654665">
        <ele>69.73</ele>
        <time>2025-02-03T09:44:04.485Z</time>
      </trkpt>
      <trkpt lat="59.09517894499004" lon="12.736216960474849">
        <ele>69.67</ele>
        <time>2025-02-03T09:44:15.367Z</time>
      </trkpt>
      <trkpt lat="59.095168970525265" lon="12.73617597296834">
        <ele>69.6</ele>
        <time>2025-02-03T09:44:26.249Z</time>
      </trkpt>
      <trkpt lat="59.09515899606049" lon="12.736139930784702">
        <ele>69.54</ele>
        <time>2025-02-03T09:44:37.131Z</time>
      </trkpt>
      <trkpt lat="59.095148937776685" lon="12.736102966591716">
        <ele>69.48</ele>
        <time>2025-02-03T09:44:48.014Z</time>
      </trkpt>
      <trkpt lat="59.09513795748353" lon="12.736064996570349">
        <ele>69.41</ele>
        <time>2025-02-03T09:44:58.897Z</time>
      </trkpt>
      <trkpt lat="59.09512295387685" lon="12.73602694272995">
        <ele>69.35</ele>
        <time>2025-02-03T09:45:09.780Z</time>
      </trkpt>
      <trkpt lat="59.095105938613415" lon="12.735986961051822">
        <ele>69.29</ele>
        <time>2025-02-03T09:45:20.664Z</time>
      </trkpt>
      <trkpt lat="59.095084983855486" lon="12.735945973545313">
        <ele>69.23</ele>
        <time>2025-02-03T09:45:31.548Z</time>
      </trkpt>
      <trkpt lat="59.095058999955654" lon="12.735906997695565">
        <ele>69.17</ele>
        <time>2025-02-03T09:45:42.433Z</time>
      </trkpt>
      <trkpt lat="59.09502798691392" lon="12.735868943855166">
        <ele>69.11</ele>
        <time>2025-02-03T09:45:53.318Z</time>
      </trkpt>
      <trkpt lat="59.09499395638704" lon="12.73583298549056">
        <ele>69.05</ele>
        <time>2025-02-03T09:46:04.204Z</time>
      </trkpt>
      <trkpt lat="59.094954980537295" lon="12.735801972448826">
        <ele>69.0</ele>
        <time>2025-02-03T09:46:15.091Z</time>
      </trkpt>
      <trkpt lat="59.094911981374025" lon="12.735771965235472">
        <ele>68.94</ele>
        <time>2025-02-03T09:46:25.978Z</time>
      </trkpt>
      <trkpt lat="59.09486395306885" lon="12.735740952193737">
        <ele>68.88</ele>
        <time>2025-02-03T09:46:36.866Z</time>
      </trkpt>
      <trkpt lat="59.09480997361243" lon="12.735709939152002">
        <ele>68.83</ele>
        <time>2025-02-03T09:46:47.755Z</time>
      </trkpt>
      <trkpt lat="59.09474995918572" lon="12.735677920281887">
        <ele>68.77</ele>
        <time>2025-02-03T09:46:58.645Z</time>
      </trkpt>
      <trkpt lat="59.09468298777938" lon="12.735643973574042">
        <ele>68.71</ele>
        <time>2025-02-03T09:47:09.536Z</time>
      </trkpt>
      <trkpt lat="59.094613920897245" lon="12.735608937218785">
        <ele>68.65</ele>
        <time>2025-02-03T09:47:20.428Z</time>
      </trkpt>
      <trkpt lat="59.09454292617738" lon="12.73557297885418">
        <ele>68.59</ele>
        <time>2025-02-03T09:47:31.322Z</time>
      </trkpt>
      <trkpt lat="59.09447092562914" lon="12.735532997176051">
        <ele>68.53</ele>
        <time>2025-02-03T09:47:42.217Z</time>
      </trkpt>
      <trkpt lat="59.094398925080895" lon="12.735480945557356">
        <ele>68.46</ele>
        <time>2025-02-03T09:47:53.113Z</time>
      </trkpt>
      <trkpt lat="59.094329942017794" lon="12.735406933352351">
        <ele>68.4</ele>
        <time>2025-02-03T09:48:04.010Z</time>
      </trkpt>
      <trkpt lat="59.094267999753356" lon="12.735312972217798">
        <ele>68.33</ele>
        <time>2025-02-03T09:48:14.909Z</time>
      </trkpt>
      <trkpt lat="59.0942139364779" lon="12.735204929485917">
        <ele>68.27</ele>
        <time>2025-02-03T09:48:25.809Z</time>
      </trkpt>
      <trkpt lat="59.09416791982949" lon="12.735092947259545">
        <ele>68.2</ele>
        <time>2025-02-03T09:48:36.710Z</time>
      </trkpt>
      <trkpt lat="59.09412894397974" lon="12.734977947548032">
        <ele>68.14</ele>
        <time>2025-02-03T09:48:47.612Z</time>
      </trkpt>
      <trkpt lat="59.094097930938005" lon="12.734853979200125">
        <ele>68.07</ele>
        <time>2025-02-03T09:48:58.515Z</time>
      </trkpt>
      <trkpt lat="59.09407898783684" lon="12.734718946740031">
        <ele>68.0</ele>
        <time>2025-02-03T09:49:09.419Z</time>
      </trkpt>
      <trkpt lat="59.094075970351696" lon="12.734576957300305">
        <ele>67.94</ele>
        <time>2025-02-03T09:49:20.325Z</time>
      </trkpt>
      <trkpt lat="59.09408795647323" lon="12.734439997002482">
        <ele>67.87</ele>
        <time>2025-02-03T09:49:31.232Z</time>
      </trkpt>
      <trkpt lat="59.09410798922181" lon="12.73430697619915">
        <ele>67.81</ele>
        <time>2025-02-03T09:49:42.140Z</time>
      </trkpt>
      <trkpt lat="59.09412693232298" lon="12.734172949567437">
        <ele>67.75</ele>
        <time>2025-02-03T09:49:53.049Z</time>
      </trkpt>
      <trkpt lat="59.09414797089994" lon="12.734032971784472">
        <ele>67.68</ele>
        <time>2025-02-03T09:50:03.959Z</time>
      </trkpt>
      <trkpt lat="59.09416699782014" lon="12.733883941546082">
        <ele>67.63</ele>
        <time>2025-02-03T09:50:14.870Z</time>
      </trkpt>
      <trkpt lat="59.09417496062815" lon="12.733730971813202">
        <ele>67.57</ele>
        <time>2025-02-03T09:50:25.783Z</time>
      </trkpt>
      <trkpt lat="59.09416791982949" lon="12.73357892408967">
        <ele>67.51</ele>
        <time>2025-02-03T09:50:36.697Z</time>
      </trkpt>
      <trkpt lat="59.09414394758642" lon="12.733438946306705">
        <ele>67.44</ele>
        <time>2025-02-03T09:50:47.612Z</time>
      </trkpt>
      <trkpt lat="59.09410698339343" lon="12.733308942988515">
        <ele>67.37</ele>
        <time>2025-02-03T09:50:58.528Z</time>
      </trkpt>
      <trkpt lat="59.09406691789627" lon="12.733184974640608">
        <ele>67.31</ele>
        <time>2025-02-03T09:51:09.446Z</time>
      </trkpt>
      <trkpt lat="59.09402693621814" lon="12.73306293413043">
        <ele>67.25</ele>
        <time>2025-02-03T09:51:20.365Z</time>
      </trkpt>
      <trkpt lat="59.09398494288325" lon="12.732942989096045">
        <ele>67.18</ele>
        <time>2025-02-03T09:51:31.285Z</time>
      </trkpt>
      <trkpt lat="59.0939409378916" lon="12.73282597772777">
        <ele>67.11</ele>
        <time>2025-02-03T09:51:42.206Z</time>
      </trkpt>
      <trkpt lat="59.09389693289995" lon="12.732708966359496">
        <ele>67.04</ele>
        <time>2025-02-03T09:51:53.128Z</time>
      </trkpt>
      <trkpt lat="59.0938529279083" lon="12.732594972476363">
        <ele>66.97</ele>
        <time>2025-02-03T09:52:04.052Z</time>
      </trkpt>
      <trkpt lat="59.09380791708827" lon="12.73248198442161">
        <ele>66.9</ele>
        <time>2025-02-03T09:52:14.977Z</time>
      </trkpt>
      <trkpt lat="59.09376399591565" lon="12.732367990538478">
        <ele>66.82</ele>
        <time>2025-02-03T09:52:25.903Z</time>
      </trkpt>
      <trkpt lat="59.09371898509562" lon="12.732249973341823">
        <ele>66.74</ele>
        <time>2025-02-03T09:52:36.830Z</time>
      </trkpt>
      <trkpt lat="59.09367598593235" lon="12.732127932831645">
        <ele>66.67</ele>
        <time>2025-02-03T09:52:47.758Z</time>
      </trkpt>
      <trkpt lat="59.0936319809407" lon="12.73200798779726">
        <ele>66.59</ele>
        <time>2025-02-03T09:52:58.688Z</time>
      </trkpt>
      <trkpt lat="59.09358697012067" lon="12.731886953115463">
        <ele>66.51</ele>
        <time>2025-02-03T09:53:09.619Z</time>
      </trkpt>
      <trkpt lat="59.093539947643876" lon="12.731760973110795">
        <ele>66.42</ele>
        <time>2025-02-03T09:53:20.551Z</time>
      </trkpt>
      <trkpt lat="59.0934919193387" lon="12.731631975620985">
        <ele>66.34</ele>
        <time>2025-02-03T09:53:31.484Z</time>
      </trkpt>
      <trkpt lat="59.09344498068094" lon="12.731502978131175">
        <ele>66.25</ele>
        <time>2025-02-03T09:53:42.419Z</time>
      </trkpt>
      <trkpt lat="59.09339594654739" lon="12.731373980641365">
        <ele>66.16</ele>
        <time>2025-02-03T09:53:53.355Z</time>
      </trkpt>
      <trkpt lat="59.09334699623287" lon="12.731245988979936">
        <ele>66.08</ele>
        <time>2025-02-03T09:54:04.292Z</time>
      </trkpt>
      <trkpt lat="59.09329695627093" lon="12.731113974004984">
        <ele>65.99</ele>
        <time>2025-02-03T09:54:15.231Z</time>
      </trkpt>
      <trkpt lat="59.093246916309" lon="12.730979947373271">
        <ele>65.89</ele>
        <time>2025-02-03T09:54:26.171Z</time>
      </trkpt>
      <trkpt lat="59.0931969601661" lon="12.73084499873221">
        <ele>65.8</ele>
        <time>2025-02-03T09:54:37.113Z</time>
      </trkpt>
      <trkpt lat="59.09314692020416" lon="12.730708960443735">
        <ele>65.71</ele>
        <time>2025-02-03T09:54:48.056Z</time>
      </trkpt>
      <trkpt lat="59.09309595823288" lon="12.73057191632688">
        <ele>65.62</ele>
        <time>2025-02-03T09:54:59.000Z</time>
      </trkpt>
      <trkpt lat="59.093043990433216" lon="12.730432944372296">
        <ele>65.52</ele>
        <time>2025-02-03T09:55:09.946Z</time>
      </trkpt>
      <trkpt lat="59.09298992715776" lon="12.730291960760951">
        <ele>65.43</ele>
        <time>2025-02-03T09:55:20.893Z</time>
      </trkpt>
      <trkpt lat="59.092935947701335" lon="12.730152988806367">
        <ele>65.33</ele>
        <time>2025-02-03T09:55:31.842Z</time>
      </trkpt>
      <trkpt lat="59.09288096241653" lon="12.730010999366641">
        <ele>65.22</ele>
        <time>2025-02-03T09:55:42.792Z</time>
      </trkpt>
      <trkpt lat="59.092825977131724" lon="12.729866998270154">
        <ele>65.12</ele>
        <time>2025-02-03T09:55:53.744Z</time>
      </trkpt>
      <trkpt lat="59.09277099184692" lon="12.729719979688525">
        <ele>65.02</ele>
        <time>2025-02-03T09:56:04.697Z</time>
      </trkpt>
      <trkpt lat="59.09271592274308" lon="12.729570949450135">
        <ele>64.91</ele>
        <time>2025-02-03T09:56:15.652Z</time>
      </trkpt>
      <trkpt lat="59.092659931629896" lon="12.729422925040126">
        <ele>64.81</ele>
        <time>2025-02-03T09:56:26.608Z</time>
      </trkpt>
      <trkpt lat="59.09260192885995" lon="12.729274984449148">
        <ele>64.7</ele>
        <time>2025-02-03T09:56:37.566Z</time>
      </trkpt>
      <trkpt lat="59.09254392609" lon="12.729125954210758">
        <ele>64.6</ele>
        <time>2025-02-03T09:56:48.525Z</time>
      </trkpt>
      <trkpt lat="59.092486929148436" lon="12.728973990306258">
        <ele>64.49</ele>
        <time>2025-02-03T09:56:59.486Z</time>
      </trkpt>
      <trkpt lat="59.09243093803525" lon="12.728819930925965">
        <ele>64.39</ele>
        <time>2025-02-03T09:57:10.448Z</time>
      </trkpt>
      <trkpt lat="59.0923729352653" lon="12.728664949536324">
        <ele>64.28</ele>
        <time>2025-02-03T09:57:21.412Z</time>
      </trkpt>
      <trkpt lat="59.092314932495356" lon="12.728510973975062">
        <ele>64.17</ele>
        <time>2025-02-03T09:57:32.377Z</time>
      </trkpt>
      <trkpt lat="59.09225491806865" lon="12.72835792042315">
        <ele>64.07</ele>
        <time>2025-02-03T09:57:43.344Z</time>
      </trkpt>
      <trkpt lat="59.09219599328935" lon="12.728203944861889">
        <ele>63.96</ele>
        <time>2025-02-03T09:57:54.313Z</time>
      </trkpt>
      <trkpt lat="59.092136984691024" lon="12.728050975129008">
        <ele>63.86</ele>
        <time>2025-02-03T09:58:05.283Z</time>
      </trkpt>
      <trkpt lat="59.092075964435935" lon="12.727896999567747">
        <ele>63.76</ele>
        <time>2025-02-03T09:58:16.255Z</time>
      </trkpt>
      <trkpt lat="59.092012932524085" lon="12.727741934359074">
        <ele>63.65</ele>
        <time>2025-02-03T09:58:27.228Z</time>
      </trkpt>
      <trkpt lat="59.091947972774506" lon="12.727588964626193">
        <ele>63.54</ele>
        <time>2025-02-03T09:58:38.203Z</time>
      </trkpt>
      <trkpt lat="59.091881923377514" lon="12.727437922731042">
        <ele>63.43</ele>
        <time>2025-02-03T09:58:49.180Z</time>
      </trkpt>
      <trkpt lat="59.09181495197117" lon="12.727290987968445">
        <ele>63.33</ele>
        <time>2025-02-03T09:59:00.158Z</time>
      </trkpt>
      <trkpt lat="59.09174798056483" lon="12.727146986871958">
        <ele>63.22</ele>
        <time>2025-02-03T09:59:11.138Z</time>
      </trkpt>
      <trkpt lat="59.09168193116784" lon="12.727004997432232">
        <ele>63.1</ele>
        <time>2025-02-03T09:59:22.119Z</time>
      </trkpt>
      <trkpt lat="59.09161898307502" lon="12.726863930001855">
        <ele>63.0</ele>
        <time>2025-02-03T09:59:33.102Z</time>
      </trkpt>
      <trkpt lat="59.09155695699155" lon="12.72672395221889">
        <ele>62.89</ele>
        <time>2025-02-03T09:59:44.087Z</time>
      </trkpt>
      <trkpt lat="59.091496942564845" lon="12.726585986092687">
        <ele>62.78</ele>
        <time>2025-02-03T09:59:55.073Z</time>
      </trkpt>
      <trkpt lat="59.0914389397949" lon="12.726448941975832">
        <ele>62.67</ele>
        <time>2025-02-03T10:00:06.060Z</time>
      </trkpt>
      <trkpt lat="59.09138294868171" lon="12.726311981678009">
        <ele>62.56</ele>
        <time>2025-02-03T10:00:17.049Z</time>
      </trkpt>
      <trkpt lat="59.09132997505367" lon="12.726172925904393">
        <ele>62.44</ele>
        <time>2025-02-03T10:00:28.039Z</time>
      </trkpt>
      <trkpt lat="59.09127599559724" lon="12.726033953949809">
        <ele>62.32</ele>
        <time>2025-02-03T10:00:39.031Z</time>
      </trkpt>
      <trkpt lat="59.09122293815017" lon="12.725894981995225">
        <ele>62.2</ele>
        <time>2025-02-03T10:00:50.024Z</time>
      </trkpt>
      <trkpt lat="59.091172982007265" lon="12.725750980898738">
        <ele>62.07</ele>
        <time>2025-02-03T10:01:01.019Z</time>
      </trkpt>
      <trkpt lat="59.09112495370209" lon="12.72560496814549">
        <ele>61.94</ele>
        <time>2025-02-03T10:01:12.015Z</time>
      </trkpt>
      <trkpt lat="59.09107591956854" lon="12.725459961220622">
        <ele>61.81</ele>
        <time>2025-02-03T10:01:23.013Z</time>
      </trkpt>
      <trkpt lat="59.091025963425636" lon="12.725317971780896">
        <ele>61.68</ele>
        <time>2025-02-03T10:01:34.012Z</time>
      </trkpt>
      <trkpt lat="59.09097692929208" lon="12.72517397068441">
        <ele>61.55</ele>
        <time>2025-02-03T10:01:45.012Z</time>
      </trkpt>
      <trkpt lat="59.09092898480594" lon="12.725027957931161">
        <ele>61.42</ele>
        <time>2025-02-03T10:01:56.014Z</time>
      </trkpt>
      <trkpt lat="59.09088095650077" lon="12.724880939349532">
        <ele>61.29</ele>
        <time>2025-02-03T10:02:07.017Z</time>
      </trkpt>
      <trkpt lat="59.090830916538835" lon="12.724732998758554">
        <ele>61.16</ele>
        <time>2025-02-03T10:02:18.022Z</time>
      </trkpt>
      <trkpt lat="59.09078096039593" lon="12.724580951035023">
        <ele>61.03</ele>
        <time>2025-02-03T10:02:29.028Z</time>
      </trkpt>
      <trkpt lat="59.09072899259627" lon="12.724427981302142">
        <ele>60.89</ele>
        <time>2025-02-03T10:02:40.036Z</time>
      </trkpt>
      <trkpt lat="59.09067694097757" lon="12.72427392192185">
        <ele>60.76</ele>
        <time>2025-02-03T10:02:51.045Z</time>
      </trkpt>
      <trkpt lat="59.09062296152115" lon="12.724118940532207">
        <ele>60.62</ele>
        <time>2025-02-03T10:03:02.056Z</time>
      </trkpt>
      <trkpt lat="59.090569987893105" lon="12.723960941657424">
        <ele>60.49</ele>
        <time>2025-02-03T10:03:13.068Z</time>
      </trkpt>
      <trkpt lat="59.09051592461765" lon="12.723798919469118">
        <ele>60.35</ele>
        <time>2025-02-03T10:03:24.082Z</time>
      </trkpt>
      <trkpt lat="59.09046194516122" lon="12.723634969443083">
        <ele>60.2</ele>
        <time>2025-02-03T10:03:35.098Z</time>
      </trkpt>
      <trkpt lat="59.09040695987642" lon="12.723469929769635">
        <ele>60.06</ele>
        <time>2025-02-03T10:03:46.115Z</time>
      </trkpt>
      <trkpt lat="59.09035096876323" lon="12.723302962258458">
        <ele>59.92</ele>
        <time>2025-02-03T10:03:57.134Z</time>
      </trkpt>
      <trkpt lat="59.090294977650046" lon="12.72313398309052">
        <ele>59.78</ele>
        <time>2025-02-03T10:04:08.154Z</time>
      </trkpt>
      <trkpt lat="59.09024099819362" lon="12.722963998094201">
        <ele>59.64</ele>
        <time>2025-02-03T10:04:19.176Z</time>
      </trkpt>
      <trkpt lat="59.090184923261404" lon="12.72279191762209">
        <ele>59.5</ele>
        <time>2025-02-03T10:04:30.200Z</time>
      </trkpt>
      <trkpt lat="59.0901299379766" lon="12.72261899895966">
        <ele>59.36</ele>
        <time>2025-02-03T10:04:41.225Z</time>
      </trkpt>
      <trkpt lat="59.09007495269179" lon="12.722443984821439">
        <ele>59.23</ele>
        <time>2025-02-03T10:04:52.252Z</time>
      </trkpt>
      <trkpt lat="59.09001996740699" lon="12.722267964854836">
        <ele>59.09</ele>
        <time>2025-02-03T10:05:03.281Z</time>
      </trkpt>
      <trkpt lat="59.08996598795056" lon="12.722089933231473">
        <ele>58.96</ele>
        <time>2025-02-03T10:05:14.312Z</time>
      </trkpt>
      <trkpt lat="59.08991293050349" lon="12.72191097959876">
        <ele>58.83</ele>
        <time>2025-02-03T10:05:25.344Z</time>
      </trkpt>
      <trkpt lat="59.08985995687544" lon="12.721731942147017">
        <ele>58.7</ele>
        <time>2025-02-03T10:05:36.378Z</time>
      </trkpt>
      <trkpt lat="59.08980798907578" lon="12.721554916352034">
        <ele>58.57</ele>
        <time>2025-02-03T10:05:47.414Z</time>
      </trkpt>
      <trkpt lat="59.089757949113846" lon="12.72137495689094">
        <ele>58.43</ele>
        <time>2025-02-03T10:05:58.451Z</time>
      </trkpt>
      <trkpt lat="59.08971092663705" lon="12.721194997429848">
        <ele>58.3</ele>
        <time>2025-02-03T10:06:09.490Z</time>
      </trkpt>
      <trkpt lat="59.0896669216454" lon="12.721013948321342">
        <ele>58.17</ele>
        <time>2025-02-03T10:06:20.531Z</time>
      </trkpt>
      <trkpt lat="59.089625934138894" lon="12.720832983031869">
        <ele>58.04</ele>
        <time>2025-02-03T10:06:31.573Z</time>
      </trkpt>
      <trkpt lat="59.089586958289146" lon="12.720652939751744">
        <ele>57.91</ele>
        <time>2025-02-03T10:06:42.617Z</time>
      </trkpt>
      <trkpt lat="59.08954898826778" lon="12.720474991947412">
        <ele>57.78</ele>
        <time>2025-02-03T10:06:53.662Z</time>
      </trkpt>
      <trkpt lat="59.08951294608414" lon="12.72029997780919">
        <ele>57.65</ele>
        <time>2025-02-03T10:07:04.709Z</time>
      </trkpt>
      <trkpt lat="59.089476987719536" lon="12.720129992812872">
        <ele>57.53</ele>
        <time>2025-02-03T10:07:15.758Z</time>
      </trkpt>
      <trkpt lat="59.08944195136428" lon="12.719959923997521">
        <ele>57.41</ele>
        <time>2025-02-03T10:07:26.808Z</time>
      </trkpt>
      <trkpt lat="59.08940599299967" lon="12.719791950657964">
        <ele>57.29</ele>
        <time>2025-02-03T10:07:37.860Z</time>
      </trkpt>
      <trkpt lat="59.089369950816035" lon="12.719624983146787">
        <ele>57.17</ele>
        <time>2025-02-03T10:07:48.913Z</time>
      </trkpt>
      <trkpt lat="59.08933298662305" lon="12.719458937644958">
        <ele>57.04</ele>
        <time>2025-02-03T10:07:59.968Z</time>
      </trkpt>
      <trkpt lat="59.08929694443941" lon="12.719291970133781">
        <ele>56.92</ele>
        <time>2025-02-03T10:08:11.024Z</time>
      </trkpt>
      <trkpt lat="59.089260986074805" lon="12.719122990965843">
        <ele>56.8</ele>
        <time>2025-02-03T10:08:22.082Z</time>
      </trkpt>
      <trkpt lat="59.08922695554793" lon="12.718952922150493">
        <ele>56.66</ele>
        <time>2025-02-03T10:08:33.141Z</time>
      </trkpt>
      <trkpt lat="59.08919191919267" lon="12.718781931325793">
        <ele>56.54</ele>
        <time>2025-02-03T10:08:44.202Z</time>
      </trkpt>
      <trkpt lat="59.08915797248483" lon="12.718611946329474">
        <ele>56.41</ele>
        <time>2025-02-03T10:08:55.264Z</time>
      </trkpt>
      <trkpt lat="59.08912394195795" lon="12.718439949676394">
        <ele>56.29</ele>
        <time>2025-02-03T10:09:06.328Z</time>
      </trkpt>
      <trkpt lat="59.089089995250106" lon="12.718267953023314">
        <ele>56.16</ele>
        <time>2025-02-03T10:09:17.393Z</time>
      </trkpt>
      <trkpt lat="59.08905495889485" lon="12.718096962198615">
        <ele>56.04</ele>
        <time>2025-02-03T10:09:28.460Z</time>
      </trkpt>
      <trkpt lat="59.08901992253959" lon="12.717924965545535">
        <ele>55.92</ele>
        <time>2025-02-03T10:09:39.528Z</time>
      </trkpt>
      <trkpt lat="59.08898698166013" lon="12.717750957235694">
        <ele>55.81</ele>
        <time>2025-02-03T10:09:50.598Z</time>
      </trkpt>
      <trkpt lat="59.08895395696163" lon="12.717574937269092">
        <ele>55.69</ele>
        <time>2025-02-03T10:10:01.669Z</time>
      </trkpt>
      <trkpt lat="59.08892394974828" lon="12.71739799529314">
        <ele>55.57</ele>
        <time>2025-02-03T10:10:12.742Z</time>
      </trkpt>
      <trkpt lat="59.08889293670654" lon="12.717218957841396">
        <ele>55.46</ele>
        <time>2025-02-03T10:10:23.816Z</time>
      </trkpt>
      <trkpt lat="59.08886292949319" lon="12.717040926218033">
        <ele>55.35</ele>
        <time>2025-02-03T10:10:34.892Z</time>
      </trkpt>
      <trkpt lat="59.088832922279835" lon="12.71686197258532">
        <ele>55.23</ele>
        <time>2025-02-03T10:10:45.969Z</time>
      </trkpt>
      <trkpt lat="59.08880199305713" lon="12.716682935133576">
        <ele>55.11</ele>
        <time>2025-02-03T10:10:57.048Z</time>
      </trkpt>
      <trkpt lat="59.0887709800154" lon="12.716502975672483">
        <ele>55.0</ele>
        <time>2025-02-03T10:11:08.129Z</time>
      </trkpt>
      <trkpt lat="59.08874197863042" lon="12.716320920735598">
        <ele>54.89</ele>
        <time>2025-02-03T10:11:19.211Z</time>
      </trkpt>
      <trkpt lat="59.08871297724545" lon="12.716137943789363">
        <ele>54.78</ele>
        <time>2025-02-03T10:11:30.295Z</time>
      </trkpt>
      <trkpt lat="59.088682970032096" lon="12.715953961014748">
        <ele>54.67</ele>
        <time>2025-02-03T10:11:41.380Z</time>
      </trkpt>
      <trkpt lat="59.08865195699036" lon="12.715768972411752">
        <ele>54.56</ele>
        <time>2025-02-03T10:11:52.467Z</time>
      </trkpt>
      <trkpt lat="59.088619938120246" lon="12.715581972151995">
        <ele>54.46</ele>
        <time>2025-02-03T10:12:03.556Z</time>
      </trkpt>
      <trkpt lat="59.08858892507851" lon="12.715392960235476">
        <ele>54.35</ele>
        <time>2025-02-03T10:12:14.646Z</time>
      </trkpt>
      <trkpt lat="59.08855598419905" lon="12.715201936662197">
        <ele>54.25</ele>
        <time>2025-02-03T10:12:25.738Z</time>
      </trkpt>
      <trkpt lat="59.08852295950055" lon="12.71501099690795">
        <ele>54.15</ele>
        <time>2025-02-03T10:12:36.832Z</time>
      </trkpt>
      <trkpt lat="59.088489934802055" lon="12.714817961677909">
        <ele>54.05</ele>
        <time>2025-02-03T10:12:47.927Z</time>
      </trkpt>
      <trkpt lat="59.08845598809421" lon="12.714623920619488">
        <ele>53.96</ele>
        <time>2025-02-03T10:12:59.024Z</time>
      </trkpt>
      <trkpt lat="59.088421957567334" lon="12.714429963380098">
        <ele>53.86</ele>
        <time>2025-02-03T10:13:10.123Z</time>
      </trkpt>
      <trkpt lat="59.08838893286884" lon="12.714233994483948">
        <ele>53.77</ele>
        <time>2025-02-03T10:13:21.223Z</time>
      </trkpt>
      <trkpt lat="59.088355991989374" lon="12.714036935940385">
        <ele>53.68</ele>
        <time>2025-02-03T10:13:32.325Z</time>
      </trkpt>
      <trkpt lat="59.0883219614625" lon="12.713839961215854">
        <ele>53.59</ele>
        <time>2025-02-03T10:13:43.429Z</time>
      </trkpt>
      <trkpt lat="59.08828591927886" lon="12.713643992319703">
        <ele>53.5</ele>
        <time>2025-02-03T10:13:54.534Z</time>
      </trkpt>
      <trkpt lat="59.08824593760073" lon="12.713450957089663">
        <ele>53.42</ele>
        <time>2025-02-03T10:14:05.641Z</time>
      </trkpt>
      <trkpt lat="59.08819698728621" lon="12.713263956829906">
        <ele>53.33</ele>
        <time>2025-02-03T10:14:16.750Z</time>
      </trkpt>
      <trkpt lat="59.08814191818237" lon="12.713085925206542">
        <ele>53.25</ele>
        <time>2025-02-03T10:14:27.861Z</time>
      </trkpt>
      <trkpt lat="59.088079975917935" lon="12.712923986837268">
        <ele>53.18</ele>
        <time>2025-02-03T10:14:38.973Z</time>
      </trkpt>
      <trkpt lat="59.08801292069256" lon="12.712781997397542">
        <ele>53.1</ele>
        <time>2025-02-03T10:14:50.087Z</time>
      </trkpt>
      <trkpt lat="59.087949972599745" lon="12.712642941623926">
        <ele>53.03</ele>
        <time>2025-02-03T10:15:01.202Z</time>
      </trkpt>
      <trkpt lat="59.08789993263781" lon="12.712494917213917">
        <ele>52.96</ele>
        <time>2025-02-03T10:15:12.319Z</time>
      </trkpt>
      <trkpt lat="59.087864980101585" lon="12.712334990501404">
        <ele>52.89</ele>
        <time>2025-02-03T10:15:23.437Z</time>
      </trkpt>
      <trkpt lat="59.087842935696244" lon="12.712164921686053">
        <ele>52.82</ele>
        <time>2025-02-03T10:15:34.557Z</time>
      </trkpt>
      <trkpt lat="59.08782499842346" lon="12.711991919204593">
        <ele>52.74</ele>
        <time>2025-02-03T10:15:45.678Z</time>
      </trkpt>
      <trkpt lat="59.08780697733164" lon="12.711826963350177">
        <ele>52.67</ele>
        <time>2025-02-03T10:15:56.801Z</time>
      </trkpt>
      <trkpt lat="59.0877849329263" lon="12.71168195642531">
        <ele>52.6</ele>
        <time>2025-02-03T10:16:07.925Z</time>
      </trkpt>
      <trkpt lat="59.08776598982513" lon="12.7115529589355">
        <ele>52.53</ele>
        <time>2025-02-03T10:16:19.050Z</time>
      </trkpt>
      <trkpt lat="59.08774495124817" lon="12.71144399419427">
        <ele>52.47</ele>
        <time>2025-02-03T10:16:30.176Z</time>
      </trkpt>
      <trkpt lat="59.08772793598473" lon="12.711363947018981">
        <ele>52.42</ele>
        <time>2025-02-03T10:16:41.303Z</time>
      </trkpt>
      <trkpt lat="59.08771796151996" lon="12.711313990876079">
        <ele>52.37</ele>
        <time>2025-02-03T10:16:52.430Z</time>
      </trkpt>
      <trkpt lat="59.087712932378054" lon="12.711284989491105">
        <ele>52.32</ele>
        <time>2025-02-03T10:17:03.557Z</time>
      </trkpt>
      <trkpt lat="59.08770798705518" lon="12.711267974227667">
        <ele>52.27</ele>
        <time>2025-02-03T10:17:14.684Z</time>
      </trkpt>
      <trkpt lat="59.087713938206434" lon="12.711261939257383">
        <ele>52.23</ele>
        <time>2025-02-03T10:17:25.812Z</time>
      </trkpt>
      <trkpt lat="59.08771796151996" lon="12.711268980056047">
        <ele>52.18</ele>
        <time>2025-02-03T10:17:36.940Z</time>
      </trkpt>
      <trkpt lat="59.08774394541979" lon="12.711349949240685">
        <ele>52.15</ele>
        <time>2025-02-03T10:17:48.068Z</time>
      </trkpt>
      <trkpt lat="59.08774394541979" lon="12.711385991424322">
        <ele>52.11</ele>
        <time>2025-02-03T10:17:59.197Z</time>
      </trkpt>
      <trkpt lat="59.08774394541979" lon="12.711422955617309">
        <ele>52.07</ele>
        <time>2025-02-03T10:18:10.326Z</time>
      </trkpt>
      <trkpt lat="59.08774595707655" lon="12.711460925638676">
        <ele>52.04</ele>
        <time>2025-02-03T10:18:21.455Z</time>
      </trkpt>
      <trkpt lat="59.08774696290493" lon="12.711501996964216">
        <ele>52.01</ele>
        <time>2025-02-03T10:18:32.585Z</time>
      </trkpt>
      <trkpt lat="59.08774897456169" lon="12.711542984470725">
        <ele>51.99</ele>
        <time>2025-02-03T10:18:43.715Z</time>
      </trkpt>
      <trkpt lat="59.08775098621845" lon="12.711583971977234">
        <ele>51.97</ele>
        <time>2025-02-03T10:18:54.845Z</time>
      </trkpt>
      <trkpt lat="59.087756937369704" lon="12.711626971140504">
        <ele>51.95</ele>
        <time>2025-02-03T10:19:05.976Z</time>
      </trkpt>
      <trkpt lat="59.08776498399675" lon="12.711668964475393">
        <ele>51.93</ele>
        <time>2025-02-03T10:19:17.107Z</time>
      </trkpt>
      <trkpt lat="59.08777395263314" lon="12.711717998608947">
        <ele>51.92</ele>
        <time>2025-02-03T10:19:28.239Z</time>
      </trkpt>
      <trkpt lat="59.08778392709792" lon="12.711779940873384">
        <ele>51.9</ele>
        <time>2025-02-03T10:19:39.371Z</time>
      </trkpt>
      <trkpt lat="59.08779297955334" lon="12.711850935593247">
        <ele>51.89</ele>
        <time>2025-02-03T10:19:50.504Z</time>
      </trkpt>
      <trkpt lat="59.08781594596803" lon="12.711923941969872">
        <ele>51.89</ele>
        <time>2025-02-03T10:20:01.637Z</time>
      </trkpt>
      <trkpt lat="59.08785299398005" lon="12.711978927254677">
        <ele>51.88</ele>
        <time>2025-02-03T10:20:12.771Z</time>
      </trkpt>
      <trkpt lat="59.08789792098105" lon="12.711988985538483">
        <ele>51.87</ele>
        <time>2025-02-03T10:20:23.906Z</time>
      </trkpt>
      <trkpt lat="59.08793899230659" lon="12.711951937526464">
        <ele>51.86</ele>
        <time>2025-02-03T10:20:35.042Z</time>
      </trkpt>
      <trkpt lat="59.0879799798131" lon="12.71189695224166">
        <ele>51.86</ele>
        <time>2025-02-03T10:20:46.178Z</time>
      </trkpt>
      <trkpt lat="59.08802398480475" lon="12.711844984441996">
        <ele>51.86</ele>
        <time>2025-02-03T10:20:57.315Z</time>
      </trkpt>
      <trkpt lat="59.0880679897964" lon="12.711780946701765">
        <ele>51.86</ele>
        <time>2025-02-03T10:21:08.453Z</time>
      </trkpt>
      <trkpt lat="59.08811098895967" lon="12.711714981123805">
        <ele>51.86</ele>
        <time>2025-02-03T10:21:19.592Z</time>
      </trkpt>
      <trkpt lat="59.08815499395132" lon="12.711651949211955">
        <ele>51.86</ele>
        <time>2025-02-03T10:21:30.732Z</time>
      </trkpt>
      <trkpt lat="59.08819698728621" lon="12.711598975583911">
        <ele>51.88</ele>
        <time>2025-02-03T10:21:41.873Z</time>
      </trkpt>
      <trkpt lat="59.08824099227786" lon="12.711556982249022">
        <ele>51.89</ele>
        <time>2025-02-03T10:21:53.014Z</time>
      </trkpt>
      <trkpt lat="59.08828298561275" lon="12.711518928408623">
        <ele>51.9</ele>
        <time>2025-02-03T10:22:04.156Z</time>
      </trkpt>
      <trkpt lat="59.08832397311926" lon="12.711485987529159">
        <ele>51.91</ele>
        <time>2025-02-03T10:22:15.299Z</time>
      </trkpt>
      <trkpt lat="59.08836294896901" lon="12.711459919810295">
        <ele>51.93</ele>
        <time>2025-02-03T10:22:26.443Z</time>
      </trkpt>
      <trkpt lat="59.088400918990374" lon="12.711436953395605">
        <ele>51.95</ele>
        <time>2025-02-03T10:22:37.587Z</time>
      </trkpt>
      <trkpt lat="59.08843595534563" lon="12.711413986980915">
        <ele>51.97</ele>
        <time>2025-02-03T10:22:48.732Z</time>
      </trkpt>
      <trkpt lat="59.08847199752927" lon="12.711396971717477">
        <ele>51.99</ele>
        <time>2025-02-03T10:22:59.877Z</time>
      </trkpt>
      <trkpt lat="59.088510973379016" lon="12.71138297393918">
        <ele>52.02</ele>
        <time>2025-02-03T10:23:11.023Z</time>
      </trkpt>
      <trkpt lat="59.088549949228764" lon="12.711366964504123">
        <ele>52.04</ele>
        <time>2025-02-03T10:23:22.170Z</time>
      </trkpt>
      <trkpt lat="59.08858993090689" lon="12.711359923705459">
        <ele>52.07</ele>
        <time>2025-02-03T10:23:33.317Z</time>
      </trkpt>
      <trkpt lat="59.0886309184134" lon="12.711358917877078">
        <ele>52.09</ele>
        <time>2025-02-03T10:23:44.465Z</time>
      </trkpt>
      <trkpt lat="59.0886689722538" lon="12.71136193536222">
        <ele>52.12</ele>
        <time>2025-02-03T10:23:55.614Z</time>
      </trkpt>
      <trkpt lat="59.088705936446786" lon="12.711369981989264">
        <ele>52.15</ele>
        <time>2025-02-03T10:24:06.763Z</time>
      </trkpt>
      <trkpt lat="59.088746923953295" lon="12.711379956454039">
        <ele>52.18</ele>
        <time>2025-02-03T10:24:17.913Z</time>
      </trkpt>
      <trkpt lat="59.088786989450455" lon="12.7113819681108">
        <ele>52.21</ele>
        <time>2025-02-03T10:24:29.063Z</time>
      </trkpt>
      <trkpt lat="59.08882294781506" lon="12.711369981989264">
        <ele>52.25</ele>
        <time>2025-02-03T10:24:40.214Z</time>
      </trkpt>
      <trkpt lat="59.08884792588651" lon="12.711342992261052">
        <ele>52.28</ele>
        <time>2025-02-03T10:24:51.366Z</time>
      </trkpt>
      <trkpt lat="59.08886192366481" lon="12.711306950077415">
        <ele>52.32</ele>
        <time>2025-02-03T10:25:02.518Z</time>
      </trkpt>
      <trkpt lat="59.08887097612023" lon="12.711266968399286">
        <ele>52.36</ele>
        <time>2025-02-03T10:25:13.670Z</time>
      </trkpt>
      <trkpt lat="59.088872987776995" lon="12.711223969236016">
        <ele>52.41</ele>
        <time>2025-02-03T10:25:24.823Z</time>
      </trkpt>
      <trkpt lat="59.08886896446347" lon="12.711174935102463">
        <ele>52.45</ele>
        <time>2025-02-03T10:25:35.976Z</time>
      </trkpt>
      <trkpt lat="59.08885597251356" lon="12.711125984787941">
        <ele>52.5</ele>
        <time>2025-02-03T10:25:47.129Z</time>
      </trkpt>
      <trkpt lat="59.088832922279835" lon="12.711073933169246">
        <ele>52.54</ele>
        <time>2025-02-03T10:25:58.283Z</time>
      </trkpt>
      <trkpt lat="59.08879998140037" lon="12.711026994511485">
        <ele>52.59</ele>
        <time>2025-02-03T10:26:09.438Z</time>
      </trkpt>
      <trkpt lat="59.0887569822371" lon="12.710992963984609">
        <ele>52.63</ele>
        <time>2025-02-03T10:26:20.593Z</time>
      </trkpt>
      <trkpt lat="59.08871096558869" lon="12.710958933457732">
        <ele>52.68</ele>
        <time>2025-02-03T10:26:31.749Z</time>
      </trkpt>
      <trkpt lat="59.088659919798374" lon="12.710920963436365">
        <ele>52.73</ele>
        <time>2025-02-03T10:26:42.906Z</time>
      </trkpt>
      <trkpt lat="59.08860694617033" lon="12.710883999243379">
        <ele>52.77</ele>
        <time>2025-02-03T10:26:54.064Z</time>
      </trkpt>
      <trkpt lat="59.088549949228764" lon="12.710855919867754">
        <ele>52.82</ele>
        <time>2025-02-03T10:27:05.223Z</time>
      </trkpt>
      <trkpt lat="59.088490940630436" lon="12.710838988423347">
        <ele>52.87</ele>
        <time>2025-02-03T10:27:16.383Z</time>
      </trkpt>
      <trkpt lat="59.08842992037535" lon="12.71082197315991">
        <ele>52.91</ele>
        <time>2025-02-03T10:27:27.544Z</time>
      </trkpt>
      <trkpt lat="59.08836898393929" lon="12.710789954289794">
        <ele>52.96</ele>
        <time>2025-02-03T10:27:38.706Z</time>
      </trkpt>
      <trkpt lat="59.088314920663834" lon="12.710726922377944">
        <ele>53.01</ele>
        <time>2025-02-03T10:27:49.869Z</time>
      </trkpt>
      <trkpt lat="59.088271921500564" lon="12.710634972900152">
        <ele>53.06</ele>
        <time>2025-02-03T10:28:01.033Z</time>
      </trkpt>
      <trkpt lat="59.088229928165674" lon="12.710536988452077">
        <ele>53.11</ele>
        <time>2025-02-03T10:28:12.198Z</time>
      </trkpt>
      <trkpt lat="59.08817796036601" lon="12.710470939055085">
        <ele>53.16</ele>
        <time>2025-02-03T10:28:23.364Z</time>
      </trkpt>
      <trkpt lat="59.0881129167974" lon="12.710441937670112">
        <ele>53.21</ele>
        <time>2025-02-03T10:28:34.531Z</time>
      </trkpt>
      <trkpt lat="59.08804695121944" lon="12.710413942113519">
        <ele>53.26</ele>
        <time>2025-02-03T10:28:45.699Z</time>
      </trkpt>
      <trkpt lat="59.08798492513597" lon="12.710361974313855">
        <ele>53.3</ele>
        <time>2025-02-03T10:28:56.868Z</time>
      </trkpt>
      <trkpt lat="59.08793295733631" lon="12.710278993472457">
        <ele>53.35</ele>
        <time>2025-02-03T10:29:08.038Z</time>
      </trkpt>
      <trkpt lat="59.08789297565818" lon="12.710169944912195">
        <ele>53.41</ele>
        <time>2025-02-03T10:29:19.209Z</time>
      </trkpt>
      <trkpt lat="59.087864980101585" lon="12.71004999987781">
        <ele>53.47</ele>
        <time>2025-02-03T10:29:30.382Z</time>
      </trkpt>
      <trkpt lat="59.087842935696244" lon="12.709929971024394">
        <ele>53.52</ele>
        <time>2025-02-03T10:29:41.556Z</time>
      </trkpt>
      <trkpt lat="59.087820975109935" lon="12.709817988798022">
        <ele>53.58</ele>
        <time>2025-02-03T10:29:52.731Z</time>
      </trkpt>
      <trkpt lat="59.087800942361355" lon="12.709716986864805">
        <ele>53.64</ele>
        <time>2025-02-03T10:30:03.906Z</time>
      </trkpt>
      <trkpt lat="59.08778694458306" lon="12.709627971053123">
        <ele>53.7</ele>
        <time>2025-02-03T10:30:15.082Z</time>
      </trkpt>
      <trkpt lat="59.087779987603426" lon="12.709539961069822">
        <ele>53.77</ele>
        <time>2025-02-03T10:30:26.259Z</time>
      </trkpt>
      <trkpt lat="59.087782921269536" lon="12.70945094525814">
        <ele>53.83</ele>
        <time>2025-02-03T10:30:37.437Z</time>
      </trkpt>
      <trkpt lat="59.08779398538172" lon="12.709357989951968">
        <ele>53.9</ele>
        <time>2025-02-03T10:30:48.615Z</time>
      </trkpt>
      <trkpt lat="59.087801948189735" lon="12.709260927513242">
        <ele>53.97</ele>
        <time>2025-02-03T10:30:59.794Z</time>
      </trkpt>
      <trkpt lat="59.08779691904783" lon="12.709157997742295">
        <ele>54.03</ele>
        <time>2025-02-03T10:31:10.974Z</time>
      </trkpt>
      <trkpt lat="59.08777294680476" lon="12.709048949182034">
        <ele>54.1</ele>
        <time>2025-02-03T10:31:22.155Z</time>
      </trkpt>
      <trkpt lat="59.08773799426854" lon="12.70893394947052">
        <ele>54.16</ele>
        <time>2025-02-03T10:31:33.337Z</time>
      </trkpt>
      <trkpt lat="59.08770094625652" lon="12.708809981122613">
        <ele>54.23</ele>
        <time>2025-02-03T10:31:44.520Z</time>
      </trkpt>
      <trkpt lat="59.087666999548674" lon="12.70867696031928">
        <ele>54.3</ele>
        <time>2025-02-03T10:31:55.705Z</time>
      </trkpt>
      <trkpt lat="59.08763397485018" lon="12.708537988364697">
        <ele>54.36</ele>
        <time>2025-02-03T10:32:06.891Z</time>
      </trkpt>
      <trkpt lat="59.08759893849492" lon="12.70839499309659">
        <ele>54.42</ele>
        <time>2025-02-03T10:32:18.078Z</time>
      </trkpt>
      <trkpt lat="59.087562980130315" lon="12.708248980343342">
        <ele>54.49</ele>
        <time>2025-02-03T10:32:29.267Z</time>
      </trkpt>
      <trkpt lat="59.087524926289916" lon="12.708101961761713">
        <ele>54.55</ele>
        <time>2025-02-03T10:32:40.457Z</time>
      </trkpt>
      <trkpt lat="59.08748494461179" lon="12.707956954836845">
        <ele>54.62</ele>
        <time>2025-02-03T10:32:51.648Z</time>
      </trkpt>
      <trkpt lat="59.08744395710528" lon="12.707811947911978">
        <ele>54.69</ele>
        <time>2025-02-03T10:33:02.841Z</time>
      </trkpt>
      <trkpt lat="59.08739995211363" lon="12.707668952643871">
        <ele>54.76</ele>
        <time>2025-02-03T10:33:14.035Z</time>
      </trkpt>
      <trkpt lat="59.0873549412936" lon="12.707528974860907">
        <ele>54.83</ele>
        <time>2025-02-03T10:33:25.230Z</time>
      </trkpt>
      <trkpt lat="59.087307918816805" lon="12.707390924915671">
        <ele>54.9</ele>
        <time>2025-02-03T10:33:36.427Z</time>
      </trkpt>
      <trkpt lat="59.087259974330664" lon="12.70725597627461">
        <ele>54.97</ele>
        <time>2025-02-03T10:33:47.625Z</time>
      </trkpt>
      <trkpt lat="59.08721295185387" lon="12.707124967128038">
        <ele>55.05</ele>
        <time>2025-02-03T10:33:58.824Z</time>
      </trkpt>
      <trkpt lat="59.08716894686222" lon="12.70699798129499">
        <ele>55.12</ele>
        <time>2025-02-03T10:34:10.025Z</time>
      </trkpt>
      <trkpt lat="59.08712594769895" lon="12.706875940784812">
        <ele>55.2</ele>
        <time>2025-02-03T10:34:21.227Z</time>
      </trkpt>
      <trkpt lat="59.08708496019244" lon="12.706757923588157">
        <ele>55.28</ele>
        <time>2025-02-03T10:34:32.430Z</time>
      </trkpt>
      <trkpt lat="59.08704296685755" lon="12.706643929705024">
        <ele>55.35</ele>
        <time>2025-02-03T10:34:43.634Z</time>
      </trkpt>
      <trkpt lat="59.08700097352266" lon="12.706531947478652">
        <ele>55.42</ele>
        <time>2025-02-03T10:34:54.839Z</time>
      </trkpt>
      <trkpt lat="59.086958980187774" lon="12.706421976909041">
        <ele>55.49</ele>
        <time>2025-02-03T10:35:06.045Z</time>
      </trkpt>
      <trkpt lat="59.086917992681265" lon="12.70631292834878">
        <ele>55.57</ele>
        <time>2025-02-03T10:35:17.253Z</time>
      </trkpt>
      <trkpt lat="59.086875999346375" lon="12.70620496943593">
        <ele>55.64</ele>
        <time>2025-02-03T10:35:28.462Z</time>
      </trkpt>
      <trkpt lat="59.086833922192454" lon="12.70609893836081">
        <ele>55.71</ele>
        <time>2025-02-03T10:35:39.672Z</time>
      </trkpt>
      <trkpt lat="59.086791928857565" lon="12.705992991104722">
        <ele>55.78</ele>
        <time>2025-02-03T10:35:50.883Z</time>
      </trkpt>
      <trkpt lat="59.086749935522676" lon="12.705886960029602">
        <ele>55.85</ele>
        <time>2025-02-03T10:36:02.095Z</time>
      </trkpt>
      <trkpt lat="59.086706936359406" lon="12.705781934782863">
        <ele>55.92</ele>
        <time>2025-02-03T10:36:13.308Z</time>
      </trkpt>
      <trkpt lat="59.086664943024516" lon="12.705677999183536">
        <ele>55.99</ele>
        <time>2025-02-03T10:36:24.522Z</time>
      </trkpt>
      <trkpt lat="59.086621943861246" lon="12.705575991421938">
        <ele>56.06</ele>
        <time>2025-02-03T10:36:35.737Z</time>
      </trkpt>
      <trkpt lat="59.08657995052636" lon="12.705474989488721">
        <ele>56.13</ele>
        <time>2025-02-03T10:36:46.953Z</time>
      </trkpt>
      <trkpt lat="59.08653795719147" lon="12.705375999212265">
        <ele>56.2</ele>
        <time>2025-02-03T10:36:58.170Z</time>
      </trkpt>
      <trkpt lat="59.0864949580282" lon="12.705278936773539">
        <ele>56.26</ele>
        <time>2025-02-03T10:37:09.389Z</time>
      </trkpt>
      <trkpt lat="59.08645095303655" lon="12.705184975638986">
        <ele>56.33</ele>
        <time>2025-02-03T10:37:20.609Z</time>
      </trkpt>
      <trkpt lat="59.086406948044896" lon="12.705091936513782">
        <ele>56.39</ele>
        <time>2025-02-03T10:37:31.830Z</time>
      </trkpt>
      <trkpt lat="59.086359925568104" lon="12.70499898120761">
        <ele>56.46</ele>
        <time>2025-02-03T10:37:43.052Z</time>
      </trkpt>
      <trkpt lat="59.086314998567104" lon="12.704905942082405">
        <ele>56.52</ele>
        <time>2025-02-03T10:37:54.275Z</time>
      </trkpt>
      <trkpt lat="59.086270993575454" lon="12.704811980947852">
        <ele>56.58</ele>
        <time>2025-02-03T10:38:05.499Z</time>
      </trkpt>
      <trkpt lat="59.08622598275542" lon="12.704719947651029">
        <ele>56.63</ele>
        <time>2025-02-03T10:38:16.724Z</time>
      </trkpt>
      <trkpt lat="59.08618097193539" lon="12.704629926010966">
        <ele>56.68</ele>
        <time>2025-02-03T10:38:27.950Z</time>
      </trkpt>
      <trkpt lat="59.08613696694374" lon="12.704538982361555">
        <ele>56.73</ele>
        <time>2025-02-03T10:38:39.177Z</time>
      </trkpt>
      <trkpt lat="59.08609296195209" lon="12.704447954893112">
        <ele>56.78</ele>
        <time>2025-02-03T10:38:50.405Z</time>
      </trkpt>
      <trkpt lat="59.08604895696044" lon="12.70435399375856">
        <ele>56.82</ele>
        <time>2025-02-03T10:39:01.634Z</time>
      </trkpt>
      <trkpt lat="59.08600495196879" lon="12.704259948804975">
        <ele>56.86</ele>
        <time>2025-02-03T10:39:12.864Z</time>
      </trkpt>
      <trkpt lat="59.08595893532038" lon="12.704165987670422">
        <ele>56.91</ele>
        <time>2025-02-03T10:39:24.095Z</time>
      </trkpt>
      <trkpt lat="59.085913924500346" lon="12.704069931060076">
        <ele>56.95</ele>
        <time>2025-02-03T10:39:35.327Z</time>
      </trkpt>
      <trkpt lat="59.085869919508696" lon="12.70397094078362">
        <ele>57.0</ele>
        <time>2025-02-03T10:39:46.560Z</time>
      </trkpt>
      <trkpt lat="59.085826920345426" lon="12.703868933022022">
        <ele>57.04</ele>
        <time>2025-02-03T10:39:57.794Z</time>
      </trkpt>
      <trkpt lat="59.085783921182156" lon="12.703765919432044">
        <ele>57.07</ele>
        <time>2025-02-03T10:40:09.029Z</time>
      </trkpt>
      <trkpt lat="59.085741927847266" lon="12.703664917498827">
        <ele>57.11</ele>
        <time>2025-02-03T10:40:20.266Z</time>
      </trkpt>
      <trkpt lat="59.08569993451238" lon="12.70356492139399">
        <ele>57.15</ele>
        <time>2025-02-03T10:40:31.504Z</time>
      </trkpt>
      <trkpt lat="59.08566095866263" lon="12.703463919460773">
        <ele>57.18</ele>
        <time>2025-02-03T10:40:42.743Z</time>
      </trkpt>
      <trkpt lat="59.08562198281288" lon="12.703363923355937">
        <ele>57.21</ele>
        <time>2025-02-03T10:40:53.983Z</time>
      </trkpt>
      <trkpt lat="59.08558191731572" lon="12.7032639272511">
        <ele>57.23</ele>
        <time>2025-02-03T10:41:05.224Z</time>
      </trkpt>
      <trkpt lat="59.085543947294354" lon="12.703159991651773">
        <ele>57.25</ele>
        <time>2025-02-03T10:41:16.466Z</time>
      </trkpt>
      <trkpt lat="59.08550497144461" lon="12.703053960576653">
        <ele>57.27</ele>
        <time>2025-02-03T10:41:27.709Z</time>
      </trkpt>
      <trkpt lat="59.08546498976648" lon="12.702947929501534">
        <ele>57.29</ele>
        <time>2025-02-03T10:41:38.953Z</time>
      </trkpt>
      <trkpt lat="59.08542199060321" lon="12.702843993902206">
        <ele>57.31</ele>
        <time>2025-02-03T10:41:50.198Z</time>
      </trkpt>
      <trkpt lat="59.08537798561156" lon="12.702740980312228">
        <ele>57.32</ele>
        <time>2025-02-03T10:42:01.444Z</time>
      </trkpt>
      <trkpt lat="59.085331968963146" lon="12.702639978379011">
        <ele>57.34</ele>
        <time>2025-02-03T10:42:12.691Z</time>
      </trkpt>
      <trkpt lat="59.085286958143115" lon="12.702541993930936">
        <ele>57.35</ele>
        <time>2025-02-03T10:42:23.939Z</time>
      </trkpt>
      <trkpt lat="59.085242953151464" lon="12.70244493149221">
        <ele>57.36</ele>
        <time>2025-02-03T10:42:35.188Z</time>
      </trkpt>
      <trkpt lat="59.085198948159814" lon="12.702348958700895">
        <ele>57.37</ele>
        <time>2025-02-03T10:42:46.438Z</time>
      </trkpt>
      <trkpt lat="59.08515393733978" lon="12.702257931232452">
        <ele>57.37</ele>
        <time>2025-02-03T10:42:57.689Z</time>
      </trkpt>
      <trkpt lat="59.08510792069137" lon="12.702168999239802">
        <ele>57.37</ele>
        <time>2025-02-03T10:43:08.942Z</time>
      </trkpt>
      <trkpt lat="59.08506399951875" lon="12.70208291709423">
        <ele>57.37</ele>
        <time>2025-02-03T10:43:20.196Z</time>
      </trkpt>
      <trkpt lat="59.08502091653645" lon="12.701994990929961">
        <ele>57.36</ele>
        <time>2025-02-03T10:43:31.451Z</time>
      </trkpt>
      <trkpt lat="59.08497892320156" lon="12.701909998431802">
        <ele>57.35</ele>
        <time>2025-02-03T10:43:42.707Z</time>
      </trkpt>
      <trkpt lat="59.08493692986667" lon="12.701828945428133">
        <ele>57.34</ele>
        <time>2025-02-03T10:43:53.963Z</time>
      </trkpt>
      <trkpt lat="59.08489694818854" lon="12.701748982071877">
        <ele>57.32</ele>
        <time>2025-02-03T10:44:05.220Z</time>
      </trkpt>
      <trkpt lat="59.084857972338796" lon="12.701666923239827">
        <ele>57.3</ele>
        <time>2025-02-03T10:44:16.478Z</time>
      </trkpt>
      <trkpt lat="59.08481899648905" lon="12.70158695988357">
        <ele>57.28</ele>
        <time>2025-02-03T10:44:27.737Z</time>
      </trkpt>
      <trkpt lat="59.08477792516351" lon="12.701510936021805">
        <ele>57.26</ele>
        <time>2025-02-03T10:44:38.997Z</time>
      </trkpt>
      <trkpt lat="59.084736937657" lon="12.701438935473561">
        <ele>57.23</ele>
        <time>2025-02-03T10:44:50.258Z</time>
      </trkpt>
      <trkpt lat="59.08469494432211" lon="12.70137196406722">
        <ele>57.2</ele>
        <time>2025-02-03T10:45:01.520Z</time>
      </trkpt>
      <trkpt lat="59.08465194515884" lon="12.70130599848926">
        <ele>57.16</ele>
        <time>2025-02-03T10:45:12.783Z</time>
      </trkpt>
      <trkpt lat="59.08460794016719" lon="12.70124095492065">
        <ele>57.12</ele>
        <time>2025-02-03T10:45:24.047Z</time>
      </trkpt>
      <trkpt lat="59.08456292934716" lon="12.7011779230088">
        <ele>57.09</ele>
        <time>2025-02-03T10:45:35.312Z</time>
      </trkpt>
      <trkpt lat="59.08451699651778" lon="12.7011139690876">
        <ele>57.04</ele>
        <time>2025-02-03T10:45:46.577Z</time>
      </trkpt>
      <trkpt lat="59.084469974040985" lon="12.701051943004131">
        <ele>57.0</ele>
        <time>2025-02-03T10:45:57.843Z</time>
      </trkpt>
      <trkpt lat="59.08442093990743" lon="12.700991928577423">
        <ele>56.95</ele>
        <time>2025-02-03T10:46:09.110Z</time>
      </trkpt>
      <trkpt lat="59.08437198959291" lon="12.700937949120998">
        <ele>56.89</ele>
        <time>2025-02-03T10:46:20.378Z</time>
      </trkpt>
      <trkpt lat="59.08432396128774" lon="12.700883969664574">
        <ele>56.84</ele>
        <time>2025-02-03T10:46:31.647Z</time>
      </trkpt>
      <trkpt lat="59.084275932982564" lon="12.700828984379768">
        <ele>56.78</ele>
        <time>2025-02-03T10:46:42.917Z</time>
      </trkpt>
      <trkpt lat="59.0842239651829" lon="12.700775926932693">
        <ele>56.71</ele>
        <time>2025-02-03T10:46:54.188Z</time>
      </trkpt>
      <trkpt lat="59.084170991554856" lon="12.70072697661817">
        <ele>56.65</ele>
        <time>2025-02-03T10:47:05.460Z</time>
      </trkpt>
      <trkpt lat="59.08411399461329" lon="12.700678948312998">
        <ele>56.58</ele>
        <time>2025-02-03T10:47:16.733Z</time>
      </trkpt>
      <trkpt lat="59.08405892550945" lon="12.700633937492967">
        <ele>56.5</ele>
        <time>2025-02-03T10:47:28.007Z</time>
      </trkpt>
      <trkpt lat="59.083999916911125" lon="12.700591944158077">
        <ele>56.42</ele>
        <time>2025-02-03T10:47:39.282Z</time>
      </trkpt>
      <trkpt lat="59.083934957161546" lon="12.700551962479949">
        <ele>56.34</ele>
        <time>2025-02-03T10:47:50.558Z</time>
      </trkpt>
      <trkpt lat="59.083866979926825" lon="12.70051198080182">
        <ele>56.25</ele>
        <time>2025-02-03T10:48:01.835Z</time>
      </trkpt>
      <trkpt lat="59.08379598520696" lon="12.700464958325028">
        <ele>56.16</ele>
        <time>2025-02-03T10:48:13.113Z</time>
      </trkpt>
      <trkpt lat="59.083719961345196" lon="12.700408967211843">
        <ele>56.06</ele>
        <time>2025-02-03T10:48:24.393Z</time>
      </trkpt>
      <trkpt lat="59.08363899216056" lon="12.700349958613515">
        <ele>55.96</ele>
        <time>2025-02-03T10:48:35.674Z</time>
      </trkpt>
      <trkpt lat="59.08355299383402" lon="12.70029597915709">
        <ele>55.86</ele>
        <time>2025-02-03T10:48:46.956Z</time>
      </trkpt>
      <trkpt lat="59.08346397802234" lon="12.700239988043904">
        <ele>55.75</ele>
        <time>2025-02-03T10:48:58.240Z</time>
      </trkpt>
      <trkpt lat="59.08336993306875" lon="12.700185924768448">
        <ele>55.64</ele>
        <time>2025-02-03T10:49:09.525Z</time>
      </trkpt>
      <trkpt lat="59.083270942792296" lon="12.700131945312023">
        <ele>55.52</ele>
        <time>2025-02-03T10:49:20.812Z</time>
      </trkpt>
      <trkpt lat="59.08316994085908" lon="12.700072936713696">
        <ele>55.4</ele>
        <time>2025-02-03T10:49:32.101Z</time>
      </trkpt>
      <trkpt lat="59.08306592144072" lon="12.700011916458607">
        <ele>55.29</ele>
        <time>2025-02-03T10:49:43.392Z</time>
      </trkpt>
      <trkpt lat="59.082962991669774" lon="12.69995491951704">
        <ele>55.17</ele>
        <time>2025-02-03T10:49:54.684Z</time>
      </trkpt>
      <trkpt lat="59.082859978079796" lon="12.699898928403854">
        <ele>55.06</ele>
        <time>2025-02-03T10:50:05.978Z</time>
      </trkpt>
      <trkpt lat="59.0827579703182" lon="12.699839919805527">
        <ele>54.95</ele>
        <time>2025-02-03T10:50:17.274Z</time>
      </trkpt>
      <trkpt lat="59.08265797421336" lon="12.69977898336947">
        <ele>54.83</ele>
        <time>2025-02-03T10:50:28.571Z</time>
      </trkpt>
      <trkpt lat="59.082559989765286" lon="12.699718968942761">
        <ele>54.72</ele>
        <time>2025-02-03T10:50:39.870Z</time>
      </trkpt>
      <trkpt lat="59.08246393315494" lon="12.699657948687673">
        <ele>54.61</ele>
        <time>2025-02-03T10:50:51.171Z</time>
      </trkpt>
      <trkpt lat="59.08237097784877" lon="12.699597934260964">
        <ele>54.49</ele>
        <time>2025-02-03T10:51:02.473Z</time>
      </trkpt>
      <trkpt lat="59.08228196203709" lon="12.69954395480454">
        <ele>54.38</ele>
        <time>2025-02-03T10:51:13.777Z</time>
      </trkpt>
      <trkpt lat="59.082191940397024" lon="12.699499949812889">
        <ele>54.26</ele>
        <time>2025-02-03T10:51:25.082Z</time>
      </trkpt>
      <trkpt lat="59.08209999091923" lon="12.699471954256296">
        <ele>54.15</ele>
        <time>2025-02-03T10:51:36.389Z</time>
      </trkpt>
      <trkpt lat="59.082001922652125" lon="12.699460973963141">
        <ele>54.02</ele>
        <time>2025-02-03T10:51:47.697Z</time>
      </trkpt>
      <trkpt lat="59.08190393820405" lon="12.699466925114393">
        <ele>53.89</ele>
        <time>2025-02-03T10:51:59.007Z</time>
      </trkpt>
      <trkpt lat="59.08180092461407" lon="12.699484946206212">
        <ele>53.76</ele>
        <time>2025-02-03T10:52:10.318Z</time>
      </trkpt>
      <trkpt lat="59.0816939715296" lon="12.699513947591186">
        <ele>53.63</ele>
        <time>2025-02-03T10:52:21.631Z</time>
      </trkpt>
      <trkpt lat="59.08158592879772" lon="12.699549989774823">
        <ele>53.49</ele>
        <time>2025-02-03T10:52:32.946Z</time>
      </trkpt>
      <trkpt lat="59.08147394657135" lon="12.69958695396781">
        <ele>53.36</ele>
        <time>2025-02-03T10:52:44.263Z</time>
      </trkpt>
      <trkpt lat="59.08136297017336" lon="12.699620984494686">
        <ele>53.24</ele>
        <time>2025-02-03T10:52:55.582Z</time>
      </trkpt>
      <trkpt lat="59.08125593326986" lon="12.69965291954577">
        <ele>53.12</ele>
        <time>2025-02-03T10:53:06.902Z</time>
      </trkpt>
      <trkpt lat="59.081158954650164" lon="12.699686950072646">
        <ele>52.99</ele>
        <time>2025-02-03T10:53:18.224Z</time>
      </trkpt>
      <trkpt lat="59.08107195049524" lon="12.699723998084664">
        <ele>52.87</ele>
        <time>2025-02-03T10:53:29.547Z</time>
      </trkpt>
      <trkpt lat="59.08099299296737" lon="12.699755933135748">
        <ele>52.75</ele>
        <time>2025-02-03T10:53:40.872Z</time>
      </trkpt>
      <trkpt lat="59.08092292025685" lon="12.699786946177483">
        <ele>52.62</ele>
        <time>2025-02-03T10:53:52.198Z</time>
      </trkpt>
      <trkpt lat="59.08086399547756" lon="12.69982692785561">
        <ele>52.5</ele>
        <time>2025-02-03T10:54:03.525Z</time>
      </trkpt>
      <trkpt lat="59.080817978829145" lon="12.699873950332403">
        <ele>52.38</ele>
        <time>2025-02-03T10:54:14.853Z</time>
      </trkpt>
      <trkpt lat="59.08078193664551" lon="12.699924996122718">
        <ele>52.26</ele>
        <time>2025-02-03T10:54:26.181Z</time>
      </trkpt>
      <trkpt lat="59.08075092360377" lon="12.69997495226562">
        <ele>52.14</ele>
        <time>2025-02-03T10:54:37.510Z</time>
      </trkpt>
      <trkpt lat="59.0807219222188" lon="12.700022980570793">
        <ele>52.03</ele>
        <time>2025-02-03T10:54:48.840Z</time>
      </trkpt>
      <trkpt lat="59.08069694414735" lon="12.700071930885315">
        <ele>51.92</ele>
        <time>2025-02-03T10:55:00.170Z</time>
      </trkpt>
      <trkpt lat="59.08068194054067" lon="12.700112918391824">
        <ele>51.81</ele>
        <time>2025-02-03T10:55:11.501Z</time>
      </trkpt>
      <trkpt lat="59.08067598938942" lon="12.700139991939068">
        <ele>51.7</ele>
        <time>2025-02-03T10:55:22.832Z</time>
      </trkpt>
      <trkpt lat="59.08067598938942" lon="12.700153989717364">
        <ele>51.59</ele>
        <time>2025-02-03T10:55:34.163Z</time>
      </trkpt>
      <trkpt lat="59.08067397773266" lon="12.700155917555094">
        <ele>51.49</ele>
        <time>2025-02-03T10:55:45.494Z</time>
      </trkpt>
      <trkpt lat="59.0806769952178" lon="12.700228923931718">
        <ele>51.39</ele>
        <time>2025-02-03T10:55:56.826Z</time>
      </trkpt>
      <trkpt lat="59.080692920833826" lon="12.700236970558763">
        <ele>51.29</ele>
        <time>2025-02-03T10:56:08.158Z</time>
      </trkpt>
      <trkpt lat="59.080709936097264" lon="12.700206963345408">
        <ele>51.19</ele>
        <time>2025-02-03T10:56:19.490Z</time>
      </trkpt>
      <trkpt lat="59.08072292804718" lon="12.700157929211855">
        <ele>51.09</ele>
        <time>2025-02-03T10:56:30.823Z</time>
      </trkpt>
      <trkpt lat="59.08073793165386" lon="12.700096992775798">
        <ele>51.0</ele>
        <time>2025-02-03T10:56:42.156Z</time>
      </trkpt>
      <trkpt lat="59.080753941088915" lon="12.700026920065284">
        <ele>50.91</ele>
        <time>2025-02-03T10:56:53.490Z</time>
      </trkpt>
      <trkpt lat="59.08077799715102" lon="12.699958942830563">
        <ele>50.82</ele>
        <time>2025-02-03T10:57:04.825Z</time>
      </trkpt>
      <trkpt lat="59.08080792054534" lon="12.699895994737744">
        <ele>50.74</ele>
        <time>2025-02-03T10:57:16.160Z</time>
      </trkpt>
      <trkpt lat="59.080839939415455" lon="12.699834974482656">
        <ele>50.66</ele>
        <time>2025-02-03T10:57:27.496Z</time>
      </trkpt>
      <trkpt lat="59.080860977992415" lon="12.699763979762793">
        <ele>50.58</ele>
        <time>2025-02-03T10:57:38.833Z</time>
      </trkpt>
      <trkpt lat="59.080857960507274" lon="12.699687955901027">
        <ele>50.51</ele>
        <time>2025-02-03T10:57:50.170Z</time>
      </trkpt>
      <trkpt lat="59.08083197660744" lon="12.699632970616221">
        <ele>50.43</ele>
        <time>2025-02-03T10:58:01.508Z</time>
      </trkpt>
      <trkpt lat="59.08078595995903" lon="12.699617967009544">
        <ele>50.35</ele>
        <time>2025-02-03T10:58:12.847Z</time>
      </trkpt>
      <trkpt lat="59.080730974674225" lon="12.699633976444602">
        <ele>50.28</ele>
        <time>2025-02-03T10:58:24.187Z</time>
      </trkpt>
      <trkpt lat="59.08067498356104" lon="12.699681920930743">
        <ele>50.21</ele>
        <time>2025-02-03T10:58:35.528Z</time>
      </trkpt>
      <trkpt lat="59.080623937770724" lon="12.699750987812877">
        <ele>50.14</ele>
        <time>2025-02-03T10:58:46.870Z</time>
      </trkpt>
      <trkpt lat="59.08057096414268" lon="12.69982592202723">
        <ele>50.08</ele>
        <time>2025-02-03T10:58:58.213Z</time>
      </trkpt>
      <trkpt lat="59.08051195554435" lon="12.699893983080983">
        <ele>50.02</ele>
        <time>2025-02-03T10:59:09.557Z</time>
      </trkpt>
      <trkpt lat="59.08044397830963" lon="12.69993195310235">
        <ele>49.96</ele>
        <time>2025-02-03T10:59:20.902Z</time>
      </trkpt>
      <trkpt lat="59.08037097193301" lon="12.699946956709027">
        <ele>49.91</ele>
        <time>2025-02-03T10:59:32.248Z</time>
      </trkpt>
      <trkpt lat="59.0802919305861" lon="12.69995592534542">
        <ele>49.86</ele>
        <time>2025-02-03T10:59:43.595Z</time>
      </trkpt>
      <trkpt lat="59.08021096140146" lon="12.699962966144085">
        <ele>49.81</ele>
        <time>2025-02-03T10:59:54.944Z</time>
      </trkpt>
      <trkpt lat="59.080131920054555" lon="12.69997394643724">
        <ele>49.77</ele>
        <time>2025-02-03T11:00:06.294Z</time>
      </trkpt>
      <trkpt lat="59.08005396835506" lon="12.699987944215536">
        <ele>49.74</ele>
        <time>2025-02-03T11:00:17.645Z</time>
      </trkpt>
      <trkpt lat="59.07997693866491" lon="12.700002947822213">
        <ele>49.71</ele>
        <time>2025-02-03T11:00:28.997Z</time>
      </trkpt>
      <trkpt lat="59.07990192063153" lon="12.70001694560051">
        <ele>49.69</ele>
        <time>2025-02-03T11:00:40.351Z</time>
      </trkpt>
      <trkpt lat="59.079826986417174" lon="12.700029937550426">
        <ele>49.67</ele>
        <time>2025-02-03T11:00:51.706Z</time>
      </trkpt>
      <trkpt lat="59.07975398004055" lon="12.70004192367196">
        <ele>49.65</ele>
        <time>2025-02-03T11:01:03.062Z</time>
      </trkpt>
      <trkpt lat="59.0796859189868" lon="12.700051981955767">
        <ele>49.64</ele>
        <time>2025-02-03T11:01:14.419Z</time>
      </trkpt>
      <trkpt lat="59.07962397672236" lon="12.70005994476378">
        <ele>49.64</ele>
        <time>2025-02-03T11:01:25.777Z</time>
      </trkpt>
      <trkpt lat="59.07956597395241" lon="12.700065979734063">
        <ele>49.63</ele>
        <time>2025-02-03T11:01:37.136Z</time>
      </trkpt>
      <trkpt lat="59.07951098866761" lon="12.700073942542076">
        <ele>49.63</ele>
        <time>2025-02-03T11:01:48.496Z</time>
      </trkpt>
      <trkpt lat="59.07945893704891" lon="12.70007997751236">
        <ele>49.63</ele>
        <time>2025-02-03T11:01:59.857Z</time>
      </trkpt>
      <trkpt lat="59.07940797507763" lon="12.70008198916912">
        <ele>49.63</ele>
        <time>2025-02-03T11:02:11.218Z</time>
      </trkpt>
      <trkpt lat="59.079355923458934" lon="12.700082994997501">
        <ele>49.64</ele>
        <time>2025-02-03T11:02:22.580Z</time>
      </trkpt>
      <trkpt lat="59.07930294983089" lon="12.700082994997501">
        <ele>49.65</ele>
        <time>2025-02-03T11:02:33.943Z</time>
      </trkpt>
      <trkpt lat="59.07924595288932" lon="12.700091963633895">
        <ele>49.66</ele>
        <time>2025-02-03T11:02:45.307Z</time>
      </trkpt>
      <trkpt lat="59.07918996177614" lon="12.700094981119037">
        <ele>49.67</ele>
        <time>2025-02-03T11:02:56.672Z</time>
      </trkpt>
      <trkpt lat="59.07913497649133" lon="12.700096992775798">
        <ele>49.69</ele>
        <time>2025-02-03T11:03:08.038Z</time>
      </trkpt>
      <trkpt lat="59.07907999120653" lon="12.700097998604178">
        <ele>49.72</ele>
        <time>2025-02-03T11:03:19.405Z</time>
      </trkpt>
      <trkpt lat="59.07902391627431" lon="12.700100932270288">
        <ele>49.74</ele>
        <time>2025-02-03T11:03:30.773Z</time>
      </trkpt>
      <trkpt lat="59.078969936817884" lon="12.70010495558381">
        <ele>49.78</ele>
        <time>2025-02-03T11:03:42.142Z</time>
      </trkpt>
      <trkpt lat="59.07891696318984" lon="12.700109984725714">
        <ele>49.82</ele>
        <time>2025-02-03T11:03:53.511Z</time>
      </trkpt>
      <trkpt lat="59.078860972076654" lon="12.700106967240572">
        <ele>49.86</ele>
        <time>2025-02-03T11:04:04.881Z</time>
      </trkpt>
      <trkpt lat="59.07880296930671" lon="12.700100932270288">
        <ele>49.9</ele>
        <time>2025-02-03T11:04:16.252Z</time>
      </trkpt>
      <trkpt lat="59.07874295488" lon="12.700089951977134">
        <ele>49.95</ele>
        <time>2025-02-03T11:04:27.624Z</time>
      </trkpt>
      <trkpt lat="59.07868193462491" lon="12.700074948370457">
        <ele>50.01</ele>
        <time>2025-02-03T11:04:38.997Z</time>
      </trkpt>
      <trkpt lat="59.07861798070371" lon="12.700058938935399">
        <ele>50.07</ele>
        <time>2025-02-03T11:04:50.371Z</time>
      </trkpt>
      <trkpt lat="59.07855394296348" lon="12.700039995834231">
        <ele>50.14</ele>
        <time>2025-02-03T11:05:01.746Z</time>
      </trkpt>
      <trkpt lat="59.07848697155714" lon="12.700021974742413">
        <ele>50.2</ele>
        <time>2025-02-03T11:05:13.122Z</time>
      </trkpt>
      <trkpt lat="59.07841899432242" lon="12.700004959478974">
        <ele>50.27</ele>
        <time>2025-02-03T11:05:24.499Z</time>
      </trkpt>
      <trkpt lat="59.078349927440286" lon="12.699985932558775">
        <ele>50.35</ele>
        <time>2025-02-03T11:05:35.878Z</time>
      </trkpt>
      <trkpt lat="59.0782799385488" lon="12.699965983629227">
        <ele>50.42</ele>
        <time>2025-02-03T11:05:47.258Z</time>
      </trkpt>
      <trkpt lat="59.07820994965732" lon="12.699946956709027">
        <ele>50.5</ele>
        <time>2025-02-03T11:05:58.639Z</time>
      </trkpt>
      <trkpt lat="59.07813996076584" lon="12.699924996122718">
        <ele>50.58</ele>
        <time>2025-02-03T11:06:10.021Z</time>
      </trkpt>
      <trkpt lat="59.07807097770274" lon="12.699902951717377">
        <ele>50.66</ele>
        <time>2025-02-03T11:06:21.404Z</time>
      </trkpt>
      <trkpt lat="59.078002916648984" lon="12.699881996959448">
        <ele>50.75</ele>
        <time>2025-02-03T11:06:32.788Z</time>
      </trkpt>
      <trkpt lat="59.07793493941426" lon="12.699862970039248">
        <ele>50.83</ele>
        <time>2025-02-03T11:06:44.173Z</time>
      </trkpt>
      <trkpt lat="59.07786796800792" lon="12.69984494894743">
        <ele>50.93</ele>
        <time>2025-02-03T11:06:55.559Z</time>
      </trkpt>
      <trkpt lat="59.07780099660158" lon="12.69982692785561">
        <ele>51.02</ele>
        <time>2025-02-03T11:07:06.946Z</time>
      </trkpt>
      <trkpt lat="59.07773494720459" lon="12.699808990582824">
        <ele>51.12</ele>
        <time>2025-02-03T11:07:18.334Z</time>
      </trkpt>
      <trkpt lat="59.07766898162663" lon="12.699789963662624">
        <ele>51.22</ele>
        <time>2025-02-03T11:07:29.724Z</time>
      </trkpt>
      <trkpt lat="59.07760293222964" lon="12.699771942570806">
        <ele>51.32</ele>
        <time>2025-02-03T11:07:41.115Z</time>
      </trkpt>
      <trkpt lat="59.07753696665168" lon="12.699753921478987">
        <ele>51.43</ele>
        <time>2025-02-03T11:07:52.507Z</time>
      </trkpt>
      <trkpt lat="59.07746898941696" lon="12.69973799586296">
        <ele>51.54</ele>
        <time>2025-02-03T11:08:03.900Z</time>
      </trkpt>
      <trkpt lat="59.077400928363204" lon="12.699723998084664">
        <ele>51.65</ele>
        <time>2025-02-03T11:08:15.294Z</time>
      </trkpt>
      <trkpt lat="59.07733295112848" lon="12.699708994477987">
        <ele>51.77</ele>
        <time>2025-02-03T11:08:26.689Z</time>
      </trkpt>
      <trkpt lat="59.07726396806538" lon="12.699691979214549">
        <ele>51.88</ele>
        <time>2025-02-03T11:08:38.085Z</time>
      </trkpt>
      <trkpt lat="59.07719498500228" lon="12.69967395812273">
        <ele>51.99</ele>
        <time>2025-02-03T11:08:49.482Z</time>
      </trkpt>
      <trkpt lat="59.077125918120146" lon="12.699656942859292">
        <ele>52.11</ele>
        <time>2025-02-03T11:09:00.880Z</time>
      </trkpt>
      <trkpt lat="59.077058946713805" lon="12.699643950909376">
        <ele>52.23</ele>
        <time>2025-02-03T11:09:12.279Z</time>
      </trkpt>
      <trkpt lat="59.076992981135845" lon="12.699632970616221">
        <ele>52.35</ele>
        <time>2025-02-03T11:09:23.679Z</time>
      </trkpt>
      <trkpt lat="59.07692693173885" lon="12.699623918160796">
        <ele>52.48</ele>
        <time>2025-02-03T11:09:35.081Z</time>
      </trkpt>
      <trkpt lat="59.076862977817655" lon="12.699615955352783">
        <ele>52.61</ele>
        <time>2025-02-03T11:09:46.484Z</time>
      </trkpt>
      <trkpt lat="59.076799945905805" lon="12.69961092621088">
        <ele>52.75</ele>
        <time>2025-02-03T11:09:57.888Z</time>
      </trkpt>
      <trkpt lat="59.076737919822335" lon="12.69960899837315">
        <ele>52.89</ele>
        <time>2025-02-03T11:10:09.293Z</time>
      </trkpt>
      <trkpt lat="59.07667698338628" lon="12.69960899837315">
        <ele>53.03</ele>
        <time>2025-02-03T11:10:20.699Z</time>
      </trkpt>
      <trkpt lat="59.07661596313119" lon="12.69961092621088">
        <ele>53.17</ele>
        <time>2025-02-03T11:10:32.106Z</time>
      </trkpt>
      <trkpt lat="59.0765549428761" lon="12.699612937867641">
        <ele>53.31</ele>
        <time>2025-02-03T11:10:43.514Z</time>
      </trkpt>
      <trkpt lat="59.07649392262101" lon="12.699614949524403">
        <ele>53.46</ele>
        <time>2025-02-03T11:10:54.922Z</time>
      </trkpt>
      <trkpt lat="59.076434997841716" lon="12.699617967009544">
        <ele>53.62</ele>
        <time>2025-02-03T11:11:06.331Z</time>
      </trkpt>
      <trkpt lat="59.07637699507177" lon="12.699625929817557">
        <ele>53.77</ele>
        <time>2025-02-03T11:11:17.741Z</time>
      </trkpt>
      <trkpt lat="59.07631899230182" lon="12.699635988101363">
        <ele>53.93</ele>
        <time>2025-02-03T11:11:29.152Z</time>
      </trkpt>
      <trkpt lat="59.076260989531875" lon="12.699646968394518">
        <ele>54.08</ele>
        <time>2025-02-03T11:11:40.564Z</time>
      </trkpt>
      <trkpt lat="59.076200975105166" lon="12.699657948687673">
        <ele>54.24</ele>
        <time>2025-02-03T11:11:51.977Z</time>
      </trkpt>
      <trkpt lat="59.07614297233522" lon="12.69967395812273">
        <ele>54.39</ele>
        <time>2025-02-03T11:12:03.391Z</time>
      </trkpt>
      <trkpt lat="59.07608094625175" lon="12.699686950072646">
        <ele>54.56</ele>
        <time>2025-02-03T11:12:14.806Z</time>
      </trkpt>
      <trkpt lat="59.07601892016828" lon="12.6996979303658">
        <ele>54.72</ele>
        <time>2025-02-03T11:12:26.222Z</time>
      </trkpt>
      <trkpt lat="59.075959995388985" lon="12.699713939800858">
        <ele>54.88</ele>
        <time>2025-02-03T11:12:37.639Z</time>
      </trkpt>
      <trkpt lat="59.07590199261904" lon="12.699734978377819">
        <ele>55.05</ele>
        <time>2025-02-03T11:12:49.057Z</time>
      </trkpt>
      <trkpt lat="59.07584197819233" lon="12.699757944792509">
        <ele>55.22</ele>
        <time>2025-02-03T11:13:00.476Z</time>
      </trkpt>
      <trkpt lat="59.0757779404521" lon="12.69978191703558">
        <ele>55.38</ele>
        <time>2025-02-03T11:13:11.896Z</time>
      </trkpt>
      <trkpt lat="59.0757139865309" lon="12.699806978926063">
        <ele>55.55</ele>
        <time>2025-02-03T11:13:23.317Z</time>
      </trkpt>
      <trkpt lat="59.07564894296229" lon="12.699829945340753">
        <ele>55.73</ele>
        <time>2025-02-03T11:13:34.739Z</time>
      </trkpt>
      <trkpt lat="59.07558599486947" lon="12.699853917583823">
        <ele>55.91</ele>
        <time>2025-02-03T11:13:46.162Z</time>
      </trkpt>
      <trkpt lat="59.07552195712924" lon="12.699879985302687">
        <ele>56.09</ele>
        <time>2025-02-03T11:13:57.586Z</time>
      </trkpt>
      <trkpt lat="59.07545993104577" lon="12.699906975030899">
        <ele>56.28</ele>
        <time>2025-02-03T11:14:09.011Z</time>
      </trkpt>
      <trkpt lat="59.07539991661906" lon="12.699933964759111">
        <ele>56.46</ele>
        <time>2025-02-03T11:14:20.437Z</time>
      </trkpt>
      <trkpt lat="59.075338980183005" lon="12.699961960315704">
        <ele>56.65</ele>
        <time>2025-02-03T11:14:31.864Z</time>
      </trkpt>
      <trkpt lat="59.07527997158468" lon="12.699992973357439">
        <ele>56.83</ele>
        <time>2025-02-03T11:14:43.292Z</time>
      </trkpt>
      <trkpt lat="59.07522599212825" lon="12.700029937550426">
        <ele>57.01</ele>
        <time>2025-02-03T11:14:54.721Z</time>
      </trkpt>
      <trkpt lat="59.075167989358306" lon="12.700066985562444">
        <ele>57.18</ele>
        <time>2025-02-03T11:15:06.151Z</time>
      </trkpt>
      <trkpt lat="59.07510898075998" lon="12.700108978897333">
        <ele>57.36</ele>
        <time>2025-02-03T11:15:17.582Z</time>
      </trkpt>
      <trkpt lat="59.07504796050489" lon="12.700168993324041">
        <ele>57.54</ele>
        <time>2025-02-03T11:15:29.014Z</time>
      </trkpt>
      <trkpt lat="59.07499096356332" lon="12.700254991650581">
        <ele>57.71</ele>
        <time>2025-02-03T11:15:40.447Z</time>
      </trkpt>
      <trkpt lat="59.07494192942977" lon="12.700356999412179">
        <ele>57.87</ele>
        <time>2025-02-03T11:15:51.882Z</time>
      </trkpt>
      <trkpt lat="59.074907982721925" lon="12.700481973588467">
        <ele>58.03</ele>
        <time>2025-02-03T11:16:03.318Z</time>
      </trkpt>
      <trkpt lat="59.074886944144964" lon="12.700602924451232">
        <ele>58.18</ele>
        <time>2025-02-03T11:16:14.755Z</time>
      </trkpt>
      <trkpt lat="59.074863977730274" lon="12.700708955526352">
        <ele>58.34</ele>
        <time>2025-02-03T11:16:26.193Z</time>
      </trkpt>
      <trkpt lat="59.07482894137502" lon="12.700788918882608">
        <ele>58.5</ele>
        <time>2025-02-03T11:16:37.632Z</time>
      </trkpt>
      <trkpt lat="59.07478493638337" lon="12.700844993814826">
        <ele>58.67</ele>
        <time>2025-02-03T11:16:49.071Z</time>
      </trkpt>
      <trkpt lat="59.0747329685837" lon="12.70089897327125">
        <ele>58.84</ele>
        <time>2025-02-03T11:17:00.511Z</time>
      </trkpt>
      <trkpt lat="59.07467697747052" lon="12.700915988534689">
        <ele>59.01</ele>
        <time>2025-02-03T11:17:11.952Z</time>
      </trkpt>
      <trkpt lat="59.0746259316802" lon="12.700887992978096">
        <ele>59.18</ele>
        <time>2025-02-03T11:17:23.394Z</time>
      </trkpt>
      <trkpt lat="59.07458092086017" lon="12.700842982158065">
        <ele>59.36</ele>
        <time>2025-02-03T11:17:34.837Z</time>
      </trkpt>
      <trkpt lat="59.07453892752528" lon="12.700795959681273">
        <ele>59.53</ele>
        <time>2025-02-03T11:17:46.281Z</time>
      </trkpt>
      <trkpt lat="59.074498945847154" lon="12.700742986053228">
        <ele>59.71</ele>
        <time>2025-02-03T11:17:57.726Z</time>
      </trkpt>
      <trkpt lat="59.074459969997406" lon="12.700689928606153">
        <ele>59.88</ele>
        <time>2025-02-03T11:18:09.171Z</time>
      </trkpt>
      <trkpt lat="59.07442292198539" lon="12.700645923614502">
        <ele>60.06</ele>
        <time>2025-02-03T11:18:20.617Z</time>
      </trkpt>
      <trkpt lat="59.07438696362078" lon="12.700607953593135">
        <ele>60.23</ele>
        <time>2025-02-03T11:18:32.064Z</time>
      </trkpt>
      <trkpt lat="59.074346981942654" lon="12.7005769405514">
        <ele>60.39</ele>
        <time>2025-02-03T11:18:43.511Z</time>
      </trkpt>
      <trkpt lat="59.074302976951" lon="12.700550956651568">
        <ele>60.56</ele>
        <time>2025-02-03T11:18:54.959Z</time>
      </trkpt>
      <trkpt lat="59.07425494864583" lon="12.700528996065259">
        <ele>60.72</ele>
        <time>2025-02-03T11:19:06.408Z</time>
      </trkpt>
      <trkpt lat="59.07420499250293" lon="12.700513992458582">
        <ele>60.88</ele>
        <time>2025-02-03T11:19:17.858Z</time>
      </trkpt>
      <trkpt lat="59.07415193505585" lon="12.700494965538383">
        <ele>61.04</ele>
        <time>2025-02-03T11:19:29.309Z</time>
      </trkpt>
      <trkpt lat="59.07409795559943" lon="12.700480967760086">
        <ele>61.21</ele>
        <time>2025-02-03T11:19:40.760Z</time>
      </trkpt>
      <trkpt lat="59.07404297031462" lon="12.700472921133041">
        <ele>61.37</ele>
        <time>2025-02-03T11:19:52.212Z</time>
      </trkpt>
      <trkpt lat="59.0739889908582" lon="12.700465964153409">
        <ele>61.52</ele>
        <time>2025-02-03T11:20:03.665Z</time>
      </trkpt>
      <trkpt lat="59.07393593341112" lon="12.700455989688635">
        <ele>61.68</ele>
        <time>2025-02-03T11:20:15.119Z</time>
      </trkpt>
      <trkpt lat="59.07388899475336" lon="12.700432939454913">
        <ele>61.84</ele>
        <time>2025-02-03T11:20:26.574Z</time>
      </trkpt>
      <trkpt lat="59.07385094091296" lon="12.700389940291643">
        <ele>61.99</ele>
        <time>2025-02-03T11:20:38.030Z</time>
      </trkpt>
      <trkpt lat="59.073814982548356" lon="12.700343923643231">
        <ele>62.14</ele>
        <time>2025-02-03T11:20:49.486Z</time>
      </trkpt>
      <trkpt lat="59.073769971728325" lon="12.700315928086638">
        <ele>62.29</ele>
        <time>2025-02-03T11:21:00.943Z</time>
      </trkpt>
      <trkpt lat="59.07372093759477" lon="12.700293967500329">
        <ele>62.44</ele>
        <time>2025-02-03T11:21:12.401Z</time>
      </trkpt>
      <trkpt lat="59.07366997562349" lon="12.700266977772117">
        <ele>62.58</ele>
        <time>2025-02-03T11:21:23.860Z</time>
      </trkpt>
      <trkpt lat="59.07361499033868" lon="12.700239988043904">
        <ele>62.73</ele>
        <time>2025-02-03T11:21:35.320Z</time>
      </trkpt>
      <trkpt lat="59.073556987568736" lon="12.700220961123705">
        <ele>62.87</ele>
        <time>2025-02-03T11:21:46.780Z</time>
      </trkpt>
      <trkpt lat="59.07349596731365" lon="12.700206963345408">
        <ele>63.01</ele>
        <time>2025-02-03T11:21:58.241Z</time>
      </trkpt>
      <trkpt lat="59.0734379645437" lon="12.700195983052254">
        <ele>63.15</ele>
        <time>2025-02-03T11:22:09.703Z</time>
      </trkpt>
      <trkpt lat="59.07337895594537" lon="12.700185924768448">
        <ele>63.29</ele>
        <time>2025-02-03T11:22:21.166Z</time>
      </trkpt>
      <trkpt lat="59.073319947347045" lon="12.700175950303674">
        <ele>63.42</ele>
        <time>2025-02-03T11:22:32.630Z</time>
      </trkpt>
      <trkpt lat="59.0732619445771" lon="12.700162958353758">
        <ele>63.56</ele>
        <time>2025-02-03T11:22:44.095Z</time>
      </trkpt>
      <trkpt lat="59.07320193015039" lon="12.700148960575461">
        <ele>63.69</ele>
        <time>2025-02-03T11:22:55.561Z</time>
      </trkpt>
      <trkpt lat="59.07314099371433" lon="12.700136974453926">
        <ele>63.82</ele>
        <time>2025-02-03T11:23:07.028Z</time>
      </trkpt>
      <trkpt lat="59.073079973459244" lon="12.700125994160771">
        <ele>63.95</ele>
        <time>2025-02-03T11:23:18.496Z</time>
      </trkpt>
      <trkpt lat="59.073017947375774" lon="12.700115935876966">
        <ele>64.07</ele>
        <time>2025-02-03T11:23:29.965Z</time>
      </trkpt>
      <trkpt lat="59.072951981797814" lon="12.70010394975543">
        <ele>64.2</ele>
        <time>2025-02-03T11:23:41.435Z</time>
      </trkpt>
      <trkpt lat="59.07288392074406" lon="12.700094981119037">
        <ele>64.32</ele>
        <time>2025-02-03T11:23:52.906Z</time>
      </trkpt>
      <trkpt lat="59.0728179551661" lon="12.700085928663611">
        <ele>64.44</ele>
        <time>2025-02-03T11:24:04.378Z</time>
      </trkpt>
      <trkpt lat="59.07275391742587" lon="12.700074948370457">
        <ele>64.55</ele>
        <time>2025-02-03T11:24:15.851Z</time>
      </trkpt>
      <trkpt lat="59.07269096933305" lon="12.700063968077302">
        <ele>64.67</ele>
        <time>2025-02-03T11:24:27.325Z</time>
      </trkpt>
      <trkpt lat="59.0726279374212" lon="12.700050976127386">
        <ele>64.78</ele>
        <time>2025-02-03T11:24:38.800Z</time>
      </trkpt>
      <trkpt lat="59.072565995156765" lon="12.700034966692328">
        <ele>64.88</ele>
        <time>2025-02-03T11:24:50.276Z</time>
      </trkpt>
      <trkpt lat="59.072502963244915" lon="12.700019963085651">
        <ele>64.99</ele>
        <time>2025-02-03T11:25:01.753Z</time>
      </trkpt>
      <trkpt lat="59.072437919676304" lon="12.700003953650594">
        <ele>65.09</ele>
        <time>2025-02-03T11:25:13.232Z</time>
      </trkpt>
      <trkpt lat="59.072372959926724" lon="12.699988950043917">
        <ele>65.19</ele>
        <time>2025-02-03T11:25:24.712Z</time>
      </trkpt>
      <trkpt lat="59.072305988520384" lon="12.699970928952098">
        <ele>65.29</ele>
        <time>2025-02-03T11:25:36.193Z</time>
      </trkpt>
      <trkpt lat="59.07223692163825" lon="12.69995198585093">
        <ele>65.38</ele>
        <time>2025-02-03T11:25:47.675Z</time>
      </trkpt>
      <trkpt lat="59.07216793857515" lon="12.69993195310235">
        <ele>65.47</ele>
        <time>2025-02-03T11:25:59.158Z</time>
      </trkpt>
      <trkpt lat="59.072097949683666" lon="12.69990999251604">
        <ele>65.56</ele>
        <time>2025-02-03T11:26:10.642Z</time>
      </trkpt>
      <trkpt lat="59.0720269549638" lon="12.699884930625558">
        <ele>65.65</ele>
        <time>2025-02-03T11:26:22.127Z</time>
      </trkpt>
      <trkpt lat="59.07195495441556" lon="12.699858946725726">
        <ele>65.73</ele>
        <time>2025-02-03T11:26:33.613Z</time>
      </trkpt>
      <trkpt lat="59.0718839596957" lon="12.699829945340753">
        <ele>65.81</ele>
        <time>2025-02-03T11:26:45.101Z</time>
      </trkpt>
      <trkpt lat="59.07181195914745" lon="12.699793986976147">
        <ele>65.89</ele>
        <time>2025-02-03T11:26:56.590Z</time>
      </trkpt>
      <trkpt lat="59.07174197025597" lon="12.699755933135748">
        <ele>65.97</ele>
        <time>2025-02-03T11:27:08.080Z</time>
      </trkpt>
      <trkpt lat="59.07167198136449" lon="12.699712933972478">
        <ele>66.05</ele>
        <time>2025-02-03T11:27:19.571Z</time>
      </trkpt>
      <trkpt lat="59.071599980816245" lon="12.699663983657956">
        <ele>66.12</ele>
        <time>2025-02-03T11:27:31.063Z</time>
      </trkpt>
      <trkpt lat="59.07152999192476" lon="12.6996099203825">
        <ele>66.19</ele>
        <time>2025-02-03T11:27:42.556Z</time>
      </trkpt>
      <trkpt lat="59.07145991921425" lon="12.699556946754456">
        <ele>66.25</ele>
        <time>2025-02-03T11:27:54.051Z</time>
      </trkpt>
      <trkpt lat="59.071387918666005" lon="12.69950296729803">
        <ele>66.31</ele>
        <time>2025-02-03T11:28:05.547Z</time>
      </trkpt>
      <trkpt lat="59.07131591811776" lon="12.699447982013226">
        <ele>66.37</ele>
        <time>2025-02-03T11:28:17.044Z</time>
      </trkpt>
      <trkpt lat="59.07124198973179" lon="12.699390985071659">
        <ele>66.42</ele>
        <time>2025-02-03T11:28:28.542Z</time>
      </trkpt>
      <trkpt lat="59.07116596587002" lon="12.69933097064495">
        <ele>66.48</ele>
        <time>2025-02-03T11:28:40.042Z</time>
      </trkpt>
      <trkpt lat="59.071088936179876" lon="12.699272967875004">
        <ele>66.54</ele>
        <time>2025-02-03T11:28:51.543Z</time>
      </trkpt>
      <trkpt lat="59.071009978652" lon="12.699215970933437">
        <ele>66.6</ele>
        <time>2025-02-03T11:29:03.045Z</time>
      </trkpt>
      <trkpt lat="59.07092993147671" lon="12.699160985648632">
        <ele>66.65</ele>
        <time>2025-02-03T11:29:14.549Z</time>
      </trkpt>
      <trkpt lat="59.070848962292075" lon="12.699103988707066">
        <ele>66.69</ele>
        <time>2025-02-03T11:29:26.054Z</time>
      </trkpt>
      <trkpt lat="59.07076899893582" lon="12.699045985937119">
        <ele>66.74</ele>
        <time>2025-02-03T11:29:37.561Z</time>
      </trkpt>
      <trkpt lat="59.07068995758891" lon="12.698987983167171">
        <ele>66.79</ele>
        <time>2025-02-03T11:29:49.069Z</time>
      </trkpt>
      <trkpt lat="59.070609994232655" lon="12.698927968740463">
        <ele>66.83</ele>
        <time>2025-02-03T11:30:00.578Z</time>
      </trkpt>
      <trkpt lat="59.070526929572225" lon="12.698869965970516">
        <ele>66.87</ele>
        <time>2025-02-03T11:30:12.089Z</time>
      </trkpt>
      <trkpt lat="59.070442942902446" lon="12.698814980685711">
        <ele>66.91</ele>
        <time>2025-02-03T11:30:23.601Z</time>
      </trkpt>
      <trkpt lat="59.070356944575906" lon="12.698763934895396">
        <ele>66.95</ele>
        <time>2025-02-03T11:30:35.115Z</time>
      </trkpt>
      <trkpt lat="59.070267928764224" lon="12.698718924075365">
        <ele>66.99</ele>
        <time>2025-02-03T11:30:46.630Z</time>
      </trkpt>
      <trkpt lat="59.07017698511481" lon="12.698679948225617">
        <ele>67.02</ele>
        <time>2025-02-03T11:30:58.147Z</time>
      </trkpt>
      <trkpt lat="59.07008595764637" lon="12.698643989861012">
        <ele>67.06</ele>
        <time>2025-02-03T11:31:09.665Z</time>
      </trkpt>
      <trkpt lat="59.06999694183469" lon="12.698604930192232">
        <ele>67.1</ele>
        <time>2025-02-03T11:31:21.184Z</time>
      </trkpt>
      <trkpt lat="59.06990993767977" lon="12.69855597987771">
        <ele>67.14</ele>
        <time>2025-02-03T11:31:32.705Z</time>
      </trkpt>
      <trkpt lat="59.06982796266675" lon="12.69849194213748">
        <ele>67.17</ele>
        <time>2025-02-03T11:31:44.227Z</time>
      </trkpt>
      <trkpt lat="59.069751938804984" lon="12.698415918275714">
        <ele>67.2</ele>
        <time>2025-02-03T11:31:55.751Z</time>
      </trkpt>
      <trkpt lat="59.069685973227024" lon="12.698331931605935">
        <ele>67.23</ele>
        <time>2025-02-03T11:32:07.276Z</time>
      </trkpt>
      <trkpt lat="59.06963098794222" lon="12.698245933279395">
        <ele>67.26</ele>
        <time>2025-02-03T11:32:18.802Z</time>
      </trkpt>
      <trkpt lat="59.069581953808665" lon="12.698165969923139">
        <ele>67.29</ele>
        <time>2025-02-03T11:32:30.329Z</time>
      </trkpt>
      <trkpt lat="59.06953392550349" lon="12.698094975203276">
        <ele>67.31</ele>
        <time>2025-02-03T11:32:41.857Z</time>
      </trkpt>
      <trkpt lat="59.06948195770383" lon="12.6980419177562">
        <ele>67.33</ele>
        <time>2025-02-03T11:32:53.386Z</time>
      </trkpt>
      <trkpt lat="59.06942496076226" lon="12.698015933856368">
        <ele>67.35</ele>
        <time>2025-02-03T11:33:04.916Z</time>
      </trkpt>
      <trkpt lat="59.069364946335554" lon="12.698016939684749">
        <ele>67.36</ele>
        <time>2025-02-03T11:33:16.447Z</time>
      </trkpt>
      <trkpt lat="59.069303926080465" lon="12.69804292358458">
        <ele>67.38</ele>
        <time>2025-02-03T11:33:27.979Z</time>
      </trkpt>
      <trkpt lat="59.06924592331052" lon="12.698083994910121">
        <ele>67.4</ele>
        <time>2025-02-03T11:33:39.512Z</time>
      </trkpt>
      <trkpt lat="59.06918993219733" lon="12.698131939396262">
        <ele>67.41</ele>
        <time>2025-02-03T11:33:51.046Z</time>
      </trkpt>
      <trkpt lat="59.06913394108415" lon="12.698182985186577">
        <ele>67.42</ele>
        <time>2025-02-03T11:34:02.581Z</time>
      </trkpt>
      <trkpt lat="59.06907694414258" lon="12.698230929672718">
        <ele>67.44</ele>
        <time>2025-02-03T11:34:14.117Z</time>
      </trkpt>
      <trkpt lat="59.06901793554425" lon="12.698280969634652">
        <ele>67.45</ele>
        <time>2025-02-03T11:34:25.654Z</time>
      </trkpt>
      <trkpt lat="59.06895398162305" lon="12.698327992111444">
        <ele>67.46</ele>
        <time>2025-02-03T11:34:37.192Z</time>
      </trkpt>
      <trkpt lat="59.06888793222606" lon="12.698368979617953">
        <ele>67.46</ele>
        <time>2025-02-03T11:34:48.731Z</time>
      </trkpt>
      <trkpt lat="59.06881995499134" lon="12.69840493798256">
        <ele>67.47</ele>
        <time>2025-02-03T11:35:00.271Z</time>
      </trkpt>
      <trkpt lat="59.06875097192824" lon="12.698438968509436">
        <ele>67.48</ele>
        <time>2025-02-03T11:35:11.812Z</time>
      </trkpt>
      <trkpt lat="59.068678971379995" lon="12.69846897572279">
        <ele>67.48</ele>
        <time>2025-02-03T11:35:23.355Z</time>
      </trkpt>
      <trkpt lat="59.06860797666013" lon="12.698494959622622">
        <ele>67.49</ele>
        <time>2025-02-03T11:35:34.899Z</time>
      </trkpt>
      <trkpt lat="59.06853798776865" lon="12.698519937694073">
        <ele>67.49</ele>
        <time>2025-02-03T11:35:46.444Z</time>
      </trkpt>
      <trkpt lat="59.06847093254328" lon="12.698542987927794">
        <ele>67.49</ele>
        <time>2025-02-03T11:35:57.990Z</time>
      </trkpt>
      <trkpt lat="59.06840295530856" lon="12.698563942685723">
        <ele>67.49</ele>
        <time>2025-02-03T11:36:09.537Z</time>
      </trkpt>
      <trkpt lat="59.068334978073835" lon="12.698583975434303">
        <ele>67.49</ele>
        <time>2025-02-03T11:36:21.085Z</time>
      </trkpt>
      <trkpt lat="59.06826792284846" lon="12.698603924363852">
        <ele>67.48</ele>
        <time>2025-02-03T11:36:32.634Z</time>
      </trkpt>
      <trkpt lat="59.06819994561374" lon="12.698627980425954">
        <ele>67.47</ele>
        <time>2025-02-03T11:36:44.184Z</time>
      </trkpt>
      <trkpt lat="59.06813196837902" lon="12.698653964325786">
        <ele>67.46</ele>
        <time>2025-02-03T11:36:55.736Z</time>
      </trkpt>
      <trkpt lat="59.0680639911443" lon="12.698676930740476">
        <ele>67.45</ele>
        <time>2025-02-03T11:37:07.289Z</time>
      </trkpt>
      <trkpt lat="59.067993918433785" lon="12.698695957660675">
        <ele>67.44</ele>
        <time>2025-02-03T11:37:18.843Z</time>
      </trkpt>
      <trkpt lat="59.06792292371392" lon="12.698715990409255">
        <ele>67.42</ele>
        <time>2025-02-03T11:37:30.398Z</time>
      </trkpt>
      <trkpt lat="59.06785293482244" lon="12.698740968480706">
        <ele>67.41</ele>
        <time>2025-02-03T11:37:41.954Z</time>
      </trkpt>
      <trkpt lat="59.067778922617435" lon="12.698764940723777">
        <ele>67.39</ele>
        <time>2025-02-03T11:37:53.511Z</time>
      </trkpt>
      <trkpt lat="59.0677029825747" lon="12.69878899678588">
        <ele>67.37</ele>
        <time>2025-02-03T11:38:05.069Z</time>
      </trkpt>
      <trkpt lat="59.067627964541316" lon="12.69881296902895">
        <ele>67.36</ele>
        <time>2025-02-03T11:38:16.629Z</time>
      </trkpt>
      <trkpt lat="59.06755294650793" lon="12.69883593544364">
        <ele>67.34</ele>
        <time>2025-02-03T11:38:28.190Z</time>
      </trkpt>
      <trkpt lat="59.067477928474545" lon="12.698860997334123">
        <ele>67.31</ele>
        <time>2025-02-03T11:38:39.752Z</time>
      </trkpt>
      <trkpt lat="59.06740198843181" lon="12.698883963748813">
        <ele>67.28</ele>
        <time>2025-02-03T11:38:51.315Z</time>
      </trkpt>
      <trkpt lat="59.067325964570045" lon="12.698908941820264">
        <ele>67.26</ele>
        <time>2025-02-03T11:39:02.880Z</time>
      </trkpt>
      <trkpt lat="59.06724994070828" lon="12.698930986225605">
        <ele>67.23</ele>
        <time>2025-02-03T11:39:14.446Z</time>
      </trkpt>
      <trkpt lat="59.067172994837165" lon="12.698953952640295">
        <ele>67.21</ele>
        <time>2025-02-03T11:39:26.013Z</time>
      </trkpt>
      <trkpt lat="59.06709495931864" lon="12.698979936540127">
        <ele>67.18</ele>
        <time>2025-02-03T11:39:37.581Z</time>
      </trkpt>
      <trkpt lat="59.06701591797173" lon="12.69900499843061">
        <ele>67.15</ele>
        <time>2025-02-03T11:39:49.151Z</time>
      </trkpt>
      <trkpt lat="59.066939977928996" lon="12.699029976502061">
        <ele>67.12</ele>
        <time>2025-02-03T11:40:00.722Z</time>
      </trkpt>
      <trkpt lat="59.06686294823885" lon="12.699053948745131">
        <ele>67.09</ele>
        <time>2025-02-03T11:40:12.294Z</time>
      </trkpt>
      <trkpt lat="59.066787930205464" lon="12.699075993150473">
        <ele>67.06</ele>
        <time>2025-02-03T11:40:23.867Z</time>
      </trkpt>
      <trkpt lat="59.06671098433435" lon="12.699098959565163">
        <ele>67.02</ele>
        <time>2025-02-03T11:40:35.442Z</time>
      </trkpt>
      <trkpt lat="59.06663194298744" lon="12.699124943464994">
        <ele>66.99</ele>
        <time>2025-02-03T11:40:47.018Z</time>
      </trkpt>
      <trkpt lat="59.066552985459566" lon="12.699150927364826">
        <ele>66.96</ele>
        <time>2025-02-03T11:40:58.595Z</time>
      </trkpt>
      <trkpt lat="59.06647394411266" lon="12.69917892292142">
        <ele>66.93</ele>
        <time>2025-02-03T11:41:10.173Z</time>
      </trkpt>
      <trkpt lat="59.06639498658478" lon="12.699206918478012">
        <ele>66.89</ele>
        <time>2025-02-03T11:41:21.753Z</time>
      </trkpt>
      <trkpt lat="59.066316951066256" lon="12.699234997853637">
        <ele>66.85</ele>
        <time>2025-02-03T11:41:33.334Z</time>
      </trkpt>
      <trkpt lat="59.06623992137611" lon="12.699258970096707">
        <ele>66.82</ele>
        <time>2025-02-03T11:41:44.916Z</time>
      </trkpt>
      <trkpt lat="59.066164987161756" lon="12.699281936511397">
        <ele>66.78</ele>
        <time>2025-02-03T11:41:56.499Z</time>
      </trkpt>
      <trkpt lat="59.06609298661351" lon="12.699302975088358">
        <ele>66.74</ele>
        <time>2025-02-03T11:42:08.084Z</time>
      </trkpt>
      <trkpt lat="59.06602098606527" lon="12.699321918189526">
        <ele>66.69</ele>
        <time>2025-02-03T11:42:19.670Z</time>
      </trkpt>
      <trkpt lat="59.065947979688644" lon="12.699335999786854">
        <ele>66.65</ele>
        <time>2025-02-03T11:42:31.257Z</time>
      </trkpt>
      <trkpt lat="59.06587396748364" lon="12.699346980080009">
        <ele>66.61</ele>
        <time>2025-02-03T11:42:42.845Z</time>
      </trkpt>
      <trkpt lat="59.065799955278635" lon="12.699355948716402">
        <ele>66.56</ele>
        <time>2025-02-03T11:42:54.434Z</time>
      </trkpt>
      <trkpt lat="59.06572594307363" lon="12.699361983686686">
        <ele>66.52</ele>
        <time>2025-02-03T11:43:06.025Z</time>
      </trkpt>
      <trkpt lat="59.065652936697006" lon="12.699362989515066">
        <ele>66.49</ele>
        <time>2025-02-03T11:43:17.617Z</time>
      </trkpt>
      <trkpt lat="59.065578924492" lon="12.699360977858305">
        <ele>66.46</ele>
        <time>2025-02-03T11:43:29.210Z</time>
      </trkpt>
      <trkpt lat="59.06550499610603" lon="12.699359972029924">
        <ele>66.42</ele>
        <time>2025-02-03T11:43:40.804Z</time>
      </trkpt>
      <trkpt lat="59.06542796641588" lon="12.699360977858305">
        <ele>66.39</ele>
        <time>2025-02-03T11:43:52.399Z</time>
      </trkpt>
      <trkpt lat="59.065348925068974" lon="12.699358966201544">
        <ele>66.36</ele>
        <time>2025-02-03T11:44:03.996Z</time>
      </trkpt>
      <trkpt lat="59.06526695005596" lon="12.699355948716402">
        <ele>66.33</ele>
        <time>2025-02-03T11:44:15.594Z</time>
      </trkpt>
      <trkpt lat="59.0651819575578" lon="12.69935393705964">
        <ele>66.29</ele>
        <time>2025-02-03T11:44:27.193Z</time>
      </trkpt>
      <trkpt lat="59.06509595923126" lon="12.69934999756515">
        <ele>66.26</ele>
        <time>2025-02-03T11:44:38.794Z</time>
      </trkpt>
      <trkpt lat="59.06501197256148" lon="12.699354942888021">
        <ele>66.23</ele>
        <time>2025-02-03T11:44:50.396Z</time>
      </trkpt>
      <trkpt lat="59.06492999754846" lon="12.699362989515066">
        <ele>66.19</ele>
        <time>2025-02-03T11:45:01.999Z</time>
      </trkpt>
      <trkpt lat="59.064853973686695" lon="12.699355948716402">
        <ele>66.16</ele>
        <time>2025-02-03T11:45:13.604Z</time>
      </trkpt>
      <trkpt lat="59.06478691846132" lon="12.69930993206799">
        <ele>66.13</ele>
        <time>2025-02-03T11:45:25.210Z</time>
      </trkpt>
      <trkpt lat="59.06473595649004" lon="12.699225945398211">
        <ele>66.1</ele>
        <time>2025-02-03T11:45:36.817Z</time>
      </trkpt>
      <trkpt lat="59.06470896676183" lon="12.699109939858317">
        <ele>66.08</ele>
        <time>2025-02-03T11:45:48.425Z</time>
      </trkpt>
      <trkpt lat="59.06469798646867" lon="12.69898395985365">
        <ele>66.05</ele>
        <time>2025-02-03T11:46:00.034Z</time>
      </trkpt>
      <trkpt lat="59.06469195149839" lon="12.698865942656994">
        <ele>66.02</ele>
        <time>2025-02-03T11:46:11.644Z</time>
      </trkpt>
      <trkpt lat="59.06468792818487" lon="12.698767958208919">
        <ele>66.0</ele>
        <time>2025-02-03T11:46:23.255Z</time>
      </trkpt>
      <trkpt lat="59.06468893401325" lon="12.698687994852662">
        <ele>65.97</ele>
        <time>2025-02-03T11:46:34.866Z</time>
      </trkpt>
      <trkpt lat="59.06469094567001" lon="12.69861993379891">
        <ele>65.95</ele>
        <time>2025-02-03T11:46:46.478Z</time>
      </trkpt>
      <trkpt lat="59.06469295732677" lon="12.698558997362852">
        <ele>65.93</ele>
        <time>2025-02-03T11:46:58.090Z</time>
      </trkpt>
      <trkpt lat="59.06469195149839" lon="12.698505939915776">
        <ele>65.9</ele>
        <time>2025-02-03T11:47:09.703Z</time>
      </trkpt>
      <trkpt lat="59.064686922356486" lon="12.698456989601254">
        <ele>65.88</ele>
        <time>2025-02-03T11:47:21.316Z</time>
      </trkpt>
      <trkpt lat="59.06467795372009" lon="12.698411978781223">
        <ele>65.86</ele>
        <time>2025-02-03T11:47:32.930Z</time>
      </trkpt>
      <trkpt lat="59.06466797925532" lon="12.698364956304431">
        <ele>65.84</ele>
        <time>2025-02-03T11:47:44.544Z</time>
      </trkpt>
      <trkpt lat="59.06465297564864" lon="12.698311982676387">
        <ele>65.82</ele>
        <time>2025-02-03T11:47:56.159Z</time>
      </trkpt>
      <trkpt lat="59.06463294290006" lon="12.698259931057692">
        <ele>65.8</ele>
        <time>2025-02-03T11:48:07.774Z</time>
      </trkpt>
      <trkpt lat="59.06460695900023" lon="12.698228918015957">
        <ele>65.79</ele>
        <time>2025-02-03T11:48:19.390Z</time>
      </trkpt>
      <trkpt lat="59.064575945958495" lon="12.698222966864705">
        <ele>65.77</ele>
        <time>2025-02-03T11:48:31.006Z</time>
      </trkpt>
      <trkpt lat="59.06454593874514" lon="12.698222966864705">
        <ele>65.76</ele>
        <time>2025-02-03T11:48:42.623Z</time>
      </trkpt>
      <trkpt lat="59.06451593153179" lon="12.698222966864705">
        <ele>65.74</ele>
        <time>2025-02-03T11:48:54.240Z</time>
      </trkpt>
      <trkpt lat="59.06448592431843" lon="12.698217937722802">
        <ele>65.73</ele>
        <time>2025-02-03T11:49:05.858Z</time>
      </trkpt>
      <trkpt lat="59.06445398926735" lon="12.698213998228312">
        <ele>65.72</ele>
        <time>2025-02-03T11:49:17.476Z</time>
      </trkpt>
      <trkpt lat="59.064421970397234" lon="12.69821198657155">
        <ele>65.71</ele>
        <time>2025-02-03T11:49:29.095Z</time>
      </trkpt>
      <trkpt lat="59.06439196318388" lon="12.698212992399931">
        <ele>65.7</ele>
        <time>2025-02-03T11:49:40.714Z</time>
      </trkpt>
      <trkpt lat="59.064361955970526" lon="12.698212992399931">
        <ele>65.69</ele>
        <time>2025-02-03T11:49:52.334Z</time>
      </trkpt>
      <trkpt lat="59.06433094292879" lon="12.698208969086409">
        <ele>65.69</ele>
        <time>2025-02-03T11:50:03.954Z</time>
      </trkpt>
      <trkpt lat="59.064299929887056" lon="12.698204945772886">
        <ele>65.68</ele>
        <time>2025-02-03T11:50:15.575Z</time>
      </trkpt>
      <trkpt lat="59.06426799483597" lon="12.698204945772886">
        <ele>65.68</ele>
        <time>2025-02-03T11:50:27.196Z</time>
      </trkpt>
      <trkpt lat="59.06423698179424" lon="12.698202934116125">
        <ele>65.68</ele>
        <time>2025-02-03T11:50:38.818Z</time>
      </trkpt>
      <trkpt lat="59.0642059687525" lon="12.698199916630983">
        <ele>65.69</ele>
        <time>2025-02-03T11:50:50.440Z</time>
      </trkpt>
      <trkpt lat="59.06417394988239" lon="12.698195977136493">
        <ele>65.69</ele>
        <time>2025-02-03T11:51:02.063Z</time>
      </trkpt>
      <trkpt lat="59.06413799151778" lon="12.698193965479732">
        <ele>65.7</ele>
        <time>2025-02-03T11:51:13.686Z</time>
      </trkpt>
      <trkpt lat="59.06409993767738" lon="12.69819195382297">
        <ele>65.7</ele>
        <time>2025-02-03T11:51:25.310Z</time>
      </trkpt>
      <trkpt lat="59.064059955999255" lon="12.69818994216621">
        <ele>65.71</ele>
        <time>2025-02-03T11:51:36.934Z</time>
      </trkpt>
      <trkpt lat="59.064014945179224" lon="12.69818994216621">
        <ele>65.72</ele>
        <time>2025-02-03T11:51:48.559Z</time>
      </trkpt>
      <trkpt lat="59.06396993435919" lon="12.69819094799459">
        <ele>65.73</ele>
        <time>2025-02-03T11:52:00.185Z</time>
      </trkpt>
      <trkpt lat="59.06392492353916" lon="12.69818994216621">
        <ele>65.75</ele>
        <time>2025-02-03T11:52:11.812Z</time>
      </trkpt>
      <trkpt lat="59.06387899070978" lon="12.698187930509448">
        <ele>65.76</ele>
        <time>2025-02-03T11:52:23.439Z</time>
      </trkpt>
      <trkpt lat="59.06383196823299" lon="12.698186924681067">
        <ele>65.78</ele>
        <time>2025-02-03T11:52:35.067Z</time>
      </trkpt>
      <trkpt lat="59.06378595158458" lon="12.698183991014957">
        <ele>65.8</ele>
        <time>2025-02-03T11:52:46.696Z</time>
      </trkpt>
      <trkpt lat="59.063737923279405" lon="12.698180973529816">
        <ele>65.82</ele>
        <time>2025-02-03T11:52:58.326Z</time>
      </trkpt>
      <trkpt lat="59.06368997879326" lon="12.698179967701435">
        <ele>65.85</ele>
        <time>2025-02-03T11:53:09.956Z</time>
      </trkpt>
      <trkpt lat="59.06363993883133" lon="12.698177956044674">
        <ele>65.87</ele>
        <time>2025-02-03T11:53:21.587Z</time>
      </trkpt>
      <trkpt lat="59.063587971031666" lon="12.698177956044674">
        <ele>65.9</ele>
        <time>2025-02-03T11:53:33.219Z</time>
      </trkpt>
      <trkpt lat="59.06353591941297" lon="12.698177956044674">
        <ele>65.92</ele>
        <time>2025-02-03T11:53:44.852Z</time>
      </trkpt>
      <trkpt lat="59.06348395161331" lon="12.698177956044674">
        <ele>65.95</ele>
        <time>2025-02-03T11:53:56.486Z</time>
      </trkpt>
      <trkpt lat="59.06342997215688" lon="12.698176950216293">
        <ele>65.98</ele>
        <time>2025-02-03T11:54:08.120Z</time>
      </trkpt>
      <trkpt lat="59.06337599270046" lon="12.698170999065042">
        <ele>66.01</ele>
        <time>2025-02-03T11:54:19.755Z</time>
      </trkpt>
      <trkpt lat="59.06332394108176" lon="12.698163958266377">
        <ele>66.05</ele>
        <time>2025-02-03T11:54:31.391Z</time>
      </trkpt>
      <trkpt lat="59.0632719732821" lon="12.698153983801603">
        <ele>66.09</ele>
        <time>2025-02-03T11:54:43.028Z</time>
      </trkpt>
      <trkpt lat="59.06322796829045" lon="12.698109978809953">
        <ele>66.12</ele>
        <time>2025-02-03T11:54:54.666Z</time>
      </trkpt>
      <trkpt lat="59.063198966905475" lon="12.698022974655032">
        <ele>66.16</ele>
        <time>2025-02-03T11:55:06.305Z</time>
      </trkpt>
      <trkpt lat="59.0631839632988" lon="12.69791292026639">
        <ele>66.21</ele>
        <time>2025-02-03T11:55:17.945Z</time>
      </trkpt>
      <trkpt lat="59.06317591667175" lon="12.697791969403625">
        <ele>66.25</ele>
        <time>2025-02-03T11:55:29.586Z</time>
      </trkpt>
      <trkpt lat="59.06316795386374" lon="12.697664983570576">
        <ele>66.3</ele>
        <time>2025-02-03T11:55:41.228Z</time>
      </trkpt>
      <trkpt lat="59.063158985227346" lon="12.697535986080766">
        <ele>66.35</ele>
        <time>2025-02-03T11:55:52.871Z</time>
      </trkpt>
      <trkpt lat="59.06314892694354" lon="12.697408916428685">
        <ele>66.4</ele>
        <time>2025-02-03T11:56:04.515Z</time>
      </trkpt>
      <trkpt lat="59.06314096413553" lon="12.697282936424017">
        <ele>66.46</ele>
        <time>2025-02-03T11:56:16.160Z</time>
      </trkpt>
      <trkpt lat="59.063134929165244" lon="12.697155950590968">
        <ele>66.51</ele>
        <time>2025-02-03T11:56:27.806Z</time>
      </trkpt>
      <trkpt lat="59.06313291750848" lon="12.697031982243061">
        <ele>66.56</ele>
        <time>2025-02-03T11:56:39.453Z</time>
      </trkpt>
      <trkpt lat="59.06313291750848" lon="12.696913965046406">
        <ele>66.61</ele>
        <time>2025-02-03T11:56:51.101Z</time>
      </trkpt>
      <trkpt lat="59.063136940822005" lon="12.696802988648415">
        <ele>66.66</ele>
        <time>2025-02-03T11:57:02.750Z</time>
      </trkpt>
      <trkpt lat="59.06315194442868" lon="12.696704920381308">
        <ele>66.72</ele>
        <time>2025-02-03T11:57:14.400Z</time>
      </trkpt>
      <trkpt lat="59.0631699655205" lon="12.696618922054768">
        <ele>66.77</ele>
        <time>2025-02-03T11:57:26.050Z</time>
      </trkpt>
      <trkpt lat="59.06318999826908" lon="12.696539964526892">
        <ele>66.83</ele>
        <time>2025-02-03T11:57:37.701Z</time>
      </trkpt>
      <trkpt lat="59.0632199216634" lon="12.696458995342255">
        <ele>66.89</ele>
        <time>2025-02-03T11:57:49.353Z</time>
      </trkpt>
      <trkpt lat="59.06324598938227" lon="12.696374924853444">
        <ele>66.95</ele>
        <time>2025-02-03T11:58:01.006Z</time>
      </trkpt>
      <trkpt lat="59.063260992988944" lon="12.696283981204033">
        <ele>67.01</ele>
        <time>2025-02-03T11:58:12.660Z</time>
      </trkpt>
      <trkpt lat="59.06326996162534" lon="12.696188930422068">
        <ele>67.07</ele>
        <time>2025-02-03T11:58:24.314Z</time>
      </trkpt>
      <trkpt lat="59.06327893026173" lon="12.696092957630754">
        <ele>67.14</ele>
        <time>2025-02-03T11:58:35.969Z</time>
      </trkpt>
      <trkpt lat="59.06328999437392" lon="12.69599799066782">
        <ele>67.21</ele>
        <time>2025-02-03T11:58:47.625Z</time>
      </trkpt>
      <trkpt lat="59.06329795718193" lon="12.695904951542616">
        <ele>67.28</ele>
        <time>2025-02-03T11:58:59.282Z</time>
      </trkpt>
      <trkpt lat="59.06330298632383" lon="12.695814929902554">
        <ele>67.35</ele>
        <time>2025-02-03T11:59:10.940Z</time>
      </trkpt>
      <trkpt lat="59.063304997980595" lon="12.695726919919252">
        <ele>67.42</ele>
        <time>2025-02-03T11:59:22.598Z</time>
      </trkpt>
      <trkpt lat="59.063303992152214" lon="12.69565299153328">
        <ele>67.49</ele>
        <time>2025-02-03T11:59:34.257Z</time>
      </trkpt>
      <trkpt lat="59.06330198049545" lon="12.695592977106571">
        <ele>67.57</ele>
        <time>2025-02-03T11:59:45.916Z</time>
      </trkpt>
      <trkpt lat="59.06330097466707" lon="12.695531956851482">
        <ele>67.64</ele>
        <time>2025-02-03T11:59:57.576Z</time>
      </trkpt>
      <trkpt lat="59.06329896301031" lon="12.695464985445142">
        <ele>67.72</ele>
        <time>2025-02-03T12:00:09.236Z</time>
      </trkpt>
      <trkpt lat="59.06329896301031" lon="12.695388961583376">
        <ele>67.8</ele>
        <time>2025-02-03T12:00:20.897Z</time>
      </trkpt>
      <trkpt lat="59.06329896301031" lon="12.695305980741978">
        <ele>67.88</ele>
        <time>2025-02-03T12:00:32.559Z</time>
      </trkpt>
      <trkpt lat="59.06329695135355" lon="12.695218976587057">
        <ele>67.96</ele>
        <time>2025-02-03T12:00:44.221Z</time>
      </trkpt>
      <trkpt lat="59.06329896301031" lon="12.695131972432137">
        <ele>68.04</ele>
        <time>2025-02-03T12:00:55.884Z</time>
      </trkpt>
      <trkpt lat="59.063303992152214" lon="12.695044968277216">
        <ele>68.12</ele>
        <time>2025-02-03T12:01:07.548Z</time>
      </trkpt>
      <trkpt lat="59.06331899575889" lon="12.694943966343999">
        <ele>68.2</ele>
        <time>2025-02-03T12:01:19.213Z</time>
      </trkpt>
      <trkpt lat="59.06333492137492" lon="12.694851933047175">
        <ele>68.27</ele>
        <time>2025-02-03T12:01:30.879Z</time>
      </trkpt>
      <trkpt lat="59.06334196217358" lon="12.694755960255861">
        <ele>68.35</ele>
        <time>2025-02-03T12:01:42.545Z</time>
      </trkpt>
      <trkpt lat="59.06333693303168" lon="12.694663926959038">
        <ele>68.43</ele>
        <time>2025-02-03T12:01:54.212Z</time>
      </trkpt>
      <trkpt lat="59.06331698410213" lon="12.694575916975737">
        <ele>68.52</ele>
        <time>2025-02-03T12:02:05.880Z</time>
      </trkpt>
      <trkpt lat="59.06328295357525" lon="12.694491930305958">
        <ele>68.6</ele>
        <time>2025-02-03T12:02:17.549Z</time>
      </trkpt>
      <trkpt lat="59.06323693692684" lon="12.69441096112132">
        <ele>68.69</ele>
        <time>2025-02-03T12:02:29.219Z</time>
      </trkpt>
      <trkpt lat="59.06318496912718" lon="12.694327980279922">
        <ele>68.77</ele>
        <time>2025-02-03T12:02:40.890Z</time>
      </trkpt>
      <trkpt lat="59.063131995499134" lon="12.694241981953382">
        <ele>68.85</ele>
        <time>2025-02-03T12:02:52.562Z</time>
      </trkpt>
      <trkpt lat="59.0630769263953" lon="12.694154977798462">
        <ele>68.94</ele>
        <time>2025-02-03T12:03:04.235Z</time>
      </trkpt>
      <trkpt lat="59.06301992945373" lon="12.694068979471922">
        <ele>69.03</ele>
        <time>2025-02-03T12:03:15.909Z</time>
      </trkpt>
      <trkpt lat="59.062959998846054" lon="12.693983986973763">
        <ele>69.11</ele>
        <time>2025-02-03T12:03:27.585Z</time>
      </trkpt>
      <trkpt lat="59.06289596110582" lon="12.693898994475603">
        <ele>69.2</ele>
        <time>2025-02-03T12:03:39.262Z</time>
      </trkpt>
      <trkpt lat="59.06283091753721" lon="12.693818947300315">
        <ele>69.28</ele>
        <time>2025-02-03T12:03:50.940Z</time>
      </trkpt>
      <trkpt lat="59.06276595778763" lon="12.69374493509531">
        <ele>69.36</ele>
        <time>2025-02-03T12:04:02.619Z</time>
      </trkpt>
      <trkpt lat="59.06269898638129" lon="12.693675952032208">
        <ele>69.45</ele>
        <time>2025-02-03T12:04:14.299Z</time>
      </trkpt>
      <trkpt lat="59.06263193115592" lon="12.69361199811101">
        <ele>69.53</ele>
        <time>2025-02-03T12:04:25.981Z</time>
      </trkpt>
      <trkpt lat="59.06256697140634" lon="12.693547960370779">
        <ele>69.62</ele>
        <time>2025-02-03T12:04:37.664Z</time>
      </trkpt>
      <trkpt lat="59.0625139977783" lon="12.693476965650916">
        <ele>69.7</ele>
        <time>2025-02-03T12:04:49.348Z</time>
      </trkpt>
      <trkpt lat="59.062472926452756" lon="12.693384932354093">
        <ele>69.78</ele>
        <time>2025-02-03T12:05:01.033Z</time>
      </trkpt>
      <trkpt lat="59.062449960038066" lon="12.693266998976469">
        <ele>69.86</ele>
        <time>2025-02-03T12:05:12.719Z</time>
      </trkpt>
      <trkpt lat="59.06243093311787" lon="12.693138923496008">
        <ele>69.94</ele>
        <time>2025-02-03T12:05:24.406Z</time>
      </trkpt>
      <trkpt lat="59.06241299584508" lon="12.693008920177817">
        <ele>70.01</ele>
        <time>2025-02-03T12:05:36.094Z</time>
      </trkpt>
      <trkpt lat="59.06239396892488" lon="12.692877994850278">
        <ele>70.08</ele>
        <time>2025-02-03T12:05:47.783Z</time>
      </trkpt>
      <trkpt lat="59.06236999668181" lon="12.692744974046946">
        <ele>70.15</ele>
        <time>2025-02-03T12:05:59.473Z</time>
      </trkpt>
      <trkpt lat="59.062342923134565" lon="12.692611953243613">
        <ele>70.23</ele>
        <time>2025-02-03T12:06:11.165Z</time>
      </trkpt>
      <trkpt lat="59.06231492757797" lon="12.69247692078352">
        <ele>70.3</ele>
        <time>2025-02-03T12:06:22.858Z</time>
      </trkpt>
      <trkpt lat="59.06228492036462" lon="12.692342977970839">
        <ele>70.37</ele>
        <time>2025-02-03T12:06:34.552Z</time>
      </trkpt>
      <trkpt lat="59.06224896200001" lon="12.692211968824267">
        <ele>70.44</ele>
        <time>2025-02-03T12:06:46.247Z</time>
      </trkpt>
      <trkpt lat="59.062208980321884" lon="12.69208892248571">
        <ele>70.51</ele>
        <time>2025-02-03T12:06:57.943Z</time>
      </trkpt>
      <trkpt lat="59.062165981158614" lon="12.691969983279705">
        <ele>70.57</ele>
        <time>2025-02-03T12:07:09.641Z</time>
      </trkpt>
      <trkpt lat="59.062122981995344" lon="12.691855989396572">
        <ele>70.63</ele>
        <time>2025-02-03T12:07:21.340Z</time>
      </trkpt>
      <trkpt lat="59.062079982832074" lon="12.69174199551344">
        <ele>70.69</ele>
        <time>2025-02-03T12:07:33.040Z</time>
      </trkpt>
      <trkpt lat="59.062037989497185" lon="12.691622972488403">
        <ele>70.75</ele>
        <time>2025-02-03T12:07:44.741Z</time>
      </trkpt>
      <trkpt lat="59.061994990333915" lon="12.691501937806606">
        <ele>70.8</ele>
        <time>2025-02-03T12:07:56.443Z</time>
      </trkpt>
      <trkpt lat="59.061950985342264" lon="12.691383920609951">
        <ele>70.85</ele>
        <time>2025-02-03T12:08:08.147Z</time>
      </trkpt>
      <trkpt lat="59.06190396286547" lon="12.691270932555199">
        <ele>70.9</ele>
        <time>2025-02-03T12:08:19.852Z</time>
      </trkpt>
      <trkpt lat="59.06185895204544" lon="12.691157944500446">
        <ele>70.94</ele>
        <time>2025-02-03T12:08:31.558Z</time>
      </trkpt>
      <trkpt lat="59.06181595288217" lon="12.691045962274075">
        <ele>70.98</ele>
        <time>2025-02-03T12:08:43.265Z</time>
      </trkpt>
      <trkpt lat="59.06177194789052" lon="12.690936997532845">
        <ele>71.01</ele>
        <time>2025-02-03T12:08:54.973Z</time>
      </trkpt>
      <trkpt lat="59.06172894872725" lon="12.690828954800963">
        <ele>71.04</ele>
        <time>2025-02-03T12:09:06.682Z</time>
      </trkpt>
      <trkpt lat="59.06168293207884" lon="12.690720995888114">
        <ele>71.08</ele>
        <time>2025-02-03T12:09:18.392Z</time>
      </trkpt>
      <trkpt lat="59.061630964279175" lon="12.690618988126516">
        <ele>71.1</ele>
        <time>2025-02-03T12:09:30.104Z</time>
      </trkpt>
      <trkpt lat="59.06157094985247" lon="12.690532989799976">
        <ele>71.13</ele>
        <time>2025-02-03T12:09:41.817Z</time>
      </trkpt>
      <trkpt lat="59.061503978446126" lon="12.690467946231365">
        <ele>71.15</ele>
        <time>2025-02-03T12:09:53.531Z</time>
      </trkpt>
      <trkpt lat="59.061433989554644" lon="12.690409943461418">
        <ele>71.16</ele>
        <time>2025-02-03T12:10:05.246Z</time>
      </trkpt>
      <trkpt lat="59.06136492267251" lon="12.690352946519852">
        <ele>71.17</ele>
        <time>2025-02-03T12:10:16.962Z</time>
      </trkpt>
      <trkpt lat="59.06129593960941" lon="12.690295949578285">
        <ele>71.19</ele>
        <time>2025-02-03T12:10:28.680Z</time>
      </trkpt>
      <trkpt lat="59.06122997403145" lon="12.690242975950241">
        <ele>71.2</ele>
        <time>2025-02-03T12:10:40.399Z</time>
      </trkpt>
      <trkpt lat="59.061162918806076" lon="12.690189918503165">
        <ele>71.2</ele>
        <time>2025-02-03T12:10:52.119Z</time>
      </trkpt>
      <trkpt lat="59.061094941571355" lon="12.69013493321836">
        <ele>71.21</ele>
        <time>2025-02-03T12:11:03.840Z</time>
      </trkpt>
      <trkpt lat="59.061026964336634" lon="12.690078942105174">
        <ele>71.21</ele>
        <time>2025-02-03T12:11:15.562Z</time>
      </trkpt>
      <trkpt lat="59.06095798127353" lon="12.690033931285143">
        <ele>71.21</ele>
        <time>2025-02-03T12:11:27.286Z</time>
      </trkpt>
      <trkpt lat="59.06088497489691" lon="12.69000593572855">
        <ele>71.2</ele>
        <time>2025-02-03T12:11:39.011Z</time>
      </trkpt>
      <trkpt lat="59.060811968520284" lon="12.689997972920537">
        <ele>71.19</ele>
        <time>2025-02-03T12:11:50.737Z</time>
      </trkpt>
      <trkpt lat="59.06073896214366" lon="12.689998978748918">
        <ele>71.18</ele>
        <time>2025-02-03T12:12:02.464Z</time>
      </trkpt>
      <trkpt lat="59.060665955767035" lon="12.689997972920537">
        <ele>71.16</ele>
        <time>2025-02-03T12:12:14.192Z</time>
      </trkpt>
      <trkpt lat="59.06059395521879" lon="12.689996967092156">
        <ele>71.13</ele>
        <time>2025-02-03T12:12:25.921Z</time>
      </trkpt>
      <trkpt lat="59.06052195467055" lon="12.689996967092156">
        <ele>71.11</ele>
        <time>2025-02-03T12:12:37.652Z</time>
      </trkpt>
      <trkpt lat="59.060450959950686" lon="12.689995961263776">
        <ele>71.08</ele>
        <time>2025-02-03T12:12:49.384Z</time>
      </trkpt>
      <trkpt lat="59.06037795357406" lon="12.689993949607015">
        <ele>71.04</ele>
        <time>2025-02-03T12:13:01.117Z</time>
      </trkpt>
      <trkpt lat="59.060302935540676" lon="12.689992943778634">
        <ele>71.01</ele>
        <time>2025-02-03T12:13:12.851Z</time>
      </trkpt>
      <trkpt lat="59.06022892333567" lon="12.689985986799002">
        <ele>70.97</ele>
        <time>2025-02-03T12:13:24.586Z</time>
      </trkpt>
      <trkpt lat="59.06015692278743" lon="12.689976934343576">
        <ele>70.93</ele>
        <time>2025-02-03T12:13:36.322Z</time>
      </trkpt>
      <trkpt lat="59.060087939724326" lon="12.689964948222041">
        <ele>70.88</ele>
        <time>2025-02-03T12:13:48.060Z</time>
      </trkpt>
      <trkpt lat="59.06002398580313" lon="12.689953967928886">
        <ele>70.83</ele>
        <time>2025-02-03T12:13:59.799Z</time>
      </trkpt>
      <trkpt lat="59.05996195971966" lon="12.689929995685816">
        <ele>70.78</ele>
        <time>2025-02-03T12:14:11.539Z</time>
      </trkpt>
      <trkpt lat="59.05989993363619" lon="12.689887918531895">
        <ele>70.73</ele>
        <time>2025-02-03T12:14:23.280Z</time>
      </trkpt>
      <trkpt lat="59.05983799137175" lon="12.68983293324709">
        <ele>70.67</ele>
        <time>2025-02-03T12:14:35.022Z</time>
      </trkpt>
      <trkpt lat="59.0597749594599" lon="12.689772918820381">
        <ele>70.61</ele>
        <time>2025-02-03T12:14:46.765Z</time>
      </trkpt>
      <trkpt lat="59.05970999971032" lon="12.689711982384324">
        <ele>70.55</ele>
        <time>2025-02-03T12:14:58.509Z</time>
      </trkpt>
      <trkpt lat="59.05964495614171" lon="12.689652973785996">
        <ele>70.48</ele>
        <time>2025-02-03T12:15:10.254Z</time>
      </trkpt>
      <trkpt lat="59.05957899056375" lon="12.689591953530908">
        <ele>70.41</ele>
        <time>2025-02-03T12:15:22.000Z</time>
      </trkpt>
      <trkpt lat="59.05951294116676" lon="12.689530933275819">
        <ele>70.34</ele>
        <time>2025-02-03T12:15:33.747Z</time>
      </trkpt>
      <trkpt lat="59.0594469755888" lon="12.689467985183">
        <ele>70.26</ele>
        <time>2025-02-03T12:15:45.496Z</time>
      </trkpt>
      <trkpt lat="59.05938092619181" lon="12.689406964927912">
        <ele>70.17</ele>
        <time>2025-02-03T12:15:57.246Z</time>
      </trkpt>
      <trkpt lat="59.05931596644223" lon="12.689345944672823">
        <ele>70.08</ele>
        <time>2025-02-03T12:16:08.997Z</time>
      </trkpt>
      <trkpt lat="59.05925394035876" lon="12.689281990751624">
        <ele>70.0</ele>
        <time>2025-02-03T12:16:20.749Z</time>
      </trkpt>
      <trkpt lat="59.05918998643756" lon="12.689221976324916">
        <ele>69.9</ele>
        <time>2025-02-03T12:16:32.502Z</time>
      </trkpt>
      <trkpt lat="59.05912393704057" lon="12.689182916656137">
        <ele>69.81</ele>
        <time>2025-02-03T12:16:44.256Z</time>
      </trkpt>
      <trkpt lat="59.05905696563423" lon="12.689153999090195">
        <ele>69.71</ele>
        <time>2025-02-03T12:16:56.011Z</time>
      </trkpt>
      <trkpt lat="59.058988988399506" lon="12.689112927764654">
        <ele>69.61</ele>
        <time>2025-02-03T12:17:07.768Z</time>
      </trkpt>
      <trkpt lat="59.05892193317413" lon="12.689055930823088">
        <ele>69.51</ele>
        <time>2025-02-03T12:17:19.526Z</time>
      </trkpt>
      <trkpt lat="59.05885395593941" lon="12.688991976901889">
        <ele>69.41</ele>
        <time>2025-02-03T12:17:31.285Z</time>
      </trkpt>
      <trkpt lat="59.05878396704793" lon="12.68893196247518">
        <ele>69.3</ele>
        <time>2025-02-03T12:17:43.045Z</time>
      </trkpt>
      <trkpt lat="59.05871297232807" lon="12.688871948048472">
        <ele>69.19</ele>
        <time>2025-02-03T12:17:54.806Z</time>
      </trkpt>
      <trkpt lat="59.058641977608204" lon="12.688809921965003">
        <ele>69.09</ele>
        <time>2025-02-03T12:18:06.569Z</time>
      </trkpt>
      <trkpt lat="59.05857198871672" lon="12.688748985528946">
        <ele>68.97</ele>
        <time>2025-02-03T12:18:18.333Z</time>
      </trkpt>
      <trkpt lat="59.05850099399686" lon="12.688687965273857">
        <ele>68.86</ele>
        <time>2025-02-03T12:18:30.098Z</time>
      </trkpt>
      <trkpt lat="59.058428993448615" lon="12.68863096833229">
        <ele>68.74</ele>
        <time>2025-02-03T12:18:41.864Z</time>
      </trkpt>
      <trkpt lat="59.05835699290037" lon="12.688579922541976">
        <ele>68.62</ele>
        <time>2025-02-03T12:18:53.632Z</time>
      </trkpt>
      <trkpt lat="59.05828599818051" lon="12.688534995540977">
        <ele>68.49</ele>
        <time>2025-02-03T12:19:05.401Z</time>
      </trkpt>
      <trkpt lat="59.058214919641614" lon="12.688492918387055">
        <ele>68.36</ele>
        <time>2025-02-03T12:19:17.171Z</time>
      </trkpt>
      <trkpt lat="59.05814392492175" lon="12.688452936708927">
        <ele>68.24</ele>
        <time>2025-02-03T12:19:28.942Z</time>
      </trkpt>
      <trkpt lat="59.05807192437351" lon="12.688411949202418">
        <ele>68.11</ele>
        <time>2025-02-03T12:19:40.714Z</time>
      </trkpt>
      <trkpt lat="59.05799891799688" lon="12.68837196752429">
        <ele>67.97</ele>
        <time>2025-02-03T12:19:52.488Z</time>
      </trkpt>
      <trkpt lat="59.05792297795415" lon="12.688334919512272">
        <ele>67.84</ele>
        <time>2025-02-03T12:20:04.263Z</time>
      </trkpt>
      <trkpt lat="59.057845948264" lon="12.688305918127298">
        <ele>67.7</ele>
        <time>2025-02-03T12:20:16.039Z</time>
      </trkpt>
      <trkpt lat="59.05776699073613" lon="12.688280940055847">
        <ele>67.55</ele>
        <time>2025-02-03T12:20:27.816Z</time>
      </trkpt>
      <trkpt lat="59.05768694356084" lon="12.688259985297918">
        <ele>67.41</ele>
        <time>2025-02-03T12:20:39.595Z</time>
      </trkpt>
      <trkpt lat="59.05760698020458" lon="12.688239952549338">
        <ele>67.26</ele>
        <time>2025-02-03T12:20:51.375Z</time>
      </trkpt>
      <trkpt lat="59.05752592720091" lon="12.688219919800758">
        <ele>67.1</ele>
        <time>2025-02-03T12:21:03.156Z</time>
      </trkpt>
      <trkpt lat="59.057444958016276" lon="12.68819896504283">
        <ele>66.95</ele>
        <time>2025-02-03T12:21:14.939Z</time>
      </trkpt>
      <trkpt lat="59.05736298300326" lon="12.688174992799759">
        <ele>66.79</ele>
        <time>2025-02-03T12:21:26.723Z</time>
      </trkpt>
      <trkpt lat="59.05728092417121" lon="12.688150936737657">
        <ele>66.63</ele>
        <time>2025-02-03T12:21:38.508Z</time>
      </trkpt>
      <trkpt lat="59.05719894915819" lon="12.688122941181064">
        <ele>66.48</ele>
        <time>2025-02-03T12:21:50.295Z</time>
      </trkpt>
      <trkpt lat="59.057116974145174" lon="12.688091928139329">
        <ele>66.32</ele>
        <time>2025-02-03T12:22:02.083Z</time>
      </trkpt>
      <trkpt lat="59.057035921141505" lon="12.688057981431484">
        <ele>66.15</ele>
        <time>2025-02-03T12:22:13.872Z</time>
      </trkpt>
      <trkpt lat="59.05695495195687" lon="12.688020933419466">
        <ele>65.99</ele>
        <time>2025-02-03T12:22:25.663Z</time>
      </trkpt>
      <trkpt lat="59.05687297694385" lon="12.687976928427815">
        <ele>65.82</ele>
        <time>2025-02-03T12:22:37.455Z</time>
      </trkpt>
      <trkpt lat="59.05678999610245" lon="12.687926972284913">
        <ele>65.66</ele>
        <time>2025-02-03T12:22:49.248Z</time>
      </trkpt>
      <trkpt lat="59.0567079372704" lon="12.687872992828488">
        <ele>65.49</ele>
        <time>2025-02-03T12:23:01.043Z</time>
      </trkpt>
      <trkpt lat="59.056626968085766" lon="12.687815995886922">
        <ele>65.33</ele>
        <time>2025-02-03T12:23:12.839Z</time>
      </trkpt>
      <trkpt lat="59.05654599890113" lon="12.687752963975072">
        <ele>65.16</ele>
        <time>2025-02-03T12:23:24.637Z</time>
      </trkpt>
      <trkpt lat="59.0564679633826" lon="12.68768398091197">
        <ele>64.99</ele>
        <time>2025-02-03T12:23:36.436Z</time>
      </trkpt>
      <trkpt lat="59.056390933692455" lon="12.687608962878585">
        <ele>64.82</ele>
        <time>2025-02-03T12:23:48.236Z</time>
      </trkpt>
      <trkpt lat="59.0563159994781" lon="12.687524976208806">
        <ele>64.65</ele>
        <time>2025-02-03T12:24:00.038Z</time>
      </trkpt>
      <trkpt lat="59.05624399892986" lon="12.687433948740363">
        <ele>64.48</ele>
        <time>2025-02-03T12:24:11.841Z</time>
      </trkpt>
      <trkpt lat="59.056173926219344" lon="12.68733898177743">
        <ele>64.3</ele>
        <time>2025-02-03T12:24:23.646Z</time>
      </trkpt>
      <trkpt lat="59.05610594898462" lon="12.687240997329354">
        <ele>64.13</ele>
        <time>2025-02-03T12:24:35.452Z</time>
      </trkpt>
      <trkpt lat="59.05603998340666" lon="12.687137983739376">
        <ele>63.96</ele>
        <time>2025-02-03T12:24:47.259Z</time>
      </trkpt>
      <trkpt lat="59.05597695149481" lon="12.687029941007495">
        <ele>63.78</ele>
        <time>2025-02-03T12:24:59.068Z</time>
      </trkpt>
      <trkpt lat="59.055915931239724" lon="12.686914941295981">
        <ele>63.61</ele>
        <time>2025-02-03T12:25:10.878Z</time>
      </trkpt>
      <trkpt lat="59.05585792846978" lon="12.686793990433216">
        <ele>63.43</ele>
        <time>2025-02-03T12:25:22.689Z</time>
      </trkpt>
      <trkpt lat="59.05579992569983" lon="12.686671949923038">
        <ele>63.25</ele>
        <time>2025-02-03T12:25:34.502Z</time>
      </trkpt>
      <trkpt lat="59.055742928758264" lon="12.686548987403512">
        <ele>63.07</ele>
        <time>2025-02-03T12:25:46.316Z</time>
      </trkpt>
      <trkpt lat="59.05568794347346" lon="12.686423929408193">
        <ele>62.9</ele>
        <time>2025-02-03T12:25:58.131Z</time>
      </trkpt>
      <trkpt lat="59.055634969845414" lon="12.686297949403524">
        <ele>62.72</ele>
        <time>2025-02-03T12:26:09.948Z</time>
      </trkpt>
      <trkpt lat="59.05558099038899" lon="12.686172975227237">
        <ele>62.54</ele>
        <time>2025-02-03T12:26:21.766Z</time>
      </trkpt>
      <trkpt lat="59.05552592128515" lon="12.686049928888679">
        <ele>62.36</ele>
        <time>2025-02-03T12:26:33.585Z</time>
      </trkpt>
      <trkpt lat="59.05546699650586" lon="12.685929983854294">
        <ele>62.19</ele>
        <time>2025-02-03T12:26:45.406Z</time>
      </trkpt>
      <trkpt lat="59.05540798790753" lon="12.685815989971161">
        <ele>62.01</ele>
        <time>2025-02-03T12:26:57.228Z</time>
      </trkpt>
      <trkpt lat="59.05534998513758" lon="12.685702918097377">
        <ele>61.82</ele>
        <time>2025-02-03T12:27:09.051Z</time>
      </trkpt>
      <trkpt lat="59.055293994024396" lon="12.685583978891373">
        <ele>61.64</ele>
        <time>2025-02-03T12:27:20.876Z</time>
      </trkpt>
      <trkpt lat="59.0552419424057" lon="12.685460932552814">
        <ele>61.46</ele>
        <time>2025-02-03T12:27:32.702Z</time>
      </trkpt>
      <trkpt lat="59.055187962949276" lon="12.68534199334681">
        <ele>61.27</ele>
        <time>2025-02-03T12:27:44.529Z</time>
      </trkpt>
      <trkpt lat="59.05513297766447" lon="12.685228921473026">
        <ele>61.09</ele>
        <time>2025-02-03T12:27:56.358Z</time>
      </trkpt>
      <trkpt lat="59.055079920217395" lon="12.685117945075035">
        <ele>60.91</ele>
        <time>2025-02-03T12:28:08.188Z</time>
      </trkpt>
      <trkpt lat="59.05502292327583" lon="12.685011997818947">
        <ele>60.73</ele>
        <time>2025-02-03T12:28:20.019Z</time>
      </trkpt>
      <trkpt lat="59.05496198683977" lon="12.684911917895079">
        <ele>60.55</ele>
        <time>2025-02-03T12:28:31.851Z</time>
      </trkpt>
      <trkpt lat="59.05489895492792" lon="12.684820974245667">
        <ele>60.37</ele>
        <time>2025-02-03T12:28:43.685Z</time>
      </trkpt>
      <trkpt lat="59.05483198352158" lon="12.684736987575889">
        <ele>60.2</ele>
        <time>2025-02-03T12:28:55.520Z</time>
      </trkpt>
      <trkpt lat="59.054474998265505" lon="12.684327950701118">
        <ele>60.01</ele>
        <time>2025-02-03T12:29:07.362Z</time>
      </trkpt>
      <trkpt lat="59.05443895608187" lon="12.684286963194609">
        <ele>59.83</ele>
        <time>2025-02-03T12:29:19.204Z</time>
      </trkpt>
      <trkpt lat="59.05440299771726" lon="12.68424698151648">
        <ele>59.66</ele>
        <time>2025-02-03T12:29:31.047Z</time>
      </trkpt>
      <trkpt lat="59.05433191917837" lon="12.684172969311476">
        <ele>59.48</ele>
        <time>2025-02-03T12:29:42.891Z</time>
      </trkpt>
      <trkpt lat="59.05426695942879" lon="12.684105997905135">
        <ele>59.31</ele>
        <time>2025-02-03T12:29:54.736Z</time>
      </trkpt>
      <trkpt lat="59.05420795083046" lon="12.684043971821666">
        <ele>59.13</ele>
        <time>2025-02-03T12:30:06.583Z</time>
      </trkpt>
      <trkpt lat="59.05415698885918" lon="12.683989992365241">
        <ele>58.96</ele>
        <time>2025-02-03T12:30:18.431Z</time>
      </trkpt>
      <trkpt lat="59.05411398969591" lon="12.68394397571683">
        <ele>58.79</ele>
        <time>2025-02-03T12:30:30.279Z</time>
      </trkpt>
      <trkpt lat="59.05407593585551" lon="12.683904999867082">
        <ele>58.62</ele>
        <time>2025-02-03T12:30:42.128Z</time>
      </trkpt>
      <trkpt lat="59.05403897166252" lon="12.683867951855063">
        <ele>58.46</ele>
        <time>2025-02-03T12:30:53.978Z</time>
      </trkpt>
      <trkpt lat="59.05400091782212" lon="12.683829981833696">
        <ele>58.29</ele>
        <time>2025-02-03T12:31:05.828Z</time>
      </trkpt>
      <trkpt lat="59.053959930315614" lon="12.68379494547844">
        <ele>58.13</ele>
        <time>2025-02-03T12:31:17.679Z</time>
      </trkpt>
      <trkpt lat="59.05391299165785" lon="12.683759992942214">
        <ele>57.97</ele>
        <time>2025-02-03T12:31:29.531Z</time>
      </trkpt>
      <trkpt lat="59.05386094003916" lon="12.683721939101815">
        <ele>57.81</ele>
        <time>2025-02-03T12:31:41.384Z</time>
      </trkpt>
      <trkpt lat="59.05380494892597" lon="12.683675922453403">
        <ele>57.66</ele>
        <time>2025-02-03T12:31:53.238Z</time>
      </trkpt>
      <trkpt lat="59.053744934499264" lon="12.683620937168598">
        <ele>57.5</ele>
        <time>2025-02-03T12:32:05.093Z</time>
      </trkpt>
      <trkpt lat="59.053681986406446" lon="12.683563940227032">
        <ele>57.35</ele>
        <time>2025-02-03T12:32:16.949Z</time>
      </trkpt>
      <trkpt lat="59.05361493118107" lon="12.683506943285465">
        <ele>57.2</ele>
        <time>2025-02-03T12:32:28.806Z</time>
      </trkpt>
      <trkpt lat="59.05354494228959" lon="12.683447934687138">
        <ele>57.05</ele>
        <time>2025-02-03T12:32:40.664Z</time>
      </trkpt>
      <trkpt lat="59.05347294174135" lon="12.683383980765939">
        <ele>56.91</ele>
        <time>2025-02-03T12:32:52.524Z</time>
      </trkpt>
      <trkpt lat="59.053400941193104" lon="12.683312986046076">
        <ele>56.76</ele>
        <time>2025-02-03T12:33:04.385Z</time>
      </trkpt>
      <trkpt lat="59.05332592315972" lon="12.683238973841071">
        <ele>56.61</ele>
        <time>2025-02-03T12:33:16.247Z</time>
      </trkpt>
      <trkpt lat="59.053250988945365" lon="12.683164961636066">
        <ele>56.47</ele>
        <time>2025-02-03T12:33:28.111Z</time>
      </trkpt>
      <trkpt lat="59.05317597091198" lon="12.6830889377743">
        <ele>56.33</ele>
        <time>2025-02-03T12:33:39.976Z</time>
      </trkpt>
      <trkpt lat="59.053101958706975" lon="12.683014925569296">
        <ele>56.19</ele>
        <time>2025-02-03T12:33:51.842Z</time>
      </trkpt>
      <trkpt lat="59.05302694067359" lon="12.682939991354942">
        <ele>56.06</ele>
        <time>2025-02-03T12:34:03.710Z</time>
      </trkpt>
      <trkpt lat="59.052953934296966" lon="12.682866984978318">
        <ele>55.93</ele>
        <time>2025-02-03T12:34:15.579Z</time>
      </trkpt>
      <trkpt lat="59.05288092792034" lon="12.682794984430075">
        <ele>55.81</ele>
        <time>2025-02-03T12:34:27.449Z</time>
      </trkpt>
      <trkpt lat="59.05280792154372" lon="12.682724995538592">
        <ele>55.69</ele>
        <time>2025-02-03T12:34:39.321Z</time>
      </trkpt>
      <trkpt lat="59.052734998986125" lon="12.682654922828078">
        <ele>55.57</ele>
        <time>2025-02-03T12:34:51.194Z</time>
      </trkpt>
      <trkpt lat="59.0526619926095" lon="12.682586945593357">
        <ele>55.45</ele>
        <time>2025-02-03T12:35:03.068Z</time>
      </trkpt>
      <trkpt lat="59.05258898623288" lon="12.682521985843778">
        <ele>55.33</ele>
        <time>2025-02-03T12:35:14.943Z</time>
      </trkpt>
      <trkpt lat="59.05251597985625" lon="12.682458953931928">
        <ele>55.22</ele>
        <time>2025-02-03T12:35:26.820Z</time>
      </trkpt>
      <trkpt lat="59.05244397930801" lon="12.682396927848458">
        <ele>55.11</ele>
        <time>2025-02-03T12:35:38.698Z</time>
      </trkpt>
      <trkpt lat="59.05237399041653" lon="12.682335991412401">
        <ele>55.0</ele>
        <time>2025-02-03T12:35:50.577Z</time>
      </trkpt>
      <trkpt lat="59.05230391770601" lon="12.682275976985693">
        <ele>54.89</ele>
        <time>2025-02-03T12:36:02.457Z</time>
      </trkpt>
      <trkpt lat="59.05223594047129" lon="12.682212945073843">
        <ele>54.78</ele>
        <time>2025-02-03T12:36:14.339Z</time>
      </trkpt>
      <trkpt lat="59.05216997489333" lon="12.682147985324264">
        <ele>54.68</ele>
        <time>2025-02-03T12:36:26.222Z</time>
      </trkpt>
      <trkpt lat="59.05210794880986" lon="12.682086965069175">
        <ele>54.58</ele>
        <time>2025-02-03T12:36:38.106Z</time>
      </trkpt>
      <trkpt lat="59.052049946039915" lon="12.682030973955989">
        <ele>54.48</ele>
        <time>2025-02-03T12:36:49.991Z</time>
      </trkpt>
      <trkpt lat="59.05200191773474" lon="12.681965930387378">
        <ele>54.39</ele>
        <time>2025-02-03T12:37:01.877Z</time>
      </trkpt>
      <trkpt lat="59.051964953541756" lon="12.681875992566347">
        <ele>54.29</ele>
        <time>2025-02-03T12:37:13.764Z</time>
      </trkpt>
      <trkpt lat="59.05195095576346" lon="12.681762920692563">
        <ele>54.21</ele>
        <time>2025-02-03T12:37:25.652Z</time>
      </trkpt>
      <trkpt lat="59.05195699073374" lon="12.681638952344656">
        <ele>54.12</ele>
        <time>2025-02-03T12:37:37.541Z</time>
      </trkpt>
      <trkpt lat="59.05197291634977" lon="12.681513978168368">
        <ele>54.04</ele>
        <time>2025-02-03T12:37:49.431Z</time>
      </trkpt>
      <trkpt lat="59.05199294909835" lon="12.681385986506939">
        <ele>53.97</ele>
        <time>2025-02-03T12:38:01.322Z</time>
      </trkpt>
      <trkpt lat="59.05201197601855" lon="12.681251959875226">
        <ele>53.89</ele>
        <time>2025-02-03T12:38:13.214Z</time>
      </trkpt>
      <trkpt lat="59.05203293077648" lon="12.681117933243513">
        <ele>53.82</ele>
        <time>2025-02-03T12:38:25.107Z</time>
      </trkpt>
      <trkpt lat="59.05205698683858" lon="12.680984996259212">
        <ele>53.75</ele>
        <time>2025-02-03T12:38:37.002Z</time>
      </trkpt>
      <trkpt lat="59.05208095908165" lon="12.6808509696275">
        <ele>53.68</ele>
        <time>2025-02-03T12:38:48.898Z</time>
      </trkpt>
      <trkpt lat="59.05210291966796" lon="12.680715937167406">
        <ele>53.61</ele>
        <time>2025-02-03T12:39:00.795Z</time>
      </trkpt>
      <trkpt lat="59.05212596990168" lon="12.680580988526344">
        <ele>53.55</ele>
        <time>2025-02-03T12:39:12.693Z</time>
      </trkpt>
      <trkpt lat="59.05214994214475" lon="12.680448973551393">
        <ele>53.48</ele>
        <time>2025-02-03T12:39:24.592Z</time>
      </trkpt>
      <trkpt lat="59.05217592604458" lon="12.680317964404821">
        <ele>53.42</ele>
        <time>2025-02-03T12:39:36.492Z</time>
      </trkpt>
      <trkpt lat="59.05220299959183" lon="12.68018594942987">
        <ele>53.36</ele>
        <time>2025-02-03T12:39:48.394Z</time>
      </trkpt>
      <trkpt lat="59.05222998932004" lon="12.680053934454918">
        <ele>53.31</ele>
        <time>2025-02-03T12:40:00.297Z</time>
      </trkpt>
      <trkpt lat="59.05225899070501" lon="12.679922925308347">
        <ele>53.25</ele>
        <time>2025-02-03T12:40:12.201Z</time>
      </trkpt>
      <trkpt lat="59.05228899791837" lon="12.679793927818537">
        <ele>53.21</ele>
        <time>2025-02-03T12:40:24.106Z</time>
      </trkpt>
      <trkpt lat="59.05231892131269" lon="12.679665936157107">
        <ele>53.16</ele>
        <time>2025-02-03T12:40:36.012Z</time>
      </trkpt>
      <trkpt lat="59.052348928526044" lon="12.679537944495678">
        <ele>53.12</ele>
        <time>2025-02-03T12:40:47.919Z</time>
      </trkpt>
      <trkpt lat="59.05237994156778" lon="12.67941095866263">
        <ele>53.07</ele>
        <time>2025-02-03T12:40:59.828Z</time>
      </trkpt>
      <trkpt lat="59.052411960437894" lon="12.679284978657961">
        <ele>53.04</ele>
        <time>2025-02-03T12:41:11.738Z</time>
      </trkpt>
      <trkpt lat="59.05244498513639" lon="12.679159920662642">
        <ele>53.0</ele>
        <time>2025-02-03T12:41:23.649Z</time>
      </trkpt>
      <trkpt lat="59.05247692018747" lon="12.679037963971496">
        <ele>52.98</ele>
        <time>2025-02-03T12:41:35.561Z</time>
      </trkpt>
      <trkpt lat="59.05250893905759" lon="12.678915923461318">
        <ele>52.94</ele>
        <time>2025-02-03T12:41:47.474Z</time>
      </trkpt>
      <trkpt lat="59.05253894627094" lon="12.678792960941792">
        <ele>52.92</ele>
        <time>2025-02-03T12:41:59.388Z</time>
      </trkpt>
      <trkpt lat="59.052567947655916" lon="12.678670920431614">
        <ele>52.89</ele>
        <time>2025-02-03T12:42:11.303Z</time>
      </trkpt>
      <trkpt lat="59.05259694904089" lon="12.678549969568849">
        <ele>52.87</ele>
        <time>2025-02-03T12:42:23.219Z</time>
      </trkpt>
      <trkpt lat="59.05262494459748" lon="12.678430946543813">
        <ele>52.84</ele>
        <time>2025-02-03T12:42:35.137Z</time>
      </trkpt>
      <trkpt lat="59.052649922668934" lon="12.678310917690396">
        <ele>52.82</ele>
        <time>2025-02-03T12:42:47.056Z</time>
      </trkpt>
      <trkpt lat="59.052672972902656" lon="12.678191978484392">
        <ele>52.8</ele>
        <time>2025-02-03T12:42:58.976Z</time>
      </trkpt>
      <trkpt lat="59.052695939317346" lon="12.678074967116117">
        <ele>52.79</ele>
        <time>2025-02-03T12:43:10.897Z</time>
      </trkpt>
      <trkpt lat="59.0527209173888" lon="12.677959967404604">
        <ele>52.77</ele>
        <time>2025-02-03T12:43:22.819Z</time>
      </trkpt>
      <trkpt lat="59.0527449734509" lon="12.67784396186471">
        <ele>52.76</ele>
        <time>2025-02-03T12:43:34.742Z</time>
      </trkpt>
      <trkpt lat="59.05276492238045" lon="12.677718987688422">
        <ele>52.75</ele>
        <time>2025-02-03T12:43:46.666Z</time>
      </trkpt>
      <trkpt lat="59.05276995152235" lon="12.677587978541851">
        <ele>52.74</ele>
        <time>2025-02-03T12:43:58.591Z</time>
      </trkpt>
      <trkpt lat="59.05276391655207" lon="12.677447916939855">
        <ele>52.73</ele>
        <time>2025-02-03T12:44:10.517Z</time>
      </trkpt>
      <trkpt lat="59.0527449734509" lon="12.6773039996624">
        <ele>52.72</ele>
        <time>2025-02-03T12:44:22.444Z</time>
      </trkpt>
      <trkpt lat="59.05271898955107" lon="12.67715698108077">
        <ele>52.72</ele>
        <time>2025-02-03T12:44:34.373Z</time>
      </trkpt>
      <trkpt lat="59.05268697068095" lon="12.676998982205987">
        <ele>52.72</ele>
        <time>2025-02-03T12:44:46.303Z</time>
      </trkpt>
      <trkpt lat="59.05266794376075" lon="12.676845928654075">
        <ele>52.72</ele>
        <time>2025-02-03T12:44:58.234Z</time>
      </trkpt>
      <trkpt lat="59.052672972902656" lon="12.676714919507504">
        <ele>52.72</ele>
        <time>2025-02-03T12:45:10.166Z</time>
      </trkpt>
      <trkpt lat="59.05270298011601" lon="12.676610983908176">
        <ele>52.74</ele>
        <time>2025-02-03T12:45:22.099Z</time>
      </trkpt>
      <trkpt lat="59.05274698510766" lon="12.676547951996326">
        <ele>52.75</ele>
        <time>2025-02-03T12:45:34.033Z</time>
      </trkpt>
      <trkpt lat="59.052801970392466" lon="12.67651492729783">
        <ele>52.76</ele>
        <time>2025-02-03T12:45:45.968Z</time>
      </trkpt>
      <trkpt lat="59.052861984819174" lon="12.676488943397999">
        <ele>52.77</ele>
        <time>2025-02-03T12:45:57.904Z</time>
      </trkpt>
      <trkpt lat="59.05291898176074" lon="12.676459942013025">
        <ele>52.78</ele>
        <time>2025-02-03T12:46:09.841Z</time>
      </trkpt>
      <trkpt lat="59.052971955388784" lon="12.6764249894768">
        <ele>52.8</ele>
        <time>2025-02-03T12:46:21.779Z</time>
      </trkpt>
      <trkpt lat="59.05302199535072" lon="12.67638098448515">
        <ele>52.82</ele>
        <time>2025-02-03T12:46:33.718Z</time>
      </trkpt>
      <trkpt lat="59.053072957322" lon="12.676328932866454">
        <ele>52.84</ele>
        <time>2025-02-03T12:46:45.658Z</time>
      </trkpt>
      <trkpt lat="59.053119979798794" lon="12.676279982551932">
        <ele>52.86</ele>
        <time>2025-02-03T12:46:57.599Z</time>
      </trkpt>
      <trkpt lat="59.053167924284935" lon="12.676228936761618">
        <ele>52.88</ele>
        <time>2025-02-03T12:47:09.541Z</time>
      </trkpt>
      <trkpt lat="59.05321695841849" lon="12.676174957305193">
        <ele>52.91</ele>
        <time>2025-02-03T12:47:21.483Z</time>
      </trkpt>
      <trkpt lat="59.05326699838042" lon="12.676116954535246">
        <ele>52.94</ele>
        <time>2025-02-03T12:47:33.426Z</time>
      </trkpt>
      <trkpt lat="59.053316954523325" lon="12.676055934280157">
        <ele>52.97</ele>
        <time>2025-02-03T12:47:45.370Z</time>
      </trkpt>
      <trkpt lat="59.0533649828285" lon="12.675991980358958">
        <ele>53.0</ele>
        <time>2025-02-03T12:47:57.315Z</time>
      </trkpt>
      <trkpt lat="59.05341795645654" lon="12.675926936790347">
        <ele>53.03</ele>
        <time>2025-02-03T12:48:09.261Z</time>
      </trkpt>
      <trkpt lat="59.05347294174135" lon="12.675859965384007">
        <ele>53.06</ele>
        <time>2025-02-03T12:48:21.208Z</time>
      </trkpt>
      <trkpt lat="59.05352792702615" lon="12.675791988149285">
        <ele>53.08</ele>
        <time>2025-02-03T12:48:33.156Z</time>
      </trkpt>
      <trkpt lat="59.05358299612999" lon="12.675723927095532">
        <ele>53.11</ele>
        <time>2025-02-03T12:48:45.105Z</time>
      </trkpt>
      <trkpt lat="59.053637981414795" lon="12.67565393820405">
        <ele>53.14</ele>
        <time>2025-02-03T12:48:57.055Z</time>
      </trkpt>
      <trkpt lat="59.05369397252798" lon="12.675584955140948">
        <ele>53.17</ele>
        <time>2025-02-03T12:49:09.007Z</time>
      </trkpt>
      <trkpt lat="59.05374996364117" lon="12.675516977906227">
        <ele>53.21</ele>
        <time>2025-02-03T12:49:20.960Z</time>
      </trkpt>
      <trkpt lat="59.05381299555302" lon="12.675443971529603">
        <ele>53.24</ele>
        <time>2025-02-03T12:49:32.914Z</time>
      </trkpt>
      <trkpt lat="59.05387192033231" lon="12.675374988466501">
        <ele>53.27</ele>
        <time>2025-02-03T12:49:44.869Z</time>
      </trkpt>
      <trkpt lat="59.05392992310226" lon="12.675305921584368">
        <ele>53.31</ele>
        <time>2025-02-03T12:49:56.825Z</time>
      </trkpt>
      <trkpt lat="59.05398792587221" lon="12.675238950178027">
        <ele>53.34</ele>
        <time>2025-02-03T12:50:08.782Z</time>
      </trkpt>
      <trkpt lat="59.05404391698539" lon="12.675172984600067">
        <ele>53.38</ele>
        <time>2025-02-03T12:50:20.740Z</time>
      </trkpt>
      <trkpt lat="59.05409798026085" lon="12.675107941031456">
        <ele>53.42</ele>
        <time>2025-02-03T12:50:32.699Z</time>
      </trkpt>
      <trkpt lat="59.05415095388889" lon="12.675041975453496">
        <ele>53.46</ele>
        <time>2025-02-03T12:50:44.659Z</time>
      </trkpt>
      <trkpt lat="59.05420694500208" lon="12.674977937713265">
        <ele>53.51</ele>
        <time>2025-02-03T12:50:56.620Z</time>
      </trkpt>
      <trkpt lat="59.05425991863012" lon="12.674912977963686">
        <ele>53.55</ele>
        <time>2025-02-03T12:51:08.582Z</time>
      </trkpt>
      <trkpt lat="59.05431197024882" lon="12.674849946051836">
        <ele>53.6</ele>
        <time>2025-02-03T12:51:20.545Z</time>
      </trkpt>
      <trkpt lat="59.05436393804848" lon="12.674786997959018">
        <ele>53.64</ele>
        <time>2025-02-03T12:51:32.509Z</time>
      </trkpt>
      <trkpt lat="59.05441598966718" lon="12.674720948562026">
        <ele>53.69</ele>
        <time>2025-02-03T12:51:44.474Z</time>
      </trkpt>
      <trkpt lat="59.05446393415332" lon="12.674646936357021">
        <ele>53.73</ele>
        <time>2025-02-03T12:51:56.440Z</time>
      </trkpt>
      <trkpt lat="59.05450492165983" lon="12.674562949687243">
        <ele>53.78</ele>
        <time>2025-02-03T12:52:08.407Z</time>
      </trkpt>
      <trkpt lat="59.054539958015084" lon="12.67446898855269">
        <ele>53.83</ele>
        <time>2025-02-03T12:52:20.375Z</time>
      </trkpt>
      <trkpt lat="59.05457097105682" lon="12.67436496913433">
        <ele>53.88</ele>
        <time>2025-02-03T12:52:32.344Z</time>
      </trkpt>
      <trkpt lat="59.05459695495665" lon="12.674251981079578">
        <ele>53.93</ele>
        <time>2025-02-03T12:52:44.314Z</time>
      </trkpt>
      <trkpt lat="59.0546219330281" lon="12.674131952226162">
        <ele>53.99</ele>
        <time>2025-02-03T12:52:56.285Z</time>
      </trkpt>
      <trkpt lat="59.054644983261824" lon="12.674010917544365">
        <ele>54.04</ele>
        <time>2025-02-03T12:53:08.257Z</time>
      </trkpt>
      <trkpt lat="59.054669961333275" lon="12.673885943368077">
        <ele>54.09</ele>
        <time>2025-02-03T12:53:20.230Z</time>
      </trkpt>
      <trkpt lat="59.05469695106149" lon="12.67376096919179">
        <ele>54.15</ele>
        <time>2025-02-03T12:53:32.204Z</time>
      </trkpt>
      <trkpt lat="59.05472997575998" lon="12.673642951995134">
        <ele>54.2</ele>
        <time>2025-02-03T12:53:44.180Z</time>
      </trkpt>
      <trkpt lat="59.05476895160973" lon="12.673535998910666">
        <ele>54.26</ele>
        <time>2025-02-03T12:53:56.157Z</time>
      </trkpt>
      <trkpt lat="59.05481295660138" lon="12.673442959785461">
        <ele>54.31</ele>
        <time>2025-02-03T12:54:08.135Z</time>
      </trkpt>
      <trkpt lat="59.054859979078174" lon="12.673360984772444">
        <ele>54.37</ele>
        <time>2025-02-03T12:54:20.114Z</time>
      </trkpt>
      <trkpt lat="59.0548999607563" lon="12.67329292371869">
        <ele>54.42</ele>
        <time>2025-02-03T12:54:32.094Z</time>
      </trkpt>
      <trkpt lat="59.05493692494929" lon="12.673235926777124">
        <ele>54.48</ele>
        <time>2025-02-03T12:54:44.074Z</time>
      </trkpt>
      <trkpt lat="59.054970955476165" lon="12.673189993947744">
        <ele>54.54</ele>
        <time>2025-02-03T12:54:56.055Z</time>
      </trkpt>
      <trkpt lat="59.05500096268952" lon="12.673151940107346">
        <ele>54.6</ele>
        <time>2025-02-03T12:55:08.036Z</time>
      </trkpt>
      <trkpt lat="59.05502694658935" lon="12.673118999227881">
        <ele>54.66</ele>
        <time>2025-02-03T12:55:20.018Z</time>
      </trkpt>
      <trkpt lat="59.05505091883242" lon="12.673088992014527">
        <ele>54.72</ele>
        <time>2025-02-03T12:55:32.000Z</time>
      </trkpt>
      <trkpt lat="59.05507396906614" lon="12.673061918467283">
        <ele>54.78</ele>
        <time>2025-02-03T12:55:43.983Z</time>
      </trkpt>
      <trkpt lat="59.05509492382407" lon="12.67303098924458">
        <ele>54.83</ele>
        <time>2025-02-03T12:55:55.966Z</time>
      </trkpt>
      <trkpt lat="59.05511495657265" lon="12.672997964546084">
        <ele>54.9</ele>
        <time>2025-02-03T12:56:07.950Z</time>
      </trkpt>
      <trkpt lat="59.05513297766447" lon="12.672963934019208">
        <ele>54.96</ele>
        <time>2025-02-03T12:56:19.934Z</time>
      </trkpt>
      <trkpt lat="59.05514999292791" lon="12.672929987311363">
        <ele>55.02</ele>
        <time>2025-02-03T12:56:31.919Z</time>
      </trkpt>
      <trkpt lat="59.055167930200696" lon="12.672897968441248">
        <ele>55.08</ele>
        <time>2025-02-03T12:56:43.904Z</time>
      </trkpt>
      <trkpt lat="59.05518092215061" lon="12.672872990369797">
        <ele>55.14</ele>
        <time>2025-02-03T12:56:55.889Z</time>
      </trkpt>
      <trkpt lat="59.05518896877766" lon="12.67285798676312">
        <ele>55.21</ele>
        <time>2025-02-03T12:57:07.874Z</time>
      </trkpt>
      <trkpt lat="59.05519299209118" lon="12.672854969277978">
        <ele>55.27</ele>
        <time>2025-02-03T12:57:19.859Z</time>
      </trkpt>
      <trkpt lat="59.05519491992891" lon="12.672854969277978">
        <ele>55.33</ele>
        <time>2025-02-03T12:57:31.844Z</time>
      </trkpt>
      <trkpt lat="59.05521797016263" lon="12.672809958457947">
        <ele>55.4</ele>
        <time>2025-02-03T12:57:43.830Z</time>
      </trkpt>
      <trkpt lat="59.055227944627404" lon="12.672780957072973">
        <ele>55.47</ele>
        <time>2025-02-03T12:57:55.816Z</time>
      </trkpt>
      <trkpt lat="59.05523791909218" lon="12.672751955688">
        <ele>55.53</ele>
        <time>2025-02-03T12:58:07.803Z</time>
      </trkpt>
      <trkpt lat="59.055249989032745" lon="12.672722954303026">
        <ele>55.6</ele>
        <time>2025-02-03T12:58:19.790Z</time>
      </trkpt>
      <trkpt lat="59.05526398681104" lon="12.672690935432911">
        <ele>55.66</ele>
        <time>2025-02-03T12:58:31.777Z</time>
      </trkpt>
      <trkpt lat="59.05528091825545" lon="12.672651959583163">
        <ele>55.73</ele>
        <time>2025-02-03T12:58:43.765Z</time>
      </trkpt>
      <trkpt lat="59.055295921862125" lon="12.672611977905035">
        <ele>55.8</ele>
        <time>2025-02-03T12:58:55.753Z</time>
      </trkpt>
      <trkpt lat="59.055312937125564" lon="12.672566967085004">
        <ele>55.87</ele>
        <time>2025-02-03T12:59:07.742Z</time>
      </trkpt>
      <trkpt lat="59.05533196404576" lon="12.67251592129469">
        <ele>55.94</ele>
        <time>2025-02-03T12:59:19.731Z</time>
      </trkpt>
      <trkpt lat="59.05535099096596" lon="12.672456996515393">
        <ele>56.01</ele>
        <time>2025-02-03T12:59:31.721Z</time>
      </trkpt>
      <trkpt lat="59.05537194572389" lon="12.672394970431924">
        <ele>56.08</ele>
        <time>2025-02-03T12:59:43.711Z</time>
      </trkpt>
      <trkpt lat="59.05539499595761" lon="12.672330932691693">
        <ele>56.15</ele>
        <time>2025-02-03T12:59:55.702Z</time>
      </trkpt>
      <trkpt lat="59.055418968200684" lon="12.672262955456972">
        <ele>56.22</ele>
        <time>2025-02-03T13:00:07.694Z</time>
      </trkpt>
      <trkpt lat="59.055442940443754" lon="12.672190954908729">
        <ele>56.29</ele>
        <time>2025-02-03T13:00:19.686Z</time>
      </trkpt>
      <trkpt lat="59.055467918515205" lon="12.672113925218582">
        <ele>56.36</ele>
        <time>2025-02-03T13:00:31.679Z</time>
      </trkpt>
      <trkpt lat="59.05549499206245" lon="12.672033961862326">
        <ele>56.44</ele>
        <time>2025-02-03T13:00:43.673Z</time>
      </trkpt>
      <trkpt lat="59.05552399344742" lon="12.671952992677689">
        <ele>56.51</ele>
        <time>2025-02-03T13:00:55.668Z</time>
      </trkpt>
      <trkpt lat="59.055549977347255" lon="12.6718729455024">
        <ele>56.59</ele>
        <time>2025-02-03T13:01:07.663Z</time>
      </trkpt>
      <trkpt lat="59.05557696707547" lon="12.671790970489383">
        <ele>56.66</ele>
        <time>2025-02-03T13:01:19.659Z</time>
      </trkpt>
      <trkpt lat="59.0556079801172" lon="12.671707989647985">
        <ele>56.74</ele>
        <time>2025-02-03T13:01:31.656Z</time>
      </trkpt>
      <trkpt lat="59.05563899315894" lon="12.671623919159174">
        <ele>56.81</ele>
        <time>2025-02-03T13:01:43.654Z</time>
      </trkpt>
      <trkpt lat="59.05567092821002" lon="12.671537920832634">
        <ele>56.89</ele>
        <time>2025-02-03T13:01:55.653Z</time>
      </trkpt>
      <trkpt lat="59.055703952908516" lon="12.671451922506094">
        <ele>56.96</ele>
        <time>2025-02-03T13:02:07.653Z</time>
      </trkpt>
      <trkpt lat="59.05573496595025" lon="12.671366930007935">
        <ele>57.03</ele>
        <time>2025-02-03T13:02:19.654Z</time>
      </trkpt>
      <trkpt lat="59.055763967335224" lon="12.671280931681395">
        <ele>57.11</ele>
        <time>2025-02-03T13:02:31.655Z</time>
      </trkpt>
      <trkpt lat="59.0557929687202" lon="12.671194933354855">
        <ele>57.18</ele>
        <time>2025-02-03T13:02:43.657Z</time>
      </trkpt>
      <trkpt lat="59.05582398176193" lon="12.671106923371553">
        <ele>57.26</ele>
        <time>2025-02-03T13:02:55.660Z</time>
      </trkpt>
      <trkpt lat="59.05585499480367" lon="12.671018997207284">
        <ele>57.34</ele>
        <time>2025-02-03T13:03:07.664Z</time>
      </trkpt>
      <trkpt lat="59.05588692985475" lon="12.67092696391046">
        <ele>57.41</ele>
        <time>2025-02-03T13:03:19.669Z</time>
      </trkpt>
      <trkpt lat="59.055918948724866" lon="12.670835936442018">
        <ele>57.49</ele>
        <time>2025-02-03T13:03:31.675Z</time>
      </trkpt>
      <trkpt lat="59.05595197342336" lon="12.670745998620987">
        <ele>57.56</ele>
        <time>2025-02-03T13:03:43.682Z</time>
      </trkpt>
      <trkpt lat="59.05598592013121" lon="12.670654971152544">
        <ele>57.64</ele>
        <time>2025-02-03T13:03:55.690Z</time>
      </trkpt>
      <trkpt lat="59.056021962314844" lon="12.67056193202734">
        <ele>57.72</ele>
        <time>2025-02-03T13:04:07.699Z</time>
      </trkpt>
      <trkpt lat="59.05605792067945" lon="12.670465959236026">
        <ele>57.79</ele>
        <time>2025-02-03T13:04:19.709Z</time>
      </trkpt>
      <trkpt lat="59.05609295703471" lon="12.67036797478795">
        <ele>57.86</ele>
        <time>2025-02-03T13:04:31.720Z</time>
      </trkpt>
      <trkpt lat="59.056129921227694" lon="12.670265967026353">
        <ele>57.94</ele>
        <time>2025-02-03T13:04:43.732Z</time>
      </trkpt>
      <trkpt lat="59.05616696923971" lon="12.670160941779613">
        <ele>58.01</ele>
        <time>2025-02-03T13:04:55.745Z</time>
      </trkpt>
      <trkpt lat="59.05620099976659" lon="12.670050971210003">
        <ele>58.08</ele>
        <time>2025-02-03T13:05:07.759Z</time>
      </trkpt>
      <trkpt lat="59.05623293481767" lon="12.669932954013348">
        <ele>58.16</ele>
        <time>2025-02-03T13:05:19.774Z</time>
      </trkpt>
      <trkpt lat="59.05626394785941" lon="12.669809991493821">
        <ele>58.23</ele>
        <time>2025-02-03T13:05:31.790Z</time>
      </trkpt>
      <trkpt lat="59.056300995871425" lon="12.669684933498502">
        <ele>58.3</ele>
        <time>2025-02-03T13:05:43.807Z</time>
      </trkpt>
      <trkpt lat="59.056342989206314" lon="12.669558953493834">
        <ele>58.36</ele>
        <time>2025-02-03T13:05:55.825Z</time>
      </trkpt>
      <trkpt lat="59.056386994197965" lon="12.669434985145926">
        <ele>58.44</ele>
        <time>2025-02-03T13:06:07.845Z</time>
      </trkpt>
      <trkpt lat="59.056430999189615" lon="12.669307999312878">
        <ele>58.51</ele>
        <time>2025-02-03T13:06:19.866Z</time>
      </trkpt>
      <trkpt lat="59.056471986696124" lon="12.669177995994687">
        <ele>58.58</ele>
        <time>2025-02-03T13:06:31.888Z</time>
      </trkpt>
      <trkpt lat="59.05650895088911" lon="12.669043969362974">
        <ele>58.65</ele>
        <time>2025-02-03T13:06:43.911Z</time>
      </trkpt>
      <trkpt lat="59.05654499307275" lon="12.6689079310745">
        <ele>58.72</ele>
        <time>2025-02-03T13:06:55.936Z</time>
      </trkpt>
      <trkpt lat="59.056581957265735" lon="12.668772982433438">
        <ele>58.8</ele>
        <time>2025-02-03T13:07:07.962Z</time>
      </trkpt>
      <trkpt lat="59.05661892145872" lon="12.668636944144964">
        <ele>58.88</ele>
        <time>2025-02-03T13:07:19.989Z</time>
      </trkpt>
      <trkpt lat="59.0566529519856" lon="12.668499983847141">
        <ele>58.95</ele>
        <time>2025-02-03T13:07:32.017Z</time>
      </trkpt>
      <trkpt lat="59.05668396502733" lon="12.668360928073525">
        <ele>59.02</ele>
        <time>2025-02-03T13:07:44.047Z</time>
      </trkpt>
      <trkpt lat="59.056712966412306" lon="12.66822095029056">
        <ele>59.1</ele>
        <time>2025-02-03T13:07:56.078Z</time>
      </trkpt>
      <trkpt lat="59.0567409619689" lon="12.668079966679215">
        <ele>59.18</ele>
        <time>2025-02-03T13:08:08.110Z</time>
      </trkpt>
      <trkpt lat="59.05676795169711" lon="12.66793998889625">
        <ele>59.26</ele>
        <time>2025-02-03T13:08:20.143Z</time>
      </trkpt>
      <trkpt lat="59.05679494142532" lon="12.667801938951015">
        <ele>59.34</ele>
        <time>2025-02-03T13:08:32.178Z</time>
      </trkpt>
      <trkpt lat="59.056819919496775" lon="12.667664978653193">
        <ele>59.43</ele>
        <time>2025-02-03T13:08:44.214Z</time>
      </trkpt>
      <trkpt lat="59.05684598721564" lon="12.667528940364718">
        <ele>59.51</ele>
        <time>2025-02-03T13:08:56.251Z</time>
      </trkpt>
      <trkpt lat="59.05686995945871" lon="12.667393991723657">
        <ele>59.59</ele>
        <time>2025-02-03T13:09:08.289Z</time>
      </trkpt>
      <trkpt lat="59.05689192004502" lon="12.667259965091944">
        <ele>59.68</ele>
        <time>2025-02-03T13:09:20.328Z</time>
      </trkpt>
      <trkpt lat="59.05691295862198" lon="12.667126944288611">
        <ele>59.76</ele>
        <time>2025-02-03T13:09:32.369Z</time>
      </trkpt>
      <trkpt lat="59.05693299137056" lon="12.666993923485279">
        <ele>59.84</ele>
        <time>2025-02-03T13:09:44.411Z</time>
      </trkpt>
      <trkpt lat="59.056951934471726" lon="12.666861992329359">
        <ele>59.93</ele>
        <time>2025-02-03T13:09:56.454Z</time>
      </trkpt>
      <trkpt lat="59.056969955563545" lon="12.666724948212504">
        <ele>60.01</ele>
        <time>2025-02-03T13:10:08.498Z</time>
      </trkpt>
      <trkpt lat="59.056987976655364" lon="12.666583964601159">
        <ele>60.1</ele>
        <time>2025-02-03T13:10:20.543Z</time>
      </trkpt>
      <trkpt lat="59.0570049919188" lon="12.666438957676291">
        <ele>60.18</ele>
        <time>2025-02-03T13:10:32.589Z</time>
      </trkpt>
      <trkpt lat="59.05702192336321" lon="12.666295962408185">
        <ele>60.27</ele>
        <time>2025-02-03T13:10:44.637Z</time>
      </trkpt>
      <trkpt lat="59.057036926969886" lon="12.6661569904536">
        <ele>60.36</ele>
        <time>2025-02-03T13:10:56.686Z</time>
      </trkpt>
      <trkpt lat="59.0570499189198" lon="12.666022963821888">
        <ele>60.45</ele>
        <time>2025-02-03T13:11:08.736Z</time>
      </trkpt>
      <trkpt lat="59.05706198886037" lon="12.665888937190175">
        <ele>60.53</ele>
        <time>2025-02-03T13:11:20.787Z</time>
      </trkpt>
      <trkpt lat="59.05707296915352" lon="12.665755916386843">
        <ele>60.62</ele>
        <time>2025-02-03T13:11:32.839Z</time>
      </trkpt>
      <trkpt lat="59.0570829436183" lon="12.665622979402542">
        <ele>60.71</ele>
        <time>2025-02-03T13:11:44.892Z</time>
      </trkpt>
      <trkpt lat="59.05709199607372" lon="12.66549096442759">
        <ele>60.8</ele>
        <time>2025-02-03T13:11:56.946Z</time>
      </trkpt>
      <trkpt lat="59.057100964710116" lon="12.665357943624258">
        <ele>60.9</ele>
        <time>2025-02-03T13:12:09.002Z</time>
      </trkpt>
      <trkpt lat="59.05710892751813" lon="12.665223916992545">
        <ele>60.99</ele>
        <time>2025-02-03T13:12:21.059Z</time>
      </trkpt>
      <trkpt lat="59.05711395666003" lon="12.665090980008245">
        <ele>61.08</ele>
        <time>2025-02-03T13:12:33.117Z</time>
      </trkpt>
      <trkpt lat="59.057116974145174" lon="12.664957959204912">
        <ele>61.18</ele>
        <time>2025-02-03T13:12:45.176Z</time>
      </trkpt>
      <trkpt lat="59.057119991630316" lon="12.664828961715102">
        <ele>61.27</ele>
        <time>2025-02-03T13:12:57.236Z</time>
      </trkpt>
      <trkpt lat="59.057122925296426" lon="12.664701975882053">
        <ele>61.37</ele>
        <time>2025-02-03T13:13:09.297Z</time>
      </trkpt>
      <trkpt lat="59.05712493695319" lon="12.664576917886734">
        <ele>61.45</ele>
        <time>2025-02-03T13:13:21.359Z</time>
      </trkpt>
      <trkpt lat="59.05712694860995" lon="12.664450937882066">
        <ele>61.54</ele>
        <time>2025-02-03T13:13:33.422Z</time>
      </trkpt>
      <trkpt lat="59.05712795443833" lon="12.664323952049017">
        <ele>61.63</ele>
        <time>2025-02-03T13:13:45.486Z</time>
      </trkpt>
      <trkpt lat="59.05713097192347" lon="12.664194954559207">
        <ele>61.72</ele>
        <time>2025-02-03T13:13:57.551Z</time>
      </trkpt>
      <trkpt lat="59.05713298358023" lon="12.664064951241016">
        <ele>61.81</ele>
        <time>2025-02-03T13:14:09.617Z</time>
      </trkpt>
      <trkpt lat="59.05713398940861" lon="12.663932936266065">
        <ele>61.9</ele>
        <time>2025-02-03T13:14:21.684Z</time>
      </trkpt>
      <trkpt lat="59.05713499523699" lon="12.663801927119493">
        <ele>61.98</ele>
        <time>2025-02-03T13:14:33.752Z</time>
      </trkpt>
      <trkpt lat="59.05713591724634" lon="12.663670917972922">
        <ele>62.07</ele>
        <time>2025-02-03T13:14:45.821Z</time>
      </trkpt>
      <trkpt lat="59.05713692307472" lon="12.663541920483112">
        <ele>62.15</ele>
        <time>2025-02-03T13:14:57.892Z</time>
      </trkpt>
      <trkpt lat="59.05713692307472" lon="12.663414934650064">
        <ele>62.24</ele>
        <time>2025-02-03T13:15:09.964Z</time>
      </trkpt>
      <trkpt lat="59.05713499523699" lon="12.663289960473776">
        <ele>62.33</ele>
        <time>2025-02-03T13:15:22.037Z</time>
      </trkpt>
      <trkpt lat="59.05713298358023" lon="12.66316699795425">
        <ele>62.41</ele>
        <time>2025-02-03T13:15:34.111Z</time>
      </trkpt>
      <trkpt lat="59.05712594278157" lon="12.663043951615691">
        <ele>62.5</ele>
        <time>2025-02-03T13:15:46.186Z</time>
      </trkpt>
      <trkpt lat="59.057116974145174" lon="12.662921994924545">
        <ele>62.59</ele>
        <time>2025-02-03T13:15:58.262Z</time>
      </trkpt>
      <trkpt lat="59.05710297636688" lon="12.66280297189951">
        <ele>62.67</ele>
        <time>2025-02-03T13:16:10.339Z</time>
      </trkpt>
      <trkpt lat="59.05708897858858" lon="12.662681937217712">
        <ele>62.76</ele>
        <time>2025-02-03T13:16:22.417Z</time>
      </trkpt>
      <trkpt lat="59.0570829436183" lon="12.662555957213044">
        <ele>62.84</ele>
        <time>2025-02-03T13:16:34.496Z</time>
      </trkpt>
      <trkpt lat="59.05709291808307" lon="12.662427965551615">
        <ele>62.92</ele>
        <time>2025-02-03T13:16:46.576Z</time>
      </trkpt>
      <trkpt lat="59.057116974145174" lon="12.662301985546947">
        <ele>63.01</ele>
        <time>2025-02-03T13:16:58.657Z</time>
      </trkpt>
      <trkpt lat="59.05714496970177" lon="12.662178939208388">
        <ele>63.1</ele>
        <time>2025-02-03T13:17:10.739Z</time>
      </trkpt>
      <trkpt lat="59.05716793611646" lon="12.66205195337534">
        <ele>63.19</ele>
        <time>2025-02-03T13:17:22.822Z</time>
      </trkpt>
      <trkpt lat="59.057182939723134" lon="12.661921950057149">
        <ele>63.27</ele>
        <time>2025-02-03T13:17:34.906Z</time>
      </trkpt>
      <trkpt lat="59.05719392001629" lon="12.661784989759326">
        <ele>63.36</ele>
        <time>2025-02-03T13:17:46.991Z</time>
      </trkpt>
      <trkpt lat="59.05720196664333" lon="12.66164199449122">
        <ele>63.45</ele>
        <time>2025-02-03T13:17:59.078Z</time>
      </trkpt>
      <trkpt lat="59.057205989956856" lon="12.661500927060843">
        <ele>63.53</ele>
        <time>2025-02-03T13:18:11.166Z</time>
      </trkpt>
      <trkpt lat="59.05721294693649" lon="12.661361955106258">
        <ele>63.61</ele>
        <time>2025-02-03T13:18:23.255Z</time>
      </trkpt>
      <trkpt lat="59.05722199939191" lon="12.661225916817784">
        <ele>63.69</ele>
        <time>2025-02-03T13:18:35.345Z</time>
      </trkpt>
      <trkpt lat="59.05723096802831" lon="12.661091974005103">
        <ele>63.77</ele>
        <time>2025-02-03T13:18:47.436Z</time>
      </trkpt>
      <trkpt lat="59.05723792500794" lon="12.66095694154501">
        <ele>63.85</ele>
        <time>2025-02-03T13:18:59.528Z</time>
      </trkpt>
      <trkpt lat="59.057247983291745" lon="12.660818975418806">
        <ele>63.92</ele>
        <time>2025-02-03T13:19:11.621Z</time>
      </trkpt>
      <trkpt lat="59.05726097524166" lon="12.660678997635841">
        <ele>64.0</ele>
        <time>2025-02-03T13:19:23.716Z</time>
      </trkpt>
      <trkpt lat="59.05727497301996" lon="12.660535918548703">
        <ele>64.07</ele>
        <time>2025-02-03T13:19:35.812Z</time>
      </trkpt>
      <trkpt lat="59.05728796496987" lon="12.660389989614487">
        <ele>64.14</ele>
        <time>2025-02-03T13:19:47.909Z</time>
      </trkpt>
      <trkpt lat="59.05730296857655" lon="12.660240959376097">
        <ele>64.21</ele>
        <time>2025-02-03T13:20:00.007Z</time>
      </trkpt>
      <trkpt lat="59.05731897801161" lon="12.660090923309326">
        <ele>64.28</ele>
        <time>2025-02-03T13:20:12.107Z</time>
      </trkpt>
      <trkpt lat="59.057335993275046" lon="12.659938959404826">
        <ele>64.36</ele>
        <time>2025-02-03T13:20:24.208Z</time>
      </trkpt>
      <trkpt lat="59.057355942204595" lon="12.659786995500326">
        <ele>64.43</ele>
        <time>2025-02-03T13:20:36.310Z</time>
      </trkpt>
      <trkpt lat="59.057376980781555" lon="12.659635953605175">
        <ele>64.51</ele>
        <time>2025-02-03T13:20:48.413Z</time>
      </trkpt>
      <trkpt lat="59.05739592388272" lon="12.659482983872294">
        <ele>64.58</ele>
        <time>2025-02-03T13:21:00.518Z</time>
      </trkpt>
      <trkpt lat="59.0574159566313" lon="12.659329930320382">
        <ele>64.66</ele>
        <time>2025-02-03T13:21:12.624Z</time>
      </trkpt>
      <trkpt lat="59.05743598937988" lon="12.659178972244263">
        <ele>64.73</ele>
        <time>2025-02-03T13:21:24.731Z</time>
      </trkpt>
      <trkpt lat="59.05745794996619" lon="12.659029942005873">
        <ele>64.8</ele>
        <time>2025-02-03T13:21:36.840Z</time>
      </trkpt>
      <trkpt lat="59.05747999437153" lon="12.658881917595863">
        <ele>64.88</ele>
        <time>2025-02-03T13:21:48.950Z</time>
      </trkpt>
      <trkpt lat="59.057503966614604" lon="12.658735988661647">
        <ele>64.95</ele>
        <time>2025-02-03T13:22:01.061Z</time>
      </trkpt>
      <trkpt lat="59.057527938857675" lon="12.65859098173678">
        <ele>65.03</ele>
        <time>2025-02-03T13:22:13.173Z</time>
      </trkpt>
      <trkpt lat="59.057553922757506" lon="12.658446980640292">
        <ele>65.11</ele>
        <time>2025-02-03T13:22:25.287Z</time>
      </trkpt>
      <trkpt lat="59.05758099630475" lon="12.658304991200566">
        <ele>65.18</ele>
        <time>2025-02-03T13:22:37.402Z</time>
      </trkpt>
      <trkpt lat="59.05760798603296" lon="12.65816392377019">
        <ele>65.27</ele>
        <time>2025-02-03T13:22:49.518Z</time>
      </trkpt>
      <trkpt lat="59.057634975761175" lon="12.658021934330463">
        <ele>65.35</ele>
        <time>2025-02-03T13:23:01.635Z</time>
      </trkpt>
      <trkpt lat="59.05766095966101" lon="12.657878939062357">
        <ele>65.43</ele>
        <time>2025-02-03T13:23:13.754Z</time>
      </trkpt>
      <trkpt lat="59.05768694356084" lon="12.657737955451012">
        <ele>65.52</ele>
        <time>2025-02-03T13:23:25.874Z</time>
      </trkpt>
      <trkpt lat="59.05771292746067" lon="12.657597977668047">
        <ele>65.61</ele>
        <time>2025-02-03T13:23:37.995Z</time>
      </trkpt>
      <trkpt lat="59.05774092301726" lon="12.657459927722812">
        <ele>65.7</ele>
        <time>2025-02-03T13:23:50.117Z</time>
      </trkpt>
      <trkpt lat="59.05776992440224" lon="12.65732397325337">
        <ele>65.78</ele>
        <time>2025-02-03T13:24:02.241Z</time>
      </trkpt>
      <trkpt lat="59.05779993161559" lon="12.657190952450037">
        <ele>65.87</ele>
        <time>2025-02-03T13:24:14.366Z</time>
      </trkpt>
      <trkpt lat="59.057829938828945" lon="12.657059943303466">
        <ele>65.95</ele>
        <time>2025-02-03T13:24:26.492Z</time>
      </trkpt>
      <trkpt lat="59.05785894021392" lon="12.656928934156895">
        <ele>66.04</ele>
        <time>2025-02-03T13:24:38.619Z</time>
      </trkpt>
      <trkpt lat="59.05788995325565" lon="12.656799936667085">
        <ele>66.12</ele>
        <time>2025-02-03T13:24:50.747Z</time>
      </trkpt>
      <trkpt lat="59.05792096629739" lon="12.656672950834036">
        <ele>66.2</ele>
        <time>2025-02-03T13:25:02.876Z</time>
      </trkpt>
      <trkpt lat="59.05794996768236" lon="12.65655099414289">
        <ele>66.28</ele>
        <time>2025-02-03T13:25:15.007Z</time>
      </trkpt>
      <trkpt lat="59.057976957410574" lon="12.656432976946235">
        <ele>66.36</ele>
        <time>2025-02-03T13:25:27.139Z</time>
      </trkpt>
      <trkpt lat="59.05800495296717" lon="12.65631697140634">
        <ele>66.44</ele>
        <time>2025-02-03T13:25:39.272Z</time>
      </trkpt>
      <trkpt lat="59.05803294852376" lon="12.656202977523208">
        <ele>66.52</ele>
        <time>2025-02-03T13:25:51.406Z</time>
      </trkpt>
      <trkpt lat="59.05805792659521" lon="12.656088983640075">
        <ele>66.6</ele>
        <time>2025-02-03T13:26:03.541Z</time>
      </trkpt>
      <trkpt lat="59.05808097682893" lon="12.655981946736574">
        <ele>66.68</ele>
        <time>2025-02-03T13:26:15.677Z</time>
      </trkpt>
      <trkpt lat="59.05810193158686" lon="12.655878933146596">
        <ele>66.75</ele>
        <time>2025-02-03T13:26:27.814Z</time>
      </trkpt>
      <trkpt lat="59.05811098404229" lon="12.655784972012043">
        <ele>66.83</ele>
        <time>2025-02-03T13:26:39.951Z</time>
      </trkpt>
      <trkpt lat="59.058105954900384" lon="12.655691932886839">
        <ele>66.91</ele>
        <time>2025-02-03T13:26:52.089Z</time>
      </trkpt>
      <trkpt lat="59.05809095129371" lon="12.655597971752286">
        <ele>66.98</ele>
        <time>2025-02-03T13:27:04.228Z</time>
      </trkpt>
      <trkpt lat="59.0580689907074" lon="12.655495963990688">
        <ele>67.06</ele>
        <time>2025-02-03T13:27:16.368Z</time>
      </trkpt>
      <trkpt lat="59.05805298127234" lon="12.655378952622414">
        <ele>67.14</ele>
        <time>2025-02-03T13:27:28.509Z</time>
      </trkpt>
      <trkpt lat="59.05804795213044" lon="12.655247943475842">
        <ele>67.22</ele>
        <time>2025-02-03T13:27:40.651Z</time>
      </trkpt>
      <trkpt lat="59.0580549929291" lon="12.655109977349639">
        <ele>67.3</ele>
        <time>2025-02-03T13:27:52.794Z</time>
      </trkpt>
      <trkpt lat="59.05806798487902" lon="12.654965976253152">
        <ele>67.38</ele>
        <time>2025-02-03T13:28:04.938Z</time>
      </trkpt>
      <trkpt lat="59.05808491632342" lon="12.654817951843143">
        <ele>67.47</ele>
        <time>2025-02-03T13:28:17.084Z</time>
      </trkpt>
      <trkpt lat="59.058104949072" lon="12.654669927433133">
        <ele>67.55</ele>
        <time>2025-02-03T13:28:29.231Z</time>
      </trkpt>
      <trkpt lat="59.058125987648964" lon="12.654524920508265">
        <ele>67.64</ele>
        <time>2025-02-03T13:28:41.379Z</time>
      </trkpt>
      <trkpt lat="59.05814593657851" lon="12.65437999740243">
        <ele>67.73</ele>
        <time>2025-02-03T13:28:53.528Z</time>
      </trkpt>
      <trkpt lat="59.05816496349871" lon="12.654237924143672">
        <ele>67.82</ele>
        <time>2025-02-03T13:29:05.679Z</time>
      </trkpt>
      <trkpt lat="59.05818197876215" lon="12.654100963845849">
        <ele>67.9</ele>
        <time>2025-02-03T13:29:17.831Z</time>
      </trkpt>
      <trkpt lat="59.05819698236883" lon="12.653966937214136">
        <ele>67.98</ele>
        <time>2025-02-03T13:29:29.984Z</time>
      </trkpt>
      <trkpt lat="59.05820997431874" lon="12.653834922239184">
        <ele>68.07</ele>
        <time>2025-02-03T13:29:42.138Z</time>
      </trkpt>
      <trkpt lat="59.05822196044028" lon="12.653702991083264">
        <ele>68.16</ele>
        <time>2025-02-03T13:29:54.293Z</time>
      </trkpt>
      <trkpt lat="59.05823092907667" lon="12.65356695279479">
        <ele>68.25</ele>
        <time>2025-02-03T13:30:06.449Z</time>
      </trkpt>
      <trkpt lat="59.058234952390194" lon="12.653423957526684">
        <ele>68.34</ele>
        <time>2025-02-03T13:30:18.606Z</time>
      </trkpt>
      <trkpt lat="59.05824199318886" lon="12.653269981965423">
        <ele>68.43</ele>
        <time>2025-02-03T13:30:30.765Z</time>
      </trkpt>
      <trkpt lat="59.05824492685497" lon="12.653105948120356">
        <ele>68.51</ele>
        <time>2025-02-03T13:30:42.925Z</time>
      </trkpt>
      <trkpt lat="59.05824199318886" lon="12.652932945638895">
        <ele>68.6</ele>
        <time>2025-02-03T13:30:55.086Z</time>
      </trkpt>
      <trkpt lat="59.058236964046955" lon="12.652759943157434">
        <ele>68.7</ele>
        <time>2025-02-03T13:31:07.249Z</time>
      </trkpt>
      <trkpt lat="59.05822799541056" lon="12.652585934847593">
        <ele>68.79</ele>
        <time>2025-02-03T13:31:19.413Z</time>
      </trkpt>
      <trkpt lat="59.058215925469995" lon="12.652417961508036">
        <ele>68.89</ele>
        <time>2025-02-03T13:31:31.579Z</time>
      </trkpt>
      <trkpt lat="59.05820393934846" lon="12.65225493349135">
        <ele>68.99</ele>
        <time>2025-02-03T13:31:43.746Z</time>
      </trkpt>
      <trkpt lat="59.05818893574178" lon="12.652097940444946">
        <ele>69.09</ele>
        <time>2025-02-03T13:31:55.914Z</time>
      </trkpt>
      <trkpt lat="59.058171920478344" lon="12.651947988197207">
        <ele>69.19</ele>
        <time>2025-02-03T13:32:08.084Z</time>
      </trkpt>
      <trkpt lat="59.058152977377176" lon="12.65180692076683">
        <ele>69.28</ele>
        <time>2025-02-03T13:32:20.255Z</time>
      </trkpt>
      <trkpt lat="59.05813495628536" lon="12.65167691744864">
        <ele>69.38</ele>
        <time>2025-02-03T13:32:32.427Z</time>
      </trkpt>
      <trkpt lat="59.05811492353678" lon="12.651556972414255">
        <ele>69.48</ele>
        <time>2025-02-03T13:32:44.600Z</time>
      </trkpt>
      <trkpt lat="59.05809497460723" lon="12.651440966874361">
        <ele>69.58</ele>
        <time>2025-02-03T13:32:56.774Z</time>
      </trkpt>
      <trkpt lat="59.05807494185865" lon="12.651322949677706">
        <ele>69.68</ele>
        <time>2025-02-03T13:33:08.949Z</time>
      </trkpt>
      <trkpt lat="59.05805692076683" lon="12.651195963844657">
        <ele>69.79</ele>
        <time>2025-02-03T13:33:21.125Z</time>
      </trkpt>
      <trkpt lat="59.058039989322424" lon="12.651059925556183">
        <ele>69.88</ele>
        <time>2025-02-03T13:33:33.302Z</time>
      </trkpt>
      <trkpt lat="59.05802791938186" lon="12.650918941944838">
        <ele>69.98</ele>
        <time>2025-02-03T13:33:45.481Z</time>
      </trkpt>
      <trkpt lat="59.058022974058986" lon="12.650780975818634">
        <ele>70.08</ele>
        <time>2025-02-03T13:33:57.661Z</time>
      </trkpt>
      <trkpt lat="59.058023979887366" lon="12.65064493753016">
        <ele>70.19</ele>
        <time>2025-02-03T13:34:09.842Z</time>
      </trkpt>
      <trkpt lat="59.05803194269538" lon="12.650509988889098">
        <ele>70.29</ele>
        <time>2025-02-03T13:34:22.024Z</time>
      </trkpt>
      <trkpt lat="59.058039989322424" lon="12.650371938943863">
        <ele>70.39</ele>
        <time>2025-02-03T13:34:34.207Z</time>
      </trkpt>
      <trkpt lat="59.058045940473676" lon="12.650232966989279">
        <ele>70.5</ele>
        <time>2025-02-03T13:34:46.391Z</time>
      </trkpt>
      <trkpt lat="59.05804795213044" lon="12.650095922872424">
        <ele>70.61</ele>
        <time>2025-02-03T13:34:58.576Z</time>
      </trkpt>
      <trkpt lat="59.05804191716015" lon="12.649966925382614">
        <ele>70.72</ele>
        <time>2025-02-03T13:35:10.762Z</time>
      </trkpt>
      <trkpt lat="59.05802599154413" lon="12.64984698034823">
        <ele>70.83</ele>
        <time>2025-02-03T13:35:22.949Z</time>
      </trkpt>
      <trkpt lat="59.05799891799688" lon="12.649735920131207">
        <ele>70.94</ele>
        <time>2025-02-03T13:35:35.137Z</time>
      </trkpt>
      <trkpt lat="59.057960947975516" lon="12.64963299036026">
        <ele>71.05</ele>
        <time>2025-02-03T13:35:47.327Z</time>
      </trkpt>
      <trkpt lat="59.05790998600423" lon="12.649541962891817">
        <ele>71.17</ele>
        <time>2025-02-03T13:35:59.518Z</time>
      </trkpt>
      <trkpt lat="59.057848965749145" lon="12.649466944858432">
        <ele>71.28</ele>
        <time>2025-02-03T13:36:11.710Z</time>
      </trkpt>
      <trkpt lat="59.05778098851442" lon="12.649411959573627">
        <ele>71.39</ele>
        <time>2025-02-03T13:36:23.903Z</time>
      </trkpt>
      <trkpt lat="59.05771192163229" lon="12.649365942925215">
        <ele>71.5</ele>
        <time>2025-02-03T13:36:36.097Z</time>
      </trkpt>
      <trkpt lat="59.05764293856919" lon="12.649324955418706">
        <ele>71.61</ele>
        <time>2025-02-03T13:36:48.292Z</time>
      </trkpt>
      <trkpt lat="59.05757496133447" lon="12.649284973740578">
        <ele>71.72</ele>
        <time>2025-02-03T13:37:00.488Z</time>
      </trkpt>
      <trkpt lat="59.057505978271365" lon="12.64924499206245">
        <ele>71.83</ele>
        <time>2025-02-03T13:37:12.686Z</time>
      </trkpt>
      <trkpt lat="59.05743699520826" lon="12.64920199289918">
        <ele>71.94</ele>
        <time>2025-02-03T13:37:24.885Z</time>
      </trkpt>
      <trkpt lat="59.05736792832613" lon="12.64915999956429">
        <ele>72.05</ele>
        <time>2025-02-03T13:37:37.085Z</time>
      </trkpt>
      <trkpt lat="59.05729894526303" lon="12.64911993406713">
        <ele>72.15</ele>
        <time>2025-02-03T13:37:49.286Z</time>
      </trkpt>
      <trkpt lat="59.057227950543165" lon="12.649084981530905">
        <ele>72.26</ele>
        <time>2025-02-03T13:38:01.488Z</time>
      </trkpt>
      <trkpt lat="59.05715393833816" lon="12.64905296266079">
        <ele>72.36</ele>
        <time>2025-02-03T13:38:13.691Z</time>
      </trkpt>
      <trkpt lat="59.057077998295426" lon="12.649020943790674">
        <ele>72.46</ele>
        <time>2025-02-03T13:38:25.896Z</time>
      </trkpt>
      <trkpt lat="59.05699895694852" lon="12.648994959890842">
        <ele>72.56</ele>
        <time>2025-02-03T13:38:38.102Z</time>
      </trkpt>
      <trkpt lat="59.0569169819355" lon="12.648975932970643">
        <ele>72.66</ele>
        <time>2025-02-03T13:38:50.309Z</time>
      </trkpt>
      <trkpt lat="59.05683492310345" lon="12.648961935192347">
        <ele>72.76</ele>
        <time>2025-02-03T13:39:02.518Z</time>
      </trkpt>
      <trkpt lat="59.056752948090434" lon="12.648950954899192">
        <ele>72.85</ele>
        <time>2025-02-03T13:39:14.728Z</time>
      </trkpt>
      <trkpt lat="59.056669967249036" lon="12.64894399791956">
        <ele>72.95</ele>
        <time>2025-02-03T13:39:26.939Z</time>
      </trkpt>
      <trkpt lat="59.05658698640764" lon="12.648940980434418">
        <ele>73.04</ele>
        <time>2025-02-03T13:39:39.152Z</time>
      </trkpt>
      <trkpt lat="59.05650492757559" lon="12.648935951292515">
        <ele>73.14</ele>
        <time>2025-02-03T13:39:51.366Z</time>
      </trkpt>
      <trkpt lat="59.05642395839095" lon="12.64892396517098">
        <ele>73.24</ele>
        <time>2025-02-03T13:40:03.581Z</time>
      </trkpt>
      <trkpt lat="59.056343995034695" lon="12.64890594407916">
        <ele>73.33</ele>
        <time>2025-02-03T13:40:15.798Z</time>
      </trkpt>
      <trkpt lat="59.05626595951617" lon="12.64888096600771">
        <ele>73.43</ele>
        <time>2025-02-03T13:40:28.016Z</time>
      </trkpt>
      <trkpt lat="59.05618892982602" lon="12.648850958794355">
        <ele>73.53</ele>
        <time>2025-02-03T13:40:40.235Z</time>
      </trkpt>
      <trkpt lat="59.05611198395491" lon="12.64881893992424">
        <ele>73.63</ele>
        <time>2025-02-03T13:40:52.455Z</time>
      </trkpt>
      <trkpt lat="59.05603495426476" lon="12.648787926882505">
        <ele>73.73</ele>
        <time>2025-02-03T13:41:04.677Z</time>
      </trkpt>
      <trkpt lat="59.05595691874623" lon="12.648756997659802">
        <ele>73.83</ele>
        <time>2025-02-03T13:41:16.900Z</time>
      </trkpt>
      <trkpt lat="59.05587796121836" lon="12.648725984618068">
        <ele>73.93</ele>
        <time>2025-02-03T13:41:29.124Z</time>
      </trkpt>
      <trkpt lat="59.05580093152821" lon="12.648695977404714">
        <ele>74.03</ele>
        <time>2025-02-03T13:41:41.349Z</time>
      </trkpt>
      <trkpt lat="59.055723985657096" lon="12.648662952706218">
        <ele>74.12</ele>
        <time>2025-02-03T13:41:53.576Z</time>
      </trkpt>
      <trkpt lat="59.05564796179533" lon="12.648630933836102">
        <ele>74.22</ele>
        <time>2025-02-03T13:42:05.804Z</time>
      </trkpt>
      <trkpt lat="59.055571937933564" lon="12.648598998785019">
        <ele>74.31</ele>
        <time>2025-02-03T13:42:18.033Z</time>
      </trkpt>
      <trkpt lat="59.05549792572856" lon="12.648567985743284">
        <ele>74.39</ele>
        <time>2025-02-03T13:42:30.263Z</time>
      </trkpt>
      <trkpt lat="59.055421985685825" lon="12.64853797852993">
        <ele>74.48</ele>
        <time>2025-02-03T13:42:42.495Z</time>
      </trkpt>
      <trkpt lat="59.05534696765244" lon="12.648508977144957">
        <ele>74.57</ele>
        <time>2025-02-03T13:42:54.728Z</time>
      </trkpt>
      <trkpt lat="59.055271949619055" lon="12.648478969931602">
        <ele>74.66</ele>
        <time>2025-02-03T13:43:06.962Z</time>
      </trkpt>
      <trkpt lat="59.05519793741405" lon="12.64845097437501">
        <ele>74.74</ele>
        <time>2025-02-03T13:43:19.197Z</time>
      </trkpt>
      <trkpt lat="59.055123925209045" lon="12.648422978818417">
        <ele>74.82</ele>
        <time>2025-02-03T13:43:31.434Z</time>
      </trkpt>
      <trkpt lat="59.05505091883242" lon="12.648392971605062">
        <ele>74.9</ele>
        <time>2025-02-03T13:43:43.672Z</time>
      </trkpt>
      <trkpt lat="59.05497699044645" lon="12.648362964391708">
        <ele>74.99</ele>
        <time>2025-02-03T13:43:55.911Z</time>
      </trkpt>
      <trkpt lat="59.054903984069824" lon="12.648331951349974">
        <ele>75.06</ele>
        <time>2025-02-03T13:44:08.151Z</time>
      </trkpt>
      <trkpt lat="59.05483298934996" lon="12.648299932479858">
        <ele>75.14</ele>
        <time>2025-02-03T13:44:20.392Z</time>
      </trkpt>
      <trkpt lat="59.05476291663945" lon="12.648268919438124">
        <ele>75.21</ele>
        <time>2025-02-03T13:44:32.634Z</time>
      </trkpt>
      <trkpt lat="59.054692927747965" lon="12.648238996043801">
        <ele>75.28</ele>
        <time>2025-02-03T13:44:44.878Z</time>
      </trkpt>
      <trkpt lat="59.05462394468486" lon="12.648210916668177">
        <ele>75.35</ele>
        <time>2025-02-03T13:44:57.123Z</time>
      </trkpt>
      <trkpt lat="59.05455496162176" lon="12.648181999102235">
        <ele>75.41</ele>
        <time>2025-02-03T13:45:09.369Z</time>
      </trkpt>
      <trkpt lat="59.05448497273028" lon="12.64815199188888">
        <ele>75.47</ele>
        <time>2025-02-03T13:45:21.616Z</time>
      </trkpt>
      <trkpt lat="59.054412972182035" lon="12.648126929998398">
        <ele>75.52</ele>
        <time>2025-02-03T13:45:33.864Z</time>
      </trkpt>
      <trkpt lat="59.05434197746217" lon="12.64810899272561">
        <ele>75.57</ele>
        <time>2025-02-03T13:45:46.113Z</time>
      </trkpt>
      <trkpt lat="59.05426997691393" lon="12.648097928613424">
        <ele>75.62</ele>
        <time>2025-02-03T13:45:58.363Z</time>
      </trkpt>
      <trkpt lat="59.054195964708924" lon="12.648100946098566">
        <ele>75.66</ele>
        <time>2025-02-03T13:46:10.615Z</time>
      </trkpt>
      <trkpt lat="59.05412195250392" lon="12.648117961362004">
        <ele>75.7</ele>
        <time>2025-02-03T13:46:22.868Z</time>
      </trkpt>
      <trkpt lat="59.054047940298915" lon="12.648147968575358">
        <ele>75.73</ele>
        <time>2025-02-03T13:46:35.122Z</time>
      </trkpt>
      <trkpt lat="59.05397493392229" lon="12.648188956081867">
        <ele>75.77</ele>
        <time>2025-02-03T13:46:47.377Z</time>
      </trkpt>
      <trkpt lat="59.05390192754567" lon="12.64823698438704">
        <ele>75.79</ele>
        <time>2025-02-03T13:46:59.634Z</time>
      </trkpt>
      <trkpt lat="59.05382992699742" lon="12.648292975500226">
        <ele>75.82</ele>
        <time>2025-02-03T13:47:11.892Z</time>
      </trkpt>
      <trkpt lat="59.05375792644918" lon="12.648353995755315">
        <ele>75.84</ele>
        <time>2025-02-03T13:47:24.151Z</time>
      </trkpt>
      <trkpt lat="59.05368693172932" lon="12.648418955504894">
        <ele>75.86</ele>
        <time>2025-02-03T13:47:36.411Z</time>
      </trkpt>
      <trkpt lat="59.053615937009454" lon="12.648481987416744">
        <ele>75.87</ele>
        <time>2025-02-03T13:47:48.673Z</time>
      </trkpt>
      <trkpt lat="59.05354393646121" lon="12.648544935509562">
        <ele>75.89</ele>
        <time>2025-02-03T13:48:00.936Z</time>
      </trkpt>
      <trkpt lat="59.05347294174135" lon="12.648605955764651">
        <ele>75.9</ele>
        <time>2025-02-03T13:48:13.200Z</time>
      </trkpt>
      <trkpt lat="59.053400941193104" lon="12.648662952706218">
        <ele>75.92</ele>
        <time>2025-02-03T13:48:25.465Z</time>
      </trkpt>
      <trkpt lat="59.05332894064486" lon="12.648720955476165">
        <ele>75.93</ele>
        <time>2025-02-03T13:48:37.732Z</time>
      </trkpt>
      <trkpt lat="59.05325895175338" lon="12.648779964074492">
        <ele>75.94</ele>
        <time>2025-02-03T13:48:50.000Z</time>
      </trkpt>
      <trkpt lat="59.053188962861896" lon="12.648834949359298">
        <ele>75.94</ele>
        <time>2025-02-03T13:49:02.269Z</time>
      </trkpt>
      <trkpt lat="59.053121991455555" lon="12.648888928815722">
        <ele>75.94</ele>
        <time>2025-02-03T13:49:14.539Z</time>
      </trkpt>
      <trkpt lat="59.053056947886944" lon="12.648939974606037">
        <ele>75.95</ele>
        <time>2025-02-03T13:49:26.810Z</time>
      </trkpt>
      <trkpt lat="59.052993999794126" lon="12.648985991254449">
        <ele>75.95</ele>
        <time>2025-02-03T13:49:39.082Z</time>
      </trkpt>
      <trkpt lat="59.05293297953904" lon="12.649028990417719">
        <ele>75.94</ele>
        <time>2025-02-03T13:49:51.355Z</time>
      </trkpt>
      <trkpt lat="59.05287497676909" lon="12.649067966267467">
        <ele>75.94</ele>
        <time>2025-02-03T13:50:03.629Z</time>
      </trkpt>
      <trkpt lat="59.052820997312665" lon="12.649102918803692">
        <ele>75.92</ele>
        <time>2025-02-03T13:50:15.904Z</time>
      </trkpt>
      <trkpt lat="59.05276894569397" lon="12.64913896098733">
        <ele>75.91</ele>
        <time>2025-02-03T13:50:28.180Z</time>
      </trkpt>
      <trkpt lat="59.05272192321718" lon="12.649171985685825">
        <ele>75.89</ele>
        <time>2025-02-03T13:50:40.457Z</time>
      </trkpt>
      <trkpt lat="59.05267992988229" lon="12.649208949878812">
        <ele>75.87</ele>
        <time>2025-02-03T13:50:52.735Z</time>
      </trkpt>
      <trkpt lat="59.05263693071902" lon="12.649251949042082">
        <ele>75.85</ele>
        <time>2025-02-03T13:51:05.014Z</time>
      </trkpt>
      <trkpt lat="59.05259393155575" lon="12.649300983175635">
        <ele>75.82</ele>
        <time>2025-02-03T13:51:17.293Z</time>
      </trkpt>
      <trkpt lat="59.05255093239248" lon="12.64935395680368">
        <ele>75.8</ele>
        <time>2025-02-03T13:51:29.573Z</time>
      </trkpt>
      <trkpt lat="59.05250994488597" lon="12.649406930431724">
        <ele>75.77</ele>
        <time>2025-02-03T13:51:41.854Z</time>
      </trkpt>
      <trkpt lat="59.05246795155108" lon="12.6494599878788">
        <ele>75.73</ele>
        <time>2025-02-03T13:51:54.136Z</time>
      </trkpt>
      <trkpt lat="59.05242696404457" lon="12.649515978991985">
        <ele>75.69</ele>
        <time>2025-02-03T13:52:06.419Z</time>
      </trkpt>
      <trkpt lat="59.05238195322454" lon="12.64956995844841">
        <ele>75.65</ele>
        <time>2025-02-03T13:52:18.702Z</time>
      </trkpt>
      <trkpt lat="59.052332919090986" lon="12.649622932076454">
        <ele>75.6</ele>
        <time>2025-02-03T13:52:30.986Z</time>
      </trkpt>
      <trkpt lat="59.052284974604845" lon="12.64967699535191">
        <ele>75.55</ele>
        <time>2025-02-03T13:52:43.271Z</time>
      </trkpt>
      <trkpt lat="59.05223392881453" lon="12.649726951494813">
        <ele>75.5</ele>
        <time>2025-02-03T13:52:55.557Z</time>
      </trkpt>
      <trkpt lat="59.052177937701344" lon="12.649772968143225">
        <ele>75.44</ele>
        <time>2025-02-03T13:53:07.844Z</time>
      </trkpt>
      <trkpt lat="59.052114989608526" lon="12.649816973134875">
        <ele>75.39</ele>
        <time>2025-02-03T13:53:20.132Z</time>
      </trkpt>
      <trkpt lat="59.052049946039915" lon="12.649865923449397">
        <ele>75.33</ele>
        <time>2025-02-03T13:53:32.421Z</time>
      </trkpt>
      <trkpt lat="59.051984986290336" lon="12.649908922612667">
        <ele>75.27</ele>
        <time>2025-02-03T13:53:44.711Z</time>
      </trkpt>
      <trkpt lat="59.05191793106496" lon="12.649948988109827">
        <ele>75.2</ele>
        <time>2025-02-03T13:53:57.002Z</time>
      </trkpt>
      <trkpt lat="59.05184995383024" lon="12.649985952302814">
        <ele>75.14</ele>
        <time>2025-02-03T13:54:09.295Z</time>
      </trkpt>
      <trkpt lat="59.05177996493876" lon="12.650024928152561">
        <ele>75.07</ele>
        <time>2025-02-03T13:54:21.589Z</time>
      </trkpt>
      <trkpt lat="59.051706958562136" lon="12.650058958679438">
        <ele>74.99</ele>
        <time>2025-02-03T13:54:33.884Z</time>
      </trkpt>
      <trkpt lat="59.05163495801389" lon="12.650083936750889">
        <ele>74.91</ele>
        <time>2025-02-03T13:54:46.180Z</time>
      </trkpt>
      <trkpt lat="59.05155993998051" lon="12.650098940357566">
        <ele>74.83</ele>
        <time>2025-02-03T13:54:58.477Z</time>
      </trkpt>
      <trkpt lat="59.05148198828101" lon="12.650108998641372">
        <ele>74.75</ele>
        <time>2025-02-03T13:55:10.776Z</time>
      </trkpt>
      <trkpt lat="59.05140194110572" lon="12.650110926479101">
        <ele>74.66</ele>
        <time>2025-02-03T13:55:23.076Z</time>
      </trkpt>
      <trkpt lat="59.0513149369508" lon="12.65010992065072">
        <ele>74.57</ele>
        <time>2025-02-03T13:55:35.377Z</time>
      </trkpt>
      <trkpt lat="59.05122499912977" lon="12.650101957842708">
        <ele>74.47</ele>
        <time>2025-02-03T13:55:47.680Z</time>
      </trkpt>
      <trkpt lat="59.05112994834781" lon="12.650089971721172">
        <ele>74.37</ele>
        <time>2025-02-03T13:55:59.984Z</time>
      </trkpt>
      <trkpt lat="59.05103397555649" lon="12.650074968114495">
        <ele>74.27</ele>
        <time>2025-02-03T13:56:12.290Z</time>
      </trkpt>
      <trkpt lat="59.05092895030975" lon="12.650057952851057">
        <ele>74.16</ele>
        <time>2025-02-03T13:56:24.597Z</time>
      </trkpt>
      <trkpt lat="59.050824930891395" lon="12.650036998093128">
        <ele>74.06</ele>
        <time>2025-02-03T13:56:36.906Z</time>
      </trkpt>
      <trkpt lat="59.05072099529207" lon="12.650013947859406">
        <ele>73.96</ele>
        <time>2025-02-03T13:56:49.217Z</time>
      </trkpt>
      <trkpt lat="59.05061496421695" lon="12.649995926767588">
        <ele>73.84</ele>
        <time>2025-02-03T13:57:01.530Z</time>
      </trkpt>
      <trkpt lat="59.05050993897021" lon="12.649985952302814">
        <ele>73.73</ele>
        <time>2025-02-03T13:57:13.844Z</time>
      </trkpt>
      <trkpt lat="59.05040399171412" lon="12.649981928989291">
        <ele>73.61</ele>
        <time>2025-02-03T13:57:26.160Z</time>
      </trkpt>
      <trkpt lat="59.05029896646738" lon="12.649987963959575">
        <ele>73.51</ele>
        <time>2025-02-03T13:57:38.478Z</time>
      </trkpt>
      <trkpt lat="59.05019494704902" lon="12.650002967566252">
        <ele>73.41</ele>
        <time>2025-02-03T13:57:50.797Z</time>
      </trkpt>
      <trkpt lat="59.05008992180228" lon="12.65002392232418">
        <ele>73.3</ele>
        <time>2025-02-03T13:58:03.118Z</time>
      </trkpt>
      <trkpt lat="59.049983974546194" lon="12.650044960901141">
        <ele>73.2</ele>
        <time>2025-02-03T13:58:15.441Z</time>
      </trkpt>
      <trkpt lat="59.049878949299455" lon="12.65006692148745">
        <ele>73.09</ele>
        <time>2025-02-03T13:58:27.765Z</time>
      </trkpt>
      <trkpt lat="59.049773924052715" lon="12.650091983377934">
        <ele>72.98</ele>
        <time>2025-02-03T13:58:40.091Z</time>
      </trkpt>
      <trkpt lat="59.04966998845339" lon="12.650115955621004">
        <ele>72.87</ele>
        <time>2025-02-03T13:58:52.419Z</time>
      </trkpt>
      <trkpt lat="59.04956496320665" lon="12.650135988369584">
        <ele>72.76</ele>
        <time>2025-02-03T13:59:04.748Z</time>
      </trkpt>
      <trkpt lat="59.04946094378829" lon="12.65015291981399">
        <ele>72.65</ele>
        <time>2025-02-03T13:59:17.079Z</time>
      </trkpt>
      <trkpt lat="59.04935793019831" lon="12.650167923420668">
        <ele>72.54</ele>
        <time>2025-02-03T13:59:29.412Z</time>
      </trkpt>
      <trkpt lat="59.049255922436714" lon="12.650178987532854">
        <ele>72.43</ele>
        <time>2025-02-03T13:59:41.746Z</time>
      </trkpt>
      <trkpt lat="59.04915399849415" lon="12.65019097365439">
        <ele>72.32</ele>
        <time>2025-02-03T13:59:54.082Z</time>
      </trkpt>
      <trkpt lat="59.04905391857028" lon="12.650207988917828">
        <ele>72.21</ele>
        <time>2025-02-03T14:00:06.420Z</time>
      </trkpt>
      <trkpt lat="59.04895291663706" lon="12.650230955332518">
        <ele>72.11</ele>
        <time>2025-02-03T14:00:18.759Z</time>
      </trkpt>
      <trkpt lat="59.04885292053223" lon="12.650261968374252">
        <ele>72.0</ele>
        <time>2025-02-03T14:00:31.100Z</time>
      </trkpt>
      <trkpt lat="59.04875393025577" lon="12.650302955880761">
        <ele>71.9</ele>
        <time>2025-02-03T14:00:43.443Z</time>
      </trkpt>
      <trkpt lat="59.04865795746446" lon="12.650352995842695">
        <ele>71.79</ele>
        <time>2025-02-03T14:00:55.787Z</time>
      </trkpt>
      <trkpt lat="59.04856592416763" lon="12.650408986955881">
        <ele>71.69</ele>
        <time>2025-02-03T14:01:08.133Z</time>
      </trkpt>
      <trkpt lat="59.048477998003364" lon="12.650468917563558">
        <ele>71.59</ele>
        <time>2025-02-03T14:01:20.480Z</time>
      </trkpt>
      <trkpt lat="59.048395939171314" lon="12.65053597278893">
        <ele>71.49</ele>
        <time>2025-02-03T14:01:32.829Z</time>
      </trkpt>
      <trkpt lat="59.04831698164344" lon="12.650607973337173">
        <ele>71.39</ele>
        <time>2025-02-03T14:01:45.179Z</time>
      </trkpt>
      <trkpt lat="59.04824095778167" lon="12.650680979713798">
        <ele>71.29</ele>
        <time>2025-02-03T14:01:57.530Z</time>
      </trkpt>
      <trkpt lat="59.04816694557667" lon="12.65075197443366">
        <ele>71.2</ele>
        <time>2025-02-03T14:02:09.883Z</time>
      </trkpt>
      <trkpt lat="59.0480909217149" lon="12.65081592835486">
        <ele>71.11</ele>
        <time>2025-02-03T14:02:22.237Z</time>
      </trkpt>
      <trkpt lat="59.04801598750055" lon="12.650871919468045">
        <ele>71.03</ele>
        <time>2025-02-03T14:02:34.592Z</time>
      </trkpt>
      <trkpt lat="59.04794096946716" lon="12.650918941944838">
        <ele>70.94</ele>
        <time>2025-02-03T14:02:46.949Z</time>
      </trkpt>
      <trkpt lat="59.04786595143378" lon="12.650958923622966">
        <ele>70.85</ele>
        <time>2025-02-03T14:02:59.307Z</time>
      </trkpt>
      <trkpt lat="59.04778992757201" lon="12.650993959978223">
        <ele>70.77</ele>
        <time>2025-02-03T14:03:11.666Z</time>
      </trkpt>
      <trkpt lat="59.04771792702377" lon="12.651023967191577">
        <ele>70.68</ele>
        <time>2025-02-03T14:03:24.026Z</time>
      </trkpt>
      <trkpt lat="59.047645926475525" lon="12.651048945263028">
        <ele>70.59</ele>
        <time>2025-02-03T14:03:36.387Z</time>
      </trkpt>
      <trkpt lat="59.04757199808955" lon="12.65107098966837">
        <ele>70.5</ele>
        <time>2025-02-03T14:03:48.750Z</time>
      </trkpt>
      <trkpt lat="59.047491950914264" lon="12.651085993275046">
        <ele>70.4</ele>
        <time>2025-02-03T14:04:01.114Z</time>
      </trkpt>
      <trkpt lat="59.047406958416104" lon="12.651089932769537">
        <ele>70.31</ele>
        <time>2025-02-03T14:04:13.479Z</time>
      </trkpt>
      <trkpt lat="59.04731794260442" lon="12.65107199549675">
        <ele>70.22</ele>
        <time>2025-02-03T14:04:25.846Z</time>
      </trkpt>
      <trkpt lat="59.04722599312663" lon="12.651026984676719">
        <ele>70.14</ele>
        <time>2025-02-03T14:04:38.214Z</time>
      </trkpt>
      <trkpt lat="59.04713395982981" lon="12.650957917794585">
        <ele>70.05</ele>
        <time>2025-02-03T14:04:50.584Z</time>
      </trkpt>
      <trkpt lat="59.0470409207046" lon="12.650869991630316">
        <ele>69.97</ele>
        <time>2025-02-03T14:05:02.956Z</time>
      </trkpt>
      <trkpt lat="59.04694997705519" lon="12.650764966383576">
        <ele>69.88</ele>
        <time>2025-02-03T14:05:15.329Z</time>
      </trkpt>
      <trkpt lat="59.04685794375837" lon="12.65064393170178">
        <ele>69.8</ele>
        <time>2025-02-03T14:05:27.704Z</time>
      </trkpt>
      <trkpt lat="59.046764988452196" lon="12.65051694586873">
        <ele>69.72</ele>
        <time>2025-02-03T14:05:40.081Z</time>
      </trkpt>
      <trkpt lat="59.04666893184185" lon="12.650381997227669">
        <ele>69.64</ele>
        <time>2025-02-03T14:05:52.460Z</time>
      </trkpt>
      <trkpt lat="59.046568935737014" lon="12.650242941454053">
        <ele>69.56</ele>
        <time>2025-02-03T14:06:04.841Z</time>
      </trkpt>
      <trkpt lat="59.046462988480926" lon="12.650100952014327">
        <ele>69.5</ele>
        <time>2025-02-03T14:06:17.224Z</time>
      </trkpt>
      <trkpt lat="59.0463519282639" lon="12.649950999766588">
        <ele>69.44</ele>
        <time>2025-02-03T14:06:29.609Z</time>
      </trkpt>
      <trkpt lat="59.04623692855239" lon="12.649793922901154">
        <ele>69.38</ele>
        <time>2025-02-03T14:06:41.996Z</time>
      </trkpt>
      <trkpt lat="59.046121928840876" lon="12.649625949561596">
        <ele>69.32</ele>
        <time>2025-02-03T14:06:54.385Z</time>
      </trkpt>
      <trkpt lat="59.04600894078612" lon="12.649446995928884">
        <ele>69.27</ele>
        <time>2025-02-03T14:07:06.777Z</time>
      </trkpt>
      <trkpt lat="59.04589997604489" lon="12.649262929335237">
        <ele>69.23</ele>
        <time>2025-02-03T14:07:19.171Z</time>
      </trkpt>
      <trkpt lat="59.045795956626534" lon="12.64907794073224">
        <ele>69.2</ele>
        <time>2025-02-03T14:07:31.567Z</time>
      </trkpt>
      <trkpt lat="59.04569495469332" lon="12.648893957957625">
        <ele>69.16</ele>
        <time>2025-02-03T14:07:43.966Z</time>
      </trkpt>
      <trkpt lat="59.04559797607362" lon="12.648712992668152">
        <ele>69.14</ele>
        <time>2025-02-03T14:07:56.367Z</time>
      </trkpt>
      <trkpt lat="59.04550191946328" lon="12.64853697270155">
        <ele>69.12</ele>
        <time>2025-02-03T14:08:08.770Z</time>
      </trkpt>
      <trkpt lat="59.045407958328724" lon="12.64836992137134">
        <ele>69.11</ele>
        <time>2025-02-03T14:08:21.175Z</time>
      </trkpt>
      <trkpt lat="59.04531693086028" lon="12.648209994658828">
        <ele>69.09</ele>
        <time>2025-02-03T14:08:33.582Z</time>
      </trkpt>
      <trkpt lat="59.04522892087698" lon="12.648059958592057">
        <ele>69.08</ele>
        <time>2025-02-03T14:08:45.991Z</time>
      </trkpt>
      <trkpt lat="59.04514099471271" lon="12.647919980809093">
        <ele>69.08</ele>
        <time>2025-02-03T14:08:58.402Z</time>
      </trkpt>
      <trkpt lat="59.04505298472941" lon="12.647788971662521">
        <ele>69.09</ele>
        <time>2025-02-03T14:09:10.814Z</time>
      </trkpt>
      <trkpt lat="59.04496296308935" lon="12.647668942809105">
        <ele>69.09</ele>
        <time>2025-02-03T14:09:23.228Z</time>
      </trkpt>
      <trkpt lat="59.04487092979252" lon="12.647556960582733">
        <ele>69.11</ele>
        <time>2025-02-03T14:09:35.644Z</time>
      </trkpt>
      <trkpt lat="59.04477998614311" lon="12.647450929507613">
        <ele>69.13</ele>
        <time>2025-02-03T14:09:48.062Z</time>
      </trkpt>
      <trkpt lat="59.04468895867467" lon="12.647349927574396">
        <ele>69.16</ele>
        <time>2025-02-03T14:10:00.481Z</time>
      </trkpt>
      <trkpt lat="59.04459994286299" lon="12.647255966439843">
        <ele>69.19</ele>
        <time>2025-02-03T14:10:12.902Z</time>
      </trkpt>
      <trkpt lat="59.044510927051306" lon="12.647166950628161">
        <ele>69.22</ele>
        <time>2025-02-03T14:10:25.325Z</time>
      </trkpt>
      <trkpt lat="59.044424928724766" lon="12.647076928988099">
        <ele>69.25</ele>
        <time>2025-02-03T14:10:37.749Z</time>
      </trkpt>
      <trkpt lat="59.04434094205499" lon="12.646986991167068">
        <ele>69.29</ele>
        <time>2025-02-03T14:10:50.175Z</time>
      </trkpt>
      <trkpt lat="59.04425896704197" lon="12.646896969527006">
        <ele>69.34</ele>
        <time>2025-02-03T14:11:02.602Z</time>
      </trkpt>
      <trkpt lat="59.04418093152344" lon="12.646803930401802">
        <ele>69.39</ele>
        <time>2025-02-03T14:11:15.031Z</time>
      </trkpt>
      <trkpt lat="59.04410599730909" lon="12.646708963438869">
        <ele>69.44</ele>
        <time>2025-02-03T14:11:27.461Z</time>
      </trkpt>
      <trkpt lat="59.044034918770194" lon="12.646612990647554">
        <ele>69.51</ele>
        <time>2025-02-03T14:11:39.892Z</time>
      </trkpt>
      <trkpt lat="59.04396694153547" lon="12.646512994542718">
        <ele>69.58</ele>
        <time>2025-02-03T14:11:52.325Z</time>
      </trkpt>
      <trkpt lat="59.043904999271035" lon="12.64640897512436">
        <ele>69.65</ele>
        <time>2025-02-03T14:12:04.759Z</time>
      </trkpt>
      <trkpt lat="59.04384892433882" lon="12.646299926564097">
        <ele>69.73</ele>
        <time>2025-02-03T14:12:17.194Z</time>
      </trkpt>
      <trkpt lat="59.043799974024296" lon="12.646188950166106">
        <ele>69.82</ele>
        <time>2025-02-03T14:12:29.631Z</time>
      </trkpt>
      <trkpt lat="59.043757980689406" lon="12.646076967939734">
        <ele>69.9</ele>
        <time>2025-02-03T14:12:42.069Z</time>
      </trkpt>
      <trkpt lat="59.04372193850577" lon="12.645961968228221">
        <ele>69.98</ele>
        <time>2025-02-03T14:12:54.508Z</time>
      </trkpt>
      <trkpt lat="59.043687991797924" lon="12.645847974345088">
        <ele>70.07</ele>
        <time>2025-02-03T14:13:06.948Z</time>
      </trkpt>
      <trkpt lat="59.04365396127105" lon="12.645735992118716">
        <ele>70.15</ele>
        <time>2025-02-03T14:13:19.389Z</time>
      </trkpt>
      <trkpt lat="59.0436149854213" lon="12.645624931901693">
        <ele>70.25</ele>
        <time>2025-02-03T14:13:31.831Z</time>
      </trkpt>
      <trkpt lat="59.04357491992414" lon="12.645512949675322">
        <ele>70.34</ele>
        <time>2025-02-03T14:13:44.274Z</time>
      </trkpt>
      <trkpt lat="59.04353292658925" lon="12.645404990762472">
        <ele>70.43</ele>
        <time>2025-02-03T14:13:56.718Z</time>
      </trkpt>
      <trkpt lat="59.04348992742598" lon="12.645298959687352">
        <ele>70.52</ele>
        <time>2025-02-03T14:14:09.163Z</time>
      </trkpt>
      <trkpt lat="59.0434439945966" lon="12.645199969410896">
        <ele>70.61</ele>
        <time>2025-02-03T14:14:21.610Z</time>
      </trkpt>
      <trkpt lat="59.04339496046305" lon="12.64509997330606">
        <ele>70.7</ele>
        <time>2025-02-03T14:14:34.058Z</time>
      </trkpt>
      <trkpt lat="59.043347937986255" lon="12.644999977201223">
        <ele>70.8</ele>
        <time>2025-02-03T14:14:46.507Z</time>
      </trkpt>
      <trkpt lat="59.04329898767173" lon="12.644898975268006">
        <ele>70.89</ele>
        <time>2025-02-03T14:14:58.957Z</time>
      </trkpt>
      <trkpt lat="59.0432539768517" lon="12.64479897916317">
        <ele>70.99</ele>
        <time>2025-02-03T14:15:11.408Z</time>
      </trkpt>
      <trkpt lat="59.04320695437491" lon="12.644696971401572">
        <ele>71.09</ele>
        <time>2025-02-03T14:15:23.860Z</time>
      </trkpt>
      <trkpt lat="59.04316697269678" lon="12.644592951983213">
        <ele>71.2</ele>
        <time>2025-02-03T14:15:36.313Z</time>
      </trkpt>
      <trkpt lat="59.043133947998285" lon="12.644483987241983">
        <ele>71.3</ele>
        <time>2025-02-03T14:15:48.767Z</time>
      </trkpt>
      <trkpt lat="59.04310695827007" lon="12.644376950338483">
        <ele>71.41</ele>
        <time>2025-02-03T14:16:01.222Z</time>
      </trkpt>
      <trkpt lat="59.04307594522834" lon="12.644280977547169">
        <ele>71.52</ele>
        <time>2025-02-03T14:16:13.678Z</time>
      </trkpt>
      <trkpt lat="59.04303495772183" lon="12.644204953685403">
        <ele>71.63</ele>
        <time>2025-02-03T14:16:26.135Z</time>
      </trkpt>
      <trkpt lat="59.04298399575055" lon="12.644159942865372">
        <ele>71.75</ele>
        <time>2025-02-03T14:16:38.593Z</time>
      </trkpt>
      <trkpt lat="59.04292699880898" lon="12.644129935652018">
        <ele>71.88</ele>
        <time>2025-02-03T14:16:51.052Z</time>
      </trkpt>
      <trkpt lat="59.04286497272551" lon="12.644107975065708">
        <ele>72.0</ele>
        <time>2025-02-03T14:17:03.512Z</time>
      </trkpt>
      <trkpt lat="59.04279699549079" lon="12.644096994772553">
        <ele>72.13</ele>
        <time>2025-02-03T14:17:15.973Z</time>
      </trkpt>
      <trkpt lat="59.042726922780275" lon="12.644084924831986">
        <ele>72.27</ele>
        <time>2025-02-03T14:17:28.435Z</time>
      </trkpt>
      <trkpt lat="59.04265693388879" lon="12.64406992122531">
        <ele>72.4</ele>
        <time>2025-02-03T14:17:40.898Z</time>
      </trkpt>
      <trkpt lat="59.04258493334055" lon="12.644057935103774">
        <ele>72.53</ele>
        <time>2025-02-03T14:17:53.363Z</time>
      </trkpt>
      <trkpt lat="59.04251595027745" lon="12.644043937325478">
        <ele>72.66</ele>
        <time>2025-02-03T14:18:05.829Z</time>
      </trkpt>
      <trkpt lat="59.04244797304273" lon="12.64402792789042">
        <ele>72.8</ele>
        <time>2025-02-03T14:18:18.296Z</time>
      </trkpt>
      <trkpt lat="59.042379995808005" lon="12.644010996446013">
        <ele>72.93</ele>
        <time>2025-02-03T14:18:30.764Z</time>
      </trkpt>
      <trkpt lat="59.04231193475425" lon="12.643992975354195">
        <ele>73.06</ele>
        <time>2025-02-03T14:18:43.233Z</time>
      </trkpt>
      <trkpt lat="59.04224295169115" lon="12.643975960090756">
        <ele>73.2</ele>
        <time>2025-02-03T14:18:55.703Z</time>
      </trkpt>
      <trkpt lat="59.04217396862805" lon="12.643959950655699">
        <ele>73.34</ele>
        <time>2025-02-03T14:19:08.174Z</time>
      </trkpt>
      <trkpt lat="59.04210599139333" lon="12.64394192956388">
        <ele>73.47</ele>
        <time>2025-02-03T14:19:20.646Z</time>
      </trkpt>
      <trkpt lat="59.042037930339575" lon="12.643925920128822">
        <ele>73.61</ele>
        <time>2025-02-03T14:19:33.119Z</time>
      </trkpt>
      <trkpt lat="59.041970958933234" lon="12.643909994512796">
        <ele>73.74</ele>
        <time>2025-02-03T14:19:45.593Z</time>
      </trkpt>
      <trkpt lat="59.041905999183655" lon="12.643893985077739">
        <ele>73.87</ele>
        <time>2025-02-03T14:19:58.069Z</time>
      </trkpt>
      <trkpt lat="59.041840955615044" lon="12.64387596398592">
        <ele>74.01</ele>
        <time>2025-02-03T14:20:10.546Z</time>
      </trkpt>
      <trkpt lat="59.041775995865464" lon="12.64385693706572">
        <ele>74.14</ele>
        <time>2025-02-03T14:20:23.024Z</time>
      </trkpt>
      <trkpt lat="59.041711958125234" lon="12.643837993964553">
        <ele>74.27</ele>
        <time>2025-02-03T14:20:35.503Z</time>
      </trkpt>
      <trkpt lat="59.041648926213384" lon="12.643819972872734">
        <ele>74.41</ele>
        <time>2025-02-03T14:20:47.983Z</time>
      </trkpt>
      <trkpt lat="59.041584972292185" lon="12.643800945952535">
        <ele>74.54</ele>
        <time>2025-02-03T14:21:00.464Z</time>
      </trkpt>
      <trkpt lat="59.041521940380335" lon="12.643780997022986">
        <ele>74.67</ele>
        <time>2025-02-03T14:21:12.946Z</time>
      </trkpt>
      <trkpt lat="59.041457986459136" lon="12.643759958446026">
        <ele>74.81</ele>
        <time>2025-02-03T14:21:25.429Z</time>
      </trkpt>
      <trkpt lat="59.041394954547286" lon="12.643737997859716">
        <ele>74.94</ele>
        <time>2025-02-03T14:21:37.913Z</time>
      </trkpt>
      <trkpt lat="59.041331922635436" lon="12.643714947625995">
        <ele>75.07</ele>
        <time>2025-02-03T14:21:50.398Z</time>
      </trkpt>
      <trkpt lat="59.04126796871424" lon="12.643693992868066">
        <ele>75.21</ele>
        <time>2025-02-03T14:22:02.884Z</time>
      </trkpt>
      <trkpt lat="59.04120393097401" lon="12.643671948462725">
        <ele>75.34</ele>
        <time>2025-02-03T14:22:15.371Z</time>
      </trkpt>
      <trkpt lat="59.04113897122443" lon="12.643647976219654">
        <ele>75.47</ele>
        <time>2025-02-03T14:22:27.859Z</time>
      </trkpt>
      <trkpt lat="59.04107199981809" lon="12.643624925985932">
        <ele>75.6</ele>
        <time>2025-02-03T14:22:40.348Z</time>
      </trkpt>
      <trkpt lat="59.041003938764334" lon="12.643602965399623">
        <ele>75.73</ele>
        <time>2025-02-03T14:22:52.838Z</time>
      </trkpt>
      <trkpt lat="59.04093394987285" lon="12.643581926822662">
        <ele>75.87</ele>
        <time>2025-02-03T14:23:05.329Z</time>
      </trkpt>
      <trkpt lat="59.04086295515299" lon="12.643561977893114">
        <ele>76.0</ele>
        <time>2025-02-03T14:23:17.821Z</time>
      </trkpt>
      <trkpt lat="59.040789948776364" lon="12.643537921831012">
        <ele>76.14</ele>
        <time>2025-02-03T14:23:30.315Z</time>
      </trkpt>
      <trkpt lat="59.04071493074298" lon="12.643513949587941">
        <ele>76.27</ele>
        <time>2025-02-03T14:23:42.810Z</time>
      </trkpt>
      <trkpt lat="59.040638990700245" lon="12.643492994830012">
        <ele>76.41</ele>
        <time>2025-02-03T14:23:55.306Z</time>
      </trkpt>
      <trkpt lat="59.04056095518172" lon="12.643475979566574">
        <ele>76.55</ele>
        <time>2025-02-03T14:24:07.803Z</time>
      </trkpt>
      <trkpt lat="59.04048099182546" lon="12.643460975959897">
        <ele>76.69</ele>
        <time>2025-02-03T14:24:20.302Z</time>
      </trkpt>
      <trkpt lat="59.04040094465017" lon="12.64344597235322">
        <ele>76.83</ele>
        <time>2025-02-03T14:24:32.802Z</time>
      </trkpt>
      <trkpt lat="59.040319975465536" lon="12.643428957089782">
        <ele>76.96</ele>
        <time>2025-02-03T14:24:45.303Z</time>
      </trkpt>
      <trkpt lat="59.04023791663349" lon="12.643410935997963">
        <ele>77.1</ele>
        <time>2025-02-03T14:24:57.806Z</time>
      </trkpt>
      <trkpt lat="59.04015594162047" lon="12.643394926562905">
        <ele>77.23</ele>
        <time>2025-02-03T14:25:10.310Z</time>
      </trkpt>
      <trkpt lat="59.04007296077907" lon="12.643379922956228">
        <ele>77.36</ele>
        <time>2025-02-03T14:25:22.815Z</time>
      </trkpt>
      <trkpt lat="59.03998796828091" lon="12.643364919349551">
        <ele>77.5</ele>
        <time>2025-02-03T14:25:35.322Z</time>
      </trkpt>
      <trkpt lat="59.03990096412599" lon="12.643348993733525">
        <ele>77.63</ele>
        <time>2025-02-03T14:25:47.830Z</time>
      </trkpt>
      <trkpt lat="59.03981194831431" lon="12.643329966813326">
        <ele>77.76</ele>
        <time>2025-02-03T14:26:00.339Z</time>
      </trkpt>
      <trkpt lat="59.039720920845866" lon="12.643309934064746">
        <ele>77.9</ele>
        <time>2025-02-03T14:26:12.850Z</time>
      </trkpt>
      <trkpt lat="59.039628971368074" lon="12.643288979306817">
        <ele>78.03</ele>
        <time>2025-02-03T14:26:25.362Z</time>
      </trkpt>
      <trkpt lat="59.03953593224287" lon="12.643269952386618">
        <ele>78.17</ele>
        <time>2025-02-03T14:26:37.876Z</time>
      </trkpt>
      <trkpt lat="59.03944398276508" lon="12.64325394295156">
        <ele>78.3</ele>
        <time>2025-02-03T14:26:50.391Z</time>
      </trkpt>
      <trkpt lat="59.039351949468255" lon="12.643234999850392">
        <ele>78.44</ele>
        <time>2025-02-03T14:27:02.908Z</time>
      </trkpt>
      <trkpt lat="59.03925999999046" lon="12.643213961273432">
        <ele>78.59</ele>
        <time>2025-02-03T14:27:15.426Z</time>
      </trkpt>
      <trkpt lat="59.0391699783504" lon="12.64319191686809">
        <ele>78.75</ele>
        <time>2025-02-03T14:27:27.946Z</time>
      </trkpt>
      <trkpt lat="59.0390819683671" lon="12.6431689504534">
        <ele>78.91</ele>
        <time>2025-02-03T14:27:40.467Z</time>
      </trkpt>
      <trkpt lat="59.0389939583838" lon="12.64314891770482">
        <ele>79.07</ele>
        <time>2025-02-03T14:27:52.990Z</time>
      </trkpt>
      <trkpt lat="59.03890796005726" lon="12.643128968775272">
        <ele>79.25</ele>
        <time>2025-02-03T14:28:05.514Z</time>
      </trkpt>
      <trkpt lat="59.0388229675591" lon="12.643108936026692">
        <ele>79.42</ele>
        <time>2025-02-03T14:28:18.039Z</time>
      </trkpt>
      <trkpt lat="59.03873898088932" lon="12.643088987097144">
        <ele>79.6</ele>
        <time>2025-02-03T14:28:30.566Z</time>
      </trkpt>
      <trkpt lat="59.03865591622889" lon="12.643071971833706">
        <ele>79.79</ele>
        <time>2025-02-03T14:28:43.094Z</time>
      </trkpt>
      <trkpt lat="59.03857293538749" lon="12.643056968227029">
        <ele>79.97</ele>
        <time>2025-02-03T14:28:55.623Z</time>
      </trkpt>
      <trkpt lat="59.038490960374475" lon="12.643040958791971">
        <ele>80.16</ele>
        <time>2025-02-03T14:29:08.154Z</time>
      </trkpt>
      <trkpt lat="59.038407979533076" lon="12.643022937700152">
        <ele>80.35</ele>
        <time>2025-02-03T14:29:20.686Z</time>
      </trkpt>
      <trkpt lat="59.03832499869168" lon="12.643003994598985">
        <ele>80.53</ele>
        <time>2025-02-03T14:29:33.219Z</time>
      </trkpt>
      <trkpt lat="59.03824092820287" lon="12.642985973507166">
        <ele>80.72</ele>
        <time>2025-02-03T14:29:45.754Z</time>
      </trkpt>
      <trkpt lat="59.03815593570471" lon="12.642968958243728">
        <ele>80.9</ele>
        <time>2025-02-03T14:29:58.290Z</time>
      </trkpt>
      <trkpt lat="59.03807094320655" lon="12.64295194298029">
        <ele>81.09</ele>
        <time>2025-02-03T14:30:10.828Z</time>
      </trkpt>
      <trkpt lat="59.03798494488001" lon="12.642931994050741">
        <ele>81.27</ele>
        <time>2025-02-03T14:30:23.367Z</time>
      </trkpt>
      <trkpt lat="59.03789894655347" lon="12.642907937988639">
        <ele>81.46</ele>
        <time>2025-02-03T14:30:35.907Z</time>
      </trkpt>
      <trkpt lat="59.03781395405531" lon="12.642877930775285">
        <ele>81.66</ele>
        <time>2025-02-03T14:30:48.449Z</time>
      </trkpt>
      <trkpt lat="59.03773097321391" lon="12.642837949097157">
        <ele>81.86</ele>
        <time>2025-02-03T14:31:00.992Z</time>
      </trkpt>
      <trkpt lat="59.03764992021024" lon="12.642782963812351">
        <ele>82.06</ele>
        <time>2025-02-03T14:31:13.536Z</time>
      </trkpt>
      <trkpt lat="59.03757498599589" lon="12.642705934122205">
        <ele>82.27</ele>
        <time>2025-02-03T14:31:26.082Z</time>
      </trkpt>
      <trkpt lat="59.037506924942136" lon="12.642611972987652">
        <ele>82.49</ele>
        <time>2025-02-03T14:31:38.629Z</time>
      </trkpt>
      <trkpt lat="59.0374449826777" lon="12.642507953569293">
        <ele>82.71</ele>
        <time>2025-02-03T14:31:51.177Z</time>
      </trkpt>
      <trkpt lat="59.03739091940224" lon="12.642390942201018">
        <ele>82.93</ele>
        <time>2025-02-03T14:32:03.727Z</time>
      </trkpt>
      <trkpt lat="59.03734699822962" lon="12.642257921397686">
        <ele>83.16</ele>
        <time>2025-02-03T14:32:16.278Z</time>
      </trkpt>
      <trkpt lat="59.037310956045985" lon="12.642113920301199">
        <ele>83.39</ele>
        <time>2025-02-03T14:32:28.830Z</time>
      </trkpt>
      <trkpt lat="59.03727893717587" lon="12.641966985538602">
        <ele>83.62</ele>
        <time>2025-02-03T14:32:41.384Z</time>
      </trkpt>
      <trkpt lat="59.037247924134135" lon="12.641816949471831">
        <ele>83.84</ele>
        <time>2025-02-03T14:32:53.939Z</time>
      </trkpt>
      <trkpt lat="59.0372219402343" lon="12.641664985567331">
        <ele>84.07</ele>
        <time>2025-02-03T14:33:06.495Z</time>
      </trkpt>
      <trkpt lat="59.03719394467771" lon="12.64151394367218">
        <ele>84.29</ele>
        <time>2025-02-03T14:33:19.053Z</time>
      </trkpt>
      <trkpt lat="59.03716594912112" lon="12.64136591926217">
        <ele>84.52</ele>
        <time>2025-02-03T14:33:31.612Z</time>
      </trkpt>
      <trkpt lat="59.03713594190776" lon="12.641220996156335">
        <ele>84.75</ele>
        <time>2025-02-03T14:33:44.172Z</time>
      </trkpt>
      <trkpt lat="59.03710392303765" lon="12.641077917069197">
        <ele>84.98</ele>
        <time>2025-02-03T14:33:56.734Z</time>
      </trkpt>
      <trkpt lat="59.037070982158184" lon="12.640936933457851">
        <ele>85.22</ele>
        <time>2025-02-03T14:34:09.297Z</time>
      </trkpt>
      <trkpt lat="59.03703695163131" lon="12.640796955674887">
        <ele>85.46</ele>
        <time>2025-02-03T14:34:21.861Z</time>
      </trkpt>
      <trkpt lat="59.03699998743832" lon="12.640660917386413">
        <ele>85.71</ele>
        <time>2025-02-03T14:34:34.426Z</time>
      </trkpt>
      <trkpt lat="59.03696092776954" lon="12.640528986230493">
        <ele>85.95</ele>
        <time>2025-02-03T14:34:46.993Z</time>
      </trkpt>
      <trkpt lat="59.03691692277789" lon="12.640402922406793">
        <ele>86.19</ele>
        <time>2025-02-03T14:34:59.561Z</time>
      </trkpt>
      <trkpt lat="59.03686797246337" lon="12.640283983200788">
        <ele>86.45</ele>
        <time>2025-02-03T14:35:12.130Z</time>
      </trkpt>
      <trkpt lat="59.036814998835325" lon="12.640176946297288">
        <ele>86.7</ele>
        <time>2025-02-03T14:35:24.700Z</time>
      </trkpt>
      <trkpt lat="59.03675699606538" lon="12.640084996819496">
        <ele>86.95</ele>
        <time>2025-02-03T14:35:37.272Z</time>
      </trkpt>
      <trkpt lat="59.03669698163867" lon="12.640010984614491">
        <ele>87.21</ele>
        <time>2025-02-03T14:35:49.845Z</time>
      </trkpt>
      <trkpt lat="59.03663696721196" lon="12.639955999329686">
        <ele>87.47</ele>
        <time>2025-02-03T14:36:02.419Z</time>
      </trkpt>
      <trkpt lat="59.03657494112849" lon="12.639910988509655">
        <ele>87.73</ele>
        <time>2025-02-03T14:36:14.994Z</time>
      </trkpt>
      <trkpt lat="59.036514926701784" lon="12.63987796381116">
        <ele>88.0</ele>
        <time>2025-02-03T14:36:27.570Z</time>
      </trkpt>
      <trkpt lat="59.03645792976022" lon="12.639851979911327">
        <ele>88.26</ele>
        <time>2025-02-03T14:36:40.147Z</time>
      </trkpt>
      <trkpt lat="59.03640093281865" lon="12.639828929677606">
        <ele>88.53</ele>
        <time>2025-02-03T14:36:52.725Z</time>
      </trkpt>
      <trkpt lat="59.03634695336223" lon="12.639808980748057">
        <ele>88.8</ele>
        <time>2025-02-03T14:37:05.304Z</time>
      </trkpt>
      <trkpt lat="59.036296997219324" lon="12.639788947999477">
        <ele>89.07</ele>
        <time>2025-02-03T14:37:17.883Z</time>
      </trkpt>
      <trkpt lat="59.03624595142901" lon="12.63977193273604">
        <ele>89.34</ele>
        <time>2025-02-03T14:37:30.463Z</time>
      </trkpt>
      <trkpt lat="59.03619498945773" lon="12.639755923300982">
        <ele>89.61</ele>
        <time>2025-02-03T14:37:43.044Z</time>
      </trkpt>
      <trkpt lat="59.036150984466076" lon="12.639740919694304">
        <ele>89.88</ele>
        <time>2025-02-03T14:37:55.626Z</time>
      </trkpt>
      <trkpt lat="59.0361119247973" lon="12.63972599990666">
        <ele>90.15</ele>
        <time>2025-02-03T14:38:08.208Z</time>
      </trkpt>
      <trkpt lat="59.03607697226107" lon="12.63970797881484">
        <ele>90.42</ele>
        <time>2025-02-03T14:38:20.791Z</time>
      </trkpt>
      <trkpt lat="59.036041935905814" lon="12.63968794606626">
        <ele>90.69</ele>
        <time>2025-02-03T14:38:33.375Z</time>
      </trkpt>
      <trkpt lat="59.03600698336959" lon="12.639671936631203">
        <ele>90.96</ele>
        <time>2025-02-03T14:38:45.959Z</time>
      </trkpt>
      <trkpt lat="59.03596892952919" lon="12.639649976044893">
        <ele>91.23</ele>
        <time>2025-02-03T14:38:58.544Z</time>
      </trkpt>
      <trkpt lat="59.035934982821345" lon="12.639627931639552">
        <ele>91.5</ele>
        <time>2025-02-03T14:39:11.129Z</time>
      </trkpt>
      <trkpt lat="59.03590195812285" lon="12.639606976881623">
        <ele>91.77</ele>
        <time>2025-02-03T14:39:23.715Z</time>
      </trkpt>
      <trkpt lat="59.03586692176759" lon="12.639594990760088">
        <ele>92.04</ele>
        <time>2025-02-03T14:39:36.302Z</time>
      </trkpt>
      <trkpt lat="59.035829957574606" lon="12.639583926647902">
        <ele>92.31</ele>
        <time>2025-02-03T14:39:48.889Z</time>
      </trkpt>
      <trkpt lat="59.03579198755324" lon="12.639573952183127">
        <ele>92.58</ele>
        <time>2025-02-03T14:40:01.477Z</time>
      </trkpt>
      <trkpt lat="59.03575695119798" lon="12.639559954404831">
        <ele>92.85</ele>
        <time>2025-02-03T14:40:14.065Z</time>
      </trkpt>
      <trkpt lat="59.035719987004995" lon="12.639553919434547">
        <ele>93.11</ele>
        <time>2025-02-03T14:40:26.654Z</time>
      </trkpt>
      <trkpt lat="59.035680927336216" lon="12.639548974111676">
        <ele>93.38</ele>
        <time>2025-02-03T14:40:39.244Z</time>
      </trkpt>
      <trkpt lat="59.035636922344565" lon="12.639540927484632">
        <ele>93.65</ele>
        <time>2025-02-03T14:40:51.834Z</time>
      </trkpt>
      <trkpt lat="59.035594929009676" lon="12.639530953019857">
        <ele>93.91</ele>
        <time>2025-02-03T14:41:04.425Z</time>
      </trkpt>
      <trkpt lat="59.03555595315993" lon="12.639519972726703">
        <ele>94.17</ele>
        <time>2025-02-03T14:41:17.017Z</time>
      </trkpt>
      <trkpt lat="59.03551697731018" lon="12.63951393775642">
        <ele>94.44</ele>
        <time>2025-02-03T14:41:29.609Z</time>
      </trkpt>
      <trkpt lat="59.03547498397529" lon="12.639510920271277">
        <ele>94.7</ele>
        <time>2025-02-03T14:41:42.202Z</time>
      </trkpt>
      <trkpt lat="59.03542896732688" lon="12.63951393775642">
        <ele>94.96</ele>
        <time>2025-02-03T14:41:54.796Z</time>
      </trkpt>
      <trkpt lat="59.03538395650685" lon="12.639532964676619">
        <ele>95.21</ele>
        <time>2025-02-03T14:42:07.390Z</time>
      </trkpt>
      <trkpt lat="59.0353399515152" lon="12.639550985768437">
        <ele>95.46</ele>
        <time>2025-02-03T14:42:19.985Z</time>
      </trkpt>
      <trkpt lat="59.03529896400869" lon="12.639574958011508">
        <ele>95.72</ele>
        <time>2025-02-03T14:42:32.581Z</time>
      </trkpt>
      <trkpt lat="59.03525898233056" lon="12.639594990760088">
        <ele>95.96</ele>
        <time>2025-02-03T14:42:45.177Z</time>
      </trkpt>
      <trkpt lat="59.03521698899567" lon="12.639615945518017">
        <ele>96.21</ele>
        <time>2025-02-03T14:42:57.774Z</time>
      </trkpt>
      <trkpt lat="59.0351739898324" lon="12.639639917761087">
        <ele>96.45</ele>
        <time>2025-02-03T14:43:10.372Z</time>
      </trkpt>
      <trkpt lat="59.03513199649751" lon="12.639666991308331">
        <ele>96.69</ele>
        <time>2025-02-03T14:43:22.971Z</time>
      </trkpt>
      <trkpt lat="59.03508991934359" lon="12.639690963551402">
        <ele>96.93</ele>
        <time>2025-02-03T14:43:35.570Z</time>
      </trkpt>
      <trkpt lat="59.03504398651421" lon="12.639715941622853">
        <ele>97.17</ele>
        <time>2025-02-03T14:43:48.170Z</time>
      </trkpt>
      <trkpt lat="59.03499495238066" lon="12.639739997684956">
        <ele>97.4</ele>
        <time>2025-02-03T14:44:00.771Z</time>
      </trkpt>
      <trkpt lat="59.03494097292423" lon="12.639765981584787">
        <ele>97.63</ele>
        <time>2025-02-03T14:44:13.373Z</time>
      </trkpt>
      <trkpt lat="59.03488699346781" lon="12.63979397714138">
        <ele>97.86</ele>
        <time>2025-02-03T14:44:25.976Z</time>
      </trkpt>
      <trkpt lat="59.03483293019235" lon="12.639821972697973">
        <ele>98.09</ele>
        <time>2025-02-03T14:44:38.580Z</time>
      </trkpt>
      <trkpt lat="59.034774927422404" lon="12.639848962426186">
        <ele>98.31</ele>
        <time>2025-02-03T14:44:51.184Z</time>
      </trkpt>
      <trkpt lat="59.03471793048084" lon="12.63987896963954">
        <ele>98.53</ele>
        <time>2025-02-03T14:45:03.789Z</time>
      </trkpt>
      <trkpt lat="59.03465992771089" lon="12.639910988509655">
        <ele>98.74</ele>
        <time>2025-02-03T14:45:16.395Z</time>
      </trkpt>
      <trkpt lat="59.034602930769324" lon="12.63994594104588">
        <ele>98.95</ele>
        <time>2025-02-03T14:45:29.002Z</time>
      </trkpt>
      <trkpt lat="59.034542916342616" lon="12.639979971572757">
        <ele>99.16</ele>
        <time>2025-02-03T14:45:41.610Z</time>
      </trkpt>
      <trkpt lat="59.0344799682498" lon="12.64000997878611">
        <ele>99.36</ele>
        <time>2025-02-03T14:45:54.219Z</time>
      </trkpt>
      <trkpt lat="59.034413918852806" lon="12.640038980171084">
        <ele>99.56</ele>
        <time>2025-02-03T14:46:06.829Z</time>
      </trkpt>
      <trkpt lat="59.034343929961324" lon="12.640067981556058">
        <ele>99.76</ele>
        <time>2025-02-03T14:46:19.441Z</time>
      </trkpt>
      <trkpt lat="59.03427192941308" lon="12.64009497128427">
        <ele>99.95</ele>
        <time>2025-02-03T14:46:32.054Z</time>
      </trkpt>
      <trkpt lat="59.034193977713585" lon="12.640111986547709">
        <ele>100.13</ele>
        <time>2025-02-03T14:46:44.668Z</time>
      </trkpt>
      <trkpt lat="59.034112924709916" lon="12.64011399820447">
        <ele>100.32</ele>
        <time>2025-02-03T14:46:57.283Z</time>
      </trkpt>
      <trkpt lat="59.03402793221176" lon="12.640104945749044">
        <ele>100.5</ele>
        <time>2025-02-03T14:47:09.900Z</time>
      </trkpt>
      <trkpt lat="59.033938916400075" lon="12.640090947970748">
        <ele>100.68</ele>
        <time>2025-02-03T14:47:22.518Z</time>
      </trkpt>
      <trkpt lat="59.033849984407425" lon="12.640066975727677">
        <ele>100.85</ele>
        <time>2025-02-03T14:47:35.138Z</time>
      </trkpt>
      <trkpt lat="59.03376096859574" lon="12.640026994049549">
        <ele>101.02</ele>
        <time>2025-02-03T14:47:47.759Z</time>
      </trkpt>
      <trkpt lat="59.03367295861244" lon="12.639975948259234">
        <ele>101.18</ele>
        <time>2025-02-03T14:48:00.382Z</time>
      </trkpt>
      <trkpt lat="59.03358494862914" lon="12.63992096297443">
        <ele>101.34</ele>
        <time>2025-02-03T14:48:13.006Z</time>
      </trkpt>
      <trkpt lat="59.03349593281746" lon="12.639869917184114">
        <ele>101.49</ele>
        <time>2025-02-03T14:48:25.632Z</time>
      </trkpt>
      <trkpt lat="59.03340792283416" lon="12.639819961041212">
        <ele>101.64</ele>
        <time>2025-02-03T14:48:38.259Z</time>
      </trkpt>
      <trkpt lat="59.03332091867924" lon="12.639770926907659">
        <ele>101.79</ele>
        <time>2025-02-03T14:48:50.887Z</time>
      </trkpt>
      <trkpt lat="59.0332349203527" lon="12.639719964936376">
        <ele>101.93</ele>
        <time>2025-02-03T14:49:03.517Z</time>
      </trkpt>
      <trkpt lat="59.03314992785454" lon="12.63966397382319">
        <ele>102.07</ele>
        <time>2025-02-03T14:49:16.148Z</time>
      </trkpt>
      <trkpt lat="59.03306594118476" lon="12.639606976881623">
        <ele>102.2</ele>
        <time>2025-02-03T14:49:28.781Z</time>
      </trkpt>
      <trkpt lat="59.03298296034336" lon="12.639551991596818">
        <ele>102.33</ele>
        <time>2025-02-03T14:49:41.415Z</time>
      </trkpt>
      <trkpt lat="59.03289997950196" lon="12.639497928321362">
        <ele>102.46</ele>
        <time>2025-02-03T14:49:54.051Z</time>
      </trkpt>
      <trkpt lat="59.032816998660564" lon="12.639441937208176">
        <ele>102.57</ele>
        <time>2025-02-03T14:50:06.688Z</time>
      </trkpt>
      <trkpt lat="59.032734939828515" lon="12.63938594609499">
        <ele>102.69</ele>
        <time>2025-02-03T14:50:19.326Z</time>
      </trkpt>
      <trkpt lat="59.03265195898712" lon="12.639329954981804">
        <ele>102.8</ele>
        <time>2025-02-03T14:50:31.966Z</time>
      </trkpt>
      <trkpt lat="59.0325699839741" lon="12.63927798718214">
        <ele>102.9</ele>
        <time>2025-02-03T14:50:44.607Z</time>
      </trkpt>
      <trkpt lat="59.03248893097043" lon="12.639225935563445">
        <ele>103.0</ele>
        <time>2025-02-03T14:50:57.250Z</time>
      </trkpt>
      <trkpt lat="59.032409973442554" lon="12.639165921136737">
        <ele>103.1</ele>
        <time>2025-02-03T14:51:09.894Z</time>
      </trkpt>
      <trkpt lat="59.03233193792403" lon="12.639100961387157">
        <ele>103.19</ele>
        <time>2025-02-03T14:51:22.539Z</time>
      </trkpt>
      <trkpt lat="59.03225599788129" lon="12.639026949182153">
        <ele>103.28</ele>
        <time>2025-02-03T14:51:35.186Z</time>
      </trkpt>
      <trkpt lat="59.03218198567629" lon="12.638947991654277">
        <ele>103.36</ele>
        <time>2025-02-03T14:51:47.834Z</time>
      </trkpt>
      <trkpt lat="59.032111996784806" lon="12.638861993327737">
        <ele>103.44</ele>
        <time>2025-02-03T14:52:00.483Z</time>
      </trkpt>
      <trkpt lat="59.032046953216195" lon="12.63876493088901">
        <ele>103.51</ele>
        <time>2025-02-03T14:52:13.134Z</time>
      </trkpt>
      <trkpt lat="59.031984927132726" lon="12.638659989461303">
        <ele>103.59</ele>
        <time>2025-02-03T14:52:25.786Z</time>
      </trkpt>
      <trkpt lat="59.0319259185344" lon="12.63854599557817">
        <ele>103.65</ele>
        <time>2025-02-03T14:52:38.439Z</time>
      </trkpt>
      <trkpt lat="59.03187093324959" lon="12.638426972553134">
        <ele>103.71</ele>
        <time>2025-02-03T14:52:51.094Z</time>
      </trkpt>
      <trkpt lat="59.03181795962155" lon="12.638301998376846">
        <ele>103.77</ele>
        <time>2025-02-03T14:53:03.750Z</time>
      </trkpt>
      <trkpt lat="59.031768925487995" lon="12.638171995058656">
        <ele>103.82</ele>
        <time>2025-02-03T14:53:16.407Z</time>
      </trkpt>
      <trkpt lat="59.031721986830235" lon="12.638038974255323">
        <ele>103.87</ele>
        <time>2025-02-03T14:53:29.066Z</time>
      </trkpt>
      <trkpt lat="59.0316769760102" lon="12.637905953451991">
        <ele>103.91</ele>
        <time>2025-02-03T14:53:41.726Z</time>
      </trkpt>
      <trkpt lat="59.03163196519017" lon="12.637772932648659">
        <ele>103.95</ele>
        <time>2025-02-03T14:53:54.387Z</time>
      </trkpt>
      <trkpt lat="59.0315889660269" lon="12.637637984007597">
        <ele>103.99</ele>
        <time>2025-02-03T14:54:07.050Z</time>
      </trkpt>
      <trkpt lat="59.03154697269201" lon="12.637499934062362">
        <ele>104.02</ele>
        <time>2025-02-03T14:54:19.714Z</time>
      </trkpt>
      <trkpt lat="59.03150497935712" lon="12.637362973764539">
        <ele>104.05</ele>
        <time>2025-02-03T14:54:32.379Z</time>
      </trkpt>
      <trkpt lat="59.031462986022234" lon="12.637224923819304">
        <ele>104.08</ele>
        <time>2025-02-03T14:54:45.046Z</time>
      </trkpt>
      <trkpt lat="59.031421998515725" lon="12.637083940207958">
        <ele>104.12</ele>
        <time>2025-02-03T14:54:57.714Z</time>
      </trkpt>
      <trkpt lat="59.031381933018565" lon="12.636941950768232">
        <ele>104.14</ele>
        <time>2025-02-03T14:55:10.383Z</time>
      </trkpt>
      <trkpt lat="59.031339939683676" lon="12.636799961328506">
        <ele>104.16</ele>
        <time>2025-02-03T14:55:23.054Z</time>
      </trkpt>
      <trkpt lat="59.03129895217717" lon="12.63665797188878">
        <ele>104.18</ele>
        <time>2025-02-03T14:55:35.726Z</time>
      </trkpt>
      <trkpt lat="59.03125796467066" lon="12.636516988277435">
        <ele>104.18</ele>
        <time>2025-02-03T14:55:48.399Z</time>
      </trkpt>
      <trkpt lat="59.03121898882091" lon="12.636376926675439">
        <ele>104.18</ele>
        <time>2025-02-03T14:56:01.074Z</time>
      </trkpt>
      <trkpt lat="59.03118294663727" lon="12.636240972205997">
        <ele>104.17</ele>
        <time>2025-02-03T14:56:13.750Z</time>
      </trkpt>
      <trkpt lat="59.03114799410105" lon="12.636108957231045">
        <ele>104.16</ele>
        <time>2025-02-03T14:56:26.427Z</time>
      </trkpt>
      <trkpt lat="59.03111195191741" lon="12.635982977226377">
        <ele>104.15</ele>
        <time>2025-02-03T14:56:39.105Z</time>
      </trkpt>
      <trkpt lat="59.03107297606766" lon="12.63586395420134">
        <ele>104.12</ele>
        <time>2025-02-03T14:56:51.784Z</time>
      </trkpt>
      <trkpt lat="59.031032994389534" lon="12.635751971974969">
        <ele>104.1</ele>
        <time>2025-02-03T14:57:04.465Z</time>
      </trkpt>
      <trkpt lat="59.030994940549135" lon="12.635643929243088">
        <ele>104.07</ele>
        <time>2025-02-03T14:57:17.147Z</time>
      </trkpt>
      <trkpt lat="59.03095797635615" lon="12.635540999472141">
        <ele>104.04</ele>
        <time>2025-02-03T14:57:29.830Z</time>
      </trkpt>
      <trkpt lat="59.03092092834413" lon="12.635443937033415">
        <ele>104.01</ele>
        <time>2025-02-03T14:57:42.514Z</time>
      </trkpt>
      <trkpt lat="59.030884969979525" lon="12.635352993384004">
        <ele>103.97</ele>
        <time>2025-02-03T14:57:55.199Z</time>
      </trkpt>
      <trkpt lat="59.030847921967506" lon="12.635265989229083">
        <ele>103.93</ele>
        <time>2025-02-03T14:58:07.885Z</time>
      </trkpt>
      <trkpt lat="59.03080995194614" lon="12.635183930397034">
        <ele>103.88</ele>
        <time>2025-02-03T14:58:20.571Z</time>
      </trkpt>
      <trkpt lat="59.03077198192477" lon="12.635104972869158">
        <ele>103.82</ele>
        <time>2025-02-03T14:58:33.258Z</time>
      </trkpt>
      <trkpt lat="59.03073392808437" lon="12.63502693735063">
        <ele>103.77</ele>
        <time>2025-02-03T14:58:45.946Z</time>
      </trkpt>
      <trkpt lat="59.030693946406245" lon="12.634945968165994">
        <ele>103.7</ele>
        <time>2025-02-03T14:58:58.635Z</time>
      </trkpt>
      <trkpt lat="59.0306549705565" lon="12.634867932647467">
        <ele>103.64</ele>
        <time>2025-02-03T14:59:11.325Z</time>
      </trkpt>
      <trkpt lat="59.03061599470675" lon="12.634789980947971">
        <ele>103.57</ele>
        <time>2025-02-03T14:59:24.016Z</time>
      </trkpt>
      <trkpt lat="59.03057693503797" lon="12.634717980399728">
        <ele>103.49</ele>
        <time>2025-02-03T14:59:36.708Z</time>
      </trkpt>
      <trkpt lat="59.03053695335984" lon="12.634649919345975">
        <ele>103.41</ele>
        <time>2025-02-03T14:59:49.401Z</time>
      </trkpt>
      <trkpt lat="59.030496971681714" lon="12.634584959596395">
        <ele>103.32</ele>
        <time>2025-02-03T15:00:02.094Z</time>
      </trkpt>
      <trkpt lat="59.030455984175205" lon="12.634515976533294">
        <ele>103.23</ele>
        <time>2025-02-03T15:00:14.788Z</time>
      </trkpt>
      <trkpt lat="59.030412985011935" lon="12.634448921307921">
        <ele>103.13</ele>
        <time>2025-02-03T15:00:27.483Z</time>
      </trkpt>
      <trkpt lat="59.030367974191904" lon="12.63437993824482">
        <ele>103.03</ele>
        <time>2025-02-03T15:00:40.179Z</time>
      </trkpt>
      <trkpt lat="59.03031894005835" lon="12.63431497849524">
        <ele>102.93</ele>
        <time>2025-02-03T15:00:52.876Z</time>
      </trkpt>
      <trkpt lat="59.03027191758156" lon="12.634255969896913">
        <ele>102.82</ele>
        <time>2025-02-03T15:01:05.574Z</time>
      </trkpt>
      <trkpt lat="59.03022992424667" lon="12.634200984612107">
        <ele>102.7</ele>
        <time>2025-02-03T15:01:18.273Z</time>
      </trkpt>
      <trkpt lat="59.03018097393215" lon="12.634140970185399">
        <ele>102.58</ele>
        <time>2025-02-03T15:01:30.973Z</time>
      </trkpt>
      <trkpt lat="59.03012892231345" lon="12.63408095575869">
        <ele>102.46</ele>
        <time>2025-02-03T15:01:43.674Z</time>
      </trkpt>
      <trkpt lat="59.03007594868541" lon="12.634024964645505">
        <ele>102.33</ele>
        <time>2025-02-03T15:01:56.376Z</time>
      </trkpt>
      <trkpt lat="59.030023980885744" lon="12.633972996845841">
        <ele>102.2</ele>
        <time>2025-02-03T15:02:09.079Z</time>
      </trkpt>
      <trkpt lat="59.02996798977256" lon="12.633920945227146">
        <ele>102.06</ele>
        <time>2025-02-03T15:02:21.783Z</time>
      </trkpt>
      <trkpt lat="59.02991199865937" lon="12.633871994912624">
        <ele>101.92</ele>
        <time>2025-02-03T15:02:34.488Z</time>
      </trkpt>
      <trkpt lat="59.029853995889425" lon="12.633826984092593">
        <ele>101.78</ele>
        <time>2025-02-03T15:02:47.194Z</time>
      </trkpt>
      <trkpt lat="59.02979599311948" lon="12.633783984929323">
        <ele>101.63</ele>
        <time>2025-02-03T15:02:59.901Z</time>
      </trkpt>
      <trkpt lat="59.02973597869277" lon="12.633740985766053">
        <ele>101.48</ele>
        <time>2025-02-03T15:03:12.609Z</time>
      </trkpt>
      <trkpt lat="59.02966699562967" lon="12.633698992431164">
        <ele>101.32</ele>
        <time>2025-02-03T15:03:25.318Z</time>
      </trkpt>
      <trkpt lat="59.02960295788944" lon="12.633653981611133">
        <ele>101.16</ele>
        <time>2025-02-03T15:03:38.028Z</time>
      </trkpt>
      <trkpt lat="59.02953699231148" lon="12.633609976619482">
        <ele>100.99</ele>
        <time>2025-02-03T15:03:50.739Z</time>
      </trkpt>
      <trkpt lat="59.02947194874287" lon="12.633567983284593">
        <ele>100.82</ele>
        <time>2025-02-03T15:04:03.451Z</time>
      </trkpt>
      <trkpt lat="59.029403971508145" lon="12.633525989949703">
        <ele>100.65</ele>
        <time>2025-02-03T15:04:16.164Z</time>
      </trkpt>
      <trkpt lat="59.029337922111154" lon="12.633482990786433">
        <ele>100.48</ele>
        <time>2025-02-03T15:04:28.878Z</time>
      </trkpt>
      <trkpt lat="59.02926893904805" lon="12.633440997451544">
        <ele>100.3</ele>
        <time>2025-02-03T15:04:41.594Z</time>
      </trkpt>
      <trkpt lat="59.02919995598495" lon="12.633401937782764">
        <ele>100.12</ele>
        <time>2025-02-03T15:04:54.311Z</time>
      </trkpt>
      <trkpt lat="59.02912996709347" lon="12.633362961933017">
        <ele>99.93</ele>
        <time>2025-02-03T15:05:07.029Z</time>
      </trkpt>
      <trkpt lat="59.029058972373605" lon="12.63332691974938">
        <ele>99.75</ele>
        <time>2025-02-03T15:05:19.748Z</time>
      </trkpt>
      <trkpt lat="59.02898596599698" lon="12.633294984698296">
        <ele>99.56</ele>
        <time>2025-02-03T15:05:32.468Z</time>
      </trkpt>
      <trkpt lat="59.028910947963595" lon="12.63326296582818">
        <ele>99.37</ele>
        <time>2025-02-03T15:05:45.189Z</time>
      </trkpt>
      <trkpt lat="59.02883492410183" lon="12.633233964443207">
        <ele>99.18</ele>
        <time>2025-02-03T15:05:57.912Z</time>
      </trkpt>
      <trkpt lat="59.028756972402334" lon="12.633208986371756">
        <ele>98.98</ele>
        <time>2025-02-03T15:06:10.636Z</time>
      </trkpt>
      <trkpt lat="59.02867893688381" lon="12.633189959451556">
        <ele>98.78</ele>
        <time>2025-02-03T15:06:23.361Z</time>
      </trkpt>
      <trkpt lat="59.02859997935593" lon="12.633172944188118">
        <ele>98.58</ele>
        <time>2025-02-03T15:06:36.088Z</time>
      </trkpt>
      <trkpt lat="59.02851792052388" lon="12.633159952238202">
        <ele>98.37</ele>
        <time>2025-02-03T15:06:48.816Z</time>
      </trkpt>
      <trkpt lat="59.028434939682484" lon="12.633149977773428">
        <ele>98.17</ele>
        <time>2025-02-03T15:07:01.545Z</time>
      </trkpt>
      <trkpt lat="59.028350953012705" lon="12.633146960288286">
        <ele>97.96</ele>
        <time>2025-02-03T15:07:14.276Z</time>
      </trkpt>
      <trkpt lat="59.028265960514545" lon="12.633145954459906">
        <ele>97.75</ele>
        <time>2025-02-03T15:07:27.008Z</time>
      </trkpt>
      <trkpt lat="59.028180968016386" lon="12.633149977773428">
        <ele>97.53</ele>
        <time>2025-02-03T15:07:39.741Z</time>
      </trkpt>
      <trkpt lat="59.02809698134661" lon="12.63315198943019">
        <ele>97.32</ele>
        <time>2025-02-03T15:07:52.476Z</time>
      </trkpt>
      <trkpt lat="59.02801098302007" lon="12.633160958066583">
        <ele>97.11</ele>
        <time>2025-02-03T15:08:05.212Z</time>
      </trkpt>
      <trkpt lat="59.02792397886515" lon="12.633177973330021">
        <ele>96.89</ele>
        <time>2025-02-03T15:08:17.949Z</time>
      </trkpt>
      <trkpt lat="59.027835968881845" lon="12.633201945573092">
        <ele>96.68</ele>
        <time>2025-02-03T15:08:30.688Z</time>
      </trkpt>
      <trkpt lat="59.0277449414134" lon="12.633233964443207">
        <ele>96.46</ele>
        <time>2025-02-03T15:08:43.428Z</time>
      </trkpt>
      <trkpt lat="59.02765299193561" lon="12.633270928636193">
        <ele>96.24</ele>
        <time>2025-02-03T15:08:56.170Z</time>
      </trkpt>
      <trkpt lat="59.02755995281041" lon="12.633311999961734">
        <ele>96.03</ele>
        <time>2025-02-03T15:09:08.913Z</time>
      </trkpt>
      <trkpt lat="59.027468925341964" lon="12.633357932791114">
        <ele>95.81</ele>
        <time>2025-02-03T15:09:21.658Z</time>
      </trkpt>
      <trkpt lat="59.02737697586417" lon="12.633403949439526">
        <ele>95.59</ele>
        <time>2025-02-03T15:09:34.404Z</time>
      </trkpt>
      <trkpt lat="59.02728594839573" lon="12.633448960259557">
        <ele>95.36</ele>
        <time>2025-02-03T15:09:47.152Z</time>
      </trkpt>
      <trkpt lat="59.02719693258405" lon="12.633485924452543">
        <ele>95.13</ele>
        <time>2025-02-03T15:09:59.901Z</time>
      </trkpt>
      <trkpt lat="59.027107916772366" lon="12.63351995497942">
        <ele>94.9</ele>
        <time>2025-02-03T15:10:12.652Z</time>
      </trkpt>
      <trkpt lat="59.027017978951335" lon="12.633551973849535">
        <ele>94.67</ele>
        <time>2025-02-03T15:10:25.404Z</time>
      </trkpt>
      <trkpt lat="59.02692594565451" lon="12.633579969406128">
        <ele>94.43</ele>
        <time>2025-02-03T15:10:38.158Z</time>
      </trkpt>
      <trkpt lat="59.0268299728632" lon="12.633599918335676">
        <ele>94.19</ele>
        <time>2025-02-03T15:10:50.913Z</time>
      </trkpt>
      <trkpt lat="59.02673391625285" lon="12.63360595330596">
        <ele>93.96</ele>
        <time>2025-02-03T15:11:03.670Z</time>
      </trkpt>
      <trkpt lat="59.026628974825144" lon="12.633598996326327">
        <ele>93.72</ele>
        <time>2025-02-03T15:11:16.429Z</time>
      </trkpt>
      <trkpt lat="59.02653099037707" lon="12.633576951920986">
        <ele>93.49</ele>
        <time>2025-02-03T15:11:29.189Z</time>
      </trkpt>
      <trkpt lat="59.0264359395951" lon="12.633547950536013">
        <ele>93.25</ele>
        <time>2025-02-03T15:11:41.951Z</time>
      </trkpt>
      <trkpt lat="59.02634197846055" lon="12.633514925837517">
        <ele>93.02</ele>
        <time>2025-02-03T15:11:54.714Z</time>
      </trkpt>
      <trkpt lat="59.026247933506966" lon="12.63347695581615">
        <ele>92.79</ele>
        <time>2025-02-03T15:12:07.479Z</time>
      </trkpt>
      <trkpt lat="59.02615196071565" lon="12.63343496248126">
        <ele>92.56</ele>
        <time>2025-02-03T15:12:20.245Z</time>
      </trkpt>
      <trkpt lat="59.02605598792434" lon="12.63339196331799">
        <ele>92.32</ele>
        <time>2025-02-03T15:12:33.013Z</time>
      </trkpt>
      <trkpt lat="59.02595993131399" lon="12.633350975811481">
        <ele>92.09</ele>
        <time>2025-02-03T15:12:45.782Z</time>
      </trkpt>
      <trkpt lat="59.025860941037536" lon="12.633321974426508">
        <ele>91.85</ele>
        <time>2025-02-03T15:12:58.553Z</time>
      </trkpt>
      <trkpt lat="59.02575792744756" lon="12.633307976648211">
        <ele>91.62</ele>
        <time>2025-02-03T15:13:11.326Z</time>
      </trkpt>
      <trkpt lat="59.02565097436309" lon="12.633313927799463">
        <ele>91.38</ele>
        <time>2025-02-03T15:13:24.100Z</time>
      </trkpt>
      <trkpt lat="59.02554293163121" lon="12.633343935012817">
        <ele>91.15</ele>
        <time>2025-02-03T15:13:36.876Z</time>
      </trkpt>
      <trkpt lat="59.02543597854674" lon="12.633395986631513">
        <ele>90.91</ele>
        <time>2025-02-03T15:13:49.654Z</time>
      </trkpt>
      <trkpt lat="59.02533195912838" lon="12.633472932502627">
        <ele>90.68</ele>
        <time>2025-02-03T15:14:02.434Z</time>
      </trkpt>
      <trkpt lat="59.02522995136678" lon="12.633560942485929">
        <ele>90.45</ele>
        <time>2025-02-03T15:14:15.216Z</time>
      </trkpt>
      <trkpt lat="59.025129955261946" lon="12.63364895246923">
        <ele>90.23</ele>
        <time>2025-02-03T15:14:27.999Z</time>
      </trkpt>
      <trkpt lat="59.02502995915711" lon="12.633737968280911">
        <ele>90.01</ele>
        <time>2025-02-03T15:14:40.784Z</time>
      </trkpt>
      <trkpt lat="59.024931974709034" lon="12.63382296077907">
        <ele>89.79</ele>
        <time>2025-02-03T15:14:53.571Z</time>
      </trkpt>
      <trkpt lat="59.02483499608934" lon="12.633900996297598">
        <ele>89.57</ele>
        <time>2025-02-03T15:15:06.359Z</time>
      </trkpt>
      <trkpt lat="59.02473692782223" lon="12.6339699793607">
        <ele>89.36</ele>
        <time>2025-02-03T15:15:19.149Z</time>
      </trkpt>
      <trkpt lat="59.02463994920254" lon="12.634021947160363">
        <ele>89.14</ele>
        <time>2025-02-03T15:15:31.941Z</time>
      </trkpt>
      <trkpt lat="59.02454196475446" lon="12.634048936888576">
        <ele>88.94</ele>
        <time>2025-02-03T15:15:44.734Z</time>
      </trkpt>
      <trkpt lat="59.02444599196315" lon="12.634044997394085">
        <ele>88.74</ele>
        <time>2025-02-03T15:15:57.529Z</time>
      </trkpt>
      <trkpt lat="59.02435194700956" lon="12.634015996009111">
        <ele>88.53</ele>
        <time>2025-02-03T15:16:10.325Z</time>
      </trkpt>
      <trkpt lat="59.0242619253695" lon="12.633961932733655">
        <ele>88.33</ele>
        <time>2025-02-03T15:16:23.123Z</time>
      </trkpt>
      <trkpt lat="59.02417693287134" lon="12.63388892635703">
        <ele>88.13</ele>
        <time>2025-02-03T15:16:35.922Z</time>
      </trkpt>
      <trkpt lat="59.024094957858324" lon="12.63380292803049">
        <ele>87.92</ele>
        <time>2025-02-03T15:16:48.723Z</time>
      </trkpt>
      <trkpt lat="59.0240169223398" lon="12.633708966895938">
        <ele>87.71</ele>
        <time>2025-02-03T15:17:01.525Z</time>
      </trkpt>
      <trkpt lat="59.0239389706403" lon="12.633615927770734">
        <ele>87.51</ele>
        <time>2025-02-03T15:17:14.329Z</time>
      </trkpt>
      <trkpt lat="59.023861940950155" lon="12.63352196663618">
        <ele>87.3</ele>
        <time>2025-02-03T15:17:27.134Z</time>
      </trkpt>
      <trkpt lat="59.02378591708839" lon="12.633429933339357">
        <ele>87.1</ele>
        <time>2025-02-03T15:17:39.941Z</time>
      </trkpt>
      <trkpt lat="59.023708971217275" lon="12.633337983861566">
        <ele>86.9</ele>
        <time>2025-02-03T15:17:52.749Z</time>
      </trkpt>
      <trkpt lat="59.02363093569875" lon="12.633244944736362">
        <ele>86.7</ele>
        <time>2025-02-03T15:18:05.559Z</time>
      </trkpt>
      <trkpt lat="59.02355298399925" lon="12.63315198943019">
        <ele>86.51</ele>
        <time>2025-02-03T15:18:18.370Z</time>
      </trkpt>
      <trkpt lat="59.023473942652345" lon="12.633061967790127">
        <ele>86.32</ele>
        <time>2025-02-03T15:18:31.183Z</time>
      </trkpt>
      <trkpt lat="59.02339498512447" lon="12.632969934493303">
        <ele>86.13</ele>
        <time>2025-02-03T15:18:43.997Z</time>
      </trkpt>
      <trkpt lat="59.02331594377756" lon="12.632876979187131">
        <ele>85.95</ele>
        <time>2025-02-03T15:18:56.813Z</time>
      </trkpt>
      <trkpt lat="59.023237992078066" lon="12.632781928405166">
        <ele>85.76</ele>
        <time>2025-02-03T15:19:09.630Z</time>
      </trkpt>
      <trkpt lat="59.02316096238792" lon="12.632685955613852">
        <ele>85.58</ele>
        <time>2025-02-03T15:19:22.448Z</time>
      </trkpt>
      <trkpt lat="59.023084938526154" lon="12.632589982822537">
        <ele>85.39</ele>
        <time>2025-02-03T15:19:35.268Z</time>
      </trkpt>
      <trkpt lat="59.02300598099828" lon="12.632491998374462">
        <ele>85.21</ele>
        <time>2025-02-03T15:19:48.089Z</time>
      </trkpt>
      <trkpt lat="59.02292492799461" lon="12.632390996441245">
        <ele>85.03</ele>
        <time>2025-02-03T15:20:00.912Z</time>
      </trkpt>
      <trkpt lat="59.02284295298159" lon="12.632290916517377">
        <ele>84.86</ele>
        <time>2025-02-03T15:20:13.737Z</time>
      </trkpt>
      <trkpt lat="59.02275896631181" lon="12.63218798674643">
        <ele>84.69</ele>
        <time>2025-02-03T15:20:26.563Z</time>
      </trkpt>
      <trkpt lat="59.022674979642034" lon="12.632084973156452">
        <ele>84.52</ele>
        <time>2025-02-03T15:20:39.391Z</time>
      </trkpt>
      <trkpt lat="59.022589987143874" lon="12.631982965394855">
        <ele>84.36</ele>
        <time>2025-02-03T15:20:52.220Z</time>
      </trkpt>
      <trkpt lat="59.022502982988954" lon="12.631877940148115">
        <ele>84.2</ele>
        <time>2025-02-03T15:21:05.051Z</time>
      </trkpt>
      <trkpt lat="59.02241296134889" lon="12.631768975406885">
        <ele>84.05</ele>
        <time>2025-02-03T15:21:17.884Z</time>
      </trkpt>
      <trkpt lat="59.02232293970883" lon="12.631656993180513">
        <ele>83.89</ele>
        <time>2025-02-03T15:21:30.718Z</time>
      </trkpt>
      <trkpt lat="59.02222998440266" lon="12.63154098764062">
        <ele>83.74</ele>
        <time>2025-02-03T15:21:43.554Z</time>
      </trkpt>
      <trkpt lat="59.02213694527745" lon="12.631418947130442">
        <ele>83.59</ele>
        <time>2025-02-03T15:21:56.392Z</time>
      </trkpt>
      <trkpt lat="59.02204499579966" lon="12.63128793798387">
        <ele>83.44</ele>
        <time>2025-02-03T15:22:09.232Z</time>
      </trkpt>
      <trkpt lat="59.02195296250284" lon="12.631152989342809">
        <ele>83.28</ele>
        <time>2025-02-03T15:22:22.074Z</time>
      </trkpt>
      <trkpt lat="59.021863946691155" lon="12.631009994074702">
        <ele>83.12</ele>
        <time>2025-02-03T15:22:34.918Z</time>
      </trkpt>
      <trkpt lat="59.021776942536235" lon="12.630860963836312">
        <ele>82.96</ele>
        <time>2025-02-03T15:22:47.763Z</time>
      </trkpt>
      <trkpt lat="59.021690944209695" lon="12.630707994103432">
        <ele>82.81</ele>
        <time>2025-02-03T15:23:00.610Z</time>
      </trkpt>
      <trkpt lat="59.02160997502506" lon="12.630550917237997">
        <ele>82.67</ele>
        <time>2025-02-03T15:23:13.459Z</time>
      </trkpt>
      <trkpt lat="59.02153596282005" lon="12.630394930019975">
        <ele>82.53</ele>
        <time>2025-02-03T15:23:26.310Z</time>
      </trkpt>
      <trkpt lat="59.02146396227181" lon="12.630241960287094">
        <ele>82.39</ele>
        <time>2025-02-03T15:23:39.163Z</time>
      </trkpt>
      <trkpt lat="59.02139598503709" lon="12.630092930048704">
        <ele>82.25</ele>
        <time>2025-02-03T15:23:52.017Z</time>
      </trkpt>
      <trkpt lat="59.02133094146848" lon="12.629950940608978">
        <ele>82.11</ele>
        <time>2025-02-03T15:24:04.873Z</time>
      </trkpt>
      <trkpt lat="59.02126992121339" lon="12.629815991967916">
        <ele>81.98</ele>
        <time>2025-02-03T15:24:17.730Z</time>
      </trkpt>
      <trkpt lat="59.02120999060571" lon="12.629685988649726">
        <ele>81.85</ele>
        <time>2025-02-03T15:24:30.589Z</time>
      </trkpt>
      <trkpt lat="59.02114897035062" lon="12.629564953967929">
        <ele>81.72</ele>
        <time>2025-02-03T15:24:43.449Z</time>
      </trkpt>
      <trkpt lat="59.02108392678201" lon="12.629451965913177">
        <ele>81.59</ele>
        <time>2025-02-03T15:24:56.310Z</time>
      </trkpt>
      <trkpt lat="59.02101695537567" lon="12.629340989515185">
        <ele>81.46</ele>
        <time>2025-02-03T15:25:09.173Z</time>
      </trkpt>
      <trkpt lat="59.02094696648419" lon="12.629230935126543">
        <ele>81.33</ele>
        <time>2025-02-03T15:25:22.037Z</time>
      </trkpt>
      <trkpt lat="59.02087697759271" lon="12.629120964556932">
        <ele>81.21</ele>
        <time>2025-02-03T15:25:34.903Z</time>
      </trkpt>
      <trkpt lat="59.02080497704446" lon="12.629012921825051">
        <ele>81.09</ele>
        <time>2025-02-03T15:25:47.770Z</time>
      </trkpt>
      <trkpt lat="59.02073297649622" lon="12.628904962912202">
        <ele>80.96</ele>
        <time>2025-02-03T15:26:00.639Z</time>
      </trkpt>
      <trkpt lat="59.020657958462834" lon="12.628794992342591">
        <ele>80.84</ele>
        <time>2025-02-03T15:26:13.509Z</time>
      </trkpt>
      <trkpt lat="59.02057799510658" lon="12.628691978752613">
        <ele>80.73</ele>
        <time>2025-02-03T15:26:26.381Z</time>
      </trkpt>
      <trkpt lat="59.02049493044615" lon="12.628596927970648">
        <ele>80.61</ele>
        <time>2025-02-03T15:26:39.254Z</time>
      </trkpt>
      <trkpt lat="59.020400969311595" lon="12.628510929644108">
        <ele>80.49</ele>
        <time>2025-02-03T15:26:52.129Z</time>
      </trkpt>
      <trkpt lat="59.02030097320676" lon="12.628446975722909">
        <ele>80.37</ele>
        <time>2025-02-03T15:27:05.006Z</time>
      </trkpt>
      <trkpt lat="59.02019795961678" lon="12.628417974337935">
        <ele>80.26</ele>
        <time>2025-02-03T15:27:17.884Z</time>
      </trkpt>
      <trkpt lat="59.02009293437004" lon="12.628413951024413">
        <ele>80.16</ele>
        <time>2025-02-03T15:27:30.764Z</time>
      </trkpt>
      <trkpt lat="59.01998698711395" lon="12.628432977944613">
        <ele>80.07</ele>
        <time>2025-02-03T15:27:43.646Z</time>
      </trkpt>
      <trkpt lat="59.019882967695594" lon="12.628474971279502">
        <ele>79.97</ele>
        <time>2025-02-03T15:27:56.529Z</time>
      </trkpt>
      <trkpt lat="59.01978297159076" lon="12.62853397987783">
        <ele>79.89</ele>
        <time>2025-02-03T15:28:09.414Z</time>
      </trkpt>
      <trkpt lat="59.01968297548592" lon="12.628604974597692">
        <ele>79.8</ele>
        <time>2025-02-03T15:28:22.301Z</time>
      </trkpt>
      <trkpt lat="59.019584991037846" lon="12.628682926297188">
        <ele>79.72</ele>
        <time>2025-02-03T15:28:35.190Z</time>
      </trkpt>
      <trkpt lat="59.01948692277074" lon="12.628759955987334">
        <ele>79.64</ele>
        <time>2025-02-03T15:28:48.080Z</time>
      </trkpt>
      <trkpt lat="59.019390949979424" lon="12.628833968192339">
        <ele>79.56</ele>
        <time>2025-02-03T15:29:00.972Z</time>
      </trkpt>
      <trkpt lat="59.01929598301649" lon="12.628898927941918">
        <ele>79.49</ele>
        <time>2025-02-03T15:29:13.865Z</time>
      </trkpt>
      <trkpt lat="59.019198920577765" lon="12.628948967903852">
        <ele>79.41</ele>
        <time>2025-02-03T15:29:26.760Z</time>
      </trkpt>
      <trkpt lat="59.01910395361483" lon="12.628981992602348">
        <ele>79.34</ele>
        <time>2025-02-03T15:29:39.657Z</time>
      </trkpt>
      <trkpt lat="59.019006974995136" lon="12.628997918218374">
        <ele>79.27</ele>
        <time>2025-02-03T15:29:52.555Z</time>
      </trkpt>
      <trkpt lat="59.01890899054706" lon="12.628999929875135">
        <ele>79.2</ele>
        <time>2025-02-03T15:30:05.455Z</time>
      </trkpt>
      <trkpt lat="59.01880698278546" lon="12.628990961238742">
        <ele>79.13</ele>
        <time>2025-02-03T15:30:18.356Z</time>
      </trkpt>
      <trkpt lat="59.01870095171034" lon="12.628967994824052">
        <ele>79.06</ele>
        <time>2025-02-03T15:30:31.259Z</time>
      </trkpt>
      <trkpt lat="59.018596932291985" lon="12.628934970125556">
        <ele>78.99</ele>
        <time>2025-02-03T15:30:44.164Z</time>
      </trkpt>
      <trkpt lat="59.01849593035877" lon="12.628893982619047">
        <ele>78.92</ele>
        <time>2025-02-03T15:30:57.070Z</time>
      </trkpt>
      <trkpt lat="59.01839995756745" lon="12.628844948485494">
        <ele>78.86</ele>
        <time>2025-02-03T15:31:09.978Z</time>
      </trkpt>
      <trkpt lat="59.01830499060452" lon="12.628786945715547">
        <ele>78.8</ele>
        <time>2025-02-03T15:31:22.888Z</time>
      </trkpt>
      <trkpt lat="59.01821698062122" lon="12.628723997622728">
        <ele>78.75</ele>
        <time>2025-02-03T15:31:35.799Z</time>
      </trkpt>
      <trkpt lat="59.01813492178917" lon="12.628656942397356">
        <ele>78.69</ele>
        <time>2025-02-03T15:31:48.712Z</time>
      </trkpt>
      <trkpt lat="59.018056970089674" lon="12.628589970991015">
        <ele>78.64</ele>
        <time>2025-02-03T15:32:01.626Z</time>
      </trkpt>
      <trkpt lat="59.01798094622791" lon="12.628521993756294">
        <ele>78.59</ele>
        <time>2025-02-03T15:32:14.541Z</time>
      </trkpt>
      <trkpt lat="59.017910957336426" lon="12.628456950187683">
        <ele>78.55</ele>
        <time>2025-02-03T15:32:27.458Z</time>
      </trkpt>
      <trkpt lat="59.017845997586846" lon="12.628397941589355">
        <ele>78.51</ele>
        <time>2025-02-03T15:32:40.376Z</time>
      </trkpt>
      <trkpt lat="59.017781959846616" lon="12.628340944647789">
        <ele>78.47</ele>
        <time>2025-02-03T15:32:53.295Z</time>
      </trkpt>
      <trkpt lat="59.01772496290505" lon="12.628284953534603">
        <ele>78.44</ele>
        <time>2025-02-03T15:33:06.215Z</time>
      </trkpt>
      <trkpt lat="59.01766897179186" lon="12.628230974078178">
        <ele>78.41</ele>
        <time>2025-02-03T15:33:19.136Z</time>
      </trkpt>
      <trkpt lat="59.01761499233544" lon="12.628179928287864">
        <ele>78.38</ele>
        <time>2025-02-03T15:33:32.058Z</time>
      </trkpt>
      <trkpt lat="59.0175599232316" lon="12.62812695465982">
        <ele>78.35</ele>
        <time>2025-02-03T15:33:44.981Z</time>
      </trkpt>
      <trkpt lat="59.017504937946796" lon="12.628077920526266">
        <ele>78.33</ele>
        <time>2025-02-03T15:33:57.905Z</time>
      </trkpt>
      <trkpt lat="59.01744894683361" lon="12.628034921362996">
        <ele>78.31</ele>
        <time>2025-02-03T15:34:10.830Z</time>
      </trkpt>
      <trkpt lat="59.017395973205566" lon="12.627995945513248">
        <ele>78.29</ele>
        <time>2025-02-03T15:34:23.756Z</time>
      </trkpt>
      <trkpt lat="59.01734392158687" lon="12.627958981320262">
        <ele>78.28</ele>
        <time>2025-02-03T15:34:36.683Z</time>
      </trkpt>
      <trkpt lat="59.01729497127235" lon="12.627921933308244">
        <ele>78.26</ele>
        <time>2025-02-03T15:34:49.610Z</time>
      </trkpt>
      <trkpt lat="59.017245937138796" lon="12.627884969115257">
        <ele>78.25</ele>
        <time>2025-02-03T15:35:02.538Z</time>
      </trkpt>
      <trkpt lat="59.017197992652655" lon="12.62784699909389">
        <ele>78.24</ele>
        <time>2025-02-03T15:35:15.467Z</time>
      </trkpt>
      <trkpt lat="59.0171489585191" lon="12.627808945253491">
        <ele>78.23</ele>
        <time>2025-02-03T15:35:28.397Z</time>
      </trkpt>
      <trkpt lat="59.01710093021393" lon="12.627771981060505">
        <ele>78.22</ele>
        <time>2025-02-03T15:35:41.328Z</time>
      </trkpt>
      <trkpt lat="59.017051979899406" lon="12.627734933048487">
        <ele>78.22</ele>
        <time>2025-02-03T15:35:54.260Z</time>
      </trkpt>
      <trkpt lat="59.01700294576585" lon="12.627701992169023">
        <ele>78.21</ele>
        <time>2025-02-03T15:36:07.192Z</time>
      </trkpt>
      <trkpt lat="59.01695198379457" lon="12.627670979127288">
        <ele>78.2</ele>
        <time>2025-02-03T15:36:20.125Z</time>
      </trkpt>
      <trkpt lat="59.016900938004255" lon="12.627640971913934">
        <ele>78.2</ele>
        <time>2025-02-03T15:36:33.059Z</time>
      </trkpt>
      <trkpt lat="59.01684997603297" lon="12.62761297635734">
        <ele>78.2</ele>
        <time>2025-02-03T15:36:45.994Z</time>
      </trkpt>
      <trkpt lat="59.0167969185859" lon="12.627585986629128">
        <ele>78.2</ele>
        <time>2025-02-03T15:36:58.930Z</time>
      </trkpt>
      <trkpt lat="59.01674293912947" lon="12.627560924738646">
        <ele>78.19</ele>
        <time>2025-02-03T15:37:11.867Z</time>
      </trkpt>
      <trkpt lat="59.01668895967305" lon="12.627538964152336">
        <ele>78.19</ele>
        <time>2025-02-03T15:37:24.805Z</time>
      </trkpt>
      <trkpt lat="59.01663699187338" lon="12.627519937232137">
        <ele>78.2</ele>
        <time>2025-02-03T15:37:37.743Z</time>
      </trkpt>
      <trkpt lat="59.01658393442631" lon="12.627509962767363">
        <ele>78.2</ele>
        <time>2025-02-03T15:37:50.682Z</time>
      </trkpt>
      <trkpt lat="59.01652995496988" lon="12.627509962767363">
        <ele>78.2</ele>
        <time>2025-02-03T15:38:03.622Z</time>
      </trkpt>
      <trkpt lat="59.0164739638567" lon="12.627518931403756">
        <ele>78.21</ele>
        <time>2025-02-03T15:38:16.563Z</time>
      </trkpt>
      <trkpt lat="59.01641696691513" lon="12.627538964152336">
        <ele>78.22</ele>
        <time>2025-02-03T15:38:29.505Z</time>
      </trkpt>
      <trkpt lat="59.016358964145184" lon="12.627564948052168">
        <ele>78.23</ele>
        <time>2025-02-03T15:38:42.448Z</time>
      </trkpt>
      <trkpt lat="59.016299955546856" lon="12.627593949437141">
        <ele>78.24</ele>
        <time>2025-02-03T15:38:55.392Z</time>
      </trkpt>
      <trkpt lat="59.01624195277691" lon="12.627626974135637">
        <ele>78.26</ele>
        <time>2025-02-03T15:39:08.337Z</time>
      </trkpt>
      <trkpt lat="59.01618495583534" lon="12.627667961642146">
        <ele>78.27</ele>
        <time>2025-02-03T15:39:21.283Z</time>
      </trkpt>
      <trkpt lat="59.016127958893776" lon="12.627715989947319">
        <ele>78.28</ele>
        <time>2025-02-03T15:39:34.230Z</time>
      </trkpt>
      <trkpt lat="59.01607096195221" lon="12.627767957746983">
        <ele>78.29</ele>
        <time>2025-02-03T15:39:47.178Z</time>
      </trkpt>
      <trkpt lat="59.01601195335388" lon="12.62782696634531">
        <ele>78.31</ele>
        <time>2025-02-03T15:40:00.127Z</time>
      </trkpt>
      <trkpt lat="59.015952944755554" lon="12.62789293192327">
        <ele>78.32</ele>
        <time>2025-02-03T15:40:13.077Z</time>
      </trkpt>
      <trkpt lat="59.01589594781399" lon="12.627966944128275">
        <ele>78.34</ele>
        <time>2025-02-03T15:40:26.028Z</time>
      </trkpt>
      <trkpt lat="59.01584196835756" lon="12.628050930798054">
        <ele>78.35</ele>
        <time>2025-02-03T15:40:38.980Z</time>
      </trkpt>
      <trkpt lat="59.01578698307276" lon="12.628143969923258">
        <ele>78.37</ele>
        <time>2025-02-03T15:40:51.933Z</time>
      </trkpt>
      <trkpt lat="59.01573099195957" lon="12.628247989341617">
        <ele>78.39</ele>
        <time>2025-02-03T15:41:04.888Z</time>
      </trkpt>
      <trkpt lat="59.015673995018005" lon="12.628359971567988">
        <ele>78.41</ele>
        <time>2025-02-03T15:41:17.844Z</time>
      </trkpt>
      <trkpt lat="59.01561699807644" lon="12.628477988764644">
        <ele>78.43</ele>
        <time>2025-02-03T15:41:30.801Z</time>
      </trkpt>
      <trkpt lat="59.01555899530649" lon="12.62860195711255">
        <ele>78.45</ele>
        <time>2025-02-03T15:41:43.760Z</time>
      </trkpt>
      <trkpt lat="59.015501998364925" lon="12.628731960430741">
        <ele>78.47</ele>
        <time>2025-02-03T15:41:56.720Z</time>
      </trkpt>
      <trkpt lat="59.01544592343271" lon="12.628864981234074">
        <ele>78.48</ele>
        <time>2025-02-03T15:42:09.682Z</time>
      </trkpt>
      <trkpt lat="59.01538892649114" lon="12.628999929875135">
        <ele>78.49</ele>
        <time>2025-02-03T15:42:22.645Z</time>
      </trkpt>
      <trkpt lat="59.015330923721194" lon="12.62913797982037">
        <ele>78.49</ele>
        <time>2025-02-03T15:42:35.609Z</time>
      </trkpt>
      <trkpt lat="59.01526998728514" lon="12.629279969260097">
        <ele>78.51</ele>
        <time>2025-02-03T15:42:48.575Z</time>
      </trkpt>
      <trkpt lat="59.01520695537329" lon="12.629419947043061">
        <ele>78.52</ele>
        <time>2025-02-03T15:43:01.543Z</time>
      </trkpt>
      <trkpt lat="59.01514098979533" lon="12.629556991159916">
        <ele>78.53</ele>
        <time>2025-02-03T15:43:14.512Z</time>
      </trkpt>
      <trkpt lat="59.015073934569955" lon="12.629692945629358">
        <ele>78.55</ele>
        <time>2025-02-03T15:43:27.483Z</time>
      </trkpt>
      <trkpt lat="59.015005957335234" lon="12.629827978089452">
        <ele>78.57</ele>
        <time>2025-02-03T15:43:40.455Z</time>
      </trkpt>
      <trkpt lat="59.01493395678699" lon="12.629956975579262">
        <ele>78.58</ele>
        <time>2025-02-03T15:43:53.429Z</time>
      </trkpt>
      <trkpt lat="59.014857932925224" lon="12.630074992775917">
        <ele>78.6</ele>
        <time>2025-02-03T15:44:06.404Z</time>
      </trkpt>
      <trkpt lat="59.01478098705411" lon="12.630184963345528">
        <ele>78.62</ele>
        <time>2025-02-03T15:44:19.381Z</time>
      </trkpt>
      <trkpt lat="59.0146969165653" lon="12.630280936136842">
        <ele>78.63</ele>
        <time>2025-02-03T15:44:32.359Z</time>
      </trkpt>
      <trkpt lat="59.01460899040103" lon="12.63036098331213">
        <ele>78.64</ele>
        <time>2025-02-03T15:44:45.339Z</time>
      </trkpt>
      <trkpt lat="59.01451796293259" lon="12.630430972203612">
        <ele>78.66</ele>
        <time>2025-02-03T15:44:58.321Z</time>
      </trkpt>
      <trkpt lat="59.01442299596965" lon="12.63048998080194">
        <ele>78.67</ele>
        <time>2025-02-03T15:45:11.304Z</time>
      </trkpt>
      <trkpt lat="59.01432895101607" lon="12.6305369194597">
        <ele>78.69</ele>
        <time>2025-02-03T15:45:24.289Z</time>
      </trkpt>
      <trkpt lat="59.01422996073961" lon="12.630571955814958">
        <ele>78.7</ele>
        <time>2025-02-03T15:45:37.275Z</time>
      </trkpt>
      <trkpt lat="59.01413499377668" lon="12.630591988563538">
        <ele>78.72</ele>
        <time>2025-02-03T15:45:50.263Z</time>
      </trkpt>
      <trkpt lat="59.01403893716633" lon="12.630600957199931">
        <ele>78.73</ele>
        <time>2025-02-03T15:46:03.252Z</time>
      </trkpt>
      <trkpt lat="59.01394195854664" lon="12.630606992170215">
        <ele>78.75</ele>
        <time>2025-02-03T15:46:16.243Z</time>
      </trkpt>
      <trkpt lat="59.01384397409856" lon="12.630613949149847">
        <ele>78.77</ele>
        <time>2025-02-03T15:46:29.236Z</time>
      </trkpt>
      <trkpt lat="59.01374699547887" lon="12.63061897829175">
        <ele>78.79</ele>
        <time>2025-02-03T15:46:42.230Z</time>
      </trkpt>
      <trkpt lat="59.01365093886852" lon="12.63062291778624">
        <ele>78.81</ele>
        <time>2025-02-03T15:46:55.226Z</time>
      </trkpt>
      <trkpt lat="59.01355295442045" lon="12.630627946928144">
        <ele>78.83</ele>
        <time>2025-02-03T15:47:08.223Z</time>
      </trkpt>
      <trkpt lat="59.01345698162913" lon="12.630631970241666">
        <ele>78.85</ele>
        <time>2025-02-03T15:47:21.222Z</time>
      </trkpt>
      <trkpt lat="59.01336193084717" lon="12.630636999383569">
        <ele>78.86</ele>
        <time>2025-02-03T15:47:34.222Z</time>
      </trkpt>
      <trkpt lat="59.013267969712615" lon="12.63064194470644">
        <ele>78.87</ele>
        <time>2025-02-03T15:47:47.224Z</time>
      </trkpt>
      <trkpt lat="59.01317392475903" lon="12.630649991333485">
        <ele>78.89</ele>
        <time>2025-02-03T15:48:00.227Z</time>
      </trkpt>
      <trkpt lat="59.01308096945286" lon="12.630659965798259">
        <ele>78.9</ele>
        <time>2025-02-03T15:48:13.232Z</time>
      </trkpt>
      <trkpt lat="59.012988936156034" lon="12.630669940263033">
        <ele>78.91</ele>
        <time>2025-02-03T15:48:26.238Z</time>
      </trkpt>
      <trkpt lat="59.01289497502148" lon="12.630681926384568">
        <ele>78.93</ele>
        <time>2025-02-03T15:48:39.246Z</time>
      </trkpt>
      <trkpt lat="59.01280394755304" lon="12.630694918334484">
        <ele>78.94</ele>
        <time>2025-02-03T15:48:52.255Z</time>
      </trkpt>
      <trkpt lat="59.01271199807525" lon="12.630706988275051">
        <ele>78.95</ele>
        <time>2025-02-03T15:49:05.266Z</time>
      </trkpt>
      <trkpt lat="59.01261996477842" lon="12.630718974396586">
        <ele>78.97</ele>
        <time>2025-02-03T15:49:18.278Z</time>
      </trkpt>
      <trkpt lat="59.01252692565322" lon="12.630731966346502">
        <ele>78.98</ele>
        <time>2025-02-03T15:49:31.292Z</time>
      </trkpt>
      <trkpt lat="59.01243397034705" lon="12.63074898160994">
        <ele>79.0</ele>
        <time>2025-02-03T15:49:44.307Z</time>
      </trkpt>
      <trkpt lat="59.01234093122184" lon="12.630765996873379">
        <ele>79.02</ele>
        <time>2025-02-03T15:49:57.324Z</time>
      </trkpt>
      <trkpt lat="59.01224797591567" lon="12.630777982994914">
        <ele>79.03</ele>
        <time>2025-02-03T15:50:10.342Z</time>
      </trkpt>
      <trkpt lat="59.01215594261885" lon="12.63079097494483">
        <ele>79.04</ele>
        <time>2025-02-03T15:50:23.362Z</time>
      </trkpt>
      <trkpt lat="59.012061981484294" lon="12.630804972723126">
        <ele>79.06</ele>
        <time>2025-02-03T15:50:36.383Z</time>
      </trkpt>
      <trkpt lat="59.01196894235909" lon="12.630818970501423">
        <ele>79.07</ele>
        <time>2025-02-03T15:50:49.406Z</time>
      </trkpt>
      <trkpt lat="59.01187498122454" lon="12.63083296827972">
        <ele>79.08</ele>
        <time>2025-02-03T15:51:02.430Z</time>
      </trkpt>
      <trkpt lat="59.01177993044257" lon="12.630842942744493">
        <ele>79.1</ele>
        <time>2025-02-03T15:51:15.456Z</time>
      </trkpt>
      <trkpt lat="59.0116869751364" lon="12.630850989371538">
        <ele>79.11</ele>
        <time>2025-02-03T15:51:28.483Z</time>
      </trkpt>
      <trkpt lat="59.011593936011195" lon="12.63085794635117">
        <ele>79.13</ele>
        <time>2025-02-03T15:51:41.512Z</time>
      </trkpt>
      <trkpt lat="59.0115019865334" lon="12.630860963836312">
        <ele>79.14</ele>
        <time>2025-02-03T15:51:54.542Z</time>
      </trkpt>
      <trkpt lat="59.0114089474082" lon="12.630861969664693">
        <ele>79.16</ele>
        <time>2025-02-03T15:52:07.574Z</time>
      </trkpt>
      <trkpt lat="59.01131699793041" lon="12.630859958007932">
        <ele>79.17</ele>
        <time>2025-02-03T15:52:20.607Z</time>
      </trkpt>
      <trkpt lat="59.011225970461965" lon="12.630850989371538">
        <ele>79.19</ele>
        <time>2025-02-03T15:52:33.642Z</time>
      </trkpt>
      <trkpt lat="59.01113494299352" lon="12.630838919430971">
        <ele>79.2</ele>
        <time>2025-02-03T15:52:46.678Z</time>
      </trkpt>
      <trkpt lat="59.01104492135346" lon="12.630822993814945">
        <ele>79.22</ele>
        <time>2025-02-03T15:52:59.716Z</time>
      </trkpt>
      <trkpt lat="59.01095397770405" lon="12.630804972723126">
        <ele>79.23</ele>
        <time>2025-02-03T15:53:12.755Z</time>
      </trkpt>
      <trkpt lat="59.010863956063986" lon="12.630781922489405">
        <ele>79.24</ele>
        <time>2025-02-03T15:53:25.795Z</time>
      </trkpt>
      <trkpt lat="59.01077393442392" lon="12.630753926932812">
        <ele>79.24</ele>
        <time>2025-02-03T15:53:38.837Z</time>
      </trkpt>
      <trkpt lat="59.01068399660289" lon="12.630716962739825">
        <ele>79.25</ele>
        <time>2025-02-03T15:53:51.880Z</time>
      </trkpt>
      <trkpt lat="59.01059296913445" lon="12.630674969404936">
        <ele>79.26</ele>
        <time>2025-02-03T15:54:04.925Z</time>
      </trkpt>
      <trkpt lat="59.01050596497953" lon="12.630633981898427">
        <ele>79.26</ele>
        <time>2025-02-03T15:54:17.971Z</time>
      </trkpt>
      <trkpt lat="59.01042097248137" lon="12.630589976906776">
        <ele>79.27</ele>
        <time>2025-02-03T15:54:31.019Z</time>
      </trkpt>
      <trkpt lat="59.01033698581159" lon="12.630544966086745">
        <ele>79.27</ele>
        <time>2025-02-03T15:54:44.068Z</time>
      </trkpt>
      <trkpt lat="59.01025299914181" lon="12.630500961095095">
        <ele>79.28</ele>
        <time>2025-02-03T15:54:57.119Z</time>
      </trkpt>
      <trkpt lat="59.010168928653" lon="12.630458967760205">
        <ele>79.28</ele>
        <time>2025-02-03T15:55:10.171Z</time>
      </trkpt>
      <trkpt lat="59.01008293032646" lon="12.630421919748187">
        <ele>79.29</ele>
        <time>2025-02-03T15:55:23.224Z</time>
      </trkpt>
      <trkpt lat="59.00999592617154" lon="12.63038394972682">
        <ele>79.29</ele>
        <time>2025-02-03T15:55:36.279Z</time>
      </trkpt>
      <trkpt lat="59.00990699417889" lon="12.630355954170227">
        <ele>79.3</ele>
        <time>2025-02-03T15:55:49.335Z</time>
      </trkpt>
      <trkpt lat="59.00981596671045" lon="12.630334999412298">
        <ele>79.3</ele>
        <time>2025-02-03T15:56:02.393Z</time>
      </trkpt>
      <trkpt lat="59.009723933413625" lon="12.63032091781497">
        <ele>79.3</ele>
        <time>2025-02-03T15:56:15.452Z</time>
      </trkpt>
      <trkpt lat="59.00963097810745" lon="12.630309937521815">
        <ele>79.31</ele>
        <time>2025-02-03T15:56:28.513Z</time>
      </trkpt>
      <trkpt lat="59.00953693315387" lon="12.630295939743519">
        <ele>79.31</ele>
        <time>2025-02-03T15:56:41.575Z</time>
      </trkpt>
      <trkpt lat="59.009442972019315" lon="12.630279930308461">
        <ele>79.31</ele>
        <time>2025-02-03T15:56:54.639Z</time>
      </trkpt>
      <trkpt lat="59.009346999228" lon="12.630264926701784">
        <ele>79.31</ele>
        <time>2025-02-03T15:57:07.704Z</time>
      </trkpt>
      <trkpt lat="59.009251948446035" lon="12.630246989428997">
        <ele>79.32</ele>
        <time>2025-02-03T15:57:20.771Z</time>
      </trkpt>
      <trkpt lat="59.0091569814831" lon="12.630219999700785">
        <ele>79.33</ele>
        <time>2025-02-03T15:57:33.839Z</time>
      </trkpt>
      <trkpt lat="59.0090639423579" lon="12.630184963345528">
        <ele>79.34</ele>
        <time>2025-02-03T15:57:46.909Z</time>
      </trkpt>
      <trkpt lat="59.008970987051725" lon="12.630142970010638">
        <ele>79.34</ele>
        <time>2025-02-03T15:57:59.980Z</time>
      </trkpt>
      <trkpt lat="59.00887794792652" lon="12.630098965018988">
        <ele>79.35</ele>
        <time>2025-02-03T15:58:13.053Z</time>
      </trkpt>
      <trkpt lat="59.00878599844873" lon="12.630053954198956">
        <ele>79.35</ele>
        <time>2025-02-03T15:58:26.127Z</time>
      </trkpt>
      <trkpt lat="59.008692959323525" lon="12.630011960864067">
        <ele>79.35</ele>
        <time>2025-02-03T15:58:39.203Z</time>
      </trkpt>
      <trkpt lat="59.00859899818897" lon="12.629982959479094">
        <ele>79.35</ele>
        <time>2025-02-03T15:58:52.280Z</time>
      </trkpt>
      <trkpt lat="59.00850595906377" lon="12.62997499667108">
        <ele>79.35</ele>
        <time>2025-02-03T15:59:05.359Z</time>
      </trkpt>
      <trkpt lat="59.008412919938564" lon="12.629984971135855">
        <ele>79.34</ele>
        <time>2025-02-03T15:59:18.439Z</time>
      </trkpt>
      <trkpt lat="59.00832097046077" lon="12.630007937550545">
        <ele>79.34</ele>
        <time>2025-02-03T15:59:31.521Z</time>
      </trkpt>
      <trkpt lat="59.00823195464909" lon="12.63003995642066">
        <ele>79.34</ele>
        <time>2025-02-03T15:59:44.604Z</time>
      </trkpt>
      <trkpt lat="59.00814394466579" lon="12.630080943927169">
        <ele>79.34</ele>
        <time>2025-02-03T15:59:57.689Z</time>
      </trkpt>
      <trkpt lat="59.00805694051087" lon="12.630122937262058">
        <ele>79.34</ele>
        <time>2025-02-03T16:00:10.775Z</time>
      </trkpt>
      <trkpt lat="59.00797194801271" lon="12.63016794808209">
        <ele>79.33</ele>
        <time>2025-02-03T16:00:23.863Z</time>
      </trkpt>
      <trkpt lat="59.00788796134293" lon="12.630213964730501">
        <ele>79.32</ele>
        <time>2025-02-03T16:00:36.952Z</time>
      </trkpt>
      <trkpt lat="59.00780498050153" lon="12.630263920873404">
        <ele>79.31</ele>
        <time>2025-02-03T16:00:50.042Z</time>
      </trkpt>
      <trkpt lat="59.007723927497864" lon="12.630314966663718">
        <ele>79.3</ele>
        <time>2025-02-03T16:01:03.134Z</time>
      </trkpt>
      <trkpt lat="59.00764396414161" lon="12.63036198914051">
        <ele>79.29</ele>
        <time>2025-02-03T16:01:16.227Z</time>
      </trkpt>
      <trkpt lat="59.00756198912859" lon="12.630410939455032">
        <ele>79.27</ele>
        <time>2025-02-03T16:01:29.322Z</time>
      </trkpt>
      <trkpt lat="59.0074819419533" lon="12.630457961931825">
        <ele>79.25</ele>
        <time>2025-02-03T16:01:42.418Z</time>
      </trkpt>
      <trkpt lat="59.007401978597045" lon="12.630503978580236">
        <ele>79.22</ele>
        <time>2025-02-03T16:01:55.515Z</time>
      </trkpt>
      <trkpt lat="59.007320925593376" lon="12.630547983571887">
        <ele>79.2</ele>
        <time>2025-02-03T16:02:08.614Z</time>
      </trkpt>
      <trkpt lat="59.00724096223712" lon="12.630587965250015">
        <ele>79.18</ele>
        <time>2025-02-03T16:02:21.714Z</time>
      </trkpt>
      <trkpt lat="59.0071589872241" lon="12.630621995776892">
        <ele>79.16</ele>
        <time>2025-02-03T16:02:34.815Z</time>
      </trkpt>
      <trkpt lat="59.00707491673529" lon="12.630649991333485">
        <ele>79.14</ele>
        <time>2025-02-03T16:02:47.918Z</time>
      </trkpt>
      <trkpt lat="59.00699093006551" lon="12.630671951919794">
        <ele>79.12</ele>
        <time>2025-02-03T16:03:01.022Z</time>
      </trkpt>
      <trkpt lat="59.00690292008221" lon="12.630691984668374">
        <ele>79.1</ele>
        <time>2025-02-03T16:03:14.127Z</time>
      </trkpt>
      <trkpt lat="59.0068119764328" lon="12.630702964961529">
        <ele>79.07</ele>
        <time>2025-02-03T16:03:27.234Z</time>
      </trkpt>
      <trkpt lat="59.00672195479274" lon="12.630699947476387">
        <ele>79.05</ele>
        <time>2025-02-03T16:03:40.342Z</time>
      </trkpt>
      <trkpt lat="59.006629921495914" lon="12.630686955526471">
        <ele>79.03</ele>
        <time>2025-02-03T16:03:53.452Z</time>
      </trkpt>
      <trkpt lat="59.00653797201812" lon="12.630658959969878">
        <ele>79.01</ele>
        <time>2025-02-03T16:04:06.563Z</time>
      </trkpt>
      <trkpt lat="59.00644996203482" lon="12.63061998412013">
        <ele>78.97</ele>
        <time>2025-02-03T16:04:19.676Z</time>
      </trkpt>
      <trkpt lat="59.00636195205152" lon="12.630570949986577">
        <ele>78.94</ele>
        <time>2025-02-03T16:04:32.790Z</time>
      </trkpt>
      <trkpt lat="59.0062749478966" lon="12.630506996065378">
        <ele>78.9</ele>
        <time>2025-02-03T16:04:45.906Z</time>
      </trkpt>
      <trkpt lat="59.00618794374168" lon="12.630438935011625">
        <ele>78.86</ele>
        <time>2025-02-03T16:04:59.023Z</time>
      </trkpt>
      <trkpt lat="59.00610093958676" lon="12.630368946120143">
        <ele>78.83</ele>
        <time>2025-02-03T16:05:12.142Z</time>
      </trkpt>
      <trkpt lat="59.006010917946696" lon="12.630295939743519">
        <ele>78.8</ele>
        <time>2025-02-03T16:05:25.262Z</time>
      </trkpt>
      <trkpt lat="59.005919974297285" lon="12.630221927538514">
        <ele>78.77</ele>
        <time>2025-02-03T16:05:38.384Z</time>
      </trkpt>
      <trkpt lat="59.00582693517208" lon="12.630142970010638">
        <ele>78.73</ele>
        <time>2025-02-03T16:05:51.507Z</time>
      </trkpt>
      <trkpt lat="59.00573096238077" lon="12.630064934492111">
        <ele>78.7</ele>
        <time>2025-02-03T16:06:04.632Z</time>
      </trkpt>
      <trkpt lat="59.00563398376107" lon="12.629987988620996">
        <ele>78.67</ele>
        <time>2025-02-03T16:06:17.759Z</time>
      </trkpt>
      <trkpt lat="59.005532981827855" lon="12.629920933395624">
        <ele>78.64</ele>
        <time>2025-02-03T16:06:30.888Z</time>
      </trkpt>
      <trkpt lat="59.005428962409496" lon="12.629864942282438">
        <ele>78.61</ele>
        <time>2025-02-03T16:06:44.018Z</time>
      </trkpt>
      <trkpt lat="59.005321925505996" lon="12.629822948947549">
        <ele>78.57</ele>
        <time>2025-02-03T16:06:57.150Z</time>
      </trkpt>
      <trkpt lat="59.005212960764766" lon="12.62980492785573">
        <ele>78.54</ele>
        <time>2025-02-03T16:07:10.284Z</time>
      </trkpt>
      <trkpt lat="59.005101984366775" lon="12.62980098836124">
        <ele>78.51</ele>
        <time>2025-02-03T16:07:23.420Z</time>
      </trkpt>
      <trkpt lat="59.00499092414975" lon="12.629808951169252">
        <ele>78.48</ele>
        <time>2025-02-03T16:07:36.557Z</time>
      </trkpt>
      <trkpt lat="59.004877936095" lon="12.629822948947549">
        <ele>78.44</ele>
        <time>2025-02-03T16:07:49.696Z</time>
      </trkpt>
      <trkpt lat="59.004762936383486" lon="12.629837952554226">
        <ele>78.4</ele>
        <time>2025-02-03T16:08:02.837Z</time>
      </trkpt>
      <trkpt lat="59.004654977470636" lon="12.629863936454058">
        <ele>78.36</ele>
        <time>2025-02-03T16:08:15.980Z</time>
      </trkpt>
      <trkpt lat="59.00455095805228" lon="12.629899978637695">
        <ele>78.32</ele>
        <time>2025-02-03T16:08:29.124Z</time>
      </trkpt>
      <trkpt lat="59.00444995611906" lon="12.629942977800965">
        <ele>78.28</ele>
        <time>2025-02-03T16:08:42.270Z</time>
      </trkpt>
      <trkpt lat="59.00434895418584" lon="12.629987988620996">
        <ele>78.24</ele>
        <time>2025-02-03T16:08:55.418Z</time>
      </trkpt>
      <trkpt lat="59.00424996390939" lon="12.630033921450377">
        <ele>78.2</ele>
        <time>2025-02-03T16:09:08.567Z</time>
      </trkpt>
      <trkpt lat="59.00415197946131" lon="12.63008295558393">
        <ele>78.16</ele>
        <time>2025-02-03T16:09:21.718Z</time>
      </trkpt>
      <trkpt lat="59.00405592285097" lon="12.630131989717484">
        <ele>78.12</ele>
        <time>2025-02-03T16:09:34.871Z</time>
      </trkpt>
      <trkpt lat="59.00395894423127" lon="12.630181945860386">
        <ele>78.09</ele>
        <time>2025-02-03T16:09:48.025Z</time>
      </trkpt>
      <trkpt lat="59.00386397726834" lon="12.630233997479081">
        <ele>78.04</ele>
        <time>2025-02-03T16:10:01.181Z</time>
      </trkpt>
      <trkpt lat="59.00376892648637" lon="12.630286971107125">
        <ele>78.0</ele>
        <time>2025-02-03T16:10:14.338Z</time>
      </trkpt>
      <trkpt lat="59.00367697700858" lon="12.63034095056355">
        <ele>77.95</ele>
        <time>2025-02-03T16:10:27.497Z</time>
      </trkpt>
      <trkpt lat="59.00358594954014" lon="12.630394930019975">
        <ele>77.91</ele>
        <time>2025-02-03T16:10:40.657Z</time>
      </trkpt>
      <trkpt lat="59.003494922071695" lon="12.63044698163867">
        <ele>77.87</ele>
        <time>2025-02-03T16:10:53.819Z</time>
      </trkpt>
      <trkpt lat="59.003403978422284" lon="12.630498949438334">
        <ele>77.83</ele>
        <time>2025-02-03T16:11:06.983Z</time>
      </trkpt>
      <trkpt lat="59.00331395678222" lon="12.630553934723139">
        <ele>77.78</ele>
        <time>2025-02-03T16:11:20.148Z</time>
      </trkpt>
      <trkpt lat="59.00322393514216" lon="12.630608920007944">
        <ele>77.74</ele>
        <time>2025-02-03T16:11:33.315Z</time>
      </trkpt>
      <trkpt lat="59.00313491933048" lon="12.630664994940162">
        <ele>77.69</ele>
        <time>2025-02-03T16:11:46.483Z</time>
      </trkpt>
      <trkpt lat="59.00304699316621" lon="12.630722997710109">
        <ele>77.64</ele>
        <time>2025-02-03T16:11:59.653Z</time>
      </trkpt>
      <trkpt lat="59.00295998901129" lon="12.630779994651675">
        <ele>77.58</ele>
        <time>2025-02-03T16:12:12.824Z</time>
      </trkpt>
      <trkpt lat="59.00287197902799" lon="12.630837997421622">
        <ele>77.52</ele>
        <time>2025-02-03T16:12:25.997Z</time>
      </trkpt>
      <trkpt lat="59.002783969044685" lon="12.630897928029299">
        <ele>77.46</ele>
        <time>2025-02-03T16:12:39.171Z</time>
      </trkpt>
      <trkpt lat="59.002694953233004" lon="12.630959954112768">
        <ele>77.4</ele>
        <time>2025-02-03T16:12:52.347Z</time>
      </trkpt>
      <trkpt lat="59.00260593742132" lon="12.63102499768138">
        <ele>77.35</ele>
        <time>2025-02-03T16:13:05.524Z</time>
      </trkpt>
      <trkpt lat="59.00251599960029" lon="12.63109096325934">
        <ele>77.29</ele>
        <time>2025-02-03T16:13:18.703Z</time>
      </trkpt>
      <trkpt lat="59.00242396630347" lon="12.6311569288373">
        <ele>77.22</ele>
        <time>2025-02-03T16:13:31.883Z</time>
      </trkpt>
      <trkpt lat="59.002330927178264" lon="12.631217949092388">
        <ele>77.15</ele>
        <time>2025-02-03T16:13:45.065Z</time>
      </trkpt>
      <trkpt lat="59.00223696604371" lon="12.631276957690716">
        <ele>77.08</ele>
        <time>2025-02-03T16:13:58.248Z</time>
      </trkpt>
      <trkpt lat="59.0021409932524" lon="12.631331942975521">
        <ele>77.0</ele>
        <time>2025-02-03T16:14:11.433Z</time>
      </trkpt>
      <trkpt lat="59.00204493664205" lon="12.631377959623933">
        <ele>76.92</ele>
        <time>2025-02-03T16:14:24.620Z</time>
      </trkpt>
      <trkpt lat="59.001947958022356" lon="12.6314159296453">
        <ele>76.85</ele>
        <time>2025-02-03T16:14:37.808Z</time>
      </trkpt>
      <trkpt lat="59.00184997357428" lon="12.631446942687035">
        <ele>76.77</ele>
        <time>2025-02-03T16:14:50.998Z</time>
      </trkpt>
      <trkpt lat="59.001751989126205" lon="12.631476949900389">
        <ele>76.69</ele>
        <time>2025-02-03T16:15:04.189Z</time>
      </trkpt>
      <trkpt lat="59.00165492668748" lon="12.631505951285362">
        <ele>76.62</ele>
        <time>2025-02-03T16:15:17.382Z</time>
      </trkpt>
      <trkpt lat="59.001559959724545" lon="12.631535958498716">
        <ele>76.54</ele>
        <time>2025-02-03T16:15:30.576Z</time>
      </trkpt>
      <trkpt lat="59.00146398693323" lon="12.631562948226929">
        <ele>76.47</ele>
        <time>2025-02-03T16:15:43.772Z</time>
      </trkpt>
      <trkpt lat="59.00136994197965" lon="12.63158792629838">
        <ele>76.39</ele>
        <time>2025-02-03T16:15:56.969Z</time>
      </trkpt>
      <trkpt lat="59.001276986673474" lon="12.63160896487534">
        <ele>76.31</ele>
        <time>2025-02-03T16:16:10.168Z</time>
      </trkpt>
      <trkpt lat="59.00118495337665" lon="12.63162799179554">
        <ele>76.23</ele>
        <time>2025-02-03T16:16:23.368Z</time>
      </trkpt>
      <trkpt lat="59.00109392590821" lon="12.631639977917075">
        <ele>76.15</ele>
        <time>2025-02-03T16:16:36.570Z</time>
      </trkpt>
      <trkpt lat="59.0010029822588" lon="12.631640983745456">
        <ele>76.07</ele>
        <time>2025-02-03T16:16:49.773Z</time>
      </trkpt>
      <trkpt lat="59.000912960618734" lon="12.631619945168495">
        <ele>75.98</ele>
        <time>2025-02-03T16:17:02.978Z</time>
      </trkpt>
      <trkpt lat="59.00082193315029" lon="12.631579963490367">
        <ele>75.9</ele>
        <time>2025-02-03T16:17:16.184Z</time>
      </trkpt>
      <trkpt lat="59.00073492899537" lon="12.631524978205562">
        <ele>75.8</ele>
        <time>2025-02-03T16:17:29.392Z</time>
      </trkpt>
      <trkpt lat="59.00064993649721" lon="12.631464963778853">
        <ele>75.72</ele>
        <time>2025-02-03T16:17:42.601Z</time>
      </trkpt>
      <trkpt lat="59.00056695565581" lon="12.631405955180526">
        <ele>75.63</ele>
        <time>2025-02-03T16:17:55.812Z</time>
      </trkpt>
      <trkpt lat="59.000483974814415" lon="12.631347952410579">
        <ele>75.54</ele>
        <time>2025-02-03T16:18:09.024Z</time>
      </trkpt>
      <trkpt lat="59.00040694512427" lon="12.63128592632711">
        <ele>75.45</ele>
        <time>2025-02-03T16:18:22.237Z</time>
      </trkpt>
      <trkpt lat="59.000332932919264" lon="12.631224989891052">
        <ele>75.35</ele>
        <time>2025-02-03T16:18:35.452Z</time>
      </trkpt>
      <trkpt lat="59.00025699287653" lon="12.631167992949486">
        <ele>75.26</ele>
        <time>2025-02-03T16:18:48.668Z</time>
      </trkpt>
      <trkpt lat="59.000180969014764" lon="12.63111392967403">
        <ele>75.16</ele>
        <time>2025-02-03T16:19:01.885Z</time>
      </trkpt>
      <trkpt lat="59.00010595098138" lon="12.631058944389224">
        <ele>75.07</ele>
        <time>2025-02-03T16:19:15.104Z</time>
      </trkpt>
      <trkpt lat="59.00002892129123" lon="12.631003959104419">
        <ele>74.97</ele>
        <time>2025-02-03T16:19:28.324Z</time>
      </trkpt>
      <trkpt lat="58.9999529812485" lon="12.630947967991233">
        <ele>74.86</ele>
        <time>2025-02-03T16:19:41.545Z</time>
      </trkpt>
      <trkpt lat="58.99987494572997" lon="12.630892982706428">
        <ele>74.75</ele>
        <time>2025-02-03T16:19:54.768Z</time>
      </trkpt>
      <trkpt lat="58.999796994030476" lon="12.630837997421622">
        <ele>74.64</ele>
        <time>2025-02-03T16:20:07.992Z</time>
      </trkpt>
      <trkpt lat="58.99971895851195" lon="12.630778988823295">
        <ele>74.53</ele>
        <time>2025-02-03T16:20:21.217Z</time>
      </trkpt>
      <trkpt lat="58.99963899515569" lon="12.630721991881728">
        <ele>74.41</ele>
        <time>2025-02-03T16:20:34.444Z</time>
      </trkpt>
      <trkpt lat="58.999560959637165" lon="12.6306629832834">
        <ele>74.3</ele>
        <time>2025-02-03T16:20:47.672Z</time>
      </trkpt>
      <trkpt lat="58.99948292411864" lon="12.630603974685073">
        <ele>74.18</ele>
        <time>2025-02-03T16:21:00.901Z</time>
      </trkpt>
      <trkpt lat="58.99940497241914" lon="12.630548989400268">
        <ele>74.07</ele>
        <time>2025-02-03T16:21:14.132Z</time>
      </trkpt>
      <trkpt lat="58.999327942728996" lon="12.630494926124811">
        <ele>73.95</ele>
        <time>2025-02-03T16:21:27.364Z</time>
      </trkpt>
      <trkpt lat="58.99925191886723" lon="12.630440946668386">
        <ele>73.83</ele>
        <time>2025-02-03T16:21:40.597Z</time>
      </trkpt>
      <trkpt lat="58.99917799048126" lon="12.630386967211962">
        <ele>73.71</ele>
        <time>2025-02-03T16:21:53.832Z</time>
      </trkpt>
      <trkpt lat="58.99910397827625" lon="12.630332987755537">
        <ele>73.58</ele>
        <time>2025-02-03T16:22:07.068Z</time>
      </trkpt>
      <trkpt lat="58.99903097189963" lon="12.630279930308461">
        <ele>73.46</ele>
        <time>2025-02-03T16:22:20.305Z</time>
      </trkpt>
      <trkpt lat="58.998956959694624" lon="12.630224945023656">
        <ele>73.33</ele>
        <time>2025-02-03T16:22:33.543Z</time>
      </trkpt>
      <trkpt lat="58.99888294748962" lon="12.630171971395612">
        <ele>73.2</ele>
        <time>2025-02-03T16:22:46.783Z</time>
      </trkpt>
      <trkpt lat="58.99880692362785" lon="12.630120925605297">
        <ele>73.06</ele>
        <time>2025-02-03T16:23:00.024Z</time>
      </trkpt>
      <trkpt lat="58.99872997775674" lon="12.630066946148872">
        <ele>72.93</ele>
        <time>2025-02-03T16:23:13.266Z</time>
      </trkpt>
      <trkpt lat="58.99865194223821" lon="12.630012966692448">
        <ele>72.8</ele>
        <time>2025-02-03T16:23:26.509Z</time>
      </trkpt>
      <trkpt lat="58.998571978881955" lon="12.629961920902133">
        <ele>72.66</ele>
        <time>2025-02-03T16:23:39.754Z</time>
      </trkpt>
      <trkpt lat="58.998489920049906" lon="12.62990995310247">
        <ele>72.52</ele>
        <time>2025-02-03T16:23:53.000Z</time>
      </trkpt>
      <trkpt lat="58.99840693920851" lon="12.629854967817664">
        <ele>72.37</ele>
        <time>2025-02-03T16:24:06.248Z</time>
      </trkpt>
      <trkpt lat="58.99832295253873" lon="12.629796965047717">
        <ele>72.22</ele>
        <time>2025-02-03T16:24:19.497Z</time>
      </trkpt>
      <trkpt lat="58.99823695421219" lon="12.629741979762912">
        <ele>72.07</ele>
        <time>2025-02-03T16:24:32.748Z</time>
      </trkpt>
      <trkpt lat="58.99815397337079" lon="12.629689928144217">
        <ele>71.92</ele>
        <time>2025-02-03T16:24:46.000Z</time>
      </trkpt>
      <trkpt lat="58.99806596338749" lon="12.62962899170816">
        <ele>71.76</ele>
        <time>2025-02-03T16:24:59.253Z</time>
      </trkpt>
      <trkpt lat="58.99798197671771" lon="12.629562942311168">
        <ele>71.61</ele>
        <time>2025-02-03T16:25:12.508Z</time>
      </trkpt>
      <trkpt lat="58.99789899587631" lon="12.629490941762924">
        <ele>71.45</ele>
        <time>2025-02-03T16:25:25.764Z</time>
      </trkpt>
      <trkpt lat="58.9978149253875" lon="12.629409972578287">
        <ele>71.29</ele>
        <time>2025-02-03T16:25:39.022Z</time>
      </trkpt>
      <trkpt lat="58.997733956202865" lon="12.629320956766605">
        <ele>71.13</ele>
        <time>2025-02-03T16:25:52.281Z</time>
      </trkpt>
      <trkpt lat="58.99765592068434" lon="12.629224983975291">
        <ele>70.96</ele>
        <time>2025-02-03T16:26:05.542Z</time>
      </trkpt>
      <trkpt lat="58.99757897481322" lon="12.629123982042074">
        <ele>70.79</ele>
        <time>2025-02-03T16:26:18.804Z</time>
      </trkpt>
      <trkpt lat="58.99750295095146" lon="12.629020968452096">
        <ele>70.62</ele>
        <time>2025-02-03T16:26:32.068Z</time>
      </trkpt>
      <trkpt lat="58.99742592126131" lon="12.628918960690498">
        <ele>70.45</ele>
        <time>2025-02-03T16:26:45.333Z</time>
      </trkpt>
      <trkpt lat="58.997346963733435" lon="12.628820976242423">
        <ele>70.28</ele>
        <time>2025-02-03T16:26:58.600Z</time>
      </trkpt>
      <trkpt lat="58.99726498872042" lon="12.628727937117219">
        <ele>70.1</ele>
        <time>2025-02-03T16:27:11.868Z</time>
      </trkpt>
      <trkpt lat="58.99717899039388" lon="12.628641938790679">
        <ele>69.93</ele>
        <time>2025-02-03T16:27:25.138Z</time>
      </trkpt>
      <trkpt lat="58.99709299206734" lon="12.628572955727577">
        <ele>69.75</ele>
        <time>2025-02-03T16:27:38.409Z</time>
      </trkpt>
      <trkpt lat="58.997003976255655" lon="12.62851595878601">
        <ele>69.56</ele>
        <time>2025-02-03T16:27:51.682Z</time>
      </trkpt>
      <trkpt lat="58.99690993130207" lon="12.628473965451121">
        <ele>69.38</ele>
        <time>2025-02-03T16:28:04.956Z</time>
      </trkpt>
      <trkpt lat="58.99681496433914" lon="12.62844798155129">
        <ele>69.2</ele>
        <time>2025-02-03T16:28:18.232Z</time>
      </trkpt>
      <trkpt lat="58.99671899154782" lon="12.628438929095864">
        <ele>69.02</ele>
        <time>2025-02-03T16:28:31.509Z</time>
      </trkpt>
      <trkpt lat="58.996620923280716" lon="12.628444964066148">
        <ele>68.83</ele>
        <time>2025-02-03T16:28:44.788Z</time>
      </trkpt>
      <trkpt lat="58.99652293883264" lon="12.628462985157967">
        <ele>68.65</ele>
        <time>2025-02-03T16:28:58.069Z</time>
      </trkpt>
      <trkpt lat="58.996423948556185" lon="12.62849299237132">
        <ele>68.46</ele>
        <time>2025-02-03T16:29:11.351Z</time>
      </trkpt>
      <trkpt lat="58.99632395245135" lon="12.62853397987783">
        <ele>68.27</ele>
        <time>2025-02-03T16:29:24.635Z</time>
      </trkpt>
      <trkpt lat="58.99622093886137" lon="12.62857899069786">
        <ele>68.07</ele>
        <time>2025-02-03T16:29:37.921Z</time>
      </trkpt>
      <trkpt lat="58.99611599743366" lon="12.628622995689511">
        <ele>67.87</ele>
        <time>2025-02-03T16:29:51.208Z</time>
      </trkpt>
      <trkpt lat="58.99600996635854" lon="12.628665994852781">
        <ele>67.67</ele>
        <time>2025-02-03T16:30:04.497Z</time>
      </trkpt>
      <trkpt lat="58.99590192362666" lon="12.62870698235929">
        <ele>67.48</ele>
        <time>2025-02-03T16:30:17.788Z</time>
      </trkpt>
      <trkpt lat="58.99579295888543" lon="12.62874998152256">
        <ele>67.29</ele>
        <time>2025-02-03T16:30:31.081Z</time>
      </trkpt>
      <trkpt lat="58.99568097665906" lon="12.628794992342591">
        <ele>67.09</ele>
        <time>2025-02-03T16:30:44.375Z</time>
      </trkpt>
      <trkpt lat="58.99556899443269" lon="12.62883991934359">
        <ele>66.9</ele>
        <time>2025-02-03T16:30:57.671Z</time>
      </trkpt>
      <trkpt lat="58.995452988892794" lon="12.628886941820383">
        <ele>66.7</ele>
        <time>2025-02-03T16:31:10.969Z</time>
      </trkpt>
      <trkpt lat="58.99534092284739" lon="12.628932958468795">
        <ele>66.51</ele>
        <time>2025-02-03T16:31:24.269Z</time>
      </trkpt>
      <trkpt lat="58.99523095227778" lon="12.628977969288826">
        <ele>66.32</ele>
        <time>2025-02-03T16:31:37.571Z</time>
      </trkpt>
      <trkpt lat="58.99512299336493" lon="12.629019962623715">
        <ele>66.14</ele>
        <time>2025-02-03T16:31:50.875Z</time>
      </trkpt>
      <trkpt lat="58.99501696228981" lon="12.629058938473463">
        <ele>65.95</ele>
        <time>2025-02-03T16:32:04.180Z</time>
      </trkpt>
      <trkpt lat="58.99491294287145" lon="12.629086934030056">
        <ele>65.77</ele>
        <time>2025-02-03T16:32:17.487Z</time>
      </trkpt>
      <trkpt lat="58.994810935109854" lon="12.629101937636733">
        <ele>65.58</ele>
        <time>2025-02-03T16:32:30.796Z</time>
      </trkpt>
      <trkpt lat="58.994708927348256" lon="12.629101937636733">
        <ele>65.4</ele>
        <time>2025-02-03T16:32:44.106Z</time>
      </trkpt>
      <trkpt lat="58.99460893124342" lon="12.629087939858437">
        <ele>65.21</ele>
        <time>2025-02-03T16:32:57.418Z</time>
      </trkpt>
      <trkpt lat="58.9945079293102" lon="12.629065979272127">
        <ele>65.03</ele>
        <time>2025-02-03T16:33:10.732Z</time>
      </trkpt>
      <trkpt lat="58.99440893903375" lon="12.629037983715534">
        <ele>64.84</ele>
        <time>2025-02-03T16:33:24.047Z</time>
      </trkpt>
      <trkpt lat="58.99430793710053" lon="12.629002947360277">
        <ele>64.66</ele>
        <time>2025-02-03T16:33:37.364Z</time>
      </trkpt>
      <trkpt lat="58.99420492351055" lon="12.628960954025388">
        <ele>64.48</ele>
        <time>2025-02-03T16:33:50.682Z</time>
      </trkpt>
      <trkpt lat="58.994103921577334" lon="12.628911919891834">
        <ele>64.3</ele>
        <time>2025-02-03T16:34:04.002Z</time>
      </trkpt>
      <trkpt lat="58.99400099180639" lon="12.628860957920551">
        <ele>64.12</ele>
        <time>2025-02-03T16:34:17.324Z</time>
      </trkpt>
      <trkpt lat="58.99389898404479" lon="12.628810917958617">
        <ele>63.93</ele>
        <time>2025-02-03T16:34:30.648Z</time>
      </trkpt>
      <trkpt lat="58.99379798211157" lon="12.628761967644095">
        <ele>63.74</ele>
        <time>2025-02-03T16:34:43.973Z</time>
      </trkpt>
      <trkpt lat="58.993695974349976" lon="12.628711927682161">
        <ele>63.55</ele>
        <time>2025-02-03T16:34:57.300Z</time>
      </trkpt>
      <trkpt lat="58.99359597824514" lon="12.628659959882498">
        <ele>63.36</ele>
        <time>2025-02-03T16:35:10.629Z</time>
      </trkpt>
      <trkpt lat="58.99349397048354" lon="12.628610925748944">
        <ele>63.17</ele>
        <time>2025-02-03T16:35:23.959Z</time>
      </trkpt>
      <trkpt lat="58.993394980207086" lon="12.628561975434422">
        <ele>62.98</ele>
        <time>2025-02-03T16:35:37.291Z</time>
      </trkpt>
      <trkpt lat="58.99329699575901" lon="12.628512941300869">
        <ele>62.78</ele>
        <time>2025-02-03T16:35:50.624Z</time>
      </trkpt>
      <trkpt lat="58.9931989274919" lon="12.628465918824077">
        <ele>62.59</ele>
        <time>2025-02-03T16:36:03.959Z</time>
      </trkpt>
      <trkpt lat="58.99310295470059" lon="12.628419985994697">
        <ele>62.4</ele>
        <time>2025-02-03T16:36:17.296Z</time>
      </trkpt>
      <trkpt lat="58.993004970252514" lon="12.628373969346285">
        <ele>62.22</ele>
        <time>2025-02-03T16:36:30.634Z</time>
      </trkpt>
      <trkpt lat="58.99290698580444" lon="12.628327952697873">
        <ele>62.03</ele>
        <time>2025-02-03T16:36:43.974Z</time>
      </trkpt>
      <trkpt lat="58.99280799552798" lon="12.6282799243927">
        <ele>61.85</ele>
        <time>2025-02-03T16:36:57.316Z</time>
      </trkpt>
      <trkpt lat="58.992706993594766" lon="12.628231979906559">
        <ele>61.67</ele>
        <time>2025-02-03T16:37:10.659Z</time>
      </trkpt>
      <trkpt lat="58.99260398000479" lon="12.628183951601386">
        <ele>61.49</ele>
        <time>2025-02-03T16:37:24.004Z</time>
      </trkpt>
      <trkpt lat="58.99249996058643" lon="12.628134917467833">
        <ele>61.32</ele>
        <time>2025-02-03T16:37:37.351Z</time>
      </trkpt>
      <trkpt lat="58.99239392951131" lon="12.62808596715331">
        <ele>61.15</ele>
        <time>2025-02-03T16:37:50.699Z</time>
      </trkpt>
      <trkpt lat="58.99228798225522" lon="12.628036933019757">
        <ele>60.98</ele>
        <time>2025-02-03T16:38:04.049Z</time>
      </trkpt>
      <trkpt lat="58.99218094535172" lon="12.627986976876855">
        <ele>60.82</ele>
        <time>2025-02-03T16:38:17.401Z</time>
      </trkpt>
      <trkpt lat="58.99207298643887" lon="12.62793593108654">
        <ele>60.65</ele>
        <time>2025-02-03T16:38:30.755Z</time>
      </trkpt>
      <trkpt lat="58.99196393787861" lon="12.627884969115257">
        <ele>60.49</ele>
        <time>2025-02-03T16:38:44.110Z</time>
      </trkpt>
      <trkpt lat="58.99185597896576" lon="12.627833923324943">
        <ele>60.33</ele>
        <time>2025-02-03T16:38:57.467Z</time>
      </trkpt>
      <trkpt lat="58.99174793623388" lon="12.627781955525279">
        <ele>60.17</ele>
        <time>2025-02-03T16:39:10.826Z</time>
      </trkpt>
      <trkpt lat="58.99163997732103" lon="12.627728981897235">
        <ele>60.02</ele>
        <time>2025-02-03T16:39:24.187Z</time>
      </trkpt>
      <trkpt lat="58.991529922932386" lon="12.627675924450159">
        <ele>59.87</ele>
        <time>2025-02-03T16:39:37.550Z</time>
      </trkpt>
      <trkpt lat="58.991419952362776" lon="12.627621944993734">
        <ele>59.72</ele>
        <time>2025-02-03T16:39:50.914Z</time>
      </trkpt>
      <trkpt lat="58.99130696430802" lon="12.62756796553731">
        <ele>59.57</ele>
        <time>2025-02-03T16:40:04.280Z</time>
      </trkpt>
      <trkpt lat="58.99119397625327" lon="12.627513986080885">
        <ele>59.43</ele>
        <time>2025-02-03T16:40:17.648Z</time>
      </trkpt>
      <trkpt lat="58.99107998237014" lon="12.627457994967699">
        <ele>59.29</ele>
        <time>2025-02-03T16:40:31.018Z</time>
      </trkpt>
      <trkpt lat="58.990964982658625" lon="12.627401920035481">
        <ele>59.15</ele>
        <time>2025-02-03T16:40:44.390Z</time>
      </trkpt>
      <trkpt lat="58.99085098877549" lon="12.627345928922296">
        <ele>59.01</ele>
        <time>2025-02-03T16:40:57.764Z</time>
      </trkpt>
      <trkpt lat="58.99073699489236" lon="12.62729194946587">
        <ele>58.88</ele>
        <time>2025-02-03T16:41:11.140Z</time>
      </trkpt>
      <trkpt lat="58.990622917190194" lon="12.627235958352685">
        <ele>58.74</ele>
        <time>2025-02-03T16:41:24.518Z</time>
      </trkpt>
      <trkpt lat="58.99050992913544" lon="12.627178961411119">
        <ele>58.61</ele>
        <time>2025-02-03T16:41:37.898Z</time>
      </trkpt>
      <trkpt lat="58.99039895273745" lon="12.62711995281279">
        <ele>58.48</ele>
        <time>2025-02-03T16:41:51.279Z</time>
      </trkpt>
      <trkpt lat="58.99028998799622" lon="12.627061950042844">
        <ele>58.36</ele>
        <time>2025-02-03T16:42:04.662Z</time>
      </trkpt>
      <trkpt lat="58.99018194526434" lon="12.627004953101277">
        <ele>58.24</ele>
        <time>2025-02-03T16:42:18.047Z</time>
      </trkpt>
      <trkpt lat="58.9900769200176" lon="12.62694695033133">
        <ele>58.12</ele>
        <time>2025-02-03T16:42:31.434Z</time>
      </trkpt>
      <trkpt lat="58.98997298441827" lon="12.626888947561383">
        <ele>58.0</ele>
        <time>2025-02-03T16:42:44.822Z</time>
      </trkpt>
      <trkpt lat="58.989870976656675" lon="12.626828933134675">
        <ele>57.89</ele>
        <time>2025-02-03T16:42:58.212Z</time>
      </trkpt>
      <trkpt lat="58.98976997472346" lon="12.626770930364728">
        <ele>57.77</ele>
        <time>2025-02-03T16:43:11.604Z</time>
      </trkpt>
      <trkpt lat="58.98966897279024" lon="12.626714939251542">
        <ele>57.66</ele>
        <time>2025-02-03T16:43:24.998Z</time>
      </trkpt>
      <trkpt lat="58.989568976685405" lon="12.626658948138356">
        <ele>57.56</ele>
        <time>2025-02-03T16:43:38.393Z</time>
      </trkpt>
      <trkpt lat="58.98946898058057" lon="12.626604968681931">
        <ele>57.45</ele>
        <time>2025-02-03T16:43:51.790Z</time>
      </trkpt>
      <trkpt lat="58.98936898447573" lon="12.626552917063236">
        <ele>57.36</ele>
        <time>2025-02-03T16:44:05.189Z</time>
      </trkpt>
      <trkpt lat="58.989268988370895" lon="12.626503966748714">
        <ele>57.26</ele>
        <time>2025-02-03T16:44:18.589Z</time>
      </trkpt>
      <trkpt lat="58.98916899226606" lon="12.626459961757064">
        <ele>57.17</ele>
        <time>2025-02-03T16:44:31.991Z</time>
      </trkpt>
      <trkpt lat="58.98906799033284" lon="12.626423919573426">
        <ele>57.08</ele>
        <time>2025-02-03T16:44:45.394Z</time>
      </trkpt>
      <trkpt lat="58.988966988399625" lon="12.626389972865582">
        <ele>57.0</ele>
        <time>2025-02-03T16:44:58.799Z</time>
      </trkpt>
      <trkpt lat="58.98886498063803" lon="12.626359965652227">
        <ele>56.93</ele>
        <time>2025-02-03T16:45:12.206Z</time>
      </trkpt>
      <trkpt lat="58.98876297287643" lon="12.626336999237537">
        <ele>56.85</ele>
        <time>2025-02-03T16:45:25.614Z</time>
      </trkpt>
      <trkpt lat="58.98866197094321" lon="12.62632098980248">
        <ele>56.78</ele>
        <time>2025-02-03T16:45:39.024Z</time>
      </trkpt>
      <trkpt lat="58.988560969009995" lon="12.626310931518674">
        <ele>56.71</ele>
        <time>2025-02-03T16:45:52.436Z</time>
      </trkpt>
      <trkpt lat="58.98846097290516" lon="12.626304980367422">
        <ele>56.64</ele>
        <time>2025-02-03T16:46:05.849Z</time>
      </trkpt>
      <trkpt lat="58.9883619826287" lon="12.6263009570539">
        <ele>56.58</ele>
        <time>2025-02-03T16:46:19.264Z</time>
      </trkpt>
      <trkpt lat="58.988260980695486" lon="12.626298945397139">
        <ele>56.51</ele>
        <time>2025-02-03T16:46:32.681Z</time>
      </trkpt>
      <trkpt lat="58.98815897293389" lon="12.626296933740377">
        <ele>56.46</ele>
        <time>2025-02-03T16:46:46.099Z</time>
      </trkpt>
      <trkpt lat="58.98805495351553" lon="12.626294922083616">
        <ele>56.4</ele>
        <time>2025-02-03T16:46:59.519Z</time>
      </trkpt>
      <trkpt lat="58.98794992826879" lon="12.626293916255236">
        <ele>56.34</ele>
        <time>2025-02-03T16:47:12.940Z</time>
      </trkpt>
      <trkpt lat="58.98784498684108" lon="12.626290982589126">
        <ele>56.29</ele>
        <time>2025-02-03T16:47:26.363Z</time>
      </trkpt>
      <trkpt lat="58.98773895576596" lon="12.626289976760745">
        <ele>56.25</ele>
        <time>2025-02-03T16:47:39.788Z</time>
      </trkpt>
      <trkpt lat="58.98763292469084" lon="12.626287965103984">
        <ele>56.21</ele>
        <time>2025-02-03T16:47:53.215Z</time>
      </trkpt>
      <trkpt lat="58.987527983263135" lon="12.626285953447223">
        <ele>56.16</ele>
        <time>2025-02-03T16:48:06.643Z</time>
      </trkpt>
      <trkpt lat="58.987420946359634" lon="12.626284947618842">
        <ele>56.12</ele>
        <time>2025-02-03T16:48:20.073Z</time>
      </trkpt>
      <trkpt lat="58.987314999103546" lon="12.626282935962081">
        <ele>56.09</ele>
        <time>2025-02-03T16:48:33.505Z</time>
      </trkpt>
      <trkpt lat="58.98720997385681" lon="12.6262819301337">
        <ele>56.06</ele>
        <time>2025-02-03T16:48:46.938Z</time>
      </trkpt>
      <trkpt lat="58.98710494861007" lon="12.62628092430532">
        <ele>56.02</ele>
        <time>2025-02-03T16:49:00.373Z</time>
      </trkpt>
      <trkpt lat="58.98700092919171" lon="12.62627991847694">
        <ele>56.0</ele>
        <time>2025-02-03T16:49:13.810Z</time>
      </trkpt>
      <trkpt lat="58.98689699359238" lon="12.6262819301337">
        <ele>55.98</ele>
        <time>2025-02-03T16:49:27.248Z</time>
      </trkpt>
      <trkpt lat="58.986794985830784" lon="12.626286959275603">
        <ele>55.97</ele>
        <time>2025-02-03T16:49:40.688Z</time>
      </trkpt>
      <trkpt lat="58.98669498972595" lon="12.626293916255236">
        <ele>55.95</ele>
        <time>2025-02-03T16:49:54.130Z</time>
      </trkpt>
      <trkpt lat="58.98659599944949" lon="12.626305986195803">
        <ele>55.94</ele>
        <time>2025-02-03T16:50:07.573Z</time>
      </trkpt>
      <trkpt lat="58.986499942839146" lon="12.62632291764021">
        <ele>55.94</ele>
        <time>2025-02-03T16:50:21.018Z</time>
      </trkpt>
      <trkpt lat="58.98640497587621" lon="12.62634395621717">
        <ele>55.93</ele>
        <time>2025-02-03T16:50:34.464Z</time>
      </trkpt>
      <trkpt lat="58.98631394840777" lon="12.626368934288621">
        <ele>55.93</ele>
        <time>2025-02-03T16:50:47.912Z</time>
      </trkpt>
      <trkpt lat="58.98622493259609" lon="12.626397935673594">
        <ele>55.93</ele>
        <time>2025-02-03T16:51:01.361Z</time>
      </trkpt>
      <trkpt lat="58.98613792844117" lon="12.626426937058568">
        <ele>55.93</ele>
        <time>2025-02-03T16:51:14.812Z</time>
      </trkpt>
      <trkpt lat="58.98605494759977" lon="12.626459961757064">
        <ele>55.93</ele>
        <time>2025-02-03T16:51:28.264Z</time>
      </trkpt>
      <trkpt lat="58.98597297258675" lon="12.62649298645556">
        <ele>55.93</ele>
        <time>2025-02-03T16:51:41.717Z</time>
      </trkpt>
      <trkpt lat="58.985894937068224" lon="12.626527938991785">
        <ele>55.93</ele>
        <time>2025-02-03T16:51:55.172Z</time>
      </trkpt>
      <trkpt lat="58.98581597954035" lon="12.626560963690281">
        <ele>55.94</ele>
        <time>2025-02-03T16:52:08.628Z</time>
      </trkpt>
      <trkpt lat="58.98573794402182" lon="12.626590970903635">
        <ele>55.95</ele>
        <time>2025-02-03T16:52:22.085Z</time>
      </trkpt>
      <trkpt lat="58.985660998150706" lon="12.626619972288609">
        <ele>55.96</ele>
        <time>2025-02-03T16:52:35.543Z</time>
      </trkpt>
      <trkpt lat="58.98558396846056" lon="12.626649979501963">
        <ele>55.98</ele>
        <time>2025-02-03T16:52:49.003Z</time>
      </trkpt>
      <trkpt lat="58.985507944598794" lon="12.626680992543697">
        <ele>55.99</ele>
        <time>2025-02-03T16:53:02.464Z</time>
      </trkpt>
      <trkpt lat="58.98543099872768" lon="12.6267119217664">
        <ele>56.0</ele>
        <time>2025-02-03T16:53:15.926Z</time>
      </trkpt>
      <trkpt lat="58.985355980694294" lon="12.626743940636516">
        <ele>56.02</ele>
        <time>2025-02-03T16:53:29.389Z</time>
      </trkpt>
      <trkpt lat="58.98527995683253" lon="12.626775959506631">
        <ele>56.05</ele>
        <time>2025-02-03T16:53:42.854Z</time>
      </trkpt>
      <trkpt lat="58.98520292714238" lon="12.626806972548366">
        <ele>56.07</ele>
        <time>2025-02-03T16:53:56.320Z</time>
      </trkpt>
      <trkpt lat="58.985124975442886" lon="12.62683899141848">
        <ele>56.1</ele>
        <time>2025-02-03T16:54:09.787Z</time>
      </trkpt>
      <trkpt lat="58.98504693992436" lon="12.626871932297945">
        <ele>56.13</ele>
        <time>2025-02-03T16:54:23.256Z</time>
      </trkpt>
      <trkpt lat="58.98496798239648" lon="12.62690495699644">
        <ele>56.16</ele>
        <time>2025-02-03T16:54:36.726Z</time>
      </trkpt>
      <trkpt lat="58.984887935221195" lon="12.626936975866556">
        <ele>56.19</ele>
        <time>2025-02-03T16:54:50.197Z</time>
      </trkpt>
      <trkpt lat="58.98480797186494" lon="12.626968994736671">
        <ele>56.22</ele>
        <time>2025-02-03T16:55:03.669Z</time>
      </trkpt>
      <trkpt lat="58.98472691886127" lon="12.626999923959374">
        <ele>56.25</ele>
        <time>2025-02-03T16:55:17.143Z</time>
      </trkpt>
      <trkpt lat="58.98464393801987" lon="12.627029931172729">
        <ele>56.28</ele>
        <time>2025-02-03T16:55:30.618Z</time>
      </trkpt>
      <trkpt lat="58.98456095717847" lon="12.627058932557702">
        <ele>56.31</ele>
        <time>2025-02-03T16:55:44.094Z</time>
      </trkpt>
      <trkpt lat="58.984475964680314" lon="12.627084916457534">
        <ele>56.33</ele>
        <time>2025-02-03T16:55:57.572Z</time>
      </trkpt>
      <trkpt lat="58.984390972182155" lon="12.627105955034494">
        <ele>56.35</ele>
        <time>2025-02-03T16:56:11.051Z</time>
      </trkpt>
      <trkpt lat="58.984305979683995" lon="12.62711995281279">
        <ele>56.38</ele>
        <time>2025-02-03T16:56:24.532Z</time>
      </trkpt>
      <trkpt lat="58.984219981357455" lon="12.627128921449184">
        <ele>56.41</ele>
        <time>2025-02-03T16:56:38.014Z</time>
      </trkpt>
      <trkpt lat="58.984131971374154" lon="12.627135962247849">
        <ele>56.43</ele>
        <time>2025-02-03T16:56:51.497Z</time>
      </trkpt>
      <trkpt lat="58.98404396139085" lon="12.62713797390461">
        <ele>56.45</ele>
        <time>2025-02-03T16:57:04.982Z</time>
      </trkpt>
      <trkpt lat="58.98395494557917" lon="12.627134956419468">
        <ele>56.48</ele>
        <time>2025-02-03T16:57:18.468Z</time>
      </trkpt>
      <trkpt lat="58.98386592976749" lon="12.627130933105946">
        <ele>56.51</ele>
        <time>2025-02-03T16:57:31.956Z</time>
      </trkpt>
      <trkpt lat="58.98377699777484" lon="12.627125987783074">
        <ele>56.54</ele>
        <time>2025-02-03T16:57:45.445Z</time>
      </trkpt>
      <trkpt lat="58.98368697613478" lon="12.627122970297933">
        <ele>56.57</ele>
        <time>2025-02-03T16:57:58.936Z</time>
      </trkpt>
      <trkpt lat="58.983597960323095" lon="12.62711894698441">
        <ele>56.61</ele>
        <time>2025-02-03T16:58:12.428Z</time>
      </trkpt>
      <trkpt lat="58.983508944511414" lon="12.627113917842507">
        <ele>56.65</ele>
        <time>2025-02-03T16:58:25.921Z</time>
      </trkpt>
      <trkpt lat="58.98341892287135" lon="12.627109978348017">
        <ele>56.69</ele>
        <time>2025-02-03T16:58:39.416Z</time>
      </trkpt>
      <trkpt lat="58.98332898505032" lon="12.627107966691256">
        <ele>56.73</ele>
        <time>2025-02-03T16:58:52.912Z</time>
      </trkpt>
      <trkpt lat="58.98323795758188" lon="12.627106960862875">
        <ele>56.78</ele>
        <time>2025-02-03T16:59:06.410Z</time>
      </trkpt>
      <trkpt lat="58.983147935941815" lon="12.627104949206114">
        <ele>56.82</ele>
        <time>2025-02-03T16:59:19.909Z</time>
      </trkpt>
      <trkpt lat="58.983056992292404" lon="12.627099920064211">
        <ele>56.86</ele>
        <time>2025-02-03T16:59:33.410Z</time>
      </trkpt>
      <trkpt lat="58.98296596482396" lon="12.627091957256198">
        <ele>56.91</ele>
        <time>2025-02-03T16:59:46.912Z</time>
      </trkpt>
      <trkpt lat="58.9828759431839" lon="12.62707494199276">
        <ele>56.96</ele>
        <time>2025-02-03T17:00:00.416Z</time>
      </trkpt>
      <trkpt lat="58.9827879332006" lon="12.627045940607786">
        <ele>57.0</ele>
        <time>2025-02-03T17:00:13.921Z</time>
      </trkpt>
      <trkpt lat="58.9826999232173" lon="12.627000929787755">
        <ele>57.04</ele>
        <time>2025-02-03T17:00:27.427Z</time>
      </trkpt>
      <trkpt lat="58.98261392489076" lon="12.626937981694937">
        <ele>57.08</ele>
        <time>2025-02-03T17:00:40.935Z</time>
      </trkpt>
      <trkpt lat="58.98253094404936" lon="12.62685994617641">
        <ele>57.12</ele>
        <time>2025-02-03T17:00:54.444Z</time>
      </trkpt>
      <trkpt lat="58.98244997486472" lon="12.626771936193109">
        <ele>57.15</ele>
        <time>2025-02-03T17:01:07.955Z</time>
      </trkpt>
      <trkpt lat="58.982371939346194" lon="12.626676969230175">
        <ele>57.19</ele>
        <time>2025-02-03T17:01:21.467Z</time>
      </trkpt>
      <trkpt lat="58.98229499347508" lon="12.6265789847821">
        <ele>57.22</ele>
        <time>2025-02-03T17:01:34.981Z</time>
      </trkpt>
      <trkpt lat="58.982218969613314" lon="12.626480916514993">
        <ele>57.26</ele>
        <time>2025-02-03T17:01:48.496Z</time>
      </trkpt>
      <trkpt lat="58.98214294575155" lon="12.626378992572427">
        <ele>57.29</ele>
        <time>2025-02-03T17:02:02.013Z</time>
      </trkpt>
      <trkpt lat="58.98206792771816" lon="12.62628092430532">
        <ele>57.33</ele>
        <time>2025-02-03T17:02:15.531Z</time>
      </trkpt>
      <trkpt lat="58.98199198767543" lon="12.626176988705993">
        <ele>57.36</ele>
        <time>2025-02-03T17:02:29.051Z</time>
      </trkpt>
      <trkpt lat="58.98191696964204" lon="12.626072969287634">
        <ele>57.39</ele>
        <time>2025-02-03T17:02:42.572Z</time>
      </trkpt>
      <trkpt lat="58.98184094578028" lon="12.625969955697656">
        <ele>57.43</ele>
        <time>2025-02-03T17:02:56.095Z</time>
      </trkpt>
      <trkpt lat="58.98176399990916" lon="12.625864930450916">
        <ele>57.46</ele>
        <time>2025-02-03T17:03:09.619Z</time>
      </trkpt>
      <trkpt lat="58.981685964390635" lon="12.625757977366447">
        <ele>57.49</ele>
        <time>2025-02-03T17:03:23.145Z</time>
      </trkpt>
      <trkpt lat="58.98160893470049" lon="12.625651946291327">
        <ele>57.53</ele>
        <time>2025-02-03T17:03:36.672Z</time>
      </trkpt>
      <trkpt lat="58.981530983000994" lon="12.62554599903524">
        <ele>57.56</ele>
        <time>2025-02-03T17:03:50.201Z</time>
      </trkpt>
      <trkpt lat="58.98145395331085" lon="12.625438962131739">
        <ele>57.59</ele>
        <time>2025-02-03T17:04:03.731Z</time>
      </trkpt>
      <trkpt lat="58.9813769236207" lon="12.625328991562128">
        <ele>57.62</ele>
        <time>2025-02-03T17:04:17.263Z</time>
      </trkpt>
      <trkpt lat="58.981299977749586" lon="12.625213991850615">
        <ele>57.65</ele>
        <time>2025-02-03T17:04:30.796Z</time>
      </trkpt>
      <trkpt lat="58.9812249597162" lon="12.625094968825579">
        <ele>57.69</ele>
        <time>2025-02-03T17:04:44.331Z</time>
      </trkpt>
      <trkpt lat="58.98115195333958" lon="12.62496898882091">
        <ele>57.72</ele>
        <time>2025-02-03T17:04:57.868Z</time>
      </trkpt>
      <trkpt lat="58.98107995279133" lon="12.624833956360817">
        <ele>57.75</ele>
        <time>2025-02-03T17:05:11.406Z</time>
      </trkpt>
      <trkpt lat="58.98101096972823" lon="12.624692972749472">
        <ele>57.78</ele>
        <time>2025-02-03T17:05:24.946Z</time>
      </trkpt>
      <trkpt lat="58.98094399832189" lon="12.624548971652985">
        <ele>57.8</ele>
        <time>2025-02-03T17:05:38.487Z</time>
      </trkpt>
      <trkpt lat="58.98087895475328" lon="12.624401953071356">
        <ele>57.83</ele>
        <time>2025-02-03T17:05:52.030Z</time>
      </trkpt>
      <trkpt lat="58.98081592284143" lon="12.624254934489727">
        <ele>57.86</ele>
        <time>2025-02-03T17:06:05.575Z</time>
      </trkpt>
      <trkpt lat="58.98075498640537" lon="12.624108921736479">
        <ele>57.88</ele>
        <time>2025-02-03T17:06:19.121Z</time>
      </trkpt>
      <trkpt lat="58.980694971978664" lon="12.623962992802262">
        <ele>57.91</ele>
        <time>2025-02-03T17:06:32.669Z</time>
      </trkpt>
      <trkpt lat="58.98063696920872" lon="12.623817985877395">
        <ele>57.93</ele>
        <time>2025-02-03T17:06:46.218Z</time>
      </trkpt>
      <trkpt lat="58.98057997226715" lon="12.623676918447018">
        <ele>57.95</ele>
        <time>2025-02-03T17:06:59.769Z</time>
      </trkpt>
      <trkpt lat="58.980523981153965" lon="12.623538952320814">
        <ele>57.98</ele>
        <time>2025-02-03T17:07:13.321Z</time>
      </trkpt>
      <trkpt lat="58.98046991787851" lon="12.623405931517482">
        <ele>58.0</ele>
        <time>2025-02-03T17:07:26.874Z</time>
      </trkpt>
      <trkpt lat="58.980415938422084" lon="12.62327492237091">
        <ele>58.02</ele>
        <time>2025-02-03T17:07:40.429Z</time>
      </trkpt>
      <trkpt lat="58.98036397062242" lon="12.623147936537862">
        <ele>58.04</ele>
        <time>2025-02-03T17:07:53.985Z</time>
      </trkpt>
      <trkpt lat="58.980312924832106" lon="12.623023968189955">
        <ele>58.06</ele>
        <time>2025-02-03T17:08:07.543Z</time>
      </trkpt>
      <trkpt lat="58.980263974517584" lon="12.622902933508158">
        <ele>58.08</ele>
        <time>2025-02-03T17:08:21.102Z</time>
      </trkpt>
      <trkpt lat="58.98021795786917" lon="12.622785922139883">
        <ele>58.1</ele>
        <time>2025-02-03T17:08:34.662Z</time>
      </trkpt>
      <trkpt lat="58.98017294704914" lon="12.62267092242837">
        <ele>58.11</ele>
        <time>2025-02-03T17:08:48.223Z</time>
      </trkpt>
      <trkpt lat="58.98012793622911" lon="12.622556928545237">
        <ele>58.12</ele>
        <time>2025-02-03T17:09:01.785Z</time>
      </trkpt>
      <trkpt lat="58.98008393123746" lon="12.622444946318865">
        <ele>58.12</ele>
        <time>2025-02-03T17:09:15.349Z</time>
      </trkpt>
      <trkpt lat="58.98003992624581" lon="12.622331958264112">
        <ele>58.13</ele>
        <time>2025-02-03T17:09:28.914Z</time>
      </trkpt>
      <trkpt lat="58.97999499924481" lon="12.62221897020936">
        <ele>58.13</ele>
        <time>2025-02-03T17:09:42.480Z</time>
      </trkpt>
      <trkpt lat="58.9799489825964" lon="12.62210899963975">
        <ele>58.13</ele>
        <time>2025-02-03T17:09:56.047Z</time>
      </trkpt>
      <trkpt lat="58.979902965947986" lon="12.621996933594346">
        <ele>58.13</ele>
        <time>2025-02-03T17:10:09.615Z</time>
      </trkpt>
      <trkpt lat="58.97985493764281" lon="12.621886963024735">
        <ele>58.13</ele>
        <time>2025-02-03T17:10:23.184Z</time>
      </trkpt>
      <trkpt lat="58.97980699315667" lon="12.621777998283505">
        <ele>58.12</ele>
        <time>2025-02-03T17:10:36.755Z</time>
      </trkpt>
      <trkpt lat="58.97975795902312" lon="12.621669955551624">
        <ele>58.12</ele>
        <time>2025-02-03T17:10:50.327Z</time>
      </trkpt>
      <trkpt lat="58.979707919061184" lon="12.621561996638775">
        <ele>58.1</ele>
        <time>2025-02-03T17:11:03.900Z</time>
      </trkpt>
      <trkpt lat="58.97965896874666" lon="12.621453953906894">
        <ele>58.08</ele>
        <time>2025-02-03T17:11:17.474Z</time>
      </trkpt>
      <trkpt lat="58.97960892878473" lon="12.621349934488535">
        <ele>58.06</ele>
        <time>2025-02-03T17:11:31.049Z</time>
      </trkpt>
      <trkpt lat="58.979557966813445" lon="12.621250944212079">
        <ele>58.04</ele>
        <time>2025-02-03T17:11:44.626Z</time>
      </trkpt>
      <trkpt lat="58.97950599901378" lon="12.621158994734287">
        <ele>58.02</ele>
        <time>2025-02-03T17:11:58.204Z</time>
      </trkpt>
      <trkpt lat="58.979451935738325" lon="12.621073918417096">
        <ele>57.99</ele>
        <time>2025-02-03T17:12:11.783Z</time>
      </trkpt>
      <trkpt lat="58.97939695045352" lon="12.6209959667176">
        <ele>57.96</ele>
        <time>2025-02-03T17:12:25.363Z</time>
      </trkpt>
      <trkpt lat="58.979340959340334" lon="12.620922960340977">
        <ele>57.93</ele>
        <time>2025-02-03T17:12:38.944Z</time>
      </trkpt>
      <trkpt lat="58.97928396239877" lon="12.620853977277875">
        <ele>57.89</ele>
        <time>2025-02-03T17:12:52.526Z</time>
      </trkpt>
      <trkpt lat="58.9792269654572" lon="12.620787927880883">
        <ele>57.86</ele>
        <time>2025-02-03T17:13:06.109Z</time>
      </trkpt>
      <trkpt lat="58.97916795685887" lon="12.620720956474543">
        <ele>57.81</ele>
        <time>2025-02-03T17:13:19.693Z</time>
      </trkpt>
      <trkpt lat="58.979107942432165" lon="12.620654990896583">
        <ele>57.77</ele>
        <time>2025-02-03T17:13:33.278Z</time>
      </trkpt>
      <trkpt lat="58.979046922177076" lon="12.62058793567121">
        <ele>57.72</ele>
        <time>2025-02-03T17:13:46.864Z</time>
      </trkpt>
      <trkpt lat="58.97898497991264" lon="12.620523981750011">
        <ele>57.67</ele>
        <time>2025-02-03T17:14:00.452Z</time>
      </trkpt>
      <trkpt lat="58.97892295382917" lon="12.62045793235302">
        <ele>57.62</ele>
        <time>2025-02-03T17:14:14.041Z</time>
      </trkpt>
      <trkpt lat="58.97886293940246" lon="12.620389955118299">
        <ele>57.57</ele>
        <time>2025-02-03T17:14:27.631Z</time>
      </trkpt>
      <trkpt lat="58.97880393080413" lon="12.620319966226816">
        <ele>57.52</ele>
        <time>2025-02-03T17:14:41.222Z</time>
      </trkpt>
      <trkpt lat="58.978743916377425" lon="12.620251988992095">
        <ele>57.46</ele>
        <time>2025-02-03T17:14:54.814Z</time>
      </trkpt>
      <trkpt lat="58.97868499159813" lon="12.620181916281581">
        <ele>57.39</ele>
        <time>2025-02-03T17:15:08.407Z</time>
      </trkpt>
      <trkpt lat="58.9786259829998" lon="12.620108993723989">
        <ele>57.33</ele>
        <time>2025-02-03T17:15:22.001Z</time>
      </trkpt>
      <trkpt lat="58.978567980229855" lon="12.620034981518984">
        <ele>57.26</ele>
        <time>2025-02-03T17:15:35.596Z</time>
      </trkpt>
      <trkpt lat="58.97850997745991" lon="12.619958957657218">
        <ele>57.19</ele>
        <time>2025-02-03T17:15:49.193Z</time>
      </trkpt>
      <trkpt lat="58.97845096886158" lon="12.619884945452213">
        <ele>57.11</ele>
        <time>2025-02-03T17:16:02.791Z</time>
      </trkpt>
      <trkpt lat="58.97839095443487" lon="12.619814956560731">
        <ele>57.03</ele>
        <time>2025-02-03T17:16:16.390Z</time>
      </trkpt>
      <trkpt lat="58.97832792252302" lon="12.61974697932601">
        <ele>56.95</ele>
        <time>2025-02-03T17:16:29.990Z</time>
      </trkpt>
      <trkpt lat="58.97826396860182" lon="12.619685959070921">
        <ele>56.87</ele>
        <time>2025-02-03T17:16:43.591Z</time>
      </trkpt>
      <trkpt lat="58.9781959913671" lon="12.619626950472593">
        <ele>56.78</ele>
        <time>2025-02-03T17:16:57.193Z</time>
      </trkpt>
      <trkpt lat="58.97812591865659" lon="12.61957498267293">
        <ele>56.69</ele>
        <time>2025-02-03T17:17:10.796Z</time>
      </trkpt>
      <trkpt lat="58.978055929765105" lon="12.619525948539376">
        <ele>56.59</ele>
        <time>2025-02-03T17:17:24.401Z</time>
      </trkpt>
      <trkpt lat="58.97798292338848" lon="12.619482949376106">
        <ele>56.5</ele>
        <time>2025-02-03T17:17:38.007Z</time>
      </trkpt>
      <trkpt lat="58.97790798917413" lon="12.619450930505991">
        <ele>56.4</ele>
        <time>2025-02-03T17:17:51.614Z</time>
      </trkpt>
      <trkpt lat="58.9778299536556" lon="12.619430981576443">
        <ele>56.3</ele>
        <time>2025-02-03T17:18:05.222Z</time>
      </trkpt>
      <trkpt lat="58.977752923965454" lon="12.619416983798146">
        <ele>56.21</ele>
        <time>2025-02-03T17:18:18.832Z</time>
      </trkpt>
      <trkpt lat="58.97767396643758" lon="12.61940399184823">
        <ele>56.11</ele>
        <time>2025-02-03T17:18:32.443Z</time>
      </trkpt>
      <trkpt lat="58.97759098559618" lon="12.619387982413173">
        <ele>56.01</ele>
        <time>2025-02-03T17:18:46.055Z</time>
      </trkpt>
      <trkpt lat="58.97750993259251" lon="12.619369961321354">
        <ele>55.9</ele>
        <time>2025-02-03T17:18:59.669Z</time>
      </trkpt>
      <trkpt lat="58.977429969236255" lon="12.619354957714677">
        <ele>55.79</ele>
        <time>2025-02-03T17:19:13.284Z</time>
      </trkpt>
      <trkpt lat="58.97734698839486" lon="12.619344983249903">
        <ele>55.68</ele>
        <time>2025-02-03T17:19:26.900Z</time>
      </trkpt>
      <trkpt lat="58.977258978411555" lon="12.619342971593142">
        <ele>55.56</ele>
        <time>2025-02-03T17:19:40.518Z</time>
      </trkpt>
      <trkpt lat="58.97716895677149" lon="12.619341965764761">
        <ele>55.44</ele>
        <time>2025-02-03T17:19:54.137Z</time>
      </trkpt>
      <trkpt lat="58.97707692347467" lon="12.61934095993638">
        <ele>55.32</ele>
        <time>2025-02-03T17:20:07.758Z</time>
      </trkpt>
      <trkpt lat="58.9769839681685" lon="12.619339954108">
        <ele>55.19</ele>
        <time>2025-02-03T17:20:21.380Z</time>
      </trkpt>
      <trkpt lat="58.97688992321491" lon="12.61934095993638">
        <ele>55.07</ele>
        <time>2025-02-03T17:20:35.004Z</time>
      </trkpt>
      <trkpt lat="58.97679294459522" lon="12.619341965764761">
        <ele>54.94</ele>
        <time>2025-02-03T17:20:48.629Z</time>
      </trkpt>
      <trkpt lat="58.976691942662" lon="12.619344983249903">
        <ele>54.81</ele>
        <time>2025-02-03T17:21:02.256Z</time>
      </trkpt>
      <trkpt lat="58.97659697569907" lon="12.619343977421522">
        <ele>54.68</ele>
        <time>2025-02-03T17:21:15.884Z</time>
      </trkpt>
      <trkpt lat="58.976505948230624" lon="12.61934095993638">
        <ele>54.55</ele>
        <time>2025-02-03T17:21:29.514Z</time>
      </trkpt>
      <trkpt lat="58.97641592659056" lon="12.619339954108">
        <ele>54.42</ele>
        <time>2025-02-03T17:21:43.145Z</time>
      </trkpt>
      <trkpt lat="58.97632699459791" lon="12.619339954108">
        <ele>54.29</ele>
        <time>2025-02-03T17:21:56.778Z</time>
      </trkpt>
      <trkpt lat="58.97624099627137" lon="12.619336936622858">
        <ele>54.16</ele>
        <time>2025-02-03T17:22:10.412Z</time>
      </trkpt>
      <trkpt lat="58.97615591995418" lon="12.619324950501323">
        <ele>54.03</ele>
        <time>2025-02-03T17:22:24.047Z</time>
      </trkpt>
      <trkpt lat="58.976074950769544" lon="12.619307935237885">
        <ele>53.9</ele>
        <time>2025-02-03T17:22:37.684Z</time>
      </trkpt>
      <trkpt lat="58.97599599324167" lon="12.619285974651575">
        <ele>53.77</ele>
        <time>2025-02-03T17:22:51.322Z</time>
      </trkpt>
      <trkpt lat="58.97591896355152" lon="12.619257979094982">
        <ele>53.64</ele>
        <time>2025-02-03T17:23:04.961Z</time>
      </trkpt>
      <trkpt lat="58.975840928032994" lon="12.619225960224867">
        <ele>53.51</ele>
        <time>2025-02-03T17:23:18.601Z</time>
      </trkpt>
      <trkpt lat="58.97576398216188" lon="12.6191879902035">
        <ele>53.37</ele>
        <time>2025-02-03T17:23:32.243Z</time>
      </trkpt>
      <trkpt lat="58.97568594664335" lon="12.619153959676623">
        <ele>53.24</ele>
        <time>2025-02-03T17:23:45.886Z</time>
      </trkpt>
      <trkpt lat="58.97561394609511" lon="12.61912495829165">
        <ele>53.11</ele>
        <time>2025-02-03T17:23:59.530Z</time>
      </trkpt>
      <trkpt lat="58.97555192001164" lon="12.619096962735057">
        <ele>52.98</ele>
        <time>2025-02-03T17:24:13.175Z</time>
      </trkpt>
      <trkpt lat="58.975496934726834" lon="12.619071984663606">
        <ele>52.84</ele>
        <time>2025-02-03T17:24:26.821Z</time>
      </trkpt>
      <trkpt lat="58.9754519239068" lon="12.619052957743406">
        <ele>52.71</ele>
        <time>2025-02-03T17:24:40.468Z</time>
      </trkpt>
      <trkpt lat="58.97541495971382" lon="12.619032924994826">
        <ele>52.59</ele>
        <time>2025-02-03T17:24:54.115Z</time>
      </trkpt>
      <trkpt lat="58.97538092918694" lon="12.619009958580136">
        <ele>52.46</ele>
        <time>2025-02-03T17:25:07.763Z</time>
      </trkpt>
      <trkpt lat="58.97535293363035" lon="12.61897198855877">
        <ele>52.33</ele>
        <time>2025-02-03T17:25:21.412Z</time>
      </trkpt>
      <trkpt lat="58.97533197887242" lon="12.6189099624753">
        <ele>52.2</ele>
        <time>2025-02-03T17:25:35.061Z</time>
      </trkpt>
      <trkpt lat="58.97532192058861" lon="12.618825975805521">
        <ele>52.08</ele>
        <time>2025-02-03T17:25:48.711Z</time>
      </trkpt>
      <trkpt lat="58.97532896138728" lon="12.618726985529065">
        <ele>51.95</ele>
        <time>2025-02-03T17:26:02.362Z</time>
      </trkpt>
      <trkpt lat="58.97535695694387" lon="12.61862799525261">
        <ele>51.83</ele>
        <time>2025-02-03T17:26:16.014Z</time>
      </trkpt>
      <trkpt lat="58.97539895027876" lon="12.618530932813883">
        <ele>51.71</ele>
        <time>2025-02-03T17:26:29.667Z</time>
      </trkpt>
      <trkpt lat="58.97544597275555" lon="12.618431942537427">
        <ele>51.59</ele>
        <time>2025-02-03T17:26:43.321Z</time>
      </trkpt>
      <trkpt lat="58.975492995232344" lon="12.61832993477583">
        <ele>51.47</ele>
        <time>2025-02-03T17:26:56.976Z</time>
      </trkpt>
      <trkpt lat="58.975539933890104" lon="12.618227927014232">
        <ele>51.35</ele>
        <time>2025-02-03T17:27:10.632Z</time>
      </trkpt>
      <trkpt lat="58.97558896802366" lon="12.618119968101382">
        <ele>51.23</ele>
        <time>2025-02-03T17:27:24.289Z</time>
      </trkpt>
      <trkpt lat="58.97563791833818" lon="12.61800698004663">
        <ele>51.11</ele>
        <time>2025-02-03T17:27:37.947Z</time>
      </trkpt>
      <trkpt lat="58.97568594664335" lon="12.617889968678355">
        <ele>51.0</ele>
        <time>2025-02-03T17:27:51.607Z</time>
      </trkpt>
      <trkpt lat="58.975734980776906" lon="12.617768933996558">
        <ele>50.89</ele>
        <time>2025-02-03T17:28:05.268Z</time>
      </trkpt>
      <trkpt lat="58.97578292526305" lon="12.617645971477032">
        <ele>50.78</ele>
        <time>2025-02-03T17:28:18.930Z</time>
      </trkpt>
      <trkpt lat="58.97583296522498" lon="12.617522925138474">
        <ele>50.67</ele>
        <time>2025-02-03T17:28:32.594Z</time>
      </trkpt>
      <trkpt lat="58.975881999358535" lon="12.617397950962186">
        <ele>50.56</ele>
        <time>2025-02-03T17:28:46.259Z</time>
      </trkpt>
      <trkpt lat="58.975929943844676" lon="12.617268953472376">
        <ele>50.46</ele>
        <time>2025-02-03T17:28:59.925Z</time>
      </trkpt>
      <trkpt lat="58.97597797214985" lon="12.617137944325805">
        <ele>50.35</ele>
        <time>2025-02-03T17:29:13.593Z</time>
      </trkpt>
      <trkpt lat="58.97602591663599" lon="12.617006935179234">
        <ele>50.25</ele>
        <time>2025-02-03T17:29:27.262Z</time>
      </trkpt>
      <trkpt lat="58.97607092745602" lon="12.616871986538172">
        <ele>50.15</ele>
        <time>2025-02-03T17:29:40.932Z</time>
      </trkpt>
      <trkpt lat="58.97611392661929" lon="12.616731924936175">
        <ele>50.05</ele>
        <time>2025-02-03T17:29:54.604Z</time>
      </trkpt>
      <trkpt lat="58.97615499794483" lon="12.616587923839688">
        <ele>49.96</ele>
        <time>2025-02-03T17:30:08.277Z</time>
      </trkpt>
      <trkpt lat="58.97619497962296" lon="12.616444928571582">
        <ele>49.86</ele>
        <time>2025-02-03T17:30:21.951Z</time>
      </trkpt>
      <trkpt lat="58.97623596712947" lon="12.616302939131856">
        <ele>49.77</ele>
        <time>2025-02-03T17:30:35.627Z</time>
      </trkpt>
      <trkpt lat="58.97627494297922" lon="12.616158938035369">
        <ele>49.68</ele>
        <time>2025-02-03T17:30:49.304Z</time>
      </trkpt>
      <trkpt lat="58.976311990991235" lon="12.61601191945374">
        <ele>49.6</ele>
        <time>2025-02-03T17:31:02.982Z</time>
      </trkpt>
      <trkpt lat="58.97634895518422" lon="12.615861967206001">
        <ele>49.52</ele>
        <time>2025-02-03T17:31:16.662Z</time>
      </trkpt>
      <trkpt lat="58.97638499736786" lon="12.61570899747312">
        <ele>49.44</ele>
        <time>2025-02-03T17:31:30.343Z</time>
      </trkpt>
      <trkpt lat="58.976421961560845" lon="12.615556949749589">
        <ele>49.35</ele>
        <time>2025-02-03T17:31:44.025Z</time>
      </trkpt>
      <trkpt lat="58.97645791992545" lon="12.61540993116796">
        <ele>49.28</ele>
        <time>2025-02-03T17:31:57.709Z</time>
      </trkpt>
      <trkpt lat="58.97649396210909" lon="12.615267941728234">
        <ele>49.2</ele>
        <time>2025-02-03T17:32:11.394Z</time>
      </trkpt>
      <trkpt lat="58.976529920473695" lon="12.615126958116889">
        <ele>49.12</ele>
        <time>2025-02-03T17:32:25.080Z</time>
      </trkpt>
      <trkpt lat="58.97656495682895" lon="12.614985974505544">
        <ele>49.05</ele>
        <time>2025-02-03T17:32:38.768Z</time>
      </trkpt>
      <trkpt lat="58.97659898735583" lon="12.614845996722579">
        <ele>48.99</ele>
        <time>2025-02-03T17:32:52.457Z</time>
      </trkpt>
      <trkpt lat="58.976633939892054" lon="12.614707946777344">
        <ele>48.92</ele>
        <time>2025-02-03T17:33:06.147Z</time>
      </trkpt>
      <trkpt lat="58.97666897624731" lon="12.61456897482276">
        <ele>48.86</ele>
        <time>2025-02-03T17:33:19.839Z</time>
      </trkpt>
      <trkpt lat="58.9767059404403" lon="12.614425979554653">
        <ele>48.79</ele>
        <time>2025-02-03T17:33:33.532Z</time>
      </trkpt>
      <trkpt lat="58.976744916290045" lon="12.614276949316263">
        <ele>48.73</ele>
        <time>2025-02-03T17:33:47.226Z</time>
      </trkpt>
      <trkpt lat="58.976783975958824" lon="12.614121967926621">
        <ele>48.68</ele>
        <time>2025-02-03T17:34:00.922Z</time>
      </trkpt>
      <trkpt lat="58.97682395763695" lon="12.613961957395077">
        <ele>48.62</ele>
        <time>2025-02-03T17:34:14.619Z</time>
      </trkpt>
      <trkpt lat="58.97686393931508" lon="12.613800941035151">
        <ele>48.57</ele>
        <time>2025-02-03T17:34:28.318Z</time>
      </trkpt>
      <trkpt lat="58.97690492682159" lon="12.613640930503607">
        <ele>48.52</ele>
        <time>2025-02-03T17:34:42.018Z</time>
      </trkpt>
      <trkpt lat="58.97694599814713" lon="12.613479997962713">
        <ele>48.47</ele>
        <time>2025-02-03T17:34:55.720Z</time>
      </trkpt>
      <trkpt lat="58.97698698565364" lon="12.613316969946027">
        <ele>48.42</ele>
        <time>2025-02-03T17:35:09.423Z</time>
      </trkpt>
      <trkpt lat="58.97702897898853" lon="12.61315293610096">
        <ele>48.38</ele>
        <time>2025-02-03T17:35:23.128Z</time>
      </trkpt>
      <trkpt lat="58.97707097232342" lon="12.612991919741035">
        <ele>48.34</ele>
        <time>2025-02-03T17:35:36.834Z</time>
      </trkpt>
      <trkpt lat="58.97711296565831" lon="12.612833920866251">
        <ele>48.3</ele>
        <time>2025-02-03T17:35:50.542Z</time>
      </trkpt>
      <trkpt lat="58.977153953164816" lon="12.61268095113337">
        <ele>48.28</ele>
        <time>2025-02-03T17:36:04.251Z</time>
      </trkpt>
      <trkpt lat="58.977193934842944" lon="12.612530998885632">
        <ele>48.25</ele>
        <time>2025-02-03T17:36:17.961Z</time>
      </trkpt>
      <trkpt lat="58.97723299451172" lon="12.612380962818861">
        <ele>48.23</ele>
        <time>2025-02-03T17:36:31.673Z</time>
      </trkpt>
      <trkpt lat="58.97727197036147" lon="12.612231932580471">
        <ele>48.2</ele>
        <time>2025-02-03T17:36:45.386Z</time>
      </trkpt>
      <trkpt lat="58.9773119520396" lon="12.612085919827223">
        <ele>48.17</ele>
        <time>2025-02-03T17:36:59.101Z</time>
      </trkpt>
      <trkpt lat="58.97735193371773" lon="12.611944936215878">
        <ele>48.14</ele>
        <time>2025-02-03T17:37:12.817Z</time>
      </trkpt>
      <trkpt lat="58.97739392705262" lon="12.611808981746435">
        <ele>48.13</ele>
        <time>2025-02-03T17:37:26.534Z</time>
      </trkpt>
      <trkpt lat="58.97743692621589" lon="12.611675960943103">
        <ele>48.11</ele>
        <time>2025-02-03T17:37:40.252Z</time>
      </trkpt>
      <trkpt lat="58.97747891955078" lon="12.611547969281673">
        <ele>48.1</ele>
        <time>2025-02-03T17:37:53.972Z</time>
      </trkpt>
      <trkpt lat="58.97751999087632" lon="12.61141394264996">
        <ele>48.08</ele>
        <time>2025-02-03T17:38:07.693Z</time>
      </trkpt>
      <trkpt lat="58.97756894119084" lon="12.61128393933177">
        <ele>48.07</ele>
        <time>2025-02-03T17:38:21.415Z</time>
      </trkpt>
      <trkpt lat="58.977621998637915" lon="12.611160976812243">
        <ele>48.05</ele>
        <time>2025-02-03T17:38:35.139Z</time>
      </trkpt>
      <trkpt lat="58.97767899557948" lon="12.611041953787208">
        <ele>48.05</ele>
        <time>2025-02-03T17:38:48.864Z</time>
      </trkpt>
      <trkpt lat="58.9777419436723" lon="12.61092091910541">
        <ele>48.05</ele>
        <time>2025-02-03T17:39:02.590Z</time>
      </trkpt>
      <trkpt lat="58.97780698724091" lon="12.610801979899406">
        <ele>48.05</ele>
        <time>2025-02-03T17:39:16.318Z</time>
      </trkpt>
      <trkpt lat="58.97787395864725" lon="12.61068295687437">
        <ele>48.05</ele>
        <time>2025-02-03T17:39:30.047Z</time>
      </trkpt>
      <trkpt lat="58.977944953367114" lon="12.610568962991238">
        <ele>48.05</ele>
        <time>2025-02-03T17:39:43.778Z</time>
      </trkpt>
      <trkpt lat="58.9780199714005" lon="12.610456980764866">
        <ele>48.06</ele>
        <time>2025-02-03T17:39:57.510Z</time>
      </trkpt>
      <trkpt lat="58.978095995262265" lon="12.610346926376224">
        <ele>48.06</ele>
        <time>2025-02-03T17:40:11.244Z</time>
      </trkpt>
      <trkpt lat="58.97817495279014" lon="12.610238967463374">
        <ele>48.07</ele>
        <time>2025-02-03T17:40:24.979Z</time>
      </trkpt>
      <trkpt lat="58.97825499996543" lon="12.610129918903112">
        <ele>48.09</ele>
        <time>2025-02-03T17:40:38.716Z</time>
      </trkpt>
      <trkpt lat="58.978335969150066" lon="12.610023971647024">
        <ele>48.1</ele>
        <time>2025-02-03T17:40:52.455Z</time>
      </trkpt>
      <trkpt lat="58.97841593250632" lon="12.609915928915143">
        <ele>48.12</ele>
        <time>2025-02-03T17:41:06.195Z</time>
      </trkpt>
      <trkpt lat="58.97849597968161" lon="12.609808975830674">
        <ele>48.14</ele>
        <time>2025-02-03T17:41:19.937Z</time>
      </trkpt>
      <trkpt lat="58.97857493720949" lon="12.609702944755554">
        <ele>48.16</ele>
        <time>2025-02-03T17:41:33.680Z</time>
      </trkpt>
      <trkpt lat="58.978653978556395" lon="12.609601942822337">
        <ele>48.19</ele>
        <time>2025-02-03T17:41:47.425Z</time>
      </trkpt>
      <trkpt lat="58.97873092442751" lon="12.60949993506074">
        <ele>48.22</ele>
        <time>2025-02-03T17:42:01.171Z</time>
      </trkpt>
      <trkpt lat="58.978806948289275" lon="12.609398933127522">
        <ele>48.26</ele>
        <time>2025-02-03T17:42:14.919Z</time>
      </trkpt>
      <trkpt lat="58.97888196632266" lon="12.609298937022686">
        <ele>48.3</ele>
        <time>2025-02-03T17:42:28.668Z</time>
      </trkpt>
      <trkpt lat="58.978956984356046" lon="12.60920095257461">
        <ele>48.33</ele>
        <time>2025-02-03T17:42:42.419Z</time>
      </trkpt>
      <trkpt lat="58.97903099656105" lon="12.609103973954916">
        <ele>48.37</ele>
        <time>2025-02-03T17:42:56.171Z</time>
      </trkpt>
      <trkpt lat="58.97910391911864" lon="12.609010934829712">
        <ele>48.42</ele>
        <time>2025-02-03T17:43:09.924Z</time>
      </trkpt>
      <trkpt lat="58.979175919666886" lon="12.608915967866778">
        <ele>48.46</ele>
        <time>2025-02-03T17:43:23.679Z</time>
      </trkpt>
      <trkpt lat="58.97924699820578" lon="12.608820917084813">
        <ele>48.5</ele>
        <time>2025-02-03T17:43:37.435Z</time>
      </trkpt>
      <trkpt lat="58.979318998754025" lon="12.60872695595026">
        <ele>48.56</ele>
        <time>2025-02-03T17:43:51.193Z</time>
      </trkpt>
      <trkpt lat="58.97938999347389" lon="12.608631988987327">
        <ele>48.61</ele>
        <time>2025-02-03T17:44:04.952Z</time>
      </trkpt>
      <trkpt lat="58.97946098819375" lon="12.608537944033742">
        <ele>48.67</ele>
        <time>2025-02-03T17:44:18.712Z</time>
      </trkpt>
      <trkpt lat="58.97952896542847" lon="12.608442977070808">
        <ele>48.73</ele>
        <time>2025-02-03T17:44:32.474Z</time>
      </trkpt>
      <trkpt lat="58.97959694266319" lon="12.608352955430746">
        <ele>48.79</ele>
        <time>2025-02-03T17:44:46.237Z</time>
      </trkpt>
      <trkpt lat="58.979662992060184" lon="12.608260922133923">
        <ele>48.86</ele>
        <time>2025-02-03T17:45:00.001Z</time>
      </trkpt>
      <trkpt lat="58.979730969294906" lon="12.60816897265613">
        <ele>48.92</ele>
        <time>2025-02-03T17:45:13.767Z</time>
      </trkpt>
      <trkpt lat="58.979797940701246" lon="12.608075933530927">
        <ele>48.99</ele>
        <time>2025-02-03T17:45:27.534Z</time>
      </trkpt>
      <trkpt lat="58.97986499592662" lon="12.607984989881516">
        <ele>49.07</ele>
        <time>2025-02-03T17:45:41.302Z</time>
      </trkpt>
      <trkpt lat="58.97993196733296" lon="12.60788893327117">
        <ele>49.14</ele>
        <time>2025-02-03T17:45:55.072Z</time>
      </trkpt>
      <trkpt lat="58.98000095039606" lon="12.607791954651475">
        <ele>49.22</ele>
        <time>2025-02-03T17:46:08.843Z</time>
      </trkpt>
      <trkpt lat="58.98006892763078" lon="12.607698999345303">
        <ele>49.3</ele>
        <time>2025-02-03T17:46:22.615Z</time>
      </trkpt>
      <trkpt lat="58.980138916522264" lon="12.607606966048479">
        <ele>49.38</ele>
        <time>2025-02-03T17:46:36.389Z</time>
      </trkpt>
      <trkpt lat="58.9802079834044" lon="12.607514932751656">
        <ele>49.47</ele>
        <time>2025-02-03T17:46:50.164Z</time>
      </trkpt>
      <trkpt lat="58.98027596063912" lon="12.607419965788722">
        <ele>49.55</ele>
        <time>2025-02-03T17:47:03.940Z</time>
      </trkpt>
      <trkpt lat="58.98034393787384" lon="12.607324998825788">
        <ele>49.64</ele>
        <time>2025-02-03T17:47:17.718Z</time>
      </trkpt>
      <trkpt lat="58.98041199892759" lon="12.607230953872204">
        <ele>49.74</ele>
        <time>2025-02-03T17:47:31.497Z</time>
      </trkpt>
      <trkpt lat="58.980480981990695" lon="12.607137998566031">
        <ele>49.83</ele>
        <time>2025-02-03T17:47:45.277Z</time>
      </trkpt>
      <trkpt lat="58.980548959225416" lon="12.607044959440827">
        <ele>49.93</ele>
        <time>2025-02-03T17:47:59.059Z</time>
      </trkpt>
      <trkpt lat="58.98061693646014" lon="12.606951920315623">
        <ele>50.03</ele>
        <time>2025-02-03T17:48:12.842Z</time>
      </trkpt>
      <trkpt lat="58.98068499751389" lon="12.60685795918107">
        <ele>50.13</ele>
        <time>2025-02-03T17:48:26.626Z</time>
      </trkpt>
      <trkpt lat="58.98075196892023" lon="12.606763998046517">
        <ele>50.24</ele>
        <time>2025-02-03T17:48:40.412Z</time>
      </trkpt>
      <trkpt lat="58.98081994615495" lon="12.606668947264552">
        <ele>50.35</ele>
        <time>2025-02-03T17:48:54.199Z</time>
      </trkpt>
      <trkpt lat="58.980888929218054" lon="12.606570962816477">
        <ele>50.46</ele>
        <time>2025-02-03T17:49:07.988Z</time>
      </trkpt>
      <trkpt lat="58.98095699027181" lon="12.606467949226499">
        <ele>50.58</ele>
        <time>2025-02-03T17:49:21.778Z</time>
      </trkpt>
      <trkpt lat="58.98102597333491" lon="12.60636099614203">
        <ele>50.7</ele>
        <time>2025-02-03T17:49:35.569Z</time>
      </trkpt>
      <trkpt lat="58.98109495639801" lon="12.606248930096626">
        <ele>50.83</ele>
        <time>2025-02-03T17:49:49.362Z</time>
      </trkpt>
      <trkpt lat="58.98116293363273" lon="12.606133930385113">
        <ele>50.96</ele>
        <time>2025-02-03T17:50:03.156Z</time>
      </trkpt>
      <trkpt lat="58.981229988858104" lon="12.606017924845219">
        <ele>51.1</ele>
        <time>2025-02-03T17:50:16.952Z</time>
      </trkpt>
      <trkpt lat="58.981295954436064" lon="12.605897979810834">
        <ele>51.24</ele>
        <time>2025-02-03T17:50:30.749Z</time>
      </trkpt>
      <trkpt lat="58.981360998004675" lon="12.605776945129037">
        <ele>51.38</ele>
        <time>2025-02-03T17:50:44.548Z</time>
      </trkpt>
      <trkpt lat="58.981424951925874" lon="12.605657922104001">
        <ele>51.52</ele>
        <time>2025-02-03T17:50:58.348Z</time>
      </trkpt>
      <trkpt lat="58.98148597218096" lon="12.605536971241236">
        <ele>51.66</ele>
        <time>2025-02-03T17:51:12.149Z</time>
      </trkpt>
      <trkpt lat="58.98154498077929" lon="12.605413924902678">
        <ele>51.81</ele>
        <time>2025-02-03T17:51:25.952Z</time>
      </trkpt>
      <trkpt lat="58.981599966064095" lon="12.605290962383151">
        <ele>51.96</ele>
        <time>2025-02-03T17:51:39.756Z</time>
      </trkpt>
      <trkpt lat="58.9816549513489" lon="12.605166994035244">
        <ele>52.11</ele>
        <time>2025-02-03T17:51:53.561Z</time>
      </trkpt>
      <trkpt lat="58.981707924976945" lon="12.605040930211544">
        <ele>52.26</ele>
        <time>2025-02-03T17:52:07.368Z</time>
      </trkpt>
      <trkpt lat="58.98175897076726" lon="12.604914950206876">
        <ele>52.41</ele>
        <time>2025-02-03T17:52:21.176Z</time>
      </trkpt>
      <trkpt lat="58.98180892691016" lon="12.604786958545446">
        <ele>52.57</ele>
        <time>2025-02-03T17:52:34.985Z</time>
      </trkpt>
      <trkpt lat="58.981856955215335" lon="12.604656955227256">
        <ele>52.73</ele>
        <time>2025-02-03T17:52:48.796Z</time>
      </trkpt>
      <trkpt lat="58.98190397769213" lon="12.604523934423923">
        <ele>52.9</ele>
        <time>2025-02-03T17:53:02.608Z</time>
      </trkpt>
      <trkpt lat="58.98195091634989" lon="12.604389991611242">
        <ele>53.06</ele>
        <time>2025-02-03T17:53:16.421Z</time>
      </trkpt>
      <trkpt lat="58.98199592716992" lon="12.604253953322768">
        <ele>53.23</ele>
        <time>2025-02-03T17:53:30.236Z</time>
      </trkpt>
      <trkpt lat="58.98204093798995" lon="12.604117998853326">
        <ele>53.4</ele>
        <time>2025-02-03T17:53:44.052Z</time>
      </trkpt>
      <trkpt lat="58.98208393715322" lon="12.60397894307971">
        <ele>53.58</ele>
        <time>2025-02-03T17:53:57.869Z</time>
      </trkpt>
      <trkpt lat="58.98212492465973" lon="12.603838965296745">
        <ele>53.75</ele>
        <time>2025-02-03T17:54:11.688Z</time>
      </trkpt>
      <trkpt lat="58.98216499015689" lon="12.6036979816854">
        <ele>53.93</ele>
        <time>2025-02-03T17:54:25.508Z</time>
      </trkpt>
      <trkpt lat="58.98220396600664" lon="12.603556998074055">
        <ele>54.11</ele>
        <time>2025-02-03T17:54:39.329Z</time>
      </trkpt>
      <trkpt lat="58.982243947684765" lon="12.603412996977568">
        <ele>54.29</ele>
        <time>2025-02-03T17:54:53.152Z</time>
      </trkpt>
      <trkpt lat="58.98228191770613" lon="12.60326698422432">
        <ele>54.48</ele>
        <time>2025-02-03T17:55:06.976Z</time>
      </trkpt>
      <trkpt lat="58.98232097737491" lon="12.603120971471071">
        <ele>54.67</ele>
        <time>2025-02-03T17:55:20.802Z</time>
      </trkpt>
      <trkpt lat="58.98236095905304" lon="12.602974958717823">
        <ele>54.86</ele>
        <time>2025-02-03T17:55:34.629Z</time>
      </trkpt>
      <trkpt lat="58.98239993490279" lon="12.602828945964575">
        <ele>55.05</ele>
        <time>2025-02-03T17:55:48.457Z</time>
      </trkpt>
      <trkpt lat="58.98243899457157" lon="12.602685950696468">
        <ele>55.25</ele>
        <time>2025-02-03T17:56:02.287Z</time>
      </trkpt>
      <trkpt lat="58.982477970421314" lon="12.602542955428362">
        <ele>55.45</ele>
        <time>2025-02-03T17:56:16.118Z</time>
      </trkpt>
      <trkpt lat="58.9825149346143" lon="12.602401971817017">
        <ele>55.65</ele>
        <time>2025-02-03T17:56:29.950Z</time>
      </trkpt>
      <trkpt lat="58.9825529884547" lon="12.602262999862432">
        <ele>55.85</ele>
        <time>2025-02-03T17:56:43.784Z</time>
      </trkpt>
      <trkpt lat="58.982589952647686" lon="12.602124949917197">
        <ele>56.06</ele>
        <time>2025-02-03T17:56:57.619Z</time>
      </trkpt>
      <trkpt lat="58.98262691684067" lon="12.601988995447755">
        <ele>56.26</ele>
        <time>2025-02-03T17:57:11.455Z</time>
      </trkpt>
      <trkpt lat="58.98266195319593" lon="12.601856980472803">
        <ele>56.47</ele>
        <time>2025-02-03T17:57:25.292Z</time>
      </trkpt>
      <trkpt lat="58.98269698955119" lon="12.601726977154613">
        <ele>56.69</ele>
        <time>2025-02-03T17:57:39.131Z</time>
      </trkpt>
      <trkpt lat="58.98272993043065" lon="12.601598985493183">
        <ele>56.9</ele>
        <time>2025-02-03T17:57:52.971Z</time>
      </trkpt>
      <trkpt lat="58.98276396095753" lon="12.601474933326244">
        <ele>57.11</ele>
        <time>2025-02-03T17:58:06.812Z</time>
      </trkpt>
      <trkpt lat="58.982797991484404" lon="12.60135498829186">
        <ele>57.33</ele>
        <time>2025-02-03T17:58:20.654Z</time>
      </trkpt>
      <trkpt lat="58.98283093236387" lon="12.601239988580346">
        <ele>57.54</ele>
        <time>2025-02-03T17:58:34.497Z</time>
      </trkpt>
      <trkpt lat="58.98286295123398" lon="12.601128928363323">
        <ele>57.76</ele>
        <time>2025-02-03T17:58:48.341Z</time>
      </trkpt>
      <trkpt lat="58.98289195261896" lon="12.601024992763996">
        <ele>57.99</ele>
        <time>2025-02-03T17:59:02.186Z</time>
      </trkpt>
      <trkpt lat="58.98291894234717" lon="12.60092499665916">
        <ele>58.21</ele>
        <time>2025-02-03T17:59:16.032Z</time>
      </trkpt>
      <trkpt lat="58.98294392041862" lon="12.600826928392053">
        <ele>58.43</ele>
        <time>2025-02-03T17:59:29.879Z</time>
      </trkpt>
      <trkpt lat="58.98296697065234" lon="12.600731961429119">
        <ele>58.65</ele>
        <time>2025-02-03T17:59:43.727Z</time>
      </trkpt>
      <trkpt lat="58.98298792541027" lon="12.600639928132296">
        <ele>58.88</ele>
        <time>2025-02-03T17:59:57.576Z</time>
      </trkpt>
      <trkpt lat="58.98300896398723" lon="12.600548984482884">
        <ele>59.1</ele>
        <time>2025-02-03T18:00:11.426Z</time>
      </trkpt>
      <trkpt lat="58.98303092457354" lon="12.600460974499583">
        <ele>59.33</ele>
        <time>2025-02-03T18:00:25.276Z</time>
      </trkpt>
      <trkpt lat="58.98305397480726" lon="12.600374976173043">
        <ele>59.56</ele>
        <time>2025-02-03T18:00:39.127Z</time>
      </trkpt>
      <trkpt lat="58.98307492956519" lon="12.600286966189742">
        <ele>59.79</ele>
        <time>2025-02-03T18:00:52.979Z</time>
      </trkpt>
      <trkpt lat="58.98309496231377" lon="12.60019694454968">
        <ele>60.02</ele>
        <time>2025-02-03T18:01:06.832Z</time>
      </trkpt>
      <trkpt lat="58.98311398923397" lon="12.600107928737998">
        <ele>60.25</ele>
        <time>2025-02-03T18:01:20.686Z</time>
      </trkpt>
      <trkpt lat="58.98313192650676" lon="12.600020924583077">
        <ele>60.48</ele>
        <time>2025-02-03T18:01:34.540Z</time>
      </trkpt>
      <trkpt lat="58.98314994759858" lon="12.599935932084918">
        <ele>60.72</ele>
        <time>2025-02-03T18:01:48.395Z</time>
      </trkpt>
      <trkpt lat="58.983168974518776" lon="12.599848927929997">
        <ele>60.95</ele>
        <time>2025-02-03T18:02:02.251Z</time>
      </trkpt>
      <trkpt lat="58.983185989782214" lon="12.599759995937347">
        <ele>61.18</ele>
        <time>2025-02-03T18:02:16.108Z</time>
      </trkpt>
      <trkpt lat="58.98320199921727" lon="12.599668968468904">
        <ele>61.41</ele>
        <time>2025-02-03T18:02:29.965Z</time>
      </trkpt>
      <trkpt lat="58.98321599699557" lon="12.599576935172081">
        <ele>61.65</ele>
        <time>2025-02-03T18:02:43.823Z</time>
      </trkpt>
      <trkpt lat="58.983228988945484" lon="12.59948498569429">
        <ele>61.88</ele>
        <time>2025-02-03T18:02:57.682Z</time>
      </trkpt>
      <trkpt lat="58.98323896341026" lon="12.599395969882607">
        <ele>62.11</ele>
        <time>2025-02-03T18:03:11.542Z</time>
      </trkpt>
      <trkpt lat="58.98324893787503" lon="12.599306954070926">
        <ele>62.34</ele>
        <time>2025-02-03T18:03:25.403Z</time>
      </trkpt>
      <trkpt lat="58.98325899615884" lon="12.599217938259244">
        <ele>62.57</ele>
        <time>2025-02-03T18:03:39.264Z</time>
      </trkpt>
      <trkpt lat="58.98326897062361" lon="12.599127916619182">
        <ele>62.8</ele>
        <time>2025-02-03T18:03:53.126Z</time>
      </trkpt>
      <trkpt lat="58.983276933431625" lon="12.599038984626532">
        <ele>63.03</ele>
        <time>2025-02-03T18:04:06.989Z</time>
      </trkpt>
      <trkpt lat="58.98328296840191" lon="12.598951980471611">
        <ele>63.26</ele>
        <time>2025-02-03T18:04:20.853Z</time>
      </trkpt>
      <trkpt lat="58.98328799754381" lon="12.598865982145071">
        <ele>63.49</ele>
        <time>2025-02-03T18:04:34.717Z</time>
      </trkpt>
      <trkpt lat="58.983293948695064" lon="12.598785934969783">
        <ele>63.71</ele>
        <time>2025-02-03T18:04:48.582Z</time>
      </trkpt>
      <trkpt lat="58.98329998366535" lon="12.598706977441907">
        <ele>63.93</ele>
        <time>2025-02-03T18:05:02.448Z</time>
      </trkpt>
      <trkpt lat="58.9833059348166" lon="12.59862994775176">
        <ele>64.16</ele>
        <time>2025-02-03T18:05:16.314Z</time>
      </trkpt>
      <trkpt lat="58.98330895230174" lon="12.598550990223885">
        <ele>64.38</ele>
        <time>2025-02-03T18:05:30.181Z</time>
      </trkpt>
      <trkpt lat="58.98330895230174" lon="12.598473960533738">
        <ele>64.6</ele>
        <time>2025-02-03T18:05:44.049Z</time>
      </trkpt>
      <trkpt lat="58.98330995813012" lon="12.598397936671972">
        <ele>64.81</ele>
        <time>2025-02-03T18:05:57.917Z</time>
      </trkpt>
      <trkpt lat="58.98330995813012" lon="12.598321996629238">
        <ele>65.03</ele>
        <time>2025-02-03T18:06:11.786Z</time>
      </trkpt>
      <trkpt lat="58.98331297561526" lon="12.598235998302698">
        <ele>65.25</ele>
        <time>2025-02-03T18:06:25.656Z</time>
      </trkpt>
      <trkpt lat="58.983315993100405" lon="12.598147988319397">
        <ele>65.46</ele>
        <time>2025-02-03T18:06:39.526Z</time>
      </trkpt>
      <trkpt lat="58.983317920938134" lon="12.598059978336096">
        <ele>65.67</ele>
        <time>2025-02-03T18:06:53.397Z</time>
      </trkpt>
      <trkpt lat="58.983314987272024" lon="12.597946990281343">
        <ele>65.89</ele>
        <time>2025-02-03T18:07:07.269Z</time>
      </trkpt>
      <trkpt lat="58.98331297561526" lon="12.597852945327759">
        <ele>66.1</ele>
        <time>2025-02-03T18:07:21.142Z</time>
      </trkpt>
      <trkpt lat="58.98330895230174" lon="12.597756972536445">
        <ele>66.3</ele>
        <time>2025-02-03T18:07:35.015Z</time>
      </trkpt>
      <trkpt lat="58.98330492898822" lon="12.597657982259989">
        <ele>66.51</ele>
        <time>2025-02-03T18:07:48.889Z</time>
      </trkpt>
      <trkpt lat="58.98330098949373" lon="12.597556980326772">
        <ele>66.72</ele>
        <time>2025-02-03T18:08:02.764Z</time>
      </trkpt>
      <trkpt lat="58.983293948695064" lon="12.597450949251652">
        <ele>66.92</ele>
        <time>2025-02-03T18:08:16.640Z</time>
      </trkpt>
      <trkpt lat="58.98328598588705" lon="12.597345924004912">
        <ele>67.11</ele>
        <time>2025-02-03T18:08:30.517Z</time>
      </trkpt>
      <trkpt lat="58.983276933431625" lon="12.597239976748824">
        <ele>67.31</ele>
        <time>2025-02-03T18:08:44.395Z</time>
      </trkpt>
      <trkpt lat="58.98326796479523" lon="12.597134951502085">
        <ele>67.51</ele>
        <time>2025-02-03T18:08:58.274Z</time>
      </trkpt>
      <trkpt lat="58.98325899615884" lon="12.597026992589235">
        <ele>67.71</ele>
        <time>2025-02-03T18:09:12.154Z</time>
      </trkpt>
      <trkpt lat="58.98324793204665" lon="12.596919955685735">
        <ele>67.9</ele>
        <time>2025-02-03T18:09:26.034Z</time>
      </trkpt>
      <trkpt lat="58.98323594592512" lon="12.596812918782234">
        <ele>68.09</ele>
        <time>2025-02-03T18:09:39.915Z</time>
      </trkpt>
      <trkpt lat="58.9832229539752" lon="12.596704959869385">
        <ele>68.28</ele>
        <time>2025-02-03T18:09:53.797Z</time>
      </trkpt>
      <trkpt lat="58.983207950368524" lon="12.596600940451026">
        <ele>68.46</ele>
        <time>2025-02-03T18:10:07.680Z</time>
      </trkpt>
      <trkpt lat="58.983190935105085" lon="12.596497926861048">
        <ele>68.65</ele>
        <time>2025-02-03T18:10:21.564Z</time>
      </trkpt>
      <trkpt lat="58.9831729978323" lon="12.59639591909945">
        <ele>68.83</ele>
        <time>2025-02-03T18:10:35.449Z</time>
      </trkpt>
      <trkpt lat="58.98315698839724" lon="12.596295922994614">
        <ele>69.01</ele>
        <time>2025-02-03T18:10:49.335Z</time>
      </trkpt>
      <trkpt lat="58.98313896730542" lon="12.596194921061397">
        <ele>69.19</ele>
        <time>2025-02-03T18:11:03.222Z</time>
      </trkpt>
      <trkpt lat="58.98311893455684" lon="12.59609593078494">
        <ele>69.37</ele>
        <time>2025-02-03T18:11:17.110Z</time>
      </trkpt>
      <trkpt lat="58.983098985627294" lon="12.59598696604371">
        <ele>69.55</ele>
        <time>2025-02-03T18:11:30.999Z</time>
      </trkpt>
      <trkpt lat="58.98307794705033" lon="12.595873977988958">
        <ele>69.72</ele>
        <time>2025-02-03T18:11:44.889Z</time>
      </trkpt>
      <trkpt lat="58.9830519631505" lon="12.595759984105825">
        <ele>69.9</ele>
        <time>2025-02-03T18:11:58.780Z</time>
      </trkpt>
      <trkpt lat="58.98302597925067" lon="12.595643978565931">
        <ele>70.07</ele>
        <time>2025-02-03T18:12:12.672Z</time>
      </trkpt>
      <trkpt lat="58.98299898952246" lon="12.595525961369276">
        <ele>70.24</ele>
        <time>2025-02-03T18:12:26.565Z</time>
      </trkpt>
      <trkpt lat="58.982969988137484" lon="12.59540693834424">
        <ele>70.4</ele>
        <time>2025-02-03T18:12:40.459Z</time>
      </trkpt>
      <trkpt lat="58.98293897509575" lon="12.595286993309855">
        <ele>70.57</ele>
        <time>2025-02-03T18:12:54.354Z</time>
      </trkpt>
      <trkpt lat="58.982906956225634" lon="12.595164952799678">
        <ele>70.73</ele>
        <time>2025-02-03T18:13:08.250Z</time>
      </trkpt>
      <trkpt lat="58.98287191987038" lon="12.59504098445177">
        <ele>70.88</ele>
        <time>2025-02-03T18:13:22.147Z</time>
      </trkpt>
      <trkpt lat="58.98283596150577" lon="12.594913998618722">
        <ele>71.04</ele>
        <time>2025-02-03T18:13:36.045Z</time>
      </trkpt>
      <trkpt lat="58.982797991484404" lon="12.59478491730988">
        <ele>71.2</ele>
        <time>2025-02-03T18:13:49.945Z</time>
      </trkpt>
      <trkpt lat="58.982757925987244" lon="12.59465298615396">
        <ele>71.35</ele>
        <time>2025-02-03T18:14:03.846Z</time>
      </trkpt>
      <trkpt lat="58.982717944309115" lon="12.594512924551964">
        <ele>71.49</ele>
        <time>2025-02-03T18:14:17.748Z</time>
      </trkpt>
      <trkpt lat="58.98267796263099" lon="12.594367917627096">
        <ele>71.64</ele>
        <time>2025-02-03T18:14:31.652Z</time>
      </trkpt>
      <trkpt lat="58.9826359692961" lon="12.59422198869288">
        <ele>71.79</ele>
        <time>2025-02-03T18:14:45.557Z</time>
      </trkpt>
      <trkpt lat="58.98259397596121" lon="12.59407396428287">
        <ele>71.93</ele>
        <time>2025-02-03T18:14:59.463Z</time>
      </trkpt>
      <trkpt lat="58.98255198262632" lon="12.593921916559339">
        <ele>72.08</ele>
        <time>2025-02-03T18:15:13.371Z</time>
      </trkpt>
      <trkpt lat="58.98250898346305" lon="12.593768946826458">
        <ele>72.23</ele>
        <time>2025-02-03T18:15:27.280Z</time>
      </trkpt>
      <trkpt lat="58.9824649784714" lon="12.593615977093577">
        <ele>72.38</ele>
        <time>2025-02-03T18:15:41.191Z</time>
      </trkpt>
      <trkpt lat="58.98241996765137" lon="12.593464935198426">
        <ele>72.53</ele>
        <time>2025-02-03T18:15:55.103Z</time>
      </trkpt>
      <trkpt lat="58.9823769684881" lon="12.593311965465546">
        <ele>72.67</ele>
        <time>2025-02-03T18:16:09.017Z</time>
      </trkpt>
      <trkpt lat="58.98233497515321" lon="12.593158995732665">
        <ele>72.82</ele>
        <time>2025-02-03T18:16:22.932Z</time>
      </trkpt>
      <trkpt lat="58.98229197598994" lon="12.593006948009133">
        <ele>72.96</ele>
        <time>2025-02-03T18:16:36.848Z</time>
      </trkpt>
      <trkpt lat="58.98224998265505" lon="12.592852972447872">
        <ele>73.1</ele>
        <time>2025-02-03T18:16:50.766Z</time>
      </trkpt>
      <trkpt lat="58.98220798932016" lon="12.59269991889596">
        <ele>73.25</ele>
        <time>2025-02-03T18:17:04.685Z</time>
      </trkpt>
      <trkpt lat="58.98216499015689" lon="12.592545943334699">
        <ele>73.39</ele>
        <time>2025-02-03T18:17:18.606Z</time>
      </trkpt>
      <trkpt lat="58.98212199099362" lon="12.592391967773438">
        <ele>73.53</ele>
        <time>2025-02-03T18:17:32.528Z</time>
      </trkpt>
      <trkpt lat="58.98207999765873" lon="12.592238998040557">
        <ele>73.67</ele>
        <time>2025-02-03T18:17:46.452Z</time>
      </trkpt>
      <trkpt lat="58.98203599266708" lon="12.592087956145406">
        <ele>73.81</ele>
        <time>2025-02-03T18:18:00.377Z</time>
      </trkpt>
      <trkpt lat="58.98199299350381" lon="12.591936998069286">
        <ele>73.95</ele>
        <time>2025-02-03T18:18:14.304Z</time>
      </trkpt>
      <trkpt lat="58.98194999434054" lon="12.591785956174135">
        <ele>74.09</ele>
        <time>2025-02-03T18:18:28.232Z</time>
      </trkpt>
      <trkpt lat="58.98190699517727" lon="12.591636925935745">
        <ele>74.23</ele>
        <time>2025-02-03T18:18:42.161Z</time>
      </trkpt>
      <trkpt lat="58.981863996014" lon="12.591487979516387">
        <ele>74.37</ele>
        <time>2025-02-03T18:18:56.092Z</time>
      </trkpt>
      <trkpt lat="58.98182099685073" lon="12.591334925964475">
        <ele>74.51</ele>
        <time>2025-02-03T18:19:10.024Z</time>
      </trkpt>
      <trkpt lat="58.98177799768746" lon="12.591179944574833">
        <ele>74.65</ele>
        <time>2025-02-03T18:19:23.958Z</time>
      </trkpt>
      <trkpt lat="58.98173592053354" lon="12.59102295152843">
        <ele>74.8</ele>
        <time>2025-02-03T18:19:37.893Z</time>
      </trkpt>
      <trkpt lat="58.98169292137027" lon="12.590865958482027">
        <ele>74.95</ele>
        <time>2025-02-03T18:19:51.830Z</time>
      </trkpt>
      <trkpt lat="58.98164891637862" lon="12.590707959607244">
        <ele>75.1</ele>
        <time>2025-02-03T18:20:05.768Z</time>
      </trkpt>
      <trkpt lat="58.981604995206" lon="12.59054996073246">
        <ele>75.25</ele>
        <time>2025-02-03T18:20:19.708Z</time>
      </trkpt>
      <trkpt lat="58.98155998438597" lon="12.590391961857677">
        <ele>75.4</ele>
        <time>2025-02-03T18:20:33.649Z</time>
      </trkpt>
      <trkpt lat="58.981514973565936" lon="12.590233962982893">
        <ele>75.55</ele>
        <time>2025-02-03T18:20:47.592Z</time>
      </trkpt>
      <trkpt lat="58.981470968574286" lon="12.590074958279729">
        <ele>75.7</ele>
        <time>2025-02-03T18:21:01.536Z</time>
      </trkpt>
      <trkpt lat="58.981425957754254" lon="12.589916959404945">
        <ele>75.85</ele>
        <time>2025-02-03T18:21:15.482Z</time>
      </trkpt>
      <trkpt lat="58.98138094693422" lon="12.589762983843684">
        <ele>76.01</ele>
        <time>2025-02-03T18:21:29.429Z</time>
      </trkpt>
      <trkpt lat="58.98133694194257" lon="12.589608924463391">
        <ele>76.16</ele>
        <time>2025-02-03T18:21:43.378Z</time>
      </trkpt>
      <trkpt lat="58.9812939427793" lon="12.58945595473051">
        <ele>76.31</ele>
        <time>2025-02-03T18:21:57.328Z</time>
      </trkpt>
      <trkpt lat="58.98125094361603" lon="12.58930298499763">
        <ele>76.47</ele>
        <time>2025-02-03T18:22:11.279Z</time>
      </trkpt>
      <trkpt lat="58.98120794445276" lon="12.589150937274098">
        <ele>76.62</ele>
        <time>2025-02-03T18:22:25.232Z</time>
      </trkpt>
      <trkpt lat="58.98116393946111" lon="12.588999979197979">
        <ele>76.79</ele>
        <time>2025-02-03T18:22:39.186Z</time>
      </trkpt>
      <trkpt lat="58.98112094029784" lon="12.588850948959589">
        <ele>76.95</ele>
        <time>2025-02-03T18:22:53.142Z</time>
      </trkpt>
      <trkpt lat="58.98107794113457" lon="12.58870292454958">
        <ele>77.12</ele>
        <time>2025-02-03T18:23:07.099Z</time>
      </trkpt>
      <trkpt lat="58.9810349419713" lon="12.588556995615363">
        <ele>77.28</ele>
        <time>2025-02-03T18:23:21.057Z</time>
      </trkpt>
      <trkpt lat="58.98099395446479" lon="12.588414922356606">
        <ele>77.45</ele>
        <time>2025-02-03T18:23:35.017Z</time>
      </trkpt>
      <trkpt lat="58.980954978615046" lon="12.58827393874526">
        <ele>77.61</ele>
        <time>2025-02-03T18:23:48.978Z</time>
      </trkpt>
      <trkpt lat="58.98091692477465" lon="12.588136978447437">
        <ele>77.78</ele>
        <time>2025-02-03T18:24:02.940Z</time>
      </trkpt>
      <trkpt lat="58.98087996058166" lon="12.588001945987344">
        <ele>77.95</ele>
        <time>2025-02-03T18:24:16.904Z</time>
      </trkpt>
      <trkpt lat="58.980842996388674" lon="12.587869931012392">
        <ele>78.13</ele>
        <time>2025-02-03T18:24:30.869Z</time>
      </trkpt>
      <trkpt lat="58.98080796003342" lon="12.587736994028091">
        <ele>78.3</ele>
        <time>2025-02-03T18:24:44.835Z</time>
      </trkpt>
      <trkpt lat="58.98077191784978" lon="12.587600955739617">
        <ele>78.47</ele>
        <time>2025-02-03T18:24:58.802Z</time>
      </trkpt>
      <trkpt lat="58.98073495365679" lon="12.587462989613414">
        <ele>78.65</ele>
        <time>2025-02-03T18:25:12.771Z</time>
      </trkpt>
      <trkpt lat="58.980697989463806" lon="12.587320916354656">
        <ele>78.82</ele>
        <time>2025-02-03T18:25:26.741Z</time>
      </trkpt>
      <trkpt lat="58.98066094145179" lon="12.58717498742044">
        <ele>79.0</ele>
        <time>2025-02-03T18:25:40.712Z</time>
      </trkpt>
      <trkpt lat="58.9806239772588" lon="12.58702696301043">
        <ele>79.18</ele>
        <time>2025-02-03T18:25:54.685Z</time>
      </trkpt>
      <trkpt lat="58.98058692924678" lon="12.58687692694366">
        <ele>79.36</ele>
        <time>2025-02-03T18:26:08.659Z</time>
      </trkpt>
      <trkpt lat="58.980548959225416" lon="12.586721945554018">
        <ele>79.55</ele>
        <time>2025-02-03T18:26:22.635Z</time>
      </trkpt>
      <trkpt lat="58.98050998337567" lon="12.586562940850854">
        <ele>79.73</ele>
        <time>2025-02-03T18:26:36.612Z</time>
      </trkpt>
      <trkpt lat="58.98047192953527" lon="12.586397984996438">
        <ele>79.92</ele>
        <time>2025-02-03T18:26:50.591Z</time>
      </trkpt>
      <trkpt lat="58.9804339595139" lon="12.586227916181087">
        <ele>80.11</ele>
        <time>2025-02-03T18:27:04.571Z</time>
      </trkpt>
      <trkpt lat="58.980394983664155" lon="12.586053991690278">
        <ele>80.29</ele>
        <time>2025-02-03T18:27:18.553Z</time>
      </trkpt>
      <trkpt lat="58.980354918166995" lon="12.585874954238534">
        <ele>80.48</ele>
        <time>2025-02-03T18:27:32.536Z</time>
      </trkpt>
      <trkpt lat="58.980312924832106" lon="12.5856919772923">
        <ele>80.67</ele>
        <time>2025-02-03T18:27:46.521Z</time>
      </trkpt>
      <trkpt lat="58.980268919840455" lon="12.585504977032542">
        <ele>80.86</ele>
        <time>2025-02-03T18:28:00.508Z</time>
      </trkpt>
      <trkpt lat="58.980226926505566" lon="12.585312947630882">
        <ele>81.06</ele>
        <time>2025-02-03T18:28:14.496Z</time>
      </trkpt>
      <trkpt lat="58.980183927342296" lon="12.585116978734732">
        <ele>81.25</ele>
        <time>2025-02-03T18:28:28.486Z</time>
      </trkpt>
      <trkpt lat="58.980139922350645" lon="12.58491899818182">
        <ele>81.44</ele>
        <time>2025-02-03T18:28:42.478Z</time>
      </trkpt>
      <trkpt lat="58.980094995349646" lon="12.584719927981496">
        <ele>81.64</ele>
        <time>2025-02-03T18:28:56.472Z</time>
      </trkpt>
      <trkpt lat="58.980048978701234" lon="12.584517924115062">
        <ele>81.85</ele>
        <time>2025-02-03T18:29:10.468Z</time>
      </trkpt>
      <trkpt lat="58.9800039678812" lon="12.58431893773377">
        <ele>82.05</ele>
        <time>2025-02-03T18:29:24.465Z</time>
      </trkpt>
      <trkpt lat="58.97995795123279" lon="12.584121963009238">
        <ele>82.26</ele>
        <time>2025-02-03T18:29:38.464Z</time>
      </trkpt>
      <trkpt lat="58.9799159578979" lon="12.583930939435959">
        <ele>82.47</ele>
        <time>2025-02-03T18:29:52.465Z</time>
      </trkpt>
      <trkpt lat="58.97987497039139" lon="12.583745950832963">
        <ele>82.69</ele>
        <time>2025-02-03T18:30:06.467Z</time>
      </trkpt>
      <trkpt lat="58.979835994541645" lon="12.5835679192096">
        <ele>82.9</ele>
        <time>2025-02-03T18:30:20.471Z</time>
      </trkpt>
      <trkpt lat="58.97979894652963" lon="12.583394916728139">
        <ele>83.13</ele>
        <time>2025-02-03T18:30:34.477Z</time>
      </trkpt>
      <trkpt lat="58.9797639939934" lon="12.583228955045342">
        <ele>83.35</ele>
        <time>2025-02-03T18:30:48.484Z</time>
      </trkpt>
      <trkpt lat="58.979730969294906" lon="12.583070956170559">
        <ele>83.57</ele>
        <time>2025-02-03T18:31:02.493Z</time>
      </trkpt>
      <trkpt lat="58.97969794459641" lon="12.582917986437678">
        <ele>83.79</ele>
        <time>2025-02-03T18:31:16.503Z</time>
      </trkpt>
      <trkpt lat="58.979662992060184" lon="12.582768956199288">
        <ele>84.01</ele>
        <time>2025-02-03T18:31:30.514Z</time>
      </trkpt>
      <trkpt lat="58.979625944048166" lon="12.58262193761766">
        <ele>84.23</ele>
        <time>2025-02-03T18:31:44.527Z</time>
      </trkpt>
      <trkpt lat="58.97959199734032" lon="12.582476930692792">
        <ele>84.45</ele>
        <time>2025-02-03T18:31:58.541Z</time>
      </trkpt>
      <trkpt lat="58.979558972641826" lon="12.582332929596305">
        <ele>84.67</ele>
        <time>2025-02-03T18:32:12.556Z</time>
      </trkpt>
      <trkpt lat="58.97952795960009" lon="12.58219194598496">
        <ele>84.9</ele>
        <time>2025-02-03T18:32:26.573Z</time>
      </trkpt>
      <trkpt lat="58.979495940729976" lon="12.582051968201995">
        <ele>85.13</ele>
        <time>2025-02-03T18:32:40.591Z</time>
      </trkpt>
      <trkpt lat="58.97946392185986" lon="12.58191592991352">
        <ele>85.36</ele>
        <time>2025-02-03T18:32:54.610Z</time>
      </trkpt>
      <trkpt lat="58.97943299263716" lon="12.5817839987576">
        <ele>85.59</ele>
        <time>2025-02-03T18:33:08.630Z</time>
      </trkpt>
      <trkpt lat="58.97940197959542" lon="12.581654917448759">
        <ele>85.82</ele>
        <time>2025-02-03T18:33:22.651Z</time>
      </trkpt>
      <trkpt lat="58.97937297821045" lon="12.581529943272471">
        <ele>86.05</ele>
        <time>2025-02-03T18:33:36.674Z</time>
      </trkpt>
      <trkpt lat="58.979344982653856" lon="12.581406980752945">
        <ele>86.28</ele>
        <time>2025-02-03T18:33:50.698Z</time>
      </trkpt>
      <trkpt lat="58.97931992076337" lon="12.581287957727909">
        <ele>86.52</ele>
        <time>2025-02-03T18:34:04.723Z</time>
      </trkpt>
      <trkpt lat="58.9792959485203" lon="12.581171952188015">
        <ele>86.76</ele>
        <time>2025-02-03T18:34:18.749Z</time>
      </trkpt>
      <trkpt lat="58.97927097044885" lon="12.581060975790024">
        <ele>86.99</ele>
        <time>2025-02-03T18:34:32.776Z</time>
      </trkpt>
      <trkpt lat="58.9792459923774" lon="12.580955950543284">
        <ele>87.23</ele>
        <time>2025-02-03T18:34:46.804Z</time>
      </trkpt>
      <trkpt lat="58.97922394797206" lon="12.580853942781687">
        <ele>87.46</ele>
        <time>2025-02-03T18:35:00.833Z</time>
      </trkpt>
      <trkpt lat="58.97920198738575" lon="12.580757969990373">
        <ele>87.7</ele>
        <time>2025-02-03T18:35:14.862Z</time>
      </trkpt>
      <trkpt lat="58.97918094880879" lon="12.580663925036788">
        <ele>87.94</ele>
        <time>2025-02-03T18:35:28.892Z</time>
      </trkpt>
      <trkpt lat="58.97916099987924" lon="12.580572981387377">
        <ele>88.18</ele>
        <time>2025-02-03T18:35:42.923Z</time>
      </trkpt>
      <trkpt lat="58.97914197295904" lon="12.580482959747314">
        <ele>88.42</ele>
        <time>2025-02-03T18:35:56.955Z</time>
      </trkpt>
      <trkpt lat="58.97912194021046" lon="12.580393943935633">
        <ele>88.66</ele>
        <time>2025-02-03T18:36:10.988Z</time>
      </trkpt>
      <trkpt lat="58.97909997962415" lon="12.58030392229557">
        <ele>88.9</ele>
        <time>2025-02-03T18:36:25.022Z</time>
      </trkpt>
      <trkpt lat="58.97907894104719" lon="12.58021499030292">
        <ele>89.14</ele>
        <time>2025-02-03T18:36:39.056Z</time>
      </trkpt>
      <trkpt lat="58.97905798628926" lon="12.580125974491239">
        <ele>89.37</ele>
        <time>2025-02-03T18:36:53.091Z</time>
      </trkpt>
      <trkpt lat="58.97903795354068" lon="12.580036958679557">
        <ele>89.61</ele>
        <time>2025-02-03T18:37:07.127Z</time>
      </trkpt>
      <trkpt lat="58.979020938277245" lon="12.579947942867875">
        <ele>89.84</ele>
        <time>2025-02-03T18:37:21.164Z</time>
      </trkpt>
      <trkpt lat="58.979002917185426" lon="12.579858927056193">
        <ele>90.08</ele>
        <time>2025-02-03T18:37:35.202Z</time>
      </trkpt>
      <trkpt lat="58.97898598574102" lon="12.579771922901273">
        <ele>90.32</ele>
        <time>2025-02-03T18:37:49.240Z</time>
      </trkpt>
      <trkpt lat="58.97896695882082" lon="12.579687936231494">
        <ele>90.55</ele>
        <time>2025-02-03T18:38:03.279Z</time>
      </trkpt>
      <trkpt lat="58.978948937729" lon="12.579604955390096">
        <ele>90.79</ele>
        <time>2025-02-03T18:38:17.319Z</time>
      </trkpt>
      <trkpt lat="58.97893091663718" lon="12.579521974548697">
        <ele>91.02</ele>
        <time>2025-02-03T18:38:31.360Z</time>
      </trkpt>
      <trkpt lat="58.978914991021156" lon="12.579440921545029">
        <ele>91.25</ele>
        <time>2025-02-03T18:38:45.401Z</time>
      </trkpt>
      <trkpt lat="58.9788989815861" lon="12.579362969845533">
        <ele>91.48</ele>
        <time>2025-02-03T18:38:59.443Z</time>
      </trkpt>
      <trkpt lat="58.97888397797942" lon="12.579285940155387">
        <ele>91.72</ele>
        <time>2025-02-03T18:39:13.486Z</time>
      </trkpt>
      <trkpt lat="58.97886696271598" lon="12.579213939607143">
        <ele>91.95</ele>
        <time>2025-02-03T18:39:27.529Z</time>
      </trkpt>
      <trkpt lat="58.978849947452545" lon="12.579143950715661">
        <ele>92.18</ele>
        <time>2025-02-03T18:39:41.573Z</time>
      </trkpt>
      <trkpt lat="58.97883494384587" lon="12.57907496765256">
        <ele>92.41</ele>
        <time>2025-02-03T18:39:55.618Z</time>
      </trkpt>
      <trkpt lat="58.97882295772433" lon="12.579003972932696">
        <ele>92.64</ele>
        <time>2025-02-03T18:40:09.663Z</time>
      </trkpt>
      <trkpt lat="58.9788109716028" lon="12.578932978212833">
        <ele>92.87</ele>
        <time>2025-02-03T18:40:23.709Z</time>
      </trkpt>
      <trkpt lat="58.97879596799612" lon="12.57886097766459">
        <ele>93.1</ele>
        <time>2025-02-03T18:40:37.755Z</time>
      </trkpt>
      <trkpt lat="58.978782976046205" lon="12.578787971287966">
        <ele>93.33</ele>
        <time>2025-02-03T18:40:51.802Z</time>
      </trkpt>
      <trkpt lat="58.978765960782766" lon="12.578714964911342">
        <ele>93.56</ele>
        <time>2025-02-03T18:41:05.850Z</time>
      </trkpt>
      <trkpt lat="58.97875095717609" lon="12.578641958534718">
        <ele>93.78</ele>
        <time>2025-02-03T18:41:19.898Z</time>
      </trkpt>
      <trkpt lat="58.97873193025589" lon="12.578568952158093">
        <ele>94.01</ele>
        <time>2025-02-03T18:41:33.947Z</time>
      </trkpt>
      <trkpt lat="58.97871198132634" lon="12.578493934124708">
        <ele>94.23</ele>
        <time>2025-02-03T18:41:47.997Z</time>
      </trkpt>
      <trkpt lat="58.97869396023452" lon="12.578414976596832">
        <ele>94.46</ele>
        <time>2025-02-03T18:42:02.048Z</time>
      </trkpt>
      <trkpt lat="58.978677950799465" lon="12.578336941078305">
        <ele>94.68</ele>
        <time>2025-02-03T18:42:16.099Z</time>
      </trkpt>
      <trkpt lat="58.978659929707646" lon="12.57826091721654">
        <ele>94.9</ele>
        <time>2025-02-03T18:42:30.151Z</time>
      </trkpt>
      <trkpt lat="58.97864299826324" lon="12.578183971345425">
        <ele>95.12</ele>
        <time>2025-02-03T18:42:44.204Z</time>
      </trkpt>
      <trkpt lat="58.97862497717142" lon="12.57810895331204">
        <ele>95.34</ele>
        <time>2025-02-03T18:42:58.257Z</time>
      </trkpt>
      <trkpt lat="58.97860896773636" lon="12.578034941107035">
        <ele>95.56</ele>
        <time>2025-02-03T18:43:12.311Z</time>
      </trkpt>
      <trkpt lat="58.978593964129686" lon="12.577958917245269">
        <ele>95.78</ele>
        <time>2025-02-03T18:43:26.366Z</time>
      </trkpt>
      <trkpt lat="58.97857795469463" lon="12.577877948060632">
        <ele>96.0</ele>
        <time>2025-02-03T18:43:40.421Z</time>
      </trkpt>
      <trkpt lat="58.97856395691633" lon="12.577792955562472">
        <ele>96.22</ele>
        <time>2025-02-03T18:43:54.477Z</time>
      </trkpt>
      <trkpt lat="58.978548953309655" lon="12.577706957235932">
        <ele>96.43</ele>
        <time>2025-02-03T18:44:08.534Z</time>
      </trkpt>
      <trkpt lat="58.97853193804622" lon="12.577621964737773">
        <ele>96.64</ele>
        <time>2025-02-03T18:44:22.592Z</time>
      </trkpt>
      <trkpt lat="58.97851794026792" lon="12.577536972239614">
        <ele>96.86</ele>
        <time>2025-02-03T18:44:36.650Z</time>
      </trkpt>
      <trkpt lat="58.978503942489624" lon="12.577450973913074">
        <ele>97.07</ele>
        <time>2025-02-03T18:44:50.709Z</time>
      </trkpt>
      <trkpt lat="58.97849195636809" lon="12.577361958101392">
        <ele>97.28</ele>
        <time>2025-02-03T18:45:04.769Z</time>
      </trkpt>
      <trkpt lat="58.978481981903315" lon="12.577268918976188">
        <ele>97.49</ele>
        <time>2025-02-03T18:45:18.830Z</time>
      </trkpt>
      <trkpt lat="58.97847192361951" lon="12.577171940356493">
        <ele>97.7</ele>
        <time>2025-02-03T18:45:32.891Z</time>
      </trkpt>
      <trkpt lat="58.978461949154735" lon="12.577070938423276">
        <ele>97.91</ele>
        <time>2025-02-03T18:45:46.953Z</time>
      </trkpt>
      <trkpt lat="58.97845398634672" lon="12.576966919004917">
        <ele>98.12</ele>
        <time>2025-02-03T18:46:01.016Z</time>
      </trkpt>
      <trkpt lat="58.97844694554806" lon="12.57686197757721">
        <ele>98.32</ele>
        <time>2025-02-03T18:46:15.080Z</time>
      </trkpt>
      <trkpt lat="58.978439988568425" lon="12.576752929016948">
        <ele>98.53</ele>
        <time>2025-02-03T18:46:29.145Z</time>
      </trkpt>
      <trkpt lat="58.97843495942652" lon="12.576639940962195">
        <ele>98.73</ele>
        <time>2025-02-03T18:46:43.211Z</time>
      </trkpt>
      <trkpt lat="58.97842892445624" lon="12.57652292959392">
        <ele>98.93</ele>
        <time>2025-02-03T18:46:57.278Z</time>
      </trkpt>
      <trkpt lat="58.97842599079013" lon="12.576401978731155">
        <ele>99.12</ele>
        <time>2025-02-03T18:47:11.346Z</time>
      </trkpt>
      <trkpt lat="58.97842397913337" lon="12.576277926564217">
        <ele>99.32</ele>
        <time>2025-02-03T18:47:25.415Z</time>
      </trkpt>
      <trkpt lat="58.97842297330499" lon="12.576148929074407">
        <ele>99.51</ele>
        <time>2025-02-03T18:47:39.485Z</time>
      </trkpt>
      <trkpt lat="58.97842397913337" lon="12.576017919927835">
        <ele>99.7</ele>
        <time>2025-02-03T18:47:53.556Z</time>
      </trkpt>
      <trkpt lat="58.97842699661851" lon="12.575885988771915">
        <ele>99.89</ele>
        <time>2025-02-03T18:48:07.628Z</time>
      </trkpt>
      <trkpt lat="58.978430936113" lon="12.575752967968583">
        <ele>100.08</ele>
        <time>2025-02-03T18:48:21.701Z</time>
      </trkpt>
      <trkpt lat="58.97843697108328" lon="12.57561994716525">
        <ele>100.26</ele>
        <time>2025-02-03T18:48:35.775Z</time>
      </trkpt>
      <trkpt lat="58.978442922234535" lon="12.575486926361918">
        <ele>100.45</ele>
        <time>2025-02-03T18:48:49.850Z</time>
      </trkpt>
      <trkpt lat="58.97845298051834" lon="12.575356923043728">
        <ele>100.63</ele>
        <time>2025-02-03T18:49:03.927Z</time>
      </trkpt>
      <trkpt lat="58.978464966639876" lon="12.575226919725537">
        <ele>100.81</ele>
        <time>2025-02-03T18:49:18.005Z</time>
      </trkpt>
      <trkpt lat="58.97847795858979" lon="12.575097922235727">
        <ele>100.98</ele>
        <time>2025-02-03T18:49:32.084Z</time>
      </trkpt>
      <trkpt lat="58.97849095053971" lon="12.574969930574298">
        <ele>101.16</ele>
        <time>2025-02-03T18:49:46.164Z</time>
      </trkpt>
      <trkpt lat="58.978507965803146" lon="12.574839927256107">
        <ele>101.33</ele>
        <time>2025-02-03T18:50:00.245Z</time>
      </trkpt>
      <trkpt lat="58.978525986894965" lon="12.574709923937917">
        <ele>101.5</ele>
        <time>2025-02-03T18:50:14.327Z</time>
      </trkpt>
      <trkpt lat="58.978546941652894" lon="12.574578998610377">
        <ele>101.67</ele>
        <time>2025-02-03T18:50:28.410Z</time>
      </trkpt>
      <trkpt lat="58.978567980229855" lon="12.574447989463806">
        <ele>101.84</ele>
        <time>2025-02-03T18:50:42.494Z</time>
      </trkpt>
      <trkpt lat="58.978590946644545" lon="12.574317986145616">
        <ele>102.0</ele>
        <time>2025-02-03T18:50:56.579Z</time>
      </trkpt>
      <trkpt lat="58.97861793637276" lon="12.574187982827425">
        <ele>102.17</ele>
        <time>2025-02-03T18:51:10.666Z</time>
      </trkpt>
      <trkpt lat="58.97864693775773" lon="12.574052950367332">
        <ele>102.33</ele>
        <time>2025-02-03T18:51:24.754Z</time>
      </trkpt>
      <trkpt lat="58.978678956627846" lon="12.57392093539238">
        <ele>102.5</ele>
        <time>2025-02-03T18:51:38.843Z</time>
      </trkpt>
      <trkpt lat="58.9787139929831" lon="12.573789926245809">
        <ele>102.66</ele>
        <time>2025-02-03T18:51:52.933Z</time>
      </trkpt>
      <trkpt lat="58.97874995134771" lon="12.573660928755999">
        <ele>102.82</ele>
        <time>2025-02-03T18:52:07.024Z</time>
      </trkpt>
      <trkpt lat="58.978787921369076" lon="12.573529919609427">
        <ele>102.98</ele>
        <time>2025-02-03T18:52:21.117Z</time>
      </trkpt>
      <trkpt lat="58.978827986866236" lon="12.573401927947998">
        <ele>103.14</ele>
        <time>2025-02-03T18:52:35.211Z</time>
      </trkpt>
      <trkpt lat="58.978870986029506" lon="12.573272930458188">
        <ele>103.3</ele>
        <time>2025-02-03T18:52:49.306Z</time>
      </trkpt>
      <trkpt lat="58.97891599684954" lon="12.573144938796759">
        <ele>103.45</ele>
        <time>2025-02-03T18:53:03.403Z</time>
      </trkpt>
      <trkpt lat="58.97896192967892" lon="12.573014935478568">
        <ele>103.6</ele>
        <time>2025-02-03T18:53:17.501Z</time>
      </trkpt>
      <trkpt lat="58.97900895215571" lon="12.572880992665887">
        <ele>103.75</ele>
        <time>2025-02-03T18:53:31.600Z</time>
      </trkpt>
      <trkpt lat="58.9790559746325" lon="12.572741936892271">
        <ele>103.89</ele>
        <time>2025-02-03T18:53:45.701Z</time>
      </trkpt>
      <trkpt lat="58.97910492494702" lon="12.572598941624165">
        <ele>104.04</ele>
        <time>2025-02-03T18:53:59.803Z</time>
      </trkpt>
      <trkpt lat="58.979152953252196" lon="12.572453934699297">
        <ele>104.18</ele>
        <time>2025-02-03T18:54:13.906Z</time>
      </trkpt>
      <trkpt lat="58.97920198738575" lon="12.572307921946049">
        <ele>104.31</ele>
        <time>2025-02-03T18:54:28.011Z</time>
      </trkpt>
      <trkpt lat="58.97925294935703" lon="12.57215796969831">
        <ele>104.45</ele>
        <time>2025-02-03T18:54:42.117Z</time>
      </trkpt>
      <trkpt lat="58.979301983490586" lon="12.57200893945992">
        <ele>104.59</ele>
        <time>2025-02-03T18:54:56.225Z</time>
      </trkpt>
      <trkpt lat="58.97934892214835" lon="12.571860998868942">
        <ele>104.71</ele>
        <time>2025-02-03T18:55:10.334Z</time>
      </trkpt>
      <trkpt lat="58.97939192131162" lon="12.571715991944075">
        <ele>104.84</ele>
        <time>2025-02-03T18:55:24.445Z</time>
      </trkpt>
      <trkpt lat="58.979430980980396" lon="12.571571990847588">
        <ele>104.95</ele>
        <time>2025-02-03T18:55:38.557Z</time>
      </trkpt>
      <trkpt lat="58.979470962658525" lon="12.57143092341721">
        <ele>105.07</ele>
        <time>2025-02-03T18:55:52.670Z</time>
      </trkpt>
      <trkpt lat="58.979512955993414" lon="12.57129698060453">
        <ele>105.19</ele>
        <time>2025-02-03T18:56:06.785Z</time>
      </trkpt>
      <trkpt lat="58.979556960985065" lon="12.5711689889431">
        <ele>105.3</ele>
        <time>2025-02-03T18:56:20.901Z</time>
      </trkpt>
      <trkpt lat="58.979599960148335" lon="12.571047954261303">
        <ele>105.4</ele>
        <time>2025-02-03T18:56:35.018Z</time>
      </trkpt>
      <trkpt lat="58.979644970968366" lon="12.570922980085015">
        <ele>105.51</ele>
        <time>2025-02-03T18:56:49.136Z</time>
      </trkpt>
      <trkpt lat="58.979685958474874" lon="12.570799933746457">
        <ele>105.6</ele>
        <time>2025-02-03T18:57:03.256Z</time>
      </trkpt>
      <trkpt lat="58.979727951809764" lon="12.570681916549802">
        <ele>105.7</ele>
        <time>2025-02-03T18:57:17.377Z</time>
      </trkpt>
      <trkpt lat="58.97976793348789" lon="12.570563983172178">
        <ele>105.8</ele>
        <time>2025-02-03T18:57:31.499Z</time>
      </trkpt>
      <trkpt lat="58.9798089209944" lon="12.570454934611917">
        <ele>105.89</ele>
        <time>2025-02-03T18:57:45.622Z</time>
      </trkpt>
      <trkpt lat="58.97985099814832" lon="12.57035099901259">
        <ele>105.99</ele>
        <time>2025-02-03T18:57:59.746Z</time>
      </trkpt>
      <trkpt lat="58.97989198565483" lon="12.570242956280708">
        <ele>106.08</ele>
        <time>2025-02-03T18:58:13.871Z</time>
      </trkpt>
      <trkpt lat="58.97993397898972" lon="12.570146983489394">
        <ele>106.17</ele>
        <time>2025-02-03T18:58:27.997Z</time>
      </trkpt>
      <trkpt lat="58.97997396066785" lon="12.570057967677712">
        <ele>106.25</ele>
        <time>2025-02-03T18:58:42.124Z</time>
      </trkpt>
      <trkpt lat="58.980009919032454" lon="12.569970963522792">
        <ele>106.33</ele>
        <time>2025-02-03T18:58:56.252Z</time>
      </trkpt>
      <trkpt lat="58.98004093207419" lon="12.56988194771111">
        <ele>106.41</ele>
        <time>2025-02-03T18:59:10.381Z</time>
      </trkpt>
      <trkpt lat="58.98006993345916" lon="12.56979594938457">
        <ele>106.49</ele>
        <time>2025-02-03T18:59:24.511Z</time>
      </trkpt>
      <trkpt lat="58.98009994067252" lon="12.569713974371552">
        <ele>106.56</ele>
        <time>2025-02-03T18:59:38.642Z</time>
      </trkpt>
      <trkpt lat="58.98012894205749" lon="12.569637950509787">
        <ele>106.63</ele>
        <time>2025-02-03T18:59:52.774Z</time>
      </trkpt>
      <trkpt lat="58.9801559317857" lon="12.569564944133162">
        <ele>106.69</ele>
        <time>2025-02-03T19:00:06.906Z</time>
      </trkpt>
      <trkpt lat="58.980181999504566" lon="12.569489926099777">
        <ele>106.76</ele>
        <time>2025-02-03T19:00:21.039Z</time>
      </trkpt>
      <trkpt lat="58.98020999506116" lon="12.569416919723153">
        <ele>106.81</ele>
        <time>2025-02-03T19:00:35.173Z</time>
      </trkpt>
      <trkpt lat="58.98023899644613" lon="12.569349948316813">
        <ele>106.86</ele>
        <time>2025-02-03T19:00:49.307Z</time>
      </trkpt>
      <trkpt lat="58.980270931497216" lon="12.569287922233343">
        <ele>106.91</ele>
        <time>2025-02-03T19:01:03.442Z</time>
      </trkpt>
      <trkpt lat="58.98030295036733" lon="12.569219944998622">
        <ele>106.95</ele>
        <time>2025-02-03T19:01:17.578Z</time>
      </trkpt>
      <trkpt lat="58.980332957580686" lon="12.569138975813985">
        <ele>106.99</ele>
        <time>2025-02-03T19:01:31.715Z</time>
      </trkpt>
      <trkpt lat="58.9803599473089" lon="12.5690639577806">
        <ele>107.03</ele>
        <time>2025-02-03T19:01:45.853Z</time>
      </trkpt>
      <trkpt lat="58.98038593120873" lon="12.568987933918834">
        <ele>107.06</ele>
        <time>2025-02-03T19:01:59.991Z</time>
      </trkpt>
      <trkpt lat="58.98041099309921" lon="12.568910988047719">
        <ele>107.09</ele>
        <time>2025-02-03T19:02:14.130Z</time>
      </trkpt>
      <trkpt lat="58.980438988655806" lon="12.568826917558908">
        <ele>107.12</ele>
        <time>2025-02-03T19:02:28.270Z</time>
      </trkpt>
      <trkpt lat="58.98046497255564" lon="12.568749971687794">
        <ele>107.14</ele>
        <time>2025-02-03T19:02:42.411Z</time>
      </trkpt>
      <trkpt lat="58.98048995062709" lon="12.568671936169267">
        <ele>107.16</ele>
        <time>2025-02-03T19:02:56.552Z</time>
      </trkpt>
      <trkpt lat="58.98051593452692" lon="12.568595996126533">
        <ele>107.17</ele>
        <time>2025-02-03T19:03:10.694Z</time>
      </trkpt>
      <trkpt lat="58.9805409964174" lon="12.568518966436386">
        <ele>107.18</ele>
        <time>2025-02-03T19:03:24.837Z</time>
      </trkpt>
      <trkpt lat="58.980564968660474" lon="12.568438919261098">
        <ele>107.18</ele>
        <time>2025-02-03T19:03:38.981Z</time>
      </trkpt>
      <trkpt lat="58.980590952560306" lon="12.568359961733222">
        <ele>107.19</ele>
        <time>2025-02-03T19:03:53.125Z</time>
      </trkpt>
      <trkpt lat="58.98061593063176" lon="12.568278992548585">
        <ele>107.18</ele>
        <time>2025-02-03T19:04:07.270Z</time>
      </trkpt>
      <trkpt lat="58.98063998669386" lon="12.568194922059774">
        <ele>107.18</ele>
        <time>2025-02-03T19:04:21.416Z</time>
      </trkpt>
      <trkpt lat="58.98066597059369" lon="12.568110935389996">
        <ele>107.16</ele>
        <time>2025-02-03T19:04:35.563Z</time>
      </trkpt>
      <trkpt lat="58.9806929603219" lon="12.568030972033739">
        <ele>107.15</ele>
        <time>2025-02-03T19:04:49.711Z</time>
      </trkpt>
      <trkpt lat="58.980718944221735" lon="12.567953942343593">
        <ele>107.12</ele>
        <time>2025-02-03T19:05:03.859Z</time>
      </trkpt>
      <trkpt lat="58.980743922293186" lon="12.567879930138588">
        <ele>107.1</ele>
        <time>2025-02-03T19:05:18.008Z</time>
      </trkpt>
      <trkpt lat="58.98076999001205" lon="12.567802984267473">
        <ele>107.06</ele>
        <time>2025-02-03T19:05:32.158Z</time>
      </trkpt>
      <trkpt lat="58.98079597391188" lon="12.567724948748946">
        <ele>107.02</ele>
        <time>2025-02-03T19:05:46.309Z</time>
      </trkpt>
      <trkpt lat="58.980822963640094" lon="12.56764498539269">
        <ele>106.98</ele>
        <time>2025-02-03T19:06:00.460Z</time>
      </trkpt>
      <trkpt lat="58.980849953368306" lon="12.567563932389021">
        <ele>106.93</ele>
        <time>2025-02-03T19:06:14.612Z</time>
      </trkpt>
      <trkpt lat="58.98087694309652" lon="12.567485980689526">
        <ele>106.87</ele>
        <time>2025-02-03T19:06:28.765Z</time>
      </trkpt>
      <trkpt lat="58.98090393282473" lon="12.567401994019747">
        <ele>106.81</ele>
        <time>2025-02-03T19:06:42.919Z</time>
      </trkpt>
      <trkpt lat="58.98093092255294" lon="12.567316917702556">
        <ele>106.74</ele>
        <time>2025-02-03T19:06:57.074Z</time>
      </trkpt>
      <trkpt lat="58.98095799610019" lon="12.567228991538286">
        <ele>106.66</ele>
        <time>2025-02-03T19:07:11.230Z</time>
      </trkpt>
      <trkpt lat="58.9809849858284" lon="12.567140981554985">
        <ele>106.59</ele>
        <time>2025-02-03T19:07:25.386Z</time>
      </trkpt>
      <trkpt lat="58.981014993041754" lon="12.567053977400064">
        <ele>106.51</ele>
        <time>2025-02-03T19:07:39.543Z</time>
      </trkpt>
      <trkpt lat="58.981044916436076" lon="12.566964961588383">
        <ele>106.43</ele>
        <time>2025-02-03T19:07:53.701Z</time>
      </trkpt>
      <trkpt lat="58.98107592947781" lon="12.566871922463179">
        <ele>106.34</ele>
        <time>2025-02-03T19:08:07.860Z</time>
      </trkpt>
      <trkpt lat="58.981107948347926" lon="12.566775949671865">
        <ele>106.24</ele>
        <time>2025-02-03T19:08:22.020Z</time>
      </trkpt>
      <trkpt lat="58.98114097304642" lon="12.56667796522379">
        <ele>106.14</ele>
        <time>2025-02-03T19:08:36.181Z</time>
      </trkpt>
      <trkpt lat="58.98117592558265" lon="12.566574951633811">
        <ele>106.03</ele>
        <time>2025-02-03T19:08:50.343Z</time>
      </trkpt>
      <trkpt lat="58.981211967766285" lon="12.566472943872213">
        <ele>105.92</ele>
        <time>2025-02-03T19:09:04.506Z</time>
      </trkpt>
      <trkpt lat="58.98124692030251" lon="12.566368924453855">
        <ele>105.81</ele>
        <time>2025-02-03T19:09:18.670Z</time>
      </trkpt>
      <trkpt lat="58.98128296248615" lon="12.566260965541005">
        <ele>105.69</ele>
        <time>2025-02-03T19:09:32.835Z</time>
      </trkpt>
      <trkpt lat="58.981320932507515" lon="12.566148983314633">
        <ele>105.57</ele>
        <time>2025-02-03T19:09:47.001Z</time>
      </trkpt>
      <trkpt lat="58.981358986347914" lon="12.566031971946359">
        <ele>105.44</ele>
        <time>2025-02-03T19:10:01.168Z</time>
      </trkpt>
      <trkpt lat="58.98139997385442" lon="12.565911943092942">
        <ele>105.3</ele>
        <time>2025-02-03T19:10:15.337Z</time>
      </trkpt>
      <trkpt lat="58.98144397884607" lon="12.565791998058558">
        <ele>105.16</ele>
        <time>2025-02-03T19:10:29.507Z</time>
      </trkpt>
      <trkpt lat="58.981487983837724" lon="12.565667945891619">
        <ele>105.01</ele>
        <time>2025-02-03T19:10:43.678Z</time>
      </trkpt>
      <trkpt lat="58.981531988829374" lon="12.565538948401809">
        <ele>104.86</ele>
        <time>2025-02-03T19:10:57.850Z</time>
      </trkpt>
      <trkpt lat="58.981577921658754" lon="12.565402993932366">
        <ele>104.71</ele>
        <time>2025-02-03T19:11:12.024Z</time>
      </trkpt>
      <trkpt lat="58.98162594996393" lon="12.565257987007499">
        <ele>104.54</ele>
        <time>2025-02-03T19:11:26.199Z</time>
      </trkpt>
      <trkpt lat="58.9816739782691" lon="12.56511096842587">
        <ele>104.38</ele>
        <time>2025-02-03T19:11:40.376Z</time>
      </trkpt>
      <trkpt lat="58.98172494024038" lon="12.56495799869299">
        <ele>104.21</ele>
        <time>2025-02-03T19:11:54.554Z</time>
      </trkpt>
      <trkpt lat="58.98177498020232" lon="12.564801927655935">
        <ele>104.03</ele>
        <time>2025-02-03T19:12:08.734Z</time>
      </trkpt>
      <trkpt lat="58.98182493634522" lon="12.564639989286661">
        <ele>103.85</ele>
        <time>2025-02-03T19:12:22.915Z</time>
      </trkpt>
      <trkpt lat="58.981874976307154" lon="12.564473943784833">
        <ele>103.68</ele>
        <time>2025-02-03T19:12:37.098Z</time>
      </trkpt>
      <trkpt lat="58.981922920793295" lon="12.56429792381823">
        <ele>103.5</ele>
        <time>2025-02-03T19:12:51.282Z</time>
      </trkpt>
      <trkpt lat="58.98197094909847" lon="12.564110923558474">
        <ele>103.31</ele>
        <time>2025-02-03T19:13:05.468Z</time>
      </trkpt>
      <trkpt lat="58.9820159599185" lon="12.563921995460987">
        <ele>103.12</ele>
        <time>2025-02-03T19:13:19.656Z</time>
      </trkpt>
      <trkpt lat="58.98205996491015" lon="12.563724936917424">
        <ele>102.92</ele>
        <time>2025-02-03T19:13:33.846Z</time>
      </trkpt>
      <trkpt lat="58.98210296407342" lon="12.563516981899738">
        <ele>102.74</ele>
        <time>2025-02-03T19:13:48.037Z</time>
      </trkpt>
      <trkpt lat="58.98214395157993" lon="12.563300980255008">
        <ele>102.55</ele>
        <time>2025-02-03T19:14:02.230Z</time>
      </trkpt>
      <trkpt lat="58.98218393325806" lon="12.563080955296755">
        <ele>102.35</ele>
        <time>2025-02-03T19:14:16.425Z</time>
      </trkpt>
      <trkpt lat="58.982220981270075" lon="12.56285598501563">
        <ele>102.14</ele>
        <time>2025-02-03T19:14:30.622Z</time>
      </trkpt>
      <trkpt lat="58.9822559338063" lon="12.562627997249365">
        <ele>101.94</ele>
        <time>2025-02-03T19:14:44.821Z</time>
      </trkpt>
      <trkpt lat="58.982288958504796" lon="12.562395986169577">
        <ele>101.73</ele>
        <time>2025-02-03T19:14:59.022Z</time>
      </trkpt>
      <trkpt lat="58.98231695406139" lon="12.562158945947886">
        <ele>101.53</ele>
        <time>2025-02-03T19:15:13.225Z</time>
      </trkpt>
      <trkpt lat="58.98234193213284" lon="12.561916960403323">
        <ele>101.32</ele>
        <time>2025-02-03T19:15:27.430Z</time>
      </trkpt>
      <trkpt lat="58.98236498236656" lon="12.561672963202">
        <ele>101.11</ele>
        <time>2025-02-03T19:15:41.637Z</time>
      </trkpt>
      <trkpt lat="58.98238392546773" lon="12.561425948515534">
        <ele>100.91</ele>
        <time>2025-02-03T19:15:55.846Z</time>
      </trkpt>
      <trkpt lat="58.98239892907441" lon="12.561176922172308">
        <ele>100.7</ele>
        <time>2025-02-03T19:16:10.057Z</time>
      </trkpt>
      <trkpt lat="58.982410999014974" lon="12.560927979648113">
        <ele>100.51</ele>
        <time>2025-02-03T19:16:24.270Z</time>
      </trkpt>
      <trkpt lat="58.98241996765137" lon="12.560677947476506">
        <ele>100.29</ele>
        <time>2025-02-03T19:16:38.486Z</time>
      </trkpt>
      <trkpt lat="58.98242298513651" lon="12.56042892113328">
        <ele>100.08</ele>
        <time>2025-02-03T19:16:52.704Z</time>
      </trkpt>
      <trkpt lat="58.98242197930813" lon="12.560182996094227">
        <ele>99.87</ele>
        <time>2025-02-03T19:17:06.924Z</time>
      </trkpt>
      <trkpt lat="58.982416950166225" lon="12.559939920902252">
        <ele>99.66</ele>
        <time>2025-02-03T19:17:21.146Z</time>
      </trkpt>
      <trkpt lat="58.98240999318659" lon="12.55969894118607">
        <ele>99.45</ele>
        <time>2025-02-03T19:17:35.370Z</time>
      </trkpt>
      <trkpt lat="58.98240194655955" lon="12.559457961469889">
        <ele>99.24</ele>
        <time>2025-02-03T19:17:49.596Z</time>
      </trkpt>
      <trkpt lat="58.982390966266394" lon="12.559219999238849">
        <ele>99.03</ele>
        <time>2025-02-03T19:18:03.824Z</time>
      </trkpt>
      <trkpt lat="58.98237898014486" lon="12.558982959017158">
        <ele>98.83</ele>
        <time>2025-02-03T19:18:18.054Z</time>
      </trkpt>
      <trkpt lat="58.98236892186105" lon="12.558749942108989">
        <ele>98.62</ele>
        <time>2025-02-03T19:18:32.286Z</time>
      </trkpt>
      <trkpt lat="58.98235995322466" lon="12.558518936857581">
        <ele>98.42</ele>
        <time>2025-02-03T19:18:46.519Z</time>
      </trkpt>
      <trkpt lat="58.982351990416646" lon="12.558290949091315">
        <ele>98.22</ele>
        <time>2025-02-03T19:19:00.754Z</time>
      </trkpt>
      <trkpt lat="58.98234193213284" lon="12.55806497298181">
        <ele>98.01</ele>
        <time>2025-02-03T19:19:14.991Z</time>
      </trkpt>
      <trkpt lat="58.982330951839685" lon="12.557839918881655">
        <ele>97.81</ele>
        <time>2025-02-03T19:19:29.230Z</time>
      </trkpt>
      <trkpt lat="58.98231997154653" lon="12.557617966085672">
        <ele>97.61</ele>
        <time>2025-02-03T19:19:43.471Z</time>
      </trkpt>
      <trkpt lat="58.982304967939854" lon="12.55739995278418">
        <ele>97.41</ele>
        <time>2025-02-03T19:19:57.714Z</time>
      </trkpt>
      <trkpt lat="58.9822939876467" lon="12.55718495696783">
        <ele>97.21</ele>
        <time>2025-02-03T19:20:11.959Z</time>
      </trkpt>
      <trkpt lat="58.98228292353451" lon="12.55696996115148">
        <ele>97.0</ele>
        <time>2025-02-03T19:20:26.205Z</time>
      </trkpt>
      <trkpt lat="58.98227194324136" lon="12.556756976991892">
        <ele>96.79</ele>
        <time>2025-02-03T19:20:40.453Z</time>
      </trkpt>
      <trkpt lat="58.98225995711982" lon="12.556543992832303">
        <ele>96.59</ele>
        <time>2025-02-03T19:20:54.703Z</time>
      </trkpt>
      <trkpt lat="58.98224998265505" lon="12.556328997015953">
        <ele>96.39</ele>
        <time>2025-02-03T19:21:08.955Z</time>
      </trkpt>
      <trkpt lat="58.98223891854286" lon="12.556111989542842">
        <ele>96.18</ele>
        <time>2025-02-03T19:21:23.209Z</time>
      </trkpt>
      <trkpt lat="58.98222894407809" lon="12.55589297041297">
        <ele>95.97</ele>
        <time>2025-02-03T19:21:37.464Z</time>
      </trkpt>
      <trkpt lat="58.98221695795655" lon="12.555669927969575">
        <ele>95.76</ele>
        <time>2025-02-03T19:21:51.721Z</time>
      </trkpt>
      <trkpt lat="58.98220497183502" lon="12.55544294603169">
        <ele>95.55</ele>
        <time>2025-02-03T19:22:05.980Z</time>
      </trkpt>
      <trkpt lat="58.98219399154186" lon="12.555211940780282">
        <ele>95.33</ele>
        <time>2025-02-03T19:22:20.241Z</time>
      </trkpt>
      <trkpt lat="58.98218099959195" lon="12.554975990206003">
        <ele>95.12</ele>
        <time>2025-02-03T19:22:34.504Z</time>
      </trkpt>
      <trkpt lat="58.982167923823" lon="12.55473299883306">
        <ele>94.91</ele>
        <time>2025-02-03T19:22:48.769Z</time>
      </trkpt>
      <trkpt lat="58.98215493187308" lon="12.554485984146595">
        <ele>94.7</ele>
        <time>2025-02-03T19:23:03.036Z</time>
      </trkpt>
      <trkpt lat="58.98214093409479" lon="12.554227989166975">
        <ele>94.48</ele>
        <time>2025-02-03T19:23:17.305Z</time>
      </trkpt>
      <trkpt lat="58.98212894797325" lon="12.553968988358974">
        <ele>94.29</ele>
        <time>2025-02-03T19:23:31.576Z</time>
      </trkpt>
      <trkpt lat="58.9821179676801" lon="12.553709987550974">
        <ele>94.11</ele>
        <time>2025-02-03T19:23:45.850Z</time>
      </trkpt>
      <trkpt lat="58.9821039699018" lon="12.553452998399734">
        <ele>93.93</ele>
        <time>2025-02-03T19:24:00.126Z</time>
      </trkpt>
      <trkpt lat="58.98208896629512" lon="12.553196931257844">
        <ele>93.75</ele>
        <time>2025-02-03T19:24:14.404Z</time>
      </trkpt>
      <trkpt lat="58.982072956860065" lon="12.552944971248507">
        <ele>93.6</ele>
        <time>2025-02-03T19:24:28.684Z</time>
      </trkpt>
      <trkpt lat="58.98205594159663" lon="12.552696950733662">
        <ele>93.44</ele>
        <time>2025-02-03T19:24:42.966Z</time>
      </trkpt>
      <trkpt lat="58.98203699849546" lon="12.552453959360719">
        <ele>93.29</ele>
        <time>2025-02-03T19:24:57.250Z</time>
      </trkpt>
      <trkpt lat="58.98201193660498" lon="12.552215997129679">
        <ele>93.14</ele>
        <time>2025-02-03T19:25:11.536Z</time>
      </trkpt>
      <trkpt lat="58.98197991773486" lon="12.55198298022151">
        <ele>92.98</ele>
        <time>2025-02-03T19:25:25.824Z</time>
      </trkpt>
      <trkpt lat="58.981942953541875" lon="12.551754992455244">
        <ele>92.83</ele>
        <time>2025-02-03T19:25:40.114Z</time>
      </trkpt>
      <trkpt lat="58.981900960206985" lon="12.55153396166861">
        <ele>92.68</ele>
        <time>2025-02-03T19:25:54.406Z</time>
      </trkpt>
      <trkpt lat="58.981854943558574" lon="12.55131796002388">
        <ele>92.54</ele>
        <time>2025-02-03T19:26:08.700Z</time>
      </trkpt>
      <trkpt lat="58.98180297575891" lon="12.551105981692672">
        <ele>92.4</ele>
        <time>2025-02-03T19:26:22.996Z</time>
      </trkpt>
      <trkpt lat="58.981746984645724" lon="12.550898948684335">
        <ele>92.26</ele>
        <time>2025-02-03T19:26:37.294Z</time>
      </trkpt>
      <trkpt lat="58.9816879760474" lon="12.55069493316114">
        <ele>92.13</ele>
        <time>2025-02-03T19:26:51.594Z</time>
      </trkpt>
      <trkpt lat="58.98162494413555" lon="12.550496952608228">
        <ele>92.01</ele>
        <time>2025-02-03T19:27:05.896Z</time>
      </trkpt>
      <trkpt lat="58.98155897855759" lon="12.550304923206568">
        <ele>91.88</ele>
        <time>2025-02-03T19:27:20.200Z</time>
      </trkpt>
      <trkpt lat="58.981488989666104" lon="12.550122952088714">
        <ele>91.76</ele>
        <time>2025-02-03T19:27:34.505Z</time>
      </trkpt>
      <trkpt lat="58.98141598328948" lon="12.549947937950492">
        <ele>91.64</ele>
        <time>2025-02-03T19:27:48.812Z</time>
      </trkpt>
      <trkpt lat="58.981338953599334" lon="12.549780970439315">
        <ele>91.52</ele>
        <time>2025-02-03T19:28:03.121Z</time>
      </trkpt>
      <trkpt lat="58.9812579844147" lon="12.54962196573615">
        <ele>91.41</ele>
        <time>2025-02-03T19:28:17.432Z</time>
      </trkpt>
      <trkpt lat="58.98117491975427" lon="12.54946899600327">
        <ele>91.31</ele>
        <time>2025-02-03T19:28:31.745Z</time>
      </trkpt>
      <trkpt lat="58.98108992725611" lon="12.549321977421641">
        <ele>91.21</ele>
        <time>2025-02-03T19:28:46.060Z</time>
      </trkpt>
      <trkpt lat="58.98100099526346" lon="12.549181999638677">
        <ele>91.12</ele>
        <time>2025-02-03T19:29:00.376Z</time>
      </trkpt>
      <trkpt lat="58.980908961966634" lon="12.549048978835344">
        <ele>91.04</ele>
        <time>2025-02-03T19:29:14.694Z</time>
      </trkpt>
      <trkpt lat="58.98081491701305" lon="12.548923920840025">
        <ele>90.96</ele>
        <time>2025-02-03T19:29:29.014Z</time>
      </trkpt>
      <trkpt lat="58.980718944221735" lon="12.54880296997726">
        <ele>90.89</ele>
        <time>2025-02-03T19:29:43.336Z</time>
      </trkpt>
      <trkpt lat="58.98061995394528" lon="12.548688976094127">
        <ele>90.82</ele>
        <time>2025-02-03T19:29:57.660Z</time>
      </trkpt>
      <trkpt lat="58.98051895201206" lon="12.548586968332529">
        <ele>90.76</ele>
        <time>2025-02-03T19:30:11.986Z</time>
      </trkpt>
      <trkpt lat="58.9804149325937" lon="12.548491917550564">
        <ele>90.69</ele>
        <time>2025-02-03T19:30:26.313Z</time>
      </trkpt>
      <trkpt lat="58.980309991165996" lon="12.548401979729533">
        <ele>90.64</ele>
        <time>2025-02-03T19:30:40.642Z</time>
      </trkpt>
      <trkpt lat="58.980203960090876" lon="12.548318998888135">
        <ele>90.59</ele>
        <time>2025-02-03T19:30:54.973Z</time>
      </trkpt>
      <trkpt lat="58.980096923187375" lon="12.548240963369608">
        <ele>90.54</ele>
        <time>2025-02-03T19:31:09.306Z</time>
      </trkpt>
      <trkpt lat="58.979988964274526" lon="12.548167956992984">
        <ele>90.5</ele>
        <time>2025-02-03T19:31:23.641Z</time>
      </trkpt>
      <trkpt lat="58.979881927371025" lon="12.54809696227312">
        <ele>90.47</ele>
        <time>2025-02-03T19:31:37.978Z</time>
      </trkpt>
      <trkpt lat="58.97977698594332" lon="12.548027979210019">
        <ele>90.43</ele>
        <time>2025-02-03T19:31:52.316Z</time>
      </trkpt>
      <trkpt lat="58.97967196069658" lon="12.547960923984647">
        <ele>90.4</ele>
        <time>2025-02-03T19:32:06.656Z</time>
      </trkpt>
      <trkpt lat="58.97956794127822" lon="12.547894958406687">
        <ele>90.37</ele>
        <time>2025-02-03T19:32:20.998Z</time>
      </trkpt>
      <trkpt lat="58.97946593351662" lon="12.547828992828727">
        <ele>90.34</ele>
        <time>2025-02-03T19:32:35.342Z</time>
      </trkpt>
      <trkpt lat="58.979364931583405" lon="12.547762943431735">
        <ele>90.31</ele>
        <time>2025-02-03T19:32:49.687Z</time>
      </trkpt>
      <trkpt lat="58.97926694713533" lon="12.547697983682156">
        <ele>90.29</ele>
        <time>2025-02-03T19:33:04.034Z</time>
      </trkpt>
      <trkpt lat="58.97916795685887" lon="12.547633945941925">
        <ele>90.27</ele>
        <time>2025-02-03T19:33:18.383Z</time>
      </trkpt>
      <trkpt lat="58.97907399572432" lon="12.547573931515217">
        <ele>90.25</ele>
        <time>2025-02-03T19:33:32.733Z</time>
      </trkpt>
      <trkpt lat="58.97898296825588" lon="12.54751492291689">
        <ele>90.23</ele>
        <time>2025-02-03T19:33:47.085Z</time>
      </trkpt>
      <trkpt lat="58.97889797575772" lon="12.547459937632084">
        <ele>90.22</ele>
        <time>2025-02-03T19:34:01.438Z</time>
      </trkpt>
      <trkpt lat="58.97881692275405" lon="12.54740796983242">
        <ele>90.2</ele>
        <time>2025-02-03T19:34:15.793Z</time>
      </trkpt>
      <trkpt lat="58.978740982711315" lon="12.547359941527247">
        <ele>90.19</ele>
        <time>2025-02-03T19:34:30.149Z</time>
      </trkpt>
      <trkpt lat="58.97866998799145" lon="12.547316942363977">
        <ele>90.17</ele>
        <time>2025-02-03T19:34:44.506Z</time>
      </trkpt>
      <trkpt lat="58.97860293276608" lon="12.54727696068585">
        <ele>90.16</ele>
        <time>2025-02-03T19:34:58.864Z</time>
      </trkpt>
      <trkpt lat="58.97853696718812" lon="12.547236979007721">
        <ele>90.15</ele>
        <time>2025-02-03T19:35:13.223Z</time>
      </trkpt>
      <trkpt lat="58.97847292944789" lon="12.547196997329593">
        <ele>90.14</ele>
        <time>2025-02-03T19:35:27.583Z</time>
      </trkpt>
      <trkpt lat="58.97840796969831" lon="12.547156931832433">
        <ele>90.13</ele>
        <time>2025-02-03T19:35:41.945Z</time>
      </trkpt>
      <trkpt lat="58.97834192030132" lon="12.547116950154305">
        <ele>90.13</ele>
        <time>2025-02-03T19:35:56.308Z</time>
      </trkpt>
      <trkpt lat="58.97827494889498" lon="12.547073950991035">
        <ele>90.13</ele>
        <time>2025-02-03T19:36:10.672Z</time>
      </trkpt>
      <trkpt lat="58.978205965831876" lon="12.547029945999384">
        <ele>90.13</ele>
        <time>2025-02-03T19:36:25.037Z</time>
      </trkpt>
      <trkpt lat="58.97813597694039" lon="12.546985941007733">
        <ele>90.13</ele>
        <time>2025-02-03T19:36:39.403Z</time>
      </trkpt>
      <trkpt lat="58.97806598804891" lon="12.546940930187702">
        <ele>90.13</ele>
        <time>2025-02-03T19:36:53.770Z</time>
      </trkpt>
      <trkpt lat="58.97799499332905" lon="12.546896925196052">
        <ele>90.13</ele>
        <time>2025-02-03T19:37:08.139Z</time>
      </trkpt>
      <trkpt lat="58.977924920618534" lon="12.546850992366672">
        <ele>90.14</ele>
        <time>2025-02-03T19:37:22.509Z</time>
      </trkpt>
      <trkpt lat="58.97785292007029" lon="12.546802964061499">
        <ele>90.14</ele>
        <time>2025-02-03T19:37:36.880Z</time>
      </trkpt>
      <trkpt lat="58.97778091952205" lon="12.546754935756326">
        <ele>90.15</ele>
        <time>2025-02-03T19:37:51.252Z</time>
      </trkpt>
      <trkpt lat="58.9777089189738" lon="12.546707997098565">
        <ele>90.17</ele>
        <time>2025-02-03T19:38:05.625Z</time>
      </trkpt>
      <trkpt lat="58.97763599641621" lon="12.546661980450153">
        <ele>90.18</ele>
        <time>2025-02-03T19:38:20.000Z</time>
      </trkpt>
      <trkpt lat="58.977558966726065" lon="12.546616969630122">
        <ele>90.19</ele>
        <time>2025-02-03T19:38:34.376Z</time>
      </trkpt>
      <trkpt lat="58.97748495452106" lon="12.546567935496569">
        <ele>90.21</ele>
        <time>2025-02-03T19:38:48.753Z</time>
      </trkpt>
      <trkpt lat="58.977411948144436" lon="12.546518985182047">
        <ele>90.22</ele>
        <time>2025-02-03T19:39:03.131Z</time>
      </trkpt>
      <trkpt lat="58.97734095342457" lon="12.546470956876874">
        <ele>90.24</ele>
        <time>2025-02-03T19:39:17.511Z</time>
      </trkpt>
      <trkpt lat="58.97726794704795" lon="12.54642192274332">
        <ele>90.26</ele>
        <time>2025-02-03T19:39:31.892Z</time>
      </trkpt>
      <trkpt lat="58.977192929014564" lon="12.54637498408556">
        <ele>90.28</ele>
        <time>2025-02-03T19:39:46.274Z</time>
      </trkpt>
      <trkpt lat="58.97711992263794" lon="12.546323938295245">
        <ele>90.3</ele>
        <time>2025-02-03T19:40:00.657Z</time>
      </trkpt>
      <trkpt lat="58.977047922089696" lon="12.54626995883882">
        <ele>90.32</ele>
        <time>2025-02-03T19:40:15.042Z</time>
      </trkpt>
      <trkpt lat="58.97697399370372" lon="12.546213967725635">
        <ele>90.35</ele>
        <time>2025-02-03T19:40:29.428Z</time>
      </trkpt>
      <trkpt lat="58.97690299898386" lon="12.546152947470546">
        <ele>90.38</ele>
        <time>2025-02-03T19:40:43.815Z</time>
      </trkpt>
      <trkpt lat="58.976828986778855" lon="12.546092933043838">
        <ele>90.4</ele>
        <time>2025-02-03T19:40:58.203Z</time>
      </trkpt>
      <trkpt lat="58.97675195708871" lon="12.54603493027389">
        <ele>90.43</ele>
        <time>2025-02-03T19:41:12.593Z</time>
      </trkpt>
      <trkpt lat="58.97667392157018" lon="12.545975921675563">
        <ele>90.45</ele>
        <time>2025-02-03T19:41:26.984Z</time>
      </trkpt>
      <trkpt lat="58.976594964042306" lon="12.545912973582745">
        <ele>90.48</ele>
        <time>2025-02-03T19:41:41.376Z</time>
      </trkpt>
      <trkpt lat="58.97651793435216" lon="12.545841978862882">
        <ele>90.5</ele>
        <time>2025-02-03T19:41:55.770Z</time>
      </trkpt>
      <trkpt lat="58.9764379709959" lon="12.545768972486258">
        <ele>90.52</ele>
        <time>2025-02-03T19:42:10.165Z</time>
      </trkpt>
      <trkpt lat="58.97636094130576" lon="12.545694960281253">
        <ele>90.54</ele>
        <time>2025-02-03T19:42:24.562Z</time>
      </trkpt>
      <trkpt lat="58.97627997212112" lon="12.545618936419487">
        <ele>90.55</ele>
        <time>2025-02-03T19:42:38.960Z</time>
      </trkpt>
      <trkpt lat="58.9761979971081" lon="12.54553897306323">
        <ele>90.57</ele>
        <time>2025-02-03T19:42:53.359Z</time>
      </trkpt>
      <trkpt lat="58.97611694410443" lon="12.545457920059562">
        <ele>90.58</ele>
        <time>2025-02-03T19:43:07.760Z</time>
      </trkpt>
      <trkpt lat="58.976034969091415" lon="12.545373933389783">
        <ele>90.58</ele>
        <time>2025-02-03T19:43:22.162Z</time>
      </trkpt>
      <trkpt lat="58.97595198825002" lon="12.545289946720004">
        <ele>90.59</ele>
        <time>2025-02-03T19:43:36.566Z</time>
      </trkpt>
      <trkpt lat="58.97587093524635" lon="12.545206965878606">
        <ele>90.61</ele>
        <time>2025-02-03T19:43:50.971Z</time>
      </trkpt>
      <trkpt lat="58.97578996606171" lon="12.545125996693969">
        <ele>90.63</ele>
        <time>2025-02-03T19:44:05.378Z</time>
      </trkpt>
      <trkpt lat="58.975710924714804" lon="12.5450449436903">
        <ele>90.64</ele>
        <time>2025-02-03T19:44:19.786Z</time>
      </trkpt>
      <trkpt lat="58.97563498467207" lon="12.544960957020521">
        <ele>90.67</ele>
        <time>2025-02-03T19:44:34.196Z</time>
      </trkpt>
      <trkpt lat="58.97555493749678" lon="12.544882921501994">
        <ele>90.7</ele>
        <time>2025-02-03T19:44:48.607Z</time>
      </trkpt>
      <trkpt lat="58.97547899745405" lon="12.544801952317357">
        <ele>90.72</ele>
        <time>2025-02-03T19:45:03.020Z</time>
      </trkpt>
      <trkpt lat="58.97539895027876" lon="12.544722994789481">
        <ele>90.75</ele>
        <time>2025-02-03T19:45:17.434Z</time>
      </trkpt>
      <trkpt lat="58.97531798109412" lon="12.544640935957432">
        <ele>90.79</ele>
        <time>2025-02-03T19:45:31.849Z</time>
      </trkpt>
      <trkpt lat="58.975239945575595" lon="12.544559966772795">
        <ele>90.83</ele>
        <time>2025-02-03T19:45:46.266Z</time>
      </trkpt>
      <trkpt lat="58.97516392171383" lon="12.544477991759777">
        <ele>90.87</ele>
        <time>2025-02-03T19:46:00.684Z</time>
      </trkpt>
      <trkpt lat="58.975086975842714" lon="12.544395932927728">
        <ele>90.9</ele>
        <time>2025-02-03T19:46:15.104Z</time>
      </trkpt>
      <trkpt lat="58.97501095198095" lon="12.544311946257949">
        <ele>90.93</ele>
        <time>2025-02-03T19:46:29.525Z</time>
      </trkpt>
      <trkpt lat="58.97493291646242" lon="12.544229971244931">
        <ele>90.97</ele>
        <time>2025-02-03T19:46:43.947Z</time>
      </trkpt>
      <trkpt lat="58.974854964762926" lon="12.544148918241262">
        <ele>90.99</ele>
        <time>2025-02-03T19:46:58.371Z</time>
      </trkpt>
      <trkpt lat="58.9747769292444" lon="12.544069960713387">
        <ele>91.01</ele>
        <time>2025-02-03T19:47:12.796Z</time>
      </trkpt>
      <trkpt lat="58.974698977544904" lon="12.54399393685162">
        <ele>91.04</ele>
        <time>2025-02-03T19:47:27.223Z</time>
      </trkpt>
      <trkpt lat="58.974618930369616" lon="12.543916990980506">
        <ele>91.05</ele>
        <time>2025-02-03T19:47:41.651Z</time>
      </trkpt>
      <trkpt lat="58.97453997284174" lon="12.543836943805218">
        <ele>91.07</ele>
        <time>2025-02-03T19:47:56.081Z</time>
      </trkpt>
      <trkpt lat="58.97445891983807" lon="12.543756980448961">
        <ele>91.09</ele>
        <time>2025-02-03T19:48:10.512Z</time>
      </trkpt>
      <trkpt lat="58.97437694482505" lon="12.543673999607563">
        <ele>91.1</ele>
        <time>2025-02-03T19:48:24.945Z</time>
      </trkpt>
      <trkpt lat="58.974293963983655" lon="12.543588923290372">
        <ele>91.12</ele>
        <time>2025-02-03T19:48:39.379Z</time>
      </trkpt>
      <trkpt lat="58.97421098314226" lon="12.543503930792212">
        <ele>91.15</ele>
        <time>2025-02-03T19:48:53.815Z</time>
      </trkpt>
      <trkpt lat="58.97413093596697" lon="12.543419944122434">
        <ele>91.18</ele>
        <time>2025-02-03T19:49:08.252Z</time>
      </trkpt>
      <trkpt lat="58.97405097261071" lon="12.543334951624274">
        <ele>91.21</ele>
        <time>2025-02-03T19:49:22.690Z</time>
      </trkpt>
      <trkpt lat="58.973968997597694" lon="12.543253982439637">
        <ele>91.24</ele>
        <time>2025-02-03T19:49:37.130Z</time>
      </trkpt>
      <trkpt lat="58.973887944594026" lon="12.54317594692111">
        <ele>91.27</ele>
        <time>2025-02-03T19:49:51.571Z</time>
      </trkpt>
      <trkpt lat="58.97380395792425" lon="12.543097995221615">
        <ele>91.3</ele>
        <time>2025-02-03T19:50:06.014Z</time>
      </trkpt>
      <trkpt lat="58.97372198291123" lon="12.543018953874707">
        <ele>91.32</ele>
        <time>2025-02-03T19:50:20.458Z</time>
      </trkpt>
      <trkpt lat="58.97364193573594" lon="12.54293798469007">
        <ele>91.34</ele>
        <time>2025-02-03T19:50:34.904Z</time>
      </trkpt>
      <trkpt lat="58.973561972379684" lon="12.542860954999924">
        <ele>91.37</ele>
        <time>2025-02-03T19:50:49.351Z</time>
      </trkpt>
      <trkpt lat="58.97348293103278" lon="12.542783925309777">
        <ele>91.39</ele>
        <time>2025-02-03T19:51:03.800Z</time>
      </trkpt>
      <trkpt lat="58.9734039735049" lon="12.542704967781901">
        <ele>91.4</ele>
        <time>2025-02-03T19:51:18.250Z</time>
      </trkpt>
      <trkpt lat="58.97332292050123" lon="12.542623998597264">
        <ele>91.42</ele>
        <time>2025-02-03T19:51:32.702Z</time>
      </trkpt>
      <trkpt lat="58.97324496880174" lon="12.542536994442344">
        <ele>91.43</ele>
        <time>2025-02-03T19:51:47.155Z</time>
      </trkpt>
      <trkpt lat="58.97316894493997" lon="12.542447978630662">
        <ele>91.45</ele>
        <time>2025-02-03T19:52:01.609Z</time>
      </trkpt>
      <trkpt lat="58.973092921078205" lon="12.542355945333838">
        <ele>91.46</ele>
        <time>2025-02-03T19:52:16.065Z</time>
      </trkpt>
      <trkpt lat="58.97301899269223" lon="12.542260978370905">
        <ele>91.48</ele>
        <time>2025-02-03T19:52:30.522Z</time>
      </trkpt>
      <trkpt lat="58.97294699214399" lon="12.54216592758894">
        <ele>91.5</ele>
        <time>2025-02-03T19:52:44.981Z</time>
      </trkpt>
      <trkpt lat="58.972876919433475" lon="12.542067943140864">
        <ele>91.52</ele>
        <time>2025-02-03T19:52:59.441Z</time>
      </trkpt>
      <trkpt lat="58.97280894219875" lon="12.541966941207647">
        <ele>91.53</ele>
        <time>2025-02-03T19:53:13.902Z</time>
      </trkpt>
      <trkpt lat="58.97274096496403" lon="12.541862921789289">
        <ele>91.55</ele>
        <time>2025-02-03T19:53:28.365Z</time>
      </trkpt>
      <trkpt lat="58.97267399355769" lon="12.541753957048059">
        <ele>91.57</ele>
        <time>2025-02-03T19:53:42.829Z</time>
      </trkpt>
      <trkpt lat="58.9726079441607" lon="12.541641974821687">
        <ele>91.58</ele>
        <time>2025-02-03T19:53:57.295Z</time>
      </trkpt>
      <trkpt lat="58.97254298441112" lon="12.541528986766934">
        <ele>91.6</ele>
        <time>2025-02-03T19:54:11.762Z</time>
      </trkpt>
      <trkpt lat="58.97248196415603" lon="12.54141197539866">
        <ele>91.61</ele>
        <time>2025-02-03T19:54:26.230Z</time>
      </trkpt>
      <trkpt lat="58.97241893224418" lon="12.541289934888482">
        <ele>91.64</ele>
        <time>2025-02-03T19:54:40.700Z</time>
      </trkpt>
      <trkpt lat="58.97235891781747" lon="12.541161943227053">
        <ele>91.67</ele>
        <time>2025-02-03T19:54:55.171Z</time>
      </trkpt>
      <trkpt lat="58.97229999303818" lon="12.54102892242372">
        <ele>91.69</ele>
        <time>2025-02-03T19:55:09.644Z</time>
      </trkpt>
      <trkpt lat="58.97224199026823" lon="12.540893973782659">
        <ele>91.72</ele>
        <time>2025-02-03T19:55:24.118Z</time>
      </trkpt>
      <trkpt lat="58.97218692116439" lon="12.540756929665804">
        <ele>91.74</ele>
        <time>2025-02-03T19:55:38.594Z</time>
      </trkpt>
      <trkpt lat="58.97213294170797" lon="12.540613934397697">
        <ele>91.76</ele>
        <time>2025-02-03T19:55:53.071Z</time>
      </trkpt>
      <trkpt lat="58.97207795642316" lon="12.540463982149959">
        <ele>91.79</ele>
        <time>2025-02-03T19:56:07.550Z</time>
      </trkpt>
      <trkpt lat="58.97202397696674" lon="12.540310928598046">
        <ele>91.81</ele>
        <time>2025-02-03T19:56:22.030Z</time>
      </trkpt>
      <trkpt lat="58.971972931176424" lon="12.540151923894882">
        <ele>91.84</ele>
        <time>2025-02-03T19:56:36.512Z</time>
      </trkpt>
      <trkpt lat="58.97192297503352" lon="12.539987973868847">
        <ele>91.85</ele>
        <time>2025-02-03T19:56:50.995Z</time>
      </trkpt>
      <trkpt lat="58.97187695838511" lon="12.539819916710258">
        <ele>91.87</ele>
        <time>2025-02-03T19:57:05.480Z</time>
      </trkpt>
      <trkpt lat="58.9718309417367" lon="12.5396519433707">
        <ele>91.9</ele>
        <time>2025-02-03T19:57:19.966Z</time>
      </trkpt>
      <trkpt lat="58.97178693674505" lon="12.539480952546">
        <ele>91.93</ele>
        <time>2025-02-03T19:57:34.454Z</time>
      </trkpt>
      <trkpt lat="58.97174594923854" lon="12.53930895589292">
        <ele>91.96</ele>
        <time>2025-02-03T19:57:48.944Z</time>
      </trkpt>
      <trkpt lat="58.97170697338879" lon="12.539133941754699">
        <ele>92.0</ele>
        <time>2025-02-03T19:58:03.435Z</time>
      </trkpt>
      <trkpt lat="58.97167093120515" lon="12.538958927616477">
        <ele>92.03</ele>
        <time>2025-02-03T19:58:17.928Z</time>
      </trkpt>
      <trkpt lat="58.97163597866893" lon="12.538784919306636">
        <ele>92.08</ele>
        <time>2025-02-03T19:58:32.422Z</time>
      </trkpt>
      <trkpt lat="58.97160295397043" lon="12.538612922653556">
        <ele>92.12</ele>
        <time>2025-02-03T19:58:46.918Z</time>
      </trkpt>
      <trkpt lat="58.971568923443556" lon="12.538445955142379">
        <ele>92.16</ele>
        <time>2025-02-03T19:59:01.415Z</time>
      </trkpt>
      <trkpt lat="58.97153698839247" lon="12.538282927125692">
        <ele>92.21</ele>
        <time>2025-02-03T19:59:15.914Z</time>
      </trkpt>
      <trkpt lat="58.97150496952236" lon="12.538122916594148">
        <ele>92.26</ele>
        <time>2025-02-03T19:59:30.414Z</time>
      </trkpt>
      <trkpt lat="58.97147395648062" lon="12.537966929376125">
        <ele>92.3</ele>
        <time>2025-02-03T19:59:44.916Z</time>
      </trkpt>
      <trkpt lat="58.97144495509565" lon="12.537816977128386">
        <ele>92.35</ele>
        <time>2025-02-03T19:59:59.419Z</time>
      </trkpt>
      <trkpt lat="58.971416959539056" lon="12.5376729760319">
        <ele>92.4</ele>
        <time>2025-02-03T20:00:13.923Z</time>
      </trkpt>
      <trkpt lat="58.97138996981084" lon="12.537531992420554">
        <ele>92.45</ele>
        <time>2025-02-03T20:00:28.428Z</time>
      </trkpt>
      <trkpt lat="58.97136298008263" lon="12.53739595413208">
        <ele>92.51</ele>
        <time>2025-02-03T20:00:42.935Z</time>
      </trkpt>
      <trkpt lat="58.97133892402053" lon="12.537262933328748">
        <ele>92.56</ele>
        <time>2025-02-03T20:00:57.443Z</time>
      </trkpt>
      <trkpt lat="58.97131696343422" lon="12.537130918353796">
        <ele>92.62</ele>
        <time>2025-02-03T20:01:11.952Z</time>
      </trkpt>
      <trkpt lat="58.97129491902888" lon="12.537005944177508">
        <ele>92.68</ele>
        <time>2025-02-03T20:01:26.462Z</time>
      </trkpt>
      <trkpt lat="58.97127195261419" lon="12.536884993314743">
        <ele>92.74</ele>
        <time>2025-02-03T20:01:40.973Z</time>
      </trkpt>
      <trkpt lat="58.9712489861995" lon="12.53676999360323">
        <ele>92.8</ele>
        <time>2025-02-03T20:01:55.485Z</time>
      </trkpt>
      <trkpt lat="58.971225935965776" lon="12.536655999720097">
        <ele>92.87</ele>
        <time>2025-02-03T20:02:09.998Z</time>
      </trkpt>
      <trkpt lat="58.97120397537947" lon="12.536543933674693">
        <ele>92.94</ele>
        <time>2025-02-03T20:02:24.512Z</time>
      </trkpt>
      <trkpt lat="58.971182936802506" lon="12.536432957276702">
        <ele>93.01</ele>
        <time>2025-02-03T20:02:39.027Z</time>
      </trkpt>
      <trkpt lat="58.97116198204458" lon="12.536324998363853">
        <ele>93.07</ele>
        <time>2025-02-03T20:02:53.543Z</time>
      </trkpt>
      <trkpt lat="58.97114094346762" lon="12.536216955631971">
        <ele>93.14</ele>
        <time>2025-02-03T20:03:08.060Z</time>
      </trkpt>
      <trkpt lat="58.97111998870969" lon="12.53610991872847">
        <ele>93.2</ele>
        <time>2025-02-03T20:03:22.578Z</time>
      </trkpt>
      <trkpt lat="58.97109995596111" lon="12.53600095398724">
        <ele>93.27</ele>
        <time>2025-02-03T20:03:37.097Z</time>
      </trkpt>
      <trkpt lat="58.97108092904091" lon="12.535892995074391">
        <ele>93.34</ele>
        <time>2025-02-03T20:03:51.617Z</time>
      </trkpt>
      <trkpt lat="58.97106299176812" lon="12.53578394651413">
        <ele>93.42</ele>
        <time>2025-02-03T20:04:06.138Z</time>
      </trkpt>
      <trkpt lat="58.97104396484792" lon="12.53567699342966">
        <ele>93.49</ele>
        <time>2025-02-03T20:04:20.660Z</time>
      </trkpt>
      <trkpt lat="58.97102393209934" lon="12.53556895069778">
        <ele>93.57</ele>
        <time>2025-02-03T20:04:35.183Z</time>
      </trkpt>
      <trkpt lat="58.97100297734141" lon="12.53546199761331">
        <ele>93.64</ele>
        <time>2025-02-03T20:04:49.707Z</time>
      </trkpt>
      <trkpt lat="58.97098093293607" lon="12.535352949053049">
        <ele>93.71</ele>
        <time>2025-02-03T20:05:04.232Z</time>
      </trkpt>
      <trkpt lat="58.97095997817814" lon="12.535241972655058">
        <ele>93.78</ele>
        <time>2025-02-03T20:05:18.758Z</time>
      </trkpt>
      <trkpt lat="58.97093893960118" lon="12.535127978771925">
        <ele>93.85</ele>
        <time>2025-02-03T20:05:33.285Z</time>
      </trkpt>
      <trkpt lat="58.970917984843254" lon="12.535013984888792">
        <ele>93.92</ele>
        <time>2025-02-03T20:05:47.813Z</time>
      </trkpt>
      <trkpt lat="58.97089694626629" lon="12.534898985177279">
        <ele>94.0</ele>
        <time>2025-02-03T20:06:02.342Z</time>
      </trkpt>
      <trkpt lat="58.970876997336745" lon="12.534780967980623">
        <ele>94.07</ele>
        <time>2025-02-03T20:06:16.872Z</time>
      </trkpt>
      <trkpt lat="58.970855958759785" lon="12.534659933298826">
        <ele>94.14</ele>
        <time>2025-02-03T20:06:31.403Z</time>
      </trkpt>
      <trkpt lat="58.970832992345095" lon="12.534533953294158">
        <ele>94.21</ele>
        <time>2025-02-03T20:06:45.935Z</time>
      </trkpt>
      <trkpt lat="58.97080994211137" lon="12.534404955804348">
        <ele>94.28</ele>
        <time>2025-02-03T20:07:00.468Z</time>
      </trkpt>
      <trkpt lat="58.97078496403992" lon="12.534272940829396">
        <ele>94.35</ele>
        <time>2025-02-03T20:07:15.002Z</time>
      </trkpt>
      <trkpt lat="58.97075998596847" lon="12.534139920026064">
        <ele>94.41</ele>
        <time>2025-02-03T20:07:29.537Z</time>
      </trkpt>
      <trkpt lat="58.97073299624026" lon="12.53400094807148">
        <ele>94.48</ele>
        <time>2025-02-03T20:07:44.073Z</time>
      </trkpt>
      <trkpt lat="58.970705922693014" lon="12.533857952803373">
        <ele>94.54</ele>
        <time>2025-02-03T20:07:58.611Z</time>
      </trkpt>
      <trkpt lat="58.97067792713642" lon="12.533710934221745">
        <ele>94.61</ele>
        <time>2025-02-03T20:08:13.150Z</time>
      </trkpt>
      <trkpt lat="58.97064892575145" lon="12.533561987802386">
        <ele>94.68</ele>
        <time>2025-02-03T20:08:27.690Z</time>
      </trkpt>
      <trkpt lat="58.970618918538094" lon="12.533404994755983">
        <ele>94.74</ele>
        <time>2025-02-03T20:08:42.232Z</time>
      </trkpt>
      <trkpt lat="58.97058597765863" lon="12.533241966739297">
        <ele>94.8</ele>
        <time>2025-02-03T20:08:56.775Z</time>
      </trkpt>
      <trkpt lat="58.97055094130337" lon="12.53307399339974">
        <ele>94.88</ele>
        <time>2025-02-03T20:09:11.320Z</time>
      </trkpt>
      <trkpt lat="58.970513977110386" lon="12.532899985089898">
        <ele>94.94</ele>
        <time>2025-02-03T20:09:25.866Z</time>
      </trkpt>
      <trkpt lat="58.97047298960388" lon="12.532720947638154">
        <ele>95.01</ele>
        <time>2025-02-03T20:09:40.414Z</time>
      </trkpt>
      <trkpt lat="58.97042999044061" lon="12.53253998234868">
        <ele>95.07</ele>
        <time>2025-02-03T20:09:54.964Z</time>
      </trkpt>
      <trkpt lat="58.970383973792195" lon="12.532353987917304">
        <ele>95.14</ele>
        <time>2025-02-03T20:10:09.515Z</time>
      </trkpt>
      <trkpt lat="58.97033393383026" lon="12.532165981829166">
        <ele>95.21</ele>
        <time>2025-02-03T20:10:24.068Z</time>
      </trkpt>
      <trkpt lat="58.97028096020222" lon="12.53197998739779">
        <ele>95.29</ele>
        <time>2025-02-03T20:10:38.623Z</time>
      </trkpt>
      <trkpt lat="58.97022496908903" lon="12.531796926632524">
        <ele>95.36</ele>
        <time>2025-02-03T20:10:53.179Z</time>
      </trkpt>
      <trkpt lat="58.970168977975845" lon="12.53161596134305">
        <ele>95.44</ele>
        <time>2025-02-03T20:11:07.737Z</time>
      </trkpt>
      <trkpt lat="58.97011298686266" lon="12.531440947204828">
        <ele>95.52</ele>
        <time>2025-02-03T20:11:22.297Z</time>
      </trkpt>
      <trkpt lat="58.97005598992109" lon="12.53127096220851">
        <ele>95.6</ele>
        <time>2025-02-03T20:11:36.859Z</time>
      </trkpt>
      <trkpt lat="58.97000192664564" lon="12.531107934191823">
        <ele>95.69</ele>
        <time>2025-02-03T20:11:51.422Z</time>
      </trkpt>
      <trkpt lat="58.96994895301759" lon="12.530952952802181">
        <ele>95.77</ele>
        <time>2025-02-03T20:12:05.987Z</time>
      </trkpt>
      <trkpt lat="58.96989799104631" lon="12.530804928392172">
        <ele>95.85</ele>
        <time>2025-02-03T20:12:20.553Z</time>
      </trkpt>
      <trkpt lat="58.969848956912756" lon="12.530660927295685">
        <ele>95.92</ele>
        <time>2025-02-03T20:12:35.121Z</time>
      </trkpt>
      <trkpt lat="58.9697999227792" lon="12.53051994368434">
        <ele>95.99</ele>
        <time>2025-02-03T20:12:49.690Z</time>
      </trkpt>
      <trkpt lat="58.9697499666363" lon="12.530380971729755">
        <ele>96.06</ele>
        <time>2025-02-03T20:13:04.260Z</time>
      </trkpt>
      <trkpt lat="58.96970394998789" lon="12.530248956754804">
        <ele>96.13</ele>
        <time>2025-02-03T20:13:18.832Z</time>
      </trkpt>
      <trkpt lat="58.969655921682715" lon="12.530115935951471">
        <ele>96.19</ele>
        <time>2025-02-03T20:13:33.405Z</time>
      </trkpt>
      <trkpt lat="58.969610994681716" lon="12.52998593263328">
        <ele>96.26</ele>
        <time>2025-02-03T20:13:47.979Z</time>
      </trkpt>
      <trkpt lat="58.969565983861685" lon="12.52985693514347">
        <ele>96.32</ele>
        <time>2025-02-03T20:14:02.555Z</time>
      </trkpt>
      <trkpt lat="58.96951896138489" lon="12.52972693182528">
        <ele>96.38</ele>
        <time>2025-02-03T20:14:17.132Z</time>
      </trkpt>
      <trkpt lat="58.96947294473648" lon="12.529595922678709">
        <ele>96.44</ele>
        <time>2025-02-03T20:14:31.710Z</time>
      </trkpt>
      <trkpt lat="58.96942491643131" lon="12.529462985694408">
        <ele>96.51</ele>
        <time>2025-02-03T20:14:46.290Z</time>
      </trkpt>
      <trkpt lat="58.96937697194517" lon="12.529327953234315">
        <ele>96.57</ele>
        <time>2025-02-03T20:15:00.871Z</time>
      </trkpt>
      <trkpt lat="58.96932693198323" lon="12.529190992936492">
        <ele>96.62</ele>
        <time>2025-02-03T20:15:15.453Z</time>
      </trkpt>
      <trkpt lat="58.96927496418357" lon="12.529050931334496">
        <ele>96.68</ele>
        <time>2025-02-03T20:15:30.037Z</time>
      </trkpt>
      <trkpt lat="58.969223918393254" lon="12.528906930238008">
        <ele>96.74</ele>
        <time>2025-02-03T20:15:44.622Z</time>
      </trkpt>
      <trkpt lat="58.96917195059359" lon="12.52876091748476">
        <ele>96.8</ele>
        <time>2025-02-03T20:15:59.209Z</time>
      </trkpt>
      <trkpt lat="58.969117971137166" lon="12.528613982722163">
        <ele>96.85</ele>
        <time>2025-02-03T20:16:13.797Z</time>
      </trkpt>
      <trkpt lat="58.96906499750912" lon="12.528462940827012">
        <ele>96.9</ele>
        <time>2025-02-03T20:16:28.387Z</time>
      </trkpt>
      <trkpt lat="58.969010934233665" lon="12.528311982750893">
        <ele>96.95</ele>
        <time>2025-02-03T20:16:42.978Z</time>
      </trkpt>
      <trkpt lat="58.96895594894886" lon="12.528160940855742">
        <ele>97.0</ele>
        <time>2025-02-03T20:16:57.571Z</time>
      </trkpt>
      <trkpt lat="58.968898952007294" lon="12.5280059594661">
        <ele>97.05</ele>
        <time>2025-02-03T20:17:12.165Z</time>
      </trkpt>
      <trkpt lat="58.96884195506573" lon="12.527845948934555">
        <ele>97.1</ele>
        <time>2025-02-03T20:17:26.761Z</time>
      </trkpt>
      <trkpt lat="58.96878395229578" lon="12.52768199890852">
        <ele>97.15</ele>
        <time>2025-02-03T20:17:41.359Z</time>
      </trkpt>
      <trkpt lat="58.96872192621231" lon="12.527516959235072">
        <ele>97.2</ele>
        <time>2025-02-03T20:17:55.958Z</time>
      </trkpt>
      <trkpt lat="58.968660989776254" lon="12.527349991723895">
        <ele>97.25</ele>
        <time>2025-02-03T20:18:10.559Z</time>
      </trkpt>
      <trkpt lat="58.96860298700631" lon="12.527179922908545">
        <ele>97.31</ele>
        <time>2025-02-03T20:18:25.162Z</time>
      </trkpt>
      <trkpt lat="58.96854498423636" lon="12.527011949568987">
        <ele>97.36</ele>
        <time>2025-02-03T20:18:39.766Z</time>
      </trkpt>
      <trkpt lat="58.96848698146641" lon="12.5268489215523">
        <ele>97.41</ele>
        <time>2025-02-03T20:18:54.372Z</time>
      </trkpt>
      <trkpt lat="58.968426967039704" lon="12.526687989011407">
        <ele>97.46</ele>
        <time>2025-02-03T20:19:08.980Z</time>
      </trkpt>
      <trkpt lat="58.9683719817549" lon="12.526530995965004">
        <ele>97.52</ele>
        <time>2025-02-03T20:19:23.589Z</time>
      </trkpt>
      <trkpt lat="58.968316996470094" lon="12.526376936584711">
        <ele>97.57</ele>
        <time>2025-02-03T20:19:38.200Z</time>
      </trkpt>
      <trkpt lat="58.9682649448514" lon="12.526228995993733">
        <ele>97.61</ele>
        <time>2025-02-03T20:19:52.812Z</time>
      </trkpt>
      <trkpt lat="58.968212977051735" lon="12.526085916906595">
        <ele>97.66</ele>
        <time>2025-02-03T20:20:07.426Z</time>
      </trkpt>
      <trkpt lat="58.9681629370898" lon="12.525947950780392">
        <ele>97.7</ele>
        <time>2025-02-03T20:20:22.041Z</time>
      </trkpt>
      <trkpt lat="58.96811398677528" lon="12.52581593580544">
        <ele>97.74</ele>
        <time>2025-02-03T20:20:36.658Z</time>
      </trkpt>
      <trkpt lat="58.96806897595525" lon="12.525689955800772">
        <ele>97.78</ele>
        <time>2025-02-03T20:20:51.276Z</time>
      </trkpt>
      <trkpt lat="58.9680249709636" lon="12.525566993281245">
        <ele>97.82</ele>
        <time>2025-02-03T20:21:05.895Z</time>
      </trkpt>
      <trkpt lat="58.96798197180033" lon="12.52544797025621">
        <ele>97.85</ele>
        <time>2025-02-03T20:21:20.515Z</time>
      </trkpt>
      <trkpt lat="58.96794098429382" lon="12.525333976373076">
        <ele>97.88</ele>
        <time>2025-02-03T20:21:35.136Z</time>
      </trkpt>
      <trkpt lat="58.96790192462504" lon="12.525222999975085">
        <ele>97.9</ele>
        <time>2025-02-03T20:21:49.758Z</time>
      </trkpt>
      <trkpt lat="58.96786496043205" lon="12.525117974728346">
        <ele>97.92</ele>
        <time>2025-02-03T20:22:04.382Z</time>
      </trkpt>
      <trkpt lat="58.967829924076796" lon="12.525015966966748">
        <ele>97.93</ele>
        <time>2025-02-03T20:22:19.007Z</time>
      </trkpt>
      <trkpt lat="58.96779798902571" lon="12.524918988347054">
        <ele>97.94</ele>
        <time>2025-02-03T20:22:33.633Z</time>
      </trkpt>
      <trkpt lat="58.96776697598398" lon="12.524823937565088">
        <ele>97.95</ele>
        <time>2025-02-03T20:22:48.259Z</time>
      </trkpt>
      <trkpt lat="58.9677329454571" lon="12.524730982258916">
        <ele>97.96</ele>
        <time>2025-02-03T20:23:02.886Z</time>
      </trkpt>
      <trkpt lat="58.967699920758605" lon="12.524640960618854">
        <ele>97.96</ele>
        <time>2025-02-03T20:23:17.514Z</time>
      </trkpt>
      <trkpt lat="58.96766697987914" lon="12.52454892732203">
        <ele>97.95</ele>
        <time>2025-02-03T20:23:32.143Z</time>
      </trkpt>
      <trkpt lat="58.967633955180645" lon="12.524456977844238">
        <ele>97.95</ele>
        <time>2025-02-03T20:23:46.773Z</time>
      </trkpt>
      <trkpt lat="58.96760093048215" lon="12.524364944547415">
        <ele>97.94</ele>
        <time>2025-02-03T20:24:01.404Z</time>
      </trkpt>
      <trkpt lat="58.967566983774304" lon="12.524273917078972">
        <ele>97.93</ele>
        <time>2025-02-03T20:24:16.036Z</time>
      </trkpt>
      <trkpt lat="58.96753194741905" lon="12.5241809617728">
        <ele>97.91</ele>
        <time>2025-02-03T20:24:30.669Z</time>
      </trkpt>
      <trkpt lat="58.96749791689217" lon="12.524083983153105">
        <ele>97.9</ele>
        <time>2025-02-03T20:24:45.303Z</time>
      </trkpt>
      <trkpt lat="58.967463970184326" lon="12.523983987048268">
        <ele>97.88</ele>
        <time>2025-02-03T20:24:59.938Z</time>
      </trkpt>
      <trkpt lat="58.96742692217231" lon="12.523883990943432">
        <ele>97.87</ele>
        <time>2025-02-03T20:25:14.574Z</time>
      </trkpt>
      <trkpt lat="58.9673909638077" lon="12.523781983181834">
        <ele>97.84</ele>
        <time>2025-02-03T20:25:29.211Z</time>
      </trkpt>
      <trkpt lat="58.967354921624064" lon="12.523680981248617">
        <ele>97.82</ele>
        <time>2025-02-03T20:25:43.849Z</time>
      </trkpt>
      <trkpt lat="58.9673169516027" lon="12.5235799793154">
        <ele>97.79</ele>
        <time>2025-02-03T20:25:58.488Z</time>
      </trkpt>
      <trkpt lat="58.96727797575295" lon="12.52347495406866">
        <ele>97.77</ele>
        <time>2025-02-03T20:26:13.128Z</time>
      </trkpt>
      <trkpt lat="58.96723992191255" lon="12.52336791716516">
        <ele>97.74</ele>
        <time>2025-02-03T20:26:27.769Z</time>
      </trkpt>
      <trkpt lat="58.967201951891184" lon="12.523255934938788">
        <ele>97.7</ele>
        <time>2025-02-03T20:26:42.411Z</time>
      </trkpt>
      <trkpt lat="58.967162976041436" lon="12.523141941055655">
        <ele>97.67</ele>
        <time>2025-02-03T20:26:57.054Z</time>
      </trkpt>
      <trkpt lat="58.96712391637266" lon="12.523028953000903">
        <ele>97.63</ele>
        <time>2025-02-03T20:27:11.699Z</time>
      </trkpt>
      <trkpt lat="58.96708393469453" lon="12.522909929975867">
        <ele>97.59</ele>
        <time>2025-02-03T20:27:26.345Z</time>
      </trkpt>
      <trkpt lat="58.96704294718802" lon="12.52278495579958">
        <ele>97.54</ele>
        <time>2025-02-03T20:27:40.992Z</time>
      </trkpt>
      <trkpt lat="58.96700296550989" lon="12.522650929167867">
        <ele>97.51</ele>
        <time>2025-02-03T20:27:55.640Z</time>
      </trkpt>
      <trkpt lat="58.96696298383176" lon="12.522512963041663">
        <ele>97.46</ele>
        <time>2025-02-03T20:28:10.290Z</time>
      </trkpt>
      <trkpt lat="58.966920990496874" lon="12.522367956116796">
        <ele>97.42</ele>
        <time>2025-02-03T20:28:24.941Z</time>
      </trkpt>
      <trkpt lat="58.966877991333604" lon="12.522212974727154">
        <ele>97.38</ele>
        <time>2025-02-03T20:28:39.593Z</time>
      </trkpt>
      <trkpt lat="58.966835997998714" lon="12.522050952538848">
        <ele>97.33</ele>
        <time>2025-02-03T20:28:54.247Z</time>
      </trkpt>
      <trkpt lat="58.96679392084479" lon="12.521878955885768">
        <ele>97.27</ele>
        <time>2025-02-03T20:29:08.902Z</time>
      </trkpt>
      <trkpt lat="58.966753939166665" lon="12.521696984767914">
        <ele>97.21</ele>
        <time>2025-02-03T20:29:23.559Z</time>
      </trkpt>
      <trkpt lat="58.96671395748854" lon="12.521504955366254">
        <ele>97.15</ele>
        <time>2025-02-03T20:29:38.218Z</time>
      </trkpt>
      <trkpt lat="58.96667498163879" lon="12.5213039573282">
        <ele>97.09</ele>
        <time>2025-02-03T20:29:52.879Z</time>
      </trkpt>
      <trkpt lat="58.96663499996066" lon="12.521091978996992">
        <ele>97.03</ele>
        <time>2025-02-03T20:30:07.541Z</time>
      </trkpt>
      <trkpt lat="58.96659795194864" lon="12.520870948210359">
        <ele>96.96</ele>
        <time>2025-02-03T20:30:22.205Z</time>
      </trkpt>
      <trkpt lat="58.96656299941242" lon="12.520645977929235">
        <ele>96.91</ele>
        <time>2025-02-03T20:30:36.871Z</time>
      </trkpt>
      <trkpt lat="58.9665309805423" lon="12.520412961021066">
        <ele>96.86</ele>
        <time>2025-02-03T20:30:51.539Z</time>
      </trkpt>
      <trkpt lat="58.96650197915733" lon="12.520177932456136">
        <ele>96.8</ele>
        <time>2025-02-03T20:31:06.209Z</time>
      </trkpt>
      <trkpt lat="58.9664759952575" lon="12.519934941083193">
        <ele>96.75</ele>
        <time>2025-02-03T20:31:20.881Z</time>
      </trkpt>
      <trkpt lat="58.966452945023775" lon="12.519688932225108">
        <ele>96.69</ele>
        <time>2025-02-03T20:31:35.555Z</time>
      </trkpt>
      <trkpt lat="58.966429978609085" lon="12.519440995529294">
        <ele>96.63</ele>
        <time>2025-02-03T20:31:50.232Z</time>
      </trkpt>
      <trkpt lat="58.966407934203744" lon="12.519192975014448">
        <ele>96.58</ele>
        <time>2025-02-03T20:32:04.911Z</time>
      </trkpt>
      <trkpt lat="58.966387985274196" lon="12.518946966156363">
        <ele>96.51</ele>
        <time>2025-02-03T20:32:19.592Z</time>
      </trkpt>
      <trkpt lat="58.966368958353996" lon="12.51870196312666">
        <ele>96.45</ele>
        <time>2025-02-03T20:32:34.275Z</time>
      </trkpt>
      <trkpt lat="58.9663499314338" lon="12.518462995067239">
        <ele>96.4</ele>
        <time>2025-02-03T20:32:48.960Z</time>
      </trkpt>
      <trkpt lat="58.96632998250425" lon="12.518231989815831">
        <ele>96.35</ele>
        <time>2025-02-03T20:33:03.647Z</time>
      </trkpt>
      <trkpt lat="58.96630894392729" lon="12.518004924058914">
        <ele>96.29</ele>
        <time>2025-02-03T20:33:18.336Z</time>
      </trkpt>
      <trkpt lat="58.96628899499774" lon="12.51778095960617">
        <ele>96.24</ele>
        <time>2025-02-03T20:33:33.026Z</time>
      </trkpt>
      <trkpt lat="58.96627097390592" lon="12.517557917162776">
        <ele>96.2</ele>
        <time>2025-02-03T20:33:47.718Z</time>
      </trkpt>
      <trkpt lat="58.96625496447086" lon="12.517339987680316">
        <ele>96.15</ele>
        <time>2025-02-03T20:34:02.412Z</time>
      </trkpt>
      <trkpt lat="58.96624096669257" lon="12.517124991863966">
        <ele>96.11</ele>
        <time>2025-02-03T20:34:17.108Z</time>
      </trkpt>
      <trkpt lat="58.96622998639941" lon="12.516915947198868">
        <ele>96.05</ele>
        <time>2025-02-03T20:34:31.806Z</time>
      </trkpt>
      <trkpt lat="58.966219928115606" lon="12.516711931675673">
        <ele>96.01</ele>
        <time>2025-02-03T20:34:46.505Z</time>
      </trkpt>
      <trkpt lat="58.96621196530759" lon="12.516509927809238">
        <ele>95.96</ele>
        <time>2025-02-03T20:35:01.206Z</time>
      </trkpt>
      <trkpt lat="58.96620995365083" lon="12.516307923942804">
        <ele>95.91</ele>
        <time>2025-02-03T20:35:15.909Z</time>
      </trkpt>
      <trkpt lat="58.96620995365083" lon="12.516108937561512">
        <ele>95.86</ele>
        <time>2025-02-03T20:35:30.613Z</time>
      </trkpt>
      <trkpt lat="58.966215988621116" lon="12.51590995118022">
        <ele>95.81</ele>
        <time>2025-02-03T20:35:45.319Z</time>
      </trkpt>
      <trkpt lat="58.96622998639941" lon="12.515712976455688">
        <ele>95.77</ele>
        <time>2025-02-03T20:36:00.027Z</time>
      </trkpt>
      <trkpt lat="58.96624892950058" lon="12.515516923740506">
        <ele>95.73</ele>
        <time>2025-02-03T20:36:14.736Z</time>
      </trkpt>
      <trkpt lat="58.96627499721944" lon="12.515321960672736">
        <ele>95.68</ele>
        <time>2025-02-03T20:36:29.447Z</time>
      </trkpt>
      <trkpt lat="58.966302992776036" lon="12.515126997604966">
        <ele>95.64</ele>
        <time>2025-02-03T20:36:44.160Z</time>
      </trkpt>
      <trkpt lat="58.96633995696902" lon="12.514935974031687">
        <ele>95.61</ele>
        <time>2025-02-03T20:36:58.874Z</time>
      </trkpt>
      <trkpt lat="58.96637893281877" lon="12.51474796794355">
        <ele>95.56</ele>
        <time>2025-02-03T20:37:13.590Z</time>
      </trkpt>
      <trkpt lat="58.96642293781042" lon="12.514564990997314">
        <ele>95.52</ele>
        <time>2025-02-03T20:37:28.308Z</time>
      </trkpt>
      <trkpt lat="58.96646593697369" lon="12.514386959373951">
        <ele>95.47</ele>
        <time>2025-02-03T20:37:43.027Z</time>
      </trkpt>
      <trkpt lat="58.96651094779372" lon="12.51421295106411">
        <ele>95.43</ele>
        <time>2025-02-03T20:37:57.748Z</time>
      </trkpt>
      <trkpt lat="58.96655394695699" lon="12.514043971896172">
        <ele>95.39</ele>
        <time>2025-02-03T20:38:12.471Z</time>
      </trkpt>
      <trkpt lat="58.966600969433784" lon="12.513882955536246">
        <ele>95.35</ele>
        <time>2025-02-03T20:38:27.195Z</time>
      </trkpt>
      <trkpt lat="58.96665092557669" lon="12.513731997460127">
        <ele>95.31</ele>
        <time>2025-02-03T20:38:41.921Z</time>
      </trkpt>
      <trkpt lat="58.966701971367" lon="12.513585984706879">
        <ele>95.26</ele>
        <time>2025-02-03T20:38:56.648Z</time>
      </trkpt>
      <trkpt lat="58.96675695665181" lon="12.513445923104882">
        <ele>95.22</ele>
        <time>2025-02-03T20:39:11.376Z</time>
      </trkpt>
      <trkpt lat="58.966815965250134" lon="12.51330896280706">
        <ele>95.19</ele>
        <time>2025-02-03T20:39:26.106Z</time>
      </trkpt>
      <trkpt lat="58.966877991333604" lon="12.513177953660488">
        <ele>95.16</ele>
        <time>2025-02-03T20:39:40.837Z</time>
      </trkpt>
      <trkpt lat="58.96694093942642" lon="12.513056918978691">
        <ele>95.13</ele>
        <time>2025-02-03T20:39:55.570Z</time>
      </trkpt>
      <trkpt lat="58.967010928317904" lon="12.512943930923939">
        <ele>95.1</ele>
        <time>2025-02-03T20:40:10.304Z</time>
      </trkpt>
      <trkpt lat="58.96708393469453" lon="12.51284091733396">
        <ele>95.07</ele>
        <time>2025-02-03T20:40:25.040Z</time>
      </trkpt>
      <trkpt lat="58.96715794689953" lon="12.512743938714266">
        <ele>95.04</ele>
        <time>2025-02-03T20:40:39.777Z</time>
      </trkpt>
      <trkpt lat="58.96723698824644" lon="12.512653917074203">
        <ele>95.02</ele>
        <time>2025-02-03T20:40:54.516Z</time>
      </trkpt>
      <trkpt lat="58.967314939945936" lon="12.512563979253173">
        <ele>94.99</ele>
        <time>2025-02-03T20:41:09.256Z</time>
      </trkpt>
      <trkpt lat="58.967393981292844" lon="12.512479992583394">
        <ele>94.97</ele>
        <time>2025-02-03T20:41:23.998Z</time>
      </trkpt>
      <trkpt lat="58.96747293882072" lon="12.512397933751345">
        <ele>94.96</ele>
        <time>2025-02-03T20:41:38.741Z</time>
      </trkpt>
      <trkpt lat="58.96755097433925" lon="12.512314952909946">
        <ele>94.93</ele>
        <time>2025-02-03T20:41:53.485Z</time>
      </trkpt>
      <trkpt lat="58.96762993186712" lon="12.51223498955369">
        <ele>94.91</ele>
        <time>2025-02-03T20:42:08.231Z</time>
      </trkpt>
      <trkpt lat="58.96770897321403" lon="12.51215192489326">
        <ele>94.9</ele>
        <time>2025-02-03T20:42:22.978Z</time>
      </trkpt>
      <trkpt lat="58.967786924913526" lon="12.5120669323951">
        <ele>94.88</ele>
        <time>2025-02-03T20:42:37.727Z</time>
      </trkpt>
      <trkpt lat="58.96786395460367" lon="12.51197992824018">
        <ele>94.85</ele>
        <time>2025-02-03T20:42:52.477Z</time>
      </trkpt>
      <trkpt lat="58.9679419901222" lon="12.511891918256879">
        <ele>94.83</ele>
        <time>2025-02-03T20:43:07.229Z</time>
      </trkpt>
      <trkpt lat="58.968019941821694" lon="12.511801980435848">
        <ele>94.83</ele>
        <time>2025-02-03T20:43:21.982Z</time>
      </trkpt>
      <trkpt lat="58.96809596568346" lon="12.511715982109308">
        <ele>94.82</ele>
        <time>2025-02-03T20:43:36.736Z</time>
      </trkpt>
      <trkpt lat="58.968171989545226" lon="12.511627972126007">
        <ele>94.81</ele>
        <time>2025-02-03T20:43:51.492Z</time>
      </trkpt>
      <trkpt lat="58.96824499592185" lon="12.511540967971087">
        <ele>94.81</ele>
        <time>2025-02-03T20:44:06.249Z</time>
      </trkpt>
      <trkpt lat="58.968316996470094" lon="12.511451952159405">
        <ele>94.8</ele>
        <time>2025-02-03T20:44:21.008Z</time>
      </trkpt>
      <trkpt lat="58.96838899701834" lon="12.511366959661245">
        <ele>94.8</ele>
        <time>2025-02-03T20:44:35.768Z</time>
      </trkpt>
      <trkpt lat="58.96846099756658" lon="12.511282972991467">
        <ele>94.81</ele>
        <time>2025-02-03T20:44:50.529Z</time>
      </trkpt>
      <trkpt lat="58.968534925952554" lon="12.511201919987798">
        <ele>94.81</ele>
        <time>2025-02-03T20:45:05.292Z</time>
      </trkpt>
      <trkpt lat="58.96860793232918" lon="12.511122962459922">
        <ele>94.81</ele>
        <time>2025-02-03T20:45:20.056Z</time>
      </trkpt>
      <trkpt lat="58.96867993287742" lon="12.511043921113014">
        <ele>94.81</ele>
        <time>2025-02-03T20:45:34.821Z</time>
      </trkpt>
      <trkpt lat="58.968753945082426" lon="12.510961946099997">
        <ele>94.81</ele>
        <time>2025-02-03T20:45:49.588Z</time>
      </trkpt>
      <trkpt lat="58.96882695145905" lon="12.510883994400501">
        <ele>94.81</ele>
        <time>2025-02-03T20:46:04.356Z</time>
      </trkpt>
      <trkpt lat="58.968898952007294" lon="12.510806964710355">
        <ele>94.81</ele>
        <time>2025-02-03T20:46:19.125Z</time>
      </trkpt>
      <trkpt lat="58.968966929242015" lon="12.510723983868957">
        <ele>94.81</ele>
        <time>2025-02-03T20:46:33.896Z</time>
      </trkpt>
      <trkpt lat="58.9690369181335" lon="12.510637985542417">
        <ele>94.8</ele>
        <time>2025-02-03T20:46:48.668Z</time>
      </trkpt>
      <trkpt lat="58.96910799667239" lon="12.510556932538748">
        <ele>94.8</ele>
        <time>2025-02-03T20:47:03.441Z</time>
      </trkpt>
      <trkpt lat="58.969179997220635" lon="12.510478980839252">
        <ele>94.8</ele>
        <time>2025-02-03T20:47:18.216Z</time>
      </trkpt>
      <trkpt lat="58.96925392560661" lon="12.510403962805867">
        <ele>94.79</ele>
        <time>2025-02-03T20:47:32.992Z</time>
      </trkpt>
      <trkpt lat="58.969328943639994" lon="12.510328944772482">
        <ele>94.79</ele>
        <time>2025-02-03T20:47:47.769Z</time>
      </trkpt>
      <trkpt lat="58.96940597333014" lon="12.510248981416225">
        <ele>94.79</ele>
        <time>2025-02-03T20:48:02.548Z</time>
      </trkpt>
      <trkpt lat="58.9694859366864" lon="12.510166922584176">
        <ele>94.79</ele>
        <time>2025-02-03T20:48:17.328Z</time>
      </trkpt>
      <trkpt lat="58.969567995518446" lon="12.510082935914397">
        <ele>94.8</ele>
        <time>2025-02-03T20:48:32.110Z</time>
      </trkpt>
      <trkpt lat="58.969650976359844" lon="12.509995931759477">
        <ele>94.79</ele>
        <time>2025-02-03T20:48:46.893Z</time>
      </trkpt>
      <trkpt lat="58.96973395720124" lon="12.509908927604556">
        <ele>94.79</ele>
        <time>2025-02-03T20:49:01.678Z</time>
      </trkpt>
      <trkpt lat="58.96981995552778" lon="12.509820917621255">
        <ele>94.8</ele>
        <time>2025-02-03T20:49:16.464Z</time>
      </trkpt>
      <trkpt lat="58.9699069596827" lon="12.509730979800224">
        <ele>94.8</ele>
        <time>2025-02-03T20:49:31.252Z</time>
      </trkpt>
      <trkpt lat="58.96999295800924" lon="12.509635929018259">
        <ele>94.81</ele>
        <time>2025-02-03T20:49:46.041Z</time>
      </trkpt>
      <trkpt lat="58.97007895633578" lon="12.509532999247313">
        <ele>94.82</ele>
        <time>2025-02-03T20:50:00.832Z</time>
      </trkpt>
      <trkpt lat="58.97016394883394" lon="12.509420933201909">
        <ele>94.84</ele>
        <time>2025-02-03T20:50:15.625Z</time>
      </trkpt>
      <trkpt lat="58.97024692967534" lon="12.509303921833634">
        <ele>94.87</ele>
        <time>2025-02-03T20:50:30.419Z</time>
      </trkpt>
      <trkpt lat="58.97032697685063" lon="12.509179953485727">
        <ele>94.88</ele>
        <time>2025-02-03T20:50:45.215Z</time>
      </trkpt>
      <trkpt lat="58.970404928550124" lon="12.509046932682395">
        <ele>94.9</ele>
        <time>2025-02-03T20:51:00.013Z</time>
      </trkpt>
      <trkpt lat="58.97047793492675" lon="12.50890796072781">
        <ele>94.92</ele>
        <time>2025-02-03T20:51:14.812Z</time>
      </trkpt>
      <trkpt lat="58.97054892964661" lon="12.508766977116466">
        <ele>94.94</ele>
        <time>2025-02-03T20:51:29.613Z</time>
      </trkpt>
      <trkpt lat="58.97061598487198" lon="12.508619958534837">
        <ele>94.98</ele>
        <time>2025-02-03T20:51:44.416Z</time>
      </trkpt>
      <trkpt lat="58.97067097015679" lon="12.50845693051815">
        <ele>95.01</ele>
        <time>2025-02-03T20:51:59.220Z</time>
      </trkpt>
      <trkpt lat="58.97072193212807" lon="12.508295997977257">
        <ele>95.04</ele>
        <time>2025-02-03T20:52:14.026Z</time>
      </trkpt>
      <trkpt lat="58.970769960433245" lon="12.508134981617332">
        <ele>95.09</ele>
        <time>2025-02-03T20:52:28.833Z</time>
      </trkpt>
      <trkpt lat="58.970814971253276" lon="12.507976982742548">
        <ele>95.13</ele>
        <time>2025-02-03T20:52:43.642Z</time>
      </trkpt>
      <trkpt lat="58.970856964588165" lon="12.507816972211003">
        <ele>95.17</ele>
        <time>2025-02-03T20:52:58.452Z</time>
      </trkpt>
      <trkpt lat="58.97089493460953" lon="12.507655955851078">
        <ele>95.21</ele>
        <time>2025-02-03T20:53:13.264Z</time>
      </trkpt>
      <trkpt lat="58.97093298844993" lon="12.507489994168282">
        <ele>95.26</ele>
        <time>2025-02-03T20:53:28.077Z</time>
      </trkpt>
      <trkpt lat="58.97096794098616" lon="12.507331995293498">
        <ele>95.31</ele>
        <time>2025-02-03T20:53:42.892Z</time>
      </trkpt>
      <trkpt lat="58.97100096568465" lon="12.507169973105192">
        <ele>95.35</ele>
        <time>2025-02-03T20:53:57.708Z</time>
      </trkpt>
      <trkpt lat="58.97103499621153" lon="12.50701398588717">
        <ele>95.4</ele>
        <time>2025-02-03T20:54:12.526Z</time>
      </trkpt>
      <trkpt lat="58.97106894291937" lon="12.506853975355625">
        <ele>95.44</ele>
        <time>2025-02-03T20:54:27.345Z</time>
      </trkpt>
      <trkpt lat="58.97109995596111" lon="12.506695976480842">
        <ele>95.48</ele>
        <time>2025-02-03T20:54:42.165Z</time>
      </trkpt>
      <trkpt lat="58.97113197483122" lon="12.50654392875731">
        <ele>95.52</ele>
        <time>2025-02-03T20:54:56.987Z</time>
      </trkpt>
      <trkpt lat="58.97116399370134" lon="12.506397999823093">
        <ele>95.57</ele>
        <time>2025-02-03T20:55:11.810Z</time>
      </trkpt>
      <trkpt lat="58.97119492292404" lon="12.506253998726606">
        <ele>95.61</ele>
        <time>2025-02-03T20:55:26.634Z</time>
      </trkpt>
      <trkpt lat="58.97122694179416" lon="12.506120977923274">
        <ele>95.65</ele>
        <time>2025-02-03T20:55:41.460Z</time>
      </trkpt>
      <trkpt lat="58.97125694900751" lon="12.5059849396348">
        <ele>95.69</ele>
        <time>2025-02-03T20:55:56.287Z</time>
      </trkpt>
      <trkpt lat="58.971286956220865" lon="12.505853930488229">
        <ele>95.73</ele>
        <time>2025-02-03T20:56:11.115Z</time>
      </trkpt>
      <trkpt lat="58.9713179692626" lon="12.505731973797083">
        <ele>95.78</ele>
        <time>2025-02-03T20:56:25.944Z</time>
      </trkpt>
      <trkpt lat="58.971348982304335" lon="12.505614962428808">
        <ele>95.82</ele>
        <time>2025-02-03T20:56:40.774Z</time>
      </trkpt>
      <trkpt lat="58.97138091735542" lon="12.505498956888914">
        <ele>95.86</ele>
        <time>2025-02-03T20:56:55.605Z</time>
      </trkpt>
      <trkpt lat="58.971413942053914" lon="12.505387980490923">
        <ele>95.91</ele>
        <time>2025-02-03T20:57:10.437Z</time>
      </trkpt>
      <trkpt lat="58.97144998423755" lon="12.505280943587422">
        <ele>95.96</ele>
        <time>2025-02-03T20:57:25.270Z</time>
      </trkpt>
      <trkpt lat="58.97148594260216" lon="12.505178935825825">
        <ele>96.0</ele>
        <time>2025-02-03T20:57:40.104Z</time>
      </trkpt>
      <trkpt lat="58.971523996442556" lon="12.505078939720988">
        <ele>96.04</ele>
        <time>2025-02-03T20:57:54.939Z</time>
      </trkpt>
      <trkpt lat="58.971565989777446" lon="12.504981961101294">
        <ele>96.08</ele>
        <time>2025-02-03T20:58:09.775Z</time>
      </trkpt>
      <trkpt lat="58.971609994769096" lon="12.50488892197609">
        <ele>96.14</ele>
        <time>2025-02-03T20:58:24.613Z</time>
      </trkpt>
      <trkpt lat="58.971654921770096" lon="12.504788925871253">
        <ele>96.19</ele>
        <time>2025-02-03T20:58:39.452Z</time>
      </trkpt>
      <trkpt lat="58.971698926761746" lon="12.504690941423178">
        <ele>96.24</ele>
        <time>2025-02-03T20:58:54.292Z</time>
      </trkpt>
      <trkpt lat="58.97174393758178" lon="12.504596980288625">
        <ele>96.29</ele>
        <time>2025-02-03T20:59:09.133Z</time>
      </trkpt>
      <trkpt lat="58.97178794257343" lon="12.504508970305324">
        <ele>96.34</ele>
        <time>2025-02-03T20:59:23.975Z</time>
      </trkpt>
      <trkpt lat="58.9718359708786" lon="12.504430934786797">
        <ele>96.39</ele>
        <time>2025-02-03T20:59:38.818Z</time>
      </trkpt>
      <trkpt lat="58.9718859270215" lon="12.50435097143054">
        <ele>96.45</ele>
        <time>2025-02-03T20:59:53.662Z</time>
      </trkpt>
      <trkpt lat="58.97193596698344" lon="12.504270924255252">
        <ele>96.5</ele>
        <time>2025-02-03T21:00:08.507Z</time>
      </trkpt>
      <trkpt lat="58.97198592312634" lon="12.504193978384137">
        <ele>96.55</ele>
        <time>2025-02-03T21:00:23.353Z</time>
      </trkpt>
      <trkpt lat="58.972037974745035" lon="12.504124995321035">
        <ele>96.61</ele>
        <time>2025-02-03T21:00:38.200Z</time>
      </trkpt>
      <trkpt lat="58.9720949716866" lon="12.504051988944411">
        <ele>96.66</ele>
        <time>2025-02-03T21:00:53.048Z</time>
      </trkpt>
      <trkpt lat="58.97215398028493" lon="12.503980994224548">
        <ele>96.71</ele>
        <time>2025-02-03T21:01:07.897Z</time>
      </trkpt>
      <trkpt lat="58.97221592254937" lon="12.503911927342415">
        <ele>96.77</ele>
        <time>2025-02-03T21:01:22.747Z</time>
      </trkpt>
      <trkpt lat="58.97228197194636" lon="12.503843950107694">
        <ele>96.83</ele>
        <time>2025-02-03T21:01:37.598Z</time>
      </trkpt>
      <trkpt lat="58.97235095500946" lon="12.503775972872972">
        <ele>96.88</ele>
        <time>2025-02-03T21:01:52.451Z</time>
      </trkpt>
      <trkpt lat="58.97241993807256" lon="12.503710929304361">
        <ele>96.94</ele>
        <time>2025-02-03T21:02:07.305Z</time>
      </trkpt>
      <trkpt lat="58.972490932792425" lon="12.503648987039924">
        <ele>96.99</ele>
        <time>2025-02-03T21:02:22.160Z</time>
      </trkpt>
      <trkpt lat="58.97256393916905" lon="12.503584949299693">
        <ele>97.05</ele>
        <time>2025-02-03T21:02:37.016Z</time>
      </trkpt>
      <trkpt lat="58.972638957202435" lon="12.503517977893353">
        <ele>97.1</ele>
        <time>2025-02-03T21:02:51.874Z</time>
      </trkpt>
      <trkpt lat="58.97271699272096" lon="12.50344899483025">
        <ele>97.16</ele>
        <time>2025-02-03T21:03:06.733Z</time>
      </trkpt>
      <trkpt lat="58.97279595024884" lon="12.503377916291356">
        <ele>97.21</ele>
        <time>2025-02-03T21:03:21.594Z</time>
      </trkpt>
      <trkpt lat="58.972876919433475" lon="12.503308933228254">
        <ele>97.27</ele>
        <time>2025-02-03T21:03:36.456Z</time>
      </trkpt>
      <trkpt lat="58.972959984093904" lon="12.50323592685163">
        <ele>97.32</ele>
        <time>2025-02-03T21:03:51.319Z</time>
      </trkpt>
      <trkpt lat="58.97304397076368" lon="12.503162920475006">
        <ele>97.38</ele>
        <time>2025-02-03T21:04:06.184Z</time>
      </trkpt>
      <trkpt lat="58.973131980746984" lon="12.503087986260653">
        <ele>97.43</ele>
        <time>2025-02-03T21:04:21.050Z</time>
      </trkpt>
      <trkpt lat="58.973222924396396" lon="12.503013974055648">
        <ele>97.49</ele>
        <time>2025-02-03T21:04:35.918Z</time>
      </trkpt>
      <trkpt lat="58.97331395186484" lon="12.50293493270874">
        <ele>97.54</ele>
        <time>2025-02-03T21:04:50.788Z</time>
      </trkpt>
      <trkpt lat="58.97340497933328" lon="12.502850946038961">
        <ele>97.59</ele>
        <time>2025-02-03T21:05:05.659Z</time>
      </trkpt>
      <trkpt lat="58.97349592298269" lon="12.50276394188404">
        <ele>97.63</ele>
        <time>2025-02-03T21:05:20.532Z</time>
      </trkpt>
      <trkpt lat="58.973586950451136" lon="12.5026779435575">
        <ele>97.68</ele>
        <time>2025-02-03T21:05:35.407Z</time>
      </trkpt>
      <trkpt lat="58.97367596626282" lon="12.502587921917439">
        <ele>97.73</ele>
        <time>2025-02-03T21:05:50.283Z</time>
      </trkpt>
      <trkpt lat="58.97376397624612" lon="12.502491949126124">
        <ele>97.77</ele>
        <time>2025-02-03T21:06:05.161Z</time>
      </trkpt>
      <trkpt lat="58.9738479629159" lon="12.502389941364527">
        <ele>97.82</ele>
        <time>2025-02-03T21:06:20.040Z</time>
      </trkpt>
      <trkpt lat="58.973930943757296" lon="12.50229095108807">
        <ele>97.87</ele>
        <time>2025-02-03T21:06:34.921Z</time>
      </trkpt>
      <trkpt lat="58.974011996760964" lon="12.502188943326473">
        <ele>97.91</ele>
        <time>2025-02-03T21:06:49.803Z</time>
      </trkpt>
      <trkpt lat="58.97408894263208" lon="12.502084923908114">
        <ele>97.96</ele>
        <time>2025-02-03T21:07:04.687Z</time>
      </trkpt>
      <trkpt lat="58.974163960665464" lon="12.501980988308787">
        <ele>98.0</ele>
        <time>2025-02-03T21:07:19.572Z</time>
      </trkpt>
      <trkpt lat="58.97423797287047" lon="12.50188099220395">
        <ele>98.04</ele>
        <time>2025-02-03T21:07:34.459Z</time>
      </trkpt>
      <trkpt lat="58.97431097924709" lon="12.501778984442353">
        <ele>98.08</ele>
        <time>2025-02-03T21:07:49.347Z</time>
      </trkpt>
      <trkpt lat="58.974381973966956" lon="12.501670941710472">
        <ele>98.12</ele>
        <time>2025-02-03T21:08:04.237Z</time>
      </trkpt>
      <trkpt lat="58.97445196285844" lon="12.5015589594841">
        <ele>98.17</ele>
        <time>2025-02-03T21:08:19.128Z</time>
      </trkpt>
      <trkpt lat="58.97452094592154" lon="12.501443959772587">
        <ele>98.2</ele>
        <time>2025-02-03T21:08:34.021Z</time>
      </trkpt>
      <trkpt lat="58.97458892315626" lon="12.50132393091917">
        <ele>98.24</ele>
        <time>2025-02-03T21:08:48.915Z</time>
      </trkpt>
      <trkpt lat="58.97465396672487" lon="12.501204991713166">
        <ele>98.28</ele>
        <time>2025-02-03T21:09:03.811Z</time>
      </trkpt>
      <trkpt lat="58.97471792064607" lon="12.50108596868813">
        <ele>98.32</ele>
        <time>2025-02-03T21:09:18.708Z</time>
      </trkpt>
      <trkpt lat="58.97477994672954" lon="12.500964934006333">
        <ele>98.37</ele>
        <time>2025-02-03T21:09:33.606Z</time>
      </trkpt>
      <trkpt lat="58.97483996115625" lon="12.500843983143568">
        <ele>98.41</ele>
        <time>2025-02-03T21:09:48.506Z</time>
      </trkpt>
      <trkpt lat="58.97490198723972" lon="12.500722948461771">
        <ele>98.45</ele>
        <time>2025-02-03T21:10:03.407Z</time>
      </trkpt>
      <trkpt lat="58.974962923675776" lon="12.500604931265116">
        <ele>98.49</ele>
        <time>2025-02-03T21:10:18.310Z</time>
      </trkpt>
      <trkpt lat="58.975022938102484" lon="12.500484986230731">
        <ele>98.52</ele>
        <time>2025-02-03T21:10:33.214Z</time>
      </trkpt>
      <trkpt lat="58.97508194670081" lon="12.500370992347598">
        <ele>98.56</ele>
        <time>2025-02-03T21:10:48.119Z</time>
      </trkpt>
      <trkpt lat="58.97513994947076" lon="12.500257920473814">
        <ele>98.59</ele>
        <time>2025-02-03T21:11:03.026Z</time>
      </trkpt>
      <trkpt lat="58.975198958069086" lon="12.50013898126781">
        <ele>98.64</ele>
        <time>2025-02-03T21:11:17.934Z</time>
      </trkpt>
      <trkpt lat="58.97525696083903" lon="12.500020964071155">
        <ele>98.67</ele>
        <time>2025-02-03T21:11:32.843Z</time>
      </trkpt>
      <trkpt lat="58.97531496360898" lon="12.499906970188022">
        <ele>98.71</ele>
        <time>2025-02-03T21:11:47.754Z</time>
      </trkpt>
      <trkpt lat="58.97537196055055" lon="12.49979599379003">
        <ele>98.73</ele>
        <time>2025-02-03T21:12:02.666Z</time>
      </trkpt>
      <trkpt lat="58.97542795166373" lon="12.499680994078517">
        <ele>98.76</ele>
        <time>2025-02-03T21:12:17.579Z</time>
      </trkpt>
      <trkpt lat="58.9754849486053" lon="12.499566916376352">
        <ele>98.79</ele>
        <time>2025-02-03T21:12:32.494Z</time>
      </trkpt>
      <trkpt lat="58.975539933890104" lon="12.499451916664839">
        <ele>98.82</ele>
        <time>2025-02-03T21:12:47.410Z</time>
      </trkpt>
      <trkpt lat="58.97559399716556" lon="12.499338928610086">
        <ele>98.84</ele>
        <time>2025-02-03T21:13:02.327Z</time>
      </trkpt>
      <trkpt lat="58.975648982450366" lon="12.499223928898573">
        <ele>98.85</ele>
        <time>2025-02-03T21:13:17.245Z</time>
      </trkpt>
      <trkpt lat="58.97570296190679" lon="12.499113958328962">
        <ele>98.87</ele>
        <time>2025-02-03T21:13:32.165Z</time>
      </trkpt>
      <trkpt lat="58.97575895301998" lon="12.499010944738984">
        <ele>98.89</ele>
        <time>2025-02-03T21:13:47.086Z</time>
      </trkpt>
      <trkpt lat="58.97581393830478" lon="12.498907931149006">
        <ele>98.9</ele>
        <time>2025-02-03T21:14:02.008Z</time>
      </trkpt>
      <trkpt lat="58.97586992941797" lon="12.498806929215789">
        <ele>98.92</ele>
        <time>2025-02-03T21:14:16.931Z</time>
      </trkpt>
      <trkpt lat="58.975924998521805" lon="12.498708944767714">
        <ele>98.93</ele>
        <time>2025-02-03T21:14:31.856Z</time>
      </trkpt>
      <trkpt lat="58.97597998380661" lon="12.498603919520974">
        <ele>98.93</ele>
        <time>2025-02-03T21:14:46.782Z</time>
      </trkpt>
      <trkpt lat="58.976034969091415" lon="12.498497972264886">
        <ele>98.94</ele>
        <time>2025-02-03T21:15:01.709Z</time>
      </trkpt>
      <trkpt lat="58.97609297186136" lon="12.498387917876244">
        <ele>98.94</ele>
        <time>2025-02-03T21:15:16.637Z</time>
      </trkpt>
      <trkpt lat="58.97615399211645" lon="12.498281970620155">
        <ele>98.95</ele>
        <time>2025-02-03T21:15:31.567Z</time>
      </trkpt>
      <trkpt lat="58.97621593438089" lon="12.498168982565403">
        <ele>98.95</ele>
        <time>2025-02-03T21:15:46.498Z</time>
      </trkpt>
      <trkpt lat="58.97627695463598" lon="12.498049959540367">
        <ele>98.94</ele>
        <time>2025-02-03T21:16:01.431Z</time>
      </trkpt>
      <trkpt lat="58.97633898071945" lon="12.49792892485857">
        <ele>98.94</ele>
        <time>2025-02-03T21:16:16.365Z</time>
      </trkpt>
      <trkpt lat="58.976400922983885" lon="12.497805962339044">
        <ele>98.93</ele>
        <time>2025-02-03T21:16:31.300Z</time>
      </trkpt>
      <trkpt lat="58.976465966552496" lon="12.497682999819517">
        <ele>98.92</ele>
        <time>2025-02-03T21:16:46.237Z</time>
      </trkpt>
      <trkpt lat="58.976531932130456" lon="12.497559953480959">
        <ele>98.9</ele>
        <time>2025-02-03T21:17:01.175Z</time>
      </trkpt>
      <trkpt lat="58.97659697569907" lon="12.49743397347629">
        <ele>98.88</ele>
        <time>2025-02-03T21:17:16.115Z</time>
      </trkpt>
      <trkpt lat="58.97666294127703" lon="12.497305981814861">
        <ele>98.87</ele>
        <time>2025-02-03T21:17:31.056Z</time>
      </trkpt>
      <trkpt lat="58.97672798484564" lon="12.497172961011529">
        <ele>98.84</ele>
        <time>2025-02-03T21:17:45.999Z</time>
      </trkpt>
      <trkpt lat="58.97679294459522" lon="12.497047986835241">
        <ele>98.81</ele>
        <time>2025-02-03T21:18:00.943Z</time>
      </trkpt>
      <trkpt lat="58.97685597650707" lon="12.49691798351705">
        <ele>98.78</ele>
        <time>2025-02-03T21:18:15.889Z</time>
      </trkpt>
      <trkpt lat="58.976917918771505" lon="12.496792925521731">
        <ele>98.76</ele>
        <time>2025-02-03T21:18:30.836Z</time>
      </trkpt>
      <trkpt lat="58.97697692736983" lon="12.496669963002205">
        <ele>98.72</ele>
        <time>2025-02-03T21:18:45.785Z</time>
      </trkpt>
      <trkpt lat="58.97703493013978" lon="12.496550939977169">
        <ele>98.69</ele>
        <time>2025-02-03T21:19:00.735Z</time>
      </trkpt>
      <trkpt lat="58.97709293290973" lon="12.496438957750797">
        <ele>98.65</ele>
        <time>2025-02-03T21:19:15.686Z</time>
      </trkpt>
      <trkpt lat="58.977150935679674" lon="12.496324963867664">
        <ele>98.61</ele>
        <time>2025-02-03T21:19:30.639Z</time>
      </trkpt>
      <trkpt lat="58.977209944278" lon="12.496211975812912">
        <ele>98.56</ele>
        <time>2025-02-03T21:19:45.593Z</time>
      </trkpt>
      <trkpt lat="58.97727096453309" lon="12.49610292725265">
        <ele>98.51</ele>
        <time>2025-02-03T21:20:00.548Z</time>
      </trkpt>
      <trkpt lat="58.9773309789598" lon="12.49599295668304">
        <ele>98.46</ele>
        <time>2025-02-03T21:20:15.505Z</time>
      </trkpt>
      <trkpt lat="58.97739392705262" lon="12.49588499777019">
        <ele>98.4</ele>
        <time>2025-02-03T21:20:30.463Z</time>
      </trkpt>
      <trkpt lat="58.97745997644961" lon="12.495775949209929">
        <ele>98.34</ele>
        <time>2025-02-03T21:20:45.422Z</time>
      </trkpt>
      <trkpt lat="58.97752895951271" lon="12.495665978640318">
        <ele>98.27</ele>
        <time>2025-02-03T21:21:00.383Z</time>
      </trkpt>
      <trkpt lat="58.97759794257581" lon="12.495551984757185">
        <ele>98.18</ele>
        <time>2025-02-03T21:21:15.345Z</time>
      </trkpt>
      <trkpt lat="58.977668937295675" lon="12.495439918711782">
        <ele>98.11</ele>
        <time>2025-02-03T21:21:30.309Z</time>
      </trkpt>
      <trkpt lat="58.9777419436723" lon="12.495325924828649">
        <ele>98.02</ele>
        <time>2025-02-03T21:21:45.274Z</time>
      </trkpt>
      <trkpt lat="58.977815955877304" lon="12.495208997279406">
        <ele>97.93</ele>
        <time>2025-02-03T21:22:00.241Z</time>
      </trkpt>
      <trkpt lat="58.97789097391069" lon="12.495092991739511">
        <ele>97.83</ele>
        <time>2025-02-03T21:22:15.209Z</time>
      </trkpt>
      <trkpt lat="58.977965991944075" lon="12.494969945400953">
        <ele>97.73</ele>
        <time>2025-02-03T21:22:30.179Z</time>
      </trkpt>
      <trkpt lat="58.97804193198681" lon="12.494840947911143">
        <ele>97.63</ele>
        <time>2025-02-03T21:22:45.150Z</time>
      </trkpt>
      <trkpt lat="58.978118961676955" lon="12.494710944592953">
        <ele>97.52</ele>
        <time>2025-02-03T21:23:00.123Z</time>
      </trkpt>
      <trkpt lat="58.9781959913671" lon="12.49457691796124">
        <ele>97.42</ele>
        <time>2025-02-03T21:23:15.098Z</time>
      </trkpt>
      <trkpt lat="58.978270925581455" lon="12.494435934349895">
        <ele>97.31</ele>
        <time>2025-02-03T21:23:30.074Z</time>
      </trkpt>
      <trkpt lat="58.9783429261297" lon="12.494285982102156">
        <ele>97.2</ele>
        <time>2025-02-03T21:23:45.052Z</time>
      </trkpt>
      <trkpt lat="58.97841098718345" lon="12.494140975177288">
        <ele>97.09</ele>
        <time>2025-02-03T21:24:00.032Z</time>
      </trkpt>
      <trkpt lat="58.97847695276141" lon="12.49399395659566">
        <ele>96.97</ele>
        <time>2025-02-03T21:24:15.013Z</time>
      </trkpt>
      <trkpt lat="58.97853998467326" lon="12.49384693801403">
        <ele>96.85</ele>
        <time>2025-02-03T21:24:29.996Z</time>
      </trkpt>
      <trkpt lat="58.97859999909997" lon="12.493696985766292">
        <ele>96.72</ele>
        <time>2025-02-03T21:24:44.980Z</time>
      </trkpt>
      <trkpt lat="58.978654984384775" lon="12.493546949699521">
        <ele>96.58</ele>
        <time>2025-02-03T21:24:59.966Z</time>
      </trkpt>
      <trkpt lat="58.97870494052768" lon="12.493394985795021">
        <ele>96.43</ele>
        <time>2025-02-03T21:25:14.953Z</time>
      </trkpt>
      <trkpt lat="58.97875095717609" lon="12.493248973041773">
        <ele>96.28</ele>
        <time>2025-02-03T21:25:29.942Z</time>
      </trkpt>
      <trkpt lat="58.97879395633936" lon="12.493107989430428">
        <ele>96.13</ele>
        <time>2025-02-03T21:25:44.932Z</time>
      </trkpt>
      <trkpt lat="58.97883393801749" lon="12.492974968627095">
        <ele>95.97</ele>
        <time>2025-02-03T21:25:59.924Z</time>
      </trkpt>
      <trkpt lat="58.978870986029506" lon="12.49283691868186">
        <ele>95.8</ele>
        <time>2025-02-03T21:26:14.917Z</time>
      </trkpt>
      <trkpt lat="58.97890593856573" lon="12.49270892702043">
        <ele>95.63</ele>
        <time>2025-02-03T21:26:29.911Z</time>
      </trkpt>
      <trkpt lat="58.978937957435846" lon="12.49257992953062">
        <ele>95.45</ele>
        <time>2025-02-03T21:26:44.906Z</time>
      </trkpt>
      <trkpt lat="58.9789679646492" lon="12.492443975061178">
        <ele>95.28</ele>
        <time>2025-02-03T21:26:59.902Z</time>
      </trkpt>
      <trkpt lat="58.97899394854903" lon="12.492315983399749">
        <ele>95.09</ele>
        <time>2025-02-03T21:27:14.900Z</time>
      </trkpt>
      <trkpt lat="58.979016998782754" lon="12.492185980081558">
        <ele>94.89</ele>
        <time>2025-02-03T21:27:29.899Z</time>
      </trkpt>
      <trkpt lat="58.97903795354068" lon="12.492056982591748">
        <ele>94.7</ele>
        <time>2025-02-03T21:27:44.899Z</time>
      </trkpt>
      <trkpt lat="58.97905899211764" lon="12.491928990930319">
        <ele>94.51</ele>
        <time>2025-02-03T21:27:59.900Z</time>
      </trkpt>
      <trkpt lat="58.97907793521881" lon="12.491798987612128">
        <ele>94.31</ele>
        <time>2025-02-03T21:28:14.902Z</time>
      </trkpt>
      <trkpt lat="58.97909696213901" lon="12.491668984293938">
        <ele>94.1</ele>
        <time>2025-02-03T21:28:29.905Z</time>
      </trkpt>
      <trkpt lat="58.97911699488759" lon="12.491538980975747">
        <ele>93.89</ele>
        <time>2025-02-03T21:28:44.909Z</time>
      </trkpt>
      <trkpt lat="58.97913694381714" lon="12.491404954344034">
        <ele>93.67</ele>
        <time>2025-02-03T21:28:59.914Z</time>
      </trkpt>
      <trkpt lat="58.9791579823941" lon="12.49126992188394">
        <ele>93.45</ele>
        <time>2025-02-03T21:29:14.921Z</time>
      </trkpt>
      <trkpt lat="58.97917793132365" lon="12.49114092439413">
        <ele>93.21</ele>
        <time>2025-02-03T21:29:29.929Z</time>
      </trkpt>
      <trkpt lat="58.97919896990061" lon="12.49100698158145">
        <ele>92.97</ele>
        <time>2025-02-03T21:29:44.938Z</time>
      </trkpt>
      <trkpt lat="58.97921992465854" lon="12.490870943292975">
        <ele>92.72</ele>
        <time>2025-02-03T21:29:59.948Z</time>
      </trkpt>
      <trkpt lat="58.97923995740712" lon="12.490735994651914">
        <ele>92.47</ele>
        <time>2025-02-03T21:30:14.959Z</time>
      </trkpt>
      <trkpt lat="58.9792599901557" lon="12.49059995636344">
        <ele>92.21</ele>
        <time>2025-02-03T21:30:29.971Z</time>
      </trkpt>
      <trkpt lat="58.979280944913626" lon="12.490457966923714">
        <ele>91.94</ele>
        <time>2025-02-03T21:30:44.985Z</time>
      </trkpt>
      <trkpt lat="58.97930298931897" lon="12.490312959998846">
        <ele>91.67</ele>
        <time>2025-02-03T21:31:00.000Z</time>
      </trkpt>
      <trkpt lat="58.97932595573366" lon="12.490165941417217">
        <ele>91.4</ele>
        <time>2025-02-03T21:31:15.016Z</time>
      </trkpt>
      <trkpt lat="58.97934992797673" lon="12.490014983341098">
        <ele>91.12</ele>
        <time>2025-02-03T21:31:30.033Z</time>
      </trkpt>
      <trkpt lat="58.97937498986721" lon="12.489861929789186">
        <ele>90.84</ele>
        <time>2025-02-03T21:31:45.052Z</time>
      </trkpt>
      <trkpt lat="58.97939996793866" lon="12.489700997248292">
        <ele>90.56</ele>
        <time>2025-02-03T21:32:00.072Z</time>
      </trkpt>
      <trkpt lat="58.97942595183849" lon="12.489535957574844">
        <ele>90.28</ele>
        <time>2025-02-03T21:32:15.094Z</time>
      </trkpt>
      <trkpt lat="58.979451935738325" lon="12.489366978406906">
        <ele>89.99</ele>
        <time>2025-02-03T21:32:30.117Z</time>
      </trkpt>
      <trkpt lat="58.97947599180043" lon="12.489194981753826">
        <ele>89.69</ele>
        <time>2025-02-03T21:32:45.142Z</time>
      </trkpt>
      <trkpt lat="58.97950298152864" lon="12.489021979272366">
        <ele>89.4</ele>
        <time>2025-02-03T21:33:00.168Z</time>
      </trkpt>
      <trkpt lat="58.97952997125685" lon="12.488848976790905">
        <ele>89.09</ele>
        <time>2025-02-03T21:33:15.196Z</time>
      </trkpt>
      <trkpt lat="58.979557966813445" lon="12.48866893351078">
        <ele>88.77</ele>
        <time>2025-02-03T21:33:30.225Z</time>
      </trkpt>
      <trkpt lat="58.9795879740268" lon="12.488482939079404">
        <ele>88.45</ele>
        <time>2025-02-03T21:33:45.256Z</time>
      </trkpt>
      <trkpt lat="58.979619992896914" lon="12.488291999325156">
        <ele>88.11</ele>
        <time>2025-02-03T21:34:00.288Z</time>
      </trkpt>
      <trkpt lat="58.979651927948" lon="12.488094940781593">
        <ele>87.76</ele>
        <time>2025-02-03T21:34:15.322Z</time>
      </trkpt>
      <trkpt lat="58.97968394681811" lon="12.487890925258398">
        <ele>87.41</ele>
        <time>2025-02-03T21:34:30.358Z</time>
      </trkpt>
      <trkpt lat="58.97971596568823" lon="12.487683976069093">
        <ele>87.05</ele>
        <time>2025-02-03T21:34:45.396Z</time>
      </trkpt>
      <trkpt lat="58.979749996215105" lon="12.487465962767601">
        <ele>86.69</ele>
        <time>2025-02-03T21:35:00.435Z</time>
      </trkpt>
      <trkpt lat="58.97978595457971" lon="12.487244931980968">
        <ele>86.32</ele>
        <time>2025-02-03T21:35:15.476Z</time>
      </trkpt>
      <trkpt lat="58.9798229187727" lon="12.487016944214702">
        <ele>85.95</ele>
        <time>2025-02-03T21:35:30.519Z</time>
      </trkpt>
      <trkpt lat="58.979858960956335" lon="12.486784933134913">
        <ele>85.58</ele>
        <time>2025-02-03T21:35:45.564Z</time>
      </trkpt>
      <trkpt lat="58.97989592514932" lon="12.486545965075493">
        <ele>85.2</ele>
        <time>2025-02-03T21:36:00.611Z</time>
      </trkpt>
      <trkpt lat="58.97993196733296" lon="12.486300962045789">
        <ele>84.82</ele>
        <time>2025-02-03T21:36:15.661Z</time>
      </trkpt>
      <trkpt lat="58.97997094318271" lon="12.486051935702562">
        <ele>84.43</ele>
        <time>2025-02-03T21:36:30.713Z</time>
      </trkpt>
      <trkpt lat="58.980010924860835" lon="12.485799975693226">
        <ele>84.05</ele>
        <time>2025-02-03T21:36:45.767Z</time>
      </trkpt>
      <trkpt lat="58.980050990357995" lon="12.485546926036477">
        <ele>83.67</ele>
        <time>2025-02-03T21:37:00.823Z</time>
      </trkpt>
      <trkpt lat="58.98008996620774" lon="12.48529295437038">
        <ele>83.28</ele>
        <time>2025-02-03T21:37:15.881Z</time>
      </trkpt>
      <trkpt lat="58.98012793622911" lon="12.485038982704282">
        <ele>82.89</ele>
        <time>2025-02-03T21:37:30.941Z</time>
      </trkpt>
      <trkpt lat="58.98016498424113" lon="12.484781993553042">
        <ele>82.5</ele>
        <time>2025-02-03T21:37:46.004Z</time>
      </trkpt>
      <trkpt lat="58.980201948434114" lon="12.4845199752599">
        <ele>82.1</ele>
        <time>2025-02-03T21:38:01.069Z</time>
      </trkpt>
      <trkpt lat="58.98023497313261" lon="12.484254939481616">
        <ele>81.7</ele>
        <time>2025-02-03T21:38:16.136Z</time>
      </trkpt>
      <trkpt lat="58.9802629686892" lon="12.483990993350744">
        <ele>81.31</ele>
        <time>2025-02-03T21:38:31.205Z</time>
      </trkpt>
      <trkpt lat="58.98028492927551" lon="12.483728975057602">
        <ele>80.92</ele>
        <time>2025-02-03T21:38:46.277Z</time>
      </trkpt>
      <trkpt lat="58.98029993288219" lon="12.48346896842122">
        <ele>80.52</ele>
        <time>2025-02-03T21:39:01.351Z</time>
      </trkpt>
      <trkpt lat="58.980310996994376" lon="12.483214996755123">
        <ele>80.13</ele>
        <time>2025-02-03T21:39:16.427Z</time>
      </trkpt>
      <trkpt lat="58.98031795397401" lon="12.482965970411897">
        <ele>79.73</ele>
        <time>2025-02-03T21:39:31.505Z</time>
      </trkpt>
      <trkpt lat="58.98032097145915" lon="12.482724990695715">
        <ele>79.34</ele>
        <time>2025-02-03T21:39:46.585Z</time>
      </trkpt>
      <trkpt lat="58.98032097145915" lon="12.482492979615927">
        <ele>78.94</ele>
        <time>2025-02-03T21:40:01.667Z</time>
      </trkpt>
      <trkpt lat="58.98031996563077" lon="12.482271948829293">
        <ele>78.53</ele>
        <time>2025-02-03T21:40:16.751Z</time>
      </trkpt>
      <trkpt lat="58.98031594231725" lon="12.482058964669704">
        <ele>78.12</ele>
        <time>2025-02-03T21:40:31.836Z</time>
      </trkpt>
      <trkpt lat="58.980309991165996" lon="12.481853943318129">
        <ele>77.72</ele>
        <time>2025-02-03T21:40:46.923Z</time>
      </trkpt>
      <trkpt lat="58.98030194453895" lon="12.481652945280075">
        <ele>77.31</ele>
        <time>2025-02-03T21:41:02.012Z</time>
      </trkpt>
      <trkpt lat="58.98029197007418" lon="12.481454964727163">
        <ele>76.9</ele>
        <time>2025-02-03T21:41:17.103Z</time>
      </trkpt>
      <trkpt lat="58.98027897812426" lon="12.481259917840362">
        <ele>76.49</ele>
        <time>2025-02-03T21:41:32.195Z</time>
      </trkpt>
      <trkpt lat="58.980263974517584" lon="12.481064954772592">
        <ele>76.08</ele>
        <time>2025-02-03T21:41:47.289Z</time>
      </trkpt>
      <trkpt lat="58.980246959254146" lon="12.480871919542551">
        <ele>75.66</ele>
        <time>2025-02-03T21:42:02.384Z</time>
      </trkpt>
      <trkpt lat="58.980227932333946" lon="12.480679973959923">
        <ele>75.24</ele>
        <time>2025-02-03T21:42:17.481Z</time>
      </trkpt>
      <trkpt lat="58.98020697757602" lon="12.480488950386643">
        <ele>74.82</ele>
        <time>2025-02-03T21:42:32.580Z</time>
      </trkpt>
      <trkpt lat="58.980181999504566" lon="12.480297926813364">
        <ele>74.41</ele>
        <time>2025-02-03T21:42:47.680Z</time>
      </trkpt>
      <trkpt lat="58.98015492595732" lon="12.480106987059116">
        <ele>73.99</ele>
        <time>2025-02-03T21:43:02.782Z</time>
      </trkpt>
      <trkpt lat="58.98012399673462" lon="12.479916969314218">
        <ele>73.57</ele>
        <time>2025-02-03T21:43:17.886Z</time>
      </trkpt>
      <trkpt lat="58.98009097203612" lon="12.479724939912558">
        <ele>73.14</ele>
        <time>2025-02-03T21:43:32.991Z</time>
      </trkpt>
      <trkpt lat="58.980055935680866" lon="12.479531988501549">
        <ele>72.72</ele>
        <time>2025-02-03T21:43:48.098Z</time>
      </trkpt>
      <trkpt lat="58.9800179656595" lon="12.479336941614747">
        <ele>72.3</ele>
        <time>2025-02-03T21:44:03.207Z</time>
      </trkpt>
      <trkpt lat="58.97997697815299" lon="12.479141978546977">
        <ele>71.87</ele>
        <time>2025-02-03T21:44:18.317Z</time>
      </trkpt>
      <trkpt lat="58.97993297316134" lon="12.478946931660175">
        <ele>71.45</ele>
        <time>2025-02-03T21:44:33.429Z</time>
      </trkpt>
      <trkpt lat="58.97988595068455" lon="12.478752974420786">
        <ele>71.03</ele>
        <time>2025-02-03T21:44:48.543Z</time>
      </trkpt>
      <trkpt lat="58.979837922379375" lon="12.478560945019126">
        <ele>70.6</ele>
        <time>2025-02-03T21:45:03.659Z</time>
      </trkpt>
      <trkpt lat="58.97978796623647" lon="12.478367993608117">
        <ele>70.18</ele>
        <time>2025-02-03T21:45:18.776Z</time>
      </trkpt>
      <trkpt lat="58.97973398678005" lon="12.478178981691599">
        <ele>69.76</ele>
        <time>2025-02-03T21:45:33.895Z</time>
      </trkpt>
      <trkpt lat="58.97967698983848" lon="12.47798996977508">
        <ele>69.34</ele>
        <time>2025-02-03T21:45:49.016Z</time>
      </trkpt>
      <trkpt lat="58.97961697541177" lon="12.477801963686943">
        <ele>68.91</ele>
        <time>2025-02-03T21:46:04.139Z</time>
      </trkpt>
      <trkpt lat="58.97955394349992" lon="12.477615969255567">
        <ele>68.49</ele>
        <time>2025-02-03T21:46:19.264Z</time>
      </trkpt>
      <trkpt lat="58.9794859662652" lon="12.477432992309332">
        <ele>68.07</ele>
        <time>2025-02-03T21:46:34.391Z</time>
      </trkpt>
      <trkpt lat="58.97941597737372" lon="12.477252949029207">
        <ele>67.65</ele>
        <time>2025-02-03T21:46:49.519Z</time>
      </trkpt>
      <trkpt lat="58.979343976825476" lon="12.477074917405844">
        <ele>67.23</ele>
        <time>2025-02-03T21:47:04.649Z</time>
      </trkpt>
      <trkpt lat="58.97927197627723" lon="12.47689395211637">
        <ele>66.81</ele>
        <time>2025-02-03T21:47:19.781Z</time>
      </trkpt>
      <trkpt lat="58.97920098155737" lon="12.476708963513374">
        <ele>66.4</ele>
        <time>2025-02-03T21:47:34.915Z</time>
      </trkpt>
      <trkpt lat="58.979127975180745" lon="12.476521963253617">
        <ele>65.99</ele>
        <time>2025-02-03T21:47:50.051Z</time>
      </trkpt>
      <trkpt lat="58.97905295714736" lon="12.476332951337099">
        <ele>65.58</ele>
        <time>2025-02-03T21:48:05.189Z</time>
      </trkpt>
      <trkpt lat="58.97897592745721" lon="12.476140921935439">
        <ele>65.17</ele>
        <time>2025-02-03T21:48:20.329Z</time>
      </trkpt>
      <trkpt lat="58.9788989815861" lon="12.475943947210908">
        <ele>64.77</ele>
        <time>2025-02-03T21:48:35.471Z</time>
      </trkpt>
      <trkpt lat="58.97882094606757" lon="12.475745966657996">
        <ele>64.36</ele>
        <time>2025-02-03T21:48:50.615Z</time>
      </trkpt>
      <trkpt lat="58.978740982711315" lon="12.475545974448323">
        <ele>63.96</ele>
        <time>2025-02-03T21:49:05.761Z</time>
      </trkpt>
      <trkpt lat="58.97866093553603" lon="12.47534397058189">
        <ele>63.56</ele>
        <time>2025-02-03T21:49:20.909Z</time>
      </trkpt>
      <trkpt lat="58.97858097217977" lon="12.475140960887074">
        <ele>63.16</ele>
        <time>2025-02-03T21:49:36.060Z</time>
      </trkpt>
      <trkpt lat="58.97849899716675" lon="12.474935939535499">
        <ele>62.76</ele>
        <time>2025-02-03T21:49:51.213Z</time>
      </trkpt>
      <trkpt lat="58.9784169383347" lon="12.474729996174574">
        <ele>62.37</ele>
        <time>2025-02-03T21:50:06.368Z</time>
      </trkpt>
      <trkpt lat="58.978334963321686" lon="12.474520951509476">
        <ele>61.98</ele>
        <time>2025-02-03T21:50:21.525Z</time>
      </trkpt>
      <trkpt lat="58.97825198248029" lon="12.474310984835029">
        <ele>61.59</ele>
        <time>2025-02-03T21:50:36.684Z</time>
      </trkpt>
      <trkpt lat="58.97816799581051" lon="12.474097916856408">
        <ele>61.21</ele>
        <time>2025-02-03T21:50:51.845Z</time>
      </trkpt>
      <trkpt lat="58.97808291949332" lon="12.473882921040058">
        <ele>60.84</ele>
        <time>2025-02-03T21:51:07.009Z</time>
      </trkpt>
      <trkpt lat="58.97799792699516" lon="12.473667925223708">
        <ele>60.47</ele>
        <time>2025-02-03T21:51:22.175Z</time>
      </trkpt>
      <trkpt lat="58.97791092284024" lon="12.47345494106412">
        <ele>60.12</ele>
        <time>2025-02-03T21:51:37.343Z</time>
      </trkpt>
      <trkpt lat="58.97782391868532" lon="12.47323994524777">
        <ele>59.76</ele>
        <time>2025-02-03T21:51:52.513Z</time>
      </trkpt>
      <trkpt lat="58.97773599252105" lon="12.4730259552598">
        <ele>59.4</ele>
        <time>2025-02-03T21:52:07.686Z</time>
      </trkpt>
      <trkpt lat="58.97764898836613" lon="12.472815988585353">
        <ele>59.05</ele>
        <time>2025-02-03T21:52:22.861Z</time>
      </trkpt>
      <trkpt lat="58.97756692953408" lon="12.472603926435113">
        <ele>58.7</ele>
        <time>2025-02-03T21:52:38.038Z</time>
      </trkpt>
      <trkpt lat="58.97748394869268" lon="12.472388930618763">
        <ele>58.35</ele>
        <time>2025-02-03T21:52:53.217Z</time>
      </trkpt>
      <trkpt lat="58.97740096785128" lon="12.472174940630794">
        <ele>58.0</ele>
        <time>2025-02-03T21:53:08.399Z</time>
      </trkpt>
      <trkpt lat="58.97731899283826" lon="12.471961956471205">
        <ele>57.66</ele>
        <time>2025-02-03T21:53:23.583Z</time>
      </trkpt>
      <trkpt lat="58.977237939834595" lon="12.471750983968377">
        <ele>57.32</ele>
        <time>2025-02-03T21:53:38.769Z</time>
      </trkpt>
      <trkpt lat="58.97715898230672" lon="12.471540933474898">
        <ele>56.98</ele>
        <time>2025-02-03T21:53:53.957Z</time>
      </trkpt>
      <trkpt lat="58.97708094678819" lon="12.471337923780084">
        <ele>56.65</ele>
        <time>2025-02-03T21:54:09.147Z</time>
      </trkpt>
      <trkpt lat="58.977004922926426" lon="12.47113793157041">
        <ele>56.32</ele>
        <time>2025-02-03T21:54:24.339Z</time>
      </trkpt>
      <trkpt lat="58.97692697122693" lon="12.47094095684588">
        <ele>56.0</ele>
        <time>2025-02-03T21:54:39.533Z</time>
      </trkpt>
      <trkpt lat="58.976849941536784" lon="12.470752950757742">
        <ele>55.68</ele>
        <time>2025-02-03T21:54:54.729Z</time>
      </trkpt>
      <trkpt lat="58.97677299566567" lon="12.470570979639888">
        <ele>55.38</ele>
        <time>2025-02-03T21:55:09.927Z</time>
      </trkpt>
      <trkpt lat="58.976696971803904" lon="12.470395965501666">
        <ele>55.07</ele>
        <time>2025-02-03T21:55:25.127Z</time>
      </trkpt>
      <trkpt lat="58.976617930456996" lon="12.470224974676967">
        <ele>54.77</ele>
        <time>2025-02-03T21:55:40.329Z</time>
      </trkpt>
      <trkpt lat="58.97653796710074" lon="12.470058929175138">
        <ele>54.49</ele>
        <time>2025-02-03T21:55:55.533Z</time>
      </trkpt>
      <trkpt lat="58.97645791992545" lon="12.469895984977484">
        <ele>54.2</ele>
        <time>2025-02-03T21:56:10.739Z</time>
      </trkpt>
      <trkpt lat="58.976375944912434" lon="12.4697379861027">
        <ele>53.91</ele>
        <time>2025-02-03T21:56:25.947Z</time>
      </trkpt>
      <trkpt lat="58.976292964071035" lon="12.469583926722407">
        <ele>53.64</ele>
        <time>2025-02-03T21:56:41.156Z</time>
      </trkpt>
      <trkpt lat="58.97621098905802" lon="12.469431962817907">
        <ele>53.36</ele>
        <time>2025-02-03T21:56:56.367Z</time>
      </trkpt>
      <trkpt lat="58.97613094188273" lon="12.46928796172142">
        <ele>53.1</ele>
        <time>2025-02-03T21:57:11.580Z</time>
      </trkpt>
      <trkpt lat="58.97604796104133" lon="12.469147983938456">
        <ele>52.84</ele>
        <time>2025-02-03T21:57:26.795Z</time>
      </trkpt>
      <trkpt lat="58.975965986028314" lon="12.469011945649981">
        <ele>52.58</ele>
        <time>2025-02-03T21:57:42.012Z</time>
      </trkpt>
      <trkpt lat="58.975884933024645" lon="12.468881942331791">
        <ele>52.33</ele>
        <time>2025-02-03T21:57:57.230Z</time>
      </trkpt>
      <trkpt lat="58.97580195218325" lon="12.468755962327123">
        <ele>52.08</ele>
        <time>2025-02-03T21:58:12.450Z</time>
      </trkpt>
      <trkpt lat="58.97571997717023" lon="12.468630988150835">
        <ele>51.84</ele>
        <time>2025-02-03T21:58:27.672Z</time>
      </trkpt>
      <trkpt lat="58.97563791833818" lon="12.46851297095418">
        <ele>51.61</ele>
        <time>2025-02-03T21:58:42.895Z</time>
      </trkpt>
      <trkpt lat="58.97555493749678" lon="12.468399982899427">
        <ele>51.38</ele>
        <time>2025-02-03T21:58:58.120Z</time>
      </trkpt>
      <trkpt lat="58.975472962483764" lon="12.468290934339166">
        <ele>51.16</ele>
        <time>2025-02-03T21:59:13.346Z</time>
      </trkpt>
      <trkpt lat="58.97539492696524" lon="12.468185992911458">
        <ele>50.94</ele>
        <time>2025-02-03T21:59:28.574Z</time>
      </trkpt>
      <trkpt lat="58.97531999275088" lon="12.468084990978241">
        <ele>50.72</ele>
        <time>2025-02-03T21:59:43.803Z</time>
      </trkpt>
      <trkpt lat="58.97524698637426" lon="12.467985916882753">
        <ele>50.51</ele>
        <time>2025-02-03T21:59:59.034Z</time>
      </trkpt>
      <trkpt lat="58.97517699748278" lon="12.467887932434678">
        <ele>50.31</ele>
        <time>2025-02-03T22:00:14.266Z</time>
      </trkpt>
      <trkpt lat="58.97510591894388" lon="12.467794977128506">
        <ele>50.11</ele>
        <time>2025-02-03T22:00:29.500Z</time>
      </trkpt>
      <trkpt lat="58.97503693588078" lon="12.467704955488443">
        <ele>49.92</ele>
        <time>2025-02-03T22:00:44.735Z</time>
      </trkpt>
      <trkpt lat="58.97497097030282" lon="12.467619962990284">
        <ele>49.73</ele>
        <time>2025-02-03T22:00:59.971Z</time>
      </trkpt>
      <trkpt lat="58.97490894421935" lon="12.467537987977266">
        <ele>49.55</ele>
        <time>2025-02-03T22:01:15.208Z</time>
      </trkpt>
      <trkpt lat="58.97484792396426" lon="12.467455929145217">
        <ele>49.37</ele>
        <time>2025-02-03T22:01:30.447Z</time>
      </trkpt>
      <trkpt lat="58.974786987528205" lon="12.4673739541322">
        <ele>49.2</ele>
        <time>2025-02-03T22:01:45.687Z</time>
      </trkpt>
      <trkpt lat="58.974724961444736" lon="12.467291979119182">
        <ele>49.03</ele>
        <time>2025-02-03T22:02:00.928Z</time>
      </trkpt>
      <trkpt lat="58.97466394118965" lon="12.467212937772274">
        <ele>48.86</ele>
        <time>2025-02-03T22:02:16.170Z</time>
      </trkpt>
      <trkpt lat="58.97460392676294" lon="12.467133980244398">
        <ele>48.71</ele>
        <time>2025-02-03T22:02:31.413Z</time>
      </trkpt>
      <trkpt lat="58.97454491816461" lon="12.46705393306911">
        <ele>48.56</ele>
        <time>2025-02-03T22:02:46.658Z</time>
      </trkpt>
      <trkpt lat="58.974484987556934" lon="12.466972963884473">
        <ele>48.41</ele>
        <time>2025-02-03T22:03:01.904Z</time>
      </trkpt>
      <trkpt lat="58.974422961473465" lon="12.466891994699836">
        <ele>48.28</ele>
        <time>2025-02-03T22:03:17.151Z</time>
      </trkpt>
      <trkpt lat="58.974360935389996" lon="12.466810941696167">
        <ele>48.14</ele>
        <time>2025-02-03T22:03:32.399Z</time>
      </trkpt>
      <trkpt lat="58.97429999895394" lon="12.46672896668315">
        <ele>48.01</ele>
        <time>2025-02-03T22:03:47.648Z</time>
      </trkpt>
      <trkpt lat="58.97423998452723" lon="12.466645985841751">
        <ele>47.89</ele>
        <time>2025-02-03T22:04:02.898Z</time>
      </trkpt>
      <trkpt lat="58.97417997010052" lon="12.466563927009702">
        <ele>47.77</ele>
        <time>2025-02-03T22:04:18.150Z</time>
      </trkpt>
      <trkpt lat="58.97411894984543" lon="12.466481951996684">
        <ele>47.65</ele>
        <time>2025-02-03T22:04:33.403Z</time>
      </trkpt>
      <trkpt lat="58.974056923761964" lon="12.466398971155286">
        <ele>47.54</ele>
        <time>2025-02-03T22:04:48.657Z</time>
      </trkpt>
      <trkpt lat="58.973993975669146" lon="12.466316996142268">
        <ele>47.43</ele>
        <time>2025-02-03T22:05:03.912Z</time>
      </trkpt>
      <trkpt lat="58.973929937928915" lon="12.466234937310219">
        <ele>47.32</ele>
        <time>2025-02-03T22:05:19.168Z</time>
      </trkpt>
      <trkpt lat="58.973862966522574" lon="12.46614994481206">
        <ele>47.22</ele>
        <time>2025-02-03T22:05:34.426Z</time>
      </trkpt>
      <trkpt lat="58.97379691712558" lon="12.466058917343616">
        <ele>47.12</ele>
        <time>2025-02-03T22:05:49.685Z</time>
      </trkpt>
      <trkpt lat="58.973731957376" lon="12.465965962037444">
        <ele>47.03</ele>
        <time>2025-02-03T22:06:04.945Z</time>
      </trkpt>
      <trkpt lat="58.973666997626424" lon="12.465875940397382">
        <ele>46.94</ele>
        <time>2025-02-03T22:06:20.207Z</time>
      </trkpt>
      <trkpt lat="58.97360295988619" lon="12.4657869245857">
        <ele>46.86</ele>
        <time>2025-02-03T22:06:35.470Z</time>
      </trkpt>
      <trkpt lat="58.973541939631104" lon="12.465691957622766">
        <ele>46.79</ele>
        <time>2025-02-03T22:06:50.734Z</time>
      </trkpt>
      <trkpt lat="58.97348393686116" lon="12.465596990659833">
        <ele>46.72</ele>
        <time>2025-02-03T22:07:05.999Z</time>
      </trkpt>
      <trkpt lat="58.97342693991959" lon="12.465498922392726">
        <ele>46.65</ele>
        <time>2025-02-03T22:07:21.266Z</time>
      </trkpt>
      <trkpt lat="58.973370948806405" lon="12.465397920459509">
        <ele>46.59</ele>
        <time>2025-02-03T22:07:36.534Z</time>
      </trkpt>
      <trkpt lat="58.97331696934998" lon="12.465292979031801">
        <ele>46.53</ele>
        <time>2025-02-03T22:07:51.803Z</time>
      </trkpt>
      <trkpt lat="58.973262989893556" lon="12.4651859421283">
        <ele>46.48</ele>
        <time>2025-02-03T22:08:07.073Z</time>
      </trkpt>
      <trkpt lat="58.9732089266181" lon="12.46507697738707">
        <ele>46.43</ele>
        <time>2025-02-03T22:08:22.345Z</time>
      </trkpt>
      <trkpt lat="58.973156958818436" lon="12.464966922998428">
        <ele>46.38</ele>
        <time>2025-02-03T22:08:37.618Z</time>
      </trkpt>
      <trkpt lat="58.9731069188565" lon="12.464856952428818">
        <ele>46.35</ele>
        <time>2025-02-03T22:08:52.892Z</time>
      </trkpt>
      <trkpt lat="58.97306098602712" lon="12.464745976030827">
        <ele>46.32</ele>
        <time>2025-02-03T22:09:08.167Z</time>
      </trkpt>
      <trkpt lat="58.97301698103547" lon="12.464635921642184">
        <ele>46.29</ele>
        <time>2025-02-03T22:09:23.443Z</time>
      </trkpt>
      <trkpt lat="58.97297599352896" lon="12.464523939415812">
        <ele>46.26</ele>
        <time>2025-02-03T22:09:38.720Z</time>
      </trkpt>
      <trkpt lat="58.97293793968856" lon="12.464407933875918">
        <ele>46.24</ele>
        <time>2025-02-03T22:09:53.999Z</time>
      </trkpt>
      <trkpt lat="58.972898963838816" lon="12.464289916679263">
        <ele>46.23</ele>
        <time>2025-02-03T22:10:09.279Z</time>
      </trkpt>
      <trkpt lat="58.97286292165518" lon="12.464170977473259">
        <ele>46.22</ele>
        <time>2025-02-03T22:10:24.560Z</time>
      </trkpt>
      <trkpt lat="58.97282696329057" lon="12.464050948619843">
        <ele>46.22</ele>
        <time>2025-02-03T22:10:39.842Z</time>
      </trkpt>
      <trkpt lat="58.972792932763696" lon="12.463928991928697">
        <ele>46.23</ele>
        <time>2025-02-03T22:10:55.125Z</time>
      </trkpt>
      <trkpt lat="58.97275898605585" lon="12.463803933933377">
        <ele>46.24</ele>
        <time>2025-02-03T22:11:10.409Z</time>
      </trkpt>
      <trkpt lat="58.972726967185736" lon="12.463676948100328">
        <ele>46.25</ele>
        <time>2025-02-03T22:11:25.695Z</time>
      </trkpt>
      <trkpt lat="58.972695954144" lon="12.463546944782138">
        <ele>46.27</ele>
        <time>2025-02-03T22:11:40.982Z</time>
      </trkpt>
      <trkpt lat="58.97266594693065" lon="12.463413923978806">
        <ele>46.29</ele>
        <time>2025-02-03T22:11:56.270Z</time>
      </trkpt>
      <trkpt lat="58.972637951374054" lon="12.463281992822886">
        <ele>46.32</ele>
        <time>2025-02-03T22:12:11.559Z</time>
      </trkpt>
      <trkpt lat="58.97261096164584" lon="12.463148972019553">
        <ele>46.36</ele>
        <time>2025-02-03T22:12:26.849Z</time>
      </trkpt>
      <trkpt lat="58.97258698940277" lon="12.463012933731079">
        <ele>46.4</ele>
        <time>2025-02-03T22:12:42.140Z</time>
      </trkpt>
      <trkpt lat="58.97256293334067" lon="12.462871950119734">
        <ele>46.44</ele>
        <time>2025-02-03T22:12:57.433Z</time>
      </trkpt>
      <trkpt lat="58.97253996692598" lon="12.462728954851627">
        <ele>46.48</ele>
        <time>2025-02-03T22:13:12.727Z</time>
      </trkpt>
      <trkpt lat="58.9725199341774" lon="12.462580930441618">
        <ele>46.52</ele>
        <time>2025-02-03T22:13:28.022Z</time>
      </trkpt>
      <trkpt lat="58.97249998524785" lon="12.462429972365499">
        <ele>46.56</ele>
        <time>2025-02-03T22:13:43.319Z</time>
      </trkpt>
      <trkpt lat="58.97248196415603" lon="12.462275996804237">
        <ele>46.61</ele>
        <time>2025-02-03T22:13:58.617Z</time>
      </trkpt>
      <trkpt lat="58.972465954720974" lon="12.462117997929454">
        <ele>46.66</ele>
        <time>2025-02-03T22:14:13.916Z</time>
      </trkpt>
      <trkpt lat="58.97245195694268" lon="12.46195798739791">
        <ele>46.72</ele>
        <time>2025-02-03T22:14:29.216Z</time>
      </trkpt>
      <trkpt lat="58.97244097664952" lon="12.461793953552842">
        <ele>46.78</ele>
        <time>2025-02-03T22:14:44.518Z</time>
      </trkpt>
      <trkpt lat="58.9724319241941" lon="12.461627991870046">
        <ele>46.85</ele>
        <time>2025-02-03T22:14:59.821Z</time>
      </trkpt>
      <trkpt lat="58.972424967214465" lon="12.461457923054695">
        <ele>46.93</ele>
        <time>2025-02-03T22:15:15.126Z</time>
      </trkpt>
      <trkpt lat="58.97241993807256" lon="12.461283998563886">
        <ele>47.0</ele>
        <time>2025-02-03T22:15:30.432Z</time>
      </trkpt>
      <trkpt lat="58.97241692058742" lon="12.461106972768903">
        <ele>47.08</ele>
        <time>2025-02-03T22:15:45.740Z</time>
      </trkpt>
      <trkpt lat="58.97241599857807" lon="12.460923995822668">
        <ele>47.16</ele>
        <time>2025-02-03T22:16:01.049Z</time>
      </trkpt>
      <trkpt lat="58.9724179264158" lon="12.460732972249389">
        <ele>47.25</ele>
        <time>2025-02-03T22:16:16.360Z</time>
      </trkpt>
      <trkpt lat="58.97241993807256" lon="12.460532980039716">
        <ele>47.34</ele>
        <time>2025-02-03T22:16:31.672Z</time>
      </trkpt>
      <trkpt lat="58.972422955557704" lon="12.460324941202998">
        <ele>47.44</ele>
        <time>2025-02-03T22:16:46.986Z</time>
      </trkpt>
      <trkpt lat="58.972423961386085" lon="12.460107933729887">
        <ele>47.54</ele>
        <time>2025-02-03T22:17:02.302Z</time>
      </trkpt>
      <trkpt lat="58.972424967214465" lon="12.459884975105524">
        <ele>47.66</ele>
        <time>2025-02-03T22:17:17.620Z</time>
      </trkpt>
      <trkpt lat="58.972424967214465" lon="12.459657993167639">
        <ele>47.78</ele>
        <time>2025-02-03T22:17:32.940Z</time>
      </trkpt>
      <trkpt lat="58.972424967214465" lon="12.459427993744612">
        <ele>47.91</ele>
        <time>2025-02-03T22:17:48.261Z</time>
      </trkpt>
      <trkpt lat="58.97242094390094" lon="12.459195982664824">
        <ele>48.04</ele>
        <time>2025-02-03T22:18:03.584Z</time>
      </trkpt>
      <trkpt lat="58.97241096943617" lon="12.458961959928274">
        <ele>48.17</ele>
        <time>2025-02-03T22:18:18.909Z</time>
      </trkpt>
      <trkpt lat="58.97239797748625" lon="12.458728943020105">
        <ele>48.3</ele>
        <time>2025-02-03T22:18:34.236Z</time>
      </trkpt>
      <trkpt lat="58.972380962222815" lon="12.458497937768698">
        <ele>48.45</ele>
        <time>2025-02-03T22:18:49.565Z</time>
      </trkpt>
      <trkpt lat="58.972359923645854" lon="12.458270955830812">
        <ele>48.59</ele>
        <time>2025-02-03T22:19:04.896Z</time>
      </trkpt>
      <trkpt lat="58.97233595140278" lon="12.458046991378069">
        <ele>48.74</ele>
        <time>2025-02-03T22:19:20.229Z</time>
      </trkpt>
      <trkpt lat="58.97230695001781" lon="12.457825960591435">
        <ele>48.9</ele>
        <time>2025-02-03T22:19:35.564Z</time>
      </trkpt>
      <trkpt lat="58.972276942804456" lon="12.457610964775085">
        <ele>49.06</ele>
        <time>2025-02-03T22:19:50.901Z</time>
      </trkpt>
      <trkpt lat="58.97224492393434" lon="12.457401920109987">
        <ele>49.23</ele>
        <time>2025-02-03T22:20:06.240Z</time>
      </trkpt>
      <trkpt lat="58.972210977226496" lon="12.457198994234204">
        <ele>49.41</ele>
        <time>2025-02-03T22:20:21.580Z</time>
      </trkpt>
      <trkpt lat="58.971953988075256" lon="12.456090990453959">
        <ele>49.6</ele>
        <time>2025-02-03T22:20:36.930Z</time>
      </trkpt>
      <trkpt lat="58.97192792035639" lon="12.45600893162191">
        <ele>49.78</ele>
        <time>2025-02-03T22:20:52.281Z</time>
      </trkpt>
      <trkpt lat="58.97190193645656" lon="12.455927962437272">
        <ele>49.96</ele>
        <time>2025-02-03T22:21:07.633Z</time>
      </trkpt>
      <trkpt lat="58.97184896282852" lon="12.455765940248966">
        <ele>50.15</ele>
        <time>2025-02-03T22:21:22.987Z</time>
      </trkpt>
      <trkpt lat="58.97179498337209" lon="12.455609953030944">
        <ele>50.35</ele>
        <time>2025-02-03T22:21:38.342Z</time>
      </trkpt>
      <trkpt lat="58.97173999808729" lon="12.455461928620934">
        <ele>50.55</ele>
        <time>2025-02-03T22:21:53.699Z</time>
      </trkpt>
      <trkpt lat="58.97168593481183" lon="12.455318933352828">
        <ele>50.76</ele>
        <time>2025-02-03T22:22:09.057Z</time>
      </trkpt>
      <trkpt lat="58.971631955355406" lon="12.455183984711766">
        <ele>50.97</ele>
        <time>2025-02-03T22:22:24.417Z</time>
      </trkpt>
      <trkpt lat="58.97157797589898" lon="12.455056998878717">
        <ele>51.18</ele>
        <time>2025-02-03T22:22:39.778Z</time>
      </trkpt>
      <trkpt lat="58.971523996442556" lon="12.454938981682062">
        <ele>51.41</ele>
        <time>2025-02-03T22:22:55.140Z</time>
      </trkpt>
      <trkpt lat="58.9714699331671" lon="12.45482599362731">
        <ele>51.64</ele>
        <time>2025-02-03T22:23:10.503Z</time>
      </trkpt>
      <trkpt lat="58.971416959539056" lon="12.454716945067048">
        <ele>51.87</ele>
        <time>2025-02-03T22:23:25.868Z</time>
      </trkpt>
      <trkpt lat="58.97136398591101" lon="12.45461292564869">
        <ele>52.11</ele>
        <time>2025-02-03T22:23:41.234Z</time>
      </trkpt>
      <trkpt lat="58.971311934292316" lon="12.454514941200614">
        <ele>52.36</ele>
        <time>2025-02-03T22:23:56.601Z</time>
      </trkpt>
      <trkpt lat="58.97125896066427" lon="12.454423997551203">
        <ele>52.61</ele>
        <time>2025-02-03T22:24:11.969Z</time>
      </trkpt>
      <trkpt lat="58.97120598703623" lon="12.454334981739521">
        <ele>52.86</ele>
        <time>2025-02-03T22:24:27.338Z</time>
      </trkpt>
      <trkpt lat="58.97115494124591" lon="12.454249989241362">
        <ele>53.11</ele>
        <time>2025-02-03T22:24:42.708Z</time>
      </trkpt>
      <trkpt lat="58.97110397927463" lon="12.454168936237693">
        <ele>53.37</ele>
        <time>2025-02-03T22:24:58.079Z</time>
      </trkpt>
      <trkpt lat="58.9710539393127" lon="12.454091990366578">
        <ele>53.63</ele>
        <time>2025-02-03T22:25:13.452Z</time>
      </trkpt>
      <trkpt lat="58.971005994826555" lon="12.454017978161573">
        <ele>53.89</ele>
        <time>2025-02-03T22:25:28.825Z</time>
      </trkpt>
      <trkpt lat="58.970956960693" lon="12.453948995098472">
        <ele>54.16</ele>
        <time>2025-02-03T22:25:44.199Z</time>
      </trkpt>
      <trkpt lat="58.97090792655945" lon="12.45388294570148">
        <ele>54.43</ele>
        <time>2025-02-03T22:25:59.574Z</time>
      </trkpt>
      <trkpt lat="58.97085897624493" lon="12.4538179859519">
        <ele>54.71</ele>
        <time>2025-02-03T22:26:14.950Z</time>
      </trkpt>
      <trkpt lat="58.970811953768134" lon="12.453756965696812">
        <ele>54.99</ele>
        <time>2025-02-03T22:26:30.327Z</time>
      </trkpt>
      <trkpt lat="58.97076593711972" lon="12.453699968755245">
        <ele>55.28</ele>
        <time>2025-02-03T22:26:45.705Z</time>
      </trkpt>
      <trkpt lat="58.97071899846196" lon="12.453646995127201">
        <ele>55.57</ele>
        <time>2025-02-03T22:27:01.084Z</time>
      </trkpt>
      <trkpt lat="58.97067197598517" lon="12.453594943508506">
        <ele>55.86</ele>
        <time>2025-02-03T22:27:16.464Z</time>
      </trkpt>
      <trkpt lat="58.97062797099352" lon="12.453542975708842">
        <ele>56.15</ele>
        <time>2025-02-03T22:27:31.845Z</time>
      </trkpt>
      <trkpt lat="58.97058396600187" lon="12.453492935746908">
        <ele>56.45</ele>
        <time>2025-02-03T22:27:47.227Z</time>
      </trkpt>
      <trkpt lat="58.97053996101022" lon="12.453445997089148">
        <ele>56.75</ele>
        <time>2025-02-03T22:28:02.609Z</time>
      </trkpt>
      <trkpt lat="58.970493944361806" lon="12.453401992097497">
        <ele>57.06</ele>
        <time>2025-02-03T22:28:17.992Z</time>
      </trkpt>
      <trkpt lat="58.970448933541775" lon="12.453357987105846">
        <ele>57.37</ele>
        <time>2025-02-03T22:28:33.376Z</time>
      </trkpt>
      <trkpt lat="58.970403922721744" lon="12.453315993770957">
        <ele>57.67</ele>
        <time>2025-02-03T22:28:48.761Z</time>
      </trkpt>
      <trkpt lat="58.970358995720744" lon="12.453273916617036">
        <ele>57.98</ele>
        <time>2025-02-03T22:29:04.147Z</time>
      </trkpt>
      <trkpt lat="58.97031297907233" lon="12.45323795825243">
        <ele>58.3</ele>
        <time>2025-02-03T22:29:19.533Z</time>
      </trkpt>
      <trkpt lat="58.97026696242392" lon="12.453202921897173">
        <ele>58.61</ele>
        <time>2025-02-03T22:29:34.920Z</time>
      </trkpt>
      <trkpt lat="58.97022094577551" lon="12.453166963532567">
        <ele>58.93</ele>
        <time>2025-02-03T22:29:50.308Z</time>
      </trkpt>
      <trkpt lat="58.9701749291271" lon="12.45312999933958">
        <ele>59.25</ele>
        <time>2025-02-03T22:30:05.697Z</time>
      </trkpt>
      <trkpt lat="58.97012899629772" lon="12.453095968812704">
        <ele>59.57</ele>
        <time>2025-02-03T22:30:21.087Z</time>
      </trkpt>
      <trkpt lat="58.970083985477686" lon="12.453061938285828">
        <ele>59.89</ele>
        <time>2025-02-03T22:30:36.477Z</time>
      </trkpt>
      <trkpt lat="58.970038974657655" lon="12.453028997406363">
        <ele>60.22</ele>
        <time>2025-02-03T22:30:51.868Z</time>
      </trkpt>
      <trkpt lat="58.969993963837624" lon="12.452996978536248">
        <ele>60.55</ele>
        <time>2025-02-03T22:31:07.260Z</time>
      </trkpt>
      <trkpt lat="58.96994895301759" lon="12.452966971322894">
        <ele>60.88</ele>
        <time>2025-02-03T22:31:22.653Z</time>
      </trkpt>
      <trkpt lat="58.96990595385432" lon="12.45293595828116">
        <ele>61.21</ele>
        <time>2025-02-03T22:31:38.046Z</time>
      </trkpt>
      <trkpt lat="58.96986194886267" lon="12.452903939411044">
        <ele>61.54</ele>
        <time>2025-02-03T22:31:53.440Z</time>
      </trkpt>
      <trkpt lat="58.96981693804264" lon="12.45287393219769">
        <ele>61.87</ele>
        <time>2025-02-03T22:32:08.835Z</time>
      </trkpt>
      <trkpt lat="58.96977192722261" lon="12.452844930812716">
        <ele>62.21</ele>
        <time>2025-02-03T22:32:24.231Z</time>
      </trkpt>
      <trkpt lat="58.96972691640258" lon="12.452812995761633">
        <ele>62.54</ele>
        <time>2025-02-03T22:32:39.627Z</time>
      </trkpt>
      <trkpt lat="58.9696809835732" lon="12.452781982719898">
        <ele>62.88</ele>
        <time>2025-02-03T22:32:55.024Z</time>
      </trkpt>
      <trkpt lat="58.96963496692479" lon="12.452749963849783">
        <ele>63.22</ele>
        <time>2025-02-03T22:33:10.422Z</time>
      </trkpt>
      <trkpt lat="58.969588950276375" lon="12.452717944979668">
        <ele>63.55</ele>
        <time>2025-02-03T22:33:25.821Z</time>
      </trkpt>
      <trkpt lat="58.969543939456344" lon="12.452685926109552">
        <ele>63.89</ele>
        <time>2025-02-03T22:33:41.221Z</time>
      </trkpt>
      <trkpt lat="58.96949993446469" lon="12.45265499688685">
        <ele>64.23</ele>
        <time>2025-02-03T22:33:56.621Z</time>
      </trkpt>
      <trkpt lat="58.96945492364466" lon="12.452625995501876">
        <ele>64.57</ele>
        <time>2025-02-03T22:34:12.022Z</time>
      </trkpt>
      <trkpt lat="58.96941091865301" lon="12.452598921954632">
        <ele>64.91</ele>
        <time>2025-02-03T22:34:27.424Z</time>
      </trkpt>
      <trkpt lat="58.96936699748039" lon="12.452570926398039">
        <ele>65.25</ele>
        <time>2025-02-03T22:34:42.827Z</time>
      </trkpt>
      <trkpt lat="58.96932299248874" lon="12.452539997175336">
        <ele>65.59</ele>
        <time>2025-02-03T22:34:58.230Z</time>
      </trkpt>
      <trkpt lat="58.96927898749709" lon="12.45250697247684">
        <ele>65.93</ele>
        <time>2025-02-03T22:35:13.634Z</time>
      </trkpt>
      <trkpt lat="58.96923498250544" lon="12.452474953606725">
        <ele>66.28</ele>
        <time>2025-02-03T22:35:29.039Z</time>
      </trkpt>
      <trkpt lat="58.96919097751379" lon="12.45244394056499">
        <ele>66.62</ele>
        <time>2025-02-03T22:35:44.445Z</time>
      </trkpt>
      <trkpt lat="58.96914797835052" lon="12.452414939180017">
        <ele>66.96</ele>
        <time>2025-02-03T22:35:59.851Z</time>
      </trkpt>
      <trkpt lat="58.96910699084401" lon="12.452383926138282">
        <ele>67.3</ele>
        <time>2025-02-03T22:36:15.258Z</time>
      </trkpt>
      <trkpt lat="58.96906499750912" lon="12.452350985258818">
        <ele>67.65</ele>
        <time>2025-02-03T22:36:30.666Z</time>
      </trkpt>
      <trkpt lat="58.9690229203552" lon="12.452318966388702">
        <ele>67.99</ele>
        <time>2025-02-03T22:36:46.074Z</time>
      </trkpt>
      <trkpt lat="58.96898293867707" lon="12.452287953346968">
        <ele>68.33</ele>
        <time>2025-02-03T22:37:01.483Z</time>
      </trkpt>
      <trkpt lat="58.96894094534218" lon="12.452257946133614">
        <ele>68.67</ele>
        <time>2025-02-03T22:37:16.893Z</time>
      </trkpt>
      <trkpt lat="58.96889794617891" lon="12.45222894474864">
        <ele>69.01</ele>
        <time>2025-02-03T22:37:32.304Z</time>
      </trkpt>
      <trkpt lat="58.968857964500785" lon="12.452199943363667">
        <ele>69.35</ele>
        <time>2025-02-03T22:37:47.715Z</time>
      </trkpt>
      <trkpt lat="58.96881898865104" lon="12.452168930321932">
        <ele>69.69</ele>
        <time>2025-02-03T22:38:03.127Z</time>
      </trkpt>
      <trkpt lat="58.96877892315388" lon="12.452140934765339">
        <ele>70.02</ele>
        <time>2025-02-03T22:38:18.540Z</time>
      </trkpt>
      <trkpt lat="58.96873994730413" lon="12.452112939208746">
        <ele>70.36</ele>
        <time>2025-02-03T22:38:33.953Z</time>
      </trkpt>
      <trkpt lat="58.96870097145438" lon="12.452084943652153">
        <ele>70.69</ele>
        <time>2025-02-03T22:38:49.367Z</time>
      </trkpt>
      <trkpt lat="58.96865998394787" lon="12.45205694809556">
        <ele>71.02</ele>
        <time>2025-02-03T22:39:04.782Z</time>
      </trkpt>
      <trkpt lat="58.968618996441364" lon="12.452030964195728">
        <ele>71.35</ele>
        <time>2025-02-03T22:39:20.197Z</time>
      </trkpt>
      <trkpt lat="58.96857691928744" lon="12.452004980295897">
        <ele>71.68</ele>
        <time>2025-02-03T22:39:35.613Z</time>
      </trkpt>
      <trkpt lat="58.968535931780934" lon="12.451976984739304">
        <ele>72.0</ele>
        <time>2025-02-03T22:39:51.030Z</time>
      </trkpt>
      <trkpt lat="58.968495950102806" lon="12.45194798335433">
        <ele>72.33</ele>
        <time>2025-02-03T22:40:06.447Z</time>
      </trkpt>
      <trkpt lat="58.9684549625963" lon="12.451917976140976">
        <ele>72.65</ele>
        <time>2025-02-03T22:40:21.865Z</time>
      </trkpt>
      <trkpt lat="58.96841296926141" lon="12.451887968927622">
        <ele>72.97</ele>
        <time>2025-02-03T22:40:37.284Z</time>
      </trkpt>
      <trkpt lat="58.96836997009814" lon="12.451859973371029">
        <ele>73.29</ele>
        <time>2025-02-03T22:40:52.704Z</time>
      </trkpt>
      <trkpt lat="58.96832797676325" lon="12.451832983642817">
        <ele>73.61</ele>
        <time>2025-02-03T22:41:08.124Z</time>
      </trkpt>
      <trkpt lat="58.96828598342836" lon="12.451806999742985">
        <ele>73.93</ele>
        <time>2025-02-03T22:41:23.545Z</time>
      </trkpt>
      <trkpt lat="58.96824399009347" lon="12.45177892036736">
        <ele>74.24</ele>
        <time>2025-02-03T22:41:38.967Z</time>
      </trkpt>
      <trkpt lat="58.96820291876793" lon="12.451750924810767">
        <ele>74.55</ele>
        <time>2025-02-03T22:41:54.389Z</time>
      </trkpt>
      <trkpt lat="58.96816193126142" lon="12.451724940910935">
        <ele>74.86</ele>
        <time>2025-02-03T22:42:09.812Z</time>
      </trkpt>
      <trkpt lat="58.96811993792653" lon="12.451696945354342">
        <ele>75.17</ele>
        <time>2025-02-03T22:42:25.236Z</time>
      </trkpt>
      <trkpt lat="58.96807794459164" lon="12.451667943969369">
        <ele>75.48</ele>
        <time>2025-02-03T22:42:40.661Z</time>
      </trkpt>
      <trkpt lat="58.96803494542837" lon="12.451640954241157">
        <ele>75.78</ele>
        <time>2025-02-03T22:42:56.086Z</time>
      </trkpt>
      <trkpt lat="58.96799395792186" lon="12.451612958684564">
        <ele>76.08</ele>
        <time>2025-02-03T22:43:11.512Z</time>
      </trkpt>
      <trkpt lat="58.967953976243734" lon="12.45158496312797">
        <ele>76.38</ele>
        <time>2025-02-03T22:43:26.939Z</time>
      </trkpt>
      <trkpt lat="58.967915922403336" lon="12.451557973399758">
        <ele>76.68</ele>
        <time>2025-02-03T22:43:42.366Z</time>
      </trkpt>
      <trkpt lat="58.96787795238197" lon="12.451531989499927">
        <ele>76.98</ele>
        <time>2025-02-03T22:43:57.794Z</time>
      </trkpt>
      <trkpt lat="58.96783897653222" lon="12.451505921781063">
        <ele>77.27</ele>
        <time>2025-02-03T22:44:13.223Z</time>
      </trkpt>
      <trkpt lat="58.96780092269182" lon="12.45147893205285">
        <ele>77.56</ele>
        <time>2025-02-03T22:44:28.652Z</time>
      </trkpt>
      <trkpt lat="58.967760941013694" lon="12.451451942324638">
        <ele>77.84</ele>
        <time>2025-02-03T22:44:44.082Z</time>
      </trkpt>
      <trkpt lat="58.967720959335566" lon="12.451423946768045">
        <ele>78.13</ele>
        <time>2025-02-03T22:44:59.513Z</time>
      </trkpt>
      <trkpt lat="58.96768198348582" lon="12.451395951211452">
        <ele>78.41</ele>
        <time>2025-02-03T22:45:14.944Z</time>
      </trkpt>
      <trkpt lat="58.9676449354738" lon="12.45136795565486">
        <ele>78.69</ele>
        <time>2025-02-03T22:45:30.376Z</time>
      </trkpt>
      <trkpt lat="58.967608977109194" lon="12.451341971755028">
        <ele>78.96</ele>
        <time>2025-02-03T22:45:45.809Z</time>
      </trkpt>
      <trkpt lat="58.96757394075394" lon="12.451318921521306">
        <ele>79.23</ele>
        <time>2025-02-03T22:46:01.242Z</time>
      </trkpt>
      <trkpt lat="58.96753898821771" lon="12.451295955106616">
        <ele>79.5</ele>
        <time>2025-02-03T22:46:16.676Z</time>
      </trkpt>
      <trkpt lat="58.967504957690835" lon="12.451270977035165">
        <ele>79.76</ele>
        <time>2025-02-03T22:46:32.110Z</time>
      </trkpt>
      <trkpt lat="58.96746992133558" lon="12.451248932629824">
        <ele>80.03</ele>
        <time>2025-02-03T22:46:47.545Z</time>
      </trkpt>
      <trkpt lat="58.96743496879935" lon="12.451225966215134">
        <ele>80.28</ele>
        <time>2025-02-03T22:47:02.980Z</time>
      </trkpt>
      <trkpt lat="58.967399932444096" lon="12.451202999800444">
        <ele>80.54</ele>
        <time>2025-02-03T22:47:18.416Z</time>
      </trkpt>
      <trkpt lat="58.96736296825111" lon="12.45117793790996">
        <ele>80.79</ele>
        <time>2025-02-03T22:47:33.853Z</time>
      </trkpt>
      <trkpt lat="58.96732592023909" lon="12.45115295983851">
        <ele>81.03</ele>
        <time>2025-02-03T22:47:49.290Z</time>
      </trkpt>
      <trkpt lat="58.967288956046104" lon="12.451128987595439">
        <ele>81.27</ele>
        <time>2025-02-03T22:48:04.728Z</time>
      </trkpt>
      <trkpt lat="58.96725098602474" lon="12.451103925704956">
        <ele>81.51</ele>
        <time>2025-02-03T22:48:20.167Z</time>
      </trkpt>
      <trkpt lat="58.96721293218434" lon="12.451076935976744">
        <ele>81.74</ele>
        <time>2025-02-03T22:48:35.606Z</time>
      </trkpt>
      <trkpt lat="58.96717496216297" lon="12.45104793459177">
        <ele>81.96</ele>
        <time>2025-02-03T22:48:51.046Z</time>
      </trkpt>
      <trkpt lat="58.967137997969985" lon="12.451020944863558">
        <ele>82.19</ele>
        <time>2025-02-03T22:49:06.487Z</time>
      </trkpt>
      <trkpt lat="58.967098938301206" lon="12.450994960963726">
        <ele>82.4</ele>
        <time>2025-02-03T22:49:21.928Z</time>
      </trkpt>
      <trkpt lat="58.96705996245146" lon="12.450965959578753">
        <ele>82.62</ele>
        <time>2025-02-03T22:49:37.370Z</time>
      </trkpt>
      <trkpt lat="58.96702199243009" lon="12.45093796402216">
        <ele>82.83</ele>
        <time>2025-02-03T22:49:52.813Z</time>
      </trkpt>
      <trkpt lat="58.96698293276131" lon="12.450909968465567">
        <ele>83.03</ele>
        <time>2025-02-03T22:50:08.256Z</time>
      </trkpt>
      <trkpt lat="58.96694295108318" lon="12.450881972908974">
        <ele>83.24</ele>
        <time>2025-02-03T22:50:23.700Z</time>
      </trkpt>
      <trkpt lat="58.966902969405055" lon="12.45085397735238">
        <ele>83.43</ele>
        <time>2025-02-03T22:50:39.145Z</time>
      </trkpt>
      <trkpt lat="58.96686399355531" lon="12.450827993452549">
        <ele>83.62</ele>
        <time>2025-02-03T22:50:54.590Z</time>
      </trkpt>
      <trkpt lat="58.96682099439204" lon="12.450799997895956">
        <ele>83.81</ele>
        <time>2025-02-03T22:51:10.036Z</time>
      </trkpt>
      <trkpt lat="58.966774977743626" lon="12.450770996510983">
        <ele>83.99</ele>
        <time>2025-02-03T22:51:25.483Z</time>
      </trkpt>
      <trkpt lat="58.966728961095214" lon="12.450739983469248">
        <ele>84.17</ele>
        <time>2025-02-03T22:51:40.930Z</time>
      </trkpt>
      <trkpt lat="58.96668093279004" lon="12.45070394128561">
        <ele>84.34</ele>
        <time>2025-02-03T22:51:56.378Z</time>
      </trkpt>
      <trkpt lat="58.9666329883039" lon="12.450666977092624">
        <ele>84.5</ele>
        <time>2025-02-03T22:52:11.827Z</time>
      </trkpt>
      <trkpt lat="58.966581942513585" lon="12.450626995414495">
        <ele>84.66</ele>
        <time>2025-02-03T22:52:27.277Z</time>
      </trkpt>
      <trkpt lat="58.96652997471392" lon="12.450586929917336">
        <ele>84.82</ele>
        <time>2025-02-03T22:52:42.728Z</time>
      </trkpt>
      <trkpt lat="58.966477923095226" lon="12.450544936582446">
        <ele>84.96</ele>
        <time>2025-02-03T22:52:58.180Z</time>
      </trkpt>
      <trkpt lat="58.96642595529556" lon="12.450500931590796">
        <ele>85.1</ele>
        <time>2025-02-03T22:53:13.633Z</time>
      </trkpt>
      <trkpt lat="58.966368958353996" lon="12.450455920770764">
        <ele>85.24</ele>
        <time>2025-02-03T22:53:29.087Z</time>
      </trkpt>
      <trkpt lat="58.96631196141243" lon="12.450407976284623">
        <ele>85.37</ele>
        <time>2025-02-03T22:53:44.542Z</time>
      </trkpt>
      <trkpt lat="58.96625496447086" lon="12.45036095380783">
        <ele>85.49</ele>
        <time>2025-02-03T22:53:59.998Z</time>
      </trkpt>
      <trkpt lat="58.966196961700916" lon="12.450312925502658">
        <ele>85.61</ele>
        <time>2025-02-03T22:54:15.455Z</time>
      </trkpt>
      <trkpt lat="58.96613594144583" lon="12.450264981016517">
        <ele>85.73</ele>
        <time>2025-02-03T22:54:30.913Z</time>
      </trkpt>
      <trkpt lat="58.96607592701912" lon="12.450216952711344">
        <ele>85.84</ele>
        <time>2025-02-03T22:54:46.372Z</time>
      </trkpt>
      <trkpt lat="58.96601499058306" lon="12.45016892440617">
        <ele>85.95</ele>
        <time>2025-02-03T22:55:01.832Z</time>
      </trkpt>
      <trkpt lat="58.96595296449959" lon="12.450117962434888">
        <ele>86.05</ele>
        <time>2025-02-03T22:55:17.293Z</time>
      </trkpt>
      <trkpt lat="58.96588699892163" lon="12.450067922472954">
        <ele>86.14</ele>
        <time>2025-02-03T22:55:32.755Z</time>
      </trkpt>
      <trkpt lat="58.96582094952464" lon="12.450017966330051">
        <ele>86.23</ele>
        <time>2025-02-03T22:55:48.218Z</time>
      </trkpt>
      <trkpt lat="58.9657489489764" lon="12.449970943853259">
        <ele>86.32</ele>
        <time>2025-02-03T22:56:03.682Z</time>
      </trkpt>
      <trkpt lat="58.96567594259977" lon="12.449921993538737">
        <ele>86.4</ele>
        <time>2025-02-03T22:56:19.148Z</time>
      </trkpt>
      <trkpt lat="58.96560595370829" lon="12.449870947748423">
        <ele>86.47</ele>
        <time>2025-02-03T22:56:34.615Z</time>
      </trkpt>
      <trkpt lat="58.96553596481681" lon="12.4498219974339">
        <ele>86.55</ele>
        <time>2025-02-03T22:56:50.083Z</time>
      </trkpt>
      <trkpt lat="58.965462958440185" lon="12.449772963300347">
        <ele>86.61</ele>
        <time>2025-02-03T22:57:05.552Z</time>
      </trkpt>
      <trkpt lat="58.96538995206356" lon="12.449725940823555">
        <ele>86.67</ele>
        <time>2025-02-03T22:57:21.023Z</time>
      </trkpt>
      <trkpt lat="58.9653189573437" lon="12.449675984680653">
        <ele>86.73</ele>
        <time>2025-02-03T22:57:36.495Z</time>
      </trkpt>
      <trkpt lat="58.965246956795454" lon="12.449625944718719">
        <ele>86.79</ele>
        <time>2025-02-03T22:57:51.968Z</time>
      </trkpt>
      <trkpt lat="58.96517797373235" lon="12.449574982747436">
        <ele>86.84</ele>
        <time>2025-02-03T22:58:07.442Z</time>
      </trkpt>
      <trkpt lat="58.96510597318411" lon="12.449523936957121">
        <ele>86.89</ele>
        <time>2025-02-03T22:58:22.917Z</time>
      </trkpt>
      <trkpt lat="58.96503699012101" lon="12.449468951672316">
        <ele>86.94</ele>
        <time>2025-02-03T22:58:38.394Z</time>
      </trkpt>
      <trkpt lat="58.96496691741049" lon="12.44941497221589">
        <ele>86.98</ele>
        <time>2025-02-03T22:58:53.872Z</time>
      </trkpt>
      <trkpt lat="58.96489894017577" lon="12.449360992759466">
        <ele>87.01</ele>
        <time>2025-02-03T22:59:09.351Z</time>
      </trkpt>
      <trkpt lat="58.96482693962753" lon="12.44930692948401">
        <ele>87.04</ele>
        <time>2025-02-03T22:59:24.831Z</time>
      </trkpt>
      <trkpt lat="58.96475292742252" lon="12.449250938370824">
        <ele>87.06</ele>
        <time>2025-02-03T22:59:40.313Z</time>
      </trkpt>
      <trkpt lat="58.96467799320817" lon="12.4491969589144">
        <ele>87.07</ele>
        <time>2025-02-03T22:59:55.796Z</time>
      </trkpt>
      <trkpt lat="58.964603981003165" lon="12.449139961972833">
        <ele>87.09</ele>
        <time>2025-02-03T23:00:11.280Z</time>
      </trkpt>
      <trkpt lat="58.96452896296978" lon="12.449082965031266">
        <ele>87.09</ele>
        <time>2025-02-03T23:00:26.765Z</time>
      </trkpt>
      <trkpt lat="58.964455956593156" lon="12.44902697391808">
        <ele>87.09</ele>
        <time>2025-02-03T23:00:42.252Z</time>
      </trkpt>
      <trkpt lat="58.96438194438815" lon="12.448973916471004">
        <ele>87.08</ele>
        <time>2025-02-03T23:00:57.740Z</time>
      </trkpt>
      <trkpt lat="58.964305920526385" lon="12.4489189311862">
        <ele>87.06</ele>
        <time>2025-02-03T23:01:13.229Z</time>
      </trkpt>
      <trkpt lat="58.96422998048365" lon="12.448862940073013">
        <ele>87.05</ele>
        <time>2025-02-03T23:01:28.719Z</time>
      </trkpt>
      <trkpt lat="58.964151944965124" lon="12.448803931474686">
        <ele>87.02</ele>
        <time>2025-02-03T23:01:44.211Z</time>
      </trkpt>
      <trkpt lat="58.96407499909401" lon="12.448741989210248">
        <ele>87.0</ele>
        <time>2025-02-03T23:01:59.704Z</time>
      </trkpt>
      <trkpt lat="58.96399696357548" lon="12.448675939813256">
        <ele>86.97</ele>
        <time>2025-02-03T23:02:15.199Z</time>
      </trkpt>
      <trkpt lat="58.963915994390845" lon="12.448604945093393">
        <ele>86.93</ele>
        <time>2025-02-03T23:02:30.695Z</time>
      </trkpt>
      <trkpt lat="58.96384198218584" lon="12.448529927060008">
        <ele>86.9</ele>
        <time>2025-02-03T23:02:46.192Z</time>
      </trkpt>
      <trkpt lat="58.96377098746598" lon="12.44844795204699">
        <ele>86.86</ele>
        <time>2025-02-03T23:03:01.691Z</time>
      </trkpt>
      <trkpt lat="58.963698986917734" lon="12.44835994206369">
        <ele>86.82</ele>
        <time>2025-02-03T23:03:17.191Z</time>
      </trkpt>
      <trkpt lat="58.9636299200356" lon="12.448264975100756">
        <ele>86.77</ele>
        <time>2025-02-03T23:03:32.692Z</time>
      </trkpt>
      <trkpt lat="58.96356194280088" lon="12.44816699065268">
        <ele>86.73</ele>
        <time>2025-02-03T23:03:48.195Z</time>
      </trkpt>
      <trkpt lat="58.96349497139454" lon="12.448066994547844">
        <ele>86.68</ele>
        <time>2025-02-03T23:04:03.699Z</time>
      </trkpt>
      <trkpt lat="58.96343093365431" lon="12.447966998443007">
        <ele>86.63</ele>
        <time>2025-02-03T23:04:19.204Z</time>
      </trkpt>
      <trkpt lat="58.96336999721825" lon="12.44786599650979">
        <ele>86.58</ele>
        <time>2025-02-03T23:04:34.711Z</time>
      </trkpt>
      <trkpt lat="58.96330897696316" lon="12.447760971263051">
        <ele>86.52</ele>
        <time>2025-02-03T23:04:50.219Z</time>
      </trkpt>
      <trkpt lat="58.963250974193215" lon="12.44765393435955">
        <ele>86.46</ele>
        <time>2025-02-03T23:05:05.728Z</time>
      </trkpt>
      <trkpt lat="58.96319699473679" lon="12.44754295796156">
        <ele>86.4</ele>
        <time>2025-02-03T23:05:21.239Z</time>
      </trkpt>
      <trkpt lat="58.963145948946476" lon="12.447426952421665">
        <ele>86.33</ele>
        <time>2025-02-03T23:05:36.751Z</time>
      </trkpt>
      <trkpt lat="58.963096998631954" lon="12.44730499573052">
        <ele>86.26</ele>
        <time>2025-02-03T23:05:52.264Z</time>
      </trkpt>
      <trkpt lat="58.96304897032678" lon="12.447181949391961">
        <ele>86.18</ele>
        <time>2025-02-03T23:06:07.778Z</time>
      </trkpt>
      <trkpt lat="58.96300395950675" lon="12.447058986872435">
        <ele>86.11</ele>
        <time>2025-02-03T23:06:23.294Z</time>
      </trkpt>
      <trkpt lat="58.96295894868672" lon="12.446935940533876">
        <ele>86.03</ele>
        <time>2025-02-03T23:06:38.811Z</time>
      </trkpt>
      <trkpt lat="58.96291796118021" lon="12.446809960529208">
        <ele>85.95</ele>
        <time>2025-02-03T23:06:54.329Z</time>
      </trkpt>
      <trkpt lat="58.96287898533046" lon="12.446678951382637">
        <ele>85.86</ele>
        <time>2025-02-03T23:07:09.848Z</time>
      </trkpt>
      <trkpt lat="58.9628389198333" lon="12.446545930579305">
        <ele>85.77</ele>
        <time>2025-02-03T23:07:25.369Z</time>
      </trkpt>
      <trkpt lat="58.9628029614687" lon="12.446410981938243">
        <ele>85.68</ele>
        <time>2025-02-03T23:07:40.891Z</time>
      </trkpt>
      <trkpt lat="58.96276792511344" lon="12.446273937821388">
        <ele>85.59</ele>
        <time>2025-02-03T23:07:56.414Z</time>
      </trkpt>
      <trkpt lat="58.962735990062356" lon="12.446134965866804">
        <ele>85.49</ele>
        <time>2025-02-03T23:08:11.938Z</time>
      </trkpt>
      <trkpt lat="58.962705982849" lon="12.445989958941936">
        <ele>85.39</ele>
        <time>2025-02-03T23:08:27.464Z</time>
      </trkpt>
      <trkpt lat="58.96267597563565" lon="12.445839922875166">
        <ele>85.29</ele>
        <time>2025-02-03T23:08:42.991Z</time>
      </trkpt>
      <trkpt lat="58.962646974250674" lon="12.445685947313905">
        <ele>85.19</ele>
        <time>2025-02-03T23:08:58.519Z</time>
      </trkpt>
      <trkpt lat="58.96261897869408" lon="12.445527948439121">
        <ele>85.08</ele>
        <time>2025-02-03T23:09:14.049Z</time>
      </trkpt>
      <trkpt lat="58.96259098313749" lon="12.445365926250815">
        <ele>84.97</ele>
        <time>2025-02-03T23:09:29.580Z</time>
      </trkpt>
      <trkpt lat="58.962561981752515" lon="12.445199964568019">
        <ele>84.85</ele>
        <time>2025-02-03T23:09:45.113Z</time>
      </trkpt>
      <trkpt lat="58.96253096871078" lon="12.44502897374332">
        <ele>84.74</ele>
        <time>2025-02-03T23:10:00.647Z</time>
      </trkpt>
      <trkpt lat="58.962500961497426" lon="12.444854965433478">
        <ele>84.62</ele>
        <time>2025-02-03T23:10:16.183Z</time>
      </trkpt>
      <trkpt lat="58.96247196011245" lon="12.444674922153354">
        <ele>84.5</ele>
        <time>2025-02-03T23:10:31.720Z</time>
      </trkpt>
      <trkpt lat="58.9624419528991" lon="12.444484988227487">
        <ele>84.38</ele>
        <time>2025-02-03T23:10:47.259Z</time>
      </trkpt>
      <trkpt lat="58.962410939857364" lon="12.444286923855543">
        <ele>84.27</ele>
        <time>2025-02-03T23:11:02.800Z</time>
      </trkpt>
      <trkpt lat="58.96237992681563" lon="12.44408299215138">
        <ele>84.16</ele>
        <time>2025-02-03T23:11:18.342Z</time>
      </trkpt>
      <trkpt lat="58.96234396845102" lon="12.4438729416579">
        <ele>84.05</ele>
        <time>2025-02-03T23:11:33.886Z</time>
      </trkpt>
      <trkpt lat="58.962307926267385" lon="12.443658951669931">
        <ele>83.95</ele>
        <time>2025-02-03T23:11:49.432Z</time>
      </trkpt>
      <trkpt lat="58.9622709620744" lon="12.44344194419682">
        <ele>83.85</ele>
        <time>2025-02-03T23:12:04.980Z</time>
      </trkpt>
      <trkpt lat="58.96223299205303" lon="12.443217979744077">
        <ele>83.76</ele>
        <time>2025-02-03T23:12:20.530Z</time>
      </trkpt>
      <trkpt lat="58.962199967354536" lon="12.442984962835908">
        <ele>83.67</ele>
        <time>2025-02-03T23:12:36.082Z</time>
      </trkpt>
      <trkpt lat="58.96216593682766" lon="12.4427539575845">
        <ele>83.58</ele>
        <time>2025-02-03T23:12:51.636Z</time>
      </trkpt>
      <trkpt lat="58.96212796680629" lon="12.442520940676332">
        <ele>83.49</ele>
        <time>2025-02-03T23:13:07.192Z</time>
      </trkpt>
      <trkpt lat="58.962089996784925" lon="12.442289935424924">
        <ele>83.39</ele>
        <time>2025-02-03T23:13:22.750Z</time>
      </trkpt>
      <trkpt lat="58.96205294877291" lon="12.442057924345136">
        <ele>83.31</ele>
        <time>2025-02-03T23:13:38.310Z</time>
      </trkpt>
      <trkpt lat="58.96201799623668" lon="12.44183094240725">
        <ele>83.22</ele>
        <time>2025-02-03T23:13:53.872Z</time>
      </trkpt>
      <trkpt lat="58.961983965709805" lon="12.441610917448997">
        <ele>83.13</ele>
        <time>2025-02-03T23:14:09.436Z</time>
      </trkpt>
      <trkpt lat="58.96194599568844" lon="12.441386952996254">
        <ele>83.05</ele>
        <time>2025-02-03T23:14:25.002Z</time>
      </trkpt>
      <trkpt lat="58.96191095933318" lon="12.441175980493426">
        <ele>82.97</ele>
        <time>2025-02-03T23:14:40.570Z</time>
      </trkpt>
      <trkpt lat="58.961875922977924" lon="12.44096995331347">
        <ele>82.89</ele>
        <time>2025-02-03T23:14:56.139Z</time>
      </trkpt>
      <trkpt lat="58.96184398792684" lon="12.440771972760558">
        <ele>82.81</ele>
        <time>2025-02-03T23:15:11.710Z</time>
      </trkpt>
      <trkpt lat="58.961811969056726" lon="12.440579943358898">
        <ele>82.73</ele>
        <time>2025-02-03T23:15:27.283Z</time>
      </trkpt>
      <trkpt lat="58.96177995018661" lon="12.440393948927522">
        <ele>82.66</ele>
        <time>2025-02-03T23:15:42.857Z</time>
      </trkpt>
      <trkpt lat="58.961749942973256" lon="12.440215917304158">
        <ele>82.59</ele>
        <time>2025-02-03T23:15:58.433Z</time>
      </trkpt>
      <trkpt lat="58.96172094158828" lon="12.440041992813349">
        <ele>82.52</ele>
        <time>2025-02-03T23:16:14.010Z</time>
      </trkpt>
      <trkpt lat="58.96169294603169" lon="12.439872929826379">
        <ele>82.46</ele>
        <time>2025-02-03T23:16:29.589Z</time>
      </trkpt>
      <trkpt lat="58.9616649504751" lon="12.439705962315202">
        <ele>82.39</ele>
        <time>2025-02-03T23:16:45.169Z</time>
      </trkpt>
      <trkpt lat="58.961637960746884" lon="12.439541928470135">
        <ele>82.32</ele>
        <time>2025-02-03T23:17:00.751Z</time>
      </trkpt>
      <trkpt lat="58.96161197684705" lon="12.43937999010086">
        <ele>82.26</ele>
        <time>2025-02-03T23:17:16.334Z</time>
      </trkpt>
      <trkpt lat="58.96158498711884" lon="12.439217967912555">
        <ele>82.2</ele>
        <time>2025-02-03T23:17:31.919Z</time>
      </trkpt>
      <trkpt lat="58.96155891939998" lon="12.43905795738101">
        <ele>82.15</ele>
        <time>2025-02-03T23:17:47.505Z</time>
      </trkpt>
      <trkpt lat="58.961532935500145" lon="12.438896941021085">
        <ele>82.09</ele>
        <time>2025-02-03T23:18:03.092Z</time>
      </trkpt>
      <trkpt lat="58.96150493994355" lon="12.43873693048954">
        <ele>82.04</ele>
        <time>2025-02-03T23:18:18.681Z</time>
      </trkpt>
      <trkpt lat="58.96147795021534" lon="12.438576919957995">
        <ele>81.99</ele>
        <time>2025-02-03T23:18:34.271Z</time>
      </trkpt>
      <trkpt lat="58.96145196631551" lon="12.438414981588721">
        <ele>81.93</ele>
        <time>2025-02-03T23:18:49.863Z</time>
      </trkpt>
      <trkpt lat="58.96142698824406" lon="12.438250947743654">
        <ele>81.88</ele>
        <time>2025-02-03T23:19:05.456Z</time>
      </trkpt>
      <trkpt lat="58.961403938010335" lon="12.438085991889238">
        <ele>81.83</ele>
        <time>2025-02-03T23:19:21.050Z</time>
      </trkpt>
      <trkpt lat="58.961380971595645" lon="12.437916928902268">
        <ele>81.78</ele>
        <time>2025-02-03T23:19:36.646Z</time>
      </trkpt>
      <trkpt lat="58.961359933018684" lon="12.437744932249188">
        <ele>81.73</ele>
        <time>2025-02-03T23:19:52.243Z</time>
      </trkpt>
      <trkpt lat="58.961339984089136" lon="12.437573941424489">
        <ele>81.69</ele>
        <time>2025-02-03T23:20:07.842Z</time>
      </trkpt>
      <trkpt lat="58.96132095716894" lon="12.43740295059979">
        <ele>81.65</ele>
        <time>2025-02-03T23:20:23.442Z</time>
      </trkpt>
      <trkpt lat="58.96130193024874" lon="12.437234977260232">
        <ele>81.62</ele>
        <time>2025-02-03T23:20:39.044Z</time>
      </trkpt>
      <trkpt lat="58.96128298714757" lon="12.437069937586784">
        <ele>81.6</ele>
        <time>2025-02-03T23:20:54.647Z</time>
      </trkpt>
      <trkpt lat="58.96126496605575" lon="12.436908921226859">
        <ele>81.58</ele>
        <time>2025-02-03T23:21:10.251Z</time>
      </trkpt>
      <trkpt lat="58.961249962449074" lon="12.436752934008837">
        <ele>81.56</ele>
        <time>2025-02-03T23:21:25.857Z</time>
      </trkpt>
      <trkpt lat="58.96123596467078" lon="12.436602981761098">
        <ele>81.54</ele>
        <time>2025-02-03T23:21:41.464Z</time>
      </trkpt>
      <trkpt lat="58.96122196689248" lon="12.43645696900785">
        <ele>81.52</ele>
        <time>2025-02-03T23:21:57.072Z</time>
      </trkpt>
      <trkpt lat="58.961208974942565" lon="12.436312967911363">
        <ele>81.51</ele>
        <time>2025-02-03T23:22:12.681Z</time>
      </trkpt>
      <trkpt lat="58.96119598299265" lon="12.436169972643256">
        <ele>81.5</ele>
        <time>2025-02-03T23:22:28.292Z</time>
      </trkpt>
      <trkpt lat="58.961183996871114" lon="12.436028989031911">
        <ele>81.49</ele>
        <time>2025-02-03T23:22:43.904Z</time>
      </trkpt>
      <trkpt lat="58.96117293275893" lon="12.435887921601534">
        <ele>81.49</ele>
        <time>2025-02-03T23:22:59.517Z</time>
      </trkpt>
      <trkpt lat="58.96116195246577" lon="12.435746937990189">
        <ele>81.49</ele>
        <time>2025-02-03T23:23:15.131Z</time>
      </trkpt>
      <trkpt lat="58.96114996634424" lon="12.435606960207224">
        <ele>81.49</ele>
        <time>2025-02-03T23:23:30.746Z</time>
      </trkpt>
      <trkpt lat="58.96113898605108" lon="12.43546899408102">
        <ele>81.5</ele>
        <time>2025-02-03T23:23:46.363Z</time>
      </trkpt>
      <trkpt lat="58.961127921938896" lon="12.435332955792546">
        <ele>81.5</ele>
        <time>2025-02-03T23:24:01.981Z</time>
      </trkpt>
      <trkpt lat="58.96111593581736" lon="12.435196917504072">
        <ele>81.5</ele>
        <time>2025-02-03T23:24:17.600Z</time>
      </trkpt>
      <trkpt lat="58.961103949695826" lon="12.435064986348152">
        <ele>81.51</ele>
        <time>2025-02-03T23:24:33.220Z</time>
      </trkpt>
      <trkpt lat="58.96109397523105" lon="12.4349329713732">
        <ele>81.53</ele>
        <time>2025-02-03T23:24:48.841Z</time>
      </trkpt>
      <trkpt lat="58.961083916947246" lon="12.43480397388339">
        <ele>81.55</ele>
        <time>2025-02-03T23:25:04.463Z</time>
      </trkpt>
      <trkpt lat="58.96107293665409" lon="12.434676988050342">
        <ele>81.56</ele>
        <time>2025-02-03T23:25:20.086Z</time>
      </trkpt>
      <trkpt lat="58.961060950532556" lon="12.434556959196925">
        <ele>81.58</ele>
        <time>2025-02-03T23:25:35.710Z</time>
      </trkpt>
      <trkpt lat="58.96105298772454" lon="12.434432990849018">
        <ele>81.6</ele>
        <time>2025-02-03T23:25:51.335Z</time>
      </trkpt>
      <trkpt lat="58.96104292944074" lon="12.434307932853699">
        <ele>81.63</ele>
        <time>2025-02-03T23:26:06.961Z</time>
      </trkpt>
      <trkpt lat="58.96103194914758" lon="12.43418195284903">
        <ele>81.66</ele>
        <time>2025-02-03T23:26:22.588Z</time>
      </trkpt>
      <trkpt lat="58.96102197468281" lon="12.434056978672743">
        <ele>81.7</ele>
        <time>2025-02-03T23:26:38.216Z</time>
      </trkpt>
      <trkpt lat="58.96101099438965" lon="12.433934938162565">
        <ele>81.75</ele>
        <time>2025-02-03T23:26:53.845Z</time>
      </trkpt>
      <trkpt lat="58.960998924449086" lon="12.43381499312818">
        <ele>81.79</ele>
        <time>2025-02-03T23:27:09.475Z</time>
      </trkpt>
      <trkpt lat="58.96098593249917" lon="12.433694964274764">
        <ele>81.84</ele>
        <time>2025-02-03T23:27:25.106Z</time>
      </trkpt>
      <trkpt lat="58.96097092889249" lon="12.43357895873487">
        <ele>81.89</ele>
        <time>2025-02-03T23:27:40.738Z</time>
      </trkpt>
      <trkpt lat="58.96095793694258" lon="12.433458929881454">
        <ele>81.94</ele>
        <time>2025-02-03T23:27:56.371Z</time>
      </trkpt>
      <trkpt lat="58.96094494499266" lon="12.433337979018688">
        <ele>82.0</ele>
        <time>2025-02-03T23:28:12.005Z</time>
      </trkpt>
      <trkpt lat="58.960929941385984" lon="12.433217950165272">
        <ele>82.06</ele>
        <time>2025-02-03T23:28:27.641Z</time>
      </trkpt>
      <trkpt lat="58.960912926122546" lon="12.433097921311855">
        <ele>82.13</ele>
        <time>2025-02-03T23:28:43.278Z</time>
      </trkpt>
      <trkpt lat="58.96089398302138" lon="12.43297797627747">
        <ele>82.2</ele>
        <time>2025-02-03T23:28:58.916Z</time>
      </trkpt>
      <trkpt lat="58.96087193861604" lon="12.432856941595674">
        <ele>82.27</ele>
        <time>2025-02-03T23:29:14.555Z</time>
      </trkpt>
      <trkpt lat="58.960846960544586" lon="12.432735990732908">
        <ele>82.34</ele>
        <time>2025-02-03T23:29:30.195Z</time>
      </trkpt>
      <trkpt lat="58.96081695333123" lon="12.432617973536253">
        <ele>82.41</ele>
        <time>2025-02-03T23:29:45.836Z</time>
      </trkpt>
      <trkpt lat="58.96078694611788" lon="12.432497944682837">
        <ele>82.49</ele>
        <time>2025-02-03T23:30:01.478Z</time>
      </trkpt>
      <trkpt lat="58.960758950561285" lon="12.4323789216578">
        <ele>82.56</ele>
        <time>2025-02-03T23:30:17.121Z</time>
      </trkpt>
      <trkpt lat="58.96072894334793" lon="12.432258976623416">
        <ele>82.64</ele>
        <time>2025-02-03T23:30:32.765Z</time>
      </trkpt>
      <trkpt lat="58.960696924477816" lon="12.43213995359838">
        <ele>82.72</ele>
        <time>2025-02-03T23:30:48.410Z</time>
      </trkpt>
      <trkpt lat="58.96066197194159" lon="12.432021936401725">
        <ele>82.8</ele>
        <time>2025-02-03T23:31:04.056Z</time>
      </trkpt>
      <trkpt lat="58.96062299609184" lon="12.43190199136734">
        <ele>82.88</ele>
        <time>2025-02-03T23:31:19.704Z</time>
      </trkpt>
      <trkpt lat="58.96058393642306" lon="12.431779950857162">
        <ele>82.96</ele>
        <time>2025-02-03T23:31:35.353Z</time>
      </trkpt>
      <trkpt lat="58.96053993143141" lon="12.431655982509255">
        <ele>83.04</ele>
        <time>2025-02-03T23:31:51.003Z</time>
      </trkpt>
      <trkpt lat="58.96049098111689" lon="12.431531930342317">
        <ele>83.12</ele>
        <time>2025-02-03T23:32:06.654Z</time>
      </trkpt>
      <trkpt lat="58.96044094115496" lon="12.431405950337648">
        <ele>83.2</ele>
        <time>2025-02-03T23:32:22.307Z</time>
      </trkpt>
      <trkpt lat="58.96038696169853" lon="12.43127997033298">
        <ele>83.28</ele>
        <time>2025-02-03T23:32:37.961Z</time>
      </trkpt>
      <trkpt lat="58.960328958928585" lon="12.431157929822803">
        <ele>83.35</ele>
        <time>2025-02-03T23:32:53.616Z</time>
      </trkpt>
      <trkpt lat="58.960267938673496" lon="12.431035973131657">
        <ele>83.43</ele>
        <time>2025-02-03T23:33:09.273Z</time>
      </trkpt>
      <trkpt lat="58.96020297892392" lon="12.43091594427824">
        <ele>83.51</ele>
        <time>2025-02-03T23:33:24.931Z</time>
      </trkpt>
      <trkpt lat="58.960135923698545" lon="12.430797927081585">
        <ele>83.6</ele>
        <time>2025-02-03T23:33:40.591Z</time>
      </trkpt>
      <trkpt lat="58.96006694063544" lon="12.4306779820472">
        <ele>83.7</ele>
        <time>2025-02-03T23:33:56.252Z</time>
      </trkpt>
      <trkpt lat="58.95999795757234" lon="12.430558959022164">
        <ele>83.81</ele>
        <time>2025-02-03T23:34:11.915Z</time>
      </trkpt>
      <trkpt lat="58.95992696285248" lon="12.430438930168748">
        <ele>83.92</ele>
        <time>2025-02-03T23:34:27.579Z</time>
      </trkpt>
      <trkpt lat="58.959854962304235" lon="12.430319990962744">
        <ele>84.03</ele>
        <time>2025-02-03T23:34:43.245Z</time>
      </trkpt>
      <trkpt lat="58.95978195592761" lon="12.43020398542285">
        <ele>84.14</ele>
        <time>2025-02-03T23:34:58.912Z</time>
      </trkpt>
      <trkpt lat="58.959707943722606" lon="12.430083956569433">
        <ele>84.26</ele>
        <time>2025-02-03T23:35:14.581Z</time>
      </trkpt>
      <trkpt lat="58.95963292568922" lon="12.429962921887636">
        <ele>84.38</ele>
        <time>2025-02-03T23:35:30.251Z</time>
      </trkpt>
      <trkpt lat="58.95955799147487" lon="12.429842976853251">
        <ele>84.5</ele>
        <time>2025-02-03T23:35:45.923Z</time>
      </trkpt>
      <trkpt lat="58.95948599092662" lon="12.429725965484977">
        <ele>84.62</ele>
        <time>2025-02-03T23:36:01.596Z</time>
      </trkpt>
      <trkpt lat="58.95941792987287" lon="12.42960593663156">
        <ele>84.74</ele>
        <time>2025-02-03T23:36:17.271Z</time>
      </trkpt>
      <trkpt lat="58.95935196429491" lon="12.429485991597176">
        <ele>84.87</ele>
        <time>2025-02-03T23:36:32.947Z</time>
      </trkpt>
      <trkpt lat="58.9592869207263" lon="12.42936696857214">
        <ele>84.99</ele>
        <time>2025-02-03T23:36:48.625Z</time>
      </trkpt>
      <trkpt lat="58.95922497846186" lon="12.429245933890343">
        <ele>85.11</ele>
        <time>2025-02-03T23:37:04.304Z</time>
      </trkpt>
      <trkpt lat="58.95916395820677" lon="12.429119953885674">
        <ele>85.23</ele>
        <time>2025-02-03T23:37:19.985Z</time>
      </trkpt>
      <trkpt lat="58.959106961265206" lon="12.428991962224245">
        <ele>85.35</ele>
        <time>2025-02-03T23:37:35.667Z</time>
      </trkpt>
      <trkpt lat="58.95904795266688" lon="12.428863970562816">
        <ele>85.48</ele>
        <time>2025-02-03T23:37:51.350Z</time>
      </trkpt>
      <trkpt lat="58.95899196155369" lon="12.428733967244625">
        <ele>85.61</ele>
        <time>2025-02-03T23:38:07.035Z</time>
      </trkpt>
      <trkpt lat="58.95893798209727" lon="12.428603963926435">
        <ele>85.73</ele>
        <time>2025-02-03T23:38:22.721Z</time>
      </trkpt>
      <trkpt lat="58.958887942135334" lon="12.428470943123102">
        <ele>85.86</ele>
        <time>2025-02-03T23:38:38.408Z</time>
      </trkpt>
      <trkpt lat="58.95883999764919" lon="12.42833398282528">
        <ele>85.98</ele>
        <time>2025-02-03T23:38:54.097Z</time>
      </trkpt>
      <trkpt lat="58.95879599265754" lon="12.428196938708425">
        <ele>86.11</ele>
        <time>2025-02-03T23:39:09.787Z</time>
      </trkpt>
      <trkpt lat="58.95875592716038" lon="12.428058972582221">
        <ele>86.25</ele>
        <time>2025-02-03T23:39:25.478Z</time>
      </trkpt>
      <trkpt lat="58.958716951310635" lon="12.427921928465366">
        <ele>86.38</ele>
        <time>2025-02-03T23:39:41.171Z</time>
      </trkpt>
      <trkpt lat="58.95868199877441" lon="12.427787985652685">
        <ele>86.52</ele>
        <time>2025-02-03T23:39:56.865Z</time>
      </trkpt>
      <trkpt lat="58.958649979904294" lon="12.427656976506114">
        <ele>86.67</ele>
        <time>2025-02-03T23:40:12.560Z</time>
      </trkpt>
      <trkpt lat="58.9586219843477" lon="12.427532924339175">
        <ele>86.82</ele>
        <time>2025-02-03T23:40:28.256Z</time>
      </trkpt>
      <trkpt lat="58.95859893411398" lon="12.427413985133171">
        <ele>86.98</ele>
        <time>2025-02-03T23:40:43.953Z</time>
      </trkpt>
      <trkpt lat="58.95857898518443" lon="12.427301919087768">
        <ele>87.13</ele>
        <time>2025-02-03T23:40:59.651Z</time>
      </trkpt>
      <trkpt lat="58.95855995826423" lon="12.42719798348844">
        <ele>87.29</ele>
        <time>2025-02-03T23:41:15.350Z</time>
      </trkpt>
      <trkpt lat="58.958544954657555" lon="12.427102932706475">
        <ele>87.45</ele>
        <time>2025-02-03T23:41:31.050Z</time>
      </trkpt>
      <trkpt lat="58.95853095687926" lon="12.427012994885445">
        <ele>87.6</ele>
        <time>2025-02-03T23:41:46.751Z</time>
      </trkpt>
      <trkpt lat="58.95851796492934" lon="12.426924984902143">
        <ele>87.77</ele>
        <time>2025-02-03T23:42:02.453Z</time>
      </trkpt>
      <trkpt lat="58.95850698463619" lon="12.426837980747223">
        <ele>87.93</ele>
        <time>2025-02-03T23:42:18.155Z</time>
      </trkpt>
      <trkpt lat="58.95849692635238" lon="12.426758939400315">
        <ele>88.1</ele>
        <time>2025-02-03T23:42:33.858Z</time>
      </trkpt>
      <trkpt lat="58.95848695188761" lon="12.426682999357581">
        <ele>88.27</ele>
        <time>2025-02-03T23:42:49.562Z</time>
      </trkpt>
      <trkpt lat="58.95847697742283" lon="12.426609992980957">
        <ele>88.43</ele>
        <time>2025-02-03T23:43:05.266Z</time>
      </trkpt>
      <trkpt lat="58.95846993662417" lon="12.426540926098824">
        <ele>88.6</ele>
        <time>2025-02-03T23:43:20.971Z</time>
      </trkpt>
      <trkpt lat="58.9584649913013" lon="12.42646993137896">
        <ele>88.77</ele>
        <time>2025-02-03T23:43:36.677Z</time>
      </trkpt>
      <trkpt lat="58.958458956331015" lon="12.426399942487478">
        <ele>88.94</ele>
        <time>2025-02-03T23:43:52.383Z</time>
      </trkpt>
      <trkpt lat="58.95845493301749" lon="12.426330959424376">
        <ele>89.11</ele>
        <time>2025-02-03T23:44:08.090Z</time>
      </trkpt>
      <trkpt lat="58.95844998769462" lon="12.426262982189655">
        <ele>89.28</ele>
        <time>2025-02-03T23:44:23.797Z</time>
      </trkpt>
      <trkpt lat="58.95844395272434" lon="12.426196932792664">
        <ele>89.46</ele>
        <time>2025-02-03T23:44:39.505Z</time>
      </trkpt>
      <trkpt lat="58.958439929410815" lon="12.426136918365955">
        <ele>89.64</ele>
        <time>2025-02-03T23:44:55.213Z</time>
      </trkpt>
      <trkpt lat="58.958436995744705" lon="12.426076987758279">
        <ele>89.82</ele>
        <time>2025-02-03T23:45:10.922Z</time>
      </trkpt>
      <trkpt lat="58.9584319666028" lon="12.42601697333157">
        <ele>90.0</ele>
        <time>2025-02-03T23:45:26.631Z</time>
      </trkpt>
      <trkpt lat="58.95842593163252" lon="12.425958970561624">
        <ele>90.18</ele>
        <time>2025-02-03T23:45:42.341Z</time>
      </trkpt>
      <trkpt lat="58.95841998048127" lon="12.425896944478154">
        <ele>90.36</ele>
        <time>2025-02-03T23:45:58.051Z</time>
      </trkpt>
      <trkpt lat="58.958415957167745" lon="12.425832990556955">
        <ele>90.54</ele>
        <time>2025-02-03T23:46:13.762Z</time>
      </trkpt>
      <trkpt lat="58.95841193385422" lon="12.425767946988344">
        <ele>90.73</ele>
        <time>2025-02-03T23:46:29.473Z</time>
      </trkpt>
      <trkpt lat="58.95840799435973" lon="12.425700975582004">
        <ele>90.92</ele>
        <time>2025-02-03T23:46:45.185Z</time>
      </trkpt>
      <trkpt lat="58.95840296521783" lon="12.425630986690521">
        <ele>91.1</ele>
        <time>2025-02-03T23:47:00.898Z</time>
      </trkpt>
      <trkpt lat="58.958396930247545" lon="12.425557980313897">
        <ele>91.3</ele>
        <time>2025-02-03T23:47:16.611Z</time>
      </trkpt>
      <trkpt lat="58.95839097909629" lon="12.425485979765654">
        <ele>91.49</ele>
        <time>2025-02-03T23:47:32.325Z</time>
      </trkpt>
      <trkpt lat="58.95838796161115" lon="12.42541498504579">
        <ele>91.67</ele>
        <time>2025-02-03T23:47:48.039Z</time>
      </trkpt>
      <trkpt lat="58.95838393829763" lon="12.425345918163657">
        <ele>91.86</ele>
        <time>2025-02-03T23:48:03.754Z</time>
      </trkpt>
      <trkpt lat="58.95837798714638" lon="12.425277940928936">
        <ele>92.05</ele>
        <time>2025-02-03T23:48:19.470Z</time>
      </trkpt>
      <trkpt lat="58.958371952176094" lon="12.425208957865834">
        <ele>92.24</ele>
        <time>2025-02-03T23:48:35.186Z</time>
      </trkpt>
      <trkpt lat="58.95836591720581" lon="12.425139974802732">
        <ele>92.43</ele>
        <time>2025-02-03T23:48:50.903Z</time>
      </trkpt>
      <trkpt lat="58.95836197771132" lon="12.42506998591125">
        <ele>92.63</ele>
        <time>2025-02-03T23:49:06.620Z</time>
      </trkpt>
      <trkpt lat="58.95835896022618" lon="12.424997985363007">
        <ele>92.82</ele>
        <time>2025-02-03T23:49:22.338Z</time>
      </trkpt>
      <trkpt lat="58.958354936912656" lon="12.424926990643144">
        <ele>93.02</ele>
        <time>2025-02-03T23:49:38.056Z</time>
      </trkpt>
      <trkpt lat="58.958349991589785" lon="12.42485691793263">
        <ele>93.21</ele>
        <time>2025-02-03T23:49:53.775Z</time>
      </trkpt>
      <trkpt lat="58.95834496244788" lon="12.424782989546657">
        <ele>93.4</ele>
        <time>2025-02-03T23:50:09.495Z</time>
      </trkpt>
      <trkpt lat="58.95834194496274" lon="12.424716940149665">
        <ele>93.59</ele>
        <time>2025-02-03T23:50:25.215Z</time>
      </trkpt>
      <trkpt lat="58.9583389274776" lon="12.424652986228466">
        <ele>93.78</ele>
        <time>2025-02-03T23:50:40.936Z</time>
      </trkpt>
      <trkpt lat="58.95833498798311" lon="12.424588948488235">
        <ele>93.98</ele>
        <time>2025-02-03T23:50:56.657Z</time>
      </trkpt>
      <trkpt lat="58.958330964669585" lon="12.424524994567037">
        <ele>94.17</ele>
        <time>2025-02-03T23:51:12.379Z</time>
      </trkpt>
      <trkpt lat="58.9583249296993" lon="12.424456933513284">
        <ele>94.37</ele>
        <time>2025-02-03T23:51:28.101Z</time>
      </trkpt>
      <trkpt lat="58.95831897854805" lon="12.424387950450182">
        <ele>94.56</ele>
        <time>2025-02-03T23:51:43.824Z</time>
      </trkpt>
      <trkpt lat="58.95831394940615" lon="12.42431997321546">
        <ele>94.75</ele>
        <time>2025-02-03T23:51:59.548Z</time>
      </trkpt>
      <trkpt lat="58.958311937749386" lon="12.424250990152359">
        <ele>94.94</ele>
        <time>2025-02-03T23:52:15.272Z</time>
      </trkpt>
      <trkpt lat="58.958306992426515" lon="12.424178989604115">
        <ele>95.13</ele>
        <time>2025-02-03T23:52:30.997Z</time>
      </trkpt>
      <trkpt lat="58.95830095745623" lon="12.424105983227491">
        <ele>95.32</ele>
        <time>2025-02-03T23:52:46.722Z</time>
      </trkpt>
      <trkpt lat="58.95829592831433" lon="12.424033982679248">
        <ele>95.5</ele>
        <time>2025-02-03T23:53:02.448Z</time>
      </trkpt>
      <trkpt lat="58.95829299464822" lon="12.423964999616146">
        <ele>95.69</ele>
        <time>2025-02-03T23:53:18.174Z</time>
      </trkpt>
      <trkpt lat="58.958288971334696" lon="12.423891993239522">
        <ele>95.88</ele>
        <time>2025-02-03T23:53:33.901Z</time>
      </trkpt>
      <trkpt lat="58.95828494802117" lon="12.423817981034517">
        <ele>96.07</ele>
        <time>2025-02-03T23:53:49.629Z</time>
      </trkpt>
      <trkpt lat="58.95827899686992" lon="12.423741957172751">
        <ele>96.26</ele>
        <time>2025-02-03T23:54:05.357Z</time>
      </trkpt>
      <trkpt lat="58.95827195607126" lon="12.423667944967747">
        <ele>96.45</ele>
        <time>2025-02-03T23:54:21.086Z</time>
      </trkpt>
      <trkpt lat="58.958265921100974" lon="12.42359192110598">
        <ele>96.64</ele>
        <time>2025-02-03T23:54:36.816Z</time>
      </trkpt>
      <trkpt lat="58.95826198160648" lon="12.423514975234866">
        <ele>96.82</ele>
        <time>2025-02-03T23:54:52.546Z</time>
      </trkpt>
      <trkpt lat="58.95825695246458" lon="12.423434928059578">
        <ele>97.01</ele>
        <time>2025-02-03T23:55:08.277Z</time>
      </trkpt>
      <trkpt lat="58.95824999548495" lon="12.42335295304656">
        <ele>97.2</ele>
        <time>2025-02-03T23:55:24.009Z</time>
      </trkpt>
      <trkpt lat="58.958243960514665" lon="12.423268966376781">
        <ele>97.39</ele>
        <time>2025-02-03T23:55:39.741Z</time>
      </trkpt>
      <trkpt lat="58.958236919716" lon="12.423183973878622">
        <ele>97.58</ele>
        <time>2025-02-03T23:55:55.474Z</time>
      </trkpt>
      <trkpt lat="58.95822996273637" lon="12.423095963895321">
        <ele>97.77</ele>
        <time>2025-02-03T23:56:11.208Z</time>
      </trkpt>
      <trkpt lat="58.958222921937704" lon="12.423004936426878">
        <ele>97.96</ele>
        <time>2025-02-03T23:56:26.943Z</time>
      </trkpt>
      <trkpt lat="58.95821697078645" lon="12.422908963635564">
        <ele>98.14</ele>
        <time>2025-02-03T23:56:42.678Z</time>
      </trkpt>
      <trkpt lat="58.95821093581617" lon="12.422805950045586">
        <ele>98.32</ele>
        <time>2025-02-03T23:56:58.414Z</time>
      </trkpt>
      <trkpt lat="58.9582059904933" lon="12.422710983082652">
        <ele>98.51</ele>
        <time>2025-02-03T23:57:14.151Z</time>
      </trkpt>
      <trkpt lat="58.958199955523014" lon="12.422616938129067">
        <ele>98.69</ele>
        <time>2025-02-03T23:57:29.889Z</time>
      </trkpt>
      <trkpt lat="58.958191992715" lon="12.422520965337753">
        <ele>98.87</ele>
        <time>2025-02-03T23:57:45.628Z</time>
      </trkpt>
      <trkpt lat="58.958183946087956" lon="12.422421975061297">
        <ele>99.05</ele>
        <time>2025-02-03T23:58:01.367Z</time>
      </trkpt>
      <trkpt lat="58.958177994936705" lon="12.42231896147132">
        <ele>99.24</ele>
        <time>2025-02-03T23:58:17.107Z</time>
      </trkpt>
      <trkpt lat="58.95816994830966" lon="12.422215947881341">
        <ele>99.42</ele>
        <time>2025-02-03T23:58:32.848Z</time>
      </trkpt>
      <trkpt lat="58.95816399715841" lon="12.42210597731173">
        <ele>99.6</ele>
        <time>2025-02-03T23:58:48.590Z</time>
      </trkpt>
      <trkpt lat="58.958156956359744" lon="12.421990977600217">
        <ele>99.78</ele>
        <time>2025-02-03T23:59:04.333Z</time>
      </trkpt>
      <trkpt lat="58.95814999938011" lon="12.421872960403562">
        <ele>99.96</ele>
        <time>2025-02-03T23:59:20.077Z</time>
      </trkpt>
      <trkpt lat="58.95814295858145" lon="12.421752931550145">
        <ele>100.14</ele>
        <time>2025-02-03T23:59:35.822Z</time>
      </trkpt>
      <trkpt lat="58.958134995773435" lon="12.421629969030619">
        <ele>100.31</ele>
        <time>2025-02-03T23:59:51.568Z</time>
      </trkpt>
      <trkpt lat="58.95812694914639" lon="12.42150591686368">
        <ele>100.49</ele>
        <time>2025-02-04T00:00:07.315Z</time>
      </trkpt>
      <trkpt lat="58.958116974681616" lon="12.421381948515773">
        <ele>100.66</ele>
        <time>2025-02-04T00:00:23.063Z</time>
      </trkpt>
      <trkpt lat="58.95810498856008" lon="12.421255968511105">
        <ele>100.84</ele>
        <time>2025-02-04T00:00:38.812Z</time>
      </trkpt>
      <trkpt lat="58.95808897912502" lon="12.421125965192914">
        <ele>101.02</ele>
        <time>2025-02-04T00:00:54.562Z</time>
      </trkpt>
      <trkpt lat="58.95806995220482" lon="12.420993950217962">
        <ele>101.2</ele>
        <time>2025-02-04T00:01:10.313Z</time>
      </trkpt>
      <trkpt lat="58.958050925284624" lon="12.42085698992014">
        <ele>101.37</ele>
        <time>2025-02-04T00:01:26.066Z</time>
      </trkpt>
      <trkpt lat="58.95803298801184" lon="12.420714916661382">
        <ele>101.55</ele>
        <time>2025-02-04T00:01:41.820Z</time>
      </trkpt>
      <trkpt lat="58.95801496692002" lon="12.420567981898785">
        <ele>101.74</ele>
        <time>2025-02-04T00:01:57.575Z</time>
      </trkpt>
      <trkpt lat="58.95799292251468" lon="12.420416940003633">
        <ele>101.92</ele>
        <time>2025-02-04T00:02:13.331Z</time>
      </trkpt>
      <trkpt lat="58.957966938614845" lon="12.420266987755895">
        <ele>102.1</ele>
        <time>2025-02-04T00:02:29.089Z</time>
      </trkpt>
      <trkpt lat="58.95793894305825" lon="12.420104965567589">
        <ele>102.28</ele>
        <time>2025-02-04T00:02:44.848Z</time>
      </trkpt>
      <trkpt lat="58.95790793001652" lon="12.419944955036044">
        <ele>102.47</ele>
        <time>2025-02-04T00:03:00.608Z</time>
      </trkpt>
      <trkpt lat="58.95787398330867" lon="12.419783938676119">
        <ele>102.65</ele>
        <time>2025-02-04T00:03:16.370Z</time>
      </trkpt>
      <trkpt lat="58.957837941125035" lon="12.419622922316194">
        <ele>102.84</ele>
        <time>2025-02-04T00:03:32.133Z</time>
      </trkpt>
      <trkpt lat="58.95780298858881" lon="12.419459978118539">
        <ele>103.03</ele>
        <time>2025-02-04T00:03:47.898Z</time>
      </trkpt>
      <trkpt lat="58.95776392892003" lon="12.419296950101852">
        <ele>103.22</ele>
        <time>2025-02-04T00:04:03.664Z</time>
      </trkpt>
      <trkpt lat="58.95772495307028" lon="12.419134927913547">
        <ele>103.41</ele>
        <time>2025-02-04T00:04:19.432Z</time>
      </trkpt>
      <trkpt lat="58.957683965563774" lon="12.418975923210382">
        <ele>103.61</ele>
        <time>2025-02-04T00:04:35.201Z</time>
      </trkpt>
      <trkpt lat="58.95764498971403" lon="12.41882094182074">
        <ele>103.8</ele>
        <time>2025-02-04T00:04:50.972Z</time>
      </trkpt>
      <trkpt lat="58.95760693587363" lon="12.418669983744621">
        <ele>103.99</ele>
        <time>2025-02-04T00:05:06.744Z</time>
      </trkpt>
      <trkpt lat="58.9575669541955" lon="12.418522965162992">
        <ele>104.19</ele>
        <time>2025-02-04T00:05:22.517Z</time>
      </trkpt>
      <trkpt lat="58.95752395503223" lon="12.418384999036789">
        <ele>104.39</ele>
        <time>2025-02-04T00:05:38.292Z</time>
      </trkpt>
      <trkpt lat="58.95748296752572" lon="12.418254995718598">
        <ele>104.58</ele>
        <time>2025-02-04T00:05:54.068Z</time>
      </trkpt>
      <trkpt lat="58.95744298584759" lon="12.418129937723279">
        <ele>104.78</ele>
        <time>2025-02-04T00:06:09.845Z</time>
      </trkpt>
      <trkpt lat="58.95740392617881" lon="12.418010998517275">
        <ele>104.98</ele>
        <time>2025-02-04T00:06:25.623Z</time>
      </trkpt>
      <trkpt lat="58.957364950329065" lon="12.41789499297738">
        <ele>105.17</ele>
        <time>2025-02-04T00:06:41.403Z</time>
      </trkpt>
      <trkpt lat="58.95732496865094" lon="12.417782926931977">
        <ele>105.38</ele>
        <time>2025-02-04T00:06:57.184Z</time>
      </trkpt>
      <trkpt lat="58.95728699862957" lon="12.417676979675889">
        <ele>105.58</ele>
        <time>2025-02-04T00:07:12.966Z</time>
      </trkpt>
      <trkpt lat="58.957252968102694" lon="12.417574971914291">
        <ele>105.78</ele>
        <time>2025-02-04T00:07:28.749Z</time>
      </trkpt>
      <trkpt lat="58.95721793174744" lon="12.417476987466216">
        <ele>105.99</ele>
        <time>2025-02-04T00:07:44.533Z</time>
      </trkpt>
      <trkpt lat="58.95718096755445" lon="12.417386965826154">
        <ele>106.19</ele>
        <time>2025-02-04T00:08:00.318Z</time>
      </trkpt>
      <trkpt lat="58.95714492537081" lon="12.417301973327994">
        <ele>106.39</ele>
        <time>2025-02-04T00:08:16.104Z</time>
      </trkpt>
      <trkpt lat="58.95710997283459" lon="12.417217986658216">
        <ele>106.6</ele>
        <time>2025-02-04T00:08:31.891Z</time>
      </trkpt>
      <trkpt lat="58.95707191899419" lon="12.417136933654547">
        <ele>106.8</ele>
        <time>2025-02-04T00:08:47.678Z</time>
      </trkpt>
      <trkpt lat="58.95703294314444" lon="12.417058981955051">
        <ele>107.01</ele>
        <time>2025-02-04T00:09:03.466Z</time>
      </trkpt>
      <trkpt lat="58.95699396729469" lon="12.416980946436524">
        <ele>107.22</ele>
        <time>2025-02-04T00:09:19.255Z</time>
      </trkpt>
      <trkpt lat="58.956955997273326" lon="12.416904922574759">
        <ele>107.43</ele>
        <time>2025-02-04T00:09:35.045Z</time>
      </trkpt>
      <trkpt lat="58.95691693760455" lon="12.416826970875263">
        <ele>107.64</ele>
        <time>2025-02-04T00:09:50.836Z</time>
      </trkpt>
      <trkpt lat="58.95687695592642" lon="12.416751952841878">
        <ele>107.85</ele>
        <time>2025-02-04T00:10:06.628Z</time>
      </trkpt>
      <trkpt lat="58.95683697424829" lon="12.416676934808493">
        <ele>108.07</ele>
        <time>2025-02-04T00:10:22.421Z</time>
      </trkpt>
      <trkpt lat="58.95679799839854" lon="12.416603928431869">
        <ele>108.28</ele>
        <time>2025-02-04T00:10:38.215Z</time>
      </trkpt>
      <trkpt lat="58.95675793290138" lon="12.416532933712006">
        <ele>108.5</ele>
        <time>2025-02-04T00:10:54.010Z</time>
      </trkpt>
      <trkpt lat="58.956717951223254" lon="12.416462944820523">
        <ele>108.72</ele>
        <time>2025-02-04T00:11:09.805Z</time>
      </trkpt>
      <trkpt lat="58.956676963716745" lon="12.416393961757421">
        <ele>108.94</ele>
        <time>2025-02-04T00:11:25.601Z</time>
      </trkpt>
      <trkpt lat="58.95663698203862" lon="12.4163259845227">
        <ele>109.15</ele>
        <time>2025-02-04T00:11:41.398Z</time>
      </trkpt>
      <trkpt lat="58.95659691654146" lon="12.416258929297328">
        <ele>109.37</ele>
        <time>2025-02-04T00:11:57.196Z</time>
      </trkpt>
      <trkpt lat="58.95655693486333" lon="12.416190952062607">
        <ele>109.59</ele>
        <time>2025-02-04T00:12:12.995Z</time>
      </trkpt>
      <trkpt lat="58.95651594735682" lon="12.416127920150757">
        <ele>109.81</ele>
        <time>2025-02-04T00:12:28.795Z</time>
      </trkpt>
      <trkpt lat="58.95647495985031" lon="12.416063966229558">
        <ele>110.03</ele>
        <time>2025-02-04T00:12:44.596Z</time>
      </trkpt>
      <trkpt lat="58.95643497817218" lon="12.416001940146089">
        <ele>110.25</ele>
        <time>2025-02-04T00:13:00.397Z</time>
      </trkpt>
      <trkpt lat="58.956395918503404" lon="12.41593899205327">
        <ele>110.47</ele>
        <time>2025-02-04T00:13:16.199Z</time>
      </trkpt>
      <trkpt lat="58.956355936825275" lon="12.415876965969801">
        <ele>110.69</ele>
        <time>2025-02-04T00:13:32.002Z</time>
      </trkpt>
      <trkpt lat="58.956313943490386" lon="12.415814939886332">
        <ele>110.92</ele>
        <time>2025-02-04T00:13:47.806Z</time>
      </trkpt>
      <trkpt lat="58.9562719501555" lon="12.415754925459623">
        <ele>111.14</ele>
        <time>2025-02-04T00:14:03.611Z</time>
      </trkpt>
      <trkpt lat="58.956226939335465" lon="12.415694994851947">
        <ele>111.37</ele>
        <time>2025-02-04T00:14:19.417Z</time>
      </trkpt>
      <trkpt lat="58.956180922687054" lon="12.415634980425239">
        <ele>111.6</ele>
        <time>2025-02-04T00:14:35.223Z</time>
      </trkpt>
      <trkpt lat="58.95613197237253" lon="12.415576977655292">
        <ele>111.83</ele>
        <time>2025-02-04T00:14:51.030Z</time>
      </trkpt>
      <trkpt lat="58.9560819324106" lon="12.415519980713725">
        <ele>112.06</ele>
        <time>2025-02-04T00:15:06.838Z</time>
      </trkpt>
      <trkpt lat="58.956030970439315" lon="12.415462983772159">
        <ele>112.29</ele>
        <time>2025-02-04T00:15:22.647Z</time>
      </trkpt>
      <trkpt lat="58.95597891882062" lon="12.415404981002212">
        <ele>112.52</ele>
        <time>2025-02-04T00:15:38.457Z</time>
      </trkpt>
      <trkpt lat="58.95592795684934" lon="12.415345972403884">
        <ele>112.75</ele>
        <time>2025-02-04T00:15:54.268Z</time>
      </trkpt>
      <trkpt lat="58.95587598904967" lon="12.415288975462317">
        <ele>112.98</ele>
        <time>2025-02-04T00:16:10.080Z</time>
      </trkpt>
      <trkpt lat="58.95582192577422" lon="12.415233990177512">
        <ele>113.22</ele>
        <time>2025-02-04T00:16:25.893Z</time>
      </trkpt>
      <trkpt lat="58.95576593466103" lon="12.415181938558817">
        <ele>113.45</ele>
        <time>2025-02-04T00:16:41.707Z</time>
      </trkpt>
      <trkpt lat="58.955709943547845" lon="12.415127959102392">
        <ele>113.69</ele>
        <time>2025-02-04T00:16:57.522Z</time>
      </trkpt>
      <trkpt lat="58.95565495826304" lon="12.415071967989206">
        <ele>113.93</ele>
        <time>2025-02-04T00:17:13.338Z</time>
      </trkpt>
      <trkpt lat="58.95559796132147" lon="12.415019916370511">
        <ele>114.16</ele>
        <time>2025-02-04T00:17:29.155Z</time>
      </trkpt>
      <trkpt lat="58.955539958551526" lon="12.414969960227609">
        <ele>114.4</ele>
        <time>2025-02-04T00:17:44.973Z</time>
      </trkpt>
      <trkpt lat="58.95548195578158" lon="12.414921931922436">
        <ele>114.63</ele>
        <time>2025-02-04T00:18:00.792Z</time>
      </trkpt>
      <trkpt lat="58.95542294718325" lon="12.414876921102405">
        <ele>114.87</ele>
        <time>2025-02-04T00:18:16.612Z</time>
      </trkpt>
      <trkpt lat="58.955366956070065" lon="12.414834927767515">
        <ele>115.11</ele>
        <time>2025-02-04T00:18:32.433Z</time>
      </trkpt>
      <trkpt lat="58.9553149882704" lon="12.414792934432626">
        <ele>115.35</ele>
        <time>2025-02-04T00:18:48.255Z</time>
      </trkpt>
      <trkpt lat="58.95526394248009" lon="12.414750941097736">
        <ele>115.59</ele>
        <time>2025-02-04T00:19:04.078Z</time>
      </trkpt>
      <trkpt lat="58.955213986337185" lon="12.414706936106086">
        <ele>115.84</ele>
        <time>2025-02-04T00:19:19.902Z</time>
      </trkpt>
      <trkpt lat="58.95516294054687" lon="12.414667960256338">
        <ele>116.08</ele>
        <time>2025-02-04T00:19:35.727Z</time>
      </trkpt>
      <trkpt lat="58.95511197857559" lon="12.41462898440659">
        <ele>116.32</ele>
        <time>2025-02-04T00:19:51.553Z</time>
      </trkpt>
      <trkpt lat="58.955064956098795" lon="12.414590930566192">
        <ele>116.56</ele>
        <time>2025-02-04T00:20:07.379Z</time>
      </trkpt>
      <trkpt lat="58.95501692779362" lon="12.414549943059683">
        <ele>116.81</ele>
        <time>2025-02-04T00:20:23.206Z</time>
      </trkpt>
      <trkpt lat="58.95496898330748" lon="12.414511973038316">
        <ele>117.06</ele>
        <time>2025-02-04T00:20:39.034Z</time>
      </trkpt>
      <trkpt lat="58.95492196083069" lon="12.414476936683059">
        <ele>117.3</ele>
        <time>2025-02-04T00:20:54.863Z</time>
      </trkpt>
      <trkpt lat="58.95488197915256" lon="12.414438966661692">
        <ele>117.55</ele>
        <time>2025-02-04T00:21:10.693Z</time>
      </trkpt>
      <trkpt lat="58.95483696833253" lon="12.414402924478054">
        <ele>117.8</ele>
        <time>2025-02-04T00:21:26.523Z</time>
      </trkpt>
      <trkpt lat="58.9547919575125" lon="12.414366966113448">
        <ele>118.04</ele>
        <time>2025-02-04T00:21:42.354Z</time>
      </trkpt>
      <trkpt lat="58.95474694669247" lon="12.41432991810143">
        <ele>118.29</ele>
        <time>2025-02-04T00:21:58.186Z</time>
      </trkpt>
      <trkpt lat="58.954702941700816" lon="12.414293959736824">
        <ele>118.53</ele>
        <time>2025-02-04T00:22:14.019Z</time>
      </trkpt>
      <trkpt lat="58.954657930880785" lon="12.414259929209948">
        <ele>118.78</ele>
        <time>2025-02-04T00:22:29.852Z</time>
      </trkpt>
      <trkpt lat="58.954613925889134" lon="12.41422195918858">
        <ele>119.02</ele>
        <time>2025-02-04T00:22:45.686Z</time>
      </trkpt>
      <trkpt lat="58.954571932554245" lon="12.414186922833323">
        <ele>119.27</ele>
        <time>2025-02-04T00:23:01.521Z</time>
      </trkpt>
      <trkpt lat="58.954525999724865" lon="12.41415498778224">
        <ele>119.52</ele>
        <time>2025-02-04T00:23:17.357Z</time>
      </trkpt>
      <trkpt lat="58.954481994733214" lon="12.414116933941841">
        <ele>119.77</ele>
        <time>2025-02-04T00:23:33.194Z</time>
      </trkpt>
      <trkpt lat="58.954437989741564" lon="12.414080975577235">
        <ele>120.02</ele>
        <time>2025-02-04T00:23:49.031Z</time>
      </trkpt>
      <trkpt lat="58.95439197309315" lon="12.414044933393598">
        <ele>120.27</ele>
        <time>2025-02-04T00:24:04.869Z</time>
      </trkpt>
      <trkpt lat="58.95434495061636" lon="12.41400696337223">
        <ele>120.52</ele>
        <time>2025-02-04T00:24:20.708Z</time>
      </trkpt>
      <trkpt lat="58.95429893396795" lon="12.413968993350863">
        <ele>120.77</ele>
        <time>2025-02-04T00:24:36.548Z</time>
      </trkpt>
      <trkpt lat="58.95425098948181" lon="12.413928927853703">
        <ele>121.02</ele>
        <time>2025-02-04T00:24:52.389Z</time>
      </trkpt>
      <trkpt lat="58.95420094951987" lon="12.413893975317478">
        <ele>121.27</ele>
        <time>2025-02-04T00:25:08.230Z</time>
      </trkpt>
      <trkpt lat="58.95414998754859" lon="12.41385793313384">
        <ele>121.52</ele>
        <time>2025-02-04T00:25:24.072Z</time>
      </trkpt>
      <trkpt lat="58.954100953415036" lon="12.413822980597615">
        <ele>121.77</ele>
        <time>2025-02-04T00:25:39.915Z</time>
      </trkpt>
      <trkpt lat="58.95404797978699" lon="12.413788950070739">
        <ele>122.02</ele>
        <time>2025-02-04T00:25:55.759Z</time>
      </trkpt>
      <trkpt lat="58.9539959281683" lon="12.413754919543862">
        <ele>122.27</ele>
        <time>2025-02-04T00:26:11.604Z</time>
      </trkpt>
      <trkpt lat="58.95394194871187" lon="12.413718961179256">
        <ele>122.52</ele>
        <time>2025-02-04T00:26:27.450Z</time>
      </trkpt>
      <trkpt lat="58.95388796925545" lon="12.413682918995619">
        <ele>122.77</ele>
        <time>2025-02-04T00:26:43.297Z</time>
      </trkpt>
      <trkpt lat="58.95383298397064" lon="12.41364092566073">
        <ele>123.01</ele>
        <time>2025-02-04T00:26:59.145Z</time>
      </trkpt>
      <trkpt lat="58.953778920695186" lon="12.413596920669079">
        <ele>123.26</ele>
        <time>2025-02-04T00:27:14.994Z</time>
      </trkpt>
      <trkpt lat="58.953722929582" lon="12.413553921505809">
        <ele>123.51</ele>
        <time>2025-02-04T00:27:30.844Z</time>
      </trkpt>
      <trkpt lat="58.95366492681205" lon="12.4135129339993">
        <ele>123.75</ele>
        <time>2025-02-04T00:27:46.695Z</time>
      </trkpt>
      <trkpt lat="58.953605918213725" lon="12.41346892900765">
        <ele>124.0</ele>
        <time>2025-02-04T00:28:02.547Z</time>
      </trkpt>
      <trkpt lat="58.95354397594929" lon="12.413419978693128">
        <ele>124.24</ele>
        <time>2025-02-04T00:28:18.400Z</time>
      </trkpt>
      <trkpt lat="58.9534829556942" lon="12.413369938731194">
        <ele>124.49</ele>
        <time>2025-02-04T00:28:34.254Z</time>
      </trkpt>
      <trkpt lat="58.95342092961073" lon="12.413319982588291">
        <ele>124.73</ele>
        <time>2025-02-04T00:28:50.109Z</time>
      </trkpt>
      <trkpt lat="58.95335596986115" lon="12.413269942626357">
        <ele>124.98</ele>
        <time>2025-02-04T00:29:05.965Z</time>
      </trkpt>
      <trkpt lat="58.95329193212092" lon="12.413216968998313">
        <ele>125.22</ele>
        <time>2025-02-04T00:29:21.822Z</time>
      </trkpt>
      <trkpt lat="58.95322596654296" lon="12.413163995370269">
        <ele>125.47</ele>
        <time>2025-02-04T00:29:37.680Z</time>
      </trkpt>
      <trkpt lat="58.95316092297435" lon="12.413110937923193">
        <ele>125.72</ele>
        <time>2025-02-04T00:29:53.539Z</time>
      </trkpt>
      <trkpt lat="58.95309696905315" lon="12.413052935153246">
        <ele>125.97</ele>
        <time>2025-02-04T00:30:09.399Z</time>
      </trkpt>
      <trkpt lat="58.95303494296968" lon="12.412990992888808">
        <ele>126.22</ele>
        <time>2025-02-04T00:30:25.261Z</time>
      </trkpt>
      <trkpt lat="58.95297291688621" lon="12.412926955148578">
        <ele>126.47</ele>
        <time>2025-02-04T00:30:41.124Z</time>
      </trkpt>
      <trkpt lat="58.95290996879339" lon="12.412863923236728">
        <ele>126.73</ele>
        <time>2025-02-04T00:30:56.988Z</time>
      </trkpt>
      <trkpt lat="58.9528489485383" lon="12.412798963487148">
        <ele>126.98</ele>
        <time>2025-02-04T00:31:12.853Z</time>
      </trkpt>
      <trkpt lat="58.952787928283215" lon="12.412731992080808">
        <ele>127.23</ele>
        <time>2025-02-04T00:31:28.719Z</time>
      </trkpt>
      <trkpt lat="58.95272799767554" lon="12.412664936855435">
        <ele>127.48</ele>
        <time>2025-02-04T00:31:44.586Z</time>
      </trkpt>
      <trkpt lat="58.95266597159207" lon="12.412600982934237">
        <ele>127.73</ele>
        <time>2025-02-04T00:32:00.454Z</time>
      </trkpt>
      <trkpt lat="58.95260595716536" lon="12.412535939365625">
        <ele>127.98</ele>
        <time>2025-02-04T00:32:16.323Z</time>
      </trkpt>
      <trkpt lat="58.952550971880555" lon="12.412464944645762">
        <ele>128.23</ele>
        <time>2025-02-04T00:32:32.193Z</time>
      </trkpt>
      <trkpt lat="58.95249699242413" lon="12.412392944097519">
        <ele>128.48</ele>
        <time>2025-02-04T00:32:48.065Z</time>
      </trkpt>
      <trkpt lat="58.952442929148674" lon="12.412317926064134">
        <ele>128.73</ele>
        <time>2025-02-04T00:33:03.938Z</time>
      </trkpt>
      <trkpt lat="58.95239297300577" lon="12.41224693134427">
        <ele>128.98</ele>
        <time>2025-02-04T00:33:19.812Z</time>
      </trkpt>
      <trkpt lat="58.9523449447006" lon="12.412173924967647">
        <ele>129.23</ele>
        <time>2025-02-04T00:33:35.687Z</time>
      </trkpt>
      <trkpt lat="58.95230093970895" lon="12.412102930247784">
        <ele>129.47</ele>
        <time>2025-02-04T00:33:51.562Z</time>
      </trkpt>
      <trkpt lat="58.95225794054568" lon="12.41203092969954">
        <ele>129.72</ele>
        <time>2025-02-04T00:34:07.438Z</time>
      </trkpt>
      <trkpt lat="58.95221896469593" lon="12.411956917494535">
        <ele>129.96</ele>
        <time>2025-02-04T00:34:23.315Z</time>
      </trkpt>
      <trkpt lat="58.95218392834067" lon="12.411884916946292">
        <ele>130.2</ele>
        <time>2025-02-04T00:34:39.193Z</time>
      </trkpt>
      <trkpt lat="58.95215098746121" lon="12.411817945539951">
        <ele>130.44</ele>
        <time>2025-02-04T00:34:55.072Z</time>
      </trkpt>
      <trkpt lat="58.95211595110595" lon="12.411746950820088">
        <ele>130.68</ele>
        <time>2025-02-04T00:35:10.952Z</time>
      </trkpt>
      <trkpt lat="58.952082926407456" lon="12.411673944443464">
        <ele>130.92</ele>
        <time>2025-02-04T00:35:26.832Z</time>
      </trkpt>
      <trkpt lat="58.95204797387123" lon="12.411603955551982">
        <ele>131.17</ele>
        <time>2025-02-04T00:35:42.713Z</time>
      </trkpt>
      <trkpt lat="58.952016960829496" lon="12.4115339666605">
        <ele>131.41</ele>
        <time>2025-02-04T00:35:58.595Z</time>
      </trkpt>
      <trkpt lat="58.95198795944452" lon="12.411466995254159">
        <ele>131.65</ele>
        <time>2025-02-04T00:36:14.478Z</time>
      </trkpt>
      <trkpt lat="58.95196096971631" lon="12.411398934200406">
        <ele>131.89</ele>
        <time>2025-02-04T00:36:30.361Z</time>
      </trkpt>
      <trkpt lat="58.95193498581648" lon="12.411331962794065">
        <ele>132.12</ele>
        <time>2025-02-04T00:36:46.245Z</time>
      </trkpt>
      <trkpt lat="58.951906990259886" lon="12.411262979730964">
        <ele>132.36</ele>
        <time>2025-02-04T00:37:02.130Z</time>
      </trkpt>
      <trkpt lat="58.9518819283694" lon="12.411196930333972">
        <ele>132.59</ele>
        <time>2025-02-04T00:37:18.016Z</time>
      </trkpt>
      <trkpt lat="58.95185695029795" lon="12.411129958927631">
        <ele>132.82</ele>
        <time>2025-02-04T00:37:33.902Z</time>
      </trkpt>
      <trkpt lat="58.95183398388326" lon="12.41106298752129">
        <ele>133.05</ele>
        <time>2025-02-04T00:37:49.789Z</time>
      </trkpt>
      <trkpt lat="58.95181193947792" lon="12.410994926467538">
        <ele>133.28</ele>
        <time>2025-02-04T00:38:05.677Z</time>
      </trkpt>
      <trkpt lat="58.95179098471999" lon="12.410928960889578">
        <ele>133.51</ele>
        <time>2025-02-04T00:38:21.565Z</time>
      </trkpt>
      <trkpt lat="58.95177296362817" lon="12.410861989483237">
        <ele>133.73</ele>
        <time>2025-02-04T00:38:37.454Z</time>
      </trkpt>
      <trkpt lat="58.951755948364735" lon="12.410794934257865">
        <ele>133.95</ele>
        <time>2025-02-04T00:38:53.343Z</time>
      </trkpt>
      <trkpt lat="58.951737927272916" lon="12.410726957023144">
        <ele>134.17</ele>
        <time>2025-02-04T00:39:09.233Z</time>
      </trkpt>
      <trkpt lat="58.95171999000013" lon="12.410660991445184">
        <ele>134.39</ele>
        <time>2025-02-04T00:39:25.124Z</time>
      </trkpt>
      <trkpt lat="58.95170096307993" lon="12.41058999672532">
        <ele>134.61</ele>
        <time>2025-02-04T00:39:41.015Z</time>
      </trkpt>
      <trkpt lat="58.95168294198811" lon="12.410509949550033">
        <ele>134.82</ele>
        <time>2025-02-04T00:39:56.907Z</time>
      </trkpt>
      <trkpt lat="58.95166592672467" lon="12.410436943173409">
        <ele>135.04</ele>
        <time>2025-02-04T00:40:12.800Z</time>
      </trkpt>
      <trkpt lat="58.951648995280266" lon="12.410363936796784">
        <ele>135.25</ele>
        <time>2025-02-04T00:40:28.693Z</time>
      </trkpt>
      <trkpt lat="58.951628962531686" lon="12.410294953733683">
        <ele>135.46</ele>
        <time>2025-02-04T00:40:44.587Z</time>
      </trkpt>
      <trkpt lat="58.95161295309663" lon="12.4102249648422">
        <ele>135.66</ele>
        <time>2025-02-04T00:41:00.482Z</time>
      </trkpt>
      <trkpt lat="58.95159694366157" lon="12.410153970122337">
        <ele>135.87</ele>
        <time>2025-02-04T00:41:16.377Z</time>
      </trkpt>
      <trkpt lat="58.95158194005489" lon="12.410080963745713">
        <ele>136.07</ele>
        <time>2025-02-04T00:41:32.273Z</time>
      </trkpt>
      <trkpt lat="58.951564924791455" lon="12.410017931833863">
        <ele>136.27</ele>
        <time>2025-02-04T00:41:48.170Z</time>
      </trkpt>
      <trkpt lat="58.95154698751867" lon="12.409954983741045">
        <ele>136.46</ele>
        <time>2025-02-04T00:42:04.067Z</time>
      </trkpt>
      <trkpt lat="58.95152997225523" lon="12.409886922687292">
        <ele>136.66</ele>
        <time>2025-02-04T00:42:19.965Z</time>
      </trkpt>
      <trkpt lat="58.95151295699179" lon="12.409818945452571">
        <ele>136.85</ele>
        <time>2025-02-04T00:42:35.863Z</time>
      </trkpt>
      <trkpt lat="58.95149594172835" lon="12.409748956561089">
        <ele>137.04</ele>
        <time>2025-02-04T00:42:51.762Z</time>
      </trkpt>
      <trkpt lat="58.951479932293296" lon="12.409680979326367">
        <ele>137.22</ele>
        <time>2025-02-04T00:43:07.662Z</time>
      </trkpt>
      <trkpt lat="58.951465934515" lon="12.409610990434885">
        <ele>137.41</ele>
        <time>2025-02-04T00:43:23.562Z</time>
      </trkpt>
      <trkpt lat="58.9514519367367" lon="12.409539995715022">
        <ele>137.59</ele>
        <time>2025-02-04T00:43:39.463Z</time>
      </trkpt>
      <trkpt lat="58.951434921473265" lon="12.40947193466127">
        <ele>137.77</ele>
        <time>2025-02-04T00:43:55.365Z</time>
      </trkpt>
      <trkpt lat="58.95141899585724" lon="12.409409992396832">
        <ele>137.94</ele>
        <time>2025-02-04T00:44:11.267Z</time>
      </trkpt>
      <trkpt lat="58.95140399225056" lon="12.409347966313362">
        <ele>138.11</ele>
        <time>2025-02-04T00:44:27.170Z</time>
      </trkpt>
      <trkpt lat="58.951388988643885" lon="12.409286946058273">
        <ele>138.28</ele>
        <time>2025-02-04T00:44:43.073Z</time>
      </trkpt>
      <trkpt lat="58.95137599669397" lon="12.409222992137074">
        <ele>138.44</ele>
        <time>2025-02-04T00:44:58.977Z</time>
      </trkpt>
      <trkpt lat="58.95135998725891" lon="12.409156942740083">
        <ele>138.61</ele>
        <time>2025-02-04T00:45:14.881Z</time>
      </trkpt>
      <trkpt lat="58.95134397782385" lon="12.409089971333742">
        <ele>138.76</ele>
        <time>2025-02-04T00:45:30.786Z</time>
      </trkpt>
      <trkpt lat="58.95133199170232" lon="12.409021994099021">
        <ele>138.92</ele>
        <time>2025-02-04T00:45:46.692Z</time>
      </trkpt>
      <trkpt lat="58.9513189997524" lon="12.40895795635879">
        <ele>139.07</ele>
        <time>2025-02-04T00:46:02.598Z</time>
      </trkpt>
      <trkpt lat="58.951303996145725" lon="12.40889199078083">
        <ele>139.22</ele>
        <time>2025-02-04T00:46:18.505Z</time>
      </trkpt>
      <trkpt lat="58.95128798671067" lon="12.408820996060967">
        <ele>139.36</ele>
        <time>2025-02-04T00:46:34.412Z</time>
      </trkpt>
      <trkpt lat="58.95127097144723" lon="12.408745978027582">
        <ele>139.5</ele>
        <time>2025-02-04T00:46:50.320Z</time>
      </trkpt>
      <trkpt lat="58.95125295035541" lon="12.408672971650958">
        <ele>139.64</ele>
        <time>2025-02-04T00:47:06.229Z</time>
      </trkpt>
      <trkpt lat="58.95123593509197" lon="12.408596947789192">
        <ele>139.77</ele>
        <time>2025-02-04T00:47:22.139Z</time>
      </trkpt>
      <trkpt lat="58.951216991990805" lon="12.408518996089697">
        <ele>139.9</ele>
        <time>2025-02-04T00:47:38.049Z</time>
      </trkpt>
      <trkpt lat="58.95119997672737" lon="12.408444983884692">
        <ele>140.03</ele>
        <time>2025-02-04T00:47:53.960Z</time>
      </trkpt>
      <trkpt lat="58.95118195563555" lon="12.408369965851307">
        <ele>140.15</ele>
        <time>2025-02-04T00:48:09.872Z</time>
      </trkpt>
      <trkpt lat="58.95116393454373" lon="12.408295953646302">
        <ele>140.27</ele>
        <time>2025-02-04T00:48:25.784Z</time>
      </trkpt>
      <trkpt lat="58.95114691928029" lon="12.408218923956156">
        <ele>140.38</ele>
        <time>2025-02-04T00:48:41.697Z</time>
      </trkpt>
      <trkpt lat="58.9511289820075" lon="12.40813996642828">
        <ele>140.49</ele>
        <time>2025-02-04T00:48:57.611Z</time>
      </trkpt>
      <trkpt lat="58.951109955087304" lon="12.408057991415262">
        <ele>140.6</ele>
        <time>2025-02-04T00:49:13.525Z</time>
      </trkpt>
      <trkpt lat="58.951089922338724" lon="12.407975932583213">
        <ele>140.7</ele>
        <time>2025-02-04T00:49:29.440Z</time>
      </trkpt>
      <trkpt lat="58.951069973409176" lon="12.407893957570195">
        <ele>140.79</ele>
        <time>2025-02-04T00:49:45.356Z</time>
      </trkpt>
      <trkpt lat="58.951048934832215" lon="12.407809970900416">
        <ele>140.88</ele>
        <time>2025-02-04T00:50:01.273Z</time>
      </trkpt>
      <trkpt lat="58.951026974245906" lon="12.407726990059018">
        <ele>140.97</ele>
        <time>2025-02-04T00:50:17.190Z</time>
      </trkpt>
      <trkpt lat="58.951003924012184" lon="12.407643925398588">
        <ele>141.06</ele>
        <time>2025-02-04T00:50:33.108Z</time>
      </trkpt>
      <trkpt lat="58.95097894594073" lon="12.407558932900429">
        <ele>141.14</ele>
        <time>2025-02-04T00:50:49.027Z</time>
      </trkpt>
      <trkpt lat="58.9509529620409" lon="12.40747394040227">
        <ele>141.22</ele>
        <time>2025-02-04T00:51:04.947Z</time>
      </trkpt>
      <trkpt lat="58.95092697814107" lon="12.407385930418968">
        <ele>141.29</ele>
        <time>2025-02-04T00:51:20.868Z</time>
      </trkpt>
      <trkpt lat="58.95089898258448" lon="12.407295992597938">
        <ele>141.36</ele>
        <time>2025-02-04T00:51:36.790Z</time>
      </trkpt>
      <trkpt lat="58.9508699811995" lon="12.407203959301114">
        <ele>141.43</ele>
        <time>2025-02-04T00:51:52.712Z</time>
      </trkpt>
      <trkpt lat="58.95083997398615" lon="12.40711192600429">
        <ele>141.49</ele>
        <time>2025-02-04T00:52:08.635Z</time>
      </trkpt>
      <trkpt lat="58.950807955116034" lon="12.40702098235488">
        <ele>141.55</ele>
        <time>2025-02-04T00:52:24.559Z</time>
      </trkpt>
      <trkpt lat="58.95077199675143" lon="12.406929954886436">
        <ele>141.6</ele>
        <time>2025-02-04T00:52:40.484Z</time>
      </trkpt>
      <trkpt lat="58.95073595456779" lon="12.406838927417994">
        <ele>141.65</ele>
        <time>2025-02-04T00:52:56.410Z</time>
      </trkpt>
      <trkpt lat="58.95070091821253" lon="12.406746977940202">
        <ele>141.69</ele>
        <time>2025-02-04T00:53:12.337Z</time>
      </trkpt>
      <trkpt lat="58.950662948191166" lon="12.40665695630014">
        <ele>141.73</ele>
        <time>2025-02-04T00:53:28.265Z</time>
      </trkpt>
      <trkpt lat="58.95062196068466" lon="12.406564923003316">
        <ele>141.77</ele>
        <time>2025-02-04T00:53:44.194Z</time>
      </trkpt>
      <trkpt lat="58.95057795569301" lon="12.406473979353905">
        <ele>141.81</ele>
        <time>2025-02-04T00:54:00.124Z</time>
      </trkpt>
      <trkpt lat="58.950531939044595" lon="12.406382951885462">
        <ele>141.85</ele>
        <time>2025-02-04T00:54:16.055Z</time>
      </trkpt>
      <trkpt lat="58.95048592239618" lon="12.406288990750909">
        <ele>141.87</ele>
        <time>2025-02-04T00:54:31.987Z</time>
      </trkpt>
      <trkpt lat="58.95043797791004" lon="12.406194945797324">
        <ele>141.9</ele>
        <time>2025-02-04T00:54:47.920Z</time>
      </trkpt>
      <trkpt lat="58.95038693211973" lon="12.40609997883439">
        <ele>141.92</ele>
        <time>2025-02-04T00:55:03.855Z</time>
      </trkpt>
      <trkpt lat="58.9503329526633" lon="12.406003922224045">
        <ele>141.94</ele>
        <time>2025-02-04T00:55:19.791Z</time>
      </trkpt>
      <trkpt lat="58.950275955721736" lon="12.40590794943273">
        <ele>141.95</ele>
        <time>2025-02-04T00:55:35.728Z</time>
      </trkpt>
      <trkpt lat="58.95021594129503" lon="12.405813988298178">
        <ele>141.96</ele>
        <time>2025-02-04T00:55:51.666Z</time>
      </trkpt>
      <trkpt lat="58.95015492103994" lon="12.405722960829735">
        <ele>141.97</ele>
        <time>2025-02-04T00:56:07.605Z</time>
      </trkpt>
      <trkpt lat="58.95009197294712" lon="12.405634950846434">
        <ele>141.97</ele>
        <time>2025-02-04T00:56:23.546Z</time>
      </trkpt>
      <trkpt lat="58.95002692937851" lon="12.405547946691513">
        <ele>141.97</ele>
        <time>2025-02-04T00:56:39.488Z</time>
      </trkpt>
      <trkpt lat="58.94995895214379" lon="12.405462954193354">
        <ele>141.97</ele>
        <time>2025-02-04T00:56:55.431Z</time>
      </trkpt>
      <trkpt lat="58.949887957423925" lon="12.405380979180336">
        <ele>141.97</ele>
        <time>2025-02-04T00:57:11.376Z</time>
      </trkpt>
      <trkpt lat="58.94981595687568" lon="12.405300932005048">
        <ele>141.96</ele>
        <time>2025-02-04T00:57:27.322Z</time>
      </trkpt>
      <trkpt lat="58.94974395632744" lon="12.405220968648791">
        <ele>141.95</ele>
        <time>2025-02-04T00:57:43.269Z</time>
      </trkpt>
      <trkpt lat="58.949671955779195" lon="12.405135976150632">
        <ele>141.93</ele>
        <time>2025-02-04T00:57:59.218Z</time>
      </trkpt>
      <trkpt lat="58.94959995523095" lon="12.405048971995711">
        <ele>141.91</ele>
        <time>2025-02-04T00:58:15.168Z</time>
      </trkpt>
      <trkpt lat="58.949524937197566" lon="12.404963979497552">
        <ele>141.89</ele>
        <time>2025-02-04T00:58:31.119Z</time>
      </trkpt>
      <trkpt lat="58.94944698549807" lon="12.404877981171012">
        <ele>141.86</ele>
        <time>2025-02-04T00:58:47.072Z</time>
      </trkpt>
      <trkpt lat="58.94936693832278" lon="12.40478997118771">
        <ele>141.82</ele>
        <time>2025-02-04T00:59:03.026Z</time>
      </trkpt>
      <trkpt lat="58.949285969138145" lon="12.404698943719268">
        <ele>141.79</ele>
        <time>2025-02-04T00:59:18.982Z</time>
      </trkpt>
      <trkpt lat="58.949200976639986" lon="12.404603976756334">
        <ele>141.75</ele>
        <time>2025-02-04T00:59:34.939Z</time>
      </trkpt>
      <trkpt lat="58.949114978313446" lon="12.404500963166356">
        <ele>141.7</ele>
        <time>2025-02-04T00:59:50.898Z</time>
      </trkpt>
      <trkpt lat="58.949026968330145" lon="12.404393926262856">
        <ele>141.65</ele>
        <time>2025-02-04T01:00:06.859Z</time>
      </trkpt>
      <trkpt lat="58.948939964175224" lon="12.404278926551342">
        <ele>141.6</ele>
        <time>2025-02-04T01:00:22.821Z</time>
      </trkpt>
      <trkpt lat="58.948856983333826" lon="12.404157975688577">
        <ele>141.55</ele>
        <time>2025-02-04T01:00:38.785Z</time>
      </trkpt>
      <trkpt lat="58.94877593033016" lon="12.404028978198767">
        <ele>141.49</ele>
        <time>2025-02-04T01:00:54.751Z</time>
      </trkpt>
      <trkpt lat="58.94869797863066" lon="12.403893945738673">
        <ele>141.42</ele>
        <time>2025-02-04T01:01:10.718Z</time>
      </trkpt>
      <trkpt lat="58.948621954768896" lon="12.403751956298947">
        <ele>141.35</ele>
        <time>2025-02-04T01:01:26.687Z</time>
      </trkpt>
      <trkpt lat="58.94854693673551" lon="12.4036059435457">
        <ele>141.29</ele>
        <time>2025-02-04T01:01:42.658Z</time>
      </trkpt>
      <trkpt lat="58.94847594201565" lon="12.403451967984438">
        <ele>141.22</ele>
        <time>2025-02-04T01:01:58.630Z</time>
      </trkpt>
      <trkpt lat="58.94840997643769" lon="12.403299920260906">
        <ele>141.14</ele>
        <time>2025-02-04T01:02:14.604Z</time>
      </trkpt>
      <trkpt lat="58.94834694452584" lon="12.403148962184787">
        <ele>141.07</ele>
        <time>2025-02-04T01:02:30.580Z</time>
      </trkpt>
      <trkpt lat="58.94828793592751" lon="12.403000937774777">
        <ele>141.0</ele>
        <time>2025-02-04T01:02:46.557Z</time>
      </trkpt>
      <trkpt lat="58.948232950642705" lon="12.40285492502153">
        <ele>140.93</ele>
        <time>2025-02-04T01:03:02.536Z</time>
      </trkpt>
      <trkpt lat="58.94818391650915" lon="12.402709918096662">
        <ele>140.86</ele>
        <time>2025-02-04T01:03:18.516Z</time>
      </trkpt>
      <trkpt lat="58.94813999533653" lon="12.402566922828555">
        <ele>140.78</ele>
        <time>2025-02-04T01:03:34.498Z</time>
      </trkpt>
      <trkpt lat="58.94809992983937" lon="12.40242694504559">
        <ele>140.7</ele>
        <time>2025-02-04T01:03:50.481Z</time>
      </trkpt>
      <trkpt lat="58.94806598313153" lon="12.402291996404529">
        <ele>140.62</ele>
        <time>2025-02-04T01:04:06.465Z</time>
      </trkpt>
      <trkpt lat="58.94803497008979" lon="12.402161993086338">
        <ele>140.53</ele>
        <time>2025-02-04T01:04:22.450Z</time>
      </trkpt>
      <trkpt lat="58.94800798036158" lon="12.40203894674778">
        <ele>140.44</ele>
        <time>2025-02-04T01:04:38.436Z</time>
      </trkpt>
      <trkpt lat="58.94798593595624" lon="12.401919923722744">
        <ele>140.35</ele>
        <time>2025-02-04T01:04:54.423Z</time>
      </trkpt>
      <trkpt lat="58.94796498119831" lon="12.40180098451674">
        <ele>140.26</ele>
        <time>2025-02-04T01:05:10.411Z</time>
      </trkpt>
      <trkpt lat="58.94794293679297" lon="12.401682967320085">
        <ele>140.17</ele>
        <time>2025-02-04T01:05:26.401Z</time>
      </trkpt>
      <trkpt lat="58.94792499952018" lon="12.40156696178019">
        <ele>140.07</ele>
        <time>2025-02-04T01:05:42.392Z</time>
      </trkpt>
      <trkpt lat="58.947908990085125" lon="12.401450956240296">
        <ele>139.96</ele>
        <time>2025-02-04T01:05:58.384Z</time>
      </trkpt>
      <trkpt lat="58.94789197482169" lon="12.401333944872022">
        <ele>139.86</ele>
        <time>2025-02-04T01:06:14.377Z</time>
      </trkpt>
      <trkpt lat="58.94787898287177" lon="12.401218945160508">
        <ele>139.75</ele>
        <time>2025-02-04T01:06:30.370Z</time>
      </trkpt>
      <trkpt lat="58.947865990921855" lon="12.401102939620614">
        <ele>139.65</ele>
        <time>2025-02-04T01:06:46.364Z</time>
      </trkpt>
      <trkpt lat="58.94785392098129" lon="12.4009879399091">
        <ele>139.54</ele>
        <time>2025-02-04T01:07:02.359Z</time>
      </trkpt>
      <trkpt lat="58.94784193485975" lon="12.400872940197587">
        <ele>139.42</ele>
        <time>2025-02-04T01:07:18.355Z</time>
      </trkpt>
      <trkpt lat="58.94782994873822" lon="12.400757940486073">
        <ele>139.3</ele>
        <time>2025-02-04T01:07:34.352Z</time>
      </trkpt>
      <trkpt lat="58.9478169567883" lon="12.40064394660294">
        <ele>139.18</ele>
        <time>2025-02-04T01:07:50.350Z</time>
      </trkpt>
      <trkpt lat="58.947804970666766" lon="12.400529952719808">
        <ele>139.06</ele>
        <time>2025-02-04T01:08:06.349Z</time>
      </trkpt>
      <trkpt lat="58.94779298454523" lon="12.400415958836675">
        <ele>138.93</ele>
        <time>2025-02-04T01:08:22.349Z</time>
      </trkpt>
      <trkpt lat="58.947781920433044" lon="12.40029794164002">
        <ele>138.8</ele>
        <time>2025-02-04T01:08:38.350Z</time>
      </trkpt>
      <trkpt lat="58.94777094013989" lon="12.400178918614984">
        <ele>138.67</ele>
        <time>2025-02-04T01:08:54.352Z</time>
      </trkpt>
      <trkpt lat="58.947757948189974" lon="12.40005997940898">
        <ele>138.53</ele>
        <time>2025-02-04T01:09:10.355Z</time>
      </trkpt>
      <trkpt lat="58.94774495624006" lon="12.399940956383944">
        <ele>138.4</ele>
        <time>2025-02-04T01:09:26.359Z</time>
      </trkpt>
      <trkpt lat="58.94773196429014" lon="12.399820927530527">
        <ele>138.26</ele>
        <time>2025-02-04T01:09:42.364Z</time>
      </trkpt>
      <trkpt lat="58.947718972340226" lon="12.399701988324523">
        <ele>138.12</ele>
        <time>2025-02-04T01:09:58.370Z</time>
      </trkpt>
      <trkpt lat="58.94770497456193" lon="12.399579947814345">
        <ele>137.99</ele>
        <time>2025-02-04T01:10:14.377Z</time>
      </trkpt>
      <trkpt lat="58.94769097678363" lon="12.399456985294819">
        <ele>137.85</ele>
        <time>2025-02-04T01:10:30.385Z</time>
      </trkpt>
      <trkpt lat="58.947675973176956" lon="12.399330921471119">
        <ele>137.71</ele>
        <time>2025-02-04T01:10:46.394Z</time>
      </trkpt>
      <trkpt lat="58.9476599637419" lon="12.39920494146645">
        <ele>137.56</ele>
        <time>2025-02-04T01:11:02.405Z</time>
      </trkpt>
      <trkpt lat="58.94764194265008" lon="12.399077955633402">
        <ele>137.42</ele>
        <time>2025-02-04T01:11:18.417Z</time>
      </trkpt>
      <trkpt lat="58.94762199372053" lon="12.398948958143592">
        <ele>137.27</ele>
        <time>2025-02-04T01:11:34.430Z</time>
      </trkpt>
      <trkpt lat="58.94759693183005" lon="12.39881794899702">
        <ele>137.12</ele>
        <time>2025-02-04T01:11:50.444Z</time>
      </trkpt>
      <trkpt lat="58.9475719537586" lon="12.398679982870817">
        <ele>136.96</ele>
        <time>2025-02-04T01:12:06.459Z</time>
      </trkpt>
      <trkpt lat="58.947546975687146" lon="12.39853992126882">
        <ele>136.8</ele>
        <time>2025-02-04T01:12:22.475Z</time>
      </trkpt>
      <trkpt lat="58.947519985958934" lon="12.398395920172334">
        <ele>136.64</ele>
        <time>2025-02-04T01:12:38.493Z</time>
      </trkpt>
      <trkpt lat="58.94748796708882" lon="12.398249991238117">
        <ele>136.48</ele>
        <time>2025-02-04T01:12:54.512Z</time>
      </trkpt>
      <trkpt lat="58.94745393656194" lon="12.39810498431325">
        <ele>136.31</ele>
        <time>2025-02-04T01:13:10.532Z</time>
      </trkpt>
      <trkpt lat="58.947416972368956" lon="12.397954948246479">
        <ele>136.15</ele>
        <time>2025-02-04T01:13:26.554Z</time>
      </trkpt>
      <trkpt lat="58.94737598486245" lon="12.397797955200076">
        <ele>135.98</ele>
        <time>2025-02-04T01:13:42.577Z</time>
      </trkpt>
      <trkpt lat="58.94733298569918" lon="12.397638950496912">
        <ele>135.81</ele>
        <time>2025-02-04T01:13:58.602Z</time>
      </trkpt>
      <trkpt lat="58.947285963222384" lon="12.397473994642496">
        <ele>135.64</ele>
        <time>2025-02-04T01:14:14.628Z</time>
      </trkpt>
      <trkpt lat="58.94723793491721" lon="12.397308954969049">
        <ele>135.47</ele>
        <time>2025-02-04T01:14:30.656Z</time>
      </trkpt>
      <trkpt lat="58.94718596711755" lon="12.39714098162949">
        <ele>135.3</ele>
        <time>2025-02-04T01:14:46.685Z</time>
      </trkpt>
      <trkpt lat="58.94713098183274" lon="12.396975941956043">
        <ele>135.14</ele>
        <time>2025-02-04T01:15:02.716Z</time>
      </trkpt>
      <trkpt lat="58.947070967406034" lon="12.396810986101627">
        <ele>134.98</ele>
        <time>2025-02-04T01:15:18.749Z</time>
      </trkpt>
      <trkpt lat="58.947007935494184" lon="12.396654998883605">
        <ele>134.83</ele>
        <time>2025-02-04T01:15:34.783Z</time>
      </trkpt>
      <trkpt lat="58.9469379466027" lon="12.39649398252368">
        <ele>134.66</ele>
        <time>2025-02-04T01:15:50.819Z</time>
      </trkpt>
      <trkpt lat="58.94686494022608" lon="12.396332966163754">
        <ele>134.51</ele>
        <time>2025-02-04T01:16:06.857Z</time>
      </trkpt>
      <trkpt lat="58.94678891636431" lon="12.39617396146059">
        <ele>134.34</ele>
        <time>2025-02-04T01:16:22.897Z</time>
      </trkpt>
      <trkpt lat="58.9467119704932" lon="12.396014956757426">
        <ele>134.18</ele>
        <time>2025-02-04T01:16:38.938Z</time>
      </trkpt>
      <trkpt lat="58.94663192331791" lon="12.395856957882643">
        <ele>134.03</ele>
        <time>2025-02-04T01:16:54.981Z</time>
      </trkpt>
      <trkpt lat="58.94654693081975" lon="12.395703988149762">
        <ele>133.88</ele>
        <time>2025-02-04T01:17:11.026Z</time>
      </trkpt>
      <trkpt lat="58.94645699299872" lon="12.395557975396514">
        <ele>133.72</ele>
        <time>2025-02-04T01:17:27.073Z</time>
      </trkpt>
      <trkpt lat="58.946363953873515" lon="12.395415985956788">
        <ele>133.56</ele>
        <time>2025-02-04T01:17:43.122Z</time>
      </trkpt>
      <trkpt lat="58.94626697525382" lon="12.395276930183172">
        <ele>133.4</ele>
        <time>2025-02-04T01:17:59.173Z</time>
      </trkpt>
      <trkpt lat="58.946166979148984" lon="12.395142987370491">
        <ele>133.25</ele>
        <time>2025-02-04T01:18:15.226Z</time>
      </trkpt>
      <trkpt lat="58.94606597721577" lon="12.39501197822392">
        <ele>133.11</ele>
        <time>2025-02-04T01:18:31.281Z</time>
      </trkpt>
      <trkpt lat="58.94596296362579" lon="12.394884992390871">
        <ele>132.96</ele>
        <time>2025-02-04T01:18:47.338Z</time>
      </trkpt>
      <trkpt lat="58.94585693255067" lon="12.394762951880693">
        <ele>132.82</ele>
        <time>2025-02-04T01:19:03.397Z</time>
      </trkpt>
      <trkpt lat="58.94574897363782" lon="12.394650969654322">
        <ele>132.69</ele>
        <time>2025-02-04T01:19:19.458Z</time>
      </trkpt>
      <trkpt lat="58.94563699141145" lon="12.394550973549485">
        <ele>132.55</ele>
        <time>2025-02-04T01:19:35.521Z</time>
      </trkpt>
      <trkpt lat="58.94552391953766" lon="12.3944569285959">
        <ele>132.42</ele>
        <time>2025-02-04T01:19:51.586Z</time>
      </trkpt>
      <trkpt lat="58.94540992565453" lon="12.39437093026936">
        <ele>132.28</ele>
        <time>2025-02-04T01:20:07.653Z</time>
      </trkpt>
      <trkpt lat="58.94529794342816" lon="12.394293984398246">
        <ele>132.15</ele>
        <time>2025-02-04T01:20:23.721Z</time>
      </trkpt>
      <trkpt lat="58.94518696703017" lon="12.394225923344493">
        <ele>132.01</ele>
        <time>2025-02-04T01:20:39.791Z</time>
      </trkpt>
      <trkpt lat="58.945078924298286" lon="12.394159957766533">
        <ele>131.88</ele>
        <time>2025-02-04T01:20:55.863Z</time>
      </trkpt>
      <trkpt lat="58.94497197121382" lon="12.394094998016953">
        <ele>131.74</ele>
        <time>2025-02-04T01:21:11.937Z</time>
      </trkpt>
      <trkpt lat="58.94486392848194" lon="12.394032971933484">
        <ele>131.61</ele>
        <time>2025-02-04T01:21:28.013Z</time>
      </trkpt>
      <trkpt lat="58.94475898705423" lon="12.393972957506776">
        <ele>131.49</ele>
        <time>2025-02-04T01:21:44.090Z</time>
      </trkpt>
      <trkpt lat="58.94465798512101" lon="12.393911937251687">
        <ele>131.36</ele>
        <time>2025-02-04T01:22:00.169Z</time>
      </trkpt>
      <trkpt lat="58.944557989016175" lon="12.39385292865336">
        <ele>131.24</ele>
        <time>2025-02-04T01:22:16.250Z</time>
      </trkpt>
      <trkpt lat="58.94446092657745" lon="12.393793920055032">
        <ele>131.12</ele>
        <time>2025-02-04T01:22:32.332Z</time>
      </trkpt>
      <trkpt lat="58.94436797127128" lon="12.393739940598607">
        <ele>131.01</ele>
        <time>2025-02-04T01:22:48.416Z</time>
      </trkpt>
      <trkpt lat="58.944280967116356" lon="12.393689984455705">
        <ele>130.9</ele>
        <time>2025-02-04T01:23:04.502Z</time>
      </trkpt>
      <trkpt lat="58.94420091994107" lon="12.393643967807293">
        <ele>130.79</ele>
        <time>2025-02-04T01:23:20.589Z</time>
      </trkpt>
      <trkpt lat="58.944125985726714" lon="12.393599962815642">
        <ele>130.68</ele>
        <time>2025-02-04T01:23:36.677Z</time>
      </trkpt>
      <trkpt lat="58.94405599683523" lon="12.393556963652372">
        <ele>130.57</ele>
        <time>2025-02-04T01:23:52.766Z</time>
      </trkpt>
      <trkpt lat="58.94398994743824" lon="12.393517987802625">
        <ele>130.46</ele>
        <time>2025-02-04T01:24:08.856Z</time>
      </trkpt>
      <trkpt lat="58.94392892718315" lon="12.393484963104129">
        <ele>130.36</ele>
        <time>2025-02-04T01:24:24.947Z</time>
      </trkpt>
      <trkpt lat="58.943871930241585" lon="12.393451938405633">
        <ele>130.26</ele>
        <time>2025-02-04T01:24:41.039Z</time>
      </trkpt>
      <trkpt lat="58.94381392747164" lon="12.39342293702066">
        <ele>130.16</ele>
        <time>2025-02-04T01:24:57.132Z</time>
      </trkpt>
      <trkpt lat="58.94375693053007" lon="12.393394941464067">
        <ele>130.06</ele>
        <time>2025-02-04T01:25:13.226Z</time>
      </trkpt>
      <trkpt lat="58.943697921931744" lon="12.393365940079093">
        <ele>129.96</ele>
        <time>2025-02-04T01:25:29.321Z</time>
      </trkpt>
      <trkpt lat="58.943635979667306" lon="12.393331993371248">
        <ele>129.86</ele>
        <time>2025-02-04T01:25:45.417Z</time>
      </trkpt>
      <trkpt lat="58.943572947755456" lon="12.39329494535923">
        <ele>129.76</ele>
        <time>2025-02-04T01:26:01.514Z</time>
      </trkpt>
      <trkpt lat="58.94350798800588" lon="12.393257981166244">
        <ele>129.66</ele>
        <time>2025-02-04T01:26:17.612Z</time>
      </trkpt>
      <trkpt lat="58.943440932780504" lon="12.393219927325845">
        <ele>129.57</ele>
        <time>2025-02-04T01:26:33.712Z</time>
      </trkpt>
      <trkpt lat="58.94337295554578" lon="12.393178939819336">
        <ele>129.48</ele>
        <time>2025-02-04T01:26:49.813Z</time>
      </trkpt>
      <trkpt lat="58.94330397248268" lon="12.393140969797969">
        <ele>129.39</ele>
        <time>2025-02-04T01:27:05.915Z</time>
      </trkpt>
      <trkpt lat="58.94323993474245" lon="12.39310392178595">
        <ele>129.3</ele>
        <time>2025-02-04T01:27:22.018Z</time>
      </trkpt>
      <trkpt lat="58.94317799247801" lon="12.393064945936203">
        <ele>129.21</ele>
        <time>2025-02-04T01:27:38.122Z</time>
      </trkpt>
      <trkpt lat="58.94311496056616" lon="12.393024964258075">
        <ele>129.12</ele>
        <time>2025-02-04T01:27:54.227Z</time>
      </trkpt>
      <trkpt lat="58.94305092282593" lon="12.392984982579947">
        <ele>129.04</ele>
        <time>2025-02-04T01:28:10.333Z</time>
      </trkpt>
      <trkpt lat="58.94298596307635" lon="12.392944917082787">
        <ele>128.95</ele>
        <time>2025-02-04T01:28:26.440Z</time>
      </trkpt>
      <trkpt lat="58.94291899167001" lon="12.392905941233039">
        <ele>128.87</ele>
        <time>2025-02-04T01:28:42.548Z</time>
      </trkpt>
      <trkpt lat="58.94285093061626" lon="12.39286495372653">
        <ele>128.79</ele>
        <time>2025-02-04T01:28:58.657Z</time>
      </trkpt>
      <trkpt lat="58.9427799358964" lon="12.392826983705163">
        <ele>128.71</ele>
        <time>2025-02-04T01:29:14.768Z</time>
      </trkpt>
      <trkpt lat="58.942712964490056" lon="12.392789935693145">
        <ele>128.63</ele>
        <time>2025-02-04T01:29:30.880Z</time>
      </trkpt>
      <trkpt lat="58.942645993083715" lon="12.39275699481368">
        <ele>128.55</ele>
        <time>2025-02-04T01:29:46.993Z</time>
      </trkpt>
      <trkpt lat="58.94257893785834" lon="12.392724975943565">
        <ele>128.47</ele>
        <time>2025-02-04T01:30:03.107Z</time>
      </trkpt>
      <trkpt lat="58.942516995593905" lon="12.39269195124507">
        <ele>128.4</ele>
        <time>2025-02-04T01:30:19.222Z</time>
      </trkpt>
      <trkpt lat="58.94245899282396" lon="12.392660938203335">
        <ele>128.32</ele>
        <time>2025-02-04T01:30:35.338Z</time>
      </trkpt>
      <trkpt lat="58.942407947033644" lon="12.392631936818361">
        <ele>128.24</ele>
        <time>2025-02-04T01:30:51.455Z</time>
      </trkpt>
      <trkpt lat="58.94235597923398" lon="12.392608970403671">
        <ele>128.17</ele>
        <time>2025-02-04T01:31:07.573Z</time>
      </trkpt>
      <trkpt lat="58.942301999777555" lon="12.39258298650384">
        <ele>128.09</ele>
        <time>2025-02-04T01:31:23.692Z</time>
      </trkpt>
      <trkpt lat="58.94224894233048" lon="12.392553985118866">
        <ele>128.02</ele>
        <time>2025-02-04T01:31:39.811Z</time>
      </trkpt>
      <trkpt lat="58.94219898618758" lon="12.392518948763609">
        <ele>127.95</ele>
        <time>2025-02-04T01:31:55.931Z</time>
      </trkpt>
      <trkpt lat="58.942150957882404" lon="12.39247896708548">
        <ele>127.87</ele>
        <time>2025-02-04T01:32:12.052Z</time>
      </trkpt>
      <trkpt lat="58.94209697842598" lon="12.392448959872127">
        <ele>127.8</ele>
        <time>2025-02-04T01:32:28.174Z</time>
      </trkpt>
      <trkpt lat="58.942045932635665" lon="12.392419958487153">
        <ele>127.73</ele>
        <time>2025-02-04T01:32:44.297Z</time>
      </trkpt>
      <trkpt lat="58.94199295900762" lon="12.392394980415702">
        <ele>127.67</ele>
        <time>2025-02-04T01:33:00.421Z</time>
      </trkpt>
      <trkpt lat="58.941938979551196" lon="12.392373941838741">
        <ele>127.6</ele>
        <time>2025-02-04T01:33:16.546Z</time>
      </trkpt>
      <trkpt lat="58.94188592210412" lon="12.392345946282148">
        <ele>127.53</ele>
        <time>2025-02-04T01:33:32.672Z</time>
      </trkpt>
      <trkpt lat="58.94183496013284" lon="12.392316944897175">
        <ele>127.46</ele>
        <time>2025-02-04T01:33:48.798Z</time>
      </trkpt>
      <trkpt lat="58.94177997484803" lon="12.392288949340582">
        <ele>127.4</ele>
        <time>2025-02-04T01:34:04.925Z</time>
      </trkpt>
      <trkpt lat="58.941723983734846" lon="12.392259947955608">
        <ele>127.33</ele>
        <time>2025-02-04T01:34:21.053Z</time>
      </trkpt>
      <trkpt lat="58.94166698679328" lon="12.392230946570635">
        <ele>127.26</ele>
        <time>2025-02-04T01:34:37.182Z</time>
      </trkpt>
      <trkpt lat="58.94160898402333" lon="12.392201945185661">
        <ele>127.2</ele>
        <time>2025-02-04T01:34:53.312Z</time>
      </trkpt>
      <trkpt lat="58.94155299291015" lon="12.39217596128583">
        <ele>127.13</ele>
        <time>2025-02-04T01:35:09.443Z</time>
      </trkpt>
      <trkpt lat="58.94149297848344" lon="12.392146959900856">
        <ele>127.07</ele>
        <time>2025-02-04T01:35:25.575Z</time>
      </trkpt>
      <trkpt lat="58.94143396988511" lon="12.39211393520236">
        <ele>127.0</ele>
        <time>2025-02-04T01:35:41.708Z</time>
      </trkpt>
      <trkpt lat="58.94137496128678" lon="12.392076971009374">
        <ele>126.93</ele>
        <time>2025-02-04T01:35:57.842Z</time>
      </trkpt>
      <trkpt lat="58.941314946860075" lon="12.392042940482497">
        <ele>126.87</ele>
        <time>2025-02-04T01:36:13.977Z</time>
      </trkpt>
      <trkpt lat="58.941250992938876" lon="12.392008993774652">
        <ele>126.8</ele>
        <time>2025-02-04T01:36:30.113Z</time>
      </trkpt>
      <trkpt lat="58.94119097851217" lon="12.391973957419395">
        <ele>126.74</ele>
        <time>2025-02-04T01:36:46.250Z</time>
      </trkpt>
      <trkpt lat="58.94112995825708" lon="12.391939926892519">
        <ele>126.67</ele>
        <time>2025-02-04T01:37:02.388Z</time>
      </trkpt>
      <trkpt lat="58.94107094965875" lon="12.391903968527913">
        <ele>126.61</ele>
        <time>2025-02-04T01:37:18.527Z</time>
      </trkpt>
      <trkpt lat="58.94100992940366" lon="12.391862981021404">
        <ele>126.55</ele>
        <time>2025-02-04T01:37:34.667Z</time>
      </trkpt>
      <trkpt lat="58.940946981310844" lon="12.391822999343276">
        <ele>126.49</ele>
        <time>2025-02-04T01:37:50.808Z</time>
      </trkpt>
      <trkpt lat="58.94088193774223" lon="12.391786957159638">
        <ele>126.43</ele>
        <time>2025-02-04T01:38:06.950Z</time>
      </trkpt>
      <trkpt lat="58.940817983821034" lon="12.391750998795033">
        <ele>126.38</ele>
        <time>2025-02-04T01:38:23.093Z</time>
      </trkpt>
      <trkpt lat="58.94075092859566" lon="12.391711939126253">
        <ele>126.32</ele>
        <time>2025-02-04T01:38:39.237Z</time>
      </trkpt>
      <trkpt lat="58.9406849630177" lon="12.391676986590028">
        <ele>126.27</ele>
        <time>2025-02-04T01:38:55.383Z</time>
      </trkpt>
      <trkpt lat="58.94061991944909" lon="12.39163993857801">
        <ele>126.21</ele>
        <time>2025-02-04T01:39:11.530Z</time>
      </trkpt>
      <trkpt lat="58.94054993055761" lon="12.3915989510715">
        <ele>126.16</ele>
        <time>2025-02-04T01:39:27.678Z</time>
      </trkpt>
      <trkpt lat="58.940477930009365" lon="12.39155595190823">
        <ele>126.11</ele>
        <time>2025-02-04T01:39:43.827Z</time>
      </trkpt>
      <trkpt lat="58.94040098413825" lon="12.39151194691658">
        <ele>126.06</ele>
        <time>2025-02-04T01:39:59.977Z</time>
      </trkpt>
      <trkpt lat="58.940326971933246" lon="12.391471965238452">
        <ele>126.01</ele>
        <time>2025-02-04T01:40:16.129Z</time>
      </trkpt>
      <trkpt lat="58.94024793058634" lon="12.391433995217085">
        <ele>125.96</ele>
        <time>2025-02-04T01:40:32.282Z</time>
      </trkpt>
      <trkpt lat="58.940172996371984" lon="12.391390996053815">
        <ele>125.92</ele>
        <time>2025-02-04T01:40:48.436Z</time>
      </trkpt>
      <trkpt lat="58.940090937539935" lon="12.391347996890545">
        <ele>125.88</ele>
        <time>2025-02-04T01:41:04.591Z</time>
      </trkpt>
      <trkpt lat="58.94000795669854" lon="12.391299968585372">
        <ele>125.84</ele>
        <time>2025-02-04T01:41:20.748Z</time>
      </trkpt>
      <trkpt lat="58.93992497585714" lon="12.39125395193696">
        <ele>125.8</ele>
        <time>2025-02-04T01:41:36.906Z</time>
      </trkpt>
      <trkpt lat="58.93984291702509" lon="12.39120994694531">
        <ele>125.77</ele>
        <time>2025-02-04T01:41:53.066Z</time>
      </trkpt>
      <trkpt lat="58.93976094201207" lon="12.391164936125278">
        <ele>125.74</ele>
        <time>2025-02-04T01:42:09.227Z</time>
      </trkpt>
      <trkpt lat="58.939680978655815" lon="12.391114979982376">
        <ele>125.71</ele>
        <time>2025-02-04T01:42:25.389Z</time>
      </trkpt>
      <trkpt lat="58.939599925652146" lon="12.391068963333964">
        <ele>125.68</ele>
        <time>2025-02-04T01:42:41.553Z</time>
      </trkpt>
      <trkpt lat="58.93952197395265" lon="12.39101791754365">
        <ele>125.65</ele>
        <time>2025-02-04T01:42:57.718Z</time>
      </trkpt>
      <trkpt lat="58.93944293260574" lon="12.39097198471427">
        <ele>125.62</ele>
        <time>2025-02-04T01:43:13.884Z</time>
      </trkpt>
      <trkpt lat="58.93936799839139" lon="12.390918927267194">
        <ele>125.6</ele>
        <time>2025-02-04T01:43:30.052Z</time>
      </trkpt>
      <trkpt lat="58.939293986186385" lon="12.39086796529591">
        <ele>125.58</ele>
        <time>2025-02-04T01:43:46.221Z</time>
      </trkpt>
      <trkpt lat="58.93921997398138" lon="12.390819936990738">
        <ele>125.56</ele>
        <time>2025-02-04T01:44:02.391Z</time>
      </trkpt>
      <trkpt lat="58.939145961776376" lon="12.390772998332977">
        <ele>125.55</ele>
        <time>2025-02-04T01:44:18.562Z</time>
      </trkpt>
      <trkpt lat="58.93907094374299" lon="12.390729999169707">
        <ele>125.54</ele>
        <time>2025-02-04T01:44:34.735Z</time>
      </trkpt>
      <trkpt lat="58.938995925709605" lon="12.390688927844167">
        <ele>125.53</ele>
        <time>2025-02-04T01:44:50.909Z</time>
      </trkpt>
      <trkpt lat="58.93892593681812" lon="12.390640983358026">
        <ele>125.52</ele>
        <time>2025-02-04T01:45:07.084Z</time>
      </trkpt>
      <trkpt lat="58.93885695375502" lon="12.390591949224472">
        <ele>125.52</ele>
        <time>2025-02-04T01:45:23.260Z</time>
      </trkpt>
      <trkpt lat="58.93878495320678" lon="12.3905439209193">
        <ele>125.52</ele>
        <time>2025-02-04T01:45:39.437Z</time>
      </trkpt>
      <trkpt lat="58.938713958486915" lon="12.390495976433158">
        <ele>125.52</ele>
        <time>2025-02-04T01:45:55.616Z</time>
      </trkpt>
      <trkpt lat="58.93864296376705" lon="12.390443924814463">
        <ele>125.52</ele>
        <time>2025-02-04T01:46:11.796Z</time>
      </trkpt>
      <trkpt lat="58.93857096321881" lon="12.390396986156702">
        <ele>125.52</ele>
        <time>2025-02-04T01:46:27.977Z</time>
      </trkpt>
      <trkpt lat="58.938501980155706" lon="12.390345940366387">
        <ele>125.53</ele>
        <time>2025-02-04T01:46:44.159Z</time>
      </trkpt>
      <trkpt lat="58.93842495046556" lon="12.39030797034502">
        <ele>125.53</ele>
        <time>2025-02-04T01:47:00.343Z</time>
      </trkpt>
      <trkpt lat="58.938345992937684" lon="12.390268994495273">
        <ele>125.54</ele>
        <time>2025-02-04T01:47:16.528Z</time>
      </trkpt>
      <trkpt lat="58.93826896324754" lon="12.390225995332003">
        <ele>125.55</ele>
        <time>2025-02-04T01:47:32.714Z</time>
      </trkpt>
      <trkpt lat="58.93819193355739" lon="12.390181990340352">
        <ele>125.57</ele>
        <time>2025-02-04T01:47:48.901Z</time>
      </trkpt>
      <trkpt lat="58.938111970201135" lon="12.390139997005463">
        <ele>125.59</ele>
        <time>2025-02-04T01:48:05.090Z</time>
      </trkpt>
      <trkpt lat="58.93803192302585" lon="12.390095992013812">
        <ele>125.61</ele>
        <time>2025-02-04T01:48:21.280Z</time>
      </trkpt>
      <trkpt lat="58.93794894218445" lon="12.390055926516652">
        <ele>125.63</ele>
        <time>2025-02-04T01:48:37.472Z</time>
      </trkpt>
      <trkpt lat="58.93786495551467" lon="12.390012927353382">
        <ele>125.66</ele>
        <time>2025-02-04T01:48:53.665Z</time>
      </trkpt>
      <trkpt lat="58.93777895718813" lon="12.389974957332015">
        <ele>125.68</ele>
        <time>2025-02-04T01:49:09.859Z</time>
      </trkpt>
      <trkpt lat="58.93769195303321" lon="12.389932963997126">
        <ele>125.71</ele>
        <time>2025-02-04T01:49:26.055Z</time>
      </trkpt>
      <trkpt lat="58.93760193139315" lon="12.389888959005475">
        <ele>125.74</ele>
        <time>2025-02-04T01:49:42.252Z</time>
      </trkpt>
      <trkpt lat="58.937509981915355" lon="12.389846965670586">
        <ele>125.77</ele>
        <time>2025-02-04T01:49:58.451Z</time>
      </trkpt>
      <trkpt lat="58.93741694279015" lon="12.389801954850554">
        <ele>125.81</ele>
        <time>2025-02-04T01:50:14.651Z</time>
      </trkpt>
      <trkpt lat="58.93732197582722" lon="12.389764990657568">
        <ele>125.85</ele>
        <time>2025-02-04T01:50:30.853Z</time>
      </trkpt>
      <trkpt lat="58.93722298555076" lon="12.38972693681717">
        <ele>125.89</ele>
        <time>2025-02-04T01:50:47.056Z</time>
      </trkpt>
      <trkpt lat="58.937122989445925" lon="12.38968594931066">
        <ele>125.94</ele>
        <time>2025-02-04T01:51:03.261Z</time>
      </trkpt>
      <trkpt lat="58.937018970027566" lon="12.389639932662249">
        <ele>125.99</ele>
        <time>2025-02-04T01:51:19.468Z</time>
      </trkpt>
      <trkpt lat="58.93691595643759" lon="12.389583941549063">
        <ele>126.04</ele>
        <time>2025-02-04T01:51:35.677Z</time>
      </trkpt>
      <trkpt lat="58.93680992536247" lon="12.3895319737494">
        <ele>126.1</ele>
        <time>2025-02-04T01:51:51.887Z</time>
      </trkpt>
      <trkpt lat="58.93670498393476" lon="12.389479922130704">
        <ele>126.16</ele>
        <time>2025-02-04T01:52:08.099Z</time>
      </trkpt>
      <trkpt lat="58.93659995868802" lon="12.389422925189137">
        <ele>126.23</ele>
        <time>2025-02-04T01:52:24.313Z</time>
      </trkpt>
      <trkpt lat="58.93649593926966" lon="12.38936391659081">
        <ele>126.3</ele>
        <time>2025-02-04T01:52:40.529Z</time>
      </trkpt>
      <trkpt lat="58.936392925679684" lon="12.389308931306005">
        <ele>126.38</ele>
        <time>2025-02-04T01:52:56.746Z</time>
      </trkpt>
      <trkpt lat="58.936290917918086" lon="12.389252940192819">
        <ele>126.46</ele>
        <time>2025-02-04T01:53:12.965Z</time>
      </trkpt>
      <trkpt lat="58.93618899397552" lon="12.389202984049916">
        <ele>126.55</ele>
        <time>2025-02-04T01:53:29.186Z</time>
      </trkpt>
      <trkpt lat="58.9360879920423" lon="12.389151938259602">
        <ele>126.64</ele>
        <time>2025-02-04T01:53:45.408Z</time>
      </trkpt>
      <trkpt lat="58.93598799593747" lon="12.389109944924712">
        <ele>126.74</ele>
        <time>2025-02-04T01:54:01.632Z</time>
      </trkpt>
      <trkpt lat="58.93589193932712" lon="12.389068957418203">
        <ele>126.84</ele>
        <time>2025-02-04T01:54:17.858Z</time>
      </trkpt>
      <trkpt lat="58.93579596653581" lon="12.389036938548088">
        <ele>126.95</ele>
        <time>2025-02-04T01:54:34.085Z</time>
      </trkpt>
      <trkpt lat="58.93569999374449" lon="12.389008942991495">
        <ele>127.07</ele>
        <time>2025-02-04T01:54:50.314Z</time>
      </trkpt>
      <trkpt lat="58.93560695461929" lon="12.388985976576805">
        <ele>127.18</ele>
        <time>2025-02-04T01:55:06.544Z</time>
      </trkpt>
      <trkpt lat="58.935515927150846" lon="12.388967955484986">
        <ele>127.29</ele>
        <time>2025-02-04T01:55:22.776Z</time>
      </trkpt>
      <trkpt lat="58.935426995158195" lon="12.388951946049929">
        <ele>127.4</ele>
        <time>2025-02-04T01:55:39.009Z</time>
      </trkpt>
      <trkpt lat="58.935340996831656" lon="12.388942977413535">
        <ele>127.51</ele>
        <time>2025-02-04T01:55:55.243Z</time>
      </trkpt>
      <trkpt lat="58.935257932171226" lon="12.388939959928393">
        <ele>127.61</ele>
        <time>2025-02-04T01:56:11.479Z</time>
      </trkpt>
      <trkpt lat="58.93517495132983" lon="12.388938954100013">
        <ele>127.72</ele>
        <time>2025-02-04T01:56:27.716Z</time>
      </trkpt>
      <trkpt lat="58.93509498797357" lon="12.388943983241916">
        <ele>127.83</ele>
        <time>2025-02-04T01:56:43.954Z</time>
      </trkpt>
      <trkpt lat="58.935019969940186" lon="12.388950940221548">
        <ele>127.93</ele>
        <time>2025-02-04T01:57:00.194Z</time>
      </trkpt>
      <trkpt lat="58.93494696356356" lon="12.388955969363451">
        <ele>128.04</ele>
        <time>2025-02-04T01:57:16.435Z</time>
      </trkpt>
      <trkpt lat="58.93487395718694" lon="12.388963932171464">
        <ele>128.15</ele>
        <time>2025-02-04T01:57:32.677Z</time>
      </trkpt>
      <trkpt lat="58.93479994498193" lon="12.388978935778141">
        <ele>128.26</ele>
        <time>2025-02-04T01:57:48.920Z</time>
      </trkpt>
      <trkpt lat="58.93472693860531" lon="12.38899695686996">
        <ele>128.37</ele>
        <time>2025-02-04T01:58:05.164Z</time>
      </trkpt>
      <trkpt lat="58.934655943885446" lon="12.389013972133398">
        <ele>128.48</ele>
        <time>2025-02-04T01:58:21.409Z</time>
      </trkpt>
      <trkpt lat="58.93458595499396" lon="12.389036938548088">
        <ele>128.59</ele>
        <time>2025-02-04T01:58:37.656Z</time>
      </trkpt>
      <trkpt lat="58.93452191725373" lon="12.38906099461019">
        <ele>128.71</ele>
        <time>2025-02-04T01:58:53.904Z</time>
      </trkpt>
      <trkpt lat="58.934457963332534" lon="12.38908396102488">
        <ele>128.83</ele>
        <time>2025-02-04T01:59:10.153Z</time>
      </trkpt>
      <trkpt lat="58.9343939255923" lon="12.389111956581473">
        <ele>128.96</ele>
        <time>2025-02-04T01:59:26.403Z</time>
      </trkpt>
      <trkpt lat="58.934328965842724" lon="12.389141963794827">
        <ele>129.08</ele>
        <time>2025-02-04T01:59:42.654Z</time>
      </trkpt>
      <trkpt lat="58.934265933930874" lon="12.389171971008182">
        <ele>129.2</ele>
        <time>2025-02-04T01:59:58.906Z</time>
      </trkpt>
      <trkpt lat="58.934200974181294" lon="12.389203989878297">
        <ele>129.33</ele>
        <time>2025-02-04T02:00:15.159Z</time>
      </trkpt>
      <trkpt lat="58.934137942269444" lon="12.389240954071283">
        <ele>129.45</ele>
        <time>2025-02-04T02:00:31.413Z</time>
      </trkpt>
      <trkpt lat="58.934074994176626" lon="12.38927791826427">
        <ele>129.58</ele>
        <time>2025-02-04T02:00:47.668Z</time>
      </trkpt>
      <trkpt lat="58.934011962264776" lon="12.389312954619527">
        <ele>129.71</ele>
        <time>2025-02-04T02:01:03.924Z</time>
      </trkpt>
      <trkpt lat="58.933946918696165" lon="12.389349918812513">
        <ele>129.83</ele>
        <time>2025-02-04T02:01:20.181Z</time>
      </trkpt>
      <trkpt lat="58.933879947289824" lon="12.389388978481293">
        <ele>129.96</ele>
        <time>2025-02-04T02:01:36.439Z</time>
      </trkpt>
      <trkpt lat="58.933814987540245" lon="12.38942694850266">
        <ele>130.09</ele>
        <time>2025-02-04T02:01:52.698Z</time>
      </trkpt>
      <trkpt lat="58.933750949800014" lon="12.389461984857917">
        <ele>130.22</ele>
        <time>2025-02-04T02:02:08.958Z</time>
      </trkpt>
      <trkpt lat="58.933686995878816" lon="12.389497943222523">
        <ele>130.34</ele>
        <time>2025-02-04T02:02:25.220Z</time>
      </trkpt>
      <trkpt lat="58.933624969795346" lon="12.38953691907227">
        <ele>130.47</ele>
        <time>2025-02-04T02:02:41.483Z</time>
      </trkpt>
      <trkpt lat="58.933561937883496" lon="12.38957497291267">
        <ele>130.6</ele>
        <time>2025-02-04T02:02:57.747Z</time>
      </trkpt>
      <trkpt lat="58.93350091762841" lon="12.389611937105656">
        <ele>130.73</ele>
        <time>2025-02-04T02:03:14.012Z</time>
      </trkpt>
      <trkpt lat="58.93343796953559" lon="12.389649990946054">
        <ele>130.86</ele>
        <time>2025-02-04T02:03:30.278Z</time>
      </trkpt>
      <trkpt lat="58.93337493762374" lon="12.389686955139041">
        <ele>130.98</ele>
        <time>2025-02-04T02:03:46.545Z</time>
      </trkpt>
      <trkpt lat="58.9333129953593" lon="12.389722997322679">
        <ele>131.11</ele>
        <time>2025-02-04T02:04:02.813Z</time>
      </trkpt>
      <trkpt lat="58.93324895761907" lon="12.389758955687284">
        <ele>131.23</ele>
        <time>2025-02-04T02:04:19.082Z</time>
      </trkpt>
      <trkpt lat="58.9331869315356" lon="12.389795919880271">
        <ele>131.36</ele>
        <time>2025-02-04T02:04:35.352Z</time>
      </trkpt>
      <trkpt lat="58.933125995099545" lon="12.38983296789229">
        <ele>131.48</ele>
        <time>2025-02-04T02:04:51.623Z</time>
      </trkpt>
      <trkpt lat="58.933065980672836" lon="12.389870937913656">
        <ele>131.61</ele>
        <time>2025-02-04T02:05:07.895Z</time>
      </trkpt>
      <trkpt lat="58.93300697207451" lon="12.389908991754055">
        <ele>131.72</ele>
        <time>2025-02-04T02:05:24.168Z</time>
      </trkpt>
      <trkpt lat="58.93294997513294" lon="12.389945955947042">
        <ele>131.84</ele>
        <time>2025-02-04T02:05:40.442Z</time>
      </trkpt>
      <trkpt lat="58.932893984019756" lon="12.389977974817157">
        <ele>131.96</ele>
        <time>2025-02-04T02:05:56.717Z</time>
      </trkpt>
      <trkpt lat="58.93283799290657" lon="12.39000697620213">
        <ele>132.08</ele>
        <time>2025-02-04T02:06:12.993Z</time>
      </trkpt>
      <trkpt lat="58.93277999013662" lon="12.390032960101962">
        <ele>132.2</ele>
        <time>2025-02-04T02:06:29.270Z</time>
      </trkpt>
      <trkpt lat="58.932724921032786" lon="12.390059949830174">
        <ele>132.32</ele>
        <time>2025-02-04T02:06:45.548Z</time>
      </trkpt>
      <trkpt lat="58.93267295323312" lon="12.390088951215148">
        <ele>132.44</ele>
        <time>2025-02-04T02:07:01.826Z</time>
      </trkpt>
      <trkpt lat="58.93261997960508" lon="12.390118958428502">
        <ele>132.56</ele>
        <time>2025-02-04T02:07:18.105Z</time>
      </trkpt>
      <trkpt lat="58.932568933814764" lon="12.390144942328334">
        <ele>132.68</ele>
        <time>2025-02-04T02:07:34.385Z</time>
      </trkpt>
      <trkpt lat="58.93251797184348" lon="12.390171932056546">
        <ele>132.79</ele>
        <time>2025-02-04T02:07:50.666Z</time>
      </trkpt>
      <trkpt lat="58.93246893770993" lon="12.39019799977541">
        <ele>132.91</ele>
        <time>2025-02-04T02:08:06.948Z</time>
      </trkpt>
      <trkpt lat="58.932418981567025" lon="12.390223983675241">
        <ele>133.02</ele>
        <time>2025-02-04T02:08:23.231Z</time>
      </trkpt>
      <trkpt lat="58.93236793577671" lon="12.390250973403454">
        <ele>133.13</ele>
        <time>2025-02-04T02:08:39.515Z</time>
      </trkpt>
      <trkpt lat="58.93231697380543" lon="12.390276957303286">
        <ele>133.24</ele>
        <time>2025-02-04T02:08:55.799Z</time>
      </trkpt>
      <trkpt lat="58.932267939671874" lon="12.390302941203117">
        <ele>133.34</ele>
        <time>2025-02-04T02:09:12.084Z</time>
      </trkpt>
      <trkpt lat="58.93221697770059" lon="12.390338983386755">
        <ele>133.45</ele>
        <time>2025-02-04T02:09:28.370Z</time>
      </trkpt>
      <trkpt lat="58.93216794356704" lon="12.390370918437839">
        <ele>133.55</ele>
        <time>2025-02-04T02:09:44.657Z</time>
      </trkpt>
      <trkpt lat="58.932121926918626" lon="12.390395980328321">
        <ele>133.65</ele>
        <time>2025-02-04T02:10:00.945Z</time>
      </trkpt>
      <trkpt lat="58.932077921926975" lon="12.39041693508625">
        <ele>133.75</ele>
        <time>2025-02-04T02:10:17.233Z</time>
      </trkpt>
      <trkpt lat="58.932032994925976" lon="12.390440991148353">
        <ele>133.85</ele>
        <time>2025-02-04T02:10:33.522Z</time>
      </trkpt>
      <trkpt lat="58.931986978277564" lon="12.3904609400779">
        <ele>133.95</ele>
        <time>2025-02-04T02:10:49.812Z</time>
      </trkpt>
      <trkpt lat="58.93194297328591" lon="12.390483990311623">
        <ele>134.04</ele>
        <time>2025-02-04T02:11:06.103Z</time>
      </trkpt>
      <trkpt lat="58.93189896829426" lon="12.390506956726313">
        <ele>134.13</ele>
        <time>2025-02-04T02:11:22.394Z</time>
      </trkpt>
      <trkpt lat="58.93185496330261" lon="12.390525983646512">
        <ele>134.23</ele>
        <time>2025-02-04T02:11:38.686Z</time>
      </trkpt>
      <trkpt lat="58.93181196413934" lon="12.39054492674768">
        <ele>134.32</ele>
        <time>2025-02-04T02:11:54.979Z</time>
      </trkpt>
      <trkpt lat="58.93176594749093" lon="12.390567976981401">
        <ele>134.4</ele>
        <time>2025-02-04T02:12:11.273Z</time>
      </trkpt>
      <trkpt lat="58.93171892501414" lon="12.390590943396091">
        <ele>134.48</ele>
        <time>2025-02-04T02:12:27.567Z</time>
      </trkpt>
      <trkpt lat="58.931669974699616" lon="12.390614999458194">
        <ele>134.56</ele>
        <time>2025-02-04T02:12:43.862Z</time>
      </trkpt>
      <trkpt lat="58.93162094056606" lon="12.390640983358026">
        <ele>134.64</ele>
        <time>2025-02-04T02:13:00.158Z</time>
      </trkpt>
      <trkpt lat="58.93157391808927" lon="12.390659926459193">
        <ele>134.72</ele>
        <time>2025-02-04T02:13:16.455Z</time>
      </trkpt>
      <trkpt lat="58.93152597360313" lon="12.390676941722631">
        <ele>134.8</ele>
        <time>2025-02-04T02:13:32.753Z</time>
      </trkpt>
      <trkpt lat="58.93147995695472" lon="12.39069395698607">
        <ele>134.87</ele>
        <time>2025-02-04T02:13:49.051Z</time>
      </trkpt>
      <trkpt lat="58.931432934477925" lon="12.390707954764366">
        <ele>134.94</ele>
        <time>2025-02-04T02:14:05.350Z</time>
      </trkpt>
      <trkpt lat="58.931385995820165" lon="12.390722958371043">
        <ele>135.01</ele>
        <time>2025-02-04T02:14:21.650Z</time>
      </trkpt>
      <trkpt lat="58.93134098500013" lon="12.39073695614934">
        <ele>135.07</ele>
        <time>2025-02-04T02:14:37.951Z</time>
      </trkpt>
      <trkpt lat="58.93129295669496" lon="12.390750953927636">
        <ele>135.13</ele>
        <time>2025-02-04T02:14:54.252Z</time>
      </trkpt>
      <trkpt lat="58.93124392256141" lon="12.390763945877552">
        <ele>135.19</ele>
        <time>2025-02-04T02:15:10.554Z</time>
      </trkpt>
      <trkpt lat="58.931194972246885" lon="12.390776937827468">
        <ele>135.25</ele>
        <time>2025-02-04T02:15:26.857Z</time>
      </trkpt>
      <trkpt lat="58.93114493228495" lon="12.390791941434145">
        <ele>135.3</ele>
        <time>2025-02-04T02:15:43.161Z</time>
      </trkpt>
      <trkpt lat="58.93109296448529" lon="12.390806945040822">
        <ele>135.35</ele>
        <time>2025-02-04T02:15:59.466Z</time>
      </trkpt>
      <trkpt lat="58.931040996685624" lon="12.390816919505596">
        <ele>135.39</ele>
        <time>2025-02-04T02:16:15.771Z</time>
      </trkpt>
      <trkpt lat="58.93098995089531" lon="12.390825971961021">
        <ele>135.44</ele>
        <time>2025-02-04T02:16:32.077Z</time>
      </trkpt>
      <trkpt lat="58.930937983095646" lon="12.390833934769034">
        <ele>135.48</ele>
        <time>2025-02-04T02:16:48.384Z</time>
      </trkpt>
      <trkpt lat="58.93088693730533" lon="12.390839969739318">
        <ele>135.52</ele>
        <time>2025-02-04T02:17:04.692Z</time>
      </trkpt>
      <trkpt lat="58.93083295784891" lon="12.39084692671895">
        <ele>135.55</ele>
        <time>2025-02-04T02:17:21.001Z</time>
      </trkpt>
      <trkpt lat="58.93077696673572" lon="12.390850950032473">
        <ele>135.59</ele>
        <time>2025-02-04T02:17:37.311Z</time>
      </trkpt>
      <trkpt lat="58.930721981450915" lon="12.390854973345995">
        <ele>135.62</ele>
        <time>2025-02-04T02:17:53.622Z</time>
      </trkpt>
      <trkpt lat="58.93066699616611" lon="12.390858996659517">
        <ele>135.64</ele>
        <time>2025-02-04T02:18:09.933Z</time>
      </trkpt>
      <trkpt lat="58.930612932890654" lon="12.390860924497247">
        <ele>135.67</ele>
        <time>2025-02-04T02:18:26.245Z</time>
      </trkpt>
      <trkpt lat="58.93055593594909" lon="12.390861930325627">
        <ele>135.7</ele>
        <time>2025-02-04T02:18:42.558Z</time>
      </trkpt>
      <trkpt lat="58.93050095066428" lon="12.390857990831137">
        <ele>135.72</ele>
        <time>2025-02-04T02:18:58.872Z</time>
      </trkpt>
      <trkpt lat="58.930442947894335" lon="12.390856985002756">
        <ele>135.74</ele>
        <time>2025-02-04T02:19:15.187Z</time>
      </trkpt>
      <trkpt lat="58.93038293346763" lon="12.390852961689234">
        <ele>135.76</ele>
        <time>2025-02-04T02:19:31.503Z</time>
      </trkpt>
      <trkpt lat="58.93031998537481" lon="12.390848938375711">
        <ele>135.77</ele>
        <time>2025-02-04T02:19:47.820Z</time>
      </trkpt>
      <trkpt lat="58.93025795929134" lon="12.390839969739318">
        <ele>135.79</ele>
        <time>2025-02-04T02:20:04.138Z</time>
      </trkpt>
      <trkpt lat="58.93019392155111" lon="12.390826977789402">
        <ele>135.8</ele>
        <time>2025-02-04T02:20:20.457Z</time>
      </trkpt>
      <trkpt lat="58.93013097345829" lon="12.390816919505596">
        <ele>135.81</ele>
        <time>2025-02-04T02:20:36.777Z</time>
      </trkpt>
      <trkpt lat="58.93006693571806" lon="12.3908029217273">
        <ele>135.81</ele>
        <time>2025-02-04T02:20:53.098Z</time>
      </trkpt>
      <trkpt lat="58.93000197596848" lon="12.390786996111274">
        <ele>135.82</ele>
        <time>2025-02-04T02:21:09.420Z</time>
      </trkpt>
      <trkpt lat="58.92993592657149" lon="12.390768975019455">
        <ele>135.82</ele>
        <time>2025-02-04T02:21:25.743Z</time>
      </trkpt>
      <trkpt lat="58.92986895516515" lon="12.390745924785733">
        <ele>135.82</ele>
        <time>2025-02-04T02:21:42.067Z</time>
      </trkpt>
      <trkpt lat="58.929798966273665" lon="12.390720946714282">
        <ele>135.82</ele>
        <time>2025-02-04T02:21:58.392Z</time>
      </trkpt>
      <trkpt lat="58.92972696572542" lon="12.390692951157689">
        <ele>135.81</ele>
        <time>2025-02-04T02:22:14.719Z</time>
      </trkpt>
      <trkpt lat="58.92965496517718" lon="12.390662943944335">
        <ele>135.8</ele>
        <time>2025-02-04T02:22:31.047Z</time>
      </trkpt>
      <trkpt lat="58.92957894131541" lon="12.3906319309026">
        <ele>135.79</ele>
        <time>2025-02-04T02:22:47.376Z</time>
      </trkpt>
      <trkpt lat="58.92950098961592" lon="12.390592955052853">
        <ele>135.78</ele>
        <time>2025-02-04T02:23:03.706Z</time>
      </trkpt>
      <trkpt lat="58.92942094244063" lon="12.390549955889583">
        <ele>135.76</ele>
        <time>2025-02-04T02:23:20.038Z</time>
      </trkpt>
      <trkpt lat="58.92933997325599" lon="12.390505950897932">
        <ele>135.74</ele>
        <time>2025-02-04T02:23:36.371Z</time>
      </trkpt>
      <trkpt lat="58.929256992414594" lon="12.390461945906281">
        <ele>135.71</ele>
        <time>2025-02-04T02:23:52.705Z</time>
      </trkpt>
      <trkpt lat="58.929174933582544" lon="12.39041592925787">
        <ele>135.68</ele>
        <time>2025-02-04T02:24:09.041Z</time>
      </trkpt>
      <trkpt lat="58.929091952741146" lon="12.390366978943348">
        <ele>135.65</ele>
        <time>2025-02-04T02:24:25.378Z</time>
      </trkpt>
      <trkpt lat="58.92900796607137" lon="12.390316938981414">
        <ele>135.62</ele>
        <time>2025-02-04T02:24:41.717Z</time>
      </trkpt>
      <trkpt lat="58.92892599105835" lon="12.39026497118175">
        <ele>135.58</ele>
        <time>2025-02-04T02:24:58.057Z</time>
      </trkpt>
      <trkpt lat="58.92884099856019" lon="12.390208980068564">
        <ele>135.55</ele>
        <time>2025-02-04T02:25:14.398Z</time>
      </trkpt>
      <trkpt lat="58.92875491641462" lon="12.39015692844987">
        <ele>135.51</ele>
        <time>2025-02-04T02:25:30.741Z</time>
      </trkpt>
      <trkpt lat="58.92866891808808" lon="12.390105966478586">
        <ele>135.47</ele>
        <time>2025-02-04T02:25:47.085Z</time>
      </trkpt>
      <trkpt lat="58.92858392558992" lon="12.390052992850542">
        <ele>135.43</ele>
        <time>2025-02-04T02:26:03.431Z</time>
      </trkpt>
      <trkpt lat="58.92849993892014" lon="12.389998929575086">
        <ele>135.39</ele>
        <time>2025-02-04T02:26:19.778Z</time>
      </trkpt>
      <trkpt lat="58.92841796390712" lon="12.389946961775422">
        <ele>135.35</ele>
        <time>2025-02-04T02:26:36.126Z</time>
      </trkpt>
      <trkpt lat="58.928336994722486" lon="12.389891976490617">
        <ele>135.31</ele>
        <time>2025-02-04T02:26:52.476Z</time>
      </trkpt>
      <trkpt lat="58.92826398834586" lon="12.38983497954905">
        <ele>135.27</ele>
        <time>2025-02-04T02:27:08.827Z</time>
      </trkpt>
      <trkpt lat="58.928184946998954" lon="12.389781922101974">
        <ele>135.22</ele>
        <time>2025-02-04T02:27:25.179Z</time>
      </trkpt>
      <trkpt lat="58.92810598947108" lon="12.389733977615833">
        <ele>135.18</ele>
        <time>2025-02-04T02:27:41.533Z</time>
      </trkpt>
      <trkpt lat="58.92802895978093" lon="12.389687960967422">
        <ele>135.14</ele>
        <time>2025-02-04T02:27:57.888Z</time>
      </trkpt>
      <trkpt lat="58.927952935919166" lon="12.389644961804152">
        <ele>135.09</ele>
        <time>2025-02-04T02:28:14.244Z</time>
      </trkpt>
      <trkpt lat="58.92787791788578" lon="12.38959894515574">
        <ele>135.04</ele>
        <time>2025-02-04T02:28:30.602Z</time>
      </trkpt>
      <trkpt lat="58.92780591733754" lon="12.389548989012837">
        <ele>134.97</ele>
        <time>2025-02-04T02:28:46.961Z</time>
      </trkpt>
      <trkpt lat="58.927732994779944" lon="12.389498949050903">
        <ele>134.91</ele>
        <time>2025-02-04T02:29:03.321Z</time>
      </trkpt>
      <trkpt lat="58.92765898257494" lon="12.389451926574111">
        <ele>134.84</ele>
        <time>2025-02-04T02:29:19.682Z</time>
      </trkpt>
      <trkpt lat="58.927584970369935" lon="12.38940792158246">
        <ele>134.78</ele>
        <time>2025-02-04T02:29:36.045Z</time>
      </trkpt>
      <trkpt lat="58.92751196399331" lon="12.38936198875308">
        <ele>134.71</ele>
        <time>2025-02-04T02:29:52.409Z</time>
      </trkpt>
      <trkpt lat="58.927437951788306" lon="12.389313960447907">
        <ele>134.64</ele>
        <time>2025-02-04T02:30:08.774Z</time>
      </trkpt>
      <trkpt lat="58.92736192792654" lon="12.389271967113018">
        <ele>134.57</ele>
        <time>2025-02-04T02:30:25.140Z</time>
      </trkpt>
      <trkpt lat="58.92728699371219" lon="12.389226956292987">
        <ele>134.5</ele>
        <time>2025-02-04T02:30:41.508Z</time>
      </trkpt>
      <trkpt lat="58.9272119756788" lon="12.389185968786478">
        <ele>134.42</ele>
        <time>2025-02-04T02:30:57.877Z</time>
      </trkpt>
      <trkpt lat="58.92713896930218" lon="12.389143975451589">
        <ele>134.35</ele>
        <time>2025-02-04T02:31:14.247Z</time>
      </trkpt>
      <trkpt lat="58.927066968753934" lon="12.38910298794508">
        <ele>134.27</ele>
        <time>2025-02-04T02:31:30.618Z</time>
      </trkpt>
      <trkpt lat="58.92699697986245" lon="12.389069963246584">
        <ele>134.18</ele>
        <time>2025-02-04T02:31:46.990Z</time>
      </trkpt>
      <trkpt lat="58.92692799679935" lon="12.389035932719707">
        <ele>134.1</ele>
        <time>2025-02-04T02:32:03.364Z</time>
      </trkpt>
      <trkpt lat="58.92686094157398" lon="12.389002991840243">
        <ele>134.01</ele>
        <time>2025-02-04T02:32:19.739Z</time>
      </trkpt>
      <trkpt lat="58.92679397016764" lon="12.388964937999845">
        <ele>133.93</ele>
        <time>2025-02-04T02:32:36.115Z</time>
      </trkpt>
      <trkpt lat="58.926728926599026" lon="12.388928979635239">
        <ele>133.84</ele>
        <time>2025-02-04T02:32:52.492Z</time>
      </trkpt>
      <trkpt lat="58.926660949364305" lon="12.388893943279982">
        <ele>133.74</ele>
        <time>2025-02-04T02:33:08.870Z</time>
      </trkpt>
      <trkpt lat="58.92659297212958" lon="12.388855973258615">
        <ele>133.65</ele>
        <time>2025-02-04T02:33:25.249Z</time>
      </trkpt>
      <trkpt lat="58.9265229832381" lon="12.388817919418216">
        <ele>133.55</ele>
        <time>2025-02-04T02:33:41.629Z</time>
      </trkpt>
      <trkpt lat="58.92645299434662" lon="12.38878196105361">
        <ele>133.46</ele>
        <time>2025-02-04T02:33:58.010Z</time>
      </trkpt>
      <trkpt lat="58.92638895660639" lon="12.388747930526733">
        <ele>133.36</ele>
        <time>2025-02-04T02:34:14.393Z</time>
      </trkpt>
      <trkpt lat="58.92632894217968" lon="12.388721946626902">
        <ele>133.26</ele>
        <time>2025-02-04T02:34:30.777Z</time>
      </trkpt>
      <trkpt lat="58.92626993358135" lon="12.388700991868973">
        <ele>133.15</ele>
        <time>2025-02-04T02:34:47.161Z</time>
      </trkpt>
      <trkpt lat="58.926207991316915" lon="12.38867592997849">
        <ele>133.05</ele>
        <time>2025-02-04T02:35:03.547Z</time>
      </trkpt>
      <trkpt lat="58.92614194191992" lon="12.388645922765136">
        <ele>132.95</ele>
        <time>2025-02-04T02:35:19.934Z</time>
      </trkpt>
      <trkpt lat="58.9260739646852" lon="12.388621950522065">
        <ele>132.84</ele>
        <time>2025-02-04T02:35:36.322Z</time>
      </trkpt>
      <trkpt lat="58.92600296996534" lon="12.388603929430246">
        <ele>132.73</ele>
        <time>2025-02-04T02:35:52.711Z</time>
      </trkpt>
      <trkpt lat="58.925929963588715" lon="12.38858993165195">
        <ele>132.62</ele>
        <time>2025-02-04T02:36:09.101Z</time>
      </trkpt>
      <trkpt lat="58.92585695721209" lon="12.388573922216892">
        <ele>132.5</ele>
        <time>2025-02-04T02:36:25.492Z</time>
      </trkpt>
      <trkpt lat="58.925781939178705" lon="12.388552967458963">
        <ele>132.38</ele>
        <time>2025-02-04T02:36:41.884Z</time>
      </trkpt>
      <trkpt lat="58.92570692114532" lon="12.388534946367145">
        <ele>132.26</ele>
        <time>2025-02-04T02:36:58.278Z</time>
      </trkpt>
      <trkpt lat="58.925631986930966" lon="12.38852396607399">
        <ele>132.14</ele>
        <time>2025-02-04T02:37:14.673Z</time>
      </trkpt>
      <trkpt lat="58.9255609922111" lon="12.388518936932087">
        <ele>132.02</ele>
        <time>2025-02-04T02:37:31.069Z</time>
      </trkpt>
      <trkpt lat="58.92548999749124" lon="12.388516925275326">
        <ele>131.9</ele>
        <time>2025-02-04T02:37:47.466Z</time>
      </trkpt>
      <trkpt lat="58.925419924780726" lon="12.388513991609216">
        <ele>131.77</ele>
        <time>2025-02-04T02:38:03.864Z</time>
      </trkpt>
      <trkpt lat="58.925351947546005" lon="12.388506950810552">
        <ele>131.65</ele>
        <time>2025-02-04T02:38:20.263Z</time>
      </trkpt>
      <trkpt lat="58.925286987796426" lon="12.388497982174158">
        <ele>131.52</ele>
        <time>2025-02-04T02:38:36.663Z</time>
      </trkpt>
      <trkpt lat="58.9252279791981" lon="12.388491947203875">
        <ele>131.4</ele>
        <time>2025-02-04T02:38:53.064Z</time>
      </trkpt>
      <trkpt lat="58.92517492175102" lon="12.388487923890352">
        <ele>131.27</ele>
        <time>2025-02-04T02:39:09.466Z</time>
      </trkpt>
      <trkpt lat="58.92512295395136" lon="12.388482978567481">
        <ele>131.14</ele>
        <time>2025-02-04T02:39:25.869Z</time>
      </trkpt>
      <trkpt lat="58.925070986151695" lon="12.3884819727391">
        <ele>131.01</ele>
        <time>2025-02-04T02:39:42.273Z</time>
      </trkpt>
      <trkpt lat="58.92502094618976" lon="12.388483984395862">
        <ele>130.87</ele>
        <time>2025-02-04T02:39:58.678Z</time>
      </trkpt>
      <trkpt lat="58.9249689783901" lon="12.388489935547113">
        <ele>130.74</ele>
        <time>2025-02-04T02:40:15.083Z</time>
      </trkpt>
      <trkpt lat="58.924919944256544" lon="12.388498988002539">
        <ele>130.6</ele>
        <time>2025-02-04T02:40:31.489Z</time>
      </trkpt>
      <trkpt lat="58.92487292177975" lon="12.388511979952455">
        <ele>130.46</ele>
        <time>2025-02-04T02:40:47.896Z</time>
      </trkpt>
      <trkpt lat="58.92482698895037" lon="12.388520948588848">
        <ele>130.32</ele>
        <time>2025-02-04T02:41:04.304Z</time>
      </trkpt>
      <trkpt lat="58.92478197813034" lon="12.388531928882003">
        <ele>130.18</ele>
        <time>2025-02-04T02:41:20.713Z</time>
      </trkpt>
      <trkpt lat="58.92473696731031" lon="12.388541987165809">
        <ele>130.03</ele>
        <time>2025-02-04T02:41:37.122Z</time>
      </trkpt>
      <trkpt lat="58.92469497397542" lon="12.3885459266603">
        <ele>129.89</ele>
        <time>2025-02-04T02:41:53.532Z</time>
      </trkpt>
      <trkpt lat="58.92464996315539" lon="12.388549949973822">
        <ele>129.74</ele>
        <time>2025-02-04T02:42:09.943Z</time>
      </trkpt>
      <trkpt lat="58.92460696399212" lon="12.388558918610215">
        <ele>129.59</ele>
        <time>2025-02-04T02:42:26.354Z</time>
      </trkpt>
      <trkpt lat="58.92456396482885" lon="12.388571994379163">
        <ele>129.43</ele>
        <time>2025-02-04T02:42:42.766Z</time>
      </trkpt>
      <trkpt lat="58.92452096566558" lon="12.388591943308711">
        <ele>129.28</ele>
        <time>2025-02-04T02:42:59.179Z</time>
      </trkpt>
      <trkpt lat="58.92447897233069" lon="12.38860996440053">
        <ele>129.13</ele>
        <time>2025-02-04T02:43:15.592Z</time>
      </trkpt>
      <trkpt lat="58.92443496733904" lon="12.388621950522065">
        <ele>128.97</ele>
        <time>2025-02-04T02:43:32.006Z</time>
      </trkpt>
      <trkpt lat="58.92438995651901" lon="12.3886339366436">
        <ele>128.82</ele>
        <time>2025-02-04T02:43:48.421Z</time>
      </trkpt>
      <trkpt lat="58.92434494569898" lon="12.388649946078658">
        <ele>128.66</ele>
        <time>2025-02-04T02:44:04.837Z</time>
      </trkpt>
      <trkpt lat="58.924299934878945" lon="12.388669978827238">
        <ele>128.49</ele>
        <time>2025-02-04T02:44:21.253Z</time>
      </trkpt>
      <trkpt lat="58.924256935715675" lon="12.388687999919057">
        <ele>128.32</ele>
        <time>2025-02-04T02:44:37.670Z</time>
      </trkpt>
      <trkpt lat="58.924211924895644" lon="12.388705937191844">
        <ele>128.15</ele>
        <time>2025-02-04T02:44:54.088Z</time>
      </trkpt>
      <trkpt lat="58.92416297458112" lon="12.388723958283663">
        <ele>127.98</ele>
        <time>2025-02-04T02:45:10.507Z</time>
      </trkpt>
      <trkpt lat="58.92411192879081" lon="12.388744996860623">
        <ele>127.81</ele>
        <time>2025-02-04T02:45:26.926Z</time>
      </trkpt>
      <trkpt lat="58.924059960991144" lon="12.388766957446933">
        <ele>127.63</ele>
        <time>2025-02-04T02:45:43.346Z</time>
      </trkpt>
      <trkpt lat="58.92400799319148" lon="12.388783972710371">
        <ele>127.45</ele>
        <time>2025-02-04T02:45:59.767Z</time>
      </trkpt>
      <trkpt lat="58.923952924087644" lon="12.38880199380219">
        <ele>127.27</ele>
        <time>2025-02-04T02:46:16.189Z</time>
      </trkpt>
      <trkpt lat="58.92390196211636" lon="12.388818925246596">
        <ele>127.09</ele>
        <time>2025-02-04T02:46:32.612Z</time>
      </trkpt>
      <trkpt lat="58.92385192215443" lon="12.388837952166796">
        <ele>126.9</ele>
        <time>2025-02-04T02:46:49.036Z</time>
      </trkpt>
      <trkpt lat="58.923800960183144" lon="12.388856979086995">
        <ele>126.71</ele>
        <time>2025-02-04T02:47:05.460Z</time>
      </trkpt>
      <trkpt lat="58.9237479865551" lon="12.388877933844924">
        <ele>126.53</ele>
        <time>2025-02-04T02:47:21.885Z</time>
      </trkpt>
      <trkpt lat="58.923694929108024" lon="12.388899978250265">
        <ele>126.33</ele>
        <time>2025-02-04T02:47:38.311Z</time>
      </trkpt>
      <trkpt lat="58.92363994382322" lon="12.388923950493336">
        <ele>126.14</ele>
        <time>2025-02-04T02:47:54.738Z</time>
      </trkpt>
      <trkpt lat="58.92358395271003" lon="12.388945994898677">
        <ele>125.94</ele>
        <time>2025-02-04T02:48:11.166Z</time>
      </trkpt>
      <trkpt lat="58.923526955768466" lon="12.388966949656606">
        <ele>125.74</ele>
        <time>2025-02-04T02:48:27.595Z</time>
      </trkpt>
      <trkpt lat="58.92346694134176" lon="12.388988994061947">
        <ele>125.54</ele>
        <time>2025-02-04T02:48:44.025Z</time>
      </trkpt>
      <trkpt lat="58.92340692691505" lon="12.389012966305017">
        <ele>125.33</ele>
        <time>2025-02-04T02:49:00.456Z</time>
      </trkpt>
      <trkpt lat="58.92334397882223" lon="12.38903895020485">
        <ele>125.13</ele>
        <time>2025-02-04T02:49:16.888Z</time>
      </trkpt>
      <trkpt lat="58.92327893525362" lon="12.3890639282763">
        <ele>124.92</ele>
        <time>2025-02-04T02:49:33.321Z</time>
      </trkpt>
      <trkpt lat="58.92321196384728" lon="12.389089995995164">
        <ele>124.72</ele>
        <time>2025-02-04T02:49:49.755Z</time>
      </trkpt>
      <trkpt lat="58.92314398661256" lon="12.389116985723376">
        <ele>124.51</ele>
        <time>2025-02-04T02:50:06.190Z</time>
      </trkpt>
      <trkpt lat="58.923075925558805" lon="12.38914699293673">
        <ele>124.3</ele>
        <time>2025-02-04T02:50:22.626Z</time>
      </trkpt>
      <trkpt lat="58.923006942495704" lon="12.389176916331053">
        <ele>124.09</ele>
        <time>2025-02-04T02:50:39.064Z</time>
      </trkpt>
      <trkpt lat="58.92293695360422" lon="12.389204995706677">
        <ele>123.88</ele>
        <time>2025-02-04T02:50:55.503Z</time>
      </trkpt>
      <trkpt lat="58.92286696471274" lon="12.389234919101">
        <ele>123.66</ele>
        <time>2025-02-04T02:51:11.943Z</time>
      </trkpt>
      <trkpt lat="58.922795969992876" lon="12.389265932142735">
        <ele>123.45</ele>
        <time>2025-02-04T02:51:28.384Z</time>
      </trkpt>
      <trkpt lat="58.92272497527301" lon="12.389293927699327">
        <ele>123.23</ele>
        <time>2025-02-04T02:51:44.826Z</time>
      </trkpt>
      <trkpt lat="58.92265498638153" lon="12.38932192325592">
        <ele>123.01</ele>
        <time>2025-02-04T02:52:01.269Z</time>
      </trkpt>
      <trkpt lat="58.92258499749005" lon="12.389350924640894">
        <ele>122.79</ele>
        <time>2025-02-04T02:52:17.713Z</time>
      </trkpt>
      <trkpt lat="58.922515930607915" lon="12.389372969046235">
        <ele>122.57</ele>
        <time>2025-02-04T02:52:34.159Z</time>
      </trkpt>
      <trkpt lat="58.92244493588805" lon="12.389394929632545">
        <ele>122.35</ele>
        <time>2025-02-04T02:52:50.606Z</time>
      </trkpt>
      <trkpt lat="58.92237695865333" lon="12.389419991523027">
        <ele>122.13</ele>
        <time>2025-02-04T02:53:07.054Z</time>
      </trkpt>
      <trkpt lat="58.92230797559023" lon="12.38944597542286">
        <ele>121.9</ele>
        <time>2025-02-04T02:53:23.503Z</time>
      </trkpt>
      <trkpt lat="58.922236980870366" lon="12.389473970979452">
        <ele>121.67</ele>
        <time>2025-02-04T02:53:39.953Z</time>
      </trkpt>
      <trkpt lat="58.9221659861505" lon="12.389503978192806">
        <ele>121.44</ele>
        <time>2025-02-04T02:53:56.404Z</time>
      </trkpt>
      <trkpt lat="58.92209499143064" lon="12.3895319737494">
        <ele>121.2</ele>
        <time>2025-02-04T02:54:12.856Z</time>
      </trkpt>
      <trkpt lat="58.922021985054016" lon="12.389560975134373">
        <ele>120.96</ele>
        <time>2025-02-04T02:54:29.310Z</time>
      </trkpt>
      <trkpt lat="58.92194998450577" lon="12.389589976519346">
        <ele>120.73</ele>
        <time>2025-02-04T02:54:45.765Z</time>
      </trkpt>
      <trkpt lat="58.92187798395753" lon="12.38961797207594">
        <ele>120.49</ele>
        <time>2025-02-04T02:55:02.221Z</time>
      </trkpt>
      <trkpt lat="58.921804977580905" lon="12.389647979289293">
        <ele>120.25</ele>
        <time>2025-02-04T02:55:18.678Z</time>
      </trkpt>
      <trkpt lat="58.92173297703266" lon="12.389678992331028">
        <ele>120.01</ele>
        <time>2025-02-04T02:55:35.136Z</time>
      </trkpt>
      <trkpt lat="58.92165997065604" lon="12.389707993716002">
        <ele>119.76</ele>
        <time>2025-02-04T02:55:51.596Z</time>
      </trkpt>
      <trkpt lat="58.92158696427941" lon="12.389736995100975">
        <ele>119.52</ele>
        <time>2025-02-04T02:56:08.057Z</time>
      </trkpt>
      <trkpt lat="58.92151496373117" lon="12.389767924323678">
        <ele>119.28</ele>
        <time>2025-02-04T02:56:24.519Z</time>
      </trkpt>
      <trkpt lat="58.921441957354546" lon="12.389798937365413">
        <ele>119.03</ele>
        <time>2025-02-04T02:56:40.982Z</time>
      </trkpt>
      <trkpt lat="58.92136794514954" lon="12.389830956235528">
        <ele>118.79</ele>
        <time>2025-02-04T02:56:57.446Z</time>
      </trkpt>
      <trkpt lat="58.92129493877292" lon="12.389862975105643">
        <ele>118.53</ele>
        <time>2025-02-04T02:57:13.912Z</time>
      </trkpt>
      <trkpt lat="58.92121992073953" lon="12.389890970662236">
        <ele>118.28</ele>
        <time>2025-02-04T02:57:30.379Z</time>
      </trkpt>
      <trkpt lat="58.9211439806968" lon="12.389916954562068">
        <ele>118.03</ele>
        <time>2025-02-04T02:57:46.847Z</time>
      </trkpt>
      <trkpt lat="58.92106695100665" lon="12.389940926805139">
        <ele>117.77</ele>
        <time>2025-02-04T02:58:03.316Z</time>
      </trkpt>
      <trkpt lat="58.920988999307156" lon="12.389964982867241">
        <ele>117.51</ele>
        <time>2025-02-04T02:58:19.787Z</time>
      </trkpt>
      <trkpt lat="58.92090895213187" lon="12.389987949281931">
        <ele>117.25</ele>
        <time>2025-02-04T02:58:36.259Z</time>
      </trkpt>
      <trkpt lat="58.92082999460399" lon="12.390011921525002">
        <ele>117.0</ele>
        <time>2025-02-04T02:58:52.732Z</time>
      </trkpt>
      <trkpt lat="58.920750953257084" lon="12.390034971758723">
        <ele>116.75</ele>
        <time>2025-02-04T02:59:09.206Z</time>
      </trkpt>
      <trkpt lat="58.92058893106878" lon="12.390076965093613">
        <ele>116.48</ele>
        <time>2025-02-04T02:59:25.683Z</time>
      </trkpt>
      <trkpt lat="58.92050393857062" lon="12.39009096287191">
        <ele>116.23</ele>
        <time>2025-02-04T02:59:42.161Z</time>
      </trkpt>
      <trkpt lat="58.92043897882104" lon="12.390101943165064">
        <ele>115.97</ele>
        <time>2025-02-04T02:59:58.640Z</time>
      </trkpt>
      <trkpt lat="58.92037292942405" lon="12.390111917629838">
        <ele>115.72</ele>
        <time>2025-02-04T03:00:15.120Z</time>
      </trkpt>
      <trkpt lat="58.92024099826813" lon="12.390131950378418">
        <ele>115.46</ele>
        <time>2025-02-04T03:00:31.603Z</time>
      </trkpt>
      <trkpt lat="58.920195987448096" lon="12.390136979520321">
        <ele>115.21</ele>
        <time>2025-02-04T03:00:48.086Z</time>
      </trkpt>
      <trkpt lat="58.920150976628065" lon="12.390141924843192">
        <ele>114.95</ele>
        <time>2025-02-04T03:01:04.570Z</time>
      </trkpt>
      <trkpt lat="58.920060954988" lon="12.390147959813476">
        <ele>114.69</ele>
        <time>2025-02-04T03:01:21.056Z</time>
      </trkpt>
      <trkpt lat="58.91987697221339" lon="12.39015692844987">
        <ele>114.43</ele>
        <time>2025-02-04T03:01:37.544Z</time>
      </trkpt>
      <trkpt lat="58.91980396583676" lon="12.390161957591772">
        <ele>114.17</ele>
        <time>2025-02-04T03:01:54.034Z</time>
      </trkpt>
      <trkpt lat="58.91973095946014" lon="12.390166986733675">
        <ele>113.91</ele>
        <time>2025-02-04T03:02:10.525Z</time>
      </trkpt>
      <trkpt lat="58.91958394087851" lon="12.390175955370069">
        <ele>113.64</ele>
        <time>2025-02-04T03:02:27.018Z</time>
      </trkpt>
      <trkpt lat="58.91947992146015" lon="12.390181990340352">
        <ele>113.37</ele>
        <time>2025-02-04T03:02:43.513Z</time>
      </trkpt>
      <trkpt lat="58.91942694783211" lon="12.390180984511971">
        <ele>113.12</ele>
        <time>2025-02-04T03:03:00.009Z</time>
      </trkpt>
      <trkpt lat="58.919374980032444" lon="12.390180984511971">
        <ele>112.86</ele>
        <time>2025-02-04T03:03:16.506Z</time>
      </trkpt>
      <trkpt lat="58.9192149695009" lon="12.39017897285521">
        <ele>112.59</ele>
        <time>2025-02-04T03:03:33.005Z</time>
      </trkpt>
      <trkpt lat="58.919159984216094" lon="12.39017897285521">
        <ele>112.33</ele>
        <time>2025-02-04T03:03:49.505Z</time>
      </trkpt>
      <trkpt lat="58.918993938714266" lon="12.390179978683591">
        <ele>112.07</ele>
        <time>2025-02-04T03:04:06.008Z</time>
      </trkpt>
      <trkpt lat="58.91893794760108" lon="12.390180984511971">
        <ele>111.81</ele>
        <time>2025-02-04T03:04:22.512Z</time>
      </trkpt>
      <trkpt lat="58.91882596537471" lon="12.390181990340352">
        <ele>111.56</ele>
        <time>2025-02-04T03:04:39.017Z</time>
      </trkpt>
      <trkpt lat="58.918711971491575" lon="12.390181990340352">
        <ele>111.3</ele>
        <time>2025-02-04T03:04:55.524Z</time>
      </trkpt>
      <trkpt lat="58.9185949601233" lon="12.390184924006462">
        <ele>111.05</ele>
        <time>2025-02-04T03:05:12.033Z</time>
      </trkpt>
      <trkpt lat="58.918475937098265" lon="12.390184924006462">
        <ele>110.81</ele>
        <time>2025-02-04T03:05:28.544Z</time>
      </trkpt>
      <trkpt lat="58.9183549862355" lon="12.390186935663223">
        <ele>110.55</ele>
        <time>2025-02-04T03:05:45.057Z</time>
      </trkpt>
      <trkpt lat="58.91823294572532" lon="12.390187941491604">
        <ele>110.31</ele>
        <time>2025-02-04T03:06:01.572Z</time>
      </trkpt>
      <trkpt lat="58.918109983205795" lon="12.390187941491604">
        <ele>110.06</ele>
        <time>2025-02-04T03:06:18.089Z</time>
      </trkpt>
      <trkpt lat="58.91798693686724" lon="12.390188947319984">
        <ele>109.82</ele>
        <time>2025-02-04T03:06:34.608Z</time>
      </trkpt>
      <trkpt lat="58.91786196269095" lon="12.390194982290268">
        <ele>109.57</ele>
        <time>2025-02-04T03:06:51.129Z</time>
      </trkpt>
      <trkpt lat="58.91773891635239" lon="12.390202945098281">
        <ele>109.33</ele>
        <time>2025-02-04T03:07:07.652Z</time>
      </trkpt>
      <trkpt lat="58.917613942176104" lon="12.390212919563055">
        <ele>109.08</ele>
        <time>2025-02-04T03:07:24.177Z</time>
      </trkpt>
      <trkpt lat="58.917488967999816" lon="12.390223983675241">
        <ele>108.83</ele>
        <time>2025-02-04T03:07:40.704Z</time>
      </trkpt>
      <trkpt lat="58.91736399382353" lon="12.390232952311635">
        <ele>108.58</ele>
        <time>2025-02-04T03:07:57.233Z</time>
      </trkpt>
      <trkpt lat="58.91723692417145" lon="12.390246950089931">
        <ele>108.34</ele>
        <time>2025-02-04T03:08:13.764Z</time>
      </trkpt>
      <trkpt lat="58.9171099383384" lon="12.390255918726325">
        <ele>108.1</ele>
        <time>2025-02-04T03:08:30.297Z</time>
      </trkpt>
      <trkpt lat="58.91698295250535" lon="12.390259942039847">
        <ele>107.86</ele>
        <time>2025-02-04T03:08:46.832Z</time>
      </trkpt>
      <trkpt lat="58.91685496084392" lon="12.390258936211467">
        <ele>107.61</ele>
        <time>2025-02-04T03:09:03.369Z</time>
      </trkpt>
      <trkpt lat="58.91672797501087" lon="12.390256924554706">
        <ele>107.36</ele>
        <time>2025-02-04T03:09:19.908Z</time>
      </trkpt>
      <trkpt lat="58.91659998334944" lon="12.390254996716976">
        <ele>107.13</ele>
        <time>2025-02-04T03:09:36.449Z</time>
      </trkpt>
      <trkpt lat="58.91647391952574" lon="12.390253990888596">
        <ele>106.89</ele>
        <time>2025-02-04T03:09:52.992Z</time>
      </trkpt>
      <trkpt lat="58.916349951177835" lon="12.390253990888596">
        <ele>106.65</ele>
        <time>2025-02-04T03:10:09.537Z</time>
      </trkpt>
      <trkpt lat="58.91622698865831" lon="12.390251979231834">
        <ele>106.42</ele>
        <time>2025-02-04T03:10:26.084Z</time>
      </trkpt>
      <trkpt lat="58.91610695980489" lon="12.390249967575073">
        <ele>106.2</ele>
        <time>2025-02-04T03:10:42.633Z</time>
      </trkpt>
      <trkpt lat="58.91599196009338" lon="12.390250973403454">
        <ele>105.98</ele>
        <time>2025-02-04T03:10:59.184Z</time>
      </trkpt>
      <trkpt lat="58.91582096926868" lon="12.390249967575073">
        <ele>105.75</ele>
        <time>2025-02-04T03:11:15.738Z</time>
      </trkpt>
      <trkpt lat="58.915764978155494" lon="12.390249967575073">
        <ele>105.53</ele>
        <time>2025-02-04T03:11:32.292Z</time>
      </trkpt>
      <trkpt lat="58.91565299592912" lon="12.390248961746693">
        <ele>105.31</ele>
        <time>2025-02-04T03:11:48.848Z</time>
      </trkpt>
      <trkpt lat="58.9155419357121" lon="12.390248961746693">
        <ele>105.09</ele>
        <time>2025-02-04T03:12:05.406Z</time>
      </trkpt>
      <trkpt lat="58.915378991514444" lon="12.390252985060215">
        <ele>104.86</ele>
        <time>2025-02-04T03:12:21.967Z</time>
      </trkpt>
      <trkpt lat="58.91521596349776" lon="12.390256924554706">
        <ele>104.65</ele>
        <time>2025-02-04T03:12:38.530Z</time>
      </trkpt>
      <trkpt lat="58.91510993242264" lon="12.390256924554706">
        <ele>104.43</ele>
        <time>2025-02-04T03:12:55.095Z</time>
      </trkpt>
      <trkpt lat="58.91500499099493" lon="12.390257930383086">
        <ele>104.23</ele>
        <time>2025-02-04T03:13:11.662Z</time>
      </trkpt>
      <trkpt lat="58.91489895991981" lon="12.390259942039847">
        <ele>104.02</ele>
        <time>2025-02-04T03:13:28.230Z</time>
      </trkpt>
      <trkpt lat="58.91479393467307" lon="12.390260947868228">
        <ele>103.82</ele>
        <time>2025-02-04T03:13:44.800Z</time>
      </trkpt>
      <trkpt lat="58.91468899324536" lon="12.39026295952499">
        <ele>103.62</ele>
        <time>2025-02-04T03:14:01.372Z</time>
      </trkpt>
      <trkpt lat="58.914583967998624" lon="12.390266982838511">
        <ele>103.43</ele>
        <time>2025-02-04T03:14:17.945Z</time>
      </trkpt>
      <trkpt lat="58.914478942751884" lon="12.390266982838511">
        <ele>103.23</ele>
        <time>2025-02-04T03:14:34.520Z</time>
      </trkpt>
      <trkpt lat="58.914374923333526" lon="12.39026396535337">
        <ele>103.03</ele>
        <time>2025-02-04T03:14:51.097Z</time>
      </trkpt>
      <trkpt lat="58.9142709877342" lon="12.39026597701013">
        <ele>102.83</ele>
        <time>2025-02-04T03:15:07.675Z</time>
      </trkpt>
      <trkpt lat="58.91416797414422" lon="12.390267988666892">
        <ele>102.62</ele>
        <time>2025-02-04T03:15:24.255Z</time>
      </trkpt>
      <trkpt lat="58.91406596638262" lon="12.390270922333002">
        <ele>102.42</ele>
        <time>2025-02-04T03:15:40.837Z</time>
      </trkpt>
      <trkpt lat="58.913961946964264" lon="12.390271928161383">
        <ele>102.22</ele>
        <time>2025-02-04T03:15:57.420Z</time>
      </trkpt>
      <trkpt lat="58.913857927545905" lon="12.390274945646524">
        <ele>102.01</ele>
        <time>2025-02-04T03:16:14.005Z</time>
      </trkpt>
      <trkpt lat="58.91380495391786" lon="12.390273939818144">
        <ele>101.82</ele>
        <time>2025-02-04T03:16:30.591Z</time>
      </trkpt>
      <trkpt lat="58.9137529861182" lon="12.390272933989763">
        <ele>101.62</ele>
        <time>2025-02-04T03:16:47.178Z</time>
      </trkpt>
      <trkpt lat="58.91364796087146" lon="12.390270922333002">
        <ele>101.43</ele>
        <time>2025-02-04T03:17:03.766Z</time>
      </trkpt>
      <trkpt lat="58.91354192979634" lon="12.390258936211467">
        <ele>101.23</ele>
        <time>2025-02-04T03:17:20.356Z</time>
      </trkpt>
      <trkpt lat="58.91343296505511" lon="12.39024099893868">
        <ele>101.04</ele>
        <time>2025-02-04T03:17:36.948Z</time>
      </trkpt>
      <trkpt lat="58.91332198865712" lon="12.390214931219816">
        <ele>100.85</ele>
        <time>2025-02-04T03:17:53.542Z</time>
      </trkpt>
      <trkpt lat="58.91320891678333" lon="12.390179978683591">
        <ele>100.66</ele>
        <time>2025-02-04T03:18:10.137Z</time>
      </trkpt>
      <trkpt lat="58.91309894621372" lon="12.390130944550037">
        <ele>100.48</ele>
        <time>2025-02-04T03:18:26.734Z</time>
      </trkpt>
      <trkpt lat="58.91298696398735" lon="12.390075959265232">
        <ele>100.3</ele>
        <time>2025-02-04T03:18:43.333Z</time>
      </trkpt>
      <trkpt lat="58.91287699341774" lon="12.39000697620213">
        <ele>100.13</ele>
        <time>2025-02-04T03:18:59.934Z</time>
      </trkpt>
      <trkpt lat="58.91276895068586" lon="12.389922989532351">
        <ele>99.95</ele>
        <time>2025-02-04T03:19:16.537Z</time>
      </trkpt>
      <trkpt lat="58.912608940154314" lon="12.38978996872902">
        <ele>99.77</ele>
        <time>2025-02-04T03:19:33.143Z</time>
      </trkpt>
      <trkpt lat="58.91255596652627" lon="12.389740934595466">
        <ele>99.6</ele>
        <time>2025-02-04T03:19:49.750Z</time>
      </trkpt>
      <trkpt lat="58.91245094127953" lon="12.38964093849063">
        <ele>99.43</ele>
        <time>2025-02-04T03:20:06.358Z</time>
      </trkpt>
      <trkpt lat="58.91226997599006" lon="12.389465924352407">
        <ele>99.25</ele>
        <time>2025-02-04T03:20:22.970Z</time>
      </trkpt>
      <trkpt lat="58.91219395212829" lon="12.389389984309673">
        <ele>99.09</ele>
        <time>2025-02-04T03:20:39.583Z</time>
      </trkpt>
      <trkpt lat="58.91204198822379" lon="12.389237936586142">
        <ele>98.93</ele>
        <time>2025-02-04T03:20:56.199Z</time>
      </trkpt>
      <trkpt lat="58.911945931613445" lon="12.389139952138066">
        <ele>98.77</ele>
        <time>2025-02-04T03:21:12.817Z</time>
      </trkpt>
      <trkpt lat="58.91185398213565" lon="12.389042973518372">
        <ele>98.62</ele>
        <time>2025-02-04T03:21:29.436Z</time>
      </trkpt>
      <trkpt lat="58.91178994439542" lon="12.38897499628365">
        <ele>98.47</ele>
        <time>2025-02-04T03:21:46.056Z</time>
      </trkpt>
      <trkpt lat="58.91172498464584" lon="12.388907941058278">
        <ele>98.32</ele>
        <time>2025-02-04T03:22:02.678Z</time>
      </trkpt>
      <trkpt lat="58.91159598715603" lon="12.388772992417216">
        <ele>98.18</ele>
        <time>2025-02-04T03:22:19.302Z</time>
      </trkpt>
      <trkpt lat="58.911514934152365" lon="12.388686994090676">
        <ele>98.04</ele>
        <time>2025-02-04T03:22:35.927Z</time>
      </trkpt>
      <trkpt lat="58.91145592555404" lon="12.38862999714911">
        <ele>97.91</ele>
        <time>2025-02-04T03:22:52.554Z</time>
      </trkpt>
      <trkpt lat="58.91139599494636" lon="12.388572916388512">
        <ele>97.78</ele>
        <time>2025-02-04T03:23:09.182Z</time>
      </trkpt>
      <trkpt lat="58.911276971921325" lon="12.38845992833376">
        <ele>97.65</ele>
        <time>2025-02-04T03:23:25.812Z</time>
      </trkpt>
      <trkpt lat="58.91124294139445" lon="12.388419946655631">
        <ele>97.52</ele>
        <time>2025-02-04T03:23:42.442Z</time>
      </trkpt>
      <trkpt lat="58.91120798885822" lon="12.388380970805883">
        <ele>97.39</ele>
        <time>2025-02-04T03:23:59.073Z</time>
      </trkpt>
      <trkpt lat="58.911102963611484" lon="12.388267982751131">
        <ele>97.26</ele>
        <time>2025-02-04T03:24:15.706Z</time>
      </trkpt>
      <trkpt lat="58.91106792725623" lon="12.388233952224255">
        <ele>97.13</ele>
        <time>2025-02-04T03:24:32.340Z</time>
      </trkpt>
      <trkpt lat="58.910998944193125" lon="12.388173937797546">
        <ele>96.99</ele>
        <time>2025-02-04T03:24:48.975Z</time>
      </trkpt>
      <trkpt lat="58.91093892976642" lon="12.388114929199219">
        <ele>96.86</ele>
        <time>2025-02-04T03:25:05.611Z</time>
      </trkpt>
      <trkpt lat="58.91087899915874" lon="12.388058938086033">
        <ele>96.73</ele>
        <time>2025-02-04T03:25:22.248Z</time>
      </trkpt>
      <trkpt lat="58.91082191839814" lon="12.388000935316086">
        <ele>96.6</ele>
        <time>2025-02-04T03:25:38.886Z</time>
      </trkpt>
      <trkpt lat="58.91076693311334" lon="12.387948967516422">
        <ele>96.47</ele>
        <time>2025-02-04T03:25:55.525Z</time>
      </trkpt>
      <trkpt lat="58.91071194782853" lon="12.387899933382869">
        <ele>96.34</ele>
        <time>2025-02-04T03:26:12.165Z</time>
      </trkpt>
      <trkpt lat="58.91065998002887" lon="12.387853916734457">
        <ele>96.21</ele>
        <time>2025-02-04T03:26:28.806Z</time>
      </trkpt>
      <trkpt lat="58.910611951723695" lon="12.387801948934793">
        <ele>96.08</ele>
        <time>2025-02-04T03:26:45.448Z</time>
      </trkpt>
      <trkpt lat="58.91056199558079" lon="12.387762973085046">
        <ele>95.96</ele>
        <time>2025-02-04T03:27:02.091Z</time>
      </trkpt>
      <trkpt lat="58.910505920648575" lon="12.387725925073028">
        <ele>95.83</ele>
        <time>2025-02-04T03:27:18.735Z</time>
      </trkpt>
      <trkpt lat="58.91044992953539" lon="12.387679992243648">
        <ele>95.71</ele>
        <time>2025-02-04T03:27:35.380Z</time>
      </trkpt>
      <trkpt lat="58.9103939384222" lon="12.387631963938475">
        <ele>95.58</ele>
        <time>2025-02-04T03:27:52.025Z</time>
      </trkpt>
      <trkpt lat="58.91033995896578" lon="12.387575972825289">
        <ele>95.46</ele>
        <time>2025-02-04T03:28:08.671Z</time>
      </trkpt>
      <trkpt lat="58.910285979509354" lon="12.387512940913439">
        <ele>95.34</ele>
        <time>2025-02-04T03:28:25.318Z</time>
      </trkpt>
      <trkpt lat="58.9102319162339" lon="12.38745292648673">
        <ele>95.22</ele>
        <time>2025-02-04T03:28:41.966Z</time>
      </trkpt>
      <trkpt lat="58.91017491929233" lon="12.387397941201925">
        <ele>95.1</ele>
        <time>2025-02-04T03:28:58.615Z</time>
      </trkpt>
      <trkpt lat="58.910117922350764" lon="12.387340944260359">
        <ele>94.98</ele>
        <time>2025-02-04T03:29:15.266Z</time>
      </trkpt>
      <trkpt lat="58.91006293706596" lon="12.38728092983365">
        <ele>94.86</ele>
        <time>2025-02-04T03:29:31.918Z</time>
      </trkpt>
      <trkpt lat="58.910009963437915" lon="12.387218987569213">
        <ele>94.74</ele>
        <time>2025-02-04T03:29:48.571Z</time>
      </trkpt>
      <trkpt lat="58.90995196066797" lon="12.387165930122137">
        <ele>94.62</ele>
        <time>2025-02-04T03:30:05.225Z</time>
      </trkpt>
      <trkpt lat="58.90989697538316" lon="12.38710792735219">
        <ele>94.5</ele>
        <time>2025-02-04T03:30:21.880Z</time>
      </trkpt>
      <trkpt lat="58.90984199009836" lon="12.387047996744514">
        <ele>94.39</ele>
        <time>2025-02-04T03:30:38.536Z</time>
      </trkpt>
      <trkpt lat="58.90978398732841" lon="12.386985970661044">
        <ele>94.27</ele>
        <time>2025-02-04T03:30:55.193Z</time>
      </trkpt>
      <trkpt lat="58.909727996215224" lon="12.386932997033">
        <ele>94.15</ele>
        <time>2025-02-04T03:31:11.851Z</time>
      </trkpt>
      <trkpt lat="58.90967695042491" lon="12.386883962899446">
        <ele>94.03</ele>
        <time>2025-02-04T03:31:28.510Z</time>
      </trkpt>
      <trkpt lat="58.90963294543326" lon="12.386835934594274">
        <ele>93.91</ele>
        <time>2025-02-04T03:31:45.169Z</time>
      </trkpt>
      <trkpt lat="58.90958399511874" lon="12.386790923774242">
        <ele>93.79</ele>
        <time>2025-02-04T03:32:01.829Z</time>
      </trkpt>
      <trkpt lat="58.909535966813564" lon="12.386737950146198">
        <ele>93.67</ele>
        <time>2025-02-04T03:32:18.490Z</time>
      </trkpt>
      <trkpt lat="58.90948693268001" lon="12.386673996225">
        <ele>93.55</ele>
        <time>2025-02-04T03:32:35.152Z</time>
      </trkpt>
      <trkpt lat="58.90943697653711" lon="12.386600989848375">
        <ele>93.43</ele>
        <time>2025-02-04T03:32:51.815Z</time>
      </trkpt>
      <trkpt lat="58.909386936575174" lon="12.38652496598661">
        <ele>93.31</ele>
        <time>2025-02-04T03:33:08.479Z</time>
      </trkpt>
      <trkpt lat="58.909339997917414" lon="12.386448942124844">
        <ele>93.19</ele>
        <time>2025-02-04T03:33:25.144Z</time>
      </trkpt>
      <trkpt lat="58.909302949905396" lon="12.386378953233361">
        <ele>93.06</ele>
        <time>2025-02-04T03:33:41.810Z</time>
      </trkpt>
      <trkpt lat="58.90927294269204" lon="12.386322962120175">
        <ele>92.94</ele>
        <time>2025-02-04T03:33:58.477Z</time>
      </trkpt>
      <trkpt lat="58.90925299376249" lon="12.386272922158241">
        <ele>92.81</ele>
        <time>2025-02-04T03:34:15.144Z</time>
      </trkpt>
      <trkpt lat="58.90924394130707" lon="12.386235957965255">
        <ele>92.69</ele>
        <time>2025-02-04T03:34:31.811Z</time>
      </trkpt>
      <trkpt lat="58.909240923821926" lon="12.38622397184372">
        <ele>92.56</ele>
        <time>2025-02-04T03:34:48.479Z</time>
      </trkpt>
      <trkpt lat="58.909237990155816" lon="12.38622397184372">
        <ele>92.43</ele>
        <time>2025-02-04T03:35:05.147Z</time>
      </trkpt>
      <trkpt lat="58.90920295380056" lon="12.38618591800332">
        <ele>92.3</ele>
        <time>2025-02-04T03:35:21.815Z</time>
      </trkpt>
      <trkpt lat="58.909190967679024" lon="12.386158928275108">
        <ele>92.17</ele>
        <time>2025-02-04T03:35:38.484Z</time>
      </trkpt>
      <trkpt lat="58.90917596407235" lon="12.386127999052405">
        <ele>92.04</ele>
        <time>2025-02-04T03:35:55.153Z</time>
      </trkpt>
      <trkpt lat="58.90915995463729" lon="12.386089945212007">
        <ele>91.9</ele>
        <time>2025-02-04T03:36:11.822Z</time>
      </trkpt>
      <trkpt lat="58.90914193354547" lon="12.386045940220356">
        <ele>91.77</ele>
        <time>2025-02-04T03:36:28.492Z</time>
      </trkpt>
      <trkpt lat="58.9091229904443" lon="12.385998917743564">
        <ele>91.63</ele>
        <time>2025-02-04T03:36:45.162Z</time>
      </trkpt>
      <trkpt lat="58.9091039635241" lon="12.385941920801997">
        <ele>91.49</ele>
        <time>2025-02-04T03:37:01.833Z</time>
      </trkpt>
      <trkpt lat="58.90908393077552" lon="12.385885929688811">
        <ele>91.35</ele>
        <time>2025-02-04T03:37:18.504Z</time>
      </trkpt>
      <trkpt lat="58.909063981845975" lon="12.385828932747245">
        <ele>91.21</ele>
        <time>2025-02-04T03:37:35.176Z</time>
      </trkpt>
      <trkpt lat="58.909045960754156" lon="12.385760955512524">
        <ele>91.07</ele>
        <time>2025-02-04T03:37:51.849Z</time>
      </trkpt>
      <trkpt lat="58.909024922177196" lon="12.385697923600674">
        <ele>90.93</ele>
        <time>2025-02-04T03:38:08.522Z</time>
      </trkpt>
      <trkpt lat="58.909002961590886" lon="12.385630952194333">
        <ele>90.79</ele>
        <time>2025-02-04T03:38:25.196Z</time>
      </trkpt>
      <trkpt lat="58.908980917185545" lon="12.385553922504187">
        <ele>90.65</ele>
        <time>2025-02-04T03:38:41.871Z</time>
      </trkpt>
      <trkpt lat="58.908958956599236" lon="12.385469935834408">
        <ele>90.5</ele>
        <time>2025-02-04T03:38:58.546Z</time>
      </trkpt>
      <trkpt lat="58.908938923850656" lon="12.385381925851107">
        <ele>90.35</ele>
        <time>2025-02-04T03:39:15.222Z</time>
      </trkpt>
      <trkpt lat="58.90892199240625" lon="12.385287964716554">
        <ele>90.2</ele>
        <time>2025-02-04T03:39:31.899Z</time>
      </trkpt>
      <trkpt lat="58.90890598297119" lon="12.385193919762969">
        <ele>90.05</ele>
        <time>2025-02-04T03:39:48.577Z</time>
      </trkpt>
      <trkpt lat="58.908890979364514" lon="12.385101970285177">
        <ele>89.9</ele>
        <time>2025-02-04T03:40:05.256Z</time>
      </trkpt>
      <trkpt lat="58.90887698158622" lon="12.385011948645115">
        <ele>89.75</ele>
        <time>2025-02-04T03:40:21.935Z</time>
      </trkpt>
      <trkpt lat="58.90886298380792" lon="12.384923938661814">
        <ele>89.6</ele>
        <time>2025-02-04T03:40:38.615Z</time>
      </trkpt>
      <trkpt lat="58.908849991858006" lon="12.384835928678513">
        <ele>89.44</ele>
        <time>2025-02-04T03:40:55.296Z</time>
      </trkpt>
      <trkpt lat="58.90883792191744" lon="12.384748924523592">
        <ele>89.29</ele>
        <time>2025-02-04T03:41:11.978Z</time>
      </trkpt>
      <trkpt lat="58.9088259357959" lon="12.384659992530942">
        <ele>89.13</ele>
        <time>2025-02-04T03:41:28.660Z</time>
      </trkpt>
      <trkpt lat="58.90881495550275" lon="12.38456997089088">
        <ele>88.97</ele>
        <time>2025-02-04T03:41:45.343Z</time>
      </trkpt>
      <trkpt lat="58.908805986866355" lon="12.384473998099566">
        <ele>88.81</ele>
        <time>2025-02-04T03:42:02.027Z</time>
      </trkpt>
      <trkpt lat="58.90879693441093" lon="12.384366961196065">
        <ele>88.65</ele>
        <time>2025-02-04T03:42:18.712Z</time>
      </trkpt>
      <trkpt lat="58.9087899774313" lon="12.38425095565617">
        <ele>88.48</ele>
        <time>2025-02-04T03:42:35.398Z</time>
      </trkpt>
      <trkpt lat="58.908785954117775" lon="12.384122963994741">
        <ele>88.32</ele>
        <time>2025-02-04T03:42:52.085Z</time>
      </trkpt>
      <trkpt lat="58.90878293663263" lon="12.383983992040157">
        <ele>88.15</ele>
        <time>2025-02-04T03:43:08.773Z</time>
      </trkpt>
      <trkpt lat="58.90878193080425" lon="12.383836973458529">
        <ele>87.98</ele>
        <time>2025-02-04T03:43:25.462Z</time>
      </trkpt>
      <trkpt lat="58.908784948289394" lon="12.383682997897267">
        <ele>87.81</ele>
        <time>2025-02-04T03:43:42.153Z</time>
      </trkpt>
      <trkpt lat="58.90878897160292" lon="12.383522987365723">
        <ele>87.64</ele>
        <time>2025-02-04T03:43:58.845Z</time>
      </trkpt>
      <trkpt lat="58.90879391692579" lon="12.383357947692275">
        <ele>87.47</ele>
        <time>2025-02-04T03:44:15.538Z</time>
      </trkpt>
      <trkpt lat="58.90880196355283" lon="12.383188968524337">
        <ele>87.31</ele>
        <time>2025-02-04T03:44:32.233Z</time>
      </trkpt>
      <trkpt lat="58.90881394967437" lon="12.383017977699637">
        <ele>87.15</ele>
        <time>2025-02-04T03:44:48.929Z</time>
      </trkpt>
      <trkpt lat="58.908828953281045" lon="12.382846986874938">
        <ele>86.99</ele>
        <time>2025-02-04T03:45:05.627Z</time>
      </trkpt>
      <trkpt lat="58.908846974372864" lon="12.38267993554473">
        <ele>86.83</ele>
        <time>2025-02-04T03:45:22.326Z</time>
      </trkpt>
      <trkpt lat="58.90886298380792" lon="12.382515985518694">
        <ele>86.67</ele>
        <time>2025-02-04T03:45:39.026Z</time>
      </trkpt>
      <trkpt lat="58.90888293273747" lon="12.38235698081553">
        <ele>86.51</ele>
        <time>2025-02-04T03:45:55.728Z</time>
      </trkpt>
      <trkpt lat="58.90890799462795" lon="12.382201999425888">
        <ele>86.34</ele>
        <time>2025-02-04T03:46:12.431Z</time>
      </trkpt>
      <trkpt lat="58.908934984356165" lon="12.382049951702356">
        <ele>86.18</ele>
        <time>2025-02-04T03:46:29.135Z</time>
      </trkpt>
      <trkpt lat="58.90896297991276" lon="12.381898993626237">
        <ele>86.01</ele>
        <time>2025-02-04T03:46:45.841Z</time>
      </trkpt>
      <trkpt lat="58.90899399295449" lon="12.381748957559466">
        <ele>85.84</ele>
        <time>2025-02-04T03:47:02.548Z</time>
      </trkpt>
      <trkpt lat="58.909024922177196" lon="12.381597999483347">
        <ele>85.67</ele>
        <time>2025-02-04T03:47:19.256Z</time>
      </trkpt>
      <trkpt lat="58.90905694104731" lon="12.381448969244957">
        <ele>85.5</ele>
        <time>2025-02-04T03:47:35.966Z</time>
      </trkpt>
      <trkpt lat="58.909087954089046" lon="12.381296921521425">
        <ele>85.33</ele>
        <time>2025-02-04T03:47:52.677Z</time>
      </trkpt>
      <trkpt lat="58.90911594964564" lon="12.381144957616925">
        <ele>85.16</ele>
        <time>2025-02-04T03:48:09.389Z</time>
      </trkpt>
      <trkpt lat="58.90914193354547" lon="12.380992993712425">
        <ele>84.98</ele>
        <time>2025-02-04T03:48:26.103Z</time>
      </trkpt>
      <trkpt lat="58.90916598960757" lon="12.380836922675371">
        <ele>84.81</ele>
        <time>2025-02-04T03:48:42.818Z</time>
      </trkpt>
      <trkpt lat="58.90918593853712" lon="12.380675990134478">
        <ele>84.63</ele>
        <time>2025-02-04T03:48:59.535Z</time>
      </trkpt>
      <trkpt lat="58.90920395962894" lon="12.380507932975888">
        <ele>84.45</ele>
        <time>2025-02-04T03:49:16.253Z</time>
      </trkpt>
      <trkpt lat="58.909219969064" lon="12.380335936322808">
        <ele>84.27</ele>
        <time>2025-02-04T03:49:32.972Z</time>
      </trkpt>
      <trkpt lat="58.909234972670674" lon="12.380154971033335">
        <ele>84.08</ele>
        <time>2025-02-04T03:49:49.693Z</time>
      </trkpt>
      <trkpt lat="58.90924695879221" lon="12.379966964945197">
        <ele>83.89</ele>
        <time>2025-02-04T03:50:06.416Z</time>
      </trkpt>
      <trkpt lat="58.909259950742126" lon="12.379772923886776">
        <ele>83.7</ele>
        <time>2025-02-04T03:50:23.140Z</time>
      </trkpt>
      <trkpt lat="58.90927193686366" lon="12.379571925848722">
        <ele>83.51</ele>
        <time>2025-02-04T03:50:39.866Z</time>
      </trkpt>
      <trkpt lat="58.90928492881358" lon="12.379364976659417">
        <ele>83.33</ele>
        <time>2025-02-04T03:50:56.594Z</time>
      </trkpt>
      <trkpt lat="58.90929792076349" lon="12.379150986671448">
        <ele>83.15</ele>
        <time>2025-02-04T03:51:13.323Z</time>
      </trkpt>
      <trkpt lat="58.90931099653244" lon="12.378927944228053">
        <ele>82.97</ele>
        <time>2025-02-04T03:51:30.054Z</time>
      </trkpt>
      <trkpt lat="58.90932499431074" lon="12.378697944805026">
        <ele>82.79</ele>
        <time>2025-02-04T03:51:46.787Z</time>
      </trkpt>
      <trkpt lat="58.909339997917414" lon="12.378460988402367">
        <ele>82.62</ele>
        <time>2025-02-04T03:52:03.522Z</time>
      </trkpt>
      <trkpt lat="58.90935592353344" lon="12.378221936523914">
        <ele>82.44</ele>
        <time>2025-02-04T03:52:20.259Z</time>
      </trkpt>
      <trkpt lat="58.90937092714012" lon="12.377980956807733">
        <ele>82.27</ele>
        <time>2025-02-04T03:52:36.998Z</time>
      </trkpt>
      <trkpt lat="58.909385930746794" lon="12.37773997709155">
        <ele>82.09</ele>
        <time>2025-02-04T03:52:53.739Z</time>
      </trkpt>
      <trkpt lat="58.90939892269671" lon="12.377501931041479">
        <ele>81.92</ele>
        <time>2025-02-04T03:53:10.482Z</time>
      </trkpt>
      <trkpt lat="58.909412920475006" lon="12.3772659804672">
        <ele>81.75</ele>
        <time>2025-02-04T03:53:27.227Z</time>
      </trkpt>
      <trkpt lat="58.909425996243954" lon="12.377035981044173">
        <ele>81.59</ele>
        <time>2025-02-04T03:53:43.974Z</time>
      </trkpt>
      <trkpt lat="58.90943697653711" lon="12.37681394442916">
        <ele>81.43</ele>
        <time>2025-02-04T03:54:00.723Z</time>
      </trkpt>
      <trkpt lat="58.90944695100188" lon="12.376604983583093">
        <ele>81.28</ele>
        <time>2025-02-04T03:54:17.474Z</time>
      </trkpt>
      <trkpt lat="58.90945692546666" lon="12.376411948353052">
        <ele>81.14</ele>
        <time>2025-02-04T03:54:34.226Z</time>
      </trkpt>
      <trkpt lat="58.90946296043694" lon="12.376233916729689">
        <ele>80.99</ele>
        <time>2025-02-04T03:54:50.980Z</time>
      </trkpt>
      <trkpt lat="58.90946698375046" lon="12.376071978360415">
        <ele>80.84</ele>
        <time>2025-02-04T03:55:07.735Z</time>
      </trkpt>
      <trkpt lat="58.90946296043694" lon="12.375924959778786">
        <ele>80.69</ele>
        <time>2025-02-04T03:55:24.491Z</time>
      </trkpt>
      <trkpt lat="58.90943999402225" lon="12.375800991430879">
        <ele>80.54</ele>
        <time>2025-02-04T03:55:41.248Z</time>
      </trkpt>
      <trkpt lat="58.90939397737384" lon="12.375713987275958">
        <ele>80.39</ele>
        <time>2025-02-04T03:55:58.006Z</time>
      </trkpt>
      <trkpt lat="58.90933295711875" lon="12.375664953142405">
        <ele>80.24</ele>
        <time>2025-02-04T03:56:14.765Z</time>
      </trkpt>
      <trkpt lat="58.90926699154079" lon="12.37563494592905">
        <ele>80.09</ele>
        <time>2025-02-04T03:56:31.526Z</time>
      </trkpt>
      <trkpt lat="58.90919993631542" lon="12.375604938715696">
        <ele>79.93</ele>
        <time>2025-02-04T03:56:48.288Z</time>
      </trkpt>
      <trkpt lat="58.909129947423935" lon="12.375563951209188">
        <ele>79.78</ele>
        <time>2025-02-04T03:57:05.051Z</time>
      </trkpt>
      <trkpt lat="58.90905995853245" lon="12.375511983409524">
        <ele>79.63</ele>
        <time>2025-02-04T03:57:21.815Z</time>
      </trkpt>
      <trkpt lat="58.90898795798421" lon="12.375453980639577">
        <ele>79.48</ele>
        <time>2025-02-04T03:57:38.580Z</time>
      </trkpt>
      <trkpt lat="58.908916963264346" lon="12.375390948727727">
        <ele>79.34</ele>
        <time>2025-02-04T03:57:55.347Z</time>
      </trkpt>
      <trkpt lat="58.90884596854448" lon="12.375322971493006">
        <ele>79.2</ele>
        <time>2025-02-04T03:58:12.115Z</time>
      </trkpt>
      <trkpt lat="58.90877195633948" lon="12.375252982601523">
        <ele>79.06</ele>
        <time>2025-02-04T03:58:28.884Z</time>
      </trkpt>
      <trkpt lat="58.90869593247771" lon="12.37518198788166">
        <ele>78.92</ele>
        <time>2025-02-04T03:58:45.654Z</time>
      </trkpt>
      <trkpt lat="58.90861697494984" lon="12.375105964019895">
        <ele>78.78</ele>
        <time>2025-02-04T03:59:02.426Z</time>
      </trkpt>
      <trkpt lat="58.90853692777455" lon="12.375029940158129">
        <ele>78.64</ele>
        <time>2025-02-04T03:59:19.199Z</time>
      </trkpt>
      <trkpt lat="58.90845495276153" lon="12.374952994287014">
        <ele>78.51</ele>
        <time>2025-02-04T03:59:35.974Z</time>
      </trkpt>
      <trkpt lat="58.908374989405274" lon="12.374875964596868">
        <ele>78.38</ele>
        <time>2025-02-04T03:59:52.750Z</time>
      </trkpt>
      <trkpt lat="58.908294942229986" lon="12.374800946563482">
        <ele>78.26</ele>
        <time>2025-02-04T04:00:09.528Z</time>
      </trkpt>
      <trkpt lat="58.90821699053049" lon="12.374725928530097">
        <ele>78.13</ele>
        <time>2025-02-04T04:00:26.307Z</time>
      </trkpt>
      <trkpt lat="58.908140966668725" lon="12.374652922153473">
        <ele>78.01</ele>
        <time>2025-02-04T04:00:43.087Z</time>
      </trkpt>
      <trkpt lat="58.90806494280696" lon="12.374590979889035">
        <ele>77.89</ele>
        <time>2025-02-04T04:00:59.869Z</time>
      </trkpt>
      <trkpt lat="58.90798598527908" lon="12.374548986554146">
        <ele>77.77</ele>
        <time>2025-02-04T04:01:16.652Z</time>
      </trkpt>
      <trkpt lat="58.907903926447034" lon="12.374543957412243">
        <ele>77.64</ele>
        <time>2025-02-04T04:01:33.436Z</time>
      </trkpt>
      <trkpt lat="58.90782496891916" lon="12.374592991545796">
        <ele>77.52</ele>
        <time>2025-02-04T04:01:50.222Z</time>
      </trkpt>
      <trkpt lat="58.907751962542534" lon="12.37468896433711">
        <ele>77.4</ele>
        <time>2025-02-04T04:02:07.009Z</time>
      </trkpt>
      <trkpt lat="58.907689936459064" lon="12.374809999018908">
        <ele>77.28</ele>
        <time>2025-02-04T04:02:23.797Z</time>
      </trkpt>
      <trkpt lat="58.90763897448778" lon="12.374949976801872">
        <ele>77.17</ele>
        <time>2025-02-04T04:02:40.587Z</time>
      </trkpt>
      <trkpt lat="58.90759094618261" lon="12.375103952363133">
        <ele>77.06</ele>
        <time>2025-02-04T04:02:57.378Z</time>
      </trkpt>
      <trkpt lat="58.90754593536258" lon="12.375248959288001">
        <ele>76.95</ele>
        <time>2025-02-04T04:03:14.171Z</time>
      </trkpt>
      <trkpt lat="58.907495979219675" lon="12.375378962606192">
        <ele>76.84</ele>
        <time>2025-02-04T04:03:30.965Z</time>
      </trkpt>
      <trkpt lat="58.9074429217726" lon="12.375494968146086">
        <ele>76.74</ele>
        <time>2025-02-04T04:03:47.760Z</time>
      </trkpt>
      <trkpt lat="58.90738491900265" lon="12.375598987564445">
        <ele>76.65</ele>
        <time>2025-02-04T04:04:04.557Z</time>
      </trkpt>
      <trkpt lat="58.907321970909834" lon="12.375684985890985">
        <ele>76.55</ele>
        <time>2025-02-04T04:04:21.355Z</time>
      </trkpt>
      <trkpt lat="58.90725592151284" lon="12.375760925933719">
        <ele>76.46</ele>
        <time>2025-02-04T04:04:38.154Z</time>
      </trkpt>
      <trkpt lat="58.90718794427812" lon="12.375831920653582">
        <ele>76.37</ele>
        <time>2025-02-04T04:04:54.954Z</time>
      </trkpt>
      <trkpt lat="58.90711795538664" lon="12.375898975878954">
        <ele>76.28</ele>
        <time>2025-02-04T04:05:11.756Z</time>
      </trkpt>
      <trkpt lat="58.907046960666776" lon="12.375965947285295">
        <ele>76.19</ele>
        <time>2025-02-04T04:05:28.559Z</time>
      </trkpt>
      <trkpt lat="58.90697395429015" lon="12.376030990853906">
        <ele>76.1</ele>
        <time>2025-02-04T04:05:45.363Z</time>
      </trkpt>
      <trkpt lat="58.90690094791353" lon="12.376097962260246">
        <ele>76.01</ele>
        <time>2025-02-04T04:06:02.169Z</time>
      </trkpt>
      <trkpt lat="58.906828947365284" lon="12.376161916181445">
        <ele>75.93</ele>
        <time>2025-02-04T04:06:18.976Z</time>
      </trkpt>
      <trkpt lat="58.90675594098866" lon="12.376225953921676">
        <ele>75.85</ele>
        <time>2025-02-04T04:06:35.784Z</time>
      </trkpt>
      <trkpt lat="58.9066849462688" lon="12.376285968348384">
        <ele>75.78</ele>
        <time>2025-02-04T04:06:52.593Z</time>
      </trkpt>
      <trkpt lat="58.906613951548934" lon="12.376343971118331">
        <ele>75.7</ele>
        <time>2025-02-04T04:07:09.404Z</time>
      </trkpt>
      <trkpt lat="58.90654295682907" lon="12.376395938917994">
        <ele>75.62</ele>
        <time>2025-02-04T04:07:26.216Z</time>
      </trkpt>
      <trkpt lat="58.90647296793759" lon="12.376441955566406">
        <ele>75.55</ele>
        <time>2025-02-04T04:07:43.029Z</time>
      </trkpt>
      <trkpt lat="58.90640398487449" lon="12.376480931416154">
        <ele>75.49</ele>
        <time>2025-02-04T04:07:59.843Z</time>
      </trkpt>
      <trkpt lat="58.90633198432624" lon="12.37651496194303">
        <ele>75.43</ele>
        <time>2025-02-04T04:08:16.658Z</time>
      </trkpt>
      <trkpt lat="58.90625696629286" lon="12.376546980813146">
        <ele>75.37</ele>
        <time>2025-02-04T04:08:33.475Z</time>
      </trkpt>
      <trkpt lat="58.90617993660271" lon="12.376578999683261">
        <ele>75.32</ele>
        <time>2025-02-04T04:08:50.293Z</time>
      </trkpt>
      <trkpt lat="58.906100979074836" lon="12.376608923077583">
        <ele>75.26</ele>
        <time>2025-02-04T04:09:07.112Z</time>
      </trkpt>
      <trkpt lat="58.90601799823344" lon="12.376637924462557">
        <ele>75.2</ele>
        <time>2025-02-04T04:09:23.932Z</time>
      </trkpt>
      <trkpt lat="58.905932921916246" lon="12.376667931675911">
        <ele>75.15</ele>
        <time>2025-02-04T04:09:40.754Z</time>
      </trkpt>
      <trkpt lat="58.90584792941809" lon="12.376701962202787">
        <ele>75.09</ele>
        <time>2025-02-04T04:09:57.577Z</time>
      </trkpt>
      <trkpt lat="58.905759919434786" lon="12.376738926395774">
        <ele>75.03</ele>
        <time>2025-02-04T04:10:14.402Z</time>
      </trkpt>
      <trkpt lat="58.905670987442136" lon="12.376777986064553">
        <ele>74.98</ele>
        <time>2025-02-04T04:10:31.228Z</time>
      </trkpt>
      <trkpt lat="58.90557995997369" lon="12.376820985227823">
        <ele>74.92</ele>
        <time>2025-02-04T04:10:48.056Z</time>
      </trkpt>
      <trkpt lat="58.90549094416201" lon="12.376868929713964">
        <ele>74.86</ele>
        <time>2025-02-04T04:11:04.885Z</time>
      </trkpt>
      <trkpt lat="58.90540293417871" lon="12.37692098133266">
        <ele>74.81</ele>
        <time>2025-02-04T04:11:21.716Z</time>
      </trkpt>
      <trkpt lat="58.90531693585217" lon="12.376975966617465">
        <ele>74.75</ele>
        <time>2025-02-04T04:11:38.548Z</time>
      </trkpt>
      <trkpt lat="58.90523496083915" lon="12.377032963559031">
        <ele>74.7</ele>
        <time>2025-02-04T04:11:55.381Z</time>
      </trkpt>
      <trkpt lat="58.905156925320625" lon="12.377089960500598">
        <ele>74.65</ele>
        <time>2025-02-04T04:12:12.216Z</time>
      </trkpt>
      <trkpt lat="58.90508492477238" lon="12.377147963270545">
        <ele>74.61</ele>
        <time>2025-02-04T04:12:29.052Z</time>
      </trkpt>
      <trkpt lat="58.90501393005252" lon="12.377199931070209">
        <ele>74.57</ele>
        <time>2025-02-04T04:12:45.889Z</time>
      </trkpt>
      <trkpt lat="58.9049459528178" lon="12.377251982688904">
        <ele>74.53</ele>
        <time>2025-02-04T04:13:02.727Z</time>
      </trkpt>
      <trkpt lat="58.90487898141146" lon="12.377303950488567">
        <ele>74.5</ele>
        <time>2025-02-04T04:13:19.567Z</time>
      </trkpt>
      <trkpt lat="58.904808992519975" lon="12.377357929944992">
        <ele>74.47</ele>
        <time>2025-02-04T04:13:36.408Z</time>
      </trkpt>
      <trkpt lat="58.90473598614335" lon="12.377411993220448">
        <ele>74.44</ele>
        <time>2025-02-04T04:13:53.250Z</time>
      </trkpt>
      <trkpt lat="58.904657950624824" lon="12.377469995990396">
        <ele>74.42</ele>
        <time>2025-02-04T04:14:10.093Z</time>
      </trkpt>
      <trkpt lat="58.90457698144019" lon="12.377527998760343">
        <ele>74.4</ele>
        <time>2025-02-04T04:14:26.938Z</time>
      </trkpt>
      <trkpt lat="58.90449592843652" lon="12.377583989873528">
        <ele>74.38</ele>
        <time>2025-02-04T04:14:43.784Z</time>
      </trkpt>
      <trkpt lat="58.90442191623151" lon="12.377638975158334">
        <ele>74.37</ele>
        <time>2025-02-04T04:15:00.631Z</time>
      </trkpt>
      <trkpt lat="58.90435092151165" lon="12.377689937129617">
        <ele>74.35</ele>
        <time>2025-02-04T04:15:17.480Z</time>
      </trkpt>
      <trkpt lat="58.90428495593369" lon="12.37773997709155">
        <ele>74.34</ele>
        <time>2025-02-04T04:15:34.330Z</time>
      </trkpt>
      <trkpt lat="58.90421999618411" lon="12.377789933234453">
        <ele>74.33</ele>
        <time>2025-02-04T04:15:51.181Z</time>
      </trkpt>
      <trkpt lat="58.90415595844388" lon="12.377838967368007">
        <ele>74.32</ele>
        <time>2025-02-04T04:16:08.033Z</time>
      </trkpt>
      <trkpt lat="58.90408999286592" lon="12.37788992933929">
        <ele>74.32</ele>
        <time>2025-02-04T04:16:24.886Z</time>
      </trkpt>
      <trkpt lat="58.90402193181217" lon="12.377943992614746">
        <ele>74.31</ele>
        <time>2025-02-04T04:16:41.740Z</time>
      </trkpt>
      <trkpt lat="58.903950937092304" lon="12.377998977899551">
        <ele>74.31</ele>
        <time>2025-02-04T04:16:58.596Z</time>
      </trkpt>
      <trkpt lat="58.90387893654406" lon="12.378057986497879">
        <ele>74.3</ele>
        <time>2025-02-04T04:17:15.453Z</time>
      </trkpt>
      <trkpt lat="58.90380693599582" lon="12.378119928762317">
        <ele>74.3</ele>
        <time>2025-02-04T04:17:32.311Z</time>
      </trkpt>
      <trkpt lat="58.903735941275954" lon="12.378179943189025">
        <ele>74.29</ele>
        <time>2025-02-04T04:17:49.170Z</time>
      </trkpt>
      <trkpt lat="58.90366293489933" lon="12.378243980929255">
        <ele>74.29</ele>
        <time>2025-02-04T04:18:06.031Z</time>
      </trkpt>
      <trkpt lat="58.90359294600785" lon="12.378314975649118">
        <ele>74.29</ele>
        <time>2025-02-04T04:18:22.893Z</time>
      </trkpt>
      <trkpt lat="58.903519939631224" lon="12.378394939005375">
        <ele>74.3</ele>
        <time>2025-02-04T04:18:39.756Z</time>
      </trkpt>
      <trkpt lat="58.90344299376011" lon="12.378481943160295">
        <ele>74.31</ele>
        <time>2025-02-04T04:18:56.621Z</time>
      </trkpt>
      <trkpt lat="58.90336596406996" lon="12.378570958971977">
        <ele>74.32</ele>
        <time>2025-02-04T04:19:13.487Z</time>
      </trkpt>
      <trkpt lat="58.903285916894674" lon="12.378659974783659">
        <ele>74.34</ele>
        <time>2025-02-04T04:19:30.355Z</time>
      </trkpt>
      <trkpt lat="58.90320494771004" lon="12.37875091843307">
        <ele>74.35</ele>
        <time>2025-02-04T04:19:47.224Z</time>
      </trkpt>
      <trkpt lat="58.90312699601054" lon="12.37883498892188">
        <ele>74.37</ele>
        <time>2025-02-04T04:20:04.094Z</time>
      </trkpt>
      <trkpt lat="58.903047954663634" lon="12.378910928964615">
        <ele>74.4</ele>
        <time>2025-02-04T04:20:20.966Z</time>
      </trkpt>
      <trkpt lat="58.90297092497349" lon="12.378970943391323">
        <ele>74.42</ele>
        <time>2025-02-04T04:20:37.839Z</time>
      </trkpt>
      <trkpt lat="58.902894984930754" lon="12.379020983353257">
        <ele>74.45</ele>
        <time>2025-02-04T04:20:54.714Z</time>
      </trkpt>
      <trkpt lat="58.90281996689737" lon="12.379064988344908">
        <ele>74.48</ele>
        <time>2025-02-04T04:21:11.590Z</time>
      </trkpt>
      <trkpt lat="58.90274494886398" lon="12.379107987508178">
        <ele>74.51</ele>
        <time>2025-02-04T04:21:28.467Z</time>
      </trkpt>
      <trkpt lat="58.90267395414412" lon="12.379144951701164">
        <ele>74.54</ele>
        <time>2025-02-04T04:21:45.345Z</time>
      </trkpt>
      <trkpt lat="58.90261092223227" lon="12.379172947257757">
        <ele>74.58</ele>
        <time>2025-02-04T04:22:02.224Z</time>
      </trkpt>
      <trkpt lat="58.902555936947465" lon="12.379193985834718">
        <ele>74.61</ele>
        <time>2025-02-04T04:22:19.104Z</time>
      </trkpt>
      <trkpt lat="58.90250296331942" lon="12.379208989441395">
        <ele>74.65</ele>
        <time>2025-02-04T04:22:35.985Z</time>
      </trkpt>
      <trkpt lat="58.902448983862996" lon="12.379222987219691">
        <ele>74.69</ele>
        <time>2025-02-04T04:22:52.867Z</time>
      </trkpt>
      <trkpt lat="58.90239399857819" lon="12.379232961684465">
        <ele>74.73</ele>
        <time>2025-02-04T04:23:09.750Z</time>
      </trkpt>
      <trkpt lat="58.902335995808244" lon="12.379239918664098">
        <ele>74.77</ele>
        <time>2025-02-04T04:23:26.634Z</time>
      </trkpt>
      <trkpt lat="58.90227095223963" lon="12.379241930320859">
        <ele>74.81</ele>
        <time>2025-02-04T04:23:43.519Z</time>
      </trkpt>
      <trkpt lat="58.90219995751977" lon="12.379233967512846">
        <ele>74.85</ele>
        <time>2025-02-04T04:24:00.405Z</time>
      </trkpt>
      <trkpt lat="58.902125945314765" lon="12.379216952249408">
        <ele>74.9</ele>
        <time>2025-02-04T04:24:17.292Z</time>
      </trkpt>
      <trkpt lat="58.90204598195851" lon="12.379186945036054">
        <ele>74.94</ele>
        <time>2025-02-04T04:24:34.180Z</time>
      </trkpt>
      <trkpt lat="58.90195797197521" lon="12.379155931994319">
        <ele>74.99</ele>
        <time>2025-02-04T04:24:51.070Z</time>
      </trkpt>
      <trkpt lat="58.901868956163526" lon="12.37911393865943">
        <ele>75.04</ele>
        <time>2025-02-04T04:25:07.961Z</time>
      </trkpt>
      <trkpt lat="58.901781952008605" lon="12.379060965031385">
        <ele>75.09</ele>
        <time>2025-02-04T04:25:24.854Z</time>
      </trkpt>
      <trkpt lat="58.901693942025304" lon="12.379001956433058">
        <ele>75.15</ele>
        <time>2025-02-04T04:25:41.748Z</time>
      </trkpt>
      <trkpt lat="58.90160199254751" lon="12.378950994461775">
        <ele>75.21</ele>
        <time>2025-02-04T04:25:58.644Z</time>
      </trkpt>
      <trkpt lat="58.90150995925069" lon="12.378906989470124">
        <ele>75.27</ele>
        <time>2025-02-04T04:26:15.541Z</time>
      </trkpt>
      <trkpt lat="58.901418931782246" lon="12.378870947286487">
        <ele>75.34</ele>
        <time>2025-02-04T04:26:32.440Z</time>
      </trkpt>
      <trkpt lat="58.90132396481931" lon="12.378854937851429">
        <ele>75.41</ele>
        <time>2025-02-04T04:26:49.340Z</time>
      </trkpt>
      <trkpt lat="58.901227992028" lon="12.378853932023048">
        <ele>75.48</ele>
        <time>2025-02-04T04:27:06.242Z</time>
      </trkpt>
      <trkpt lat="58.90113193541765" lon="12.37885795533657">
        <ele>75.55</ele>
        <time>2025-02-04T04:27:23.145Z</time>
      </trkpt>
      <trkpt lat="58.90103696845472" lon="12.378865918144584">
        <ele>75.61</ele>
        <time>2025-02-04T04:27:40.050Z</time>
      </trkpt>
      <trkpt lat="58.900943929329515" lon="12.378871953114867">
        <ele>75.69</ele>
        <time>2025-02-04T04:27:56.956Z</time>
      </trkpt>
      <trkpt lat="58.90085197985172" lon="12.378878993913531">
        <ele>75.76</ele>
        <time>2025-02-04T04:28:13.864Z</time>
      </trkpt>
      <trkpt lat="58.90076195821166" lon="12.378883939236403">
        <ele>75.83</ele>
        <time>2025-02-04T04:28:30.773Z</time>
      </trkpt>
      <trkpt lat="58.90067294239998" lon="12.378887962549925">
        <ele>75.9</ele>
        <time>2025-02-04T04:28:47.684Z</time>
      </trkpt>
      <trkpt lat="58.90058694407344" lon="12.378892991691828">
        <ele>75.98</ele>
        <time>2025-02-04T04:29:04.596Z</time>
      </trkpt>
      <trkpt lat="58.90050396323204" lon="12.378894919529557">
        <ele>76.06</ele>
        <time>2025-02-04T04:29:21.509Z</time>
      </trkpt>
      <trkpt lat="58.90042592771351" lon="12.378895925357938">
        <ele>76.14</ele>
        <time>2025-02-04T04:29:38.424Z</time>
      </trkpt>
      <trkpt lat="58.90035493299365" lon="12.37889994867146">
        <ele>76.21</ele>
        <time>2025-02-04T04:29:55.340Z</time>
      </trkpt>
      <trkpt lat="58.90029198490083" lon="12.378905983641744">
        <ele>76.29</ele>
        <time>2025-02-04T04:30:12.257Z</time>
      </trkpt>
      <trkpt lat="58.900237921625376" lon="12.378915958106518">
        <ele>76.38</ele>
        <time>2025-02-04T04:30:29.175Z</time>
      </trkpt>
      <trkpt lat="58.900188971310854" lon="12.378935990855098">
        <ele>76.46</ele>
        <time>2025-02-04T04:30:46.094Z</time>
      </trkpt>
      <trkpt lat="58.900147983804345" lon="12.378958957269788">
        <ele>76.54</ele>
        <time>2025-02-04T04:31:03.013Z</time>
      </trkpt>
      <trkpt lat="58.900109929963946" lon="12.378987958654761">
        <ele>76.61</ele>
        <time>2025-02-04T04:31:19.933Z</time>
      </trkpt>
      <trkpt lat="58.90007497742772" lon="12.379017965868115">
        <ele>76.7</ele>
        <time>2025-02-04T04:31:36.854Z</time>
      </trkpt>
      <trkpt lat="58.900041952729225" lon="12.37905291840434">
        <ele>76.78</ele>
        <time>2025-02-04T04:31:53.775Z</time>
      </trkpt>
      <trkpt lat="58.90000993385911" lon="12.379094995558262">
        <ele>76.86</ele>
        <time>2025-02-04T04:32:10.697Z</time>
      </trkpt>
      <trkpt lat="58.899978920817375" lon="12.379141934216022">
        <ele>76.94</ele>
        <time>2025-02-04T04:32:27.619Z</time>
      </trkpt>
      <trkpt lat="58.89995092526078" lon="12.379188956692815">
        <ele>77.02</ele>
        <time>2025-02-04T04:32:44.542Z</time>
      </trkpt>
      <trkpt lat="58.89992594718933" lon="12.37924293614924">
        <ele>77.11</ele>
        <time>2025-02-04T04:33:01.466Z</time>
      </trkpt>
      <trkpt lat="58.89990298077464" lon="12.379301944747567">
        <ele>77.19</ele>
        <time>2025-02-04T04:33:18.390Z</time>
      </trkpt>
      <trkpt lat="58.89987993054092" lon="12.379365982487798">
        <ele>77.27</ele>
        <time>2025-02-04T04:33:35.315Z</time>
      </trkpt>
      <trkpt lat="58.89985897578299" lon="12.379432953894138">
        <ele>77.35</ele>
        <time>2025-02-04T04:33:52.240Z</time>
      </trkpt>
      <trkpt lat="58.89983793720603" lon="12.379504954442382">
        <ele>77.43</ele>
        <time>2025-02-04T04:34:09.166Z</time>
      </trkpt>
      <trkpt lat="58.89981597661972" lon="12.379580978304148">
        <ele>77.51</ele>
        <time>2025-02-04T04:34:26.093Z</time>
      </trkpt>
      <trkpt lat="58.89979493804276" lon="12.379656918346882">
        <ele>77.59</ele>
        <time>2025-02-04T04:34:43.021Z</time>
      </trkpt>
      <trkpt lat="58.89977398328483" lon="12.37973595969379">
        <ele>77.67</ele>
        <time>2025-02-04T04:34:59.949Z</time>
      </trkpt>
      <trkpt lat="58.89975294470787" lon="12.379815923050046">
        <ele>77.75</ele>
        <time>2025-02-04T04:35:16.878Z</time>
      </trkpt>
      <trkpt lat="58.89973391778767" lon="12.379894964396954">
        <ele>77.83</ele>
        <time>2025-02-04T04:35:33.808Z</time>
      </trkpt>
      <trkpt lat="58.8997149746865" lon="12.37997492775321">
        <ele>77.91</ele>
        <time>2025-02-04T04:35:50.739Z</time>
      </trkpt>
      <trkpt lat="58.899695947766304" lon="12.380055980756879">
        <ele>77.98</ele>
        <time>2025-02-04T04:36:07.670Z</time>
      </trkpt>
      <trkpt lat="58.899675998836756" lon="12.380132926627994">
        <ele>78.05</ele>
        <time>2025-02-04T04:36:24.602Z</time>
      </trkpt>
      <trkpt lat="58.899654960259795" lon="12.38020895048976">
        <ele>78.12</ele>
        <time>2025-02-04T04:36:41.535Z</time>
      </trkpt>
      <trkpt lat="58.899632999673486" lon="12.380283968523145">
        <ele>78.19</ele>
        <time>2025-02-04T04:36:58.468Z</time>
      </trkpt>
      <trkpt lat="58.899612966924906" lon="12.380356974899769">
        <ele>78.26</ele>
        <time>2025-02-04T04:37:15.402Z</time>
      </trkpt>
      <trkpt lat="58.89959695748985" lon="12.380433920770884">
        <ele>78.33</ele>
        <time>2025-02-04T04:37:32.337Z</time>
      </trkpt>
      <trkpt lat="58.89957994222641" lon="12.380504999309778">
        <ele>78.39</ele>
        <time>2025-02-04T04:37:49.272Z</time>
      </trkpt>
      <trkpt lat="58.89956099912524" lon="12.38057398237288">
        <ele>78.45</ele>
        <time>2025-02-04T04:38:06.208Z</time>
      </trkpt>
      <trkpt lat="58.89954197220504" lon="12.38064095377922">
        <ele>78.51</ele>
        <time>2025-02-04T04:38:23.145Z</time>
      </trkpt>
      <trkpt lat="58.899523951113224" lon="12.380700968205929">
        <ele>78.56</ele>
        <time>2025-02-04T04:38:40.082Z</time>
      </trkpt>
      <trkpt lat="58.899505930021405" lon="12.380757965147495">
        <ele>78.61</ele>
        <time>2025-02-04T04:38:57.020Z</time>
      </trkpt>
      <trkpt lat="58.89948992058635" lon="12.38081093877554">
        <ele>78.66</ele>
        <time>2025-02-04T04:39:13.958Z</time>
      </trkpt>
      <trkpt lat="58.89947399497032" lon="12.380861984565854">
        <ele>78.71</ele>
        <time>2025-02-04T04:39:30.897Z</time>
      </trkpt>
      <trkpt lat="58.8994559738785" lon="12.380912946537137">
        <ele>78.76</ele>
        <time>2025-02-04T04:39:47.836Z</time>
      </trkpt>
      <trkpt lat="58.89943594112992" lon="12.380964998155832">
        <ele>78.8</ele>
        <time>2025-02-04T04:40:04.776Z</time>
      </trkpt>
      <trkpt lat="58.89941297471523" lon="12.381016965955496">
        <ele>78.84</ele>
        <time>2025-02-04T04:40:21.716Z</time>
      </trkpt>
      <trkpt lat="58.89938296750188" lon="12.38106893375516">
        <ele>78.88</ele>
        <time>2025-02-04T04:40:38.657Z</time>
      </trkpt>
      <trkpt lat="58.89935094863176" lon="12.381117967888713">
        <ele>78.92</ele>
        <time>2025-02-04T04:40:55.599Z</time>
      </trkpt>
      <trkpt lat="58.89931599609554" lon="12.381169935688376">
        <ele>78.95</ele>
        <time>2025-02-04T04:41:12.541Z</time>
      </trkpt>
      <trkpt lat="58.89927894808352" lon="12.381215952336788">
        <ele>78.98</ele>
        <time>2025-02-04T04:41:29.484Z</time>
      </trkpt>
      <trkpt lat="58.89923896640539" lon="12.381257945671678">
        <ele>79.01</ele>
        <time>2025-02-04T04:41:46.428Z</time>
      </trkpt>
      <trkpt lat="58.89919395558536" lon="12.381298933178186">
        <ele>79.04</ele>
        <time>2025-02-04T04:42:03.373Z</time>
      </trkpt>
      <trkpt lat="58.89914592728019" lon="12.381341932341456">
        <ele>79.06</ele>
        <time>2025-02-04T04:42:20.319Z</time>
      </trkpt>
      <trkpt lat="58.899095971137285" lon="12.38139197230339">
        <ele>79.08</ele>
        <time>2025-02-04T04:42:37.265Z</time>
      </trkpt>
      <trkpt lat="58.89904299750924" lon="12.381440922617912">
        <ele>79.09</ele>
        <time>2025-02-04T04:42:54.212Z</time>
      </trkpt>
      <trkpt lat="58.898989940062165" lon="12.381493980064988">
        <ele>79.11</ele>
        <time>2025-02-04T04:43:11.160Z</time>
      </trkpt>
      <trkpt lat="58.89893596060574" lon="12.381556928157806">
        <ele>79.12</ele>
        <time>2025-02-04T04:43:28.109Z</time>
      </trkpt>
      <trkpt lat="58.89887795783579" lon="12.381619960069656">
        <ele>79.13</ele>
        <time>2025-02-04T04:43:45.059Z</time>
      </trkpt>
      <trkpt lat="58.898815931752324" lon="12.381679974496365">
        <ele>79.13</ele>
        <time>2025-02-04T04:44:02.011Z</time>
      </trkpt>
      <trkpt lat="58.898752983659506" lon="12.381736971437931">
        <ele>79.13</ele>
        <time>2025-02-04T04:44:18.964Z</time>
      </trkpt>
      <trkpt lat="58.89868592843413" lon="12.381782988086343">
        <ele>79.14</ele>
        <time>2025-02-04T04:44:35.918Z</time>
      </trkpt>
      <trkpt lat="58.89861895702779" lon="12.381814923137426">
        <ele>79.13</ele>
        <time>2025-02-04T04:44:52.873Z</time>
      </trkpt>
      <trkpt lat="58.89855198562145" lon="12.381835961714387">
        <ele>79.13</ele>
        <time>2025-02-04T04:45:09.829Z</time>
      </trkpt>
      <trkpt lat="58.89848291873932" lon="12.381856916472316">
        <ele>79.13</ele>
        <time>2025-02-04T04:45:26.786Z</time>
      </trkpt>
      <trkpt lat="58.89841393567622" lon="12.381890946999192">
        <ele>79.13</ele>
        <time>2025-02-04T04:45:43.744Z</time>
      </trkpt>
      <trkpt lat="58.898345958441496" lon="12.38194995559752">
        <ele>79.12</ele>
        <time>2025-02-04T04:46:00.703Z</time>
      </trkpt>
      <trkpt lat="58.89828099869192" lon="12.38203595392406">
        <ele>79.12</ele>
        <time>2025-02-04T04:46:17.664Z</time>
      </trkpt>
      <trkpt lat="58.89822391793132" lon="12.38214592449367">
        <ele>79.11</ele>
        <time>2025-02-04T04:46:34.626Z</time>
      </trkpt>
      <trkpt lat="58.898173961788416" lon="12.38226997666061">
        <ele>79.1</ele>
        <time>2025-02-04T04:46:51.589Z</time>
      </trkpt>
      <trkpt lat="58.898127945140004" lon="12.382401991635561">
        <ele>79.09</ele>
        <time>2025-02-04T04:47:08.554Z</time>
      </trkpt>
      <trkpt lat="58.898083940148354" lon="12.382533922791481">
        <ele>79.07</ele>
        <time>2025-02-04T04:47:25.520Z</time>
      </trkpt>
      <trkpt lat="58.89803892932832" lon="12.382662920281291">
        <ele>79.06</ele>
        <time>2025-02-04T04:47:42.487Z</time>
      </trkpt>
      <trkpt lat="58.89799391850829" lon="12.382793929427862">
        <ele>79.04</ele>
        <time>2025-02-04T04:47:59.456Z</time>
      </trkpt>
      <trkpt lat="58.89794899150729" lon="12.382924938574433">
        <ele>79.02</ele>
        <time>2025-02-04T04:48:16.426Z</time>
      </trkpt>
      <trkpt lat="58.89790599234402" lon="12.383054941892624">
        <ele>79.0</ele>
        <time>2025-02-04T04:48:33.397Z</time>
      </trkpt>
      <trkpt lat="58.89786299318075" lon="12.383184945210814">
        <ele>78.98</ele>
        <time>2025-02-04T04:48:50.369Z</time>
      </trkpt>
      <trkpt lat="58.89781999401748" lon="12.383313942700624">
        <ele>78.96</ele>
        <time>2025-02-04T04:49:07.343Z</time>
      </trkpt>
      <trkpt lat="58.8977809343487" lon="12.383443946018815">
        <ele>78.95</ele>
        <time>2025-02-04T04:49:24.318Z</time>
      </trkpt>
      <trkpt lat="58.897743970155716" lon="12.383575960993767">
        <ele>78.94</ele>
        <time>2025-02-04T04:49:41.294Z</time>
      </trkpt>
      <trkpt lat="58.89770893380046" lon="12.383707975968719">
        <ele>78.92</ele>
        <time>2025-02-04T04:49:58.271Z</time>
      </trkpt>
      <trkpt lat="58.897674987092614" lon="12.38383898511529">
        <ele>78.91</ele>
        <time>2025-02-04T04:50:15.250Z</time>
      </trkpt>
      <trkpt lat="58.89764196239412" lon="12.38396898843348">
        <ele>78.89</ele>
        <time>2025-02-04T04:50:32.230Z</time>
      </trkpt>
      <trkpt lat="58.89760893769562" lon="12.38409698009491">
        <ele>78.87</ele>
        <time>2025-02-04T04:50:49.211Z</time>
      </trkpt>
      <trkpt lat="58.89757792465389" lon="12.384224971756339">
        <ele>78.85</ele>
        <time>2025-02-04T04:51:06.193Z</time>
      </trkpt>
      <trkpt lat="58.897549929097295" lon="12.384345922619104">
        <ele>78.82</ele>
        <time>2025-02-04T04:51:23.176Z</time>
      </trkpt>
      <trkpt lat="58.89752394519746" lon="12.384462933987379">
        <ele>78.8</ele>
        <time>2025-02-04T04:51:40.160Z</time>
      </trkpt>
      <trkpt lat="58.89749796129763" lon="12.384575922042131">
        <ele>78.77</ele>
        <time>2025-02-04T04:51:57.145Z</time>
      </trkpt>
      <trkpt lat="58.89747499488294" lon="12.384691927582026">
        <ele>78.74</ele>
        <time>2025-02-04T04:52:14.131Z</time>
      </trkpt>
      <trkpt lat="58.89745194464922" lon="12.384810950607061">
        <ele>78.71</ele>
        <time>2025-02-04T04:52:31.118Z</time>
      </trkpt>
      <trkpt lat="58.89742998406291" lon="12.384934918954968">
        <ele>78.68</ele>
        <time>2025-02-04T04:52:48.107Z</time>
      </trkpt>
      <trkpt lat="58.89740693382919" lon="12.385056959465146">
        <ele>78.64</ele>
        <time>2025-02-04T04:53:05.097Z</time>
      </trkpt>
      <trkpt lat="58.8973839674145" lon="12.385183945298195">
        <ele>78.61</ele>
        <time>2025-02-04T04:53:22.088Z</time>
      </trkpt>
      <trkpt lat="58.89736192300916" lon="12.385318977758288">
        <ele>78.57</ele>
        <time>2025-02-04T04:53:39.080Z</time>
      </trkpt>
      <trkpt lat="58.89734197407961" lon="12.385460967198014">
        <ele>78.54</ele>
        <time>2025-02-04T04:53:56.073Z</time>
      </trkpt>
      <trkpt lat="58.89732294715941" lon="12.385607985779643">
        <ele>78.5</ele>
        <time>2025-02-04T04:54:13.067Z</time>
      </trkpt>
      <trkpt lat="58.89730392023921" lon="12.385759949684143">
        <ele>78.46</ele>
        <time>2025-02-04T04:54:30.063Z</time>
      </trkpt>
      <trkpt lat="58.89728497713804" lon="12.385916942730546">
        <ele>78.43</ele>
        <time>2025-02-04T04:54:47.060Z</time>
      </trkpt>
      <trkpt lat="58.897269973531365" lon="12.386079970747232">
        <ele>78.4</ele>
        <time>2025-02-04T04:55:04.058Z</time>
      </trkpt>
      <trkpt lat="58.89725295826793" lon="12.386249955743551">
        <ele>78.36</ele>
        <time>2025-02-04T04:55:21.058Z</time>
      </trkpt>
      <trkpt lat="58.89723493717611" lon="12.386423964053392">
        <ele>78.33</ele>
        <time>2025-02-04T04:55:38.059Z</time>
      </trkpt>
      <trkpt lat="58.89721599407494" lon="12.386600989848375">
        <ele>78.31</ele>
        <time>2025-02-04T04:55:55.062Z</time>
      </trkpt>
      <trkpt lat="58.8971989788115" lon="12.386775920167565">
        <ele>78.29</ele>
        <time>2025-02-04T04:56:12.066Z</time>
      </trkpt>
      <trkpt lat="58.897180957719684" lon="12.386948922649026">
        <ele>78.27</ele>
        <time>2025-02-04T04:56:29.072Z</time>
      </trkpt>
      <trkpt lat="58.897162936627865" lon="12.387116979807615">
        <ele>78.25</ele>
        <time>2025-02-04T04:56:46.079Z</time>
      </trkpt>
      <trkpt lat="58.89714592136443" lon="12.38728092983365">
        <ele>78.23</ele>
        <time>2025-02-04T04:57:03.088Z</time>
      </trkpt>
      <trkpt lat="58.8971299957484" lon="12.387434989213943">
        <ele>78.22</ele>
        <time>2025-02-04T04:57:20.098Z</time>
      </trkpt>
      <trkpt lat="58.89711398631334" lon="12.387583935633302">
        <ele>78.21</ele>
        <time>2025-02-04T04:57:37.109Z</time>
      </trkpt>
      <trkpt lat="58.89710099436343" lon="12.387723997235298">
        <ele>78.2</ele>
        <time>2025-02-04T04:57:54.121Z</time>
      </trkpt>
      <trkpt lat="58.89708892442286" lon="12.38785794004798">
        <ele>78.19</ele>
        <time>2025-02-04T04:58:11.134Z</time>
      </trkpt>
      <trkpt lat="58.897075932472944" lon="12.387984925881028">
        <ele>78.19</ele>
        <time>2025-02-04T04:58:28.149Z</time>
      </trkpt>
      <trkpt lat="58.89706595800817" lon="12.388107972219586">
        <ele>78.18</ele>
        <time>2025-02-04T04:58:45.165Z</time>
      </trkpt>
      <trkpt lat="58.897055983543396" lon="12.388226995244622">
        <ele>78.19</ele>
        <time>2025-02-04T04:59:02.182Z</time>
      </trkpt>
      <trkpt lat="58.89704491943121" lon="12.388342916965485">
        <ele>78.19</ele>
        <time>2025-02-04T04:59:19.200Z</time>
      </trkpt>
      <trkpt lat="58.897032933309674" lon="12.388457916676998">
        <ele>78.19</ele>
        <time>2025-02-04T04:59:36.219Z</time>
      </trkpt>
      <trkpt lat="58.89702195301652" lon="12.388571994379163">
        <ele>78.19</ele>
        <time>2025-02-04T04:59:53.238Z</time>
      </trkpt>
      <trkpt lat="58.897010972723365" lon="12.388687999919057">
        <ele>78.2</ele>
        <time>2025-02-04T05:00:10.258Z</time>
      </trkpt>
      <trkpt lat="58.89699999243021" lon="12.38880299963057">
        <ele>78.22</ele>
        <time>2025-02-04T05:00:27.279Z</time>
      </trkpt>
      <trkpt lat="58.89698691666126" lon="12.388918921351433">
        <ele>78.23</ele>
        <time>2025-02-04T05:00:44.301Z</time>
      </trkpt>
      <trkpt lat="58.89697392471135" lon="12.389033921062946">
        <ele>78.24</ele>
        <time>2025-02-04T05:01:01.324Z</time>
      </trkpt>
      <trkpt lat="58.89696093276143" lon="12.38914992660284">
        <ele>78.26</ele>
        <time>2025-02-04T05:01:18.348Z</time>
      </trkpt>
      <trkpt lat="58.89694391749799" lon="12.389265932142735">
        <ele>78.28</ele>
        <time>2025-02-04T05:01:35.373Z</time>
      </trkpt>
      <trkpt lat="58.89692899771035" lon="12.38938394933939">
        <ele>78.31</ele>
        <time>2025-02-04T05:01:52.399Z</time>
      </trkpt>
      <trkpt lat="58.89691298827529" lon="12.389502972364426">
        <ele>78.33</ele>
        <time>2025-02-04T05:02:09.426Z</time>
      </trkpt>
      <trkpt lat="58.89689194969833" lon="12.389621995389462">
        <ele>78.36</ele>
        <time>2025-02-04T05:02:26.454Z</time>
      </trkpt>
      <trkpt lat="58.89686898328364" lon="12.389741940423846">
        <ele>78.39</ele>
        <time>2025-02-04T05:02:43.484Z</time>
      </trkpt>
      <trkpt lat="58.896839981898665" lon="12.389860963448882">
        <ele>78.43</ele>
        <time>2025-02-04T05:03:00.515Z</time>
      </trkpt>
      <trkpt lat="58.89680896885693" lon="12.38998493179679">
        <ele>78.47</ele>
        <time>2025-02-04T05:03:17.547Z</time>
      </trkpt>
      <trkpt lat="58.896776949986815" lon="12.3901139292866">
        <ele>78.51</ele>
        <time>2025-02-04T05:03:34.580Z</time>
      </trkpt>
      <trkpt lat="58.89674593694508" lon="12.390246950089931">
        <ele>78.56</ele>
        <time>2025-02-04T05:03:51.614Z</time>
      </trkpt>
      <trkpt lat="58.89671693556011" lon="12.390381982550025">
        <ele>78.6</ele>
        <time>2025-02-04T05:04:08.649Z</time>
      </trkpt>
      <trkpt lat="58.896689945831895" lon="12.390514919534326">
        <ele>78.65</ele>
        <time>2025-02-04T05:04:25.686Z</time>
      </trkpt>
      <trkpt lat="58.89667393639684" lon="12.390658920630813">
        <ele>78.71</ele>
        <time>2025-02-04T05:04:42.724Z</time>
      </trkpt>
      <trkpt lat="58.896664967760444" lon="12.390818931162357">
        <ele>78.77</ele>
        <time>2025-02-04T05:04:59.763Z</time>
      </trkpt>
      <trkpt lat="58.89665599912405" lon="12.390988999977708">
        <ele>78.83</ele>
        <time>2025-02-04T05:05:16.804Z</time>
      </trkpt>
      <trkpt lat="58.89663395471871" lon="12.391172982752323">
        <ele>78.88</ele>
        <time>2025-02-04T05:05:33.846Z</time>
      </trkpt>
      <trkpt lat="58.89658994972706" lon="12.3913589771837">
        <ele>78.95</ele>
        <time>2025-02-04T05:05:50.890Z</time>
      </trkpt>
      <trkpt lat="58.896517949178815" lon="12.391527956351638">
        <ele>79.02</ele>
        <time>2025-02-04T05:06:07.936Z</time>
      </trkpt>
      <trkpt lat="58.89641594141722" lon="12.391665922477841">
        <ele>79.1</ele>
        <time>2025-02-04T05:06:24.984Z</time>
      </trkpt>
      <trkpt lat="58.89629691839218" lon="12.391783939674497">
        <ele>79.19</ele>
        <time>2025-02-04T05:06:42.034Z</time>
      </trkpt>
      <trkpt lat="58.896171944215894" lon="12.391893994063139">
        <ele>79.29</ele>
        <time>2025-02-04T05:06:59.086Z</time>
      </trkpt>
      <trkpt lat="58.89604898169637" lon="12.39202399738133">
        <ele>79.39</ele>
        <time>2025-02-04T05:07:16.140Z</time>
      </trkpt>
      <trkpt lat="58.895933981984854" lon="12.392160957679152">
        <ele>79.5</ele>
        <time>2025-02-04T05:07:33.196Z</time>
      </trkpt>
      <trkpt lat="58.89582593925297" lon="12.392296995967627">
        <ele>79.61</ele>
        <time>2025-02-04T05:07:50.254Z</time>
      </trkpt>
      <trkpt lat="58.8957279548049" lon="12.392436973750591">
        <ele>79.74</ele>
        <time>2025-02-04T05:08:07.314Z</time>
      </trkpt>
      <trkpt lat="58.895636927336454" lon="12.392575945705175">
        <ele>79.87</ele>
        <time>2025-02-04T05:08:24.376Z</time>
      </trkpt>
      <trkpt lat="58.895547995343804" lon="12.392703937366605">
        <ele>80.01</ele>
        <time>2025-02-04T05:08:41.440Z</time>
      </trkpt>
      <trkpt lat="58.895460991188884" lon="12.392825977876782">
        <ele>80.15</ele>
        <time>2025-02-04T05:08:58.506Z</time>
      </trkpt>
      <trkpt lat="58.895379938185215" lon="12.39293192513287">
        <ele>80.3</ele>
        <time>2025-02-04T05:09:15.573Z</time>
      </trkpt>
      <trkpt lat="58.8953029923141" lon="12.393027981743217">
        <ele>80.45</ele>
        <time>2025-02-04T05:09:32.642Z</time>
      </trkpt>
      <trkpt lat="58.89523199759424" lon="12.393119931221008">
        <ele>80.61</ele>
        <time>2025-02-04T05:09:49.712Z</time>
      </trkpt>
      <trkpt lat="58.89516896568239" lon="12.39320894703269">
        <ele>80.78</ele>
        <time>2025-02-04T05:10:06.783Z</time>
      </trkpt>
      <trkpt lat="58.89511096291244" lon="12.393290922045708">
        <ele>80.95</ele>
        <time>2025-02-04T05:10:23.856Z</time>
      </trkpt>
      <trkpt lat="58.895056983456016" lon="12.393375998362899">
        <ele>81.13</ele>
        <time>2025-02-04T05:10:40.930Z</time>
      </trkpt>
      <trkpt lat="58.89500794932246" lon="12.393452944234014">
        <ele>81.32</ele>
        <time>2025-02-04T05:10:58.005Z</time>
      </trkpt>
      <trkpt lat="58.89496092684567" lon="12.39352896809578">
        <ele>81.51</ele>
        <time>2025-02-04T05:11:15.081Z</time>
      </trkpt>
      <trkpt lat="58.8949179276824" lon="12.393603986129165">
        <ele>81.71</ele>
        <time>2025-02-04T05:11:32.158Z</time>
      </trkpt>
      <trkpt lat="58.89487694017589" lon="12.393675986677408">
        <ele>81.91</ele>
        <time>2025-02-04T05:11:49.236Z</time>
      </trkpt>
      <trkpt lat="58.894841987639666" lon="12.39372594282031">
        <ele>82.11</ele>
        <time>2025-02-04T05:12:06.314Z</time>
      </trkpt>
      <trkpt lat="58.89480493962765" lon="12.393774976953864">
        <ele>82.32</ele>
        <time>2025-02-04T05:12:23.393Z</time>
      </trkpt>
      <trkpt lat="58.89476998709142" lon="12.393822921440005">
        <ele>82.54</ele>
        <time>2025-02-04T05:12:40.473Z</time>
      </trkpt>
      <trkpt lat="58.89473897404969" lon="12.393869943916798">
        <ele>82.76</ele>
        <time>2025-02-04T05:12:57.553Z</time>
      </trkpt>
      <trkpt lat="58.89470896683633" lon="12.393911937251687">
        <ele>82.99</ele>
        <time>2025-02-04T05:13:14.634Z</time>
      </trkpt>
      <trkpt lat="58.89468398876488" lon="12.393946973606944">
        <ele>83.22</ele>
        <time>2025-02-04T05:13:31.715Z</time>
      </trkpt>
      <trkpt lat="58.89466194435954" lon="12.393991984426975">
        <ele>83.45</ele>
        <time>2025-02-04T05:13:48.797Z</time>
      </trkpt>
      <trkpt lat="58.89464098960161" lon="12.394043952226639">
        <ele>83.69</ele>
        <time>2025-02-04T05:14:05.879Z</time>
      </trkpt>
      <trkpt lat="58.89462095685303" lon="12.394104972481728">
        <ele>83.94</ele>
        <time>2025-02-04T05:14:22.962Z</time>
      </trkpt>
      <trkpt lat="58.89460192993283" lon="12.394165992736816">
        <ele>84.19</ele>
        <time>2025-02-04T05:14:40.046Z</time>
      </trkpt>
      <trkpt lat="58.894584998488426" lon="12.394231958314776">
        <ele>84.45</ele>
        <time>2025-02-04T05:14:57.130Z</time>
      </trkpt>
      <trkpt lat="58.89457292854786" lon="12.394290966913104">
        <ele>84.71</ele>
        <time>2025-02-04T05:15:14.215Z</time>
      </trkpt>
      <trkpt lat="58.894562954083085" lon="12.394348969683051">
        <ele>84.97</ele>
        <time>2025-02-04T05:15:31.300Z</time>
      </trkpt>
      <trkpt lat="58.89455197378993" lon="12.39440898410976">
        <ele>85.24</ele>
        <time>2025-02-04T05:15:48.386Z</time>
      </trkpt>
      <trkpt lat="58.894538981840014" lon="12.394472938030958">
        <ele>85.52</ele>
        <time>2025-02-04T05:16:05.472Z</time>
      </trkpt>
      <trkpt lat="58.89452992938459" lon="12.39453898742795">
        <ele>85.79</ele>
        <time>2025-02-04T05:16:22.559Z</time>
      </trkpt>
      <trkpt lat="58.89452791772783" lon="12.394607970491052">
        <ele>86.08</ele>
        <time>2025-02-04T05:16:39.646Z</time>
      </trkpt>
      <trkpt lat="58.89453194104135" lon="12.394673936069012">
        <ele>86.37</ele>
        <time>2025-02-04T05:16:56.734Z</time>
      </trkpt>
      <trkpt lat="58.894537976011634" lon="12.394735962152481">
        <ele>86.66</ele>
        <time>2025-02-04T05:17:13.823Z</time>
      </trkpt>
      <trkpt lat="58.89454895630479" lon="12.394787929952145">
        <ele>86.95</ele>
        <time>2025-02-04T05:17:30.912Z</time>
      </trkpt>
      <trkpt lat="58.89456798322499" lon="12.394836964085698">
        <ele>87.24</ele>
        <time>2025-02-04T05:17:48.002Z</time>
      </trkpt>
      <trkpt lat="58.8945899438113" lon="12.39488197490573">
        <ele>87.54</ele>
        <time>2025-02-04T05:18:05.092Z</time>
      </trkpt>
      <trkpt lat="58.89461299404502" lon="12.394921956583858">
        <ele>87.84</ele>
        <time>2025-02-04T05:18:22.183Z</time>
      </trkpt>
      <trkpt lat="58.89463696628809" lon="12.394958920776844">
        <ele>88.14</ele>
        <time>2025-02-04T05:18:39.274Z</time>
      </trkpt>
      <trkpt lat="58.894668985158205" lon="12.39499295130372">
        <ele>88.45</ele>
        <time>2025-02-04T05:18:56.366Z</time>
      </trkpt>
      <trkpt lat="58.89470494352281" lon="12.395024970173836">
        <ele>88.76</ele>
        <time>2025-02-04T05:19:13.458Z</time>
      </trkpt>
      <trkpt lat="58.89474492520094" lon="12.395051959902048">
        <ele>89.07</ele>
        <time>2025-02-04T05:19:30.551Z</time>
      </trkpt>
      <trkpt lat="58.89478599652648" lon="12.395080961287022">
        <ele>89.39</ele>
        <time>2025-02-04T05:19:47.645Z</time>
      </trkpt>
      <trkpt lat="58.89482597820461" lon="12.395117925480008">
        <ele>89.71</ele>
        <time>2025-02-04T05:20:04.739Z</time>
      </trkpt>
      <trkpt lat="58.89486897736788" lon="12.395159918814898">
        <ele>90.03</ele>
        <time>2025-02-04T05:20:21.834Z</time>
      </trkpt>
      <trkpt lat="58.89491097070277" lon="12.395197972655296">
        <ele>90.35</ele>
        <time>2025-02-04T05:20:38.930Z</time>
      </trkpt>
      <trkpt lat="58.894951958209276" lon="12.395230997353792">
        <ele>90.67</ele>
        <time>2025-02-04T05:20:56.027Z</time>
      </trkpt>
      <trkpt lat="58.89499898068607" lon="12.395263938233256">
        <ele>91.0</ele>
        <time>2025-02-04T05:21:13.124Z</time>
      </trkpt>
      <trkpt lat="58.89504591934383" lon="12.395300986245275">
        <ele>91.32</ele>
        <time>2025-02-04T05:21:30.222Z</time>
      </trkpt>
      <trkpt lat="58.8950889185071" lon="12.395346919074655">
        <ele>91.65</ele>
        <time>2025-02-04T05:21:47.321Z</time>
      </trkpt>
      <trkpt lat="58.89512998983264" lon="12.395396959036589">
        <ele>91.97</ele>
        <time>2025-02-04T05:22:04.421Z</time>
      </trkpt>
      <trkpt lat="58.89516997151077" lon="12.395452950149775">
        <ele>92.3</ele>
        <time>2025-02-04T05:22:21.522Z</time>
      </trkpt>
      <trkpt lat="58.89520492404699" lon="12.395514976233244">
        <ele>92.63</ele>
        <time>2025-02-04T05:22:38.623Z</time>
      </trkpt>
      <trkpt lat="58.895232919603586" lon="12.395582953467965">
        <ele>92.96</ele>
        <time>2025-02-04T05:22:55.725Z</time>
      </trkpt>
      <trkpt lat="58.89525395818055" lon="12.395648919045925">
        <ele>93.28</ele>
        <time>2025-02-04T05:23:12.828Z</time>
      </trkpt>
      <trkpt lat="58.89526393264532" lon="12.395712956786156">
        <ele>93.61</ele>
        <time>2025-02-04T05:23:29.931Z</time>
      </trkpt>
      <trkpt lat="58.895271979272366" lon="12.395778922364116">
        <ele>93.94</ele>
        <time>2025-02-04T05:23:47.035Z</time>
      </trkpt>
      <trkpt lat="58.895275918766856" lon="12.395843965932727">
        <ele>94.27</ele>
        <time>2025-02-04T05:24:04.139Z</time>
      </trkpt>
      <trkpt lat="58.895272985100746" lon="12.395904986187816">
        <ele>94.6</ele>
        <time>2025-02-04T05:24:21.244Z</time>
      </trkpt>
      <trkpt lat="58.895268961787224" lon="12.395960977301002">
        <ele>94.93</ele>
        <time>2025-02-04T05:24:38.349Z</time>
      </trkpt>
      <trkpt lat="58.89526192098856" lon="12.396012945100665">
        <ele>95.26</ele>
        <time>2025-02-04T05:24:55.455Z</time>
      </trkpt>
      <trkpt lat="58.895249934867024" lon="12.39606499671936">
        <ele>95.59</ele>
        <time>2025-02-04T05:25:12.561Z</time>
      </trkpt>
      <trkpt lat="58.89523895457387" lon="12.39611092954874">
        <ele>95.91</ele>
        <time>2025-02-04T05:25:29.668Z</time>
      </trkpt>
      <trkpt lat="58.89522294513881" lon="12.39615191705525">
        <ele>96.24</ele>
        <time>2025-02-04T05:25:46.775Z</time>
      </trkpt>
      <trkpt lat="58.895206935703754" lon="12.396189970895648">
        <ele>96.56</ele>
        <time>2025-02-04T05:26:03.882Z</time>
      </trkpt>
      <trkpt lat="58.89518799260259" lon="12.396222995594144">
        <ele>96.88</ele>
        <time>2025-02-04T05:26:20.990Z</time>
      </trkpt>
      <trkpt lat="58.895165948197246" lon="12.39625995978713">
        <ele>97.2</ele>
        <time>2025-02-04T05:26:38.098Z</time>
      </trkpt>
      <trkpt lat="58.895142981782556" lon="12.396291978657246">
        <ele>97.52</ele>
        <time>2025-02-04T05:26:55.207Z</time>
      </trkpt>
      <trkpt lat="58.895119931548834" lon="12.39632098004222">
        <ele>97.84</ele>
        <time>2025-02-04T05:27:12.316Z</time>
      </trkpt>
      <trkpt lat="58.895098976790905" lon="12.396348975598812">
        <ele>98.16</ele>
        <time>2025-02-04T05:27:29.426Z</time>
      </trkpt>
      <trkpt lat="58.895078944042325" lon="12.396376971155405">
        <ele>98.48</ele>
        <time>2025-02-04T05:27:46.536Z</time>
      </trkpt>
      <trkpt lat="58.895055977627635" lon="12.396404966711998">
        <ele>98.79</ele>
        <time>2025-02-04T05:28:03.646Z</time>
      </trkpt>
      <trkpt lat="58.89503292739391" lon="12.396423993632197">
        <ele>99.1</ele>
        <time>2025-02-04T05:28:20.757Z</time>
      </trkpt>
      <trkpt lat="58.895011972635984" lon="12.396446960046887">
        <ele>99.41</ele>
        <time>2025-02-04T05:28:37.868Z</time>
      </trkpt>
      <trkpt lat="58.894994957372546" lon="12.396478978917003">
        <ele>99.72</ele>
        <time>2025-02-04T05:28:54.980Z</time>
      </trkpt>
      <trkpt lat="58.89497794210911" lon="12.396513931453228">
        <ele>100.03</ele>
        <time>2025-02-04T05:29:12.092Z</time>
      </trkpt>
      <trkpt lat="58.89496495015919" lon="12.396548967808485">
        <ele>100.33</ele>
        <time>2025-02-04T05:29:29.204Z</time>
      </trkpt>
      <trkpt lat="58.89495296403766" lon="12.396595990285277">
        <ele>100.64</ele>
        <time>2025-02-04T05:29:46.317Z</time>
      </trkpt>
      <trkpt lat="58.89494298957288" lon="12.39664594642818">
        <ele>100.94</ele>
        <time>2025-02-04T05:30:03.430Z</time>
      </trkpt>
      <trkpt lat="58.894930919632316" lon="12.396693974733353">
        <ele>101.24</ele>
        <time>2025-02-04T05:30:20.544Z</time>
      </trkpt>
      <trkpt lat="58.89492094516754" lon="12.396749965846539">
        <ele>101.53</ele>
        <time>2025-02-04T05:30:37.658Z</time>
      </trkpt>
      <trkpt lat="58.89491298235953" lon="12.396809980273247">
        <ele>101.83</ele>
        <time>2025-02-04T05:30:54.773Z</time>
      </trkpt>
      <trkpt lat="58.89490099623799" lon="12.396872928366065">
        <ele>102.12</ele>
        <time>2025-02-04T05:31:11.888Z</time>
      </trkpt>
      <trkpt lat="58.894887920469046" lon="12.396932942792773">
        <ele>102.41</ele>
        <time>2025-02-04T05:31:29.004Z</time>
      </trkpt>
      <trkpt lat="58.89487492851913" lon="12.3969919513911">
        <ele>102.7</ele>
        <time>2025-02-04T05:31:46.120Z</time>
      </trkpt>
      <trkpt lat="58.894862942397594" lon="12.39705297164619">
        <ele>102.98</ele>
        <time>2025-02-04T05:32:03.237Z</time>
      </trkpt>
      <trkpt lat="58.8948489446193" lon="12.397112986072898">
        <ele>103.25</ele>
        <time>2025-02-04T05:32:20.354Z</time>
      </trkpt>
      <trkpt lat="58.89483293518424" lon="12.397164953872561">
        <ele>103.53</ele>
        <time>2025-02-04T05:32:37.472Z</time>
      </trkpt>
      <trkpt lat="58.89481793157756" lon="12.397220944985747">
        <ele>103.8</ele>
        <time>2025-02-04T05:32:54.590Z</time>
      </trkpt>
      <trkpt lat="58.894797982648015" lon="12.397271990776062">
        <ele>104.07</ele>
        <time>2025-02-04T05:33:11.709Z</time>
      </trkpt>
      <trkpt lat="58.89477493241429" lon="12.397315995767713">
        <ele>104.34</ele>
        <time>2025-02-04T05:33:28.829Z</time>
      </trkpt>
      <trkpt lat="58.8947519659996" lon="12.39735396578908">
        <ele>104.6</ele>
        <time>2025-02-04T05:33:45.949Z</time>
      </trkpt>
      <trkpt lat="58.89472899958491" lon="12.397386990487576">
        <ele>104.86</ele>
        <time>2025-02-04T05:34:03.069Z</time>
      </trkpt>
      <trkpt lat="58.89470594935119" lon="12.397411968559027">
        <ele>105.11</ele>
        <time>2025-02-04T05:34:20.190Z</time>
      </trkpt>
      <trkpt lat="58.894689939916134" lon="12.397425966337323">
        <ele>105.36</ele>
        <time>2025-02-04T05:34:37.311Z</time>
      </trkpt>
      <trkpt lat="58.894668985158205" lon="12.397438958287239">
        <ele>105.6</ele>
        <time>2025-02-04T05:34:54.433Z</time>
      </trkpt>
      <trkpt lat="58.894646940752864" lon="12.397449938580394">
        <ele>105.84</ele>
        <time>2025-02-04T05:35:11.555Z</time>
      </trkpt>
      <trkpt lat="58.894625985994935" lon="12.397453961893916">
        <ele>106.08</ele>
        <time>2025-02-04T05:35:28.677Z</time>
      </trkpt>
      <trkpt lat="58.894607964903116" lon="12.397461924701929">
        <ele>106.31</ele>
        <time>2025-02-04T05:35:45.800Z</time>
      </trkpt>
      <trkpt lat="58.894587932154536" lon="12.39746494218707">
        <ele>106.53</ele>
        <time>2025-02-04T05:36:02.923Z</time>
      </trkpt>
      <trkpt lat="58.894564965739846" lon="12.397467959672213">
        <ele>106.76</ele>
        <time>2025-02-04T05:36:20.046Z</time>
      </trkpt>
      <trkpt lat="58.894539987668395" lon="12.397468965500593">
        <ele>106.98</ele>
        <time>2025-02-04T05:36:37.170Z</time>
      </trkpt>
      <trkpt lat="58.8945119921118" lon="12.397465948015451">
        <ele>107.19</ele>
        <time>2025-02-04T05:36:54.294Z</time>
      </trkpt>
      <trkpt lat="58.89448592439294" lon="12.39746293053031">
        <ele>107.4</ele>
        <time>2025-02-04T05:37:11.419Z</time>
      </trkpt>
      <trkpt lat="58.894457928836346" lon="12.39746494218707">
        <ele>107.61</ele>
        <time>2025-02-04T05:37:28.544Z</time>
      </trkpt>
      <trkpt lat="58.89442699961364" lon="12.39746293053031">
        <ele>107.81</ele>
        <time>2025-02-04T05:37:45.669Z</time>
      </trkpt>
      <trkpt lat="58.894391963258386" lon="12.397461924701929">
        <ele>108.01</ele>
        <time>2025-02-04T05:38:02.795Z</time>
      </trkpt>
      <trkpt lat="58.89435994438827" lon="12.397456979379058">
        <ele>108.2</ele>
        <time>2025-02-04T05:38:19.922Z</time>
      </trkpt>
      <trkpt lat="58.894329937174916" lon="12.397447926923633">
        <ele>108.39</ele>
        <time>2025-02-04T05:38:37.049Z</time>
      </trkpt>
      <trkpt lat="58.8942979183048" lon="12.397435940802097">
        <ele>108.57</ele>
        <time>2025-02-04T05:38:54.177Z</time>
      </trkpt>
      <trkpt lat="58.89426598325372" lon="12.39742093719542">
        <ele>108.75</ele>
        <time>2025-02-04T05:39:11.305Z</time>
      </trkpt>
      <trkpt lat="58.89423497021198" lon="12.397405933588743">
        <ele>108.93</ele>
        <time>2025-02-04T05:39:28.434Z</time>
      </trkpt>
      <trkpt lat="58.89420697465539" lon="12.397389924153686">
        <ele>109.1</ele>
        <time>2025-02-04T05:39:45.563Z</time>
      </trkpt>
      <trkpt lat="58.89417998492718" lon="12.39737894386053">
        <ele>109.26</ele>
        <time>2025-02-04T05:40:02.692Z</time>
      </trkpt>
      <trkpt lat="58.894155928865075" lon="12.397365951910615">
        <ele>109.42</ele>
        <time>2025-02-04T05:40:19.822Z</time>
      </trkpt>
      <trkpt lat="58.89413799159229" lon="12.39735497161746">
        <ele>109.58</ele>
        <time>2025-02-04T05:40:36.952Z</time>
      </trkpt>
      <trkpt lat="58.89412298798561" lon="12.397344997152686">
        <ele>109.73</ele>
        <time>2025-02-04T05:40:54.082Z</time>
      </trkpt>
      <trkpt lat="58.894114941358566" lon="12.397342985495925">
        <ele>109.88</ele>
        <time>2025-02-04T05:41:11.213Z</time>
      </trkpt>
      <trkpt lat="58.894109996035695" lon="12.397343991324306">
        <ele>110.03</ele>
        <time>2025-02-04T05:41:28.344Z</time>
      </trkpt>
      <trkpt lat="58.89403397217393" lon="12.397358994930983">
        <ele>110.17</ele>
        <time>2025-02-04T05:41:45.476Z</time>
      </trkpt>
      <trkpt lat="58.894005976617336" lon="12.397366957738996">
        <ele>110.31</ele>
        <time>2025-02-04T05:42:02.608Z</time>
      </trkpt>
      <trkpt lat="58.893979992717505" lon="12.39737793803215">
        <ele>110.44</ele>
        <time>2025-02-04T05:42:19.741Z</time>
      </trkpt>
      <trkpt lat="58.8939559366554" lon="12.397384978830814">
        <ele>110.57</ele>
        <time>2025-02-04T05:42:36.874Z</time>
      </trkpt>
      <trkpt lat="58.89393196441233" lon="12.397390929982066">
        <ele>110.69</ele>
        <time>2025-02-04T05:42:54.008Z</time>
      </trkpt>
      <trkpt lat="58.89390992000699" lon="12.397393947467208">
        <ele>110.81</ele>
        <time>2025-02-04T05:43:11.142Z</time>
      </trkpt>
      <trkpt lat="58.89388795942068" lon="12.397387996315956">
        <ele>110.92</ele>
        <time>2025-02-04T05:43:28.276Z</time>
      </trkpt>
      <trkpt lat="58.89386599883437" lon="12.397375926375389">
        <ele>111.03</ele>
        <time>2025-02-04T05:43:45.411Z</time>
      </trkpt>
      <trkpt lat="58.8938369974494" lon="12.397363940253854">
        <ele>111.13</ele>
        <time>2025-02-04T05:44:02.546Z</time>
      </trkpt>
      <trkpt lat="58.893809923902154" lon="12.397349942475557">
        <ele>111.23</ele>
        <time>2025-02-04T05:44:19.682Z</time>
      </trkpt>
      <trkpt lat="58.893788969144225" lon="12.397331921383739">
        <ele>111.33</ele>
        <time>2025-02-04T05:44:36.818Z</time>
      </trkpt>
      <trkpt lat="58.89377497136593" lon="12.397315995767713">
        <ele>111.42</ele>
        <time>2025-02-04T05:44:53.954Z</time>
      </trkpt>
      <trkpt lat="58.893768936395645" lon="12.397302919998765">
        <ele>111.51</ele>
        <time>2025-02-04T05:45:11.090Z</time>
      </trkpt>
      <trkpt lat="58.893766924738884" lon="12.397302919998765">
        <ele>111.6</ele>
        <time>2025-02-04T05:45:28.226Z</time>
      </trkpt>
      <trkpt lat="58.89372895471752" lon="12.397285988554358">
        <ele>111.67</ele>
        <time>2025-02-04T05:45:45.363Z</time>
      </trkpt>
      <trkpt lat="58.893703976646066" lon="12.3972699791193">
        <ele>111.75</ele>
        <time>2025-02-04T05:46:02.500Z</time>
      </trkpt>
      <trkpt lat="58.89366894029081" lon="12.397257992997766">
        <ele>111.82</ele>
        <time>2025-02-04T05:46:19.638Z</time>
      </trkpt>
      <trkpt lat="58.89362493529916" lon="12.39724994637072">
        <ele>111.89</ele>
        <time>2025-02-04T05:46:36.777Z</time>
      </trkpt>
      <trkpt lat="58.89357095584273" lon="12.397252963855863">
        <ele>111.95</ele>
        <time>2025-02-04T05:46:53.917Z</time>
      </trkpt>
      <trkpt lat="58.893512953072786" lon="12.397272996604443">
        <ele>112.01</ele>
        <time>2025-02-04T05:47:11.057Z</time>
      </trkpt>
      <trkpt lat="58.89345293864608" lon="12.397308954969049">
        <ele>112.07</ele>
        <time>2025-02-04T05:47:28.198Z</time>
      </trkpt>
      <trkpt lat="58.89339099638164" lon="12.397358994930983">
        <ele>112.13</ele>
        <time>2025-02-04T05:47:45.341Z</time>
      </trkpt>
      <trkpt lat="58.89332695864141" lon="12.397422948852181">
        <ele>112.18</ele>
        <time>2025-02-04T05:48:02.485Z</time>
      </trkpt>
      <trkpt lat="58.89326895587146" lon="12.397489920258522">
        <ele>112.22</ele>
        <time>2025-02-04T05:48:19.630Z</time>
      </trkpt>
      <trkpt lat="58.89321497641504" lon="12.397562926635146">
        <ele>112.27</ele>
        <time>2025-02-04T05:48:36.776Z</time>
      </trkpt>
      <trkpt lat="58.89316191896796" lon="12.397645991295576">
        <ele>112.32</ele>
        <time>2025-02-04T05:48:53.923Z</time>
      </trkpt>
      <trkpt lat="58.89310793951154" lon="12.397737940773368">
        <ele>112.37</ele>
        <time>2025-02-04T05:49:11.071Z</time>
      </trkpt>
      <trkpt lat="58.89305295422673" lon="12.39782796241343">
        <ele>112.4</ele>
        <time>2025-02-04T05:49:28.220Z</time>
      </trkpt>
      <trkpt lat="58.89300593174994" lon="12.397907925769687">
        <ele>112.43</ele>
        <time>2025-02-04T05:49:45.370Z</time>
      </trkpt>
      <trkpt lat="58.89296494424343" lon="12.39797892048955">
        <ele>112.46</ele>
        <time>2025-02-04T05:50:02.521Z</time>
      </trkpt>
      <trkpt lat="58.8929249625653" lon="12.398044969886541">
        <ele>112.48</ele>
        <time>2025-02-04T05:50:19.673Z</time>
      </trkpt>
      <trkpt lat="58.892888920381665" lon="12.398115964606404">
        <ele>112.5</ele>
        <time>2025-02-04T05:50:36.826Z</time>
      </trkpt>
      <trkpt lat="58.89285899698734" lon="12.398184947669506">
        <ele>112.53</ele>
        <time>2025-02-04T05:50:53.980Z</time>
      </trkpt>
      <trkpt lat="58.89283091761172" lon="12.398255942389369">
        <ele>112.54</ele>
        <time>2025-02-04T05:51:11.134Z</time>
      </trkpt>
      <trkpt lat="58.89280895702541" lon="12.398325931280851">
        <ele>112.56</ele>
        <time>2025-02-04T05:51:28.289Z</time>
      </trkpt>
      <trkpt lat="58.89278498478234" lon="12.398402960970998">
        <ele>112.57</ele>
        <time>2025-02-04T05:51:45.445Z</time>
      </trkpt>
      <trkpt lat="58.892760928720236" lon="12.39849398843944">
        <ele>112.58</ele>
        <time>2025-02-04T05:52:02.602Z</time>
      </trkpt>
      <trkpt lat="58.89273997396231" lon="12.398593984544277">
        <ele>112.58</ele>
        <time>2025-02-04T05:52:19.759Z</time>
      </trkpt>
      <trkpt lat="58.892716923728585" lon="12.398697920143604">
        <ele>112.59</ele>
        <time>2025-02-04T05:52:36.917Z</time>
      </trkpt>
      <trkpt lat="58.89268892817199" lon="12.398806968703866">
        <ele>112.58</ele>
        <time>2025-02-04T05:52:54.076Z</time>
      </trkpt>
      <trkpt lat="58.8926609326154" lon="12.398911993950605">
        <ele>112.57</ele>
        <time>2025-02-04T05:53:11.236Z</time>
      </trkpt>
      <trkpt lat="58.892632937058806" lon="12.399014923721552">
        <ele>112.56</ele>
        <time>2025-02-04T05:53:28.397Z</time>
      </trkpt>
      <trkpt lat="58.89260192401707" lon="12.399128917604685">
        <ele>112.55</ele>
        <time>2025-02-04T05:53:45.559Z</time>
      </trkpt>
      <trkpt lat="58.89256898313761" lon="12.399251963943243">
        <ele>112.53</ele>
        <time>2025-02-04T05:54:02.723Z</time>
      </trkpt>
      <trkpt lat="58.89253394678235" lon="12.399380961433053">
        <ele>112.51</ele>
        <time>2025-02-04T05:54:19.888Z</time>
      </trkpt>
      <trkpt lat="58.892498994246125" lon="12.399520939216018">
        <ele>112.49</ele>
        <time>2025-02-04T05:54:37.054Z</time>
      </trkpt>
      <trkpt lat="58.89246697537601" lon="12.39965295419097">
        <ele>112.46</ele>
        <time>2025-02-04T05:54:54.221Z</time>
      </trkpt>
      <trkpt lat="58.892436968162656" lon="12.399786980822682">
        <ele>112.44</ele>
        <time>2025-02-04T05:55:11.390Z</time>
      </trkpt>
      <trkpt lat="58.892416935414076" lon="12.399922935292125">
        <ele>112.41</ele>
        <time>2025-02-04T05:55:28.560Z</time>
      </trkpt>
      <trkpt lat="58.89240897260606" lon="12.400053944438696">
        <ele>112.38</ele>
        <time>2025-02-04T05:55:45.731Z</time>
      </trkpt>
      <trkpt lat="58.89240997843444" lon="12.400177996605635">
        <ele>112.35</ele>
        <time>2025-02-04T05:56:02.903Z</time>
      </trkpt>
      <trkpt lat="58.892414923757315" lon="12.400296935811639">
        <ele>112.31</ele>
        <time>2025-02-04T05:56:20.076Z</time>
      </trkpt>
      <trkpt lat="58.892416935414076" lon="12.4004059843719">
        <ele>112.27</ele>
        <time>2025-02-04T05:56:37.250Z</time>
      </trkpt>
      <trkpt lat="58.892415929585695" lon="12.400510925799608">
        <ele>112.23</ele>
        <time>2025-02-04T05:56:54.425Z</time>
      </trkpt>
      <trkpt lat="58.89240394346416" lon="12.400614945217967">
        <ele>112.19</ele>
        <time>2025-02-04T05:57:11.600Z</time>
      </trkpt>
      <trkpt lat="58.89238491654396" lon="12.400718964636326">
        <ele>112.15</ele>
        <time>2025-02-04T05:57:28.776Z</time>
      </trkpt>
      <trkpt lat="58.89236195012927" lon="12.400817954912782">
        <ele>112.1</ele>
        <time>2025-02-04T05:57:45.953Z</time>
      </trkpt>
      <trkpt lat="58.892329931259155" lon="12.400915939360857">
        <ele>112.05</ele>
        <time>2025-02-04T05:58:03.131Z</time>
      </trkpt>
      <trkpt lat="58.89229397289455" lon="12.401008978486061">
        <ele>112.01</ele>
        <time>2025-02-04T05:58:20.310Z</time>
      </trkpt>
      <trkpt lat="58.89225197955966" lon="12.401095982640982">
        <ele>111.96</ele>
        <time>2025-02-04T05:58:37.490Z</time>
      </trkpt>
      <trkpt lat="58.89220294542611" lon="12.401172928512096">
        <ele>111.91</ele>
        <time>2025-02-04T05:58:54.671Z</time>
      </trkpt>
      <trkpt lat="58.89214896596968" lon="12.401238977909088">
        <ele>111.85</ele>
        <time>2025-02-04T05:59:11.853Z</time>
      </trkpt>
      <trkpt lat="58.89208794571459" lon="12.401296980679035">
        <ele>111.8</ele>
        <time>2025-02-04T05:59:29.036Z</time>
      </trkpt>
      <trkpt lat="58.89202591963112" lon="12.401345930993557">
        <ele>111.74</ele>
        <time>2025-02-04T05:59:46.220Z</time>
      </trkpt>
      <trkpt lat="58.89196498319507" lon="12.401386918500066">
        <ele>111.67</ele>
        <time>2025-02-04T06:00:03.405Z</time>
      </trkpt>
      <trkpt lat="58.89190597459674" lon="12.401423966512084">
        <ele>111.61</ele>
        <time>2025-02-04T06:00:20.591Z</time>
      </trkpt>
      <trkpt lat="58.89184797182679" lon="12.40146093070507">
        <ele>111.54</ele>
        <time>2025-02-04T06:00:37.778Z</time>
      </trkpt>
      <trkpt lat="58.89179298654199" lon="12.401497978717089">
        <ele>111.47</ele>
        <time>2025-02-04T06:00:54.966Z</time>
      </trkpt>
      <trkpt lat="58.89174294658005" lon="12.401532931253314">
        <ele>111.39</ele>
        <time>2025-02-04T06:01:12.155Z</time>
      </trkpt>
      <trkpt lat="58.89169793576002" lon="12.401574924588203">
        <ele>111.32</ele>
        <time>2025-02-04T06:01:29.345Z</time>
      </trkpt>
      <trkpt lat="58.891659965738654" lon="12.401617923751473">
        <ele>111.24</ele>
        <time>2025-02-04T06:01:46.536Z</time>
      </trkpt>
      <trkpt lat="58.89162794686854" lon="12.401665952056646">
        <ele>111.17</ele>
        <time>2025-02-04T06:02:03.727Z</time>
      </trkpt>
      <trkpt lat="58.891599951311946" lon="12.401709957048297">
        <ele>111.09</ele>
        <time>2025-02-04T06:02:20.919Z</time>
      </trkpt>
      <trkpt lat="58.89157195575535" lon="12.401750944554806">
        <ele>111.01</ele>
        <time>2025-02-04T06:02:38.112Z</time>
      </trkpt>
      <trkpt lat="58.89154396019876" lon="12.401796961203218">
        <ele>110.92</ele>
        <time>2025-02-04T06:02:55.305Z</time>
      </trkpt>
      <trkpt lat="58.89151495881379" lon="12.401841972023249">
        <ele>110.84</ele>
        <time>2025-02-04T06:03:12.499Z</time>
      </trkpt>
      <trkpt lat="58.89148394577205" lon="12.401888994500041">
        <ele>110.75</ele>
        <time>2025-02-04T06:03:29.693Z</time>
      </trkpt>
      <trkpt lat="58.891450921073556" lon="12.401938950642943">
        <ele>110.66</ele>
        <time>2025-02-04T06:03:46.888Z</time>
      </trkpt>
      <trkpt lat="58.89141798019409" lon="12.401988990604877">
        <ele>110.58</ele>
        <time>2025-02-04T06:04:04.084Z</time>
      </trkpt>
      <trkpt lat="58.891383949667215" lon="12.402040958404541">
        <ele>110.49</ele>
        <time>2025-02-04T06:04:21.280Z</time>
      </trkpt>
      <trkpt lat="58.89134799130261" lon="12.402093932032585">
        <ele>110.4</ele>
        <time>2025-02-04T06:04:38.477Z</time>
      </trkpt>
      <trkpt lat="58.89131094329059" lon="12.40214891731739">
        <ele>110.3</ele>
        <time>2025-02-04T06:04:55.675Z</time>
      </trkpt>
      <trkpt lat="58.89126693829894" lon="12.402208931744099">
        <ele>110.2</ele>
        <time>2025-02-04T06:05:12.874Z</time>
      </trkpt>
      <trkpt lat="58.89121999964118" lon="12.402268946170807">
        <ele>110.1</ele>
        <time>2025-02-04T06:05:30.074Z</time>
      </trkpt>
      <trkpt lat="58.89117096550763" lon="12.402327954769135">
        <ele>110.01</ele>
        <time>2025-02-04T06:05:47.275Z</time>
      </trkpt>
      <trkpt lat="58.89111799187958" lon="12.402372965589166">
        <ele>109.9</ele>
        <time>2025-02-04T06:06:04.476Z</time>
      </trkpt>
      <trkpt lat="58.891058983281255" lon="12.402410935610533">
        <ele>109.81</ele>
        <time>2025-02-04T06:06:21.678Z</time>
      </trkpt>
      <trkpt lat="58.89099997468293" lon="12.402429962530732">
        <ele>109.7</ele>
        <time>2025-02-04T06:06:38.881Z</time>
      </trkpt>
      <trkpt lat="58.89093895442784" lon="12.402434991672635">
        <ele>109.6</ele>
        <time>2025-02-04T06:06:56.085Z</time>
      </trkpt>
      <trkpt lat="58.89087793417275" lon="12.402433985844254">
        <ele>109.49</ele>
        <time>2025-02-04T06:07:13.290Z</time>
      </trkpt>
      <trkpt lat="58.89081599190831" lon="12.402416970580816">
        <ele>109.39</ele>
        <time>2025-02-04T06:07:30.496Z</time>
      </trkpt>
      <trkpt lat="58.89075396582484" lon="12.402392998337746">
        <ele>109.28</ele>
        <time>2025-02-04T06:07:47.703Z</time>
      </trkpt>
      <trkpt lat="58.890695963054895" lon="12.402352932840586">
        <ele>109.16</ele>
        <time>2025-02-04T06:08:04.911Z</time>
      </trkpt>
      <trkpt lat="58.89063896611333" lon="12.402304988354445">
        <ele>109.05</ele>
        <time>2025-02-04T06:08:22.120Z</time>
      </trkpt>
      <trkpt lat="58.890585992485285" lon="12.402243968099356">
        <ele>108.94</ele>
        <time>2025-02-04T06:08:39.330Z</time>
      </trkpt>
      <trkpt lat="58.89053092338145" lon="12.402181942015886">
        <ele>108.83</ele>
        <time>2025-02-04T06:08:56.541Z</time>
      </trkpt>
      <trkpt lat="58.89047392643988" lon="12.402120921760798">
        <ele>108.71</ele>
        <time>2025-02-04T06:09:13.753Z</time>
      </trkpt>
      <trkpt lat="58.890416929498315" lon="12.402052944526076">
        <ele>108.6</ele>
        <time>2025-02-04T06:09:30.967Z</time>
      </trkpt>
      <trkpt lat="58.890351969748735" lon="12.401984967291355">
        <ele>108.49</ele>
        <time>2025-02-04T06:09:48.182Z</time>
      </trkpt>
      <trkpt lat="58.89027996920049" lon="12.401916990056634">
        <ele>108.37</ele>
        <time>2025-02-04T06:10:05.398Z</time>
      </trkpt>
      <trkpt lat="58.89020495116711" lon="12.401851946488023">
        <ele>108.26</ele>
        <time>2025-02-04T06:10:22.615Z</time>
      </trkpt>
      <trkpt lat="58.89012297615409" lon="12.401792937889695">
        <ele>108.15</ele>
        <time>2025-02-04T06:10:39.834Z</time>
      </trkpt>
      <trkpt lat="58.890029937028885" lon="12.401751950383186">
        <ele>108.04</ele>
        <time>2025-02-04T06:10:57.054Z</time>
      </trkpt>
      <trkpt lat="58.88993497006595" lon="12.401728983968496">
        <ele>107.93</ele>
        <time>2025-02-04T06:11:14.276Z</time>
      </trkpt>
      <trkpt lat="58.88984293676913" lon="12.401739964261651">
        <ele>107.82</ele>
        <time>2025-02-04T06:11:31.499Z</time>
      </trkpt>
      <trkpt lat="58.889750987291336" lon="12.40179997868836">
        <ele>107.72</ele>
        <time>2025-02-04T06:11:48.724Z</time>
      </trkpt>
      <trkpt lat="58.889663983136415" lon="12.401882959529757">
        <ele>107.62</ele>
        <time>2025-02-04T06:12:05.950Z</time>
      </trkpt>
      <trkpt lat="58.88958293013275" lon="12.401981949806213">
        <ele>107.51</ele>
        <time>2025-02-04T06:12:23.178Z</time>
      </trkpt>
      <trkpt lat="58.889512941241264" lon="12.402077922597528">
        <ele>107.41</ele>
        <time>2025-02-04T06:12:40.407Z</time>
      </trkpt>
      <trkpt lat="58.88944295234978" lon="12.40218898281455">
        <ele>107.32</ele>
        <time>2025-02-04T06:12:57.638Z</time>
      </trkpt>
      <trkpt lat="58.88937497511506" lon="12.4022969417274">
        <ele>107.21</ele>
        <time>2025-02-04T06:13:14.870Z</time>
      </trkpt>
      <trkpt lat="58.88930498622358" lon="12.402409929782152">
        <ele>107.11</ele>
        <time>2025-02-04T06:13:32.104Z</time>
      </trkpt>
      <trkpt lat="58.889237930998206" lon="12.40253297612071">
        <ele>107.01</ele>
        <time>2025-02-04T06:13:49.339Z</time>
      </trkpt>
      <trkpt lat="58.88916299678385" lon="12.402669936418533">
        <ele>106.91</ele>
        <time>2025-02-04T06:14:06.576Z</time>
      </trkpt>
      <trkpt lat="58.88908797875047" lon="12.402798933908343">
        <ele>106.81</ele>
        <time>2025-02-04T06:14:23.814Z</time>
      </trkpt>
      <trkpt lat="58.8890119548887" lon="12.402921980246902">
        <ele>106.71</ele>
        <time>2025-02-04T06:14:41.054Z</time>
      </trkpt>
      <trkpt lat="58.888869965448976" lon="12.403187938034534">
        <ele>106.62</ele>
        <time>2025-02-04T06:14:58.297Z</time>
      </trkpt>
      <trkpt lat="58.88883794657886" lon="12.40326195023954">
        <ele>106.52</ele>
        <time>2025-02-04T06:15:15.541Z</time>
      </trkpt>
      <trkpt lat="58.888805927708745" lon="12.403334956616163">
        <ele>106.44</ele>
        <time>2025-02-04T06:15:32.786Z</time>
      </trkpt>
      <trkpt lat="58.88868698850274" lon="12.403604937717319">
        <ele>106.35</ele>
        <time>2025-02-04T06:15:50.034Z</time>
      </trkpt>
      <trkpt lat="58.888654969632626" lon="12.403658917173743">
        <ele>106.27</ele>
        <time>2025-02-04T06:16:07.282Z</time>
      </trkpt>
      <trkpt lat="58.88862295076251" lon="12.403711974620819">
        <ele>106.19</ele>
        <time>2025-02-04T06:16:24.531Z</time>
      </trkpt>
      <trkpt lat="58.8884889241308" lon="12.403854969888926">
        <ele>106.1</ele>
        <time>2025-02-04T06:16:41.782Z</time>
      </trkpt>
      <trkpt lat="58.88845195993781" lon="12.40388497710228">
        <ele>106.03</ele>
        <time>2025-02-04T06:16:59.034Z</time>
      </trkpt>
      <trkpt lat="58.888414995744824" lon="12.403913978487253">
        <ele>105.96</ele>
        <time>2025-02-04T06:17:16.287Z</time>
      </trkpt>
      <trkpt lat="58.88834299519658" lon="12.40397097542882">
        <ele>105.89</ele>
        <time>2025-02-04T06:17:33.541Z</time>
      </trkpt>
      <trkpt lat="58.888268982991576" lon="12.404039958491921">
        <ele>105.83</ele>
        <time>2025-02-04T06:17:50.796Z</time>
      </trkpt>
      <trkpt lat="58.88819597661495" lon="12.404105924069881">
        <ele>105.76</ele>
        <time>2025-02-04T06:18:08.053Z</time>
      </trkpt>
      <trkpt lat="58.888118946924806" lon="12.40416593849659">
        <ele>105.7</ele>
        <time>2025-02-04T06:18:25.311Z</time>
      </trkpt>
      <trkpt lat="58.88803596608341" lon="12.404238944873214">
        <ele>105.65</ele>
        <time>2025-02-04T06:18:42.570Z</time>
      </trkpt>
      <trkpt lat="58.88795298524201" lon="12.404306922107935">
        <ele>105.61</ele>
        <time>2025-02-04T06:18:59.831Z</time>
      </trkpt>
      <trkpt lat="58.88786799274385" lon="12.404370959848166">
        <ele>105.56</ele>
        <time>2025-02-04T06:19:17.093Z</time>
      </trkpt>
      <trkpt lat="58.88778492808342" lon="12.404438937082887">
        <ele>105.53</ele>
        <time>2025-02-04T06:19:34.357Z</time>
      </trkpt>
      <trkpt lat="58.88771393336356" lon="12.404494928196073">
        <ele>105.49</ele>
        <time>2025-02-04T06:19:51.622Z</time>
      </trkpt>
      <trkpt lat="58.88765098527074" lon="12.404540944844484">
        <ele>105.46</ele>
        <time>2025-02-04T06:20:08.888Z</time>
      </trkpt>
      <trkpt lat="58.88759792782366" lon="12.404577992856503">
        <ele>105.43</ele>
        <time>2025-02-04T06:20:26.155Z</time>
      </trkpt>
      <trkpt lat="58.88754495419562" lon="12.404609927907586">
        <ele>105.41</ele>
        <time>2025-02-04T06:20:43.423Z</time>
      </trkpt>
      <trkpt lat="58.887490974739194" lon="12.404628954827785">
        <ele>105.39</ele>
        <time>2025-02-04T06:21:00.692Z</time>
      </trkpt>
      <trkpt lat="58.88744093477726" lon="12.40463892929256">
        <ele>105.37</ele>
        <time>2025-02-04T06:21:17.962Z</time>
      </trkpt>
      <trkpt lat="58.887386955320835" lon="12.40463892929256">
        <ele>105.35</ele>
        <time>2025-02-04T06:21:35.232Z</time>
      </trkpt>
      <trkpt lat="58.887323923408985" lon="12.404624931514263">
        <ele>105.34</ele>
        <time>2025-02-04T06:21:52.503Z</time>
      </trkpt>
      <trkpt lat="58.88724798336625" lon="12.404608922079206">
        <ele>105.33</ele>
        <time>2025-02-04T06:22:09.776Z</time>
      </trkpt>
      <trkpt lat="58.88716491870582" lon="12.40459299646318">
        <ele>105.33</ele>
        <time>2025-02-04T06:22:27.050Z</time>
      </trkpt>
      <trkpt lat="58.88707799836993" lon="12.404580926522613">
        <ele>105.33</ele>
        <time>2025-02-04T06:22:44.325Z</time>
      </trkpt>
      <trkpt lat="58.88698495924473" lon="12.404577992856503">
        <ele>105.33</ele>
        <time>2025-02-04T06:23:01.602Z</time>
      </trkpt>
      <trkpt lat="58.88689896091819" lon="12.404578998684883">
        <ele>105.33</ele>
        <time>2025-02-04T06:23:18.880Z</time>
      </trkpt>
      <trkpt lat="58.88681991957128" lon="12.404582938179374">
        <ele>105.34</ele>
        <time>2025-02-04T06:23:36.160Z</time>
      </trkpt>
      <trkpt lat="58.8867359329015" lon="12.40459299646318">
        <ele>105.36</ele>
        <time>2025-02-04T06:23:53.441Z</time>
      </trkpt>
      <trkpt lat="58.88664993457496" lon="12.404590984806418">
        <ele>105.38</ele>
        <time>2025-02-04T06:24:10.723Z</time>
      </trkpt>
      <trkpt lat="58.88655697926879" lon="12.404577992856503">
        <ele>105.4</ele>
        <time>2025-02-04T06:24:28.007Z</time>
      </trkpt>
      <trkpt lat="58.886465951800346" lon="12.404543962329626">
        <ele>105.42</ele>
        <time>2025-02-04T06:24:45.292Z</time>
      </trkpt>
      <trkpt lat="58.88637098483741" lon="12.404505992308259">
        <ele>105.45</ele>
        <time>2025-02-04T06:25:02.579Z</time>
      </trkpt>
      <trkpt lat="58.88627895154059" lon="12.404479924589396">
        <ele>105.48</ele>
        <time>2025-02-04T06:25:19.867Z</time>
      </trkpt>
      <trkpt lat="58.886180967092514" lon="12.40448696538806">
        <ele>105.52</ele>
        <time>2025-02-04T06:25:37.157Z</time>
      </trkpt>
      <trkpt lat="58.88609094545245" lon="12.404520995914936">
        <ele>105.56</ele>
        <time>2025-02-04T06:25:54.448Z</time>
      </trkpt>
      <trkpt lat="58.88600695878267" lon="12.404581932350993">
        <ele>105.6</ele>
        <time>2025-02-04T06:26:11.741Z</time>
      </trkpt>
      <trkpt lat="58.885927917435765" lon="12.404657956212759">
        <ele>105.64</ele>
        <time>2025-02-04T06:26:29.035Z</time>
      </trkpt>
      <trkpt lat="58.88584493659437" lon="12.404736997559667">
        <ele>105.69</ele>
        <time>2025-02-04T06:26:46.331Z</time>
      </trkpt>
      <trkpt lat="58.88574996963143" lon="12.404817966744304">
        <ele>105.74</ele>
        <time>2025-02-04T06:27:03.628Z</time>
      </trkpt>
      <trkpt lat="58.885645950213075" lon="12.40489793010056">
        <ele>105.8</ele>
        <time>2025-02-04T06:27:20.927Z</time>
      </trkpt>
      <trkpt lat="58.88553296215832" lon="12.404963979497552">
        <ele>105.86</ele>
        <time>2025-02-04T06:27:38.228Z</time>
      </trkpt>
      <trkpt lat="58.88541595079005" lon="12.405012929812074">
        <ele>105.92</ele>
        <time>2025-02-04T06:27:55.531Z</time>
      </trkpt>
      <trkpt lat="58.885300951078534" lon="12.405040925368667">
        <ele>105.99</ele>
        <time>2025-02-04T06:28:12.836Z</time>
      </trkpt>
      <trkpt lat="58.885192992165685" lon="12.405055928975344">
        <ele>106.07</ele>
        <time>2025-02-04T06:28:30.143Z</time>
      </trkpt>
      <trkpt lat="58.885088972747326" lon="12.405063975602388">
        <ele>106.15</ele>
        <time>2025-02-04T06:28:47.451Z</time>
      </trkpt>
      <trkpt lat="58.88499098829925" lon="12.405063975602388">
        <ele>106.24</ele>
        <time>2025-02-04T06:29:04.761Z</time>
      </trkpt>
      <trkpt lat="58.88490197248757" lon="12.405056934803724">
        <ele>106.33</ele>
        <time>2025-02-04T06:29:22.072Z</time>
      </trkpt>
      <trkpt lat="58.88481999747455" lon="12.405056934803724">
        <ele>106.43</ele>
        <time>2025-02-04T06:29:39.385Z</time>
      </trkpt>
      <trkpt lat="58.88474699109793" lon="12.405051989480853">
        <ele>106.52</ele>
        <time>2025-02-04T06:29:56.699Z</time>
      </trkpt>
      <trkpt lat="58.884675996378064" lon="12.40504796616733">
        <ele>106.62</ele>
        <time>2025-02-04T06:30:14.014Z</time>
      </trkpt>
      <trkpt lat="58.88460592366755" lon="12.40504796616733">
        <ele>106.73</ele>
        <time>2025-02-04T06:30:31.330Z</time>
      </trkpt>
      <trkpt lat="58.88453694060445" lon="12.405052995309234">
        <ele>106.84</ele>
        <time>2025-02-04T06:30:48.647Z</time>
      </trkpt>
      <trkpt lat="58.884465945884585" lon="12.405060958117247">
        <ele>106.96</ele>
        <time>2025-02-04T06:31:05.965Z</time>
      </trkpt>
      <trkpt lat="58.884399980306625" lon="12.405058946460485">
        <ele>107.07</ele>
        <time>2025-02-04T06:31:23.284Z</time>
      </trkpt>
      <trkpt lat="58.884336948394775" lon="12.405055928975344">
        <ele>107.19</ele>
        <time>2025-02-04T06:31:40.604Z</time>
      </trkpt>
      <trkpt lat="58.884273916482925" lon="12.405051989480853">
        <ele>107.31</ele>
        <time>2025-02-04T06:31:57.925Z</time>
      </trkpt>
      <trkpt lat="58.884206945076585" lon="12.40504595451057">
        <ele>107.44</ele>
        <time>2025-02-04T06:32:15.247Z</time>
      </trkpt>
      <trkpt lat="58.884139973670244" lon="12.405041931197047">
        <ele>107.57</ele>
        <time>2025-02-04T06:32:32.570Z</time>
      </trkpt>
      <trkpt lat="58.88407099060714" lon="12.405039919540286">
        <ele>107.71</ele>
        <time>2025-02-04T06:32:49.895Z</time>
      </trkpt>
      <trkpt lat="58.8839989900589" lon="12.405041931197047">
        <ele>107.84</ele>
        <time>2025-02-04T06:33:07.221Z</time>
      </trkpt>
      <trkpt lat="58.88392296619713" lon="12.405044948682189">
        <ele>107.99</ele>
        <time>2025-02-04T06:33:24.548Z</time>
      </trkpt>
      <trkpt lat="58.883844930678606" lon="12.40504595451057">
        <ele>108.14</ele>
        <time>2025-02-04T06:33:41.876Z</time>
      </trkpt>
      <trkpt lat="58.88376396149397" lon="12.405044948682189">
        <ele>108.29</ele>
        <time>2025-02-04T06:33:59.205Z</time>
      </trkpt>
      <trkpt lat="58.88368198648095" lon="12.405040925368667">
        <ele>108.44</ele>
        <time>2025-02-04T06:34:16.536Z</time>
      </trkpt>
      <trkpt lat="58.88359892182052" lon="12.405032962560654">
        <ele>108.59</ele>
        <time>2025-02-04T06:34:33.868Z</time>
      </trkpt>
      <trkpt lat="58.88351594097912" lon="12.405021982267499">
        <ele>108.75</ele>
        <time>2025-02-04T06:34:51.201Z</time>
      </trkpt>
      <trkpt lat="58.883433965966105" lon="12.405008990317583">
        <ele>108.91</ele>
        <time>2025-02-04T06:35:08.536Z</time>
      </trkpt>
      <trkpt lat="58.88335098512471" lon="12.404993986710906">
        <ele>109.07</ele>
        <time>2025-02-04T06:35:25.872Z</time>
      </trkpt>
      <trkpt lat="58.88327294960618" lon="12.404968924820423">
        <ele>109.23</ele>
        <time>2025-02-04T06:35:43.209Z</time>
      </trkpt>
      <trkpt lat="58.883193992078304" lon="12.40494193509221">
        <ele>109.4</ele>
        <time>2025-02-04T06:36:00.548Z</time>
      </trkpt>
      <trkpt lat="58.8831149507314" lon="12.404914945363998">
        <ele>109.57</ele>
        <time>2025-02-04T06:36:17.888Z</time>
      </trkpt>
      <trkpt lat="58.88303599320352" lon="12.404885943979025">
        <ele>109.74</ele>
        <time>2025-02-04T06:36:35.229Z</time>
      </trkpt>
      <trkpt lat="58.88295494019985" lon="12.40485593676567">
        <ele>109.92</ele>
        <time>2025-02-04T06:36:52.572Z</time>
      </trkpt>
      <trkpt lat="58.882872965186834" lon="12.404827941209078">
        <ele>110.09</ele>
        <time>2025-02-04T06:37:09.916Z</time>
      </trkpt>
      <trkpt lat="58.88279099017382" lon="12.404805980622768">
        <ele>110.28</ele>
        <time>2025-02-04T06:37:27.261Z</time>
      </trkpt>
      <trkpt lat="58.88270792551339" lon="12.404785947874188">
        <ele>110.46</ele>
        <time>2025-02-04T06:37:44.608Z</time>
      </trkpt>
      <trkpt lat="58.88262393884361" lon="12.40476893261075">
        <ele>110.65</ele>
        <time>2025-02-04T06:38:01.956Z</time>
      </trkpt>
      <trkpt lat="58.88253894634545" lon="12.404748983681202">
        <ele>110.84</ele>
        <time>2025-02-04T06:38:19.305Z</time>
      </trkpt>
      <trkpt lat="58.88245697133243" lon="12.404733980074525">
        <ele>111.03</ele>
        <time>2025-02-04T06:38:36.656Z</time>
      </trkpt>
      <trkpt lat="58.882378935813904" lon="12.40472693927586">
        <ele>111.23</ele>
        <time>2025-02-04T06:38:54.008Z</time>
      </trkpt>
      <trkpt lat="58.88230693526566" lon="12.4047249276191">
        <ele>111.43</ele>
        <time>2025-02-04T06:39:11.361Z</time>
      </trkpt>
      <trkpt lat="58.88223996385932" lon="12.40472693927586">
        <ele>111.63</ele>
        <time>2025-02-04T06:39:28.715Z</time>
      </trkpt>
      <trkpt lat="58.88217592611909" lon="12.404729956761003">
        <ele>111.83</ele>
        <time>2025-02-04T06:39:46.070Z</time>
      </trkpt>
      <trkpt lat="58.88211599551141" lon="12.404731968417764">
        <ele>112.03</ele>
        <time>2025-02-04T06:40:03.426Z</time>
      </trkpt>
      <trkpt lat="58.882060926407576" lon="12.404731968417764">
        <ele>112.23</ele>
        <time>2025-02-04T06:40:20.783Z</time>
      </trkpt>
      <trkpt lat="58.88201097026467" lon="12.404730962589383">
        <ele>112.43</ele>
        <time>2025-02-04T06:40:38.141Z</time>
      </trkpt>
      <trkpt lat="58.88196495361626" lon="12.404731968417764">
        <ele>112.63</ele>
        <time>2025-02-04T06:40:55.500Z</time>
      </trkpt>
      <trkpt lat="58.88192094862461" lon="12.404729956761003">
        <ele>112.83</ele>
        <time>2025-02-04T06:41:12.859Z</time>
      </trkpt>
      <trkpt lat="58.8818799611181" lon="12.404731968417764">
        <ele>113.03</ele>
        <time>2025-02-04T06:41:30.219Z</time>
      </trkpt>
      <trkpt lat="58.881839979439974" lon="12.404727945104241">
        <ele>113.23</ele>
        <time>2025-02-04T06:41:47.580Z</time>
      </trkpt>
      <trkpt lat="58.881799997761846" lon="12.404717970639467">
        <ele>113.42</ele>
        <time>2025-02-04T06:42:04.941Z</time>
      </trkpt>
      <trkpt lat="58.88176194392145" lon="12.404705984517932">
        <ele>113.61</ele>
        <time>2025-02-04T06:42:22.303Z</time>
      </trkpt>
      <trkpt lat="58.88172497972846" lon="12.404692992568016">
        <ele>113.8</ele>
        <time>2025-02-04T06:42:39.665Z</time>
      </trkpt>
      <trkpt lat="58.8816899433732" lon="12.404677988961339">
        <ele>113.99</ele>
        <time>2025-02-04T06:42:57.028Z</time>
      </trkpt>
      <trkpt lat="58.88165499083698" lon="12.4046609736979">
        <ele>114.18</ele>
        <time>2025-02-04T06:43:14.392Z</time>
      </trkpt>
      <trkpt lat="58.88161693699658" lon="12.404642952606082">
        <ele>114.36</ele>
        <time>2025-02-04T06:43:31.756Z</time>
      </trkpt>
      <trkpt lat="58.88157997280359" lon="12.404622919857502">
        <ele>114.55</ele>
        <time>2025-02-04T06:43:49.121Z</time>
      </trkpt>
      <trkpt lat="58.881543930619955" lon="12.404599953442812">
        <ele>114.73</ele>
        <time>2025-02-04T06:44:06.486Z</time>
      </trkpt>
      <trkpt lat="58.88151098974049" lon="12.40457396954298">
        <ele>114.91</ele>
        <time>2025-02-04T06:44:23.852Z</time>
      </trkpt>
      <trkpt lat="58.881477965041995" lon="12.404548991471529">
        <ele>115.08</ele>
        <time>2025-02-04T06:44:41.219Z</time>
      </trkpt>
      <trkpt lat="58.8814449403435" lon="12.404522923752666">
        <ele>115.26</ele>
        <time>2025-02-04T06:44:58.586Z</time>
      </trkpt>
      <trkpt lat="58.881415938958526" lon="12.404493922367692">
        <ele>115.43</ele>
        <time>2025-02-04T06:45:15.954Z</time>
      </trkpt>
      <trkpt lat="58.881389955058694" lon="12.40446693263948">
        <ele>115.6</ele>
        <time>2025-02-04T06:45:33.322Z</time>
      </trkpt>
      <trkpt lat="58.88135994784534" lon="12.40442594513297">
        <ele>115.77</ele>
        <time>2025-02-04T06:45:50.691Z</time>
      </trkpt>
      <trkpt lat="58.881324995309114" lon="12.404369954019785">
        <ele>115.93</ele>
        <time>2025-02-04T06:46:08.060Z</time>
      </trkpt>
      <trkpt lat="58.881287947297096" lon="12.404309939593077">
        <ele>116.09</ele>
        <time>2025-02-04T06:46:25.430Z</time>
      </trkpt>
      <trkpt lat="58.88124595396221" lon="12.404244979843497">
        <ele>116.25</ele>
        <time>2025-02-04T06:46:42.801Z</time>
      </trkpt>
      <trkpt lat="58.881199937313795" lon="12.404183959588408">
        <ele>116.41</ele>
        <time>2025-02-04T06:47:00.173Z</time>
      </trkpt>
      <trkpt lat="58.881151992827654" lon="12.404126962646842">
        <ele>116.57</ele>
        <time>2025-02-04T06:47:17.546Z</time>
      </trkpt>
      <trkpt lat="58.88110195286572" lon="12.404073989018798">
        <ele>116.72</ele>
        <time>2025-02-04T06:47:34.920Z</time>
      </trkpt>
      <trkpt lat="58.88105099089444" lon="12.404027972370386">
        <ele>116.87</ele>
        <time>2025-02-04T06:47:52.295Z</time>
      </trkpt>
      <trkpt lat="58.88099793344736" lon="12.403988996520638">
        <ele>117.03</ele>
        <time>2025-02-04T06:48:09.671Z</time>
      </trkpt>
      <trkpt lat="58.88094697147608" lon="12.403956977650523">
        <ele>117.18</ele>
        <time>2025-02-04T06:48:27.047Z</time>
      </trkpt>
      <trkpt lat="58.88089491985738" lon="12.403936944901943">
        <ele>117.33</ele>
        <time>2025-02-04T06:48:44.424Z</time>
      </trkpt>
      <trkpt lat="58.88084596954286" lon="12.403921941295266">
        <ele>117.47</ele>
        <time>2025-02-04T06:49:01.802Z</time>
      </trkpt>
      <trkpt lat="58.88079693540931" lon="12.403917917981744">
        <ele>117.62</ele>
        <time>2025-02-04T06:49:19.181Z</time>
      </trkpt>
      <trkpt lat="58.880750918760896" lon="12.403919929638505">
        <ele>117.76</ele>
        <time>2025-02-04T06:49:36.561Z</time>
      </trkpt>
      <trkpt lat="58.880704985931516" lon="12.40392797626555">
        <ele>117.9</ele>
        <time>2025-02-04T06:49:53.941Z</time>
      </trkpt>
      <trkpt lat="58.88065796345472" lon="12.403942979872227">
        <ele>118.04</ele>
        <time>2025-02-04T06:50:11.322Z</time>
      </trkpt>
      <trkpt lat="58.88060993514955" lon="12.403966952115297">
        <ele>118.18</ele>
        <time>2025-02-04T06:50:28.704Z</time>
      </trkpt>
      <trkpt lat="58.88056098483503" lon="12.403997965157032">
        <ele>118.32</ele>
        <time>2025-02-04T06:50:46.087Z</time>
      </trkpt>
      <trkpt lat="58.88050792738795" lon="12.404033923521638">
        <ele>118.45</ele>
        <time>2025-02-04T06:51:03.471Z</time>
      </trkpt>
      <trkpt lat="58.88045294210315" lon="12.404070971533656">
        <ele>118.57</ele>
        <time>2025-02-04T06:51:20.856Z</time>
      </trkpt>
      <trkpt lat="58.88039192184806" lon="12.40410198457539">
        <ele>118.7</ele>
        <time>2025-02-04T06:51:38.242Z</time>
      </trkpt>
      <trkpt lat="58.88033199124038" lon="12.404116988182068">
        <ele>118.82</ele>
        <time>2025-02-04T06:51:55.629Z</time>
      </trkpt>
      <trkpt lat="58.880271976813674" lon="12.404117994010448">
        <ele>118.94</ele>
        <time>2025-02-04T06:52:13.017Z</time>
      </trkpt>
      <trkpt lat="58.88021497987211" lon="12.404113970696926">
        <ele>119.06</ele>
        <time>2025-02-04T06:52:30.405Z</time>
      </trkpt>
      <trkpt lat="58.88015798293054" lon="12.404110953211784">
        <ele>119.17</ele>
        <time>2025-02-04T06:52:47.794Z</time>
      </trkpt>
      <trkpt lat="58.880102997645736" lon="12.404108941555023">
        <ele>119.28</ele>
        <time>2025-02-04T06:53:05.184Z</time>
      </trkpt>
      <trkpt lat="58.88004893437028" lon="12.404109947383404">
        <ele>119.39</ele>
        <time>2025-02-04T06:53:22.575Z</time>
      </trkpt>
      <trkpt lat="58.879996966570616" lon="12.404116988182068">
        <ele>119.49</ele>
        <time>2025-02-04T06:53:39.967Z</time>
      </trkpt>
      <trkpt lat="58.87994994409382" lon="12.404132997617126">
        <ele>119.59</ele>
        <time>2025-02-04T06:53:57.360Z</time>
      </trkpt>
      <trkpt lat="58.87990493327379" lon="12.404153952375054">
        <ele>119.69</ele>
        <time>2025-02-04T06:54:14.753Z</time>
      </trkpt>
      <trkpt lat="58.87986092828214" lon="12.404181947931647">
        <ele>119.79</ele>
        <time>2025-02-04T06:54:32.147Z</time>
      </trkpt>
      <trkpt lat="58.87981792911887" lon="12.404219917953014">
        <ele>119.88</ele>
        <time>2025-02-04T06:54:49.542Z</time>
      </trkpt>
      <trkpt lat="58.87977291829884" lon="12.404265934601426">
        <ele>119.97</ele>
        <time>2025-02-04T06:55:06.938Z</time>
      </trkpt>
      <trkpt lat="58.87972698546946" lon="12.404321925714612">
        <ele>120.06</ele>
        <time>2025-02-04T06:55:24.335Z</time>
      </trkpt>
      <trkpt lat="58.87967895716429" lon="12.404377916827798">
        <ele>120.14</ele>
        <time>2025-02-04T06:55:41.733Z</time>
      </trkpt>
      <trkpt lat="58.879629923030734" lon="12.404433991760015">
        <ele>120.22</ele>
        <time>2025-02-04T06:55:59.131Z</time>
      </trkpt>
      <trkpt lat="58.87957996688783" lon="12.40448897704482">
        <ele>120.3</ele>
        <time>2025-02-04T06:56:16.530Z</time>
      </trkpt>
      <trkpt lat="58.8795299269259" lon="12.404543962329626">
        <ele>120.38</ele>
        <time>2025-02-04T06:56:33.930Z</time>
      </trkpt>
      <trkpt lat="58.879479970782995" lon="12.404598947614431">
        <ele>120.45</ele>
        <time>2025-02-04T06:56:51.331Z</time>
      </trkpt>
      <trkpt lat="58.87942892499268" lon="12.404642952606082">
        <ele>120.52</ele>
        <time>2025-02-04T06:57:08.733Z</time>
      </trkpt>
      <trkpt lat="58.87937997467816" lon="12.40467899478972">
        <ele>120.58</ele>
        <time>2025-02-04T06:57:26.136Z</time>
      </trkpt>
      <trkpt lat="58.879328928887844" lon="12.404711935669184">
        <ele>120.65</ele>
        <time>2025-02-04T06:57:43.540Z</time>
      </trkpt>
      <trkpt lat="58.87927696108818" lon="12.404736997559667">
        <ele>120.71</ele>
        <time>2025-02-04T06:58:00.945Z</time>
      </trkpt>
      <trkpt lat="58.879222981631756" lon="12.404752923175693">
        <ele>120.77</ele>
        <time>2025-02-04T06:58:18.351Z</time>
      </trkpt>
      <trkpt lat="58.8791689183563" lon="12.404761975631118">
        <ele>120.83</ele>
        <time>2025-02-04T06:58:35.757Z</time>
      </trkpt>
      <trkpt lat="58.87911192141473" lon="12.404762981459498">
        <ele>120.88</ele>
        <time>2025-02-04T06:58:53.164Z</time>
      </trkpt>
      <trkpt lat="58.879051990807056" lon="12.404751917347312">
        <ele>120.94</ele>
        <time>2025-02-04T06:59:10.572Z</time>
      </trkpt>
      <trkpt lat="58.87898996472359" lon="12.404731968417764">
        <ele>120.99</ele>
        <time>2025-02-04T06:59:27.981Z</time>
      </trkpt>
      <trkpt lat="58.878924921154976" lon="12.404698943719268">
        <ele>121.03</ele>
        <time>2025-02-04T06:59:45.391Z</time>
      </trkpt>
      <trkpt lat="58.8788599614054" lon="12.404648987576365">
        <ele>121.08</ele>
        <time>2025-02-04T07:00:02.803Z</time>
      </trkpt>
      <trkpt lat="58.878792989999056" lon="12.404583944007754">
        <ele>121.12</ele>
        <time>2025-02-04T07:00:20.216Z</time>
      </trkpt>
      <trkpt lat="58.878727946430445" lon="12.40450993180275">
        <ele>121.16</ele>
        <time>2025-02-04T07:00:37.630Z</time>
      </trkpt>
      <trkpt lat="58.87865896336734" lon="12.404434997588396">
        <ele>121.2</ele>
        <time>2025-02-04T07:00:55.045Z</time>
      </trkpt>
      <trkpt lat="58.87858495116234" lon="12.404360985383391">
        <ele>121.23</ele>
        <time>2025-02-04T07:01:12.462Z</time>
      </trkpt>
      <trkpt lat="58.8785039819777" lon="12.404287979006767">
        <ele>121.27</ele>
        <time>2025-02-04T07:01:29.880Z</time>
      </trkpt>
      <trkpt lat="58.87841999530792" lon="12.404220923781395">
        <ele>121.3</ele>
        <time>2025-02-04T07:01:47.299Z</time>
      </trkpt>
      <trkpt lat="58.87832896783948" lon="12.404164932668209">
        <ele>121.32</ele>
        <time>2025-02-04T07:02:04.720Z</time>
      </trkpt>
      <trkpt lat="58.878234922885895" lon="12.404126962646842">
        <ele>121.35</ele>
        <time>2025-02-04T07:02:22.143Z</time>
      </trkpt>
      <trkpt lat="58.87813995592296" lon="12.404106929898262">
        <ele>121.38</ele>
        <time>2025-02-04T07:02:39.567Z</time>
      </trkpt>
      <trkpt lat="58.87804498896003" lon="12.404097961261868">
        <ele>121.41</ele>
        <time>2025-02-04T07:02:56.993Z</time>
      </trkpt>
      <trkpt lat="58.87794298119843" lon="12.404090920463204">
        <ele>121.44</ele>
        <time>2025-02-04T07:03:14.420Z</time>
      </trkpt>
      <trkpt lat="58.87783996760845" lon="12.404068959876895">
        <ele>121.46</ele>
        <time>2025-02-04T07:03:31.849Z</time>
      </trkpt>
      <trkpt lat="58.87773091904819" lon="12.40403694100678">
        <ele>121.49</ele>
        <time>2025-02-04T07:03:49.280Z</time>
      </trkpt>
      <trkpt lat="58.87761692516506" lon="12.404009951278567">
        <ele>121.51</ele>
        <time>2025-02-04T07:04:06.712Z</time>
      </trkpt>
      <trkpt lat="58.877502931281924" lon="12.40399394184351">
        <ele>121.54</ele>
        <time>2025-02-04T07:04:24.146Z</time>
      </trkpt>
      <trkpt lat="58.87738994322717" lon="12.403996959328651">
        <ele>121.57</ele>
        <time>2025-02-04T07:04:41.582Z</time>
      </trkpt>
      <trkpt lat="58.877283995971084" lon="12.40401891991496">
        <ele>121.6</ele>
        <time>2025-02-04T07:04:59.020Z</time>
      </trkpt>
      <trkpt lat="58.877177964895964" lon="12.404059991240501">
        <ele>121.63</ele>
        <time>2025-02-04T07:05:16.460Z</time>
      </trkpt>
      <trkpt lat="58.877075957134366" lon="12.404107935726643">
        <ele>121.66</ele>
        <time>2025-02-04T07:05:33.901Z</time>
      </trkpt>
      <trkpt lat="58.87697897851467" lon="12.404164932668209">
        <ele>121.69</ele>
        <time>2025-02-04T07:05:51.344Z</time>
      </trkpt>
      <trkpt lat="58.876883927732706" lon="12.404224947094917">
        <ele>121.72</ele>
        <time>2025-02-04T07:06:08.788Z</time>
      </trkpt>
      <trkpt lat="58.876790972426534" lon="12.404281944036484">
        <ele>121.75</ele>
        <time>2025-02-04T07:06:26.234Z</time>
      </trkpt>
      <trkpt lat="58.87669893912971" lon="12.404327960684896">
        <ele>121.77</ele>
        <time>2025-02-04T07:06:43.682Z</time>
      </trkpt>
      <trkpt lat="58.87660598382354" lon="12.404354950413108">
        <ele>121.8</ele>
        <time>2025-02-04T07:07:01.131Z</time>
      </trkpt>
      <trkpt lat="58.876513950526714" lon="12.404370959848166">
        <ele>121.82</ele>
        <time>2025-02-04T07:07:18.582Z</time>
      </trkpt>
      <trkpt lat="58.87641998939216" lon="12.404377916827798">
        <ele>121.83</ele>
        <time>2025-02-04T07:07:36.034Z</time>
      </trkpt>
      <trkpt lat="58.876321921125054" lon="12.404375988990068">
        <ele>121.85</ele>
        <time>2025-02-04T07:07:53.488Z</time>
      </trkpt>
      <trkpt lat="58.87622192502022" lon="12.40435897372663">
        <ele>121.86</ele>
        <time>2025-02-04T07:08:10.943Z</time>
      </trkpt>
      <trkpt lat="58.87611497193575" lon="12.404326954856515">
        <ele>121.88</ele>
        <time>2025-02-04T07:08:28.400Z</time>
      </trkpt>
      <trkpt lat="58.876001983881" lon="12.404287979006767">
        <ele>121.89</ele>
        <time>2025-02-04T07:08:45.859Z</time>
      </trkpt>
      <trkpt lat="58.87588497251272" lon="12.404243974015117">
        <ele>121.91</ele>
        <time>2025-02-04T07:09:03.320Z</time>
      </trkpt>
      <trkpt lat="58.87576695531607" lon="12.404198963195086">
        <ele>121.93</ele>
        <time>2025-02-04T07:09:20.783Z</time>
      </trkpt>
      <trkpt lat="58.87564793229103" lon="12.404163926839828">
        <ele>121.95</ele>
        <time>2025-02-04T07:09:38.248Z</time>
      </trkpt>
      <trkpt lat="58.87552899308503" lon="12.4041429720819">
        <ele>121.97</ele>
        <time>2025-02-04T07:09:55.715Z</time>
      </trkpt>
      <trkpt lat="58.87541399337351" lon="12.40414498373866">
        <ele>121.99</ele>
        <time>2025-02-04T07:10:13.183Z</time>
      </trkpt>
      <trkpt lat="58.87530695647001" lon="12.404172979295254">
        <ele>122.0</ele>
        <time>2025-02-04T07:10:30.653Z</time>
      </trkpt>
      <trkpt lat="58.87520897202194" lon="12.404227964580059">
        <ele>122.01</ele>
        <time>2025-02-04T07:10:48.125Z</time>
      </trkpt>
      <trkpt lat="58.87511593289673" lon="12.404300970956683">
        <ele>122.02</ele>
        <time>2025-02-04T07:11:05.598Z</time>
      </trkpt>
      <trkpt lat="58.87502197176218" lon="12.404387975111604">
        <ele>122.03</ele>
        <time>2025-02-04T07:11:23.073Z</time>
      </trkpt>
      <trkpt lat="58.87493195012212" lon="12.404483947902918">
        <ele>122.03</ele>
        <time>2025-02-04T07:11:40.550Z</time>
      </trkpt>
      <trkpt lat="58.874840922653675" lon="12.404594924300909">
        <ele>122.03</ele>
        <time>2025-02-04T07:11:58.028Z</time>
      </trkpt>
      <trkpt lat="58.87474494986236" lon="12.404723921790719">
        <ele>122.03</ele>
        <time>2025-02-04T07:12:15.508Z</time>
      </trkpt>
      <trkpt lat="58.87464294210076" lon="12.40485593676567">
        <ele>122.03</ele>
        <time>2025-02-04T07:12:32.990Z</time>
      </trkpt>
      <trkpt lat="58.874535989016294" lon="12.404967918992043">
        <ele>122.03</ele>
        <time>2025-02-04T07:12:50.474Z</time>
      </trkpt>
      <trkpt lat="58.87442492879927" lon="12.40504696033895">
        <ele>122.02</ele>
        <time>2025-02-04T07:13:07.960Z</time>
      </trkpt>
      <trkpt lat="58.87431194074452" lon="12.405087947845459">
        <ele>122.03</ele>
        <time>2025-02-04T07:13:25.448Z</time>
      </trkpt>
      <trkpt lat="58.87419895268977" lon="12.405095994472504">
        <ele>122.04</ele>
        <time>2025-02-04T07:13:42.938Z</time>
      </trkpt>
      <trkpt lat="58.874087976291776" lon="12.405077973380685">
        <ele>122.06</ele>
        <time>2025-02-04T07:14:00.430Z</time>
      </trkpt>
      <trkpt lat="58.87398697435856" lon="12.405029945075512">
        <ele>122.08</ele>
        <time>2025-02-04T07:14:17.923Z</time>
      </trkpt>
      <trkpt lat="58.873896952718496" lon="12.40496096201241">
        <ele>122.08</ele>
        <time>2025-02-04T07:14:35.418Z</time>
      </trkpt>
      <trkpt lat="58.8738139718771" lon="12.404889967292547">
        <ele>122.08</ele>
        <time>2025-02-04T07:14:52.914Z</time>
      </trkpt>
      <trkpt lat="58.87373694218695" lon="12.404820984229445">
        <ele>122.07</ele>
        <time>2025-02-04T07:15:10.412Z</time>
      </trkpt>
      <trkpt lat="58.87366292998195" lon="12.404758958145976">
        <ele>122.06</ele>
        <time>2025-02-04T07:15:27.911Z</time>
      </trkpt>
      <trkpt lat="58.873594952747226" lon="12.404706990346313">
        <ele>122.04</ele>
        <time>2025-02-04T07:15:45.411Z</time>
      </trkpt>
      <trkpt lat="58.873527981340885" lon="12.404666924849153">
        <ele>122.03</ele>
        <time>2025-02-04T07:16:02.912Z</time>
      </trkpt>
      <trkpt lat="58.87346193194389" lon="12.404630966484547">
        <ele>122.01</ele>
        <time>2025-02-04T07:16:20.414Z</time>
      </trkpt>
      <trkpt lat="58.873396972194314" lon="12.40459794178605">
        <ele>121.99</ele>
        <time>2025-02-04T07:16:37.917Z</time>
      </trkpt>
      <trkpt lat="58.873333940282464" lon="12.404563995078206">
        <ele>121.97</ele>
        <time>2025-02-04T07:16:55.421Z</time>
      </trkpt>
      <trkpt lat="58.873270992189646" lon="12.40453197620809">
        <ele>121.94</ele>
        <time>2025-02-04T07:17:12.926Z</time>
      </trkpt>
      <trkpt lat="58.873207960277796" lon="12.404504986479878">
        <ele>121.92</ele>
        <time>2025-02-04T07:17:30.432Z</time>
      </trkpt>
      <trkpt lat="58.873142916709185" lon="12.404481936246157">
        <ele>121.89</ele>
        <time>2025-02-04T07:17:47.940Z</time>
      </trkpt>
      <trkpt lat="58.87307493947446" lon="12.404458969831467">
        <ele>121.85</ele>
        <time>2025-02-04T07:18:05.449Z</time>
      </trkpt>
      <trkpt lat="58.87299992144108" lon="12.404435919597745">
        <ele>121.82</ele>
        <time>2025-02-04T07:18:22.959Z</time>
      </trkpt>
      <trkpt lat="58.87292196974158" lon="12.404410941526294">
        <ele>121.78</ele>
        <time>2025-02-04T07:18:40.470Z</time>
      </trkpt>
      <trkpt lat="58.872843934223056" lon="12.404385963454843">
        <ele>121.73</ele>
        <time>2025-02-04T07:18:57.982Z</time>
      </trkpt>
      <trkpt lat="58.87276598252356" lon="12.404365930706263">
        <ele>121.68</ele>
        <time>2025-02-04T07:19:15.496Z</time>
      </trkpt>
      <trkpt lat="58.87268694117665" lon="12.404353944584727">
        <ele>121.63</ele>
        <time>2025-02-04T07:19:33.011Z</time>
      </trkpt>
      <trkpt lat="58.87260798364878" lon="12.404345981776714">
        <ele>121.57</ele>
        <time>2025-02-04T07:19:50.527Z</time>
      </trkpt>
      <trkpt lat="58.87252994813025" lon="12.40433793514967">
        <ele>121.51</ele>
        <time>2025-02-04T07:20:08.044Z</time>
      </trkpt>
      <trkpt lat="58.872451996430755" lon="12.404328966513276">
        <ele>121.45</ele>
        <time>2025-02-04T07:20:25.563Z</time>
      </trkpt>
      <trkpt lat="58.87237597256899" lon="12.40431698039174">
        <ele>121.38</ele>
        <time>2025-02-04T07:20:43.083Z</time>
      </trkpt>
      <trkpt lat="58.872303972020745" lon="12.40429694764316">
        <ele>121.31</ele>
        <time>2025-02-04T07:21:00.604Z</time>
      </trkpt>
      <trkpt lat="58.8722319714725" lon="12.404270963743329">
        <ele>121.24</ele>
        <time>2025-02-04T07:21:18.126Z</time>
      </trkpt>
      <trkpt lat="58.87216097675264" lon="12.404236933216453">
        <ele>121.16</ele>
        <time>2025-02-04T07:21:35.649Z</time>
      </trkpt>
      <trkpt lat="58.872088976204395" lon="12.404202986508608">
        <ele>121.08</ele>
        <time>2025-02-04T07:21:53.174Z</time>
      </trkpt>
      <trkpt lat="58.87201798148453" lon="12.404168955981731">
        <ele>121.0</ele>
        <time>2025-02-04T07:22:10.700Z</time>
      </trkpt>
      <trkpt lat="58.87194992043078" lon="12.404136937111616">
        <ele>120.91</ele>
        <time>2025-02-04T07:22:28.227Z</time>
      </trkpt>
      <trkpt lat="58.87188294902444" lon="12.404108941555023">
        <ele>120.81</ele>
        <time>2025-02-04T07:22:45.755Z</time>
      </trkpt>
      <trkpt lat="58.8718159776181" lon="12.404086980968714">
        <ele>120.71</ele>
        <time>2025-02-04T07:23:03.284Z</time>
      </trkpt>
      <trkpt lat="58.87175193987787" lon="12.404064936563373">
        <ele>120.61</ele>
        <time>2025-02-04T07:23:20.814Z</time>
      </trkpt>
      <trkpt lat="58.87168899178505" lon="12.404045993462205">
        <ele>120.5</ele>
        <time>2025-02-04T07:23:38.345Z</time>
      </trkpt>
      <trkpt lat="58.87162897735834" lon="12.404031995683908">
        <ele>120.39</ele>
        <time>2025-02-04T07:23:55.877Z</time>
      </trkpt>
      <trkpt lat="58.871572986245155" lon="12.40401397459209">
        <ele>120.27</ele>
        <time>2025-02-04T07:24:13.410Z</time>
      </trkpt>
      <trkpt lat="58.8715189229697" lon="12.403990924358368">
        <ele>120.15</ele>
        <time>2025-02-04T07:24:30.944Z</time>
      </trkpt>
      <trkpt lat="58.871465949341655" lon="12.403965946286917">
        <ele>120.02</ele>
        <time>2025-02-04T07:24:48.479Z</time>
      </trkpt>
      <trkpt lat="58.87141498737037" lon="12.403934933245182">
        <ele>119.89</ele>
        <time>2025-02-04T07:25:06.015Z</time>
      </trkpt>
      <trkpt lat="58.87136293575168" lon="12.403896963223815">
        <ele>119.75</ele>
        <time>2025-02-04T07:25:23.552Z</time>
      </trkpt>
      <trkpt lat="58.87130795046687" lon="12.403856981545687">
        <ele>119.6</ele>
        <time>2025-02-04T07:25:41.090Z</time>
      </trkpt>
      <trkpt lat="58.871252965182066" lon="12.403811970725656">
        <ele>119.45</ele>
        <time>2025-02-04T07:25:58.628Z</time>
      </trkpt>
      <trkpt lat="58.87119999155402" lon="12.403763942420483">
        <ele>119.29</ele>
        <time>2025-02-04T07:26:16.167Z</time>
      </trkpt>
      <trkpt lat="58.87114894576371" lon="12.40371499210596">
        <ele>119.12</ele>
        <time>2025-02-04T07:26:33.707Z</time>
      </trkpt>
      <trkpt lat="58.871100917458534" lon="12.403665957972407">
        <ele>118.95</ele>
        <time>2025-02-04T07:26:51.248Z</time>
      </trkpt>
      <trkpt lat="58.87105297297239" lon="12.403617929667234">
        <ele>118.77</ele>
        <time>2025-02-04T07:27:08.790Z</time>
      </trkpt>
      <trkpt lat="58.8710059504956" lon="12.403569985181093">
        <ele>118.58</ele>
        <time>2025-02-04T07:27:26.333Z</time>
      </trkpt>
      <trkpt lat="58.8709559943527" lon="12.40352095104754">
        <ele>118.38</ele>
        <time>2025-02-04T07:27:43.877Z</time>
      </trkpt>
      <trkpt lat="58.87090092524886" lon="12.403473928570747">
        <ele>118.18</ele>
        <time>2025-02-04T07:28:01.422Z</time>
      </trkpt>
      <trkpt lat="58.870845939964056" lon="12.403422966599464">
        <ele>117.97</ele>
        <time>2025-02-04T07:28:18.968Z</time>
      </trkpt>
      <trkpt lat="58.87078894302249" lon="12.4033709987998">
        <ele>117.76</ele>
        <time>2025-02-04T07:28:36.515Z</time>
      </trkpt>
      <trkpt lat="58.87073094025254" lon="12.403315929695964">
        <ele>117.54</ele>
        <time>2025-02-04T07:28:54.063Z</time>
      </trkpt>
      <trkpt lat="58.870672937482595" lon="12.403253987431526">
        <ele>117.31</ele>
        <time>2025-02-04T07:29:11.612Z</time>
      </trkpt>
      <trkpt lat="58.87061292305589" lon="12.403179975226521">
        <ele>117.08</ele>
        <time>2025-02-04T07:29:29.162Z</time>
      </trkpt>
      <trkpt lat="58.87054896913469" lon="12.403095988556743">
        <ele>116.85</ele>
        <time>2025-02-04T07:29:46.713Z</time>
      </trkpt>
      <trkpt lat="58.870475962758064" lon="12.403011918067932">
        <ele>116.61</ele>
        <time>2025-02-04T07:30:04.266Z</time>
      </trkpt>
      <trkpt lat="58.87039398774505" lon="12.402933966368437">
        <ele>116.36</ele>
        <time>2025-02-04T07:30:21.820Z</time>
      </trkpt>
      <trkpt lat="58.870304971933365" lon="12.402860959991813">
        <ele>116.1</ele>
        <time>2025-02-04T07:30:39.376Z</time>
      </trkpt>
      <trkpt lat="58.8702099211514" lon="12.402794994413853">
        <ele>115.84</ele>
        <time>2025-02-04T07:30:56.933Z</time>
      </trkpt>
      <trkpt lat="58.87010699138045" lon="12.40274696610868">
        <ele>115.58</ele>
        <time>2025-02-04T07:31:14.492Z</time>
      </trkpt>
      <trkpt lat="58.870004983618855" lon="12.402711929753423">
        <ele>115.31</ele>
        <time>2025-02-04T07:31:32.053Z</time>
      </trkpt>
      <trkpt lat="58.86990699917078" lon="12.40268292836845">
        <ele>115.03</ele>
        <time>2025-02-04T07:31:49.615Z</time>
      </trkpt>
      <trkpt lat="58.86981597170234" lon="12.402651999145746">
        <ele>114.76</ele>
        <time>2025-02-04T07:32:07.179Z</time>
      </trkpt>
      <trkpt lat="58.869727961719036" lon="12.40261696279049">
        <ele>114.47</ele>
        <time>2025-02-04T07:32:24.744Z</time>
      </trkpt>
      <trkpt lat="58.86964598670602" lon="12.4025749694556">
        <ele>114.18</ele>
        <time>2025-02-04T07:32:42.311Z</time>
      </trkpt>
      <trkpt lat="58.86956593953073" lon="12.402517972514033">
        <ele>113.89</ele>
        <time>2025-02-04T07:32:59.879Z</time>
      </trkpt>
      <trkpt lat="58.869487987831235" lon="12.402453934773803">
        <ele>113.58</ele>
        <time>2025-02-04T07:33:17.448Z</time>
      </trkpt>
      <trkpt lat="58.86941498145461" lon="12.402389980852604">
        <ele>113.27</ele>
        <time>2025-02-04T07:33:35.019Z</time>
      </trkpt>
      <trkpt lat="58.86934499256313" lon="12.402329966425896">
        <ele>112.95</ele>
        <time>2025-02-04T07:33:52.591Z</time>
      </trkpt>
      <trkpt lat="58.869275925680995" lon="12.40227498114109">
        <ele>112.63</ele>
        <time>2025-02-04T07:34:10.164Z</time>
      </trkpt>
      <trkpt lat="58.86920291930437" lon="12.402224941179156">
        <ele>112.31</ele>
        <time>2025-02-04T07:34:27.738Z</time>
      </trkpt>
      <trkpt lat="58.86912697926164" lon="12.402183953672647">
        <ele>111.98</ele>
        <time>2025-02-04T07:34:45.313Z</time>
      </trkpt>
      <trkpt lat="58.86904492042959" lon="12.40214598365128">
        <ele>111.64</ele>
        <time>2025-02-04T07:35:02.890Z</time>
      </trkpt>
      <trkpt lat="58.86895791627467" lon="12.402103990316391">
        <ele>111.3</ele>
        <time>2025-02-04T07:35:20.468Z</time>
      </trkpt>
      <trkpt lat="58.868866972625256" lon="12.402060991153121">
        <ele>110.95</ele>
        <time>2025-02-04T07:35:38.048Z</time>
      </trkpt>
      <trkpt lat="58.86877099983394" lon="12.402022937312722">
        <ele>110.59</ele>
        <time>2025-02-04T07:35:55.629Z</time>
      </trkpt>
      <trkpt lat="58.868671925738454" lon="12.402001982554793">
        <ele>110.23</ele>
        <time>2025-02-04T07:36:13.212Z</time>
      </trkpt>
      <trkpt lat="58.86857595294714" lon="12.40199594758451">
        <ele>109.86</ele>
        <time>2025-02-04T07:36:30.796Z</time>
      </trkpt>
      <trkpt lat="58.868483919650316" lon="12.401999970898032">
        <ele>109.49</ele>
        <time>2025-02-04T07:36:48.382Z</time>
      </trkpt>
      <trkpt lat="58.86840093880892" lon="12.402020925655961">
        <ele>109.12</ele>
        <time>2025-02-04T07:37:05.969Z</time>
      </trkpt>
      <trkpt lat="58.868324998766184" lon="12.402065936475992">
        <ele>108.74</ele>
        <time>2025-02-04T07:37:23.558Z</time>
      </trkpt>
      <trkpt lat="58.868265990167856" lon="12.4021449778229">
        <ele>108.37</ele>
        <time>2025-02-04T07:37:41.148Z</time>
      </trkpt>
      <trkpt lat="58.86821494437754" lon="12.402236927300692">
        <ele>107.98</ele>
        <time>2025-02-04T07:37:58.739Z</time>
      </trkpt>
      <trkpt lat="58.8681669998914" lon="12.402336923405528">
        <ele>107.6</ele>
        <time>2025-02-04T07:38:16.331Z</time>
      </trkpt>
      <trkpt lat="58.868115954101086" lon="12.402453934773803">
        <ele>107.21</ele>
        <time>2025-02-04T07:38:33.924Z</time>
      </trkpt>
      <trkpt lat="58.868047976866364" lon="12.402603970840573">
        <ele>106.81</ele>
        <time>2025-02-04T07:38:51.519Z</time>
      </trkpt>
      <trkpt lat="58.86797597631812" lon="12.402735985815525">
        <ele>106.4</ele>
        <time>2025-02-04T07:39:09.115Z</time>
      </trkpt>
      <trkpt lat="58.86788696050644" lon="12.402844950556755">
        <ele>105.99</ele>
        <time>2025-02-04T07:39:26.713Z</time>
      </trkpt>
      <trkpt lat="58.8677819352597" lon="12.402926925569773">
        <ele>105.57</ele>
        <time>2025-02-04T07:39:44.313Z</time>
      </trkpt>
      <trkpt lat="58.86767095886171" lon="12.402946958318353">
        <ele>105.15</ele>
        <time>2025-02-04T07:40:01.915Z</time>
      </trkpt>
      <trkpt lat="58.86756299994886" lon="12.402908988296986">
        <ele>104.73</ele>
        <time>2025-02-04T07:40:19.519Z</time>
      </trkpt>
      <trkpt lat="58.86746099218726" lon="12.402816955000162">
        <ele>104.31</ele>
        <time>2025-02-04T07:40:37.124Z</time>
      </trkpt>
      <trkpt lat="58.86734993197024" lon="12.402721988037229">
        <ele>103.88</ele>
        <time>2025-02-04T07:40:54.731Z</time>
      </trkpt>
      <trkpt lat="58.86722696945071" lon="12.402656944468617">
        <ele>103.46</ele>
        <time>2025-02-04T07:41:12.340Z</time>
      </trkpt>
      <trkpt lat="58.86709897778928" lon="12.402657950296998">
        <ele>103.03</ele>
        <time>2025-02-04T07:41:29.951Z</time>
      </trkpt>
      <trkpt lat="58.866972997784615" lon="12.402711929753423">
        <ele>102.6</ele>
        <time>2025-02-04T07:41:47.564Z</time>
      </trkpt>
      <trkpt lat="58.86685598641634" lon="12.402736991643906">
        <ele>102.17</ele>
        <time>2025-02-04T07:42:05.179Z</time>
      </trkpt>
      <trkpt lat="58.866740986704826" lon="12.402695920318365">
        <ele>101.74</ele>
        <time>2025-02-04T07:42:22.796Z</time>
      </trkpt>
      <trkpt lat="58.866627998650074" lon="12.402623919770122">
        <ele>101.31</ele>
        <time>2025-02-04T07:42:40.415Z</time>
      </trkpt>
      <trkpt lat="58.86651794426143" lon="12.402571951970458">
        <ele>100.88</ele>
        <time>2025-02-04T07:42:58.036Z</time>
      </trkpt>
      <trkpt lat="58.86641291901469" lon="12.40255099721253">
        <ele>100.45</ele>
        <time>2025-02-04T07:43:15.659Z</time>
      </trkpt>
      <trkpt lat="58.866310995072126" lon="12.402557954192162">
        <ele>100.01</ele>
        <time>2025-02-04T07:43:33.283Z</time>
      </trkpt>
      <trkpt lat="58.86620898731053" lon="12.402591984719038">
        <ele>99.58</ele>
        <time>2025-02-04T07:43:50.909Z</time>
      </trkpt>
      <trkpt lat="58.86610798537731" lon="12.402646970003843">
        <ele>99.14</ele>
        <time>2025-02-04T07:44:08.537Z</time>
      </trkpt>
      <trkpt lat="58.86600094847381" lon="12.402688963338733">
        <ele>98.7</ele>
        <time>2025-02-04T07:44:26.166Z</time>
      </trkpt>
      <trkpt lat="58.86588494293392" lon="12.402705978602171">
        <ele>98.27</ele>
        <time>2025-02-04T07:44:43.797Z</time>
      </trkpt>
      <trkpt lat="58.86576097458601" lon="12.402700949460268">
        <ele>97.83</ele>
        <time>2025-02-04T07:45:01.430Z</time>
      </trkpt>
      <trkpt lat="58.8656269479543" lon="12.402676977217197">
        <ele>97.39</ele>
        <time>2025-02-04T07:45:19.065Z</time>
      </trkpt>
      <trkpt lat="58.86549895629287" lon="12.402626937255263">
        <ele>96.95</ele>
        <time>2025-02-04T07:45:36.702Z</time>
      </trkpt>
      <trkpt lat="58.86537699960172" lon="12.402564994990826">
        <ele>96.51</ele>
        <time>2025-02-04T07:45:54.341Z</time>
      </trkpt>
      <trkpt lat="58.865257976576686" lon="12.402500957250595">
        <ele>96.07</ele>
        <time>2025-02-04T07:46:11.982Z</time>
      </trkpt>
      <trkpt lat="58.86513794772327" lon="12.402443960309029">
        <ele>95.63</ele>
        <time>2025-02-04T07:46:29.625Z</time>
      </trkpt>
      <trkpt lat="58.865016996860504" lon="12.402388975024223">
        <ele>95.19</ele>
        <time>2025-02-04T07:46:47.270Z</time>
      </trkpt>
      <trkpt lat="58.86490099132061" lon="12.402342958375812">
        <ele>94.76</ele>
        <time>2025-02-04T07:47:04.917Z</time>
      </trkpt>
      <trkpt lat="58.864782974123955" lon="12.402323931455612">
        <ele>94.33</ele>
        <time>2025-02-04T07:47:22.566Z</time>
      </trkpt>
      <trkpt lat="58.86466596275568" lon="12.40233893506229">
        <ele>93.9</ele>
        <time>2025-02-04T07:47:40.217Z</time>
      </trkpt>
      <trkpt lat="58.86455297470093" lon="12.402374977245927">
        <ele>93.47</ele>
        <time>2025-02-04T07:47:57.870Z</time>
      </trkpt>
      <trkpt lat="58.864439986646175" lon="12.402412947267294">
        <ele>93.03</ele>
        <time>2025-02-04T07:48:15.525Z</time>
      </trkpt>
      <trkpt lat="58.86423395946622" lon="12.402475979179144">
        <ele>92.59</ele>
        <time>2025-02-04T07:48:33.183Z</time>
      </trkpt>
      <trkpt lat="58.86418995447457" lon="12.402481930330396">
        <ele>92.16</ele>
        <time>2025-02-04T07:48:50.842Z</time>
      </trkpt>
      <trkpt lat="58.86414594948292" lon="12.40248796530068">
        <ele>91.73</ele>
        <time>2025-02-04T07:49:08.502Z</time>
      </trkpt>
      <trkpt lat="58.864055927842855" lon="12.402484947815537">
        <ele>91.3</ele>
        <time>2025-02-04T07:49:26.163Z</time>
      </trkpt>
      <trkpt lat="58.86396297253668" lon="12.402462987229228">
        <ele>90.88</ele>
        <time>2025-02-04T07:49:43.826Z</time>
      </trkpt>
      <trkpt lat="58.863860964775085" lon="12.40242199972272">
        <ele>90.45</ele>
        <time>2025-02-04T07:50:01.490Z</time>
      </trkpt>
      <trkpt lat="58.86375996284187" lon="12.402357961982489">
        <ele>90.03</ele>
        <time>2025-02-04T07:50:19.156Z</time>
      </trkpt>
      <trkpt lat="58.86363993398845" lon="12.402292918413877">
        <ele>89.61</ele>
        <time>2025-02-04T07:50:36.824Z</time>
      </trkpt>
      <trkpt lat="58.86344991624355" lon="12.40220993757248">
        <ele>89.18</ele>
        <time>2025-02-04T07:50:54.495Z</time>
      </trkpt>
      <trkpt lat="58.86337992735207" lon="12.40219191648066">
        <ele>88.77</ele>
        <time>2025-02-04T07:51:12.167Z</time>
      </trkpt>
      <trkpt lat="58.863127967342734" lon="12.40214598365128">
        <ele>88.35</ele>
        <time>2025-02-04T07:51:29.843Z</time>
      </trkpt>
      <trkpt lat="58.86301497928798" lon="12.402135925367475">
        <ele>87.94</ele>
        <time>2025-02-04T07:51:47.521Z</time>
      </trkpt>
      <trkpt lat="58.862788919359446" lon="12.402116982266307">
        <ele>87.53</ele>
        <time>2025-02-04T07:52:05.203Z</time>
      </trkpt>
      <trkpt lat="58.862634943798184" lon="12.402115976437926">
        <ele>87.13</ele>
        <time>2025-02-04T07:52:22.887Z</time>
      </trkpt>
      <trkpt lat="58.862483985722065" lon="12.402110947296023">
        <ele>86.75</ele>
        <time>2025-02-04T07:52:40.574Z</time>
      </trkpt>
      <trkpt lat="58.862336967140436" lon="12.402086975052953">
        <ele>86.38</ele>
        <time>2025-02-04T07:52:58.263Z</time>
      </trkpt>
      <trkpt lat="58.86218994855881" lon="12.402043975889683">
        <ele>86.01</ele>
        <time>2025-02-04T07:53:15.954Z</time>
      </trkpt>
      <trkpt lat="58.86203697882593" lon="12.402004916220903">
        <ele>85.65</ele>
        <time>2025-02-04T07:53:33.648Z</time>
      </trkpt>
      <trkpt lat="58.861880991607904" lon="12.401988990604877">
        <ele>85.31</ele>
        <time>2025-02-04T07:53:51.344Z</time>
      </trkpt>
      <trkpt lat="58.86172894388437" lon="12.401982955634594">
        <ele>84.97</ele>
        <time>2025-02-04T07:54:09.043Z</time>
      </trkpt>
      <trkpt lat="58.86158796027303" lon="12.401985973119736">
        <ele>84.64</ele>
        <time>2025-02-04T07:54:26.744Z</time>
      </trkpt>
      <trkpt lat="58.86146097443998" lon="12.40199695341289">
        <ele>84.31</ele>
        <time>2025-02-04T07:54:44.447Z</time>
      </trkpt>
      <trkpt lat="58.861345974728465" lon="12.40199695341289">
        <ele>83.99</ele>
        <time>2025-02-04T07:55:02.152Z</time>
      </trkpt>
      <trkpt lat="58.86123198084533" lon="12.401983961462975">
        <ele>83.68</ele>
        <time>2025-02-04T07:55:19.859Z</time>
      </trkpt>
      <trkpt lat="58.86110792867839" lon="12.401959989219904">
        <ele>83.37</ele>
        <time>2025-02-04T07:55:37.568Z</time>
      </trkpt>
      <trkpt lat="58.860982954502106" lon="12.40193098783493">
        <ele>83.08</ele>
        <time>2025-02-04T07:55:55.279Z</time>
      </trkpt>
      <trkpt lat="58.860894944518805" lon="12.401917995885015">
        <ele>82.79</ele>
        <time>2025-02-04T07:56:12.991Z</time>
      </trkpt>
      <trkpt lat="58.86080592870712" lon="12.401905925944448">
        <ele>82.51</ele>
        <time>2025-02-04T07:56:30.705Z</time>
      </trkpt>
      <trkpt lat="58.86062798090279" lon="12.401880947872996">
        <ele>82.25</ele>
        <time>2025-02-04T07:56:48.421Z</time>
      </trkpt>
      <trkpt lat="58.860574923455715" lon="12.401912966743112">
        <ele>81.99</ele>
        <time>2025-02-04T07:57:06.138Z</time>
      </trkpt>
      <trkpt lat="58.86052094399929" lon="12.401944985613227">
        <ele>81.73</ele>
        <time>2025-02-04T07:57:23.856Z</time>
      </trkpt>
      <trkpt lat="58.86041298508644" lon="12.402007933706045">
        <ele>81.48</ele>
        <time>2025-02-04T07:57:41.576Z</time>
      </trkpt>
      <trkpt lat="58.86030494235456" lon="12.40208194591105">
        <ele>81.23</ele>
        <time>2025-02-04T07:57:59.298Z</time>
      </trkpt>
      <trkpt lat="58.86019798927009" lon="12.402150928974152">
        <ele>81.0</ele>
        <time>2025-02-04T07:58:17.022Z</time>
      </trkpt>
      <trkpt lat="58.860098998993635" lon="12.402223935350776">
        <ele>80.77</ele>
        <time>2025-02-04T07:58:34.747Z</time>
      </trkpt>
      <trkpt lat="58.86000294238329" lon="12.40231798030436">
        <ele>80.56</ele>
        <time>2025-02-04T07:58:52.474Z</time>
      </trkpt>
      <trkpt lat="58.85991392657161" lon="12.402434991672635">
        <ele>80.35</ele>
        <time>2025-02-04T07:59:10.203Z</time>
      </trkpt>
      <trkpt lat="58.85980697348714" lon="12.402657950296998">
        <ele>80.16</ele>
        <time>2025-02-04T07:59:27.934Z</time>
      </trkpt>
      <trkpt lat="58.85969893075526" lon="12.402880992740393">
        <ele>79.98</ele>
        <time>2025-02-04T07:59:45.668Z</time>
      </trkpt>
      <trkpt lat="58.85962299071252" lon="12.403029939159751">
        <ele>79.79</ele>
        <time>2025-02-04T08:00:03.404Z</time>
      </trkpt>
      <trkpt lat="58.85957999154925" lon="12.403083918616176">
        <ele>79.62</ele>
        <time>2025-02-04T08:00:21.140Z</time>
      </trkpt>
      <trkpt lat="58.85953699238598" lon="12.403137981891632">
        <ele>79.47</ele>
        <time>2025-02-04T08:00:38.877Z</time>
      </trkpt>
      <trkpt lat="58.85937798768282" lon="12.4032639618963">
        <ele>79.32</ele>
        <time>2025-02-04T08:00:56.617Z</time>
      </trkpt>
      <trkpt lat="58.859304981306195" lon="12.4032829888165">
        <ele>79.18</ele>
        <time>2025-02-04T08:01:14.358Z</time>
      </trkpt>
      <trkpt lat="58.85915796272457" lon="12.403319953009486">
        <ele>79.06</ele>
        <time>2025-02-04T08:01:32.102Z</time>
      </trkpt>
      <trkpt lat="58.859112951904535" lon="12.403315929695964">
        <ele>78.94</ele>
        <time>2025-02-04T08:01:49.846Z</time>
      </trkpt>
      <trkpt lat="58.859067941084504" lon="12.403312996029854">
        <ele>78.84</ele>
        <time>2025-02-04T08:02:07.591Z</time>
      </trkpt>
      <trkpt lat="58.85892695747316" lon="12.40328491665423">
        <ele>78.75</ele>
        <time>2025-02-04T08:02:25.338Z</time>
      </trkpt>
      <trkpt lat="58.858876917511225" lon="12.4032639618963">
        <ele>78.66</ele>
        <time>2025-02-04T08:02:43.086Z</time>
      </trkpt>
      <trkpt lat="58.85877599939704" lon="12.403221968561411">
        <ele>78.59</ele>
        <time>2025-02-04T08:03:00.836Z</time>
      </trkpt>
      <trkpt lat="58.858749931678176" lon="12.403210988268256">
        <ele>78.52</ele>
        <time>2025-02-04T08:03:18.586Z</time>
      </trkpt>
      <trkpt lat="58.858722941949964" lon="12.40320092998445">
        <ele>78.46</ele>
        <time>2025-02-04T08:03:36.337Z</time>
      </trkpt>
      <trkpt lat="58.858640966936946" lon="12.40317695774138">
        <ele>78.41</ele>
        <time>2025-02-04T08:03:54.089Z</time>
      </trkpt>
      <trkpt lat="58.85861196555197" lon="12.403172934427857">
        <ele>78.38</ele>
        <time>2025-02-04T08:04:11.841Z</time>
      </trkpt>
      <trkpt lat="58.858552956953645" lon="12.403171928599477">
        <ele>78.35</ele>
        <time>2025-02-04T08:04:29.594Z</time>
      </trkpt>
      <trkpt lat="58.858488919213414" lon="12.403184920549393">
        <ele>78.33</ele>
        <time>2025-02-04T08:04:47.348Z</time>
      </trkpt>
      <trkpt lat="58.85834994725883" lon="12.403228925541043">
        <ele>78.32</ele>
        <time>2025-02-04T08:05:05.105Z</time>
      </trkpt>
      <trkpt lat="58.85831197723746" lon="12.403244934976101">
        <ele>78.32</ele>
        <time>2025-02-04T08:05:22.862Z</time>
      </trkpt>
      <trkpt lat="58.858273923397064" lon="12.403259938582778">
        <ele>78.33</ele>
        <time>2025-02-04T08:05:40.620Z</time>
      </trkpt>
      <trkpt lat="58.85820091702044" lon="12.40328592248261">
        <ele>78.35</ele>
        <time>2025-02-04T08:05:58.379Z</time>
      </trkpt>
      <trkpt lat="58.858121959492564" lon="12.403335962444544">
        <ele>78.38</ele>
        <time>2025-02-04T08:06:16.139Z</time>
      </trkpt>
      <trkpt lat="58.858038978651166" lon="12.403397988528013">
        <ele>78.42</ele>
        <time>2025-02-04T08:06:33.901Z</time>
      </trkpt>
      <trkpt lat="58.85795993730426" lon="12.403450962156057">
        <ele>78.47</ele>
        <time>2025-02-04T08:06:51.664Z</time>
      </trkpt>
      <trkpt lat="58.85787796229124" lon="12.40350091829896">
        <ele>78.53</ele>
        <time>2025-02-04T08:07:09.429Z</time>
      </trkpt>
      <trkpt lat="58.85779498144984" lon="12.40354391746223">
        <ele>78.61</ele>
        <time>2025-02-04T08:07:27.195Z</time>
      </trkpt>
      <trkpt lat="58.857710994780064" lon="12.40358498878777">
        <ele>78.69</ele>
        <time>2025-02-04T08:07:44.962Z</time>
      </trkpt>
      <trkpt lat="58.85755592957139" lon="12.403636956587434">
        <ele>78.79</ele>
        <time>2025-02-04T08:08:02.732Z</time>
      </trkpt>
      <trkpt lat="58.857521982863545" lon="12.403639974072576">
        <ele>78.9</ele>
        <time>2025-02-04T08:08:20.502Z</time>
      </trkpt>
      <trkpt lat="58.85748795233667" lon="12.403641985729337">
        <ele>79.01</ele>
        <time>2025-02-04T08:08:38.273Z</time>
      </trkpt>
      <trkpt lat="58.85742994956672" lon="12.403641985729337">
        <ele>79.13</ele>
        <time>2025-02-04T08:08:56.045Z</time>
      </trkpt>
      <trkpt lat="58.85737999342382" lon="12.40363092161715">
        <ele>79.27</ele>
        <time>2025-02-04T08:09:13.818Z</time>
      </trkpt>
      <trkpt lat="58.85733699426055" lon="12.403617929667234">
        <ele>79.41</ele>
        <time>2025-02-04T08:09:31.591Z</time>
      </trkpt>
      <trkpt lat="58.85729491710663" lon="12.40360795520246">
        <ele>79.56</ele>
        <time>2025-02-04T08:09:49.365Z</time>
      </trkpt>
      <trkpt lat="58.85725795291364" lon="12.403600998222828">
        <ele>79.72</ele>
        <time>2025-02-04T08:10:07.140Z</time>
      </trkpt>
      <trkpt lat="58.85722794570029" lon="12.403588928282261">
        <ele>79.88</ele>
        <time>2025-02-04T08:10:24.915Z</time>
      </trkpt>
      <trkpt lat="58.857200955972075" lon="12.403570991009474">
        <ele>80.06</ele>
        <time>2025-02-04T08:10:42.691Z</time>
      </trkpt>
      <trkpt lat="58.857176983729005" lon="12.403556993231177">
        <ele>80.24</ele>
        <time>2025-02-04T08:11:00.467Z</time>
      </trkpt>
      <trkpt lat="58.85714798234403" lon="12.403556993231177">
        <ele>80.43</ele>
        <time>2025-02-04T08:11:18.244Z</time>
      </trkpt>
      <trkpt lat="58.85712099261582" lon="12.403550958260894">
        <ele>80.62</ele>
        <time>2025-02-04T08:11:36.021Z</time>
      </trkpt>
      <trkpt lat="58.857091991230845" lon="12.4035419896245">
        <ele>80.83</ele>
        <time>2025-02-04T08:11:53.798Z</time>
      </trkpt>
      <trkpt lat="58.857068940997124" lon="12.403531931340694">
        <ele>81.04</ele>
        <time>2025-02-04T08:12:11.576Z</time>
      </trkpt>
      <trkpt lat="58.857051925733685" lon="12.403515921905637">
        <ele>81.26</ele>
        <time>2025-02-04T08:12:29.354Z</time>
      </trkpt>
      <trkpt lat="58.85699694044888" lon="12.403502929955721">
        <ele>81.49</ele>
        <time>2025-02-04T08:12:47.133Z</time>
      </trkpt>
      <trkpt lat="58.85697397403419" lon="12.403489938005805">
        <ele>81.96</ele>
        <time>2025-02-04T08:13:04.912Z</time>
      </trkpt>
      <trkpt lat="58.85694698430598" lon="12.403482981026173">
        <ele>82.21</ele>
        <time>2025-02-04T08:13:22.692Z</time>
      </trkpt>
      <trkpt lat="58.85692493990064" lon="12.40347895771265">
        <ele>82.46</ele>
        <time>2025-02-04T08:13:40.472Z</time>
      </trkpt>
      <trkpt lat="58.85690197348595" lon="12.403473928570747">
        <ele>82.72</ele>
        <time>2025-02-04T08:13:58.253Z</time>
      </trkpt>
      <trkpt lat="58.856876995414495" lon="12.40347694605589">
        <ele>82.99</ele>
        <time>2025-02-04T08:14:16.034Z</time>
      </trkpt>
      <trkpt lat="58.856853945180774" lon="12.403480969369411">
        <ele>83.26</ele>
        <time>2025-02-04T08:14:33.815Z</time>
      </trkpt>
      <trkpt lat="58.856830978766084" lon="12.403485998511314">
        <ele>83.54</ele>
        <time>2025-02-04T08:14:51.597Z</time>
      </trkpt>
      <trkpt lat="58.85680398903787" lon="12.403494967147708">
        <ele>83.83</ele>
        <time>2025-02-04T08:15:09.379Z</time>
      </trkpt>
      <trkpt lat="58.85677792131901" lon="12.403506953269243">
        <ele>84.12</ele>
        <time>2025-02-04T08:15:27.162Z</time>
      </trkpt>
      <trkpt lat="58.856749925762415" lon="12.403518939390779">
        <ele>84.41</ele>
        <time>2025-02-04T08:15:44.945Z</time>
      </trkpt>
      <trkpt lat="58.85671991854906" lon="12.403530925512314">
        <ele>84.72</ele>
        <time>2025-02-04T08:16:02.729Z</time>
      </trkpt>
      <trkpt lat="58.85669192299247" lon="12.403555987402797">
        <ele>85.02</ele>
        <time>2025-02-04T08:16:20.513Z</time>
      </trkpt>
      <trkpt lat="58.856662921607494" lon="12.403589934110641">
        <ele>85.34</ele>
        <time>2025-02-04T08:16:38.298Z</time>
      </trkpt>
      <trkpt lat="58.85663098655641" lon="12.403633939102292">
        <ele>85.65</ele>
        <time>2025-02-04T08:16:56.083Z</time>
      </trkpt>
      <trkpt lat="58.85660097934306" lon="12.403679955750704">
        <ele>85.98</ele>
        <time>2025-02-04T08:17:13.869Z</time>
      </trkpt>
      <trkpt lat="58.8565709721297" lon="12.403729995712638">
        <ele>86.3</ele>
        <time>2025-02-04T08:17:31.655Z</time>
      </trkpt>
      <trkpt lat="58.856535935774446" lon="12.403781963512301">
        <ele>86.63</ele>
        <time>2025-02-04T08:17:49.442Z</time>
      </trkpt>
      <trkpt lat="58.85650299489498" lon="12.403830997645855">
        <ele>86.97</ele>
        <time>2025-02-04T08:18:07.230Z</time>
      </trkpt>
      <trkpt lat="58.856467958539724" lon="12.403876930475235">
        <ele>87.31</ele>
        <time>2025-02-04T08:18:25.018Z</time>
      </trkpt>
      <trkpt lat="58.85643292218447" lon="12.403919929638505">
        <ele>87.66</ele>
        <time>2025-02-04T08:18:42.807Z</time>
      </trkpt>
      <trkpt lat="58.856399981305" lon="12.403964940458536">
        <ele>88.02</ele>
        <time>2025-02-04T08:19:00.597Z</time>
      </trkpt>
      <trkpt lat="58.856362933292985" lon="12.404008945450187">
        <ele>88.37</ele>
        <time>2025-02-04T08:19:18.388Z</time>
      </trkpt>
      <trkpt lat="58.856321945786476" lon="12.404049932956696">
        <ele>88.73</ele>
        <time>2025-02-04T08:19:36.179Z</time>
      </trkpt>
      <trkpt lat="58.85627995245159" lon="12.404084969311953">
        <ele>89.1</ele>
        <time>2025-02-04T08:19:53.971Z</time>
      </trkpt>
      <trkpt lat="58.8562429882586" lon="12.404115982353687">
        <ele>89.47</ele>
        <time>2025-02-04T08:20:11.764Z</time>
      </trkpt>
      <trkpt lat="58.85620392858982" lon="12.40414791740477">
        <ele>89.84</ele>
        <time>2025-02-04T08:20:29.557Z</time>
      </trkpt>
      <trkpt lat="58.85615891776979" lon="12.40418597124517">
        <ele>90.22</ele>
        <time>2025-02-04T08:20:47.351Z</time>
      </trkpt>
      <trkpt lat="58.85611994192004" lon="12.404225952923298">
        <ele>90.61</ele>
        <time>2025-02-04T08:21:05.146Z</time>
      </trkpt>
      <trkpt lat="58.85607392527163" lon="12.404265934601426">
        <ele>90.99</ele>
        <time>2025-02-04T08:21:22.942Z</time>
      </trkpt>
      <trkpt lat="58.85603092610836" lon="12.404303988441825">
        <ele>91.38</ele>
        <time>2025-02-04T08:21:40.738Z</time>
      </trkpt>
      <trkpt lat="58.85598893277347" lon="12.404347993433475">
        <ele>91.77</ele>
        <time>2025-02-04T08:21:58.535Z</time>
      </trkpt>
      <trkpt lat="58.855954986065626" lon="12.404391998425126">
        <ele>92.16</ele>
        <time>2025-02-04T08:22:16.333Z</time>
      </trkpt>
      <trkpt lat="58.85592296719551" lon="12.404440948739648">
        <ele>92.56</ele>
        <time>2025-02-04T08:22:34.131Z</time>
      </trkpt>
      <trkpt lat="58.855890948325396" lon="12.404490988701582">
        <ele>92.97</ele>
        <time>2025-02-04T08:22:51.930Z</time>
      </trkpt>
      <trkpt lat="58.85586194694042" lon="12.404550919309258">
        <ele>93.37</ele>
        <time>2025-02-04T08:23:09.730Z</time>
      </trkpt>
      <trkpt lat="58.85583495721221" lon="12.404609927907586">
        <ele>93.78</ele>
        <time>2025-02-04T08:23:27.530Z</time>
      </trkpt>
      <trkpt lat="58.855807967484" lon="12.404671953991055">
        <ele>94.19</ele>
        <time>2025-02-04T08:23:45.331Z</time>
      </trkpt>
      <trkpt lat="58.855779971927404" lon="12.404731968417764">
        <ele>94.61</ele>
        <time>2025-02-04T08:24:03.133Z</time>
      </trkpt>
      <trkpt lat="58.85574795305729" lon="12.40478896535933">
        <ele>95.03</ele>
        <time>2025-02-04T08:24:20.935Z</time>
      </trkpt>
      <trkpt lat="58.85571392253041" lon="12.404846968129277">
        <ele>95.44</ele>
        <time>2025-02-04T08:24:38.738Z</time>
      </trkpt>
      <trkpt lat="58.85568098165095" lon="12.404906982555985">
        <ele>95.86</ele>
        <time>2025-02-04T08:24:56.542Z</time>
      </trkpt>
      <trkpt lat="58.85564795695245" lon="12.404965991154313">
        <ele>96.28</ele>
        <time>2025-02-04T08:25:14.347Z</time>
      </trkpt>
      <trkpt lat="58.855613926425576" lon="12.405017958953977">
        <ele>96.71</ele>
        <time>2025-02-04T08:25:32.152Z</time>
      </trkpt>
      <trkpt lat="58.85558199137449" lon="12.405057940632105">
        <ele>97.14</ele>
        <time>2025-02-04T08:25:49.958Z</time>
      </trkpt>
      <trkpt lat="58.855544943362474" lon="12.405086942017078">
        <ele>97.57</ele>
        <time>2025-02-04T08:26:07.765Z</time>
      </trkpt>
      <trkpt lat="58.85550596751273" lon="12.40510898642242">
        <ele>98.0</ele>
        <time>2025-02-04T08:26:25.572Z</time>
      </trkpt>
      <trkpt lat="58.855461962521076" lon="12.405130947008729">
        <ele>98.44</ele>
        <time>2025-02-04T08:26:43.380Z</time>
      </trkpt>
      <trkpt lat="58.85542097501457" lon="12.405145950615406">
        <ele>98.87</ele>
        <time>2025-02-04T08:27:01.189Z</time>
      </trkpt>
      <trkpt lat="58.855371940881014" lon="12.405161960050464">
        <ele>99.3</ele>
        <time>2025-02-04T08:27:18.998Z</time>
      </trkpt>
      <trkpt lat="58.85532198473811" lon="12.405167995020747">
        <ele>99.74</ele>
        <time>2025-02-04T08:27:36.808Z</time>
      </trkpt>
      <trkpt lat="58.85527797974646" lon="12.405167995020747">
        <ele>100.17</ele>
        <time>2025-02-04T08:27:54.619Z</time>
      </trkpt>
      <trkpt lat="58.85523598641157" lon="12.405163971707225">
        <ele>100.61</ele>
        <time>2025-02-04T08:28:12.431Z</time>
      </trkpt>
      <trkpt lat="58.85519097559154" lon="12.405160954222083">
        <ele>101.04</ele>
        <time>2025-02-04T08:28:30.243Z</time>
      </trkpt>
      <trkpt lat="58.8551739603281" lon="12.405148968100548">
        <ele>101.48</ele>
        <time>2025-02-04T08:28:48.056Z</time>
      </trkpt>
      <trkpt lat="58.855138923972845" lon="12.405149973928928">
        <ele>101.91</ele>
        <time>2025-02-04T08:29:05.869Z</time>
      </trkpt>
      <trkpt lat="58.8550999481231" lon="12.405143938958645">
        <ele>102.35</ele>
        <time>2025-02-04T08:29:23.683Z</time>
      </trkpt>
      <trkpt lat="58.855049991980195" lon="12.405145950615406">
        <ele>102.78</ele>
        <time>2025-02-04T08:29:41.498Z</time>
      </trkpt>
      <trkpt lat="58.85499592870474" lon="12.40515693090856">
        <ele>103.21</ele>
        <time>2025-02-04T08:29:59.314Z</time>
      </trkpt>
      <trkpt lat="58.85494094341993" lon="12.405168917030096">
        <ele>103.64</ele>
        <time>2025-02-04T08:30:17.130Z</time>
      </trkpt>
      <trkpt lat="58.85488796979189" lon="12.405179981142282">
        <ele>104.07</ele>
        <time>2025-02-04T08:30:34.947Z</time>
      </trkpt>
      <trkpt lat="58.854815969243646" lon="12.405206970870495">
        <ele>104.49</ele>
        <time>2025-02-04T08:30:52.765Z</time>
      </trkpt>
      <trkpt lat="58.854748997837305" lon="12.40521996282041">
        <ele>104.92</ele>
        <time>2025-02-04T08:31:10.585Z</time>
      </trkpt>
      <trkpt lat="58.85467892512679" lon="12.405224991962314">
        <ele>105.35</ele>
        <time>2025-02-04T08:31:28.406Z</time>
      </trkpt>
      <trkpt lat="58.85460994206369" lon="12.40521895699203">
        <ele>105.77</ele>
        <time>2025-02-04T08:31:46.228Z</time>
      </trkpt>
      <trkpt lat="58.85453391820192" lon="12.405209988355637">
        <ele>106.2</ele>
        <time>2025-02-04T08:32:04.051Z</time>
      </trkpt>
      <trkpt lat="58.85446191765368" lon="12.405192973092198">
        <ele>106.63</ele>
        <time>2025-02-04T08:32:21.875Z</time>
      </trkpt>
      <trkpt lat="58.85439494624734" lon="12.405169922858477">
        <ele>107.06</ele>
        <time>2025-02-04T08:32:39.700Z</time>
      </trkpt>
      <trkpt lat="58.85433593764901" lon="12.405141927301884">
        <ele>107.48</ele>
        <time>2025-02-04T08:32:57.526Z</time>
      </trkpt>
      <trkpt lat="58.854280952364206" lon="12.405119966715574">
        <ele>107.91</ele>
        <time>2025-02-04T08:33:15.353Z</time>
      </trkpt>
      <trkpt lat="58.854230996221304" lon="12.405098928138614">
        <ele>108.33</ele>
        <time>2025-02-04T08:33:33.181Z</time>
      </trkpt>
      <trkpt lat="58.85418296791613" lon="12.405078979209065">
        <ele>108.75</ele>
        <time>2025-02-04T08:33:51.010Z</time>
      </trkpt>
      <trkpt lat="58.85413695126772" lon="12.405061963945627">
        <ele>109.16</ele>
        <time>2025-02-04T08:34:08.839Z</time>
      </trkpt>
      <trkpt lat="58.85409194044769" lon="12.405034974217415">
        <ele>109.58</ele>
        <time>2025-02-04T08:34:26.669Z</time>
      </trkpt>
      <trkpt lat="58.854045923799276" lon="12.405020976439118">
        <ele>109.99</ele>
        <time>2025-02-04T08:34:44.500Z</time>
      </trkpt>
      <trkpt lat="58.85399496182799" lon="12.405020976439118">
        <ele>110.39</ele>
        <time>2025-02-04T08:35:02.332Z</time>
      </trkpt>
      <trkpt lat="58.85393997654319" lon="12.40502592176199">
        <ele>110.79</ele>
        <time>2025-02-04T08:35:20.165Z</time>
      </trkpt>
      <trkpt lat="58.85389999486506" lon="12.405018964782357">
        <ele>111.18</ele>
        <time>2025-02-04T08:35:37.998Z</time>
      </trkpt>
      <trkpt lat="58.85386093519628" lon="12.405020976439118">
        <ele>111.57</ele>
        <time>2025-02-04T08:35:55.832Z</time>
      </trkpt>
      <trkpt lat="58.85382095351815" lon="12.405014941468835">
        <ele>111.95</ele>
        <time>2025-02-04T08:36:13.667Z</time>
      </trkpt>
      <trkpt lat="58.853786922991276" lon="12.404994992539287">
        <ele>112.33</ele>
        <time>2025-02-04T08:36:31.502Z</time>
      </trkpt>
      <trkpt lat="58.85374694131315" lon="12.404970936477184">
        <ele>112.71</ele>
        <time>2025-02-04T08:36:49.338Z</time>
      </trkpt>
      <trkpt lat="58.85370897129178" lon="12.404947970062494">
        <ele>113.08</ele>
        <time>2025-02-04T08:37:07.174Z</time>
      </trkpt>
      <trkpt lat="58.85366194881499" lon="12.40493799559772">
        <ele>113.45</ele>
        <time>2025-02-04T08:37:25.011Z</time>
      </trkpt>
      <trkpt lat="58.85361794382334" lon="12.404927937313914">
        <ele>113.81</ele>
        <time>2025-02-04T08:37:42.849Z</time>
      </trkpt>
      <trkpt lat="58.85357393883169" lon="12.404924919828773">
        <ele>114.17</ele>
        <time>2025-02-04T08:38:00.688Z</time>
      </trkpt>
      <trkpt lat="58.8535369746387" lon="12.404914945363998">
        <ele>114.52</ele>
        <time>2025-02-04T08:38:18.527Z</time>
      </trkpt>
      <trkpt lat="58.85349598713219" lon="12.404910922050476">
        <ele>114.86</ele>
        <time>2025-02-04T08:38:36.367Z</time>
      </trkpt>
      <trkpt lat="58.85345692746341" lon="12.404906982555985">
        <ele>115.2</ele>
        <time>2025-02-04T08:38:54.208Z</time>
      </trkpt>
      <trkpt lat="58.85341493412852" lon="12.404902959242463">
        <ele>115.53</ele>
        <time>2025-02-04T08:39:12.049Z</time>
      </trkpt>
      <trkpt lat="58.85337092913687" lon="12.404904970899224">
        <ele>115.85</ele>
        <time>2025-02-04T08:39:29.891Z</time>
      </trkpt>
      <trkpt lat="58.85332499630749" lon="12.404910922050476">
        <ele>116.16</ele>
        <time>2025-02-04T08:39:47.734Z</time>
      </trkpt>
      <trkpt lat="58.85328099131584" lon="12.40491695702076">
        <ele>116.47</ele>
        <time>2025-02-04T08:40:05.577Z</time>
      </trkpt>
      <trkpt lat="58.85323698632419" lon="12.404920980334282">
        <ele>116.77</ele>
        <time>2025-02-04T08:40:23.421Z</time>
      </trkpt>
      <trkpt lat="58.85319197550416" lon="12.404927937313914">
        <ele>117.07</ele>
        <time>2025-02-04T08:40:41.266Z</time>
      </trkpt>
      <trkpt lat="58.85314595885575" lon="12.40493698976934">
        <ele>117.36</ele>
        <time>2025-02-04T08:40:59.112Z</time>
      </trkpt>
      <trkpt lat="58.85310497134924" lon="12.404938917607069">
        <ele>117.63</ele>
        <time>2025-02-04T08:41:16.958Z</time>
      </trkpt>
      <trkpt lat="58.85306498967111" lon="12.404951993376017">
        <ele>117.91</ele>
        <time>2025-02-04T08:41:34.805Z</time>
      </trkpt>
      <trkpt lat="58.85301494970918" lon="12.404965991154313">
        <ele>118.17</ele>
        <time>2025-02-04T08:41:52.653Z</time>
      </trkpt>
      <trkpt lat="58.85298192501068" lon="12.404977977275848">
        <ele>118.43</ele>
        <time>2025-02-04T08:42:10.501Z</time>
      </trkpt>
      <trkpt lat="58.85293699800968" lon="12.40498292259872">
        <ele>118.68</ele>
        <time>2025-02-04T08:42:28.350Z</time>
      </trkpt>
      <trkpt lat="58.85289098136127" lon="12.404991975054145">
        <ele>118.92</ele>
        <time>2025-02-04T08:42:46.200Z</time>
      </trkpt>
      <trkpt lat="58.85284597054124" lon="12.405005972832441">
        <ele>119.15</ele>
        <time>2025-02-04T08:43:04.050Z</time>
      </trkpt>
      <trkpt lat="58.85281093418598" lon="12.405020976439118">
        <ele>119.37</ele>
        <time>2025-02-04T08:43:21.901Z</time>
      </trkpt>
      <trkpt lat="58.85278193280101" lon="12.405034974217415">
        <ele>119.58</ele>
        <time>2025-02-04T08:43:39.752Z</time>
      </trkpt>
      <trkpt lat="58.852751925587654" lon="12.405052995309234">
        <ele>119.79</ele>
        <time>2025-02-04T08:43:57.604Z</time>
      </trkpt>
      <trkpt lat="58.852729965001345" lon="12.405073950067163">
        <ele>119.98</ele>
        <time>2025-02-04T08:44:15.456Z</time>
      </trkpt>
      <trkpt lat="58.85269694030285" lon="12.40508995950222">
        <ele>120.17</ele>
        <time>2025-02-04T08:44:33.309Z</time>
      </trkpt>
      <trkpt lat="58.85265997610986" lon="12.40511099807918">
        <ele>120.35</ele>
        <time>2025-02-04T08:44:51.162Z</time>
      </trkpt>
      <trkpt lat="58.852619994431734" lon="12.405134970322251">
        <ele>120.52</ele>
        <time>2025-02-04T08:45:09.016Z</time>
      </trkpt>
      <trkpt lat="58.852579928934574" lon="12.40515693090856">
        <ele>120.68</ele>
        <time>2025-02-04T08:45:26.871Z</time>
      </trkpt>
      <trkpt lat="58.852538941428065" lon="12.405178975313902">
        <ele>120.84</ele>
        <time>2025-02-04T08:45:44.727Z</time>
      </trkpt>
      <trkpt lat="58.85249795392156" lon="12.405205965042114">
        <ele>120.98</ele>
        <time>2025-02-04T08:46:02.583Z</time>
      </trkpt>
      <trkpt lat="58.85245495475829" lon="12.40523999556899">
        <ele>121.1</ele>
        <time>2025-02-04T08:46:20.440Z</time>
      </trkpt>
      <trkpt lat="58.8524129614234" lon="12.405269918963313">
        <ele>121.23</ele>
        <time>2025-02-04T08:46:38.298Z</time>
      </trkpt>
      <trkpt lat="58.85236895643175" lon="12.405300932005048">
        <ele>121.34</ele>
        <time>2025-02-04T08:46:56.156Z</time>
      </trkpt>
      <trkpt lat="58.85233098641038" lon="12.405332950875163">
        <ele>121.44</ele>
        <time>2025-02-04T08:47:14.015Z</time>
      </trkpt>
      <trkpt lat="58.8522919267416" lon="12.405365975573659">
        <ele>121.54</ele>
        <time>2025-02-04T08:47:31.875Z</time>
      </trkpt>
      <trkpt lat="58.85225496254861" lon="12.405393971130252">
        <ele>121.62</ele>
        <time>2025-02-04T08:47:49.735Z</time>
      </trkpt>
      <trkpt lat="58.85221799835563" lon="12.405418949201703">
        <ele>121.7</ele>
        <time>2025-02-04T08:48:07.596Z</time>
      </trkpt>
      <trkpt lat="58.852175921201706" lon="12.405442921444774">
        <ele>121.77</ele>
        <time>2025-02-04T08:48:25.458Z</time>
      </trkpt>
      <trkpt lat="58.85213099420071" lon="12.405461948364973">
        <ele>121.83</ele>
        <time>2025-02-04T08:48:43.320Z</time>
      </trkpt>
      <trkpt lat="58.852082965895534" lon="12.40547695197165">
        <ele>121.88</ele>
        <time>2025-02-04T08:49:01.183Z</time>
      </trkpt>
      <trkpt lat="58.85203393176198" lon="12.40549991838634">
        <ele>121.92</ele>
        <time>2025-02-04T08:49:19.047Z</time>
      </trkpt>
      <trkpt lat="58.85198498144746" lon="12.40551995113492">
        <ele>121.95</ele>
        <time>2025-02-04T08:49:36.912Z</time>
      </trkpt>
      <trkpt lat="58.851937958970666" lon="12.405537972226739">
        <ele>121.96</ele>
        <time>2025-02-04T08:49:54.778Z</time>
      </trkpt>
      <trkpt lat="58.851892948150635" lon="12.405550964176655">
        <ele>121.97</ele>
        <time>2025-02-04T08:50:12.644Z</time>
      </trkpt>
      <trkpt lat="58.851848943158984" lon="12.405566973611712">
        <ele>121.97</ele>
        <time>2025-02-04T08:50:30.511Z</time>
      </trkpt>
      <trkpt lat="58.85179898701608" lon="12.40558197721839">
        <ele>121.96</ele>
        <time>2025-02-04T08:50:48.379Z</time>
      </trkpt>
      <trkpt lat="58.85174995288253" lon="12.405600920319557">
        <ele>121.94</ele>
        <time>2025-02-04T08:51:06.248Z</time>
      </trkpt>
      <trkpt lat="58.851698990911245" lon="12.405617935582995">
        <ele>121.91</ele>
        <time>2025-02-04T08:51:24.118Z</time>
      </trkpt>
      <trkpt lat="58.85164392180741" lon="12.405634950846434">
        <ele>121.87</ele>
        <time>2025-02-04T08:51:41.988Z</time>
      </trkpt>
      <trkpt lat="58.85158793069422" lon="12.405651966109872">
        <ele>121.82</ele>
        <time>2025-02-04T08:51:59.859Z</time>
      </trkpt>
      <trkpt lat="58.85153294540942" lon="12.40566797554493">
        <ele>121.76</ele>
        <time>2025-02-04T08:52:17.731Z</time>
      </trkpt>
      <trkpt lat="58.85147695429623" lon="12.405683984979987">
        <ele>121.68</ele>
        <time>2025-02-04T08:52:35.604Z</time>
      </trkpt>
      <trkpt lat="58.851418951526284" lon="12.405698988586664">
        <ele>121.6</ele>
        <time>2025-02-04T08:52:53.478Z</time>
      </trkpt>
      <trkpt lat="58.85136094875634" lon="12.405713992193341">
        <ele>121.51</ele>
        <time>2025-02-04T08:53:11.353Z</time>
      </trkpt>
      <trkpt lat="58.85130093432963" lon="12.405728995800018">
        <ele>121.4</ele>
        <time>2025-02-04T08:53:29.229Z</time>
      </trkpt>
      <trkpt lat="58.85124293155968" lon="12.405742993578315">
        <ele>121.29</ele>
        <time>2025-02-04T08:53:47.106Z</time>
      </trkpt>
      <trkpt lat="58.851185934618115" lon="12.40575497969985">
        <ele>121.17</ele>
        <time>2025-02-04T08:54:04.984Z</time>
      </trkpt>
      <trkpt lat="58.85112793184817" lon="12.405767971649766">
        <ele>121.03</ele>
        <time>2025-02-04T08:54:22.863Z</time>
      </trkpt>
      <trkpt lat="58.85106992907822" lon="12.405779957771301">
        <ele>120.89</ele>
        <time>2025-02-04T08:54:40.743Z</time>
      </trkpt>
      <trkpt lat="58.851012932136655" lon="12.405788926407695">
        <ele>120.73</ele>
        <time>2025-02-04T08:54:58.624Z</time>
      </trkpt>
      <trkpt lat="58.85095492936671" lon="12.405799990519881">
        <ele>120.57</ele>
        <time>2025-02-04T08:55:16.506Z</time>
      </trkpt>
      <trkpt lat="58.85089692659676" lon="12.405813988298178">
        <ele>120.39</ele>
        <time>2025-02-04T08:55:34.388Z</time>
      </trkpt>
      <trkpt lat="58.850835990160704" lon="12.405829997733235">
        <ele>120.21</ele>
        <time>2025-02-04T08:55:52.271Z</time>
      </trkpt>
      <trkpt lat="58.850774969905615" lon="12.405847935006022">
        <ele>120.01</ele>
        <time>2025-02-04T08:56:10.155Z</time>
      </trkpt>
      <trkpt lat="58.85071696713567" lon="12.405869979411364">
        <ele>119.81</ele>
        <time>2025-02-04T08:56:28.040Z</time>
      </trkpt>
      <trkpt lat="58.85065795853734" lon="12.405895963311195">
        <ele>119.59</ele>
        <time>2025-02-04T08:56:45.926Z</time>
      </trkpt>
      <trkpt lat="58.85059593245387" lon="12.405922953039408">
        <ele>119.36</ele>
        <time>2025-02-04T08:57:03.813Z</time>
      </trkpt>
      <trkpt lat="58.85053591802716" lon="12.405947931110859">
        <ele>119.12</ele>
        <time>2025-02-04T08:57:21.701Z</time>
      </trkpt>
      <trkpt lat="58.850473975762725" lon="12.405979949980974">
        <ele>118.87</ele>
        <time>2025-02-04T08:57:39.590Z</time>
      </trkpt>
      <trkpt lat="58.85041597299278" lon="12.40601196885109">
        <ele>118.61</ele>
        <time>2025-02-04T08:57:57.480Z</time>
      </trkpt>
      <trkpt lat="58.85035897605121" lon="12.406043987721205">
        <ele>118.34</ele>
        <time>2025-02-04T08:58:15.371Z</time>
      </trkpt>
      <trkpt lat="58.850299967452884" lon="12.40607793442905">
        <ele>118.06</ele>
        <time>2025-02-04T08:58:33.263Z</time>
      </trkpt>
      <trkpt lat="58.8502439763397" lon="12.406109953299165">
        <ele>117.77</ele>
        <time>2025-02-04T08:58:51.156Z</time>
      </trkpt>
      <trkpt lat="58.85018697939813" lon="12.406139960512519">
        <ele>117.47</ele>
        <time>2025-02-04T08:59:09.050Z</time>
      </trkpt>
      <trkpt lat="58.85012696497142" lon="12.406170973554254">
        <ele>117.16</ele>
        <time>2025-02-04T08:59:26.945Z</time>
      </trkpt>
      <trkpt lat="58.85006292723119" lon="12.406199974939227">
        <ele>116.85</ele>
        <time>2025-02-04T08:59:44.841Z</time>
      </trkpt>
      <trkpt lat="58.849998973309994" lon="12.406225958839059">
        <ele>116.53</ele>
        <time>2025-02-04T09:00:02.738Z</time>
      </trkpt>
      <trkpt lat="58.84993392974138" lon="12.40625194273889">
        <ele>116.19</ele>
        <time>2025-02-04T09:00:20.636Z</time>
      </trkpt>
      <trkpt lat="58.84986796416342" lon="12.406273987144232">
        <ele>115.85</ele>
        <time>2025-02-04T09:00:38.535Z</time>
      </trkpt>
      <trkpt lat="58.84980199858546" lon="12.406296953558922">
        <ele>115.5</ele>
        <time>2025-02-04T09:00:56.436Z</time>
      </trkpt>
      <trkpt lat="58.84973594918847" lon="12.406317992135882">
        <ele>115.15</ele>
        <time>2025-02-04T09:01:14.338Z</time>
      </trkpt>
      <trkpt lat="58.84966897778213" lon="12.406333917751908">
        <ele>114.78</ele>
        <time>2025-02-04T09:01:32.241Z</time>
      </trkpt>
      <trkpt lat="58.84959898889065" lon="12.406352944672108">
        <ele>114.41</ele>
        <time>2025-02-04T09:01:50.145Z</time>
      </trkpt>
      <trkpt lat="58.849528999999166" lon="12.406369959935546">
        <ele>114.03</ele>
        <time>2025-02-04T09:02:08.050Z</time>
      </trkpt>
      <trkpt lat="58.84946093894541" lon="12.406387981027365">
        <ele>113.64</ele>
        <time>2025-02-04T09:02:25.956Z</time>
      </trkpt>
      <trkpt lat="58.84939195588231" lon="12.406405918300152">
        <ele>113.24</ele>
        <time>2025-02-04T09:02:43.863Z</time>
      </trkpt>
      <trkpt lat="58.84932297281921" lon="12.406424945220351">
        <ele>112.84</ele>
        <time>2025-02-04T09:03:01.771Z</time>
      </trkpt>
      <trkpt lat="58.84925398975611" lon="12.40644196048379">
        <ele>112.43</ele>
        <time>2025-02-04T09:03:19.680Z</time>
      </trkpt>
      <trkpt lat="58.84918098337948" lon="12.406454952433705">
        <ele>112.02</ele>
        <time>2025-02-04T09:03:37.591Z</time>
      </trkpt>
      <trkpt lat="58.84910395368934" lon="12.40646299906075">
        <ele>111.6</ele>
        <time>2025-02-04T09:03:55.503Z</time>
      </trkpt>
      <trkpt lat="58.84902893565595" lon="12.40646199323237">
        <ele>111.17</ele>
        <time>2025-02-04T09:04:13.416Z</time>
      </trkpt>
      <trkpt lat="58.84895492345095" lon="12.406449923291802">
        <ele>110.73</ele>
        <time>2025-02-04T09:04:31.330Z</time>
      </trkpt>
      <trkpt lat="58.848884934559464" lon="12.406438942998648">
        <ele>110.29</ele>
        <time>2025-02-04T09:04:49.245Z</time>
      </trkpt>
      <trkpt lat="58.8488139398396" lon="12.406427962705493">
        <ele>109.85</ele>
        <time>2025-02-04T09:05:07.161Z</time>
      </trkpt>
      <trkpt lat="58.84874395094812" lon="12.406417988240719">
        <ele>109.4</ele>
        <time>2025-02-04T09:05:25.079Z</time>
      </trkpt>
      <trkpt lat="58.848671950399876" lon="12.406410947442055">
        <ele>108.94</ele>
        <time>2025-02-04T09:05:42.998Z</time>
      </trkpt>
      <trkpt lat="58.84859693236649" lon="12.406402984634042">
        <ele>108.47</ele>
        <time>2025-02-04T09:06:00.918Z</time>
      </trkpt>
      <trkpt lat="58.848520992323756" lon="12.406408935785294">
        <ele>108.0</ele>
        <time>2025-02-04T09:06:18.839Z</time>
      </trkpt>
      <trkpt lat="58.84844295680523" lon="12.406426956877112">
        <ele>107.52</ele>
        <time>2025-02-04T09:06:36.761Z</time>
      </trkpt>
      <trkpt lat="58.848367938771844" lon="12.406459981575608">
        <ele>107.03</ele>
        <time>2025-02-04T09:06:54.685Z</time>
      </trkpt>
      <trkpt lat="58.84829099290073" lon="12.40650993771851">
        <ele>106.53</ele>
        <time>2025-02-04T09:07:12.610Z</time>
      </trkpt>
      <trkpt lat="58.8482129573822" lon="12.406580932438374">
        <ele>106.03</ele>
        <time>2025-02-04T09:07:30.536Z</time>
      </trkpt>
      <trkpt lat="58.848131988197565" lon="12.406662991270423">
        <ele>105.53</ele>
        <time>2025-02-04T09:07:48.464Z</time>
      </trkpt>
      <trkpt lat="58.848046995699406" lon="12.406757958233356">
        <ele>105.01</ele>
        <time>2025-02-04T09:08:06.393Z</time>
      </trkpt>
      <trkpt lat="58.847958985716105" lon="12.40687295794487">
        <ele>104.5</ele>
        <time>2025-02-04T09:08:24.324Z</time>
      </trkpt>
      <trkpt lat="58.847871981561184" lon="12.406985945999622">
        <ele>103.98</ele>
        <time>2025-02-04T09:08:42.257Z</time>
      </trkpt>
      <trkpt lat="58.847786989063025" lon="12.407115949317813">
        <ele>103.45</ele>
        <time>2025-02-04T09:09:00.192Z</time>
      </trkpt>
      <trkpt lat="58.847701996564865" lon="12.40725894458592">
        <ele>102.93</ele>
        <time>2025-02-04T09:09:18.128Z</time>
      </trkpt>
      <trkpt lat="58.84761096909642" lon="12.407405963167548">
        <ele>102.39</ele>
        <time>2025-02-04T09:09:36.066Z</time>
      </trkpt>
      <trkpt lat="58.847509967163205" lon="12.40753697231412">
        <ele>101.85</ele>
        <time>2025-02-04T09:09:54.006Z</time>
      </trkpt>
      <trkpt lat="58.84739396162331" lon="12.407612996175885">
        <ele>101.32</ele>
        <time>2025-02-04T09:10:11.948Z</time>
      </trkpt>
      <trkpt lat="58.847274938598275" lon="12.407608972862363">
        <ele>100.8</ele>
        <time>2025-02-04T09:10:29.892Z</time>
      </trkpt>
      <trkpt lat="58.84715499356389" lon="12.407575948163867">
        <ele>100.27</ele>
        <time>2025-02-04T09:10:47.838Z</time>
      </trkpt>
      <trkpt lat="58.84703999385238" lon="12.407551975920796">
        <ele>99.74</ele>
        <time>2025-02-04T09:11:05.786Z</time>
      </trkpt>
      <trkpt lat="58.846925999969244" lon="12.407540995627642">
        <ele>99.21</ele>
        <time>2025-02-04T09:11:23.736Z</time>
      </trkpt>
      <trkpt lat="58.84681292809546" lon="12.407540995627642">
        <ele>98.68</ele>
        <time>2025-02-04T09:11:41.688Z</time>
      </trkpt>
      <trkpt lat="58.84670094586909" lon="12.407525992020965">
        <ele>98.15</ele>
        <time>2025-02-04T09:11:59.641Z</time>
      </trkpt>
      <trkpt lat="58.846588963642716" lon="12.407487938180566">
        <ele>97.62</ele>
        <time>2025-02-04T09:12:17.596Z</time>
      </trkpt>
      <trkpt lat="58.84645393118262" lon="12.40743295289576">
        <ele>97.09</ele>
        <time>2025-02-04T09:12:35.553Z</time>
      </trkpt>
      <trkpt lat="58.84631093591452" lon="12.407400934025645">
        <ele>96.54</ele>
        <time>2025-02-04T09:12:53.513Z</time>
      </trkpt>
      <trkpt lat="58.84616693481803" lon="12.407393977046013">
        <ele>96.0</ele>
        <time>2025-02-04T09:13:11.475Z</time>
      </trkpt>
      <trkpt lat="58.84602393954992" lon="12.407403951510787">
        <ele>95.46</ele>
        <time>2025-02-04T09:13:29.439Z</time>
      </trkpt>
      <trkpt lat="58.84588798508048" lon="12.407435970380902">
        <ele>94.92</ele>
        <time>2025-02-04T09:13:47.405Z</time>
      </trkpt>
      <trkpt lat="58.84575999341905" lon="12.407497996464372">
        <ele>94.4</ele>
        <time>2025-02-04T09:14:05.374Z</time>
      </trkpt>
      <trkpt lat="58.845637952908874" lon="12.407599920406938">
        <ele>93.88</ele>
        <time>2025-02-04T09:14:23.345Z</time>
      </trkpt>
      <trkpt lat="58.84552697651088" lon="12.407740987837315">
        <ele>93.36</ele>
        <time>2025-02-04T09:14:41.318Z</time>
      </trkpt>
      <trkpt lat="58.84544198401272" lon="12.40792597644031">
        <ele>92.86</ele>
        <time>2025-02-04T09:14:59.293Z</time>
      </trkpt>
      <trkpt lat="58.845357997342944" lon="12.408121945336461">
        <ele>92.36</ele>
        <time>2025-02-04T09:15:17.270Z</time>
      </trkpt>
      <trkpt lat="58.84526294656098" lon="12.408327972516418">
        <ele>91.87</ele>
        <time>2025-02-04T09:15:35.249Z</time>
      </trkpt>
      <trkpt lat="58.84515398181975" lon="12.408514972776175">
        <ele>91.38</ele>
        <time>2025-02-04T09:15:53.231Z</time>
      </trkpt>
      <trkpt lat="58.84503294713795" lon="12.408662997186184">
        <ele>90.88</ele>
        <time>2025-02-04T09:16:11.215Z</time>
      </trkpt>
      <trkpt lat="58.844907972961664" lon="12.408755952492356">
        <ele>90.38</ele>
        <time>2025-02-04T09:16:29.201Z</time>
      </trkpt>
      <trkpt lat="58.844784926623106" lon="12.408799957484007">
        <ele>89.88</ele>
        <time>2025-02-04T09:16:47.189Z</time>
      </trkpt>
      <trkpt lat="58.84466699324548" lon="12.408806998282671">
        <ele>89.4</ele>
        <time>2025-02-04T09:17:05.179Z</time>
      </trkpt>
      <trkpt lat="58.8445399235934" lon="12.408786965534091">
        <ele>88.93</ele>
        <time>2025-02-04T09:17:23.171Z</time>
      </trkpt>
      <trkpt lat="58.84441897273064" lon="12.408749917522073">
        <ele>88.45</ele>
        <time>2025-02-04T09:17:41.165Z</time>
      </trkpt>
      <trkpt lat="58.84429793804884" lon="12.408711947500706">
        <ele>87.99</ele>
        <time>2025-02-04T09:17:59.161Z</time>
      </trkpt>
      <trkpt lat="58.844180926680565" lon="12.40869895555079">
        <ele>87.53</ele>
        <time>2025-02-04T09:18:17.159Z</time>
      </trkpt>
      <trkpt lat="58.844070956110954" lon="12.408736925572157">
        <ele>87.08</ele>
        <time>2025-02-04T09:18:35.159Z</time>
      </trkpt>
      <trkpt lat="58.843962997198105" lon="12.408809931948781">
        <ele>86.65</ele>
        <time>2025-02-04T09:18:53.160Z</time>
      </trkpt>
      <trkpt lat="58.843858977779746" lon="12.408896936103702">
        <ele>86.21</ele>
        <time>2025-02-04T09:19:11.163Z</time>
      </trkpt>
      <trkpt lat="58.84375395253301" lon="12.408962985500693">
        <ele>85.78</ele>
        <time>2025-02-04T09:19:29.168Z</time>
      </trkpt>
      <trkpt lat="58.84363492950797" lon="12.409007996320724">
        <ele>85.36</ele>
        <time>2025-02-04T09:19:47.175Z</time>
      </trkpt>
      <trkpt lat="58.843512972816825" lon="12.409045966342092">
        <ele>84.93</ele>
        <time>2025-02-04T09:20:05.184Z</time>
      </trkpt>
      <trkpt lat="58.84339093230665" lon="12.409102963283658">
        <ele>84.52</ele>
        <time>2025-02-04T09:20:23.195Z</time>
      </trkpt>
      <trkpt lat="58.84327392093837" lon="12.40917094051838">
        <ele>84.13</ele>
        <time>2025-02-04T09:20:41.208Z</time>
      </trkpt>
      <trkpt lat="58.84316596202552" lon="12.409228943288326">
        <ele>83.74</ele>
        <time>2025-02-04T09:20:59.223Z</time>
      </trkpt>
      <trkpt lat="58.843062948435545" lon="12.409244952723384">
        <ele>83.36</ele>
        <time>2025-02-04T09:21:17.239Z</time>
      </trkpt>
      <trkpt lat="58.842975944280624" lon="12.40919591858983">
        <ele>82.99</ele>
        <time>2025-02-04T09:21:35.257Z</time>
      </trkpt>
      <trkpt lat="58.842890951782465" lon="12.409115955233574">
        <ele>82.63</ele>
        <time>2025-02-04T09:21:53.276Z</time>
      </trkpt>
      <trkpt lat="58.84279891848564" lon="12.409021994099021">
        <ele>82.28</ele>
        <time>2025-02-04T09:22:11.297Z</time>
      </trkpt>
      <trkpt lat="58.84270193986595" lon="12.40893691778183">
        <ele>81.93</ele>
        <time>2025-02-04T09:22:29.320Z</time>
      </trkpt>
      <trkpt lat="58.842611918225884" lon="12.408858966082335">
        <ele>81.6</ele>
        <time>2025-02-04T09:22:47.344Z</time>
      </trkpt>
      <trkpt lat="58.84251996874809" lon="12.40878394804895">
        <ele>81.26</ele>
        <time>2025-02-04T09:23:05.370Z</time>
      </trkpt>
      <trkpt lat="58.84243095293641" lon="12.408709935843945">
        <ele>80.94</ele>
        <time>2025-02-04T09:23:23.398Z</time>
      </trkpt>
      <trkpt lat="58.84234696626663" lon="12.408644976094365">
        <ele>80.62</ele>
        <time>2025-02-04T09:23:41.427Z</time>
      </trkpt>
      <trkpt lat="58.842266919091344" lon="12.408576998859644">
        <ele>80.31</ele>
        <time>2025-02-04T09:23:59.457Z</time>
      </trkpt>
      <trkpt lat="58.84218796156347" lon="12.408497957512736">
        <ele>80.01</ele>
        <time>2025-02-04T09:24:17.489Z</time>
      </trkpt>
      <trkpt lat="58.842091988772154" lon="12.408432997763157">
        <ele>79.72</ele>
        <time>2025-02-04T09:24:35.522Z</time>
      </trkpt>
      <trkpt lat="58.841989981010556" lon="12.408381951972842">
        <ele>79.45</ele>
        <time>2025-02-04T09:24:53.557Z</time>
      </trkpt>
      <trkpt lat="58.84187892079353" lon="12.40835395641625">
        <ele>79.19</ele>
        <time>2025-02-04T09:25:11.594Z</time>
      </trkpt>
      <trkpt lat="58.84176693856716" lon="12.408350938931108">
        <ele>78.94</ele>
        <time>2025-02-04T09:25:29.633Z</time>
      </trkpt>
      <trkpt lat="58.84165193885565" lon="12.408365942537785">
        <ele>78.71</ele>
        <time>2025-02-04T09:25:47.674Z</time>
      </trkpt>
      <trkpt lat="58.84154599159956" lon="12.408404918387532">
        <ele>78.49</ele>
        <time>2025-02-04T09:26:05.716Z</time>
      </trkpt>
      <trkpt lat="58.84144792333245" lon="12.40846292115748">
        <ele>78.25</ele>
        <time>2025-02-04T09:26:23.760Z</time>
      </trkpt>
      <trkpt lat="58.84137491695583" lon="12.40852796472609">
        <ele>78.03</ele>
        <time>2025-02-04T09:26:41.805Z</time>
      </trkpt>
      <trkpt lat="58.841303922235966" lon="12.408595941960812">
        <ele>77.8</ele>
        <time>2025-02-04T09:26:59.852Z</time>
      </trkpt>
      <trkpt lat="58.841238962486386" lon="12.408660985529423">
        <ele>77.59</ele>
        <time>2025-02-04T09:27:17.900Z</time>
      </trkpt>
      <trkpt lat="58.841175930574536" lon="12.40871898829937">
        <ele>77.38</ele>
        <time>2025-02-04T09:27:35.949Z</time>
      </trkpt>
      <trkpt lat="58.84111197665334" lon="12.408766932785511">
        <ele>77.17</ele>
        <time>2025-02-04T09:27:53.999Z</time>
      </trkpt>
      <trkpt lat="58.84105095639825" lon="12.4088089261204">
        <ele>76.98</ele>
        <time>2025-02-04T09:28:12.050Z</time>
      </trkpt>
      <trkpt lat="58.84099094197154" lon="12.408843962475657">
        <ele>76.8</ele>
        <time>2025-02-04T09:28:30.102Z</time>
      </trkpt>
      <trkpt lat="58.84092698805034" lon="12.40887195803225">
        <ele>76.63</ele>
        <time>2025-02-04T09:28:48.155Z</time>
      </trkpt>
      <trkpt lat="58.84085993282497" lon="12.40889492444694">
        <ele>76.47</ele>
        <time>2025-02-04T09:29:06.209Z</time>
      </trkpt>
      <trkpt lat="58.840786926448345" lon="12.40891395136714">
        <ele>76.31</ele>
        <time>2025-02-04T09:29:24.264Z</time>
      </trkpt>
      <trkpt lat="58.84071593172848" lon="12.408925937488675">
        <ele>76.16</ele>
        <time>2025-02-04T09:29:42.320Z</time>
      </trkpt>
      <trkpt lat="58.840635968372226" lon="12.408929960802197">
        <ele>76.02</ele>
        <time>2025-02-04T09:30:00.378Z</time>
      </trkpt>
      <trkpt lat="58.84055893868208" lon="12.40893792361021">
        <ele>75.88</ele>
        <time>2025-02-04T09:30:18.437Z</time>
      </trkpt>
      <trkpt lat="58.8404889497906" lon="12.40893691778183">
        <ele>75.76</ele>
        <time>2025-02-04T09:30:36.497Z</time>
      </trkpt>
      <trkpt lat="58.840418960899115" lon="12.408935995772481">
        <ele>75.64</ele>
        <time>2025-02-04T09:30:54.558Z</time>
      </trkpt>
      <trkpt lat="58.84034696035087" lon="12.408939935266972">
        <ele>75.53</ele>
        <time>2025-02-04T09:31:12.620Z</time>
      </trkpt>
      <trkpt lat="58.840269930660725" lon="12.408946976065636">
        <ele>75.42</ele>
        <time>2025-02-04T09:31:30.684Z</time>
      </trkpt>
      <trkpt lat="58.84018192067742" lon="12.408960973843932">
        <ele>75.32</ele>
        <time>2025-02-04T09:31:48.749Z</time>
      </trkpt>
      <trkpt lat="58.84008997119963" lon="12.408984946087003">
        <ele>75.24</ele>
        <time>2025-02-04T09:32:06.815Z</time>
      </trkpt>
      <trkpt lat="58.84000095538795" lon="12.40902392193675">
        <ele>75.16</ele>
        <time>2025-02-04T09:32:24.883Z</time>
      </trkpt>
      <trkpt lat="58.83991797454655" lon="12.409077985212207">
        <ele>75.09</ele>
        <time>2025-02-04T09:32:42.952Z</time>
      </trkpt>
      <trkpt lat="58.83984396234155" lon="12.409135987982154">
        <ele>75.02</ele>
        <time>2025-02-04T09:33:01.023Z</time>
      </trkpt>
      <trkpt lat="58.83976995013654" lon="12.409196924418211">
        <ele>74.96</ele>
        <time>2025-02-04T09:33:19.095Z</time>
      </trkpt>
      <trkpt lat="58.83969593793154" lon="12.40925693884492">
        <ele>74.91</ele>
        <time>2025-02-04T09:33:37.168Z</time>
      </trkpt>
      <trkpt lat="58.839627960696816" lon="12.409310918301344">
        <ele>74.86</ele>
        <time>2025-02-04T09:33:55.242Z</time>
      </trkpt>
      <trkpt lat="58.839562917128205" lon="12.409361964091659">
        <ele>74.82</ele>
        <time>2025-02-04T09:34:13.318Z</time>
      </trkpt>
      <trkpt lat="58.83949091657996" lon="12.409404963254929">
        <ele>74.79</ele>
        <time>2025-02-04T09:34:31.395Z</time>
      </trkpt>
      <trkpt lat="58.83942092768848" lon="12.409438993781805">
        <ele>74.76</ele>
        <time>2025-02-04T09:34:49.473Z</time>
      </trkpt>
      <trkpt lat="58.83935194462538" lon="12.40947294048965">
        <ele>74.74</ele>
        <time>2025-02-04T09:35:07.552Z</time>
      </trkpt>
      <trkpt lat="58.83928597904742" lon="12.409503953531384">
        <ele>74.73</ele>
        <time>2025-02-04T09:35:25.632Z</time>
      </trkpt>
      <trkpt lat="58.839218923822045" lon="12.409540917724371">
        <ele>74.73</ele>
        <time>2025-02-04T09:35:43.713Z</time>
      </trkpt>
      <trkpt lat="58.839151952415705" lon="12.409573942422867">
        <ele>74.74</ele>
        <time>2025-02-04T09:36:01.795Z</time>
      </trkpt>
      <trkpt lat="58.839084981009364" lon="12.40960193797946">
        <ele>74.75</ele>
        <time>2025-02-04T09:36:19.878Z</time>
      </trkpt>
      <trkpt lat="58.83901691995561" lon="12.409633956849575">
        <ele>74.77</ele>
        <time>2025-02-04T09:36:37.963Z</time>
      </trkpt>
      <trkpt lat="58.83894994854927" lon="12.409662958234549">
        <ele>74.8</ele>
        <time>2025-02-04T09:36:56.049Z</time>
      </trkpt>
      <trkpt lat="58.83888398297131" lon="12.409692965447903">
        <ele>74.83</ele>
        <time>2025-02-04T09:37:14.136Z</time>
      </trkpt>
      <trkpt lat="58.83881994523108" lon="12.409723978489637">
        <ele>74.87</ele>
        <time>2025-02-04T09:37:32.224Z</time>
      </trkpt>
      <trkpt lat="58.83875599130988" lon="12.409754991531372">
        <ele>74.91</ele>
        <time>2025-02-04T09:37:50.313Z</time>
      </trkpt>
      <trkpt lat="58.83868994191289" lon="12.409778963774443">
        <ele>74.95</ele>
        <time>2025-02-04T09:38:08.403Z</time>
      </trkpt>
      <trkpt lat="58.838615929707885" lon="12.409805953502655">
        <ele>75.0</ele>
        <time>2025-02-04T09:38:26.494Z</time>
      </trkpt>
      <trkpt lat="58.83853797800839" lon="12.409830931574106">
        <ele>75.06</ele>
        <time>2025-02-04T09:38:44.586Z</time>
      </trkpt>
      <trkpt lat="58.838463965803385" lon="12.409844929352403">
        <ele>75.12</ele>
        <time>2025-02-04T09:39:02.680Z</time>
      </trkpt>
      <trkpt lat="58.838398922234774" lon="12.409849958494306">
        <ele>75.18</ele>
        <time>2025-02-04T09:39:20.775Z</time>
      </trkpt>
      <trkpt lat="58.83832692168653" lon="12.40985993295908">
        <ele>75.24</ele>
        <time>2025-02-04T09:39:38.871Z</time>
      </trkpt>
      <trkpt lat="58.83825995028019" lon="12.409864962100983">
        <ele>75.31</ele>
        <time>2025-02-04T09:39:56.968Z</time>
      </trkpt>
      <trkpt lat="58.83819499053061" lon="12.409866973757744">
        <ele>75.39</ele>
        <time>2025-02-04T09:40:15.066Z</time>
      </trkpt>
      <trkpt lat="58.8381349761039" lon="12.40985993295908">
        <ele>75.47</ele>
        <time>2025-02-04T09:40:33.165Z</time>
      </trkpt>
      <trkpt lat="58.83808393031359" lon="12.40985599346459">
        <ele>75.55</ele>
        <time>2025-02-04T09:40:51.265Z</time>
      </trkpt>
      <trkpt lat="58.83803095668554" lon="12.409840989857912">
        <ele>75.64</ele>
        <time>2025-02-04T09:41:09.366Z</time>
      </trkpt>
      <trkpt lat="58.8379779830575" lon="12.409834954887629">
        <ele>75.73</ele>
        <time>2025-02-04T09:41:27.467Z</time>
      </trkpt>
      <trkpt lat="58.83792492561042" lon="12.409847946837544">
        <ele>75.82</ele>
        <time>2025-02-04T09:41:45.569Z</time>
      </trkpt>
      <trkpt lat="58.83787798695266" lon="12.40985699929297">
        <ele>75.91</ele>
        <time>2025-02-04T09:42:03.672Z</time>
      </trkpt>
      <trkpt lat="58.83782794699073" lon="12.409877954050899">
        <ele>76.01</ele>
        <time>2025-02-04T09:42:21.776Z</time>
      </trkpt>
      <trkpt lat="58.837780924513936" lon="12.40989899262786">
        <ele>76.11</ele>
        <time>2025-02-04T09:42:39.881Z</time>
      </trkpt>
      <trkpt lat="58.83773993700743" lon="12.40992195904255">
        <ele>76.21</ele>
        <time>2025-02-04T09:42:57.986Z</time>
      </trkpt>
      <trkpt lat="58.8376999553293" lon="12.40994199179113">
        <ele>76.32</ele>
        <time>2025-02-04T09:43:16.092Z</time>
      </trkpt>
      <trkpt lat="58.83765896782279" lon="12.409958923235536">
        <ele>76.42</ele>
        <time>2025-02-04T09:43:34.199Z</time>
      </trkpt>
      <trkpt lat="58.83761999197304" lon="12.409974932670593">
        <ele>76.53</ele>
        <time>2025-02-04T09:43:52.306Z</time>
      </trkpt>
      <trkpt lat="58.837581938132644" lon="12.409996977075934">
        <ele>76.65</ele>
        <time>2025-02-04T09:44:10.414Z</time>
      </trkpt>
      <trkpt lat="58.837542962282896" lon="12.410011980682611">
        <ele>76.76</ele>
        <time>2025-02-04T09:44:28.523Z</time>
      </trkpt>
      <trkpt lat="58.83750599808991" lon="12.410021955147386">
        <ele>76.87</ele>
        <time>2025-02-04T09:44:46.632Z</time>
      </trkpt>
      <trkpt lat="58.83746492676437" lon="12.410025978460908">
        <ele>76.99</ele>
        <time>2025-02-04T09:45:04.742Z</time>
      </trkpt>
      <trkpt lat="58.83741999976337" lon="12.410027990117669">
        <ele>77.11</ele>
        <time>2025-02-04T09:45:22.853Z</time>
      </trkpt>
      <trkpt lat="58.83737297728658" lon="12.410023966804147">
        <ele>77.23</ele>
        <time>2025-02-04T09:45:40.964Z</time>
      </trkpt>
      <trkpt lat="58.837323943153024" lon="12.410016926005483">
        <ele>77.36</ele>
        <time>2025-02-04T09:45:59.076Z</time>
      </trkpt>
      <trkpt lat="58.83727197535336" lon="12.409997982904315">
        <ele>77.48</ele>
        <time>2025-02-04T09:46:17.189Z</time>
      </trkpt>
      <trkpt lat="58.837218917906284" lon="12.409976944327354">
        <ele>77.6</ele>
        <time>2025-02-04T09:46:35.303Z</time>
      </trkpt>
      <trkpt lat="58.837174996733665" lon="12.409938974305987">
        <ele>77.73</ele>
        <time>2025-02-04T09:46:53.418Z</time>
      </trkpt>
      <trkpt lat="58.83713694289327" lon="12.409897986799479">
        <ele>77.85</ele>
        <time>2025-02-04T09:47:11.533Z</time>
      </trkpt>
      <trkpt lat="58.83710693567991" lon="12.409851970151067">
        <ele>77.98</ele>
        <time>2025-02-04T09:47:29.649Z</time>
      </trkpt>
      <trkpt lat="58.837067959830165" lon="12.409813916310668">
        <ele>78.1</ele>
        <time>2025-02-04T09:47:47.766Z</time>
      </trkpt>
      <trkpt lat="58.83701398037374" lon="12.409777957946062">
        <ele>78.23</ele>
        <time>2025-02-04T09:48:05.884Z</time>
      </trkpt>
      <trkpt lat="58.836962934583426" lon="12.409745939075947">
        <ele>78.36</ele>
        <time>2025-02-04T09:48:24.002Z</time>
      </trkpt>
      <trkpt lat="58.83690199814737" lon="12.409727917984128">
        <ele>78.5</ele>
        <time>2025-02-04T09:48:42.121Z</time>
      </trkpt>
      <trkpt lat="58.83684097789228" lon="12.409716937690973">
        <ele>78.63</ele>
        <time>2025-02-04T09:49:00.241Z</time>
      </trkpt>
      <trkpt lat="58.83677392266691" lon="12.409713920205832">
        <ele>78.76</ele>
        <time>2025-02-04T09:49:18.362Z</time>
      </trkpt>
      <trkpt lat="58.83671097457409" lon="12.409713920205832">
        <ele>78.89</ele>
        <time>2025-02-04T09:49:36.484Z</time>
      </trkpt>
      <trkpt lat="58.83664693683386" lon="12.409717943519354">
        <ele>79.02</ele>
        <time>2025-02-04T09:49:54.607Z</time>
      </trkpt>
      <trkpt lat="58.83658499456942" lon="12.40970796905458">
        <ele>79.15</ele>
        <time>2025-02-04T09:50:12.731Z</time>
      </trkpt>
      <trkpt lat="58.83651793934405" lon="12.40970897488296">
        <ele>79.28</ele>
        <time>2025-02-04T09:50:30.857Z</time>
      </trkpt>
      <trkpt lat="58.83643495850265" lon="12.409725990146399">
        <ele>79.4</ele>
        <time>2025-02-04T09:50:48.984Z</time>
      </trkpt>
      <trkpt lat="58.83635197766125" lon="12.409734958782792">
        <ele>79.53</ele>
        <time>2025-02-04T09:51:07.112Z</time>
      </trkpt>
      <trkpt lat="58.83626095019281" lon="12.40973194129765">
        <ele>79.66</ele>
        <time>2025-02-04T09:51:25.242Z</time>
      </trkpt>
      <trkpt lat="58.83616095408797" lon="12.409710986539721">
        <ele>79.78</ele>
        <time>2025-02-04T09:51:43.373Z</time>
      </trkpt>
      <trkpt lat="58.836057940497994" lon="12.409680979326367">
        <ele>79.9</ele>
        <time>2025-02-04T09:52:01.506Z</time>
      </trkpt>
      <trkpt lat="58.83595299907029" lon="12.409650972113013">
        <ele>80.02</ele>
        <time>2025-02-04T09:52:19.641Z</time>
      </trkpt>
      <trkpt lat="58.83585593663156" lon="12.409624988213181">
        <ele>80.14</ele>
        <time>2025-02-04T09:52:37.777Z</time>
      </trkpt>
      <trkpt lat="58.83576197549701" lon="12.40960193797946">
        <ele>80.26</ele>
        <time>2025-02-04T09:52:55.915Z</time>
      </trkpt>
      <trkpt lat="58.835671953856945" lon="12.409575954079628">
        <ele>80.38</ele>
        <time>2025-02-04T09:53:14.054Z</time>
      </trkpt>
      <trkpt lat="58.83557698689401" lon="12.409553993493319">
        <ele>80.5</ele>
        <time>2025-02-04T09:53:32.195Z</time>
      </trkpt>
      <trkpt lat="58.83548897691071" lon="12.4095359724015">
        <ele>80.61</ele>
        <time>2025-02-04T09:53:50.337Z</time>
      </trkpt>
      <trkpt lat="58.83540297858417" lon="12.409518957138062">
        <ele>80.73</ele>
        <time>2025-02-04T09:54:08.481Z</time>
      </trkpt>
      <trkpt lat="58.83531698025763" lon="12.409502947703004">
        <ele>80.84</ele>
        <time>2025-02-04T09:54:26.626Z</time>
      </trkpt>
      <trkpt lat="58.83523399941623" lon="12.40949196740985">
        <ele>80.96</ele>
        <time>2025-02-04T09:54:44.772Z</time>
      </trkpt>
      <trkpt lat="58.835157975554466" lon="12.409519962966442">
        <ele>81.07</ele>
        <time>2025-02-04T09:55:02.920Z</time>
      </trkpt>
      <trkpt lat="58.835091926157475" lon="12.409594980999827">
        <ele>81.17</ele>
        <time>2025-02-04T09:55:21.069Z</time>
      </trkpt>
      <trkpt lat="58.83503291755915" lon="12.409692965447903">
        <ele>81.27</ele>
        <time>2025-02-04T09:55:39.219Z</time>
      </trkpt>
      <trkpt lat="58.83497692644596" lon="12.409787932410836">
        <ele>81.37</ele>
        <time>2025-02-04T09:55:57.370Z</time>
      </trkpt>
      <trkpt lat="58.834918923676014" lon="12.409883989021182">
        <ele>81.46</ele>
        <time>2025-02-04T09:56:15.522Z</time>
      </trkpt>
      <trkpt lat="58.834856981411576" lon="12.409972921013832">
        <ele>81.55</ele>
        <time>2025-02-04T09:56:33.676Z</time>
      </trkpt>
      <trkpt lat="58.83479596115649" lon="12.410066965967417">
        <ele>81.65</ele>
        <time>2025-02-04T09:56:51.831Z</time>
      </trkpt>
      <trkpt lat="58.83474592119455" lon="12.410165956243873">
        <ele>81.73</ele>
        <time>2025-02-04T09:57:09.987Z</time>
      </trkpt>
      <trkpt lat="58.834705939516425" lon="12.410278944298625">
        <ele>81.82</ele>
        <time>2025-02-04T09:57:28.144Z</time>
      </trkpt>
      <trkpt lat="58.83468699641526" lon="12.410407941788435">
        <ele>81.9</ele>
        <time>2025-02-04T09:57:46.302Z</time>
      </trkpt>
      <trkpt lat="58.83467593230307" lon="12.410559989511967">
        <ele>81.99</ele>
        <time>2025-02-04T09:58:04.462Z</time>
      </trkpt>
      <trkpt lat="58.83466696366668" lon="12.41071698255837">
        <ele>82.07</ele>
        <time>2025-02-04T09:58:22.623Z</time>
      </trkpt>
      <trkpt lat="58.83465296588838" lon="12.410873975604773">
        <ele>82.16</ele>
        <time>2025-02-04T09:58:40.785Z</time>
      </trkpt>
      <trkpt lat="58.83462798781693" lon="12.411024933680892">
        <ele>82.24</ele>
        <time>2025-02-04T09:58:58.949Z</time>
      </trkpt>
      <trkpt lat="58.834595968946815" lon="12.411159966140985">
        <ele>82.31</ele>
        <time>2025-02-04T09:59:17.114Z</time>
      </trkpt>
      <trkpt lat="58.834555987268686" lon="12.41127597168088">
        <ele>82.38</ele>
        <time>2025-02-04T09:59:35.280Z</time>
      </trkpt>
      <trkpt lat="58.834508964791894" lon="12.411374961957335">
        <ele>82.44</ele>
        <time>2025-02-04T09:59:53.447Z</time>
      </trkpt>
      <trkpt lat="58.83445993065834" lon="12.411453919485211">
        <ele>82.51</ele>
        <time>2025-02-04T10:00:11.615Z</time>
      </trkpt>
      <trkpt lat="58.83440997451544" lon="12.411508988589048">
        <ele>82.57</ele>
        <time>2025-02-04T10:00:29.784Z</time>
      </trkpt>
      <trkpt lat="58.83435792289674" lon="12.411546958610415">
        <ele>82.63</ele>
        <time>2025-02-04T10:00:47.954Z</time>
      </trkpt>
      <trkpt lat="58.8343099784106" lon="12.41157797165215">
        <ele>82.68</ele>
        <time>2025-02-04T10:01:06.125Z</time>
      </trkpt>
      <trkpt lat="58.83426396176219" lon="12.411603955551982">
        <ele>82.72</ele>
        <time>2025-02-04T10:01:24.296Z</time>
      </trkpt>
      <trkpt lat="58.83422096259892" lon="12.411630945280194">
        <ele>82.77</ele>
        <time>2025-02-04T10:01:42.468Z</time>
      </trkpt>
      <trkpt lat="58.83417997509241" lon="12.411659946665168">
        <ele>82.81</ele>
        <time>2025-02-04T10:02:00.641Z</time>
      </trkpt>
      <trkpt lat="58.83414192125201" lon="12.411688948050141">
        <ele>82.84</ele>
        <time>2025-02-04T10:02:18.815Z</time>
      </trkpt>
      <trkpt lat="58.834104957059026" lon="12.411720966920257">
        <ele>82.87</ele>
        <time>2025-02-04T10:02:36.989Z</time>
      </trkpt>
      <trkpt lat="58.83406992070377" lon="12.411752985790372">
        <ele>82.9</ele>
        <time>2025-02-04T10:02:55.164Z</time>
      </trkpt>
      <trkpt lat="58.83403396233916" lon="12.411784920841455">
        <ele>82.93</ele>
        <time>2025-02-04T10:03:13.339Z</time>
      </trkpt>
      <trkpt lat="58.833995992317796" lon="12.411820963025093">
        <ele>82.95</ele>
        <time>2025-02-04T10:03:31.515Z</time>
      </trkpt>
      <trkpt lat="58.833953998982906" lon="12.41185893304646">
        <ele>82.97</ele>
        <time>2025-02-04T10:03:49.692Z</time>
      </trkpt>
      <trkpt lat="58.833907982334495" lon="12.411895981058478">
        <ele>82.98</ele>
        <time>2025-02-04T10:04:07.870Z</time>
      </trkpt>
      <trkpt lat="58.83385693654418" lon="12.411929927766323">
        <ele>82.99</ele>
        <time>2025-02-04T10:04:26.049Z</time>
      </trkpt>
      <trkpt lat="58.83379993960261" lon="12.411960940808058">
        <ele>83.0</ele>
        <time>2025-02-04T10:04:44.228Z</time>
      </trkpt>
      <trkpt lat="58.833739925175905" lon="12.41198793053627">
        <ele>83.0</ele>
        <time>2025-02-04T10:05:02.408Z</time>
      </trkpt>
      <trkpt lat="58.83367798291147" lon="12.412013998255134">
        <ele>82.99</ele>
        <time>2025-02-04T10:05:20.589Z</time>
      </trkpt>
      <trkpt lat="58.83361495099962" lon="12.412033947184682">
        <ele>82.99</ele>
        <time>2025-02-04T10:05:38.772Z</time>
      </trkpt>
      <trkpt lat="58.83355191908777" lon="12.412046939134598">
        <ele>82.97</ele>
        <time>2025-02-04T10:05:56.956Z</time>
      </trkpt>
      <trkpt lat="58.83349098265171" lon="12.412052974104881">
        <ele>82.96</ele>
        <time>2025-02-04T10:06:15.141Z</time>
      </trkpt>
      <trkpt lat="58.83342996239662" lon="12.412054985761642">
        <ele>82.94</ele>
        <time>2025-02-04T10:06:33.326Z</time>
      </trkpt>
      <trkpt lat="58.83336994796991" lon="12.41204995661974">
        <ele>82.91</ele>
        <time>2025-02-04T10:06:51.512Z</time>
      </trkpt>
      <trkpt lat="58.833307921886444" lon="12.412041993811727">
        <ele>82.87</ele>
        <time>2025-02-04T10:07:09.699Z</time>
      </trkpt>
      <trkpt lat="58.83324698545039" lon="12.41202699020505">
        <ele>82.83</ele>
        <time>2025-02-04T10:07:27.887Z</time>
      </trkpt>
      <trkpt lat="58.83318898268044" lon="12.412003939971328">
        <ele>82.79</ele>
        <time>2025-02-04T10:07:46.076Z</time>
      </trkpt>
      <trkpt lat="58.83312896825373" lon="12.411979967728257">
        <ele>82.74</ele>
        <time>2025-02-04T10:08:04.266Z</time>
      </trkpt>
      <trkpt lat="58.833070965483785" lon="12.411953983828425">
        <ele>82.68</ele>
        <time>2025-02-04T10:08:22.457Z</time>
      </trkpt>
      <trkpt lat="58.83301598019898" lon="12.411925988271832">
        <ele>82.62</ele>
        <time>2025-02-04T10:08:40.649Z</time>
      </trkpt>
      <trkpt lat="58.832966946065426" lon="12.411894975230098">
        <ele>82.56</ele>
        <time>2025-02-04T10:08:58.842Z</time>
      </trkpt>
      <trkpt lat="58.832920929417014" lon="12.411868991330266">
        <ele>82.49</ele>
        <time>2025-02-04T10:09:17.036Z</time>
      </trkpt>
      <trkpt lat="58.83287591859698" lon="12.411846946924925">
        <ele>82.42</ele>
        <time>2025-02-04T10:09:35.231Z</time>
      </trkpt>
      <trkpt lat="58.83283291943371" lon="12.411824986338615">
        <ele>82.34</ele>
        <time>2025-02-04T10:09:53.426Z</time>
      </trkpt>
      <trkpt lat="58.83278799243271" lon="12.411801936104894">
        <ele>82.26</ele>
        <time>2025-02-04T10:10:11.622Z</time>
      </trkpt>
      <trkpt lat="58.83273795247078" lon="12.411779975518584">
        <ele>82.17</ele>
        <time>2025-02-04T10:10:29.819Z</time>
      </trkpt>
      <trkpt lat="58.83268196135759" lon="12.411756925284863">
        <ele>82.08</ele>
        <time>2025-02-04T10:10:48.017Z</time>
      </trkpt>
      <trkpt lat="58.832618929445744" lon="12.411736976355314">
        <ele>81.98</ele>
        <time>2025-02-04T10:11:06.216Z</time>
      </trkpt>
      <trkpt lat="58.83254994638264" lon="12.411722978577018">
        <ele>81.88</ele>
        <time>2025-02-04T10:11:24.416Z</time>
      </trkpt>
      <trkpt lat="58.83247199468315" lon="12.411717949435115">
        <ele>81.78</ele>
        <time>2025-02-04T10:11:42.617Z</time>
      </trkpt>
      <trkpt lat="58.832384990528226" lon="12.411719961091876">
        <ele>81.67</ele>
        <time>2025-02-04T10:12:00.820Z</time>
      </trkpt>
      <trkpt lat="58.83229094557464" lon="12.411727923899889">
        <ele>81.56</ele>
        <time>2025-02-04T10:12:19.024Z</time>
      </trkpt>
      <trkpt lat="58.83219497278333" lon="12.411745944991708">
        <ele>81.45</ele>
        <time>2025-02-04T10:12:37.230Z</time>
      </trkpt>
      <trkpt lat="58.83209698833525" lon="12.411766983568668">
        <ele>81.34</ele>
        <time>2025-02-04T10:12:55.437Z</time>
      </trkpt>
      <trkpt lat="58.831997998058796" lon="12.411790955811739">
        <ele>81.22</ele>
        <time>2025-02-04T10:13:13.646Z</time>
      </trkpt>
      <trkpt lat="58.83189498446882" lon="12.4118119943887">
        <ele>81.1</ele>
        <time>2025-02-04T10:13:31.856Z</time>
      </trkpt>
      <trkpt lat="58.83178794756532" lon="12.411832949146628">
        <ele>80.97</ele>
        <time>2025-02-04T10:13:50.068Z</time>
      </trkpt>
      <trkpt lat="58.83167998865247" lon="12.41185893304646">
        <ele>80.84</ele>
        <time>2025-02-04T10:14:08.282Z</time>
      </trkpt>
      <trkpt lat="58.83157194592059" lon="12.411886928603053">
        <ele>80.71</ele>
        <time>2025-02-04T10:14:26.498Z</time>
      </trkpt>
      <trkpt lat="58.83146499283612" lon="12.411916935816407">
        <ele>80.57</ele>
        <time>2025-02-04T10:14:44.715Z</time>
      </trkpt>
      <trkpt lat="58.83135996758938" lon="12.411949960514903">
        <ele>80.43</ele>
        <time>2025-02-04T10:15:02.934Z</time>
      </trkpt>
      <trkpt lat="58.83125594817102" lon="12.41198893636465">
        <ele>80.28</ele>
        <time>2025-02-04T10:15:21.155Z</time>
      </trkpt>
      <trkpt lat="58.83115293458104" lon="12.412034953013062">
        <ele>80.13</ele>
        <time>2025-02-04T10:15:39.378Z</time>
      </trkpt>
      <trkpt lat="58.831052938476205" lon="12.412090944126248">
        <ele>79.98</ele>
        <time>2025-02-04T10:15:57.602Z</time>
      </trkpt>
      <trkpt lat="58.83095394819975" lon="12.412153976038098">
        <ele>79.81</ele>
        <time>2025-02-04T10:16:15.828Z</time>
      </trkpt>
      <trkpt lat="58.83086099289358" lon="12.412216924130917">
        <ele>79.65</ele>
        <time>2025-02-04T10:16:34.055Z</time>
      </trkpt>
      <trkpt lat="58.83076594211161" lon="12.412270987406373">
        <ele>79.5</ele>
        <time>2025-02-04T10:16:52.284Z</time>
      </trkpt>
      <trkpt lat="58.830621941015124" lon="12.412345921620727">
        <ele>79.33</ele>
        <time>2025-02-04T10:17:10.515Z</time>
      </trkpt>
      <trkpt lat="58.83047693409026" lon="12.412419933825731">
        <ele>79.16</ele>
        <time>2025-02-04T10:17:28.749Z</time>
      </trkpt>
      <trkpt lat="58.830383978784084" lon="12.41246092133224">
        <ele>78.99</ele>
        <time>2025-02-04T10:17:46.984Z</time>
      </trkpt>
      <trkpt lat="58.83029194548726" lon="12.41249998100102">
        <ele>78.82</ele>
        <time>2025-02-04T10:18:05.221Z</time>
      </trkpt>
      <trkpt lat="58.83019798435271" lon="12.412545997649431">
        <ele>78.65</ele>
        <time>2025-02-04T10:18:23.459Z</time>
      </trkpt>
      <trkpt lat="58.83010393939912" lon="12.412583967670798">
        <ele>78.47</ele>
        <time>2025-02-04T10:18:41.699Z</time>
      </trkpt>
      <trkpt lat="58.83000897243619" lon="12.412620931863785">
        <ele>78.29</ele>
        <time>2025-02-04T10:18:59.941Z</time>
      </trkpt>
      <trkpt lat="58.829911993816495" lon="12.412656974047422">
        <ele>78.11</ele>
        <time>2025-02-04T10:19:18.184Z</time>
      </trkpt>
      <trkpt lat="58.82981291972101" lon="12.412687987089157">
        <ele>77.92</ele>
        <time>2025-02-04T10:19:36.429Z</time>
      </trkpt>
      <trkpt lat="58.82971099577844" lon="12.412711959332228">
        <ele>77.73</ele>
        <time>2025-02-04T10:19:54.675Z</time>
      </trkpt>
      <trkpt lat="58.82960798218846" lon="12.412728974595666">
        <ele>77.54</ele>
        <time>2025-02-04T10:20:12.923Z</time>
      </trkpt>
      <trkpt lat="58.829504968598485" lon="12.412735931575298">
        <ele>77.35</ele>
        <time>2025-02-04T10:20:31.173Z</time>
      </trkpt>
      <trkpt lat="58.829398937523365" lon="12.412734925746918">
        <ele>77.15</ele>
        <time>2025-02-04T10:20:49.424Z</time>
      </trkpt>
      <trkpt lat="58.829290978610516" lon="12.412729980424047">
        <ele>76.96</ele>
        <time>2025-02-04T10:21:07.677Z</time>
      </trkpt>
      <trkpt lat="58.829181930050254" lon="12.412721933797002">
        <ele>76.76</ele>
        <time>2025-02-04T10:21:25.932Z</time>
      </trkpt>
      <trkpt lat="58.829074976965785" lon="12.41271497681737">
        <ele>76.56</ele>
        <time>2025-02-04T10:21:44.189Z</time>
      </trkpt>
      <trkpt lat="58.82896492257714" lon="12.412713970988989">
        <ele>76.36</ele>
        <time>2025-02-04T10:22:02.447Z</time>
      </trkpt>
      <trkpt lat="58.82885394617915" lon="12.41271698847413">
        <ele>76.16</ele>
        <time>2025-02-04T10:22:20.707Z</time>
      </trkpt>
      <trkpt lat="58.82874296978116" lon="12.412720927968621">
        <ele>75.97</ele>
        <time>2025-02-04T10:22:38.969Z</time>
      </trkpt>
      <trkpt lat="58.82863299921155" lon="12.412731992080808">
        <ele>75.77</ele>
        <time>2025-02-04T10:22:57.233Z</time>
      </trkpt>
      <trkpt lat="58.828520933166146" lon="12.412755964323878">
        <ele>75.58</ele>
        <time>2025-02-04T10:23:15.498Z</time>
      </trkpt>
      <trkpt lat="58.828410962596536" lon="12.412793934345245">
        <ele>75.39</ele>
        <time>2025-02-04T10:23:33.765Z</time>
      </trkpt>
      <trkpt lat="58.828303925693035" lon="12.412840956822038">
        <ele>75.19</ele>
        <time>2025-02-04T10:23:52.034Z</time>
      </trkpt>
      <trkpt lat="58.82825296372175" lon="12.412865934893489">
        <ele>75.0</ele>
        <time>2025-02-04T10:24:10.304Z</time>
      </trkpt>
      <trkpt lat="58.82820191793144" lon="12.412889990955591">
        <ele>74.81</ele>
        <time>2025-02-04T10:24:28.575Z</time>
      </trkpt>
      <trkpt lat="58.82809898816049" lon="12.412937935441732">
        <ele>74.62</ele>
        <time>2025-02-04T10:24:46.847Z</time>
      </trkpt>
      <trkpt lat="58.827998992055655" lon="12.412983952090144">
        <ele>74.43</ele>
        <time>2025-02-04T10:25:05.121Z</time>
      </trkpt>
      <trkpt lat="58.82789991796017" lon="12.413025945425034">
        <ele>74.24</ele>
        <time>2025-02-04T10:25:23.397Z</time>
      </trkpt>
      <trkpt lat="58.82780193351209" lon="12.413066932931542">
        <ele>74.05</ele>
        <time>2025-02-04T10:25:41.674Z</time>
      </trkpt>
      <trkpt lat="58.827702943235636" lon="12.413109932094812">
        <ele>73.87</ele>
        <time>2025-02-04T10:25:59.953Z</time>
      </trkpt>
      <trkpt lat="58.82760395295918" lon="12.413151925429702">
        <ele>73.69</ele>
        <time>2025-02-04T10:26:18.234Z</time>
      </trkpt>
      <trkpt lat="58.82750395685434" lon="12.413190985098481">
        <ele>73.51</ele>
        <time>2025-02-04T10:26:36.516Z</time>
      </trkpt>
      <trkpt lat="58.82740597240627" lon="12.41323197260499">
        <ele>73.33</ele>
        <time>2025-02-04T10:26:54.800Z</time>
      </trkpt>
      <trkpt lat="58.8273109216243" lon="12.413272960111499">
        <ele>73.16</ele>
        <time>2025-02-04T10:27:13.085Z</time>
      </trkpt>
      <trkpt lat="58.82721394300461" lon="12.41331696510315">
        <ele>72.99</ele>
        <time>2025-02-04T10:27:31.372Z</time>
      </trkpt>
      <trkpt lat="58.82711696438491" lon="12.413362981751561">
        <ele>72.81</ele>
        <time>2025-02-04T10:27:49.661Z</time>
      </trkpt>
      <trkpt lat="58.82701897993684" lon="12.413409920409322">
        <ele>72.64</ele>
        <time>2025-02-04T10:28:07.951Z</time>
      </trkpt>
      <trkpt lat="58.82691596634686" lon="12.413457948714495">
        <ele>72.48</ele>
        <time>2025-02-04T10:28:26.243Z</time>
      </trkpt>
      <trkpt lat="58.82680892944336" lon="12.413507988676429">
        <ele>72.31</ele>
        <time>2025-02-04T10:28:44.537Z</time>
      </trkpt>
      <trkpt lat="58.82669996470213" lon="12.413557944819331">
        <ele>72.15</ele>
        <time>2025-02-04T10:29:02.832Z</time>
      </trkpt>
      <trkpt lat="58.82658898830414" lon="12.413607984781265">
        <ele>71.99</ele>
        <time>2025-02-04T10:29:21.129Z</time>
      </trkpt>
      <trkpt lat="58.826477928087115" lon="12.413657940924168">
        <ele>71.84</ele>
        <time>2025-02-04T10:29:39.428Z</time>
      </trkpt>
      <trkpt lat="58.82636393420398" lon="12.41370395757258">
        <ele>71.69</ele>
        <time>2025-02-04T10:29:57.729Z</time>
      </trkpt>
      <trkpt lat="58.82624994032085" lon="12.41374896839261">
        <ele>71.55</ele>
        <time>2025-02-04T10:30:16.032Z</time>
      </trkpt>
      <trkpt lat="58.82613795809448" lon="12.413788950070739">
        <ele>71.41</ele>
        <time>2025-02-04T10:30:34.337Z</time>
      </trkpt>
      <trkpt lat="58.826023964211345" lon="12.413830943405628">
        <ele>71.27</ele>
        <time>2025-02-04T10:30:52.644Z</time>
      </trkpt>
      <trkpt lat="58.825914999470115" lon="12.41385399363935">
        <ele>71.14</ele>
        <time>2025-02-04T10:31:10.952Z</time>
      </trkpt>
      <trkpt lat="58.825809974223375" lon="12.413861956447363">
        <ele>71.03</ele>
        <time>2025-02-04T10:31:29.262Z</time>
      </trkpt>
      <trkpt lat="58.82571299560368" lon="12.41385793313384">
        <ele>70.92</ele>
        <time>2025-02-04T10:31:47.574Z</time>
      </trkpt>
      <trkpt lat="58.82562297396362" lon="12.413842929527164">
        <ele>70.8</ele>
        <time>2025-02-04T10:32:05.887Z</time>
      </trkpt>
      <trkpt lat="58.82553898729384" lon="12.413822980597615">
        <ele>70.69</ele>
        <time>2025-02-04T10:32:24.201Z</time>
      </trkpt>
      <trkpt lat="58.82546095177531" lon="12.413796996697783">
        <ele>70.57</ele>
        <time>2025-02-04T10:32:42.517Z</time>
      </trkpt>
      <trkpt lat="58.82538895122707" lon="12.41376799531281">
        <ele>70.46</ele>
        <time>2025-02-04T10:33:00.834Z</time>
      </trkpt>
      <trkpt lat="58.82532197982073" lon="12.413737988099456">
        <ele>70.35</ele>
        <time>2025-02-04T10:33:19.152Z</time>
      </trkpt>
      <trkpt lat="58.82525593042374" lon="12.413711920380592">
        <ele>70.25</ele>
        <time>2025-02-04T10:33:37.471Z</time>
      </trkpt>
      <trkpt lat="58.82519097067416" lon="12.413687948137522">
        <ele>70.14</ele>
        <time>2025-02-04T10:33:55.791Z</time>
      </trkpt>
      <trkpt lat="58.82513196207583" lon="12.41366095840931">
        <ele>70.04</ele>
        <time>2025-02-04T10:34:14.112Z</time>
      </trkpt>
      <trkpt lat="58.825075970962644" lon="12.413630951195955">
        <ele>69.95</ele>
        <time>2025-02-04T10:34:32.434Z</time>
      </trkpt>
      <trkpt lat="58.82502199150622" lon="12.413601949810982">
        <ele>69.85</ele>
        <time>2025-02-04T10:34:50.757Z</time>
      </trkpt>
      <trkpt lat="58.824969939887524" lon="12.41357596591115">
        <ele>69.76</ele>
        <time>2025-02-04T10:35:09.081Z</time>
      </trkpt>
      <trkpt lat="58.82491696625948" lon="12.41355199366808">
        <ele>69.67</ele>
        <time>2025-02-04T10:35:27.406Z</time>
      </trkpt>
      <trkpt lat="58.824861980974674" lon="12.413529949262738">
        <ele>69.59</ele>
        <time>2025-02-04T10:35:45.731Z</time>
      </trkpt>
      <trkpt lat="58.82480992935598" lon="12.413509916514158">
        <ele>69.52</ele>
        <time>2025-02-04T10:36:04.057Z</time>
      </trkpt>
      <trkpt lat="58.824756955727935" lon="12.413487955927849">
        <ele>69.44</ele>
        <time>2025-02-04T10:36:22.384Z</time>
      </trkpt>
      <trkpt lat="58.82470197044313" lon="12.413456942886114">
        <ele>69.37</ele>
        <time>2025-02-04T10:36:40.712Z</time>
      </trkpt>
      <trkpt lat="58.824645979329944" lon="12.413416961207986">
        <ele>69.3</ele>
        <time>2025-02-04T10:36:59.041Z</time>
      </trkpt>
      <trkpt lat="58.82458898238838" lon="12.413368932902813">
        <ele>69.23</ele>
        <time>2025-02-04T10:37:17.371Z</time>
      </trkpt>
      <trkpt lat="58.82453399710357" lon="12.413315959274769">
        <ele>69.17</ele>
        <time>2025-02-04T10:37:35.702Z</time>
      </trkpt>
      <trkpt lat="58.824477922171354" lon="12.413264997303486">
        <ele>69.11</ele>
        <time>2025-02-04T10:37:54.034Z</time>
      </trkpt>
      <trkpt lat="58.82442796602845" lon="12.413208922371268">
        <ele>69.06</ele>
        <time>2025-02-04T10:38:12.367Z</time>
      </trkpt>
      <trkpt lat="58.824389996007085" lon="12.413138933479786">
        <ele>69.01</ele>
        <time>2025-02-04T10:38:30.701Z</time>
      </trkpt>
      <trkpt lat="58.82436694577336" lon="12.413053940981627">
        <ele>68.97</ele>
        <time>2025-02-04T10:38:49.036Z</time>
      </trkpt>
      <trkpt lat="58.82435797713697" lon="12.412955956533551">
        <ele>68.93</ele>
        <time>2025-02-04T10:39:07.371Z</time>
      </trkpt>
      <trkpt lat="58.82435495965183" lon="12.412856966257095">
        <ele>68.9</ele>
        <time>2025-02-04T10:39:25.707Z</time>
      </trkpt>
      <trkpt lat="58.824348924681544" lon="12.412760993465781">
        <ele>68.87</ele>
        <time>2025-02-04T10:39:44.044Z</time>
      </trkpt>
      <trkpt lat="58.82433794438839" lon="12.412667954340577">
        <ele>68.86</ele>
        <time>2025-02-04T10:40:02.382Z</time>
      </trkpt>
      <trkpt lat="58.824325958266854" lon="12.412576926872134">
        <ele>68.85</ele>
        <time>2025-02-04T10:40:20.721Z</time>
      </trkpt>
      <trkpt lat="58.82431095466018" lon="12.412487994879484">
        <ele>68.84</ele>
        <time>2025-02-04T10:40:39.060Z</time>
      </trkpt>
      <trkpt lat="58.82429393939674" lon="12.412404930219054">
        <ele>68.84</ele>
        <time>2025-02-04T10:40:57.400Z</time>
      </trkpt>
      <trkpt lat="58.82427298463881" lon="12.41232899017632">
        <ele>68.85</ele>
        <time>2025-02-04T10:41:15.741Z</time>
      </trkpt>
      <trkpt lat="58.82424993440509" lon="12.412257995456457">
        <ele>68.86</ele>
        <time>2025-02-04T10:41:34.083Z</time>
      </trkpt>
      <trkpt lat="58.82422495633364" lon="12.412188928574324">
        <ele>68.87</ele>
        <time>2025-02-04T10:41:52.425Z</time>
      </trkpt>
      <trkpt lat="58.824199978262186" lon="12.412122962996364">
        <ele>68.89</ele>
        <time>2025-02-04T10:42:10.768Z</time>
      </trkpt>
      <trkpt lat="58.824173994362354" lon="12.412067977711558">
        <ele>68.92</ele>
        <time>2025-02-04T10:42:29.112Z</time>
      </trkpt>
      <trkpt lat="58.82414499297738" lon="12.412021961063147">
        <ele>68.95</ele>
        <time>2025-02-04T10:42:47.456Z</time>
      </trkpt>
      <trkpt lat="58.82411699742079" lon="12.411980973556638">
        <ele>68.98</ele>
        <time>2025-02-04T10:43:05.801Z</time>
      </trkpt>
      <trkpt lat="58.824090929701924" lon="12.411938980221748">
        <ele>69.02</ele>
        <time>2025-02-04T10:43:24.146Z</time>
      </trkpt>
      <trkpt lat="58.82406595163047" lon="12.411894975230098">
        <ele>69.06</ele>
        <time>2025-02-04T10:43:42.492Z</time>
      </trkpt>
      <trkpt lat="58.8240419793874" lon="12.41185599938035">
        <ele>69.11</ele>
        <time>2025-02-04T10:44:00.838Z</time>
      </trkpt>
      <trkpt lat="58.82401599548757" lon="12.411821968853474">
        <ele>69.16</ele>
        <time>2025-02-04T10:44:19.185Z</time>
      </trkpt>
      <trkpt lat="58.82399093359709" lon="12.411787938326597">
        <ele>69.22</ele>
        <time>2025-02-04T10:44:37.532Z</time>
      </trkpt>
      <trkpt lat="58.823962938040495" lon="12.411752985790372">
        <ele>69.28</ele>
        <time>2025-02-04T10:44:55.880Z</time>
      </trkpt>
      <trkpt lat="58.82392999716103" lon="12.411719961091876">
        <ele>69.34</ele>
        <time>2025-02-04T10:45:14.228Z</time>
      </trkpt>
      <trkpt lat="58.82389395497739" lon="12.411689953878522">
        <ele>69.41</ele>
        <time>2025-02-04T10:45:32.577Z</time>
      </trkpt>
      <trkpt lat="58.82385699078441" lon="12.411656929180026">
        <ele>69.49</ele>
        <time>2025-02-04T10:45:50.927Z</time>
      </trkpt>
      <trkpt lat="58.823815919458866" lon="12.411624994128942">
        <ele>69.57</ele>
        <time>2025-02-04T10:46:09.277Z</time>
      </trkpt>
      <trkpt lat="58.82377593778074" lon="12.411591969430447">
        <ele>69.65</ele>
        <time>2025-02-04T10:46:27.628Z</time>
      </trkpt>
      <trkpt lat="58.82373595610261" lon="12.41155793890357">
        <ele>69.73</ele>
        <time>2025-02-04T10:46:45.980Z</time>
      </trkpt>
      <trkpt lat="58.82369899190962" lon="12.411520974710584">
        <ele>69.82</ele>
        <time>2025-02-04T10:47:04.333Z</time>
      </trkpt>
      <trkpt lat="58.82366496138275" lon="12.411481998860836">
        <ele>69.91</ele>
        <time>2025-02-04T10:47:22.686Z</time>
      </trkpt>
      <trkpt lat="58.82362891919911" lon="12.41144796833396">
        <ele>70.0</ele>
        <time>2025-02-04T10:47:41.040Z</time>
      </trkpt>
      <trkpt lat="58.823596984148026" lon="12.411416955292225">
        <ele>70.1</ele>
        <time>2025-02-04T10:47:59.394Z</time>
      </trkpt>
      <trkpt lat="58.8235879316926" lon="12.411376973614097">
        <ele>70.21</ele>
        <time>2025-02-04T10:48:17.749Z</time>
      </trkpt>
      <trkpt lat="58.823573933914304" lon="12.411337997764349">
        <ele>70.31</ele>
        <time>2025-02-04T10:48:36.104Z</time>
      </trkpt>
      <trkpt lat="58.82354493252933" lon="12.411303967237473">
        <ele>70.42</ele>
        <time>2025-02-04T10:48:54.460Z</time>
      </trkpt>
      <trkpt lat="58.823513919487596" lon="12.411268930882215">
        <ele>70.54</ele>
        <time>2025-02-04T10:49:12.816Z</time>
      </trkpt>
      <trkpt lat="58.82348399609327" lon="12.411229955032468">
        <ele>70.66</ele>
        <time>2025-02-04T10:49:31.173Z</time>
      </trkpt>
      <trkpt lat="58.82345692254603" lon="12.411186955869198">
        <ele>70.78</ele>
        <time>2025-02-04T10:49:49.530Z</time>
      </trkpt>
      <trkpt lat="58.82342699915171" lon="12.411140939220786">
        <ele>70.9</ele>
        <time>2025-02-04T10:50:07.888Z</time>
      </trkpt>
      <trkpt lat="58.82339799776673" lon="12.411092994734645">
        <ele>71.03</ele>
        <time>2025-02-04T10:50:26.247Z</time>
      </trkpt>
      <trkpt lat="58.82336991839111" lon="12.411047983914614">
        <ele>71.17</ele>
        <time>2025-02-04T10:50:44.606Z</time>
      </trkpt>
      <trkpt lat="58.823342928662896" lon="12.411002973094583">
        <ele>71.3</ele>
        <time>2025-02-04T10:51:02.966Z</time>
      </trkpt>
      <trkpt lat="58.823315938934684" lon="12.410959973931313">
        <ele>71.44</ele>
        <time>2025-02-04T10:51:21.326Z</time>
      </trkpt>
      <trkpt lat="58.82328894920647" lon="12.410919992253184">
        <ele>71.59</ele>
        <time>2025-02-04T10:51:39.687Z</time>
      </trkpt>
      <trkpt lat="58.82326095364988" lon="12.410876993089914">
        <ele>71.73</ele>
        <time>2025-02-04T10:51:58.048Z</time>
      </trkpt>
      <trkpt lat="58.823233963921666" lon="12.410834999755025">
        <ele>71.88</ele>
        <time>2025-02-04T10:52:16.410Z</time>
      </trkpt>
      <trkpt lat="58.823206974193454" lon="12.410789988934994">
        <ele>72.03</ele>
        <time>2025-02-04T10:52:34.773Z</time>
      </trkpt>
      <trkpt lat="58.82317998446524" lon="12.410745983943343">
        <ele>72.19</ele>
        <time>2025-02-04T10:52:53.136Z</time>
      </trkpt>
      <trkpt lat="58.82315299473703" lon="12.410701978951693">
        <ele>72.35</ele>
        <time>2025-02-04T10:53:11.500Z</time>
      </trkpt>
      <trkpt lat="58.823123993352056" lon="12.410656968131661">
        <ele>72.51</ele>
        <time>2025-02-04T10:53:29.864Z</time>
      </trkpt>
      <trkpt lat="58.82309792563319" lon="12.41061095148325">
        <ele>72.68</ele>
        <time>2025-02-04T10:53:48.229Z</time>
      </trkpt>
      <trkpt lat="58.8230699300766" lon="12.410561917349696">
        <ele>72.85</ele>
        <time>2025-02-04T10:54:06.594Z</time>
      </trkpt>
      <trkpt lat="58.82304495200515" lon="12.410510955378413">
        <ele>73.02</ele>
        <time>2025-02-04T10:54:24.960Z</time>
      </trkpt>
      <trkpt lat="58.823016956448555" lon="12.41045999340713">
        <ele>73.2</ele>
        <time>2025-02-04T10:54:43.327Z</time>
      </trkpt>
      <trkpt lat="58.82298896089196" lon="12.410410959273577">
        <ele>73.38</ele>
        <time>2025-02-04T10:55:01.694Z</time>
      </trkpt>
      <trkpt lat="58.82296197116375" lon="12.410359997302294">
        <ele>73.56</ele>
        <time>2025-02-04T10:55:20.062Z</time>
      </trkpt>
      <trkpt lat="58.82293498143554" lon="12.41030995734036">
        <ele>73.74</ele>
        <time>2025-02-04T10:55:38.431Z</time>
      </trkpt>
      <trkpt lat="58.822905980050564" lon="12.410260923206806">
        <ele>73.93</ele>
        <time>2025-02-04T10:55:56.800Z</time>
      </trkpt>
      <trkpt lat="58.82287798449397" lon="12.410212978720665">
        <ele>74.12</ele>
        <time>2025-02-04T10:56:15.170Z</time>
      </trkpt>
      <trkpt lat="58.822846971452236" lon="12.410165956243873">
        <ele>74.31</ele>
        <time>2025-02-04T10:56:33.540Z</time>
      </trkpt>
      <trkpt lat="58.82281495258212" lon="12.41011893376708">
        <ele>74.51</ele>
        <time>2025-02-04T10:56:51.911Z</time>
      </trkpt>
      <trkpt lat="58.822781927883625" lon="12.41007593460381">
        <ele>74.7</ele>
        <time>2025-02-04T10:57:10.283Z</time>
      </trkpt>
      <trkpt lat="58.82274999283254" lon="12.410034947097301">
        <ele>74.9</ele>
        <time>2025-02-04T10:57:28.655Z</time>
      </trkpt>
      <trkpt lat="58.822715962305665" lon="12.409992953762412">
        <ele>75.1</ele>
        <time>2025-02-04T10:57:47.028Z</time>
      </trkpt>
      <trkpt lat="58.82266793400049" lon="12.409955989569426">
        <ele>75.31</ele>
        <time>2025-02-04T10:58:05.402Z</time>
      </trkpt>
      <trkpt lat="58.822611942887306" lon="12.40992397069931">
        <ele>75.52</ele>
        <time>2025-02-04T10:58:23.777Z</time>
      </trkpt>
      <trkpt lat="58.822565926238894" lon="12.409887928515673">
        <ele>75.72</ele>
        <time>2025-02-04T10:58:42.152Z</time>
      </trkpt>
      <trkpt lat="58.82253298535943" lon="12.409845935180783">
        <ele>75.93</ele>
        <time>2025-02-04T10:59:00.528Z</time>
      </trkpt>
      <trkpt lat="58.822501972317696" lon="12.409804947674274">
        <ele>76.15</ele>
        <time>2025-02-04T10:59:18.905Z</time>
      </trkpt>
      <trkpt lat="58.8224739767611" lon="12.409762954339385">
        <ele>76.37</ele>
        <time>2025-02-04T10:59:37.282Z</time>
      </trkpt>
      <trkpt lat="58.82244296371937" lon="12.409720961004496">
        <ele>76.58</ele>
        <time>2025-02-04T10:59:55.660Z</time>
      </trkpt>
      <trkpt lat="58.82240792736411" lon="12.40968399681151">
        <ele>76.8</ele>
        <time>2025-02-04T11:00:14.039Z</time>
      </trkpt>
      <trkpt lat="58.822370963171124" lon="12.409647954627872">
        <ele>77.02</ele>
        <time>2025-02-04T11:00:32.418Z</time>
      </trkpt>
      <trkpt lat="58.82233299314976" lon="12.409612918272614">
        <ele>77.25</ele>
        <time>2025-02-04T11:00:50.798Z</time>
      </trkpt>
      <trkpt lat="58.82229393348098" lon="12.409580983221531">
        <ele>77.47</ele>
        <time>2025-02-04T11:01:09.179Z</time>
      </trkpt>
      <trkpt lat="58.82225495763123" lon="12.409551981836557">
        <ele>77.69</ele>
        <time>2025-02-04T11:01:27.560Z</time>
      </trkpt>
      <trkpt lat="58.82221698760986" lon="12.409521974623203">
        <ele>77.92</ele>
        <time>2025-02-04T11:01:45.942Z</time>
      </trkpt>
      <trkpt lat="58.8221769221127" lon="12.40949397906661">
        <ele>78.15</ele>
        <time>2025-02-04T11:02:04.325Z</time>
      </trkpt>
      <trkpt lat="58.822135934606194" lon="12.409467995166779">
        <ele>78.38</ele>
        <time>2025-02-04T11:02:22.708Z</time>
      </trkpt>
      <trkpt lat="58.822094947099686" lon="12.409442933276296">
        <ele>78.61</ele>
        <time>2025-02-04T11:02:41.092Z</time>
      </trkpt>
      <trkpt lat="58.82205395959318" lon="12.409418961033225">
        <ele>78.84</ele>
        <time>2025-02-04T11:02:59.477Z</time>
      </trkpt>
      <trkpt lat="58.82201297208667" lon="12.409396916627884">
        <ele>79.08</ele>
        <time>2025-02-04T11:03:17.862Z</time>
      </trkpt>
      <trkpt lat="58.8219699729234" lon="12.409376967698336">
        <ele>79.32</ele>
        <time>2025-02-04T11:03:36.248Z</time>
      </trkpt>
      <trkpt lat="58.82192797958851" lon="12.409359952434897">
        <ele>79.56</ele>
        <time>2025-02-04T11:03:54.635Z</time>
      </trkpt>
      <trkpt lat="58.82188598625362" lon="12.40934293717146">
        <ele>79.8</ele>
        <time>2025-02-04T11:04:13.022Z</time>
      </trkpt>
      <trkpt lat="58.82184298709035" lon="12.409326927736402">
        <ele>80.05</ele>
        <time>2025-02-04T11:04:31.410Z</time>
      </trkpt>
      <trkpt lat="58.82180292159319" lon="12.409309996291995">
        <ele>80.3</ele>
        <time>2025-02-04T11:04:49.799Z</time>
      </trkpt>
      <trkpt lat="58.82176193408668" lon="12.409294992685318">
        <ele>80.55</ele>
        <time>2025-02-04T11:05:08.188Z</time>
      </trkpt>
      <trkpt lat="58.82171994075179" lon="12.409283928573132">
        <ele>80.8</ele>
        <time>2025-02-04T11:05:26.578Z</time>
      </trkpt>
      <trkpt lat="58.82167593576014" lon="12.409274959936738">
        <ele>81.06</ele>
        <time>2025-02-04T11:05:44.969Z</time>
      </trkpt>
      <trkpt lat="58.82163494825363" lon="12.409260962158442">
        <ele>81.33</ele>
        <time>2025-02-04T11:06:03.360Z</time>
      </trkpt>
      <trkpt lat="58.821596978232265" lon="12.409245958551764">
        <ele>81.59</ele>
        <time>2025-02-04T11:06:21.752Z</time>
      </trkpt>
      <trkpt lat="58.821556996554136" lon="12.409230954945087">
        <ele>81.86</ele>
        <time>2025-02-04T11:06:40.145Z</time>
      </trkpt>
      <trkpt lat="58.82151894271374" lon="12.409220980480313">
        <ele>82.13</ele>
        <time>2025-02-04T11:06:58.538Z</time>
      </trkpt>
      <trkpt lat="58.82147795520723" lon="12.40921595133841">
        <ele>82.4</ele>
        <time>2025-02-04T11:07:16.932Z</time>
      </trkpt>
      <trkpt lat="58.82144199684262" lon="12.409208994358778">
        <ele>82.69</ele>
        <time>2025-02-04T11:07:35.327Z</time>
      </trkpt>
      <trkpt lat="58.821403943002224" lon="12.409198936074972">
        <ele>82.98</ele>
        <time>2025-02-04T11:07:53.722Z</time>
      </trkpt>
      <trkpt lat="58.82136597298086" lon="12.409187955781817">
        <ele>83.27</ele>
        <time>2025-02-04T11:08:12.118Z</time>
      </trkpt>
      <trkpt lat="58.82132791914046" lon="12.409174963831902">
        <ele>83.56</ele>
        <time>2025-02-04T11:08:30.514Z</time>
      </trkpt>
      <trkpt lat="58.82129095494747" lon="12.409161971881986">
        <ele>83.85</ele>
        <time>2025-02-04T11:08:48.911Z</time>
      </trkpt>
      <trkpt lat="58.821252984926105" lon="12.409151997417212">
        <ele>84.15</ele>
        <time>2025-02-04T11:09:07.309Z</time>
      </trkpt>
      <trkpt lat="58.821213925257325" lon="12.409141939133406">
        <ele>84.45</ele>
        <time>2025-02-04T11:09:25.707Z</time>
      </trkpt>
      <trkpt lat="58.8211739435792" lon="12.409133976325393">
        <ele>84.74</ele>
        <time>2025-02-04T11:09:44.106Z</time>
      </trkpt>
      <trkpt lat="58.82113396190107" lon="12.409123918041587">
        <ele>85.04</ele>
        <time>2025-02-04T11:10:02.506Z</time>
      </trkpt>
      <trkpt lat="58.82109892554581" lon="12.409110926091671">
        <ele>85.34</ele>
        <time>2025-02-04T11:10:20.906Z</time>
      </trkpt>
      <trkpt lat="58.821063973009586" lon="12.409099945798516">
        <ele>85.63</ele>
        <time>2025-02-04T11:10:39.307Z</time>
      </trkpt>
      <trkpt lat="58.82103396579623" lon="12.40908494219184">
        <ele>85.93</ele>
        <time>2025-02-04T11:10:57.708Z</time>
      </trkpt>
      <trkpt lat="58.821000941097736" lon="12.409073961898685">
        <ele>86.23</ele>
        <time>2025-02-04T11:11:16.110Z</time>
      </trkpt>
      <trkpt lat="58.82096498273313" lon="12.40906692110002">
        <ele>86.52</ele>
        <time>2025-02-04T11:11:34.512Z</time>
      </trkpt>
      <trkpt lat="58.82092692889273" lon="12.409059964120388">
        <ele>86.82</ele>
        <time>2025-02-04T11:11:52.915Z</time>
      </trkpt>
      <trkpt lat="58.820889964699745" lon="12.409053929150105">
        <ele>87.11</ele>
        <time>2025-02-04T11:12:11.319Z</time>
      </trkpt>
      <trkpt lat="58.82085199467838" lon="12.409048983827233">
        <ele>87.4</ele>
        <time>2025-02-04T11:12:29.723Z</time>
      </trkpt>
      <trkpt lat="58.82081394083798" lon="12.40904294885695">
        <ele>87.69</ele>
        <time>2025-02-04T11:12:48.128Z</time>
      </trkpt>
      <trkpt lat="58.82077697664499" lon="12.409031968563795">
        <ele>87.98</ele>
        <time>2025-02-04T11:13:06.533Z</time>
      </trkpt>
      <trkpt lat="58.820739928632975" lon="12.40901897661388">
        <ele>88.27</ele>
        <time>2025-02-04T11:13:24.939Z</time>
      </trkpt>
      <trkpt lat="58.82070296443999" lon="12.409006990492344">
        <ele>88.56</ele>
        <time>2025-02-04T11:13:43.346Z</time>
      </trkpt>
      <trkpt lat="58.82066591642797" lon="12.408995926380157">
        <ele>88.84</ele>
        <time>2025-02-04T11:14:01.753Z</time>
      </trkpt>
      <trkpt lat="58.82062694057822" lon="12.408984946087003">
        <ele>89.13</ele>
        <time>2025-02-04T11:14:20.161Z</time>
      </trkpt>
      <trkpt lat="58.820588970556855" lon="12.408974971622229">
        <ele>89.41</ele>
        <time>2025-02-04T11:14:38.569Z</time>
      </trkpt>
      <trkpt lat="58.82055292837322" lon="12.408966924995184">
        <ele>89.69</ele>
        <time>2025-02-04T11:14:56.978Z</time>
      </trkpt>
      <trkpt lat="58.82051898166537" lon="12.40895695053041">
        <ele>89.97</ele>
        <time>2025-02-04T11:15:15.388Z</time>
      </trkpt>
      <trkpt lat="58.820484951138496" lon="12.408943958580494">
        <ele>90.24</ele>
        <time>2025-02-04T11:15:33.798Z</time>
      </trkpt>
      <trkpt lat="58.82044999860227" lon="12.408930966630578">
        <ele>90.52</ele>
        <time>2025-02-04T11:15:52.209Z</time>
      </trkpt>
      <trkpt lat="58.820415968075395" lon="12.408917974680662">
        <ele>90.79</ele>
        <time>2025-02-04T11:16:10.620Z</time>
      </trkpt>
      <trkpt lat="58.82037992589176" lon="12.408906994387507">
        <ele>91.06</ele>
        <time>2025-02-04T11:16:29.032Z</time>
      </trkpt>
      <trkpt lat="58.82034396752715" lon="12.408896936103702">
        <ele>91.32</ele>
        <time>2025-02-04T11:16:47.444Z</time>
      </trkpt>
      <trkpt lat="58.82030792534351" lon="12.408887967467308">
        <ele>91.58</ele>
        <time>2025-02-04T11:17:05.857Z</time>
      </trkpt>
      <trkpt lat="58.82027096115053" lon="12.408877993002534">
        <ele>91.84</ele>
        <time>2025-02-04T11:17:24.271Z</time>
      </trkpt>
      <trkpt lat="58.82023399695754" lon="12.40887095220387">
        <ele>92.1</ele>
        <time>2025-02-04T11:17:42.685Z</time>
      </trkpt>
      <trkpt lat="58.8201979547739" lon="12.408861983567476">
        <ele>92.35</ele>
        <time>2025-02-04T11:18:01.100Z</time>
      </trkpt>
      <trkpt lat="58.8201619964093" lon="12.408849997445941">
        <ele>92.6</ele>
        <time>2025-02-04T11:18:19.515Z</time>
      </trkpt>
      <trkpt lat="58.82012595422566" lon="12.408837927505374">
        <ele>92.84</ele>
        <time>2025-02-04T11:18:37.931Z</time>
      </trkpt>
      <trkpt lat="58.8200909178704" lon="12.408825941383839">
        <ele>93.08</ele>
        <time>2025-02-04T11:18:56.348Z</time>
      </trkpt>
      <trkpt lat="58.82005596533418" lon="12.408813955262303">
        <ele>93.32</ele>
        <time>2025-02-04T11:19:14.765Z</time>
      </trkpt>
      <trkpt lat="58.82001992315054" lon="12.408802974969149">
        <ele>93.55</ele>
        <time>2025-02-04T11:19:33.183Z</time>
      </trkpt>
      <trkpt lat="58.81998295895755" lon="12.408790988847613">
        <ele>93.77</ele>
        <time>2025-02-04T11:19:51.601Z</time>
      </trkpt>
      <trkpt lat="58.819946916773915" lon="12.408779924735427">
        <ele>94.0</ele>
        <time>2025-02-04T11:20:10.020Z</time>
      </trkpt>
      <trkpt lat="58.81990995258093" lon="12.408768944442272">
        <ele>94.21</ele>
        <time>2025-02-04T11:20:28.439Z</time>
      </trkpt>
      <trkpt lat="58.81987298838794" lon="12.408758969977498">
        <ele>94.43</ele>
        <time>2025-02-04T11:20:46.859Z</time>
      </trkpt>
      <trkpt lat="58.81983392871916" lon="12.408748995512724">
        <ele>94.64</ele>
        <time>2025-02-04T11:21:05.280Z</time>
      </trkpt>
      <trkpt lat="58.819795958697796" lon="12.408739943057299">
        <ele>94.84</ele>
        <time>2025-02-04T11:21:23.701Z</time>
      </trkpt>
      <trkpt lat="58.81975991651416" lon="12.408729968592525">
        <ele>95.04</ele>
        <time>2025-02-04T11:21:42.123Z</time>
      </trkpt>
      <trkpt lat="58.81972295232117" lon="12.40871798247099">
        <ele>95.24</ele>
        <time>2025-02-04T11:22:00.545Z</time>
      </trkpt>
      <trkpt lat="58.819684982299805" lon="12.408706918358803">
        <ele>95.43</ele>
        <time>2025-02-04T11:22:18.968Z</time>
      </trkpt>
      <trkpt lat="58.819645922631025" lon="12.408694932237267">
        <ele>95.61</ele>
        <time>2025-02-04T11:22:37.392Z</time>
      </trkpt>
      <trkpt lat="58.81960694678128" lon="12.408681940287352">
        <ele>95.79</ele>
        <time>2025-02-04T11:22:55.816Z</time>
      </trkpt>
      <trkpt lat="58.81956595927477" lon="12.408669954165816">
        <ele>95.97</ele>
        <time>2025-02-04T11:23:14.241Z</time>
      </trkpt>
      <trkpt lat="58.81952396593988" lon="12.408657968044281">
        <ele>96.14</ele>
        <time>2025-02-04T11:23:32.667Z</time>
      </trkpt>
      <trkpt lat="58.81947996094823" lon="12.408643970265985">
        <ele>96.31</ele>
        <time>2025-02-04T11:23:51.093Z</time>
      </trkpt>
      <trkpt lat="58.8194349501282" lon="12.40863198414445">
        <ele>96.47</ele>
        <time>2025-02-04T11:24:09.520Z</time>
      </trkpt>
      <trkpt lat="58.819388933479786" lon="12.408619998022914">
        <ele>96.63</ele>
        <time>2025-02-04T11:24:27.948Z</time>
      </trkpt>
      <trkpt lat="58.819341994822025" lon="12.408608933910728">
        <ele>96.78</ele>
        <time>2025-02-04T11:24:46.377Z</time>
      </trkpt>
      <trkpt lat="58.81929296068847" lon="12.408596947789192">
        <ele>96.92</ele>
        <time>2025-02-04T11:25:04.806Z</time>
      </trkpt>
      <trkpt lat="58.81924292072654" lon="12.408586973324418">
        <ele>97.06</ele>
        <time>2025-02-04T11:25:23.236Z</time>
      </trkpt>
      <trkpt lat="58.819190952926874" lon="12.408575993031263">
        <ele>97.19</ele>
        <time>2025-02-04T11:25:41.667Z</time>
      </trkpt>
      <trkpt lat="58.81913797929883" lon="12.408561995252967">
        <ele>97.32</ele>
        <time>2025-02-04T11:26:00.099Z</time>
      </trkpt>
      <trkpt lat="58.819083999842405" lon="12.408544979989529">
        <ele>97.44</ele>
        <time>2025-02-04T11:26:18.532Z</time>
      </trkpt>
      <trkpt lat="58.81902792491019" lon="12.408529976382852">
        <ele>97.55</ele>
        <time>2025-02-04T11:26:36.966Z</time>
      </trkpt>
      <trkpt lat="58.81896992214024" lon="12.408517990261316">
        <ele>97.66</ele>
        <time>2025-02-04T11:26:55.401Z</time>
      </trkpt>
      <trkpt lat="58.818912925198674" lon="12.408501980826259">
        <ele>97.76</ele>
        <time>2025-02-04T11:27:13.837Z</time>
      </trkpt>
      <trkpt lat="58.81885391660035" lon="12.408485971391201">
        <ele>97.86</ele>
        <time>2025-02-04T11:27:32.274Z</time>
      </trkpt>
      <trkpt lat="58.81879398599267" lon="12.408470967784524">
        <ele>97.95</ele>
        <time>2025-02-04T11:27:50.712Z</time>
      </trkpt>
      <trkpt lat="58.81873296573758" lon="12.408454958349466">
        <ele>98.03</ele>
        <time>2025-02-04T11:28:09.151Z</time>
      </trkpt>
      <trkpt lat="58.81867093965411" lon="12.40844096057117">
        <ele>98.11</ele>
        <time>2025-02-04T11:28:27.591Z</time>
      </trkpt>
      <trkpt lat="58.818608997389674" lon="12.408425956964493">
        <ele>98.19</ele>
        <time>2025-02-04T11:28:46.032Z</time>
      </trkpt>
      <trkpt lat="58.818546971306205" lon="12.408412965014577">
        <ele>98.26</ele>
        <time>2025-02-04T11:29:04.474Z</time>
      </trkpt>
      <trkpt lat="58.818482933565974" lon="12.40839695557952">
        <ele>98.32</ele>
        <time>2025-02-04T11:29:22.917Z</time>
      </trkpt>
      <trkpt lat="58.818418979644775" lon="12.408380946144462">
        <ele>98.38</ele>
        <time>2025-02-04T11:29:41.361Z</time>
      </trkpt>
      <trkpt lat="58.818353936076164" lon="12.408366948366165">
        <ele>98.43</ele>
        <time>2025-02-04T11:29:59.806Z</time>
      </trkpt>
      <trkpt lat="58.818286964669824" lon="12.408352950587869">
        <ele>98.48</ele>
        <time>2025-02-04T11:30:18.252Z</time>
      </trkpt>
      <trkpt lat="58.81821697577834" lon="12.408337946981192">
        <ele>98.52</ele>
        <time>2025-02-04T11:30:36.699Z</time>
      </trkpt>
      <trkpt lat="58.8181449752301" lon="12.408322943374515">
        <ele>98.56</ele>
        <time>2025-02-04T11:30:55.147Z</time>
      </trkpt>
      <trkpt lat="58.81806995719671" lon="12.408307939767838">
        <ele>98.59</ele>
        <time>2025-02-04T11:31:13.596Z</time>
      </trkpt>
      <trkpt lat="58.81799393333495" lon="12.408294947817922">
        <ele>98.62</ele>
        <time>2025-02-04T11:31:32.046Z</time>
      </trkpt>
      <trkpt lat="58.81791598163545" lon="12.408282961696386">
        <ele>98.64</ele>
        <time>2025-02-04T11:31:50.498Z</time>
      </trkpt>
      <trkpt lat="58.81783492863178" lon="12.408274998888373">
        <ele>98.66</ele>
        <time>2025-02-04T11:32:08.951Z</time>
      </trkpt>
      <trkpt lat="58.817750941962004" lon="12.40826795808971">
        <ele>98.68</ele>
        <time>2025-02-04T11:32:27.405Z</time>
      </trkpt>
      <trkpt lat="58.817664943635464" lon="12.408258989453316">
        <ele>98.68</ele>
        <time>2025-02-04T11:32:45.861Z</time>
      </trkpt>
      <trkpt lat="58.817581962794065" lon="12.408252954483032">
        <ele>98.69</ele>
        <time>2025-02-04T11:33:04.318Z</time>
      </trkpt>
      <trkpt lat="58.817496970295906" lon="12.408246919512749">
        <ele>98.69</ele>
        <time>2025-02-04T11:33:22.776Z</time>
      </trkpt>
      <trkpt lat="58.817409966140985" lon="12.40824499167502">
        <ele>98.68</ele>
        <time>2025-02-04T11:33:41.236Z</time>
      </trkpt>
      <trkpt lat="58.817320950329304" lon="12.40824499167502">
        <ele>98.67</ele>
        <time>2025-02-04T11:33:59.697Z</time>
      </trkpt>
      <trkpt lat="58.81722992286086" lon="12.40824792534113">
        <ele>98.65</ele>
        <time>2025-02-04T11:34:18.160Z</time>
      </trkpt>
      <trkpt lat="58.81713596172631" lon="12.408257983624935">
        <ele>98.63</ele>
        <time>2025-02-04T11:34:36.624Z</time>
      </trkpt>
      <trkpt lat="58.81704191677272" lon="12.408271981403232">
        <ele>98.6</ele>
        <time>2025-02-04T11:34:55.090Z</time>
      </trkpt>
      <trkpt lat="58.81694795563817" lon="12.408286985009909">
        <ele>98.57</ele>
        <time>2025-02-04T11:35:13.557Z</time>
      </trkpt>
      <trkpt lat="58.81685298867524" lon="12.408305928111076">
        <ele>98.53</ele>
        <time>2025-02-04T11:35:32.026Z</time>
      </trkpt>
      <trkpt lat="58.81675793789327" lon="12.408325960859656">
        <ele>98.49</ele>
        <time>2025-02-04T11:35:50.496Z</time>
      </trkpt>
      <trkpt lat="58.81666297093034" lon="12.408348927274346">
        <ele>98.45</ele>
        <time>2025-02-04T11:36:08.968Z</time>
      </trkpt>
      <trkpt lat="58.816566998139024" lon="12.408375917002559">
        <ele>98.41</ele>
        <time>2025-02-04T11:36:27.441Z</time>
      </trkpt>
      <trkpt lat="58.81647295318544" lon="12.408403996378183">
        <ele>98.36</ele>
        <time>2025-02-04T11:36:45.916Z</time>
      </trkpt>
      <trkpt lat="58.816375974565744" lon="12.408433919772506">
        <ele>98.31</ele>
        <time>2025-02-04T11:37:04.393Z</time>
      </trkpt>
      <trkpt lat="58.8162799179554" lon="12.40846392698586">
        <ele>98.26</ele>
        <time>2025-02-04T11:37:22.871Z</time>
      </trkpt>
      <trkpt lat="58.816182939335704" lon="12.408495945855975">
        <ele>98.21</ele>
        <time>2025-02-04T11:37:41.351Z</time>
      </trkpt>
      <trkpt lat="58.81609199568629" lon="12.408530982211232">
        <ele>98.15</ele>
        <time>2025-02-04T11:37:59.832Z</time>
      </trkpt>
      <trkpt lat="58.81599895656109" lon="12.408565934747458">
        <ele>98.1</ele>
        <time>2025-02-04T11:38:18.315Z</time>
      </trkpt>
      <trkpt lat="58.815906923264265" lon="12.408602982759476">
        <ele>98.04</ele>
        <time>2025-02-04T11:38:36.799Z</time>
      </trkpt>
      <trkpt lat="58.81581497378647" lon="12.408639946952462">
        <ele>97.98</ele>
        <time>2025-02-04T11:38:55.285Z</time>
      </trkpt>
      <trkpt lat="58.81572495214641" lon="12.408673977479339">
        <ele>97.91</ele>
        <time>2025-02-04T11:39:13.772Z</time>
      </trkpt>
      <trkpt lat="58.81563493050635" lon="12.408702978864312">
        <ele>97.85</ele>
        <time>2025-02-04T11:39:32.261Z</time>
      </trkpt>
      <trkpt lat="58.8155459985137" lon="12.408728962764144">
        <ele>97.78</ele>
        <time>2025-02-04T11:39:50.751Z</time>
      </trkpt>
      <trkpt lat="58.815455976873636" lon="12.408754946663976">
        <ele>97.71</ele>
        <time>2025-02-04T11:40:09.243Z</time>
      </trkpt>
      <trkpt lat="58.81537098437548" lon="12.408777996897697">
        <ele>97.64</ele>
        <time>2025-02-04T11:40:27.736Z</time>
      </trkpt>
      <trkpt lat="58.81528892554343" lon="12.408789983019233">
        <ele>97.56</ele>
        <time>2025-02-04T11:40:46.230Z</time>
      </trkpt>
      <trkpt lat="58.81520695053041" lon="12.408810937777162">
        <ele>97.49</ele>
        <time>2025-02-04T11:41:04.726Z</time>
      </trkpt>
      <trkpt lat="58.81512698717415" lon="12.408832982182503">
        <ele>97.41</ele>
        <time>2025-02-04T11:41:23.223Z</time>
      </trkpt>
      <trkpt lat="58.815047945827246" lon="12.40885192528367">
        <ele>97.33</ele>
        <time>2025-02-04T11:41:41.721Z</time>
      </trkpt>
      <trkpt lat="58.81497099995613" lon="12.408861983567476">
        <ele>97.25</ele>
        <time>2025-02-04T11:42:00.220Z</time>
      </trkpt>
      <trkpt lat="58.814893970265985" lon="12.408873969689012">
        <ele>97.16</ele>
        <time>2025-02-04T11:42:18.721Z</time>
      </trkpt>
      <trkpt lat="58.81482096388936" lon="12.408883944153786">
        <ele>97.08</ele>
        <time>2025-02-04T11:42:37.223Z</time>
      </trkpt>
      <trkpt lat="58.81475399248302" lon="12.40889098495245">
        <ele>96.99</ele>
        <time>2025-02-04T11:42:55.726Z</time>
      </trkpt>
      <trkpt lat="58.81468593142927" lon="12.408898947760463">
        <ele>96.9</ele>
        <time>2025-02-04T11:43:14.230Z</time>
      </trkpt>
      <trkpt lat="58.81462197750807" lon="12.408901965245605">
        <ele>96.81</ele>
        <time>2025-02-04T11:43:32.735Z</time>
      </trkpt>
      <trkpt lat="58.81456095725298" lon="12.408903976902366">
        <ele>96.72</ele>
        <time>2025-02-04T11:43:51.241Z</time>
      </trkpt>
      <trkpt lat="58.81450396031141" lon="12.408903976902366">
        <ele>96.62</ele>
        <time>2025-02-04T11:44:09.748Z</time>
      </trkpt>
      <trkpt lat="58.81444796919823" lon="12.408902971073985">
        <ele>96.52</ele>
        <time>2025-02-04T11:44:28.256Z</time>
      </trkpt>
      <trkpt lat="58.8143939897418" lon="12.408900959417224">
        <ele>96.42</ele>
        <time>2025-02-04T11:44:46.765Z</time>
      </trkpt>
      <trkpt lat="58.814338920637965" lon="12.408900959417224">
        <ele>96.32</ele>
        <time>2025-02-04T11:45:05.275Z</time>
      </trkpt>
      <trkpt lat="58.81428594700992" lon="12.408895930275321">
        <ele>96.22</ele>
        <time>2025-02-04T11:45:23.785Z</time>
      </trkpt>
      <trkpt lat="58.8142369966954" lon="12.408886961638927">
        <ele>96.11</ele>
        <time>2025-02-04T11:45:42.296Z</time>
      </trkpt>
      <trkpt lat="58.814186956733465" lon="12.408877993002534">
        <ele>96.0</ele>
        <time>2025-02-04T11:46:00.808Z</time>
      </trkpt>
      <trkpt lat="58.81413792259991" lon="12.40887195803225">
        <ele>95.89</ele>
        <time>2025-02-04T11:46:19.321Z</time>
      </trkpt>
      <trkpt lat="58.81408595480025" lon="12.408859971910715">
        <ele>95.77</ele>
        <time>2025-02-04T11:46:37.835Z</time>
      </trkpt>
      <trkpt lat="58.814036920666695" lon="12.4088469799608">
        <ele>95.66</ele>
        <time>2025-02-04T11:46:56.349Z</time>
      </trkpt>
      <trkpt lat="58.81398495286703" lon="12.408837927505374">
        <ele>95.54</ele>
        <time>2025-02-04T11:47:14.864Z</time>
      </trkpt>
      <trkpt lat="58.813927955925465" lon="12.4088279530406">
        <ele>95.42</ele>
        <time>2025-02-04T11:47:33.380Z</time>
      </trkpt>
      <trkpt lat="58.81386894732714" lon="12.408815966919065">
        <ele>95.3</ele>
        <time>2025-02-04T11:47:51.897Z</time>
      </trkpt>
      <trkpt lat="58.81381094455719" lon="12.408798951655626">
        <ele>95.17</ele>
        <time>2025-02-04T11:48:10.415Z</time>
      </trkpt>
      <trkpt lat="58.81375193595886" lon="12.408779924735427">
        <ele>95.04</ele>
        <time>2025-02-04T11:48:28.934Z</time>
      </trkpt>
      <trkpt lat="58.813690999522805" lon="12.40876492112875">
        <ele>94.91</ele>
        <time>2025-02-04T11:48:47.454Z</time>
      </trkpt>
      <trkpt lat="58.813625955954194" lon="12.408747989684343">
        <ele>94.78</ele>
        <time>2025-02-04T11:49:05.975Z</time>
      </trkpt>
      <trkpt lat="58.81355596706271" lon="12.408731980249286">
        <ele>94.65</ele>
        <time>2025-02-04T11:49:24.497Z</time>
      </trkpt>
      <trkpt lat="58.81348396651447" lon="12.408720999956131">
        <ele>94.51</ele>
        <time>2025-02-04T11:49:43.020Z</time>
      </trkpt>
      <trkpt lat="58.813410960137844" lon="12.408708930015564">
        <ele>94.38</ele>
        <time>2025-02-04T11:50:01.544Z</time>
      </trkpt>
      <trkpt lat="58.81333594210446" lon="12.408693926408887">
        <ele>94.24</ele>
        <time>2025-02-04T11:50:20.070Z</time>
      </trkpt>
      <trkpt lat="58.813261929899454" lon="12.40867992863059">
        <ele>94.1</ele>
        <time>2025-02-04T11:50:38.597Z</time>
      </trkpt>
      <trkpt lat="58.8131869956851" lon="12.408665930852294">
        <ele>93.96</ele>
        <time>2025-02-04T11:50:57.125Z</time>
      </trkpt>
      <trkpt lat="58.81311398930848" lon="12.408652938902378">
        <ele>93.82</ele>
        <time>2025-02-04T11:51:15.654Z</time>
      </trkpt>
      <trkpt lat="58.81304198876023" lon="12.408641958609223">
        <ele>93.67</ele>
        <time>2025-02-04T11:51:34.184Z</time>
      </trkpt>
      <trkpt lat="58.81297099404037" lon="12.40863198414445">
        <ele>93.52</ele>
        <time>2025-02-04T11:51:52.716Z</time>
      </trkpt>
      <trkpt lat="58.81290293298662" lon="12.408619998022914">
        <ele>93.37</ele>
        <time>2025-02-04T11:52:11.249Z</time>
      </trkpt>
      <trkpt lat="58.81283596158028" lon="12.40861195139587">
        <ele>93.22</ele>
        <time>2025-02-04T11:52:29.783Z</time>
      </trkpt>
      <trkpt lat="58.812770918011665" lon="12.408603988587856">
        <ele>93.07</ele>
        <time>2025-02-04T11:52:48.318Z</time>
      </trkpt>
      <trkpt lat="58.812702940776944" lon="12.408598959445953">
        <ele>92.92</ele>
        <time>2025-02-04T11:53:06.854Z</time>
      </trkpt>
      <trkpt lat="58.812639992684126" lon="12.408598959445953">
        <ele>92.77</ele>
        <time>2025-02-04T11:53:25.391Z</time>
      </trkpt>
      <trkpt lat="58.81257897242904" lon="12.408598959445953">
        <ele>92.61</ele>
        <time>2025-02-04T11:53:43.929Z</time>
      </trkpt>
      <trkpt lat="58.81251895800233" lon="12.408600971102715">
        <ele>92.45</ele>
        <time>2025-02-04T11:54:02.468Z</time>
      </trkpt>
      <trkpt lat="58.81246095523238" lon="12.408605916425586">
        <ele>92.29</ele>
        <time>2025-02-04T11:54:21.008Z</time>
      </trkpt>
      <trkpt lat="58.81240596994758" lon="12.408609939739108">
        <ele>92.13</ele>
        <time>2025-02-04T11:54:39.549Z</time>
      </trkpt>
      <trkpt lat="58.81234997883439" lon="12.408614968881011">
        <ele>91.97</ele>
        <time>2025-02-04T11:54:58.091Z</time>
      </trkpt>
      <trkpt lat="58.812295999377966" lon="12.408619998022914">
        <ele>91.8</ele>
        <time>2025-02-04T11:55:16.633Z</time>
      </trkpt>
      <trkpt lat="58.81224093027413" lon="12.408625949174166">
        <ele>91.63</ele>
        <time>2025-02-04T11:55:35.176Z</time>
      </trkpt>
      <trkpt lat="58.81218493916094" lon="12.40863399580121">
        <ele>91.46</ele>
        <time>2025-02-04T11:55:53.720Z</time>
      </trkpt>
      <trkpt lat="58.81212894804776" lon="12.408640952780843">
        <ele>91.29</ele>
        <time>2025-02-04T11:56:12.265Z</time>
      </trkpt>
      <trkpt lat="58.81207195110619" lon="12.408650927245617">
        <ele>91.11</ele>
        <time>2025-02-04T11:56:30.811Z</time>
      </trkpt>
      <trkpt lat="58.812017971649766" lon="12.408665930852294">
        <ele>90.93</ele>
        <time>2025-02-04T11:56:49.358Z</time>
      </trkpt>
      <trkpt lat="58.81196298636496" lon="12.40867992863059">
        <ele>90.75</ele>
        <time>2025-02-04T11:57:07.906Z</time>
      </trkpt>
      <trkpt lat="58.811908923089504" lon="12.408692920580506">
        <ele>90.57</ele>
        <time>2025-02-04T11:57:26.455Z</time>
      </trkpt>
      <trkpt lat="58.8118539378047" lon="12.408705996349454">
        <ele>90.38</ele>
        <time>2025-02-04T11:57:45.005Z</time>
      </trkpt>
      <trkpt lat="58.81179694086313" lon="12.408720999956131">
        <ele>90.19</ele>
        <time>2025-02-04T11:58:03.555Z</time>
      </trkpt>
      <trkpt lat="58.811739943921566" lon="12.408737931400537">
        <ele>90.0</ele>
        <time>2025-02-04T11:58:22.106Z</time>
      </trkpt>
      <trkpt lat="58.81167992949486" lon="12.408755952492356">
        <ele>89.8</ele>
        <time>2025-02-04T11:58:40.658Z</time>
      </trkpt>
      <trkpt lat="58.81162192672491" lon="12.408776991069317">
        <ele>89.6</ele>
        <time>2025-02-04T11:58:59.211Z</time>
      </trkpt>
      <trkpt lat="58.811563923954964" lon="12.408798951655626">
        <ele>89.4</ele>
        <time>2025-02-04T11:59:17.765Z</time>
      </trkpt>
      <trkpt lat="58.81150592118502" lon="12.408820996060967">
        <ele>89.2</ele>
        <time>2025-02-04T11:59:36.320Z</time>
      </trkpt>
      <trkpt lat="58.81144699640572" lon="12.408844968304038">
        <ele>88.99</ele>
        <time>2025-02-04T11:59:54.876Z</time>
      </trkpt>
      <trkpt lat="58.811388993635774" lon="12.40887095220387">
        <ele>88.79</ele>
        <time>2025-02-04T12:00:13.433Z</time>
      </trkpt>
      <trkpt lat="58.81132495589554" lon="12.408898947760463">
        <ele>88.58</ele>
        <time>2025-02-04T12:00:31.991Z</time>
      </trkpt>
      <trkpt lat="58.81126091815531" lon="12.408929960802197">
        <ele>88.36</ele>
        <time>2025-02-04T12:00:50.550Z</time>
      </trkpt>
      <trkpt lat="58.81119595840573" lon="12.408962985500693">
        <ele>88.15</ele>
        <time>2025-02-04T12:01:09.110Z</time>
      </trkpt>
      <trkpt lat="58.8111319206655" lon="12.408997938036919">
        <ele>87.93</ele>
        <time>2025-02-04T12:01:27.671Z</time>
      </trkpt>
      <trkpt lat="58.81106494925916" lon="12.409035991877317">
        <ele>87.71</ele>
        <time>2025-02-04T12:01:46.234Z</time>
      </trkpt>
      <trkpt lat="58.81099596619606" lon="12.409077985212207">
        <ele>87.48</ele>
        <time>2025-02-04T12:02:04.798Z</time>
      </trkpt>
      <trkpt lat="58.81092396564782" lon="12.409125929698348">
        <ele>87.25</ele>
        <time>2025-02-04T12:02:23.363Z</time>
      </trkpt>
      <trkpt lat="58.81085196509957" lon="12.409174963831902">
        <ele>87.02</ele>
        <time>2025-02-04T12:02:41.929Z</time>
      </trkpt>
      <trkpt lat="58.81077795289457" lon="12.409226931631565">
        <ele>86.79</ele>
        <time>2025-02-04T12:03:00.496Z</time>
      </trkpt>
      <trkpt lat="58.81070092320442" lon="12.409282922744751">
        <ele>86.55</ele>
        <time>2025-02-04T12:03:19.065Z</time>
      </trkpt>
      <trkpt lat="58.81062397733331" lon="12.40934494882822">
        <ele>86.32</ele>
        <time>2025-02-04T12:03:37.635Z</time>
      </trkpt>
      <trkpt lat="58.81054594181478" lon="12.40940596908331">
        <ele>86.08</ele>
        <time>2025-02-04T12:03:56.206Z</time>
      </trkpt>
      <trkpt lat="58.810465978458524" lon="12.409467995166779">
        <ele>85.84</ele>
        <time>2025-02-04T12:04:14.779Z</time>
      </trkpt>
      <trkpt lat="58.810385931283236" lon="12.409533960744739">
        <ele>85.59</ele>
        <time>2025-02-04T12:04:33.353Z</time>
      </trkpt>
      <trkpt lat="58.81030596792698" lon="12.40960294380784">
        <ele>85.35</ele>
        <time>2025-02-04T12:04:51.929Z</time>
      </trkpt>
      <trkpt lat="58.81022499874234" lon="12.409676956012845">
        <ele>85.11</ele>
        <time>2025-02-04T12:05:10.506Z</time>
      </trkpt>
      <trkpt lat="58.810144951567054" lon="12.409754991531372">
        <ele>84.87</ele>
        <time>2025-02-04T12:05:29.084Z</time>
      </trkpt>
      <trkpt lat="58.81006599403918" lon="12.40983696654439">
        <ele>84.63</ele>
        <time>2025-02-04T12:05:47.664Z</time>
      </trkpt>
      <trkpt lat="58.80998997017741" lon="12.409916929900646">
        <ele>84.39</ele>
        <time>2025-02-04T12:06:06.245Z</time>
      </trkpt>
      <trkpt lat="58.80991495214403" lon="12.409999994561076">
        <ele>84.14</ele>
        <time>2025-02-04T12:06:24.828Z</time>
      </trkpt>
      <trkpt lat="58.80984093993902" lon="12.410084987059236">
        <ele>83.9</ele>
        <time>2025-02-04T12:06:43.412Z</time>
      </trkpt>
      <trkpt lat="58.8097679335624" lon="12.410169979557395">
        <ele>83.65</ele>
        <time>2025-02-04T12:07:01.997Z</time>
      </trkpt>
      <trkpt lat="58.809695933014154" lon="12.410255977883935">
        <ele>83.4</ele>
        <time>2025-02-04T12:07:20.584Z</time>
      </trkpt>
      <trkpt lat="58.80962594412267" lon="12.410342982038856">
        <ele>83.15</ele>
        <time>2025-02-04T12:07:39.172Z</time>
      </trkpt>
      <trkpt lat="58.80955796688795" lon="12.410431997850537">
        <ele>82.89</ele>
        <time>2025-02-04T12:07:57.761Z</time>
      </trkpt>
      <trkpt lat="58.80948998965323" lon="12.410522941499949">
        <ele>82.63</ele>
        <time>2025-02-04T12:08:16.352Z</time>
      </trkpt>
      <trkpt lat="58.80942293442786" lon="12.41061296314001">
        <ele>82.36</ele>
        <time>2025-02-04T12:08:34.944Z</time>
      </trkpt>
      <trkpt lat="58.8093569688499" lon="12.410704996436834">
        <ele>82.1</ele>
        <time>2025-02-04T12:08:53.537Z</time>
      </trkpt>
      <trkpt lat="58.809288991615176" lon="12.410799963399768">
        <ele>81.83</ele>
        <time>2025-02-04T12:09:12.132Z</time>
      </trkpt>
      <trkpt lat="58.80922093056142" lon="12.410896942019463">
        <ele>81.56</ele>
        <time>2025-02-04T12:09:30.728Z</time>
      </trkpt>
      <trkpt lat="58.8091529533267" lon="12.41099894978106">
        <ele>81.29</ele>
        <time>2025-02-04T12:09:49.325Z</time>
      </trkpt>
      <trkpt lat="58.80908598192036" lon="12.4111039750278">
        <ele>81.03</ele>
        <time>2025-02-04T12:10:07.924Z</time>
      </trkpt>
      <trkpt lat="58.80902093835175" lon="12.411211933940649">
        <ele>80.76</ele>
        <time>2025-02-04T12:10:26.524Z</time>
      </trkpt>
      <trkpt lat="58.80895497277379" lon="12.411322994157672">
        <ele>80.48</ele>
        <time>2025-02-04T12:10:45.126Z</time>
      </trkpt>
      <trkpt lat="58.80889093503356" lon="12.411434976384044">
        <ele>80.21</ele>
        <time>2025-02-04T12:11:03.729Z</time>
      </trkpt>
      <trkpt lat="58.80882798694074" lon="12.411549976095557">
        <ele>79.94</ele>
        <time>2025-02-04T12:11:22.333Z</time>
      </trkpt>
      <trkpt lat="58.80876596085727" lon="12.411666987463832">
        <ele>79.66</ele>
        <time>2025-02-04T12:11:40.939Z</time>
      </trkpt>
      <trkpt lat="58.8087039347738" lon="12.411786932498217">
        <ele>79.39</ele>
        <time>2025-02-04T12:11:59.546Z</time>
      </trkpt>
      <trkpt lat="58.808644926175475" lon="12.411905955523252">
        <ele>79.12</ele>
        <time>2025-02-04T12:12:18.155Z</time>
      </trkpt>
      <trkpt lat="58.80858792923391" lon="12.41202699020505">
        <ele>78.85</ele>
        <time>2025-02-04T12:12:36.765Z</time>
      </trkpt>
      <trkpt lat="58.80853193812072" lon="12.412149952724576">
        <ele>78.57</ele>
        <time>2025-02-04T12:12:55.376Z</time>
      </trkpt>
      <trkpt lat="58.80847695283592" lon="12.412271993234754">
        <ele>78.29</ele>
        <time>2025-02-04T12:13:13.989Z</time>
      </trkpt>
      <trkpt lat="58.80842297337949" lon="12.41239495575428">
        <ele>78.01</ele>
        <time>2025-02-04T12:13:32.603Z</time>
      </trkpt>
      <trkpt lat="58.80836899392307" lon="12.412518924102187">
        <ele>77.73</ele>
        <time>2025-02-04T12:13:51.218Z</time>
      </trkpt>
      <trkpt lat="58.80831694230437" lon="12.412647921591997">
        <ele>77.45</ele>
        <time>2025-02-04T12:14:09.835Z</time>
      </trkpt>
      <trkpt lat="58.80826598033309" lon="12.412778930738568">
        <ele>77.16</ele>
        <time>2025-02-04T12:14:28.453Z</time>
      </trkpt>
      <trkpt lat="58.808214934542775" lon="12.412914969027042">
        <ele>76.88</ele>
        <time>2025-02-04T12:14:47.072Z</time>
      </trkpt>
      <trkpt lat="58.80816497839987" lon="12.413051929324865">
        <ele>76.59</ele>
        <time>2025-02-04T12:15:05.693Z</time>
      </trkpt>
      <trkpt lat="58.80811493843794" lon="12.413193918764591">
        <ele>76.29</ele>
        <time>2025-02-04T12:15:24.315Z</time>
      </trkpt>
      <trkpt lat="58.808064982295036" lon="12.41333993151784">
        <ele>76.0</ele>
        <time>2025-02-04T12:15:42.939Z</time>
      </trkpt>
      <trkpt lat="58.8080149423331" lon="12.41349097341299">
        <ele>75.71</ele>
        <time>2025-02-04T12:16:01.564Z</time>
      </trkpt>
      <trkpt lat="58.8079649861902" lon="12.413647966459394">
        <ele>75.42</ele>
        <time>2025-02-04T12:16:20.191Z</time>
      </trkpt>
      <trkpt lat="58.807914946228266" lon="12.4138099886477">
        <ele>75.12</ele>
        <time>2025-02-04T12:16:38.819Z</time>
      </trkpt>
      <trkpt lat="58.80786398425698" lon="12.413976956158876">
        <ele>74.83</ele>
        <time>2025-02-04T12:16:57.449Z</time>
      </trkpt>
      <trkpt lat="58.80781293846667" lon="12.414150964468718">
        <ele>74.54</ele>
        <time>2025-02-04T12:17:16.081Z</time>
      </trkpt>
      <trkpt lat="58.807763988152146" lon="12.41432991810143">
        <ele>74.26</ele>
        <time>2025-02-04T12:17:34.714Z</time>
      </trkpt>
      <trkpt lat="58.807716965675354" lon="12.414513984695077">
        <ele>73.97</ele>
        <time>2025-02-04T12:17:53.349Z</time>
      </trkpt>
      <trkpt lat="58.80766994319856" lon="12.414702996611595">
        <ele>73.68</ele>
        <time>2025-02-04T12:18:11.986Z</time>
      </trkpt>
      <trkpt lat="58.80762493237853" lon="12.414894942194223">
        <ele>73.4</ele>
        <time>2025-02-04T12:18:30.624Z</time>
      </trkpt>
      <trkpt lat="58.80758092738688" lon="12.415089989081025">
        <ele>73.11</ele>
        <time>2025-02-04T12:18:49.264Z</time>
      </trkpt>
      <trkpt lat="58.80753993988037" lon="12.415286963805556">
        <ele>72.81</ele>
        <time>2025-02-04T12:19:07.906Z</time>
      </trkpt>
      <trkpt lat="58.80750096403062" lon="12.41548796184361">
        <ele>72.52</ele>
        <time>2025-02-04T12:19:26.550Z</time>
      </trkpt>
      <trkpt lat="58.80746399983764" lon="12.415691977366805">
        <ele>72.23</ele>
        <time>2025-02-04T12:19:45.196Z</time>
      </trkpt>
      <trkpt lat="58.80742996931076" lon="12.41589599289">
        <ele>71.94</ele>
        <time>2025-02-04T12:20:03.843Z</time>
      </trkpt>
      <trkpt lat="58.807396944612265" lon="12.416105959564447">
        <ele>71.64</ele>
        <time>2025-02-04T12:20:22.492Z</time>
      </trkpt>
      <trkpt lat="58.80736693739891" lon="12.416317937895656">
        <ele>71.35</ele>
        <time>2025-02-04T12:20:41.143Z</time>
      </trkpt>
      <trkpt lat="58.80733894184232" lon="12.416533939540386">
        <ele>71.06</ele>
        <time>2025-02-04T12:20:59.796Z</time>
      </trkpt>
      <trkpt lat="58.807309940457344" lon="12.416750947013497">
        <ele>70.77</ele>
        <time>2025-02-04T12:21:18.451Z</time>
      </trkpt>
      <trkpt lat="58.80727993324399" lon="12.416968960314989">
        <ele>70.48</ele>
        <time>2025-02-04T12:21:37.108Z</time>
      </trkpt>
      <trkpt lat="58.807247998192906" lon="12.417189991101623">
        <ele>70.18</ele>
        <time>2025-02-04T12:21:55.767Z</time>
      </trkpt>
      <trkpt lat="58.80721799097955" lon="12.417416973039508">
        <ele>69.9</ele>
        <time>2025-02-04T12:22:14.427Z</time>
      </trkpt>
      <trkpt lat="58.80719091743231" lon="12.417645966634154">
        <ele>69.63</ele>
        <time>2025-02-04T12:22:33.089Z</time>
      </trkpt>
      <trkpt lat="58.80716593936086" lon="12.41787395440042">
        <ele>69.37</ele>
        <time>2025-02-04T12:22:51.753Z</time>
      </trkpt>
      <trkpt lat="58.807138949632645" lon="12.418095991015434">
        <ele>69.11</ele>
        <time>2025-02-04T12:23:10.419Z</time>
      </trkpt>
      <trkpt lat="58.80711195990443" lon="12.418314926326275">
        <ele>68.85</ele>
        <time>2025-02-04T12:23:29.087Z</time>
      </trkpt>
      <trkpt lat="58.80708497017622" lon="12.418528916314244">
        <ele>68.6</ele>
        <time>2025-02-04T12:23:47.757Z</time>
      </trkpt>
      <trkpt lat="58.80705697461963" lon="12.418735949322581">
        <ele>68.35</ele>
        <time>2025-02-04T12:24:06.429Z</time>
      </trkpt>
      <trkpt lat="58.807029984891415" lon="12.418939964845777">
        <ele>68.09</ele>
        <time>2025-02-04T12:24:25.103Z</time>
      </trkpt>
      <trkpt lat="58.80700391717255" lon="12.41914096288383">
        <ele>67.84</ele>
        <time>2025-02-04T12:24:43.778Z</time>
      </trkpt>
      <trkpt lat="58.80697692744434" lon="12.419338943436742">
        <ele>67.59</ele>
        <time>2025-02-04T12:25:02.455Z</time>
      </trkpt>
      <trkpt lat="58.80695194937289" lon="12.419533990323544">
        <ele>67.34</ele>
        <time>2025-02-04T12:25:21.134Z</time>
      </trkpt>
      <trkpt lat="58.806926971301436" lon="12.419726941734552">
        <ele>67.11</ele>
        <time>2025-02-04T12:25:39.814Z</time>
      </trkpt>
      <trkpt lat="58.806900987401605" lon="12.41991595365107">
        <ele>66.87</ele>
        <time>2025-02-04T12:25:58.496Z</time>
      </trkpt>
      <trkpt lat="58.80687399767339" lon="12.420103959739208">
        <ele>66.62</ele>
        <time>2025-02-04T12:26:17.180Z</time>
      </trkpt>
      <trkpt lat="58.80684499628842" lon="12.420289954170585">
        <ele>66.39</ele>
        <time>2025-02-04T12:26:35.865Z</time>
      </trkpt>
      <trkpt lat="58.80681197158992" lon="12.420475948601961">
        <ele>66.14</ele>
        <time>2025-02-04T12:26:54.552Z</time>
      </trkpt>
      <trkpt lat="58.806771989911795" lon="12.420656997710466">
        <ele>65.9</ele>
        <time>2025-02-04T12:27:13.240Z</time>
      </trkpt>
      <trkpt lat="58.80672295577824" lon="12.420824971050024">
        <ele>65.66</ele>
        <time>2025-02-04T12:27:31.930Z</time>
      </trkpt>
      <trkpt lat="58.806666964665055" lon="12.420983975753188">
        <ele>65.44</ele>
        <time>2025-02-04T12:27:50.622Z</time>
      </trkpt>
      <trkpt lat="58.80660896189511" lon="12.421140968799591">
        <ele>65.21</ele>
        <time>2025-02-04T12:28:09.315Z</time>
      </trkpt>
      <trkpt lat="58.80655196495354" lon="12.421298967674375">
        <ele>64.99</ele>
        <time>2025-02-04T12:28:28.010Z</time>
      </trkpt>
      <trkpt lat="58.80649094469845" lon="12.421452943235636">
        <ele>64.77</ele>
        <time>2025-02-04T12:28:46.706Z</time>
      </trkpt>
      <trkpt lat="58.806428918614984" lon="12.421602979302406">
        <ele>64.55</ele>
        <time>2025-02-04T12:29:05.404Z</time>
      </trkpt>
      <trkpt lat="58.80636798217893" lon="12.421753937378526">
        <ele>64.34</ele>
        <time>2025-02-04T12:29:24.104Z</time>
      </trkpt>
      <trkpt lat="58.80630796775222" lon="12.421905985102057">
        <ele>64.13</ele>
        <time>2025-02-04T12:29:42.805Z</time>
      </trkpt>
      <trkpt lat="58.80624895915389" lon="12.422056943178177">
        <ele>63.92</ele>
        <time>2025-02-04T12:30:01.508Z</time>
      </trkpt>
      <trkpt lat="58.8061879388988" lon="12.422202955931425">
        <ele>63.71</ele>
        <time>2025-02-04T12:30:20.212Z</time>
      </trkpt>
      <trkpt lat="58.80612197332084" lon="12.422339916229248">
        <ele>63.5</ele>
        <time>2025-02-04T12:30:38.918Z</time>
      </trkpt>
      <trkpt lat="58.8060499727726" lon="12.422465980052948">
        <ele>63.3</ele>
        <time>2025-02-04T12:30:57.625Z</time>
      </trkpt>
      <trkpt lat="58.80597294308245" lon="12.422574944794178">
        <ele>63.1</ele>
        <time>2025-02-04T12:31:16.334Z</time>
      </trkpt>
      <trkpt lat="58.805892979726195" lon="12.422666978091002">
        <ele>62.9</ele>
        <time>2025-02-04T12:31:35.044Z</time>
      </trkpt>
      <trkpt lat="58.80580899305642" lon="12.422744929790497">
        <ele>62.7</ele>
        <time>2025-02-04T12:31:53.756Z</time>
      </trkpt>
      <trkpt lat="58.80572299472988" lon="12.422804944217205">
        <ele>62.51</ele>
        <time>2025-02-04T12:32:12.469Z</time>
      </trkpt>
      <trkpt lat="58.805634984746575" lon="12.422853978350759">
        <ele>62.32</ele>
        <time>2025-02-04T12:32:31.184Z</time>
      </trkpt>
      <trkpt lat="58.805546974763274" lon="12.42289999499917">
        <ele>62.14</ele>
        <time>2025-02-04T12:32:49.900Z</time>
      </trkpt>
      <trkpt lat="58.80545896477997" lon="12.42294198833406">
        <ele>61.96</ele>
        <time>2025-02-04T12:33:08.618Z</time>
      </trkpt>
      <trkpt lat="58.80536994896829" lon="12.42298398166895">
        <ele>61.78</ele>
        <time>2025-02-04T12:33:27.337Z</time>
      </trkpt>
      <trkpt lat="58.80528294481337" lon="12.42302698083222">
        <ele>61.62</ele>
        <time>2025-02-04T12:33:46.058Z</time>
      </trkpt>
      <trkpt lat="58.80519795231521" lon="12.423065956681967">
        <ele>61.46</ele>
        <time>2025-02-04T12:34:04.780Z</time>
      </trkpt>
      <trkpt lat="58.80511295981705" lon="12.423104932531714">
        <ele>61.3</ele>
        <time>2025-02-04T12:34:23.504Z</time>
      </trkpt>
      <trkpt lat="58.80502696149051" lon="12.423144998028874">
        <ele>61.14</ele>
        <time>2025-02-04T12:34:42.229Z</time>
      </trkpt>
      <trkpt lat="58.80494196899235" lon="12.423183973878622">
        <ele>60.98</ele>
        <time>2025-02-04T12:35:00.955Z</time>
      </trkpt>
      <trkpt lat="58.804857982322574" lon="12.42322294972837">
        <ele>60.82</ele>
        <time>2025-02-04T12:35:19.683Z</time>
      </trkpt>
      <trkpt lat="58.804774917662144" lon="12.423262931406498">
        <ele>60.67</ele>
        <time>2025-02-04T12:35:38.412Z</time>
      </trkpt>
      <trkpt lat="58.804692942649126" lon="12.423301991075277">
        <ele>60.52</ele>
        <time>2025-02-04T12:35:57.142Z</time>
      </trkpt>
      <trkpt lat="58.80461499094963" lon="12.423337949439883">
        <ele>60.37</ele>
        <time>2025-02-04T12:36:15.874Z</time>
      </trkpt>
      <trkpt lat="58.804536955431104" lon="12.42337399162352">
        <ele>60.22</ele>
        <time>2025-02-04T12:36:34.607Z</time>
      </trkpt>
      <trkpt lat="58.8044629432261" lon="12.423409949988127">
        <ele>60.08</ele>
        <time>2025-02-04T12:36:53.341Z</time>
      </trkpt>
      <trkpt lat="58.804391948506236" lon="12.423442974686623">
        <ele>59.93</ele>
        <time>2025-02-04T12:37:12.076Z</time>
      </trkpt>
      <trkpt lat="58.804323971271515" lon="12.423470970243216">
        <ele>59.79</ele>
        <time>2025-02-04T12:37:30.813Z</time>
      </trkpt>
      <trkpt lat="58.804255994036794" lon="12.423491925001144">
        <ele>59.66</ele>
        <time>2025-02-04T12:37:49.551Z</time>
      </trkpt>
      <trkpt lat="58.8041899446398" lon="12.42350592277944">
        <ele>59.52</ele>
        <time>2025-02-04T12:38:08.290Z</time>
      </trkpt>
      <trkpt lat="58.80412498489022" lon="12.423517992720008">
        <ele>59.39</ele>
        <time>2025-02-04T12:38:27.030Z</time>
      </trkpt>
      <trkpt lat="58.80406094714999" lon="12.423527967184782">
        <ele>59.25</ele>
        <time>2025-02-04T12:38:45.771Z</time>
      </trkpt>
      <trkpt lat="58.80399892106652" lon="12.423538947477937">
        <ele>59.12</ele>
        <time>2025-02-04T12:39:04.513Z</time>
      </trkpt>
      <trkpt lat="58.803936978802085" lon="12.423553951084614">
        <ele>58.99</ele>
        <time>2025-02-04T12:39:23.256Z</time>
      </trkpt>
      <trkpt lat="58.803875958546996" lon="12.423569960519671">
        <ele>58.87</ele>
        <time>2025-02-04T12:39:42.000Z</time>
      </trkpt>
      <trkpt lat="58.80381493829191" lon="12.423589993268251">
        <ele>58.75</ele>
        <time>2025-02-04T12:40:00.745Z</time>
      </trkpt>
      <trkpt lat="58.80375391803682" lon="12.423614971339703">
        <ele>58.63</ele>
        <time>2025-02-04T12:40:19.491Z</time>
      </trkpt>
      <trkpt lat="58.80369499325752" lon="12.423642966896296">
        <ele>58.51</ele>
        <time>2025-02-04T12:40:38.238Z</time>
      </trkpt>
      <trkpt lat="58.803636990487576" lon="12.42367498576641">
        <ele>58.39</ele>
        <time>2025-02-04T12:40:56.986Z</time>
      </trkpt>
      <trkpt lat="58.80357999354601" lon="12.423712955787778">
        <ele>58.27</ele>
        <time>2025-02-04T12:41:15.735Z</time>
      </trkpt>
      <trkpt lat="58.80352391861379" lon="12.423753943294287">
        <ele>58.15</ele>
        <time>2025-02-04T12:41:34.485Z</time>
      </trkpt>
      <trkpt lat="58.803466921672225" lon="12.423799959942698">
        <ele>58.04</ele>
        <time>2025-02-04T12:41:53.236Z</time>
      </trkpt>
      <trkpt lat="58.80340891890228" lon="12.423851927742362">
        <ele>57.92</ele>
        <time>2025-02-04T12:42:11.988Z</time>
      </trkpt>
      <trkpt lat="58.80335292778909" lon="12.42391194216907">
        <ele>57.8</ele>
        <time>2025-02-04T12:42:30.741Z</time>
      </trkpt>
      <trkpt lat="58.80329794250429" lon="12.423976985737681">
        <ele>57.69</ele>
        <time>2025-02-04T12:42:49.495Z</time>
      </trkpt>
      <trkpt lat="58.8032419513911" lon="12.424042951315641">
        <ele>57.57</ele>
        <time>2025-02-04T12:43:08.250Z</time>
      </trkpt>
      <trkpt lat="58.80318294279277" lon="12.424108916893601">
        <ele>57.45</ele>
        <time>2025-02-04T12:43:27.006Z</time>
      </trkpt>
      <trkpt lat="58.803122928366065" lon="12.424175972118974">
        <ele>57.33</ele>
        <time>2025-02-04T12:43:45.763Z</time>
      </trkpt>
      <trkpt lat="58.80306098610163" lon="12.424243949353695">
        <ele>57.22</ele>
        <time>2025-02-04T12:44:04.521Z</time>
      </trkpt>
      <trkpt lat="58.80299795418978" lon="12.424313938245177">
        <ele>57.11</ele>
        <time>2025-02-04T12:44:23.280Z</time>
      </trkpt>
      <trkpt lat="58.80293198861182" lon="12.42438593879342">
        <ele>56.99</ele>
        <time>2025-02-04T12:44:42.041Z</time>
      </trkpt>
      <trkpt lat="58.802865939214826" lon="12.424459950998425">
        <ele>56.88</ele>
        <time>2025-02-04T12:45:00.803Z</time>
      </trkpt>
      <trkpt lat="58.802796956151724" lon="12.424537986516953">
        <ele>56.76</ele>
        <time>2025-02-04T12:45:19.566Z</time>
      </trkpt>
      <trkpt lat="58.80272596143186" lon="12.42461895570159">
        <ele>56.64</ele>
        <time>2025-02-04T12:45:38.330Z</time>
      </trkpt>
      <trkpt lat="58.802651949226856" lon="12.424700930714607">
        <ele>56.53</ele>
        <time>2025-02-04T12:45:57.096Z</time>
      </trkpt>
      <trkpt lat="58.80257491953671" lon="12.424786929041147">
        <ele>56.41</ele>
        <time>2025-02-04T12:46:15.863Z</time>
      </trkpt>
      <trkpt lat="58.80249495618045" lon="12.42487795650959">
        <ele>56.3</ele>
        <time>2025-02-04T12:46:34.632Z</time>
      </trkpt>
      <trkpt lat="58.802411975339055" lon="12.424965966492891">
        <ele>56.19</ele>
        <time>2025-02-04T12:46:53.402Z</time>
      </trkpt>
      <trkpt lat="58.802323965355754" lon="12.425046935677528">
        <ele>56.09</ele>
        <time>2025-02-04T12:47:12.174Z</time>
      </trkpt>
      <trkpt lat="58.80223092623055" lon="12.425117930397391">
        <ele>55.98</ele>
        <time>2025-02-04T12:47:30.947Z</time>
      </trkpt>
      <trkpt lat="58.802131935954094" lon="12.425174927338958">
        <ele>55.87</ele>
        <time>2025-02-04T12:47:49.722Z</time>
      </trkpt>
      <trkpt lat="58.802028922364116" lon="12.425218932330608">
        <ele>55.77</ele>
        <time>2025-02-04T12:48:08.499Z</time>
      </trkpt>
      <trkpt lat="58.80192398093641" lon="12.425251957029104">
        <ele>55.67</ele>
        <time>2025-02-04T12:48:27.277Z</time>
      </trkpt>
      <trkpt lat="58.80181694403291" lon="12.425267966464162">
        <ele>55.57</ele>
        <time>2025-02-04T12:48:46.057Z</time>
      </trkpt>
      <trkpt lat="58.80170797929168" lon="12.4252659548074">
        <ele>55.47</ele>
        <time>2025-02-04T12:49:04.839Z</time>
      </trkpt>
      <trkpt lat="58.801599936559796" lon="12.425251957029104">
        <ele>55.38</ele>
        <time>2025-02-04T12:49:23.623Z</time>
      </trkpt>
      <trkpt lat="58.801489965990186" lon="12.425229996442795">
        <ele>55.28</ele>
        <time>2025-02-04T12:49:42.408Z</time>
      </trkpt>
      <trkpt lat="58.801377983763814" lon="12.425205940380692">
        <ele>55.18</ele>
        <time>2025-02-04T12:50:01.195Z</time>
      </trkpt>
      <trkpt lat="58.80126499570906" lon="12.425181968137622">
        <ele>55.08</ele>
        <time>2025-02-04T12:50:19.984Z</time>
      </trkpt>
      <trkpt lat="58.80114999599755" lon="12.425160929560661">
        <ele>54.99</ele>
        <time>2025-02-04T12:50:38.775Z</time>
      </trkpt>
      <trkpt lat="58.801034996286035" lon="12.425140980631113">
        <ele>54.89</ele>
        <time>2025-02-04T12:50:57.568Z</time>
      </trkpt>
      <trkpt lat="58.80091899074614" lon="12.425119942054152">
        <ele>54.8</ele>
        <time>2025-02-04T12:51:16.363Z</time>
      </trkpt>
      <trkpt lat="58.80080399103463" lon="12.425098987296224">
        <ele>54.71</ele>
        <time>2025-02-04T12:51:35.159Z</time>
      </trkpt>
      <trkpt lat="58.80068798549473" lon="12.425079960376024">
        <ele>54.63</ele>
        <time>2025-02-04T12:51:53.957Z</time>
      </trkpt>
      <trkpt lat="58.8005739916116" lon="12.425064956769347">
        <ele>54.54</ele>
        <time>2025-02-04T12:52:12.757Z</time>
      </trkpt>
      <trkpt lat="58.80045999772847" lon="12.425055988132954">
        <ele>54.47</ele>
        <time>2025-02-04T12:52:31.559Z</time>
      </trkpt>
      <trkpt lat="58.80034692585468" lon="12.425053976476192">
        <ele>54.39</ele>
        <time>2025-02-04T12:52:50.363Z</time>
      </trkpt>
      <trkpt lat="58.80023494362831" lon="12.425058921799064">
        <ele>54.32</ele>
        <time>2025-02-04T12:53:09.169Z</time>
      </trkpt>
      <trkpt lat="58.80012698471546" lon="12.42507392540574">
        <ele>54.25</ele>
        <time>2025-02-04T12:53:27.976Z</time>
      </trkpt>
      <trkpt lat="58.80002195946872" lon="12.425098987296224">
        <ele>54.19</ele>
        <time>2025-02-04T12:53:46.785Z</time>
      </trkpt>
      <trkpt lat="58.799918945878744" lon="12.425130922347307">
        <ele>54.12</ele>
        <time>2025-02-04T12:54:05.596Z</time>
      </trkpt>
      <trkpt lat="58.79981794394553" lon="12.425167970359325">
        <ele>54.05</ele>
        <time>2025-02-04T12:54:24.408Z</time>
      </trkpt>
      <trkpt lat="58.79971895366907" lon="12.425203928723931">
        <ele>53.99</ele>
        <time>2025-02-04T12:54:43.222Z</time>
      </trkpt>
      <trkpt lat="58.799620969220996" lon="12.425238965079188">
        <ele>53.92</ele>
        <time>2025-02-04T12:55:02.038Z</time>
      </trkpt>
      <trkpt lat="58.7995239906013" lon="12.425273917615414">
        <ele>53.85</ele>
        <time>2025-02-04T12:55:20.855Z</time>
      </trkpt>
      <trkpt lat="58.799427933990955" lon="12.42530794814229">
        <ele>53.78</ele>
        <time>2025-02-04T12:55:39.674Z</time>
      </trkpt>
      <trkpt lat="58.79933196119964" lon="12.425340972840786">
        <ele>53.71</ele>
        <time>2025-02-04T12:55:58.494Z</time>
      </trkpt>
      <trkpt lat="58.79923791624606" lon="12.425373997539282">
        <ele>53.64</ele>
        <time>2025-02-04T12:56:17.316Z</time>
      </trkpt>
      <trkpt lat="58.799145966768265" lon="12.425403920933604">
        <ele>53.57</ele>
        <time>2025-02-04T12:56:36.139Z</time>
      </trkpt>
      <trkpt lat="58.79905493929982" lon="12.425431916490197">
        <ele>53.5</ele>
        <time>2025-02-04T12:56:54.964Z</time>
      </trkpt>
      <trkpt lat="58.79896592348814" lon="12.42546091787517">
        <ele>53.43</ele>
        <time>2025-02-04T12:57:13.790Z</time>
      </trkpt>
      <trkpt lat="58.79887699149549" lon="12.425485979765654">
        <ele>53.36</ele>
        <time>2025-02-04T12:57:32.618Z</time>
      </trkpt>
      <trkpt lat="58.79878696985543" lon="12.425506934523582">
        <ele>53.3</ele>
        <time>2025-02-04T12:57:51.447Z</time>
      </trkpt>
      <trkpt lat="58.798697954043746" lon="12.42552394978702">
        <ele>53.24</ele>
        <time>2025-02-04T12:58:10.278Z</time>
      </trkpt>
      <trkpt lat="58.798608938232064" lon="12.425537947565317">
        <ele>53.17</ele>
        <time>2025-02-04T12:58:29.110Z</time>
      </trkpt>
      <trkpt lat="58.79852092824876" lon="12.425550939515233">
        <ele>53.11</ele>
        <time>2025-02-04T12:58:47.943Z</time>
      </trkpt>
      <trkpt lat="58.79843392409384" lon="12.425560997799039">
        <ele>53.05</ele>
        <time>2025-02-04T12:59:06.778Z</time>
      </trkpt>
      <trkpt lat="58.79834691993892" lon="12.42556694895029">
        <ele>52.99</ele>
        <time>2025-02-04T12:59:25.614Z</time>
      </trkpt>
      <trkpt lat="58.79825798794627" lon="12.425567954778671">
        <ele>52.93</ele>
        <time>2025-02-04T12:59:44.452Z</time>
      </trkpt>
      <trkpt lat="58.79817098379135" lon="12.42556694895029">
        <ele>52.87</ele>
        <time>2025-02-04T13:00:03.291Z</time>
      </trkpt>
      <trkpt lat="58.79808297380805" lon="12.42556493729353">
        <ele>52.82</ele>
        <time>2025-02-04T13:00:22.131Z</time>
      </trkpt>
      <trkpt lat="58.79799395799637" lon="12.425561919808388">
        <ele>52.77</ele>
        <time>2025-02-04T13:00:40.973Z</time>
      </trkpt>
      <trkpt lat="58.79790594801307" lon="12.425558986142278">
        <ele>52.73</ele>
        <time>2025-02-04T13:00:59.816Z</time>
      </trkpt>
      <trkpt lat="58.797816932201385" lon="12.425559991970658">
        <ele>52.68</ele>
        <time>2025-02-04T13:01:18.661Z</time>
      </trkpt>
      <trkpt lat="58.797727916389704" lon="12.425561919808388">
        <ele>52.63</ele>
        <time>2025-02-04T13:01:37.507Z</time>
      </trkpt>
      <trkpt lat="58.79763797856867" lon="12.425558986142278">
        <ele>52.58</ele>
        <time>2025-02-04T13:01:56.355Z</time>
      </trkpt>
      <trkpt lat="58.79754896275699" lon="12.425552951171994">
        <ele>52.53</ele>
        <time>2025-02-04T13:02:15.204Z</time>
      </trkpt>
      <trkpt lat="58.79745894111693" lon="12.425544988363981">
        <ele>52.48</ele>
        <time>2025-02-04T13:02:34.054Z</time>
      </trkpt>
      <trkpt lat="58.79736891947687" lon="12.425534930080175">
        <ele>52.44</ele>
        <time>2025-02-04T13:02:52.906Z</time>
      </trkpt>
      <trkpt lat="58.79727998748422" lon="12.425519926473498">
        <ele>52.39</ele>
        <time>2025-02-04T13:03:11.759Z</time>
      </trkpt>
      <trkpt lat="58.797191977500916" lon="12.425497965887189">
        <ele>52.35</ele>
        <time>2025-02-04T13:03:30.614Z</time>
      </trkpt>
      <trkpt lat="58.797102961689234" lon="12.425468964502215">
        <ele>52.3</ele>
        <time>2025-02-04T13:03:49.470Z</time>
      </trkpt>
      <trkpt lat="58.79701495170593" lon="12.425438957288861">
        <ele>52.26</ele>
        <time>2025-02-04T13:04:08.328Z</time>
      </trkpt>
      <trkpt lat="58.79692694172263" lon="12.425406938418746">
        <ele>52.22</ele>
        <time>2025-02-04T13:04:27.187Z</time>
      </trkpt>
      <trkpt lat="58.79683792591095" lon="12.42537098005414">
        <ele>52.19</ele>
        <time>2025-02-04T13:04:46.048Z</time>
      </trkpt>
      <trkpt lat="58.79674999974668" lon="12.425329992547631">
        <ele>52.15</ele>
        <time>2025-02-04T13:05:04.910Z</time>
      </trkpt>
      <trkpt lat="58.79666391760111" lon="12.42528397589922">
        <ele>52.11</ele>
        <time>2025-02-04T13:05:23.773Z</time>
      </trkpt>
      <trkpt lat="58.79657892510295" lon="12.425237959250808">
        <ele>52.08</ele>
        <time>2025-02-04T13:05:42.638Z</time>
      </trkpt>
      <trkpt lat="58.79649493843317" lon="12.425192948430777">
        <ele>52.04</ele>
        <time>2025-02-04T13:06:01.504Z</time>
      </trkpt>
      <trkpt lat="58.79641195759177" lon="12.425144920125604">
        <ele>52.0</ele>
        <time>2025-02-04T13:06:20.372Z</time>
      </trkpt>
      <trkpt lat="58.796328976750374" lon="12.425095969811082">
        <ele>51.96</ele>
        <time>2025-02-04T13:06:39.241Z</time>
      </trkpt>
      <trkpt lat="58.796247923746705" lon="12.425044924020767">
        <ele>51.92</ele>
        <time>2025-02-04T13:06:58.111Z</time>
      </trkpt>
      <trkpt lat="58.79616594873369" lon="12.424991950392723">
        <ele>51.88</ele>
        <time>2025-02-04T13:07:16.983Z</time>
      </trkpt>
      <trkpt lat="58.79608397372067" lon="12.424938976764679">
        <ele>51.84</ele>
        <time>2025-02-04T13:07:35.856Z</time>
      </trkpt>
      <trkpt lat="58.79600593820214" lon="12.424886925145984">
        <ele>51.8</ele>
        <time>2025-02-04T13:07:54.730Z</time>
      </trkpt>
      <trkpt lat="58.79592698067427" lon="12.42483395151794">
        <ele>51.76</ele>
        <time>2025-02-04T13:08:13.606Z</time>
      </trkpt>
      <trkpt lat="58.79584793932736" lon="12.424781983718276">
        <ele>51.73</ele>
        <time>2025-02-04T13:08:32.483Z</time>
      </trkpt>
      <trkpt lat="58.79576898179948" lon="12.424731943756342">
        <ele>51.7</ele>
        <time>2025-02-04T13:08:51.361Z</time>
      </trkpt>
      <trkpt lat="58.795690946280956" lon="12.42468198761344">
        <ele>51.67</ele>
        <time>2025-02-04T13:09:10.241Z</time>
      </trkpt>
      <trkpt lat="58.79561391659081" lon="12.424633959308267">
        <ele>51.64</ele>
        <time>2025-02-04T13:09:29.122Z</time>
      </trkpt>
      <trkpt lat="58.795537976548076" lon="12.424585931003094">
        <ele>51.61</ele>
        <time>2025-02-04T13:09:48.004Z</time>
      </trkpt>
      <trkpt lat="58.79546295851469" lon="12.424537986516953">
        <ele>51.59</ele>
        <time>2025-02-04T13:10:06.888Z</time>
      </trkpt>
      <trkpt lat="58.795387940481305" lon="12.424488952383399">
        <ele>51.56</ele>
        <time>2025-02-04T13:10:25.773Z</time>
      </trkpt>
      <trkpt lat="58.7953139282763" lon="12.424440924078226">
        <ele>51.54</ele>
        <time>2025-02-04T13:10:44.659Z</time>
      </trkpt>
      <trkpt lat="58.79523999989033" lon="12.424393985420465">
        <ele>51.51</ele>
        <time>2025-02-04T13:11:03.546Z</time>
      </trkpt>
      <trkpt lat="58.79516498185694" lon="12.424347968772054">
        <ele>51.49</ele>
        <time>2025-02-04T13:11:22.435Z</time>
      </trkpt>
      <trkpt lat="58.79509096965194" lon="12.424301952123642">
        <ele>51.47</ele>
        <time>2025-02-04T13:11:41.325Z</time>
      </trkpt>
      <trkpt lat="58.79501796327531" lon="12.424253923818469">
        <ele>51.44</ele>
        <time>2025-02-04T13:12:00.216Z</time>
      </trkpt>
      <trkpt lat="58.79494395107031" lon="12.424205979332328">
        <ele>51.41</ele>
        <time>2025-02-04T13:12:19.108Z</time>
      </trkpt>
      <trkpt lat="58.79486893303692" lon="12.424158956855536">
        <ele>51.39</ele>
        <time>2025-02-04T13:12:38.002Z</time>
      </trkpt>
      <trkpt lat="58.7947959266603" lon="12.424111934378743">
        <ele>51.36</ele>
        <time>2025-02-04T13:12:56.897Z</time>
      </trkpt>
      <trkpt lat="58.794723926112056" lon="12.424062984064221">
        <ele>51.33</ele>
        <time>2025-02-04T13:13:15.793Z</time>
      </trkpt>
      <trkpt lat="58.79465091973543" lon="12.424013949930668">
        <ele>51.29</ele>
        <time>2025-02-04T13:13:34.690Z</time>
      </trkpt>
      <trkpt lat="58.79457699134946" lon="12.423964999616146">
        <ele>51.26</ele>
        <time>2025-02-04T13:13:53.589Z</time>
      </trkpt>
      <trkpt lat="58.79450197331607" lon="12.423916971310973">
        <ele>51.23</ele>
        <time>2025-02-04T13:14:12.489Z</time>
      </trkpt>
      <trkpt lat="58.79442695528269" lon="12.42386994883418">
        <ele>51.19</ele>
        <time>2025-02-04T13:14:31.390Z</time>
      </trkpt>
      <trkpt lat="58.7943519372493" lon="12.423823932185769">
        <ele>51.16</ele>
        <time>2025-02-04T13:14:50.292Z</time>
      </trkpt>
      <trkpt lat="58.79427599720657" lon="12.423777999356389">
        <ele>51.13</ele>
        <time>2025-02-04T13:15:09.196Z</time>
      </trkpt>
      <trkpt lat="58.7941999733448" lon="12.423730976879597">
        <ele>51.1</ele>
        <time>2025-02-04T13:15:28.101Z</time>
      </trkpt>
      <trkpt lat="58.794122943654656" lon="12.423682948574424">
        <ele>51.07</ele>
        <time>2025-02-04T13:15:47.007Z</time>
      </trkpt>
      <trkpt lat="58.79404691979289" lon="12.423635926097631">
        <ele>51.04</ele>
        <time>2025-02-04T13:16:05.915Z</time>
      </trkpt>
      <trkpt lat="58.793969973921776" lon="12.423589993268251">
        <ele>51.01</ele>
        <time>2025-02-04T13:16:24.824Z</time>
      </trkpt>
      <trkpt lat="58.79389294423163" lon="12.423541964963078">
        <ele>50.99</ele>
        <time>2025-02-04T13:16:43.734Z</time>
      </trkpt>
      <trkpt lat="58.793815998360515" lon="12.423492930829525">
        <ele>50.97</ele>
        <time>2025-02-04T13:17:02.645Z</time>
      </trkpt>
      <trkpt lat="58.79373695701361" lon="12.423444986343384">
        <ele>50.94</ele>
        <time>2025-02-04T13:17:21.558Z</time>
      </trkpt>
      <trkpt lat="58.79365892149508" lon="12.423397963866591">
        <ele>50.92</ele>
        <time>2025-02-04T13:17:40.472Z</time>
      </trkpt>
      <trkpt lat="58.793579963967204" lon="12.4233509413898">
        <ele>50.91</ele>
        <time>2025-02-04T13:17:59.387Z</time>
      </trkpt>
      <trkpt lat="58.7935009226203" lon="12.423300985246897">
        <ele>50.89</ele>
        <time>2025-02-04T13:18:18.304Z</time>
      </trkpt>
      <trkpt lat="58.79342095926404" lon="12.423249939456582">
        <ele>50.88</ele>
        <time>2025-02-04T13:18:37.222Z</time>
      </trkpt>
      <trkpt lat="58.79333898425102" lon="12.423196965828538">
        <ele>50.86</ele>
        <time>2025-02-04T13:18:56.142Z</time>
      </trkpt>
      <trkpt lat="58.79325692541897" lon="12.423144998028874">
        <ele>50.84</ele>
        <time>2025-02-04T13:19:15.063Z</time>
      </trkpt>
      <trkpt lat="58.793172938749194" lon="12.42309495806694">
        <ele>50.83</ele>
        <time>2025-02-04T13:19:33.985Z</time>
      </trkpt>
      <trkpt lat="58.793089957907796" lon="12.423043996095657">
        <ele>50.82</ele>
        <time>2025-02-04T13:19:52.909Z</time>
      </trkpt>
      <trkpt lat="58.7930069770664" lon="12.422990938648582">
        <ele>50.8</ele>
        <time>2025-02-04T13:20:11.834Z</time>
      </trkpt>
      <trkpt lat="58.792923996225" lon="12.422936959192157">
        <ele>50.78</ele>
        <time>2025-02-04T13:20:30.761Z</time>
      </trkpt>
      <trkpt lat="58.79283992573619" lon="12.422880968078971">
        <ele>50.77</ele>
        <time>2025-02-04T13:20:49.689Z</time>
      </trkpt>
      <trkpt lat="58.79275493323803" lon="12.422825982794166">
        <ele>50.76</ele>
        <time>2025-02-04T13:21:08.618Z</time>
      </trkpt>
      <trkpt lat="58.79266994073987" lon="12.42277191951871">
        <ele>50.75</ele>
        <time>2025-02-04T13:21:27.549Z</time>
      </trkpt>
      <trkpt lat="58.79258394241333" lon="12.422717940062284">
        <ele>50.74</ele>
        <time>2025-02-04T13:21:46.481Z</time>
      </trkpt>
      <trkpt lat="58.79249794408679" lon="12.42266396060586">
        <ele>50.73</ele>
        <time>2025-02-04T13:22:05.415Z</time>
      </trkpt>
      <trkpt lat="58.79241093993187" lon="12.422609981149435">
        <ele>50.73</ele>
        <time>2025-02-04T13:22:24.350Z</time>
      </trkpt>
      <trkpt lat="58.79232393577695" lon="12.42255499586463">
        <ele>50.73</ele>
        <time>2025-02-04T13:22:43.287Z</time>
      </trkpt>
      <trkpt lat="58.79223592579365" lon="12.422499926760793">
        <ele>50.73</ele>
        <time>2025-02-04T13:23:02.225Z</time>
      </trkpt>
      <trkpt lat="58.792146993801" lon="12.422444941475987">
        <ele>50.73</ele>
        <time>2025-02-04T13:23:21.165Z</time>
      </trkpt>
      <trkpt lat="58.792055966332555" lon="12.422387944534421">
        <ele>50.73</ele>
        <time>2025-02-04T13:23:40.106Z</time>
      </trkpt>
      <trkpt lat="58.79196493886411" lon="12.422331953421235">
        <ele>50.73</ele>
        <time>2025-02-04T13:23:59.049Z</time>
      </trkpt>
      <trkpt lat="58.79187298938632" lon="12.422272944822907">
        <ele>50.73</ele>
        <time>2025-02-04T13:24:17.993Z</time>
      </trkpt>
      <trkpt lat="58.791778944432735" lon="12.4222129303962">
        <ele>50.73</ele>
        <time>2025-02-04T13:24:36.939Z</time>
      </trkpt>
      <trkpt lat="58.79168498329818" lon="12.422153921797872">
        <ele>50.73</ele>
        <time>2025-02-04T13:24:55.886Z</time>
      </trkpt>
      <trkpt lat="58.79158993251622" lon="12.422093991190195">
        <ele>50.74</ele>
        <time>2025-02-04T13:25:14.835Z</time>
      </trkpt>
      <trkpt lat="58.791494965553284" lon="12.422033976763487">
        <ele>50.75</ele>
        <time>2025-02-04T13:25:33.786Z</time>
      </trkpt>
      <trkpt lat="58.79139999859035" lon="12.421971950680017">
        <ele>50.76</ele>
        <time>2025-02-04T13:25:52.738Z</time>
      </trkpt>
      <trkpt lat="58.791304947808385" lon="12.42191294208169">
        <ele>50.78</ele>
        <time>2025-02-04T13:26:11.692Z</time>
      </trkpt>
      <trkpt lat="58.79120998084545" lon="12.421853933483362">
        <ele>50.79</ele>
        <time>2025-02-04T13:26:30.647Z</time>
      </trkpt>
      <trkpt lat="58.79111694172025" lon="12.421791991218925">
        <ele>50.81</ele>
        <time>2025-02-04T13:26:49.604Z</time>
      </trkpt>
      <trkpt lat="58.791022980585694" lon="12.421731976792216">
        <ele>50.83</ele>
        <time>2025-02-04T13:27:08.563Z</time>
      </trkpt>
      <trkpt lat="58.79092893563211" lon="12.42167397402227">
        <ele>50.86</ele>
        <time>2025-02-04T13:27:27.523Z</time>
      </trkpt>
      <trkpt lat="58.79083698615432" lon="12.421615971252322">
        <ele>50.89</ele>
        <time>2025-02-04T13:27:46.485Z</time>
      </trkpt>
      <trkpt lat="58.790743947029114" lon="12.421557968482375">
        <ele>50.92</ele>
        <time>2025-02-04T13:28:05.448Z</time>
      </trkpt>
      <trkpt lat="58.79065291956067" lon="12.42150197736919">
        <ele>50.95</ele>
        <time>2025-02-04T13:28:24.413Z</time>
      </trkpt>
      <trkpt lat="58.79056197591126" lon="12.421445986256003">
        <ele>50.98</ele>
        <time>2025-02-04T13:28:43.379Z</time>
      </trkpt>
      <trkpt lat="58.79047396592796" lon="12.421387983486056">
        <ele>51.02</ele>
        <time>2025-02-04T13:29:02.347Z</time>
      </trkpt>
      <trkpt lat="58.79038495011628" lon="12.42133199237287">
        <ele>51.06</ele>
        <time>2025-02-04T13:29:21.316Z</time>
      </trkpt>
      <trkpt lat="58.790296940132976" lon="12.421278934925795">
        <ele>51.11</ele>
        <time>2025-02-04T13:29:40.287Z</time>
      </trkpt>
      <trkpt lat="58.790208930149674" lon="12.42122394964099">
        <ele>51.16</ele>
        <time>2025-02-04T13:29:59.259Z</time>
      </trkpt>
      <trkpt lat="58.790122931823134" lon="12.421167958527803">
        <ele>51.21</ele>
        <time>2025-02-04T13:30:18.233Z</time>
      </trkpt>
      <trkpt lat="58.790037939324975" lon="12.421111967414618">
        <ele>51.26</ele>
        <time>2025-02-04T13:30:37.208Z</time>
      </trkpt>
      <trkpt lat="58.789953952655196" lon="12.421054970473051">
        <ele>51.31</ele>
        <time>2025-02-04T13:30:56.185Z</time>
      </trkpt>
      <trkpt lat="58.78986996598542" lon="12.421000991016626">
        <ele>51.37</ele>
        <time>2025-02-04T13:31:15.163Z</time>
      </trkpt>
      <trkpt lat="58.7897879909724" lon="12.42094692774117">
        <ele>51.42</ele>
        <time>2025-02-04T13:31:34.142Z</time>
      </trkpt>
      <trkpt lat="58.78970693796873" lon="12.420891942456365">
        <ele>51.48</ele>
        <time>2025-02-04T13:31:53.123Z</time>
      </trkpt>
      <trkpt lat="58.789626974612474" lon="12.420835951343179">
        <ele>51.54</ele>
        <time>2025-02-04T13:32:12.105Z</time>
      </trkpt>
      <trkpt lat="58.78954793326557" lon="12.420779960229993">
        <ele>51.6</ele>
        <time>2025-02-04T13:32:31.089Z</time>
      </trkpt>
      <trkpt lat="58.78946998156607" lon="12.420722963288426">
        <ele>51.66</ele>
        <time>2025-02-04T13:32:50.074Z</time>
      </trkpt>
      <trkpt lat="58.789392951875925" lon="12.42066596634686">
        <ele>51.72</ele>
        <time>2025-02-04T13:33:09.060Z</time>
      </trkpt>
      <trkpt lat="58.78931692801416" lon="12.420606957748532">
        <ele>51.78</ele>
        <time>2025-02-04T13:33:28.048Z</time>
      </trkpt>
      <trkpt lat="58.789242999628186" lon="12.420545937493443">
        <ele>51.85</ele>
        <time>2025-02-04T13:33:47.037Z</time>
      </trkpt>
      <trkpt lat="58.78916898742318" lon="12.420482989400625">
        <ele>51.92</ele>
        <time>2025-02-04T13:34:06.027Z</time>
      </trkpt>
      <trkpt lat="58.78909598104656" lon="12.420418951660395">
        <ele>51.99</ele>
        <time>2025-02-04T13:34:25.018Z</time>
      </trkpt>
      <trkpt lat="58.78902297466993" lon="12.420354997739196">
        <ele>52.06</ele>
        <time>2025-02-04T13:34:44.011Z</time>
      </trkpt>
      <trkpt lat="58.78895097412169" lon="12.420291965827346">
        <ele>52.13</ele>
        <time>2025-02-04T13:35:03.005Z</time>
      </trkpt>
      <trkpt lat="58.788878973573446" lon="12.420227928087115">
        <ele>52.2</ele>
        <time>2025-02-04T13:35:22.000Z</time>
      </trkpt>
      <trkpt lat="58.78880797885358" lon="12.420162968337536">
        <ele>52.28</ele>
        <time>2025-02-04T13:35:40.996Z</time>
      </trkpt>
      <trkpt lat="58.7887379899621" lon="12.420095996931195">
        <ele>52.36</ele>
        <time>2025-02-04T13:35:59.994Z</time>
      </trkpt>
      <trkpt lat="58.78866791725159" lon="12.420027935877442">
        <ele>52.44</ele>
        <time>2025-02-04T13:36:18.993Z</time>
      </trkpt>
      <trkpt lat="58.788599940016866" lon="12.41995895281434">
        <ele>52.52</ele>
        <time>2025-02-04T13:36:37.993Z</time>
      </trkpt>
      <trkpt lat="58.788530956953764" lon="12.419888963922858">
        <ele>52.6</ele>
        <time>2025-02-04T13:36:56.994Z</time>
      </trkpt>
      <trkpt lat="58.78846197389066" lon="12.419816963374615">
        <ele>52.69</ele>
        <time>2025-02-04T13:37:15.997Z</time>
      </trkpt>
      <trkpt lat="58.78839399665594" lon="12.41974295116961">
        <ele>52.78</ele>
        <time>2025-02-04T13:37:35.001Z</time>
      </trkpt>
      <trkpt lat="58.78832392394543" lon="12.419667933136225">
        <ele>52.86</ele>
        <time>2025-02-04T13:37:54.006Z</time>
      </trkpt>
      <trkpt lat="58.788253935053945" lon="12.41959098726511">
        <ele>52.95</ele>
        <time>2025-02-04T13:38:13.013Z</time>
      </trkpt>
      <trkpt lat="58.78818495199084" lon="12.419512951746583">
        <ele>53.04</ele>
        <time>2025-02-04T13:38:32.021Z</time>
      </trkpt>
      <trkpt lat="58.78811395727098" lon="12.419431982561946">
        <ele>53.13</ele>
        <time>2025-02-04T13:38:51.030Z</time>
      </trkpt>
      <trkpt lat="58.78804497420788" lon="12.419348917901516">
        <ele>53.22</ele>
        <time>2025-02-04T13:39:10.040Z</time>
      </trkpt>
      <trkpt lat="58.787974985316396" lon="12.419262919574976">
        <ele>53.31</ele>
        <time>2025-02-04T13:39:29.052Z</time>
      </trkpt>
      <trkpt lat="58.78790499642491" lon="12.419175999239087">
        <ele>53.41</ele>
        <time>2025-02-04T13:39:48.065Z</time>
      </trkpt>
      <trkpt lat="58.78783391788602" lon="12.419087989255786">
        <ele>53.51</ele>
        <time>2025-02-04T13:40:07.080Z</time>
      </trkpt>
      <trkpt lat="58.787762923166156" lon="12.418998973444104">
        <ele>53.61</ele>
        <time>2025-02-04T13:40:26.096Z</time>
      </trkpt>
      <trkpt lat="58.78769192844629" lon="12.41890694014728">
        <ele>53.71</ele>
        <time>2025-02-04T13:40:45.113Z</time>
      </trkpt>
      <trkpt lat="58.78762093372643" lon="12.418814990669489">
        <ele>53.82</ele>
        <time>2025-02-04T13:41:04.132Z</time>
      </trkpt>
      <trkpt lat="58.78755195066333" lon="12.418721951544285">
        <ele>53.93</ele>
        <time>2025-02-04T13:41:23.152Z</time>
      </trkpt>
      <trkpt lat="58.787481961771846" lon="12.418626984581351">
        <ele>54.05</ele>
        <time>2025-02-04T13:41:42.173Z</time>
      </trkpt>
      <trkpt lat="58.787413984537125" lon="12.418528916314244">
        <ele>54.16</ele>
        <time>2025-02-04T13:42:01.196Z</time>
      </trkpt>
      <trkpt lat="58.78734692931175" lon="12.418429926037788">
        <ele>54.28</ele>
        <time>2025-02-04T13:42:20.220Z</time>
      </trkpt>
      <trkpt lat="58.78727995790541" lon="12.418328924104571">
        <ele>54.39</ele>
        <time>2025-02-04T13:42:39.245Z</time>
      </trkpt>
      <trkpt lat="58.78721298649907" lon="12.418224988505244">
        <ele>54.5</ele>
        <time>2025-02-04T13:42:58.272Z</time>
      </trkpt>
      <trkpt lat="58.78714693710208" lon="12.418119963258505">
        <ele>54.62</ele>
        <time>2025-02-04T13:43:17.300Z</time>
      </trkpt>
      <trkpt lat="58.7870819773525" lon="12.418011920526624">
        <ele>54.73</ele>
        <time>2025-02-04T13:43:36.330Z</time>
      </trkpt>
      <trkpt lat="58.78701592795551" lon="12.417906979098916">
        <ele>54.85</ele>
        <time>2025-02-04T13:43:55.361Z</time>
      </trkpt>
      <trkpt lat="58.78694795072079" lon="12.41780698299408">
        <ele>54.97</ele>
        <time>2025-02-04T13:44:14.393Z</time>
      </trkpt>
      <trkpt lat="58.786879973486066" lon="12.417704975232482">
        <ele>55.09</ele>
        <time>2025-02-04T13:44:33.427Z</time>
      </trkpt>
      <trkpt lat="58.78681291826069" lon="12.417600955814123">
        <ele>55.2</ele>
        <time>2025-02-04T13:44:52.462Z</time>
      </trkpt>
      <trkpt lat="58.78674594685435" lon="12.417497942224145">
        <ele>55.32</ele>
        <time>2025-02-04T13:45:11.498Z</time>
      </trkpt>
      <trkpt lat="58.78667998127639" lon="12.417393922805786">
        <ele>55.43</ele>
        <time>2025-02-04T13:45:30.536Z</time>
      </trkpt>
      <trkpt lat="58.7866139318794" lon="12.41729099303484">
        <ele>55.55</ele>
        <time>2025-02-04T13:45:49.575Z</time>
      </trkpt>
      <trkpt lat="58.78654696047306" lon="12.417189991101623">
        <ele>55.67</ele>
        <time>2025-02-04T13:46:08.616Z</time>
      </trkpt>
      <trkpt lat="58.78647998906672" lon="12.417091922834516">
        <ele>55.79</ele>
        <time>2025-02-04T13:46:27.658Z</time>
      </trkpt>
      <trkpt lat="58.78641192801297" lon="12.416990920901299">
        <ele>55.9</ele>
        <time>2025-02-04T13:46:46.701Z</time>
      </trkpt>
      <trkpt lat="58.78634495660663" lon="12.416890924796462">
        <ele>56.02</ele>
        <time>2025-02-04T13:47:05.746Z</time>
      </trkpt>
      <trkpt lat="58.78627899102867" lon="12.416790928691626">
        <ele>56.14</ele>
        <time>2025-02-04T13:47:24.792Z</time>
      </trkpt>
      <trkpt lat="58.786213947460055" lon="12.41669093258679">
        <ele>56.26</ele>
        <time>2025-02-04T13:47:43.839Z</time>
      </trkpt>
      <trkpt lat="58.786147981882095" lon="12.416590936481953">
        <ele>56.38</ele>
        <time>2025-02-04T13:48:02.888Z</time>
      </trkpt>
      <trkpt lat="58.786082938313484" lon="12.416492952033877">
        <ele>56.5</ele>
        <time>2025-02-04T13:48:21.938Z</time>
      </trkpt>
      <trkpt lat="58.786017978563905" lon="12.416395973414183">
        <ele>56.61</ele>
        <time>2025-02-04T13:48:40.989Z</time>
      </trkpt>
      <trkpt lat="58.785954946652055" lon="12.416298994794488">
        <ele>56.74</ele>
        <time>2025-02-04T13:49:00.042Z</time>
      </trkpt>
      <trkpt lat="58.78589199855924" lon="12.416201932355762">
        <ele>56.86</ele>
        <time>2025-02-04T13:49:19.096Z</time>
      </trkpt>
      <trkpt lat="58.78582997247577" lon="12.416106965392828">
        <ele>56.99</ele>
        <time>2025-02-04T13:49:38.151Z</time>
      </trkpt>
      <trkpt lat="58.7857679463923" lon="12.416013926267624">
        <ele>57.11</ele>
        <time>2025-02-04T13:49:57.207Z</time>
      </trkpt>
      <trkpt lat="58.78570692613721" lon="12.415920970961452">
        <ele>57.24</ele>
        <time>2025-02-04T13:50:16.265Z</time>
      </trkpt>
      <trkpt lat="58.78564598970115" lon="12.415827931836247">
        <ele>57.36</ele>
        <time>2025-02-04T13:50:35.324Z</time>
      </trkpt>
      <trkpt lat="58.785586981102824" lon="12.415736988186836">
        <ele>57.49</ele>
        <time>2025-02-04T13:50:54.384Z</time>
      </trkpt>
      <trkpt lat="58.78552897833288" lon="12.415644954890013">
        <ele>57.62</ele>
        <time>2025-02-04T13:51:13.445Z</time>
      </trkpt>
      <trkpt lat="58.78547097556293" lon="12.41555493324995">
        <ele>57.75</ele>
        <time>2025-02-04T13:51:32.508Z</time>
      </trkpt>
      <trkpt lat="58.785413978621364" lon="12.41546499542892">
        <ele>57.87</ele>
        <time>2025-02-04T13:51:51.572Z</time>
      </trkpt>
      <trkpt lat="58.78535597585142" lon="12.415375979617238">
        <ele>57.99</ele>
        <time>2025-02-04T13:52:10.637Z</time>
      </trkpt>
      <trkpt lat="58.78529797308147" lon="12.415289981290698">
        <ele>58.11</ele>
        <time>2025-02-04T13:52:29.703Z</time>
      </trkpt>
      <trkpt lat="58.7852409761399" lon="12.415204988792539">
        <ele>58.23</ele>
        <time>2025-02-04T13:52:48.770Z</time>
      </trkpt>
      <trkpt lat="58.7851859908551" lon="12.415121924132109">
        <ele>58.35</ele>
        <time>2025-02-04T13:53:07.838Z</time>
      </trkpt>
      <trkpt lat="58.78513092175126" lon="12.415039949119091">
        <ele>58.47</ele>
        <time>2025-02-04T13:53:26.907Z</time>
      </trkpt>
      <trkpt lat="58.785076942294836" lon="12.414957974106073">
        <ele>58.58</ele>
        <time>2025-02-04T13:53:45.978Z</time>
      </trkpt>
      <trkpt lat="58.78502497449517" lon="12.414876921102405">
        <ele>58.69</ele>
        <time>2025-02-04T13:54:05.050Z</time>
      </trkpt>
      <trkpt lat="58.78497594036162" lon="12.414796957746148">
        <ele>58.8</ele>
        <time>2025-02-04T13:54:24.123Z</time>
      </trkpt>
      <trkpt lat="58.78492598421872" lon="12.414718922227621">
        <ele>58.91</ele>
        <time>2025-02-04T13:54:43.197Z</time>
      </trkpt>
      <trkpt lat="58.78487594425678" lon="12.414640970528126">
        <ele>59.02</ele>
        <time>2025-02-04T13:55:02.272Z</time>
      </trkpt>
      <trkpt lat="58.78482699394226" lon="12.41456494666636">
        <ele>59.13</ele>
        <time>2025-02-04T13:55:21.348Z</time>
      </trkpt>
      <trkpt lat="58.78477997146547" lon="12.414487916976213">
        <ele>59.23</ele>
        <time>2025-02-04T13:55:40.425Z</time>
      </trkpt>
      <trkpt lat="58.784731943160295" lon="12.41441398859024">
        <ele>59.33</ele>
        <time>2025-02-04T13:55:59.503Z</time>
      </trkpt>
      <trkpt lat="58.784682992845774" lon="12.414341988041997">
        <ele>59.44</ele>
        <time>2025-02-04T13:56:18.582Z</time>
      </trkpt>
      <trkpt lat="58.78463395871222" lon="12.414270993322134">
        <ele>59.54</ele>
        <time>2025-02-04T13:56:37.662Z</time>
      </trkpt>
      <trkpt lat="58.78458299674094" lon="12.41419899277389">
        <ele>59.64</ele>
        <time>2025-02-04T13:56:56.743Z</time>
      </trkpt>
      <trkpt lat="58.784532956779" lon="12.414127998054028">
        <ele>59.74</ele>
        <time>2025-02-04T13:57:15.825Z</time>
      </trkpt>
      <trkpt lat="58.78448392264545" lon="12.414057925343513">
        <ele>59.84</ele>
        <time>2025-02-04T13:57:34.908Z</time>
      </trkpt>
      <trkpt lat="58.78443497233093" lon="12.413987936452031">
        <ele>59.94</ele>
        <time>2025-02-04T13:57:53.992Z</time>
      </trkpt>
      <trkpt lat="58.784387949854136" lon="12.413916941732168">
        <ele>60.04</ele>
        <time>2025-02-04T13:58:13.077Z</time>
      </trkpt>
      <trkpt lat="58.78433992154896" lon="12.413847958669066">
        <ele>60.13</ele>
        <time>2025-02-04T13:58:32.163Z</time>
      </trkpt>
      <trkpt lat="58.78429097123444" lon="12.413779981434345">
        <ele>60.22</ele>
        <time>2025-02-04T13:58:51.250Z</time>
      </trkpt>
      <trkpt lat="58.78424093127251" lon="12.413712926208973">
        <ele>60.31</ele>
        <time>2025-02-04T13:59:10.338Z</time>
      </trkpt>
      <trkpt lat="58.78418896347284" lon="12.413645954802632">
        <ele>60.4</ele>
        <time>2025-02-04T13:59:29.427Z</time>
      </trkpt>
      <trkpt lat="58.78413992933929" lon="12.413579989224672">
        <ele>60.49</ele>
        <time>2025-02-04T13:59:48.516Z</time>
      </trkpt>
      <trkpt lat="58.78408997319639" lon="12.41351393982768">
        <ele>60.57</ele>
        <time>2025-02-04T14:00:07.606Z</time>
      </trkpt>
      <trkpt lat="58.784040939062834" lon="12.413449985906482">
        <ele>60.64</ele>
        <time>2025-02-04T14:00:26.697Z</time>
      </trkpt>
      <trkpt lat="58.78399198874831" lon="12.413385948166251">
        <ele>60.72</ele>
        <time>2025-02-04T14:00:45.789Z</time>
      </trkpt>
      <trkpt lat="58.78394194878638" lon="12.413321994245052">
        <ele>60.79</ele>
        <time>2025-02-04T14:01:04.882Z</time>
      </trkpt>
      <trkpt lat="58.783891992643476" lon="12.413259968161583">
        <ele>60.86</ele>
        <time>2025-02-04T14:01:23.976Z</time>
      </trkpt>
      <trkpt lat="58.78384195268154" lon="12.413197942078114">
        <ele>60.93</ele>
        <time>2025-02-04T14:01:43.071Z</time>
      </trkpt>
      <trkpt lat="58.78379199653864" lon="12.413137927651405">
        <ele>60.99</ele>
        <time>2025-02-04T14:02:02.167Z</time>
      </trkpt>
      <trkpt lat="58.783740950748324" lon="12.413079924881458">
        <ele>61.05</ele>
        <time>2025-02-04T14:02:21.264Z</time>
      </trkpt>
      <trkpt lat="58.78368898294866" lon="12.413025945425034">
        <ele>61.11</ele>
        <time>2025-02-04T14:02:40.362Z</time>
      </trkpt>
      <trkpt lat="58.783637937158346" lon="12.412969954311848">
        <ele>61.17</ele>
        <time>2025-02-04T14:02:59.461Z</time>
      </trkpt>
      <trkpt lat="58.78358697518706" lon="12.412914969027042">
        <ele>61.22</ele>
        <time>2025-02-04T14:03:18.561Z</time>
      </trkpt>
      <trkpt lat="58.78353492356837" lon="12.412859983742237">
        <ele>61.27</ele>
        <time>2025-02-04T14:03:37.662Z</time>
      </trkpt>
      <trkpt lat="58.783481949940324" lon="12.412804998457432">
        <ele>61.32</ele>
        <time>2025-02-04T14:03:56.764Z</time>
      </trkpt>
      <trkpt lat="58.78342897631228" lon="12.412749929353595">
        <ele>61.37</ele>
        <time>2025-02-04T14:04:15.867Z</time>
      </trkpt>
      <trkpt lat="58.783375918865204" lon="12.412693938240409">
        <ele>61.41</ele>
        <time>2025-02-04T14:04:34.971Z</time>
      </trkpt>
      <trkpt lat="58.78332193940878" lon="12.412639958783984">
        <ele>61.46</ele>
        <time>2025-02-04T14:04:54.076Z</time>
      </trkpt>
      <trkpt lat="58.783267959952354" lon="12.41258597932756">
        <ele>61.5</ele>
        <time>2025-02-04T14:05:13.182Z</time>
      </trkpt>
      <trkpt lat="58.78321297466755" lon="12.412534933537245">
        <ele>61.54</ele>
        <time>2025-02-04T14:05:32.289Z</time>
      </trkpt>
      <trkpt lat="58.783157989382744" lon="12.412482965737581">
        <ele>61.57</ele>
        <time>2025-02-04T14:05:51.397Z</time>
      </trkpt>
      <trkpt lat="58.78310292027891" lon="12.412429992109537">
        <ele>61.6</ele>
        <time>2025-02-04T14:06:10.506Z</time>
      </trkpt>
      <trkpt lat="58.78304692916572" lon="12.412376934662461">
        <ele>61.63</ele>
        <time>2025-02-04T14:06:29.616Z</time>
      </trkpt>
      <trkpt lat="58.782991943880916" lon="12.412325972691178">
        <ele>61.65</ele>
        <time>2025-02-04T14:06:48.727Z</time>
      </trkpt>
      <trkpt lat="58.78293595276773" lon="12.412274926900864">
        <ele>61.68</ele>
        <time>2025-02-04T14:07:07.839Z</time>
      </trkpt>
      <trkpt lat="58.782879961654544" lon="12.41222396492958">
        <ele>61.69</ele>
        <time>2025-02-04T14:07:26.952Z</time>
      </trkpt>
      <trkpt lat="58.78282296471298" lon="12.412172919139266">
        <ele>61.71</ele>
        <time>2025-02-04T14:07:46.066Z</time>
      </trkpt>
      <trkpt lat="58.78276596777141" lon="12.412120951339602">
        <ele>61.72</ele>
        <time>2025-02-04T14:08:05.181Z</time>
      </trkpt>
      <trkpt lat="58.782708970829844" lon="12.412067977711558">
        <ele>61.73</ele>
        <time>2025-02-04T14:08:24.297Z</time>
      </trkpt>
      <trkpt lat="58.78265197388828" lon="12.412016931921244">
        <ele>61.74</ele>
        <time>2025-02-04T14:08:43.414Z</time>
      </trkpt>
      <trkpt lat="58.78259296528995" lon="12.411967981606722">
        <ele>61.74</ele>
        <time>2025-02-04T14:09:02.532Z</time>
      </trkpt>
      <trkpt lat="58.78253295086324" lon="12.411918947473168">
        <ele>61.74</ele>
        <time>2025-02-04T14:09:21.651Z</time>
      </trkpt>
      <trkpt lat="58.782472936436534" lon="12.411869997158647">
        <ele>61.74</ele>
        <time>2025-02-04T14:09:40.771Z</time>
      </trkpt>
      <trkpt lat="58.782411916181445" lon="12.411820963025093">
        <ele>61.74</ele>
        <time>2025-02-04T14:09:59.892Z</time>
      </trkpt>
      <trkpt lat="58.78234997391701" lon="12.41177192889154">
        <ele>61.73</ele>
        <time>2025-02-04T14:10:19.014Z</time>
      </trkpt>
      <trkpt lat="58.78228794783354" lon="12.411723984405398">
        <ele>61.72</ele>
        <time>2025-02-04T14:10:38.137Z</time>
      </trkpt>
      <trkpt lat="58.78222499974072" lon="12.411676961928606">
        <ele>61.71</ele>
        <time>2025-02-04T14:10:57.261Z</time>
      </trkpt>
      <trkpt lat="58.78216096200049" lon="12.411628933623433">
        <ele>61.69</ele>
        <time>2025-02-04T14:11:16.386Z</time>
      </trkpt>
      <trkpt lat="58.78209591843188" lon="12.411581994965672">
        <ele>61.67</ele>
        <time>2025-02-04T14:11:35.512Z</time>
      </trkpt>
      <trkpt lat="58.78202995285392" lon="12.41153497248888">
        <ele>61.65</ele>
        <time>2025-02-04T14:11:54.639Z</time>
      </trkpt>
      <trkpt lat="58.78196398727596" lon="12.411485938355327">
        <ele>61.63</ele>
        <time>2025-02-04T14:12:13.768Z</time>
      </trkpt>
      <trkpt lat="58.781896932050586" lon="12.411438999697566">
        <ele>61.61</ele>
        <time>2025-02-04T14:12:32.898Z</time>
      </trkpt>
      <trkpt lat="58.781827948987484" lon="12.411394994705915">
        <ele>61.59</ele>
        <time>2025-02-04T14:12:52.029Z</time>
      </trkpt>
      <trkpt lat="58.78175896592438" lon="12.411350989714265">
        <ele>61.56</ele>
        <time>2025-02-04T14:13:11.161Z</time>
      </trkpt>
      <trkpt lat="58.78169098868966" lon="12.411305978894234">
        <ele>61.53</ele>
        <time>2025-02-04T14:13:30.294Z</time>
      </trkpt>
      <trkpt lat="58.78162099979818" lon="12.411261973902583">
        <ele>61.5</ele>
        <time>2025-02-04T14:13:49.428Z</time>
      </trkpt>
      <trkpt lat="58.781551932916045" lon="12.411217968910933">
        <ele>61.46</ele>
        <time>2025-02-04T14:14:08.564Z</time>
      </trkpt>
      <trkpt lat="58.78148194402456" lon="12.411174969747663">
        <ele>61.42</ele>
        <time>2025-02-04T14:14:27.701Z</time>
      </trkpt>
      <trkpt lat="58.7814109493047" lon="12.411132976412773">
        <ele>61.39</ele>
        <time>2025-02-04T14:14:46.839Z</time>
      </trkpt>
      <trkpt lat="58.781338948756456" lon="12.411090983077884">
        <ele>61.34</ele>
        <time>2025-02-04T14:15:05.978Z</time>
      </trkpt>
      <trkpt lat="58.78126594237983" lon="12.411050917580724">
        <ele>61.3</ele>
        <time>2025-02-04T14:15:25.118Z</time>
      </trkpt>
      <trkpt lat="58.78119193017483" lon="12.411011941730976">
        <ele>61.26</ele>
        <time>2025-02-04T14:15:44.260Z</time>
      </trkpt>
      <trkpt lat="58.78111791796982" lon="12.410972965881228">
        <ele>61.2</ele>
        <time>2025-02-04T14:16:03.403Z</time>
      </trkpt>
      <trkpt lat="58.78104197792709" lon="12.41093399003148">
        <ele>61.15</ele>
        <time>2025-02-04T14:16:22.547Z</time>
      </trkpt>
      <trkpt lat="58.78096595406532" lon="12.410896942019463">
        <ele>61.1</ele>
        <time>2025-02-04T14:16:41.692Z</time>
      </trkpt>
      <trkpt lat="58.780887918546796" lon="12.410858971998096">
        <ele>61.04</ele>
        <time>2025-02-04T14:17:00.839Z</time>
      </trkpt>
      <trkpt lat="58.78080896101892" lon="12.410823935642838">
        <ele>60.99</ele>
        <time>2025-02-04T14:17:19.987Z</time>
      </trkpt>
      <trkpt lat="58.78073092550039" lon="12.410788983106613">
        <ele>60.93</ele>
        <time>2025-02-04T14:17:39.136Z</time>
      </trkpt>
      <trkpt lat="58.780649956315756" lon="12.410754952579737">
        <ele>60.88</ele>
        <time>2025-02-04T14:17:58.287Z</time>
      </trkpt>
      <trkpt lat="58.78056898713112" lon="12.410722933709621">
        <ele>60.82</ele>
        <time>2025-02-04T14:18:17.439Z</time>
      </trkpt>
      <trkpt lat="58.78048793412745" lon="12.410690998658538">
        <ele>60.77</ele>
        <time>2025-02-04T14:18:36.592Z</time>
      </trkpt>
      <trkpt lat="58.78040595911443" lon="12.410660991445184">
        <ele>60.71</ele>
        <time>2025-02-04T14:18:55.747Z</time>
      </trkpt>
      <trkpt lat="58.780323984101415" lon="12.41063199006021">
        <ele>60.66</ele>
        <time>2025-02-04T14:19:14.903Z</time>
      </trkpt>
      <trkpt lat="58.780240919440985" lon="12.410602988675237">
        <ele>60.6</ele>
        <time>2025-02-04T14:19:34.060Z</time>
      </trkpt>
      <trkpt lat="58.78015793859959" lon="12.410573987290263">
        <ele>60.54</ele>
        <time>2025-02-04T14:19:53.219Z</time>
      </trkpt>
      <trkpt lat="58.78007395192981" lon="12.41054599173367">
        <ele>60.48</ele>
        <time>2025-02-04T14:20:12.379Z</time>
      </trkpt>
      <trkpt lat="58.77998996526003" lon="12.410518918186426">
        <ele>60.41</ele>
        <time>2025-02-04T14:20:31.540Z</time>
      </trkpt>
      <trkpt lat="58.77990497276187" lon="12.410494945943356">
        <ele>60.34</ele>
        <time>2025-02-04T14:20:50.703Z</time>
      </trkpt>
      <trkpt lat="58.77981897443533" lon="12.410470973700285">
        <ele>60.27</ele>
        <time>2025-02-04T14:21:09.867Z</time>
      </trkpt>
      <trkpt lat="58.77973096445203" lon="12.410450940951705">
        <ele>60.19</ele>
        <time>2025-02-04T14:21:29.033Z</time>
      </trkpt>
      <trkpt lat="58.779640942811966" lon="12.410430992022157">
        <ele>60.11</ele>
        <time>2025-02-04T14:21:48.200Z</time>
      </trkpt>
      <trkpt lat="58.779550921171904" lon="12.410408947616816">
        <ele>60.03</ele>
        <time>2025-02-04T14:22:07.368Z</time>
      </trkpt>
      <trkpt lat="58.77945897169411" lon="12.410389920696616">
        <ele>59.94</ele>
        <time>2025-02-04T14:22:26.538Z</time>
      </trkpt>
      <trkpt lat="58.77936693839729" lon="12.41037298925221">
        <ele>59.86</ele>
        <time>2025-02-04T14:22:45.709Z</time>
      </trkpt>
      <trkpt lat="58.779273983091116" lon="12.410359997302294">
        <ele>59.78</ele>
        <time>2025-02-04T14:23:04.882Z</time>
      </trkpt>
      <trkpt lat="58.77917893230915" lon="12.410346921533346">
        <ele>59.69</ele>
        <time>2025-02-04T14:23:24.056Z</time>
      </trkpt>
      <trkpt lat="58.77908396534622" lon="12.410335941240191">
        <ele>59.61</ele>
        <time>2025-02-04T14:23:43.232Z</time>
      </trkpt>
      <trkpt lat="58.77898497506976" lon="12.410326972603798">
        <ele>59.52</ele>
        <time>2025-02-04T14:24:02.410Z</time>
      </trkpt>
      <trkpt lat="58.778885984793305" lon="12.410321943461895">
        <ele>59.44</ele>
        <time>2025-02-04T14:24:21.589Z</time>
      </trkpt>
      <trkpt lat="58.77878598868847" lon="12.410314986482263">
        <ele>59.36</ele>
        <time>2025-02-04T14:24:40.770Z</time>
      </trkpt>
      <trkpt lat="58.77868398092687" lon="12.410308951511979">
        <ele>59.28</ele>
        <time>2025-02-04T14:24:59.952Z</time>
      </trkpt>
      <trkpt lat="58.778582978993654" lon="12.410306939855218">
        <ele>59.21</ele>
        <time>2025-02-04T14:25:19.136Z</time>
      </trkpt>
      <trkpt lat="58.778477953746915" lon="12.410307945683599">
        <ele>59.13</ele>
        <time>2025-02-04T14:25:38.322Z</time>
      </trkpt>
      <trkpt lat="58.778373934328556" lon="12.410312974825501">
        <ele>59.07</ele>
        <time>2025-02-04T14:25:57.509Z</time>
      </trkpt>
      <trkpt lat="58.77826798707247" lon="12.410320937633514">
        <ele>59.01</ele>
        <time>2025-02-04T14:26:16.698Z</time>
      </trkpt>
      <trkpt lat="58.77816195599735" lon="12.41032999008894">
        <ele>58.95</ele>
        <time>2025-02-04T14:26:35.889Z</time>
      </trkpt>
      <trkpt lat="58.77805592492223" lon="12.410341976210475">
        <ele>58.89</ele>
        <time>2025-02-04T14:26:55.081Z</time>
      </trkpt>
      <trkpt lat="58.77794997766614" lon="12.410356979817152">
        <ele>58.84</ele>
        <time>2025-02-04T14:27:14.275Z</time>
      </trkpt>
      <trkpt lat="58.77784294076264" lon="12.41037298925221">
        <ele>58.78</ele>
        <time>2025-02-04T14:27:33.471Z</time>
      </trkpt>
      <trkpt lat="58.77773699350655" lon="12.410390926524997">
        <ele>58.72</ele>
        <time>2025-02-04T14:27:52.669Z</time>
      </trkpt>
      <trkpt lat="58.77763096243143" lon="12.410410959273577">
        <ele>58.66</ele>
        <time>2025-02-04T14:28:11.868Z</time>
      </trkpt>
      <trkpt lat="58.77752593718469" lon="12.410432919859886">
        <ele>58.6</ele>
        <time>2025-02-04T14:28:31.069Z</time>
      </trkpt>
      <trkpt lat="58.77742292359471" lon="12.410455970093608">
        <ele>58.55</ele>
        <time>2025-02-04T14:28:50.272Z</time>
      </trkpt>
      <trkpt lat="58.777318987995386" lon="12.410480948165059">
        <ele>58.5</ele>
        <time>2025-02-04T14:29:09.476Z</time>
      </trkpt>
      <trkpt lat="58.77721496857703" lon="12.410507937893271">
        <ele>58.44</ele>
        <time>2025-02-04T14:29:28.682Z</time>
      </trkpt>
      <trkpt lat="58.77710893750191" lon="12.410535933449864">
        <ele>58.39</ele>
        <time>2025-02-04T14:29:47.890Z</time>
      </trkpt>
      <trkpt lat="58.7770039960742" lon="12.410563929006457">
        <ele>58.34</ele>
        <time>2025-02-04T14:30:07.099Z</time>
      </trkpt>
      <trkpt lat="58.77689796499908" lon="12.41059293039143">
        <ele>58.3</ele>
        <time>2025-02-04T14:30:26.310Z</time>
      </trkpt>
      <trkpt lat="58.77679193392396" lon="12.410621931776404">
        <ele>58.26</ele>
        <time>2025-02-04T14:30:45.523Z</time>
      </trkpt>
      <trkpt lat="58.77668498083949" lon="12.410651938989758">
        <ele>58.21</ele>
        <time>2025-02-04T14:31:04.738Z</time>
      </trkpt>
      <trkpt lat="58.77657894976437" lon="12.410680940374732">
        <ele>58.18</ele>
        <time>2025-02-04T14:31:23.954Z</time>
      </trkpt>
      <trkpt lat="58.77647392451763" lon="12.410707930102944">
        <ele>58.15</ele>
        <time>2025-02-04T14:31:43.172Z</time>
      </trkpt>
      <trkpt lat="58.776369988918304" lon="12.410735925659537">
        <ele>58.12</ele>
        <time>2025-02-04T14:32:02.392Z</time>
      </trkpt>
      <trkpt lat="58.776265969499946" lon="12.410765932872891">
        <ele>58.1</ele>
        <time>2025-02-04T14:32:21.613Z</time>
      </trkpt>
      <trkpt lat="58.77616396173835" lon="12.410795940086246">
        <ele>58.08</ele>
        <time>2025-02-04T14:32:40.836Z</time>
      </trkpt>
      <trkpt lat="58.77606195397675" lon="12.410822929814458">
        <ele>58.07</ele>
        <time>2025-02-04T14:33:00.061Z</time>
      </trkpt>
      <trkpt lat="58.77596095204353" lon="12.410851931199431">
        <ele>58.06</ele>
        <time>2025-02-04T14:33:19.287Z</time>
      </trkpt>
      <trkpt lat="58.77586296759546" lon="12.410879926756024">
        <ele>58.06</ele>
        <time>2025-02-04T14:33:38.515Z</time>
      </trkpt>
      <trkpt lat="58.775763977319" lon="12.410906916484237">
        <ele>58.06</ele>
        <time>2025-02-04T14:33:57.745Z</time>
      </trkpt>
      <trkpt lat="58.775667920708656" lon="12.41093399003148">
        <ele>58.07</ele>
        <time>2025-02-04T14:34:16.976Z</time>
      </trkpt>
      <trkpt lat="58.77557295374572" lon="12.410957962274551">
        <ele>58.08</ele>
        <time>2025-02-04T14:34:36.209Z</time>
      </trkpt>
      <trkpt lat="58.77547999843955" lon="12.410980928689241">
        <ele>58.1</ele>
        <time>2025-02-04T14:34:55.443Z</time>
      </trkpt>
      <trkpt lat="58.77538796514273" lon="12.411004984751344">
        <ele>58.12</ele>
        <time>2025-02-04T14:35:14.679Z</time>
      </trkpt>
      <trkpt lat="58.775296937674284" lon="12.411028956994414">
        <ele>58.15</ele>
        <time>2025-02-04T14:35:33.916Z</time>
      </trkpt>
      <trkpt lat="58.77520993351936" lon="12.411052929237485">
        <ele>58.17</ele>
        <time>2025-02-04T14:35:53.154Z</time>
      </trkpt>
      <trkpt lat="58.775124941021204" lon="12.411076985299587">
        <ele>58.2</ele>
        <time>2025-02-04T14:36:12.394Z</time>
      </trkpt>
      <trkpt lat="58.775040954351425" lon="12.411101963371038">
        <ele>58.23</ele>
        <time>2025-02-04T14:36:31.635Z</time>
      </trkpt>
      <trkpt lat="58.774956967681646" lon="12.41112794727087">
        <ele>58.27</ele>
        <time>2025-02-04T14:36:50.878Z</time>
      </trkpt>
      <trkpt lat="58.77487499266863" lon="12.41115191951394">
        <ele>58.31</ele>
        <time>2025-02-04T14:37:10.122Z</time>
      </trkpt>
      <trkpt lat="58.77479293383658" lon="12.411173963919282">
        <ele>58.36</ele>
        <time>2025-02-04T14:37:29.367Z</time>
      </trkpt>
      <trkpt lat="58.77471196465194" lon="12.411197936162353">
        <ele>58.41</ele>
        <time>2025-02-04T14:37:48.614Z</time>
      </trkpt>
      <trkpt lat="58.774630995467305" lon="12.411222998052835">
        <ele>58.46</ele>
        <time>2025-02-04T14:38:07.862Z</time>
      </trkpt>
      <trkpt lat="58.77455295994878" lon="12.411249987781048">
        <ele>58.52</ele>
        <time>2025-02-04T14:38:27.111Z</time>
      </trkpt>
      <trkpt lat="58.77447593025863" lon="12.411274965852499">
        <ele>58.57</ele>
        <time>2025-02-04T14:38:46.361Z</time>
      </trkpt>
      <trkpt lat="58.77439898438752" lon="12.41129893809557">
        <ele>58.64</ele>
        <time>2025-02-04T14:39:05.613Z</time>
      </trkpt>
      <trkpt lat="58.77432195469737" lon="12.411325927823782">
        <ele>58.7</ele>
        <time>2025-02-04T14:39:24.866Z</time>
      </trkpt>
      <trkpt lat="58.774246936663985" lon="12.411350989714265">
        <ele>58.78</ele>
        <time>2025-02-04T14:39:44.120Z</time>
      </trkpt>
      <trkpt lat="58.77417099662125" lon="12.411378985270858">
        <ele>58.85</ele>
        <time>2025-02-04T14:40:03.375Z</time>
      </trkpt>
      <trkpt lat="58.774095978587866" lon="12.41140597499907">
        <ele>58.93</ele>
        <time>2025-02-04T14:40:22.632Z</time>
      </trkpt>
      <trkpt lat="58.77402196638286" lon="12.411433970555663">
        <ele>59.01</ele>
        <time>2025-02-04T14:40:41.890Z</time>
      </trkpt>
      <trkpt lat="58.773947954177856" lon="12.411460960283875">
        <ele>59.1</ele>
        <time>2025-02-04T14:41:01.149Z</time>
      </trkpt>
      <trkpt lat="58.77387595362961" lon="12.411487950012088">
        <ele>59.19</ele>
        <time>2025-02-04T14:41:20.409Z</time>
      </trkpt>
      <trkpt lat="58.77380495890975" lon="12.41151594556868">
        <ele>59.29</ele>
        <time>2025-02-04T14:41:39.670Z</time>
      </trkpt>
      <trkpt lat="58.77373295836151" lon="12.411544946953654">
        <ele>59.39</ele>
        <time>2025-02-04T14:41:58.933Z</time>
      </trkpt>
      <trkpt lat="58.773662969470024" lon="12.411574954167008">
        <ele>59.5</ele>
        <time>2025-02-04T14:42:18.197Z</time>
      </trkpt>
      <trkpt lat="58.77359197475016" lon="12.41160194389522">
        <ele>59.62</ele>
        <time>2025-02-04T14:42:37.462Z</time>
      </trkpt>
      <trkpt lat="58.77352299168706" lon="12.411628933623433">
        <ele>59.74</ele>
        <time>2025-02-04T14:42:56.728Z</time>
      </trkpt>
      <trkpt lat="58.77345493063331" lon="12.411657935008407">
        <ele>59.87</ele>
        <time>2025-02-04T14:43:15.995Z</time>
      </trkpt>
      <trkpt lat="58.773387959226966" lon="12.411684924736619">
        <ele>59.99</ele>
        <time>2025-02-04T14:43:35.263Z</time>
      </trkpt>
      <trkpt lat="58.773321993649006" lon="12.411713926121593">
        <ele>60.13</ele>
        <time>2025-02-04T14:43:54.532Z</time>
      </trkpt>
      <trkpt lat="58.773255944252014" lon="12.411742927506566">
        <ele>60.26</ele>
        <time>2025-02-04T14:44:13.802Z</time>
      </trkpt>
      <trkpt lat="58.773191990330815" lon="12.411774946376681">
        <ele>60.4</ele>
        <time>2025-02-04T14:44:33.073Z</time>
      </trkpt>
      <trkpt lat="58.77312493510544" lon="12.411807971075177">
        <ele>60.55</ele>
        <time>2025-02-04T14:44:52.346Z</time>
      </trkpt>
      <trkpt lat="58.7730579636991" lon="12.411838984116912">
        <ele>60.69</ele>
        <time>2025-02-04T14:45:11.620Z</time>
      </trkpt>
      <trkpt lat="58.77299199812114" lon="12.411871924996376">
        <ele>60.84</ele>
        <time>2025-02-04T14:45:30.895Z</time>
      </trkpt>
      <trkpt lat="58.77292393706739" lon="12.411906961351633">
        <ele>60.99</ele>
        <time>2025-02-04T14:45:50.171Z</time>
      </trkpt>
      <trkpt lat="58.77285495400429" lon="12.411939986050129">
        <ele>61.15</ele>
        <time>2025-02-04T14:46:09.448Z</time>
      </trkpt>
      <trkpt lat="58.77278697676957" lon="12.411969993263483">
        <ele>61.3</ele>
        <time>2025-02-04T14:46:28.726Z</time>
      </trkpt>
      <trkpt lat="58.772716987878084" lon="12.412000922486186">
        <ele>61.46</ele>
        <time>2025-02-04T14:46:48.005Z</time>
      </trkpt>
      <trkpt lat="58.77264792099595" lon="12.412034953013062">
        <ele>61.63</ele>
        <time>2025-02-04T14:47:07.285Z</time>
      </trkpt>
      <trkpt lat="58.77257893793285" lon="12.412071917206049">
        <ele>61.8</ele>
        <time>2025-02-04T14:47:26.567Z</time>
      </trkpt>
      <trkpt lat="58.77251196652651" lon="12.412109971046448">
        <ele>61.97</ele>
        <time>2025-02-04T14:47:45.850Z</time>
      </trkpt>
      <trkpt lat="58.77244591712952" lon="12.412144923582673">
        <ele>62.14</ele>
        <time>2025-02-04T14:48:05.134Z</time>
      </trkpt>
      <trkpt lat="58.77238095737994" lon="12.412177948281169">
        <ele>62.32</ele>
        <time>2025-02-04T14:48:24.419Z</time>
      </trkpt>
      <trkpt lat="58.77231599763036" lon="12.412208961322904">
        <ele>62.5</ele>
        <time>2025-02-04T14:48:43.705Z</time>
      </trkpt>
      <trkpt lat="58.77225397154689" lon="12.4122419860214">
        <ele>62.68</ele>
        <time>2025-02-04T14:49:02.992Z</time>
      </trkpt>
      <trkpt lat="58.77218892797828" lon="12.412276938557625">
        <ele>62.87</ele>
        <time>2025-02-04T14:49:22.280Z</time>
      </trkpt>
      <trkpt lat="58.77212597988546" lon="12.412311974912882">
        <ele>63.06</ele>
        <time>2025-02-04T14:49:41.569Z</time>
      </trkpt>
      <trkpt lat="58.77206395380199" lon="12.412346927449107">
        <ele>63.25</ele>
        <time>2025-02-04T14:50:00.859Z</time>
      </trkpt>
      <trkpt lat="58.77200092189014" lon="12.412378946319222">
        <ele>63.44</ele>
        <time>2025-02-04T14:50:20.150Z</time>
      </trkpt>
      <trkpt lat="58.77193998545408" lon="12.412410965189338">
        <ele>63.64</ele>
        <time>2025-02-04T14:50:39.442Z</time>
      </trkpt>
      <trkpt lat="58.771879971027374" lon="12.412443989887834">
        <ele>63.83</ele>
        <time>2025-02-04T14:50:58.735Z</time>
      </trkpt>
      <trkpt lat="58.771819956600666" lon="12.412477936595678">
        <ele>64.04</ele>
        <time>2025-02-04T14:51:18.029Z</time>
      </trkpt>
      <trkpt lat="58.7717579305172" lon="12.412511967122555">
        <ele>64.24</ele>
        <time>2025-02-04T14:51:37.324Z</time>
      </trkpt>
      <trkpt lat="58.77169598825276" lon="12.412548931315541">
        <ele>64.45</ele>
        <time>2025-02-04T14:51:56.620Z</time>
      </trkpt>
      <trkpt lat="58.77163396216929" lon="12.41258597932756">
        <ele>64.66</ele>
        <time>2025-02-04T14:52:15.917Z</time>
      </trkpt>
      <trkpt lat="58.77157093025744" lon="12.412622943520546">
        <ele>64.87</ele>
        <time>2025-02-04T14:52:35.215Z</time>
      </trkpt>
      <trkpt lat="58.77150798216462" lon="12.412658985704184">
        <ele>65.09</ele>
        <time>2025-02-04T14:52:54.514Z</time>
      </trkpt>
      <trkpt lat="58.77144595608115" lon="12.412693938240409">
        <ele>65.31</ele>
        <time>2025-02-04T14:53:13.814Z</time>
      </trkpt>
      <trkpt lat="58.77138392999768" lon="12.412729980424047">
        <ele>65.53</ele>
        <time>2025-02-04T14:53:33.116Z</time>
      </trkpt>
      <trkpt lat="58.771321987733245" lon="12.412763927131891">
        <ele>65.75</ele>
        <time>2025-02-04T14:53:52.419Z</time>
      </trkpt>
      <trkpt lat="58.771259961649776" lon="12.412798963487148">
        <ele>65.97</ele>
        <time>2025-02-04T14:54:11.723Z</time>
      </trkpt>
      <trkpt lat="58.77119894139469" lon="12.412832994014025">
        <ele>66.2</ele>
        <time>2025-02-04T14:54:31.028Z</time>
      </trkpt>
      <trkpt lat="58.77113699913025" lon="12.412864929065108">
        <ele>66.43</ele>
        <time>2025-02-04T14:54:50.334Z</time>
      </trkpt>
      <trkpt lat="58.77107698470354" lon="12.412896947935224">
        <ele>66.66</ele>
        <time>2025-02-04T14:55:09.641Z</time>
      </trkpt>
      <trkpt lat="58.77101697027683" lon="12.412927960976958">
        <ele>66.89</ele>
        <time>2025-02-04T14:55:28.949Z</time>
      </trkpt>
      <trkpt lat="58.770957961678505" lon="12.412958974018693">
        <ele>67.12</ele>
        <time>2025-02-04T14:55:48.258Z</time>
      </trkpt>
      <trkpt lat="58.77090096473694" lon="12.412989987060428">
        <ele>67.35</ele>
        <time>2025-02-04T14:56:07.568Z</time>
      </trkpt>
      <trkpt lat="58.770846985280514" lon="12.41302091628313">
        <ele>67.59</ele>
        <time>2025-02-04T14:56:26.878Z</time>
      </trkpt>
      <trkpt lat="58.77079392783344" lon="12.413053940981627">
        <ele>67.82</ele>
        <time>2025-02-04T14:56:46.189Z</time>
      </trkpt>
      <trkpt lat="58.770741960033774" lon="12.413086965680122">
        <ele>68.05</ele>
        <time>2025-02-04T14:57:05.501Z</time>
      </trkpt>
      <trkpt lat="58.77068898640573" lon="12.413114961236715">
        <ele>68.28</ele>
        <time>2025-02-04T14:57:24.814Z</time>
      </trkpt>
      <trkpt lat="58.770634923130274" lon="12.413142956793308">
        <ele>68.51</ele>
        <time>2025-02-04T14:57:44.128Z</time>
      </trkpt>
      <trkpt lat="58.77058194950223" lon="12.41316793486476">
        <ele>68.74</ele>
        <time>2025-02-04T14:58:03.443Z</time>
      </trkpt>
      <trkpt lat="58.770529981702566" lon="12.413191990926862">
        <ele>68.97</ele>
        <time>2025-02-04T14:58:22.759Z</time>
      </trkpt>
      <trkpt lat="58.77048195339739" lon="12.413220992311835">
        <ele>69.2</ele>
        <time>2025-02-04T14:58:42.076Z</time>
      </trkpt>
      <trkpt lat="58.77043099142611" lon="12.413246976211667">
        <ele>69.42</ele>
        <time>2025-02-04T14:59:01.393Z</time>
      </trkpt>
      <trkpt lat="58.770376928150654" lon="12.413263991475105">
        <ele>69.65</ele>
        <time>2025-02-04T14:59:20.711Z</time>
      </trkpt>
      <trkpt lat="58.77032294869423" lon="12.413286957889795">
        <ele>69.88</ele>
        <time>2025-02-04T14:59:40.030Z</time>
      </trkpt>
      <trkpt lat="58.770271986722946" lon="12.413308918476105">
        <ele>70.11</ele>
        <time>2025-02-04T14:59:59.350Z</time>
      </trkpt>
      <trkpt lat="58.77022194676101" lon="12.413331968709826">
        <ele>70.34</ele>
        <time>2025-02-04T15:00:18.671Z</time>
      </trkpt>
      <trkpt lat="58.77017492428422" lon="12.413353929296136">
        <ele>70.57</ele>
        <time>2025-02-04T15:00:37.993Z</time>
      </trkpt>
      <trkpt lat="58.77012697979808" lon="12.413374967873096">
        <ele>70.79</ele>
        <time>2025-02-04T15:00:57.315Z</time>
      </trkpt>
      <trkpt lat="58.770077945664525" lon="12.413395922631025">
        <ele>71.02</ele>
        <time>2025-02-04T15:01:16.638Z</time>
      </trkpt>
      <trkpt lat="58.770033940672874" lon="12.413418972864747">
        <ele>71.25</ele>
        <time>2025-02-04T15:01:35.962Z</time>
      </trkpt>
      <trkpt lat="58.76998792402446" lon="12.413441939279437">
        <ele>71.47</ele>
        <time>2025-02-04T15:01:55.287Z</time>
      </trkpt>
      <trkpt lat="58.7699409853667" lon="12.413467923179269">
        <ele>71.7</ele>
        <time>2025-02-04T15:02:14.612Z</time>
      </trkpt>
      <trkpt lat="58.76989094540477" lon="12.413492985069752">
        <ele>71.92</ele>
        <time>2025-02-04T15:02:33.938Z</time>
      </trkpt>
      <trkpt lat="58.769837971776724" lon="12.413518968969584">
        <ele>72.14</ele>
        <time>2025-02-04T15:02:53.265Z</time>
      </trkpt>
      <trkpt lat="58.76978499814868" lon="12.413542941212654">
        <ele>72.36</ele>
        <time>2025-02-04T15:03:12.593Z</time>
      </trkpt>
      <trkpt lat="58.769732946529984" lon="12.413568925112486">
        <ele>72.57</ele>
        <time>2025-02-04T15:03:31.922Z</time>
      </trkpt>
      <trkpt lat="58.7696819845587" lon="12.413593987002969">
        <ele>72.79</ele>
        <time>2025-02-04T15:03:51.252Z</time>
      </trkpt>
      <trkpt lat="58.769627921283245" lon="12.413616953417659">
        <ele>73.0</ele>
        <time>2025-02-04T15:04:10.583Z</time>
      </trkpt>
      <trkpt lat="58.76957293599844" lon="12.41363799199462">
        <ele>73.22</ele>
        <time>2025-02-04T15:04:29.915Z</time>
      </trkpt>
      <trkpt lat="58.769520968198776" lon="12.413659952580929">
        <ele>73.42</ele>
        <time>2025-02-04T15:04:49.247Z</time>
      </trkpt>
      <trkpt lat="58.7694729398936" lon="12.413683924824">
        <ele>73.63</ele>
        <time>2025-02-04T15:05:08.580Z</time>
      </trkpt>
      <trkpt lat="58.76941694878042" lon="12.413708986714482">
        <ele>73.84</ele>
        <time>2025-02-04T15:05:27.914Z</time>
      </trkpt>
      <trkpt lat="58.76936196349561" lon="12.413732958957553">
        <ele>74.04</ele>
        <time>2025-02-04T15:05:47.249Z</time>
      </trkpt>
      <trkpt lat="58.76930697821081" lon="12.413755925372243">
        <ele>74.23</ele>
        <time>2025-02-04T15:06:06.585Z</time>
      </trkpt>
      <trkpt lat="58.76924796961248" lon="12.413777969777584">
        <ele>74.42</ele>
        <time>2025-02-04T15:06:25.922Z</time>
      </trkpt>
      <trkpt lat="58.76918896101415" lon="12.413798924535513">
        <ele>74.62</ele>
        <time>2025-02-04T15:06:45.260Z</time>
      </trkpt>
      <trkpt lat="58.76912693493068" lon="12.413817951455712">
        <ele>74.81</ele>
        <time>2025-02-04T15:07:04.599Z</time>
      </trkpt>
      <trkpt lat="58.769066920503974" lon="12.413836978375912">
        <ele>75.0</ele>
        <time>2025-02-04T15:07:23.939Z</time>
      </trkpt>
      <trkpt lat="58.76900891773403" lon="12.41385499946773">
        <ele>75.19</ele>
        <time>2025-02-04T15:07:43.280Z</time>
      </trkpt>
      <trkpt lat="58.76894999295473" lon="12.413874948397279">
        <ele>75.37</ele>
        <time>2025-02-04T15:08:02.622Z</time>
      </trkpt>
      <trkpt lat="58.7688909843564" lon="12.41389699280262">
        <ele>75.55</ele>
        <time>2025-02-04T15:08:21.965Z</time>
      </trkpt>
      <trkpt lat="58.768830969929695" lon="12.413917947560549">
        <ele>75.72</ele>
        <time>2025-02-04T15:08:41.309Z</time>
      </trkpt>
      <trkpt lat="58.768766932189465" lon="12.413935968652368">
        <ele>75.89</ele>
        <time>2025-02-04T15:09:00.654Z</time>
      </trkpt>
      <trkpt lat="58.76870599575341" lon="12.413954995572567">
        <ele>76.06</ele>
        <time>2025-02-04T15:09:20.000Z</time>
      </trkpt>
      <trkpt lat="58.76864497549832" lon="12.413970921188593">
        <ele>76.22</ele>
        <time>2025-02-04T15:09:39.347Z</time>
      </trkpt>
      <trkpt lat="58.76858496107161" lon="12.41398592479527">
        <ele>76.38</ele>
        <time>2025-02-04T15:09:58.695Z</time>
      </trkpt>
      <trkpt lat="58.76852394081652" lon="12.414001934230328">
        <ele>76.53</ele>
        <time>2025-02-04T15:10:18.044Z</time>
      </trkpt>
      <trkpt lat="58.76846292056143" lon="12.414019955322146">
        <ele>76.68</ele>
        <time>2025-02-04T15:10:37.394Z</time>
      </trkpt>
      <trkpt lat="58.768400978296995" lon="12.414037976413965">
        <ele>76.82</ele>
        <time>2025-02-04T15:10:56.745Z</time>
      </trkpt>
      <trkpt lat="58.768335934728384" lon="12.414052980020642">
        <ele>76.96</ele>
        <time>2025-02-04T15:11:16.097Z</time>
      </trkpt>
      <trkpt lat="58.768270974978805" lon="12.414066977798939">
        <ele>77.09</ele>
        <time>2025-02-04T15:11:35.450Z</time>
      </trkpt>
      <trkpt lat="58.76820593141019" lon="12.414080975577235">
        <ele>77.22</ele>
        <time>2025-02-04T15:11:54.804Z</time>
      </trkpt>
      <trkpt lat="58.76813393086195" lon="12.414100924506783">
        <ele>77.34</ele>
        <time>2025-02-04T15:12:14.159Z</time>
      </trkpt>
      <trkpt lat="58.76806494779885" lon="12.41411592811346">
        <ele>77.46</ele>
        <time>2025-02-04T15:12:33.515Z</time>
      </trkpt>
      <trkpt lat="58.767995964735746" lon="12.414130931720138">
        <ele>77.57</ele>
        <time>2025-02-04T15:12:52.872Z</time>
      </trkpt>
      <trkpt lat="58.767926981672645" lon="12.414145935326815">
        <ele>77.67</ele>
        <time>2025-02-04T15:13:12.230Z</time>
      </trkpt>
      <trkpt lat="58.7678549811244" lon="12.41415792144835">
        <ele>77.78</ele>
        <time>2025-02-04T15:13:31.589Z</time>
      </trkpt>
      <trkpt lat="58.7677859980613" lon="12.414168985560536">
        <ele>77.88</ele>
        <time>2025-02-04T15:13:50.950Z</time>
      </trkpt>
      <trkpt lat="58.767715925350785" lon="12.41417896002531">
        <ele>77.98</ele>
        <time>2025-02-04T15:14:10.312Z</time>
      </trkpt>
      <trkpt lat="58.76764493063092" lon="12.414188934490085">
        <ele>78.08</ele>
        <time>2025-02-04T15:14:29.675Z</time>
      </trkpt>
      <trkpt lat="58.76757091842592" lon="12.41419899277389">
        <ele>78.17</ele>
        <time>2025-02-04T15:14:49.039Z</time>
      </trkpt>
      <trkpt lat="58.76749497838318" lon="12.414209973067045">
        <ele>78.26</ele>
        <time>2025-02-04T15:15:08.404Z</time>
      </trkpt>
      <trkpt lat="58.76741794869304" lon="12.414222965016961">
        <ele>78.34</ele>
        <time>2025-02-04T15:15:27.770Z</time>
      </trkpt>
      <trkpt lat="58.76733999699354" lon="12.414232939481735">
        <ele>78.42</ele>
        <time>2025-02-04T15:15:47.138Z</time>
      </trkpt>
      <trkpt lat="58.767261961475015" lon="12.4142399802804">
        <ele>78.5</ele>
        <time>2025-02-04T15:16:06.507Z</time>
      </trkpt>
      <trkpt lat="58.76718292012811" lon="12.414245931431651">
        <ele>78.57</ele>
        <time>2025-02-04T15:16:25.877Z</time>
      </trkpt>
      <trkpt lat="58.76710094511509" lon="12.414250960573554">
        <ele>78.64</ele>
        <time>2025-02-04T15:16:45.249Z</time>
      </trkpt>
      <trkpt lat="58.76701695844531" lon="12.414254983887076">
        <ele>78.71</ele>
        <time>2025-02-04T15:17:04.622Z</time>
      </trkpt>
      <trkpt lat="58.76693297177553" lon="12.414257917553186">
        <ele>78.77</ele>
        <time>2025-02-04T15:17:23.996Z</time>
      </trkpt>
      <trkpt lat="58.76684797927737" lon="12.414259929209948">
        <ele>78.83</ele>
        <time>2025-02-04T15:17:43.372Z</time>
      </trkpt>
      <trkpt lat="58.766766926273704" lon="12.41426294669509">
        <ele>78.89</ele>
        <time>2025-02-04T15:18:02.749Z</time>
      </trkpt>
      <trkpt lat="58.76668595708907" lon="12.414265964180231">
        <ele>78.95</ele>
        <time>2025-02-04T15:18:22.127Z</time>
      </trkpt>
      <trkpt lat="58.76660792157054" lon="12.41426495835185">
        <ele>79.0</ele>
        <time>2025-02-04T15:18:41.506Z</time>
      </trkpt>
      <trkpt lat="58.7665269523859" lon="12.41426495835185">
        <ele>79.05</ele>
        <time>2025-02-04T15:19:00.887Z</time>
      </trkpt>
      <trkpt lat="58.766445983201265" lon="12.41426294669509">
        <ele>79.09</ele>
        <time>2025-02-04T15:19:20.269Z</time>
      </trkpt>
      <trkpt lat="58.76636593602598" lon="12.414259929209948">
        <ele>79.13</ele>
        <time>2025-02-04T15:19:39.652Z</time>
      </trkpt>
      <trkpt lat="58.7662869784981" lon="12.414260935038328">
        <ele>79.17</ele>
        <time>2025-02-04T15:19:59.037Z</time>
      </trkpt>
      <trkpt lat="58.766208942979574" lon="12.414259929209948">
        <ele>79.19</ele>
        <time>2025-02-04T15:20:18.423Z</time>
      </trkpt>
      <trkpt lat="58.76613199710846" lon="12.414258923381567">
        <ele>79.22</ele>
        <time>2025-02-04T15:20:37.810Z</time>
      </trkpt>
      <trkpt lat="58.76605295576155" lon="12.414257917553186">
        <ele>79.24</ele>
        <time>2025-02-04T15:20:57.198Z</time>
      </trkpt>
      <trkpt lat="58.765973998233676" lon="12.414255989715457">
        <ele>79.26</ele>
        <time>2025-02-04T15:21:16.588Z</time>
      </trkpt>
      <trkpt lat="58.76589696854353" lon="12.414256995543838">
        <ele>79.27</ele>
        <time>2025-02-04T15:21:35.979Z</time>
      </trkpt>
      <trkpt lat="58.765820944681764" lon="12.414255989715457">
        <ele>79.28</ele>
        <time>2025-02-04T15:21:55.371Z</time>
      </trkpt>
      <trkpt lat="58.76574492082" lon="12.414253978058696">
        <ele>79.28</ele>
        <time>2025-02-04T15:22:14.764Z</time>
      </trkpt>
      <trkpt lat="58.765669986605644" lon="12.414252972230315">
        <ele>79.27</ele>
        <time>2025-02-04T15:22:34.159Z</time>
      </trkpt>
      <trkpt lat="58.76559496857226" lon="12.414250960573554">
        <ele>79.26</ele>
        <time>2025-02-04T15:22:53.555Z</time>
      </trkpt>
      <trkpt lat="58.765520956367254" lon="12.414252972230315">
        <ele>79.24</ele>
        <time>2025-02-04T15:23:12.952Z</time>
      </trkpt>
      <trkpt lat="58.76544593833387" lon="12.414257917553186">
        <ele>79.22</ele>
        <time>2025-02-04T15:23:32.350Z</time>
      </trkpt>
      <trkpt lat="58.765371926128864" lon="12.414258923381567">
        <ele>79.19</ele>
        <time>2025-02-04T15:23:51.749Z</time>
      </trkpt>
      <trkpt lat="58.76529699191451" lon="12.414257917553186">
        <ele>79.16</ele>
        <time>2025-02-04T15:24:11.150Z</time>
      </trkpt>
      <trkpt lat="58.765222979709506" lon="12.414256995543838">
        <ele>79.12</ele>
        <time>2025-02-04T15:24:30.552Z</time>
      </trkpt>
      <trkpt lat="58.76514695584774" lon="12.414259929209948">
        <ele>79.08</ele>
        <time>2025-02-04T15:24:49.955Z</time>
      </trkpt>
      <trkpt lat="58.765070931985974" lon="12.41426495835185">
        <ele>79.04</ele>
        <time>2025-02-04T15:25:09.359Z</time>
      </trkpt>
      <trkpt lat="58.76499499194324" lon="12.414269987493753">
        <ele>78.99</ele>
        <time>2025-02-04T15:25:28.764Z</time>
      </trkpt>
      <trkpt lat="58.764917962253094" lon="12.414277950301766">
        <ele>78.93</ele>
        <time>2025-02-04T15:25:48.171Z</time>
      </trkpt>
      <trkpt lat="58.76484093256295" lon="12.414285996928811">
        <ele>78.88</ele>
        <time>2025-02-04T15:26:07.579Z</time>
      </trkpt>
      <trkpt lat="58.76476398669183" lon="12.414296977221966">
        <ele>78.82</ele>
        <time>2025-02-04T15:26:26.988Z</time>
      </trkpt>
      <trkpt lat="58.764685951173306" lon="12.41430594585836">
        <ele>78.75</ele>
        <time>2025-02-04T15:26:46.398Z</time>
      </trkpt>
      <trkpt lat="58.76460799947381" lon="12.414316926151514">
        <ele>78.68</ele>
        <time>2025-02-04T15:27:05.810Z</time>
      </trkpt>
      <trkpt lat="58.764530969783664" lon="12.414331929758191">
        <ele>78.61</ele>
        <time>2025-02-04T15:27:25.223Z</time>
      </trkpt>
      <trkpt lat="58.76445595175028" lon="12.41434894502163">
        <ele>78.53</ele>
        <time>2025-02-04T15:27:44.637Z</time>
      </trkpt>
      <trkpt lat="58.76437992788851" lon="12.414363948628306">
        <ele>78.45</ele>
        <time>2025-02-04T15:28:04.052Z</time>
      </trkpt>
      <trkpt lat="58.76430499367416" lon="12.414374928921461">
        <ele>78.36</ele>
        <time>2025-02-04T15:28:23.468Z</time>
      </trkpt>
      <trkpt lat="58.764230981469154" lon="12.414390938356519">
        <ele>78.27</ele>
        <time>2025-02-04T15:28:42.886Z</time>
      </trkpt>
      <trkpt lat="58.76415696926415" lon="12.414410971105099">
        <ele>78.19</ele>
        <time>2025-02-04T15:29:02.305Z</time>
      </trkpt>
      <trkpt lat="58.76407692208886" lon="12.414433937519789">
        <ele>78.1</ele>
        <time>2025-02-04T15:29:21.725Z</time>
      </trkpt>
      <trkpt lat="58.763994947075844" lon="12.414458999410272">
        <ele>78.0</ele>
        <time>2025-02-04T15:29:41.146Z</time>
      </trkpt>
      <trkpt lat="58.763909954577684" lon="12.414482971653342">
        <ele>77.9</ele>
        <time>2025-02-04T15:30:00.569Z</time>
      </trkpt>
      <trkpt lat="58.763822950422764" lon="12.414506943896413">
        <ele>77.8</ele>
        <time>2025-02-04T15:30:19.993Z</time>
      </trkpt>
      <trkpt lat="58.76373494043946" lon="12.414531921967864">
        <ele>77.7</ele>
        <time>2025-02-04T15:30:39.419Z</time>
      </trkpt>
      <trkpt lat="58.763650953769684" lon="12.414560923352838">
        <ele>77.6</ele>
        <time>2025-02-04T15:30:58.846Z</time>
      </trkpt>
      <trkpt lat="58.763564955443144" lon="12.414594953879714">
        <ele>77.49</ele>
        <time>2025-02-04T15:31:18.274Z</time>
      </trkpt>
      <trkpt lat="58.76347493380308" lon="12.414625966921449">
        <ele>77.39</ele>
        <time>2025-02-04T15:31:37.704Z</time>
      </trkpt>
      <trkpt lat="58.76338499598205" lon="12.414667960256338">
        <ele>77.29</ele>
        <time>2025-02-04T15:31:57.135Z</time>
      </trkpt>
      <trkpt lat="58.76329598017037" lon="12.414702996611595">
        <ele>77.19</ele>
        <time>2025-02-04T15:32:16.568Z</time>
      </trkpt>
      <trkpt lat="58.76320797018707" lon="12.414745995774865">
        <ele>77.08</ele>
        <time>2025-02-04T15:32:36.002Z</time>
      </trkpt>
      <trkpt lat="58.763118954375386" lon="12.414782959967852">
        <ele>76.97</ele>
        <time>2025-02-04T15:32:55.438Z</time>
      </trkpt>
      <trkpt lat="58.763030944392085" lon="12.4148219358176">
        <ele>76.87</ele>
        <time>2025-02-04T15:33:14.875Z</time>
      </trkpt>
      <trkpt lat="58.762945951893926" lon="12.414862923324108">
        <ele>76.76</ele>
        <time>2025-02-04T15:33:34.314Z</time>
      </trkpt>
      <trkpt lat="58.762859953567386" lon="12.414902988821268">
        <ele>76.65</ele>
        <time>2025-02-04T15:33:53.754Z</time>
      </trkpt>
      <trkpt lat="58.762774961069226" lon="12.414943976327777">
        <ele>76.54</ele>
        <time>2025-02-04T15:34:13.195Z</time>
      </trkpt>
      <trkpt lat="58.76269499771297" lon="12.414984963834286">
        <ele>76.42</ele>
        <time>2025-02-04T15:34:32.638Z</time>
      </trkpt>
      <trkpt lat="58.76261092722416" lon="12.415028968825936">
        <ele>76.31</ele>
        <time>2025-02-04T15:34:52.082Z</time>
      </trkpt>
      <trkpt lat="58.762525934726" lon="12.415072973817587">
        <ele>76.19</ele>
        <time>2025-02-04T15:35:11.528Z</time>
      </trkpt>
      <trkpt lat="58.7624429538846" lon="12.415114967152476">
        <ele>76.07</ele>
        <time>2025-02-04T15:35:30.975Z</time>
      </trkpt>
      <trkpt lat="58.7623599730432" lon="12.415156960487366">
        <ele>75.95</ele>
        <time>2025-02-04T15:35:50.423Z</time>
      </trkpt>
      <trkpt lat="58.762277998030186" lon="12.415197947993875">
        <ele>75.83</ele>
        <time>2025-02-04T15:36:09.873Z</time>
      </trkpt>
      <trkpt lat="58.762193927541375" lon="12.415237929672003">
        <ele>75.71</ele>
        <time>2025-02-04T15:36:29.324Z</time>
      </trkpt>
      <trkpt lat="58.76211195252836" lon="12.415278917178512">
        <ele>75.59</ele>
        <time>2025-02-04T15:36:48.776Z</time>
      </trkpt>
      <trkpt lat="58.76203299500048" lon="12.415320994332433">
        <ele>75.46</ele>
        <time>2025-02-04T15:37:08.230Z</time>
      </trkpt>
      <trkpt lat="58.761954959481955" lon="12.415360976010561">
        <ele>75.33</ele>
        <time>2025-02-04T15:37:27.685Z</time>
      </trkpt>
      <trkpt lat="58.76187692396343" lon="12.41540196351707">
        <ele>75.2</ele>
        <time>2025-02-04T15:37:47.141Z</time>
      </trkpt>
      <trkpt lat="58.76179796643555" lon="12.415440939366817">
        <ele>75.07</ele>
        <time>2025-02-04T15:38:06.599Z</time>
      </trkpt>
      <trkpt lat="58.761718925088644" lon="12.415480921044946">
        <ele>74.94</ele>
        <time>2025-02-04T15:38:26.058Z</time>
      </trkpt>
      <trkpt lat="58.76163996756077" lon="12.415526937693357">
        <ele>74.8</ele>
        <time>2025-02-04T15:38:45.518Z</time>
      </trkpt>
      <trkpt lat="58.76156092621386" lon="12.415575971826911">
        <ele>74.67</ele>
        <time>2025-02-04T15:39:04.980Z</time>
      </trkpt>
      <trkpt lat="58.761481968685985" lon="12.415624922141433">
        <ele>74.53</ele>
        <time>2025-02-04T15:39:24.443Z</time>
      </trkpt>
      <trkpt lat="58.76140493899584" lon="12.415673956274986">
        <ele>74.39</ele>
        <time>2025-02-04T15:39:43.907Z</time>
      </trkpt>
      <trkpt lat="58.761328998953104" lon="12.41572299040854">
        <ele>74.25</ele>
        <time>2025-02-04T15:40:03.373Z</time>
      </trkpt>
      <trkpt lat="58.76125196926296" lon="12.415776969864964">
        <ele>74.11</ele>
        <time>2025-02-04T15:40:22.840Z</time>
      </trkpt>
      <trkpt lat="58.76117594540119" lon="12.415834972634912">
        <ele>73.96</ele>
        <time>2025-02-04T15:40:42.308Z</time>
      </trkpt>
      <trkpt lat="58.761099921539426" lon="12.41589599289">
        <ele>73.83</ele>
        <time>2025-02-04T15:41:01.778Z</time>
      </trkpt>
      <trkpt lat="58.76102398149669" lon="12.415958940982819">
        <ele>73.69</ele>
        <time>2025-02-04T15:41:21.249Z</time>
      </trkpt>
      <trkpt lat="58.760946951806545" lon="12.41602398455143">
        <ele>73.55</ele>
        <time>2025-02-04T15:41:40.721Z</time>
      </trkpt>
      <trkpt lat="58.76086891628802" lon="12.416091961786151">
        <ele>73.41</ele>
        <time>2025-02-04T15:42:00.195Z</time>
      </trkpt>
      <trkpt lat="58.760793982073665" lon="12.416161950677633">
        <ele>73.27</ele>
        <time>2025-02-04T15:42:19.670Z</time>
      </trkpt>
      <trkpt lat="58.76071896404028" lon="12.416234957054257">
        <ele>73.13</ele>
        <time>2025-02-04T15:42:39.146Z</time>
      </trkpt>
      <trkpt lat="58.760643946006894" lon="12.416309975087643">
        <ele>72.99</ele>
        <time>2025-02-04T15:42:58.624Z</time>
      </trkpt>
      <trkpt lat="58.76056892797351" lon="12.416386920958757">
        <ele>72.85</ele>
        <time>2025-02-04T15:43:18.103Z</time>
      </trkpt>
      <trkpt lat="58.760496927425265" lon="12.416464956477284">
        <ele>72.71</ele>
        <time>2025-02-04T15:43:37.583Z</time>
      </trkpt>
      <trkpt lat="58.7604259327054" lon="12.416548943147063">
        <ele>72.57</ele>
        <time>2025-02-04T15:43:57.065Z</time>
      </trkpt>
      <trkpt lat="58.76035594381392" lon="12.416634941473603">
        <ele>72.43</ele>
        <time>2025-02-04T15:44:16.548Z</time>
      </trkpt>
      <trkpt lat="58.760281931608915" lon="12.416724963113666">
        <ele>72.29</ele>
        <time>2025-02-04T15:44:36.032Z</time>
      </trkpt>
      <trkpt lat="58.760212948545814" lon="12.416814984753728">
        <ele>72.15</ele>
        <time>2025-02-04T15:44:55.518Z</time>
      </trkpt>
      <trkpt lat="58.76014396548271" lon="12.41690894588828">
        <ele>72.01</ele>
        <time>2025-02-04T15:45:15.005Z</time>
      </trkpt>
      <trkpt lat="58.76007498241961" lon="12.417003996670246">
        <ele>71.87</ele>
        <time>2025-02-04T15:45:34.493Z</time>
      </trkpt>
      <trkpt lat="58.76000792719424" lon="12.417101981118321">
        <ele>71.73</ele>
        <time>2025-02-04T15:45:53.983Z</time>
      </trkpt>
      <trkpt lat="58.759938944131136" lon="12.417201977223158">
        <ele>71.59</ele>
        <time>2025-02-04T15:46:13.474Z</time>
      </trkpt>
      <trkpt lat="58.759871972724795" lon="12.417303984984756">
        <ele>71.45</ele>
        <time>2025-02-04T15:46:32.967Z</time>
      </trkpt>
      <trkpt lat="58.759806929156184" lon="12.417405992746353">
        <ele>71.3</ele>
        <time>2025-02-04T15:46:52.461Z</time>
      </trkpt>
      <trkpt lat="58.759743981063366" lon="12.41750699467957">
        <ele>71.15</ele>
        <time>2025-02-04T15:47:11.956Z</time>
      </trkpt>
      <trkpt lat="58.75968296080828" lon="12.417612941935658">
        <ele>71.0</ele>
        <time>2025-02-04T15:47:31.453Z</time>
      </trkpt>
      <trkpt lat="58.75962194055319" lon="12.4177229963243">
        <ele>70.85</ele>
        <time>2025-02-04T15:47:50.951Z</time>
      </trkpt>
      <trkpt lat="58.7595609202981" lon="12.417834978550673">
        <ele>70.71</ele>
        <time>2025-02-04T15:48:10.450Z</time>
      </trkpt>
      <trkpt lat="58.75950098969042" lon="12.417946960777044">
        <ele>70.55</ele>
        <time>2025-02-04T15:48:29.951Z</time>
      </trkpt>
      <trkpt lat="58.759441981092095" lon="12.418060954660177">
        <ele>70.4</ele>
        <time>2025-02-04T15:48:49.453Z</time>
      </trkpt>
      <trkpt lat="58.75938498415053" lon="12.418177966028452">
        <ele>70.26</ele>
        <time>2025-02-04T15:49:08.956Z</time>
      </trkpt>
      <trkpt lat="58.75932698138058" lon="12.418294977396727">
        <ele>70.11</ele>
        <time>2025-02-04T15:49:28.461Z</time>
      </trkpt>
      <trkpt lat="58.759270990267396" lon="12.418414922431111">
        <ele>69.96</ele>
        <time>2025-02-04T15:49:47.967Z</time>
      </trkpt>
      <trkpt lat="58.75921692699194" lon="12.418534951284528">
        <ele>69.81</ele>
        <time>2025-02-04T15:50:07.474Z</time>
      </trkpt>
      <trkpt lat="58.759164959192276" lon="12.418658919632435">
        <ele>69.66</ele>
        <time>2025-02-04T15:50:26.983Z</time>
      </trkpt>
      <trkpt lat="58.75911592505872" lon="12.418786995112896">
        <ele>69.51</ele>
        <time>2025-02-04T15:50:46.493Z</time>
      </trkpt>
      <trkpt lat="58.7590669747442" lon="12.418913980945945">
        <ele>69.37</ele>
        <time>2025-02-04T15:51:06.004Z</time>
      </trkpt>
      <trkpt lat="58.75902095809579" lon="12.419040966778994">
        <ele>69.23</ele>
        <time>2025-02-04T15:51:25.517Z</time>
      </trkpt>
      <trkpt lat="58.758973935619" lon="12.419167952612042">
        <ele>69.09</ele>
        <time>2025-02-04T15:51:45.031Z</time>
      </trkpt>
      <trkpt lat="58.758928924798965" lon="12.419295944273472">
        <ele>68.96</ele>
        <time>2025-02-04T15:52:04.546Z</time>
      </trkpt>
      <trkpt lat="58.758883997797966" lon="12.419425947591662">
        <ele>68.82</ele>
        <time>2025-02-04T15:52:24.062Z</time>
      </trkpt>
      <trkpt lat="58.758840998634696" lon="12.419556956738234">
        <ele>68.69</ele>
        <time>2025-02-04T15:52:43.580Z</time>
      </trkpt>
      <trkpt lat="58.758798921480775" lon="12.419687965884805">
        <ele>68.56</ele>
        <time>2025-02-04T15:53:03.099Z</time>
      </trkpt>
      <trkpt lat="58.758757933974266" lon="12.419816963374615">
        <ele>68.43</ele>
        <time>2025-02-04T15:53:22.619Z</time>
      </trkpt>
      <trkpt lat="58.75871694646776" lon="12.419952917844057">
        <ele>68.3</ele>
        <time>2025-02-04T15:53:42.141Z</time>
      </trkpt>
      <trkpt lat="58.75867797061801" lon="12.42008694447577">
        <ele>68.16</ele>
        <time>2025-02-04T15:54:01.664Z</time>
      </trkpt>
      <trkpt lat="58.75863798893988" lon="12.420221976935863">
        <ele>68.02</ele>
        <time>2025-02-04T15:54:21.188Z</time>
      </trkpt>
      <trkpt lat="58.75860094092786" lon="12.420357931405306">
        <ele>67.89</ele>
        <time>2025-02-04T15:54:40.713Z</time>
      </trkpt>
      <trkpt lat="58.75856498256326" lon="12.42049497552216">
        <ele>67.76</ele>
        <time>2025-02-04T15:55:00.240Z</time>
      </trkpt>
      <trkpt lat="58.75852894037962" lon="12.420632941648364">
        <ele>67.63</ele>
        <time>2025-02-04T15:55:19.768Z</time>
      </trkpt>
      <trkpt lat="58.758493987843394" lon="12.420769985765219">
        <ele>67.5</ele>
        <time>2025-02-04T15:55:39.297Z</time>
      </trkpt>
      <trkpt lat="58.7584609631449" lon="12.420908957719803">
        <ele>67.36</ele>
        <time>2025-02-04T15:55:58.828Z</time>
      </trkpt>
      <trkpt lat="58.7584279384464" lon="12.421050947159529">
        <ele>67.24</ele>
        <time>2025-02-04T15:56:18.360Z</time>
      </trkpt>
      <trkpt lat="58.75839591957629" lon="12.421192936599255">
        <ele>67.1</ele>
        <time>2025-02-04T15:56:37.893Z</time>
      </trkpt>
      <trkpt lat="58.758365996181965" lon="12.421335931867361">
        <ele>66.97</ele>
        <time>2025-02-04T15:56:57.427Z</time>
      </trkpt>
      <trkpt lat="58.75833498314023" lon="12.421479932963848">
        <ele>66.85</ele>
        <time>2025-02-04T15:57:16.963Z</time>
      </trkpt>
      <trkpt lat="58.758304975926876" lon="12.421625945717096">
        <ele>66.72</ele>
        <time>2025-02-04T15:57:36.500Z</time>
      </trkpt>
      <trkpt lat="58.75827396288514" lon="12.421774975955486">
        <ele>66.6</ele>
        <time>2025-02-04T15:57:56.038Z</time>
      </trkpt>
      <trkpt lat="58.75824596732855" lon="12.421921994537115">
        <ele>66.49</ele>
        <time>2025-02-04T15:58:15.578Z</time>
      </trkpt>
      <trkpt lat="58.758215960115194" lon="12.422068929299712">
        <ele>66.37</ele>
        <time>2025-02-04T15:58:35.119Z</time>
      </trkpt>
      <trkpt lat="58.75818695873022" lon="12.422216953709722">
        <ele>66.27</ele>
        <time>2025-02-04T15:58:54.661Z</time>
      </trkpt>
      <trkpt lat="58.75815795734525" lon="12.42236397229135">
        <ele>66.16</ele>
        <time>2025-02-04T15:59:14.205Z</time>
      </trkpt>
      <trkpt lat="58.758128955960274" lon="12.422512918710709">
        <ele>66.06</ele>
        <time>2025-02-04T15:59:33.750Z</time>
      </trkpt>
      <trkpt lat="58.7580999545753" lon="12.42266396060586">
        <ele>65.95</ele>
        <time>2025-02-04T15:59:53.296Z</time>
      </trkpt>
      <trkpt lat="58.75807195901871" lon="12.42281592451036">
        <ele>65.85</ele>
        <time>2025-02-04T16:00:12.844Z</time>
      </trkpt>
      <trkpt lat="58.758042957633734" lon="12.422968978062272">
        <ele>65.76</ele>
        <time>2025-02-04T16:00:32.393Z</time>
      </trkpt>
      <trkpt lat="58.758011944592" lon="12.423120941966772">
        <ele>65.67</ele>
        <time>2025-02-04T16:00:51.943Z</time>
      </trkpt>
      <trkpt lat="58.757982943207026" lon="12.423271983861923">
        <ele>65.58</ele>
        <time>2025-02-04T16:01:11.495Z</time>
      </trkpt>
      <trkpt lat="58.75795394182205" lon="12.423421936109662">
        <ele>65.49</ele>
        <time>2025-02-04T16:01:31.048Z</time>
      </trkpt>
      <trkpt lat="58.75792494043708" lon="12.423569960519671">
        <ele>65.41</ele>
        <time>2025-02-04T16:01:50.602Z</time>
      </trkpt>
      <trkpt lat="58.757896944880486" lon="12.423714967444539">
        <ele>65.32</ele>
        <time>2025-02-04T16:02:10.158Z</time>
      </trkpt>
      <trkpt lat="58.75786794349551" lon="12.423857962712646">
        <ele>65.24</ele>
        <time>2025-02-04T16:02:29.715Z</time>
      </trkpt>
      <trkpt lat="58.75783994793892" lon="12.424001963809133">
        <ele>65.17</ele>
        <time>2025-02-04T16:02:49.273Z</time>
      </trkpt>
      <trkpt lat="58.75781295821071" lon="12.424144959077239">
        <ele>65.09</ele>
        <time>2025-02-04T16:03:08.832Z</time>
      </trkpt>
      <trkpt lat="58.757784962654114" lon="12.424285942688584">
        <ele>65.02</ele>
        <time>2025-02-04T16:03:28.393Z</time>
      </trkpt>
      <trkpt lat="58.75775696709752" lon="12.4244249984622">
        <ele>64.95</ele>
        <time>2025-02-04T16:03:47.955Z</time>
      </trkpt>
      <trkpt lat="58.75772997736931" lon="12.424561958760023">
        <ele>64.89</ele>
        <time>2025-02-04T16:04:07.518Z</time>
      </trkpt>
      <trkpt lat="58.757702987641096" lon="12.424698919057846">
        <ele>64.83</ele>
        <time>2025-02-04T16:04:27.082Z</time>
      </trkpt>
      <trkpt lat="58.757675997912884" lon="12.424836969003081">
        <ele>64.77</ele>
        <time>2025-02-04T16:04:46.648Z</time>
      </trkpt>
      <trkpt lat="58.75764791853726" lon="12.424975940957665">
        <ele>64.72</ele>
        <time>2025-02-04T16:05:06.215Z</time>
      </trkpt>
      <trkpt lat="58.757618917152286" lon="12.4251139909029">
        <ele>64.67</ele>
        <time>2025-02-04T16:05:25.783Z</time>
      </trkpt>
      <trkpt lat="58.75758798792958" lon="12.425254974514246">
        <ele>64.63</ele>
        <time>2025-02-04T16:05:45.352Z</time>
      </trkpt>
      <trkpt lat="58.75755496323109" lon="12.42539394646883">
        <ele>64.59</ele>
        <time>2025-02-04T16:06:04.923Z</time>
      </trkpt>
      <trkpt lat="58.75752395018935" lon="12.425531996414065">
        <ele>64.54</ele>
        <time>2025-02-04T16:06:24.495Z</time>
      </trkpt>
      <trkpt lat="58.75749193131924" lon="12.425667950883508">
        <ele>64.5</ele>
        <time>2025-02-04T16:06:44.068Z</time>
      </trkpt>
      <trkpt lat="58.75745798461139" lon="12.425802983343601">
        <ele>64.47</ele>
        <time>2025-02-04T16:07:03.642Z</time>
      </trkpt>
      <trkpt lat="58.757420936599374" lon="12.425934998318553">
        <ele>64.42</ele>
        <time>2025-02-04T16:07:23.218Z</time>
      </trkpt>
      <trkpt lat="58.757378943264484" lon="12.426065923646092">
        <ele>64.38</ele>
        <time>2025-02-04T16:07:42.795Z</time>
      </trkpt>
      <trkpt lat="58.75733996741474" lon="12.426196932792664">
        <ele>64.34</ele>
        <time>2025-02-04T16:08:02.373Z</time>
      </trkpt>
      <trkpt lat="58.75729897990823" lon="12.426324924454093">
        <ele>64.31</ele>
        <time>2025-02-04T16:08:21.952Z</time>
      </trkpt>
      <trkpt lat="58.75725799240172" lon="12.426450988277793">
        <ele>64.27</ele>
        <time>2025-02-04T16:08:41.533Z</time>
      </trkpt>
      <trkpt lat="58.75721197575331" lon="12.4265749566257">
        <ele>64.23</ele>
        <time>2025-02-04T16:09:01.115Z</time>
      </trkpt>
      <trkpt lat="58.757166964933276" lon="12.426696997135878">
        <ele>64.19</ele>
        <time>2025-02-04T16:09:20.698Z</time>
      </trkpt>
      <trkpt lat="58.757119942456484" lon="12.426818953827024">
        <ele>64.15</ele>
        <time>2025-02-04T16:09:40.282Z</time>
      </trkpt>
      <trkpt lat="58.75707199797034" lon="12.42693898268044">
        <ele>64.12</ele>
        <time>2025-02-04T16:09:59.868Z</time>
      </trkpt>
      <trkpt lat="58.75701994635165" lon="12.427056999877095">
        <ele>64.08</ele>
        <time>2025-02-04T16:10:19.455Z</time>
      </trkpt>
      <trkpt lat="58.756967978551984" lon="12.427173927426338">
        <ele>64.05</ele>
        <time>2025-02-04T16:10:39.043Z</time>
      </trkpt>
      <trkpt lat="58.7569119874388" lon="12.427288927137852">
        <ele>64.02</ele>
        <time>2025-02-04T16:10:58.633Z</time>
      </trkpt>
      <trkpt lat="58.75685499049723" lon="12.427401999011636">
        <ele>63.99</ele>
        <time>2025-02-04T16:11:18.224Z</time>
      </trkpt>
      <trkpt lat="58.756795981898904" lon="12.427514987066388">
        <ele>63.96</ele>
        <time>2025-02-04T16:11:37.816Z</time>
      </trkpt>
      <trkpt lat="58.756734961643815" lon="12.42762797512114">
        <ele>63.93</ele>
        <time>2025-02-04T16:11:57.410Z</time>
      </trkpt>
      <trkpt lat="58.756671929731965" lon="12.427738951519132">
        <ele>63.9</ele>
        <time>2025-02-04T16:12:17.005Z</time>
      </trkpt>
      <trkpt lat="58.756607975810766" lon="12.427848922088742">
        <ele>63.87</ele>
        <time>2025-02-04T16:12:36.601Z</time>
      </trkpt>
      <trkpt lat="58.756543938070536" lon="12.427955958992243">
        <ele>63.84</ele>
        <time>2025-02-04T16:12:56.199Z</time>
      </trkpt>
      <trkpt lat="58.756477972492576" lon="12.428060984238982">
        <ele>63.82</ele>
        <time>2025-02-04T16:13:15.798Z</time>
      </trkpt>
      <trkpt lat="58.756408989429474" lon="12.42816491983831">
        <ele>63.8</ele>
        <time>2025-02-04T16:13:35.398Z</time>
      </trkpt>
      <trkpt lat="58.75633598305285" lon="12.428268939256668">
        <ele>63.78</ele>
        <time>2025-02-04T16:13:55.000Z</time>
      </trkpt>
      <trkpt lat="58.756259959191084" lon="12.428369941189885">
        <ele>63.76</ele>
        <time>2025-02-04T16:14:14.603Z</time>
      </trkpt>
      <trkpt lat="58.75617999583483" lon="12.428468931466341">
        <ele>63.74</ele>
        <time>2025-02-04T16:14:34.208Z</time>
      </trkpt>
      <trkpt lat="58.7560969311744" lon="12.428564988076687">
        <ele>63.73</ele>
        <time>2025-02-04T16:14:53.814Z</time>
      </trkpt>
      <trkpt lat="58.75601093284786" lon="12.42865794338286">
        <ele>63.71</ele>
        <time>2025-02-04T16:15:13.422Z</time>
      </trkpt>
      <trkpt lat="58.755918983370066" lon="12.428747965022922">
        <ele>63.71</ele>
        <time>2025-02-04T16:15:33.032Z</time>
      </trkpt>
      <trkpt lat="58.7558239325881" lon="12.428835975006223">
        <ele>63.71</ele>
        <time>2025-02-04T16:15:52.643Z</time>
      </trkpt>
      <trkpt lat="58.755725948140025" lon="12.428918955847621">
        <ele>63.71</ele>
        <time>2025-02-04T16:16:12.256Z</time>
      </trkpt>
      <trkpt lat="58.75562494620681" lon="12.428995985537767">
        <ele>63.72</ele>
        <time>2025-02-04T16:16:31.871Z</time>
      </trkpt>
      <trkpt lat="58.75552193261683" lon="12.429068991914392">
        <ele>63.73</ele>
        <time>2025-02-04T16:16:51.488Z</time>
      </trkpt>
      <trkpt lat="58.75541598536074" lon="12.429136969149113">
        <ele>63.75</ele>
        <time>2025-02-04T16:17:11.106Z</time>
      </trkpt>
      <trkpt lat="58.75530894845724" lon="12.429197989404202">
        <ele>63.77</ele>
        <time>2025-02-04T16:17:30.726Z</time>
      </trkpt>
      <trkpt lat="58.75520199537277" lon="12.429254986345768">
        <ele>63.8</ele>
        <time>2025-02-04T16:17:50.348Z</time>
      </trkpt>
      <trkpt lat="58.75509294681251" lon="12.42930293083191">
        <ele>63.83</ele>
        <time>2025-02-04T16:18:09.972Z</time>
      </trkpt>
      <trkpt lat="58.7549829762429" lon="12.429344924166799">
        <ele>63.86</ele>
        <time>2025-02-04T16:18:29.598Z</time>
      </trkpt>
      <trkpt lat="58.75487392768264" lon="12.429379960522056">
        <ele>63.89</ele>
        <time>2025-02-04T16:18:49.225Z</time>
      </trkpt>
      <trkpt lat="58.75476496294141" lon="12.42940996773541">
        <ele>63.93</ele>
        <time>2025-02-04T16:19:08.854Z</time>
      </trkpt>
      <trkpt lat="58.75465692020953" lon="12.429430922493339">
        <ele>63.96</ele>
        <time>2025-02-04T16:19:28.485Z</time>
      </trkpt>
      <trkpt lat="58.75454896129668" lon="12.429445926100016">
        <ele>63.99</ele>
        <time>2025-02-04T16:19:48.118Z</time>
      </trkpt>
      <trkpt lat="58.75444393604994" lon="12.429456990212202">
        <ele>64.04</ele>
        <time>2025-02-04T16:20:07.752Z</time>
      </trkpt>
      <trkpt lat="58.75433991663158" lon="12.429467970505357">
        <ele>64.08</ele>
        <time>2025-02-04T16:20:27.388Z</time>
      </trkpt>
      <trkpt lat="58.75423598103225" lon="12.42947492748499">
        <ele>64.13</ele>
        <time>2025-02-04T16:20:47.026Z</time>
      </trkpt>
      <trkpt lat="58.754132967442274" lon="12.429480962455273">
        <ele>64.18</ele>
        <time>2025-02-04T16:21:06.665Z</time>
      </trkpt>
      <trkpt lat="58.75403095968068" lon="12.429487919434905">
        <ele>64.23</ele>
        <time>2025-02-04T16:21:26.306Z</time>
      </trkpt>
      <trkpt lat="58.75393096357584" lon="12.42949496023357">
        <ele>64.29</ele>
        <time>2025-02-04T16:21:45.949Z</time>
      </trkpt>
      <trkpt lat="58.753830967471" lon="12.429499989375472">
        <ele>64.34</ele>
        <time>2025-02-04T16:22:05.593Z</time>
      </trkpt>
      <trkpt lat="58.75373298302293" lon="12.429502923041582">
        <ele>64.4</ele>
        <time>2025-02-04T16:22:25.239Z</time>
      </trkpt>
      <trkpt lat="58.75363692641258" lon="12.429507952183485">
        <ele>64.46</ele>
        <time>2025-02-04T16:22:44.886Z</time>
      </trkpt>
      <trkpt lat="58.75354195944965" lon="12.429511975497007">
        <ele>64.52</ele>
        <time>2025-02-04T16:23:04.535Z</time>
      </trkpt>
      <trkpt lat="58.753449926152825" lon="12.429512981325388">
        <ele>64.58</ele>
        <time>2025-02-04T16:23:24.185Z</time>
      </trkpt>
      <trkpt lat="58.753359988331795" lon="12.429511975497007">
        <ele>64.64</ele>
        <time>2025-02-04T16:23:43.837Z</time>
      </trkpt>
      <trkpt lat="58.75327097252011" lon="12.429510969668627">
        <ele>64.71</ele>
        <time>2025-02-04T16:24:03.490Z</time>
      </trkpt>
      <trkpt lat="58.75318396836519" lon="12.429512981325388">
        <ele>64.77</ele>
        <time>2025-02-04T16:24:23.145Z</time>
      </trkpt>
      <trkpt lat="58.75309797003865" lon="12.429516920819879">
        <ele>64.84</ele>
        <time>2025-02-04T16:24:42.801Z</time>
      </trkpt>
      <trkpt lat="58.753014989197254" lon="12.42951993830502">
        <ele>64.91</ele>
        <time>2025-02-04T16:25:02.458Z</time>
      </trkpt>
      <trkpt lat="58.752933936193585" lon="12.429523961618543">
        <ele>64.98</ele>
        <time>2025-02-04T16:25:22.117Z</time>
      </trkpt>
      <trkpt lat="58.75285497866571" lon="12.429528990760446">
        <ele>65.05</ele>
        <time>2025-02-04T16:25:41.777Z</time>
      </trkpt>
      <trkpt lat="58.752778954803944" lon="12.429528990760446">
        <ele>65.13</ele>
        <time>2025-02-04T16:26:01.438Z</time>
      </trkpt>
      <trkpt lat="58.7527069542557" lon="12.429530918598175">
        <ele>65.2</ele>
        <time>2025-02-04T16:26:21.100Z</time>
      </trkpt>
      <trkpt lat="58.75263696536422" lon="12.429535947740078">
        <ele>65.28</ele>
        <time>2025-02-04T16:26:40.763Z</time>
      </trkpt>
      <trkpt lat="58.752567982301116" lon="12.429542988538742">
        <ele>65.36</ele>
        <time>2025-02-04T16:27:00.427Z</time>
      </trkpt>
      <trkpt lat="58.75249698758125" lon="12.429548939689994">
        <ele>65.44</ele>
        <time>2025-02-04T16:27:20.093Z</time>
      </trkpt>
      <trkpt lat="58.75242599286139" lon="12.429549945518374">
        <ele>65.52</ele>
        <time>2025-02-04T16:27:39.760Z</time>
      </trkpt>
      <trkpt lat="58.75235692597926" lon="12.429551957175136">
        <ele>65.6</ele>
        <time>2025-02-04T16:27:59.428Z</time>
      </trkpt>
      <trkpt lat="58.752286937087774" lon="12.429556986317039">
        <ele>65.68</ele>
        <time>2025-02-04T16:28:19.097Z</time>
      </trkpt>
      <trkpt lat="58.75221795402467" lon="12.42955799214542">
        <ele>65.76</ele>
        <time>2025-02-04T16:28:38.767Z</time>
      </trkpt>
      <trkpt lat="58.75214595347643" lon="12.429559919983149">
        <ele>65.83</ele>
        <time>2025-02-04T16:28:58.438Z</time>
      </trkpt>
      <trkpt lat="58.752074958756566" lon="12.42956193163991">
        <ele>65.91</ele>
        <time>2025-02-04T16:29:18.110Z</time>
      </trkpt>
      <trkpt lat="58.7520039640367" lon="12.429564949125051">
        <ele>65.99</ele>
        <time>2025-02-04T16:29:37.783Z</time>
      </trkpt>
      <trkpt lat="58.75193397514522" lon="12.429566960781813">
        <ele>66.08</ele>
        <time>2025-02-04T16:29:57.458Z</time>
      </trkpt>
      <trkpt lat="58.75186197459698" lon="12.429569978266954">
        <ele>66.16</ele>
        <time>2025-02-04T16:30:17.134Z</time>
      </trkpt>
      <trkpt lat="58.751789974048734" lon="12.429572995752096">
        <ele>66.24</ele>
        <time>2025-02-04T16:30:36.811Z</time>
      </trkpt>
      <trkpt lat="58.75171797350049" lon="12.429575929418206">
        <ele>66.33</ele>
        <time>2025-02-04T16:30:56.489Z</time>
      </trkpt>
      <trkpt lat="58.751642955467105" lon="12.429578946903348">
        <ele>66.41</ele>
        <time>2025-02-04T16:31:16.168Z</time>
      </trkpt>
      <trkpt lat="58.75156693160534" lon="12.42958297021687">
        <ele>66.5</ele>
        <time>2025-02-04T16:31:35.848Z</time>
      </trkpt>
      <trkpt lat="58.751491997390985" lon="12.429585987702012">
        <ele>66.58</ele>
        <time>2025-02-04T16:31:55.530Z</time>
      </trkpt>
      <trkpt lat="58.75141999684274" lon="12.429589927196503">
        <ele>66.67</ele>
        <time>2025-02-04T16:32:15.213Z</time>
      </trkpt>
      <trkpt lat="58.75134699046612" lon="12.429592944681644">
        <ele>66.75</ele>
        <time>2025-02-04T16:32:34.897Z</time>
      </trkpt>
      <trkpt lat="58.75127297826111" lon="12.429594956338406">
        <ele>66.84</ele>
        <time>2025-02-04T16:32:54.582Z</time>
      </trkpt>
      <trkpt lat="58.75119997188449" lon="12.429596967995167">
        <ele>66.93</ele>
        <time>2025-02-04T16:33:14.268Z</time>
      </trkpt>
      <trkpt lat="58.751125959679484" lon="12.429598979651928">
        <ele>67.01</ele>
        <time>2025-02-04T16:33:33.956Z</time>
      </trkpt>
      <trkpt lat="58.75105295330286" lon="12.42960199713707">
        <ele>67.09</ele>
        <time>2025-02-04T16:33:53.645Z</time>
      </trkpt>
      <trkpt lat="58.750979946926236" lon="12.42960493080318">
        <ele>67.17</ele>
        <time>2025-02-04T16:34:13.335Z</time>
      </trkpt>
      <trkpt lat="58.75090492889285" lon="12.429607948288321">
        <ele>67.24</ele>
        <time>2025-02-04T16:34:33.026Z</time>
      </trkpt>
      <trkpt lat="58.750830916687846" lon="12.429609959945083">
        <ele>67.32</ele>
        <time>2025-02-04T16:34:52.718Z</time>
      </trkpt>
      <trkpt lat="58.75075698830187" lon="12.429612977430224">
        <ele>67.4</ele>
        <time>2025-02-04T16:35:12.411Z</time>
      </trkpt>
      <trkpt lat="58.75068599358201" lon="12.429616916924715">
        <ele>67.48</ele>
        <time>2025-02-04T16:35:32.106Z</time>
      </trkpt>
      <trkpt lat="58.75061499886215" lon="12.429618928581476">
        <ele>67.55</ele>
        <time>2025-02-04T16:35:51.802Z</time>
      </trkpt>
      <trkpt lat="58.75054392032325" lon="12.429622951894999">
        <ele>67.63</ele>
        <time>2025-02-04T16:36:11.499Z</time>
      </trkpt>
      <trkpt lat="58.7504689861089" lon="12.429627981036901">
        <ele>67.7</ele>
        <time>2025-02-04T16:36:31.197Z</time>
      </trkpt>
      <trkpt lat="58.750394973903894" lon="12.429630998522043">
        <ele>67.77</ele>
        <time>2025-02-04T16:36:50.896Z</time>
      </trkpt>
      <trkpt lat="58.75032096169889" lon="12.429637955501676">
        <ele>67.84</ele>
        <time>2025-02-04T16:37:10.596Z</time>
      </trkpt>
      <trkpt lat="58.750246949493885" lon="12.42964499630034">
        <ele>67.9</ele>
        <time>2025-02-04T16:37:30.298Z</time>
      </trkpt>
      <trkpt lat="58.75017394311726" lon="12.429651953279972">
        <ele>67.97</ele>
        <time>2025-02-04T16:37:50.001Z</time>
      </trkpt>
      <trkpt lat="58.75010194256902" lon="12.429664945229888">
        <ele>68.04</ele>
        <time>2025-02-04T16:38:09.705Z</time>
      </trkpt>
      <trkpt lat="58.750029942020774" lon="12.429676931351423">
        <ele>68.1</ele>
        <time>2025-02-04T16:38:29.410Z</time>
      </trkpt>
      <trkpt lat="58.74996095895767" lon="12.429686989635229">
        <ele>68.16</ele>
        <time>2025-02-04T16:38:49.116Z</time>
      </trkpt>
      <trkpt lat="58.74988895840943" lon="12.429696964100003">
        <ele>68.22</ele>
        <time>2025-02-04T16:39:08.823Z</time>
      </trkpt>
      <trkpt lat="58.749816957861185" lon="12.429707944393158">
        <ele>68.28</ele>
        <time>2025-02-04T16:39:28.532Z</time>
      </trkpt>
      <trkpt lat="58.74974395148456" lon="12.429718924686313">
        <ele>68.33</ele>
        <time>2025-02-04T16:39:48.242Z</time>
      </trkpt>
      <trkpt lat="58.7496729567647" lon="12.429731916636229">
        <ele>68.38</ele>
        <time>2025-02-04T16:40:07.953Z</time>
      </trkpt>
      <trkpt lat="58.749600956216455" lon="12.429746920242906">
        <ele>68.43</ele>
        <time>2025-02-04T16:40:27.665Z</time>
      </trkpt>
      <trkpt lat="58.74952593818307" lon="12.429763935506344">
        <ele>68.48</ele>
        <time>2025-02-04T16:40:47.378Z</time>
      </trkpt>
      <trkpt lat="58.749452931806445" lon="12.429782962426543">
        <ele>68.53</ele>
        <time>2025-02-04T16:41:07.092Z</time>
      </trkpt>
      <trkpt lat="58.74937699176371" lon="12.4297989718616">
        <ele>68.58</ele>
        <time>2025-02-04T16:41:26.808Z</time>
      </trkpt>
      <trkpt lat="58.749302979558706" lon="12.429815987125039">
        <ele>68.62</ele>
        <time>2025-02-04T16:41:46.525Z</time>
      </trkpt>
      <trkpt lat="58.74922695569694" lon="12.429833924397826">
        <ele>68.67</ele>
        <time>2025-02-04T16:42:06.243Z</time>
      </trkpt>
      <trkpt lat="58.749152943491936" lon="12.429851945489645">
        <ele>68.71</ele>
        <time>2025-02-04T16:42:25.962Z</time>
      </trkpt>
      <trkpt lat="58.74907792545855" lon="12.429867954924703">
        <ele>68.75</ele>
        <time>2025-02-04T16:42:45.682Z</time>
      </trkpt>
      <trkpt lat="58.74900399707258" lon="12.429885976016521">
        <ele>68.79</ele>
        <time>2025-02-04T16:43:05.404Z</time>
      </trkpt>
      <trkpt lat="58.74892897903919" lon="12.42990399710834">
        <ele>68.83</ele>
        <time>2025-02-04T16:43:25.127Z</time>
      </trkpt>
      <trkpt lat="58.748852955177426" lon="12.429922940209508">
        <ele>68.87</ele>
        <time>2025-02-04T16:43:44.851Z</time>
      </trkpt>
      <trkpt lat="58.74877793714404" lon="12.429942972958088">
        <ele>68.9</ele>
        <time>2025-02-04T16:44:04.576Z</time>
      </trkpt>
      <trkpt lat="58.748702919110656" lon="12.429963927716017">
        <ele>68.92</ele>
        <time>2025-02-04T16:44:24.303Z</time>
      </trkpt>
      <trkpt lat="58.74862999655306" lon="12.429983960464597">
        <ele>68.95</ele>
        <time>2025-02-04T16:44:44.031Z</time>
      </trkpt>
      <trkpt lat="58.74855699017644" lon="12.430005921050906">
        <ele>68.97</ele>
        <time>2025-02-04T16:45:03.760Z</time>
      </trkpt>
      <trkpt lat="58.74847996048629" lon="12.430026959627867">
        <ele>68.99</ele>
        <time>2025-02-04T16:45:23.490Z</time>
      </trkpt>
      <trkpt lat="58.74840594828129" lon="12.430050931870937">
        <ele>69.01</ele>
        <time>2025-02-04T16:45:43.221Z</time>
      </trkpt>
      <trkpt lat="58.74832992441952" lon="12.43007498793304">
        <ele>69.02</ele>
        <time>2025-02-04T16:46:02.954Z</time>
      </trkpt>
      <trkpt lat="58.74825599603355" lon="12.43009996600449">
        <ele>69.03</ele>
        <time>2025-02-04T16:46:22.688Z</time>
      </trkpt>
      <trkpt lat="58.748184917494655" lon="12.430125949904323">
        <ele>69.04</ele>
        <time>2025-02-04T16:46:42.423Z</time>
      </trkpt>
      <trkpt lat="58.74811392277479" lon="12.430151933804154">
        <ele>69.05</ele>
        <time>2025-02-04T16:47:02.159Z</time>
      </trkpt>
      <trkpt lat="58.74804292805493" lon="12.430178923532367">
        <ele>69.06</ele>
        <time>2025-02-04T16:47:21.896Z</time>
      </trkpt>
      <trkpt lat="58.747968999668956" lon="12.43020792491734">
        <ele>69.06</ele>
        <time>2025-02-04T16:47:41.635Z</time>
      </trkpt>
      <trkpt lat="58.74789398163557" lon="12.430237932130694">
        <ele>69.06</ele>
        <time>2025-02-04T16:48:01.375Z</time>
      </trkpt>
      <trkpt lat="58.747819969430566" lon="12.430265927687287">
        <ele>69.05</ele>
        <time>2025-02-04T16:48:21.116Z</time>
      </trkpt>
      <trkpt lat="58.74774495139718" lon="12.43029492907226">
        <ele>69.04</ele>
        <time>2025-02-04T16:48:40.858Z</time>
      </trkpt>
      <trkpt lat="58.747670939192176" lon="12.430324936285615">
        <ele>69.03</ele>
        <time>2025-02-04T16:49:00.601Z</time>
      </trkpt>
      <trkpt lat="58.74759994447231" lon="12.430351926013827">
        <ele>69.02</ele>
        <time>2025-02-04T16:49:20.346Z</time>
      </trkpt>
      <trkpt lat="58.74752693809569" lon="12.4303809273988">
        <ele>69.0</ele>
        <time>2025-02-04T16:49:40.092Z</time>
      </trkpt>
      <trkpt lat="58.747453931719065" lon="12.430411940440536">
        <ele>68.99</ele>
        <time>2025-02-04T16:49:59.839Z</time>
      </trkpt>
      <trkpt lat="58.74737991951406" lon="12.430445970967412">
        <ele>68.97</ele>
        <time>2025-02-04T16:50:19.587Z</time>
      </trkpt>
      <trkpt lat="58.74730599112809" lon="12.430479917675257">
        <ele>68.95</ele>
        <time>2025-02-04T16:50:39.336Z</time>
      </trkpt>
      <trkpt lat="58.74723298475146" lon="12.430515959858894">
        <ele>68.93</ele>
        <time>2025-02-04T16:50:59.087Z</time>
      </trkpt>
      <trkpt lat="58.74715796671808" lon="12.43055292405188">
        <ele>68.9</ele>
        <time>2025-02-04T16:51:18.839Z</time>
      </trkpt>
      <trkpt lat="58.74708294868469" lon="12.430587960407138">
        <ele>68.87</ele>
        <time>2025-02-04T16:51:38.592Z</time>
      </trkpt>
      <trkpt lat="58.7470049969852" lon="12.430622996762395">
        <ele>68.84</ele>
        <time>2025-02-04T16:51:58.346Z</time>
      </trkpt>
      <trkpt lat="58.74692897312343" lon="12.430658955127">
        <ele>68.81</ele>
        <time>2025-02-04T16:52:18.102Z</time>
      </trkpt>
      <trkpt lat="58.746849931776524" lon="12.43069994263351">
        <ele>68.78</ele>
        <time>2025-02-04T16:52:37.859Z</time>
      </trkpt>
      <trkpt lat="58.74677298590541" lon="12.430739924311638">
        <ele>68.74</ele>
        <time>2025-02-04T16:52:57.617Z</time>
      </trkpt>
      <trkpt lat="58.7466939445585" lon="12.430780995637178">
        <ele>68.71</ele>
        <time>2025-02-04T16:53:17.377Z</time>
      </trkpt>
      <trkpt lat="58.746614987030625" lon="12.430821983143687">
        <ele>68.67</ele>
        <time>2025-02-04T16:53:37.138Z</time>
      </trkpt>
      <trkpt lat="58.74653493985534" lon="12.430862970650196">
        <ele>68.63</ele>
        <time>2025-02-04T16:53:56.900Z</time>
      </trkpt>
      <trkpt lat="58.74645195901394" lon="12.430910998955369">
        <ele>68.58</ele>
        <time>2025-02-04T16:54:16.664Z</time>
      </trkpt>
      <trkpt lat="58.74636897817254" lon="12.430956931784749">
        <ele>68.54</ele>
        <time>2025-02-04T16:54:36.429Z</time>
      </trkpt>
      <trkpt lat="58.74628599733114" lon="12.43100294843316">
        <ele>68.49</ele>
        <time>2025-02-04T16:54:56.195Z</time>
      </trkpt>
      <trkpt lat="58.74620192684233" lon="12.431049970909953">
        <ele>68.44</ele>
        <time>2025-02-04T16:55:15.963Z</time>
      </trkpt>
      <trkpt lat="58.746118946000934" lon="12.431097999215126">
        <ele>68.39</ele>
        <time>2025-02-04T16:55:35.732Z</time>
      </trkpt>
      <trkpt lat="58.746035965159535" lon="12.431148961186409">
        <ele>68.33</ele>
        <time>2025-02-04T16:55:55.503Z</time>
      </trkpt>
      <trkpt lat="58.745948961004615" lon="12.431201934814453">
        <ele>68.28</ele>
        <time>2025-02-04T16:56:15.275Z</time>
      </trkpt>
      <trkpt lat="58.745861956849694" lon="12.431253986433148">
        <ele>68.23</ele>
        <time>2025-02-04T16:56:35.048Z</time>
      </trkpt>
      <trkpt lat="58.745774952694774" lon="12.431306960061193">
        <ele>68.18</ele>
        <time>2025-02-04T16:56:54.823Z</time>
      </trkpt>
      <trkpt lat="58.74568694271147" lon="12.431358927860856">
        <ele>68.13</ele>
        <time>2025-02-04T16:57:14.599Z</time>
      </trkpt>
      <trkpt lat="58.74559993855655" lon="12.431412991136312">
        <ele>68.07</ele>
        <time>2025-02-04T16:57:34.377Z</time>
      </trkpt>
      <trkpt lat="58.74551494605839" lon="12.431469988077879">
        <ele>68.01</ele>
        <time>2025-02-04T16:57:54.156Z</time>
      </trkpt>
      <trkpt lat="58.74542794190347" lon="12.431526985019445">
        <ele>67.94</ele>
        <time>2025-02-04T16:58:13.937Z</time>
      </trkpt>
      <trkpt lat="58.74533892609179" lon="12.431583981961012">
        <ele>67.87</ele>
        <time>2025-02-04T16:58:33.719Z</time>
      </trkpt>
      <trkpt lat="58.74524597078562" lon="12.431635949760675">
        <ele>67.81</ele>
        <time>2025-02-04T16:58:53.503Z</time>
      </trkpt>
      <trkpt lat="58.745154943317175" lon="12.43168699555099">
        <ele>67.74</ele>
        <time>2025-02-04T16:59:13.288Z</time>
      </trkpt>
      <trkpt lat="58.74506299383938" lon="12.431741980835795">
        <ele>67.66</ele>
        <time>2025-02-04T16:59:33.075Z</time>
      </trkpt>
      <trkpt lat="58.74497096054256" lon="12.431799983605742">
        <ele>67.59</ele>
        <time>2025-02-04T16:59:52.863Z</time>
      </trkpt>
      <trkpt lat="58.7448809389025" lon="12.43185899220407">
        <ele>67.51</ele>
        <time>2025-02-04T17:00:12.653Z</time>
      </trkpt>
      <trkpt lat="58.744787983596325" lon="12.431917916983366">
        <ele>67.44</ele>
        <time>2025-02-04T17:00:32.445Z</time>
      </trkpt>
      <trkpt lat="58.7446959502995" lon="12.431977931410074">
        <ele>67.36</ele>
        <time>2025-02-04T17:00:52.238Z</time>
      </trkpt>
      <trkpt lat="58.74460492283106" lon="12.432040963321924">
        <ele>67.27</ele>
        <time>2025-02-04T17:01:12.033Z</time>
      </trkpt>
      <trkpt lat="58.74451498501003" lon="12.432101983577013">
        <ele>67.2</ele>
        <time>2025-02-04T17:01:31.829Z</time>
      </trkpt>
      <trkpt lat="58.74442697502673" lon="12.43216099217534">
        <ele>67.11</ele>
        <time>2025-02-04T17:01:51.627Z</time>
      </trkpt>
      <trkpt lat="58.74434097670019" lon="12.432219916954637">
        <ele>67.03</ele>
        <time>2025-02-04T17:02:11.426Z</time>
      </trkpt>
      <trkpt lat="58.744252966716886" lon="12.432275991886854">
        <ele>66.94</ele>
        <time>2025-02-04T17:02:31.227Z</time>
      </trkpt>
      <trkpt lat="58.744165962561965" lon="12.43233097717166">
        <ele>66.85</ele>
        <time>2025-02-04T17:02:51.029Z</time>
      </trkpt>
      <trkpt lat="58.7440759409219" lon="12.432385962456465">
        <ele>66.76</ele>
        <time>2025-02-04T17:03:10.833Z</time>
      </trkpt>
      <trkpt lat="58.74398893676698" lon="12.432443965226412">
        <ele>66.66</ele>
        <time>2025-02-04T17:03:30.638Z</time>
      </trkpt>
      <trkpt lat="58.74390092678368" lon="12.432500962167978">
        <ele>66.56</ele>
        <time>2025-02-04T17:03:50.445Z</time>
      </trkpt>
      <trkpt lat="58.74381593428552" lon="12.432559970766306">
        <ele>66.46</ele>
        <time>2025-02-04T17:04:10.253Z</time>
      </trkpt>
      <trkpt lat="58.74373295344412" lon="12.432619985193014">
        <ele>66.35</ele>
        <time>2025-02-04T17:04:30.062Z</time>
      </trkpt>
      <trkpt lat="58.743647960945964" lon="12.4326759763062">
        <ele>66.25</ele>
        <time>2025-02-04T17:04:49.873Z</time>
      </trkpt>
      <trkpt lat="58.743564980104566" lon="12.432731967419386">
        <ele>66.14</ele>
        <time>2025-02-04T17:05:09.685Z</time>
      </trkpt>
      <trkpt lat="58.74348099343479" lon="12.432786952704191">
        <ele>66.03</ele>
        <time>2025-02-04T17:05:29.499Z</time>
      </trkpt>
      <trkpt lat="58.74339792877436" lon="12.432841937988997">
        <ele>65.92</ele>
        <time>2025-02-04T17:05:49.314Z</time>
      </trkpt>
      <trkpt lat="58.74331595376134" lon="12.432897929102182">
        <ele>65.81</ele>
        <time>2025-02-04T17:06:09.131Z</time>
      </trkpt>
      <trkpt lat="58.74323599040508" lon="12.43295299820602">
        <ele>65.71</ele>
        <time>2025-02-04T17:06:28.949Z</time>
      </trkpt>
      <trkpt lat="58.743154937401414" lon="12.433006977662444">
        <ele>65.6</ele>
        <time>2025-02-04T17:06:48.768Z</time>
      </trkpt>
      <trkpt lat="58.74307396821678" lon="12.433058945462108">
        <ele>65.49</ele>
        <time>2025-02-04T17:07:08.589Z</time>
      </trkpt>
      <trkpt lat="58.74299392104149" lon="12.433107979595661">
        <ele>65.39</ele>
        <time>2025-02-04T17:07:28.411Z</time>
      </trkpt>
      <trkpt lat="58.74291496351361" lon="12.433155924081802">
        <ele>65.28</ele>
        <time>2025-02-04T17:07:48.234Z</time>
      </trkpt>
      <trkpt lat="58.742836927995086" lon="12.433207975700498">
        <ele>65.18</ele>
        <time>2025-02-04T17:08:08.059Z</time>
      </trkpt>
      <trkpt lat="58.74275897629559" lon="12.433259943500161">
        <ele>65.07</ele>
        <time>2025-02-04T17:08:27.885Z</time>
      </trkpt>
      <trkpt lat="58.742682952433825" lon="12.433310989290476">
        <ele>64.95</ele>
        <time>2025-02-04T17:08:47.712Z</time>
      </trkpt>
      <trkpt lat="58.74260592274368" lon="12.433361951261759">
        <ele>64.83</ele>
        <time>2025-02-04T17:09:07.541Z</time>
      </trkpt>
      <trkpt lat="58.742530988529325" lon="12.433413919061422">
        <ele>64.71</ele>
        <time>2025-02-04T17:09:27.371Z</time>
      </trkpt>
      <trkpt lat="58.74245496466756" lon="12.433464964851737">
        <ele>64.58</ele>
        <time>2025-02-04T17:09:47.202Z</time>
      </trkpt>
      <trkpt lat="58.74237994663417" lon="12.43351399898529">
        <ele>64.45</ele>
        <time>2025-02-04T17:10:07.034Z</time>
      </trkpt>
      <trkpt lat="58.74230593442917" lon="12.433563955128193">
        <ele>64.32</ele>
        <time>2025-02-04T17:10:26.868Z</time>
      </trkpt>
      <trkpt lat="58.742232928052545" lon="12.433610977604985">
        <ele>64.18</ele>
        <time>2025-02-04T17:10:46.703Z</time>
      </trkpt>
      <trkpt lat="58.74215992167592" lon="12.433656994253397">
        <ele>64.04</ele>
        <time>2025-02-04T17:11:06.539Z</time>
      </trkpt>
      <trkpt lat="58.74208892695606" lon="12.433702927082777">
        <ele>63.89</ele>
        <time>2025-02-04T17:11:26.376Z</time>
      </trkpt>
      <trkpt lat="58.742018938064575" lon="12.433747937902808">
        <ele>63.74</ele>
        <time>2025-02-04T17:11:46.214Z</time>
      </trkpt>
      <trkpt lat="58.74194995500147" lon="12.4337949603796">
        <ele>63.59</ele>
        <time>2025-02-04T17:12:06.054Z</time>
      </trkpt>
      <trkpt lat="58.74187996610999" lon="12.433840977028012">
        <ele>63.44</ele>
        <time>2025-02-04T17:12:25.895Z</time>
      </trkpt>
      <trkpt lat="58.74181198887527" lon="12.433886993676424">
        <ele>63.29</ele>
        <time>2025-02-04T17:12:45.737Z</time>
      </trkpt>
      <trkpt lat="58.74174795113504" lon="12.433933932334185">
        <ele>63.13</ele>
        <time>2025-02-04T17:13:05.580Z</time>
      </trkpt>
      <trkpt lat="58.74168399721384" lon="12.433979948982596">
        <ele>62.97</ele>
        <time>2025-02-04T17:13:25.424Z</time>
      </trkpt>
      <trkpt lat="58.74162197113037" lon="12.434026971459389">
        <ele>62.81</ele>
        <time>2025-02-04T17:13:45.269Z</time>
      </trkpt>
      <trkpt lat="58.74156195670366" lon="12.434073993936181">
        <ele>62.65</ele>
        <time>2025-02-04T17:14:05.115Z</time>
      </trkpt>
      <trkpt lat="58.74149791896343" lon="12.434121938422322">
        <ele>62.48</ele>
        <time>2025-02-04T17:14:24.962Z</time>
      </trkpt>
      <trkpt lat="58.74142893590033" lon="12.434171978384256">
        <ele>62.32</ele>
        <time>2025-02-04T17:14:44.811Z</time>
      </trkpt>
      <trkpt lat="58.74135894700885" lon="12.434219922870398">
        <ele>62.15</ele>
        <time>2025-02-04T17:15:04.661Z</time>
      </trkpt>
      <trkpt lat="58.741289963945746" lon="12.434270968660712">
        <ele>61.98</ele>
        <time>2025-02-04T17:15:24.512Z</time>
      </trkpt>
      <trkpt lat="58.741219975054264" lon="12.434322936460376">
        <ele>61.8</ele>
        <time>2025-02-04T17:15:44.364Z</time>
      </trkpt>
      <trkpt lat="58.74114797450602" lon="12.434375993907452">
        <ele>61.62</ele>
        <time>2025-02-04T17:16:04.217Z</time>
      </trkpt>
      <trkpt lat="58.74107798561454" lon="12.434430979192257">
        <ele>61.44</ele>
        <time>2025-02-04T17:16:24.072Z</time>
      </trkpt>
      <trkpt lat="58.741005985066295" lon="12.434484958648682">
        <ele>61.27</ele>
        <time>2025-02-04T17:16:43.928Z</time>
      </trkpt>
      <trkpt lat="58.74093398451805" lon="12.434541955590248">
        <ele>61.09</ele>
        <time>2025-02-04T17:17:03.785Z</time>
      </trkpt>
      <trkpt lat="58.74086198396981" lon="12.434603981673717">
        <ele>60.91</ele>
        <time>2025-02-04T17:17:23.643Z</time>
      </trkpt>
      <trkpt lat="58.740789983421564" lon="12.434666929766536">
        <ele>60.74</ele>
        <time>2025-02-04T17:17:43.503Z</time>
      </trkpt>
      <trkpt lat="58.74071798287332" lon="12.434729961678386">
        <ele>60.56</ele>
        <time>2025-02-04T17:18:03.364Z</time>
      </trkpt>
      <trkpt lat="58.74064598232508" lon="12.434795927256346">
        <ele>60.38</ele>
        <time>2025-02-04T17:18:23.226Z</time>
      </trkpt>
      <trkpt lat="58.74057398177683" lon="12.434866921976209">
        <ele>60.21</ele>
        <time>2025-02-04T17:18:43.090Z</time>
      </trkpt>
      <trkpt lat="58.74050097540021" lon="12.434938922524452">
        <ele>60.03</ele>
        <time>2025-02-04T17:19:02.955Z</time>
      </trkpt>
      <trkpt lat="58.740425957366824" lon="12.435012934729457">
        <ele>59.85</ele>
        <time>2025-02-04T17:19:22.821Z</time>
      </trkpt>
      <trkpt lat="58.74034993350506" lon="12.435088958591223">
        <ele>59.66</ele>
        <time>2025-02-04T17:19:42.689Z</time>
      </trkpt>
      <trkpt lat="58.740272987633944" lon="12.43516699410975">
        <ele>59.48</ele>
        <time>2025-02-04T17:20:02.558Z</time>
      </trkpt>
      <trkpt lat="58.740193946287036" lon="12.435247963294387">
        <ele>59.3</ele>
        <time>2025-02-04T17:20:22.428Z</time>
      </trkpt>
      <trkpt lat="58.74011599458754" lon="12.435330944135785">
        <ele>59.12</ele>
        <time>2025-02-04T17:20:42.300Z</time>
      </trkpt>
      <trkpt lat="58.740039970725775" lon="12.435417948290706">
        <ele>58.93</ele>
        <time>2025-02-04T17:21:02.173Z</time>
      </trkpt>
      <trkpt lat="58.73996294103563" lon="12.435505958274007">
        <ele>58.74</ele>
        <time>2025-02-04T17:21:22.048Z</time>
      </trkpt>
      <trkpt lat="58.73988498933613" lon="12.43559698574245">
        <ele>58.56</ele>
        <time>2025-02-04T17:21:41.924Z</time>
      </trkpt>
      <trkpt lat="58.73980795964599" lon="12.435688935220242">
        <ele>58.37</ele>
        <time>2025-02-04T17:22:01.802Z</time>
      </trkpt>
      <trkpt lat="58.73972992412746" lon="12.435781974345446">
        <ele>58.19</ele>
        <time>2025-02-04T17:22:21.681Z</time>
      </trkpt>
      <trkpt lat="58.739652978256345" lon="12.43587794713676">
        <ele>58.01</ele>
        <time>2025-02-04T17:22:41.562Z</time>
      </trkpt>
      <trkpt lat="58.73957393690944" lon="12.435977943241596">
        <ele>57.83</ele>
        <time>2025-02-04T17:23:01.444Z</time>
      </trkpt>
      <trkpt lat="58.73949598520994" lon="12.436081962659955">
        <ele>57.64</ele>
        <time>2025-02-04T17:23:21.328Z</time>
      </trkpt>
      <trkpt lat="58.739417949691415" lon="12.436190927401185">
        <ele>57.46</ele>
        <time>2025-02-04T17:23:41.213Z</time>
      </trkpt>
      <trkpt lat="58.73934092000127" lon="12.436301987618208">
        <ele>57.28</ele>
        <time>2025-02-04T17:24:01.100Z</time>
      </trkpt>
      <trkpt lat="58.73926296830177" lon="12.436417993158102">
        <ele>57.1</ele>
        <time>2025-02-04T17:24:20.988Z</time>
      </trkpt>
      <trkpt lat="58.73918593861163" lon="12.436533998697996">
        <ele>56.93</ele>
        <time>2025-02-04T17:24:40.878Z</time>
      </trkpt>
      <trkpt lat="58.73910798691213" lon="12.43665092624724">
        <ele>56.75</ele>
        <time>2025-02-04T17:25:00.769Z</time>
      </trkpt>
      <trkpt lat="58.739030957221985" lon="12.436769949272275">
        <ele>56.57</ele>
        <time>2025-02-04T17:25:20.662Z</time>
      </trkpt>
      <trkpt lat="58.73895392753184" lon="12.436889978125691">
        <ele>56.4</ele>
        <time>2025-02-04T17:25:40.557Z</time>
      </trkpt>
      <trkpt lat="58.738877987489104" lon="12.437012940645218">
        <ele>56.22</ele>
        <time>2025-02-04T17:26:00.453Z</time>
      </trkpt>
      <trkpt lat="58.7388039752841" lon="12.437136992812157">
        <ele>56.05</ele>
        <time>2025-02-04T17:26:20.351Z</time>
      </trkpt>
      <trkpt lat="58.738729963079095" lon="12.437263978645205">
        <ele>55.88</ele>
        <time>2025-02-04T17:26:40.250Z</time>
      </trkpt>
      <trkpt lat="58.73865796253085" lon="12.437389958649874">
        <ele>55.71</ele>
        <time>2025-02-04T17:27:00.151Z</time>
      </trkpt>
      <trkpt lat="58.73858696781099" lon="12.437516944482923">
        <ele>55.54</ele>
        <time>2025-02-04T17:27:20.053Z</time>
      </trkpt>
      <trkpt lat="58.738516978919506" lon="12.437643930315971">
        <ele>55.37</ele>
        <time>2025-02-04T17:27:39.957Z</time>
      </trkpt>
      <trkpt lat="58.738449923694134" lon="12.4377719219774">
        <ele>55.21</ele>
        <time>2025-02-04T17:27:59.862Z</time>
      </trkpt>
      <trkpt lat="58.738383958116174" lon="12.437898991629481">
        <ele>55.04</ele>
        <time>2025-02-04T17:28:19.769Z</time>
      </trkpt>
      <trkpt lat="58.738318998366594" lon="12.438028994947672">
        <ele>54.88</ele>
        <time>2025-02-04T17:28:39.677Z</time>
      </trkpt>
      <trkpt lat="58.738256972283125" lon="12.438157992437482">
        <ele>54.72</ele>
        <time>2025-02-04T17:28:59.587Z</time>
      </trkpt>
      <trkpt lat="58.738194946199656" lon="12.438289923593402">
        <ele>54.55</ele>
        <time>2025-02-04T17:29:19.498Z</time>
      </trkpt>
      <trkpt lat="58.73813392594457" lon="12.438421938568354">
        <ele>54.39</ele>
        <time>2025-02-04T17:29:39.411Z</time>
      </trkpt>
      <trkpt lat="58.73807399533689" lon="12.438551941886544">
        <ele>54.24</ele>
        <time>2025-02-04T17:29:59.325Z</time>
      </trkpt>
      <trkpt lat="58.73801498673856" lon="12.438684962689877">
        <ele>54.09</ele>
        <time>2025-02-04T17:30:19.241Z</time>
      </trkpt>
      <trkpt lat="58.737956983968616" lon="12.438817983493209">
        <ele>53.94</ele>
        <time>2025-02-04T17:30:39.158Z</time>
      </trkpt>
      <trkpt lat="58.73790099285543" lon="12.43895192630589">
        <ele>53.79</ele>
        <time>2025-02-04T17:30:59.077Z</time>
      </trkpt>
      <trkpt lat="58.73784491792321" lon="12.439084947109222">
        <ele>53.64</ele>
        <time>2025-02-04T17:31:18.997Z</time>
      </trkpt>
      <trkpt lat="58.73779093846679" lon="12.439215956255794">
        <ele>53.5</ele>
        <time>2025-02-04T17:31:38.919Z</time>
      </trkpt>
      <trkpt lat="58.73773796483874" lon="12.439348977059126">
        <ele>53.36</ele>
        <time>2025-02-04T17:31:58.842Z</time>
      </trkpt>
      <trkpt lat="58.73768599703908" lon="12.439481997862458">
        <ele>53.23</ele>
        <time>2025-02-04T17:32:18.766Z</time>
      </trkpt>
      <trkpt lat="58.737635957077146" lon="12.439614934846759">
        <ele>53.1</ele>
        <time>2025-02-04T17:32:38.692Z</time>
      </trkpt>
      <trkpt lat="58.73758792877197" lon="12.439747955650091">
        <ele>52.96</ele>
        <time>2025-02-04T17:32:58.619Z</time>
      </trkpt>
      <trkpt lat="58.73753998428583" lon="12.439881982281804">
        <ele>52.83</ele>
        <time>2025-02-04T17:33:18.547Z</time>
      </trkpt>
      <trkpt lat="58.73749195598066" lon="12.440014919266105">
        <ele>52.71</ele>
        <time>2025-02-04T17:33:38.477Z</time>
      </trkpt>
      <trkpt lat="58.737444933503866" lon="12.440150957554579">
        <ele>52.58</ele>
        <time>2025-02-04T17:33:58.408Z</time>
      </trkpt>
      <trkpt lat="58.737396989017725" lon="12.44028297252953">
        <ele>52.46</ele>
        <time>2025-02-04T17:34:18.340Z</time>
      </trkpt>
      <trkpt lat="58.737351978197694" lon="12.440415993332863">
        <ele>52.35</ele>
        <time>2025-02-04T17:34:38.274Z</time>
      </trkpt>
      <trkpt lat="58.737308979034424" lon="12.440549936145544">
        <ele>52.23</ele>
        <time>2025-02-04T17:34:58.209Z</time>
      </trkpt>
      <trkpt lat="58.737265979871154" lon="12.440684968605638">
        <ele>52.12</ele>
        <time>2025-02-04T17:35:18.145Z</time>
      </trkpt>
      <trkpt lat="58.737223986536264" lon="12.44082192890346">
        <ele>52.01</ele>
        <time>2025-02-04T17:35:38.083Z</time>
      </trkpt>
      <trkpt lat="58.737181993201375" lon="12.440959978848696">
        <ele>51.91</ele>
        <time>2025-02-04T17:35:58.022Z</time>
      </trkpt>
      <trkpt lat="58.737140921875834" lon="12.4410979449749">
        <ele>51.81</ele>
        <time>2025-02-04T17:36:17.962Z</time>
      </trkpt>
      <trkpt lat="58.737100940197706" lon="12.441235994920135">
        <ele>51.71</ele>
        <time>2025-02-04T17:36:37.904Z</time>
      </trkpt>
      <trkpt lat="58.7370599526912" lon="12.441374966874719">
        <ele>51.62</ele>
        <time>2025-02-04T17:36:57.847Z</time>
      </trkpt>
      <trkpt lat="58.73702097684145" lon="12.441514944657683">
        <ele>51.52</ele>
        <time>2025-02-04T17:37:17.791Z</time>
      </trkpt>
      <trkpt lat="58.73698392882943" lon="12.441655928269029">
        <ele>51.43</ele>
        <time>2025-02-04T17:37:37.737Z</time>
      </trkpt>
      <trkpt lat="58.736945958808064" lon="12.441799929365516">
        <ele>51.34</ele>
        <time>2025-02-04T17:37:57.684Z</time>
      </trkpt>
      <trkpt lat="58.73690698295832" lon="12.441945942118764">
        <ele>51.25</ele>
        <time>2025-02-04T17:38:17.632Z</time>
      </trkpt>
      <trkpt lat="58.73686892911792" lon="12.442092960700393">
        <ele>51.17</ele>
        <time>2025-02-04T17:38:37.582Z</time>
      </trkpt>
      <trkpt lat="58.73682794161141" lon="12.442239979282022">
        <ele>51.09</ele>
        <time>2025-02-04T17:38:57.533Z</time>
      </trkpt>
      <trkpt lat="58.7367869541049" lon="12.442387919873">
        <ele>51.01</ele>
        <time>2025-02-04T17:39:17.486Z</time>
      </trkpt>
      <trkpt lat="58.73674496077001" lon="12.44253795593977">
        <ele>50.94</ele>
        <time>2025-02-04T17:39:37.440Z</time>
      </trkpt>
      <trkpt lat="58.7367039732635" lon="12.44268799200654">
        <ele>50.86</ele>
        <time>2025-02-04T17:39:57.395Z</time>
      </trkpt>
      <trkpt lat="58.73666298575699" lon="12.44283995591104">
        <ele>50.79</ele>
        <time>2025-02-04T17:40:17.352Z</time>
      </trkpt>
      <trkpt lat="58.736620992422104" lon="12.44299191981554">
        <ele>50.72</ele>
        <time>2025-02-04T17:40:37.310Z</time>
      </trkpt>
      <trkpt lat="58.73657992109656" lon="12.443142961710691">
        <ele>50.66</ele>
        <time>2025-02-04T17:40:57.270Z</time>
      </trkpt>
      <trkpt lat="58.736539939418435" lon="12.443291991949081">
        <ele>50.6</ele>
        <time>2025-02-04T17:41:17.231Z</time>
      </trkpt>
      <trkpt lat="58.736498951911926" lon="12.44344093836844">
        <ele>50.54</ele>
        <time>2025-02-04T17:41:37.193Z</time>
      </trkpt>
      <trkpt lat="58.7364589702338" lon="12.44359097443521">
        <ele>50.49</ele>
        <time>2025-02-04T17:41:57.157Z</time>
      </trkpt>
      <trkpt lat="58.73641999438405" lon="12.443739920854568">
        <ele>50.44</ele>
        <time>2025-02-04T17:42:17.122Z</time>
      </trkpt>
      <trkpt lat="58.73637992888689" lon="12.443889956921339">
        <ele>50.39</ele>
        <time>2025-02-04T17:42:37.089Z</time>
      </trkpt>
      <trkpt lat="58.73633994720876" lon="12.44404099881649">
        <ele>50.35</ele>
        <time>2025-02-04T17:42:57.057Z</time>
      </trkpt>
      <trkpt lat="58.736299965530634" lon="12.444189945235848">
        <ele>50.31</ele>
        <time>2025-02-04T17:43:17.026Z</time>
      </trkpt>
      <trkpt lat="58.736259983852506" lon="12.444339981302619">
        <ele>50.27</ele>
        <time>2025-02-04T17:43:36.997Z</time>
      </trkpt>
      <trkpt lat="58.736218996346" lon="12.444491945207119">
        <ele>50.24</ele>
        <time>2025-02-04T17:43:56.969Z</time>
      </trkpt>
      <trkpt lat="58.736177925020456" lon="12.44464198127389">
        <ele>50.2</ele>
        <time>2025-02-04T17:44:16.943Z</time>
      </trkpt>
      <trkpt lat="58.73613693751395" lon="12.444789921864867">
        <ele>50.18</ele>
        <time>2025-02-04T17:44:36.918Z</time>
      </trkpt>
      <trkpt lat="58.73609695583582" lon="12.444936940446496">
        <ele>50.16</ele>
        <time>2025-02-04T17:44:56.895Z</time>
      </trkpt>
      <trkpt lat="58.73605596832931" lon="12.445080941542983">
        <ele>50.14</ele>
        <time>2025-02-04T17:45:16.873Z</time>
      </trkpt>
      <trkpt lat="58.73601799830794" lon="12.445220919325948">
        <ele>50.13</ele>
        <time>2025-02-04T17:45:36.852Z</time>
      </trkpt>
      <trkpt lat="58.735980950295925" lon="12.445355951786041">
        <ele>50.12</ele>
        <time>2025-02-04T17:45:56.832Z</time>
      </trkpt>
      <trkpt lat="58.73594499193132" lon="12.445488972589374">
        <ele>50.12</ele>
        <time>2025-02-04T17:46:16.814Z</time>
      </trkpt>
      <trkpt lat="58.73590894974768" lon="12.445622999221087">
        <ele>50.11</ele>
        <time>2025-02-04T17:46:36.797Z</time>
      </trkpt>
      <trkpt lat="58.735872991383076" lon="12.445754930377007">
        <ele>50.12</ele>
        <time>2025-02-04T17:46:56.781Z</time>
      </trkpt>
      <trkpt lat="58.7358389608562" lon="12.445885939523578">
        <ele>50.12</ele>
        <time>2025-02-04T17:47:16.766Z</time>
      </trkpt>
      <trkpt lat="58.73580493032932" lon="12.446014937013388">
        <ele>50.12</ele>
        <time>2025-02-04T17:47:36.753Z</time>
      </trkpt>
      <trkpt lat="58.7357699777931" lon="12.446141922846437">
        <ele>50.13</ele>
        <time>2025-02-04T17:47:56.741Z</time>
      </trkpt>
      <trkpt lat="58.73573594726622" lon="12.446264969184995">
        <ele>50.13</ele>
        <time>2025-02-04T17:48:16.730Z</time>
      </trkpt>
      <trkpt lat="58.735701916739345" lon="12.44638399221003">
        <ele>50.15</ele>
        <time>2025-02-04T17:48:36.720Z</time>
      </trkpt>
      <trkpt lat="58.73566897585988" lon="12.446500919759274">
        <ele>50.16</ele>
        <time>2025-02-04T17:48:56.711Z</time>
      </trkpt>
      <trkpt lat="58.735637962818146" lon="12.446614997461438">
        <ele>50.17</ele>
        <time>2025-02-04T17:49:16.703Z</time>
      </trkpt>
      <trkpt lat="58.73560694977641" lon="12.44672597385943">
        <ele>50.2</ele>
        <time>2025-02-04T17:49:36.696Z</time>
      </trkpt>
      <trkpt lat="58.73557694256306" lon="12.44683594442904">
        <ele>50.22</ele>
        <time>2025-02-04T17:49:56.690Z</time>
      </trkpt>
      <trkpt lat="58.73554794117808" lon="12.44694298133254">
        <ele>50.24</ele>
        <time>2025-02-04T17:50:16.685Z</time>
      </trkpt>
      <trkpt lat="58.73551893979311" lon="12.447046916931868">
        <ele>50.27</ele>
        <time>2025-02-04T17:50:36.681Z</time>
      </trkpt>
      <trkpt lat="58.73549094423652" lon="12.447148924693465">
        <ele>50.3</ele>
        <time>2025-02-04T17:50:56.678Z</time>
      </trkpt>
      <trkpt lat="58.735463954508305" lon="12.447251938283443">
        <ele>50.33</ele>
        <time>2025-02-04T17:51:16.676Z</time>
      </trkpt>
      <trkpt lat="58.73543797060847" lon="12.447354951873422">
        <ele>50.37</ele>
        <time>2025-02-04T17:51:36.675Z</time>
      </trkpt>
      <trkpt lat="58.73540997505188" lon="12.447454947978258">
        <ele>50.41</ele>
        <time>2025-02-04T17:51:56.675Z</time>
      </trkpt>
      <trkpt lat="58.73538197949529" lon="12.447552932426333">
        <ele>50.45</ele>
        <time>2025-02-04T17:52:16.676Z</time>
      </trkpt>
      <trkpt lat="58.735353983938694" lon="12.447650916874409">
        <ele>50.49</ele>
        <time>2025-02-04T17:52:36.678Z</time>
      </trkpt>
      <trkpt lat="58.73532699421048" lon="12.447746973484755">
        <ele>50.53</ele>
        <time>2025-02-04T17:52:56.681Z</time>
      </trkpt>
      <trkpt lat="58.73529899865389" lon="12.447842946276069">
        <ele>50.57</ele>
        <time>2025-02-04T17:53:16.685Z</time>
      </trkpt>
      <trkpt lat="58.735270919278264" lon="12.447938919067383">
        <ele>50.61</ele>
        <time>2025-02-04T17:53:36.690Z</time>
      </trkpt>
      <trkpt lat="58.73524292372167" lon="12.448032964020967">
        <ele>50.66</ele>
        <time>2025-02-04T17:53:56.696Z</time>
      </trkpt>
      <trkpt lat="58.73521593399346" lon="12.44812399148941">
        <ele>50.71</ele>
        <time>2025-02-04T17:54:16.703Z</time>
      </trkpt>
      <trkpt lat="58.735188944265246" lon="12.448213929310441">
        <ele>50.76</ele>
        <time>2025-02-04T17:54:36.710Z</time>
      </trkpt>
      <trkpt lat="58.735161954537034" lon="12.448299927636981">
        <ele>50.81</ele>
        <time>2025-02-04T17:54:56.718Z</time>
      </trkpt>
      <trkpt lat="58.7351359706372" lon="12.448385925963521">
        <ele>50.86</ele>
        <time>2025-02-04T17:55:16.727Z</time>
      </trkpt>
      <trkpt lat="58.73510998673737" lon="12.448469996452332">
        <ele>50.91</ele>
        <time>2025-02-04T17:55:36.737Z</time>
      </trkpt>
      <trkpt lat="58.73508299700916" lon="12.44855297729373">
        <ele>50.97</ele>
        <time>2025-02-04T17:55:56.748Z</time>
      </trkpt>
      <trkpt lat="58.73505491763353" lon="12.448636963963509">
        <ele>51.02</ele>
        <time>2025-02-04T17:56:16.760Z</time>
      </trkpt>
      <trkpt lat="58.73502692207694" lon="12.448721956461668">
        <ele>51.07</ele>
        <time>2025-02-04T17:56:36.772Z</time>
      </trkpt>
      <trkpt lat="58.73499993234873" lon="12.448808960616589">
        <ele>51.13</ele>
        <time>2025-02-04T17:56:56.785Z</time>
      </trkpt>
      <trkpt lat="58.734971936792135" lon="12.44889697059989">
        <ele>51.19</ele>
        <time>2025-02-04T17:57:16.799Z</time>
      </trkpt>
      <trkpt lat="58.73494293540716" lon="12.44898397475481">
        <ele>51.25</ele>
        <time>2025-02-04T17:57:36.814Z</time>
      </trkpt>
      <trkpt lat="58.73491292819381" lon="12.44906997308135">
        <ele>51.31</ele>
        <time>2025-02-04T17:57:56.830Z</time>
      </trkpt>
      <trkpt lat="58.73488292098045" lon="12.44915597140789">
        <ele>51.37</ele>
        <time>2025-02-04T17:58:16.847Z</time>
      </trkpt>
      <trkpt lat="58.73485098592937" lon="12.44924196973443">
        <ele>51.43</ele>
        <time>2025-02-04T17:58:36.865Z</time>
      </trkpt>
      <trkpt lat="58.734818967059255" lon="12.44932696223259">
        <ele>51.48</ele>
        <time>2025-02-04T17:58:56.884Z</time>
      </trkpt>
      <trkpt lat="58.73478594236076" lon="12.449410948902369">
        <ele>51.54</ele>
        <time>2025-02-04T17:59:16.903Z</time>
      </trkpt>
      <trkpt lat="58.73475392349064" lon="12.449496947228909">
        <ele>51.59</ele>
        <time>2025-02-04T17:59:36.923Z</time>
      </trkpt>
      <trkpt lat="58.73472098261118" lon="12.44958395138383">
        <ele>51.65</ele>
        <time>2025-02-04T17:59:56.944Z</time>
      </trkpt>
      <trkpt lat="58.7346869520843" lon="12.449667938053608">
        <ele>51.7</ele>
        <time>2025-02-04T18:00:16.966Z</time>
      </trkpt>
      <trkpt lat="58.73465392738581" lon="12.449753936380148">
        <ele>51.76</ele>
        <time>2025-02-04T18:00:36.989Z</time>
      </trkpt>
      <trkpt lat="58.73461998067796" lon="12.449839934706688">
        <ele>51.82</ele>
        <time>2025-02-04T18:00:57.013Z</time>
      </trkpt>
      <trkpt lat="58.734584944322705" lon="12.449923921376467">
        <ele>51.87</ele>
        <time>2025-02-04T18:01:17.038Z</time>
      </trkpt>
      <trkpt lat="58.7345489859581" lon="12.450009919703007">
        <ele>51.93</ele>
        <time>2025-02-04T18:01:37.064Z</time>
      </trkpt>
      <trkpt lat="58.73451193794608" lon="12.450097929686308">
        <ele>51.98</ele>
        <time>2025-02-04T18:01:57.091Z</time>
      </trkpt>
      <trkpt lat="58.734474973753095" lon="12.450185939669609">
        <ele>52.03</ele>
        <time>2025-02-04T18:02:17.119Z</time>
      </trkpt>
      <trkpt lat="58.73443599790335" lon="12.450275961309671">
        <ele>52.09</ele>
        <time>2025-02-04T18:02:37.148Z</time>
      </trkpt>
      <trkpt lat="58.73439794406295" lon="12.450366988778114">
        <ele>52.14</ele>
        <time>2025-02-04T18:02:57.178Z</time>
      </trkpt>
      <trkpt lat="58.7343589682132" lon="12.450457932427526">
        <ele>52.19</ele>
        <time>2025-02-04T18:03:17.208Z</time>
      </trkpt>
      <trkpt lat="58.73431898653507" lon="12.450548959895968">
        <ele>52.24</ele>
        <time>2025-02-04T18:03:37.239Z</time>
      </trkpt>
      <trkpt lat="58.73427699320018" lon="12.450641999021173">
        <ele>52.29</ele>
        <time>2025-02-04T18:03:57.272Z</time>
      </trkpt>
      <trkpt lat="58.73423592187464" lon="12.450733948498964">
        <ele>52.34</ele>
        <time>2025-02-04T18:04:17.306Z</time>
      </trkpt>
      <trkpt lat="58.73419493436813" lon="12.450823970139027">
        <ele>52.39</ele>
        <time>2025-02-04T18:04:37.341Z</time>
      </trkpt>
      <trkpt lat="58.734153946861625" lon="12.450911980122328">
        <ele>52.45</ele>
        <time>2025-02-04T18:04:57.377Z</time>
      </trkpt>
      <trkpt lat="58.734111953526735" lon="12.45100099593401">
        <ele>52.5</ele>
        <time>2025-02-04T18:05:17.414Z</time>
      </trkpt>
      <trkpt lat="58.73407096602023" lon="12.45109193958342">
        <ele>52.54</ele>
        <time>2025-02-04T18:05:37.452Z</time>
      </trkpt>
      <trkpt lat="58.73402796685696" lon="12.451184978708625">
        <ele>52.59</ele>
        <time>2025-02-04T18:05:57.491Z</time>
      </trkpt>
      <trkpt lat="58.733983961865306" lon="12.451278939843178">
        <ele>52.64</ele>
        <time>2025-02-04T18:06:17.531Z</time>
      </trkpt>
      <trkpt lat="58.733937945216894" lon="12.451373990625143">
        <ele>52.69</ele>
        <time>2025-02-04T18:06:37.572Z</time>
      </trkpt>
      <trkpt lat="58.7338909227401" lon="12.451470969244838">
        <ele>52.73</ele>
        <time>2025-02-04T18:06:57.614Z</time>
      </trkpt>
      <trkpt lat="58.73384398408234" lon="12.451569959521294">
        <ele>52.78</ele>
        <time>2025-02-04T18:07:17.657Z</time>
      </trkpt>
      <trkpt lat="58.73379696160555" lon="12.45166894979775">
        <ele>52.82</ele>
        <time>2025-02-04T18:07:37.701Z</time>
      </trkpt>
      <trkpt lat="58.73374993912876" lon="12.451767940074205">
        <ele>52.87</ele>
        <time>2025-02-04T18:07:57.746Z</time>
      </trkpt>
      <trkpt lat="58.733701994642615" lon="12.45186592452228">
        <ele>52.91</ele>
        <time>2025-02-04T18:08:17.792Z</time>
      </trkpt>
      <trkpt lat="58.73365396633744" lon="12.451963992789388">
        <ele>52.95</ele>
        <time>2025-02-04T18:08:37.839Z</time>
      </trkpt>
      <trkpt lat="58.73360593803227" lon="12.452062983065844">
        <ele>52.99</ele>
        <time>2025-02-04T18:08:57.888Z</time>
      </trkpt>
      <trkpt lat="58.73355799354613" lon="12.452160967513919">
        <ele>53.03</ele>
        <time>2025-02-04T18:09:17.938Z</time>
      </trkpt>
      <trkpt lat="58.733509965240955" lon="12.452258951961994">
        <ele>53.07</ele>
        <time>2025-02-04T18:09:37.989Z</time>
      </trkpt>
      <trkpt lat="58.73346294276416" lon="12.45235693641007">
        <ele>53.1</ele>
        <time>2025-02-04T18:09:58.041Z</time>
      </trkpt>
      <trkpt lat="58.73341692611575" lon="12.452456932514906">
        <ele>53.13</ele>
        <time>2025-02-04T18:10:18.094Z</time>
      </trkpt>
      <trkpt lat="58.73336998745799" lon="12.452557934448123">
        <ele>53.17</ele>
        <time>2025-02-04T18:10:38.148Z</time>
      </trkpt>
      <trkpt lat="58.7333229649812" lon="12.45265793055296">
        <ele>53.2</ele>
        <time>2025-02-04T18:10:58.203Z</time>
      </trkpt>
      <trkpt lat="58.733275942504406" lon="12.452755998820066">
        <ele>53.23</ele>
        <time>2025-02-04T18:11:18.259Z</time>
      </trkpt>
      <trkpt lat="58.733227998018265" lon="12.452852977439761">
        <ele>53.26</ele>
        <time>2025-02-04T18:11:38.316Z</time>
      </trkpt>
      <trkpt lat="58.73317996971309" lon="12.452949956059456">
        <ele>53.29</ele>
        <time>2025-02-04T18:11:58.375Z</time>
      </trkpt>
      <trkpt lat="58.7331329472363" lon="12.45304693467915">
        <ele>53.32</ele>
        <time>2025-02-04T18:12:18.435Z</time>
      </trkpt>
      <trkpt lat="58.73308592475951" lon="12.453143997117877">
        <ele>53.34</ele>
        <time>2025-02-04T18:12:38.496Z</time>
      </trkpt>
      <trkpt lat="58.73303999193013" lon="12.45323896408081">
        <ele>53.37</ele>
        <time>2025-02-04T18:12:58.558Z</time>
      </trkpt>
      <trkpt lat="58.732993975281715" lon="12.453332925215364">
        <ele>53.4</ele>
        <time>2025-02-04T18:13:18.621Z</time>
      </trkpt>
      <trkpt lat="58.732949970290065" lon="12.453424958512187">
        <ele>53.42</ele>
        <time>2025-02-04T18:13:38.685Z</time>
      </trkpt>
      <trkpt lat="58.732904959470034" lon="12.453517997637391">
        <ele>53.45</ele>
        <time>2025-02-04T18:13:58.750Z</time>
      </trkpt>
      <trkpt lat="58.73285994865" lon="12.453610952943563">
        <ele>53.48</ele>
        <time>2025-02-04T18:14:18.816Z</time>
      </trkpt>
      <trkpt lat="58.73281393200159" lon="12.453705919906497">
        <ele>53.5</ele>
        <time>2025-02-04T18:14:38.883Z</time>
      </trkpt>
      <trkpt lat="58.73276799917221" lon="12.453800970688462">
        <ele>53.51</ele>
        <time>2025-02-04T18:14:58.951Z</time>
      </trkpt>
      <trkpt lat="58.73272298835218" lon="12.453895937651396">
        <ele>53.53</ele>
        <time>2025-02-04T18:15:19.020Z</time>
      </trkpt>
      <trkpt lat="58.73267797753215" lon="12.45398998260498">
        <ele>53.55</ele>
        <time>2025-02-04T18:15:39.090Z</time>
      </trkpt>
      <trkpt lat="58.73263296671212" lon="12.454081932082772">
        <ele>53.57</ele>
        <time>2025-02-04T18:15:59.161Z</time>
      </trkpt>
      <trkpt lat="58.732586950063705" lon="12.454173965379596">
        <ele>53.58</ele>
        <time>2025-02-04T18:16:19.234Z</time>
      </trkpt>
      <trkpt lat="58.732541939243674" lon="12.454266920685768">
        <ele>53.59</ele>
        <time>2025-02-04T18:16:39.308Z</time>
      </trkpt>
      <trkpt lat="58.73249692842364" lon="12.454357948154211">
        <ele>53.6</ele>
        <time>2025-02-04T18:16:59.383Z</time>
      </trkpt>
      <trkpt lat="58.73245292343199" lon="12.454446963965893">
        <ele>53.62</ele>
        <time>2025-02-04T18:17:19.459Z</time>
      </trkpt>
      <trkpt lat="58.73240891844034" lon="12.454535979777575">
        <ele>53.62</ele>
        <time>2025-02-04T18:17:39.536Z</time>
      </trkpt>
      <trkpt lat="58.73236692510545" lon="12.454622983932495">
        <ele>53.62</ele>
        <time>2025-02-04T18:17:59.614Z</time>
      </trkpt>
      <trkpt lat="58.73232493177056" lon="12.454708982259035">
        <ele>53.63</ele>
        <time>2025-02-04T18:18:19.693Z</time>
      </trkpt>
      <trkpt lat="58.732284950092435" lon="12.454790957272053">
        <ele>53.63</ele>
        <time>2025-02-04T18:18:39.773Z</time>
      </trkpt>
      <trkpt lat="58.73224597424269" lon="12.45487192645669">
        <ele>53.64</ele>
        <time>2025-02-04T18:18:59.854Z</time>
      </trkpt>
      <trkpt lat="58.73220792040229" lon="12.454950967803597">
        <ele>53.64</ele>
        <time>2025-02-04T18:19:19.935Z</time>
      </trkpt>
      <trkpt lat="58.73216995038092" lon="12.455027997493744">
        <ele>53.64</ele>
        <time>2025-02-04T18:19:40.017Z</time>
      </trkpt>
      <trkpt lat="58.732131980359554" lon="12.455104943364859">
        <ele>53.64</ele>
        <time>2025-02-04T18:20:00.100Z</time>
      </trkpt>
      <trkpt lat="58.732094932347536" lon="12.455181973055005">
        <ele>53.64</ele>
        <time>2025-02-04T18:20:20.184Z</time>
      </trkpt>
      <trkpt lat="58.73205796815455" lon="12.45525699108839">
        <ele>53.63</ele>
        <time>2025-02-04T18:20:40.269Z</time>
      </trkpt>
      <trkpt lat="58.73201999813318" lon="12.455329997465014">
        <ele>53.62</ele>
        <time>2025-02-04T18:21:00.355Z</time>
      </trkpt>
      <trkpt lat="58.731983955949545" lon="12.455399986356497">
        <ele>53.61</ele>
        <time>2025-02-04T18:21:20.442Z</time>
      </trkpt>
      <trkpt lat="58.73194799758494" lon="12.45547198690474">
        <ele>53.6</ele>
        <time>2025-02-04T18:21:40.529Z</time>
      </trkpt>
      <trkpt lat="58.73191396705806" lon="12.455542981624603">
        <ele>53.59</ele>
        <time>2025-02-04T18:22:00.617Z</time>
      </trkpt>
      <trkpt lat="58.731879936531186" lon="12.455611964687705">
        <ele>53.58</ele>
        <time>2025-02-04T18:22:20.706Z</time>
      </trkpt>
      <trkpt lat="58.73184598982334" lon="12.455677930265665">
        <ele>53.56</ele>
        <time>2025-02-04T18:22:40.796Z</time>
      </trkpt>
      <trkpt lat="58.731813970953226" lon="12.455740962177515">
        <ele>53.55</ele>
        <time>2025-02-04T18:23:00.887Z</time>
      </trkpt>
      <trkpt lat="58.73178094625473" lon="12.455801982432604">
        <ele>53.53</ele>
        <time>2025-02-04T18:23:20.978Z</time>
      </trkpt>
      <trkpt lat="58.731750939041376" lon="12.45585998520255">
        <ele>53.51</ele>
        <time>2025-02-04T18:23:41.070Z</time>
      </trkpt>
      <trkpt lat="58.7317219376564" lon="12.455910947173834">
        <ele>53.49</ele>
        <time>2025-02-04T18:24:01.163Z</time>
      </trkpt>
      <trkpt lat="58.73169595375657" lon="12.455955957993865">
        <ele>53.46</ele>
        <time>2025-02-04T18:24:21.256Z</time>
      </trkpt>
      <trkpt lat="58.7316719815135" lon="12.455996945500374">
        <ele>53.43</ele>
        <time>2025-02-04T18:24:41.350Z</time>
      </trkpt>
      <trkpt lat="58.73164993710816" lon="12.45602997019887">
        <ele>53.4</ele>
        <time>2025-02-04T18:25:01.444Z</time>
      </trkpt>
      <trkpt lat="58.73162898235023" lon="12.456056959927082">
        <ele>53.38</ele>
        <time>2025-02-04T18:25:21.539Z</time>
      </trkpt>
      <trkpt lat="58.73161096125841" lon="12.456079926341772">
        <ele>53.35</ele>
        <time>2025-02-04T18:25:41.634Z</time>
      </trkpt>
      <trkpt lat="58.731594951823354" lon="12.456097947433591">
        <ele>53.32</ele>
        <time>2025-02-04T18:26:01.729Z</time>
      </trkpt>
      <trkpt lat="58.731576930731535" lon="12.456112951040268">
        <ele>53.29</ele>
        <time>2025-02-04T18:26:21.825Z</time>
      </trkpt>
      <trkpt lat="58.731555975973606" lon="12.456124937161803">
        <ele>53.26</ele>
        <time>2025-02-04T18:26:41.921Z</time>
      </trkpt>
      <trkpt lat="58.731531919911504" lon="12.456134995445609">
        <ele>53.22</ele>
        <time>2025-02-04T18:27:02.017Z</time>
      </trkpt>
      <trkpt lat="58.73150694184005" lon="12.45613994076848">
        <ele>53.19</ele>
        <time>2025-02-04T18:27:22.114Z</time>
      </trkpt>
      <trkpt lat="58.73148095794022" lon="12.45613792911172">
        <ele>53.15</ele>
        <time>2025-02-04T18:27:42.211Z</time>
      </trkpt>
      <trkpt lat="58.73145497404039" lon="12.456128960475326">
        <ele>53.12</ele>
        <time>2025-02-04T18:28:02.308Z</time>
      </trkpt>
      <trkpt lat="58.731426978483796" lon="12.456112951040268">
        <ele>53.08</ele>
        <time>2025-02-04T18:28:22.406Z</time>
      </trkpt>
      <trkpt lat="58.7313989829272" lon="12.456089984625578">
        <ele>53.04</ele>
        <time>2025-02-04T18:28:42.504Z</time>
      </trkpt>
      <trkpt lat="58.73137199319899" lon="12.456060983240604">
        <ele>53.0</ele>
        <time>2025-02-04T18:29:02.603Z</time>
      </trkpt>
      <trkpt lat="58.73134793713689" lon="12.45602896437049">
        <ele>52.96</ele>
        <time>2025-02-04T18:29:22.702Z</time>
      </trkpt>
      <trkpt lat="58.73132295906544" lon="12.455999962985516">
        <ele>52.92</ele>
        <time>2025-02-04T18:29:42.802Z</time>
      </trkpt>
      <trkpt lat="58.73129295185208" lon="12.455971967428923">
        <ele>52.87</ele>
        <time>2025-02-04T18:30:02.902Z</time>
      </trkpt>
      <trkpt lat="58.73125892132521" lon="12.455940954387188">
        <ele>52.83</ele>
        <time>2025-02-04T18:30:23.003Z</time>
      </trkpt>
      <trkpt lat="58.73122195713222" lon="12.455908935517073">
        <ele>52.78</ele>
        <time>2025-02-04T18:30:43.105Z</time>
      </trkpt>
      <trkpt lat="58.73118298128247" lon="12.455873982980847">
        <ele>52.73</ele>
        <time>2025-02-04T18:31:03.207Z</time>
      </trkpt>
      <trkpt lat="58.731144927442074" lon="12.45583794079721">
        <ele>52.68</ele>
        <time>2025-02-04T18:31:23.310Z</time>
      </trkpt>
      <trkpt lat="58.73110695742071" lon="12.455800976604223">
        <ele>52.63</ele>
        <time>2025-02-04T18:31:43.414Z</time>
      </trkpt>
      <trkpt lat="58.73106697574258" lon="12.455761916935444">
        <ele>52.58</ele>
        <time>2025-02-04T18:32:03.518Z</time>
      </trkpt>
      <trkpt lat="58.73102397657931" lon="12.455717995762825">
        <ele>52.53</ele>
        <time>2025-02-04T18:32:23.623Z</time>
      </trkpt>
      <trkpt lat="58.7309779599309" lon="12.455672984942794">
        <ele>52.47</ele>
        <time>2025-02-04T18:32:43.729Z</time>
      </trkpt>
      <trkpt lat="58.73092791996896" lon="12.455624956637621">
        <ele>52.42</ele>
        <time>2025-02-04T18:33:03.836Z</time>
      </trkpt>
      <trkpt lat="58.73087494634092" lon="12.455575922504067">
        <ele>52.36</ele>
        <time>2025-02-04T18:33:23.944Z</time>
      </trkpt>
      <trkpt lat="58.730820966884494" lon="12.455527978017926">
        <ele>52.31</ele>
        <time>2025-02-04T18:33:44.053Z</time>
      </trkpt>
      <trkpt lat="58.73076497577131" lon="12.455478943884373">
        <ele>52.25</ele>
        <time>2025-02-04T18:34:04.163Z</time>
      </trkpt>
      <trkpt lat="58.73070596717298" lon="12.45542898774147">
        <ele>52.19</ele>
        <time>2025-02-04T18:34:24.274Z</time>
      </trkpt>
      <trkpt lat="58.73064595274627" lon="12.455377941951156">
        <ele>52.13</ele>
        <time>2025-02-04T18:34:44.386Z</time>
      </trkpt>
      <trkpt lat="58.73058493249118" lon="12.455325974151492">
        <ele>52.06</ele>
        <time>2025-02-04T18:35:04.499Z</time>
      </trkpt>
      <trkpt lat="58.730520978569984" lon="12.455275934189558">
        <ele>52.0</ele>
        <time>2025-02-04T18:35:24.613Z</time>
      </trkpt>
      <trkpt lat="58.730456940829754" lon="12.455224972218275">
        <ele>51.93</ele>
        <time>2025-02-04T18:35:44.728Z</time>
      </trkpt>
      <trkpt lat="58.730391981080174" lon="12.45517292059958">
        <ele>51.86</ele>
        <time>2025-02-04T18:36:04.844Z</time>
      </trkpt>
      <trkpt lat="58.73032593168318" lon="12.455120952799916">
        <ele>51.79</ele>
        <time>2025-02-04T18:36:24.961Z</time>
      </trkpt>
      <trkpt lat="58.73025795444846" lon="12.455069990828633">
        <ele>51.73</ele>
        <time>2025-02-04T18:36:45.080Z</time>
      </trkpt>
      <trkpt lat="58.73018897138536" lon="12.45502196252346">
        <ele>51.66</ele>
        <time>2025-02-04T18:37:05.200Z</time>
      </trkpt>
      <trkpt lat="58.7301179766655" lon="12.454971922561526">
        <ele>51.59</ele>
        <time>2025-02-04T18:37:25.321Z</time>
      </trkpt>
      <trkpt lat="58.730046981945634" lon="12.454919954761863">
        <ele>51.52</ele>
        <time>2025-02-04T18:37:45.443Z</time>
      </trkpt>
      <trkpt lat="58.72997397556901" lon="12.4548679869622">
        <ele>51.46</ele>
        <time>2025-02-04T18:38:05.567Z</time>
      </trkpt>
      <trkpt lat="58.729900969192386" lon="12.454816941171885">
        <ele>51.39</ele>
        <time>2025-02-04T18:38:25.692Z</time>
      </trkpt>
      <trkpt lat="58.72982494533062" lon="12.454766985028982">
        <ele>51.32</ele>
        <time>2025-02-04T18:38:45.818Z</time>
      </trkpt>
      <trkpt lat="58.729746993631124" lon="12.454716945067048">
        <ele>51.26</ele>
        <time>2025-02-04T18:39:05.945Z</time>
      </trkpt>
      <trkpt lat="58.729665940627456" lon="12.454664977267385">
        <ele>51.19</ele>
        <time>2025-02-04T18:39:26.074Z</time>
      </trkpt>
      <trkpt lat="58.72958396561444" lon="12.45461393147707">
        <ele>51.12</ele>
        <time>2025-02-04T18:39:46.204Z</time>
      </trkpt>
      <trkpt lat="58.72950098477304" lon="12.454562969505787">
        <ele>51.05</ele>
        <time>2025-02-04T18:40:06.336Z</time>
      </trkpt>
      <trkpt lat="58.72941892594099" lon="12.454511923715472">
        <ele>50.98</ele>
        <time>2025-02-04T18:40:26.469Z</time>
      </trkpt>
      <trkpt lat="58.72933695092797" lon="12.45446196757257">
        <ele>50.91</ele>
        <time>2025-02-04T18:40:46.603Z</time>
      </trkpt>
      <trkpt lat="58.729252964258194" lon="12.454415950924158">
        <ele>50.84</ele>
        <time>2025-02-04T18:41:06.739Z</time>
      </trkpt>
      <trkpt lat="58.729167971760035" lon="12.454371945932508">
        <ele>50.77</ele>
        <time>2025-02-04T18:41:26.876Z</time>
      </trkpt>
      <trkpt lat="58.729080967605114" lon="12.454326935112476">
        <ele>50.7</ele>
        <time>2025-02-04T18:41:47.015Z</time>
      </trkpt>
      <trkpt lat="58.72899195179343" lon="12.454281924292445">
        <ele>50.63</ele>
        <time>2025-02-04T18:42:07.155Z</time>
      </trkpt>
      <trkpt lat="58.72890293598175" lon="12.454237919300795">
        <ele>50.56</ele>
        <time>2025-02-04T18:42:27.296Z</time>
      </trkpt>
      <trkpt lat="58.72881392017007" lon="12.454193998128176">
        <ele>50.5</ele>
        <time>2025-02-04T18:42:47.439Z</time>
      </trkpt>
      <trkpt lat="58.72872498817742" lon="12.454150998964906">
        <ele>50.43</ele>
        <time>2025-02-04T18:43:07.583Z</time>
      </trkpt>
      <trkpt lat="58.728633960708976" lon="12.454106993973255">
        <ele>50.37</ele>
        <time>2025-02-04T18:43:27.729Z</time>
      </trkpt>
      <trkpt lat="58.72854192741215" lon="12.454061983153224">
        <ele>50.3</ele>
        <time>2025-02-04T18:43:47.876Z</time>
      </trkpt>
      <trkpt lat="58.72844897210598" lon="12.454015966504812">
        <ele>50.23</ele>
        <time>2025-02-04T18:44:08.025Z</time>
      </trkpt>
      <trkpt lat="58.728354927152395" lon="12.453970955684781">
        <ele>50.16</ele>
        <time>2025-02-04T18:44:28.176Z</time>
      </trkpt>
      <trkpt lat="58.72825996018946" lon="12.45392594486475">
        <ele>50.09</ele>
        <time>2025-02-04T18:44:48.328Z</time>
      </trkpt>
      <trkpt lat="58.72816398739815" lon="12.45388294570148">
        <ele>50.03</ele>
        <time>2025-02-04T18:45:08.482Z</time>
      </trkpt>
      <trkpt lat="58.7280679307878" lon="12.45383894070983">
        <ele>49.96</ele>
        <time>2025-02-04T18:45:28.637Z</time>
      </trkpt>
      <trkpt lat="58.72797296382487" lon="12.453791918233037">
        <ele>49.9</ele>
        <time>2025-02-04T18:45:48.794Z</time>
      </trkpt>
      <trkpt lat="58.72787598520517" lon="12.453743973746896">
        <ele>49.84</ele>
        <time>2025-02-04T18:46:08.952Z</time>
      </trkpt>
      <trkpt lat="58.72777791693807" lon="12.453698962926865">
        <ele>49.78</ele>
        <time>2025-02-04T18:46:29.112Z</time>
      </trkpt>
      <trkpt lat="58.72767699882388" lon="12.453653952106833">
        <ele>49.72</ele>
        <time>2025-02-04T18:46:49.274Z</time>
      </trkpt>
      <trkpt lat="58.72757499106228" lon="12.453606929630041">
        <ele>49.66</ele>
        <time>2025-02-04T18:47:09.437Z</time>
      </trkpt>
      <trkpt lat="58.727470971643925" lon="12.4535589851439">
        <ele>49.6</ele>
        <time>2025-02-04T18:47:29.602Z</time>
      </trkpt>
      <trkpt lat="58.727365946397185" lon="12.453511962667108">
        <ele>49.54</ele>
        <time>2025-02-04T18:47:49.769Z</time>
      </trkpt>
      <trkpt lat="58.7272599991411" lon="12.453461922705173">
        <ele>49.48</ele>
        <time>2025-02-04T18:48:09.938Z</time>
      </trkpt>
      <trkpt lat="58.727151956409216" lon="12.453407943248749">
        <ele>49.41</ele>
        <time>2025-02-04T18:48:30.108Z</time>
      </trkpt>
      <trkpt lat="58.727044919505715" lon="12.453354969620705">
        <ele>49.34</ele>
        <time>2025-02-04T18:48:50.280Z</time>
      </trkpt>
      <trkpt lat="58.726936960592866" lon="12.45330492965877">
        <ele>49.28</ele>
        <time>2025-02-04T18:49:10.454Z</time>
      </trkpt>
      <trkpt lat="58.726829923689365" lon="12.453255979344249">
        <ele>49.22</ele>
        <time>2025-02-04T18:49:30.630Z</time>
      </trkpt>
      <trkpt lat="58.726720958948135" lon="12.453205939382315">
        <ele>49.16</ele>
        <time>2025-02-04T18:49:50.808Z</time>
      </trkpt>
      <trkpt lat="58.726612916216254" lon="12.453157994896173">
        <ele>49.1</ele>
        <time>2025-02-04T18:50:10.987Z</time>
      </trkpt>
      <trkpt lat="58.726503951475024" lon="12.453112984076142">
        <ele>49.05</ele>
        <time>2025-02-04T18:50:31.168Z</time>
      </trkpt>
      <trkpt lat="58.726395992562175" lon="12.453072918578982">
        <ele>49.0</ele>
        <time>2025-02-04T18:50:51.351Z</time>
      </trkpt>
      <trkpt lat="58.72628694400191" lon="12.453038971871138">
        <ele>48.95</ele>
        <time>2025-02-04T18:51:11.536Z</time>
      </trkpt>
      <trkpt lat="58.726178985089064" lon="12.453012987971306">
        <ele>48.9</ele>
        <time>2025-02-04T18:51:31.722Z</time>
      </trkpt>
      <trkpt lat="58.726072954013944" lon="12.452993961051106">
        <ele>48.86</ele>
        <time>2025-02-04T18:51:51.910Z</time>
      </trkpt>
      <trkpt lat="58.725969940423965" lon="12.45297895744443">
        <ele>48.82</ele>
        <time>2025-02-04T18:52:12.100Z</time>
      </trkpt>
      <trkpt lat="58.72586893849075" lon="12.452966971322894">
        <ele>48.77</ele>
        <time>2025-02-04T18:52:32.291Z</time>
      </trkpt>
      <trkpt lat="58.72576894238591" lon="12.45295699685812">
        <ele>48.73</ele>
        <time>2025-02-04T18:52:52.484Z</time>
      </trkpt>
      <trkpt lat="58.725668946281075" lon="12.452951967716217">
        <ele>48.69</ele>
        <time>2025-02-04T18:53:12.679Z</time>
      </trkpt>
      <trkpt lat="58.72556794434786" lon="12.452953979372978">
        <ele>48.64</ele>
        <time>2025-02-04T18:53:32.875Z</time>
      </trkpt>
      <trkpt lat="58.72546794824302" lon="12.45296093635261">
        <ele>48.6</ele>
        <time>2025-02-04T18:53:53.073Z</time>
      </trkpt>
      <trkpt lat="58.725366946309805" lon="12.452971916645765">
        <ele>48.56</ele>
        <time>2025-02-04T18:54:13.272Z</time>
      </trkpt>
      <trkpt lat="58.72526795603335" lon="12.452984992414713">
        <ele>48.52</ele>
        <time>2025-02-04T18:54:33.473Z</time>
      </trkpt>
      <trkpt lat="58.725169971585274" lon="12.45300192385912">
        <ele>48.49</ele>
        <time>2025-02-04T18:54:53.676Z</time>
      </trkpt>
      <trkpt lat="58.7250719871372" lon="12.4530219566077">
        <ele>48.45</ele>
        <time>2025-02-04T18:55:13.880Z</time>
      </trkpt>
      <trkpt lat="58.72497391887009" lon="12.453047940507531">
        <ele>48.42</ele>
        <time>2025-02-04T18:55:34.086Z</time>
      </trkpt>
      <trkpt lat="58.72487794607878" lon="12.453080965206027">
        <ele>48.38</ele>
        <time>2025-02-04T18:55:54.293Z</time>
      </trkpt>
      <trkpt lat="58.72478197328746" lon="12.453115917742252">
        <ele>48.35</ele>
        <time>2025-02-04T18:56:14.502Z</time>
      </trkpt>
      <trkpt lat="58.7246869225055" lon="12.45315296575427">
        <ele>48.31</ele>
        <time>2025-02-04T18:56:34.712Z</time>
      </trkpt>
      <trkpt lat="58.724592961370945" lon="12.453191941604018">
        <ele>48.28</ele>
        <time>2025-02-04T18:56:54.924Z</time>
      </trkpt>
      <trkpt lat="58.7245019339025" lon="12.453234940767288">
        <ele>48.25</ele>
        <time>2025-02-04T18:57:15.137Z</time>
      </trkpt>
      <trkpt lat="58.72441291809082" lon="12.4532809574157">
        <ele>48.22</ele>
        <time>2025-02-04T18:57:35.352Z</time>
      </trkpt>
      <trkpt lat="58.72432499192655" lon="12.453330997377634">
        <ele>48.19</ele>
        <time>2025-02-04T18:57:55.568Z</time>
      </trkpt>
      <trkpt lat="58.72423899360001" lon="12.453381959348917">
        <ele>48.17</ele>
        <time>2025-02-04T18:58:15.786Z</time>
      </trkpt>
      <trkpt lat="58.7241549231112" lon="12.4534329213202">
        <ele>48.14</ele>
        <time>2025-02-04T18:58:36.005Z</time>
      </trkpt>
      <trkpt lat="58.7240719422698" lon="12.453487990424037">
        <ele>48.12</ele>
        <time>2025-02-04T18:58:56.226Z</time>
      </trkpt>
      <trkpt lat="58.723989967256784" lon="12.453545993193984">
        <ele>48.1</ele>
        <time>2025-02-04T18:59:16.448Z</time>
      </trkpt>
      <trkpt lat="58.72390799224377" lon="12.45360592380166">
        <ele>48.08</ele>
        <time>2025-02-04T18:59:36.672Z</time>
      </trkpt>
      <trkpt lat="58.72382794506848" lon="12.45366895571351">
        <ele>48.06</ele>
        <time>2025-02-04T18:59:56.897Z</time>
      </trkpt>
      <trkpt lat="58.7237489875406" lon="12.45373492129147">
        <ele>48.04</ele>
        <time>2025-02-04T19:00:17.123Z</time>
      </trkpt>
      <trkpt lat="58.723669946193695" lon="12.453801976516843">
        <ele>48.02</ele>
        <time>2025-02-04T19:00:37.351Z</time>
      </trkpt>
      <trkpt lat="58.72359291650355" lon="12.453872971236706">
        <ele>48.0</ele>
        <time>2025-02-04T19:00:57.580Z</time>
      </trkpt>
      <trkpt lat="58.723516976460814" lon="12.45394597761333">
        <ele>47.98</ele>
        <time>2025-02-04T19:01:17.810Z</time>
      </trkpt>
      <trkpt lat="58.72343994677067" lon="12.454021917656064">
        <ele>47.97</ele>
        <time>2025-02-04T19:01:38.042Z</time>
      </trkpt>
      <trkpt lat="58.72336291708052" lon="12.454099953174591">
        <ele>47.96</ele>
        <time>2025-02-04T19:01:58.275Z</time>
      </trkpt>
      <trkpt lat="58.72328597120941" lon="12.454176982864738">
        <ele>47.95</ele>
        <time>2025-02-04T19:02:18.510Z</time>
      </trkpt>
      <trkpt lat="58.7232069298625" lon="12.454256946220994">
        <ele>47.94</ele>
        <time>2025-02-04T19:02:38.746Z</time>
      </trkpt>
      <trkpt lat="58.72312696650624" lon="12.454336993396282">
        <ele>47.92</ele>
        <time>2025-02-04T19:02:58.983Z</time>
      </trkpt>
      <trkpt lat="58.723047925159335" lon="12.454416956752539">
        <ele>47.91</ele>
        <time>2025-02-04T19:03:19.222Z</time>
      </trkpt>
      <trkpt lat="58.72296796180308" lon="12.454495998099446">
        <ele>47.9</ele>
        <time>2025-02-04T19:03:39.462Z</time>
      </trkpt>
      <trkpt lat="58.72288699261844" lon="12.454576967284083">
        <ele>47.89</ele>
        <time>2025-02-04T19:03:59.704Z</time>
      </trkpt>
      <trkpt lat="58.72280593961477" lon="12.454659948125482">
        <ele>47.89</ele>
        <time>2025-02-04T19:04:19.947Z</time>
      </trkpt>
      <trkpt lat="58.722723964601755" lon="12.4547419231385">
        <ele>47.88</ele>
        <time>2025-02-04T19:04:40.192Z</time>
      </trkpt>
      <trkpt lat="58.722639977931976" lon="12.45482599362731">
        <ele>47.88</ele>
        <time>2025-02-04T19:05:00.438Z</time>
      </trkpt>
      <trkpt lat="58.7225559912622" lon="12.45491098612547">
        <ele>47.87</ele>
        <time>2025-02-04T19:05:20.686Z</time>
      </trkpt>
      <trkpt lat="58.72247099876404" lon="12.454994972795248">
        <ele>47.87</ele>
        <time>2025-02-04T19:05:40.935Z</time>
      </trkpt>
      <trkpt lat="58.72238692827523" lon="12.455077953636646">
        <ele>47.86</ele>
        <time>2025-02-04T19:06:01.186Z</time>
      </trkpt>
      <trkpt lat="58.72230294160545" lon="12.455158922821283">
        <ele>47.86</ele>
        <time>2025-02-04T19:06:21.438Z</time>
      </trkpt>
      <trkpt lat="58.72221895493567" lon="12.455237964168191">
        <ele>47.86</ele>
        <time>2025-02-04T19:06:41.692Z</time>
      </trkpt>
      <trkpt lat="58.72213396243751" lon="12.455316921696067">
        <ele>47.87</ele>
        <time>2025-02-04T19:07:01.947Z</time>
      </trkpt>
      <trkpt lat="58.72204595245421" lon="12.455392945557833">
        <ele>47.87</ele>
        <time>2025-02-04T19:07:22.204Z</time>
      </trkpt>
      <trkpt lat="58.72195693664253" lon="12.455465951934457">
        <ele>47.88</ele>
        <time>2025-02-04T19:07:42.462Z</time>
      </trkpt>
      <trkpt lat="58.721865992993116" lon="12.455534934997559">
        <ele>47.88</ele>
        <time>2025-02-04T19:08:02.722Z</time>
      </trkpt>
      <trkpt lat="58.72177295386791" lon="12.455597966909409">
        <ele>47.88</ele>
        <time>2025-02-04T19:08:22.984Z</time>
      </trkpt>
      <trkpt lat="58.72167999856174" lon="12.455653958022594">
        <ele>47.89</ele>
        <time>2025-02-04T19:08:43.247Z</time>
      </trkpt>
      <trkpt lat="58.721585953608155" lon="12.455703997984529">
        <ele>47.9</ele>
        <time>2025-02-04T19:09:03.512Z</time>
      </trkpt>
      <trkpt lat="58.7214919924736" lon="12.455748924985528">
        <ele>47.91</ele>
        <time>2025-02-04T19:09:23.778Z</time>
      </trkpt>
      <trkpt lat="58.7213989533484" lon="12.455788990482688">
        <ele>47.93</ele>
        <time>2025-02-04T19:09:44.046Z</time>
      </trkpt>
      <trkpt lat="58.721305998042226" lon="12.455821931362152">
        <ele>47.94</ele>
        <time>2025-02-04T19:10:04.315Z</time>
      </trkpt>
      <trkpt lat="58.7212139647454" lon="12.455849926918745">
        <ele>47.95</ele>
        <time>2025-02-04T19:10:24.586Z</time>
      </trkpt>
      <trkpt lat="58.72112193144858" lon="12.455874988809228">
        <ele>47.97</ele>
        <time>2025-02-04T19:10:44.858Z</time>
      </trkpt>
      <trkpt lat="58.72102998197079" lon="12.455895943567157">
        <ele>47.98</ele>
        <time>2025-02-04T19:11:05.132Z</time>
      </trkpt>
      <trkpt lat="58.72093794867396" lon="12.455910947173834">
        <ele>48.0</ele>
        <time>2025-02-04T19:11:25.407Z</time>
      </trkpt>
      <trkpt lat="58.72084599919617" lon="12.45592293329537">
        <ele>48.02</ele>
        <time>2025-02-04T19:11:45.684Z</time>
      </trkpt>
      <trkpt lat="58.72075597755611" lon="12.455929974094033">
        <ele>48.03</ele>
        <time>2025-02-04T19:12:05.962Z</time>
      </trkpt>
      <trkpt lat="58.72066595591605" lon="12.455931985750794">
        <ele>48.05</ele>
        <time>2025-02-04T19:12:26.242Z</time>
      </trkpt>
      <trkpt lat="58.72057895176113" lon="12.455929974094033">
        <ele>48.08</ele>
        <time>2025-02-04T19:12:46.523Z</time>
      </trkpt>
      <trkpt lat="58.72049496509135" lon="12.45592393912375">
        <ele>48.1</ele>
        <time>2025-02-04T19:13:06.805Z</time>
      </trkpt>
      <trkpt lat="58.72041491791606" lon="12.455915976315737">
        <ele>48.13</ele>
        <time>2025-02-04T19:13:27.089Z</time>
      </trkpt>
      <trkpt lat="58.720337972044945" lon="12.45590197853744">
        <ele>48.16</ele>
        <time>2025-02-04T19:13:47.374Z</time>
      </trkpt>
      <trkpt lat="58.72026295401156" lon="12.455887980759144">
        <ele>48.18</ele>
        <time>2025-02-04T19:14:07.660Z</time>
      </trkpt>
      <trkpt lat="58.720189947634935" lon="12.455868953838944">
        <ele>48.21</ele>
        <time>2025-02-04T19:14:27.947Z</time>
      </trkpt>
      <trkpt lat="58.72011895291507" lon="12.455847999081016">
        <ele>48.24</ele>
        <time>2025-02-04T19:14:48.235Z</time>
      </trkpt>
      <trkpt lat="58.72004795819521" lon="12.455826960504055">
        <ele>48.27</ele>
        <time>2025-02-04T19:15:08.525Z</time>
      </trkpt>
      <trkpt lat="58.719975957646966" lon="12.455806927755475">
        <ele>48.29</ele>
        <time>2025-02-04T19:15:28.816Z</time>
      </trkpt>
      <trkpt lat="58.7199049629271" lon="12.455787984654307">
        <ele>48.32</ele>
        <time>2025-02-04T19:15:49.108Z</time>
      </trkpt>
      <trkpt lat="58.71983296237886" lon="12.455768957734108">
        <ele>48.35</ele>
        <time>2025-02-04T19:16:09.401Z</time>
      </trkpt>
      <trkpt lat="58.719758950173855" lon="12.455745991319418">
        <ele>48.37</ele>
        <time>2025-02-04T19:16:29.695Z</time>
      </trkpt>
      <trkpt lat="58.71968493796885" lon="12.455721935257316">
        <ele>48.41</ele>
        <time>2025-02-04T19:16:49.991Z</time>
      </trkpt>
      <trkpt lat="58.719609919935465" lon="12.455698968842626">
        <ele>48.43</ele>
        <time>2025-02-04T19:17:10.288Z</time>
      </trkpt>
      <trkpt lat="58.71953498572111" lon="12.455673990771174">
        <ele>48.46</ele>
        <time>2025-02-04T19:17:30.586Z</time>
      </trkpt>
      <trkpt lat="58.719458961859345" lon="12.455648928880692">
        <ele>48.49</ele>
        <time>2025-02-04T19:17:50.885Z</time>
      </trkpt>
      <trkpt lat="58.71937992051244" lon="12.45562395080924">
        <ele>48.52</ele>
        <time>2025-02-04T19:18:11.185Z</time>
      </trkpt>
      <trkpt lat="58.71930096298456" lon="12.45560098439455">
        <ele>48.55</ele>
        <time>2025-02-04T19:18:31.487Z</time>
      </trkpt>
      <trkpt lat="58.719219993799925" lon="12.45557893998921">
        <ele>48.59</ele>
        <time>2025-02-04T19:18:51.790Z</time>
      </trkpt>
      <trkpt lat="58.719137934967875" lon="12.455554967746139">
        <ele>48.62</ele>
        <time>2025-02-04T19:19:12.094Z</time>
      </trkpt>
      <trkpt lat="58.71905595995486" lon="12.455530995503068">
        <ele>48.65</ele>
        <time>2025-02-04T19:19:32.400Z</time>
      </trkpt>
      <trkpt lat="58.71897398494184" lon="12.455507945269346">
        <ele>48.69</ele>
        <time>2025-02-04T19:19:52.707Z</time>
      </trkpt>
      <trkpt lat="58.71889092028141" lon="12.455485984683037">
        <ele>48.72</ele>
        <time>2025-02-04T19:20:13.015Z</time>
      </trkpt>
      <trkpt lat="58.71880693361163" lon="12.455464946106076">
        <ele>48.76</ele>
        <time>2025-02-04T19:20:33.325Z</time>
      </trkpt>
      <trkpt lat="58.71872294694185" lon="12.455446925014257">
        <ele>48.79</ele>
        <time>2025-02-04T19:20:53.636Z</time>
      </trkpt>
      <trkpt lat="58.71863795444369" lon="12.455429993569851">
        <ele>48.82</ele>
        <time>2025-02-04T19:21:13.948Z</time>
      </trkpt>
      <trkpt lat="58.718553967773914" lon="12.455416917800903">
        <ele>48.85</ele>
        <time>2025-02-04T19:21:34.262Z</time>
      </trkpt>
      <trkpt lat="58.718469981104136" lon="12.45540694333613">
        <ele>48.88</ele>
        <time>2025-02-04T19:21:54.577Z</time>
      </trkpt>
      <trkpt lat="58.718384988605976" lon="12.455396968871355">
        <ele>48.91</ele>
        <time>2025-02-04T19:22:14.894Z</time>
      </trkpt>
      <trkpt lat="58.718298990279436" lon="12.455389928072691">
        <ele>48.94</ele>
        <time>2025-02-04T19:22:35.212Z</time>
      </trkpt>
      <trkpt lat="58.718211986124516" lon="12.45538791641593">
        <ele>48.97</ele>
        <time>2025-02-04T19:22:55.531Z</time>
      </trkpt>
      <trkpt lat="58.71812196448445" lon="12.45538892224431">
        <ele>48.99</ele>
        <time>2025-02-04T19:23:15.852Z</time>
      </trkpt>
      <trkpt lat="58.71803194284439" lon="12.455390933901072">
        <ele>49.02</ele>
        <time>2025-02-04T19:23:36.174Z</time>
      </trkpt>
      <trkpt lat="58.71794099919498" lon="12.455398980528116">
        <ele>49.04</ele>
        <time>2025-02-04T19:23:56.498Z</time>
      </trkpt>
      <trkpt lat="58.71785097755492" lon="12.455409960821271">
        <ele>49.07</ele>
        <time>2025-02-04T19:24:16.823Z</time>
      </trkpt>
      <trkpt lat="58.717761961743236" lon="12.455425970256329">
        <ele>49.09</ele>
        <time>2025-02-04T19:24:37.150Z</time>
      </trkpt>
      <trkpt lat="58.71767194010317" lon="12.455441979691386">
        <ele>49.12</ele>
        <time>2025-02-04T19:24:57.478Z</time>
      </trkpt>
      <trkpt lat="58.71758099645376" lon="12.455458994954824">
        <ele>49.15</ele>
        <time>2025-02-04T19:25:17.807Z</time>
      </trkpt>
      <trkpt lat="58.7174909748137" lon="12.455477938055992">
        <ele>49.18</ele>
        <time>2025-02-04T19:25:38.138Z</time>
      </trkpt>
      <trkpt lat="58.71740095317364" lon="12.455499982461333">
        <ele>49.21</ele>
        <time>2025-02-04T19:25:58.470Z</time>
      </trkpt>
      <trkpt lat="58.717311937361956" lon="12.455523954704404">
        <ele>49.23</ele>
        <time>2025-02-04T19:26:18.804Z</time>
      </trkpt>
      <trkpt lat="58.717224933207035" lon="12.455548932775855">
        <ele>49.26</ele>
        <time>2025-02-04T19:26:39.139Z</time>
      </trkpt>
      <trkpt lat="58.717136923223734" lon="12.455574916675687">
        <ele>49.29</ele>
        <time>2025-02-04T19:26:59.476Z</time>
      </trkpt>
      <trkpt lat="58.7170469854027" lon="12.455602996051311">
        <ele>49.33</ele>
        <time>2025-02-04T19:27:19.814Z</time>
      </trkpt>
      <trkpt lat="58.71695696376264" lon="12.455628979951143">
        <ele>49.36</ele>
        <time>2025-02-04T19:27:40.154Z</time>
      </trkpt>
      <trkpt lat="58.71686493046582" lon="12.455654963850975">
        <ele>49.39</ele>
        <time>2025-02-04T19:28:00.495Z</time>
      </trkpt>
      <trkpt lat="58.716771975159645" lon="12.455682959407568">
        <ele>49.42</ele>
        <time>2025-02-04T19:28:20.838Z</time>
      </trkpt>
      <trkpt lat="58.71667893603444" lon="12.455710954964161">
        <ele>49.44</ele>
        <time>2025-02-04T19:28:41.182Z</time>
      </trkpt>
      <trkpt lat="58.71658598072827" lon="12.455737944692373">
        <ele>49.47</ele>
        <time>2025-02-04T19:29:01.528Z</time>
      </trkpt>
      <trkpt lat="58.716492941603065" lon="12.455763928592205">
        <ele>49.5</ele>
        <time>2025-02-04T19:29:21.875Z</time>
      </trkpt>
      <trkpt lat="58.71640199795365" lon="12.455790918320417">
        <ele>49.53</ele>
        <time>2025-02-04T19:29:42.224Z</time>
      </trkpt>
      <trkpt lat="58.71631197631359" lon="12.455818997696042">
        <ele>49.55</ele>
        <time>2025-02-04T19:30:02.574Z</time>
      </trkpt>
      <trkpt lat="58.71622296050191" lon="12.455845987424254">
        <ele>49.58</ele>
        <time>2025-02-04T19:30:22.925Z</time>
      </trkpt>
      <trkpt lat="58.71613495051861" lon="12.455870965495706">
        <ele>49.6</ele>
        <time>2025-02-04T19:30:43.278Z</time>
      </trkpt>
      <trkpt lat="58.716045934706926" lon="12.45589996688068">
        <ele>49.62</ele>
        <time>2025-02-04T19:31:03.632Z</time>
      </trkpt>
      <trkpt lat="58.715955996885896" lon="12.455927962437272">
        <ele>49.65</ele>
        <time>2025-02-04T19:31:23.988Z</time>
      </trkpt>
      <trkpt lat="58.71586597524583" lon="12.455956963822246">
        <ele>49.68</ele>
        <time>2025-02-04T19:31:44.345Z</time>
      </trkpt>
      <trkpt lat="58.71577394194901" lon="12.45598596520722">
        <ele>49.7</ele>
        <time>2025-02-04T19:32:04.704Z</time>
      </trkpt>
      <trkpt lat="58.71568199247122" lon="12.456012954935431">
        <ele>49.72</ele>
        <time>2025-02-04T19:32:25.064Z</time>
      </trkpt>
      <trkpt lat="58.715589959174395" lon="12.456037933006883">
        <ele>49.75</ele>
        <time>2025-02-04T19:32:45.426Z</time>
      </trkpt>
      <trkpt lat="58.71549792587757" lon="12.456064922735095">
        <ele>49.77</ele>
        <time>2025-02-04T19:33:05.789Z</time>
      </trkpt>
      <trkpt lat="58.71540597639978" lon="12.456093924120069">
        <ele>49.79</ele>
        <time>2025-02-04T19:33:26.154Z</time>
      </trkpt>
      <trkpt lat="58.715314948931336" lon="12.456122925505042">
        <ele>49.81</ele>
        <time>2025-02-04T19:33:46.520Z</time>
      </trkpt>
      <trkpt lat="58.71522392146289" lon="12.456149999052286">
        <ele>49.83</ele>
        <time>2025-02-04T19:34:06.888Z</time>
      </trkpt>
      <trkpt lat="58.71513398364186" lon="12.456174977123737">
        <ele>49.86</ele>
        <time>2025-02-04T19:34:27.257Z</time>
      </trkpt>
      <trkpt lat="58.71504295617342" lon="12.456199955195189">
        <ele>49.88</ele>
        <time>2025-02-04T19:34:47.628Z</time>
      </trkpt>
      <trkpt lat="58.7149509228766" lon="12.45622199960053">
        <ele>49.9</ele>
        <time>2025-02-04T19:35:08.000Z</time>
      </trkpt>
      <trkpt lat="58.714858973398805" lon="12.456242954358459">
        <ele>49.92</ele>
        <time>2025-02-04T19:35:28.374Z</time>
      </trkpt>
      <trkpt lat="58.71476694010198" lon="12.456261981278658">
        <ele>49.94</ele>
        <time>2025-02-04T19:35:48.749Z</time>
      </trkpt>
      <trkpt lat="58.71467297896743" lon="12.456279918551445">
        <ele>49.96</ele>
        <time>2025-02-04T19:36:09.126Z</time>
      </trkpt>
      <trkpt lat="58.714580945670605" lon="12.456296933814883">
        <ele>49.97</ele>
        <time>2025-02-04T19:36:29.504Z</time>
      </trkpt>
      <trkpt lat="58.71448991820216" lon="12.45630799792707">
        <ele>49.99</ele>
        <time>2025-02-04T19:36:49.884Z</time>
      </trkpt>
      <trkpt lat="58.71440098620951" lon="12.45631294324994">
        <ele>50.01</ele>
        <time>2025-02-04T19:37:10.265Z</time>
      </trkpt>
      <trkpt lat="58.71431096456945" lon="12.456313949078321">
        <ele>50.03</ele>
        <time>2025-02-04T19:37:30.647Z</time>
      </trkpt>
      <trkpt lat="58.71422094292939" lon="12.456314954906702">
        <ele>50.05</ele>
        <time>2025-02-04T19:37:51.031Z</time>
      </trkpt>
      <trkpt lat="58.714130921289325" lon="12.456315960735083">
        <ele>50.07</ele>
        <time>2025-02-04T19:38:11.416Z</time>
      </trkpt>
      <trkpt lat="58.714040983468294" lon="12.45631294324994">
        <ele>50.09</ele>
        <time>2025-02-04T19:38:31.803Z</time>
      </trkpt>
      <trkpt lat="58.71395096182823" lon="12.456304980441928">
        <ele>50.11</ele>
        <time>2025-02-04T19:38:52.191Z</time>
      </trkpt>
      <trkpt lat="58.71386194601655" lon="12.456294922158122">
        <ele>50.12</ele>
        <time>2025-02-04T19:39:12.581Z</time>
      </trkpt>
      <trkpt lat="58.71377293020487" lon="12.456280924379826">
        <ele>50.14</ele>
        <time>2025-02-04T19:39:32.972Z</time>
      </trkpt>
      <trkpt lat="58.71368399821222" lon="12.4562649987638">
        <ele>50.16</ele>
        <time>2025-02-04T19:39:53.365Z</time>
      </trkpt>
      <trkpt lat="58.7135969940573" lon="12.4562459718436">
        <ele>50.17</ele>
        <time>2025-02-04T19:40:13.759Z</time>
      </trkpt>
      <trkpt lat="58.71351191774011" lon="12.45622493326664">
        <ele>50.18</ele>
        <time>2025-02-04T19:40:34.154Z</time>
      </trkpt>
      <trkpt lat="58.71342692524195" lon="12.456200961023569">
        <ele>50.2</ele>
        <time>2025-02-04T19:40:54.551Z</time>
      </trkpt>
      <trkpt lat="58.71334193274379" lon="12.456176988780499">
        <ele>50.21</ele>
        <time>2025-02-04T19:41:14.949Z</time>
      </trkpt>
      <trkpt lat="58.71325593441725" lon="12.456146981567144">
        <ele>50.22</ele>
        <time>2025-02-04T19:41:35.348Z</time>
      </trkpt>
      <trkpt lat="58.71316893026233" lon="12.456113956868649">
        <ele>50.23</ele>
        <time>2025-02-04T19:41:55.749Z</time>
      </trkpt>
      <trkpt lat="58.71308293193579" lon="12.456079926341772">
        <ele>50.25</ele>
        <time>2025-02-04T19:42:16.151Z</time>
      </trkpt>
      <trkpt lat="58.712994921952486" lon="12.456044973805547">
        <ele>50.26</ele>
        <time>2025-02-04T19:42:36.555Z</time>
      </trkpt>
      <trkpt lat="58.712904984131455" lon="12.456007925793529">
        <ele>50.28</ele>
        <time>2025-02-04T19:42:56.960Z</time>
      </trkpt>
      <trkpt lat="58.71281496249139" lon="12.455968949943781">
        <ele>50.3</ele>
        <time>2025-02-04T19:43:17.367Z</time>
      </trkpt>
      <trkpt lat="58.71272393502295" lon="12.455930979922414">
        <ele>50.32</ele>
        <time>2025-02-04T19:43:37.775Z</time>
      </trkpt>
      <trkpt lat="58.71263399720192" lon="12.455892926082015">
        <ele>50.34</ele>
        <time>2025-02-04T19:43:58.185Z</time>
      </trkpt>
      <trkpt lat="58.71254397556186" lon="12.455853950232267">
        <ele>50.36</ele>
        <time>2025-02-04T19:44:18.596Z</time>
      </trkpt>
      <trkpt lat="58.712453953921795" lon="12.4558159802109">
        <ele>50.38</ele>
        <time>2025-02-04T19:44:39.009Z</time>
      </trkpt>
      <trkpt lat="58.71236493811011" lon="12.455779938027263">
        <ele>50.4</ele>
        <time>2025-02-04T19:44:59.423Z</time>
      </trkpt>
      <trkpt lat="58.71227491647005" lon="12.455742973834276">
        <ele>50.42</ele>
        <time>2025-02-04T19:45:19.839Z</time>
      </trkpt>
      <trkpt lat="58.71218497864902" lon="12.455704919993877">
        <ele>50.43</ele>
        <time>2025-02-04T19:45:40.256Z</time>
      </trkpt>
      <trkpt lat="58.71209596283734" lon="12.45566493831575">
        <ele>50.45</ele>
        <time>2025-02-04T19:46:00.674Z</time>
      </trkpt>
      <trkpt lat="58.71200694702566" lon="12.455625962466002">
        <ele>50.46</ele>
        <time>2025-02-04T19:46:21.094Z</time>
      </trkpt>
      <trkpt lat="58.711917931213975" lon="12.455586986616254">
        <ele>50.48</ele>
        <time>2025-02-04T19:46:41.515Z</time>
      </trkpt>
      <trkpt lat="58.711827993392944" lon="12.455549938604236">
        <ele>50.49</ele>
        <time>2025-02-04T19:47:01.938Z</time>
      </trkpt>
      <trkpt lat="58.71173797175288" lon="12.45551297441125">
        <ele>50.5</ele>
        <time>2025-02-04T19:47:22.362Z</time>
      </trkpt>
      <trkpt lat="58.71164795011282" lon="12.455475926399231">
        <ele>50.52</ele>
        <time>2025-02-04T19:47:42.788Z</time>
      </trkpt>
      <trkpt lat="58.71155792847276" lon="12.455437956377864">
        <ele>50.53</ele>
        <time>2025-02-04T19:48:03.215Z</time>
      </trkpt>
      <trkpt lat="58.71146899648011" lon="12.455401998013258">
        <ele>50.55</ele>
        <time>2025-02-04T19:48:23.644Z</time>
      </trkpt>
      <trkpt lat="58.71138199232519" lon="12.45536495000124">
        <ele>50.57</ele>
        <time>2025-02-04T19:48:44.074Z</time>
      </trkpt>
      <trkpt lat="58.71129599399865" lon="12.455326979979873">
        <ele>50.59</ele>
        <time>2025-02-04T19:49:04.506Z</time>
      </trkpt>
      <trkpt lat="58.71120999567211" lon="12.455286998301744">
        <ele>50.61</ele>
        <time>2025-02-04T19:49:24.939Z</time>
      </trkpt>
      <trkpt lat="58.711121985688806" lon="12.455249950289726">
        <ele>50.63</ele>
        <time>2025-02-04T19:49:45.373Z</time>
      </trkpt>
      <trkpt lat="58.711033975705504" lon="12.45521198026836">
        <ele>50.65</ele>
        <time>2025-02-04T19:50:05.809Z</time>
      </trkpt>
      <trkpt lat="58.7109459657222" lon="12.45517392642796">
        <ele>50.67</ele>
        <time>2025-02-04T19:50:26.246Z</time>
      </trkpt>
      <trkpt lat="58.71085694991052" lon="12.455136962234974">
        <ele>50.68</ele>
        <time>2025-02-04T19:50:46.685Z</time>
      </trkpt>
      <trkpt lat="58.71076793409884" lon="12.455098992213607">
        <ele>50.7</ele>
        <time>2025-02-04T19:51:07.125Z</time>
      </trkpt>
      <trkpt lat="58.71067799627781" lon="12.455061944201589">
        <ele>50.72</ele>
        <time>2025-02-04T19:51:27.567Z</time>
      </trkpt>
      <trkpt lat="58.71058898046613" lon="12.455026991665363">
        <ele>50.74</ele>
        <time>2025-02-04T19:51:48.010Z</time>
      </trkpt>
      <trkpt lat="58.71050197631121" lon="12.454991955310106">
        <ele>50.76</ele>
        <time>2025-02-04T19:52:08.455Z</time>
      </trkpt>
      <trkpt lat="58.71041597798467" lon="12.45495398528874">
        <ele>50.78</ele>
        <time>2025-02-04T19:52:28.901Z</time>
      </trkpt>
      <trkpt lat="58.71032997965813" lon="12.454916937276721">
        <ele>50.79</ele>
        <time>2025-02-04T19:52:49.348Z</time>
      </trkpt>
      <trkpt lat="58.710242975503206" lon="12.454878967255354">
        <ele>50.81</ele>
        <time>2025-02-04T19:53:09.797Z</time>
      </trkpt>
      <trkpt lat="58.710155971348286" lon="12.454840997233987">
        <ele>50.83</ele>
        <time>2025-02-04T19:53:30.247Z</time>
      </trkpt>
      <trkpt lat="58.710067961364985" lon="12.454803949221969">
        <ele>50.85</ele>
        <time>2025-02-04T19:53:50.699Z</time>
      </trkpt>
      <trkpt lat="58.70997995138168" lon="12.454766985028982">
        <ele>50.87</ele>
        <time>2025-02-04T19:54:11.152Z</time>
      </trkpt>
      <trkpt lat="58.70989093557" lon="12.454728931188583">
        <ele>50.89</ele>
        <time>2025-02-04T19:54:31.607Z</time>
      </trkpt>
      <trkpt lat="58.70980099774897" lon="12.454691966995597">
        <ele>50.92</ele>
        <time>2025-02-04T19:54:52.063Z</time>
      </trkpt>
      <trkpt lat="58.70971097610891" lon="12.45465299114585">
        <ele>50.94</ele>
        <time>2025-02-04T19:55:12.521Z</time>
      </trkpt>
      <trkpt lat="58.709620954468846" lon="12.45461493730545">
        <ele>50.96</ele>
        <time>2025-02-04T19:55:32.980Z</time>
      </trkpt>
      <trkpt lat="58.7095299270004" lon="12.454576967284083">
        <ele>50.98</ele>
        <time>2025-02-04T19:55:53.441Z</time>
      </trkpt>
      <trkpt lat="58.70943998917937" lon="12.454540925100446">
        <ele>51.0</ele>
        <time>2025-02-04T19:56:13.903Z</time>
      </trkpt>
      <trkpt lat="58.70934996753931" lon="12.45450396090746">
        <ele>51.03</ele>
        <time>2025-02-04T19:56:34.367Z</time>
      </trkpt>
      <trkpt lat="58.70926195755601" lon="12.454467918723822">
        <ele>51.05</ele>
        <time>2025-02-04T19:56:54.832Z</time>
      </trkpt>
      <trkpt lat="58.70917495340109" lon="12.454430954530835">
        <ele>51.07</ele>
        <time>2025-02-04T19:57:15.298Z</time>
      </trkpt>
      <trkpt lat="58.70908996090293" lon="12.454392984509468">
        <ele>51.1</ele>
        <time>2025-02-04T19:57:35.766Z</time>
      </trkpt>
      <trkpt lat="58.70900396257639" lon="12.454353924840689">
        <ele>51.12</ele>
        <time>2025-02-04T19:57:56.235Z</time>
      </trkpt>
      <trkpt lat="58.70891695842147" lon="12.454316960647702">
        <ele>51.14</ele>
        <time>2025-02-04T19:58:16.706Z</time>
      </trkpt>
      <trkpt lat="58.70882894843817" lon="12.454280918464065">
        <ele>51.17</ele>
        <time>2025-02-04T19:58:37.178Z</time>
      </trkpt>
      <trkpt lat="58.708740938454866" lon="12.454243954271078">
        <ele>51.19</ele>
        <time>2025-02-04T19:58:57.652Z</time>
      </trkpt>
      <trkpt lat="58.708652928471565" lon="12.45420296676457">
        <ele>51.22</ele>
        <time>2025-02-04T19:59:18.127Z</time>
      </trkpt>
      <trkpt lat="58.708564918488264" lon="12.45416197925806">
        <ele>51.25</ele>
        <time>2025-02-04T19:59:38.604Z</time>
      </trkpt>
      <trkpt lat="58.70847498066723" lon="12.454120991751552">
        <ele>51.27</ele>
        <time>2025-02-04T19:59:59.082Z</time>
      </trkpt>
      <trkpt lat="58.70838596485555" lon="12.454080926254392">
        <ele>51.3</ele>
        <time>2025-02-04T20:00:19.561Z</time>
      </trkpt>
      <trkpt lat="58.70829594321549" lon="12.454039938747883">
        <ele>51.33</ele>
        <time>2025-02-04T20:00:40.042Z</time>
      </trkpt>
      <trkpt lat="58.70820793323219" lon="12.454000962898135">
        <ele>51.36</ele>
        <time>2025-02-04T20:01:00.524Z</time>
      </trkpt>
      <trkpt lat="58.70812092907727" lon="12.453962992876768">
        <ele>51.4</ele>
        <time>2025-02-04T20:01:21.008Z</time>
      </trkpt>
      <trkpt lat="58.70803199708462" lon="12.45392493903637">
        <ele>51.43</ele>
        <time>2025-02-04T20:01:41.493Z</time>
      </trkpt>
      <trkpt lat="58.70794398710132" lon="12.453886969015002">
        <ele>51.45</ele>
        <time>2025-02-04T20:02:01.980Z</time>
      </trkpt>
      <trkpt lat="58.707854971289635" lon="12.453847993165255">
        <ele>51.48</ele>
        <time>2025-02-04T20:02:22.468Z</time>
      </trkpt>
      <trkpt lat="58.70776696130633" lon="12.453806921839714">
        <ele>51.51</ele>
        <time>2025-02-04T20:02:42.958Z</time>
      </trkpt>
      <trkpt lat="58.70767895132303" lon="12.453767945989966">
        <ele>51.55</ele>
        <time>2025-02-04T20:03:03.449Z</time>
      </trkpt>
      <trkpt lat="58.70759295299649" lon="12.4537299759686">
        <ele>51.58</ele>
        <time>2025-02-04T20:03:23.942Z</time>
      </trkpt>
      <trkpt lat="58.707508966326714" lon="12.453693933784962">
        <ele>51.61</ele>
        <time>2025-02-04T20:03:44.436Z</time>
      </trkpt>
      <trkpt lat="58.707426991313696" lon="12.453660992905498">
        <ele>51.64</ele>
        <time>2025-02-04T20:04:04.931Z</time>
      </trkpt>
      <trkpt lat="58.70734895579517" lon="12.453629979863763">
        <ele>51.67</ele>
        <time>2025-02-04T20:04:25.428Z</time>
      </trkpt>
      <trkpt lat="58.707274943590164" lon="12.45360097847879">
        <ele>51.71</ele>
        <time>2025-02-04T20:04:45.926Z</time>
      </trkpt>
      <trkpt lat="58.70720696635544" lon="12.453573988750577">
        <ele>51.74</ele>
        <time>2025-02-04T20:05:06.425Z</time>
      </trkpt>
      <trkpt lat="58.70714393444359" lon="12.453549932688475">
        <ele>51.78</ele>
        <time>2025-02-04T20:05:26.925Z</time>
      </trkpt>
      <trkpt lat="58.707085931673646" lon="12.453527972102165">
        <ele>51.82</ele>
        <time>2025-02-04T20:05:47.426Z</time>
      </trkpt>
      <trkpt lat="58.70702994056046" lon="12.453506933525205">
        <ele>51.85</ele>
        <time>2025-02-04T20:06:07.928Z</time>
      </trkpt>
      <trkpt lat="58.706976966932416" lon="12.453482961282134">
        <ele>51.89</ele>
        <time>2025-02-04T20:06:28.431Z</time>
      </trkpt>
      <trkpt lat="58.7069259211421" lon="12.453448930755258">
        <ele>51.93</ele>
        <time>2025-02-04T20:06:48.934Z</time>
      </trkpt>
      <trkpt lat="58.70688392780721" lon="12.45338698849082">
        <ele>51.96</ele>
        <time>2025-02-04T20:07:09.438Z</time>
      </trkpt>
      <trkpt lat="58.706856938079" lon="12.453293949365616">
        <ele>52.0</ele>
        <time>2025-02-04T20:07:29.943Z</time>
      </trkpt>
      <trkpt lat="58.70684897527099" lon="12.453184984624386">
        <ele>52.04</ele>
        <time>2025-02-04T20:07:50.449Z</time>
      </trkpt>
      <trkpt lat="58.70685492642224" lon="12.453070990741253">
        <ele>52.07</ele>
        <time>2025-02-04T20:08:10.956Z</time>
      </trkpt>
      <trkpt lat="58.706865990534425" lon="12.452952973544598">
        <ele>52.1</ele>
        <time>2025-02-04T20:08:31.464Z</time>
      </trkpt>
      <trkpt lat="58.7068809941411" lon="12.452832944691181">
        <ele>52.14</ele>
        <time>2025-02-04T20:08:51.973Z</time>
      </trkpt>
      <trkpt lat="58.70689691975713" lon="12.452706964686513">
        <ele>52.18</ele>
        <time>2025-02-04T20:09:12.483Z</time>
      </trkpt>
      <trkpt lat="58.706913935020566" lon="12.452581990510225">
        <ele>52.22</ele>
        <time>2025-02-04T20:09:32.994Z</time>
      </trkpt>
      <trkpt lat="58.706933967769146" lon="12.452449975535274">
        <ele>52.26</ele>
        <time>2025-02-04T20:09:53.506Z</time>
      </trkpt>
      <trkpt lat="58.706950983032584" lon="12.45231594890356">
        <ele>52.3</ele>
        <time>2025-02-04T20:10:14.020Z</time>
      </trkpt>
      <trkpt lat="58.70696892030537" lon="12.452180916443467">
        <ele>52.34</ele>
        <time>2025-02-04T20:10:34.535Z</time>
      </trkpt>
      <trkpt lat="58.70698895305395" lon="12.452039932832122">
        <ele>52.39</ele>
        <time>2025-02-04T20:10:55.051Z</time>
      </trkpt>
      <trkpt lat="58.70700797997415" lon="12.451894925907254">
        <ele>52.44</ele>
        <time>2025-02-04T20:11:15.568Z</time>
      </trkpt>
      <trkpt lat="58.70702398940921" lon="12.451751930639148">
        <ele>52.48</ele>
        <time>2025-02-04T20:11:36.086Z</time>
      </trkpt>
      <trkpt lat="58.707041926681995" lon="12.451608935371041">
        <ele>52.53</ele>
        <time>2025-02-04T20:11:56.606Z</time>
      </trkpt>
      <trkpt lat="58.707060953602195" lon="12.451461916789412">
        <ele>52.57</ele>
        <time>2025-02-04T20:12:17.127Z</time>
      </trkpt>
      <trkpt lat="58.70707595720887" lon="12.451315987855196">
        <ele>52.62</ele>
        <time>2025-02-04T20:12:37.649Z</time>
      </trkpt>
      <trkpt lat="58.70709297247231" lon="12.45117299258709">
        <ele>52.67</ele>
        <time>2025-02-04T20:12:58.172Z</time>
      </trkpt>
      <trkpt lat="58.70711099356413" lon="12.451030919328332">
        <ele>52.71</ele>
        <time>2025-02-04T20:13:18.697Z</time>
      </trkpt>
      <trkpt lat="58.707128930836916" lon="12.450881972908974">
        <ele>52.76</ele>
        <time>2025-02-04T20:13:39.223Z</time>
      </trkpt>
      <trkpt lat="58.707147957757115" lon="12.450728919357061">
        <ele>52.8</ele>
        <time>2025-02-04T20:13:59.750Z</time>
      </trkpt>
      <trkpt lat="58.707165978848934" lon="12.450577961280942">
        <ele>52.85</ele>
        <time>2025-02-04T20:14:20.278Z</time>
      </trkpt>
      <trkpt lat="58.70718198828399" lon="12.450431948527694">
        <ele>52.9</ele>
        <time>2025-02-04T20:14:40.808Z</time>
      </trkpt>
      <trkpt lat="58.70719699189067" lon="12.45029297657311">
        <ele>52.95</ele>
        <time>2025-02-04T20:15:01.339Z</time>
      </trkpt>
      <trkpt lat="58.707211995497346" lon="12.450162973254919">
        <ele>52.99</ele>
        <time>2025-02-04T20:15:21.871Z</time>
      </trkpt>
      <trkpt lat="58.70722498744726" lon="12.45003992691636">
        <ele>53.04</ele>
        <time>2025-02-04T20:15:42.404Z</time>
      </trkpt>
      <trkpt lat="58.70723596774042" lon="12.449925933033228">
        <ele>53.09</ele>
        <time>2025-02-04T20:16:02.938Z</time>
      </trkpt>
      <trkpt lat="58.70724393054843" lon="12.44981998577714">
        <ele>53.13</ele>
        <time>2025-02-04T20:16:23.473Z</time>
      </trkpt>
      <trkpt lat="58.70724292472005" lon="12.449720995500684">
        <ele>53.18</ele>
        <time>2025-02-04T20:16:44.009Z</time>
      </trkpt>
      <trkpt lat="58.70722792111337" lon="12.44962896220386">
        <ele>53.23</ele>
        <time>2025-02-04T20:17:04.546Z</time>
      </trkpt>
      <trkpt lat="58.70719699189067" lon="12.449559979140759">
        <ele>53.29</ele>
        <time>2025-02-04T20:17:25.083Z</time>
      </trkpt>
      <trkpt lat="58.70715298689902" lon="12.449509939178824">
        <ele>53.34</ele>
        <time>2025-02-04T20:17:45.621Z</time>
      </trkpt>
      <trkpt lat="58.70709892362356" lon="12.449474986642599">
        <ele>53.4</ele>
        <time>2025-02-04T20:18:06.160Z</time>
      </trkpt>
      <trkpt lat="58.707038993015885" lon="12.449448918923736">
        <ele>53.45</ele>
        <time>2025-02-04T20:18:26.700Z</time>
      </trkpt>
      <trkpt lat="58.706974955275655" lon="12.449422935023904">
        <ele>53.51</ele>
        <time>2025-02-04T20:18:47.241Z</time>
      </trkpt>
      <trkpt lat="58.706908989697695" lon="12.44939192198217">
        <ele>53.57</ele>
        <time>2025-02-04T20:19:07.783Z</time>
      </trkpt>
      <trkpt lat="58.70684092864394" lon="12.449356969445944">
        <ele>53.63</ele>
        <time>2025-02-04T20:19:28.326Z</time>
      </trkpt>
      <trkpt lat="58.70676993392408" lon="12.449320927262306">
        <ele>53.69</ele>
        <time>2025-02-04T20:19:48.870Z</time>
      </trkpt>
      <trkpt lat="58.706695921719074" lon="12.44928396306932">
        <ele>53.75</ele>
        <time>2025-02-04T20:20:09.416Z</time>
      </trkpt>
      <trkpt lat="58.70661998167634" lon="12.449252950027585">
        <ele>53.81</ele>
        <time>2025-02-04T20:20:29.963Z</time>
      </trkpt>
      <trkpt lat="58.70654094032943" lon="12.44922093115747">
        <ele>53.87</ele>
        <time>2025-02-04T20:20:50.511Z</time>
      </trkpt>
      <trkpt lat="58.70646198280156" lon="12.449184972792864">
        <ele>53.92</ele>
        <time>2025-02-04T20:21:11.061Z</time>
      </trkpt>
      <trkpt lat="58.70638294145465" lon="12.449150942265987">
        <ele>53.98</ele>
        <time>2025-02-04T20:21:31.612Z</time>
      </trkpt>
      <trkpt lat="58.70630691759288" lon="12.449122946709394">
        <ele>54.03</ele>
        <time>2025-02-04T20:21:52.164Z</time>
      </trkpt>
      <trkpt lat="58.70623298920691" lon="12.449094951152802">
        <ele>54.09</ele>
        <time>2025-02-04T20:22:12.717Z</time>
      </trkpt>
      <trkpt lat="58.70616199448705" lon="12.44906796142459">
        <ele>54.14</ele>
        <time>2025-02-04T20:22:33.271Z</time>
      </trkpt>
      <trkpt lat="58.706093933433294" lon="12.449039965867996">
        <ele>54.2</ele>
        <time>2025-02-04T20:22:53.827Z</time>
      </trkpt>
      <trkpt lat="58.706027967855334" lon="12.449012976139784">
        <ele>54.26</ele>
        <time>2025-02-04T20:23:14.384Z</time>
      </trkpt>
      <trkpt lat="58.705963930115104" lon="12.448986992239952">
        <ele>54.32</ele>
        <time>2025-02-04T20:23:34.942Z</time>
      </trkpt>
      <trkpt lat="58.705900982022285" lon="12.44895899668336">
        <ele>54.38</ele>
        <time>2025-02-04T20:23:55.501Z</time>
      </trkpt>
      <trkpt lat="58.705836944282055" lon="12.448929995298386">
        <ele>54.44</ele>
        <time>2025-02-04T20:24:16.061Z</time>
      </trkpt>
      <trkpt lat="58.705771984532475" lon="12.448900993913412">
        <ele>54.51</ele>
        <time>2025-02-04T20:24:36.622Z</time>
      </trkpt>
      <trkpt lat="58.705705935135484" lon="12.448869980871677">
        <ele>54.57</ele>
        <time>2025-02-04T20:24:57.184Z</time>
      </trkpt>
      <trkpt lat="58.705639969557524" lon="12.448835950344801">
        <ele>54.63</ele>
        <time>2025-02-04T20:25:17.747Z</time>
      </trkpt>
      <trkpt lat="58.70557098649442" lon="12.448802925646305">
        <ele>54.69</ele>
        <time>2025-02-04T20:25:38.311Z</time>
      </trkpt>
      <trkpt lat="58.70550191961229" lon="12.448770990595222">
        <ele>54.76</ele>
        <time>2025-02-04T20:25:58.876Z</time>
      </trkpt>
      <trkpt lat="58.705429919064045" lon="12.448736960068345">
        <ele>54.82</ele>
        <time>2025-02-04T20:26:19.443Z</time>
      </trkpt>
      <trkpt lat="58.70535699650645" lon="12.448702929541469">
        <ele>54.89</ele>
        <time>2025-02-04T20:26:40.011Z</time>
      </trkpt>
      <trkpt lat="58.70528197847307" lon="12.448667977005243">
        <ele>54.96</ele>
        <time>2025-02-04T20:27:00.580Z</time>
      </trkpt>
      <trkpt lat="58.70520494878292" lon="12.448634952306747">
        <ele>55.03</ele>
        <time>2025-02-04T20:27:21.150Z</time>
      </trkpt>
      <trkpt lat="58.705126997083426" lon="12.448602933436632">
        <ele>55.09</ele>
        <time>2025-02-04T20:27:41.722Z</time>
      </trkpt>
      <trkpt lat="58.70504694990814" lon="12.448573932051659">
        <ele>55.16</ele>
        <time>2025-02-04T20:28:02.295Z</time>
      </trkpt>
      <trkpt lat="58.70496799238026" lon="12.448544930666685">
        <ele>55.22</ele>
        <time>2025-02-04T20:28:22.869Z</time>
      </trkpt>
      <trkpt lat="58.70488794520497" lon="12.44851098395884">
        <ele>55.29</ele>
        <time>2025-02-04T20:28:43.444Z</time>
      </trkpt>
      <trkpt lat="58.70480798184872" lon="12.44847091846168">
        <ele>55.35</ele>
        <time>2025-02-04T20:29:04.021Z</time>
      </trkpt>
      <trkpt lat="58.70472793467343" lon="12.448428925126791">
        <ele>55.42</ele>
        <time>2025-02-04T20:29:24.599Z</time>
      </trkpt>
      <trkpt lat="58.70464696548879" lon="12.448389949277043">
        <ele>55.48</ele>
        <time>2025-02-04T20:29:45.178Z</time>
      </trkpt>
      <trkpt lat="58.704564990475774" lon="12.448353990912437">
        <ele>55.54</ele>
        <time>2025-02-04T20:30:05.759Z</time>
      </trkpt>
      <trkpt lat="58.704481925815344" lon="12.448323983699083">
        <ele>55.6</ele>
        <time>2025-02-04T20:30:26.341Z</time>
      </trkpt>
      <trkpt lat="58.704399950802326" lon="12.448289953172207">
        <ele>55.67</ele>
        <time>2025-02-04T20:30:46.924Z</time>
      </trkpt>
      <trkpt lat="58.70431898161769" lon="12.44825491681695">
        <ele>55.74</ele>
        <time>2025-02-04T20:31:07.509Z</time>
      </trkpt>
      <trkpt lat="58.7042389344424" lon="12.448217952623963">
        <ele>55.8</ele>
        <time>2025-02-04T20:31:28.095Z</time>
      </trkpt>
      <trkpt lat="58.704158971086144" lon="12.448181994259357">
        <ele>55.87</ele>
        <time>2025-02-04T20:31:48.682Z</time>
      </trkpt>
      <trkpt lat="58.70407992973924" lon="12.448148969560862">
        <ele>55.94</ele>
        <time>2025-02-04T20:32:09.271Z</time>
      </trkpt>
      <trkpt lat="58.70400298386812" lon="12.448113933205605">
        <ele>56.0</ele>
        <time>2025-02-04T20:32:29.861Z</time>
      </trkpt>
      <trkpt lat="58.703924948349595" lon="12.448081998154521">
        <ele>56.07</ele>
        <time>2025-02-04T20:32:50.452Z</time>
      </trkpt>
      <trkpt lat="58.70384892448783" lon="12.448048973456025">
        <ele>56.14</ele>
        <time>2025-02-04T20:33:11.045Z</time>
      </trkpt>
      <trkpt lat="58.703774996101856" lon="12.44801594875753">
        <ele>56.2</ele>
        <time>2025-02-04T20:33:31.639Z</time>
      </trkpt>
      <trkpt lat="58.70370198972523" lon="12.447984935715795">
        <ele>56.27</ele>
        <time>2025-02-04T20:33:52.234Z</time>
      </trkpt>
      <trkpt lat="58.70362998917699" lon="12.447956940159202">
        <ele>56.34</ele>
        <time>2025-02-04T20:34:12.830Z</time>
      </trkpt>
      <trkpt lat="58.703557988628745" lon="12.447933973744512">
        <ele>56.41</ele>
        <time>2025-02-04T20:34:33.427Z</time>
      </trkpt>
      <trkpt lat="58.7034859880805" lon="12.44790991768241">
        <ele>56.48</ele>
        <time>2025-02-04T20:34:54.025Z</time>
      </trkpt>
      <trkpt lat="58.70341398753226" lon="12.447889968752861">
        <ele>56.55</ele>
        <time>2025-02-04T20:35:14.625Z</time>
      </trkpt>
      <trkpt lat="58.703343998640776" lon="12.447870941832662">
        <ele>56.62</ele>
        <time>2025-02-04T20:35:35.226Z</time>
      </trkpt>
      <trkpt lat="58.70327593758702" lon="12.447850992903113">
        <ele>56.69</ele>
        <time>2025-02-04T20:35:55.828Z</time>
      </trkpt>
      <trkpt lat="58.703211983665824" lon="12.447830960154533">
        <ele>56.76</ele>
        <time>2025-02-04T20:36:16.431Z</time>
      </trkpt>
      <trkpt lat="58.703151969239116" lon="12.447810927405953">
        <ele>56.83</ele>
        <time>2025-02-04T20:36:37.035Z</time>
      </trkpt>
      <trkpt lat="58.70309396646917" lon="12.447792990133166">
        <ele>56.9</ele>
        <time>2025-02-04T20:36:57.640Z</time>
      </trkpt>
      <trkpt lat="58.703039987012744" lon="12.447775974869728">
        <ele>56.97</ele>
        <time>2025-02-04T20:37:18.246Z</time>
      </trkpt>
      <trkpt lat="58.70298994705081" lon="12.447754936292768">
        <ele>57.04</ele>
        <time>2025-02-04T20:37:38.853Z</time>
      </trkpt>
      <trkpt lat="58.70294493623078" lon="12.44773498736322">
        <ele>57.11</ele>
        <time>2025-02-04T20:37:59.460Z</time>
      </trkpt>
      <trkpt lat="58.70290495455265" lon="12.447717972099781">
        <ele>57.18</ele>
        <time>2025-02-04T20:38:20.068Z</time>
      </trkpt>
      <trkpt lat="58.702868996188045" lon="12.447699951007962">
        <ele>57.25</ele>
        <time>2025-02-04T20:38:40.677Z</time>
      </trkpt>
      <trkpt lat="58.70283798314631" lon="12.447678996250033">
        <ele>57.32</ele>
        <time>2025-02-04T20:39:01.286Z</time>
      </trkpt>
      <trkpt lat="58.70281199924648" lon="12.44765192270279">
        <ele>57.39</ele>
        <time>2025-02-04T20:39:21.896Z</time>
      </trkpt>
      <trkpt lat="58.7027919664979" lon="12.447622921317816">
        <ele>57.45</ele>
        <time>2025-02-04T20:39:42.506Z</time>
      </trkpt>
      <trkpt lat="58.70277696289122" lon="12.447594925761223">
        <ele>57.52</ele>
        <time>2025-02-04T20:40:03.116Z</time>
      </trkpt>
      <trkpt lat="58.70276799425483" lon="12.447569947689772">
        <ele>57.58</ele>
        <time>2025-02-04T20:40:23.727Z</time>
      </trkpt>
      <trkpt lat="58.702762965112925" lon="12.447550920769572">
        <ele>57.65</ele>
        <time>2025-02-04T20:40:44.338Z</time>
      </trkpt>
      <trkpt lat="58.70275994762778" lon="12.447541952133179">
        <ele>57.71</ele>
        <time>2025-02-04T20:41:04.949Z</time>
      </trkpt>
      <trkpt lat="58.70275793597102" lon="12.447540946304798">
        <ele>57.78</ele>
        <time>2025-02-04T20:41:25.560Z</time>
      </trkpt>
      <trkpt lat="58.70270797982812" lon="12.44750096462667">
        <ele>57.85</ele>
        <time>2025-02-04T20:41:46.172Z</time>
      </trkpt>
      <trkpt lat="58.702696999534965" lon="12.447521919384599">
        <ele>57.91</ele>
        <time>2025-02-04T20:42:06.784Z</time>
      </trkpt>
      <trkpt lat="58.70268694125116" lon="12.447552932426333">
        <ele>57.97</ele>
        <time>2025-02-04T20:42:27.396Z</time>
      </trkpt>
      <trkpt lat="58.702675960958004" lon="12.447591992095113">
        <ele>58.04</ele>
        <time>2025-02-04T20:42:48.009Z</time>
      </trkpt>
      <trkpt lat="58.70266598649323" lon="12.447638930752873">
        <ele>58.1</ele>
        <time>2025-02-04T20:43:08.622Z</time>
      </trkpt>
      <trkpt lat="58.702658945694566" lon="12.44769198819995">
        <ele>58.16</ele>
        <time>2025-02-04T20:43:29.236Z</time>
      </trkpt>
      <trkpt lat="58.702652994543314" lon="12.447752924636006">
        <ele>58.21</ele>
        <time>2025-02-04T20:43:49.850Z</time>
      </trkpt>
      <trkpt lat="58.70264695957303" lon="12.44782199151814">
        <ele>58.27</ele>
        <time>2025-02-04T20:44:10.465Z</time>
      </trkpt>
      <trkpt lat="58.70264092460275" lon="12.447898937389255">
        <ele>58.33</ele>
        <time>2025-02-04T20:44:31.080Z</time>
      </trkpt>
      <trkpt lat="58.702635979279876" lon="12.447984935715795">
        <ele>58.39</ele>
        <time>2025-02-04T20:44:51.696Z</time>
      </trkpt>
      <trkpt lat="58.70263095013797" lon="12.44808099232614">
        <ele>58.44</ele>
        <time>2025-02-04T20:45:12.313Z</time>
      </trkpt>
      <trkpt lat="58.70262499898672" lon="12.448184927925467">
        <ele>58.49</ele>
        <time>2025-02-04T20:45:32.931Z</time>
      </trkpt>
      <trkpt lat="58.70261896401644" lon="12.44829598814249">
        <ele>58.54</ele>
        <time>2025-02-04T20:45:53.550Z</time>
      </trkpt>
      <trkpt lat="58.702612929046154" lon="12.448411993682384">
        <ele>58.6</ele>
        <time>2025-02-04T20:46:14.170Z</time>
      </trkpt>
      <trkpt lat="58.7026069778949" lon="12.448529927060008">
        <ele>58.65</ele>
        <time>2025-02-04T20:46:34.791Z</time>
      </trkpt>
      <trkpt lat="58.702601948753" lon="12.448649955913424">
        <ele>58.7</ele>
        <time>2025-02-04T20:46:55.413Z</time>
      </trkpt>
      <trkpt lat="58.702596919611096" lon="12.448771996423602">
        <ele>58.76</ele>
        <time>2025-02-04T20:47:16.036Z</time>
      </trkpt>
      <trkpt lat="58.702591974288225" lon="12.44889697059989">
        <ele>58.82</ele>
        <time>2025-02-04T20:47:36.660Z</time>
      </trkpt>
      <trkpt lat="58.70258694514632" lon="12.449023956432939">
        <ele>58.88</ele>
        <time>2025-02-04T20:47:57.285Z</time>
      </trkpt>
      <trkpt lat="58.7025829218328" lon="12.44915597140789">
        <ele>58.93</ele>
        <time>2025-02-04T20:48:17.911Z</time>
      </trkpt>
      <trkpt lat="58.70257998816669" lon="12.449294943362474">
        <ele>58.99</ele>
        <time>2025-02-04T20:48:38.538Z</time>
      </trkpt>
      <trkpt lat="58.70257797650993" lon="12.449441961944103">
        <ele>59.04</ele>
        <time>2025-02-04T20:48:59.166Z</time>
      </trkpt>
      <trkpt lat="58.70257697068155" lon="12.449592920020223">
        <ele>59.1</ele>
        <time>2025-02-04T20:49:19.795Z</time>
      </trkpt>
      <trkpt lat="58.70257697068155" lon="12.449743961915374">
        <ele>59.16</ele>
        <time>2025-02-04T20:49:40.426Z</time>
      </trkpt>
      <trkpt lat="58.70257596485317" lon="12.449896931648254">
        <ele>59.21</ele>
        <time>2025-02-04T20:50:01.058Z</time>
      </trkpt>
      <trkpt lat="58.70257495902479" lon="12.450045961886644">
        <ele>59.27</ele>
        <time>2025-02-04T20:50:21.691Z</time>
      </trkpt>
      <trkpt lat="58.702572947368026" lon="12.450192980468273">
        <ele>59.32</ele>
        <time>2025-02-04T20:50:42.325Z</time>
      </trkpt>
      <trkpt lat="58.702570935711265" lon="12.45033798739314">
        <ele>59.37</ele>
        <time>2025-02-04T20:51:02.961Z</time>
      </trkpt>
      <trkpt lat="58.7025689240545" lon="12.450479976832867">
        <ele>59.43</ele>
        <time>2025-02-04T20:51:23.598Z</time>
      </trkpt>
      <trkpt lat="58.702566996216774" lon="12.450619954615831">
        <ele>59.48</ele>
        <time>2025-02-04T20:51:44.236Z</time>
      </trkpt>
      <trkpt lat="58.702566996216774" lon="12.450760938227177">
        <ele>59.53</ele>
        <time>2025-02-04T20:52:04.875Z</time>
      </trkpt>
      <trkpt lat="58.702566996216774" lon="12.450900999829173">
        <ele>59.59</ele>
        <time>2025-02-04T20:52:25.515Z</time>
      </trkpt>
      <trkpt lat="58.702566996216774" lon="12.451037960126996">
        <ele>59.64</ele>
        <time>2025-02-04T20:52:46.157Z</time>
      </trkpt>
      <trkpt lat="58.70256791822612" lon="12.451171986758709">
        <ele>59.69</ele>
        <time>2025-02-04T20:53:06.800Z</time>
      </trkpt>
      <trkpt lat="58.70256599038839" lon="12.451303917914629">
        <ele>59.74</ele>
        <time>2025-02-04T20:53:27.444Z</time>
      </trkpt>
      <trkpt lat="58.70255299843848" lon="12.451427970081568">
        <ele>59.79</ele>
        <time>2025-02-04T20:53:48.089Z</time>
      </trkpt>
      <trkpt lat="58.702523997053504" lon="12.45153995230794">
        <ele>59.84</ele>
        <time>2025-02-04T20:54:08.735Z</time>
      </trkpt>
      <trkpt lat="58.70247999206185" lon="12.451632991433144">
        <ele>59.88</ele>
        <time>2025-02-04T20:54:29.382Z</time>
      </trkpt>
      <trkpt lat="58.702418971806765" lon="12.451697951182723">
        <ele>59.94</ele>
        <time>2025-02-04T20:54:50.030Z</time>
      </trkpt>
      <trkpt lat="58.7023479770869" lon="12.451721923425794">
        <ele>59.99</ele>
        <time>2025-02-04T20:55:10.679Z</time>
      </trkpt>
      <trkpt lat="58.702271953225136" lon="12.45171194896102">
        <ele>60.04</ele>
        <time>2025-02-04T20:55:31.329Z</time>
      </trkpt>
      <trkpt lat="58.70219592936337" lon="12.45169292204082">
        <ele>60.09</ele>
        <time>2025-02-04T20:55:51.981Z</time>
      </trkpt>
      <trkpt lat="58.702117977663875" lon="12.451671967282891">
        <ele>60.14</ele>
        <time>2025-02-04T20:56:12.634Z</time>
      </trkpt>
      <trkpt lat="58.70204195380211" lon="12.45164891704917">
        <ele>60.19</ele>
        <time>2025-02-04T20:56:33.288Z</time>
      </trkpt>
      <trkpt lat="58.70196492411196" lon="12.451621927320957">
        <ele>60.24</ele>
        <time>2025-02-04T20:56:53.943Z</time>
      </trkpt>
      <trkpt lat="58.70189099572599" lon="12.451594937592745">
        <ele>60.29</ele>
        <time>2025-02-04T20:57:14.600Z</time>
      </trkpt>
      <trkpt lat="58.701818995177746" lon="12.451567947864532">
        <ele>60.33</ele>
        <time>2025-02-04T20:57:35.258Z</time>
      </trkpt>
      <trkpt lat="58.7017469946295" lon="12.451543975621462">
        <ele>60.38</ele>
        <time>2025-02-04T20:57:55.917Z</time>
      </trkpt>
      <trkpt lat="58.70167692191899" lon="12.45152092538774">
        <ele>60.43</ele>
        <time>2025-02-04T20:58:16.577Z</time>
      </trkpt>
      <trkpt lat="58.701606933027506" lon="12.451495947316289">
        <ele>60.47</ele>
        <time>2025-02-04T20:58:37.238Z</time>
      </trkpt>
      <trkpt lat="58.701540967449546" lon="12.451471975073218">
        <ele>60.51</ele>
        <time>2025-02-04T20:58:57.900Z</time>
      </trkpt>
      <trkpt lat="58.701475923880935" lon="12.451449930667877">
        <ele>60.56</ele>
        <time>2025-02-04T20:59:18.563Z</time>
      </trkpt>
      <trkpt lat="58.70141297578812" lon="12.451425958424807">
        <ele>60.6</ele>
        <time>2025-02-04T20:59:39.227Z</time>
      </trkpt>
      <trkpt lat="58.70135597884655" lon="12.451396957039833">
        <ele>60.64</ele>
        <time>2025-02-04T20:59:59.892Z</time>
      </trkpt>
      <trkpt lat="58.701301999390125" lon="12.451366949826479">
        <ele>60.68</ele>
        <time>2025-02-04T21:00:20.558Z</time>
      </trkpt>
      <trkpt lat="58.70124894194305" lon="12.451338954269886">
        <ele>60.72</ele>
        <time>2025-02-04T21:00:41.225Z</time>
      </trkpt>
      <trkpt lat="58.70119898580015" lon="12.45130693539977">
        <ele>60.76</ele>
        <time>2025-02-04T21:01:01.893Z</time>
      </trkpt>
      <trkpt lat="58.70114894583821" lon="12.451274916529655">
        <ele>60.8</ele>
        <time>2025-02-04T21:01:22.562Z</time>
      </trkpt>
      <trkpt lat="58.70109999552369" lon="12.451244993135333">
        <ele>60.83</ele>
        <time>2025-02-04T21:01:43.232Z</time>
      </trkpt>
      <trkpt lat="58.7010529730469" lon="12.451214985921979">
        <ele>60.86</ele>
        <time>2025-02-04T21:02:03.902Z</time>
      </trkpt>
      <trkpt lat="58.701002933084965" lon="12.451180955395103">
        <ele>60.89</ele>
        <time>2025-02-04T21:02:24.573Z</time>
      </trkpt>
      <trkpt lat="58.70095398277044" lon="12.451141979545355">
        <ele>60.92</ele>
        <time>2025-02-04T21:02:45.245Z</time>
      </trkpt>
      <trkpt lat="58.70090494863689" lon="12.451099986210465">
        <ele>60.95</ele>
        <time>2025-02-04T21:03:05.918Z</time>
      </trkpt>
      <trkpt lat="58.70085692033172" lon="12.451052963733673">
        <ele>60.98</ele>
        <time>2025-02-04T21:03:26.592Z</time>
      </trkpt>
      <trkpt lat="58.700809981673956" lon="12.4510049354285">
        <ele>61.0</ele>
        <time>2025-02-04T21:03:47.267Z</time>
      </trkpt>
      <trkpt lat="58.700764970853925" lon="12.45095799677074">
        <ele>61.02</ele>
        <time>2025-02-04T21:04:07.942Z</time>
      </trkpt>
      <trkpt lat="58.700720965862274" lon="12.450907956808805">
        <ele>61.04</ele>
        <time>2025-02-04T21:04:28.618Z</time>
      </trkpt>
      <trkpt lat="58.700677966699004" lon="12.45085397735238">
        <ele>61.06</ele>
        <time>2025-02-04T21:04:49.295Z</time>
      </trkpt>
      <trkpt lat="58.70063195005059" lon="12.450801925733685">
        <ele>61.08</ele>
        <time>2025-02-04T21:05:09.973Z</time>
      </trkpt>
      <trkpt lat="58.7005849275738" lon="12.450751969590783">
        <ele>61.09</ele>
        <time>2025-02-04T21:05:30.652Z</time>
      </trkpt>
      <trkpt lat="58.70053597725928" lon="12.450699917972088">
        <ele>61.1</ele>
        <time>2025-02-04T21:05:51.332Z</time>
      </trkpt>
      <trkpt lat="58.700487948954105" lon="12.450643926858902">
        <ele>61.11</ele>
        <time>2025-02-04T21:06:12.013Z</time>
      </trkpt>
      <trkpt lat="58.7004379928112" lon="12.450582990422845">
        <ele>61.12</ele>
        <time>2025-02-04T21:06:32.695Z</time>
      </trkpt>
      <trkpt lat="58.70038493536413" lon="12.450521970167756">
        <ele>61.12</ele>
        <time>2025-02-04T21:06:53.378Z</time>
      </trkpt>
      <trkpt lat="58.70032995007932" lon="12.450461955741048">
        <ele>61.12</ele>
        <time>2025-02-04T21:07:14.062Z</time>
      </trkpt>
      <trkpt lat="58.700270941480994" lon="12.450399929657578">
        <ele>61.12</ele>
        <time>2025-02-04T21:07:34.747Z</time>
      </trkpt>
      <trkpt lat="58.700209921225905" lon="12.45033597573638">
        <ele>61.12</ele>
        <time>2025-02-04T21:07:55.433Z</time>
      </trkpt>
      <trkpt lat="58.70014797896147" lon="12.450266992673278">
        <ele>61.11</ele>
        <time>2025-02-04T21:08:16.120Z</time>
      </trkpt>
      <trkpt lat="58.700085952878" lon="12.450195997953415">
        <ele>61.11</ele>
        <time>2025-02-04T21:08:36.808Z</time>
      </trkpt>
      <trkpt lat="58.70001998730004" lon="12.45012491941452">
        <ele>61.11</ele>
        <time>2025-02-04T21:08:57.497Z</time>
      </trkpt>
      <trkpt lat="58.699950920417905" lon="12.450050991028547">
        <ele>61.1</ele>
        <time>2025-02-04T21:09:18.188Z</time>
      </trkpt>
      <trkpt lat="58.69987992569804" lon="12.449974967166781">
        <ele>61.1</ele>
        <time>2025-02-04T21:09:38.880Z</time>
      </trkpt>
      <trkpt lat="58.69980893097818" lon="12.449894919991493">
        <ele>61.09</ele>
        <time>2025-02-04T21:09:59.573Z</time>
      </trkpt>
      <trkpt lat="58.699735924601555" lon="12.449810933321714">
        <ele>61.08</ele>
        <time>2025-02-04T21:10:20.268Z</time>
      </trkpt>
      <trkpt lat="58.6996609903872" lon="12.449728958308697">
        <ele>61.07</ele>
        <time>2025-02-04T21:10:40.964Z</time>
      </trkpt>
      <trkpt lat="58.6995869781822" lon="12.44964899495244">
        <ele>61.06</ele>
        <time>2025-02-04T21:11:01.661Z</time>
      </trkpt>
      <trkpt lat="58.69950994849205" lon="12.449567941948771">
        <ele>61.04</ele>
        <time>2025-02-04T21:11:22.360Z</time>
      </trkpt>
      <trkpt lat="58.699431996792555" lon="12.449484961107373">
        <ele>61.02</ele>
        <time>2025-02-04T21:11:43.060Z</time>
      </trkpt>
      <trkpt lat="58.69935396127403" lon="12.449402986094356">
        <ele>61.01</ele>
        <time>2025-02-04T21:12:03.762Z</time>
      </trkpt>
      <trkpt lat="58.6992759257555" lon="12.449321933090687">
        <ele>60.99</ele>
        <time>2025-02-04T21:12:24.465Z</time>
      </trkpt>
      <trkpt lat="58.69919998571277" lon="12.449237946420908">
        <ele>60.97</ele>
        <time>2025-02-04T21:12:45.169Z</time>
      </trkpt>
      <trkpt lat="58.699123961851" lon="12.44915496557951">
        <ele>60.94</ele>
        <time>2025-02-04T21:13:05.875Z</time>
      </trkpt>
      <trkpt lat="58.699048943817616" lon="12.449071984738111">
        <ele>60.92</ele>
        <time>2025-02-04T21:13:26.582Z</time>
      </trkpt>
      <trkpt lat="58.69897392578423" lon="12.448989925906062">
        <ele>60.9</ele>
        <time>2025-02-04T21:13:47.291Z</time>
      </trkpt>
      <trkpt lat="58.69889899156988" lon="12.448909962549806">
        <ele>60.87</ele>
        <time>2025-02-04T21:14:08.001Z</time>
      </trkpt>
      <trkpt lat="58.69882296770811" lon="12.448831927031279">
        <ele>60.85</ele>
        <time>2025-02-04T21:14:28.712Z</time>
      </trkpt>
      <trkpt lat="58.69874996133149" lon="12.448753975331783">
        <ele>60.83</ele>
        <time>2025-02-04T21:14:49.425Z</time>
      </trkpt>
      <trkpt lat="58.698678966611624" lon="12.448675939813256">
        <ele>60.81</ele>
        <time>2025-02-04T21:15:10.139Z</time>
      </trkpt>
      <trkpt lat="58.69860998354852" lon="12.448598993942142">
        <ele>60.78</ele>
        <time>2025-02-04T21:15:30.854Z</time>
      </trkpt>
      <trkpt lat="58.69854091666639" lon="12.448520958423615">
        <ele>60.76</ele>
        <time>2025-02-04T21:15:51.571Z</time>
      </trkpt>
      <trkpt lat="58.69847193360329" lon="12.44844694621861">
        <ele>60.73</ele>
        <time>2025-02-04T21:16:12.289Z</time>
      </trkpt>
      <trkpt lat="58.69840898551047" lon="12.448375951498747">
        <ele>60.7</ele>
        <time>2025-02-04T21:16:33.008Z</time>
      </trkpt>
      <trkpt lat="58.69834997691214" lon="12.448313925415277">
        <ele>60.67</ele>
        <time>2025-02-04T21:16:53.728Z</time>
      </trkpt>
      <trkpt lat="58.69830094277859" lon="12.448249971494079">
        <ele>60.64</ele>
        <time>2025-02-04T21:17:14.449Z</time>
      </trkpt>
      <trkpt lat="58.6982639785856" lon="12.448175959289074">
        <ele>60.6</ele>
        <time>2025-02-04T21:17:35.171Z</time>
      </trkpt>
      <trkpt lat="58.69823799468577" lon="12.448093984276056">
        <ele>60.57</ele>
        <time>2025-02-04T21:17:55.894Z</time>
      </trkpt>
      <trkpt lat="58.69821896776557" lon="12.448005974292755">
        <ele>60.54</ele>
        <time>2025-02-04T21:18:16.617Z</time>
      </trkpt>
      <trkpt lat="58.69820094667375" lon="12.447919975966215">
        <ele>60.5</ele>
        <time>2025-02-04T21:18:37.341Z</time>
      </trkpt>
      <trkpt lat="58.698186948895454" lon="12.447835989296436">
        <ele>60.47</ele>
        <time>2025-02-04T21:18:58.066Z</time>
      </trkpt>
      <trkpt lat="58.69817295111716" lon="12.44775795377791">
        <ele>60.43</ele>
        <time>2025-02-04T21:19:18.792Z</time>
      </trkpt>
      <trkpt lat="58.698163982480764" lon="12.44769299402833">
        <ele>60.4</ele>
        <time>2025-02-04T21:19:39.518Z</time>
      </trkpt>
      <trkpt lat="58.69815493002534" lon="12.44764999486506">
        <ele>60.36</ele>
        <time>2025-02-04T21:20:00.245Z</time>
      </trkpt>
      <trkpt lat="58.69814998470247" lon="12.447611941024661">
        <ele>60.32</ele>
        <time>2025-02-04T21:20:20.972Z</time>
      </trkpt>
      <trkpt lat="58.69814797304571" lon="12.447582939639688">
        <ele>60.28</ele>
        <time>2025-02-04T21:20:41.699Z</time>
      </trkpt>
      <trkpt lat="58.698142943903804" lon="12.44756299071014">
        <ele>60.25</ele>
        <time>2025-02-04T21:21:02.426Z</time>
      </trkpt>
      <trkpt lat="58.69814093224704" lon="12.447551926597953">
        <ele>60.21</ele>
        <time>2025-02-04T21:21:23.153Z</time>
      </trkpt>
      <trkpt lat="58.69813892059028" lon="12.447541952133179">
        <ele>60.17</ele>
        <time>2025-02-04T21:21:43.881Z</time>
      </trkpt>
      <trkpt lat="58.6980689316988" lon="12.447485961019993">
        <ele>60.13</ele>
        <time>2025-02-04T21:22:04.610Z</time>
      </trkpt>
      <trkpt lat="58.69805292226374" lon="12.44750197045505">
        <ele>60.09</ele>
        <time>2025-02-04T21:22:25.339Z</time>
      </trkpt>
      <trkpt lat="58.69803196750581" lon="12.44752292521298">
        <ele>60.05</ele>
        <time>2025-02-04T21:22:46.068Z</time>
      </trkpt>
      <trkpt lat="58.69800799526274" lon="12.447548992931843">
        <ele>60.01</ele>
        <time>2025-02-04T21:23:06.798Z</time>
      </trkpt>
      <trkpt lat="58.697974970564246" lon="12.447572965174913">
        <ele>59.97</ele>
        <time>2025-02-04T21:23:27.528Z</time>
      </trkpt>
      <trkpt lat="58.69793498888612" lon="12.447584951296449">
        <ele>59.93</ele>
        <time>2025-02-04T21:23:48.259Z</time>
      </trkpt>
      <trkpt lat="58.697886960580945" lon="12.447589980438352">
        <ele>59.89</ele>
        <time>2025-02-04T21:24:08.991Z</time>
      </trkpt>
      <trkpt lat="58.69783499278128" lon="12.447580927982926">
        <ele>59.85</ele>
        <time>2025-02-04T21:24:29.724Z</time>
      </trkpt>
      <trkpt lat="58.697777995839715" lon="12.447548992931843">
        <ele>59.81</ele>
        <time>2025-02-04T21:24:50.458Z</time>
      </trkpt>
      <trkpt lat="58.69771999306977" lon="12.44750197045505">
        <ele>59.77</ele>
        <time>2025-02-04T21:25:11.193Z</time>
      </trkpt>
      <trkpt lat="58.6976629961282" lon="12.447454947978258">
        <ele>59.72</ele>
        <time>2025-02-04T21:25:31.929Z</time>
      </trkpt>
      <trkpt lat="58.69760097004473" lon="12.447412954643369">
        <ele>59.68</ele>
        <time>2025-02-04T21:25:52.666Z</time>
      </trkpt>
      <trkpt lat="58.69753793813288" lon="12.447377918288112">
        <ele>59.64</ele>
        <time>2025-02-04T21:26:13.404Z</time>
      </trkpt>
      <trkpt lat="58.697474990040064" lon="12.447340954095125">
        <ele>59.59</ele>
        <time>2025-02-04T21:26:34.143Z</time>
      </trkpt>
      <trkpt lat="58.69741095229983" lon="12.447300972416997">
        <ele>59.55</ele>
        <time>2025-02-04T21:26:54.883Z</time>
      </trkpt>
      <trkpt lat="58.69734498672187" lon="12.44726199656725">
        <ele>59.51</ele>
        <time>2025-02-04T21:27:15.624Z</time>
      </trkpt>
      <trkpt lat="58.69728195481002" lon="12.447209944948554">
        <ele>59.46</ele>
        <time>2025-02-04T21:27:36.366Z</time>
      </trkpt>
      <trkpt lat="58.69722596369684" lon="12.44713299907744">
        <ele>59.42</ele>
        <time>2025-02-04T21:27:57.109Z</time>
      </trkpt>
      <trkpt lat="58.697180952876806" lon="12.447034930810332">
        <ele>59.38</ele>
        <time>2025-02-04T21:28:17.853Z</time>
      </trkpt>
      <trkpt lat="58.697136947885156" lon="12.446936946362257">
        <ele>59.33</ele>
        <time>2025-02-04T21:28:38.598Z</time>
      </trkpt>
      <trkpt lat="58.69708397425711" lon="12.446858994662762">
        <ele>59.29</ele>
        <time>2025-02-04T21:28:59.344Z</time>
      </trkpt>
      <trkpt lat="58.69702194817364" lon="12.446825969964266">
        <ele>59.25</ele>
        <time>2025-02-04T21:29:20.092Z</time>
      </trkpt>
      <trkpt lat="58.69695799425244" lon="12.446871986612678">
        <ele>59.21</ele>
        <time>2025-02-04T21:29:40.841Z</time>
      </trkpt>
      <trkpt lat="58.6969169229269" lon="12.446975922212005">
        <ele>59.17</ele>
        <time>2025-02-04T21:30:01.591Z</time>
      </trkpt>
      <trkpt lat="58.69690493680537" lon="12.447099974378943">
        <ele>59.13</ele>
        <time>2025-02-04T21:30:22.342Z</time>
      </trkpt>
      <trkpt lat="58.69690099731088" lon="12.447224948555231">
        <ele>59.09</ele>
        <time>2025-02-04T21:30:43.094Z</time>
      </trkpt>
      <trkpt lat="58.696896973997355" lon="12.447353946045041">
        <ele>59.05</ele>
        <time>2025-02-04T21:31:03.847Z</time>
      </trkpt>
      <trkpt lat="58.69689295068383" lon="12.44748093187809">
        <ele>59.01</ele>
        <time>2025-02-04T21:31:24.601Z</time>
      </trkpt>
      <trkpt lat="58.6968859937042" lon="12.447611941024661">
        <ele>58.97</ele>
        <time>2025-02-04T21:31:45.356Z</time>
      </trkpt>
      <trkpt lat="58.696877947077155" lon="12.44773892685771">
        <ele>58.93</ele>
        <time>2025-02-04T21:32:06.112Z</time>
      </trkpt>
      <trkpt lat="58.69687392376363" lon="12.44786499068141">
        <ele>58.89</ele>
        <time>2025-02-04T21:32:26.869Z</time>
      </trkpt>
      <trkpt lat="58.69687099009752" lon="12.447995999827981">
        <ele>58.86</ele>
        <time>2025-02-04T21:32:47.627Z</time>
      </trkpt>
      <trkpt lat="58.69686495512724" lon="12.44812399148941">
        <ele>58.82</ele>
        <time>2025-02-04T21:33:08.386Z</time>
      </trkpt>
      <trkpt lat="58.696852969005704" lon="12.448249971494079">
        <ele>58.79</ele>
        <time>2025-02-04T21:33:29.146Z</time>
      </trkpt>
      <trkpt lat="58.69684299454093" lon="12.448378968983889">
        <ele>58.75</ele>
        <time>2025-02-04T21:33:49.907Z</time>
      </trkpt>
      <trkpt lat="58.696834947913885" lon="12.44851098395884">
        <ele>58.71</ele>
        <time>2025-02-04T21:34:10.670Z</time>
      </trkpt>
      <trkpt lat="58.69682698510587" lon="12.448645932599902">
        <ele>58.68</ele>
        <time>2025-02-04T21:34:31.434Z</time>
      </trkpt>
      <trkpt lat="58.69682095013559" lon="12.448779959231615">
        <ele>58.64</ele>
        <time>2025-02-04T21:34:52.199Z</time>
      </trkpt>
      <trkpt lat="58.696815920993686" lon="12.448917925357819">
        <ele>58.6</ele>
        <time>2025-02-04T21:35:12.965Z</time>
      </trkpt>
      <trkpt lat="58.696811981499195" lon="12.449053963646293">
        <ele>58.57</ele>
        <time>2025-02-04T21:35:33.732Z</time>
      </trkpt>
      <trkpt lat="58.69680896401405" lon="12.449189918115735">
        <ele>58.53</ele>
        <time>2025-02-04T21:35:54.500Z</time>
      </trkpt>
      <trkpt lat="58.696809969842434" lon="12.449328973889351">
        <ele>58.5</ele>
        <time>2025-02-04T21:36:15.269Z</time>
      </trkpt>
      <trkpt lat="58.696811981499195" lon="12.449466940015554">
        <ele>58.47</ele>
        <time>2025-02-04T21:36:36.040Z</time>
      </trkpt>
      <trkpt lat="58.696812987327576" lon="12.44960498996079">
        <ele>58.43</ele>
        <time>2025-02-04T21:36:56.812Z</time>
      </trkpt>
      <trkpt lat="58.696811981499195" lon="12.449739938601851">
        <ele>58.4</ele>
        <time>2025-02-04T21:37:17.585Z</time>
      </trkpt>
      <trkpt lat="58.696811981499195" lon="12.449874971061945">
        <ele>58.37</ele>
        <time>2025-02-04T21:37:38.359Z</time>
      </trkpt>
      <trkpt lat="58.696811981499195" lon="12.450004974380136">
        <ele>58.34</ele>
        <time>2025-02-04T21:37:59.134Z</time>
      </trkpt>
      <trkpt lat="58.696810975670815" lon="12.450132966041565">
        <ele>58.31</ele>
        <time>2025-02-04T21:38:19.910Z</time>
      </trkpt>
      <trkpt lat="58.69680795818567" lon="12.450257940217853">
        <ele>58.28</ele>
        <time>2025-02-04T21:38:40.687Z</time>
      </trkpt>
      <trkpt lat="58.69680695235729" lon="12.45038392022252">
        <ele>58.24</ele>
        <time>2025-02-04T21:39:01.465Z</time>
      </trkpt>
      <trkpt lat="58.69681994430721" lon="12.451632991433144">
        <ele>58.21</ele>
        <time>2025-02-04T21:39:22.254Z</time>
      </trkpt>
      <trkpt lat="58.69681994430721" lon="12.451695939525962">
        <ele>58.18</ele>
        <time>2025-02-04T21:39:43.043Z</time>
      </trkpt>
      <trkpt lat="58.69681994430721" lon="12.451757965609431">
        <ele>58.15</ele>
        <time>2025-02-04T21:40:03.833Z</time>
      </trkpt>
      <trkpt lat="58.69682195596397" lon="12.451882939785719">
        <ele>58.12</ele>
        <time>2025-02-04T21:40:24.624Z</time>
      </trkpt>
      <trkpt lat="58.69682195596397" lon="12.452003974467516">
        <ele>58.09</ele>
        <time>2025-02-04T21:40:45.416Z</time>
      </trkpt>
      <trkpt lat="58.69681994430721" lon="12.452121991664171">
        <ele>58.06</ele>
        <time>2025-02-04T21:41:06.209Z</time>
      </trkpt>
      <trkpt lat="58.69681793265045" lon="12.452235985547304">
        <ele>58.03</ele>
        <time>2025-02-04T21:41:27.003Z</time>
      </trkpt>
      <trkpt lat="58.69681893847883" lon="12.452347967773676">
        <ele>58.0</ele>
        <time>2025-02-04T21:41:47.798Z</time>
      </trkpt>
      <trkpt lat="58.69682195596397" lon="12.452457938343287">
        <ele>57.97</ele>
        <time>2025-02-04T21:42:08.594Z</time>
      </trkpt>
      <trkpt lat="58.69682296179235" lon="12.452565981075168">
        <ele>57.95</ele>
        <time>2025-02-04T21:42:29.390Z</time>
      </trkpt>
      <trkpt lat="58.69682296179235" lon="12.452673939988017">
        <ele>57.92</ele>
        <time>2025-02-04T21:42:50.187Z</time>
      </trkpt>
      <trkpt lat="58.69682195596397" lon="12.452778965234756">
        <ele>57.9</ele>
        <time>2025-02-04T21:43:10.985Z</time>
      </trkpt>
      <trkpt lat="58.69682095013559" lon="12.452881978824735">
        <ele>57.87</ele>
        <time>2025-02-04T21:43:31.784Z</time>
      </trkpt>
      <trkpt lat="58.69681893847883" lon="12.452982980757952">
        <ele>57.84</ele>
        <time>2025-02-04T21:43:52.584Z</time>
      </trkpt>
      <trkpt lat="58.69681893847883" lon="12.453086916357279">
        <ele>57.81</ele>
        <time>2025-02-04T21:44:13.385Z</time>
      </trkpt>
      <trkpt lat="58.69681994430721" lon="12.453188924118876">
        <ele>57.79</ele>
        <time>2025-02-04T21:44:34.187Z</time>
      </trkpt>
      <trkpt lat="58.69681994430721" lon="12.453292943537235">
        <ele>57.77</ele>
        <time>2025-02-04T21:44:54.990Z</time>
      </trkpt>
      <trkpt lat="58.69681994430721" lon="12.453394951298833">
        <ele>57.75</ele>
        <time>2025-02-04T21:45:15.793Z</time>
      </trkpt>
      <trkpt lat="58.69682095013559" lon="12.453499976545572">
        <ele>57.73</ele>
        <time>2025-02-04T21:45:36.597Z</time>
      </trkpt>
      <trkpt lat="58.69682095013559" lon="12.453603995963931">
        <ele>57.71</ele>
        <time>2025-02-04T21:45:57.402Z</time>
      </trkpt>
      <trkpt lat="58.69681994430721" lon="12.4537109490484">
        <ele>57.68</ele>
        <time>2025-02-04T21:46:18.208Z</time>
      </trkpt>
      <trkpt lat="58.69681893847883" lon="12.453822931274772">
        <ele>57.66</ele>
        <time>2025-02-04T21:46:39.015Z</time>
      </trkpt>
      <trkpt lat="58.69681893847883" lon="12.453934997320175">
        <ele>57.64</ele>
        <time>2025-02-04T21:46:59.823Z</time>
      </trkpt>
      <trkpt lat="58.69681994430721" lon="12.45405393652618">
        <ele>57.62</ele>
        <time>2025-02-04T21:47:20.632Z</time>
      </trkpt>
      <trkpt lat="58.69682296179235" lon="12.454175977036357">
        <ele>57.6</ele>
        <time>2025-02-04T21:47:41.442Z</time>
      </trkpt>
      <trkpt lat="58.69682497344911" lon="12.454297933727503">
        <ele>57.58</ele>
        <time>2025-02-04T21:48:02.253Z</time>
      </trkpt>
      <trkpt lat="58.69682698510587" lon="12.45441796258092">
        <ele>57.56</ele>
        <time>2025-02-04T21:48:23.065Z</time>
      </trkpt>
      <trkpt lat="58.69682597927749" lon="12.454539919272065">
        <ele>57.54</ele>
        <time>2025-02-04T21:48:43.878Z</time>
      </trkpt>
      <trkpt lat="58.69682396762073" lon="12.454660953953862">
        <ele>57.52</ele>
        <time>2025-02-04T21:49:04.692Z</time>
      </trkpt>
      <trkpt lat="58.69682195596397" lon="12.454780982807279">
        <ele>57.5</ele>
        <time>2025-02-04T21:49:25.507Z</time>
      </trkpt>
      <trkpt lat="58.69682095013559" lon="12.454901933670044">
        <ele>57.48</ele>
        <time>2025-02-04T21:49:46.323Z</time>
      </trkpt>
      <trkpt lat="58.69681994430721" lon="12.45502095669508">
        <ele>57.46</ele>
        <time>2025-02-04T21:50:07.140Z</time>
      </trkpt>
      <trkpt lat="58.69681994430721" lon="12.455141991376877">
        <ele>57.45</ele>
        <time>2025-02-04T21:50:27.958Z</time>
      </trkpt>
      <trkpt lat="58.69681994430721" lon="12.455261936411262">
        <ele>57.43</ele>
        <time>2025-02-04T21:50:48.777Z</time>
      </trkpt>
      <trkpt lat="58.69681994430721" lon="12.455381965264678">
        <ele>57.41</ele>
        <time>2025-02-04T21:51:09.597Z</time>
      </trkpt>
      <trkpt lat="58.69681793265045" lon="12.455505933612585">
        <ele>57.4</ele>
        <time>2025-02-04T21:51:30.418Z</time>
      </trkpt>
      <trkpt lat="58.696816926822066" lon="12.455629985779524">
        <ele>57.38</ele>
        <time>2025-02-04T21:51:51.240Z</time>
      </trkpt>
      <trkpt lat="58.696816926822066" lon="12.45575294829905">
        <ele>57.36</ele>
        <time>2025-02-04T21:52:12.063Z</time>
      </trkpt>
      <trkpt lat="58.69681793265045" lon="12.455877922475338">
        <ele>57.35</ele>
        <time>2025-02-04T21:52:32.887Z</time>
      </trkpt>
      <trkpt lat="58.69681994430721" lon="12.456001974642277">
        <ele>57.33</ele>
        <time>2025-02-04T21:52:53.712Z</time>
      </trkpt>
      <trkpt lat="58.69681994430721" lon="12.456124937161803">
        <ele>57.32</ele>
        <time>2025-02-04T21:53:14.538Z</time>
      </trkpt>
      <trkpt lat="58.69682195596397" lon="12.456248989328742">
        <ele>57.3</ele>
        <time>2025-02-04T21:53:35.365Z</time>
      </trkpt>
      <trkpt lat="58.69682396762073" lon="12.456372957676649">
        <ele>57.28</ele>
        <time>2025-02-04T21:53:56.193Z</time>
      </trkpt>
      <trkpt lat="58.69682799093425" lon="12.456496926024556">
        <ele>57.26</ele>
        <time>2025-02-04T21:54:17.022Z</time>
      </trkpt>
      <trkpt lat="58.696832936257124" lon="12.456621984019876">
        <ele>57.25</ele>
        <time>2025-02-04T21:54:37.852Z</time>
      </trkpt>
      <trkpt lat="58.69683997705579" lon="12.456747964024544">
        <ele>57.23</ele>
        <time>2025-02-04T21:54:58.683Z</time>
      </trkpt>
      <trkpt lat="58.69684995152056" lon="12.456872938200831">
        <ele>57.22</ele>
        <time>2025-02-04T21:55:19.515Z</time>
      </trkpt>
      <trkpt lat="58.6968619376421" lon="12.45699598453939">
        <ele>57.2</ele>
        <time>2025-02-04T21:55:40.349Z</time>
      </trkpt>
      <trkpt lat="58.696875935420394" lon="12.457120958715677">
        <ele>57.19</ele>
        <time>2025-02-04T21:56:01.184Z</time>
      </trkpt>
      <trkpt lat="58.69689093902707" lon="12.457245932891965">
        <ele>57.17</ele>
        <time>2025-02-04T21:56:22.020Z</time>
      </trkpt>
      <trkpt lat="58.69690896011889" lon="12.457370990887284">
        <ele>57.16</ele>
        <time>2025-02-04T21:56:42.857Z</time>
      </trkpt>
      <trkpt lat="58.69692899286747" lon="12.45749395340681">
        <ele>57.14</ele>
        <time>2025-02-04T21:57:03.695Z</time>
      </trkpt>
      <trkpt lat="58.69694894179702" lon="12.457617921754718">
        <ele>57.12</ele>
        <time>2025-02-04T21:57:24.534Z</time>
      </trkpt>
      <trkpt lat="58.69697199203074" lon="12.457736944779754">
        <ele>57.1</ele>
        <time>2025-02-04T21:57:45.374Z</time>
      </trkpt>
      <trkpt lat="58.69699697010219" lon="12.457852950319648">
        <ele>57.09</ele>
        <time>2025-02-04T21:58:06.215Z</time>
      </trkpt>
      <trkpt lat="58.69702194817364" lon="12.457967950031161">
        <ele>57.07</ele>
        <time>2025-02-04T21:58:27.057Z</time>
      </trkpt>
      <trkpt lat="58.697048937901855" lon="12.458080938085914">
        <ele>57.06</ele>
        <time>2025-02-04T21:58:47.900Z</time>
      </trkpt>
      <trkpt lat="58.69707793928683" lon="12.458190992474556">
        <ele>57.05</ele>
        <time>2025-02-04T21:59:08.744Z</time>
      </trkpt>
      <trkpt lat="58.69710895232856" lon="12.458299957215786">
        <ele>57.04</ele>
        <time>2025-02-04T21:59:29.589Z</time>
      </trkpt>
      <trkpt lat="58.69714097119868" lon="12.458406994119287">
        <ele>57.03</ele>
        <time>2025-02-04T21:59:50.435Z</time>
      </trkpt>
      <trkpt lat="58.6971759237349" lon="12.458511935546994">
        <ele>57.02</ele>
        <time>2025-02-04T22:00:11.282Z</time>
      </trkpt>
      <trkpt lat="58.69720995426178" lon="12.458615954965353">
        <ele>57.01</ele>
        <time>2025-02-04T22:00:32.130Z</time>
      </trkpt>
      <trkpt lat="58.69724599644542" lon="12.45871695689857">
        <ele>56.99</ele>
        <time>2025-02-04T22:00:52.979Z</time>
      </trkpt>
      <trkpt lat="58.69728195481002" lon="12.458816953003407">
        <ele>56.98</ele>
        <time>2025-02-04T22:01:13.829Z</time>
      </trkpt>
      <trkpt lat="58.69731891900301" lon="12.458915943279862">
        <ele>56.96</ele>
        <time>2025-02-04T22:01:34.680Z</time>
      </trkpt>
      <trkpt lat="58.69735797867179" lon="12.459010994061828">
        <ele>56.95</ele>
        <time>2025-02-04T22:01:55.532Z</time>
      </trkpt>
      <trkpt lat="58.69739997200668" lon="12.45910294353962">
        <ele>56.93</ele>
        <time>2025-02-04T22:02:16.385Z</time>
      </trkpt>
      <trkpt lat="58.69744397699833" lon="12.459192965179682">
        <ele>56.91</ele>
        <time>2025-02-04T22:02:37.239Z</time>
      </trkpt>
      <trkpt lat="58.69749099947512" lon="12.459280975162983">
        <ele>56.89</ele>
        <time>2025-02-04T22:02:58.094Z</time>
      </trkpt>
      <trkpt lat="58.69753994978964" lon="12.459368985146284">
        <ele>56.87</ele>
        <time>2025-02-04T22:03:18.950Z</time>
      </trkpt>
      <trkpt lat="58.69758998975158" lon="12.459454983472824">
        <ele>56.85</ele>
        <time>2025-02-04T22:03:39.808Z</time>
      </trkpt>
      <trkpt lat="58.69764296337962" lon="12.459539975970984">
        <ele>56.83</ele>
        <time>2025-02-04T22:04:00.667Z</time>
      </trkpt>
      <trkpt lat="58.69769895449281" lon="12.459626980125904">
        <ele>56.8</ele>
        <time>2025-02-04T22:04:21.527Z</time>
      </trkpt>
      <trkpt lat="58.697756957262754" lon="12.459712978452444">
        <ele>56.78</ele>
        <time>2025-02-04T22:04:42.388Z</time>
      </trkpt>
      <trkpt lat="58.697819989174604" lon="12.459798976778984">
        <ele>56.76</ele>
        <time>2025-02-04T22:05:03.250Z</time>
      </trkpt>
      <trkpt lat="58.697887966409326" lon="12.459882963448763">
        <ele>56.74</ele>
        <time>2025-02-04T22:05:24.114Z</time>
      </trkpt>
      <trkpt lat="58.69795896112919" lon="12.45996292680502">
        <ele>56.71</ele>
        <time>2025-02-04T22:05:44.979Z</time>
      </trkpt>
      <trkpt lat="58.698034984990954" lon="12.460040962323546">
        <ele>56.69</ele>
        <time>2025-02-04T22:06:05.845Z</time>
      </trkpt>
      <trkpt lat="58.69811494834721" lon="12.460115980356932">
        <ele>56.67</ele>
        <time>2025-02-04T22:06:26.713Z</time>
      </trkpt>
      <trkpt lat="58.69819692336023" lon="12.460183957591653">
        <ele>56.65</ele>
        <time>2025-02-04T22:06:47.582Z</time>
      </trkpt>
      <trkpt lat="58.698272947221994" lon="12.460250928997993">
        <ele>56.63</ele>
        <time>2025-02-04T22:07:08.452Z</time>
      </trkpt>
      <trkpt lat="58.69835098274052" lon="12.460318990051746">
        <ele>56.61</ele>
        <time>2025-02-04T22:07:29.324Z</time>
      </trkpt>
      <trkpt lat="58.69842893444002" lon="12.460386967286468">
        <ele>56.58</ele>
        <time>2025-02-04T22:07:50.197Z</time>
      </trkpt>
      <trkpt lat="58.69850596413016" lon="12.460454944521189">
        <ele>56.56</ele>
        <time>2025-02-04T22:08:11.072Z</time>
      </trkpt>
      <trkpt lat="58.69858198799193" lon="12.460524933412671">
        <ele>56.54</ele>
        <time>2025-02-04T22:08:31.948Z</time>
      </trkpt>
      <trkpt lat="58.6986559163779" lon="12.460595928132534">
        <ele>56.52</ele>
        <time>2025-02-04T22:08:52.825Z</time>
      </trkpt>
      <trkpt lat="58.698727916926146" lon="12.460664995014668">
        <ele>56.5</ele>
        <time>2025-02-04T22:09:13.704Z</time>
      </trkpt>
      <trkpt lat="58.69880192913115" lon="12.460732972249389">
        <ele>56.48</ele>
        <time>2025-02-04T22:09:34.584Z</time>
      </trkpt>
      <trkpt lat="58.698874935507774" lon="12.460797931998968">
        <ele>56.46</ele>
        <time>2025-02-04T22:09:55.465Z</time>
      </trkpt>
      <trkpt lat="58.6989479418844" lon="12.46086398139596">
        <ele>56.44</ele>
        <time>2025-02-04T22:10:16.347Z</time>
      </trkpt>
      <trkpt lat="58.69902094826102" lon="12.46092994697392">
        <ele>56.42</ele>
        <time>2025-02-04T22:10:37.231Z</time>
      </trkpt>
      <trkpt lat="58.69909395463765" lon="12.460995996370912">
        <ele>56.4</ele>
        <time>2025-02-04T22:10:58.116Z</time>
      </trkpt>
      <trkpt lat="58.69916696101427" lon="12.461060956120491">
        <ele>56.39</ele>
        <time>2025-02-04T22:11:19.002Z</time>
      </trkpt>
      <trkpt lat="58.699239967390895" lon="12.461124993860722">
        <ele>56.37</ele>
        <time>2025-02-04T22:11:39.890Z</time>
      </trkpt>
      <trkpt lat="58.69931196793914" lon="12.461189953610301">
        <ele>56.35</ele>
        <time>2025-02-04T22:12:00.779Z</time>
      </trkpt>
      <trkpt lat="58.699382962659" lon="12.461253991350532">
        <ele>56.33</ele>
        <time>2025-02-04T22:12:21.669Z</time>
      </trkpt>
      <trkpt lat="58.699452951550484" lon="12.461318951100111">
        <ele>56.31</ele>
        <time>2025-02-04T22:12:42.560Z</time>
      </trkpt>
      <trkpt lat="58.699519922956824" lon="12.461385922506452">
        <ele>56.29</ele>
        <time>2025-02-04T22:13:03.453Z</time>
      </trkpt>
      <trkpt lat="58.699585972353816" lon="12.461448954418302">
        <ele>56.27</ele>
        <time>2025-02-04T22:13:24.347Z</time>
      </trkpt>
      <trkpt lat="58.699649926275015" lon="12.46150997467339">
        <ele>56.25</ele>
        <time>2025-02-04T22:13:45.242Z</time>
      </trkpt>
      <trkpt lat="58.699710946530104" lon="12.461566971614957">
        <ele>56.23</ele>
        <time>2025-02-04T22:14:06.138Z</time>
      </trkpt>
      <trkpt lat="58.69977096095681" lon="12.461620951071382">
        <ele>56.21</ele>
        <time>2025-02-04T22:14:27.035Z</time>
      </trkpt>
      <trkpt lat="58.69982795789838" lon="12.461672918871045">
        <ele>56.19</ele>
        <time>2025-02-04T22:14:47.933Z</time>
      </trkpt>
      <trkpt lat="58.699882943183184" lon="12.461725976318121">
        <ele>56.18</ele>
        <time>2025-02-04T22:15:08.832Z</time>
      </trkpt>
      <trkpt lat="58.69993591681123" lon="12.461775932461023">
        <ele>56.16</ele>
        <time>2025-02-04T22:15:29.732Z</time>
      </trkpt>
      <trkpt lat="58.69998595677316" lon="12.461823960766196">
        <ele>56.14</ele>
        <time>2025-02-04T22:15:50.633Z</time>
      </trkpt>
      <trkpt lat="58.700036918744445" lon="12.461868971586227">
        <ele>56.12</ele>
        <time>2025-02-04T22:16:11.535Z</time>
      </trkpt>
      <trkpt lat="58.70008796453476" lon="12.46191498823464">
        <ele>56.1</ele>
        <time>2025-02-04T22:16:32.438Z</time>
      </trkpt>
      <trkpt lat="58.70013792067766" lon="12.46195999905467">
        <ele>56.08</ele>
        <time>2025-02-04T22:16:53.342Z</time>
      </trkpt>
      <trkpt lat="58.700187960639596" lon="12.46200392022729">
        <ele>56.06</ele>
        <time>2025-02-04T22:17:14.246Z</time>
      </trkpt>
      <trkpt lat="58.70023598894477" lon="12.46204893104732">
        <ele>56.05</ele>
        <time>2025-02-04T22:17:35.151Z</time>
      </trkpt>
      <trkpt lat="58.70028594508767" lon="12.46208991855383">
        <ele>56.03</ele>
        <time>2025-02-04T22:17:56.057Z</time>
      </trkpt>
      <trkpt lat="58.70033799670637" lon="12.46212998405099">
        <ele>56.01</ele>
        <time>2025-02-04T22:18:16.964Z</time>
      </trkpt>
      <trkpt lat="58.70039197616279" lon="12.46217398904264">
        <ele>55.99</ele>
        <time>2025-02-04T22:18:37.872Z</time>
      </trkpt>
      <trkpt lat="58.700445955619216" lon="12.4622209277004">
        <ele>55.98</ele>
        <time>2025-02-04T22:18:58.781Z</time>
      </trkpt>
      <trkpt lat="58.70049993507564" lon="12.462269961833954">
        <ele>55.96</ele>
        <time>2025-02-04T22:19:19.691Z</time>
      </trkpt>
      <trkpt lat="58.70055592618883" lon="12.462320923805237">
        <ele>55.94</ele>
        <time>2025-02-04T22:19:40.602Z</time>
      </trkpt>
      <trkpt lat="58.70061292313039" lon="12.462374987080693">
        <ele>55.92</ele>
        <time>2025-02-04T22:20:01.514Z</time>
      </trkpt>
      <trkpt lat="58.70067193172872" lon="12.46243198402226">
        <ele>55.9</ele>
        <time>2025-02-04T22:20:22.427Z</time>
      </trkpt>
      <trkpt lat="58.70073295198381" lon="12.462492920458317">
        <ele>55.88</ele>
        <time>2025-02-04T22:20:43.341Z</time>
      </trkpt>
      <trkpt lat="58.70079598389566" lon="12.462557964026928">
        <ele>55.87</ele>
        <time>2025-02-04T22:21:04.256Z</time>
      </trkpt>
      <trkpt lat="58.70086194947362" lon="12.462623929604888">
        <ele>55.85</ele>
        <time>2025-02-04T22:21:25.172Z</time>
      </trkpt>
      <trkpt lat="58.70092892087996" lon="12.46269391849637">
        <ele>55.84</ele>
        <time>2025-02-04T22:21:46.090Z</time>
      </trkpt>
      <trkpt lat="58.700998993590474" lon="12.462768936529756">
        <ele>55.82</ele>
        <time>2025-02-04T22:22:07.009Z</time>
      </trkpt>
      <trkpt lat="58.70107292197645" lon="12.462846972048283">
        <ele>55.8</ele>
        <time>2025-02-04T22:22:27.929Z</time>
      </trkpt>
      <trkpt lat="58.70114894583821" lon="12.46292794123292">
        <ele>55.79</ele>
        <time>2025-02-04T22:22:48.851Z</time>
      </trkpt>
      <trkpt lat="58.70122698135674" lon="12.463008994236588">
        <ele>55.77</ele>
        <time>2025-02-04T22:23:09.774Z</time>
      </trkpt>
      <trkpt lat="58.701305938884616" lon="12.463088957592845">
        <ele>55.76</ele>
        <time>2025-02-04T22:23:30.699Z</time>
      </trkpt>
      <trkpt lat="58.70138397440314" lon="12.463169926777482">
        <ele>55.75</ele>
        <time>2025-02-04T22:23:51.625Z</time>
      </trkpt>
      <trkpt lat="58.70146192610264" lon="12.46324997395277">
        <ele>55.75</ele>
        <time>2025-02-04T22:24:12.552Z</time>
      </trkpt>
      <trkpt lat="58.701537949964404" lon="12.463330943137407">
        <ele>55.74</ele>
        <time>2025-02-04T22:24:33.481Z</time>
      </trkpt>
      <trkpt lat="58.70161397382617" lon="12.463412918150425">
        <ele>55.73</ele>
        <time>2025-02-04T22:24:54.411Z</time>
      </trkpt>
      <trkpt lat="58.701687986031175" lon="12.463490953668952">
        <ele>55.72</ele>
        <time>2025-02-04T22:25:15.343Z</time>
      </trkpt>
      <trkpt lat="58.7017609924078" lon="12.463565971702337">
        <ele>55.71</ele>
        <time>2025-02-04T22:25:36.276Z</time>
      </trkpt>
      <trkpt lat="58.70183399878442" lon="12.463638978078961">
        <ele>55.7</ele>
        <time>2025-02-04T22:25:57.210Z</time>
      </trkpt>
      <trkpt lat="58.701906921342015" lon="12.463705949485302">
        <ele>55.69</ele>
        <time>2025-02-04T22:26:18.146Z</time>
      </trkpt>
      <trkpt lat="58.70197992771864" lon="12.463760934770107">
        <ele>55.68</ele>
        <time>2025-02-04T22:26:39.083Z</time>
      </trkpt>
      <trkpt lat="58.702053939923644" lon="12.463799994438887">
        <ele>55.68</ele>
        <time>2025-02-04T22:27:00.021Z</time>
      </trkpt>
      <trkpt lat="58.70212795212865" lon="12.463806951418519">
        <ele>55.67</ele>
        <time>2025-02-04T22:27:20.960Z</time>
      </trkpt>
      <trkpt lat="58.70219794102013" lon="12.463772920891643">
        <ele>55.67</ele>
        <time>2025-02-04T22:27:41.900Z</time>
      </trkpt>
      <trkpt lat="58.7022599671036" lon="12.463708966970444">
        <ele>55.66</ele>
        <time>2025-02-04T22:28:02.841Z</time>
      </trkpt>
      <trkpt lat="58.702314952388406" lon="12.463631937280297">
        <ele>55.66</ele>
        <time>2025-02-04T22:28:23.784Z</time>
      </trkpt>
      <trkpt lat="58.70237094350159" lon="12.463555997237563">
        <ele>55.66</ele>
        <time>2025-02-04T22:28:44.728Z</time>
      </trkpt>
      <trkpt lat="58.7024309579283" lon="12.463491959497333">
        <ele>55.65</ele>
        <time>2025-02-04T22:29:05.673Z</time>
      </trkpt>
      <trkpt lat="58.70249398984015" lon="12.463449966162443">
        <ele>55.65</ele>
        <time>2025-02-04T22:29:26.619Z</time>
      </trkpt>
      <trkpt lat="58.70255794376135" lon="12.463425993919373">
        <ele>55.64</ele>
        <time>2025-02-04T22:29:47.566Z</time>
      </trkpt>
      <trkpt lat="58.7026209756732" lon="12.463418953120708">
        <ele>55.64</ele>
        <time>2025-02-04T22:30:08.514Z</time>
      </trkpt>
      <trkpt lat="58.702679984271526" lon="12.463413923978806">
        <ele>55.64</ele>
        <time>2025-02-04T22:30:29.463Z</time>
      </trkpt>
      <trkpt lat="58.70273698121309" lon="12.463392969220877">
        <ele>55.64</ele>
        <time>2025-02-04T22:30:50.413Z</time>
      </trkpt>
      <trkpt lat="58.70278995484114" lon="12.463363967835903">
        <ele>55.64</ele>
        <time>2025-02-04T22:31:11.364Z</time>
      </trkpt>
      <trkpt lat="58.70284091681242" lon="12.463339995592833">
        <ele>55.65</ele>
        <time>2025-02-04T22:31:32.316Z</time>
      </trkpt>
      <trkpt lat="58.702891962602735" lon="12.463322980329394">
        <ele>55.65</ele>
        <time>2025-02-04T22:31:53.268Z</time>
      </trkpt>
      <trkpt lat="58.70293898507953" lon="12.463309988379478">
        <ele>55.65</ele>
        <time>2025-02-04T22:32:14.221Z</time>
      </trkpt>
      <trkpt lat="58.702978966757655" lon="12.463300935924053">
        <ele>55.66</ele>
        <time>2025-02-04T22:32:35.175Z</time>
      </trkpt>
      <trkpt lat="58.70300796814263" lon="12.463295990601182">
        <ele>55.66</ele>
        <time>2025-02-04T22:32:56.129Z</time>
      </trkpt>
      <trkpt lat="58.703022971749306" lon="12.463290961459279">
        <ele>55.67</ele>
        <time>2025-02-04T22:33:17.083Z</time>
      </trkpt>
      <trkpt lat="58.70302699506283" lon="12.463285932317376">
        <ele>55.68</ele>
        <time>2025-02-04T22:33:38.038Z</time>
      </trkpt>
      <trkpt lat="58.70302699506283" lon="12.463283920660615">
        <ele>55.69</ele>
        <time>2025-02-04T22:33:58.993Z</time>
      </trkpt>
      <trkpt lat="58.70292599312961" lon="12.46324896812439">
        <ele>55.7</ele>
        <time>2025-02-04T22:34:19.949Z</time>
      </trkpt>
      <trkpt lat="58.702910989522934" lon="12.46325097978115">
        <ele>55.71</ele>
        <time>2025-02-04T22:34:40.905Z</time>
      </trkpt>
      <trkpt lat="58.70290093123913" lon="12.463259948417544">
        <ele>55.72</ele>
        <time>2025-02-04T22:35:01.862Z</time>
      </trkpt>
      <trkpt lat="58.702891962602735" lon="12.463266989216208">
        <ele>55.73</ele>
        <time>2025-02-04T22:35:22.819Z</time>
      </trkpt>
      <trkpt lat="58.70288793928921" lon="12.463267995044589">
        <ele>55.74</ele>
        <time>2025-02-04T22:35:43.776Z</time>
      </trkpt>
      <trkpt lat="58.70288592763245" lon="12.463267995044589">
        <ele>55.75</ele>
        <time>2025-02-04T22:36:04.733Z</time>
      </trkpt>
      <trkpt lat="58.70282691903412" lon="12.463240921497345">
        <ele>55.77</ele>
        <time>2025-02-04T22:36:25.691Z</time>
      </trkpt>
      <trkpt lat="58.70279791764915" lon="12.463247962296009">
        <ele>55.78</ele>
        <time>2025-02-04T22:36:46.649Z</time>
      </trkpt>
      <trkpt lat="58.70276799425483" lon="12.46324997395277">
        <ele>55.8</ele>
        <time>2025-02-04T22:37:07.608Z</time>
      </trkpt>
      <trkpt lat="58.70273597538471" lon="12.463261960074306">
        <ele>55.82</ele>
        <time>2025-02-04T22:37:28.567Z</time>
      </trkpt>
      <trkpt lat="58.702699933201075" lon="12.463275957852602">
        <ele>55.83</ele>
        <time>2025-02-04T22:37:49.527Z</time>
      </trkpt>
      <trkpt lat="58.70266196317971" lon="12.463284926488996">
        <ele>55.85</ele>
        <time>2025-02-04T22:38:10.488Z</time>
      </trkpt>
      <trkpt lat="58.70261996984482" lon="12.463296996429563">
        <ele>55.87</ele>
        <time>2025-02-04T22:38:31.449Z</time>
      </trkpt>
      <trkpt lat="58.70257596485317" lon="12.463312922045588">
        <ele>55.89</ele>
        <time>2025-02-04T22:38:52.411Z</time>
      </trkpt>
      <trkpt lat="58.702528942376375" lon="12.463333960622549">
        <ele>55.91</ele>
        <time>2025-02-04T22:39:13.374Z</time>
      </trkpt>
      <trkpt lat="58.702480997890234" lon="12.463363967835903">
        <ele>55.94</ele>
        <time>2025-02-04T22:39:34.337Z</time>
      </trkpt>
      <trkpt lat="58.70243296958506" lon="12.463407972827554">
        <ele>55.96</ele>
        <time>2025-02-04T22:39:55.301Z</time>
      </trkpt>
      <trkpt lat="58.70238594710827" lon="12.463458934798837">
        <ele>55.99</ele>
        <time>2025-02-04T22:40:16.266Z</time>
      </trkpt>
      <trkpt lat="58.70233993045986" lon="12.463513920083642">
        <ele>56.01</ele>
        <time>2025-02-04T22:40:37.232Z</time>
      </trkpt>
      <trkpt lat="58.70229399763048" lon="12.463570917025208">
        <ele>56.03</ele>
        <time>2025-02-04T22:40:58.199Z</time>
      </trkpt>
      <trkpt lat="58.70224395766854" lon="12.463624980300665">
        <ele>56.06</ele>
        <time>2025-02-04T22:41:19.167Z</time>
      </trkpt>
      <trkpt lat="58.70218897238374" lon="12.463668985292315">
        <ele>56.08</ele>
        <time>2025-02-04T22:41:40.136Z</time>
      </trkpt>
      <trkpt lat="58.70212895795703" lon="12.463695975020528">
        <ele>56.11</ele>
        <time>2025-02-04T22:42:01.106Z</time>
      </trkpt>
      <trkpt lat="58.70206693187356" lon="12.463689940050244">
        <ele>56.14</ele>
        <time>2025-02-04T22:42:22.077Z</time>
      </trkpt>
      <trkpt lat="58.70200498960912" lon="12.4636559933424">
        <ele>56.16</ele>
        <time>2025-02-04T22:42:43.049Z</time>
      </trkpt>
      <trkpt lat="58.70194396935403" lon="12.463606959208846">
        <ele>56.19</ele>
        <time>2025-02-04T22:43:04.022Z</time>
      </trkpt>
      <trkpt lat="58.701882949098945" lon="12.46355096809566">
        <ele>56.22</ele>
        <time>2025-02-04T22:43:24.996Z</time>
      </trkpt>
      <trkpt lat="58.701819917187095" lon="12.463490953668952">
        <ele>56.25</ele>
        <time>2025-02-04T22:43:45.971Z</time>
      </trkpt>
      <trkpt lat="58.701756969094276" lon="12.463429933413863">
        <ele>56.28</ele>
        <time>2025-02-04T22:44:06.947Z</time>
      </trkpt>
      <trkpt lat="58.70169393718243" lon="12.463369918987155">
        <ele>56.31</ele>
        <time>2025-02-04T22:44:27.924Z</time>
      </trkpt>
      <trkpt lat="58.70163098908961" lon="12.463311916217208">
        <ele>56.34</ele>
        <time>2025-02-04T22:44:48.903Z</time>
      </trkpt>
      <trkpt lat="58.70156695134938" lon="12.46324997395277">
        <ele>56.37</ele>
        <time>2025-02-04T22:45:09.883Z</time>
      </trkpt>
      <trkpt lat="58.70150492526591" lon="12.463184930384159">
        <ele>56.4</ele>
        <time>2025-02-04T22:45:30.864Z</time>
      </trkpt>
      <trkpt lat="58.70144298300147" lon="12.46311997063458">
        <ele>56.43</ele>
        <time>2025-02-04T22:45:51.846Z</time>
      </trkpt>
      <trkpt lat="58.70138196274638" lon="12.46305693872273">
        <ele>56.46</ele>
        <time>2025-02-04T22:46:12.829Z</time>
      </trkpt>
      <trkpt lat="58.70132194831967" lon="12.46299298480153">
        <ele>56.49</ele>
        <time>2025-02-04T22:46:33.813Z</time>
      </trkpt>
      <trkpt lat="58.70126394554973" lon="12.46292995288968">
        <ele>56.52</ele>
        <time>2025-02-04T22:46:54.798Z</time>
      </trkpt>
      <trkpt lat="58.70120795443654" lon="12.462867926806211">
        <ele>56.56</ele>
        <time>2025-02-04T22:47:15.784Z</time>
      </trkpt>
      <trkpt lat="58.701152969151735" lon="12.462807996198535">
        <ele>56.59</ele>
        <time>2025-02-04T22:47:36.771Z</time>
      </trkpt>
      <trkpt lat="58.70110091753304" lon="12.462749993428588">
        <ele>56.63</ele>
        <time>2025-02-04T22:47:57.759Z</time>
      </trkpt>
      <trkpt lat="58.70104995556176" lon="12.462696935981512">
        <ele>56.66</ele>
        <time>2025-02-04T22:48:18.748Z</time>
      </trkpt>
      <trkpt lat="58.701000921428204" lon="12.462645974010229">
        <ele>56.7</ele>
        <time>2025-02-04T22:48:39.738Z</time>
      </trkpt>
      <trkpt lat="58.70095498859882" lon="12.462596939876676">
        <ele>56.74</ele>
        <time>2025-02-04T22:49:00.729Z</time>
      </trkpt>
      <trkpt lat="58.70090997777879" lon="12.462550923228264">
        <ele>56.77</ele>
        <time>2025-02-04T22:49:21.721Z</time>
      </trkpt>
      <trkpt lat="58.70086597278714" lon="12.462506918236613">
        <ele>56.81</ele>
        <time>2025-02-04T22:49:42.714Z</time>
      </trkpt>
      <trkpt lat="58.70082397945225" lon="12.462462997063994">
        <ele>56.85</ele>
        <time>2025-02-04T22:50:03.707Z</time>
      </trkpt>
      <trkpt lat="58.700783997774124" lon="12.462420919910073">
        <ele>56.88</ele>
        <time>2025-02-04T22:50:24.701Z</time>
      </trkpt>
      <trkpt lat="58.7007419206202" lon="12.462379932403564">
        <ele>56.92</ele>
        <time>2025-02-04T22:50:45.696Z</time>
      </trkpt>
      <trkpt lat="58.70069892145693" lon="12.462338944897056">
        <ele>56.96</ele>
        <time>2025-02-04T22:51:06.692Z</time>
      </trkpt>
      <trkpt lat="58.70065592229366" lon="12.462295945733786">
        <ele>56.99</ele>
        <time>2025-02-04T22:51:27.688Z</time>
      </trkpt>
      <trkpt lat="58.700613928958774" lon="12.462249929085374">
        <ele>57.03</ele>
        <time>2025-02-04T22:51:48.685Z</time>
      </trkpt>
      <trkpt lat="58.700570929795504" lon="12.462204918265343">
        <ele>57.07</ele>
        <time>2025-02-04T22:52:09.683Z</time>
      </trkpt>
      <trkpt lat="58.700528936460614" lon="12.462159991264343">
        <ele>57.1</ele>
        <time>2025-02-04T22:52:30.682Z</time>
      </trkpt>
      <trkpt lat="58.700485937297344" lon="12.462116992101073">
        <ele>57.14</ele>
        <time>2025-02-04T22:52:51.681Z</time>
      </trkpt>
      <trkpt lat="58.700441932305694" lon="12.462075920775533">
        <ele>57.18</ele>
        <time>2025-02-04T22:53:12.681Z</time>
      </trkpt>
      <trkpt lat="58.70039692148566" lon="12.462033927440643">
        <ele>57.21</ele>
        <time>2025-02-04T22:53:33.682Z</time>
      </trkpt>
      <trkpt lat="58.70035098865628" lon="12.461990928277373">
        <ele>57.24</ele>
        <time>2025-02-04T22:53:54.684Z</time>
      </trkpt>
      <trkpt lat="58.70030296035111" lon="12.461944995447993">
        <ele>57.28</ele>
        <time>2025-02-04T22:54:15.687Z</time>
      </trkpt>
      <trkpt lat="58.70025493204594" lon="12.461893949657679">
        <ele>57.31</ele>
        <time>2025-02-04T22:54:36.691Z</time>
      </trkpt>
      <trkpt lat="58.700205981731415" lon="12.461844999343157">
        <ele>57.35</ele>
        <time>2025-02-04T22:54:57.695Z</time>
      </trkpt>
      <trkpt lat="58.7001549359411" lon="12.461796971037984">
        <ele>57.38</ele>
        <time>2025-02-04T22:55:18.700Z</time>
      </trkpt>
      <trkpt lat="58.700101962313056" lon="12.461750954389572">
        <ele>57.42</ele>
        <time>2025-02-04T22:55:39.706Z</time>
      </trkpt>
      <trkpt lat="58.70004597119987" lon="12.46170099824667">
        <ele>57.45</ele>
        <time>2025-02-04T22:56:00.713Z</time>
      </trkpt>
      <trkpt lat="58.69998796842992" lon="12.461641989648342">
        <ele>57.48</ele>
        <time>2025-02-04T22:56:21.721Z</time>
      </trkpt>
      <trkpt lat="58.699926948174834" lon="12.461583986878395">
        <ele>57.52</ele>
        <time>2025-02-04T22:56:42.730Z</time>
      </trkpt>
      <trkpt lat="58.699860982596874" lon="12.46152799576521">
        <ele>57.55</ele>
        <time>2025-02-04T22:57:03.741Z</time>
      </trkpt>
      <trkpt lat="58.69979292154312" lon="12.461468987166882">
        <ele>57.58</ele>
        <time>2025-02-04T22:57:24.753Z</time>
      </trkpt>
      <trkpt lat="58.69972393848002" lon="12.461404949426651">
        <ele>57.61</ele>
        <time>2025-02-04T22:57:45.766Z</time>
      </trkpt>
      <trkpt lat="58.699651937931776" lon="12.461338983848691">
        <ele>57.64</ele>
        <time>2025-02-04T22:58:06.780Z</time>
      </trkpt>
      <trkpt lat="58.69957792572677" lon="12.461271928623319">
        <ele>57.67</ele>
        <time>2025-02-04T22:58:27.796Z</time>
      </trkpt>
      <trkpt lat="58.69950198568404" lon="12.461202945560217">
        <ele>57.7</ele>
        <time>2025-02-04T22:58:48.813Z</time>
      </trkpt>
      <trkpt lat="58.69942897930741" lon="12.461133962497115">
        <ele>57.73</ele>
        <time>2025-02-04T22:59:09.831Z</time>
      </trkpt>
      <trkpt lat="58.69935396127403" lon="12.461067996919155">
        <ele>57.76</ele>
        <time>2025-02-04T22:59:30.851Z</time>
      </trkpt>
      <trkpt lat="58.69927894324064" lon="12.460997924208641">
        <ele>57.79</ele>
        <time>2025-02-04T22:59:51.872Z</time>
      </trkpt>
      <trkpt lat="58.69920392520726" lon="12.460926929488778">
        <ele>57.82</ele>
        <time>2025-02-04T23:00:12.894Z</time>
      </trkpt>
      <trkpt lat="58.69913091883063" lon="12.460856940597296">
        <ele>57.84</ele>
        <time>2025-02-04T23:00:33.918Z</time>
      </trkpt>
      <trkpt lat="58.69905799627304" lon="12.460788963362575">
        <ele>57.87</ele>
        <time>2025-02-04T23:00:54.943Z</time>
      </trkpt>
      <trkpt lat="58.6989859957248" lon="12.460724925622344">
        <ele>57.9</ele>
        <time>2025-02-04T23:01:15.969Z</time>
      </trkpt>
      <trkpt lat="58.698916928842664" lon="12.460659965872765">
        <ele>57.92</ele>
        <time>2025-02-04T23:01:36.996Z</time>
      </trkpt>
      <trkpt lat="58.69884895160794" lon="12.460593916475773">
        <ele>57.95</ele>
        <time>2025-02-04T23:01:58.025Z</time>
      </trkpt>
      <trkpt lat="58.69878097437322" lon="12.460529962554574">
        <ele>57.98</ele>
        <time>2025-02-04T23:02:19.055Z</time>
      </trkpt>
      <trkpt lat="58.69871199131012" lon="12.460466930642724">
        <ele>58.0</ele>
        <time>2025-02-04T23:02:40.086Z</time>
      </trkpt>
      <trkpt lat="58.69864393025637" lon="12.460405994206667">
        <ele>58.03</ele>
        <time>2025-02-04T23:03:01.118Z</time>
      </trkpt>
      <trkpt lat="58.698575953021646" lon="12.4603489972651">
        <ele>58.05</ele>
        <time>2025-02-04T23:03:22.151Z</time>
      </trkpt>
      <trkpt lat="58.698508981615305" lon="12.460291916504502">
        <ele>58.08</ele>
        <time>2025-02-04T23:03:43.186Z</time>
      </trkpt>
      <trkpt lat="58.69844293221831" lon="12.460234919562936">
        <ele>58.1</ele>
        <time>2025-02-04T23:04:04.222Z</time>
      </trkpt>
      <trkpt lat="58.698377972468734" lon="12.460180940106511">
        <ele>58.13</ele>
        <time>2025-02-04T23:04:25.259Z</time>
      </trkpt>
      <trkpt lat="58.69831292890012" lon="12.460124948993325">
        <ele>58.15</ele>
        <time>2025-02-04T23:04:46.297Z</time>
      </trkpt>
      <trkpt lat="58.698248974978924" lon="12.460065940394998">
        <ele>58.17</ele>
        <time>2025-02-04T23:05:07.336Z</time>
      </trkpt>
      <trkpt lat="58.69818493723869" lon="12.460011960938573">
        <ele>58.19</ele>
        <time>2025-02-04T23:05:28.376Z</time>
      </trkpt>
      <trkpt lat="58.698120983317494" lon="12.45995999313891">
        <ele>58.21</ele>
        <time>2025-02-04T23:05:49.417Z</time>
      </trkpt>
      <trkpt lat="58.698058957234025" lon="12.459908947348595">
        <ele>58.23</ele>
        <time>2025-02-04T23:06:10.459Z</time>
      </trkpt>
      <trkpt lat="58.69799894280732" lon="12.45985396206379">
        <ele>58.25</ele>
        <time>2025-02-04T23:06:31.503Z</time>
      </trkpt>
      <trkpt lat="58.69794295169413" lon="12.459796965122223">
        <ele>58.27</ele>
        <time>2025-02-04T23:06:52.548Z</time>
      </trkpt>
      <trkpt lat="58.697888972237706" lon="12.459736950695515">
        <ele>58.28</ele>
        <time>2025-02-04T23:07:13.594Z</time>
      </trkpt>
      <trkpt lat="58.69783893227577" lon="12.459676936268806">
        <ele>58.3</ele>
        <time>2025-02-04T23:07:34.641Z</time>
      </trkpt>
      <trkpt lat="58.69779098778963" lon="12.45961599983275">
        <ele>58.32</ele>
        <time>2025-02-04T23:07:55.688Z</time>
      </trkpt>
      <trkpt lat="58.69774497114122" lon="12.45955497957766">
        <ele>58.34</ele>
        <time>2025-02-04T23:08:16.736Z</time>
      </trkpt>
      <trkpt lat="58.69770096614957" lon="12.45949194766581">
        <ele>58.36</ele>
        <time>2025-02-04T23:08:37.785Z</time>
      </trkpt>
      <trkpt lat="58.6976579669863" lon="12.459427993744612">
        <ele>58.37</ele>
        <time>2025-02-04T23:08:58.835Z</time>
      </trkpt>
      <trkpt lat="58.69761798530817" lon="12.459363956004381">
        <ele>58.38</ele>
        <time>2025-02-04T23:09:19.886Z</time>
      </trkpt>
      <trkpt lat="58.69757791981101" lon="12.459297990426421">
        <ele>58.39</ele>
        <time>2025-02-04T23:09:40.938Z</time>
      </trkpt>
      <trkpt lat="58.69753894396126" lon="12.45923194102943">
        <ele>58.4</ele>
        <time>2025-02-04T23:10:01.991Z</time>
      </trkpt>
      <trkpt lat="58.697501979768276" lon="12.459163963794708">
        <ele>58.41</ele>
        <time>2025-02-04T23:10:23.044Z</time>
      </trkpt>
      <trkpt lat="58.6974679492414" lon="12.459098920226097">
        <ele>58.42</ele>
        <time>2025-02-04T23:10:44.098Z</time>
      </trkpt>
      <trkpt lat="58.697434924542904" lon="12.45903697796166">
        <ele>58.42</ele>
        <time>2025-02-04T23:11:05.153Z</time>
      </trkpt>
      <trkpt lat="58.6974039953202" lon="12.458976963534951">
        <ele>58.43</ele>
        <time>2025-02-04T23:11:26.209Z</time>
      </trkpt>
      <trkpt lat="58.697369964793324" lon="12.458922984078526">
        <ele>58.43</ele>
        <time>2025-02-04T23:11:47.265Z</time>
      </trkpt>
      <trkpt lat="58.697327971458435" lon="12.458885936066508">
        <ele>58.43</ele>
        <time>2025-02-04T23:12:08.322Z</time>
      </trkpt>
      <trkpt lat="58.69728094898164" lon="12.458876967430115">
        <ele>58.43</ele>
        <time>2025-02-04T23:12:29.380Z</time>
      </trkpt>
      <trkpt lat="58.69723493233323" lon="12.458898928016424">
        <ele>58.43</ele>
        <time>2025-02-04T23:12:50.439Z</time>
      </trkpt>
      <trkpt lat="58.69719293899834" lon="12.458944944664836">
        <ele>58.42</ele>
        <time>2025-02-04T23:13:11.498Z</time>
      </trkpt>
      <trkpt lat="58.69715094566345" lon="12.459001941606402">
        <ele>58.42</ele>
        <time>2025-02-04T23:13:32.558Z</time>
      </trkpt>
      <trkpt lat="58.697111969813704" lon="12.459064973518252">
        <ele>58.41</ele>
        <time>2025-02-04T23:13:53.619Z</time>
      </trkpt>
      <trkpt lat="58.697074921801686" lon="12.459126999601722">
        <ele>58.4</ele>
        <time>2025-02-04T23:14:14.681Z</time>
      </trkpt>
      <trkpt lat="58.6970379576087" lon="12.459187936037779">
        <ele>58.4</ele>
        <time>2025-02-04T23:14:35.744Z</time>
      </trkpt>
      <trkpt lat="58.697001999244094" lon="12.459250967949629">
        <ele>58.39</ele>
        <time>2025-02-04T23:14:56.807Z</time>
      </trkpt>
      <trkpt lat="58.69696696288884" lon="12.459315927699208">
        <ele>58.38</ele>
        <time>2025-02-04T23:15:17.871Z</time>
      </trkpt>
      <trkpt lat="58.69693293236196" lon="12.459383988752961">
        <ele>58.36</ele>
        <time>2025-02-04T23:15:38.936Z</time>
      </trkpt>
      <trkpt lat="58.696899991482496" lon="12.459453977644444">
        <ele>58.35</ele>
        <time>2025-02-04T23:16:00.002Z</time>
      </trkpt>
      <trkpt lat="58.696866966784" lon="12.459528995677829">
        <ele>58.34</ele>
        <time>2025-02-04T23:16:21.069Z</time>
      </trkpt>
      <trkpt lat="58.696835953742266" lon="12.459607953205705">
        <ele>58.32</ele>
        <time>2025-02-04T23:16:42.136Z</time>
      </trkpt>
      <trkpt lat="58.69680594652891" lon="12.459693951532245">
        <ele>58.3</ele>
        <time>2025-02-04T23:17:03.204Z</time>
      </trkpt>
      <trkpt lat="58.69677593931556" lon="12.459780955687165">
        <ele>58.28</ele>
        <time>2025-02-04T23:17:24.273Z</time>
      </trkpt>
      <trkpt lat="58.696747943758965" lon="12.459867959842086">
        <ele>58.27</ele>
        <time>2025-02-04T23:17:45.343Z</time>
      </trkpt>
      <trkpt lat="58.69672095403075" lon="12.459956975653768">
        <ele>58.26</ele>
        <time>2025-02-04T23:18:06.414Z</time>
      </trkpt>
      <trkpt lat="58.69669295847416" lon="12.46004993095994">
        <ele>58.24</ele>
        <time>2025-02-04T23:18:27.486Z</time>
      </trkpt>
      <trkpt lat="58.696663957089186" lon="12.460146993398666">
        <ele>58.21</ele>
        <time>2025-02-04T23:18:48.559Z</time>
      </trkpt>
      <trkpt lat="58.69663294404745" lon="12.460249923169613">
        <ele>58.19</ele>
        <time>2025-02-04T23:19:09.633Z</time>
      </trkpt>
      <trkpt lat="58.696601931005716" lon="12.460354948416352">
        <ele>58.17</ele>
        <time>2025-02-04T23:19:30.708Z</time>
      </trkpt>
      <trkpt lat="58.69656899012625" lon="12.460463996976614">
        <ele>58.15</ele>
        <time>2025-02-04T23:19:51.784Z</time>
      </trkpt>
      <trkpt lat="58.696534959599376" lon="12.460576985031366">
        <ele>58.13</ele>
        <time>2025-02-04T23:20:12.861Z</time>
      </trkpt>
      <trkpt lat="58.69649598374963" lon="12.460693996399641">
        <ele>58.1</ele>
        <time>2025-02-04T23:20:33.939Z</time>
      </trkpt>
      <trkpt lat="58.69645399041474" lon="12.460814947262406">
        <ele>58.08</ele>
        <time>2025-02-04T23:20:55.018Z</time>
      </trkpt>
      <trkpt lat="58.696405962109566" lon="12.460937993600965">
        <ele>58.05</ele>
        <time>2025-02-04T23:21:16.098Z</time>
      </trkpt>
      <trkpt lat="58.69635298848152" lon="12.461061961948872">
        <ele>58.03</ele>
        <time>2025-02-04T23:21:37.180Z</time>
      </trkpt>
      <trkpt lat="58.696293979883194" lon="12.461189953610301">
        <ele>58.01</ele>
        <time>2025-02-04T23:21:58.263Z</time>
      </trkpt>
      <trkpt lat="58.696232959628105" lon="12.461321968585253">
        <ele>57.98</ele>
        <time>2025-02-04T23:22:19.348Z</time>
      </trkpt>
      <trkpt lat="58.696169927716255" lon="12.461460940539837">
        <ele>57.95</ele>
        <time>2025-02-04T23:22:40.434Z</time>
      </trkpt>
      <trkpt lat="58.696104967966676" lon="12.461603935807943">
        <ele>57.93</ele>
        <time>2025-02-04T23:23:01.522Z</time>
      </trkpt>
      <trkpt lat="58.696036990731955" lon="12.461749948561192">
        <ele>57.89</ele>
        <time>2025-02-04T23:23:22.611Z</time>
      </trkpt>
      <trkpt lat="58.69597094133496" lon="12.46189596131444">
        <ele>57.85</ele>
        <time>2025-02-04T23:23:43.702Z</time>
      </trkpt>
      <trkpt lat="58.69590598158538" lon="12.462039962410927">
        <ele>57.82</ele>
        <time>2025-02-04T23:24:04.795Z</time>
      </trkpt>
      <trkpt lat="58.69583993218839" lon="12.462178934365511">
        <ele>57.79</ele>
        <time>2025-02-04T23:24:25.889Z</time>
      </trkpt>
      <trkpt lat="58.69577497243881" lon="12.462313966825604">
        <ele>57.76</ele>
        <time>2025-02-04T23:24:46.985Z</time>
      </trkpt>
      <trkpt lat="58.69571194052696" lon="12.462446987628937">
        <ele>57.72</ele>
        <time>2025-02-04T23:25:08.082Z</time>
      </trkpt>
      <trkpt lat="58.695651926100254" lon="12.462580930441618">
        <ele>57.69</ele>
        <time>2025-02-04T23:25:29.181Z</time>
      </trkpt>
      <trkpt lat="58.695592917501926" lon="12.46271495707333">
        <ele>57.66</ele>
        <time>2025-02-04T23:25:50.281Z</time>
      </trkpt>
      <trkpt lat="58.69553592056036" lon="12.462847977876663">
        <ele>57.63</ele>
        <time>2025-02-04T23:26:11.383Z</time>
      </trkpt>
      <trkpt lat="58.69547791779041" lon="12.462977981194854">
        <ele>57.59</ele>
        <time>2025-02-04T23:26:32.486Z</time>
      </trkpt>
      <trkpt lat="58.69541899301112" lon="12.463103961199522">
        <ele>57.55</ele>
        <time>2025-02-04T23:26:53.591Z</time>
      </trkpt>
      <trkpt lat="58.69535998441279" lon="12.463227929547429">
        <ele>57.51</ele>
        <time>2025-02-04T23:27:14.697Z</time>
      </trkpt>
      <trkpt lat="58.69529996998608" lon="12.463348964229226">
        <ele>57.47</ele>
        <time>2025-02-04T23:27:35.804Z</time>
      </trkpt>
      <trkpt lat="58.69524096138775" lon="12.463470920920372">
        <ele>57.42</ele>
        <time>2025-02-04T23:27:56.913Z</time>
      </trkpt>
      <trkpt lat="58.69518396444619" lon="12.46359396725893">
        <ele>57.38</ele>
        <time>2025-02-04T23:28:18.023Z</time>
      </trkpt>
      <trkpt lat="58.69512897916138" lon="12.463716929778457">
        <ele>57.34</ele>
        <time>2025-02-04T23:28:39.134Z</time>
      </trkpt>
      <trkpt lat="58.695071982219815" lon="12.463836958631873">
        <ele>57.29</ele>
        <time>2025-02-04T23:29:00.247Z</time>
      </trkpt>
      <trkpt lat="58.69501498527825" lon="12.46395698748529">
        <ele>57.25</ele>
        <time>2025-02-04T23:29:21.361Z</time>
      </trkpt>
      <trkpt lat="58.69495899416506" lon="12.464077938348055">
        <ele>57.21</ele>
        <time>2025-02-04T23:29:42.476Z</time>
      </trkpt>
      <trkpt lat="58.694902919232845" lon="12.464199978858232">
        <ele>57.16</ele>
        <time>2025-02-04T23:30:03.593Z</time>
      </trkpt>
      <trkpt lat="58.69484692811966" lon="12.464320929720998">
        <ele>57.12</ele>
        <time>2025-02-04T23:30:24.711Z</time>
      </trkpt>
      <trkpt lat="58.69479093700647" lon="12.464441964402795">
        <ele>57.08</ele>
        <time>2025-02-04T23:30:45.831Z</time>
      </trkpt>
      <trkpt lat="58.69473293423653" lon="12.46456098742783">
        <ele>57.03</ele>
        <time>2025-02-04T23:31:06.952Z</time>
      </trkpt>
      <trkpt lat="58.6946739256382" lon="12.464680932462215">
        <ele>56.99</ele>
        <time>2025-02-04T23:31:28.074Z</time>
      </trkpt>
      <trkpt lat="58.69461491703987" lon="12.464801967144012">
        <ele>56.94</ele>
        <time>2025-02-04T23:31:49.198Z</time>
      </trkpt>
      <trkpt lat="58.694557920098305" lon="12.464924929663539">
        <ele>56.89</ele>
        <time>2025-02-04T23:32:10.323Z</time>
      </trkpt>
      <trkpt lat="58.69450092315674" lon="12.465047976002097">
        <ele>56.85</ele>
        <time>2025-02-04T23:32:31.449Z</time>
      </trkpt>
      <trkpt lat="58.69444392621517" lon="12.465170938521624">
        <ele>56.8</ele>
        <time>2025-02-04T23:32:52.577Z</time>
      </trkpt>
      <trkpt lat="58.694384917616844" lon="12.465293984860182">
        <ele>56.76</ele>
        <time>2025-02-04T23:33:13.706Z</time>
      </trkpt>
      <trkpt lat="58.69432599283755" lon="12.465413929894567">
        <ele>56.71</ele>
        <time>2025-02-04T23:33:34.837Z</time>
      </trkpt>
      <trkpt lat="58.69426497258246" lon="12.46552993543446">
        <ele>56.65</ele>
        <time>2025-02-04T23:33:55.969Z</time>
      </trkpt>
      <trkpt lat="58.69420194067061" lon="12.465640995651484">
        <ele>56.6</ele>
        <time>2025-02-04T23:34:17.102Z</time>
      </trkpt>
      <trkpt lat="58.69413798674941" lon="12.465751972049475">
        <ele>56.56</ele>
        <time>2025-02-04T23:34:38.237Z</time>
      </trkpt>
      <trkpt lat="58.69407394900918" lon="12.465861942619085">
        <ele>56.51</ele>
        <time>2025-02-04T23:34:59.373Z</time>
      </trkpt>
      <trkpt lat="58.69401091709733" lon="12.465973924845457">
        <ele>56.46</ele>
        <time>2025-02-04T23:35:20.510Z</time>
      </trkpt>
      <trkpt lat="58.69394897483289" lon="12.46608599089086">
        <ele>56.41</ele>
        <time>2025-02-04T23:35:41.649Z</time>
      </trkpt>
      <trkpt lat="58.693887954577804" lon="12.466197973117232">
        <ele>56.36</ele>
        <time>2025-02-04T23:36:02.789Z</time>
      </trkpt>
      <trkpt lat="58.693826934322715" lon="12.466305932030082">
        <ele>56.31</ele>
        <time>2025-02-04T23:36:23.931Z</time>
      </trkpt>
      <trkpt lat="58.69376499205828" lon="12.466412968933582">
        <ele>56.26</ele>
        <time>2025-02-04T23:36:45.074Z</time>
      </trkpt>
      <trkpt lat="58.69370296597481" lon="12.46651891618967">
        <ele>56.21</ele>
        <time>2025-02-04T23:37:06.218Z</time>
      </trkpt>
      <trkpt lat="58.69364093989134" lon="12.46662293560803">
        <ele>56.16</ele>
        <time>2025-02-04T23:37:27.363Z</time>
      </trkpt>
      <trkpt lat="58.69357698597014" lon="12.466723937541246">
        <ele>56.11</ele>
        <time>2025-02-04T23:37:48.510Z</time>
      </trkpt>
      <trkpt lat="58.69351093657315" lon="12.466820999979973">
        <ele>56.06</ele>
        <time>2025-02-04T23:38:09.658Z</time>
      </trkpt>
      <trkpt lat="58.69344295933843" lon="12.466912949457765">
        <ele>56.0</ele>
        <time>2025-02-04T23:38:30.807Z</time>
      </trkpt>
      <trkpt lat="58.693371964618564" lon="12.466998947784305">
        <ele>55.95</ele>
        <time>2025-02-04T23:38:51.958Z</time>
      </trkpt>
      <trkpt lat="58.69329694658518" lon="12.46707396581769">
        <ele>55.91</ele>
        <time>2025-02-04T23:39:13.110Z</time>
      </trkpt>
      <trkpt lat="58.69321991689503" lon="12.467137919738889">
        <ele>55.86</ele>
        <time>2025-02-04T23:39:34.264Z</time>
      </trkpt>
      <trkpt lat="58.69314297102392" lon="12.467194916680455">
        <ele>55.81</ele>
        <time>2025-02-04T23:39:55.419Z</time>
      </trkpt>
      <trkpt lat="58.69306493550539" lon="12.46724596247077">
        <ele>55.77</ele>
        <time>2025-02-04T23:40:16.575Z</time>
      </trkpt>
      <trkpt lat="58.692987989634275" lon="12.467294996604323">
        <ele>55.73</ele>
        <time>2025-02-04T23:40:37.732Z</time>
      </trkpt>
      <trkpt lat="58.69291196577251" lon="12.467340929433703">
        <ele>55.68</ele>
        <time>2025-02-04T23:40:58.891Z</time>
      </trkpt>
      <trkpt lat="58.692835941910744" lon="12.467383928596973">
        <ele>55.64</ele>
        <time>2025-02-04T23:41:20.051Z</time>
      </trkpt>
      <trkpt lat="58.69276192970574" lon="12.467425921931863">
        <ele>55.59</ele>
        <time>2025-02-04T23:41:41.212Z</time>
      </trkpt>
      <trkpt lat="58.692688923329115" lon="12.467468921095133">
        <ele>55.55</ele>
        <time>2025-02-04T23:42:02.375Z</time>
      </trkpt>
      <trkpt lat="58.69261692278087" lon="12.467513931915164">
        <ele>55.5</ele>
        <time>2025-02-04T23:42:23.539Z</time>
      </trkpt>
      <trkpt lat="58.69254492223263" lon="12.467555925250053">
        <ele>55.46</ele>
        <time>2025-02-04T23:42:44.704Z</time>
      </trkpt>
      <trkpt lat="58.692473927512765" lon="12.467597918584943">
        <ele>55.41</ele>
        <time>2025-02-04T23:43:05.870Z</time>
      </trkpt>
      <trkpt lat="58.6924029327929" lon="12.467640917748213">
        <ele>55.36</ele>
        <time>2025-02-04T23:43:27.037Z</time>
      </trkpt>
      <trkpt lat="58.69233193807304" lon="12.467683916911483">
        <ele>55.32</ele>
        <time>2025-02-04T23:43:48.206Z</time>
      </trkpt>
      <trkpt lat="58.69226295500994" lon="12.467724988237023">
        <ele>55.27</ele>
        <time>2025-02-04T23:44:09.376Z</time>
      </trkpt>
      <trkpt lat="58.692193971946836" lon="12.467765975743532">
        <ele>55.23</ele>
        <time>2025-02-04T23:44:30.547Z</time>
      </trkpt>
      <trkpt lat="58.692125994712114" lon="12.467807969078422">
        <ele>55.19</ele>
        <time>2025-02-04T23:44:51.719Z</time>
      </trkpt>
      <trkpt lat="58.6920609511435" lon="12.46784795075655">
        <ele>55.15</ele>
        <time>2025-02-04T23:45:12.892Z</time>
      </trkpt>
      <trkpt lat="58.691999930888414" lon="12.467882987111807">
        <ele>55.11</ele>
        <time>2025-02-04T23:45:34.066Z</time>
      </trkpt>
      <trkpt lat="58.69194494560361" lon="12.46791492216289">
        <ele>55.07</ele>
        <time>2025-02-04T23:45:55.241Z</time>
      </trkpt>
      <trkpt lat="58.6918989289552" lon="12.467935960739851">
        <ele>55.03</ele>
        <time>2025-02-04T23:46:16.417Z</time>
      </trkpt>
      <trkpt lat="58.69186498224735" lon="12.467940989881754">
        <ele>54.99</ele>
        <time>2025-02-04T23:46:37.593Z</time>
      </trkpt>
      <trkpt lat="58.69184595532715" lon="12.467943923547864">
        <ele>54.95</ele>
        <time>2025-02-04T23:46:58.770Z</time>
      </trkpt>
      <trkpt lat="58.69183992035687" lon="12.467945935204625">
        <ele>54.91</ele>
        <time>2025-02-04T23:47:19.947Z</time>
      </trkpt>
      <trkpt lat="58.69183992035687" lon="12.467946941033006">
        <ele>54.87</ele>
        <time>2025-02-04T23:47:41.124Z</time>
      </trkpt>
      <trkpt lat="58.69181192480028" lon="12.467962950468063">
        <ele>54.83</ele>
        <time>2025-02-04T23:48:02.301Z</time>
      </trkpt>
      <trkpt lat="58.691804967820644" lon="12.467966973781586">
        <ele>54.79</ele>
        <time>2025-02-04T23:48:23.478Z</time>
      </trkpt>
      <trkpt lat="58.69180295616388" lon="12.467967979609966">
        <ele>54.75</ele>
        <time>2025-02-04T23:48:44.655Z</time>
      </trkpt>
      <trkpt lat="58.691803961992264" lon="12.467966973781586">
        <ele>54.72</ele>
        <time>2025-02-04T23:49:05.832Z</time>
      </trkpt>
      <trkpt lat="58.69176993146539" lon="12.467994969338179">
        <ele>54.68</ele>
        <time>2025-02-04T23:49:27.010Z</time>
      </trkpt>
      <trkpt lat="58.69174897670746" lon="12.468012990429997">
        <ele>54.64</ele>
        <time>2025-02-04T23:49:48.188Z</time>
      </trkpt>
      <trkpt lat="58.69172299280763" lon="12.468032939359546">
        <ele>54.61</ele>
        <time>2025-02-04T23:50:09.367Z</time>
      </trkpt>
      <trkpt lat="58.69169197976589" lon="12.468052972108126">
        <ele>54.57</ele>
        <time>2025-02-04T23:50:30.546Z</time>
      </trkpt>
      <trkpt lat="58.691656943410635" lon="12.468075938522816">
        <ele>54.53</ele>
        <time>2025-02-04T23:50:51.726Z</time>
      </trkpt>
      <trkpt lat="58.69161897338927" lon="12.468101922422647">
        <ele>54.5</ele>
        <time>2025-02-04T23:51:12.907Z</time>
      </trkpt>
      <trkpt lat="58.69158192537725" lon="12.46812698431313">
        <ele>54.47</ele>
        <time>2025-02-04T23:51:34.088Z</time>
      </trkpt>
      <trkpt lat="58.69154395535588" lon="12.468150956556201">
        <ele>54.43</ele>
        <time>2025-02-04T23:51:55.270Z</time>
      </trkpt>
      <trkpt lat="58.691504979506135" lon="12.468173922970891">
        <ele>54.4</ele>
        <time>2025-02-04T23:52:16.452Z</time>
      </trkpt>
      <trkpt lat="58.691463991999626" lon="12.468195967376232">
        <ele>54.37</ele>
        <time>2025-02-04T23:52:37.635Z</time>
      </trkpt>
      <trkpt lat="58.691420992836356" lon="12.468218933790922">
        <ele>54.33</ele>
        <time>2025-02-04T23:52:58.819Z</time>
      </trkpt>
      <trkpt lat="58.691374976187944" lon="12.468242989853024">
        <ele>54.3</ele>
        <time>2025-02-04T23:53:20.004Z</time>
      </trkpt>
      <trkpt lat="58.69132895953953" lon="12.468269979581237">
        <ele>54.27</ele>
        <time>2025-02-04T23:53:41.189Z</time>
      </trkpt>
      <trkpt lat="58.69127992540598" lon="12.46829696930945">
        <ele>54.23</ele>
        <time>2025-02-04T23:54:02.375Z</time>
      </trkpt>
      <trkpt lat="58.691227957606316" lon="12.468324964866042">
        <ele>54.2</ele>
        <time>2025-02-04T23:54:23.562Z</time>
      </trkpt>
      <trkpt lat="58.69117297232151" lon="12.468357989564538">
        <ele>54.17</ele>
        <time>2025-02-04T23:54:44.750Z</time>
      </trkpt>
      <trkpt lat="58.69111396372318" lon="12.468392942100763">
        <ele>54.14</ele>
        <time>2025-02-04T23:55:05.939Z</time>
      </trkpt>
      <trkpt lat="58.69105193763971" lon="12.46842797845602">
        <ele>54.11</ele>
        <time>2025-02-04T23:55:27.129Z</time>
      </trkpt>
      <trkpt lat="58.690986977890134" lon="12.468463936820626">
        <ele>54.09</ele>
        <time>2025-02-04T23:55:48.320Z</time>
      </trkpt>
      <trkpt lat="58.69092092849314" lon="12.468501990661025">
        <ele>54.07</ele>
        <time>2025-02-04T23:56:09.512Z</time>
      </trkpt>
      <trkpt lat="58.6908539570868" lon="12.468541972339153">
        <ele>54.04</ele>
        <time>2025-02-04T23:56:30.705Z</time>
      </trkpt>
      <trkpt lat="58.69078597985208" lon="12.468580948188901">
        <ele>54.01</ele>
        <time>2025-02-04T23:56:51.899Z</time>
      </trkpt>
      <trkpt lat="58.69071699678898" lon="12.46862092986703">
        <ele>53.98</ele>
        <time>2025-02-04T23:57:13.095Z</time>
      </trkpt>
      <trkpt lat="58.690646924078465" lon="12.46866099536419">
        <ele>53.95</ele>
        <time>2025-02-04T23:57:34.292Z</time>
      </trkpt>
      <trkpt lat="58.69057794101536" lon="12.468701982870698">
        <ele>53.93</ele>
        <time>2025-02-04T23:57:55.490Z</time>
      </trkpt>
      <trkpt lat="58.6905069462955" lon="12.468743976205587">
        <ele>53.91</ele>
        <time>2025-02-04T23:58:16.689Z</time>
      </trkpt>
      <trkpt lat="58.69043695740402" lon="12.468784963712096">
        <ele>53.88</ele>
        <time>2025-02-04T23:58:37.889Z</time>
      </trkpt>
      <trkpt lat="58.690365962684155" lon="12.468824945390224">
        <ele>53.86</ele>
        <time>2025-02-04T23:58:59.091Z</time>
      </trkpt>
      <trkpt lat="58.69029597379267" lon="12.468866938725114">
        <ele>53.83</ele>
        <time>2025-02-04T23:59:20.294Z</time>
      </trkpt>
      <trkpt lat="58.69022699072957" lon="12.468908932060003">
        <ele>53.81</ele>
        <time>2025-02-04T23:59:41.498Z</time>
      </trkpt>
      <trkpt lat="58.69016094133258" lon="12.468949919566512">
        <ele>53.79</ele>
        <time>2025-02-05T00:00:02.703Z</time>
      </trkpt>
      <trkpt lat="58.690095981583" lon="12.468990990892053">
        <ele>53.77</ele>
        <time>2025-02-05T00:00:23.909Z</time>
      </trkpt>
      <trkpt lat="58.69003294967115" lon="12.469030972570181">
        <ele>53.75</ele>
        <time>2025-02-05T00:00:45.116Z</time>
      </trkpt>
      <trkpt lat="58.68997192941606" lon="12.469067936763167">
        <ele>53.73</ele>
        <time>2025-02-05T00:01:06.324Z</time>
      </trkpt>
      <trkpt lat="58.689911998808384" lon="12.469102973118424">
        <ele>53.71</ele>
        <time>2025-02-05T00:01:27.533Z</time>
      </trkpt>
      <trkpt lat="58.689854918047786" lon="12.46913893148303">
        <ele>53.69</ele>
        <time>2025-02-05T00:01:48.743Z</time>
      </trkpt>
      <trkpt lat="58.6897989269346" lon="12.469175979495049">
        <ele>53.68</ele>
        <time>2025-02-05T00:02:09.954Z</time>
      </trkpt>
      <trkpt lat="58.689744947478175" lon="12.469210932031274">
        <ele>53.66</ele>
        <time>2025-02-05T00:02:31.166Z</time>
      </trkpt>
      <trkpt lat="58.68969096802175" lon="12.469241945073009">
        <ele>53.65</ele>
        <time>2025-02-05T00:02:52.379Z</time>
      </trkpt>
      <trkpt lat="58.689638916403055" lon="12.469272958114743">
        <ele>53.63</ele>
        <time>2025-02-05T00:03:13.593Z</time>
      </trkpt>
      <trkpt lat="58.68958795443177" lon="12.469303971156478">
        <ele>53.62</ele>
        <time>2025-02-05T00:03:34.808Z</time>
      </trkpt>
      <trkpt lat="58.68953892029822" lon="12.469332972541451">
        <ele>53.6</ele>
        <time>2025-02-05T00:03:56.023Z</time>
      </trkpt>
      <trkpt lat="58.6894899699837" lon="12.469363985583186">
        <ele>53.58</ele>
        <time>2025-02-05T00:04:17.239Z</time>
      </trkpt>
      <trkpt lat="58.689443953335285" lon="12.46939692646265">
        <ele>53.57</ele>
        <time>2025-02-05T00:04:38.456Z</time>
      </trkpt>
      <trkpt lat="58.689399948343635" lon="12.469429951161146">
        <ele>53.55</ele>
        <time>2025-02-05T00:04:59.674Z</time>
      </trkpt>
      <trkpt lat="58.6893549375236" lon="12.4694599583745">
        <ele>53.54</ele>
        <time>2025-02-05T00:05:20.893Z</time>
      </trkpt>
      <trkpt lat="58.68930892087519" lon="12.469487953931093">
        <ele>53.53</ele>
        <time>2025-02-05T00:05:42.112Z</time>
      </trkpt>
      <trkpt lat="58.68926097638905" lon="12.469516955316067">
        <ele>53.52</ele>
        <time>2025-02-05T00:06:03.332Z</time>
      </trkpt>
      <trkpt lat="58.68921395391226" lon="12.469548974186182">
        <ele>53.5</ele>
        <time>2025-02-05T00:06:24.553Z</time>
      </trkpt>
      <trkpt lat="58.689166931435466" lon="12.469582920894027">
        <ele>53.49</ele>
        <time>2025-02-05T00:06:45.775Z</time>
      </trkpt>
      <trkpt lat="58.689117981120944" lon="12.469614939764142">
        <ele>53.48</ele>
        <time>2025-02-05T00:07:06.998Z</time>
      </trkpt>
      <trkpt lat="58.68906794115901" lon="12.469645952805877">
        <ele>53.47</ele>
        <time>2025-02-05T00:07:28.221Z</time>
      </trkpt>
      <trkpt lat="58.68901697918773" lon="12.469679983332753">
        <ele>53.46</ele>
        <time>2025-02-05T00:07:49.445Z</time>
      </trkpt>
      <trkpt lat="58.68896492756903" lon="12.46971694752574">
        <ele>53.45</ele>
        <time>2025-02-05T00:08:10.670Z</time>
      </trkpt>
      <trkpt lat="58.68891195394099" lon="12.469753995537758">
        <ele>53.44</ele>
        <time>2025-02-05T00:08:31.896Z</time>
      </trkpt>
      <trkpt lat="58.6888559628278" lon="12.469791965559125">
        <ele>53.44</ele>
        <time>2025-02-05T00:08:53.123Z</time>
      </trkpt>
      <trkpt lat="58.688799971714616" lon="12.469831947237253">
        <ele>53.43</ele>
        <time>2025-02-05T00:09:14.351Z</time>
      </trkpt>
      <trkpt lat="58.68874398060143" lon="12.469876958057284">
        <ele>53.42</ele>
        <time>2025-02-05T00:09:35.580Z</time>
      </trkpt>
      <trkpt lat="58.68868597783148" lon="12.469920963048935">
        <ele>53.42</ele>
        <time>2025-02-05T00:09:56.810Z</time>
      </trkpt>
      <trkpt lat="58.688625963404775" lon="12.469964968040586">
        <ele>53.41</ele>
        <time>2025-02-05T00:10:18.041Z</time>
      </trkpt>
      <trkpt lat="58.688562931492925" lon="12.470005955547094">
        <ele>53.41</ele>
        <time>2025-02-05T00:10:39.273Z</time>
      </trkpt>
      <trkpt lat="58.68850098922849" lon="12.470048954710364">
        <ele>53.4</ele>
        <time>2025-02-05T00:11:00.506Z</time>
      </trkpt>
      <trkpt lat="58.68843795731664" lon="12.470092959702015">
        <ele>53.4</ele>
        <time>2025-02-05T00:11:21.740Z</time>
      </trkpt>
      <trkpt lat="58.68837391957641" lon="12.470138976350427">
        <ele>53.4</ele>
        <time>2025-02-05T00:11:42.975Z</time>
      </trkpt>
      <trkpt lat="58.68830895982683" lon="12.470186920836568">
        <ele>53.4</ele>
        <time>2025-02-05T00:12:04.211Z</time>
      </trkpt>
      <trkpt lat="58.68824198842049" lon="12.470231931656599">
        <ele>53.4</ele>
        <time>2025-02-05T00:12:25.449Z</time>
      </trkpt>
      <trkpt lat="58.68817292153835" lon="12.47027694247663">
        <ele>53.4</ele>
        <time>2025-02-05T00:12:46.688Z</time>
      </trkpt>
      <trkpt lat="58.68810192681849" lon="12.470322959125042">
        <ele>53.41</ele>
        <time>2025-02-05T00:13:07.928Z</time>
      </trkpt>
      <trkpt lat="58.68803093209863" lon="12.470371993258595">
        <ele>53.41</ele>
        <time>2025-02-05T00:13:29.169Z</time>
      </trkpt>
      <trkpt lat="58.687958931550384" lon="12.470422955229878">
        <ele>53.41</ele>
        <time>2025-02-05T00:13:50.411Z</time>
      </trkpt>
      <trkpt lat="58.68788693100214" lon="12.470471989363432">
        <ele>53.41</ele>
        <time>2025-02-05T00:14:11.655Z</time>
      </trkpt>
      <trkpt lat="58.687813924625516" lon="12.470520939677954">
        <ele>53.41</ele>
        <time>2025-02-05T00:14:32.900Z</time>
      </trkpt>
      <trkpt lat="58.68773999623954" lon="12.470572991296649">
        <ele>53.4</ele>
        <time>2025-02-05T00:14:54.146Z</time>
      </trkpt>
      <trkpt lat="58.68766598403454" lon="12.470624959096313">
        <ele>53.4</ele>
        <time>2025-02-05T00:15:15.393Z</time>
      </trkpt>
      <trkpt lat="58.687591971829534" lon="12.470678938552737">
        <ele>53.4</ele>
        <time>2025-02-05T00:15:36.642Z</time>
      </trkpt>
      <trkpt lat="58.68751695379615" lon="12.470731995999813">
        <ele>53.4</ele>
        <time>2025-02-05T00:15:57.892Z</time>
      </trkpt>
      <trkpt lat="58.687442941591144" lon="12.470784969627857">
        <ele>53.4</ele>
        <time>2025-02-05T00:16:19.143Z</time>
      </trkpt>
      <trkpt lat="58.68736892938614" lon="12.47083593159914">
        <ele>53.41</ele>
        <time>2025-02-05T00:16:40.395Z</time>
      </trkpt>
      <trkpt lat="58.687293995171785" lon="12.470889994874597">
        <ele>53.41</ele>
        <time>2025-02-05T00:17:01.649Z</time>
      </trkpt>
      <trkpt lat="58.6872189771384" lon="12.470944980159402">
        <ele>53.41</ele>
        <time>2025-02-05T00:17:22.904Z</time>
      </trkpt>
      <trkpt lat="58.687143959105015" lon="12.470999965444207">
        <ele>53.41</ele>
        <time>2025-02-05T00:17:44.160Z</time>
      </trkpt>
      <trkpt lat="58.68706793524325" lon="12.47105193324387">
        <ele>53.42</ele>
        <time>2025-02-05T00:18:05.418Z</time>
      </trkpt>
      <trkpt lat="58.686991995200515" lon="12.471105996519327">
        <ele>53.43</ele>
        <time>2025-02-05T00:18:26.677Z</time>
      </trkpt>
      <trkpt lat="58.68691597133875" lon="12.471159975975752">
        <ele>53.43</ele>
        <time>2025-02-05T00:18:47.937Z</time>
      </trkpt>
      <trkpt lat="58.68683994747698" lon="12.471215967088938">
        <ele>53.43</ele>
        <time>2025-02-05T00:19:09.199Z</time>
      </trkpt>
      <trkpt lat="58.68676291778684" lon="12.471270952373743">
        <ele>53.43</ele>
        <time>2025-02-05T00:19:30.462Z</time>
      </trkpt>
      <trkpt lat="58.68668396025896" lon="12.471323926001787">
        <ele>53.44</ele>
        <time>2025-02-05T00:19:51.726Z</time>
      </trkpt>
      <trkpt lat="58.68660491891205" lon="12.471374971792102">
        <ele>53.44</ele>
        <time>2025-02-05T00:20:12.992Z</time>
      </trkpt>
      <trkpt lat="58.6865249555558" lon="12.471422916278243">
        <ele>53.45</ele>
        <time>2025-02-05T00:20:34.259Z</time>
      </trkpt>
      <trkpt lat="58.68644298054278" lon="12.471467927098274">
        <ele>53.46</ele>
        <time>2025-02-05T00:20:55.527Z</time>
      </trkpt>
      <trkpt lat="58.68635999970138" lon="12.471509920433164">
        <ele>53.46</ele>
        <time>2025-02-05T00:21:16.797Z</time>
      </trkpt>
      <trkpt lat="58.68627592921257" lon="12.471548980101943">
        <ele>53.47</ele>
        <time>2025-02-05T00:21:38.068Z</time>
      </trkpt>
      <trkpt lat="58.68618993088603" lon="12.471583932638168">
        <ele>53.48</ele>
        <time>2025-02-05T00:21:59.340Z</time>
      </trkpt>
      <trkpt lat="58.68610099889338" lon="12.47161092236638">
        <ele>53.49</ele>
        <time>2025-02-05T00:22:20.614Z</time>
      </trkpt>
      <trkpt lat="58.68600997142494" lon="12.47163095511496">
        <ele>53.5</ele>
        <time>2025-02-05T00:22:41.889Z</time>
      </trkpt>
      <trkpt lat="58.68591693229973" lon="12.471644952893257">
        <ele>53.51</ele>
        <time>2025-02-05T00:23:03.166Z</time>
      </trkpt>
      <trkpt lat="58.68582297116518" lon="12.471652999520302">
        <ele>53.52</ele>
        <time>2025-02-05T00:23:24.444Z</time>
      </trkpt>
      <trkpt lat="58.685728926211596" lon="12.471656939014792">
        <ele>53.53</ele>
        <time>2025-02-05T00:23:45.724Z</time>
      </trkpt>
      <trkpt lat="58.68563496507704" lon="12.471657944843173">
        <ele>53.54</ele>
        <time>2025-02-05T00:24:07.005Z</time>
      </trkpt>
      <trkpt lat="58.68554192595184" lon="12.471654927358031">
        <ele>53.55</ele>
        <time>2025-02-05T00:24:28.288Z</time>
      </trkpt>
      <trkpt lat="58.68544997647405" lon="12.47164897620678">
        <ele>53.56</ele>
        <time>2025-02-05T00:24:49.572Z</time>
      </trkpt>
      <trkpt lat="58.685358949005604" lon="12.471641935408115">
        <ele>53.57</ele>
        <time>2025-02-05T00:25:10.858Z</time>
      </trkpt>
      <trkpt lat="58.6852709390223" lon="12.471633972600102">
        <ele>53.58</ele>
        <time>2025-02-05T00:25:32.145Z</time>
      </trkpt>
      <trkpt lat="58.68518393486738" lon="12.471622992306948">
        <ele>53.59</ele>
        <time>2025-02-05T00:25:53.434Z</time>
      </trkpt>
      <trkpt lat="58.685100954025984" lon="12.471612934023142">
        <ele>53.59</ele>
        <time>2025-02-05T00:26:14.724Z</time>
      </trkpt>
      <trkpt lat="58.685018979012966" lon="12.471601953729987">
        <ele>53.6</ele>
        <time>2025-02-05T00:26:36.015Z</time>
      </trkpt>
      <trkpt lat="58.68493893183768" lon="12.471590973436832">
        <ele>53.61</ele>
        <time>2025-02-05T00:26:57.308Z</time>
      </trkpt>
      <trkpt lat="58.68486098013818" lon="12.471578987315297">
        <ele>53.61</ele>
        <time>2025-02-05T00:27:18.602Z</time>
      </trkpt>
      <trkpt lat="58.684783950448036" lon="12.47156398370862">
        <ele>53.62</ele>
        <time>2025-02-05T00:27:39.897Z</time>
      </trkpt>
      <trkpt lat="58.68470792658627" lon="12.471548980101943">
        <ele>53.62</ele>
        <time>2025-02-05T00:28:01.193Z</time>
      </trkpt>
      <trkpt lat="58.684631986543536" lon="12.471534982323647">
        <ele>53.63</ele>
        <time>2025-02-05T00:28:22.490Z</time>
      </trkpt>
      <trkpt lat="58.68455596268177" lon="12.47151997871697">
        <ele>53.63</ele>
        <time>2025-02-05T00:28:43.789Z</time>
      </trkpt>
      <trkpt lat="58.684478932991624" lon="12.471504975110292">
        <ele>53.64</ele>
        <time>2025-02-05T00:29:05.089Z</time>
      </trkpt>
      <trkpt lat="58.68440299294889" lon="12.471489971503615">
        <ele>53.64</ele>
        <time>2025-02-05T00:29:26.390Z</time>
      </trkpt>
      <trkpt lat="58.68432596325874" lon="12.471475973725319">
        <ele>53.64</ele>
        <time>2025-02-05T00:29:47.692Z</time>
      </trkpt>
      <trkpt lat="58.6842489335686" lon="12.471462981775403">
        <ele>53.65</ele>
        <time>2025-02-05T00:30:08.996Z</time>
      </trkpt>
      <trkpt lat="58.68417198769748" lon="12.471447978168726">
        <ele>53.65</ele>
        <time>2025-02-05T00:30:30.301Z</time>
      </trkpt>
      <trkpt lat="58.684094958007336" lon="12.471432974562049">
        <ele>53.65</ele>
        <time>2025-02-05T00:30:51.607Z</time>
      </trkpt>
      <trkpt lat="58.68401591666043" lon="12.471418976783752">
        <ele>53.65</ele>
        <time>2025-02-05T00:31:12.914Z</time>
      </trkpt>
      <trkpt lat="58.68393796496093" lon="12.471406990662217">
        <ele>53.66</ele>
        <time>2025-02-05T00:31:34.223Z</time>
      </trkpt>
      <trkpt lat="58.683858923614025" lon="12.471393998712301">
        <ele>53.66</ele>
        <time>2025-02-05T00:31:55.533Z</time>
      </trkpt>
      <trkpt lat="58.68377996608615" lon="12.471379917114973">
        <ele>53.66</ele>
        <time>2025-02-05T00:32:16.844Z</time>
      </trkpt>
      <trkpt lat="58.68369991891086" lon="12.471365919336677">
        <ele>53.66</ele>
        <time>2025-02-05T00:32:38.156Z</time>
      </trkpt>
      <trkpt lat="58.683619955554605" lon="12.47134999372065">
        <ele>53.66</ele>
        <time>2025-02-05T00:32:59.470Z</time>
      </trkpt>
      <trkpt lat="58.68353999219835" lon="12.471335995942354">
        <ele>53.66</ele>
        <time>2025-02-05T00:33:20.785Z</time>
      </trkpt>
      <trkpt lat="58.68345893919468" lon="12.471324931830168">
        <ele>53.66</ele>
        <time>2025-02-05T00:33:42.101Z</time>
      </trkpt>
      <trkpt lat="58.68337897583842" lon="12.471312945708632">
        <ele>53.67</ele>
        <time>2025-02-05T00:34:03.419Z</time>
      </trkpt>
      <trkpt lat="58.683297922834754" lon="12.471299953758717">
        <ele>53.67</ele>
        <time>2025-02-05T00:34:24.738Z</time>
      </trkpt>
      <trkpt lat="58.68321695365012" lon="12.471288973465562">
        <ele>53.67</ele>
        <time>2025-02-05T00:34:46.058Z</time>
      </trkpt>
      <trkpt lat="58.68313397280872" lon="12.471278999000788">
        <ele>53.67</ele>
        <time>2025-02-05T00:35:07.380Z</time>
      </trkpt>
      <trkpt lat="58.6830519977957" lon="12.471268940716982">
        <ele>53.67</ele>
        <time>2025-02-05T00:35:28.703Z</time>
      </trkpt>
      <trkpt lat="58.68297195062041" lon="12.471260977908969">
        <ele>53.68</ele>
        <time>2025-02-05T00:35:50.027Z</time>
      </trkpt>
      <trkpt lat="58.68289299309254" lon="12.471256954595447">
        <ele>53.68</ele>
        <time>2025-02-05T00:36:11.352Z</time>
      </trkpt>
      <trkpt lat="58.68281294591725" lon="12.471251925453544">
        <ele>53.68</ele>
        <time>2025-02-05T00:36:32.679Z</time>
      </trkpt>
      <trkpt lat="58.68273499421775" lon="12.47124295681715">
        <ele>53.67</ele>
        <time>2025-02-05T00:36:54.007Z</time>
      </trkpt>
      <trkpt lat="58.68265796452761" lon="12.471236921846867">
        <ele>53.67</ele>
        <time>2025-02-05T00:37:15.336Z</time>
      </trkpt>
      <trkpt lat="58.68258093483746" lon="12.471231976523995">
        <ele>53.67</ele>
        <time>2025-02-05T00:37:36.666Z</time>
      </trkpt>
      <trkpt lat="58.682503988966346" lon="12.471228959038854">
        <ele>53.66</ele>
        <time>2025-02-05T00:37:57.998Z</time>
      </trkpt>
      <trkpt lat="58.68242394179106" lon="12.471229964867234">
        <ele>53.65</ele>
        <time>2025-02-05T00:38:19.331Z</time>
      </trkpt>
      <trkpt lat="58.68234297260642" lon="12.471230970695615">
        <ele>53.64</ele>
        <time>2025-02-05T00:38:40.665Z</time>
      </trkpt>
      <trkpt lat="58.6822609975934" lon="12.471233988180757">
        <ele>53.62</ele>
        <time>2025-02-05T00:39:02.001Z</time>
      </trkpt>
      <trkpt lat="58.68217592127621" lon="12.471237927675247">
        <ele>53.6</ele>
        <time>2025-02-05T00:39:23.338Z</time>
      </trkpt>
      <trkpt lat="58.68208992294967" lon="12.471244968473911">
        <ele>53.59</ele>
        <time>2025-02-05T00:39:44.676Z</time>
      </trkpt>
      <trkpt lat="58.68200493045151" lon="12.471256954595447">
        <ele>53.57</ele>
        <time>2025-02-05T00:40:06.016Z</time>
      </trkpt>
      <trkpt lat="58.68191792629659" lon="12.471269946545362">
        <ele>53.55</ele>
        <time>2025-02-05T00:40:27.357Z</time>
      </trkpt>
      <trkpt lat="58.68183092214167" lon="12.471283944323659">
        <ele>53.53</ele>
        <time>2025-02-05T00:40:48.700Z</time>
      </trkpt>
      <trkpt lat="58.68174199014902" lon="12.471296936273575">
        <ele>53.51</ele>
        <time>2025-02-05T00:41:10.044Z</time>
      </trkpt>
      <trkpt lat="58.68165096268058" lon="12.471310934051871">
        <ele>53.5</ele>
        <time>2025-02-05T00:41:31.389Z</time>
      </trkpt>
      <trkpt lat="58.681558929383755" lon="12.471324931830168">
        <ele>53.49</ele>
        <time>2025-02-05T00:41:52.736Z</time>
      </trkpt>
      <trkpt lat="58.68146597407758" lon="12.471337923780084">
        <ele>53.48</ele>
        <time>2025-02-05T00:42:14.084Z</time>
      </trkpt>
      <trkpt lat="58.68137394078076" lon="12.47134999372065">
        <ele>53.47</ele>
        <time>2025-02-05T00:42:35.434Z</time>
      </trkpt>
      <trkpt lat="58.68128199130297" lon="12.471362985670567">
        <ele>53.47</ele>
        <time>2025-02-05T00:42:56.785Z</time>
      </trkpt>
      <trkpt lat="58.681189958006144" lon="12.471375977620482">
        <ele>53.46</ele>
        <time>2025-02-05T00:43:18.138Z</time>
      </trkpt>
      <trkpt lat="58.68109792470932" lon="12.471387963742018">
        <ele>53.45</ele>
        <time>2025-02-05T00:43:39.492Z</time>
      </trkpt>
      <trkpt lat="58.68100496940315" lon="12.471400955691934">
        <ele>53.44</ele>
        <time>2025-02-05T00:44:00.848Z</time>
      </trkpt>
      <trkpt lat="58.68091092444956" lon="12.47141495347023">
        <ele>53.42</ele>
        <time>2025-02-05T00:44:22.205Z</time>
      </trkpt>
      <trkpt lat="58.68081796914339" lon="12.471430962905288">
        <ele>53.42</ele>
        <time>2025-02-05T00:44:43.564Z</time>
      </trkpt>
      <trkpt lat="58.68072493001819" lon="12.471444960683584">
        <ele>53.41</ele>
        <time>2025-02-05T00:45:04.924Z</time>
      </trkpt>
      <trkpt lat="58.680630968883634" lon="12.4714579526335">
        <ele>53.4</ele>
        <time>2025-02-05T00:45:26.286Z</time>
      </trkpt>
      <trkpt lat="58.68053792975843" lon="12.471472956240177">
        <ele>53.39</ele>
        <time>2025-02-05T00:45:47.649Z</time>
      </trkpt>
      <trkpt lat="58.68044598028064" lon="12.471486954018474">
        <ele>53.39</ele>
        <time>2025-02-05T00:46:09.014Z</time>
      </trkpt>
      <trkpt lat="58.680354952812195" lon="12.47150095179677">
        <ele>53.38</ele>
        <time>2025-02-05T00:46:30.380Z</time>
      </trkpt>
      <trkpt lat="58.68026392534375" lon="12.471514949575067">
        <ele>53.38</ele>
        <time>2025-02-05T00:46:51.748Z</time>
      </trkpt>
      <trkpt lat="58.68017398752272" lon="12.471527941524982">
        <ele>53.38</ele>
        <time>2025-02-05T00:47:13.117Z</time>
      </trkpt>
      <trkpt lat="58.68008497171104" lon="12.471539927646518">
        <ele>53.38</ele>
        <time>2025-02-05T00:47:34.488Z</time>
      </trkpt>
      <trkpt lat="58.67999696172774" lon="12.471549985930324">
        <ele>53.38</ele>
        <time>2025-02-05T00:47:55.860Z</time>
      </trkpt>
      <trkpt lat="58.67990995757282" lon="12.471559960395098">
        <ele>53.37</ele>
        <time>2025-02-05T00:48:17.233Z</time>
      </trkpt>
      <trkpt lat="58.67982395924628" lon="12.471569934859872">
        <ele>53.37</ele>
        <time>2025-02-05T00:48:38.608Z</time>
      </trkpt>
      <trkpt lat="58.67973896674812" lon="12.471580998972058">
        <ele>53.37</ele>
        <time>2025-02-05T00:48:59.984Z</time>
      </trkpt>
      <trkpt lat="58.67965598590672" lon="12.471592985093594">
        <ele>53.36</ele>
        <time>2025-02-05T00:49:21.361Z</time>
      </trkpt>
      <trkpt lat="58.67957292124629" lon="12.471604971215129">
        <ele>53.36</ele>
        <time>2025-02-05T00:49:42.740Z</time>
      </trkpt>
      <trkpt lat="58.679492957890034" lon="12.471616957336664">
        <ele>53.36</ele>
        <time>2025-02-05T00:50:04.120Z</time>
      </trkpt>
      <trkpt lat="58.6794119887054" lon="12.4716289434582">
        <ele>53.36</ele>
        <time>2025-02-05T00:50:25.501Z</time>
      </trkpt>
      <trkpt lat="58.67933194153011" lon="12.471642941236496">
        <ele>53.36</ele>
        <time>2025-02-05T00:50:46.884Z</time>
      </trkpt>
      <trkpt lat="58.67925197817385" lon="12.471654927358031">
        <ele>53.35</ele>
        <time>2025-02-05T00:51:08.268Z</time>
      </trkpt>
      <trkpt lat="58.679172936826944" lon="12.471664985641837">
        <ele>53.35</ele>
        <time>2025-02-05T00:51:29.653Z</time>
      </trkpt>
      <trkpt lat="58.67909498512745" lon="12.47167194262147">
        <ele>53.35</ele>
        <time>2025-02-05T00:51:51.040Z</time>
      </trkpt>
      <trkpt lat="58.67901694960892" lon="12.471682922914624">
        <ele>53.34</ele>
        <time>2025-02-05T00:52:12.428Z</time>
      </trkpt>
      <trkpt lat="58.678939919918776" lon="12.47169298119843">
        <ele>53.34</ele>
        <time>2025-02-05T00:52:33.817Z</time>
      </trkpt>
      <trkpt lat="58.67886297404766" lon="12.471703961491585">
        <ele>53.34</ele>
        <time>2025-02-05T00:52:55.207Z</time>
      </trkpt>
      <trkpt lat="58.678785944357514" lon="12.47171494178474">
        <ele>53.34</ele>
        <time>2025-02-05T00:53:16.598Z</time>
      </trkpt>
      <trkpt lat="58.6787089984864" lon="12.471725922077894">
        <ele>53.35</ele>
        <time>2025-02-05T00:53:37.991Z</time>
      </trkpt>
      <trkpt lat="58.67863196879625" lon="12.47173698619008">
        <ele>53.35</ele>
        <time>2025-02-05T00:53:59.385Z</time>
      </trkpt>
      <trkpt lat="58.67855594493449" lon="12.471748972311616">
        <ele>53.36</ele>
        <time>2025-02-05T00:54:20.780Z</time>
      </trkpt>
      <trkpt lat="58.67847992107272" lon="12.471761964261532">
        <ele>53.36</ele>
        <time>2025-02-05T00:54:42.176Z</time>
      </trkpt>
      <trkpt lat="58.67840398102999" lon="12.471772944554687">
        <ele>53.37</ele>
        <time>2025-02-05T00:55:03.574Z</time>
      </trkpt>
      <trkpt lat="58.67832795716822" lon="12.47178291901946">
        <ele>53.38</ele>
        <time>2025-02-05T00:55:24.973Z</time>
      </trkpt>
      <trkpt lat="58.678251933306456" lon="12.471791971474886">
        <ele>53.38</ele>
        <time>2025-02-05T00:55:46.373Z</time>
      </trkpt>
      <trkpt lat="58.67817498743534" lon="12.471803957596421">
        <ele>53.39</ele>
        <time>2025-02-05T00:56:07.774Z</time>
      </trkpt>
      <trkpt lat="58.678096951916814" lon="12.471816949546337">
        <ele>53.39</ele>
        <time>2025-02-05T00:56:29.177Z</time>
      </trkpt>
      <trkpt lat="58.67801799438894" lon="12.471827929839492">
        <ele>53.4</ele>
        <time>2025-02-05T00:56:50.581Z</time>
      </trkpt>
      <trkpt lat="58.67793995887041" lon="12.471838993951678">
        <ele>53.41</ele>
        <time>2025-02-05T00:57:11.986Z</time>
      </trkpt>
      <trkpt lat="58.6778609175235" lon="12.471849974244833">
        <ele>53.42</ele>
        <time>2025-02-05T00:57:33.392Z</time>
      </trkpt>
      <trkpt lat="58.67778195999563" lon="12.471860954537988">
        <ele>53.44</ele>
        <time>2025-02-05T00:57:54.800Z</time>
      </trkpt>
      <trkpt lat="58.67770291864872" lon="12.471869923174381">
        <ele>53.45</ele>
        <time>2025-02-05T00:58:16.209Z</time>
      </trkpt>
      <trkpt lat="58.677624966949224" lon="12.471880987286568">
        <ele>53.46</ele>
        <time>2025-02-05T00:58:37.619Z</time>
      </trkpt>
      <trkpt lat="58.6775469314307" lon="12.471891967579722">
        <ele>53.47</ele>
        <time>2025-02-05T00:58:59.030Z</time>
      </trkpt>
      <trkpt lat="58.67746998555958" lon="12.471902947872877">
        <ele>53.48</ele>
        <time>2025-02-05T00:59:20.443Z</time>
      </trkpt>
      <trkpt lat="58.677392955869436" lon="12.471913928166032">
        <ele>53.49</ele>
        <time>2025-02-05T00:59:41.857Z</time>
      </trkpt>
      <trkpt lat="58.67731592617929" lon="12.471922980621457">
        <ele>53.5</ele>
        <time>2025-02-05T01:00:03.272Z</time>
      </trkpt>
      <trkpt lat="58.677237974479795" lon="12.471932955086231">
        <ele>53.51</ele>
        <time>2025-02-05T01:00:24.688Z</time>
      </trkpt>
      <trkpt lat="58.67716094478965" lon="12.471943935379386">
        <ele>53.52</ele>
        <time>2025-02-05T01:00:46.106Z</time>
      </trkpt>
      <trkpt lat="58.67708399891853" lon="12.471955921500921">
        <ele>53.53</ele>
        <time>2025-02-05T01:01:07.525Z</time>
      </trkpt>
      <trkpt lat="58.677005963400006" lon="12.471967991441488">
        <ele>53.54</ele>
        <time>2025-02-05T01:01:28.945Z</time>
      </trkpt>
      <trkpt lat="58.67692893370986" lon="12.471978971734643">
        <ele>53.56</ele>
        <time>2025-02-05T01:01:50.366Z</time>
      </trkpt>
      <trkpt lat="58.676850982010365" lon="12.471986934542656">
        <ele>53.58</ele>
        <time>2025-02-05T01:02:11.789Z</time>
      </trkpt>
      <trkpt lat="58.67677294649184" lon="12.471996992826462">
        <ele>53.59</ele>
        <time>2025-02-05T01:02:33.213Z</time>
      </trkpt>
      <trkpt lat="58.67669591680169" lon="12.472008978947997">
        <ele>53.61</ele>
        <time>2025-02-05T01:02:54.638Z</time>
      </trkpt>
      <trkpt lat="58.676617965102196" lon="12.472018953412771">
        <ele>53.62</ele>
        <time>2025-02-05T01:03:16.064Z</time>
      </trkpt>
      <trkpt lat="58.67653992958367" lon="12.472027922049165">
        <ele>53.64</ele>
        <time>2025-02-05T01:03:37.492Z</time>
      </trkpt>
      <trkpt lat="58.67646197788417" lon="12.472038986161351">
        <ele>53.66</ele>
        <time>2025-02-05T01:03:58.921Z</time>
      </trkpt>
      <trkpt lat="58.676382936537266" lon="12.472049966454506">
        <ele>53.67</ele>
        <time>2025-02-05T01:04:20.351Z</time>
      </trkpt>
      <trkpt lat="58.67630498483777" lon="12.47206094674766">
        <ele>53.69</ele>
        <time>2025-02-05T01:04:41.782Z</time>
      </trkpt>
      <trkpt lat="58.67622694931924" lon="12.472073938697577">
        <ele>53.7</ele>
        <time>2025-02-05T01:05:03.215Z</time>
      </trkpt>
      <trkpt lat="58.67614899761975" lon="12.472085924819112">
        <ele>53.72</ele>
        <time>2025-02-05T01:05:24.649Z</time>
      </trkpt>
      <trkpt lat="58.67606895044446" lon="12.472098916769028">
        <ele>53.74</ele>
        <time>2025-02-05T01:05:46.084Z</time>
      </trkpt>
      <trkpt lat="58.6759889870882" lon="12.472110986709595">
        <ele>53.76</ele>
        <time>2025-02-05T01:06:07.520Z</time>
      </trkpt>
      <trkpt lat="58.675908939912915" lon="12.47212397865951">
        <ele>53.78</ele>
        <time>2025-02-05T01:06:28.958Z</time>
      </trkpt>
      <trkpt lat="58.67582897655666" lon="12.472136970609426">
        <ele>53.79</ele>
        <time>2025-02-05T01:06:50.397Z</time>
      </trkpt>
      <trkpt lat="58.67574892938137" lon="12.472150968387723">
        <ele>53.82</ele>
        <time>2025-02-05T01:07:11.837Z</time>
      </trkpt>
      <trkpt lat="58.675668966025114" lon="12.472163960337639">
        <ele>53.84</ele>
        <time>2025-02-05T01:07:33.279Z</time>
      </trkpt>
      <trkpt lat="58.675588918849826" lon="12.472175946459174">
        <ele>53.86</ele>
        <time>2025-02-05T01:07:54.722Z</time>
      </trkpt>
      <trkpt lat="58.67550996132195" lon="12.47218793258071">
        <ele>53.88</ele>
        <time>2025-02-05T01:08:16.166Z</time>
      </trkpt>
      <trkpt lat="58.67543091997504" lon="12.472198996692896">
        <ele>53.91</ele>
        <time>2025-02-05T01:08:37.611Z</time>
      </trkpt>
      <trkpt lat="58.675350956618786" lon="12.472210982814431">
        <ele>53.93</ele>
        <time>2025-02-05T01:08:59.058Z</time>
      </trkpt>
      <trkpt lat="58.67527292110026" lon="12.472222968935966">
        <ele>53.96</ele>
        <time>2025-02-05T01:09:20.506Z</time>
      </trkpt>
      <trkpt lat="58.67519396357238" lon="12.472235960885882">
        <ele>53.98</ele>
        <time>2025-02-05T01:09:41.955Z</time>
      </trkpt>
      <trkpt lat="58.675115928053856" lon="12.472248952835798">
        <ele>54.0</ele>
        <time>2025-02-05T01:10:03.406Z</time>
      </trkpt>
      <trkpt lat="58.67503797635436" lon="12.472258927300572">
        <ele>54.03</ele>
        <time>2025-02-05T01:10:24.858Z</time>
      </trkpt>
      <trkpt lat="58.67495994083583" lon="12.472267979755998">
        <ele>54.05</ele>
        <time>2025-02-05T01:10:46.311Z</time>
      </trkpt>
      <trkpt lat="58.67488299496472" lon="12.472277954220772">
        <ele>54.08</ele>
        <time>2025-02-05T01:11:07.765Z</time>
      </trkpt>
      <trkpt lat="58.67480697110295" lon="12.472285917028785">
        <ele>54.1</ele>
        <time>2025-02-05T01:11:29.220Z</time>
      </trkpt>
      <trkpt lat="58.67472994141281" lon="12.472291951999068">
        <ele>54.13</ele>
        <time>2025-02-05T01:11:50.677Z</time>
      </trkpt>
      <trkpt lat="58.67465391755104" lon="12.47229396365583">
        <ele>54.15</ele>
        <time>2025-02-05T01:12:12.135Z</time>
      </trkpt>
      <trkpt lat="58.674576971679926" lon="12.472289940342307">
        <ele>54.17</ele>
        <time>2025-02-05T01:12:33.594Z</time>
      </trkpt>
      <trkpt lat="58.67450094781816" lon="12.472278960049152">
        <ele>54.2</ele>
        <time>2025-02-05T01:12:55.054Z</time>
      </trkpt>
      <trkpt lat="58.674423918128014" lon="12.472263956442475">
        <ele>54.22</ele>
        <time>2025-02-05T01:13:16.516Z</time>
      </trkpt>
      <trkpt lat="58.6743469722569" lon="12.472242917865515">
        <ele>54.25</ele>
        <time>2025-02-05T01:13:37.979Z</time>
      </trkpt>
      <trkpt lat="58.674271954223514" lon="12.472216933965683">
        <ele>54.28</ele>
        <time>2025-02-05T01:13:59.443Z</time>
      </trkpt>
      <trkpt lat="58.67419593036175" lon="12.472186926752329">
        <ele>54.3</ele>
        <time>2025-02-05T01:14:20.908Z</time>
      </trkpt>
      <trkpt lat="58.674120996147394" lon="12.472152980044484">
        <ele>54.33</ele>
        <time>2025-02-05T01:14:42.375Z</time>
      </trkpt>
      <trkpt lat="58.67404597811401" lon="12.472115932032466">
        <ele>54.36</ele>
        <time>2025-02-05T01:15:03.843Z</time>
      </trkpt>
      <trkpt lat="58.673970960080624" lon="12.472075950354338">
        <ele>54.39</ele>
        <time>2025-02-05T01:15:25.312Z</time>
      </trkpt>
      <trkpt lat="58.67389493621886" lon="12.47203798033297">
        <ele>54.42</ele>
        <time>2025-02-05T01:15:46.782Z</time>
      </trkpt>
      <trkpt lat="58.673818996176124" lon="12.471999926492572">
        <ele>54.44</ele>
        <time>2025-02-05T01:16:08.254Z</time>
      </trkpt>
      <trkpt lat="58.67374297231436" lon="12.471960950642824">
        <ele>54.47</ele>
        <time>2025-02-05T01:16:29.727Z</time>
      </trkpt>
      <trkpt lat="58.67366694845259" lon="12.471921974793077">
        <ele>54.5</ele>
        <time>2025-02-05T01:16:51.201Z</time>
      </trkpt>
      <trkpt lat="58.6735889967531" lon="12.471883920952678">
        <ele>54.52</ele>
        <time>2025-02-05T01:17:12.676Z</time>
      </trkpt>
      <trkpt lat="58.67351297289133" lon="12.47184595093131">
        <ele>54.55</ele>
        <time>2025-02-05T01:17:34.153Z</time>
      </trkpt>
      <trkpt lat="58.673435943201184" lon="12.471806975081563">
        <ele>54.57</ele>
        <time>2025-02-05T01:17:55.631Z</time>
      </trkpt>
      <trkpt lat="58.67335899733007" lon="12.471767999231815">
        <ele>54.6</ele>
        <time>2025-02-05T01:18:17.110Z</time>
      </trkpt>
      <trkpt lat="58.67328196763992" lon="12.471729945391417">
        <ele>54.62</ele>
        <time>2025-02-05T01:18:38.591Z</time>
      </trkpt>
      <trkpt lat="58.673203932121396" lon="12.471690969541669">
        <ele>54.64</ele>
        <time>2025-02-05T01:19:00.073Z</time>
      </trkpt>
      <trkpt lat="58.6731259804219" lon="12.47165392152965">
        <ele>54.67</ele>
        <time>2025-02-05T01:19:21.556Z</time>
      </trkpt>
      <trkpt lat="58.673047944903374" lon="12.471615951508284">
        <ele>54.7</ele>
        <time>2025-02-05T01:19:43.040Z</time>
      </trkpt>
      <trkpt lat="58.67296999320388" lon="12.471575969830155">
        <ele>54.73</ele>
        <time>2025-02-05T01:20:04.526Z</time>
      </trkpt>
      <trkpt lat="58.67289195768535" lon="12.471536993980408">
        <ele>54.75</ele>
        <time>2025-02-05T01:20:26.013Z</time>
      </trkpt>
      <trkpt lat="58.672812916338444" lon="12.47149994596839">
        <ele>54.78</ele>
        <time>2025-02-05T01:20:47.501Z</time>
      </trkpt>
      <trkpt lat="58.67273597046733" lon="12.471459964290261">
        <ele>54.81</ele>
        <time>2025-02-05T01:21:08.991Z</time>
      </trkpt>
      <trkpt lat="58.6726579349488" lon="12.471419982612133">
        <ele>54.83</ele>
        <time>2025-02-05T01:21:30.482Z</time>
      </trkpt>
      <trkpt lat="58.67257998324931" lon="12.471381928771734">
        <ele>54.86</ele>
        <time>2025-02-05T01:21:51.974Z</time>
      </trkpt>
      <trkpt lat="58.67250194773078" lon="12.471343958750367">
        <ele>54.89</ele>
        <time>2025-02-05T01:22:13.467Z</time>
      </trkpt>
      <trkpt lat="58.672423996031284" lon="12.471303977072239">
        <ele>54.91</ele>
        <time>2025-02-05T01:22:34.962Z</time>
      </trkpt>
      <trkpt lat="58.67234495468438" lon="12.47126491740346">
        <ele>54.94</ele>
        <time>2025-02-05T01:22:56.458Z</time>
      </trkpt>
      <trkpt lat="58.6722659971565" lon="12.471225941553712">
        <ele>54.96</ele>
        <time>2025-02-05T01:23:17.955Z</time>
      </trkpt>
      <trkpt lat="58.67218695580959" lon="12.471187971532345">
        <ele>54.99</ele>
        <time>2025-02-05T01:23:39.454Z</time>
      </trkpt>
      <trkpt lat="58.672108920291066" lon="12.471147989854217">
        <ele>55.01</ele>
        <time>2025-02-05T01:24:00.954Z</time>
      </trkpt>
      <trkpt lat="58.67202996276319" lon="12.471107924357057">
        <ele>55.04</ele>
        <time>2025-02-05T01:24:22.455Z</time>
      </trkpt>
      <trkpt lat="58.67195092141628" lon="12.471068948507309">
        <ele>55.06</ele>
        <time>2025-02-05T01:24:43.958Z</time>
      </trkpt>
      <trkpt lat="58.67187296971679" lon="12.47102896682918">
        <ele>55.08</ele>
        <time>2025-02-05T01:25:05.462Z</time>
      </trkpt>
      <trkpt lat="58.67179392836988" lon="12.470989990979433">
        <ele>55.1</ele>
        <time>2025-02-05T01:25:26.967Z</time>
      </trkpt>
      <trkpt lat="58.671715976670384" lon="12.470950931310654">
        <ele>55.12</ele>
        <time>2025-02-05T01:25:48.473Z</time>
      </trkpt>
      <trkpt lat="58.67163794115186" lon="12.470912961289287">
        <ele>55.14</ele>
        <time>2025-02-05T01:26:09.981Z</time>
      </trkpt>
      <trkpt lat="58.67155998945236" lon="12.47087893076241">
        <ele>55.16</ele>
        <time>2025-02-05T01:26:31.490Z</time>
      </trkpt>
      <trkpt lat="58.671480948105454" lon="12.470852946862578">
        <ele>55.18</ele>
        <time>2025-02-05T01:26:53.000Z</time>
      </trkpt>
      <trkpt lat="58.67140199057758" lon="12.47085495851934">
        <ele>55.2</ele>
        <time>2025-02-05T01:27:14.512Z</time>
      </trkpt>
      <trkpt lat="58.671327978372574" lon="12.47089896351099">
        <ele>55.22</ele>
        <time>2025-02-05T01:27:36.025Z</time>
      </trkpt>
      <trkpt lat="58.671265952289104" lon="12.470986973494291">
        <ele>55.24</ele>
        <time>2025-02-05T01:27:57.539Z</time>
      </trkpt>
      <trkpt lat="58.671221947297454" lon="12.471107924357057">
        <ele>55.25</ele>
        <time>2025-02-05T01:28:19.054Z</time>
      </trkpt>
      <trkpt lat="58.67118992842734" lon="12.471245974302292">
        <ele>55.27</ele>
        <time>2025-02-05T01:28:40.571Z</time>
      </trkpt>
      <trkpt lat="58.671160927042365" lon="12.471385952085257">
        <ele>55.29</ele>
        <time>2025-02-05T01:29:02.089Z</time>
      </trkpt>
      <trkpt lat="58.67113192565739" lon="12.47152492403984">
        <ele>55.31</ele>
        <time>2025-02-05T01:29:23.608Z</time>
      </trkpt>
      <trkpt lat="58.6711039301008" lon="12.471665991470218">
        <ele>55.34</ele>
        <time>2025-02-05T01:29:45.128Z</time>
      </trkpt>
      <trkpt lat="58.671075934544206" lon="12.471805969253182">
        <ele>55.36</ele>
        <time>2025-02-05T01:30:06.650Z</time>
      </trkpt>
      <trkpt lat="58.67104793898761" lon="12.471946952864528">
        <ele>55.37</ele>
        <time>2025-02-05T01:30:28.173Z</time>
      </trkpt>
      <trkpt lat="58.67101994343102" lon="12.472086930647492">
        <ele>55.39</ele>
        <time>2025-02-05T01:30:49.697Z</time>
      </trkpt>
      <trkpt lat="58.67099194787443" lon="12.472226992249489">
        <ele>55.41</ele>
        <time>2025-02-05T01:31:11.222Z</time>
      </trkpt>
      <trkpt lat="58.670964958146214" lon="12.472365964204073">
        <ele>55.42</ele>
        <time>2025-02-05T01:31:32.749Z</time>
      </trkpt>
      <trkpt lat="58.670937968418" lon="12.472505941987038">
        <ele>55.44</ele>
        <time>2025-02-05T01:31:54.277Z</time>
      </trkpt>
      <trkpt lat="58.67091097868979" lon="12.472646925598383">
        <ele>55.45</ele>
        <time>2025-02-05T01:32:15.806Z</time>
      </trkpt>
      <trkpt lat="58.67088398896158" lon="12.472785981371999">
        <ele>55.47</ele>
        <time>2025-02-05T01:32:37.336Z</time>
      </trkpt>
      <trkpt lat="58.67085398174822" lon="12.472923947498202">
        <ele>55.48</ele>
        <time>2025-02-05T01:32:58.868Z</time>
      </trkpt>
      <trkpt lat="58.67082196287811" lon="12.473060991615057">
        <ele>55.49</ele>
        <time>2025-02-05T01:33:20.401Z</time>
      </trkpt>
      <trkpt lat="58.67078994400799" lon="12.47319895774126">
        <ele>55.51</ele>
        <time>2025-02-05T01:33:41.935Z</time>
      </trkpt>
      <trkpt lat="58.67075599730015" lon="12.473334996029735">
        <ele>55.52</ele>
        <time>2025-02-05T01:34:03.470Z</time>
      </trkpt>
      <trkpt lat="58.67072096094489" lon="12.473470950499177">
        <ele>55.53</ele>
        <time>2025-02-05T01:34:25.007Z</time>
      </trkpt>
      <trkpt lat="58.670683996751904" lon="12.47360397130251">
        <ele>55.54</ele>
        <time>2025-02-05T01:34:46.545Z</time>
      </trkpt>
      <trkpt lat="58.670644937083125" lon="12.473735986277461">
        <ele>55.55</ele>
        <time>2025-02-05T01:35:08.084Z</time>
      </trkpt>
      <trkpt lat="58.670602943748236" lon="12.473866995424032">
        <ele>55.55</ele>
        <time>2025-02-05T01:35:29.624Z</time>
      </trkpt>
      <trkpt lat="58.670560950413346" lon="12.473997920751572">
        <ele>55.57</ele>
        <time>2025-02-05T01:35:51.166Z</time>
      </trkpt>
      <trkpt lat="58.670516945421696" lon="12.474130941554904">
        <ele>55.58</ele>
        <time>2025-02-05T01:36:12.709Z</time>
      </trkpt>
      <trkpt lat="58.670471934601665" lon="12.474266979843378">
        <ele>55.59</ele>
        <time>2025-02-05T01:36:34.253Z</time>
      </trkpt>
      <trkpt lat="58.670424995943904" lon="12.47440293431282">
        <ele>55.6</ele>
        <time>2025-02-05T01:36:55.799Z</time>
      </trkpt>
      <trkpt lat="58.67037495598197" lon="12.474539978429675">
        <ele>55.61</ele>
        <time>2025-02-05T01:37:17.346Z</time>
      </trkpt>
      <trkpt lat="58.670325921848416" lon="12.47467995621264">
        <ele>55.63</ele>
        <time>2025-02-05T01:37:38.895Z</time>
      </trkpt>
      <trkpt lat="58.670276971533895" lon="12.474820939823985">
        <ele>55.64</ele>
        <time>2025-02-05T01:38:00.445Z</time>
      </trkpt>
      <trkpt lat="58.6702299490571" lon="12.474962929263711">
        <ele>55.64</ele>
        <time>2025-02-05T01:38:21.996Z</time>
      </trkpt>
      <trkpt lat="58.67018493823707" lon="12.475106930360198">
        <ele>55.66</ele>
        <time>2025-02-05T01:38:43.549Z</time>
      </trkpt>
      <trkpt lat="58.67013992741704" lon="12.475252943113446">
        <ele>55.66</ele>
        <time>2025-02-05T01:39:05.103Z</time>
      </trkpt>
      <trkpt lat="58.67009893991053" lon="12.475396944209933">
        <ele>55.67</ele>
        <time>2025-02-05T01:39:26.659Z</time>
      </trkpt>
      <trkpt lat="58.670062981545925" lon="12.475542956963181">
        <ele>55.68</ele>
        <time>2025-02-05T01:39:48.216Z</time>
      </trkpt>
      <trkpt lat="58.67002794519067" lon="12.475685952231288">
        <ele>55.69</ele>
        <time>2025-02-05T01:40:09.774Z</time>
      </trkpt>
      <trkpt lat="58.669997937977314" lon="12.475825930014253">
        <ele>55.69</ele>
        <time>2025-02-05T01:40:31.334Z</time>
      </trkpt>
      <trkpt lat="58.6699709482491" lon="12.47596699744463">
        <ele>55.69</ele>
        <time>2025-02-05T01:40:52.895Z</time>
      </trkpt>
      <trkpt lat="58.66994798183441" lon="12.476108986884356">
        <ele>55.69</ele>
        <time>2025-02-05T01:41:14.457Z</time>
      </trkpt>
      <trkpt lat="58.66992593742907" lon="12.476252987980843">
        <ele>55.69</ele>
        <time>2025-02-05T01:41:36.020Z</time>
      </trkpt>
      <trkpt lat="58.66990498267114" lon="12.476394977420568">
        <ele>55.69</ele>
        <time>2025-02-05T01:41:57.584Z</time>
      </trkpt>
      <trkpt lat="58.66988595575094" lon="12.47653093189001">
        <ele>55.68</ele>
        <time>2025-02-05T01:42:19.150Z</time>
      </trkpt>
      <trkpt lat="58.66986592300236" lon="12.476670993492007">
        <ele>55.68</ele>
        <time>2025-02-05T01:42:40.717Z</time>
      </trkpt>
      <trkpt lat="58.669845974072814" lon="12.47680795378983">
        <ele>55.67</ele>
        <time>2025-02-05T01:43:02.285Z</time>
      </trkpt>
      <trkpt lat="58.669825941324234" lon="12.476944997906685">
        <ele>55.66</ele>
        <time>2025-02-05T01:43:23.854Z</time>
      </trkpt>
      <trkpt lat="58.669804986566305" lon="12.477083969861269">
        <ele>55.65</ele>
        <time>2025-02-05T01:43:45.424Z</time>
      </trkpt>
      <trkpt lat="58.669784953817725" lon="12.477223947644234">
        <ele>55.65</ele>
        <time>2025-02-05T01:44:06.996Z</time>
      </trkpt>
      <trkpt lat="58.669762993231416" lon="12.47736593708396">
        <ele>55.64</ele>
        <time>2025-02-05T01:44:28.569Z</time>
      </trkpt>
      <trkpt lat="58.669740948826075" lon="12.477508932352066">
        <ele>55.63</ele>
        <time>2025-02-05T01:44:50.143Z</time>
      </trkpt>
      <trkpt lat="58.669717982411385" lon="12.477649999782443">
        <ele>55.62</ele>
        <time>2025-02-05T01:45:11.718Z</time>
      </trkpt>
      <trkpt lat="58.66969493217766" lon="12.47779299505055">
        <ele>55.61</ele>
        <time>2025-02-05T01:45:33.295Z</time>
      </trkpt>
      <trkpt lat="58.66967196576297" lon="12.477936996147037">
        <ele>55.6</ele>
        <time>2025-02-05T01:45:54.873Z</time>
      </trkpt>
      <trkpt lat="58.6696479935199" lon="12.478084936738014">
        <ele>55.6</ele>
        <time>2025-02-05T01:46:16.452Z</time>
      </trkpt>
      <trkpt lat="58.6696239374578" lon="12.478228937834501">
        <ele>55.59</ele>
        <time>2025-02-05T01:46:38.032Z</time>
      </trkpt>
      <trkpt lat="58.66959996521473" lon="12.47837495058775">
        <ele>55.58</ele>
        <time>2025-02-05T01:46:59.614Z</time>
      </trkpt>
      <trkpt lat="58.66957699880004" lon="12.478518951684237">
        <ele>55.57</ele>
        <time>2025-02-05T01:47:21.197Z</time>
      </trkpt>
      <trkpt lat="58.6695549543947" lon="12.478663958609104">
        <ele>55.56</ele>
        <time>2025-02-05T01:47:42.781Z</time>
      </trkpt>
      <trkpt lat="58.6695359274745" lon="12.478811983019114">
        <ele>55.56</ele>
        <time>2025-02-05T01:48:04.367Z</time>
      </trkpt>
      <trkpt lat="58.66951799020171" lon="12.478960929438472">
        <ele>55.55</ele>
        <time>2025-02-05T01:48:25.954Z</time>
      </trkpt>
      <trkpt lat="58.669502986595035" lon="12.479110965505242">
        <ele>55.55</ele>
        <time>2025-02-05T01:48:47.542Z</time>
      </trkpt>
      <trkpt lat="58.66948898881674" lon="12.479257984086871">
        <ele>55.54</ele>
        <time>2025-02-05T01:49:09.131Z</time>
      </trkpt>
      <trkpt lat="58.66947691887617" lon="12.479401985183358">
        <ele>55.53</ele>
        <time>2025-02-05T01:49:30.722Z</time>
      </trkpt>
      <trkpt lat="58.669464932754636" lon="12.479541962966323">
        <ele>55.52</ele>
        <time>2025-02-05T01:49:52.314Z</time>
      </trkpt>
      <trkpt lat="58.66945495828986" lon="12.479681940749288">
        <ele>55.52</ele>
        <time>2025-02-05T01:50:13.907Z</time>
      </trkpt>
      <trkpt lat="58.66944892331958" lon="12.479824936017394">
        <ele>55.51</ele>
        <time>2025-02-05T01:50:35.501Z</time>
      </trkpt>
      <trkpt lat="58.669442972168326" lon="12.479969942942262">
        <ele>55.49</ele>
        <time>2025-02-05T01:50:57.096Z</time>
      </trkpt>
      <trkpt lat="58.66943794302642" lon="12.48011494986713">
        <ele>55.48</ele>
        <time>2025-02-05T01:51:18.693Z</time>
      </trkpt>
      <trkpt lat="58.66943199187517" lon="12.480261968448758">
        <ele>55.47</ele>
        <time>2025-02-05T01:51:40.291Z</time>
      </trkpt>
      <trkpt lat="58.66942796856165" lon="12.480409992858768">
        <ele>55.45</ele>
        <time>2025-02-05T01:52:01.890Z</time>
      </trkpt>
      <trkpt lat="58.66942495107651" lon="12.480556927621365">
        <ele>55.44</ele>
        <time>2025-02-05T01:52:23.490Z</time>
      </trkpt>
      <trkpt lat="58.66942394524813" lon="12.480706963688135">
        <ele>55.41</ele>
        <time>2025-02-05T01:52:45.092Z</time>
      </trkpt>
      <trkpt lat="58.669421933591366" lon="12.480857921764255">
        <ele>55.4</ele>
        <time>2025-02-05T01:53:06.695Z</time>
      </trkpt>
      <trkpt lat="58.669420927762985" lon="12.481011981144547">
        <ele>55.38</ele>
        <time>2025-02-05T01:53:28.299Z</time>
      </trkpt>
      <trkpt lat="58.669420927762985" lon="12.481169980019331">
        <ele>55.36</ele>
        <time>2025-02-05T01:53:49.904Z</time>
      </trkpt>
      <trkpt lat="58.669420927762985" lon="12.481326973065734">
        <ele>55.35</ele>
        <time>2025-02-05T01:54:11.511Z</time>
      </trkpt>
      <trkpt lat="58.669420927762985" lon="12.481485977768898">
        <ele>55.33</ele>
        <time>2025-02-05T01:54:33.119Z</time>
      </trkpt>
      <trkpt lat="58.669419921934605" lon="12.481643976643682">
        <ele>55.32</ele>
        <time>2025-02-05T01:54:54.728Z</time>
      </trkpt>
      <trkpt lat="58.669417994096875" lon="12.481799963861704">
        <ele>55.3</ele>
        <time>2025-02-05T01:55:16.339Z</time>
      </trkpt>
      <trkpt lat="58.66941497661173" lon="12.481955951079726">
        <ele>55.29</ele>
        <time>2025-02-05T01:55:37.951Z</time>
      </trkpt>
      <trkpt lat="58.66941195912659" lon="12.482111938297749">
        <ele>55.27</ele>
        <time>2025-02-05T01:55:59.564Z</time>
      </trkpt>
      <trkpt lat="58.66940894164145" lon="12.482268931344151">
        <ele>55.25</ele>
        <time>2025-02-05T01:56:21.179Z</time>
      </trkpt>
      <trkpt lat="58.66940491832793" lon="12.482424918562174">
        <ele>55.24</ele>
        <time>2025-02-05T01:56:42.795Z</time>
      </trkpt>
      <trkpt lat="58.66940198466182" lon="12.482579983770847">
        <ele>55.21</ele>
        <time>2025-02-05T01:57:04.412Z</time>
      </trkpt>
      <trkpt lat="58.669397961348295" lon="12.482733959332108">
        <ele>55.19</ele>
        <time>2025-02-05T01:57:26.030Z</time>
      </trkpt>
      <trkpt lat="58.66939494386315" lon="12.482885923236609">
        <ele>55.18</ele>
        <time>2025-02-05T01:57:47.650Z</time>
      </trkpt>
      <trkpt lat="58.66939092054963" lon="12.483035959303379">
        <ele>55.16</ele>
        <time>2025-02-05T01:58:09.271Z</time>
      </trkpt>
      <trkpt lat="58.66938698105514" lon="12.483183983713388">
        <ele>55.14</ele>
        <time>2025-02-05T01:58:30.893Z</time>
      </trkpt>
      <trkpt lat="58.66938396357" lon="12.483332930132747">
        <ele>55.13</ele>
        <time>2025-02-05T01:58:52.516Z</time>
      </trkpt>
      <trkpt lat="58.66938094608486" lon="12.483481960371137">
        <ele>55.12</ele>
        <time>2025-02-05T01:59:14.141Z</time>
      </trkpt>
      <trkpt lat="58.669378934428096" lon="12.483629984781146">
        <ele>55.1</ele>
        <time>2025-02-05T01:59:35.767Z</time>
      </trkpt>
      <trkpt lat="58.669375916942954" lon="12.483776919543743">
        <ele>55.08</ele>
        <time>2025-02-05T01:59:57.394Z</time>
      </trkpt>
      <trkpt lat="58.669372983276844" lon="12.483926955610514">
        <ele>55.07</ele>
        <time>2025-02-05T02:00:19.022Z</time>
      </trkpt>
      <trkpt lat="58.6693699657917" lon="12.484075985848904">
        <ele>55.05</ele>
        <time>2025-02-05T02:00:40.652Z</time>
      </trkpt>
      <trkpt lat="58.66936694830656" lon="12.484223926439881">
        <ele>55.03</ele>
        <time>2025-02-05T02:01:02.283Z</time>
      </trkpt>
      <trkpt lat="58.66936393082142" lon="12.48437094502151">
        <ele>55.02</ele>
        <time>2025-02-05T02:01:23.915Z</time>
      </trkpt>
      <trkpt lat="58.66936191916466" lon="12.484513940289617">
        <ele>55.0</ele>
        <time>2025-02-05T02:01:45.548Z</time>
      </trkpt>
      <trkpt lat="58.66935898549855" lon="12.484656935557723">
        <ele>54.99</ele>
        <time>2025-02-05T02:02:07.183Z</time>
      </trkpt>
      <trkpt lat="58.669353956356645" lon="12.48479699715972">
        <ele>54.98</ele>
        <time>2025-02-05T02:02:28.819Z</time>
      </trkpt>
      <trkpt lat="58.66934699937701" lon="12.484934963285923">
        <ele>54.96</ele>
        <time>2025-02-05T02:02:50.456Z</time>
      </trkpt>
      <trkpt lat="58.66933995857835" lon="12.485073935240507">
        <ele>54.95</ele>
        <time>2025-02-05T02:03:12.094Z</time>
      </trkpt>
      <trkpt lat="58.669331995770335" lon="12.485209973528981">
        <ele>54.94</ele>
        <time>2025-02-05T02:03:33.733Z</time>
      </trkpt>
      <trkpt lat="58.66932495497167" lon="12.485341988503933">
        <ele>54.93</ele>
        <time>2025-02-05T02:03:55.373Z</time>
      </trkpt>
      <trkpt lat="58.66931598633528" lon="12.485468974336982">
        <ele>54.92</ele>
        <time>2025-02-05T02:04:17.014Z</time>
      </trkpt>
      <trkpt lat="58.66930592805147" lon="12.485590931028128">
        <ele>54.9</ele>
        <time>2025-02-05T02:04:38.656Z</time>
      </trkpt>
      <trkpt lat="58.66929494775832" lon="12.485710959881544">
        <ele>54.89</ele>
        <time>2025-02-05T02:05:00.299Z</time>
      </trkpt>
      <trkpt lat="58.66928396746516" lon="12.48583291657269">
        <ele>54.88</ele>
        <time>2025-02-05T02:05:21.943Z</time>
      </trkpt>
      <trkpt lat="58.66927298717201" lon="12.485955962911248">
        <ele>54.87</ele>
        <time>2025-02-05T02:05:43.588Z</time>
      </trkpt>
      <trkpt lat="58.66925999522209" lon="12.486083954572678">
        <ele>54.86</ele>
        <time>2025-02-05T02:06:05.235Z</time>
      </trkpt>
      <trkpt lat="58.669246919453144" lon="12.48621596954763">
        <ele>54.85</ele>
        <time>2025-02-05T02:06:26.883Z</time>
      </trkpt>
      <trkpt lat="58.6692319996655" lon="12.486351924017072">
        <ele>54.84</ele>
        <time>2025-02-05T02:06:48.532Z</time>
      </trkpt>
      <trkpt lat="58.66921599023044" lon="12.486492991447449">
        <ele>54.84</ele>
        <time>2025-02-05T02:07:10.182Z</time>
      </trkpt>
      <trkpt lat="58.66919998079538" lon="12.486637998372316">
        <ele>54.84</ele>
        <time>2025-02-05T02:07:31.833Z</time>
      </trkpt>
      <trkpt lat="58.669182965531945" lon="12.486783927306533">
        <ele>54.83</ele>
        <time>2025-02-05T02:07:53.486Z</time>
      </trkpt>
      <trkpt lat="58.669158993288875" lon="12.4869289342314">
        <ele>54.82</ele>
        <time>2025-02-05T02:08:15.140Z</time>
      </trkpt>
      <trkpt lat="58.66913191974163" lon="12.487070923671126">
        <ele>54.81</ele>
        <time>2025-02-05T02:08:36.795Z</time>
      </trkpt>
      <trkpt lat="58.66909998469055" lon="12.487209979444742">
        <ele>54.8</ele>
        <time>2025-02-05T02:08:58.451Z</time>
      </trkpt>
      <trkpt lat="58.66906595416367" lon="12.487346939742565">
        <ele>54.79</ele>
        <time>2025-02-05T02:09:20.109Z</time>
      </trkpt>
      <trkpt lat="58.66903091780841" lon="12.487478954717517">
        <ele>54.78</ele>
        <time>2025-02-05T02:09:41.768Z</time>
      </trkpt>
      <trkpt lat="58.66899495944381" lon="12.487610969692469">
        <ele>54.77</ele>
        <time>2025-02-05T02:10:03.428Z</time>
      </trkpt>
      <trkpt lat="58.66895891726017" lon="12.48774197883904">
        <ele>54.77</ele>
        <time>2025-02-05T02:10:25.089Z</time>
      </trkpt>
      <trkpt lat="58.66892195306718" lon="12.48787097632885">
        <ele>54.76</ele>
        <time>2025-02-05T02:10:46.752Z</time>
      </trkpt>
      <trkpt lat="58.66888599470258" lon="12.48799997381866">
        <ele>54.76</ele>
        <time>2025-02-05T02:11:08.416Z</time>
      </trkpt>
      <trkpt lat="58.6688519641757" lon="12.488130982965231">
        <ele>54.76</ele>
        <time>2025-02-05T02:11:30.081Z</time>
      </trkpt>
      <trkpt lat="58.668816927820444" lon="12.488260986283422">
        <ele>54.75</ele>
        <time>2025-02-05T02:11:51.747Z</time>
      </trkpt>
      <trkpt lat="58.66878197528422" lon="12.488390989601612">
        <ele>54.75</ele>
        <time>2025-02-05T02:12:13.414Z</time>
      </trkpt>
      <trkpt lat="58.66874693892896" lon="12.488522920757532">
        <ele>54.75</ele>
        <time>2025-02-05T02:12:35.083Z</time>
      </trkpt>
      <trkpt lat="58.668710980564356" lon="12.488654935732484">
        <ele>54.75</ele>
        <time>2025-02-05T02:12:56.753Z</time>
      </trkpt>
      <trkpt lat="58.66867493838072" lon="12.488788962364197">
        <ele>54.76</ele>
        <time>2025-02-05T02:13:18.424Z</time>
      </trkpt>
      <trkpt lat="58.66863998584449" lon="12.48892298899591">
        <ele>54.77</ele>
        <time>2025-02-05T02:13:40.096Z</time>
      </trkpt>
      <trkpt lat="58.66860595531762" lon="12.489057937636971">
        <ele>54.77</ele>
        <time>2025-02-05T02:14:01.770Z</time>
      </trkpt>
      <trkpt lat="58.66857192479074" lon="12.489191964268684">
        <ele>54.77</ele>
        <time>2025-02-05T02:14:23.445Z</time>
      </trkpt>
      <trkpt lat="58.668537978082895" lon="12.489325990900397">
        <ele>54.78</ele>
        <time>2025-02-05T02:14:45.121Z</time>
      </trkpt>
      <trkpt lat="58.66850294172764" lon="12.489459933713078">
        <ele>54.78</ele>
        <time>2025-02-05T02:15:06.798Z</time>
      </trkpt>
      <trkpt lat="58.66846798919141" lon="12.489593960344791">
        <ele>54.79</ele>
        <time>2025-02-05T02:15:28.477Z</time>
      </trkpt>
      <trkpt lat="58.668431947007775" lon="12.489728992804885">
        <ele>54.8</ele>
        <time>2025-02-05T02:15:50.157Z</time>
      </trkpt>
      <trkpt lat="58.66839598864317" lon="12.489863941445947">
        <ele>54.81</ele>
        <time>2025-02-05T02:16:11.838Z</time>
      </trkpt>
      <trkpt lat="58.66835692897439" lon="12.48999796807766">
        <ele>54.82</ele>
        <time>2025-02-05T02:16:33.521Z</time>
      </trkpt>
      <trkpt lat="58.66831594146788" lon="12.490131994709373">
        <ele>54.82</ele>
        <time>2025-02-05T02:16:55.205Z</time>
      </trkpt>
      <trkpt lat="58.66827394813299" lon="12.490265937522054">
        <ele>54.83</ele>
        <time>2025-02-05T02:17:16.890Z</time>
      </trkpt>
      <trkpt lat="58.66822994314134" lon="12.490396946668625">
        <ele>54.85</ele>
        <time>2025-02-05T02:17:38.576Z</time>
      </trkpt>
      <trkpt lat="58.66818292066455" lon="12.490524938330054">
        <ele>54.86</ele>
        <time>2025-02-05T02:18:00.264Z</time>
      </trkpt>
      <trkpt lat="58.66813397035003" lon="12.490650918334723">
        <ele>54.87</ele>
        <time>2025-02-05T02:18:21.953Z</time>
      </trkpt>
      <trkpt lat="58.668084936216474" lon="12.490774970501661">
        <ele>54.88</ele>
        <time>2025-02-05T02:18:43.643Z</time>
      </trkpt>
      <trkpt lat="58.66803498007357" lon="12.490895921364427">
        <ele>54.9</ele>
        <time>2025-02-05T02:19:05.335Z</time>
      </trkpt>
      <trkpt lat="58.66798494011164" lon="12.491014944389462">
        <ele>54.91</ele>
        <time>2025-02-05T02:19:27.028Z</time>
      </trkpt>
      <trkpt lat="58.667932972311974" lon="12.491131955757737">
        <ele>54.92</ele>
        <time>2025-02-05T02:19:48.722Z</time>
      </trkpt>
      <trkpt lat="58.66788192652166" lon="12.491247961297631">
        <ele>54.93</ele>
        <time>2025-02-05T02:20:10.417Z</time>
      </trkpt>
      <trkpt lat="58.66783197037876" lon="12.491364972665906">
        <ele>54.95</ele>
        <time>2025-02-05T02:20:32.114Z</time>
      </trkpt>
      <trkpt lat="58.667783942073584" lon="12.49148198403418">
        <ele>54.96</ele>
        <time>2025-02-05T02:20:53.812Z</time>
      </trkpt>
      <trkpt lat="58.66773691959679" lon="12.491598995402455">
        <ele>54.98</ele>
        <time>2025-02-05T02:21:15.511Z</time>
      </trkpt>
      <trkpt lat="58.66769299842417" lon="12.491716928780079">
        <ele>55.0</ele>
        <time>2025-02-05T02:21:37.211Z</time>
      </trkpt>
      <trkpt lat="58.66765293292701" lon="12.491834945976734">
        <ele>55.03</ele>
        <time>2025-02-05T02:21:58.913Z</time>
      </trkpt>
      <trkpt lat="58.66761898621917" lon="12.491961931809783">
        <ele>55.04</ele>
        <time>2025-02-05T02:22:20.616Z</time>
      </trkpt>
      <trkpt lat="58.667592918500304" lon="12.492094952613115">
        <ele>55.06</ele>
        <time>2025-02-05T02:22:42.320Z</time>
      </trkpt>
      <trkpt lat="58.66757498122752" lon="12.492232918739319">
        <ele>55.08</ele>
        <time>2025-02-05T02:23:04.025Z</time>
      </trkpt>
      <trkpt lat="58.66756693460047" lon="12.492373986169696">
        <ele>55.11</ele>
        <time>2025-02-05T02:23:25.731Z</time>
      </trkpt>
      <trkpt lat="58.66756693460047" lon="12.492514969781041">
        <ele>55.13</ele>
        <time>2025-02-05T02:23:47.439Z</time>
      </trkpt>
      <trkpt lat="58.667571963742375" lon="12.492655953392386">
        <ele>55.16</ele>
        <time>2025-02-05T02:24:09.148Z</time>
      </trkpt>
      <trkpt lat="58.66757992655039" lon="12.492796937003732">
        <ele>55.19</ele>
        <time>2025-02-05T02:24:30.858Z</time>
      </trkpt>
      <trkpt lat="58.667588979005814" lon="12.492938926443458">
        <ele>55.21</ele>
        <time>2025-02-05T02:24:52.569Z</time>
      </trkpt>
      <trkpt lat="58.66759794764221" lon="12.493079993873835">
        <ele>55.23</ele>
        <time>2025-02-05T02:25:14.281Z</time>
      </trkpt>
      <trkpt lat="58.66760599426925" lon="12.493222989141941">
        <ele>55.26</ele>
        <time>2025-02-05T02:25:35.994Z</time>
      </trkpt>
      <trkpt lat="58.667613957077265" lon="12.493364978581667">
        <ele>55.28</ele>
        <time>2025-02-05T02:25:57.709Z</time>
      </trkpt>
      <trkpt lat="58.66762393154204" lon="12.493506968021393">
        <ele>55.31</ele>
        <time>2025-02-05T02:26:19.425Z</time>
      </trkpt>
      <trkpt lat="58.667632983997464" lon="12.4936499632895">
        <ele>55.34</ele>
        <time>2025-02-05T02:26:41.142Z</time>
      </trkpt>
      <trkpt lat="58.66764295846224" lon="12.493791952729225">
        <ele>55.36</ele>
        <time>2025-02-05T02:27:02.860Z</time>
      </trkpt>
      <trkpt lat="58.66765192709863" lon="12.493933942168951">
        <ele>55.39</ele>
        <time>2025-02-05T02:27:24.579Z</time>
      </trkpt>
      <trkpt lat="58.66766198538244" lon="12.494074925780296">
        <ele>55.42</ele>
        <time>2025-02-05T02:27:46.300Z</time>
      </trkpt>
      <trkpt lat="58.66766994819045" lon="12.494214987382293">
        <ele>55.44</ele>
        <time>2025-02-05T02:28:08.022Z</time>
      </trkpt>
      <trkpt lat="58.667678916826844" lon="12.494354965165257">
        <ele>55.47</ele>
        <time>2025-02-05T02:28:29.745Z</time>
      </trkpt>
      <trkpt lat="58.66768696345389" lon="12.494494942948222">
        <ele>55.5</ele>
        <time>2025-02-05T02:28:51.469Z</time>
      </trkpt>
      <trkpt lat="58.6676949262619" lon="12.494633998721838">
        <ele>55.53</ele>
        <time>2025-02-05T02:29:13.194Z</time>
      </trkpt>
      <trkpt lat="58.66770397871733" lon="12.494770959019661">
        <ele>55.56</ele>
        <time>2025-02-05T02:29:34.921Z</time>
      </trkpt>
      <trkpt lat="58.66771294735372" lon="12.494907919317484">
        <ele>55.59</ele>
        <time>2025-02-05T02:29:56.649Z</time>
      </trkpt>
      <trkpt lat="58.667722921818495" lon="12.495042951777577">
        <ele>55.62</ele>
        <time>2025-02-05T02:30:18.378Z</time>
      </trkpt>
      <trkpt lat="58.6677329801023" lon="12.49517697840929">
        <ele>55.65</ele>
        <time>2025-02-05T02:30:40.108Z</time>
      </trkpt>
      <trkpt lat="58.667740942910314" lon="12.495308993384242">
        <ele>55.67</ele>
        <time>2025-02-05T02:31:01.839Z</time>
      </trkpt>
      <trkpt lat="58.66774898953736" lon="12.495441930368543">
        <ele>55.71</ele>
        <time>2025-02-05T02:31:23.571Z</time>
      </trkpt>
      <trkpt lat="58.66775896400213" lon="12.495571933686733">
        <ele>55.74</ele>
        <time>2025-02-05T02:31:45.304Z</time>
      </trkpt>
      <trkpt lat="58.66776893846691" lon="12.495696991682053">
        <ele>55.77</ele>
        <time>2025-02-05T02:32:07.038Z</time>
      </trkpt>
      <trkpt lat="58.66777799092233" lon="12.495817942544818">
        <ele>55.81</ele>
        <time>2025-02-05T02:32:28.773Z</time>
      </trkpt>
      <trkpt lat="58.667783942073584" lon="12.495936965569854">
        <ele>55.84</ele>
        <time>2025-02-05T02:32:50.509Z</time>
      </trkpt>
      <trkpt lat="58.66779098287225" lon="12.496050959452987">
        <ele>55.87</ele>
        <time>2025-02-05T02:33:12.246Z</time>
      </trkpt>
      <trkpt lat="58.66779894568026" lon="12.496161935850978">
        <ele>55.9</ele>
        <time>2025-02-05T02:33:33.984Z</time>
      </trkpt>
      <trkpt lat="58.667805986478925" lon="12.496269978582859">
        <ele>55.94</ele>
        <time>2025-02-05T02:33:55.723Z</time>
      </trkpt>
      <trkpt lat="58.66781193763018" lon="12.496374920010567">
        <ele>55.97</ele>
        <time>2025-02-05T02:34:17.463Z</time>
      </trkpt>
      <trkpt lat="58.66781696677208" lon="12.496477933600545">
        <ele>56.01</ele>
        <time>2025-02-05T02:34:39.204Z</time>
      </trkpt>
      <trkpt lat="58.6678209900856" lon="12.496577929705381">
        <ele>56.04</ele>
        <time>2025-02-05T02:35:00.946Z</time>
      </trkpt>
      <trkpt lat="58.66782291792333" lon="12.496677925810218">
        <ele>56.07</ele>
        <time>2025-02-05T02:35:22.689Z</time>
      </trkpt>
      <trkpt lat="58.66781394928694" lon="12.496777921915054">
        <ele>56.1</ele>
        <time>2025-02-05T02:35:44.432Z</time>
      </trkpt>
      <trkpt lat="58.667787965387106" lon="12.496859980747104">
        <ele>56.12</ele>
        <time>2025-02-05T02:36:06.176Z</time>
      </trkpt>
      <trkpt lat="58.66774798370898" lon="12.496922928839922">
        <ele>56.14</ele>
        <time>2025-02-05T02:36:27.921Z</time>
      </trkpt>
      <trkpt lat="58.667699955403805" lon="12.496956959366798">
        <ele>56.16</ele>
        <time>2025-02-05T02:36:49.667Z</time>
      </trkpt>
      <trkpt lat="58.66764597594738" lon="12.496974980458617">
        <ele>56.18</ele>
        <time>2025-02-05T02:37:11.414Z</time>
      </trkpt>
      <trkpt lat="58.66758696734905" lon="12.496977997943759">
        <ele>56.2</ele>
        <time>2025-02-05T02:37:33.162Z</time>
      </trkpt>
      <trkpt lat="58.667525947093964" lon="12.496972968801856">
        <ele>56.22</ele>
        <time>2025-02-05T02:37:54.911Z</time>
      </trkpt>
      <trkpt lat="58.667463921010494" lon="12.496966933831573">
        <ele>56.23</ele>
        <time>2025-02-05T02:38:16.661Z</time>
      </trkpt>
      <trkpt lat="58.667397955432534" lon="12.496955953538418">
        <ele>56.25</ele>
        <time>2025-02-05T02:38:38.412Z</time>
      </trkpt>
      <trkpt lat="58.66732897236943" lon="12.496946984902024">
        <ele>56.26</ele>
        <time>2025-02-05T02:39:00.164Z</time>
      </trkpt>
      <trkpt lat="58.66725697182119" lon="12.49694094993174">
        <ele>56.27</ele>
        <time>2025-02-05T02:39:21.917Z</time>
      </trkpt>
      <trkpt lat="58.667183965444565" lon="12.496937932446599">
        <ele>56.28</ele>
        <time>2025-02-05T02:39:43.671Z</time>
      </trkpt>
      <trkpt lat="58.66710995323956" lon="12.49693893827498">
        <ele>56.29</ele>
        <time>2025-02-05T02:40:05.426Z</time>
      </trkpt>
      <trkpt lat="58.667033929377794" lon="12.496944973245263">
        <ele>56.3</ele>
        <time>2025-02-05T02:40:27.183Z</time>
      </trkpt>
      <trkpt lat="58.66695798933506" lon="12.496951930224895">
        <ele>56.31</ele>
        <time>2025-02-05T02:40:48.941Z</time>
      </trkpt>
      <trkpt lat="58.66687995381653" lon="12.49695897102356">
        <ele>56.32</ele>
        <time>2025-02-05T02:41:10.700Z</time>
      </trkpt>
      <trkpt lat="58.66680292412639" lon="12.496966933831573">
        <ele>56.33</ele>
        <time>2025-02-05T02:41:32.460Z</time>
      </trkpt>
      <trkpt lat="58.66672597825527" lon="12.496978919953108">
        <ele>56.34</ele>
        <time>2025-02-05T02:41:54.222Z</time>
      </trkpt>
      <trkpt lat="58.666648948565125" lon="12.496997946873307">
        <ele>56.35</ele>
        <time>2025-02-05T02:42:15.985Z</time>
      </trkpt>
      <trkpt lat="58.66657099686563" lon="12.497017979621887">
        <ele>56.36</ele>
        <time>2025-02-05T02:42:37.749Z</time>
      </trkpt>
      <trkpt lat="58.66649195551872" lon="12.497032983228564">
        <ele>56.37</ele>
        <time>2025-02-05T02:42:59.514Z</time>
      </trkpt>
      <trkpt lat="58.666411992162466" lon="12.49704698100686">
        <ele>56.38</ele>
        <time>2025-02-05T02:43:21.281Z</time>
      </trkpt>
      <trkpt lat="58.666328927502036" lon="12.497062990441918">
        <ele>56.39</ele>
        <time>2025-02-05T02:43:43.049Z</time>
      </trkpt>
      <trkpt lat="58.66624594666064" lon="12.497074976563454">
        <ele>56.4</ele>
        <time>2025-02-05T02:44:04.818Z</time>
      </trkpt>
      <trkpt lat="58.66616095416248" lon="12.497080927714705">
        <ele>56.41</ele>
        <time>2025-02-05T02:44:26.589Z</time>
      </trkpt>
      <trkpt lat="58.66607596166432" lon="12.497083945199847">
        <ele>56.42</ele>
        <time>2025-02-05T02:44:48.361Z</time>
      </trkpt>
      <trkpt lat="58.66598996333778" lon="12.497086962684989">
        <ele>56.43</ele>
        <time>2025-02-05T02:45:10.134Z</time>
      </trkpt>
      <trkpt lat="58.66590396501124" lon="12.497090985998511">
        <ele>56.43</ele>
        <time>2025-02-05T02:45:31.909Z</time>
      </trkpt>
      <trkpt lat="58.6658179666847" lon="12.497093919664621">
        <ele>56.44</ele>
        <time>2025-02-05T02:45:53.685Z</time>
      </trkpt>
      <trkpt lat="58.66573196835816" lon="12.497097942978144">
        <ele>56.44</ele>
        <time>2025-02-05T02:46:15.463Z</time>
      </trkpt>
      <trkpt lat="58.66564697586" lon="12.497101966291666">
        <ele>56.45</ele>
        <time>2025-02-05T02:46:37.242Z</time>
      </trkpt>
      <trkpt lat="58.66556198336184" lon="12.497107917442918">
        <ele>56.46</ele>
        <time>2025-02-05T02:46:59.022Z</time>
      </trkpt>
      <trkpt lat="58.66547891870141" lon="12.497114958241582">
        <ele>56.47</ele>
        <time>2025-02-05T02:47:20.804Z</time>
      </trkpt>
      <trkpt lat="58.66539493203163" lon="12.497122921049595">
        <ele>56.47</ele>
        <time>2025-02-05T02:47:42.587Z</time>
      </trkpt>
      <trkpt lat="58.66531195119023" lon="12.49713197350502">
        <ele>56.48</ele>
        <time>2025-02-05T02:48:04.371Z</time>
      </trkpt>
      <trkpt lat="58.665227964520454" lon="12.497144965454936">
        <ele>56.49</ele>
        <time>2025-02-05T02:48:26.157Z</time>
      </trkpt>
      <trkpt lat="58.665143977850676" lon="12.497159969061613">
        <ele>56.5</ele>
        <time>2025-02-05T02:48:47.944Z</time>
      </trkpt>
      <trkpt lat="58.6650599911809" lon="12.49717497266829">
        <ele>56.51</ele>
        <time>2025-02-05T02:49:09.732Z</time>
      </trkpt>
      <trkpt lat="58.66497499868274" lon="12.49719399958849">
        <ele>56.51</ele>
        <time>2025-02-05T02:49:31.522Z</time>
      </trkpt>
      <trkpt lat="58.66489092819393" lon="12.497214954346418">
        <ele>56.52</ele>
        <time>2025-02-05T02:49:53.313Z</time>
      </trkpt>
      <trkpt lat="58.66480593569577" lon="12.497237920761108">
        <ele>56.53</ele>
        <time>2025-02-05T02:50:15.105Z</time>
      </trkpt>
      <trkpt lat="58.66472194902599" lon="12.49726097099483">
        <ele>56.54</ele>
        <time>2025-02-05T02:50:36.899Z</time>
      </trkpt>
      <trkpt lat="58.66463896818459" lon="12.497286954894662">
        <ele>56.56</ele>
        <time>2025-02-05T02:50:58.694Z</time>
      </trkpt>
      <trkpt lat="58.66455498151481" lon="12.497313944622874">
        <ele>56.57</ele>
        <time>2025-02-05T02:51:20.491Z</time>
      </trkpt>
      <trkpt lat="58.66447099484503" lon="12.497340934351087">
        <ele>56.58</ele>
        <time>2025-02-05T02:51:42.289Z</time>
      </trkpt>
      <trkpt lat="58.6643879301846" lon="12.49737094156444">
        <ele>56.59</ele>
        <time>2025-02-05T02:52:04.088Z</time>
      </trkpt>
      <trkpt lat="58.664305955171585" lon="12.497402960434556">
        <ele>56.6</ele>
        <time>2025-02-05T02:52:25.889Z</time>
      </trkpt>
      <trkpt lat="58.66422297433019" lon="12.497434979304671">
        <ele>56.62</ele>
        <time>2025-02-05T02:52:47.691Z</time>
      </trkpt>
      <trkpt lat="58.66413999348879" lon="12.497468926012516">
        <ele>56.63</ele>
        <time>2025-02-05T02:53:09.494Z</time>
      </trkpt>
      <trkpt lat="58.66405793465674" lon="12.497502956539392">
        <ele>56.64</ele>
        <time>2025-02-05T02:53:31.299Z</time>
      </trkpt>
      <trkpt lat="58.66397595964372" lon="12.49753799289465">
        <ele>56.66</ele>
        <time>2025-02-05T02:53:53.105Z</time>
      </trkpt>
      <trkpt lat="58.663894990459085" lon="12.497574957087636">
        <ele>56.67</ele>
        <time>2025-02-05T02:54:14.912Z</time>
      </trkpt>
      <trkpt lat="58.663814943283796" lon="12.497614938765764">
        <ele>56.69</ele>
        <time>2025-02-05T02:54:36.721Z</time>
      </trkpt>
      <trkpt lat="58.66373598575592" lon="12.497657937929034">
        <ele>56.71</ele>
        <time>2025-02-05T02:54:58.531Z</time>
      </trkpt>
      <trkpt lat="58.66365795023739" lon="12.497704960405827">
        <ele>56.72</ele>
        <time>2025-02-05T02:55:20.342Z</time>
      </trkpt>
      <trkpt lat="58.66358092054725" lon="12.497752988711">
        <ele>56.74</ele>
        <time>2025-02-05T02:55:42.155Z</time>
      </trkpt>
      <trkpt lat="58.66350598633289" lon="12.497803950682282">
        <ele>56.75</ele>
        <time>2025-02-05T02:56:03.969Z</time>
      </trkpt>
      <trkpt lat="58.66343096829951" lon="12.497858935967088">
        <ele>56.77</ele>
        <time>2025-02-05T02:56:25.784Z</time>
      </trkpt>
      <trkpt lat="58.6633569560945" lon="12.497913921251893">
        <ele>56.79</ele>
        <time>2025-02-05T02:56:47.600Z</time>
      </trkpt>
      <trkpt lat="58.66328093223274" lon="12.497974941506982">
        <ele>56.81</ele>
        <time>2025-02-05T02:57:09.418Z</time>
      </trkpt>
      <trkpt lat="58.66320692002773" lon="12.49803395010531">
        <ele>56.82</ele>
        <time>2025-02-05T02:57:31.237Z</time>
      </trkpt>
      <trkpt lat="58.66313299164176" lon="12.498093964532018">
        <ele>56.84</ele>
        <time>2025-02-05T02:57:53.057Z</time>
      </trkpt>
      <trkpt lat="58.663059985265136" lon="12.498153978958726">
        <ele>56.86</ele>
        <time>2025-02-05T02:58:14.879Z</time>
      </trkpt>
      <trkpt lat="58.66298697888851" lon="12.498212987557054">
        <ele>56.89</ele>
        <time>2025-02-05T02:58:36.702Z</time>
      </trkpt>
      <trkpt lat="58.66291397251189" lon="12.498270990327">
        <ele>56.91</ele>
        <time>2025-02-05T02:58:58.526Z</time>
      </trkpt>
      <trkpt lat="58.66283996030688" lon="12.498328993096948">
        <ele>56.93</ele>
        <time>2025-02-05T02:59:20.351Z</time>
      </trkpt>
      <trkpt lat="58.66276594810188" lon="12.498387917876244">
        <ele>56.95</ele>
        <time>2025-02-05T02:59:42.178Z</time>
      </trkpt>
      <trkpt lat="58.662692941725254" lon="12.498446926474571">
        <ele>56.98</ele>
        <time>2025-02-05T03:00:04.006Z</time>
      </trkpt>
      <trkpt lat="58.66261993534863" lon="12.498505935072899">
        <ele>57.0</ele>
        <time>2025-02-05T03:00:25.835Z</time>
      </trkpt>
      <trkpt lat="58.662545923143625" lon="12.498559998348355">
        <ele>57.03</ele>
        <time>2025-02-05T03:00:47.665Z</time>
      </trkpt>
      <trkpt lat="58.66247199475765" lon="12.4986129719764">
        <ele>57.05</ele>
        <time>2025-02-05T03:01:09.497Z</time>
      </trkpt>
      <trkpt lat="58.66239697672427" lon="12.498664939776063">
        <ele>57.08</ele>
        <time>2025-02-05T03:01:31.330Z</time>
      </trkpt>
      <trkpt lat="58.66231894120574" lon="12.498712968081236">
        <ele>57.11</ele>
        <time>2025-02-05T03:01:53.164Z</time>
      </trkpt>
      <trkpt lat="58.662241995334625" lon="12.498755967244506">
        <ele>57.14</ele>
        <time>2025-02-05T03:02:15.000Z</time>
      </trkpt>
      <trkpt lat="58.6621639598161" lon="12.498792931437492">
        <ele>57.18</ele>
        <time>2025-02-05T03:02:36.837Z</time>
      </trkpt>
      <trkpt lat="58.66208592429757" lon="12.498826961964369">
        <ele>57.21</ele>
        <time>2025-02-05T03:02:58.675Z</time>
      </trkpt>
      <trkpt lat="58.662006966769695" lon="12.498858980834484">
        <ele>57.24</ele>
        <time>2025-02-05T03:03:20.515Z</time>
      </trkpt>
      <trkpt lat="58.66192792542279" lon="12.4988909997046">
        <ele>57.28</ele>
        <time>2025-02-05T03:03:42.356Z</time>
      </trkpt>
      <trkpt lat="58.66184796206653" lon="12.498919917270541">
        <ele>57.31</ele>
        <time>2025-02-05T03:04:04.198Z</time>
      </trkpt>
      <trkpt lat="58.661768920719624" lon="12.498945984989405">
        <ele>57.35</ele>
        <time>2025-02-05T03:04:26.041Z</time>
      </trkpt>
      <trkpt lat="58.66168895736337" lon="12.498969957232475">
        <ele>57.39</ele>
        <time>2025-02-05T03:04:47.886Z</time>
      </trkpt>
      <trkpt lat="58.66160999983549" lon="12.498991917818785">
        <ele>57.43</ele>
        <time>2025-02-05T03:05:09.732Z</time>
      </trkpt>
      <trkpt lat="58.661530958488584" lon="12.499010944738984">
        <ele>57.47</ele>
        <time>2025-02-05T03:05:31.579Z</time>
      </trkpt>
      <trkpt lat="58.66145099513233" lon="12.499028965830803">
        <ele>57.52</ele>
        <time>2025-02-05T03:05:53.428Z</time>
      </trkpt>
      <trkpt lat="58.66136994212866" lon="12.49904396943748">
        <ele>57.56</ele>
        <time>2025-02-05T03:06:15.278Z</time>
      </trkpt>
      <trkpt lat="58.66128897294402" lon="12.499059978872538">
        <ele>57.61</ele>
        <time>2025-02-05T03:06:37.129Z</time>
      </trkpt>
      <trkpt lat="58.661209931597114" lon="12.499078921973705">
        <ele>57.66</ele>
        <time>2025-02-05T03:06:58.981Z</time>
      </trkpt>
      <trkpt lat="58.66113097406924" lon="12.499099960550666">
        <ele>57.7</ele>
        <time>2025-02-05T03:07:20.835Z</time>
      </trkpt>
      <trkpt lat="58.66105193272233" lon="12.499122926965356">
        <ele>57.75</ele>
        <time>2025-02-05T03:07:42.690Z</time>
      </trkpt>
      <trkpt lat="58.660973981022835" lon="12.49914899468422">
        <ele>57.8</ele>
        <time>2025-02-05T03:08:04.546Z</time>
      </trkpt>
      <trkpt lat="58.66089795716107" lon="12.499180929735303">
        <ele>57.85</ele>
        <time>2025-02-05T03:08:26.404Z</time>
      </trkpt>
      <trkpt lat="58.6608219332993" lon="12.499218983575702">
        <ele>57.9</ele>
        <time>2025-02-05T03:08:48.263Z</time>
      </trkpt>
      <trkpt lat="58.6607479210943" lon="12.499260976910591">
        <ele>57.95</ele>
        <time>2025-02-05T03:09:10.123Z</time>
      </trkpt>
      <trkpt lat="58.660674998536706" lon="12.499304981902242">
        <ele>58.01</ele>
        <time>2025-02-05T03:09:31.984Z</time>
      </trkpt>
      <trkpt lat="58.66060391999781" lon="12.499350998550653">
        <ele>58.06</ele>
        <time>2025-02-05T03:09:53.846Z</time>
      </trkpt>
      <trkpt lat="58.66053393110633" lon="12.499398943036795">
        <ele>58.12</ele>
        <time>2025-02-05T03:10:15.710Z</time>
      </trkpt>
      <trkpt lat="58.66046394221485" lon="12.499446971341968">
        <ele>58.18</ele>
        <time>2025-02-05T03:10:37.575Z</time>
      </trkpt>
      <trkpt lat="58.660392947494984" lon="12.49949499964714">
        <ele>58.24</ele>
        <time>2025-02-05T03:10:59.441Z</time>
      </trkpt>
      <trkpt lat="58.66032396443188" lon="12.499543949961662">
        <ele>58.3</ele>
        <time>2025-02-05T03:11:21.308Z</time>
      </trkpt>
      <trkpt lat="58.6602539755404" lon="12.499591978266835">
        <ele>58.36</ele>
        <time>2025-02-05T03:11:43.176Z</time>
      </trkpt>
      <trkpt lat="58.6601849924773" lon="12.499640928581357">
        <ele>58.43</ele>
        <time>2025-02-05T03:12:05.046Z</time>
      </trkpt>
      <trkpt lat="58.660114919766784" lon="12.49968996271491">
        <ele>58.49</ele>
        <time>2025-02-05T03:12:26.917Z</time>
      </trkpt>
      <trkpt lat="58.66004593670368" lon="12.499737991020083">
        <ele>58.56</ele>
        <time>2025-02-05T03:12:48.789Z</time>
      </trkpt>
      <trkpt lat="58.6599759478122" lon="12.499784929677844">
        <ele>58.63</ele>
        <time>2025-02-05T03:13:10.662Z</time>
      </trkpt>
      <trkpt lat="58.65990797057748" lon="12.499832957983017">
        <ele>58.7</ele>
        <time>2025-02-05T03:13:32.536Z</time>
      </trkpt>
      <trkpt lat="58.65983999334276" lon="12.49988199211657">
        <ele>58.77</ele>
        <time>2025-02-05T03:13:54.411Z</time>
      </trkpt>
      <trkpt lat="58.659771932289004" lon="12.499933959916234">
        <ele>58.84</ele>
        <time>2025-02-05T03:14:16.288Z</time>
      </trkpt>
      <trkpt lat="58.659704960882664" lon="12.4999909568578">
        <ele>58.91</ele>
        <time>2025-02-05T03:14:38.166Z</time>
      </trkpt>
      <trkpt lat="58.65963798947632" lon="12.500050971284509">
        <ele>58.98</ele>
        <time>2025-02-05T03:15:00.045Z</time>
      </trkpt>
      <trkpt lat="58.65957294590771" lon="12.500115931034088">
        <ele>59.06</ele>
        <time>2025-02-05T03:15:21.925Z</time>
      </trkpt>
      <trkpt lat="58.65950798615813" lon="12.50018298625946">
        <ele>59.14</ele>
        <time>2025-02-05T03:15:43.806Z</time>
      </trkpt>
      <trkpt lat="58.65944495424628" lon="12.500253980979323">
        <ele>59.22</ele>
        <time>2025-02-05T03:16:05.689Z</time>
      </trkpt>
      <trkpt lat="58.659383933991194" lon="12.500329921022058">
        <ele>59.3</ele>
        <time>2025-02-05T03:16:27.573Z</time>
      </trkpt>
      <trkpt lat="58.659324925392866" lon="12.500409968197346">
        <ele>59.38</ele>
        <time>2025-02-05T03:16:49.458Z</time>
      </trkpt>
      <trkpt lat="58.65926893427968" lon="12.500490937381983">
        <ele>59.46</ele>
        <time>2025-02-05T03:17:11.344Z</time>
      </trkpt>
      <trkpt lat="58.659213948994875" lon="12.500574924051762">
        <ele>59.54</ele>
        <time>2025-02-05T03:17:33.231Z</time>
      </trkpt>
      <trkpt lat="58.65916198119521" lon="12.500661928206682">
        <ele>59.63</ele>
        <time>2025-02-05T03:17:55.119Z</time>
      </trkpt>
      <trkpt lat="58.6591109354049" lon="12.500748932361603">
        <ele>59.72</ele>
        <time>2025-02-05T03:18:17.008Z</time>
      </trkpt>
      <trkpt lat="58.659060979261994" lon="12.500834930688143">
        <ele>59.81</ele>
        <time>2025-02-05T03:18:38.898Z</time>
      </trkpt>
      <trkpt lat="58.65901194512844" lon="12.500921934843063">
        <ele>59.89</ele>
        <time>2025-02-05T03:19:00.789Z</time>
      </trkpt>
      <trkpt lat="58.65896299481392" lon="12.501009944826365">
        <ele>59.98</ele>
        <time>2025-02-05T03:19:22.682Z</time>
      </trkpt>
      <trkpt lat="58.658911949023604" lon="12.501094937324524">
        <ele>60.07</ele>
        <time>2025-02-05T03:19:44.576Z</time>
      </trkpt>
      <trkpt lat="58.65886098705232" lon="12.501177918165922">
        <ele>60.15</ele>
        <time>2025-02-05T03:20:06.471Z</time>
      </trkpt>
      <trkpt lat="58.658807929605246" lon="12.50125796534121">
        <ele>60.24</ele>
        <time>2025-02-05T03:20:28.367Z</time>
      </trkpt>
      <trkpt lat="58.65875294432044" lon="12.501336922869086">
        <ele>60.33</ele>
        <time>2025-02-05T03:20:50.264Z</time>
      </trkpt>
      <trkpt lat="58.658697959035635" lon="12.501413952559233">
        <ele>60.42</ele>
        <time>2025-02-05T03:21:12.162Z</time>
      </trkpt>
      <trkpt lat="58.65864498540759" lon="12.50149492174387">
        <ele>60.52</ele>
        <time>2025-02-05T03:21:34.061Z</time>
      </trkpt>
      <trkpt lat="58.658592933788896" lon="12.50157899223268">
        <ele>60.61</ele>
        <time>2025-02-05T03:21:55.961Z</time>
      </trkpt>
      <trkpt lat="58.65854297764599" lon="12.50166499055922">
        <ele>60.71</ele>
        <time>2025-02-05T03:22:17.862Z</time>
      </trkpt>
      <trkpt lat="58.65849394351244" lon="12.501754928380251">
        <ele>60.8</ele>
        <time>2025-02-05T03:22:39.764Z</time>
      </trkpt>
      <trkpt lat="58.65844692103565" lon="12.501846961677074">
        <ele>60.89</ele>
        <time>2025-02-05T03:23:01.667Z</time>
      </trkpt>
      <trkpt lat="58.65840199403465" lon="12.501938994973898">
        <ele>60.99</ele>
        <time>2025-02-05T03:23:23.571Z</time>
      </trkpt>
      <trkpt lat="58.65835698321462" lon="12.502028932794929">
        <ele>61.08</ele>
        <time>2025-02-05T03:23:45.476Z</time>
      </trkpt>
      <trkpt lat="58.658310966566205" lon="12.50211694277823">
        <ele>61.17</ele>
        <time>2025-02-05T03:24:07.383Z</time>
      </trkpt>
      <trkpt lat="58.658265955746174" lon="12.50220394693315">
        <ele>61.27</ele>
        <time>2025-02-05T03:24:29.291Z</time>
      </trkpt>
      <trkpt lat="58.658217927441" lon="12.50228893943131">
        <ele>61.37</ele>
        <time>2025-02-05T03:24:51.200Z</time>
      </trkpt>
      <trkpt lat="58.65817098878324" lon="12.502371920272708">
        <ele>61.47</ele>
        <time>2025-02-05T03:25:13.110Z</time>
      </trkpt>
      <trkpt lat="58.65812195464969" lon="12.502451967447996">
        <ele>61.56</ele>
        <time>2025-02-05T03:25:35.021Z</time>
      </trkpt>
      <trkpt lat="58.658071998506784" lon="12.502528997138143">
        <ele>61.66</ele>
        <time>2025-02-05T03:25:56.933Z</time>
      </trkpt>
      <trkpt lat="58.65801994688809" lon="12.502602925524116">
        <ele>61.76</ele>
        <time>2025-02-05T03:26:18.846Z</time>
      </trkpt>
      <trkpt lat="58.657966973260045" lon="12.50267299823463">
        <ele>61.85</ele>
        <time>2025-02-05T03:26:40.760Z</time>
      </trkpt>
      <trkpt lat="58.65791198797524" lon="12.502737957984209">
        <ele>61.95</ele>
        <time>2025-02-05T03:27:02.675Z</time>
      </trkpt>
      <trkpt lat="58.657855996862054" lon="12.502799984067678">
        <ele>62.04</ele>
        <time>2025-02-05T03:27:24.591Z</time>
      </trkpt>
      <trkpt lat="58.65779899992049" lon="12.502859998494387">
        <ele>62.14</ele>
        <time>2025-02-05T03:27:46.508Z</time>
      </trkpt>
      <trkpt lat="58.65774191915989" lon="12.502917917445302">
        <ele>62.24</ele>
        <time>2025-02-05T03:28:08.426Z</time>
      </trkpt>
      <trkpt lat="58.65768391638994" lon="12.50297399237752">
        <ele>62.33</ele>
        <time>2025-02-05T03:28:30.345Z</time>
      </trkpt>
      <trkpt lat="58.657627925276756" lon="12.503029983490705">
        <ele>62.43</ele>
        <time>2025-02-05T03:28:52.265Z</time>
      </trkpt>
      <trkpt lat="58.65757193416357" lon="12.503085974603891">
        <ele>62.53</ele>
        <time>2025-02-05T03:29:14.186Z</time>
      </trkpt>
      <trkpt lat="58.657516948878765" lon="12.503142971545458">
        <ele>62.62</ele>
        <time>2025-02-05T03:29:36.108Z</time>
      </trkpt>
      <trkpt lat="58.65746196359396" lon="12.503200974315405">
        <ele>62.71</ele>
        <time>2025-02-05T03:29:58.031Z</time>
      </trkpt>
      <trkpt lat="58.657407984137535" lon="12.503259982913733">
        <ele>62.8</ele>
        <time>2025-02-05T03:30:19.955Z</time>
      </trkpt>
      <trkpt lat="58.65735392086208" lon="12.50331999734044">
        <ele>62.9</ele>
        <time>2025-02-05T03:30:41.880Z</time>
      </trkpt>
      <trkpt lat="58.657300947234035" lon="12.503379927948117">
        <ele>62.99</ele>
        <time>2025-02-05T03:31:03.806Z</time>
      </trkpt>
      <trkpt lat="58.65724797360599" lon="12.503440948203206">
        <ele>63.08</ele>
        <time>2025-02-05T03:31:25.733Z</time>
      </trkpt>
      <trkpt lat="58.657194999977946" lon="12.503501968458295">
        <ele>63.18</ele>
        <time>2025-02-05T03:31:47.661Z</time>
      </trkpt>
      <trkpt lat="58.65714294835925" lon="12.503562988713384">
        <ele>63.27</ele>
        <time>2025-02-05T03:32:09.590Z</time>
      </trkpt>
      <trkpt lat="58.65709098055959" lon="12.503626942634583">
        <ele>63.36</ele>
        <time>2025-02-05T03:32:31.520Z</time>
      </trkpt>
      <trkpt lat="58.65704094059765" lon="12.503692992031574">
        <ele>63.45</ele>
        <time>2025-02-05T03:32:53.451Z</time>
      </trkpt>
      <trkpt lat="58.65699199028313" lon="12.503760969266295">
        <ele>63.54</ele>
        <time>2025-02-05T03:33:15.383Z</time>
      </trkpt>
      <trkpt lat="58.65694597363472" lon="12.503831963986158">
        <ele>63.63</ele>
        <time>2025-02-05T03:33:37.316Z</time>
      </trkpt>
      <trkpt lat="58.65690196864307" lon="12.503906982019544">
        <ele>63.72</ele>
        <time>2025-02-05T03:33:59.250Z</time>
      </trkpt>
      <trkpt lat="58.65685997530818" lon="12.503983927890658">
        <ele>63.81</ele>
        <time>2025-02-05T03:34:21.185Z</time>
      </trkpt>
      <trkpt lat="58.65681898780167" lon="12.504063975065947">
        <ele>63.9</ele>
        <time>2025-02-05T03:34:43.121Z</time>
      </trkpt>
      <trkpt lat="58.65677892230451" lon="12.504144944250584">
        <ele>63.99</ele>
        <time>2025-02-05T03:35:05.058Z</time>
      </trkpt>
      <trkpt lat="58.65673994645476" lon="12.504225997254252">
        <ele>64.07</ele>
        <time>2025-02-05T03:35:26.995Z</time>
      </trkpt>
      <trkpt lat="58.656700970605016" lon="12.504305960610509">
        <ele>64.15</ele>
        <time>2025-02-05T03:35:48.933Z</time>
      </trkpt>
      <trkpt lat="58.65666291676462" lon="12.504384918138385">
        <ele>64.24</ele>
        <time>2025-02-05T03:36:10.872Z</time>
      </trkpt>
      <trkpt lat="58.65662192925811" lon="12.504461947828531">
        <ele>64.31</ele>
        <time>2025-02-05T03:36:32.812Z</time>
      </trkpt>
      <trkpt lat="58.65657993592322" lon="12.504531936720014">
        <ele>64.38</ele>
        <time>2025-02-05T03:36:54.753Z</time>
      </trkpt>
      <trkpt lat="58.65653391927481" lon="12.504594968631864">
        <ele>64.46</ele>
        <time>2025-02-05T03:37:16.695Z</time>
      </trkpt>
      <trkpt lat="58.65648798644543" lon="12.504647942259908">
        <ele>64.53</ele>
        <time>2025-02-05T03:37:38.638Z</time>
      </trkpt>
      <trkpt lat="58.65643895231187" lon="12.504688929766417">
        <ele>64.61</ele>
        <time>2025-02-05T03:38:00.582Z</time>
      </trkpt>
      <trkpt lat="58.65638799034059" lon="12.50471893697977">
        <ele>64.67</ele>
        <time>2025-02-05T03:38:22.527Z</time>
      </trkpt>
      <trkpt lat="58.656333927065134" lon="12.504735952243209">
        <ele>64.74</ele>
        <time>2025-02-05T03:38:44.472Z</time>
      </trkpt>
      <trkpt lat="58.65627693012357" lon="12.504743998870254">
        <ele>64.8</ele>
        <time>2025-02-05T03:39:06.418Z</time>
      </trkpt>
      <trkpt lat="58.65621792152524" lon="12.504742993041873">
        <ele>64.87</ele>
        <time>2025-02-05T03:39:28.365Z</time>
      </trkpt>
      <trkpt lat="58.65615698508918" lon="12.504735952243209">
        <ele>64.93</ele>
        <time>2025-02-05T03:39:50.313Z</time>
      </trkpt>
      <trkpt lat="58.65609395317733" lon="12.504726983606815">
        <ele>64.99</ele>
        <time>2025-02-05T03:40:12.262Z</time>
      </trkpt>
      <trkpt lat="58.65603192709386" lon="12.504715919494629">
        <ele>65.05</ele>
        <time>2025-02-05T03:40:34.212Z</time>
      </trkpt>
      <trkpt lat="58.655968979001045" lon="12.504704939201474">
        <ele>65.1</ele>
        <time>2025-02-05T03:40:56.163Z</time>
      </trkpt>
      <trkpt lat="58.655905947089195" lon="12.50469395890832">
        <ele>65.16</ele>
        <time>2025-02-05T03:41:18.115Z</time>
      </trkpt>
      <trkpt lat="58.655840987339616" lon="12.504685996100307">
        <ele>65.22</ele>
        <time>2025-02-05T03:41:40.068Z</time>
      </trkpt>
      <trkpt lat="58.655775943771005" lon="12.504678955301642">
        <ele>65.27</ele>
        <time>2025-02-05T03:42:02.022Z</time>
      </trkpt>
      <trkpt lat="58.655710984021425" lon="12.50467199832201">
        <ele>65.32</ele>
        <time>2025-02-05T03:42:23.977Z</time>
      </trkpt>
      <trkpt lat="58.65564493462443" lon="12.504667975008488">
        <ele>65.37</ele>
        <time>2025-02-05T03:42:45.934Z</time>
      </trkpt>
      <trkpt lat="58.65557796321809" lon="12.504664957523346">
        <ele>65.42</ele>
        <time>2025-02-05T03:43:07.892Z</time>
      </trkpt>
      <trkpt lat="58.65550998598337" lon="12.504662945866585">
        <ele>65.47</ele>
        <time>2025-02-05T03:43:29.851Z</time>
      </trkpt>
      <trkpt lat="58.655442930758" lon="12.504663951694965">
        <ele>65.51</ele>
        <time>2025-02-05T03:43:51.811Z</time>
      </trkpt>
      <trkpt lat="58.65537595935166" lon="12.504666969180107">
        <ele>65.55</ele>
        <time>2025-02-05T03:44:13.772Z</time>
      </trkpt>
      <trkpt lat="58.6553099937737" lon="12.504669986665249">
        <ele>65.59</ele>
        <time>2025-02-05T03:44:35.734Z</time>
      </trkpt>
      <trkpt lat="58.65524394437671" lon="12.50467199832201">
        <ele>65.63</ele>
        <time>2025-02-05T03:44:57.697Z</time>
      </trkpt>
      <trkpt lat="58.65517999045551" lon="12.5046759378165">
        <ele>65.67</ele>
        <time>2025-02-05T03:45:19.661Z</time>
      </trkpt>
      <trkpt lat="58.65511595271528" lon="12.504682978615165">
        <ele>65.71</ele>
        <time>2025-02-05T03:45:41.626Z</time>
      </trkpt>
      <trkpt lat="58.65505199879408" lon="12.504691947251558">
        <ele>65.74</ele>
        <time>2025-02-05T03:46:03.592Z</time>
      </trkpt>
      <trkpt lat="58.65498695522547" lon="12.504707956686616">
        <ele>65.77</ele>
        <time>2025-02-05T03:46:25.559Z</time>
      </trkpt>
      <trkpt lat="58.65491998381913" lon="12.504729917272925">
        <ele>65.81</ele>
        <time>2025-02-05T03:46:47.527Z</time>
      </trkpt>
      <trkpt lat="58.654851922765374" lon="12.504755984991789">
        <ele>65.83</ele>
        <time>2025-02-05T03:47:09.496Z</time>
      </trkpt>
      <trkpt lat="58.65478193387389" lon="12.504784986376762">
        <ele>65.86</ele>
        <time>2025-02-05T03:47:31.466Z</time>
      </trkpt>
      <trkpt lat="58.65471194498241" lon="12.504816921427846">
        <ele>65.89</ele>
        <time>2025-02-05T03:47:53.438Z</time>
      </trkpt>
      <trkpt lat="58.65464296191931" lon="12.5048469286412">
        <ele>65.92</ele>
        <time>2025-02-05T03:48:15.411Z</time>
      </trkpt>
      <trkpt lat="58.654573978856206" lon="12.504871990531683">
        <ele>65.94</ele>
        <time>2025-02-05T03:48:37.385Z</time>
      </trkpt>
      <trkpt lat="58.65450591780245" lon="12.504891939461231">
        <ele>65.97</ele>
        <time>2025-02-05T03:48:59.360Z</time>
      </trkpt>
      <trkpt lat="58.65443894639611" lon="12.504904931411147">
        <ele>65.99</ele>
        <time>2025-02-05T03:49:21.336Z</time>
      </trkpt>
      <trkpt lat="58.65437197498977" lon="12.504914989694953">
        <ele>66.0</ele>
        <time>2025-02-05T03:49:43.313Z</time>
      </trkpt>
      <trkpt lat="58.6543049197644" lon="12.504921946674585">
        <ele>66.02</ele>
        <time>2025-02-05T03:50:05.291Z</time>
      </trkpt>
      <trkpt lat="58.65423694252968" lon="12.504926975816488">
        <ele>66.03</ele>
        <time>2025-02-05T03:50:27.270Z</time>
      </trkpt>
      <trkpt lat="58.654165947809815" lon="12.50492898747325">
        <ele>66.05</ele>
        <time>2025-02-05T03:50:49.250Z</time>
      </trkpt>
      <trkpt lat="58.65409495308995" lon="12.50492898747325">
        <ele>66.06</ele>
        <time>2025-02-05T03:51:11.232Z</time>
      </trkpt>
      <trkpt lat="58.65402597002685" lon="12.504925969988108">
        <ele>66.07</ele>
        <time>2025-02-05T03:51:33.215Z</time>
      </trkpt>
      <trkpt lat="58.65395598113537" lon="12.504924964159727">
        <ele>66.07</ele>
        <time>2025-02-05T03:51:55.199Z</time>
      </trkpt>
      <trkpt lat="58.653882974758744" lon="12.504925969988108">
        <ele>66.08</ele>
        <time>2025-02-05T03:52:17.184Z</time>
      </trkpt>
      <trkpt lat="58.65380996838212" lon="12.504925969988108">
        <ele>66.09</ele>
        <time>2025-02-05T03:52:39.170Z</time>
      </trkpt>
      <trkpt lat="58.653735956177115" lon="12.504922952502966">
        <ele>66.09</ele>
        <time>2025-02-05T03:53:01.157Z</time>
      </trkpt>
      <trkpt lat="58.65366194397211" lon="12.504919935017824">
        <ele>66.09</ele>
        <time>2025-02-05T03:53:23.146Z</time>
      </trkpt>
      <trkpt lat="58.653587931767106" lon="12.504917923361063">
        <ele>66.09</ele>
        <time>2025-02-05T03:53:45.136Z</time>
      </trkpt>
      <trkpt lat="58.65351098589599" lon="12.504915995523334">
        <ele>66.08</ele>
        <time>2025-02-05T03:54:07.127Z</time>
      </trkpt>
      <trkpt lat="58.653435967862606" lon="12.504913983866572">
        <ele>66.08</ele>
        <time>2025-02-05T03:54:29.119Z</time>
      </trkpt>
      <trkpt lat="58.6533619556576" lon="12.50491096638143">
        <ele>66.07</ele>
        <time>2025-02-05T03:54:51.112Z</time>
      </trkpt>
      <trkpt lat="58.6532879434526" lon="12.504906943067908">
        <ele>66.07</ele>
        <time>2025-02-05T03:55:13.107Z</time>
      </trkpt>
      <trkpt lat="58.65321393124759" lon="12.504901997745037">
        <ele>66.06</ele>
        <time>2025-02-05T03:55:35.103Z</time>
      </trkpt>
      <trkpt lat="58.65313991904259" lon="12.504896968603134">
        <ele>66.05</ele>
        <time>2025-02-05T03:55:57.100Z</time>
      </trkpt>
      <trkpt lat="58.653066996484995" lon="12.504892945289612">
        <ele>66.04</ele>
        <time>2025-02-05T03:56:19.098Z</time>
      </trkpt>
      <trkpt lat="58.65299298427999" lon="12.50489093363285">
        <ele>66.03</ele>
        <time>2025-02-05T03:56:41.097Z</time>
      </trkpt>
      <trkpt lat="58.652919977903366" lon="12.504892945289612">
        <ele>66.02</ele>
        <time>2025-02-05T03:57:03.097Z</time>
      </trkpt>
      <trkpt lat="58.65284697152674" lon="12.504897974431515">
        <ele>66.0</ele>
        <time>2025-02-05T03:57:25.099Z</time>
      </trkpt>
      <trkpt lat="58.6527749709785" lon="12.504906943067908">
        <ele>65.99</ele>
        <time>2025-02-05T03:57:47.102Z</time>
      </trkpt>
      <trkpt lat="58.652701964601874" lon="12.504919935017824">
        <ele>65.98</ele>
        <time>2025-02-05T03:58:09.106Z</time>
      </trkpt>
      <trkpt lat="58.65262895822525" lon="12.504935944452882">
        <ele>65.96</ele>
        <time>2025-02-05T03:58:31.111Z</time>
      </trkpt>
      <trkpt lat="58.65255695767701" lon="12.5049539655447">
        <ele>65.95</ele>
        <time>2025-02-05T03:58:53.117Z</time>
      </trkpt>
      <trkpt lat="58.65248395130038" lon="12.50497198663652">
        <ele>65.93</ele>
        <time>2025-02-05T03:59:15.124Z</time>
      </trkpt>
      <trkpt lat="58.65241094492376" lon="12.504990929737687">
        <ele>65.91</ele>
        <time>2025-02-05T03:59:37.133Z</time>
      </trkpt>
      <trkpt lat="58.652338944375515" lon="12.505009956657887">
        <ele>65.9</ele>
        <time>2025-02-05T03:59:59.143Z</time>
      </trkpt>
      <trkpt lat="58.65226794965565" lon="12.505026971921325">
        <ele>65.88</ele>
        <time>2025-02-05T04:00:21.154Z</time>
      </trkpt>
      <trkpt lat="58.65219796076417" lon="12.505042981356382">
        <ele>65.86</ele>
        <time>2025-02-05T04:00:43.166Z</time>
      </trkpt>
      <trkpt lat="58.65212797187269" lon="12.50505798496306">
        <ele>65.84</ele>
        <time>2025-02-05T04:01:05.179Z</time>
      </trkpt>
      <trkpt lat="58.652058988809586" lon="12.505072988569736">
        <ele>65.82</ele>
        <time>2025-02-05T04:01:27.193Z</time>
      </trkpt>
      <trkpt lat="58.65198799408972" lon="12.505087992176414">
        <ele>65.8</ele>
        <time>2025-02-05T04:01:49.208Z</time>
      </trkpt>
      <trkpt lat="58.65191792137921" lon="12.50510299578309">
        <ele>65.78</ele>
        <time>2025-02-05T04:02:11.225Z</time>
      </trkpt>
      <trkpt lat="58.651847932487726" lon="12.505116993561387">
        <ele>65.75</ele>
        <time>2025-02-05T04:02:33.243Z</time>
      </trkpt>
      <trkpt lat="58.65177693776786" lon="12.505129985511303">
        <ele>65.74</ele>
        <time>2025-02-05T04:02:55.262Z</time>
      </trkpt>
      <trkpt lat="58.651705943048" lon="12.5051439832896">
        <ele>65.72</ele>
        <time>2025-02-05T04:03:17.282Z</time>
      </trkpt>
      <trkpt lat="58.65163595415652" lon="12.505156975239515">
        <ele>65.69</ele>
        <time>2025-02-05T04:03:39.303Z</time>
      </trkpt>
      <trkpt lat="58.651564959436655" lon="12.505169967189431">
        <ele>65.67</ele>
        <time>2025-02-05T04:04:01.325Z</time>
      </trkpt>
      <trkpt lat="58.65149396471679" lon="12.505185976624489">
        <ele>65.65</ele>
        <time>2025-02-05T04:04:23.348Z</time>
      </trkpt>
      <trkpt lat="58.65142196416855" lon="12.505202991887927">
        <ele>65.62</ele>
        <time>2025-02-05T04:04:45.373Z</time>
      </trkpt>
      <trkpt lat="58.651349963620305" lon="12.505220929160714">
        <ele>65.6</ele>
        <time>2025-02-05T04:05:07.399Z</time>
      </trkpt>
      <trkpt lat="58.65127796307206" lon="12.505237944424152">
        <ele>65.58</ele>
        <time>2025-02-05T04:05:29.426Z</time>
      </trkpt>
      <trkpt lat="58.65120495669544" lon="12.505256971344352">
        <ele>65.55</ele>
        <time>2025-02-05T04:05:51.454Z</time>
      </trkpt>
      <trkpt lat="58.651132956147194" lon="12.50527499243617">
        <ele>65.53</ele>
        <time>2025-02-05T04:06:13.483Z</time>
      </trkpt>
      <trkpt lat="58.65105994977057" lon="12.505292929708958">
        <ele>65.51</ele>
        <time>2025-02-05T04:06:35.513Z</time>
      </trkpt>
      <trkpt lat="58.650987949222326" lon="12.505310950800776">
        <ele>65.48</ele>
        <time>2025-02-05T04:06:57.545Z</time>
      </trkpt>
      <trkpt lat="58.65091594867408" lon="12.505324948579073">
        <ele>65.46</ele>
        <time>2025-02-05T04:07:19.578Z</time>
      </trkpt>
      <trkpt lat="58.65084394812584" lon="12.505337940528989">
        <ele>65.43</ele>
        <time>2025-02-05T04:07:41.612Z</time>
      </trkpt>
      <trkpt lat="58.650770941749215" lon="12.505350932478905">
        <ele>65.4</ele>
        <time>2025-02-05T04:08:03.647Z</time>
      </trkpt>
      <trkpt lat="58.65069793537259" lon="12.50536291860044">
        <ele>65.38</ele>
        <time>2025-02-05T04:08:25.683Z</time>
      </trkpt>
      <trkpt lat="58.65062492899597" lon="12.505375994369388">
        <ele>65.35</ele>
        <time>2025-02-05T04:08:47.720Z</time>
      </trkpt>
      <trkpt lat="58.65055091679096" lon="12.505387980490923">
        <ele>65.32</ele>
        <time>2025-02-05T04:09:09.759Z</time>
      </trkpt>
      <trkpt lat="58.65047698840499" lon="12.505398960784078">
        <ele>65.3</ele>
        <time>2025-02-05T04:09:31.799Z</time>
      </trkpt>
      <trkpt lat="58.650401970371604" lon="12.505407929420471">
        <ele>65.28</ele>
        <time>2025-02-05T04:09:53.840Z</time>
      </trkpt>
      <trkpt lat="58.65032695233822" lon="12.505415976047516">
        <ele>65.26</ele>
        <time>2025-02-05T04:10:15.882Z</time>
      </trkpt>
      <trkpt lat="58.65025193430483" lon="12.505421927198768">
        <ele>65.23</ele>
        <time>2025-02-05T04:10:37.925Z</time>
      </trkpt>
      <trkpt lat="58.6501759942621" lon="12.505423938855529">
        <ele>65.21</ele>
        <time>2025-02-05T04:10:59.970Z</time>
      </trkpt>
      <trkpt lat="58.65009997040033" lon="12.50542595051229">
        <ele>65.18</ele>
        <time>2025-02-05T04:11:22.016Z</time>
      </trkpt>
      <trkpt lat="58.65002394653857" lon="12.505427962169051">
        <ele>65.16</ele>
        <time>2025-02-05T04:11:44.063Z</time>
      </trkpt>
      <trkpt lat="58.6499479226768" lon="12.505428967997432">
        <ele>65.14</ele>
        <time>2025-02-05T04:12:06.111Z</time>
      </trkpt>
      <trkpt lat="58.64987097680569" lon="12.50542695634067">
        <ele>65.12</ele>
        <time>2025-02-05T04:12:28.161Z</time>
      </trkpt>
      <trkpt lat="58.64979495294392" lon="12.505420921370387">
        <ele>65.1</ele>
        <time>2025-02-05T04:12:50.212Z</time>
      </trkpt>
      <trkpt lat="58.649717923253775" lon="12.505414970219135">
        <ele>65.08</ele>
        <time>2025-02-05T04:13:12.264Z</time>
      </trkpt>
      <trkpt lat="58.64964097738266" lon="12.505410946905613">
        <ele>65.06</ele>
        <time>2025-02-05T04:13:34.317Z</time>
      </trkpt>
      <trkpt lat="58.64956394769251" lon="12.50540692359209">
        <ele>65.05</ele>
        <time>2025-02-05T04:13:56.372Z</time>
      </trkpt>
      <trkpt lat="58.64948691800237" lon="12.5054029840976">
        <ele>65.03</ele>
        <time>2025-02-05T04:14:18.428Z</time>
      </trkpt>
      <trkpt lat="58.64940997213125" lon="12.505399966612458">
        <ele>65.02</ele>
        <time>2025-02-05T04:14:40.485Z</time>
      </trkpt>
      <trkpt lat="58.649331936612725" lon="12.505396949127316">
        <ele>65.0</ele>
        <time>2025-02-05T04:15:02.543Z</time>
      </trkpt>
      <trkpt lat="58.64925398491323" lon="12.505395943298936">
        <ele>64.99</ele>
        <time>2025-02-05T04:15:24.602Z</time>
      </trkpt>
      <trkpt lat="58.64917695522308" lon="12.505395943298936">
        <ele>64.98</ele>
        <time>2025-02-05T04:15:46.663Z</time>
      </trkpt>
      <trkpt lat="58.64909891970456" lon="12.505397954955697">
        <ele>64.96</ele>
        <time>2025-02-05T04:16:08.725Z</time>
      </trkpt>
      <trkpt lat="58.64902197383344" lon="12.50540197826922">
        <ele>64.95</ele>
        <time>2025-02-05T04:16:30.788Z</time>
      </trkpt>
      <trkpt lat="58.648944944143295" lon="12.505409941077232">
        <ele>64.94</ele>
        <time>2025-02-05T04:16:52.852Z</time>
      </trkpt>
      <trkpt lat="58.64886799827218" lon="12.505419999361038">
        <ele>64.94</ele>
        <time>2025-02-05T04:17:14.918Z</time>
      </trkpt>
      <trkpt lat="58.64878996275365" lon="12.505430979654193">
        <ele>64.93</ele>
        <time>2025-02-05T04:17:36.985Z</time>
      </trkpt>
      <trkpt lat="58.64871293306351" lon="12.50544598326087">
        <ele>64.92</ele>
        <time>2025-02-05T04:17:59.053Z</time>
      </trkpt>
      <trkpt lat="58.64863498136401" lon="12.505462998524308">
        <ele>64.92</ele>
        <time>2025-02-05T04:18:21.122Z</time>
      </trkpt>
      <trkpt lat="58.648555940017104" lon="12.505482947453856">
        <ele>64.91</ele>
        <time>2025-02-05T04:18:43.193Z</time>
      </trkpt>
      <trkpt lat="58.64847497083247" lon="12.505502980202436">
        <ele>64.9</ele>
        <time>2025-02-05T04:19:05.265Z</time>
      </trkpt>
      <trkpt lat="58.6483939178288" lon="12.505522929131985">
        <ele>64.9</ele>
        <time>2025-02-05T04:19:27.338Z</time>
      </trkpt>
      <trkpt lat="58.64831294864416" lon="12.505542961880565">
        <ele>64.9</ele>
        <time>2025-02-05T04:19:49.413Z</time>
      </trkpt>
      <trkpt lat="58.648230973631144" lon="12.505560982972383">
        <ele>64.9</ele>
        <time>2025-02-05T04:20:11.489Z</time>
      </trkpt>
      <trkpt lat="58.648149920627475" lon="12.50557598657906">
        <ele>64.9</ele>
        <time>2025-02-05T04:20:33.566Z</time>
      </trkpt>
      <trkpt lat="58.64806794561446" lon="12.505585961043835">
        <ele>64.9</ele>
        <time>2025-02-05T04:20:55.645Z</time>
      </trkpt>
      <trkpt lat="58.64798697642982" lon="12.505589984357357">
        <ele>64.91</ele>
        <time>2025-02-05T04:21:17.725Z</time>
      </trkpt>
      <trkpt lat="58.64790491759777" lon="12.505588978528976">
        <ele>64.92</ele>
        <time>2025-02-05T04:21:39.806Z</time>
      </trkpt>
      <trkpt lat="58.64782294258475" lon="12.505582943558693">
        <ele>64.93</ele>
        <time>2025-02-05T04:22:01.889Z</time>
      </trkpt>
      <trkpt lat="58.647741973400116" lon="12.505571963265538">
        <ele>64.94</ele>
        <time>2025-02-05T04:22:23.973Z</time>
      </trkpt>
      <trkpt lat="58.64766092039645" lon="12.505558971315622">
        <ele>64.96</ele>
        <time>2025-02-05T04:22:46.058Z</time>
      </trkpt>
      <trkpt lat="58.64757995121181" lon="12.505544973537326">
        <ele>64.97</ele>
        <time>2025-02-05T04:23:08.144Z</time>
      </trkpt>
      <trkpt lat="58.647499987855554" lon="12.505528964102268">
        <ele>64.98</ele>
        <time>2025-02-05T04:23:30.232Z</time>
      </trkpt>
      <trkpt lat="58.647420946508646" lon="12.50551295466721">
        <ele>65.0</ele>
        <time>2025-02-05T04:23:52.321Z</time>
      </trkpt>
      <trkpt lat="58.64734198898077" lon="12.505498956888914">
        <ele>65.01</ele>
        <time>2025-02-05T04:24:14.411Z</time>
      </trkpt>
      <trkpt lat="58.64726194180548" lon="12.505483953282237">
        <ele>65.03</ele>
        <time>2025-02-05T04:24:36.503Z</time>
      </trkpt>
      <trkpt lat="58.647182984277606" lon="12.505466938018799">
        <ele>65.04</ele>
        <time>2025-02-05T04:24:58.596Z</time>
      </trkpt>
      <trkpt lat="58.6471039429307" lon="12.50544891692698">
        <ele>65.06</ele>
        <time>2025-02-05T04:25:20.690Z</time>
      </trkpt>
      <trkpt lat="58.64702498540282" lon="12.505430979654193">
        <ele>65.08</ele>
        <time>2025-02-05T04:25:42.785Z</time>
      </trkpt>
      <trkpt lat="58.646945944055915" lon="12.505412958562374">
        <ele>65.1</ele>
        <time>2025-02-05T04:26:04.882Z</time>
      </trkpt>
      <trkpt lat="58.64686698652804" lon="12.505394937470555">
        <ele>65.12</ele>
        <time>2025-02-05T04:26:26.980Z</time>
      </trkpt>
      <trkpt lat="58.64678593352437" lon="12.505377922207117">
        <ele>65.14</ele>
        <time>2025-02-05T04:26:49.079Z</time>
      </trkpt>
      <trkpt lat="58.646706975996494" lon="12.50535998493433">
        <ele>65.16</ele>
        <time>2025-02-05T04:27:11.180Z</time>
      </trkpt>
      <trkpt lat="58.64662793464959" lon="12.505344981327653">
        <ele>65.19</ele>
        <time>2025-02-05T04:27:33.282Z</time>
      </trkpt>
      <trkpt lat="58.64654897712171" lon="12.505329977720976">
        <ele>65.21</ele>
        <time>2025-02-05T04:27:55.385Z</time>
      </trkpt>
      <trkpt lat="58.646470941603184" lon="12.50531597994268">
        <ele>65.24</ele>
        <time>2025-02-05T04:28:17.489Z</time>
      </trkpt>
      <trkpt lat="58.64639298990369" lon="12.505301982164383">
        <ele>65.27</ele>
        <time>2025-02-05T04:28:39.595Z</time>
      </trkpt>
      <trkpt lat="58.64631495438516" lon="12.505287984386086">
        <ele>65.3</ele>
        <time>2025-02-05T04:29:01.702Z</time>
      </trkpt>
      <trkpt lat="58.646237924695015" lon="12.50527499243617">
        <ele>65.33</ele>
        <time>2025-02-05T04:29:23.810Z</time>
      </trkpt>
      <trkpt lat="58.6461609788239" lon="12.505261916667223">
        <ele>65.35</ele>
        <time>2025-02-05T04:29:45.919Z</time>
      </trkpt>
      <trkpt lat="58.646084954962134" lon="12.505249930545688">
        <ele>65.39</ele>
        <time>2025-02-05T04:30:08.030Z</time>
      </trkpt>
      <trkpt lat="58.64600993692875" lon="12.505238950252533">
        <ele>65.43</ele>
        <time>2025-02-05T04:30:30.142Z</time>
      </trkpt>
      <trkpt lat="58.645934918895364" lon="12.505227969959378">
        <ele>65.46</ele>
        <time>2025-02-05T04:30:52.255Z</time>
      </trkpt>
      <trkpt lat="58.64586099050939" lon="12.505213972181082">
        <ele>65.5</ele>
        <time>2025-02-05T04:31:14.369Z</time>
      </trkpt>
      <trkpt lat="58.645786978304386" lon="12.505201986059546">
        <ele>65.55</ele>
        <time>2025-02-05T04:31:36.484Z</time>
      </trkpt>
      <trkpt lat="58.64571397192776" lon="12.505189999938011">
        <ele>65.59</ele>
        <time>2025-02-05T04:31:58.601Z</time>
      </trkpt>
      <trkpt lat="58.64563995972276" lon="12.505175918340683">
        <ele>65.63</ele>
        <time>2025-02-05T04:32:20.719Z</time>
      </trkpt>
      <trkpt lat="58.645567959174514" lon="12.505160998553038">
        <ele>65.68</ele>
        <time>2025-02-05T04:32:42.838Z</time>
      </trkpt>
      <trkpt lat="58.64549595862627" lon="12.50514599494636">
        <ele>65.72</ele>
        <time>2025-02-05T04:33:04.958Z</time>
      </trkpt>
      <trkpt lat="58.64542395807803" lon="12.505131997168064">
        <ele>65.77</ele>
        <time>2025-02-05T04:33:27.079Z</time>
      </trkpt>
      <trkpt lat="58.645352963358164" lon="12.505118921399117">
        <ele>65.82</ele>
        <time>2025-02-05T04:33:49.201Z</time>
      </trkpt>
      <trkpt lat="58.6452819686383" lon="12.50510391779244">
        <ele>65.87</ele>
        <time>2025-02-05T04:34:11.324Z</time>
      </trkpt>
      <trkpt lat="58.64521097391844" lon="12.505089920014143">
        <ele>65.92</ele>
        <time>2025-02-05T04:34:33.449Z</time>
      </trkpt>
      <trkpt lat="58.645139979198575" lon="12.505074916407466">
        <ele>65.97</ele>
        <time>2025-02-05T04:34:55.575Z</time>
      </trkpt>
      <trkpt lat="58.64506797865033" lon="12.50506091862917">
        <ele>66.02</ele>
        <time>2025-02-05T04:35:17.702Z</time>
      </trkpt>
      <trkpt lat="58.64499798975885" lon="12.505043987184763">
        <ele>66.07</ele>
        <time>2025-02-05T04:35:39.830Z</time>
      </trkpt>
      <trkpt lat="58.644926995038986" lon="12.505022948607802">
        <ele>66.12</ele>
        <time>2025-02-05T04:36:01.959Z</time>
      </trkpt>
      <trkpt lat="58.64485591650009" lon="12.505003921687603">
        <ele>66.17</ele>
        <time>2025-02-05T04:36:24.089Z</time>
      </trkpt>
      <trkpt lat="58.64478492178023" lon="12.504983972758055">
        <ele>66.22</ele>
        <time>2025-02-05T04:36:46.221Z</time>
      </trkpt>
      <trkpt lat="58.644712921231985" lon="12.504964945837855">
        <ele>66.27</ele>
        <time>2025-02-05T04:37:08.354Z</time>
      </trkpt>
      <trkpt lat="58.6446429323405" lon="12.504941979423165">
        <ele>66.32</ele>
        <time>2025-02-05T04:37:30.488Z</time>
      </trkpt>
      <trkpt lat="58.64457093179226" lon="12.504921946674585">
        <ele>66.37</ele>
        <time>2025-02-05T04:37:52.623Z</time>
      </trkpt>
      <trkpt lat="58.64450094290078" lon="12.504902919754386">
        <ele>66.43</ele>
        <time>2025-02-05T04:38:14.759Z</time>
      </trkpt>
      <trkpt lat="58.64442894235253" lon="12.504891939461231">
        <ele>66.48</ele>
        <time>2025-02-05T04:38:36.896Z</time>
      </trkpt>
      <trkpt lat="58.64435794763267" lon="12.504882970824838">
        <ele>66.53</ele>
        <time>2025-02-05T04:38:59.034Z</time>
      </trkpt>
      <trkpt lat="58.64428997039795" lon="12.504876935854554">
        <ele>66.58</ele>
        <time>2025-02-05T04:39:21.174Z</time>
      </trkpt>
      <trkpt lat="58.64422098733485" lon="12.504875930026174">
        <ele>66.63</ele>
        <time>2025-02-05T04:39:43.315Z</time>
      </trkpt>
      <trkpt lat="58.644150998443365" lon="12.504875930026174">
        <ele>66.69</ele>
        <time>2025-02-05T04:40:05.457Z</time>
      </trkpt>
      <trkpt lat="58.64408092573285" lon="12.504875930026174">
        <ele>66.74</ele>
        <time>2025-02-05T04:40:27.600Z</time>
      </trkpt>
      <trkpt lat="58.64401194266975" lon="12.504879953339696">
        <ele>66.79</ele>
        <time>2025-02-05T04:40:49.744Z</time>
      </trkpt>
      <trkpt lat="58.643938936293125" lon="12.504883976653218">
        <ele>66.84</ele>
        <time>2025-02-05T04:41:11.889Z</time>
      </trkpt>
      <trkpt lat="58.64386693574488" lon="12.50489093363285">
        <ele>66.9</ele>
        <time>2025-02-05T04:41:34.035Z</time>
      </trkpt>
      <trkpt lat="58.64379392936826" lon="12.504893951117992">
        <ele>66.95</ele>
        <time>2025-02-05T04:41:56.182Z</time>
      </trkpt>
      <trkpt lat="58.643718995153904" lon="12.504896968603134">
        <ele>67.0</ele>
        <time>2025-02-05T04:42:18.331Z</time>
      </trkpt>
      <trkpt lat="58.64364196546376" lon="12.504901997745037">
        <ele>67.06</ele>
        <time>2025-02-05T04:42:40.481Z</time>
      </trkpt>
      <trkpt lat="58.64356594160199" lon="12.504904931411147">
        <ele>67.12</ele>
        <time>2025-02-05T04:43:02.632Z</time>
      </trkpt>
      <trkpt lat="58.643487989902496" lon="12.50490996055305">
        <ele>67.17</ele>
        <time>2025-02-05T04:43:24.784Z</time>
      </trkpt>
      <trkpt lat="58.64341096021235" lon="12.504914989694953">
        <ele>67.23</ele>
        <time>2025-02-05T04:43:46.938Z</time>
      </trkpt>
      <trkpt lat="58.64333292469382" lon="12.504920940846205">
        <ele>67.28</ele>
        <time>2025-02-05T04:44:09.093Z</time>
      </trkpt>
      <trkpt lat="58.64325597882271" lon="12.504927981644869">
        <ele>67.34</ele>
        <time>2025-02-05T04:44:31.249Z</time>
      </trkpt>
      <trkpt lat="58.64317894913256" lon="12.504935944452882">
        <ele>67.4</ele>
        <time>2025-02-05T04:44:53.406Z</time>
      </trkpt>
      <trkpt lat="58.643102925270796" lon="12.504943991079926">
        <ele>67.46</ele>
        <time>2025-02-05T04:45:15.565Z</time>
      </trkpt>
      <trkpt lat="58.64302597939968" lon="12.5049539655447">
        <ele>67.51</ele>
        <time>2025-02-05T04:45:37.725Z</time>
      </trkpt>
      <trkpt lat="58.642950961366296" lon="12.504965951666236">
        <ele>67.57</ele>
        <time>2025-02-05T04:45:59.886Z</time>
      </trkpt>
      <trkpt lat="58.64287795498967" lon="12.50497492030263">
        <ele>67.62</ele>
        <time>2025-02-05T04:46:22.048Z</time>
      </trkpt>
      <trkpt lat="58.64280595444143" lon="12.504983972758055">
        <ele>67.68</ele>
        <time>2025-02-05T04:46:44.211Z</time>
      </trkpt>
      <trkpt lat="58.642733953893185" lon="12.504989923909307">
        <ele>67.73</ele>
        <time>2025-02-05T04:47:06.375Z</time>
      </trkpt>
      <trkpt lat="58.64266195334494" lon="12.50499595887959">
        <ele>67.79</ele>
        <time>2025-02-05T04:47:28.541Z</time>
      </trkpt>
      <trkpt lat="58.64259095862508" lon="12.505005933344364">
        <ele>67.84</ele>
        <time>2025-02-05T04:47:50.708Z</time>
      </trkpt>
      <trkpt lat="58.642518958076835" lon="12.50501498579979">
        <ele>67.89</ele>
        <time>2025-02-05T04:48:12.876Z</time>
      </trkpt>
      <trkpt lat="58.64244595170021" lon="12.505023954436183">
        <ele>67.94</ele>
        <time>2025-02-05T04:48:35.045Z</time>
      </trkpt>
      <trkpt lat="58.64237294532359" lon="12.505032923072577">
        <ele>67.99</ele>
        <time>2025-02-05T04:48:57.215Z</time>
      </trkpt>
      <trkpt lat="58.64229993894696" lon="12.505044993013144">
        <ele>68.04</ele>
        <time>2025-02-05T04:49:19.386Z</time>
      </trkpt>
      <trkpt lat="58.64222399890423" lon="12.50506192445755">
        <ele>68.08</ele>
        <time>2025-02-05T04:49:41.559Z</time>
      </trkpt>
      <trkpt lat="58.64214898087084" lon="12.505078939720988">
        <ele>68.13</ele>
        <time>2025-02-05T04:50:03.733Z</time>
      </trkpt>
      <trkpt lat="58.6420769803226" lon="12.505095954984426">
        <ele>68.17</ele>
        <time>2025-02-05T04:50:25.908Z</time>
      </trkpt>
      <trkpt lat="58.642003973945975" lon="12.505118921399117">
        <ele>68.22</ele>
        <time>2025-02-05T04:50:48.084Z</time>
      </trkpt>
      <trkpt lat="58.641935996711254" lon="12.505138954147696">
        <ele>68.26</ele>
        <time>2025-02-05T04:51:10.261Z</time>
      </trkpt>
      <trkpt lat="58.64186692982912" lon="12.505164938047528">
        <ele>68.3</ele>
        <time>2025-02-05T04:51:32.439Z</time>
      </trkpt>
      <trkpt lat="58.6417989525944" lon="12.505194945260882">
        <ele>68.34</ele>
        <time>2025-02-05T04:51:54.619Z</time>
      </trkpt>
      <trkpt lat="58.64173198118806" lon="12.505224952474236">
        <ele>68.37</ele>
        <time>2025-02-05T04:52:16.800Z</time>
      </trkpt>
      <trkpt lat="58.64166794344783" lon="12.50525495968759">
        <ele>68.41</ele>
        <time>2025-02-05T04:52:38.982Z</time>
      </trkpt>
      <trkpt lat="58.64160398952663" lon="12.505287984386086">
        <ele>68.44</ele>
        <time>2025-02-05T04:53:01.165Z</time>
      </trkpt>
      <trkpt lat="58.64153894595802" lon="12.50532092526555">
        <ele>68.47</ele>
        <time>2025-02-05T04:53:23.349Z</time>
      </trkpt>
      <trkpt lat="58.64147298038006" lon="12.505345987156034">
        <ele>68.5</ele>
        <time>2025-02-05T04:53:45.534Z</time>
      </trkpt>
      <trkpt lat="58.64140693098307" lon="12.50536291860044">
        <ele>68.53</ele>
        <time>2025-02-05T04:54:07.720Z</time>
      </trkpt>
      <trkpt lat="58.64134096540511" lon="12.505372976884246">
        <ele>68.55</ele>
        <time>2025-02-05T04:54:29.907Z</time>
      </trkpt>
      <trkpt lat="58.641276927664876" lon="12.505377922207117">
        <ele>68.57</ele>
        <time>2025-02-05T04:54:52.095Z</time>
      </trkpt>
      <trkpt lat="58.64121297374368" lon="12.505374988541007">
        <ele>68.59</ele>
        <time>2025-02-05T04:55:14.284Z</time>
      </trkpt>
      <trkpt lat="58.64115094766021" lon="12.505366941913962">
        <ele>68.61</ele>
        <time>2025-02-05T04:55:36.474Z</time>
      </trkpt>
      <trkpt lat="58.6410909332335" lon="12.505356967449188">
        <ele>68.63</ele>
        <time>2025-02-05T04:55:58.665Z</time>
      </trkpt>
      <trkpt lat="58.64103091880679" lon="12.505343975499272">
        <ele>68.65</ele>
        <time>2025-02-05T04:56:20.857Z</time>
      </trkpt>
      <trkpt lat="58.640971994027495" lon="12.505329977720976">
        <ele>68.66</ele>
        <time>2025-02-05T04:56:43.050Z</time>
      </trkpt>
      <trkpt lat="58.64091399125755" lon="12.50531799159944">
        <ele>68.67</ele>
        <time>2025-02-05T04:57:05.244Z</time>
      </trkpt>
      <trkpt lat="58.64085992798209" lon="12.505305921658874">
        <ele>68.68</ele>
        <time>2025-02-05T04:57:27.439Z</time>
      </trkpt>
      <trkpt lat="58.640800919383764" lon="12.50529795885086">
        <ele>68.68</ele>
        <time>2025-02-05T04:57:49.635Z</time>
      </trkpt>
      <trkpt lat="58.64074291661382" lon="12.505289996042848">
        <ele>68.68</ele>
        <time>2025-02-05T04:58:11.832Z</time>
      </trkpt>
      <trkpt lat="58.6406849976629" lon="12.505287984386086">
        <ele>68.68</ele>
        <time>2025-02-05T04:58:34.030Z</time>
      </trkpt>
      <trkpt lat="58.640625989064574" lon="12.505290918052197">
        <ele>68.67</ele>
        <time>2025-02-05T04:58:56.229Z</time>
      </trkpt>
      <trkpt lat="58.640565974637866" lon="12.50529795885086">
        <ele>68.67</ele>
        <time>2025-02-05T04:59:18.429Z</time>
      </trkpt>
      <trkpt lat="58.640502942726016" lon="12.505304999649525">
        <ele>68.66</ele>
        <time>2025-02-05T04:59:40.630Z</time>
      </trkpt>
      <trkpt lat="58.64043798297644" lon="12.505313968285918">
        <ele>68.65</ele>
        <time>2025-02-05T05:00:02.832Z</time>
      </trkpt>
      <trkpt lat="58.640368999913335" lon="12.505324948579073">
        <ele>68.63</ele>
        <time>2025-02-05T05:00:25.035Z</time>
      </trkpt>
      <trkpt lat="58.64030295051634" lon="12.505331989377737">
        <ele>68.62</ele>
        <time>2025-02-05T05:00:47.239Z</time>
      </trkpt>
      <trkpt lat="58.64023296162486" lon="12.505337940528989">
        <ele>68.6</ele>
        <time>2025-02-05T05:01:09.444Z</time>
      </trkpt>
      <trkpt lat="58.64015995524824" lon="12.50534095801413">
        <ele>68.58</ele>
        <time>2025-02-05T05:01:31.650Z</time>
      </trkpt>
      <trkpt lat="58.64008795469999" lon="12.505343975499272">
        <ele>68.56</ele>
        <time>2025-02-05T05:01:53.857Z</time>
      </trkpt>
      <trkpt lat="58.64001394249499" lon="12.505350932478905">
        <ele>68.53</ele>
        <time>2025-02-05T05:02:16.065Z</time>
      </trkpt>
      <trkpt lat="58.639939930289984" lon="12.505349926650524">
        <ele>68.5</ele>
        <time>2025-02-05T05:02:38.275Z</time>
      </trkpt>
      <trkpt lat="58.63986499607563" lon="12.505349926650524">
        <ele>68.47</ele>
        <time>2025-02-05T05:03:00.486Z</time>
      </trkpt>
      <trkpt lat="58.639787966385484" lon="12.505348920822144">
        <ele>68.44</ele>
        <time>2025-02-05T05:03:22.698Z</time>
      </trkpt>
      <trkpt lat="58.639705991372466" lon="12.505345987156034">
        <ele>68.41</ele>
        <time>2025-02-05T05:03:44.911Z</time>
      </trkpt>
      <trkpt lat="58.639622926712036" lon="12.505341963842511">
        <ele>68.39</ele>
        <time>2025-02-05T05:04:07.126Z</time>
      </trkpt>
      <trkpt lat="58.639535922557116" lon="12.505333917215466">
        <ele>68.35</ele>
        <time>2025-02-05T05:04:29.342Z</time>
      </trkpt>
      <trkpt lat="58.639448918402195" lon="12.50531597994268">
        <ele>68.32</ele>
        <time>2025-02-05T05:04:51.560Z</time>
      </trkpt>
      <trkpt lat="58.639359986409545" lon="12.505294941365719">
        <ele>68.29</ele>
        <time>2025-02-05T05:05:13.779Z</time>
      </trkpt>
      <trkpt lat="58.63926996476948" lon="12.505270969122648">
        <ele>68.25</ele>
        <time>2025-02-05T05:05:35.999Z</time>
      </trkpt>
      <trkpt lat="58.63917994312942" lon="12.505243979394436">
        <ele>68.21</ele>
        <time>2025-02-05T05:05:58.221Z</time>
      </trkpt>
      <trkpt lat="58.63908899948001" lon="12.505213972181082">
        <ele>68.17</ele>
        <time>2025-02-05T05:06:20.444Z</time>
      </trkpt>
      <trkpt lat="58.63900199532509" lon="12.505177929997444">
        <ele>68.12</ele>
        <time>2025-02-05T05:06:42.669Z</time>
      </trkpt>
      <trkpt lat="58.63891599699855" lon="12.505129985511303">
        <ele>68.08</ele>
        <time>2025-02-05T05:07:04.895Z</time>
      </trkpt>
      <trkpt lat="58.63883092068136" lon="12.505077933892608">
        <ele>68.02</ele>
        <time>2025-02-05T05:07:27.123Z</time>
      </trkpt>
      <trkpt lat="58.63874299451709" lon="12.50503895804286">
        <ele>67.96</ele>
        <time>2025-02-05T05:07:49.352Z</time>
      </trkpt>
      <trkpt lat="58.63866194151342" lon="12.504987996071577">
        <ele>67.9</ele>
        <time>2025-02-05T05:08:11.582Z</time>
      </trkpt>
      <trkpt lat="58.63857896067202" lon="12.504913983866572">
        <ele>67.84</ele>
        <time>2025-02-05T05:08:33.814Z</time>
      </trkpt>
      <trkpt lat="58.638503942638636" lon="12.504838965833187">
        <ele>67.78</ele>
        <time>2025-02-05T05:08:56.047Z</time>
      </trkpt>
      <trkpt lat="58.638422973454" lon="12.504787920042872">
        <ele>67.72</ele>
        <time>2025-02-05T05:09:18.282Z</time>
      </trkpt>
      <trkpt lat="58.63834393210709" lon="12.504729917272925">
        <ele>67.65</ele>
        <time>2025-02-05T05:09:40.518Z</time>
      </trkpt>
      <trkpt lat="58.638263968750834" lon="12.504681972786784">
        <ele>67.59</ele>
        <time>2025-02-05T05:10:02.755Z</time>
      </trkpt>
      <trkpt lat="58.63818593323231" lon="12.50463193282485">
        <ele>67.52</ele>
        <time>2025-02-05T05:10:24.994Z</time>
      </trkpt>
      <trkpt lat="58.63810798153281" lon="12.504594968631864">
        <ele>67.45</ele>
        <time>2025-02-05T05:10:47.234Z</time>
      </trkpt>
      <trkpt lat="58.638030951842666" lon="12.504554986953735">
        <ele>67.38</ele>
        <time>2025-02-05T05:11:09.475Z</time>
      </trkpt>
      <trkpt lat="58.63795693963766" lon="12.504516933113337">
        <ele>67.3</ele>
        <time>2025-02-05T05:11:31.717Z</time>
      </trkpt>
      <trkpt lat="58.63788695074618" lon="12.50447896309197">
        <ele>67.23</ele>
        <time>2025-02-05T05:11:53.961Z</time>
      </trkpt>
      <trkpt lat="58.63781997933984" lon="12.504440993070602">
        <ele>67.16</ele>
        <time>2025-02-05T05:12:16.206Z</time>
      </trkpt>
      <trkpt lat="58.63775493577123" lon="12.504424983635545">
        <ele>67.08</ele>
        <time>2025-02-05T05:12:38.452Z</time>
      </trkpt>
      <trkpt lat="58.637683941051364" lon="12.504398999735713">
        <ele>67.01</ele>
        <time>2025-02-05T05:13:00.699Z</time>
      </trkpt>
      <trkpt lat="58.637619987130165" lon="12.504366980865598">
        <ele>66.93</ele>
        <time>2025-02-05T05:13:22.947Z</time>
      </trkpt>
      <trkpt lat="58.637558966875076" lon="12.50433194451034">
        <ele>66.85</ele>
        <time>2025-02-05T05:13:45.196Z</time>
      </trkpt>
      <trkpt lat="58.63749694079161" lon="12.504290957003832">
        <ele>66.77</ele>
        <time>2025-02-05T05:14:07.446Z</time>
      </trkpt>
      <trkpt lat="58.63743399269879" lon="12.504248963668942">
        <ele>66.68</ele>
        <time>2025-02-05T05:14:29.697Z</time>
      </trkpt>
      <trkpt lat="58.63737397827208" lon="12.504207976162434">
        <ele>66.6</ele>
        <time>2025-02-05T05:14:51.949Z</time>
      </trkpt>
      <trkpt lat="58.63731195218861" lon="12.50417796894908">
        <ele>66.52</ele>
        <time>2025-02-05T05:15:14.202Z</time>
      </trkpt>
      <trkpt lat="58.63724892027676" lon="12.504140920937061">
        <ele>66.43</ele>
        <time>2025-02-05T05:15:36.456Z</time>
      </trkpt>
      <trkpt lat="58.63718597218394" lon="12.504099933430552">
        <ele>66.35</ele>
        <time>2025-02-05T05:15:58.711Z</time>
      </trkpt>
      <trkpt lat="58.637124951928854" lon="12.50405098311603">
        <ele>66.26</ele>
        <time>2025-02-05T05:16:20.967Z</time>
      </trkpt>
      <trkpt lat="58.637064937502146" lon="12.504001948982477">
        <ele>66.17</ele>
        <time>2025-02-05T05:16:43.224Z</time>
      </trkpt>
      <trkpt lat="58.6370069347322" lon="12.503957943990827">
        <ele>66.09</ele>
        <time>2025-02-05T05:17:05.482Z</time>
      </trkpt>
      <trkpt lat="58.63694893196225" lon="12.50392097979784">
        <ele>66.0</ele>
        <time>2025-02-05T05:17:27.741Z</time>
      </trkpt>
      <trkpt lat="58.63689495250583" lon="12.503884937614202">
        <ele>65.92</ele>
        <time>2025-02-05T05:17:50.001Z</time>
      </trkpt>
      <trkpt lat="58.63683493807912" lon="12.503854930400848">
        <ele>65.83</ele>
        <time>2025-02-05T05:18:12.262Z</time>
      </trkpt>
      <trkpt lat="58.6367719899863" lon="12.503822995349765">
        <ele>65.74</ele>
        <time>2025-02-05T05:18:34.524Z</time>
      </trkpt>
      <trkpt lat="58.63670895807445" lon="12.50379592180252">
        <ele>65.66</ele>
        <time>2025-02-05T05:18:56.787Z</time>
      </trkpt>
      <trkpt lat="58.63664098083973" lon="12.503779996186495">
        <ele>65.57</ele>
        <time>2025-02-05T05:19:19.052Z</time>
      </trkpt>
      <trkpt lat="58.63657199777663" lon="12.503765998408198">
        <ele>65.48</ele>
        <time>2025-02-05T05:19:41.318Z</time>
      </trkpt>
      <trkpt lat="58.636502930894494" lon="12.503756945952773">
        <ele>65.39</ele>
        <time>2025-02-05T05:20:03.585Z</time>
      </trkpt>
      <trkpt lat="58.63643595948815" lon="12.503755940124393">
        <ele>65.3</ele>
        <time>2025-02-05T05:20:25.853Z</time>
      </trkpt>
      <trkpt lat="58.636370999738574" lon="12.503765998408198">
        <ele>65.21</ele>
        <time>2025-02-05T05:20:48.122Z</time>
      </trkpt>
      <trkpt lat="58.63630696199834" lon="12.503780918195844">
        <ele>65.12</ele>
        <time>2025-02-05T05:21:10.392Z</time>
      </trkpt>
      <trkpt lat="58.636244935914874" lon="12.503803968429565">
        <ele>65.03</ele>
        <time>2025-02-05T05:21:32.663Z</time>
      </trkpt>
      <trkpt lat="58.636182993650436" lon="12.503836993128061">
        <ele>64.94</ele>
        <time>2025-02-05T05:21:54.935Z</time>
      </trkpt>
      <trkpt lat="58.63612096756697" lon="12.503879992291331">
        <ele>64.85</ele>
        <time>2025-02-05T05:22:17.208Z</time>
      </trkpt>
      <trkpt lat="58.63606598228216" lon="12.503932965919375">
        <ele>64.76</ele>
        <time>2025-02-05T05:22:39.482Z</time>
      </trkpt>
      <trkpt lat="58.636009991168976" lon="12.50398795120418">
        <ele>64.67</ele>
        <time>2025-02-05T05:23:01.757Z</time>
      </trkpt>
      <trkpt lat="58.63595793955028" lon="12.504045953974128">
        <ele>64.58</ele>
        <time>2025-02-05T05:23:24.033Z</time>
      </trkpt>
      <trkpt lat="58.63590898923576" lon="12.504105968400836">
        <ele>64.49</ele>
        <time>2025-02-05T05:23:46.310Z</time>
      </trkpt>
      <trkpt lat="58.635858949273825" lon="12.504167994484305">
        <ele>64.4</ele>
        <time>2025-02-05T05:24:08.588Z</time>
      </trkpt>
      <trkpt lat="58.63581192679703" lon="12.504235971719027">
        <ele>64.31</ele>
        <time>2025-02-05T05:24:30.867Z</time>
      </trkpt>
      <trkpt lat="58.63576599396765" lon="12.50430897809565">
        <ele>64.22</ele>
        <time>2025-02-05T05:24:53.147Z</time>
      </trkpt>
      <trkpt lat="58.635721988976" lon="12.504383996129036">
        <ele>64.13</ele>
        <time>2025-02-05T05:25:15.428Z</time>
      </trkpt>
      <trkpt lat="58.63567999564111" lon="12.50445893034339">
        <ele>64.04</ele>
        <time>2025-02-05T05:25:37.710Z</time>
      </trkpt>
      <trkpt lat="58.63563993014395" lon="12.504533948376775">
        <ele>63.96</ele>
        <time>2025-02-05T05:25:59.993Z</time>
      </trkpt>
      <trkpt lat="58.635599948465824" lon="12.504610978066921">
        <ele>63.86</ele>
        <time>2025-02-05T05:26:22.276Z</time>
      </trkpt>
      <trkpt lat="58.635559966787696" lon="12.504691947251558">
        <ele>63.77</ele>
        <time>2025-02-05T05:26:44.560Z</time>
      </trkpt>
      <trkpt lat="58.63551998510957" lon="12.504770988598466">
        <ele>63.68</ele>
        <time>2025-02-05T05:27:06.845Z</time>
      </trkpt>
      <trkpt lat="58.63547899760306" lon="12.504849946126342">
        <ele>63.59</ele>
        <time>2025-02-05T05:27:29.131Z</time>
      </trkpt>
      <trkpt lat="58.63543792627752" lon="12.504925969988108">
        <ele>63.5</ele>
        <time>2025-02-05T05:27:51.418Z</time>
      </trkpt>
      <trkpt lat="58.63539492711425" lon="12.50499595887959">
        <ele>63.41</ele>
        <time>2025-02-05T05:28:13.706Z</time>
      </trkpt>
      <trkpt lat="58.63535192795098" lon="12.50506091862917">
        <ele>63.33</ele>
        <time>2025-02-05T05:28:35.995Z</time>
      </trkpt>
      <trkpt lat="58.63530691713095" lon="12.505116993561387">
        <ele>63.24</ele>
        <time>2025-02-05T05:28:58.285Z</time>
      </trkpt>
      <trkpt lat="58.63526199012995" lon="12.505165943875909">
        <ele>63.15</ele>
        <time>2025-02-05T05:29:20.576Z</time>
      </trkpt>
      <trkpt lat="58.6352179851383" lon="12.505212966352701">
        <ele>63.07</ele>
        <time>2025-02-05T05:29:42.867Z</time>
      </trkpt>
      <trkpt lat="58.63517498597503" lon="12.505256971344352">
        <ele>62.98</ele>
        <time>2025-02-05T05:30:05.159Z</time>
      </trkpt>
      <trkpt lat="58.63513299264014" lon="12.505298964679241">
        <ele>62.9</ele>
        <time>2025-02-05T05:30:27.452Z</time>
      </trkpt>
      <trkpt lat="58.6350919213146" lon="12.505336934700608">
        <ele>62.81</ele>
        <time>2025-02-05T05:30:49.746Z</time>
      </trkpt>
      <trkpt lat="58.63505193963647" lon="12.505371971055865">
        <ele>62.73</ele>
        <time>2025-02-05T05:31:12.040Z</time>
      </trkpt>
      <trkpt lat="58.63501195795834" lon="12.50540591776371">
        <ele>62.64</ele>
        <time>2025-02-05T05:31:34.335Z</time>
      </trkpt>
      <trkpt lat="58.63497097045183" lon="12.505436930805445">
        <ele>62.56</ele>
        <time>2025-02-05T05:31:56.631Z</time>
      </trkpt>
      <trkpt lat="58.63492998294532" lon="12.505470961332321">
        <ele>62.48</ele>
        <time>2025-02-05T05:32:18.928Z</time>
      </trkpt>
      <trkpt lat="58.634888995438814" lon="12.505503986030817">
        <ele>62.4</ele>
        <time>2025-02-05T05:32:41.225Z</time>
      </trkpt>
      <trkpt lat="58.634848929941654" lon="12.505536926910281">
        <ele>62.32</ele>
        <time>2025-02-05T05:33:03.523Z</time>
      </trkpt>
      <trkpt lat="58.634807942435145" lon="12.505564922466874">
        <ele>62.24</ele>
        <time>2025-02-05T05:33:25.822Z</time>
      </trkpt>
      <trkpt lat="58.63476695492864" lon="12.505591996014118">
        <ele>62.16</ele>
        <time>2025-02-05T05:33:48.121Z</time>
      </trkpt>
      <trkpt lat="58.63472697325051" lon="12.505620997399092">
        <ele>62.08</ele>
        <time>2025-02-05T05:34:10.421Z</time>
      </trkpt>
      <trkpt lat="58.63468799740076" lon="12.505649998784065">
        <ele>62.0</ele>
        <time>2025-02-05T05:34:32.722Z</time>
      </trkpt>
      <trkpt lat="58.63465094938874" lon="12.505679922178388">
        <ele>61.93</ele>
        <time>2025-02-05T05:34:55.023Z</time>
      </trkpt>
      <trkpt lat="58.634612979367375" lon="12.505709929391742">
        <ele>61.85</ele>
        <time>2025-02-05T05:35:17.325Z</time>
      </trkpt>
      <trkpt lat="58.63457492552698" lon="12.505736919119954">
        <ele>61.77</ele>
        <time>2025-02-05T05:35:39.628Z</time>
      </trkpt>
      <trkpt lat="58.63453594967723" lon="12.505765920504928">
        <ele>61.7</ele>
        <time>2025-02-05T05:36:01.931Z</time>
      </trkpt>
      <trkpt lat="58.6344959679991" lon="12.505794921889901">
        <ele>61.62</ele>
        <time>2025-02-05T05:36:24.235Z</time>
      </trkpt>
      <trkpt lat="58.634457997977734" lon="12.505824929103255">
        <ele>61.55</ele>
        <time>2025-02-05T05:36:46.540Z</time>
      </trkpt>
      <trkpt lat="58.634418938308954" lon="12.505851918831468">
        <ele>61.47</ele>
        <time>2025-02-05T05:37:08.845Z</time>
      </trkpt>
      <trkpt lat="58.63437996245921" lon="12.505878992378712">
        <ele>61.4</ele>
        <time>2025-02-05T05:37:31.151Z</time>
      </trkpt>
      <trkpt lat="58.63433998078108" lon="12.505909921601415">
        <ele>61.34</ele>
        <time>2025-02-05T05:37:53.458Z</time>
      </trkpt>
      <trkpt lat="58.63429899327457" lon="12.50594294629991">
        <ele>61.27</ele>
        <time>2025-02-05T05:38:15.765Z</time>
      </trkpt>
      <trkpt lat="58.63425792194903" lon="12.505976976826787">
        <ele>61.2</ele>
        <time>2025-02-05T05:38:38.073Z</time>
      </trkpt>
      <trkpt lat="58.63421693444252" lon="12.506008995696902">
        <ele>61.13</ele>
        <time>2025-02-05T05:39:00.382Z</time>
      </trkpt>
      <trkpt lat="58.63417695276439" lon="12.506038919091225">
        <ele>61.07</ele>
        <time>2025-02-05T05:39:22.692Z</time>
      </trkpt>
      <trkpt lat="58.634136971086264" lon="12.506067920476198">
        <ele>61.0</ele>
        <time>2025-02-05T05:39:45.002Z</time>
      </trkpt>
      <trkpt lat="58.634096989408135" lon="12.506096921861172">
        <ele>60.94</ele>
        <time>2025-02-05T05:40:07.313Z</time>
      </trkpt>
      <trkpt lat="58.634055918082595" lon="12.506125923246145">
        <ele>60.87</ele>
        <time>2025-02-05T05:40:29.625Z</time>
      </trkpt>
      <trkpt lat="58.634013924747705" lon="12.506154924631119">
        <ele>60.81</ele>
        <time>2025-02-05T05:40:51.937Z</time>
      </trkpt>
      <trkpt lat="58.633970925584435" lon="12.506184931844473">
        <ele>60.75</ele>
        <time>2025-02-05T05:41:14.250Z</time>
      </trkpt>
      <trkpt lat="58.633926920592785" lon="12.506215944886208">
        <ele>60.69</ele>
        <time>2025-02-05T05:41:36.564Z</time>
      </trkpt>
      <trkpt lat="58.633881993591785" lon="12.506244946271181">
        <ele>60.62</ele>
        <time>2025-02-05T05:41:58.879Z</time>
      </trkpt>
      <trkpt lat="58.633835976943374" lon="12.506273947656155">
        <ele>60.56</ele>
        <time>2025-02-05T05:42:21.194Z</time>
      </trkpt>
      <trkpt lat="58.633792977780104" lon="12.506301943212748">
        <ele>60.51</ele>
        <time>2025-02-05T05:42:43.510Z</time>
      </trkpt>
      <trkpt lat="58.63374796696007" lon="12.50632993876934">
        <ele>60.45</ele>
        <time>2025-02-05T05:43:05.827Z</time>
      </trkpt>
      <trkpt lat="58.6337049677968" lon="12.506357934325933">
        <ele>60.39</ele>
        <time>2025-02-05T05:43:28.145Z</time>
      </trkpt>
      <trkpt lat="58.63366297446191" lon="12.506384924054146">
        <ele>60.34</ele>
        <time>2025-02-05T05:43:50.463Z</time>
      </trkpt>
      <trkpt lat="58.633621986955404" lon="12.506412919610739">
        <ele>60.29</ele>
        <time>2025-02-05T05:44:12.782Z</time>
      </trkpt>
      <trkpt lat="58.633579993620515" lon="12.506440998986363">
        <ele>60.24</ele>
        <time>2025-02-05T05:44:35.102Z</time>
      </trkpt>
      <trkpt lat="58.633536994457245" lon="12.506469916552305">
        <ele>60.18</ele>
        <time>2025-02-05T05:44:57.422Z</time>
      </trkpt>
      <trkpt lat="58.63349097780883" lon="12.506504952907562">
        <ele>60.13</ele>
        <time>2025-02-05T05:45:19.743Z</time>
      </trkpt>
      <trkpt lat="58.63344294950366" lon="12.50654392875731">
        <ele>60.09</ele>
        <time>2025-02-05T05:45:42.065Z</time>
      </trkpt>
      <trkpt lat="58.63339299336076" lon="12.50658692792058">
        <ele>60.04</ele>
        <time>2025-02-05T05:46:04.388Z</time>
      </trkpt>
      <trkpt lat="58.63334194757044" lon="12.506633950397372">
        <ele>59.99</ele>
        <time>2025-02-05T05:46:26.712Z</time>
      </trkpt>
      <trkpt lat="58.6332889739424" lon="12.506682984530926">
        <ele>59.94</ele>
        <time>2025-02-05T05:46:49.037Z</time>
      </trkpt>
      <trkpt lat="58.63323591649532" lon="12.506729923188686">
        <ele>59.9</ele>
        <time>2025-02-05T05:47:11.363Z</time>
      </trkpt>
      <trkpt lat="58.63318093121052" lon="12.50677795149386">
        <ele>59.86</ele>
        <time>2025-02-05T05:47:33.690Z</time>
      </trkpt>
      <trkpt lat="58.63312494009733" lon="12.506826985627413">
        <ele>59.81</ele>
        <time>2025-02-05T05:47:56.018Z</time>
      </trkpt>
      <trkpt lat="58.63307096064091" lon="12.506877947598696">
        <ele>59.77</ele>
        <time>2025-02-05T05:48:18.347Z</time>
      </trkpt>
      <trkpt lat="58.63301698118448" lon="12.50692798756063">
        <ele>59.73</ele>
        <time>2025-02-05T05:48:40.677Z</time>
      </trkpt>
      <trkpt lat="58.632962917909026" lon="12.506975932046771">
        <ele>59.69</ele>
        <time>2025-02-05T05:49:03.008Z</time>
      </trkpt>
      <trkpt lat="58.63290994428098" lon="12.507020942866802">
        <ele>59.65</ele>
        <time>2025-02-05T05:49:25.339Z</time>
      </trkpt>
      <trkpt lat="58.63285697065294" lon="12.507065953686833">
        <ele>59.61</ele>
        <time>2025-02-05T05:49:47.671Z</time>
      </trkpt>
      <trkpt lat="58.63280592486262" lon="12.507110964506865">
        <ele>59.57</ele>
        <time>2025-02-05T05:50:10.004Z</time>
      </trkpt>
      <trkpt lat="58.63275496289134" lon="12.507153963670135">
        <ele>59.53</ele>
        <time>2025-02-05T05:50:32.338Z</time>
      </trkpt>
      <trkpt lat="58.632704922929406" lon="12.507195957005024">
        <ele>59.5</ele>
        <time>2025-02-05T05:50:54.673Z</time>
      </trkpt>
      <trkpt lat="58.632655972614884" lon="12.507236944511533">
        <ele>59.47</ele>
        <time>2025-02-05T05:51:17.009Z</time>
      </trkpt>
      <trkpt lat="58.63260794430971" lon="12.507274998351932">
        <ele>59.43</ele>
        <time>2025-02-05T05:51:39.346Z</time>
      </trkpt>
      <trkpt lat="58.63255899399519" lon="12.507310956716537">
        <ele>59.4</ele>
        <time>2025-02-05T05:52:01.684Z</time>
      </trkpt>
      <trkpt lat="58.63251096569002" lon="12.507347920909524">
        <ele>59.37</ele>
        <time>2025-02-05T05:52:24.022Z</time>
      </trkpt>
      <trkpt lat="58.63246092572808" lon="12.507384968921542">
        <ele>59.33</ele>
        <time>2025-02-05T05:52:46.361Z</time>
      </trkpt>
      <trkpt lat="58.63241096958518" lon="12.50742495059967">
        <ele>59.3</ele>
        <time>2025-02-05T05:53:08.701Z</time>
      </trkpt>
      <trkpt lat="58.632360929623246" lon="12.507464932277799">
        <ele>59.27</ele>
        <time>2025-02-05T05:53:31.042Z</time>
      </trkpt>
      <trkpt lat="58.632310973480344" lon="12.507504997774959">
        <ele>59.24</ele>
        <time>2025-02-05T05:53:53.384Z</time>
      </trkpt>
      <trkpt lat="58.63226093351841" lon="12.507540956139565">
        <ele>59.22</ele>
        <time>2025-02-05T05:54:15.727Z</time>
      </trkpt>
      <trkpt lat="58.63221097737551" lon="12.507576998323202">
        <ele>59.19</ele>
        <time>2025-02-05T05:54:38.071Z</time>
      </trkpt>
      <trkpt lat="58.632161943241954" lon="12.507610945031047">
        <ele>59.16</ele>
        <time>2025-02-05T05:55:00.415Z</time>
      </trkpt>
      <trkpt lat="58.63211492076516" lon="12.507642963901162">
        <ele>59.13</ele>
        <time>2025-02-05T05:55:22.760Z</time>
      </trkpt>
      <trkpt lat="58.6320679821074" lon="12.507672971114516">
        <ele>59.11</ele>
        <time>2025-02-05T05:55:45.106Z</time>
      </trkpt>
      <trkpt lat="58.63202297128737" lon="12.50770197249949">
        <ele>59.08</ele>
        <time>2025-02-05T05:56:07.453Z</time>
      </trkpt>
      <trkpt lat="58.63197896629572" lon="12.507728962227702">
        <ele>59.06</ele>
        <time>2025-02-05T05:56:29.801Z</time>
      </trkpt>
      <trkpt lat="58.63193496130407" lon="12.507750922814012">
        <ele>59.04</ele>
        <time>2025-02-05T05:56:52.149Z</time>
      </trkpt>
      <trkpt lat="58.6318919621408" lon="12.507769949734211">
        <ele>59.01</ele>
        <time>2025-02-05T05:57:14.498Z</time>
      </trkpt>
      <trkpt lat="58.63185198046267" lon="12.50778897665441">
        <ele>58.99</ele>
        <time>2025-02-05T05:57:36.848Z</time>
      </trkpt>
      <trkpt lat="58.63181199878454" lon="12.507801968604326">
        <ele>58.97</ele>
        <time>2025-02-05T05:57:59.198Z</time>
      </trkpt>
      <trkpt lat="58.631774950772524" lon="12.5078119430691">
        <ele>58.95</ele>
        <time>2025-02-05T05:58:21.549Z</time>
      </trkpt>
      <trkpt lat="58.63173698075116" lon="12.507818983867764">
        <ele>58.93</ele>
        <time>2025-02-05T05:58:43.900Z</time>
      </trkpt>
      <trkpt lat="58.6317019443959" lon="12.507820995524526">
        <ele>58.91</ele>
        <time>2025-02-05T05:59:06.252Z</time>
      </trkpt>
      <trkpt lat="58.631666991859674" lon="12.507820995524526">
        <ele>58.89</ele>
        <time>2025-02-05T05:59:28.605Z</time>
      </trkpt>
      <trkpt lat="58.6316329613328" lon="12.507821917533875">
        <ele>58.87</ele>
        <time>2025-02-05T05:59:50.958Z</time>
      </trkpt>
      <trkpt lat="58.63159691914916" lon="12.507822923362255">
        <ele>58.85</ele>
        <time>2025-02-05T06:00:13.312Z</time>
      </trkpt>
      <trkpt lat="58.63155894912779" lon="12.507825940847397">
        <ele>58.83</ele>
        <time>2025-02-05T06:00:35.666Z</time>
      </trkpt>
      <trkpt lat="58.631516955792904" lon="12.5078309699893">
        <ele>58.81</ele>
        <time>2025-02-05T06:00:58.021Z</time>
      </trkpt>
      <trkpt lat="58.631473956629634" lon="12.507837926968932">
        <ele>58.79</ele>
        <time>2025-02-05T06:01:20.377Z</time>
      </trkpt>
      <trkpt lat="58.6314289458096" lon="12.507846979424357">
        <ele>58.77</ele>
        <time>2025-02-05T06:01:42.733Z</time>
      </trkpt>
      <trkpt lat="58.63138091750443" lon="12.507857959717512">
        <ele>58.76</ele>
        <time>2025-02-05T06:02:05.090Z</time>
      </trkpt>
      <trkpt lat="58.63133196718991" lon="12.507871957495809">
        <ele>58.74</ele>
        <time>2025-02-05T06:02:27.448Z</time>
      </trkpt>
      <trkpt lat="58.631279999390244" lon="12.507887966930866">
        <ele>58.73</ele>
        <time>2025-02-05T06:02:49.807Z</time>
      </trkpt>
      <trkpt lat="58.63122694194317" lon="12.507903976365924">
        <ele>58.72</ele>
        <time>2025-02-05T06:03:12.167Z</time>
      </trkpt>
      <trkpt lat="58.63117095082998" lon="12.507922919467092">
        <ele>58.7</ele>
        <time>2025-02-05T06:03:34.528Z</time>
      </trkpt>
      <trkpt lat="58.6311149597168" lon="12.507942952215672">
        <ele>58.69</ele>
        <time>2025-02-05T06:03:56.890Z</time>
      </trkpt>
      <trkpt lat="58.63105796277523" lon="12.507963990792632">
        <ele>58.67</ele>
        <time>2025-02-05T06:04:19.252Z</time>
      </trkpt>
      <trkpt lat="58.631000965833664" lon="12.507986957207322">
        <ele>58.66</ele>
        <time>2025-02-05T06:04:41.615Z</time>
      </trkpt>
      <trkpt lat="58.63094497472048" lon="12.508009923622012">
        <ele>58.64</ele>
        <time>2025-02-05T06:05:03.979Z</time>
      </trkpt>
      <trkpt lat="58.63088898360729" lon="12.508033979684114">
        <ele>58.63</ele>
        <time>2025-02-05T06:05:26.344Z</time>
      </trkpt>
      <trkpt lat="58.630832992494106" lon="12.508059963583946">
        <ele>58.61</ele>
        <time>2025-02-05T06:05:48.710Z</time>
      </trkpt>
      <trkpt lat="58.63077792339027" lon="12.508084941655397">
        <ele>58.6</ele>
        <time>2025-02-05T06:06:11.077Z</time>
      </trkpt>
      <trkpt lat="58.630722938105464" lon="12.508109919726849">
        <ele>58.59</ele>
        <time>2025-02-05T06:06:33.445Z</time>
      </trkpt>
      <trkpt lat="58.63066694699228" lon="12.508133975788951">
        <ele>58.58</ele>
        <time>2025-02-05T06:06:55.814Z</time>
      </trkpt>
      <trkpt lat="58.63061296753585" lon="12.508158953860402">
        <ele>58.57</ele>
        <time>2025-02-05T06:07:18.184Z</time>
      </trkpt>
      <trkpt lat="58.63055898807943" lon="12.508183931931853">
        <ele>58.56</ele>
        <time>2025-02-05T06:07:40.555Z</time>
      </trkpt>
      <trkpt lat="58.63050593063235" lon="12.508211927488446">
        <ele>58.55</ele>
        <time>2025-02-05T06:08:02.927Z</time>
      </trkpt>
      <trkpt lat="58.63045295700431" lon="12.508242940530181">
        <ele>58.54</ele>
        <time>2025-02-05T06:08:25.299Z</time>
      </trkpt>
      <trkpt lat="58.630399983376265" lon="12.508273953571916">
        <ele>58.52</ele>
        <time>2025-02-05T06:08:47.672Z</time>
      </trkpt>
      <trkpt lat="58.63034793175757" lon="12.50830396078527">
        <ele>58.51</ele>
        <time>2025-02-05T06:09:10.046Z</time>
      </trkpt>
      <trkpt lat="58.630296969786286" lon="12.508330950513482">
        <ele>58.5</ele>
        <time>2025-02-05T06:09:32.421Z</time>
      </trkpt>
      <trkpt lat="58.63024592399597" lon="12.508355928584933">
        <ele>58.49</ele>
        <time>2025-02-05T06:09:54.797Z</time>
      </trkpt>
      <trkpt lat="58.63019898533821" lon="12.508380990475416">
        <ele>58.49</ele>
        <time>2025-02-05T06:10:17.174Z</time>
      </trkpt>
      <trkpt lat="58.63015397451818" lon="12.508404962718487">
        <ele>58.48</ele>
        <time>2025-02-05T06:10:39.551Z</time>
      </trkpt>
      <trkpt lat="58.63010795786977" lon="12.508427929133177">
        <ele>58.47</ele>
        <time>2025-02-05T06:11:01.929Z</time>
      </trkpt>
      <trkpt lat="58.630059929564595" lon="12.508447961881757">
        <ele>58.46</ele>
        <time>2025-02-05T06:11:24.308Z</time>
      </trkpt>
      <trkpt lat="58.63000997342169" lon="12.508468916639686">
        <ele>58.45</ele>
        <time>2025-02-05T06:11:46.688Z</time>
      </trkpt>
      <trkpt lat="58.62996093928814" lon="12.508488949388266">
        <ele>58.45</ele>
        <time>2025-02-05T06:12:09.069Z</time>
      </trkpt>
      <trkpt lat="58.62991198897362" lon="12.508510993793607">
        <ele>58.44</ele>
        <time>2025-02-05T06:12:31.450Z</time>
      </trkpt>
      <trkpt lat="58.629862954840064" lon="12.508532954379916">
        <ele>58.43</ele>
        <time>2025-02-05T06:12:53.832Z</time>
      </trkpt>
      <trkpt lat="58.62981392070651" lon="12.508552987128496">
        <ele>58.43</ele>
        <time>2025-02-05T06:13:16.215Z</time>
      </trkpt>
      <trkpt lat="58.62976497039199" lon="12.508573941886425">
        <ele>58.42</ele>
        <time>2025-02-05T06:13:38.599Z</time>
      </trkpt>
      <trkpt lat="58.629715936258435" lon="12.508595986291766">
        <ele>58.41</ele>
        <time>2025-02-05T06:14:00.984Z</time>
      </trkpt>
      <trkpt lat="58.62966698594391" lon="12.508618952706456">
        <ele>58.4</ele>
        <time>2025-02-05T06:14:23.369Z</time>
      </trkpt>
      <trkpt lat="58.62961694598198" lon="12.508639991283417">
        <ele>58.39</ele>
        <time>2025-02-05T06:14:45.755Z</time>
      </trkpt>
      <trkpt lat="58.62956698983908" lon="12.508656922727823">
        <ele>58.38</ele>
        <time>2025-02-05T06:15:08.142Z</time>
      </trkpt>
      <trkpt lat="58.62951493822038" lon="12.5086719263345">
        <ele>58.37</ele>
        <time>2025-02-05T06:15:30.530Z</time>
      </trkpt>
      <trkpt lat="58.62946297042072" lon="12.508685924112797">
        <ele>58.36</ele>
        <time>2025-02-05T06:15:52.919Z</time>
      </trkpt>
      <trkpt lat="58.629409996792674" lon="12.508697994053364">
        <ele>58.35</ele>
        <time>2025-02-05T06:16:15.309Z</time>
      </trkpt>
      <trkpt lat="58.62935794517398" lon="12.508708974346519">
        <ele>58.34</ele>
        <time>2025-02-05T06:16:37.699Z</time>
      </trkpt>
      <trkpt lat="58.629304971545935" lon="12.508720960468054">
        <ele>58.33</ele>
        <time>2025-02-05T06:17:00.090Z</time>
      </trkpt>
      <trkpt lat="58.62925199791789" lon="12.508731940761209">
        <ele>58.32</ele>
        <time>2025-02-05T06:17:22.482Z</time>
      </trkpt>
      <trkpt lat="58.629198940470815" lon="12.508742921054363">
        <ele>58.31</ele>
        <time>2025-02-05T06:17:44.875Z</time>
      </trkpt>
      <trkpt lat="58.62914697267115" lon="12.508750967681408">
        <ele>58.29</ele>
        <time>2025-02-05T06:18:07.269Z</time>
      </trkpt>
      <trkpt lat="58.62909399904311" lon="12.50875691883266">
        <ele>58.28</ele>
        <time>2025-02-05T06:18:29.664Z</time>
      </trkpt>
      <trkpt lat="58.62903993576765" lon="12.508761947974563">
        <ele>58.27</ele>
        <time>2025-02-05T06:18:52.060Z</time>
      </trkpt>
      <trkpt lat="58.628984950482845" lon="12.508765971288085">
        <ele>58.25</ele>
        <time>2025-02-05T06:19:14.456Z</time>
      </trkpt>
      <trkpt lat="58.62893097102642" lon="12.508767982944846">
        <ele>58.24</ele>
        <time>2025-02-05T06:19:36.853Z</time>
      </trkpt>
      <trkpt lat="58.628876991569996" lon="12.508767982944846">
        <ele>58.22</ele>
        <time>2025-02-05T06:19:59.251Z</time>
      </trkpt>
      <trkpt lat="58.62882292829454" lon="12.508765971288085">
        <ele>58.21</ele>
        <time>2025-02-05T06:20:21.650Z</time>
      </trkpt>
      <trkpt lat="58.628768948838115" lon="12.508761947974563">
        <ele>58.19</ele>
        <time>2025-02-05T06:20:44.050Z</time>
      </trkpt>
      <trkpt lat="58.62871396355331" lon="12.50875691883266">
        <ele>58.18</ele>
        <time>2025-02-05T06:21:06.451Z</time>
      </trkpt>
      <trkpt lat="58.628658978268504" lon="12.508750967681408">
        <ele>58.16</ele>
        <time>2025-02-05T06:21:28.853Z</time>
      </trkpt>
      <trkpt lat="58.6286039929837" lon="12.508743926882744">
        <ele>58.15</ele>
        <time>2025-02-05T06:21:51.256Z</time>
      </trkpt>
      <trkpt lat="58.62854791805148" lon="12.508736969903111">
        <ele>58.13</ele>
        <time>2025-02-05T06:22:13.659Z</time>
      </trkpt>
      <trkpt lat="58.628490921109915" lon="12.508727917447686">
        <ele>58.11</ele>
        <time>2025-02-05T06:22:36.063Z</time>
      </trkpt>
      <trkpt lat="58.62843199633062" lon="12.508715931326151">
        <ele>58.09</ele>
        <time>2025-02-05T06:22:58.468Z</time>
      </trkpt>
      <trkpt lat="58.62837198190391" lon="12.508702939376235">
        <ele>58.07</ele>
        <time>2025-02-05T06:23:20.874Z</time>
      </trkpt>
      <trkpt lat="58.62831297330558" lon="12.508688941597939">
        <ele>58.05</ele>
        <time>2025-02-05T06:23:43.281Z</time>
      </trkpt>
      <trkpt lat="58.628253964707255" lon="12.508675949648023">
        <ele>58.02</ele>
        <time>2025-02-05T06:24:05.689Z</time>
      </trkpt>
      <trkpt lat="58.62819294445217" lon="12.508661951869726">
        <ele>58.0</ele>
        <time>2025-02-05T06:24:28.098Z</time>
      </trkpt>
      <trkpt lat="58.62813192419708" lon="12.508642924949527">
        <ele>57.97</ele>
        <time>2025-02-05T06:24:50.508Z</time>
      </trkpt>
      <trkpt lat="58.62806998193264" lon="12.508622976019979">
        <ele>57.95</ele>
        <time>2025-02-05T06:25:12.919Z</time>
      </trkpt>
      <trkpt lat="58.62800896167755" lon="12.508602943271399">
        <ele>57.91</ele>
        <time>2025-02-05T06:25:35.331Z</time>
      </trkpt>
      <trkpt lat="58.62794693559408" lon="12.50858198851347">
        <ele>57.88</ele>
        <time>2025-02-05T06:25:57.744Z</time>
      </trkpt>
      <trkpt lat="58.62788298167288" lon="12.50856296159327">
        <ele>57.85</ele>
        <time>2025-02-05T06:26:20.158Z</time>
      </trkpt>
      <trkpt lat="58.62781793810427" lon="12.50854192301631">
        <ele>57.82</ele>
        <time>2025-02-05T06:26:42.573Z</time>
      </trkpt>
      <trkpt lat="58.62775297835469" lon="12.508520968258381">
        <ele>57.79</ele>
        <time>2025-02-05T06:27:04.989Z</time>
      </trkpt>
      <trkpt lat="58.6276869289577" lon="12.50849892385304">
        <ele>57.76</ele>
        <time>2025-02-05T06:27:27.406Z</time>
      </trkpt>
      <trkpt lat="58.62762096337974" lon="12.50847696326673">
        <ele>57.72</ele>
        <time>2025-02-05T06:27:49.825Z</time>
      </trkpt>
      <trkpt lat="58.62755591981113" lon="12.50845299102366">
        <ele>57.69</ele>
        <time>2025-02-05T06:28:12.245Z</time>
      </trkpt>
      <trkpt lat="58.62749297171831" lon="12.508426923304796">
        <ele>57.65</ele>
        <time>2025-02-05T06:28:34.666Z</time>
      </trkpt>
      <trkpt lat="58.62742993980646" lon="12.508401945233345">
        <ele>57.62</ele>
        <time>2025-02-05T06:28:57.088Z</time>
      </trkpt>
      <trkpt lat="58.62736891955137" lon="12.508372943848372">
        <ele>57.58</ele>
        <time>2025-02-05T06:29:19.511Z</time>
      </trkpt>
      <trkpt lat="58.627306977286935" lon="12.508340924978256">
        <ele>57.54</ele>
        <time>2025-02-05T06:29:41.935Z</time>
      </trkpt>
      <trkpt lat="58.627243945375085" lon="12.508310917764902">
        <ele>57.5</ele>
        <time>2025-02-05T06:30:04.360Z</time>
      </trkpt>
      <trkpt lat="58.627179991453886" lon="12.50828493386507">
        <ele>57.46</ele>
        <time>2025-02-05T06:30:26.786Z</time>
      </trkpt>
      <trkpt lat="58.627114947885275" lon="12.508260961622">
        <ele>57.42</ele>
        <time>2025-02-05T06:30:49.213Z</time>
      </trkpt>
      <trkpt lat="58.627049988135695" lon="12.50823992304504">
        <ele>57.37</ele>
        <time>2025-02-05T06:31:11.641Z</time>
      </trkpt>
      <trkpt lat="58.626983938738704" lon="12.508221985772252">
        <ele>57.33</ele>
        <time>2025-02-05T06:31:34.070Z</time>
      </trkpt>
      <trkpt lat="58.626917973160744" lon="12.508208993822336">
        <ele>57.28</ele>
        <time>2025-02-05T06:31:56.500Z</time>
      </trkpt>
      <trkpt lat="58.62685192376375" lon="12.50819893553853">
        <ele>57.24</ele>
        <time>2025-02-05T06:32:18.931Z</time>
      </trkpt>
      <trkpt lat="58.62678696401417" lon="12.50819692388177">
        <ele>57.19</ele>
        <time>2025-02-05T06:32:41.363Z</time>
      </trkpt>
      <trkpt lat="58.62672099843621" lon="12.508202958852053">
        <ele>57.14</ele>
        <time>2025-02-05T06:33:03.796Z</time>
      </trkpt>
      <trkpt lat="58.62665394321084" lon="12.508212933316827">
        <ele>57.09</ele>
        <time>2025-02-05T06:33:26.230Z</time>
      </trkpt>
      <trkpt lat="58.6265869718045" lon="12.508227936923504">
        <ele>57.03</ele>
        <time>2025-02-05T06:33:48.665Z</time>
      </trkpt>
      <trkpt lat="58.62652092240751" lon="12.508247969672084">
        <ele>56.98</ele>
        <time>2025-02-05T06:34:11.101Z</time>
      </trkpt>
      <trkpt lat="58.62645596265793" lon="12.508271941915154">
        <ele>56.92</ele>
        <time>2025-02-05T06:34:33.538Z</time>
      </trkpt>
      <trkpt lat="58.6263919249177" lon="12.508298931643367">
        <ele>56.87</ele>
        <time>2025-02-05T06:34:55.977Z</time>
      </trkpt>
      <trkpt lat="58.6263279709965" lon="12.50832592137158">
        <ele>56.82</ele>
        <time>2025-02-05T06:35:18.417Z</time>
      </trkpt>
      <trkpt lat="58.62626594491303" lon="12.508352994918823">
        <ele>56.76</ele>
        <time>2025-02-05T06:35:40.858Z</time>
      </trkpt>
      <trkpt lat="58.62620492465794" lon="12.508379984647036">
        <ele>56.7</ele>
        <time>2025-02-05T06:36:03.300Z</time>
      </trkpt>
      <trkpt lat="58.626146921887994" lon="12.508407980203629">
        <ele>56.65</ele>
        <time>2025-02-05T06:36:25.743Z</time>
      </trkpt>
      <trkpt lat="58.62609093077481" lon="12.50843295827508">
        <ele>56.59</ele>
        <time>2025-02-05T06:36:48.187Z</time>
      </trkpt>
      <trkpt lat="58.62603594549" lon="12.50845693051815">
        <ele>56.53</ele>
        <time>2025-02-05T06:37:10.631Z</time>
      </trkpt>
      <trkpt lat="58.62597995437682" lon="12.508482998237014">
        <ele>56.47</ele>
        <time>2025-02-05T06:37:33.076Z</time>
      </trkpt>
      <trkpt lat="58.62591993995011" lon="12.508509987965226">
        <ele>56.41</ele>
        <time>2025-02-05T06:37:55.522Z</time>
      </trkpt>
      <trkpt lat="58.62585699185729" lon="12.508536977693439">
        <ele>56.35</ele>
        <time>2025-02-05T06:38:17.969Z</time>
      </trkpt>
      <trkpt lat="58.6257909424603" lon="12.50856296159327">
        <ele>56.29</ele>
        <time>2025-02-05T06:38:40.417Z</time>
      </trkpt>
      <trkpt lat="58.62572296522558" lon="12.508588945493102">
        <ele>56.23</ele>
        <time>2025-02-05T06:39:02.867Z</time>
      </trkpt>
      <trkpt lat="58.625654987990856" lon="12.508607972413301">
        <ele>56.16</ele>
        <time>2025-02-05T06:39:25.318Z</time>
      </trkpt>
      <trkpt lat="58.62558592110872" lon="12.50862599350512">
        <ele>56.1</ele>
        <time>2025-02-05T06:39:47.770Z</time>
      </trkpt>
      <trkpt lat="58.62551492638886" lon="12.508641919121146">
        <ele>56.03</ele>
        <time>2025-02-05T06:40:10.223Z</time>
      </trkpt>
      <trkpt lat="58.625439992174506" lon="12.508657928556204">
        <ele>55.95</ele>
        <time>2025-02-05T06:40:32.677Z</time>
      </trkpt>
      <trkpt lat="58.62536497414112" lon="12.508673937991261">
        <ele>55.88</ele>
        <time>2025-02-05T06:40:55.132Z</time>
      </trkpt>
      <trkpt lat="58.625288950279355" lon="12.50869195908308">
        <ele>55.81</ele>
        <time>2025-02-05T06:41:17.589Z</time>
      </trkpt>
      <trkpt lat="58.62521192058921" lon="12.508707968518138">
        <ele>55.73</ele>
        <time>2025-02-05T06:41:40.047Z</time>
      </trkpt>
      <trkpt lat="58.625135980546474" lon="12.508722972124815">
        <ele>55.66</ele>
        <time>2025-02-05T06:42:02.506Z</time>
      </trkpt>
      <trkpt lat="58.62505895085633" lon="12.508740993216634">
        <ele>55.58</ele>
        <time>2025-02-05T06:42:24.966Z</time>
      </trkpt>
      <trkpt lat="58.62498292699456" lon="12.508759936317801">
        <ele>55.51</ele>
        <time>2025-02-05T06:42:47.428Z</time>
      </trkpt>
      <trkpt lat="58.62490698695183" lon="12.508778963238">
        <ele>55.43</ele>
        <time>2025-02-05T06:43:09.891Z</time>
      </trkpt>
      <trkpt lat="58.62483196891844" lon="12.50879899598658">
        <ele>55.36</ele>
        <time>2025-02-05T06:43:32.355Z</time>
      </trkpt>
      <trkpt lat="58.62475594505668" lon="12.508816933259368">
        <ele>55.28</ele>
        <time>2025-02-05T06:43:54.820Z</time>
      </trkpt>
      <trkpt lat="58.62468092702329" lon="12.508836966007948">
        <ele>55.21</ele>
        <time>2025-02-05T06:44:17.286Z</time>
      </trkpt>
      <trkpt lat="58.62460599280894" lon="12.508854987099767">
        <ele>55.13</ele>
        <time>2025-02-05T06:44:39.754Z</time>
      </trkpt>
      <trkpt lat="58.62452996894717" lon="12.508875941857696">
        <ele>55.06</ele>
        <time>2025-02-05T06:45:02.223Z</time>
      </trkpt>
      <trkpt lat="58.624452939257026" lon="12.508894968777895">
        <ele>54.98</ele>
        <time>2025-02-05T06:45:24.693Z</time>
      </trkpt>
      <trkpt lat="58.62437699921429" lon="12.508912989869714">
        <ele>54.91</ele>
        <time>2025-02-05T06:45:47.164Z</time>
      </trkpt>
      <trkpt lat="58.624299969524145" lon="12.508931932970881">
        <ele>54.83</ele>
        <time>2025-02-05T06:46:09.637Z</time>
      </trkpt>
      <trkpt lat="58.624222939834" lon="12.508947942405939">
        <ele>54.75</ele>
        <time>2025-02-05T06:46:32.111Z</time>
      </trkpt>
      <trkpt lat="58.6241449881345" lon="12.508961940184236">
        <ele>54.67</ele>
        <time>2025-02-05T06:46:54.586Z</time>
      </trkpt>
      <trkpt lat="58.624066952615976" lon="12.508974932134151">
        <ele>54.59</ele>
        <time>2025-02-05T06:47:17.062Z</time>
      </trkpt>
      <trkpt lat="58.62398891709745" lon="12.508988929912448">
        <ele>54.5</ele>
        <time>2025-02-05T06:47:39.540Z</time>
      </trkpt>
      <trkpt lat="58.62390895374119" lon="12.509000999853015">
        <ele>54.42</ele>
        <time>2025-02-05T06:48:02.019Z</time>
      </trkpt>
      <trkpt lat="58.623828990384936" lon="12.509004939347506">
        <ele>54.33</ele>
        <time>2025-02-05T06:48:24.499Z</time>
      </trkpt>
      <trkpt lat="58.62374793738127" lon="12.509006951004267">
        <ele>54.25</ele>
        <time>2025-02-05T06:48:46.980Z</time>
      </trkpt>
      <trkpt lat="58.62366797402501" lon="12.509009968489408">
        <ele>54.16</ele>
        <time>2025-02-05T06:49:09.463Z</time>
      </trkpt>
      <trkpt lat="58.62358692102134" lon="12.50901198014617">
        <ele>54.08</ele>
        <time>2025-02-05T06:49:31.947Z</time>
      </trkpt>
      <trkpt lat="58.623505951836705" lon="12.50901298597455">
        <ele>53.99</ele>
        <time>2025-02-05T06:49:54.432Z</time>
      </trkpt>
      <trkpt lat="58.62342791631818" lon="12.509014997631311">
        <ele>53.9</ele>
        <time>2025-02-05T06:50:16.919Z</time>
      </trkpt>
      <trkpt lat="58.62334996461868" lon="12.50901399180293">
        <ele>53.82</ele>
        <time>2025-02-05T06:50:39.407Z</time>
      </trkpt>
      <trkpt lat="58.623272934928536" lon="12.50901298597455">
        <ele>53.72</ele>
        <time>2025-02-05T06:51:01.896Z</time>
      </trkpt>
      <trkpt lat="58.62319498322904" lon="12.509007956832647">
        <ele>53.63</ele>
        <time>2025-02-05T06:51:24.386Z</time>
      </trkpt>
      <trkpt lat="58.62311594188213" lon="12.509007956832647">
        <ele>53.54</ele>
        <time>2025-02-05T06:51:46.878Z</time>
      </trkpt>
      <trkpt lat="58.62304092384875" lon="12.509008962661028">
        <ele>53.44</ele>
        <time>2025-02-05T06:52:09.371Z</time>
      </trkpt>
      <trkpt lat="58.62296397797763" lon="12.509017931297421">
        <ele>53.35</ele>
        <time>2025-02-05T06:52:31.865Z</time>
      </trkpt>
      <trkpt lat="58.62288795411587" lon="12.50901692546904">
        <ele>53.26</ele>
        <time>2025-02-05T06:52:54.360Z</time>
      </trkpt>
      <trkpt lat="58.62281394191086" lon="12.50901591964066">
        <ele>53.16</ele>
        <time>2025-02-05T06:53:16.856Z</time>
      </trkpt>
      <trkpt lat="58.62273699603975" lon="12.509017931297421">
        <ele>53.07</ele>
        <time>2025-02-05T06:53:39.354Z</time>
      </trkpt>
      <trkpt lat="58.62266197800636" lon="12.509018937125802">
        <ele>52.98</ele>
        <time>2025-02-05T06:54:01.853Z</time>
      </trkpt>
      <trkpt lat="58.62258796580136" lon="12.509019942954183">
        <ele>52.89</ele>
        <time>2025-02-05T06:54:24.353Z</time>
      </trkpt>
      <trkpt lat="58.62251093611121" lon="12.509021954610944">
        <ele>52.8</ele>
        <time>2025-02-05T06:54:46.854Z</time>
      </trkpt>
      <trkpt lat="58.6224339902401" lon="12.509019942954183">
        <ele>52.7</ele>
        <time>2025-02-05T06:55:09.357Z</time>
      </trkpt>
      <trkpt lat="58.62235595472157" lon="12.509017931297421">
        <ele>52.61</ele>
        <time>2025-02-05T06:55:31.861Z</time>
      </trkpt>
      <trkpt lat="58.62227791920304" lon="12.50901399180293">
        <ele>52.53</ele>
        <time>2025-02-05T06:55:54.366Z</time>
      </trkpt>
      <trkpt lat="58.62219996750355" lon="12.509005945175886">
        <ele>52.44</ele>
        <time>2025-02-05T06:56:16.872Z</time>
      </trkpt>
      <trkpt lat="58.62211992032826" lon="12.50899395905435">
        <ele>52.35</ele>
        <time>2025-02-05T06:56:39.380Z</time>
      </trkpt>
      <trkpt lat="58.622039956972" lon="12.508981972932816">
        <ele>52.26</ele>
        <time>2025-02-05T06:57:01.889Z</time>
      </trkpt>
      <trkpt lat="58.621961921453476" lon="12.5089689809829">
        <ele>52.18</ele>
        <time>2025-02-05T06:57:24.399Z</time>
      </trkpt>
      <trkpt lat="58.62188396975398" lon="12.508955989032984">
        <ele>52.09</ele>
        <time>2025-02-05T06:57:46.910Z</time>
      </trkpt>
      <trkpt lat="58.62180492840707" lon="12.508942997083068">
        <ele>52.0</ele>
        <time>2025-02-05T06:58:09.423Z</time>
      </trkpt>
      <trkpt lat="58.62172798253596" lon="12.50892799347639">
        <ele>51.91</ele>
        <time>2025-02-05T06:58:31.937Z</time>
      </trkpt>
      <trkpt lat="58.62165195867419" lon="12.508912989869714">
        <ele>51.83</ele>
        <time>2025-02-05T06:58:54.452Z</time>
      </trkpt>
      <trkpt lat="58.62157694064081" lon="12.508894968777895">
        <ele>51.74</ele>
        <time>2025-02-05T06:59:16.968Z</time>
      </trkpt>
      <trkpt lat="58.62150091677904" lon="12.508876947686076">
        <ele>51.66</ele>
        <time>2025-02-05T06:59:39.486Z</time>
      </trkpt>
      <trkpt lat="58.62142397090793" lon="12.508858926594257">
        <ele>51.58</ele>
        <time>2025-02-05T07:00:02.005Z</time>
      </trkpt>
      <trkpt lat="58.62134794704616" lon="12.50884098932147">
        <ele>51.5</ele>
        <time>2025-02-05T07:00:24.525Z</time>
      </trkpt>
      <trkpt lat="58.621272929012775" lon="12.50882095657289">
        <ele>51.42</ele>
        <time>2025-02-05T07:00:47.046Z</time>
      </trkpt>
      <trkpt lat="58.62119799479842" lon="12.50879899598658">
        <ele>51.34</ele>
        <time>2025-02-05T07:01:09.568Z</time>
      </trkpt>
      <trkpt lat="58.62112297676504" lon="12.50877695158124">
        <ele>51.27</ele>
        <time>2025-02-05T07:01:32.092Z</time>
      </trkpt>
      <trkpt lat="58.62104695290327" lon="12.50875599682331">
        <ele>51.19</ele>
        <time>2025-02-05T07:01:54.617Z</time>
      </trkpt>
      <trkpt lat="58.620971934869885" lon="12.50873395241797">
        <ele>51.11</ele>
        <time>2025-02-05T07:02:17.143Z</time>
      </trkpt>
      <trkpt lat="58.62089599482715" lon="12.50871098600328">
        <ele>51.04</ele>
        <time>2025-02-05T07:02:39.670Z</time>
      </trkpt>
      <trkpt lat="58.620820976793766" lon="12.508682990446687">
        <ele>50.97</ele>
        <time>2025-02-05T07:03:02.199Z</time>
      </trkpt>
      <trkpt lat="58.62074696458876" lon="12.508650971576571">
        <ele>50.9</ele>
        <time>2025-02-05T07:03:24.729Z</time>
      </trkpt>
      <trkpt lat="58.62067295238376" lon="12.508616941049695">
        <ele>50.83</ele>
        <time>2025-02-05T07:03:47.260Z</time>
      </trkpt>
      <trkpt lat="58.62059994600713" lon="12.50858198851347">
        <ele>50.76</ele>
        <time>2025-02-05T07:04:09.792Z</time>
      </trkpt>
      <trkpt lat="58.62052794545889" lon="12.50854091718793">
        <ele>50.69</ele>
        <time>2025-02-05T07:04:32.325Z</time>
      </trkpt>
      <trkpt lat="58.62045795656741" lon="12.50849892385304">
        <ele>50.62</ele>
        <time>2025-02-05T07:04:54.860Z</time>
      </trkpt>
      <trkpt lat="58.620387967675924" lon="12.50845693051815">
        <ele>50.55</ele>
        <time>2025-02-05T07:05:17.396Z</time>
      </trkpt>
      <trkpt lat="58.62031697295606" lon="12.50841393135488">
        <ele>50.49</ele>
        <time>2025-02-05T07:05:39.933Z</time>
      </trkpt>
      <trkpt lat="58.62024396657944" lon="12.50836892053485">
        <ele>50.43</ele>
        <time>2025-02-05T07:06:02.471Z</time>
      </trkpt>
      <trkpt lat="58.620171966031194" lon="12.50832592137158">
        <ele>50.37</ele>
        <time>2025-02-05T07:06:25.010Z</time>
      </trkpt>
      <trkpt lat="58.62010097131133" lon="12.50828292220831">
        <ele>50.31</ele>
        <time>2025-02-05T07:06:47.551Z</time>
      </trkpt>
      <trkpt lat="58.62002897076309" lon="12.50823992304504">
        <ele>50.25</ele>
        <time>2025-02-05T07:07:10.093Z</time>
      </trkpt>
      <trkpt lat="58.619956970214844" lon="12.50819792971015">
        <ele>50.19</ele>
        <time>2025-02-05T07:07:32.636Z</time>
      </trkpt>
      <trkpt lat="58.6198849696666" lon="12.50815493054688">
        <ele>50.13</ele>
        <time>2025-02-05T07:07:55.180Z</time>
      </trkpt>
      <trkpt lat="58.61981397494674" lon="12.50811092555523">
        <ele>50.08</ele>
        <time>2025-02-05T07:08:17.725Z</time>
      </trkpt>
      <trkpt lat="58.619742980226874" lon="12.50806792639196">
        <ele>50.03</ele>
        <time>2025-02-05T07:08:40.272Z</time>
      </trkpt>
      <trkpt lat="58.61967198550701" lon="12.50802492722869">
        <ele>49.98</ele>
        <time>2025-02-05T07:09:02.820Z</time>
      </trkpt>
      <trkpt lat="58.61960291862488" lon="12.507979916408658">
        <ele>49.93</ele>
        <time>2025-02-05T07:09:25.369Z</time>
      </trkpt>
      <trkpt lat="58.61953494139016" lon="12.507931971922517">
        <ele>49.88</ele>
        <time>2025-02-05T07:09:47.919Z</time>
      </trkpt>
      <trkpt lat="58.619467969983816" lon="12.507879920303822">
        <ele>49.83</ele>
        <time>2025-02-05T07:10:10.470Z</time>
      </trkpt>
      <trkpt lat="58.619401920586824" lon="12.507826946675777">
        <ele>49.79</ele>
        <time>2025-02-05T07:10:33.022Z</time>
      </trkpt>
      <trkpt lat="58.619335955008864" lon="12.507774978876114">
        <ele>49.75</ele>
        <time>2025-02-05T07:10:55.576Z</time>
      </trkpt>
      <trkpt lat="58.619271917268634" lon="12.507721921429038">
        <ele>49.7</ele>
        <time>2025-02-05T07:11:18.131Z</time>
      </trkpt>
      <trkpt lat="58.619208969175816" lon="12.507666936144233">
        <ele>49.67</ele>
        <time>2025-02-05T07:11:40.687Z</time>
      </trkpt>
      <trkpt lat="58.619145937263966" lon="12.507610945031047">
        <ele>49.63</ele>
        <time>2025-02-05T07:12:03.244Z</time>
      </trkpt>
      <trkpt lat="58.61908298917115" lon="12.5075529422611">
        <ele>49.59</ele>
        <time>2025-02-05T07:12:25.802Z</time>
      </trkpt>
      <trkpt lat="58.61902096308768" lon="12.507492927834392">
        <ele>49.56</ele>
        <time>2025-02-05T07:12:48.361Z</time>
      </trkpt>
      <trkpt lat="58.61895793117583" lon="12.507434925064445">
        <ele>49.53</ele>
        <time>2025-02-05T07:13:10.921Z</time>
      </trkpt>
      <trkpt lat="58.61889498308301" lon="12.507376922294497">
        <ele>49.49</ele>
        <time>2025-02-05T07:13:33.482Z</time>
      </trkpt>
      <trkpt lat="58.61883195117116" lon="12.507319925352931">
        <ele>49.46</ele>
        <time>2025-02-05T07:13:56.045Z</time>
      </trkpt>
      <trkpt lat="58.61876699142158" lon="12.507261922582984">
        <ele>49.43</ele>
        <time>2025-02-05T07:14:18.609Z</time>
      </trkpt>
      <trkpt lat="58.61870295368135" lon="12.507203919813037">
        <ele>49.41</ele>
        <time>2025-02-05T07:14:41.174Z</time>
      </trkpt>
      <trkpt lat="58.61863799393177" lon="12.50714591704309">
        <ele>49.38</ele>
        <time>2025-02-05T07:15:03.740Z</time>
      </trkpt>
      <trkpt lat="58.61857496201992" lon="12.507086992263794">
        <ele>49.36</ele>
        <time>2025-02-05T07:15:26.307Z</time>
      </trkpt>
      <trkpt lat="58.61851293593645" lon="12.507026977837086">
        <ele>49.34</ele>
        <time>2025-02-05T07:15:48.875Z</time>
      </trkpt>
      <trkpt lat="58.61845099367201" lon="12.506965957581997">
        <ele>49.33</ele>
        <time>2025-02-05T07:16:11.444Z</time>
      </trkpt>
      <trkpt lat="58.618390979245305" lon="12.506903931498528">
        <ele>49.31</ele>
        <time>2025-02-05T07:16:34.014Z</time>
      </trkpt>
      <trkpt lat="58.6183309648186" lon="12.506838971748948">
        <ele>49.3</ele>
        <time>2025-02-05T07:16:56.586Z</time>
      </trkpt>
      <trkpt lat="58.61827095039189" lon="12.506768982857466">
        <ele>49.29</ele>
        <time>2025-02-05T07:17:19.159Z</time>
      </trkpt>
      <trkpt lat="58.61821194179356" lon="12.50669396482408">
        <ele>49.29</ele>
        <time>2025-02-05T07:17:41.733Z</time>
      </trkpt>
      <trkpt lat="58.618154944851995" lon="12.506614923477173">
        <ele>49.28</ele>
        <time>2025-02-05T07:18:04.308Z</time>
      </trkpt>
      <trkpt lat="58.61810096539557" lon="12.506531942635775">
        <ele>49.28</ele>
        <time>2025-02-05T07:18:26.884Z</time>
      </trkpt>
      <trkpt lat="58.618046985939145" lon="12.506444938480854">
        <ele>49.27</ele>
        <time>2025-02-05T07:18:49.461Z</time>
      </trkpt>
      <trkpt lat="58.61799392849207" lon="12.506352989003062">
        <ele>49.27</ele>
        <time>2025-02-05T07:19:12.039Z</time>
      </trkpt>
      <trkpt lat="58.617940954864025" lon="12.506257938221097">
        <ele>49.27</ele>
        <time>2025-02-05T07:19:34.618Z</time>
      </trkpt>
      <trkpt lat="58.61788898706436" lon="12.506158947944641">
        <ele>49.28</ele>
        <time>2025-02-05T07:19:57.199Z</time>
      </trkpt>
      <trkpt lat="58.617836935445666" lon="12.506056940183043">
        <ele>49.28</ele>
        <time>2025-02-05T07:20:19.781Z</time>
      </trkpt>
      <trkpt lat="58.61778597347438" lon="12.505951998755336">
        <ele>49.29</ele>
        <time>2025-02-05T07:20:42.364Z</time>
      </trkpt>
      <trkpt lat="58.61773693934083" lon="12.505842950195074">
        <ele>49.3</ele>
        <time>2025-02-05T07:21:04.948Z</time>
      </trkpt>
      <trkpt lat="58.61768991686404" lon="12.505730967968702">
        <ele>49.31</ele>
        <time>2025-02-05T07:21:27.533Z</time>
      </trkpt>
      <trkpt lat="58.61764498986304" lon="12.505614962428808">
        <ele>49.32</ele>
        <time>2025-02-05T07:21:50.120Z</time>
      </trkpt>
      <trkpt lat="58.61760199069977" lon="12.505496945232153">
        <ele>49.34</ele>
        <time>2025-02-05T07:22:12.708Z</time>
      </trkpt>
      <trkpt lat="58.61756091937423" lon="12.505376916378736">
        <ele>49.36</ele>
        <time>2025-02-05T07:22:35.297Z</time>
      </trkpt>
      <trkpt lat="58.61751993186772" lon="12.50525495968759">
        <ele>49.38</ele>
        <time>2025-02-05T07:22:57.887Z</time>
      </trkpt>
      <trkpt lat="58.61748196184635" lon="12.505128979682922">
        <ele>49.4</ele>
        <time>2025-02-05T07:23:20.478Z</time>
      </trkpt>
      <trkpt lat="58.617443991824985" lon="12.505001993849874">
        <ele>49.42</ele>
        <time>2025-02-05T07:23:43.071Z</time>
      </trkpt>
      <trkpt lat="58.617406943812966" lon="12.504872996360064">
        <ele>49.45</ele>
        <time>2025-02-05T07:24:05.665Z</time>
      </trkpt>
      <trkpt lat="58.61737098544836" lon="12.504743998870254">
        <ele>49.47</ele>
        <time>2025-02-05T07:24:28.260Z</time>
      </trkpt>
      <trkpt lat="58.61733393743634" lon="12.504615923389792">
        <ele>49.5</ele>
        <time>2025-02-05T07:24:50.856Z</time>
      </trkpt>
      <trkpt lat="58.61729898490012" lon="12.504486925899982">
        <ele>49.54</ele>
        <time>2025-02-05T07:25:13.454Z</time>
      </trkpt>
      <trkpt lat="58.61726294271648" lon="12.504358934238553">
        <ele>49.57</ele>
        <time>2025-02-05T07:25:36.053Z</time>
      </trkpt>
      <trkpt lat="58.61722597852349" lon="12.504229936748743">
        <ele>49.61</ele>
        <time>2025-02-05T07:25:58.653Z</time>
      </trkpt>
      <trkpt lat="58.617188930511475" lon="12.504100939258933">
        <ele>49.64</ele>
        <time>2025-02-05T07:26:21.254Z</time>
      </trkpt>
      <trkpt lat="58.617148948833346" lon="12.503972947597504">
        <ele>49.68</ele>
        <time>2025-02-05T07:26:43.857Z</time>
      </trkpt>
      <trkpt lat="58.6171099729836" lon="12.503844955936074">
        <ele>49.73</ele>
        <time>2025-02-05T07:27:06.461Z</time>
      </trkpt>
      <trkpt lat="58.61706999130547" lon="12.503717970103025">
        <ele>49.77</ele>
        <time>2025-02-05T07:27:29.066Z</time>
      </trkpt>
      <trkpt lat="58.61702992580831" lon="12.503590984269977">
        <ele>49.82</ele>
        <time>2025-02-05T07:27:51.672Z</time>
      </trkpt>
      <trkpt lat="58.61698994413018" lon="12.503461986780167">
        <ele>49.87</ele>
        <time>2025-02-05T07:28:14.280Z</time>
      </trkpt>
      <trkpt lat="58.61694895662367" lon="12.503333995118737">
        <ele>49.92</ele>
        <time>2025-02-05T07:28:36.889Z</time>
      </trkpt>
      <trkpt lat="58.6169059574604" lon="12.503208937123418">
        <ele>49.97</ele>
        <time>2025-02-05T07:28:59.499Z</time>
      </trkpt>
      <trkpt lat="58.61685994081199" lon="12.503086980432272">
        <ele>50.02</ele>
        <time>2025-02-05T07:29:22.110Z</time>
      </trkpt>
      <trkpt lat="58.61681392416358" lon="12.502965945750475">
        <ele>50.07</ele>
        <time>2025-02-05T07:29:44.723Z</time>
      </trkpt>
      <trkpt lat="58.61676597967744" lon="12.50284792855382">
        <ele>50.13</ele>
        <time>2025-02-05T07:30:07.337Z</time>
      </trkpt>
      <trkpt lat="58.616715939715505" lon="12.502734940499067">
        <ele>50.2</ele>
        <time>2025-02-05T07:30:29.952Z</time>
      </trkpt>
      <trkpt lat="58.61666397191584" lon="12.502624969929457">
        <ele>50.26</ele>
        <time>2025-02-05T07:30:52.568Z</time>
      </trkpt>
      <trkpt lat="58.616608986631036" lon="12.502519944682717">
        <ele>50.32</ele>
        <time>2025-02-05T07:31:15.186Z</time>
      </trkpt>
      <trkpt lat="58.61655198968947" lon="12.50241793692112">
        <ele>50.39</ele>
        <time>2025-02-05T07:31:37.805Z</time>
      </trkpt>
      <trkpt lat="58.61649298109114" lon="12.502319952473044">
        <ele>50.46</ele>
        <time>2025-02-05T07:32:00.425Z</time>
      </trkpt>
      <trkpt lat="58.61643095500767" lon="12.50222498551011">
        <ele>50.53</ele>
        <time>2025-02-05T07:32:23.046Z</time>
      </trkpt>
      <trkpt lat="58.61636691726744" lon="12.502134963870049">
        <ele>50.6</ele>
        <time>2025-02-05T07:32:45.669Z</time>
      </trkpt>
      <trkpt lat="58.61630095168948" lon="12.502047959715128">
        <ele>50.68</ele>
        <time>2025-02-05T07:33:08.293Z</time>
      </trkpt>
      <trkpt lat="58.61623297445476" lon="12.50196598470211">
        <ele>50.76</ele>
        <time>2025-02-05T07:33:30.918Z</time>
      </trkpt>
      <trkpt lat="58.61616399139166" lon="12.501886943355203">
        <ele>50.84</ele>
        <time>2025-02-05T07:33:53.544Z</time>
      </trkpt>
      <trkpt lat="58.616093918681145" lon="12.501809997484088">
        <ele>50.92</ele>
        <time>2025-02-05T07:34:16.172Z</time>
      </trkpt>
      <trkpt lat="58.61602594144642" lon="12.501735985279083">
        <ele>51.0</ele>
        <time>2025-02-05T07:34:38.801Z</time>
      </trkpt>
      <trkpt lat="58.6159579642117" lon="12.50166297890246">
        <ele>51.08</ele>
        <time>2025-02-05T07:35:01.431Z</time>
      </trkpt>
      <trkpt lat="58.61588998697698" lon="12.501590978354216">
        <ele>51.16</ele>
        <time>2025-02-05T07:35:24.062Z</time>
      </trkpt>
      <trkpt lat="58.61582192592323" lon="12.501522917300463">
        <ele>51.25</ele>
        <time>2025-02-05T07:35:46.695Z</time>
      </trkpt>
      <trkpt lat="58.61575394868851" lon="12.5014519225806">
        <ele>51.34</ele>
        <time>2025-02-05T07:36:09.329Z</time>
      </trkpt>
      <trkpt lat="58.61568798311055" lon="12.501375982537866">
        <ele>51.43</ele>
        <time>2025-02-05T07:36:31.964Z</time>
      </trkpt>
      <trkpt lat="58.615621933713555" lon="12.501295935362577">
        <ele>51.51</ele>
        <time>2025-02-05T07:36:54.600Z</time>
      </trkpt>
      <trkpt lat="58.61555797979236" lon="12.501211948692799">
        <ele>51.6</ele>
        <time>2025-02-05T07:37:17.238Z</time>
      </trkpt>
      <trkpt lat="58.615493942052126" lon="12.50112695619464">
        <ele>51.7</ele>
        <time>2025-02-05T07:37:39.877Z</time>
      </trkpt>
      <trkpt lat="58.61542998813093" lon="12.50104196369648">
        <ele>51.79</ele>
        <time>2025-02-05T07:38:02.517Z</time>
      </trkpt>
      <trkpt lat="58.61536695621908" lon="12.50095697119832">
        <ele>51.89</ele>
        <time>2025-02-05T07:38:25.158Z</time>
      </trkpt>
      <trkpt lat="58.61530593596399" lon="12.500871978700161">
        <ele>51.99</ele>
        <time>2025-02-05T07:38:47.801Z</time>
      </trkpt>
      <trkpt lat="58.61524592153728" lon="12.50078396871686">
        <ele>52.09</ele>
        <time>2025-02-05T07:39:10.445Z</time>
      </trkpt>
      <trkpt lat="58.615186996757984" lon="12.500692941248417">
        <ele>52.2</ele>
        <time>2025-02-05T07:39:33.090Z</time>
      </trkpt>
      <trkpt lat="58.61512999981642" lon="12.500596968457103">
        <ele>52.3</ele>
        <time>2025-02-05T07:39:55.736Z</time>
      </trkpt>
      <trkpt lat="58.61507694236934" lon="12.500495966523886">
        <ele>52.4</ele>
        <time>2025-02-05T07:40:18.383Z</time>
      </trkpt>
      <trkpt lat="58.61502799205482" lon="12.500388929620385">
        <ele>52.51</ele>
        <time>2025-02-05T07:40:41.032Z</time>
      </trkpt>
      <trkpt lat="58.61498792655766" lon="12.50027191825211">
        <ele>52.61</ele>
        <time>2025-02-05T07:41:03.682Z</time>
      </trkpt>
      <trkpt lat="58.614953979849815" lon="12.500146944075823">
        <ele>52.72</ele>
        <time>2025-02-05T07:41:26.333Z</time>
      </trkpt>
      <trkpt lat="58.61492891795933" lon="12.50001291744411">
        <ele>52.83</ele>
        <time>2025-02-05T07:41:48.985Z</time>
      </trkpt>
      <trkpt lat="58.614911986514926" lon="12.499872939661145">
        <ele>52.94</ele>
        <time>2025-02-05T07:42:11.638Z</time>
      </trkpt>
      <trkpt lat="58.6149029340595" lon="12.49973095022142">
        <ele>53.05</ele>
        <time>2025-02-05T07:42:34.293Z</time>
      </trkpt>
      <trkpt lat="58.61490192823112" lon="12.499586949124932">
        <ele>53.16</ele>
        <time>2025-02-05T07:42:56.949Z</time>
      </trkpt>
      <trkpt lat="58.614907963201404" lon="12.499447977170348">
        <ele>53.28</ele>
        <time>2025-02-05T07:43:19.606Z</time>
      </trkpt>
      <trkpt lat="58.61491793766618" lon="12.499308921396732">
        <ele>53.39</ele>
        <time>2025-02-05T07:43:42.264Z</time>
      </trkpt>
      <trkpt lat="58.614930929616094" lon="12.49917296692729">
        <ele>53.51</ele>
        <time>2025-02-05T07:44:04.923Z</time>
      </trkpt>
      <trkpt lat="58.61494492739439" lon="12.499036928638816">
        <ele>53.63</ele>
        <time>2025-02-05T07:44:27.583Z</time>
      </trkpt>
      <trkpt lat="58.614957919344306" lon="12.498901979997754">
        <ele>53.75</ele>
        <time>2025-02-05T07:44:50.245Z</time>
      </trkpt>
      <trkpt lat="58.61496797762811" lon="12.49876594170928">
        <ele>53.87</ele>
        <time>2025-02-05T07:45:12.908Z</time>
      </trkpt>
      <trkpt lat="58.614975940436125" lon="12.498629987239838">
        <ele>54.0</ele>
        <time>2025-02-05T07:45:35.572Z</time>
      </trkpt>
      <trkpt lat="58.61497895792127" lon="12.498494954779744">
        <ele>54.12</ele>
        <time>2025-02-05T07:45:58.237Z</time>
      </trkpt>
      <trkpt lat="58.614974934607744" lon="12.498362939804792">
        <ele>54.24</ele>
        <time>2025-02-05T07:46:20.903Z</time>
      </trkpt>
      <trkpt lat="58.61496294848621" lon="12.498235953971744">
        <ele>54.37</ele>
        <time>2025-02-05T07:46:43.570Z</time>
      </trkpt>
      <trkpt lat="58.61494392156601" lon="12.498109973967075">
        <ele>54.49</ele>
        <time>2025-02-05T07:47:06.238Z</time>
      </trkpt>
      <trkpt lat="58.61491793766618" lon="12.497984999790788">
        <ele>54.62</ele>
        <time>2025-02-05T07:47:28.907Z</time>
      </trkpt>
      <trkpt lat="58.61488197930157" lon="12.49786295928061">
        <ele>54.74</ele>
        <time>2025-02-05T07:47:51.578Z</time>
      </trkpt>
      <trkpt lat="58.6148389801383" lon="12.497746953740716">
        <ele>54.86</ele>
        <time>2025-02-05T07:48:14.250Z</time>
      </trkpt>
      <trkpt lat="58.61478994600475" lon="12.497635977342725">
        <ele>54.98</ele>
        <time>2025-02-05T07:48:36.923Z</time>
      </trkpt>
      <trkpt lat="58.614738984033465" lon="12.497530952095985">
        <ele>55.11</ele>
        <time>2025-02-05T07:48:59.597Z</time>
      </trkpt>
      <trkpt lat="58.61468894407153" lon="12.49743296764791">
        <ele>55.23</ele>
        <time>2025-02-05T07:49:22.272Z</time>
      </trkpt>
      <trkpt lat="58.61463898792863" lon="12.497336994856596">
        <ele>55.36</ele>
        <time>2025-02-05T07:49:44.949Z</time>
      </trkpt>
      <trkpt lat="58.614589953795075" lon="12.497246973216534">
        <ele>55.49</ele>
        <time>2025-02-05T07:50:07.627Z</time>
      </trkpt>
      <trkpt lat="58.61454091966152" lon="12.497160974889994">
        <ele>55.61</ele>
        <time>2025-02-05T07:50:30.306Z</time>
      </trkpt>
      <trkpt lat="58.61449096351862" lon="12.497072964906693">
        <ele>55.74</ele>
        <time>2025-02-05T07:50:52.986Z</time>
      </trkpt>
      <trkpt lat="58.614439917728305" lon="12.496985960751772">
        <ele>55.86</ele>
        <time>2025-02-05T07:51:15.667Z</time>
      </trkpt>
      <trkpt lat="58.61438593827188" lon="12.496900968253613">
        <ele>55.98</ele>
        <time>2025-02-05T07:51:38.349Z</time>
      </trkpt>
      <trkpt lat="58.614330952987075" lon="12.496814969927073">
        <ele>56.1</ele>
        <time>2025-02-05T07:52:01.032Z</time>
      </trkpt>
      <trkpt lat="58.61427596770227" lon="12.496727965772152">
        <ele>56.23</ele>
        <time>2025-02-05T07:52:23.716Z</time>
      </trkpt>
      <trkpt lat="58.614220982417464" lon="12.496641967445612">
        <ele>56.35</ele>
        <time>2025-02-05T07:52:46.401Z</time>
      </trkpt>
      <trkpt lat="58.61416599713266" lon="12.496559992432594">
        <ele>56.47</ele>
        <time>2025-02-05T07:53:09.088Z</time>
      </trkpt>
      <trkpt lat="58.61410992220044" lon="12.496478939428926">
        <ele>56.59</ele>
        <time>2025-02-05T07:53:31.776Z</time>
      </trkpt>
      <trkpt lat="58.614052925258875" lon="12.496398976072669">
        <ele>56.7</ele>
        <time>2025-02-05T07:53:54.465Z</time>
      </trkpt>
      <trkpt lat="58.61399198882282" lon="12.49631691724062">
        <ele>56.81</ele>
        <time>2025-02-05T07:54:17.155Z</time>
      </trkpt>
      <trkpt lat="58.613923927769065" lon="12.496234942227602">
        <ele>56.92</ele>
        <time>2025-02-05T07:54:39.846Z</time>
      </trkpt>
      <trkpt lat="58.6138529330492" lon="12.496153973042965">
        <ele>57.04</ele>
        <time>2025-02-05T07:55:02.539Z</time>
      </trkpt>
      <trkpt lat="58.61377992667258" lon="12.496072920039296">
        <ele>57.15</ele>
        <time>2025-02-05T07:55:25.233Z</time>
      </trkpt>
      <trkpt lat="58.613704992458224" lon="12.495987927541137">
        <ele>57.27</ele>
        <time>2025-02-05T07:55:47.928Z</time>
      </trkpt>
      <trkpt lat="58.61362997442484" lon="12.495904946699739">
        <ele>57.38</ele>
        <time>2025-02-05T07:56:10.625Z</time>
      </trkpt>
      <trkpt lat="58.61355395056307" lon="12.495823977515101">
        <ele>57.49</ele>
        <time>2025-02-05T07:56:33.323Z</time>
      </trkpt>
      <trkpt lat="58.61347792670131" lon="12.495743930339813">
        <ele>57.61</ele>
        <time>2025-02-05T07:56:56.023Z</time>
      </trkpt>
      <trkpt lat="58.613403998315334" lon="12.495666984468699">
        <ele>57.72</ele>
        <time>2025-02-05T07:57:18.724Z</time>
      </trkpt>
      <trkpt lat="58.61332998611033" lon="12.495591966435313">
        <ele>57.83</ele>
        <time>2025-02-05T07:57:41.426Z</time>
      </trkpt>
      <trkpt lat="58.613256979733706" lon="12.495515942573547">
        <ele>57.94</ele>
        <time>2025-02-05T07:58:04.130Z</time>
      </trkpt>
      <trkpt lat="58.61318598501384" lon="12.495439918711782">
        <ele>58.05</ele>
        <time>2025-02-05T07:58:26.835Z</time>
      </trkpt>
      <trkpt lat="58.61311499029398" lon="12.495362972840667">
        <ele>58.17</ele>
        <time>2025-02-05T07:58:49.541Z</time>
      </trkpt>
      <trkpt lat="58.61304399557412" lon="12.495286948978901">
        <ele>58.28</ele>
        <time>2025-02-05T07:59:12.248Z</time>
      </trkpt>
      <trkpt lat="58.61297199502587" lon="12.495212936773896">
        <ele>58.39</ele>
        <time>2025-02-05T07:59:34.957Z</time>
      </trkpt>
      <trkpt lat="58.61290091648698" lon="12.495139930397272">
        <ele>58.5</ele>
        <time>2025-02-05T07:59:57.667Z</time>
      </trkpt>
      <trkpt lat="58.612830927595496" lon="12.495066924020648">
        <ele>58.61</ele>
        <time>2025-02-05T08:00:20.378Z</time>
      </trkpt>
      <trkpt lat="58.61275993287563" lon="12.494994923472404">
        <ele>58.72</ele>
        <time>2025-02-05T08:00:43.091Z</time>
      </trkpt>
      <trkpt lat="58.61268893815577" lon="12.494923928752542">
        <ele>58.83</ele>
        <time>2025-02-05T08:01:05.805Z</time>
      </trkpt>
      <trkpt lat="58.61261794343591" lon="12.494850922375917">
        <ele>58.94</ele>
        <time>2025-02-05T08:01:28.520Z</time>
      </trkpt>
      <trkpt lat="58.612546948716044" lon="12.494777999818325">
        <ele>59.05</ele>
        <time>2025-02-05T08:01:51.236Z</time>
      </trkpt>
      <trkpt lat="58.61247595399618" lon="12.49470197595656">
        <ele>59.16</ele>
        <time>2025-02-05T08:02:13.954Z</time>
      </trkpt>
      <trkpt lat="58.6124059651047" lon="12.494628969579935">
        <ele>59.27</ele>
        <time>2025-02-05T08:02:36.673Z</time>
      </trkpt>
      <trkpt lat="58.6123369820416" lon="12.494558980688453">
        <ele>59.38</ele>
        <time>2025-02-05T08:02:59.393Z</time>
      </trkpt>
      <trkpt lat="58.612269926816225" lon="12.4944909196347">
        <ele>59.48</ele>
        <time>2025-02-05T08:03:22.115Z</time>
      </trkpt>
      <trkpt lat="58.612205972895026" lon="12.49442495405674">
        <ele>59.58</ele>
        <time>2025-02-05T08:03:44.838Z</time>
      </trkpt>
      <trkpt lat="58.612140929326415" lon="12.494363933801651">
        <ele>59.68</ele>
        <time>2025-02-05T08:04:07.562Z</time>
      </trkpt>
      <trkpt lat="58.6120779812336" lon="12.494303919374943">
        <ele>59.77</ele>
        <time>2025-02-05T08:04:30.287Z</time>
      </trkpt>
      <trkpt lat="58.61201696097851" lon="12.494244994595647">
        <ele>59.86</ele>
        <time>2025-02-05T08:04:53.013Z</time>
      </trkpt>
      <trkpt lat="58.61195594072342" lon="12.494182968512177">
        <ele>59.95</ele>
        <time>2025-02-05T08:05:15.740Z</time>
      </trkpt>
      <trkpt lat="58.61189693212509" lon="12.49412295408547">
        <ele>60.04</ele>
        <time>2025-02-05T08:05:38.468Z</time>
      </trkpt>
      <trkpt lat="58.611838929355145" lon="12.494066962972283">
        <ele>60.13</ele>
        <time>2025-02-05T08:06:01.197Z</time>
      </trkpt>
      <trkpt lat="58.61178193241358" lon="12.494015917181969">
        <ele>60.21</ele>
        <time>2025-02-05T08:06:23.927Z</time>
      </trkpt>
      <trkpt lat="58.61172694712877" lon="12.493964955210686">
        <ele>60.3</ele>
        <time>2025-02-05T08:06:46.658Z</time>
      </trkpt>
      <trkpt lat="58.61167598515749" lon="12.4939089640975">
        <ele>60.38</ele>
        <time>2025-02-05T08:07:09.390Z</time>
      </trkpt>
      <trkpt lat="58.611623933538795" lon="12.493858924135566">
        <ele>60.46</ele>
        <time>2025-02-05T08:07:32.123Z</time>
      </trkpt>
      <trkpt lat="58.61156593076885" lon="12.493816930800676">
        <ele>60.53</ele>
        <time>2025-02-05T08:07:54.857Z</time>
      </trkpt>
      <trkpt lat="58.61150591634214" lon="12.493775943294168">
        <ele>60.61</ele>
        <time>2025-02-05T08:08:17.592Z</time>
      </trkpt>
      <trkpt lat="58.611450931057334" lon="12.493728920817375">
        <ele>60.68</ele>
        <time>2025-02-05T08:08:40.328Z</time>
      </trkpt>
      <trkpt lat="58.61139493994415" lon="12.493678964674473">
        <ele>60.75</ele>
        <time>2025-02-05T08:09:03.065Z</time>
      </trkpt>
      <trkpt lat="58.6113369371742" lon="12.493627918884158">
        <ele>60.81</ele>
        <time>2025-02-05T08:09:25.803Z</time>
      </trkpt>
      <trkpt lat="58.611281951889396" lon="12.493572933599353">
        <ele>60.87</ele>
        <time>2025-02-05T08:09:48.542Z</time>
      </trkpt>
      <trkpt lat="58.61122495494783" lon="12.493518954142928">
        <ele>60.93</ele>
        <time>2025-02-05T08:10:11.282Z</time>
      </trkpt>
      <trkpt lat="58.6111659463495" lon="12.493464974686503">
        <ele>60.98</ele>
        <time>2025-02-05T08:10:34.023Z</time>
      </trkpt>
      <trkpt lat="58.611107943579555" lon="12.493403954431415">
        <ele>61.04</ele>
        <time>2025-02-05T08:10:56.765Z</time>
      </trkpt>
      <trkpt lat="58.61105496995151" lon="12.49333094805479">
        <ele>61.08</ele>
        <time>2025-02-05T08:11:19.508Z</time>
      </trkpt>
      <trkpt lat="58.611003924161196" lon="12.493248973041773">
        <ele>61.13</ele>
        <time>2025-02-05T08:11:42.252Z</time>
      </trkpt>
      <trkpt lat="58.610956985503435" lon="12.49315895140171">
        <ele>61.17</ele>
        <time>2025-02-05T08:12:04.997Z</time>
      </trkpt>
      <trkpt lat="58.610912980511785" lon="12.493056943640113">
        <ele>61.21</ele>
        <time>2025-02-05T08:12:27.744Z</time>
      </trkpt>
      <trkpt lat="58.610869981348515" lon="12.492948984727263">
        <ele>61.25</ele>
        <time>2025-02-05T08:12:50.492Z</time>
      </trkpt>
      <trkpt lat="58.610825976356864" lon="12.492841947823763">
        <ele>61.28</ele>
        <time>2025-02-05T08:13:13.241Z</time>
      </trkpt>
      <trkpt lat="58.61077895388007" lon="12.492732983082533">
        <ele>61.31</ele>
        <time>2025-02-05T08:13:35.991Z</time>
      </trkpt>
      <trkpt lat="58.6107309255749" lon="12.492624940350652">
        <ele>61.35</ele>
        <time>2025-02-05T08:13:58.742Z</time>
      </trkpt>
      <trkpt lat="58.61068692058325" lon="12.4925119522959">
        <ele>61.38</ele>
        <time>2025-02-05T08:14:21.494Z</time>
      </trkpt>
      <trkpt lat="58.61064299941063" lon="12.492399970069528">
        <ele>61.41</ele>
        <time>2025-02-05T08:14:44.248Z</time>
      </trkpt>
      <trkpt lat="58.61059899441898" lon="12.492284970358014">
        <ele>61.43</ele>
        <time>2025-02-05T08:15:07.003Z</time>
      </trkpt>
      <trkpt lat="58.61055297777057" lon="12.492170976474881">
        <ele>61.45</ele>
        <time>2025-02-05T08:15:29.759Z</time>
      </trkpt>
      <trkpt lat="58.61050394363701" lon="12.492055976763368">
        <ele>61.47</ele>
        <time>2025-02-05T08:15:52.516Z</time>
      </trkpt>
      <trkpt lat="58.61045197583735" lon="12.491945922374725">
        <ele>61.49</ele>
        <time>2025-02-05T08:16:15.274Z</time>
      </trkpt>
      <trkpt lat="58.61040394753218" lon="12.491837963461876">
        <ele>61.51</ele>
        <time>2025-02-05T08:16:38.034Z</time>
      </trkpt>
      <trkpt lat="58.610352985560894" lon="12.491735955700278">
        <ele>61.52</ele>
        <time>2025-02-05T08:17:00.795Z</time>
      </trkpt>
      <trkpt lat="58.61029892228544" lon="12.491627996787429">
        <ele>61.54</ele>
        <time>2025-02-05T08:17:23.557Z</time>
      </trkpt>
      <trkpt lat="58.61024494282901" lon="12.491519954055548">
        <ele>61.55</ele>
        <time>2025-02-05T08:17:46.320Z</time>
      </trkpt>
      <trkpt lat="58.61018995754421" lon="12.491410989314318">
        <ele>61.56</ele>
        <time>2025-02-05T08:18:09.085Z</time>
      </trkpt>
      <trkpt lat="58.610137989744544" lon="12.491296995431185">
        <ele>61.56</ele>
        <time>2025-02-05T08:18:31.851Z</time>
      </trkpt>
      <trkpt lat="58.61008292064071" lon="12.491192976012826">
        <ele>61.57</ele>
        <time>2025-02-05T08:18:54.618Z</time>
      </trkpt>
      <trkpt lat="58.61002692952752" lon="12.491090968251228">
        <ele>61.57</ele>
        <time>2025-02-05T08:19:17.386Z</time>
      </trkpt>
      <trkpt lat="58.609969932585955" lon="12.490985943004489">
        <ele>61.57</ele>
        <time>2025-02-05T08:19:40.156Z</time>
      </trkpt>
      <trkpt lat="58.60991394147277" lon="12.49087898992002">
        <ele>61.56</ele>
        <time>2025-02-05T08:20:02.927Z</time>
      </trkpt>
      <trkpt lat="58.609859962016344" lon="12.49077396467328">
        <ele>61.55</ele>
        <time>2025-02-05T08:20:25.699Z</time>
      </trkpt>
      <trkpt lat="58.60980598255992" lon="12.49066793359816">
        <ele>61.55</ele>
        <time>2025-02-05T08:20:48.472Z</time>
      </trkpt>
      <trkpt lat="58.60975191928446" lon="12.490561986342072">
        <ele>61.54</ele>
        <time>2025-02-05T08:21:11.247Z</time>
      </trkpt>
      <trkpt lat="58.6096999514848" lon="12.490456961095333">
        <ele>61.53</ele>
        <time>2025-02-05T08:21:34.023Z</time>
      </trkpt>
      <trkpt lat="58.609648989513516" lon="12.490351935848594">
        <ele>61.51</ele>
        <time>2025-02-05T08:21:56.800Z</time>
      </trkpt>
      <trkpt lat="58.6095979437232" lon="12.490249928086996">
        <ele>61.5</ele>
        <time>2025-02-05T08:22:19.578Z</time>
      </trkpt>
      <trkpt lat="58.60954497009516" lon="12.49015093781054">
        <ele>61.48</ele>
        <time>2025-02-05T08:22:42.357Z</time>
      </trkpt>
      <trkpt lat="58.60949291847646" lon="12.490044990554452">
        <ele>61.46</ele>
        <time>2025-02-05T08:23:05.138Z</time>
      </trkpt>
      <trkpt lat="58.60944296233356" lon="12.48993493616581">
        <ele>61.44</ele>
        <time>2025-02-05T08:23:27.920Z</time>
      </trkpt>
      <trkpt lat="58.609392922371626" lon="12.489820942282677">
        <ele>61.41</ele>
        <time>2025-02-05T08:23:50.703Z</time>
      </trkpt>
      <trkpt lat="58.609344977885485" lon="12.489699991419911">
        <ele>61.38</ele>
        <time>2025-02-05T08:24:13.487Z</time>
      </trkpt>
      <trkpt lat="58.60929795540869" lon="12.489579962566495">
        <ele>61.36</ele>
        <time>2025-02-05T08:24:36.273Z</time>
      </trkpt>
      <trkpt lat="58.60924892127514" lon="12.489456916227937">
        <ele>61.33</ele>
        <time>2025-02-05T08:24:59.060Z</time>
      </trkpt>
      <trkpt lat="58.609200976789" lon="12.48933294788003">
        <ele>61.3</ele>
        <time>2025-02-05T08:25:21.848Z</time>
      </trkpt>
      <trkpt lat="58.609152948483825" lon="12.489207973703742">
        <ele>61.27</ele>
        <time>2025-02-05T08:25:44.637Z</time>
      </trkpt>
      <trkpt lat="58.60910693183541" lon="12.489080987870693">
        <ele>61.24</ele>
        <time>2025-02-05T08:26:07.428Z</time>
      </trkpt>
      <trkpt lat="58.60906393267214" lon="12.488950984552503">
        <ele>61.21</ele>
        <time>2025-02-05T08:26:30.220Z</time>
      </trkpt>
      <trkpt lat="58.60902093350887" lon="12.48881595209241">
        <ele>61.17</ele>
        <time>2025-02-05T08:26:53.013Z</time>
      </trkpt>
      <trkpt lat="58.60897592268884" lon="12.488684942945838">
        <ele>61.13</ele>
        <time>2025-02-05T08:27:15.808Z</time>
      </trkpt>
      <trkpt lat="58.60893099568784" lon="12.488561980426311">
        <ele>61.08</ele>
        <time>2025-02-05T08:27:38.604Z</time>
      </trkpt>
      <trkpt lat="58.60888497903943" lon="12.488442957401276">
        <ele>61.02</ele>
        <time>2025-02-05T08:28:01.401Z</time>
      </trkpt>
      <trkpt lat="58.60884197987616" lon="12.48832393437624">
        <ele>60.96</ele>
        <time>2025-02-05T08:28:24.199Z</time>
      </trkpt>
      <trkpt lat="58.60879898071289" lon="12.488207928836346">
        <ele>60.89</ele>
        <time>2025-02-05T08:28:46.999Z</time>
      </trkpt>
      <trkpt lat="58.608756987378" lon="12.488094940781593">
        <ele>60.82</ele>
        <time>2025-02-05T08:29:09.800Z</time>
      </trkpt>
      <trkpt lat="58.60871499404311" lon="12.487984970211983">
        <ele>60.75</ele>
        <time>2025-02-05T08:29:32.602Z</time>
      </trkpt>
      <trkpt lat="58.60867199487984" lon="12.487880950793624">
        <ele>60.67</ele>
        <time>2025-02-05T08:29:55.405Z</time>
      </trkpt>
      <trkpt lat="58.60862991772592" lon="12.487777937203646">
        <ele>60.6</ele>
        <time>2025-02-05T08:30:18.209Z</time>
      </trkpt>
      <trkpt lat="58.60858297906816" lon="12.487680958583951">
        <ele>60.52</ele>
        <time>2025-02-05T08:30:41.014Z</time>
      </trkpt>
      <trkpt lat="58.608527993783355" lon="12.487590936943889">
        <ele>60.44</ele>
        <time>2025-02-05T08:31:03.820Z</time>
      </trkpt>
      <trkpt lat="58.608465967699885" lon="12.487502926960588">
        <ele>60.35</ele>
        <time>2025-02-05T08:31:26.628Z</time>
      </trkpt>
      <trkpt lat="58.608398996293545" lon="12.48742195777595">
        <ele>60.27</ele>
        <time>2025-02-05T08:31:49.437Z</time>
      </trkpt>
      <trkpt lat="58.60833194106817" lon="12.487344928085804">
        <ele>60.18</ele>
        <time>2025-02-05T08:32:12.247Z</time>
      </trkpt>
      <trkpt lat="58.60826496966183" lon="12.48726999387145">
        <ele>60.09</ele>
        <time>2025-02-05T08:32:35.058Z</time>
      </trkpt>
      <trkpt lat="58.60819992609322" lon="12.487193970009685">
        <ele>60.0</ele>
        <time>2025-02-05T08:32:57.871Z</time>
      </trkpt>
      <trkpt lat="58.60813496634364" lon="12.487116940319538">
        <ele>59.9</ele>
        <time>2025-02-05T08:33:20.685Z</time>
      </trkpt>
      <trkpt lat="58.60806891694665" lon="12.487040916457772">
        <ele>59.81</ele>
        <time>2025-02-05T08:33:43.500Z</time>
      </trkpt>
      <trkpt lat="58.60799993388355" lon="12.486963970586658">
        <ele>59.71</ele>
        <time>2025-02-05T08:34:06.316Z</time>
      </trkpt>
      <trkpt lat="58.607927933335304" lon="12.48688392341137">
        <ele>59.62</ele>
        <time>2025-02-05T08:34:29.134Z</time>
      </trkpt>
      <trkpt lat="58.60785199329257" lon="12.48679993674159">
        <ele>59.51</ele>
        <time>2025-02-05T08:34:51.953Z</time>
      </trkpt>
      <trkpt lat="58.60777194611728" lon="12.48671293258667">
        <ele>59.41</ele>
        <time>2025-02-05T08:35:14.774Z</time>
      </trkpt>
      <trkpt lat="58.607689971104264" lon="12.486618971452117">
        <ele>59.3</ele>
        <time>2025-02-05T08:35:37.596Z</time>
      </trkpt>
      <trkpt lat="58.607604978606105" lon="12.486524926498532">
        <ele>59.2</ele>
        <time>2025-02-05T08:36:00.420Z</time>
      </trkpt>
      <trkpt lat="58.607519986107945" lon="12.486429959535599">
        <ele>59.09</ele>
        <time>2025-02-05T08:36:23.245Z</time>
      </trkpt>
      <trkpt lat="58.607436921447515" lon="12.486333986744285">
        <ele>58.97</ele>
        <time>2025-02-05T08:36:46.072Z</time>
      </trkpt>
      <trkpt lat="58.60735595226288" lon="12.486237930133939">
        <ele>58.86</ele>
        <time>2025-02-05T08:37:08.900Z</time>
      </trkpt>
      <trkpt lat="58.60728093422949" lon="12.486140951514244">
        <ele>58.74</ele>
        <time>2025-02-05T08:37:31.730Z</time>
      </trkpt>
      <trkpt lat="58.60720591619611" lon="12.48604891821742">
        <ele>58.62</ele>
        <time>2025-02-05T08:37:54.561Z</time>
      </trkpt>
      <trkpt lat="58.607129976153374" lon="12.485953951254487">
        <ele>58.5</ele>
        <time>2025-02-05T08:38:17.394Z</time>
      </trkpt>
      <trkpt lat="58.60705696977675" lon="12.48585194349289">
        <ele>58.38</ele>
        <time>2025-02-05T08:38:40.228Z</time>
      </trkpt>
      <trkpt lat="58.606983963400126" lon="12.48574691824615">
        <ele>58.26</ele>
        <time>2025-02-05T08:39:03.064Z</time>
      </trkpt>
      <trkpt lat="58.60691296868026" lon="12.485639965161681">
        <ele>58.14</ele>
        <time>2025-02-05T08:39:25.901Z</time>
      </trkpt>
      <trkpt lat="58.60683996230364" lon="12.485533934086561">
        <ele>58.02</ele>
        <time>2025-02-05T08:39:48.740Z</time>
      </trkpt>
      <trkpt lat="58.606765950098634" lon="12.485428992658854">
        <ele>57.9</ele>
        <time>2025-02-05T08:40:11.580Z</time>
      </trkpt>
      <trkpt lat="58.60669093206525" lon="12.485326984897256">
        <ele>57.77</ele>
        <time>2025-02-05T08:40:34.421Z</time>
      </trkpt>
      <trkpt lat="58.606614992022514" lon="12.4852279946208">
        <ele>57.65</ele>
        <time>2025-02-05T08:40:57.264Z</time>
      </trkpt>
      <trkpt lat="58.60654198564589" lon="12.485131938010454">
        <ele>57.52</ele>
        <time>2025-02-05T08:41:20.108Z</time>
      </trkpt>
      <trkpt lat="58.606468979269266" lon="12.48503596521914">
        <ele>57.39</ele>
        <time>2025-02-05T08:41:42.954Z</time>
      </trkpt>
      <trkpt lat="58.60638993792236" lon="12.484941920265555">
        <ele>57.26</ele>
        <time>2025-02-05T08:42:05.801Z</time>
      </trkpt>
      <trkpt lat="58.60631198622286" lon="12.484840918332338">
        <ele>57.12</ele>
        <time>2025-02-05T08:42:28.650Z</time>
      </trkpt>
      <trkpt lat="58.606232944875956" lon="12.484740922227502">
        <ele>56.99</ele>
        <time>2025-02-05T08:42:51.500Z</time>
      </trkpt>
      <trkpt lat="58.60615499317646" lon="12.484634974971414">
        <ele>56.86</ele>
        <time>2025-02-05T08:43:14.352Z</time>
      </trkpt>
      <trkpt lat="58.606078969314694" lon="12.484522992745042">
        <ele>56.73</ele>
        <time>2025-02-05T08:43:37.205Z</time>
      </trkpt>
      <trkpt lat="58.60600495710969" lon="12.484411932528019">
        <ele>56.6</ele>
        <time>2025-02-05T08:44:00.060Z</time>
      </trkpt>
      <trkpt lat="58.605931950733066" lon="12.484300956130028">
        <ele>56.47</ele>
        <time>2025-02-05T08:44:22.916Z</time>
      </trkpt>
      <trkpt lat="58.6058609560132" lon="12.484186962246895">
        <ele>56.35</ele>
        <time>2025-02-05T08:44:45.774Z</time>
      </trkpt>
      <trkpt lat="58.60579096712172" lon="12.484072968363762">
        <ele>56.22</ele>
        <time>2025-02-05T08:45:08.633Z</time>
      </trkpt>
      <trkpt lat="58.60571997240186" lon="12.483957968652248">
        <ele>56.1</ele>
        <time>2025-02-05T08:45:31.494Z</time>
      </trkpt>
      <trkpt lat="58.605649983510375" lon="12.483839951455593">
        <ele>55.97</ele>
        <time>2025-02-05T08:45:54.356Z</time>
      </trkpt>
      <trkpt lat="58.60557898879051" lon="12.483722940087318">
        <ele>55.85</ele>
        <time>2025-02-05T08:46:17.220Z</time>
      </trkpt>
      <trkpt lat="58.60551092773676" lon="12.483603917062283">
        <ele>55.72</ele>
        <time>2025-02-05T08:46:40.085Z</time>
      </trkpt>
      <trkpt lat="58.60544295050204" lon="12.483484977856278">
        <ele>55.6</ele>
        <time>2025-02-05T08:47:02.952Z</time>
      </trkpt>
      <trkpt lat="58.6053759790957" lon="12.483364949002862">
        <ele>55.48</ele>
        <time>2025-02-05T08:47:25.820Z</time>
      </trkpt>
      <trkpt lat="58.605308923870325" lon="12.483245925977826">
        <ele>55.36</ele>
        <time>2025-02-05T08:47:48.690Z</time>
      </trkpt>
      <trkpt lat="58.605243964120746" lon="12.483128998428583">
        <ele>55.25</ele>
        <time>2025-02-05T08:48:11.561Z</time>
      </trkpt>
      <trkpt lat="58.605177998542786" lon="12.483015926554799">
        <ele>55.13</ele>
        <time>2025-02-05T08:48:34.434Z</time>
      </trkpt>
      <trkpt lat="58.60511094331741" lon="12.482905955985188">
        <ele>55.02</ele>
        <time>2025-02-05T08:48:57.308Z</time>
      </trkpt>
      <trkpt lat="58.60504397191107" lon="12.482799924910069">
        <ele>54.91</ele>
        <time>2025-02-05T08:49:20.183Z</time>
      </trkpt>
      <trkpt lat="58.60497498884797" lon="12.48269498348236">
        <ele>54.8</ele>
        <time>2025-02-05T08:49:43.060Z</time>
      </trkpt>
      <trkpt lat="58.60490499995649" lon="12.482589958235621">
        <ele>54.69</ele>
        <time>2025-02-05T08:50:05.938Z</time>
      </trkpt>
      <trkpt lat="58.604835933074355" lon="12.482486944645643">
        <ele>54.58</ele>
        <time>2025-02-05T08:50:28.818Z</time>
      </trkpt>
      <trkpt lat="58.60476493835449" lon="12.482383931055665">
        <ele>54.48</ele>
        <time>2025-02-05T08:50:51.699Z</time>
      </trkpt>
      <trkpt lat="58.60469092614949" lon="12.482281923294067">
        <ele>54.37</ele>
        <time>2025-02-05T08:51:14.581Z</time>
      </trkpt>
      <trkpt lat="58.604616997763515" lon="12.482185950502753">
        <ele>54.26</ele>
        <time>2025-02-05T08:51:37.465Z</time>
      </trkpt>
      <trkpt lat="58.60454298555851" lon="12.48209391720593">
        <ele>54.16</ele>
        <time>2025-02-05T08:52:00.350Z</time>
      </trkpt>
      <trkpt lat="58.604467967525125" lon="12.482001967728138">
        <ele>54.05</ele>
        <time>2025-02-05T08:52:23.237Z</time>
      </trkpt>
      <trkpt lat="58.6043899320066" lon="12.481914963573217">
        <ele>53.96</ele>
        <time>2025-02-05T08:52:46.125Z</time>
      </trkpt>
      <trkpt lat="58.6043119803071" lon="12.481827959418297">
        <ele>53.86</ele>
        <time>2025-02-05T08:53:09.015Z</time>
      </trkpt>
      <trkpt lat="58.604232938960195" lon="12.481741961091757">
        <ele>53.77</ele>
        <time>2025-02-05T08:53:31.906Z</time>
      </trkpt>
      <trkpt lat="58.60415297560394" lon="12.481656968593597">
        <ele>53.68</ele>
        <time>2025-02-05T08:53:54.799Z</time>
      </trkpt>
      <trkpt lat="58.60407192260027" lon="12.48157792724669">
        <ele>53.59</ele>
        <time>2025-02-05T08:54:17.693Z</time>
      </trkpt>
      <trkpt lat="58.60398994758725" lon="12.481504920870066">
        <ele>53.5</ele>
        <time>2025-02-05T08:54:40.588Z</time>
      </trkpt>
      <trkpt lat="58.603909984230995" lon="12.481428980827332">
        <ele>53.41</ele>
        <time>2025-02-05T08:55:03.485Z</time>
      </trkpt>
      <trkpt lat="58.60382993705571" lon="12.481350945308805">
        <ele>53.33</ele>
        <time>2025-02-05T08:55:26.383Z</time>
      </trkpt>
      <trkpt lat="58.60374896787107" lon="12.481271987780929">
        <ele>53.25</ele>
        <time>2025-02-05T08:55:49.283Z</time>
      </trkpt>
      <trkpt lat="58.60366892069578" lon="12.481194958090782">
        <ele>53.18</ele>
        <time>2025-02-05T08:56:12.184Z</time>
      </trkpt>
      <trkpt lat="58.603587951511145" lon="12.481117928400636">
        <ele>53.1</ele>
        <time>2025-02-05T08:56:35.087Z</time>
      </trkpt>
      <trkpt lat="58.60350597649813" lon="12.481042994186282">
        <ele>53.03</ele>
        <time>2025-02-05T08:56:57.991Z</time>
      </trkpt>
      <trkpt lat="58.60342492349446" lon="12.480966970324516">
        <ele>52.96</ele>
        <time>2025-02-05T08:57:20.897Z</time>
      </trkpt>
      <trkpt lat="58.6033449601382" lon="12.48089094646275">
        <ele>52.89</ele>
        <time>2025-02-05T08:57:43.804Z</time>
      </trkpt>
      <trkpt lat="58.603265918791294" lon="12.480813916772604">
        <ele>52.82</ele>
        <time>2025-02-05T08:58:06.712Z</time>
      </trkpt>
      <trkpt lat="58.60318696126342" lon="12.48073697090149">
        <ele>52.76</ele>
        <time>2025-02-05T08:58:29.622Z</time>
      </trkpt>
      <trkpt lat="58.60310699790716" lon="12.480659941211343">
        <ele>52.7</ele>
        <time>2025-02-05T08:58:52.533Z</time>
      </trkpt>
      <trkpt lat="58.603027956560254" lon="12.480580983683467">
        <ele>52.65</ele>
        <time>2025-02-05T08:59:15.446Z</time>
      </trkpt>
      <trkpt lat="58.602947993204" lon="12.48050194233656">
        <ele>52.6</ele>
        <time>2025-02-05T08:59:38.360Z</time>
      </trkpt>
      <trkpt lat="58.60286794602871" lon="12.480424996465445">
        <ele>52.55</ele>
        <time>2025-02-05T09:00:01.276Z</time>
      </trkpt>
      <trkpt lat="58.60278697684407" lon="12.480347966775298">
        <ele>52.51</ele>
        <time>2025-02-05T09:00:24.193Z</time>
      </trkpt>
      <trkpt lat="58.602705923840404" lon="12.480269931256771">
        <ele>52.47</ele>
        <time>2025-02-05T09:00:47.112Z</time>
      </trkpt>
      <trkpt lat="58.60262596048415" lon="12.480190973728895">
        <ele>52.44</ele>
        <time>2025-02-05T09:01:10.032Z</time>
      </trkpt>
      <trkpt lat="58.60254599712789" lon="12.480113944038749">
        <ele>52.41</ele>
        <time>2025-02-05T09:01:32.953Z</time>
      </trkpt>
      <trkpt lat="58.60246695578098" lon="12.480035992339253">
        <ele>52.38</ele>
        <time>2025-02-05T09:01:55.876Z</time>
      </trkpt>
      <trkpt lat="58.60238799825311" lon="12.479958962649107">
        <ele>52.36</ele>
        <time>2025-02-05T09:02:18.800Z</time>
      </trkpt>
      <trkpt lat="58.60230795107782" lon="12.479882938787341">
        <ele>52.34</ele>
        <time>2025-02-05T09:02:41.726Z</time>
      </trkpt>
      <trkpt lat="58.60222798772156" lon="12.479807920753956">
        <ele>52.32</ele>
        <time>2025-02-05T09:03:04.653Z</time>
      </trkpt>
      <trkpt lat="58.602148946374655" lon="12.479731980711222">
        <ele>52.3</ele>
        <time>2025-02-05T09:03:27.582Z</time>
      </trkpt>
      <trkpt lat="58.60206998884678" lon="12.479659980162978">
        <ele>52.28</ele>
        <time>2025-02-05T09:03:50.512Z</time>
      </trkpt>
      <trkpt lat="58.60199094749987" lon="12.479593930765986">
        <ele>52.27</ele>
        <time>2025-02-05T09:04:13.443Z</time>
      </trkpt>
      <trkpt lat="58.601909978315234" lon="12.47953299432993">
        <ele>52.26</ele>
        <time>2025-02-05T09:04:36.376Z</time>
      </trkpt>
      <trkpt lat="58.601828925311565" lon="12.479473985731602">
        <ele>52.24</ele>
        <time>2025-02-05T09:04:59.310Z</time>
      </trkpt>
      <trkpt lat="58.60174896195531" lon="12.479416988790035">
        <ele>52.24</ele>
        <time>2025-02-05T09:05:22.245Z</time>
      </trkpt>
      <trkpt lat="58.60166799277067" lon="12.479361919686198">
        <ele>52.23</ele>
        <time>2025-02-05T09:05:45.182Z</time>
      </trkpt>
      <trkpt lat="58.601588951423764" lon="12.479308946058154">
        <ele>52.23</ele>
        <time>2025-02-05T09:06:08.120Z</time>
      </trkpt>
      <trkpt lat="58.60150898806751" lon="12.479257984086871">
        <ele>52.23</ele>
        <time>2025-02-05T09:06:31.060Z</time>
      </trkpt>
      <trkpt lat="58.6014299467206" lon="12.479210961610079">
        <ele>52.24</ele>
        <time>2025-02-05T09:06:54.001Z</time>
      </trkpt>
      <trkpt lat="58.601349983364344" lon="12.479165950790048">
        <ele>52.25</ele>
        <time>2025-02-05T09:07:16.943Z</time>
      </trkpt>
      <trkpt lat="58.601270942017436" lon="12.479121945798397">
        <ele>52.27</ele>
        <time>2025-02-05T09:07:39.887Z</time>
      </trkpt>
      <trkpt lat="58.60119198448956" lon="12.479078946635127">
        <ele>52.29</ele>
        <time>2025-02-05T09:08:02.832Z</time>
      </trkpt>
      <trkpt lat="58.60111294314265" lon="12.479035947471857">
        <ele>52.31</ele>
        <time>2025-02-05T09:08:25.778Z</time>
      </trkpt>
      <trkpt lat="58.60103599727154" lon="12.478993954136968">
        <ele>52.33</ele>
        <time>2025-02-05T09:08:48.725Z</time>
      </trkpt>
      <trkpt lat="58.60095896758139" lon="12.478950954973698">
        <ele>52.36</ele>
        <time>2025-02-05T09:09:11.674Z</time>
      </trkpt>
      <trkpt lat="58.600882943719625" lon="12.47891197912395">
        <ele>52.39</ele>
        <time>2025-02-05T09:09:34.624Z</time>
      </trkpt>
      <trkpt lat="58.60080893151462" lon="12.47887291945517">
        <ele>52.42</ele>
        <time>2025-02-05T09:09:57.575Z</time>
      </trkpt>
      <trkpt lat="58.600734919309616" lon="12.478834949433804">
        <ele>52.46</ele>
        <time>2025-02-05T09:10:20.527Z</time>
      </trkpt>
      <trkpt lat="58.600661996752024" lon="12.478795973584056">
        <ele>52.5</ele>
        <time>2025-02-05T09:10:43.481Z</time>
      </trkpt>
      <trkpt lat="58.60059091821313" lon="12.478756997734308">
        <ele>52.54</ele>
        <time>2025-02-05T09:11:06.436Z</time>
      </trkpt>
      <trkpt lat="58.600519923493266" lon="12.47871894389391">
        <ele>52.58</ele>
        <time>2025-02-05T09:11:29.392Z</time>
      </trkpt>
      <trkpt lat="58.600449934601784" lon="12.478682985529304">
        <ele>52.63</ele>
        <time>2025-02-05T09:11:52.349Z</time>
      </trkpt>
      <trkpt lat="58.60037893988192" lon="12.478646943345666">
        <ele>52.68</ele>
        <time>2025-02-05T09:12:15.307Z</time>
      </trkpt>
      <trkpt lat="58.60030895099044" lon="12.478608973324299">
        <ele>52.73</ele>
        <time>2025-02-05T09:12:38.267Z</time>
      </trkpt>
      <trkpt lat="58.600236950442195" lon="12.478572931140661">
        <ele>52.78</ele>
        <time>2025-02-05T09:13:01.228Z</time>
      </trkpt>
      <trkpt lat="58.60016394406557" lon="12.478537978604436">
        <ele>52.84</ele>
        <time>2025-02-05T09:13:24.190Z</time>
      </trkpt>
      <trkpt lat="58.600089931860566" lon="12.47850495390594">
        <ele>52.9</ele>
        <time>2025-02-05T09:13:47.153Z</time>
      </trkpt>
      <trkpt lat="58.60001499764621" lon="12.478472935035825">
        <ele>52.96</ele>
        <time>2025-02-05T09:14:10.117Z</time>
      </trkpt>
      <trkpt lat="58.59993897378445" lon="12.478446951135993">
        <ele>53.02</ele>
        <time>2025-02-05T09:14:33.083Z</time>
      </trkpt>
      <trkpt lat="58.59986395575106" lon="12.478424990549684">
        <ele>53.08</ele>
        <time>2025-02-05T09:14:56.050Z</time>
      </trkpt>
      <trkpt lat="58.599787931889296" lon="12.478406969457865">
        <ele>53.15</ele>
        <time>2025-02-05T09:15:19.018Z</time>
      </trkpt>
      <trkpt lat="58.59971299767494" lon="12.478390960022807">
        <ele>53.22</ele>
        <time>2025-02-05T09:15:41.987Z</time>
      </trkpt>
      <trkpt lat="58.59963999129832" lon="12.478372938930988">
        <ele>53.29</ele>
        <time>2025-02-05T09:16:04.957Z</time>
      </trkpt>
      <trkpt lat="58.599571930244565" lon="12.478344943374395">
        <ele>53.36</ele>
        <time>2025-02-05T09:16:27.929Z</time>
      </trkpt>
      <trkpt lat="58.599506970494986" lon="12.478304961696267">
        <ele>53.43</ele>
        <time>2025-02-05T09:16:50.902Z</time>
      </trkpt>
      <trkpt lat="58.59944695606828" lon="12.478255927562714">
        <ele>53.51</ele>
        <time>2025-02-05T09:17:13.876Z</time>
      </trkpt>
      <trkpt lat="58.59939197078347" lon="12.478194991126657">
        <ele>53.58</ele>
        <time>2025-02-05T09:17:36.851Z</time>
      </trkpt>
      <trkpt lat="58.59933991916478" lon="12.478125924244523">
        <ele>53.65</ele>
        <time>2025-02-05T09:17:59.827Z</time>
      </trkpt>
      <trkpt lat="58.599289963021874" lon="12.478048978373408">
        <ele>53.73</ele>
        <time>2025-02-05T09:18:22.804Z</time>
      </trkpt>
      <trkpt lat="58.5992419347167" lon="12.47796499170363">
        <ele>53.81</ele>
        <time>2025-02-05T09:18:45.782Z</time>
      </trkpt>
      <trkpt lat="58.59919499605894" lon="12.477874970063567">
        <ele>53.88</ele>
        <time>2025-02-05T09:19:08.761Z</time>
      </trkpt>
      <trkpt lat="58.59914696775377" lon="12.477780925109982">
        <ele>53.96</ele>
        <time>2025-02-05T09:19:31.741Z</time>
      </trkpt>
      <trkpt lat="58.599097933620214" lon="12.477682940661907">
        <ele>54.03</ele>
        <time>2025-02-05T09:19:54.722Z</time>
      </trkpt>
      <trkpt lat="58.59904697164893" lon="12.47758193872869">
        <ele>54.11</ele>
        <time>2025-02-05T09:20:17.704Z</time>
      </trkpt>
      <trkpt lat="58.59899592585862" lon="12.477477919310331">
        <ele>54.19</ele>
        <time>2025-02-05T09:20:40.688Z</time>
      </trkpt>
      <trkpt lat="58.59894395805895" lon="12.477369960397482">
        <ele>54.27</ele>
        <time>2025-02-05T09:21:03.673Z</time>
      </trkpt>
      <trkpt lat="58.59889098443091" lon="12.47725797817111">
        <ele>54.35</ele>
        <time>2025-02-05T09:21:26.659Z</time>
      </trkpt>
      <trkpt lat="58.59883499331772" lon="12.477144990116358">
        <ele>54.43</ele>
        <time>2025-02-05T09:21:49.646Z</time>
      </trkpt>
      <trkpt lat="58.598778918385506" lon="12.477028984576464">
        <ele>54.52</ele>
        <time>2025-02-05T09:22:12.635Z</time>
      </trkpt>
      <trkpt lat="58.59872099943459" lon="12.476910967379808">
        <ele>54.6</ele>
        <time>2025-02-05T09:22:35.625Z</time>
      </trkpt>
      <trkpt lat="58.59866098500788" lon="12.476792950183153">
        <ele>54.69</ele>
        <time>2025-02-05T09:22:58.616Z</time>
      </trkpt>
      <trkpt lat="58.59859996475279" lon="12.476673927158117">
        <ele>54.78</ele>
        <time>2025-02-05T09:23:21.609Z</time>
      </trkpt>
      <trkpt lat="58.59853693284094" lon="12.476558927446604">
        <ele>54.87</ele>
        <time>2025-02-05T09:23:44.603Z</time>
      </trkpt>
      <trkpt lat="58.59847096726298" lon="12.476447951048613">
        <ele>54.96</ele>
        <time>2025-02-05T09:24:07.599Z</time>
      </trkpt>
      <trkpt lat="58.59840399585664" lon="12.476343931630254">
        <ele>55.04</ele>
        <time>2025-02-05T09:24:30.596Z</time>
      </trkpt>
      <trkpt lat="58.59833291731775" lon="12.476243935525417">
        <ele>55.13</ele>
        <time>2025-02-05T09:24:53.594Z</time>
      </trkpt>
      <trkpt lat="58.598259994760156" lon="12.476151986047626">
        <ele>55.22</ele>
        <time>2025-02-05T09:25:16.594Z</time>
      </trkpt>
      <trkpt lat="58.59818497672677" lon="12.476070933043957">
        <ele>55.31</ele>
        <time>2025-02-05T09:25:39.595Z</time>
      </trkpt>
      <trkpt lat="58.598109958693385" lon="12.475997926667333">
        <ele>55.41</ele>
        <time>2025-02-05T09:26:02.598Z</time>
      </trkpt>
      <trkpt lat="58.59803393483162" lon="12.475934978574514">
        <ele>55.5</ele>
        <time>2025-02-05T09:26:25.602Z</time>
      </trkpt>
      <trkpt lat="58.597957994788885" lon="12.475881921127439">
        <ele>55.6</ele>
        <time>2025-02-05T09:26:48.607Z</time>
      </trkpt>
      <trkpt lat="58.59788096509874" lon="12.475834982469678">
        <ele>55.69</ele>
        <time>2025-02-05T09:27:11.613Z</time>
      </trkpt>
      <trkpt lat="58.59780494123697" lon="12.475790977478027">
        <ele>55.78</ele>
        <time>2025-02-05T09:27:34.621Z</time>
      </trkpt>
      <trkpt lat="58.59772799536586" lon="12.47575392946601">
        <ele>55.88</ele>
        <time>2025-02-05T09:27:57.630Z</time>
      </trkpt>
      <trkpt lat="58.59765096567571" lon="12.475720988586545">
        <ele>55.97</ele>
        <time>2025-02-05T09:28:20.640Z</time>
      </trkpt>
      <trkpt lat="58.59757695347071" lon="12.47568896971643">
        <ele>56.06</ele>
        <time>2025-02-05T09:28:43.651Z</time>
      </trkpt>
      <trkpt lat="58.5975029412657" lon="12.475659968331456">
        <ele>56.15</ele>
        <time>2025-02-05T09:29:06.664Z</time>
      </trkpt>
      <trkpt lat="58.59742993488908" lon="12.475635996088386">
        <ele>56.25</ele>
        <time>2025-02-05T09:29:29.678Z</time>
      </trkpt>
      <trkpt lat="58.597358940169215" lon="12.475607916712761">
        <ele>56.34</ele>
        <time>2025-02-05T09:29:52.693Z</time>
      </trkpt>
      <trkpt lat="58.597290962934494" lon="12.475576987490058">
        <ele>56.43</ele>
        <time>2025-02-05T09:30:15.709Z</time>
      </trkpt>
      <trkpt lat="58.597224997356534" lon="12.475537927821279">
        <ele>56.51</ele>
        <time>2025-02-05T09:30:38.726Z</time>
      </trkpt>
      <trkpt lat="58.597164982929826" lon="12.475490989163518">
        <ele>56.59</ele>
        <time>2025-02-05T09:31:01.744Z</time>
      </trkpt>
      <trkpt lat="58.59710999764502" lon="12.475435920059681">
        <ele>56.68</ele>
        <time>2025-02-05T09:31:24.763Z</time>
      </trkpt>
      <trkpt lat="58.597058951854706" lon="12.475371966138482">
        <ele>56.76</ele>
        <time>2025-02-05T09:31:47.783Z</time>
      </trkpt>
      <trkpt lat="58.59700991772115" lon="12.47530591674149">
        <ele>56.84</ele>
        <time>2025-02-05T09:32:10.804Z</time>
      </trkpt>
      <trkpt lat="58.59695694409311" lon="12.475240956991911">
        <ele>56.92</ele>
        <time>2025-02-05T09:32:33.826Z</time>
      </trkpt>
      <trkpt lat="58.596904976293445" lon="12.475169962272048">
        <ele>57.0</ele>
        <time>2025-02-05T09:32:56.849Z</time>
      </trkpt>
      <trkpt lat="58.59685191884637" lon="12.475097961723804">
        <ele>57.08</ele>
        <time>2025-02-05T09:33:19.873Z</time>
      </trkpt>
      <trkpt lat="58.59679592773318" lon="12.475025961175561">
        <ele>57.15</ele>
        <time>2025-02-05T09:33:42.898Z</time>
      </trkpt>
      <trkpt lat="58.596737924963236" lon="12.474947925657034">
        <ele>57.23</ele>
        <time>2025-02-05T09:34:05.925Z</time>
      </trkpt>
      <trkpt lat="58.5966759826988" lon="12.474866956472397">
        <ele>57.3</ele>
        <time>2025-02-05T09:34:28.953Z</time>
      </trkpt>
      <trkpt lat="58.59661295078695" lon="12.474782969802618">
        <ele>57.38</ele>
        <time>2025-02-05T09:34:51.982Z</time>
      </trkpt>
      <trkpt lat="58.59654799103737" lon="12.474697977304459">
        <ele>57.45</ele>
        <time>2025-02-05T09:35:15.012Z</time>
      </trkpt>
      <trkpt lat="58.59648294746876" lon="12.474610973149538">
        <ele>57.52</ele>
        <time>2025-02-05T09:35:38.043Z</time>
      </trkpt>
      <trkpt lat="58.59641798771918" lon="12.474522963166237">
        <ele>57.59</ele>
        <time>2025-02-05T09:36:01.076Z</time>
      </trkpt>
      <trkpt lat="58.596349926665425" lon="12.474435959011316">
        <ele>57.65</ele>
        <time>2025-02-05T09:36:24.110Z</time>
      </trkpt>
      <trkpt lat="58.59628094360232" lon="12.474351972341537">
        <ele>57.72</ele>
        <time>2025-02-05T09:36:47.145Z</time>
      </trkpt>
      <trkpt lat="58.59620994888246" lon="12.474270919337869">
        <ele>57.78</ele>
        <time>2025-02-05T09:37:10.182Z</time>
      </trkpt>
      <trkpt lat="58.59613694250584" lon="12.474190955981612">
        <ele>57.84</ele>
        <time>2025-02-05T09:37:33.220Z</time>
      </trkpt>
      <trkpt lat="58.59606293030083" lon="12.474114932119846">
        <ele>57.9</ele>
        <time>2025-02-05T09:37:56.259Z</time>
      </trkpt>
      <trkpt lat="58.59598992392421" lon="12.474038992077112">
        <ele>57.95</ele>
        <time>2025-02-05T09:38:19.300Z</time>
      </trkpt>
      <trkpt lat="58.595917923375964" lon="12.47396799735725">
        <ele>58.01</ele>
        <time>2025-02-05T09:38:42.342Z</time>
      </trkpt>
      <trkpt lat="58.59584592282772" lon="12.473898930475116">
        <ele>58.06</ele>
        <time>2025-02-05T09:39:05.385Z</time>
      </trkpt>
      <trkpt lat="58.59577492810786" lon="12.473828941583633">
        <ele>58.11</ele>
        <time>2025-02-05T09:39:28.430Z</time>
      </trkpt>
      <trkpt lat="58.595705945044756" lon="12.47375794686377">
        <ele>58.16</ele>
        <time>2025-02-05T09:39:51.476Z</time>
      </trkpt>
      <trkpt lat="58.59563293866813" lon="12.473694998770952">
        <ele>58.21</ele>
        <time>2025-02-05T09:40:14.523Z</time>
      </trkpt>
      <trkpt lat="58.59556093811989" lon="12.473629955202341">
        <ele>58.25</ele>
        <time>2025-02-05T09:40:37.571Z</time>
      </trkpt>
      <trkpt lat="58.595486925914884" lon="12.47356591746211">
        <ele>58.29</ele>
        <time>2025-02-05T09:41:00.621Z</time>
      </trkpt>
      <trkpt lat="58.59541299752891" lon="12.473502969369292">
        <ele>58.33</ele>
        <time>2025-02-05T09:41:23.672Z</time>
      </trkpt>
      <trkpt lat="58.595336973667145" lon="12.473441949114203">
        <ele>58.36</ele>
        <time>2025-02-05T09:41:46.724Z</time>
      </trkpt>
      <trkpt lat="58.595259943977" lon="12.473383946344256">
        <ele>58.4</ele>
        <time>2025-02-05T09:42:09.778Z</time>
      </trkpt>
      <trkpt lat="58.59518392011523" lon="12.47332795523107">
        <ele>58.44</ele>
        <time>2025-02-05T09:42:32.833Z</time>
      </trkpt>
      <trkpt lat="58.5951079800725" lon="12.473274981603026">
        <ele>58.47</ele>
        <time>2025-02-05T09:42:55.889Z</time>
      </trkpt>
      <trkpt lat="58.59503195621073" lon="12.473228964954615">
        <ele>58.51</ele>
        <time>2025-02-05T09:43:18.947Z</time>
      </trkpt>
      <trkpt lat="58.59495693817735" lon="12.473186971619725">
        <ele>58.53</ele>
        <time>2025-02-05T09:43:42.006Z</time>
      </trkpt>
      <trkpt lat="58.59488192014396" lon="12.473152941092849">
        <ele>58.55</ele>
        <time>2025-02-05T09:44:05.066Z</time>
      </trkpt>
      <trkpt lat="58.59480899758637" lon="12.473124945536256">
        <ele>58.57</ele>
        <time>2025-02-05T09:44:28.127Z</time>
      </trkpt>
      <trkpt lat="58.594732973724604" lon="12.473101979121566">
        <ele>58.59</ele>
        <time>2025-02-05T09:44:51.189Z</time>
      </trkpt>
      <trkpt lat="58.59465594403446" lon="12.473079934716225">
        <ele>58.6</ele>
        <time>2025-02-05T09:45:14.253Z</time>
      </trkpt>
      <trkpt lat="58.5945759806782" lon="12.473054956644773">
        <ele>58.62</ele>
        <time>2025-02-05T09:45:37.318Z</time>
      </trkpt>
      <trkpt lat="58.59449392184615" lon="12.473027966916561">
        <ele>58.62</ele>
        <time>2025-02-05T09:46:00.384Z</time>
      </trkpt>
      <trkpt lat="58.59441094100475" lon="12.47300198301673">
        <ele>58.63</ele>
        <time>2025-02-05T09:46:23.452Z</time>
      </trkpt>
      <trkpt lat="58.594326954334974" lon="12.472976921126246">
        <ele>58.64</ele>
        <time>2025-02-05T09:46:46.521Z</time>
      </trkpt>
      <trkpt lat="58.594241961836815" lon="12.472952948883176">
        <ele>58.65</ele>
        <time>2025-02-05T09:47:09.591Z</time>
      </trkpt>
      <trkpt lat="58.594153951853514" lon="12.472933921962976">
        <ele>58.65</ele>
        <time>2025-02-05T09:47:32.663Z</time>
      </trkpt>
      <trkpt lat="58.59406694769859" lon="12.47291799634695">
        <ele>58.66</ele>
        <time>2025-02-05T09:47:55.736Z</time>
      </trkpt>
      <trkpt lat="58.593982961028814" lon="12.472903998568654">
        <ele>58.67</ele>
        <time>2025-02-05T09:48:18.811Z</time>
      </trkpt>
      <trkpt lat="58.5939009860158" lon="12.472886983305216">
        <ele>58.67</ele>
        <time>2025-02-05T09:48:41.887Z</time>
      </trkpt>
      <trkpt lat="58.59382295049727" lon="12.472865944728255">
        <ele>58.68</ele>
        <time>2025-02-05T09:49:04.964Z</time>
      </trkpt>
      <trkpt lat="58.59374592080712" lon="12.472842978313565">
        <ele>58.68</ele>
        <time>2025-02-05T09:49:28.042Z</time>
      </trkpt>
      <trkpt lat="58.59366796910763" lon="12.472819928079844">
        <ele>58.68</ele>
        <time>2025-02-05T09:49:51.122Z</time>
      </trkpt>
      <trkpt lat="58.59359093941748" lon="12.472797967493534">
        <ele>58.68</ele>
        <time>2025-02-05T09:50:14.203Z</time>
      </trkpt>
      <trkpt lat="58.593512987717986" lon="12.472779946401715">
        <ele>58.67</ele>
        <time>2025-02-05T09:50:37.285Z</time>
      </trkpt>
      <trkpt lat="58.5934329405427" lon="12.472765948623419">
        <ele>58.67</ele>
        <time>2025-02-05T09:51:00.369Z</time>
      </trkpt>
      <trkpt lat="58.59335197135806" lon="12.472755974158645">
        <ele>58.66</ele>
        <time>2025-02-05T09:51:23.454Z</time>
      </trkpt>
      <trkpt lat="58.59326899051666" lon="12.472738958895206">
        <ele>58.66</ele>
        <time>2025-02-05T09:51:46.540Z</time>
      </trkpt>
      <trkpt lat="58.59318693168461" lon="12.472711969166994">
        <ele>58.65</ele>
        <time>2025-02-05T09:52:09.628Z</time>
      </trkpt>
      <trkpt lat="58.593104956671596" lon="12.472674921154976">
        <ele>58.64</ele>
        <time>2025-02-05T09:52:32.717Z</time>
      </trkpt>
      <trkpt lat="58.59302398748696" lon="12.472632927820086">
        <ele>58.63</ele>
        <time>2025-02-05T09:52:55.807Z</time>
      </trkpt>
      <trkpt lat="58.59294293448329" lon="12.472588922828436">
        <ele>58.62</ele>
        <time>2025-02-05T09:53:18.899Z</time>
      </trkpt>
      <trkpt lat="58.59286196529865" lon="12.472545923665166">
        <ele>58.6</ele>
        <time>2025-02-05T09:53:41.992Z</time>
      </trkpt>
      <trkpt lat="58.592780996114016" lon="12.472504936158657">
        <ele>58.59</ele>
        <time>2025-02-05T09:54:05.086Z</time>
      </trkpt>
      <trkpt lat="58.592697931453586" lon="12.472468977794051">
        <ele>58.57</ele>
        <time>2025-02-05T09:54:28.182Z</time>
      </trkpt>
      <trkpt lat="58.59261495061219" lon="12.472437964752316">
        <ele>58.55</ele>
        <time>2025-02-05T09:54:51.279Z</time>
      </trkpt>
      <trkpt lat="58.59253196977079" lon="12.472408963367343">
        <ele>58.53</ele>
        <time>2025-02-05T09:55:14.377Z</time>
      </trkpt>
      <trkpt lat="58.59244999475777" lon="12.47238197363913">
        <ele>58.51</ele>
        <time>2025-02-05T09:55:37.477Z</time>
      </trkpt>
      <trkpt lat="58.5923689417541" lon="12.472358923405409">
        <ele>58.49</ele>
        <time>2025-02-05T09:56:00.578Z</time>
      </trkpt>
      <trkpt lat="58.592288978397846" lon="12.472335956990719">
        <ele>58.46</ele>
        <time>2025-02-05T09:56:23.680Z</time>
      </trkpt>
      <trkpt lat="58.59220893122256" lon="12.472310978919268">
        <ele>58.44</ele>
        <time>2025-02-05T09:56:46.784Z</time>
      </trkpt>
      <trkpt lat="58.59213097952306" lon="12.472282983362675">
        <ele>58.41</ele>
        <time>2025-02-05T09:57:09.889Z</time>
      </trkpt>
      <trkpt lat="58.59205596148968" lon="12.472248952835798">
        <ele>58.38</ele>
        <time>2025-02-05T09:57:32.995Z</time>
      </trkpt>
      <trkpt lat="58.591983960941434" lon="12.47220796532929">
        <ele>58.34</ele>
        <time>2025-02-05T09:57:56.102Z</time>
      </trkpt>
      <trkpt lat="58.59191497787833" lon="12.472159937024117">
        <ele>58.31</ele>
        <time>2025-02-05T09:58:19.210Z</time>
      </trkpt>
      <trkpt lat="58.5918509401381" lon="12.47210394591093">
        <ele>58.27</ele>
        <time>2025-02-05T09:58:42.320Z</time>
      </trkpt>
      <trkpt lat="58.591788997873664" lon="12.472041919827461">
        <ele>58.24</ele>
        <time>2025-02-05T09:59:05.431Z</time>
      </trkpt>
      <trkpt lat="58.591727977618575" lon="12.471976960077882">
        <ele>58.2</ele>
        <time>2025-02-05T09:59:28.543Z</time>
      </trkpt>
      <trkpt lat="58.591665951535106" lon="12.471912922337651">
        <ele>58.16</ele>
        <time>2025-02-05T09:59:51.656Z</time>
      </trkpt>
      <trkpt lat="58.591602919623256" lon="12.471846956759691">
        <ele>58.12</ele>
        <time>2025-02-05T10:00:14.770Z</time>
      </trkpt>
      <trkpt lat="58.59153896570206" lon="12.47177897952497">
        <ele>58.07</ele>
        <time>2025-02-05T10:00:37.885Z</time>
      </trkpt>
      <trkpt lat="58.591472916305065" lon="12.471711924299598">
        <ele>58.03</ele>
        <time>2025-02-05T10:01:01.001Z</time>
      </trkpt>
      <trkpt lat="58.591404939070344" lon="12.47164998203516">
        <ele>57.98</ele>
        <time>2025-02-05T10:01:24.119Z</time>
      </trkpt>
      <trkpt lat="58.59133595600724" lon="12.471592985093594">
        <ele>57.94</ele>
        <time>2025-02-05T10:01:47.238Z</time>
      </trkpt>
      <trkpt lat="58.591263955459" lon="12.471541939303279">
        <ele>57.89</ele>
        <time>2025-02-05T10:02:10.358Z</time>
      </trkpt>
      <trkpt lat="58.591191954910755" lon="12.471495922654867">
        <ele>57.84</ele>
        <time>2025-02-05T10:02:33.479Z</time>
      </trkpt>
      <trkpt lat="58.59112196601927" lon="12.471452923491597">
        <ele>57.79</ele>
        <time>2025-02-05T10:02:56.602Z</time>
      </trkpt>
      <trkpt lat="58.59105298295617" lon="12.471411935985088">
        <ele>57.74</ele>
        <time>2025-02-05T10:03:19.726Z</time>
      </trkpt>
      <trkpt lat="58.59098399989307" lon="12.47137296013534">
        <ele>57.69</ele>
        <time>2025-02-05T10:03:42.851Z</time>
      </trkpt>
      <trkpt lat="58.59091795049608" lon="12.471334990113974">
        <ele>57.63</ele>
        <time>2025-02-05T10:04:05.977Z</time>
      </trkpt>
      <trkpt lat="58.59085198491812" lon="12.471297942101955">
        <ele>57.58</ele>
        <time>2025-02-05T10:04:29.104Z</time>
      </trkpt>
      <trkpt lat="58.590785935521126" lon="12.471259972080588">
        <ele>57.52</ele>
        <time>2025-02-05T10:04:52.232Z</time>
      </trkpt>
      <trkpt lat="58.590717958286405" lon="12.471217978745699">
        <ele>57.45</ele>
        <time>2025-02-05T10:05:15.361Z</time>
      </trkpt>
      <trkpt lat="58.59064696356654" lon="12.471172967925668">
        <ele>57.39</ele>
        <time>2025-02-05T10:05:38.491Z</time>
      </trkpt>
      <trkpt lat="58.5905749630183" lon="12.471126951277256">
        <ele>57.33</ele>
        <time>2025-02-05T10:06:01.623Z</time>
      </trkpt>
      <trkpt lat="58.59049994498491" lon="12.471074983477592">
        <ele>57.26</ele>
        <time>2025-02-05T10:06:24.756Z</time>
      </trkpt>
      <trkpt lat="58.59042199328542" lon="12.471018992364407">
        <ele>57.2</ele>
        <time>2025-02-05T10:06:47.890Z</time>
      </trkpt>
      <trkpt lat="58.59034295193851" lon="12.47096492908895">
        <ele>57.13</ele>
        <time>2025-02-05T10:07:11.026Z</time>
      </trkpt>
      <trkpt lat="58.590263994410634" lon="12.470912961289287">
        <ele>57.07</ele>
        <time>2025-02-05T10:07:34.163Z</time>
      </trkpt>
      <trkpt lat="58.590183947235346" lon="12.470865938812494">
        <ele>57.0</ele>
        <time>2025-02-05T10:07:57.301Z</time>
      </trkpt>
      <trkpt lat="58.59010498970747" lon="12.470825957134366">
        <ele>56.93</ele>
        <time>2025-02-05T10:08:20.441Z</time>
      </trkpt>
      <trkpt lat="58.59002594836056" lon="12.47079393826425">
        <ele>56.86</ele>
        <time>2025-02-05T10:08:43.582Z</time>
      </trkpt>
      <trkpt lat="58.589946990832686" lon="12.47077097184956">
        <ele>56.79</ele>
        <time>2025-02-05T10:09:06.724Z</time>
      </trkpt>
      <trkpt lat="58.5898669436574" lon="12.470759991556406">
        <ele>56.72</ele>
        <time>2025-02-05T10:09:29.868Z</time>
      </trkpt>
      <trkpt lat="58.58978698030114" lon="12.470762925222516">
        <ele>56.65</ele>
        <time>2025-02-05T10:09:53.013Z</time>
      </trkpt>
      <trkpt lat="58.58970592729747" lon="12.470781952142715">
        <ele>56.57</ele>
        <time>2025-02-05T10:10:16.159Z</time>
      </trkpt>
      <trkpt lat="58.589624958112836" lon="12.470815982669592">
        <ele>56.5</ele>
        <time>2025-02-05T10:10:39.306Z</time>
      </trkpt>
      <trkpt lat="58.58954499475658" lon="12.470866944640875">
        <ele>56.43</ele>
        <time>2025-02-05T10:11:02.455Z</time>
      </trkpt>
      <trkpt lat="58.58946695923805" lon="12.470930982381105">
        <ele>56.36</ele>
        <time>2025-02-05T10:11:25.605Z</time>
      </trkpt>
      <trkpt lat="58.589389929547906" lon="12.471002982929349">
        <ele>56.28</ele>
        <time>2025-02-05T10:11:48.757Z</time>
      </trkpt>
      <trkpt lat="58.58931499533355" lon="12.471080934628844">
        <ele>56.2</ele>
        <time>2025-02-05T10:12:11.910Z</time>
      </trkpt>
      <trkpt lat="58.58924299478531" lon="12.47115796431899">
        <ele>56.12</ele>
        <time>2025-02-05T10:12:35.064Z</time>
      </trkpt>
      <trkpt lat="58.589174933731556" lon="12.471230970695615">
        <ele>56.05</ele>
        <time>2025-02-05T10:12:58.219Z</time>
      </trkpt>
      <trkpt lat="58.589108968153596" lon="12.47130498290062">
        <ele>55.97</ele>
        <time>2025-02-05T10:13:21.376Z</time>
      </trkpt>
      <trkpt lat="58.589044930413365" lon="12.471380922943354">
        <ele>55.88</ele>
        <time>2025-02-05T10:13:44.534Z</time>
      </trkpt>
      <trkpt lat="58.58898399397731" lon="12.471466921269894">
        <ele>55.8</ele>
        <time>2025-02-05T10:14:07.693Z</time>
      </trkpt>
      <trkpt lat="58.58892892487347" lon="12.471560966223478">
        <ele>55.72</ele>
        <time>2025-02-05T10:14:30.853Z</time>
      </trkpt>
      <trkpt lat="58.588873939588666" lon="12.471658950671554">
        <ele>55.64</ele>
        <time>2025-02-05T10:14:54.015Z</time>
      </trkpt>
      <trkpt lat="58.58881895430386" lon="12.471760958433151">
        <ele>55.55</ele>
        <time>2025-02-05T10:15:17.178Z</time>
      </trkpt>
      <trkpt lat="58.588760951533914" lon="12.471860954537988">
        <ele>55.46</ele>
        <time>2025-02-05T10:15:40.342Z</time>
      </trkpt>
      <trkpt lat="58.588700937107205" lon="12.471964973956347">
        <ele>55.37</ele>
        <time>2025-02-05T10:16:03.507Z</time>
      </trkpt>
      <trkpt lat="58.58863899484277" lon="12.472074944525957">
        <ele>55.28</ele>
        <time>2025-02-05T10:16:26.674Z</time>
      </trkpt>
      <trkpt lat="58.588571939617395" lon="12.472186926752329">
        <ele>55.18</ele>
        <time>2025-02-05T10:16:49.842Z</time>
      </trkpt>
      <trkpt lat="58.588503962382674" lon="12.472298992797732">
        <ele>55.09</ele>
        <time>2025-02-05T10:17:13.012Z</time>
      </trkpt>
      <trkpt lat="58.58843497931957" lon="12.472416926175356">
        <ele>55.0</ele>
        <time>2025-02-05T10:17:36.183Z</time>
      </trkpt>
      <trkpt lat="58.58836398459971" lon="12.472537960857153">
        <ele>54.9</ele>
        <time>2025-02-05T10:17:59.356Z</time>
      </trkpt>
      <trkpt lat="58.58829399570823" lon="12.472648937255144">
        <ele>54.81</ele>
        <time>2025-02-05T10:18:22.530Z</time>
      </trkpt>
      <trkpt lat="58.588221995159984" lon="12.472752956673503">
        <ele>54.72</ele>
        <time>2025-02-05T10:18:45.705Z</time>
      </trkpt>
      <trkpt lat="58.58814999461174" lon="12.472845995798707">
        <ele>54.62</ele>
        <time>2025-02-05T10:19:08.882Z</time>
      </trkpt>
      <trkpt lat="58.588073970749974" lon="12.472926964983344">
        <ele>54.53</ele>
        <time>2025-02-05T10:19:32.060Z</time>
      </trkpt>
      <trkpt lat="58.58799794688821" lon="12.472994942218065">
        <ele>54.45</ele>
        <time>2025-02-05T10:19:55.240Z</time>
      </trkpt>
      <trkpt lat="58.58791999518871" lon="12.473054956644773">
        <ele>54.36</ele>
        <time>2025-02-05T10:20:18.421Z</time>
      </trkpt>
      <trkpt lat="58.587839948013425" lon="12.473108936101198">
        <ele>54.28</ele>
        <time>2025-02-05T10:20:41.603Z</time>
      </trkpt>
      <trkpt lat="58.58775897882879" lon="12.47315595857799">
        <ele>54.19</ele>
        <time>2025-02-05T10:21:04.787Z</time>
      </trkpt>
      <trkpt lat="58.58767691999674" lon="12.473200969398022">
        <ele>54.1</ele>
        <time>2025-02-05T10:21:27.972Z</time>
      </trkpt>
      <trkpt lat="58.58759393915534" lon="12.47324195690453">
        <ele>54.01</ele>
        <time>2025-02-05T10:21:51.158Z</time>
      </trkpt>
      <trkpt lat="58.58750995248556" lon="12.473276993259788">
        <ele>53.92</ele>
        <time>2025-02-05T10:22:14.346Z</time>
      </trkpt>
      <trkpt lat="58.58742697164416" lon="12.473305994644761">
        <ele>53.84</ele>
        <time>2025-02-05T10:22:37.535Z</time>
      </trkpt>
      <trkpt lat="58.587344996631145" lon="12.473328961059451">
        <ele>53.75</ele>
        <time>2025-02-05T10:23:00.725Z</time>
      </trkpt>
      <trkpt lat="58.587261931970716" lon="12.473343964666128">
        <ele>53.67</ele>
        <time>2025-02-05T10:23:23.917Z</time>
      </trkpt>
      <trkpt lat="58.58717895112932" lon="12.47335092164576">
        <ele>53.59</ele>
        <time>2025-02-05T10:23:47.110Z</time>
      </trkpt>
      <trkpt lat="58.5870969761163" lon="12.473352933302522">
        <ele>53.51</ele>
        <time>2025-02-05T10:24:10.304Z</time>
      </trkpt>
      <trkpt lat="58.58701592311263" lon="12.473348993808031">
        <ele>53.43</ele>
        <time>2025-02-05T10:24:33.500Z</time>
      </trkpt>
      <trkpt lat="58.586935959756374" lon="12.473337929695845">
        <ele>53.36</ele>
        <time>2025-02-05T10:24:56.697Z</time>
      </trkpt>
      <trkpt lat="58.58685599640012" lon="12.473321920260787">
        <ele>53.28</ele>
        <time>2025-02-05T10:25:19.895Z</time>
      </trkpt>
      <trkpt lat="58.58677695505321" lon="12.473297948017716">
        <ele>53.2</ele>
        <time>2025-02-05T10:25:43.095Z</time>
      </trkpt>
      <trkpt lat="58.586696991696954" lon="12.473267940804362">
        <ele>53.12</ele>
        <time>2025-02-05T10:26:06.296Z</time>
      </trkpt>
      <trkpt lat="58.586616944521666" lon="12.473235921934247">
        <ele>53.04</ele>
        <time>2025-02-05T10:26:29.498Z</time>
      </trkpt>
      <trkpt lat="58.58653698116541" lon="12.473202981054783">
        <ele>52.96</ele>
        <time>2025-02-05T10:26:52.702Z</time>
      </trkpt>
      <trkpt lat="58.58645592816174" lon="12.473165933042765">
        <ele>52.89</ele>
        <time>2025-02-05T10:27:15.907Z</time>
      </trkpt>
      <trkpt lat="58.58637395314872" lon="12.47313098050654">
        <ele>52.81</ele>
        <time>2025-02-05T10:27:39.113Z</time>
      </trkpt>
      <trkpt lat="58.586289966478944" lon="12.473099967464805">
        <ele>52.73</ele>
        <time>2025-02-05T10:28:02.321Z</time>
      </trkpt>
      <trkpt lat="58.586206985637546" lon="12.47306895442307">
        <ele>52.66</ele>
        <time>2025-02-05T10:28:25.530Z</time>
      </trkpt>
      <trkpt lat="58.586123920977116" lon="12.473037941381335">
        <ele>52.58</ele>
        <time>2025-02-05T10:28:48.740Z</time>
      </trkpt>
      <trkpt lat="58.58604094013572" lon="12.4730069283396">
        <ele>52.51</ele>
        <time>2025-02-05T10:29:11.952Z</time>
      </trkpt>
      <trkpt lat="58.58595795929432" lon="12.472975999116898">
        <ele>52.44</ele>
        <time>2025-02-05T10:29:35.165Z</time>
      </trkpt>
      <trkpt lat="58.58587397262454" lon="12.472943980246782">
        <ele>52.37</ele>
        <time>2025-02-05T10:29:58.379Z</time>
      </trkpt>
      <trkpt lat="58.58579099178314" lon="12.472909949719906">
        <ele>52.3</ele>
        <time>2025-02-05T10:30:21.595Z</time>
      </trkpt>
      <trkpt lat="58.58570692129433" lon="12.47287499718368">
        <ele>52.23</ele>
        <time>2025-02-05T10:30:44.812Z</time>
      </trkpt>
      <trkpt lat="58.58562293462455" lon="12.472838955000043">
        <ele>52.16</ele>
        <time>2025-02-05T10:31:08.030Z</time>
      </trkpt>
      <trkpt lat="58.58553794212639" lon="12.472804924473166">
        <ele>52.09</ele>
        <time>2025-02-05T10:31:31.250Z</time>
      </trkpt>
      <trkpt lat="58.58545194379985" lon="12.472771983593702">
        <ele>52.03</ele>
        <time>2025-02-05T10:31:54.471Z</time>
      </trkpt>
      <trkpt lat="58.58536594547331" lon="12.472738958895206">
        <ele>51.96</ele>
        <time>2025-02-05T10:32:17.694Z</time>
      </trkpt>
      <trkpt lat="58.585281958803535" lon="12.47270593419671">
        <ele>51.9</ele>
        <time>2025-02-05T10:32:40.918Z</time>
      </trkpt>
      <trkpt lat="58.585197972133756" lon="12.472675926983356">
        <ele>51.84</ele>
        <time>2025-02-05T10:33:04.143Z</time>
      </trkpt>
      <trkpt lat="58.58511398546398" lon="12.472644997760653">
        <ele>51.79</ele>
        <time>2025-02-05T10:33:27.370Z</time>
      </trkpt>
      <trkpt lat="58.58503192663193" lon="12.472611973062158">
        <ele>51.73</ele>
        <time>2025-02-05T10:33:50.598Z</time>
      </trkpt>
      <trkpt lat="58.58495095744729" lon="12.472578948363662">
        <ele>51.68</ele>
        <time>2025-02-05T10:34:13.827Z</time>
      </trkpt>
      <trkpt lat="58.58486898243427" lon="12.472544917836785">
        <ele>51.62</ele>
        <time>2025-02-05T10:34:37.058Z</time>
      </trkpt>
      <trkpt lat="58.58478692360222" lon="12.47250996530056">
        <ele>51.57</ele>
        <time>2025-02-05T10:35:00.290Z</time>
      </trkpt>
      <trkpt lat="58.584703942760825" lon="12.472477946430445">
        <ele>51.52</ele>
        <time>2025-02-05T10:35:23.524Z</time>
      </trkpt>
      <trkpt lat="58.58462096191943" lon="12.47244693338871">
        <ele>51.47</ele>
        <time>2025-02-05T10:35:46.759Z</time>
      </trkpt>
      <trkpt lat="58.58453798107803" lon="12.472417932003736">
        <ele>51.43</ele>
        <time>2025-02-05T10:36:09.995Z</time>
      </trkpt>
      <trkpt lat="58.58445399440825" lon="12.472389936447144">
        <ele>51.38</ele>
        <time>2025-02-05T10:36:33.233Z</time>
      </trkpt>
      <trkpt lat="58.58437092974782" lon="12.472366970032454">
        <ele>51.34</ele>
        <time>2025-02-05T10:36:56.472Z</time>
      </trkpt>
      <trkpt lat="58.58428593724966" lon="12.472348948940635">
        <ele>51.29</ele>
        <time>2025-02-05T10:37:19.712Z</time>
      </trkpt>
      <trkpt lat="58.5842009447515" lon="12.47233897447586">
        <ele>51.25</ele>
        <time>2025-02-05T10:37:42.954Z</time>
      </trkpt>
      <trkpt lat="58.58411494642496" lon="12.472334951162338">
        <ele>51.21</ele>
        <time>2025-02-05T10:38:06.197Z</time>
      </trkpt>
      <trkpt lat="58.58402894809842" lon="12.472333945333958">
        <ele>51.17</ele>
        <time>2025-02-05T10:38:29.441Z</time>
      </trkpt>
      <trkpt lat="58.58394294977188" lon="12.472334951162338">
        <ele>51.14</ele>
        <time>2025-02-05T10:38:52.687Z</time>
      </trkpt>
      <trkpt lat="58.58385795727372" lon="12.4723369628191">
        <ele>51.11</ele>
        <time>2025-02-05T10:39:15.934Z</time>
      </trkpt>
      <trkpt lat="58.58377397060394" lon="12.472339980304241">
        <ele>51.08</ele>
        <time>2025-02-05T10:39:39.183Z</time>
      </trkpt>
      <trkpt lat="58.583691995590925" lon="12.472343919798732">
        <ele>51.05</ele>
        <time>2025-02-05T10:40:02.433Z</time>
      </trkpt>
      <trkpt lat="58.583610942587256" lon="12.472348948940635">
        <ele>51.02</ele>
        <time>2025-02-05T10:40:25.684Z</time>
      </trkpt>
      <trkpt lat="58.583530979231" lon="12.472357917577028">
        <ele>50.99</ele>
        <time>2025-02-05T10:40:48.936Z</time>
      </trkpt>
      <trkpt lat="58.58345193788409" lon="12.472373927012086">
        <ele>50.96</ele>
        <time>2025-02-05T10:41:12.190Z</time>
      </trkpt>
      <trkpt lat="58.583372980356216" lon="12.472396977245808">
        <ele>50.93</ele>
        <time>2025-02-05T10:41:35.445Z</time>
      </trkpt>
      <trkpt lat="58.58329595066607" lon="12.472427990287542">
        <ele>50.91</ele>
        <time>2025-02-05T10:41:58.701Z</time>
      </trkpt>
      <trkpt lat="58.583219926804304" lon="12.472464954480529">
        <ele>50.89</ele>
        <time>2025-02-05T10:42:21.959Z</time>
      </trkpt>
      <trkpt lat="58.58314499258995" lon="12.472505941987038">
        <ele>50.86</ele>
        <time>2025-02-05T10:42:45.218Z</time>
      </trkpt>
      <trkpt lat="58.58307198621333" lon="12.472547935321927">
        <ele>50.84</ele>
        <time>2025-02-05T10:43:08.478Z</time>
      </trkpt>
      <trkpt lat="58.58299998566508" lon="12.472586994990706">
        <ele>50.83</ele>
        <time>2025-02-05T10:43:31.739Z</time>
      </trkpt>
      <trkpt lat="58.58292697928846" lon="12.472623959183693">
        <ele>50.81</ele>
        <time>2025-02-05T10:43:55.001Z</time>
      </trkpt>
      <trkpt lat="58.582853972911835" lon="12.472659917548299">
        <ele>50.79</ele>
        <time>2025-02-05T10:44:18.265Z</time>
      </trkpt>
      <trkpt lat="58.58277895487845" lon="12.472692942246795">
        <ele>50.77</ele>
        <time>2025-02-05T10:44:41.530Z</time>
      </trkpt>
      <trkpt lat="58.582702931016684" lon="12.472721943631768">
        <ele>50.76</ele>
        <time>2025-02-05T10:45:04.796Z</time>
      </trkpt>
      <trkpt lat="58.58262598514557" lon="12.47274692170322">
        <ele>50.74</ele>
        <time>2025-02-05T10:45:28.063Z</time>
      </trkpt>
      <trkpt lat="58.58254794962704" lon="12.472764942795038">
        <ele>50.73</ele>
        <time>2025-02-05T10:45:51.332Z</time>
      </trkpt>
      <trkpt lat="58.582470919936895" lon="12.472774917259812">
        <ele>50.72</ele>
        <time>2025-02-05T10:46:14.602Z</time>
      </trkpt>
      <trkpt lat="58.5823929682374" lon="12.472775923088193">
        <ele>50.71</ele>
        <time>2025-02-05T10:46:37.873Z</time>
      </trkpt>
      <trkpt lat="58.58231392689049" lon="12.472772989422083">
        <ele>50.7</ele>
        <time>2025-02-05T10:47:01.145Z</time>
      </trkpt>
      <trkpt lat="58.58223496936262" lon="12.4727669544518">
        <ele>50.69</ele>
        <time>2025-02-05T10:47:24.419Z</time>
      </trkpt>
      <trkpt lat="58.58215492218733" lon="12.472761925309896">
        <ele>50.69</ele>
        <time>2025-02-05T10:47:47.694Z</time>
      </trkpt>
      <trkpt lat="58.58207495883107" lon="12.472760919481516">
        <ele>50.68</ele>
        <time>2025-02-05T10:48:10.970Z</time>
      </trkpt>
      <trkpt lat="58.581994995474815" lon="12.472762931138277">
        <ele>50.68</ele>
        <time>2025-02-05T10:48:34.247Z</time>
      </trkpt>
      <trkpt lat="58.58191595412791" lon="12.47276896610856">
        <ele>50.68</ele>
        <time>2025-02-05T10:48:57.526Z</time>
      </trkpt>
      <trkpt lat="58.58183699660003" lon="12.472780952230096">
        <ele>50.68</ele>
        <time>2025-02-05T10:49:20.806Z</time>
      </trkpt>
      <trkpt lat="58.581758961081505" lon="12.472798973321915">
        <ele>50.68</ele>
        <time>2025-02-05T10:49:44.087Z</time>
      </trkpt>
      <trkpt lat="58.58168092556298" lon="12.472821939736605">
        <ele>50.68</ele>
        <time>2025-02-05T10:50:07.370Z</time>
      </trkpt>
      <trkpt lat="58.5816019680351" lon="12.472844989970326">
        <ele>50.68</ele>
        <time>2025-02-05T10:50:30.654Z</time>
      </trkpt>
      <trkpt lat="58.581522926688194" lon="12.472869968041778">
        <ele>50.69</ele>
        <time>2025-02-05T10:50:53.939Z</time>
      </trkpt>
      <trkpt lat="58.5814449749887" lon="12.47289796359837">
        <ele>50.69</ele>
        <time>2025-02-05T10:51:17.225Z</time>
      </trkpt>
      <trkpt lat="58.58136693947017" lon="12.472928976640105">
        <ele>50.69</ele>
        <time>2025-02-05T10:51:40.513Z</time>
      </trkpt>
      <trkpt lat="58.58128999359906" lon="12.472966946661472">
        <ele>50.7</ele>
        <time>2025-02-05T10:52:03.802Z</time>
      </trkpt>
      <trkpt lat="58.58121396973729" lon="12.473011957481503">
        <ele>50.7</ele>
        <time>2025-02-05T10:52:27.092Z</time>
      </trkpt>
      <trkpt lat="58.581138951703906" lon="12.473062919452786">
        <ele>50.71</ele>
        <time>2025-02-05T10:52:50.383Z</time>
      </trkpt>
      <trkpt lat="58.5810649394989" lon="12.473121928051114">
        <ele>50.71</ele>
        <time>2025-02-05T10:53:13.676Z</time>
      </trkpt>
      <trkpt lat="58.58099193312228" lon="12.473189989104867">
        <ele>50.72</ele>
        <time>2025-02-05T10:53:36.970Z</time>
      </trkpt>
      <trkpt lat="58.580921944230795" lon="12.473265929147601">
        <ele>50.72</ele>
        <time>2025-02-05T10:54:00.265Z</time>
      </trkpt>
      <trkpt lat="58.58085195533931" lon="12.473344970494509">
        <ele>50.73</ele>
        <time>2025-02-05T10:54:23.562Z</time>
      </trkpt>
      <trkpt lat="58.58078397810459" lon="12.473428957164288">
        <ele>50.74</ele>
        <time>2025-02-05T10:54:46.860Z</time>
      </trkpt>
      <trkpt lat="58.58071591705084" lon="12.473515961319208">
        <ele>50.75</ele>
        <time>2025-02-05T10:55:10.159Z</time>
      </trkpt>
      <trkpt lat="58.58064793981612" lon="12.47360497713089">
        <ele>50.76</ele>
        <time>2025-02-05T10:55:33.460Z</time>
      </trkpt>
      <trkpt lat="58.580579962581396" lon="12.473693992942572">
        <ele>50.78</ele>
        <time>2025-02-05T10:55:56.762Z</time>
      </trkpt>
      <trkpt lat="58.580511985346675" lon="12.473782924935222">
        <ele>50.78</ele>
        <time>2025-02-05T10:56:20.065Z</time>
      </trkpt>
      <trkpt lat="58.5804449301213" lon="12.473869929090142">
        <ele>50.8</ele>
        <time>2025-02-05T10:56:43.370Z</time>
      </trkpt>
      <trkpt lat="58.58037795871496" lon="12.473955927416682">
        <ele>50.82</ele>
        <time>2025-02-05T10:57:06.676Z</time>
      </trkpt>
      <trkpt lat="58.580311993137" lon="12.474041925743222">
        <ele>50.83</ele>
        <time>2025-02-05T10:57:29.983Z</time>
      </trkpt>
      <trkpt lat="58.58024795539677" lon="12.474128929898143">
        <ele>50.84</ele>
        <time>2025-02-05T10:57:53.291Z</time>
      </trkpt>
      <trkpt lat="58.58018299564719" lon="12.474214928224683">
        <ele>50.86</ele>
        <time>2025-02-05T10:58:16.601Z</time>
      </trkpt>
      <trkpt lat="58.58011795207858" lon="12.474297992885113">
        <ele>50.87</ele>
        <time>2025-02-05T10:58:39.912Z</time>
      </trkpt>
      <trkpt lat="58.58005198650062" lon="12.47437896206975">
        <ele>50.9</ele>
        <time>2025-02-05T10:59:03.224Z</time>
      </trkpt>
      <trkpt lat="58.57998593710363" lon="12.474452974274755">
        <ele>50.91</ele>
        <time>2025-02-05T10:59:26.537Z</time>
      </trkpt>
      <trkpt lat="58.57991795986891" lon="12.474521957337856">
        <ele>50.93</ele>
        <time>2025-02-05T10:59:49.852Z</time>
      </trkpt>
      <trkpt lat="58.579848976805806" lon="12.474583983421326">
        <ele>50.94</ele>
        <time>2025-02-05T11:00:13.168Z</time>
      </trkpt>
      <trkpt lat="58.57977798208594" lon="12.47463595122099">
        <ele>50.96</ele>
        <time>2025-02-05T11:00:36.485Z</time>
      </trkpt>
      <trkpt lat="58.57970396988094" lon="12.47467995621264">
        <ele>50.97</ele>
        <time>2025-02-05T11:00:59.803Z</time>
      </trkpt>
      <trkpt lat="58.579629957675934" lon="12.474718932062387">
        <ele>50.99</ele>
        <time>2025-02-05T11:01:23.123Z</time>
      </trkpt>
      <trkpt lat="58.57955393381417" lon="12.474751956760883">
        <ele>51.0</ele>
        <time>2025-02-05T11:01:46.444Z</time>
      </trkpt>
      <trkpt lat="58.579477993771434" lon="12.474781963974237">
        <ele>51.02</ele>
        <time>2025-02-05T11:02:09.766Z</time>
      </trkpt>
      <trkpt lat="58.57940196990967" lon="12.474813982844353">
        <ele>51.03</ele>
        <time>2025-02-05T11:02:33.089Z</time>
      </trkpt>
      <trkpt lat="58.57932695187628" lon="12.474853964522481">
        <ele>51.04</ele>
        <time>2025-02-05T11:02:56.414Z</time>
      </trkpt>
      <trkpt lat="58.57925092801452" lon="12.474899981170893">
        <ele>51.06</ele>
        <time>2025-02-05T11:03:19.740Z</time>
      </trkpt>
      <trkpt lat="58.57917599380016" lon="12.474948931485415">
        <ele>51.07</ele>
        <time>2025-02-05T11:03:43.067Z</time>
      </trkpt>
      <trkpt lat="58.5790999699384" lon="12.474998971447349">
        <ele>51.09</ele>
        <time>2025-02-05T11:04:06.395Z</time>
      </trkpt>
      <trkpt lat="58.57902495190501" lon="12.475049933418632">
        <ele>51.11</ele>
        <time>2025-02-05T11:04:29.725Z</time>
      </trkpt>
      <trkpt lat="58.57894993387163" lon="12.475100979208946">
        <ele>51.13</ele>
        <time>2025-02-05T11:04:53.056Z</time>
      </trkpt>
      <trkpt lat="58.57887499965727" lon="12.475148923695087">
        <ele>51.15</ele>
        <time>2025-02-05T11:05:16.388Z</time>
      </trkpt>
      <trkpt lat="58.57879897579551" lon="12.47519594617188">
        <ele>51.17</ele>
        <time>2025-02-05T11:05:39.721Z</time>
      </trkpt>
      <trkpt lat="58.57872295193374" lon="12.475243974477053">
        <ele>51.19</ele>
        <time>2025-02-05T11:06:03.056Z</time>
      </trkpt>
      <trkpt lat="58.578645922243595" lon="12.475292924791574">
        <ele>51.21</ele>
        <time>2025-02-05T11:06:26.392Z</time>
      </trkpt>
      <trkpt lat="58.5785679705441" lon="12.47534598223865">
        <ele>51.23</ele>
        <time>2025-02-05T11:06:49.729Z</time>
      </trkpt>
      <trkpt lat="58.57849094085395" lon="12.475398955866694">
        <ele>51.25</ele>
        <time>2025-02-05T11:07:13.068Z</time>
      </trkpt>
      <trkpt lat="58.57841491699219" lon="12.47545293532312">
        <ele>51.27</ele>
        <time>2025-02-05T11:07:36.408Z</time>
      </trkpt>
      <trkpt lat="58.57833797112107" lon="12.475505992770195">
        <ele>51.29</ele>
        <time>2025-02-05T11:07:59.749Z</time>
      </trkpt>
      <trkpt lat="58.578259935602546" lon="12.47555997222662">
        <ele>51.31</ele>
        <time>2025-02-05T11:08:23.092Z</time>
      </trkpt>
      <trkpt lat="58.57818198390305" lon="12.475611940026283">
        <ele>51.33</ele>
        <time>2025-02-05T11:08:46.436Z</time>
      </trkpt>
      <trkpt lat="58.57810294255614" lon="12.475665919482708">
        <ele>51.35</ele>
        <time>2025-02-05T11:09:09.781Z</time>
      </trkpt>
      <trkpt lat="58.57802499085665" lon="12.475720988586545">
        <ele>51.36</ele>
        <time>2025-02-05T11:09:33.128Z</time>
      </trkpt>
      <trkpt lat="58.5779479611665" lon="12.47577496804297">
        <ele>51.38</ele>
        <time>2025-02-05T11:09:56.476Z</time>
      </trkpt>
      <trkpt lat="58.577871937304735" lon="12.475829953327775">
        <ele>51.4</ele>
        <time>2025-02-05T11:10:19.825Z</time>
      </trkpt>
      <trkpt lat="58.577795997262" lon="12.47588292695582">
        <ele>51.41</ele>
        <time>2025-02-05T11:10:43.176Z</time>
      </trkpt>
      <trkpt lat="58.577719973400235" lon="12.475935984402895">
        <ele>51.43</ele>
        <time>2025-02-05T11:11:06.528Z</time>
      </trkpt>
      <trkpt lat="58.57764394953847" lon="12.475988958030939">
        <ele>51.45</ele>
        <time>2025-02-05T11:11:29.881Z</time>
      </trkpt>
      <trkpt lat="58.577569937333465" lon="12.476041931658983">
        <ele>51.47</ele>
        <time>2025-02-05T11:11:53.235Z</time>
      </trkpt>
      <trkpt lat="58.57749693095684" lon="12.476093983277678">
        <ele>51.49</ele>
        <time>2025-02-05T11:12:16.591Z</time>
      </trkpt>
      <trkpt lat="58.57742794789374" lon="12.47614192776382">
        <ele>51.5</ele>
        <time>2025-02-05T11:12:39.948Z</time>
      </trkpt>
      <trkpt lat="58.57736399397254" lon="12.47618492692709">
        <ele>51.52</ele>
        <time>2025-02-05T11:13:03.306Z</time>
      </trkpt>
      <trkpt lat="58.57730397954583" lon="12.476226920261979">
        <ele>51.53</ele>
        <time>2025-02-05T11:13:26.665Z</time>
      </trkpt>
      <trkpt lat="58.577250922098756" lon="12.476265979930758">
        <ele>51.55</ele>
        <time>2025-02-05T11:13:50.025Z</time>
      </trkpt>
      <trkpt lat="58.577203983440995" lon="12.476301938295364">
        <ele>51.56</ele>
        <time>2025-02-05T11:14:13.386Z</time>
      </trkpt>
      <trkpt lat="58.577162995934486" lon="12.47633395716548">
        <ele>51.57</ele>
        <time>2025-02-05T11:14:36.747Z</time>
      </trkpt>
      <trkpt lat="58.57712393626571" lon="12.476365976035595">
        <ele>51.58</ele>
        <time>2025-02-05T11:15:00.109Z</time>
      </trkpt>
      <trkpt lat="58.57708395458758" lon="12.47639698907733">
        <ele>51.6</ele>
        <time>2025-02-05T11:15:23.472Z</time>
      </trkpt>
      <trkpt lat="58.57704296708107" lon="12.476427918300033">
        <ele>51.61</ele>
        <time>2025-02-05T11:15:46.835Z</time>
      </trkpt>
      <trkpt lat="58.57700097374618" lon="12.476453986018896">
        <ele>51.62</ele>
        <time>2025-02-05T11:16:10.199Z</time>
      </trkpt>
      <trkpt lat="58.57696493156254" lon="12.476473934948444">
        <ele>51.63</ele>
        <time>2025-02-05T11:16:33.564Z</time>
      </trkpt>
      <trkpt lat="58.57692997902632" lon="12.476490950211883">
        <ele>51.64</ele>
        <time>2025-02-05T11:16:56.929Z</time>
      </trkpt>
      <trkpt lat="58.57689594849944" lon="12.476514922454953">
        <ele>51.66</ele>
        <time>2025-02-05T11:17:20.295Z</time>
      </trkpt>
      <trkpt lat="58.576858984306455" lon="12.476543923839927">
        <ele>51.67</ele>
        <time>2025-02-05T11:17:43.662Z</time>
      </trkpt>
      <trkpt lat="58.576820930466056" lon="12.476577954366803">
        <ele>51.68</ele>
        <time>2025-02-05T11:18:07.029Z</time>
      </trkpt>
      <trkpt lat="58.57677994295955" lon="12.476618941873312">
        <ele>51.68</ele>
        <time>2025-02-05T11:18:30.397Z</time>
      </trkpt>
      <trkpt lat="58.57673694379628" lon="12.476662946864963">
        <ele>51.69</ele>
        <time>2025-02-05T11:18:53.766Z</time>
      </trkpt>
      <trkpt lat="58.576689921319485" lon="12.476708963513374">
        <ele>51.7</ele>
        <time>2025-02-05T11:19:17.136Z</time>
      </trkpt>
      <trkpt lat="58.57663996517658" lon="12.476753974333405">
        <ele>51.71</ele>
        <time>2025-02-05T11:19:40.507Z</time>
      </trkpt>
      <trkpt lat="58.57658799737692" lon="12.476796973496675">
        <ele>51.72</ele>
        <time>2025-02-05T11:20:03.878Z</time>
      </trkpt>
      <trkpt lat="58.57653594575822" lon="12.476836955174804">
        <ele>51.73</ele>
        <time>2025-02-05T11:20:27.250Z</time>
      </trkpt>
      <trkpt lat="58.57648397795856" lon="12.476875931024551">
        <ele>51.74</ele>
        <time>2025-02-05T11:20:50.623Z</time>
      </trkpt>
      <trkpt lat="58.576430920511484" lon="12.476915996521711">
        <ele>51.75</ele>
        <time>2025-02-05T11:21:13.997Z</time>
      </trkpt>
      <trkpt lat="58.57637694105506" lon="12.4769579898566">
        <ele>51.76</ele>
        <time>2025-02-05T11:21:37.372Z</time>
      </trkpt>
      <trkpt lat="58.576321955770254" lon="12.477001994848251">
        <ele>51.77</ele>
        <time>2025-02-05T11:22:00.748Z</time>
      </trkpt>
      <trkpt lat="58.57626596465707" lon="12.477047927677631">
        <ele>51.78</ele>
        <time>2025-02-05T11:22:24.125Z</time>
      </trkpt>
      <trkpt lat="58.57620796188712" lon="12.477094950154424">
        <ele>51.79</ele>
        <time>2025-02-05T11:22:47.503Z</time>
      </trkpt>
      <trkpt lat="58.576149959117174" lon="12.477143984287977">
        <ele>51.8</ele>
        <time>2025-02-05T11:23:10.882Z</time>
      </trkpt>
      <trkpt lat="58.576089944690466" lon="12.47719394043088">
        <ele>51.81</ele>
        <time>2025-02-05T11:23:34.262Z</time>
      </trkpt>
      <trkpt lat="58.57602892443538" lon="12.477241968736053">
        <ele>51.82</ele>
        <time>2025-02-05T11:23:57.643Z</time>
      </trkpt>
      <trkpt lat="58.57596497051418" lon="12.477289997041225">
        <ele>51.83</ele>
        <time>2025-02-05T11:24:21.025Z</time>
      </trkpt>
      <trkpt lat="58.57590193860233" lon="12.477337941527367">
        <ele>51.84</ele>
        <time>2025-02-05T11:24:44.408Z</time>
      </trkpt>
      <trkpt lat="58.57583798468113" lon="12.477388987317681">
        <ele>51.85</ele>
        <time>2025-02-05T11:25:07.792Z</time>
      </trkpt>
      <trkpt lat="58.5757739469409" lon="12.477439949288964">
        <ele>51.86</ele>
        <time>2025-02-05T11:25:31.178Z</time>
      </trkpt>
      <trkpt lat="58.57570898719132" lon="12.477491917088628">
        <ele>51.86</ele>
        <time>2025-02-05T11:25:54.565Z</time>
      </trkpt>
      <trkpt lat="58.57564394362271" lon="12.477545980364084">
        <ele>51.87</ele>
        <time>2025-02-05T11:26:17.953Z</time>
      </trkpt>
      <trkpt lat="58.57557898387313" lon="12.477599959820509">
        <ele>51.88</ele>
        <time>2025-02-05T11:26:41.342Z</time>
      </trkpt>
      <trkpt lat="58.5755149461329" lon="12.477653939276934">
        <ele>51.89</ele>
        <time>2025-02-05T11:27:04.732Z</time>
      </trkpt>
      <trkpt lat="58.5754509922117" lon="12.47770699672401">
        <ele>51.89</ele>
        <time>2025-02-05T11:27:28.123Z</time>
      </trkpt>
      <trkpt lat="58.57538796029985" lon="12.477763993665576">
        <ele>51.9</ele>
        <time>2025-02-05T11:27:51.515Z</time>
      </trkpt>
      <trkpt lat="58.57532593421638" lon="12.477829959243536">
        <ele>51.91</ele>
        <time>2025-02-05T11:28:14.908Z</time>
      </trkpt>
      <trkpt lat="58.57526591978967" lon="12.477908916771412">
        <ele>51.92</ele>
        <time>2025-02-05T11:28:38.303Z</time>
      </trkpt>
      <trkpt lat="58.575208922848105" lon="12.477997932583094">
        <ele>51.93</ele>
        <time>2025-02-05T11:29:01.699Z</time>
      </trkpt>
      <trkpt lat="58.57515192590654" lon="12.478095917031169">
        <ele>51.94</ele>
        <time>2025-02-05T11:29:25.096Z</time>
      </trkpt>
      <trkpt lat="58.575096940621734" lon="12.478197924792767">
        <ele>51.95</ele>
        <time>2025-02-05T11:29:48.494Z</time>
      </trkpt>
      <trkpt lat="58.57504195533693" lon="12.478300938382745">
        <ele>51.96</ele>
        <time>2025-02-05T11:30:11.893Z</time>
      </trkpt>
      <trkpt lat="58.57498596422374" lon="12.478401940315962">
        <ele>51.97</ele>
        <time>2025-02-05T11:30:35.294Z</time>
      </trkpt>
      <trkpt lat="58.574927961453795" lon="12.478499924764037">
        <ele>51.99</ele>
        <time>2025-02-05T11:30:58.696Z</time>
      </trkpt>
      <trkpt lat="58.574865935370326" lon="12.4785899464041">
        <ele>52.0</ele>
        <time>2025-02-05T11:31:22.099Z</time>
      </trkpt>
      <trkpt lat="58.57480097562075" lon="12.478672927245498">
        <ele>52.01</ele>
        <time>2025-02-05T11:31:45.503Z</time>
      </trkpt>
      <trkpt lat="58.574731992557645" lon="12.478747945278883">
        <ele>52.02</ele>
        <time>2025-02-05T11:32:08.909Z</time>
      </trkpt>
      <trkpt lat="58.57466099783778" lon="12.478815922513604">
        <ele>52.03</ele>
        <time>2025-02-05T11:32:32.316Z</time>
      </trkpt>
      <trkpt lat="58.57458698563278" lon="12.478875936940312">
        <ele>52.04</ele>
        <time>2025-02-05T11:32:55.724Z</time>
      </trkpt>
      <trkpt lat="58.57451096177101" lon="12.478927988559008">
        <ele>52.05</ele>
        <time>2025-02-05T11:33:19.134Z</time>
      </trkpt>
      <trkpt lat="58.574432926252484" lon="12.478971993550658">
        <ele>52.07</ele>
        <time>2025-02-05T11:33:42.545Z</time>
      </trkpt>
      <trkpt lat="58.57435296289623" lon="12.479013986885548">
        <ele>52.08</ele>
        <time>2025-02-05T11:34:05.957Z</time>
      </trkpt>
      <trkpt lat="58.57427199371159" lon="12.479056986048818">
        <ele>52.09</ele>
        <time>2025-02-05T11:34:29.371Z</time>
      </trkpt>
      <trkpt lat="58.5741919465363" lon="12.479099985212088">
        <ele>52.1</ele>
        <time>2025-02-05T11:34:52.786Z</time>
      </trkpt>
      <trkpt lat="58.574111983180046" lon="12.479142984375358">
        <ele>52.11</ele>
        <time>2025-02-05T11:35:16.202Z</time>
      </trkpt>
      <trkpt lat="58.57403193600476" lon="12.479184977710247">
        <ele>52.12</ele>
        <time>2025-02-05T11:35:39.620Z</time>
      </trkpt>
      <trkpt lat="58.5739519726485" lon="12.479227976873517">
        <ele>52.14</ele>
        <time>2025-02-05T11:36:03.039Z</time>
      </trkpt>
      <trkpt lat="58.57387192547321" lon="12.479268964380026">
        <ele>52.15</ele>
        <time>2025-02-05T11:36:26.459Z</time>
      </trkpt>
      <trkpt lat="58.57379196211696" lon="12.479308946058154">
        <ele>52.17</ele>
        <time>2025-02-05T11:36:49.881Z</time>
      </trkpt>
      <trkpt lat="58.5737119987607" lon="12.479348927736282">
        <ele>52.18</ele>
        <time>2025-02-05T11:37:13.304Z</time>
      </trkpt>
      <trkpt lat="58.57363195158541" lon="12.479387987405062">
        <ele>52.2</ele>
        <time>2025-02-05T11:37:36.728Z</time>
      </trkpt>
      <trkpt lat="58.573551988229156" lon="12.479422939941287">
        <ele>52.22</ele>
        <time>2025-02-05T11:38:00.154Z</time>
      </trkpt>
      <trkpt lat="58.57347294688225" lon="12.47945194132626">
        <ele>52.24</ele>
        <time>2025-02-05T11:38:23.581Z</time>
      </trkpt>
      <trkpt lat="58.57339499518275" lon="12.479474991559982">
        <ele>52.26</ele>
        <time>2025-02-05T11:38:47.009Z</time>
      </trkpt>
      <trkpt lat="58.573317965492606" lon="12.479495946317911">
        <ele>52.27</ele>
        <time>2025-02-05T11:39:10.438Z</time>
      </trkpt>
      <trkpt lat="58.57324093580246" lon="12.479510949924588">
        <ele>52.29</ele>
        <time>2025-02-05T11:39:33.869Z</time>
      </trkpt>
      <trkpt lat="58.573163989931345" lon="12.479523941874504">
        <ele>52.31</ele>
        <time>2025-02-05T11:39:57.301Z</time>
      </trkpt>
      <trkpt lat="58.5730869602412" lon="12.479534922167659">
        <ele>52.32</ele>
        <time>2025-02-05T11:40:20.734Z</time>
      </trkpt>
      <trkpt lat="58.57301194220781" lon="12.479542968794703">
        <ele>52.35</ele>
        <time>2025-02-05T11:40:44.168Z</time>
      </trkpt>
      <trkpt lat="58.57293793000281" lon="12.479544980451465">
        <ele>52.37</ele>
        <time>2025-02-05T11:41:07.603Z</time>
      </trkpt>
      <trkpt lat="58.572865929454565" lon="12.479539951309562">
        <ele>52.39</ele>
        <time>2025-02-05T11:41:31.040Z</time>
      </trkpt>
      <trkpt lat="58.5727949347347" lon="12.479529976844788">
        <ele>52.42</ele>
        <time>2025-02-05T11:41:54.478Z</time>
      </trkpt>
      <trkpt lat="58.57272494584322" lon="12.47951296158135">
        <ele>52.44</ele>
        <time>2025-02-05T11:42:17.917Z</time>
      </trkpt>
      <trkpt lat="58.57265596278012" lon="12.479490917176008">
        <ele>52.47</ele>
        <time>2025-02-05T11:42:41.357Z</time>
      </trkpt>
      <trkpt lat="58.5725879855454" lon="12.479464933276176">
        <ele>52.49</ele>
        <time>2025-02-05T11:43:04.798Z</time>
      </trkpt>
      <trkpt lat="58.572519924491644" lon="12.479434926062822">
        <ele>52.51</ele>
        <time>2025-02-05T11:43:28.240Z</time>
      </trkpt>
      <trkpt lat="58.57245194725692" lon="12.47940399684012">
        <ele>52.53</ele>
        <time>2025-02-05T11:43:51.683Z</time>
      </trkpt>
      <trkpt lat="58.57238598167896" lon="12.479369966313243">
        <ele>52.55</ele>
        <time>2025-02-05T11:44:15.127Z</time>
      </trkpt>
      <trkpt lat="58.57232194393873" lon="12.479333924129605">
        <ele>52.57</ele>
        <time>2025-02-05T11:44:38.573Z</time>
      </trkpt>
      <trkpt lat="58.57225597836077" lon="12.47929897159338">
        <ele>52.59</ele>
        <time>2025-02-05T11:45:02.020Z</time>
      </trkpt>
      <trkpt lat="58.57218992896378" lon="12.479261923581362">
        <ele>52.6</ele>
        <time>2025-02-05T11:45:25.468Z</time>
      </trkpt>
      <trkpt lat="58.57212195172906" lon="12.479224959388375">
        <ele>52.62</ele>
        <time>2025-02-05T11:45:48.917Z</time>
      </trkpt>
      <trkpt lat="58.57205397449434" lon="12.479186989367008">
        <ele>52.64</ele>
        <time>2025-02-05T11:46:12.367Z</time>
      </trkpt>
      <trkpt lat="58.571983985602856" lon="12.47914893552661">
        <ele>52.66</ele>
        <time>2025-02-05T11:46:35.818Z</time>
      </trkpt>
      <trkpt lat="58.57191299088299" lon="12.479111971333623">
        <ele>52.67</ele>
        <time>2025-02-05T11:46:59.270Z</time>
      </trkpt>
      <trkpt lat="58.57184099033475" lon="12.479073917493224">
        <ele>52.69</ele>
        <time>2025-02-05T11:47:22.724Z</time>
      </trkpt>
      <trkpt lat="58.571767983958125" lon="12.479035947471857">
        <ele>52.71</ele>
        <time>2025-02-05T11:47:46.179Z</time>
      </trkpt>
      <trkpt lat="58.57169296592474" lon="12.478999989107251">
        <ele>52.72</ele>
        <time>2025-02-05T11:48:09.635Z</time>
      </trkpt>
      <trkpt lat="58.571616942062974" lon="12.478966964408755">
        <ele>52.74</ele>
        <time>2025-02-05T11:48:33.092Z</time>
      </trkpt>
      <trkpt lat="58.57154192402959" lon="12.47893393971026">
        <ele>52.76</ele>
        <time>2025-02-05T11:48:56.550Z</time>
      </trkpt>
      <trkpt lat="58.571466989815235" lon="12.478897981345654">
        <ele>52.77</ele>
        <time>2025-02-05T11:49:20.010Z</time>
      </trkpt>
      <trkpt lat="58.57139297761023" lon="12.478861939162016">
        <ele>52.79</ele>
        <time>2025-02-05T11:49:43.471Z</time>
      </trkpt>
      <trkpt lat="58.571317959576845" lon="12.47882698662579">
        <ele>52.8</ele>
        <time>2025-02-05T11:50:06.933Z</time>
      </trkpt>
      <trkpt lat="58.57124495320022" lon="12.478792956098914">
        <ele>52.82</ele>
        <time>2025-02-05T11:50:30.396Z</time>
      </trkpt>
      <trkpt lat="58.571170940995216" lon="12.478758925572038">
        <ele>52.83</ele>
        <time>2025-02-05T11:50:53.861Z</time>
      </trkpt>
      <trkpt lat="58.57109692879021" lon="12.478725984692574">
        <ele>52.85</ele>
        <time>2025-02-05T11:51:17.327Z</time>
      </trkpt>
      <trkpt lat="58.57102098874748" lon="12.478692959994078">
        <ele>52.87</ele>
        <time>2025-02-05T11:51:40.794Z</time>
      </trkpt>
      <trkpt lat="58.57094395905733" lon="12.478658929467201">
        <ele>52.89</ele>
        <time>2025-02-05T11:52:04.262Z</time>
      </trkpt>
      <trkpt lat="58.570868941023946" lon="12.478624982759356">
        <ele>52.9</ele>
        <time>2025-02-05T11:52:27.732Z</time>
      </trkpt>
      <trkpt lat="58.57079392299056" lon="12.478587934747338">
        <ele>52.92</ele>
        <time>2025-02-05T11:52:51.203Z</time>
      </trkpt>
      <trkpt lat="58.57071898877621" lon="12.47854895889759">
        <ele>52.94</ele>
        <time>2025-02-05T11:53:14.675Z</time>
      </trkpt>
      <trkpt lat="58.57064296491444" lon="12.478508977219462">
        <ele>52.96</ele>
        <time>2025-02-05T11:53:38.148Z</time>
      </trkpt>
      <trkpt lat="58.570565935224295" lon="12.478466983884573">
        <ele>52.98</ele>
        <time>2025-02-05T11:54:01.623Z</time>
      </trkpt>
      <trkpt lat="58.5704879835248" lon="12.478421973064542">
        <ele>53.0</ele>
        <time>2025-02-05T11:54:25.099Z</time>
      </trkpt>
      <trkpt lat="58.57040994800627" lon="12.478369921445847">
        <ele>53.02</ele>
        <time>2025-02-05T11:54:48.576Z</time>
      </trkpt>
      <trkpt lat="58.57033199630678" lon="12.478306973353028">
        <ele>53.04</ele>
        <time>2025-02-05T11:55:12.055Z</time>
      </trkpt>
      <trkpt lat="58.57025697827339" lon="12.478236984461546">
        <ele>53.06</ele>
        <time>2025-02-05T11:55:35.535Z</time>
      </trkpt>
      <trkpt lat="58.57018397189677" lon="12.4781599547714">
        <ele>53.08</ele>
        <time>2025-02-05T11:55:59.016Z</time>
      </trkpt>
      <trkpt lat="58.570112977176905" lon="12.478078985586762">
        <ele>53.1</ele>
        <time>2025-02-05T11:56:22.499Z</time>
      </trkpt>
      <trkpt lat="58.57004298828542" lon="12.477992987260222">
        <ele>53.13</ele>
        <time>2025-02-05T11:56:45.983Z</time>
      </trkpt>
      <trkpt lat="58.56997299939394" lon="12.477904977276921">
        <ele>53.15</ele>
        <time>2025-02-05T11:57:09.468Z</time>
      </trkpt>
      <trkpt lat="58.5699009988457" lon="12.477817973122">
        <ele>53.17</ele>
        <time>2025-02-05T11:57:32.955Z</time>
      </trkpt>
      <trkpt lat="58.56983193196356" lon="12.4777299631387">
        <ele>53.19</ele>
        <time>2025-02-05T11:57:56.443Z</time>
      </trkpt>
      <trkpt lat="58.56976194307208" lon="12.477641953155398">
        <ele>53.21</ele>
        <time>2025-02-05T11:58:19.932Z</time>
      </trkpt>
      <trkpt lat="58.5696919541806" lon="12.477554949000478">
        <ele>53.23</ele>
        <time>2025-02-05T11:58:43.423Z</time>
      </trkpt>
      <trkpt lat="58.569619953632355" lon="12.477465933188796">
        <ele>53.25</ele>
        <time>2025-02-05T11:59:06.915Z</time>
      </trkpt>
      <trkpt lat="58.56954996474087" lon="12.477377923205495">
        <ele>53.26</ele>
        <time>2025-02-05T11:59:30.408Z</time>
      </trkpt>
      <trkpt lat="58.56948098167777" lon="12.477285973727703">
        <ele>53.27</ele>
        <time>2025-02-05T11:59:53.903Z</time>
      </trkpt>
      <trkpt lat="58.56941593810916" lon="12.477187989279628">
        <ele>53.29</ele>
        <time>2025-02-05T12:00:17.399Z</time>
      </trkpt>
      <trkpt lat="58.56935491785407" lon="12.477082964032888">
        <ele>53.31</ele>
        <time>2025-02-05T12:00:40.896Z</time>
      </trkpt>
      <trkpt lat="58.569295993074775" lon="12.476973999291658">
        <ele>53.33</ele>
        <time>2025-02-05T12:01:04.395Z</time>
      </trkpt>
      <trkpt lat="58.56923899613321" lon="12.476860927417874">
        <ele>53.35</ele>
        <time>2025-02-05T12:01:27.895Z</time>
      </trkpt>
      <trkpt lat="58.56918292120099" lon="12.47674299404025">
        <ele>53.37</ele>
        <time>2025-02-05T12:01:51.396Z</time>
      </trkpt>
      <trkpt lat="58.569125924259424" lon="12.476625982671976">
        <ele>53.4</ele>
        <time>2025-02-05T12:02:14.899Z</time>
      </trkpt>
      <trkpt lat="58.56906792148948" lon="12.476508971303701">
        <ele>53.42</ele>
        <time>2025-02-05T12:02:38.403Z</time>
      </trkpt>
      <trkpt lat="58.56900991871953" lon="12.476391959935427">
        <ele>53.43</ele>
        <time>2025-02-05T12:03:01.908Z</time>
      </trkpt>
      <trkpt lat="58.568952921777964" lon="12.476275954395533">
        <ele>53.46</ele>
        <time>2025-02-05T12:03:25.415Z</time>
      </trkpt>
      <trkpt lat="58.5688959248364" lon="12.476158943027258">
        <ele>53.48</ele>
        <time>2025-02-05T12:03:48.923Z</time>
      </trkpt>
      <trkpt lat="58.56883993372321" lon="12.476039920002222">
        <ele>53.51</ele>
        <time>2025-02-05T12:04:12.432Z</time>
      </trkpt>
      <trkpt lat="58.568783942610025" lon="12.475920980796218">
        <ele>53.53</ele>
        <time>2025-02-05T12:04:35.943Z</time>
      </trkpt>
      <trkpt lat="58.56872694566846" lon="12.475801957771182">
        <ele>53.55</ele>
        <time>2025-02-05T12:04:59.455Z</time>
      </trkpt>
      <trkpt lat="58.56867095455527" lon="12.475682934746146">
        <ele>53.58</ele>
        <time>2025-02-05T12:05:22.968Z</time>
      </trkpt>
      <trkpt lat="58.56861496344209" lon="12.475565923377872">
        <ele>53.6</ele>
        <time>2025-02-05T12:05:46.483Z</time>
      </trkpt>
      <trkpt lat="58.56855997815728" lon="12.475448995828629">
        <ele>53.63</ele>
        <time>2025-02-05T12:06:09.999Z</time>
      </trkpt>
      <trkpt lat="58.56850599870086" lon="12.475329972803593">
        <ele>53.65</ele>
        <time>2025-02-05T12:06:33.516Z</time>
      </trkpt>
      <trkpt lat="58.56845092959702" lon="12.475212961435318">
        <ele>53.68</ele>
        <time>2025-02-05T12:06:57.035Z</time>
      </trkpt>
      <trkpt lat="58.568394938483834" lon="12.475096955895424">
        <ele>53.7</ele>
        <time>2025-02-05T12:07:20.555Z</time>
      </trkpt>
      <trkpt lat="58.56833995319903" lon="12.474978938698769">
        <ele>53.73</ele>
        <time>2025-02-05T12:07:44.076Z</time>
      </trkpt>
      <trkpt lat="58.568285973742604" lon="12.474862933158875">
        <ele>53.75</ele>
        <time>2025-02-05T12:08:07.599Z</time>
      </trkpt>
      <trkpt lat="58.56823291629553" lon="12.474748939275742">
        <ele>53.78</ele>
        <time>2025-02-05T12:08:31.123Z</time>
      </trkpt>
      <trkpt lat="58.568178936839104" lon="12.47463695704937">
        <ele>53.8</ele>
        <time>2025-02-05T12:08:54.648Z</time>
      </trkpt>
      <trkpt lat="58.5681239515543" lon="12.474522963166237">
        <ele>53.83</ele>
        <time>2025-02-05T12:09:18.175Z</time>
      </trkpt>
      <trkpt lat="58.56806896626949" lon="12.474407963454723">
        <ele>53.85</ele>
        <time>2025-02-05T12:09:41.703Z</time>
      </trkpt>
      <trkpt lat="58.56801297515631" lon="12.47429195791483">
        <ele>53.88</ele>
        <time>2025-02-05T12:10:05.232Z</time>
      </trkpt>
      <trkpt lat="58.5679579898715" lon="12.474174946546555">
        <ele>53.91</ele>
        <time>2025-02-05T12:10:28.762Z</time>
      </trkpt>
      <trkpt lat="58.567901998758316" lon="12.474059946835041">
        <ele>53.93</ele>
        <time>2025-02-05T12:10:52.294Z</time>
      </trkpt>
      <trkpt lat="58.5678459238261" lon="12.473943941295147">
        <ele>53.96</ele>
        <time>2025-02-05T12:11:15.827Z</time>
      </trkpt>
      <trkpt lat="58.56778993271291" lon="12.473827935755253">
        <ele>53.99</ele>
        <time>2025-02-05T12:11:39.361Z</time>
      </trkpt>
      <trkpt lat="58.56773394159973" lon="12.473711930215359">
        <ele>54.02</ele>
        <time>2025-02-05T12:12:02.897Z</time>
      </trkpt>
      <trkpt lat="58.56767694465816" lon="12.473599947988987">
        <ele>54.04</ele>
        <time>2025-02-05T12:12:26.434Z</time>
      </trkpt>
      <trkpt lat="58.567620953544974" lon="12.473487965762615">
        <ele>54.07</ele>
        <time>2025-02-05T12:12:49.972Z</time>
      </trkpt>
      <trkpt lat="58.56756596826017" lon="12.473377995193005">
        <ele>54.1</ele>
        <time>2025-02-05T12:13:13.512Z</time>
      </trkpt>
      <trkpt lat="58.56750997714698" lon="12.473268946632743">
        <ele>54.13</ele>
        <time>2025-02-05T12:13:37.053Z</time>
      </trkpt>
      <trkpt lat="58.567451974377036" lon="12.473161993548274">
        <ele>54.16</ele>
        <time>2025-02-05T12:14:00.595Z</time>
      </trkpt>
      <trkpt lat="58.56739296577871" lon="12.473056968301535">
        <ele>54.19</ele>
        <time>2025-02-05T12:14:24.139Z</time>
      </trkpt>
      <trkpt lat="58.567332951352" lon="12.472953954711556">
        <ele>54.22</ele>
        <time>2025-02-05T12:14:47.684Z</time>
      </trkpt>
      <trkpt lat="58.56727293692529" lon="12.472850941121578">
        <ele>54.25</ele>
        <time>2025-02-05T12:15:11.230Z</time>
      </trkpt>
      <trkpt lat="58.5672119166702" lon="12.472749939188361">
        <ele>54.28</ele>
        <time>2025-02-05T12:15:34.777Z</time>
      </trkpt>
      <trkpt lat="58.567150980234146" lon="12.472650948911905">
        <ele>54.31</ele>
        <time>2025-02-05T12:15:58.326Z</time>
      </trkpt>
      <trkpt lat="58.56709096580744" lon="12.472554976120591">
        <ele>54.34</ele>
        <time>2025-02-05T12:16:21.876Z</time>
      </trkpt>
      <trkpt lat="58.56703095138073" lon="12.472459925338626">
        <ele>54.37</ele>
        <time>2025-02-05T12:16:45.427Z</time>
      </trkpt>
      <trkpt lat="58.56697093695402" lon="12.472365964204073">
        <ele>54.41</ele>
        <time>2025-02-05T12:17:08.979Z</time>
      </trkpt>
      <trkpt lat="58.566911928355694" lon="12.472272925078869">
        <ele>54.44</ele>
        <time>2025-02-05T12:17:32.533Z</time>
      </trkpt>
      <trkpt lat="58.566852919757366" lon="12.472179969772696">
        <ele>54.47</ele>
        <time>2025-02-05T12:17:56.088Z</time>
      </trkpt>
      <trkpt lat="58.5667959228158" lon="12.472084918990731">
        <ele>54.51</ele>
        <time>2025-02-05T12:18:19.644Z</time>
      </trkpt>
      <trkpt lat="58.566739931702614" lon="12.471989952027798">
        <ele>54.54</ele>
        <time>2025-02-05T12:18:43.201Z</time>
      </trkpt>
      <trkpt lat="58.56668494641781" lon="12.471895990893245">
        <ele>54.58</ele>
        <time>2025-02-05T12:19:06.759Z</time>
      </trkpt>
      <trkpt lat="58.566630966961384" lon="12.471798928454518">
        <ele>54.61</ele>
        <time>2025-02-05T12:19:30.319Z</time>
      </trkpt>
      <trkpt lat="58.56658092699945" lon="12.471702955663204">
        <ele>54.64</ele>
        <time>2025-02-05T12:19:53.880Z</time>
      </trkpt>
      <trkpt lat="58.56653097085655" lon="12.471608994528651">
        <ele>54.67</ele>
        <time>2025-02-05T12:20:17.442Z</time>
      </trkpt>
      <trkpt lat="58.56648093089461" lon="12.471518972888589">
        <ele>54.69</ele>
        <time>2025-02-05T12:20:41.005Z</time>
      </trkpt>
      <trkpt lat="58.56642896309495" lon="12.471428951248527">
        <ele>54.72</ele>
        <time>2025-02-05T12:21:04.569Z</time>
      </trkpt>
      <trkpt lat="58.566376995295286" lon="12.471338929608464">
        <ele>54.75</ele>
        <time>2025-02-05T12:21:28.134Z</time>
      </trkpt>
      <trkpt lat="58.56632494367659" lon="12.471245974302292">
        <ele>54.77</ele>
        <time>2025-02-05T12:21:51.700Z</time>
      </trkpt>
      <trkpt lat="58.566269958391786" lon="12.47115796431899">
        <ele>54.8</ele>
        <time>2025-02-05T12:22:15.268Z</time>
      </trkpt>
      <trkpt lat="58.56621195562184" lon="12.47107096016407">
        <ele>54.83</ele>
        <time>2025-02-05T12:22:38.837Z</time>
      </trkpt>
      <trkpt lat="58.56615194119513" lon="12.470981944352388">
        <ele>54.85</ele>
        <time>2025-02-05T12:23:02.407Z</time>
      </trkpt>
      <trkpt lat="58.56609092094004" lon="12.470889994874597">
        <ele>54.88</ele>
        <time>2025-02-05T12:23:25.978Z</time>
      </trkpt>
      <trkpt lat="58.56602696701884" lon="12.470795949921012">
        <ele>54.9</ele>
        <time>2025-02-05T12:23:49.550Z</time>
      </trkpt>
      <trkpt lat="58.56596393510699" lon="12.470699977129698">
        <ele>54.93</ele>
        <time>2025-02-05T12:24:13.124Z</time>
      </trkpt>
      <trkpt lat="58.56589897535741" lon="12.470602998510003">
        <ele>54.95</ele>
        <time>2025-02-05T12:24:36.699Z</time>
      </trkpt>
      <trkpt lat="58.56583493761718" lon="12.470507947728038">
        <ele>54.98</ele>
        <time>2025-02-05T12:25:00.275Z</time>
      </trkpt>
      <trkpt lat="58.565771989524364" lon="12.470412980765104">
        <ele>55.01</ele>
        <time>2025-02-05T12:25:23.853Z</time>
      </trkpt>
      <trkpt lat="58.565709963440895" lon="12.470314996317029">
        <ele>55.04</ele>
        <time>2025-02-05T12:25:47.432Z</time>
      </trkpt>
      <trkpt lat="58.565648943185806" lon="12.470216928049922">
        <ele>55.07</ele>
        <time>2025-02-05T12:26:11.012Z</time>
      </trkpt>
      <trkpt lat="58.56558792293072" lon="12.470118943601847">
        <ele>55.1</ele>
        <time>2025-02-05T12:26:34.594Z</time>
      </trkpt>
      <trkpt lat="58.56552799232304" lon="12.47001894749701">
        <ele>55.13</ele>
        <time>2025-02-05T12:26:58.177Z</time>
      </trkpt>
      <trkpt lat="58.56546898372471" lon="12.469916939735413">
        <ele>55.15</ele>
        <time>2025-02-05T12:27:21.761Z</time>
      </trkpt>
      <trkpt lat="58.565409975126386" lon="12.469812920317054">
        <ele>55.18</ele>
        <time>2025-02-05T12:27:45.346Z</time>
      </trkpt>
      <trkpt lat="58.56535197235644" lon="12.469707978889346">
        <ele>55.2</ele>
        <time>2025-02-05T12:28:08.933Z</time>
      </trkpt>
      <trkpt lat="58.56529497541487" lon="12.469602953642607">
        <ele>55.23</ele>
        <time>2025-02-05T12:28:32.521Z</time>
      </trkpt>
      <trkpt lat="58.565237978473306" lon="12.469493988901377">
        <ele>55.26</ele>
        <time>2025-02-05T12:28:56.110Z</time>
      </trkpt>
      <trkpt lat="58.56518198736012" lon="12.469383934512734">
        <ele>55.28</ele>
        <time>2025-02-05T12:29:19.700Z</time>
      </trkpt>
      <trkpt lat="58.565125996246934" lon="12.469271952286363">
        <ele>55.31</ele>
        <time>2025-02-05T12:29:43.292Z</time>
      </trkpt>
      <trkpt lat="58.56507193297148" lon="12.46915795840323">
        <ele>55.33</ele>
        <time>2025-02-05T12:30:06.885Z</time>
      </trkpt>
      <trkpt lat="58.56501895934343" lon="12.469042958691716">
        <ele>55.37</ele>
        <time>2025-02-05T12:30:30.479Z</time>
      </trkpt>
      <trkpt lat="58.56496799737215" lon="12.468929970636964">
        <ele>55.4</ele>
        <time>2025-02-05T12:30:54.075Z</time>
      </trkpt>
      <trkpt lat="58.5649189632386" lon="12.46881497092545">
        <ele>55.42</ele>
        <time>2025-02-05T12:31:17.672Z</time>
      </trkpt>
      <trkpt lat="58.564871940761805" lon="12.468697959557176">
        <ele>55.45</ele>
        <time>2025-02-05T12:31:41.270Z</time>
      </trkpt>
      <trkpt lat="58.56482592411339" lon="12.46857994236052">
        <ele>55.47</ele>
        <time>2025-02-05T12:32:04.869Z</time>
      </trkpt>
      <trkpt lat="58.56477999128401" lon="12.468459997326136">
        <ele>55.5</ele>
        <time>2025-02-05T12:32:28.470Z</time>
      </trkpt>
      <trkpt lat="58.56473699212074" lon="12.468337956815958">
        <ele>55.52</ele>
        <time>2025-02-05T12:32:52.072Z</time>
      </trkpt>
      <trkpt lat="58.56469692662358" lon="12.46821097098291">
        <ele>55.55</ele>
        <time>2025-02-05T12:33:15.675Z</time>
      </trkpt>
      <trkpt lat="58.564658956602216" lon="12.4680819734931">
        <ele>55.57</ele>
        <time>2025-02-05T12:33:39.279Z</time>
      </trkpt>
      <trkpt lat="58.56462199240923" lon="12.467951970174909">
        <ele>55.6</ele>
        <time>2025-02-05T12:34:02.885Z</time>
      </trkpt>
      <trkpt lat="58.56458393856883" lon="12.467820961028337">
        <ele>55.62</ele>
        <time>2025-02-05T12:34:26.492Z</time>
      </trkpt>
      <trkpt lat="58.56454496271908" lon="12.467690957710147">
        <ele>55.64</ele>
        <time>2025-02-05T12:34:50.100Z</time>
      </trkpt>
      <trkpt lat="58.56450296938419" lon="12.467562966048717">
        <ele>55.66</ele>
        <time>2025-02-05T12:35:13.709Z</time>
      </trkpt>
      <trkpt lat="58.56445896439254" lon="12.46743698604405">
        <ele>55.69</ele>
        <time>2025-02-05T12:35:37.320Z</time>
      </trkpt>
      <trkpt lat="58.56441395357251" lon="12.46731293387711">
        <ele>55.72</ele>
        <time>2025-02-05T12:36:00.932Z</time>
      </trkpt>
      <trkpt lat="58.5643679369241" lon="12.467190977185965">
        <ele>55.74</ele>
        <time>2025-02-05T12:36:24.545Z</time>
      </trkpt>
      <trkpt lat="58.5643179807812" lon="12.467069942504168">
        <ele>55.76</ele>
        <time>2025-02-05T12:36:48.159Z</time>
      </trkpt>
      <trkpt lat="58.56426794081926" lon="12.466948991641402">
        <ele>55.78</ele>
        <time>2025-02-05T12:37:11.775Z</time>
      </trkpt>
      <trkpt lat="58.5642159730196" lon="12.466831980273128">
        <ele>55.8</ele>
        <time>2025-02-05T12:37:35.392Z</time>
      </trkpt>
      <trkpt lat="58.564159981906414" lon="12.466716980561614">
        <ele>55.82</ele>
        <time>2025-02-05T12:37:59.010Z</time>
      </trkpt>
      <trkpt lat="58.56410298496485" lon="12.466605920344591">
        <ele>55.84</ele>
        <time>2025-02-05T12:38:22.630Z</time>
      </trkpt>
      <trkpt lat="58.56404297053814" lon="12.466500978916883">
        <ele>55.86</ele>
        <time>2025-02-05T12:38:46.251Z</time>
      </trkpt>
      <trkpt lat="58.56398094445467" lon="12.466400982812047">
        <ele>55.88</ele>
        <time>2025-02-05T12:39:09.873Z</time>
      </trkpt>
      <trkpt lat="58.56391699053347" lon="12.466305932030082">
        <ele>55.9</ele>
        <time>2025-02-05T12:39:33.497Z</time>
      </trkpt>
      <trkpt lat="58.56385194696486" lon="12.466210965067148">
        <ele>55.92</ele>
        <time>2025-02-05T12:39:57.122Z</time>
      </trkpt>
      <trkpt lat="58.56378698721528" lon="12.466117925941944">
        <ele>55.93</ele>
        <time>2025-02-05T12:40:20.748Z</time>
      </trkpt>
      <trkpt lat="58.56372294947505" lon="12.466026982292533">
        <ele>55.95</ele>
        <time>2025-02-05T12:40:44.375Z</time>
      </trkpt>
      <trkpt lat="58.56365899555385" lon="12.46593494899571">
        <ele>55.96</ele>
        <time>2025-02-05T12:41:08.004Z</time>
      </trkpt>
      <trkpt lat="58.56359495781362" lon="12.465841993689537">
        <ele>55.98</ele>
        <time>2025-02-05T12:41:31.634Z</time>
      </trkpt>
      <trkpt lat="58.56352999806404" lon="12.465751972049475">
        <ele>56.0</ele>
        <time>2025-02-05T12:41:55.265Z</time>
      </trkpt>
      <trkpt lat="58.56346696615219" lon="12.465661950409412">
        <ele>56.01</ele>
        <time>2025-02-05T12:42:18.898Z</time>
      </trkpt>
      <trkpt lat="58.56340393424034" lon="12.465574946254492">
        <ele>56.02</ele>
        <time>2025-02-05T12:42:42.532Z</time>
      </trkpt>
      <trkpt lat="58.5633419919759" lon="12.46548593044281">
        <ele>56.04</ele>
        <time>2025-02-05T12:43:06.167Z</time>
      </trkpt>
      <trkpt lat="58.563280971720815" lon="12.46539599262178">
        <ele>56.05</ele>
        <time>2025-02-05T12:43:29.803Z</time>
      </trkpt>
      <trkpt lat="58.563217939808965" lon="12.465307982638478">
        <ele>56.06</ele>
        <time>2025-02-05T12:43:53.441Z</time>
      </trkpt>
      <trkpt lat="58.56315599754453" lon="12.465221984311938">
        <ele>56.07</ele>
        <time>2025-02-05T12:44:17.080Z</time>
      </trkpt>
      <trkpt lat="58.56309296563268" lon="12.465132968500257">
        <ele>56.09</ele>
        <time>2025-02-05T12:44:40.720Z</time>
      </trkpt>
      <trkpt lat="58.56302892789245" lon="12.465041941031814">
        <ele>56.1</ele>
        <time>2025-02-05T12:45:04.361Z</time>
      </trkpt>
      <trkpt lat="58.56296497397125" lon="12.464952925220132">
        <ele>56.11</ele>
        <time>2025-02-05T12:45:28.004Z</time>
      </trkpt>
      <trkpt lat="58.5629019420594" lon="12.464864999055862">
        <ele>56.12</ele>
        <time>2025-02-05T12:45:51.648Z</time>
      </trkpt>
      <trkpt lat="58.56283999979496" lon="12.464776989072561">
        <ele>56.13</ele>
        <time>2025-02-05T12:46:15.293Z</time>
      </trkpt>
      <trkpt lat="58.56277897953987" lon="12.464686967432499">
        <ele>56.13</ele>
        <time>2025-02-05T12:46:38.939Z</time>
      </trkpt>
      <trkpt lat="58.5627169534564" lon="12.464597951620817">
        <ele>56.15</ele>
        <time>2025-02-05T12:47:02.587Z</time>
      </trkpt>
      <trkpt lat="58.56265392154455" lon="12.464508935809135">
        <ele>56.16</ele>
        <time>2025-02-05T12:47:26.236Z</time>
      </trkpt>
      <trkpt lat="58.562591979280114" lon="12.464420925825834">
        <ele>56.17</ele>
        <time>2025-02-05T12:47:49.886Z</time>
      </trkpt>
      <trkpt lat="58.562529953196645" lon="12.464333921670914">
        <ele>56.17</ele>
        <time>2025-02-05T12:48:13.537Z</time>
      </trkpt>
      <trkpt lat="58.562467927113175" lon="12.464246917515993">
        <ele>56.18</ele>
        <time>2025-02-05T12:48:37.189Z</time>
      </trkpt>
      <trkpt lat="58.56240497902036" lon="12.464158991351724">
        <ele>56.19</ele>
        <time>2025-02-05T12:49:00.843Z</time>
      </trkpt>
      <trkpt lat="58.56234194710851" lon="12.464069975540042">
        <ele>56.19</ele>
        <time>2025-02-05T12:49:24.498Z</time>
      </trkpt>
      <trkpt lat="58.56227799318731" lon="12.46397995389998">
        <ele>56.19</ele>
        <time>2025-02-05T12:49:48.154Z</time>
      </trkpt>
      <trkpt lat="58.56221496127546" lon="12.463890938088298">
        <ele>56.2</ele>
        <time>2025-02-05T12:50:11.812Z</time>
      </trkpt>
      <trkpt lat="58.56215293519199" lon="12.463800916448236">
        <ele>56.2</ele>
        <time>2025-02-05T12:50:35.471Z</time>
      </trkpt>
      <trkpt lat="58.56208998709917" lon="12.463710978627205">
        <ele>56.19</ele>
        <time>2025-02-05T12:50:59.131Z</time>
      </trkpt>
      <trkpt lat="58.56202695518732" lon="12.463619951158762">
        <ele>56.19</ele>
        <time>2025-02-05T12:51:22.792Z</time>
      </trkpt>
      <trkpt lat="58.56196291744709" lon="12.463528923690319">
        <ele>56.19</ele>
        <time>2025-02-05T12:51:46.455Z</time>
      </trkpt>
      <trkpt lat="58.56189996935427" lon="12.463438985869288">
        <ele>56.19</ele>
        <time>2025-02-05T12:52:10.119Z</time>
      </trkpt>
      <trkpt lat="58.56183593161404" lon="12.463348964229226">
        <ele>56.19</ele>
        <time>2025-02-05T12:52:33.784Z</time>
      </trkpt>
      <trkpt lat="58.56177197769284" lon="12.463259948417544">
        <ele>56.19</ele>
        <time>2025-02-05T12:52:57.450Z</time>
      </trkpt>
      <trkpt lat="58.56170693412423" lon="12.463171938434243">
        <ele>56.19</ele>
        <time>2025-02-05T12:53:21.118Z</time>
      </trkpt>
      <trkpt lat="58.56164398603141" lon="12.463084934279323">
        <ele>56.19</ele>
        <time>2025-02-05T12:53:44.787Z</time>
      </trkpt>
      <trkpt lat="58.561581959947944" lon="12.462996924296021">
        <ele>56.19</ele>
        <time>2025-02-05T12:54:08.457Z</time>
      </trkpt>
      <trkpt lat="58.561519933864474" lon="12.4629099201411">
        <ele>56.19</ele>
        <time>2025-02-05T12:54:32.128Z</time>
      </trkpt>
      <trkpt lat="58.561456985771656" lon="12.462821993976831">
        <ele>56.18</ele>
        <time>2025-02-05T12:54:55.801Z</time>
      </trkpt>
      <trkpt lat="58.561393953859806" lon="12.46273398399353">
        <ele>56.18</ele>
        <time>2025-02-05T12:55:19.475Z</time>
      </trkpt>
      <trkpt lat="58.56133192777634" lon="12.462644968181849">
        <ele>56.17</ele>
        <time>2025-02-05T12:55:43.150Z</time>
      </trkpt>
      <trkpt lat="58.56126897968352" lon="12.462555952370167">
        <ele>56.17</ele>
        <time>2025-02-05T12:56:06.826Z</time>
      </trkpt>
      <trkpt lat="58.56120695360005" lon="12.462467942386866">
        <ele>56.17</ele>
        <time>2025-02-05T12:56:30.504Z</time>
      </trkpt>
      <trkpt lat="58.56114492751658" lon="12.462378926575184">
        <ele>56.16</ele>
        <time>2025-02-05T12:56:54.183Z</time>
      </trkpt>
      <trkpt lat="58.56108298525214" lon="12.462289994582534">
        <ele>56.15</ele>
        <time>2025-02-05T12:57:17.863Z</time>
      </trkpt>
      <trkpt lat="58.56101995334029" lon="12.462199972942472">
        <ele>56.15</ele>
        <time>2025-02-05T12:57:41.544Z</time>
      </trkpt>
      <trkpt lat="58.56095792725682" lon="12.46210995130241">
        <ele>56.14</ele>
        <time>2025-02-05T12:58:05.227Z</time>
      </trkpt>
      <trkpt lat="58.560893973335624" lon="12.462020935490727">
        <ele>56.13</ele>
        <time>2025-02-05T12:58:28.911Z</time>
      </trkpt>
      <trkpt lat="58.56082993559539" lon="12.461931919679046">
        <ele>56.13</ele>
        <time>2025-02-05T12:58:52.596Z</time>
      </trkpt>
      <trkpt lat="58.560766987502575" lon="12.461842987686396">
        <ele>56.12</ele>
        <time>2025-02-05T12:59:16.282Z</time>
      </trkpt>
      <trkpt lat="58.560704961419106" lon="12.461754977703094">
        <ele>56.11</ele>
        <time>2025-02-05T12:59:39.970Z</time>
      </trkpt>
      <trkpt lat="58.560642935335636" lon="12.461666967719793">
        <ele>56.1</ele>
        <time>2025-02-05T13:00:03.659Z</time>
      </trkpt>
      <trkpt lat="58.56057998724282" lon="12.461578957736492">
        <ele>56.09</ele>
        <time>2025-02-05T13:00:27.349Z</time>
      </trkpt>
      <trkpt lat="58.56051796115935" lon="12.46148994192481">
        <ele>56.08</ele>
        <time>2025-02-05T13:00:51.040Z</time>
      </trkpt>
      <trkpt lat="58.56045694090426" lon="12.46140193194151">
        <ele>56.07</ele>
        <time>2025-02-05T13:01:14.733Z</time>
      </trkpt>
      <trkpt lat="58.56039499863982" lon="12.461313921958208">
        <ele>56.06</ele>
        <time>2025-02-05T13:01:38.427Z</time>
      </trkpt>
      <trkpt lat="58.560334984213114" lon="12.461227923631668">
        <ele>56.05</ele>
        <time>2025-02-05T13:02:02.122Z</time>
      </trkpt>
      <trkpt lat="58.560273963958025" lon="12.461142931133509">
        <ele>56.04</ele>
        <time>2025-02-05T13:02:25.818Z</time>
      </trkpt>
      <trkpt lat="58.560212943702936" lon="12.46105894446373">
        <ele>56.03</ele>
        <time>2025-02-05T13:02:49.515Z</time>
      </trkpt>
      <trkpt lat="58.56015091761947" lon="12.46097294613719">
        <ele>56.02</ele>
        <time>2025-02-05T13:03:13.214Z</time>
      </trkpt>
      <trkpt lat="58.56008796952665" lon="12.460884936153889">
        <ele>56.01</ele>
        <time>2025-02-05T13:03:36.914Z</time>
      </trkpt>
      <trkpt lat="58.56002393178642" lon="12.460795920342207">
        <ele>55.99</ele>
        <time>2025-02-05T13:04:00.615Z</time>
      </trkpt>
      <trkpt lat="58.5599609836936" lon="12.460705982521176">
        <ele>55.98</ele>
        <time>2025-02-05T13:04:24.317Z</time>
      </trkpt>
      <trkpt lat="58.55989594012499" lon="12.460613949224353">
        <ele>55.97</ele>
        <time>2025-02-05T13:04:48.021Z</time>
      </trkpt>
      <trkpt lat="58.55983198620379" lon="12.4605199880898">
        <ele>55.96</ele>
        <time>2025-02-05T13:05:11.726Z</time>
      </trkpt>
      <trkpt lat="58.55976895429194" lon="12.460428960621357">
        <ele>55.94</ele>
        <time>2025-02-05T13:05:35.432Z</time>
      </trkpt>
      <trkpt lat="58.55970491655171" lon="12.460337933152914">
        <ele>55.93</ele>
        <time>2025-02-05T13:05:59.140Z</time>
      </trkpt>
      <trkpt lat="58.55964196845889" lon="12.460249923169613">
        <ele>55.92</ele>
        <time>2025-02-05T13:06:22.849Z</time>
      </trkpt>
      <trkpt lat="58.55957893654704" lon="12.460160991176963">
        <ele>55.9</ele>
        <time>2025-02-05T13:06:46.559Z</time>
      </trkpt>
      <trkpt lat="58.55951598845422" lon="12.460072981193662">
        <ele>55.89</ele>
        <time>2025-02-05T13:07:10.270Z</time>
      </trkpt>
      <trkpt lat="58.55945295654237" lon="12.45998497121036">
        <ele>55.88</ele>
        <time>2025-02-05T13:07:33.983Z</time>
      </trkpt>
      <trkpt lat="58.55938992463052" lon="12.459894949570298">
        <ele>55.86</ele>
        <time>2025-02-05T13:07:57.697Z</time>
      </trkpt>
      <trkpt lat="58.559326976537704" lon="12.459803922101855">
        <ele>55.85</ele>
        <time>2025-02-05T13:08:21.412Z</time>
      </trkpt>
      <trkpt lat="58.559263944625854" lon="12.459712978452444">
        <ele>55.84</ele>
        <time>2025-02-05T13:08:45.128Z</time>
      </trkpt>
      <trkpt lat="58.559200996533036" lon="12.459621950984001">
        <ele>55.82</ele>
        <time>2025-02-05T13:09:08.846Z</time>
      </trkpt>
      <trkpt lat="58.559137964621186" lon="12.459531929343939">
        <ele>55.8</ele>
        <time>2025-02-05T13:09:32.565Z</time>
      </trkpt>
      <trkpt lat="58.559074932709336" lon="12.459440985694528">
        <ele>55.79</ele>
        <time>2025-02-05T13:09:56.285Z</time>
      </trkpt>
      <trkpt lat="58.55901097878814" lon="12.459350964054465">
        <ele>55.77</ele>
        <time>2025-02-05T13:10:20.006Z</time>
      </trkpt>
      <trkpt lat="58.55894794687629" lon="12.459259936586022">
        <ele>55.76</ele>
        <time>2025-02-05T13:10:43.729Z</time>
      </trkpt>
      <trkpt lat="58.55888399295509" lon="12.459169998764992">
        <ele>55.74</ele>
        <time>2025-02-05T13:11:07.453Z</time>
      </trkpt>
      <trkpt lat="58.55882096104324" lon="12.459078971296549">
        <ele>55.73</ele>
        <time>2025-02-05T13:11:31.178Z</time>
      </trkpt>
      <trkpt lat="58.55875692330301" lon="12.458987943828106">
        <ele>55.71</ele>
        <time>2025-02-05T13:11:54.905Z</time>
      </trkpt>
      <trkpt lat="58.55869296938181" lon="12.458897922188044">
        <ele>55.69</ele>
        <time>2025-02-05T13:12:18.633Z</time>
      </trkpt>
      <trkpt lat="58.55863094329834" lon="12.458808990195394">
        <ele>55.67</ele>
        <time>2025-02-05T13:12:42.362Z</time>
      </trkpt>
      <trkpt lat="58.55856799520552" lon="12.458720980212092">
        <ele>55.66</ele>
        <time>2025-02-05T13:13:06.092Z</time>
      </trkpt>
      <trkpt lat="58.55850496329367" lon="12.45863095857203">
        <ele>55.65</ele>
        <time>2025-02-05T13:13:29.824Z</time>
      </trkpt>
      <trkpt lat="58.55844092555344" lon="12.458540936931968">
        <ele>55.63</ele>
        <time>2025-02-05T13:13:53.557Z</time>
      </trkpt>
      <trkpt lat="58.55837797746062" lon="12.458449993282557">
        <ele>55.62</ele>
        <time>2025-02-05T13:14:17.291Z</time>
      </trkpt>
      <trkpt lat="58.55831393972039" lon="12.458359971642494">
        <ele>55.61</ele>
        <time>2025-02-05T13:14:41.026Z</time>
      </trkpt>
      <trkpt lat="58.55824897997081" lon="12.458270955830812">
        <ele>55.6</ele>
        <time>2025-02-05T13:15:04.763Z</time>
      </trkpt>
      <trkpt lat="58.55818494223058" lon="12.458182945847511">
        <ele>55.59</ele>
        <time>2025-02-05T13:15:28.501Z</time>
      </trkpt>
      <trkpt lat="58.55812098830938" lon="12.458091918379068">
        <ele>55.58</ele>
        <time>2025-02-05T13:15:52.240Z</time>
      </trkpt>
      <trkpt lat="58.55805695056915" lon="12.458000974729657">
        <ele>55.57</ele>
        <time>2025-02-05T13:16:15.980Z</time>
      </trkpt>
      <trkpt lat="58.557992996647954" lon="12.457911958917975">
        <ele>55.55</ele>
        <time>2025-02-05T13:16:39.722Z</time>
      </trkpt>
      <trkpt lat="58.55792795307934" lon="12.457821937277913">
        <ele>55.54</ele>
        <time>2025-02-05T13:17:03.465Z</time>
      </trkpt>
      <trkpt lat="58.55786299332976" lon="12.457732921466231">
        <ele>55.52</ele>
        <time>2025-02-05T13:17:27.209Z</time>
      </trkpt>
      <trkpt lat="58.55779694393277" lon="12.45764591731131">
        <ele>55.51</ele>
        <time>2025-02-05T13:17:50.955Z</time>
      </trkpt>
      <trkpt lat="58.55773097835481" lon="12.45755991898477">
        <ele>55.5</ele>
        <time>2025-02-05T13:18:14.702Z</time>
      </trkpt>
      <trkpt lat="58.55766492895782" lon="12.457477943971753">
        <ele>55.48</ele>
        <time>2025-02-05T13:18:38.450Z</time>
      </trkpt>
      <trkpt lat="58.5575969517231" lon="12.457397980615497">
        <ele>55.47</ele>
        <time>2025-02-05T13:19:02.199Z</time>
      </trkpt>
      <trkpt lat="58.55752897448838" lon="12.457317933440208">
        <ele>55.46</ele>
        <time>2025-02-05T13:19:25.950Z</time>
      </trkpt>
      <trkpt lat="58.557459991425276" lon="12.457239981740713">
        <ele>55.45</ele>
        <time>2025-02-05T13:19:49.702Z</time>
      </trkpt>
      <trkpt lat="58.55738991871476" lon="12.457160940393806">
        <ele>55.44</ele>
        <time>2025-02-05T13:20:13.455Z</time>
      </trkpt>
      <trkpt lat="58.55732194148004" lon="12.457080977037549">
        <ele>55.43</ele>
        <time>2025-02-05T13:20:37.210Z</time>
      </trkpt>
      <trkpt lat="58.55725295841694" lon="12.457003947347403">
        <ele>55.41</ele>
        <time>2025-02-05T13:21:00.966Z</time>
      </trkpt>
      <trkpt lat="58.55718397535384" lon="12.456926917657256">
        <ele>55.41</ele>
        <time>2025-02-05T13:21:24.723Z</time>
      </trkpt>
      <trkpt lat="58.557113986462355" lon="12.45684896595776">
        <ele>55.4</ele>
        <time>2025-02-05T13:21:48.481Z</time>
      </trkpt>
      <trkpt lat="58.55704399757087" lon="12.456771936267614">
        <ele>55.39</ele>
        <time>2025-02-05T13:22:12.241Z</time>
      </trkpt>
      <trkpt lat="58.55697493068874" lon="12.456693984568119">
        <ele>55.39</ele>
        <time>2025-02-05T13:22:36.002Z</time>
      </trkpt>
      <trkpt lat="58.55690494179726" lon="12.456615949049592">
        <ele>55.38</ele>
        <time>2025-02-05T13:22:59.764Z</time>
      </trkpt>
      <trkpt lat="58.556836964562535" lon="12.456537997350097">
        <ele>55.37</ele>
        <time>2025-02-05T13:23:23.528Z</time>
      </trkpt>
      <trkpt lat="58.556768987327814" lon="12.45645996183157">
        <ele>55.36</ele>
        <time>2025-02-05T13:23:47.293Z</time>
      </trkpt>
      <trkpt lat="58.55670092627406" lon="12.456378992646933">
        <ele>55.35</ele>
        <time>2025-02-05T13:24:11.059Z</time>
      </trkpt>
      <trkpt lat="58.55663194321096" lon="12.456296933814883">
        <ele>55.34</ele>
        <time>2025-02-05T13:24:34.826Z</time>
      </trkpt>
      <trkpt lat="58.55656195431948" lon="12.456212947145104">
        <ele>55.33</ele>
        <time>2025-02-05T13:24:58.595Z</time>
      </trkpt>
      <trkpt lat="58.556491965427995" lon="12.456127954646945">
        <ele>55.33</ele>
        <time>2025-02-05T13:25:22.365Z</time>
      </trkpt>
      <trkpt lat="58.55642097070813" lon="12.456042962148786">
        <ele>55.31</ele>
        <time>2025-02-05T13:25:46.136Z</time>
      </trkpt>
      <trkpt lat="58.55634997598827" lon="12.455958975479007">
        <ele>55.3</ele>
        <time>2025-02-05T13:26:09.909Z</time>
      </trkpt>
      <trkpt lat="58.556277975440025" lon="12.455874988809228">
        <ele>55.29</ele>
        <time>2025-02-05T13:26:33.683Z</time>
      </trkpt>
      <trkpt lat="58.55620396323502" lon="12.455788990482688">
        <ele>55.28</ele>
        <time>2025-02-05T13:26:57.459Z</time>
      </trkpt>
      <trkpt lat="58.556129951030016" lon="12.455702992156148">
        <ele>55.28</ele>
        <time>2025-02-05T13:27:21.236Z</time>
      </trkpt>
      <trkpt lat="58.55605694465339" lon="12.455617999657989">
        <ele>55.28</ele>
        <time>2025-02-05T13:27:45.014Z</time>
      </trkpt>
      <trkpt lat="58.55598192662001" lon="12.455532923340797">
        <ele>55.27</ele>
        <time>2025-02-05T13:28:08.794Z</time>
      </trkpt>
      <trkpt lat="58.55590699240565" lon="12.455443991348147">
        <ele>55.27</ele>
        <time>2025-02-05T13:28:32.575Z</time>
      </trkpt>
      <trkpt lat="58.55583197437227" lon="12.455351958051324">
        <ele>55.27</ele>
        <time>2025-02-05T13:28:56.358Z</time>
      </trkpt>
      <trkpt lat="58.55575494468212" lon="12.455262942239642">
        <ele>55.27</ele>
        <time>2025-02-05T13:29:20.142Z</time>
      </trkpt>
      <trkpt lat="58.555678920820355" lon="12.455171998590231">
        <ele>55.27</ele>
        <time>2025-02-05T13:29:43.927Z</time>
      </trkpt>
      <trkpt lat="58.55560197494924" lon="12.45508298277855">
        <ele>55.27</ele>
        <time>2025-02-05T13:30:07.714Z</time>
      </trkpt>
      <trkpt lat="58.555527962744236" lon="12.454991955310106">
        <ele>55.28</ele>
        <time>2025-02-05T13:30:31.502Z</time>
      </trkpt>
      <trkpt lat="58.55545395053923" lon="12.454900927841663">
        <ele>55.28</ele>
        <time>2025-02-05T13:30:55.292Z</time>
      </trkpt>
      <trkpt lat="58.555378932505846" lon="12.454812917858362">
        <ele>55.29</ele>
        <time>2025-02-05T13:31:19.083Z</time>
      </trkpt>
      <trkpt lat="58.55530399829149" lon="12.454726919531822">
        <ele>55.3</ele>
        <time>2025-02-05T13:31:42.875Z</time>
      </trkpt>
      <trkpt lat="58.55522898025811" lon="12.454640921205282">
        <ele>55.31</ele>
        <time>2025-02-05T13:32:06.669Z</time>
      </trkpt>
      <trkpt lat="58.55515597388148" lon="12.454552995041013">
        <ele>55.32</ele>
        <time>2025-02-05T13:32:30.464Z</time>
      </trkpt>
      <trkpt lat="58.55508296750486" lon="12.454465990886092">
        <ele>55.33</ele>
        <time>2025-02-05T13:32:54.261Z</time>
      </trkpt>
      <trkpt lat="58.555010966956615" lon="12.454378986731172">
        <ele>55.34</ele>
        <time>2025-02-05T13:33:18.059Z</time>
      </trkpt>
      <trkpt lat="58.55493896640837" lon="12.45429097674787">
        <ele>55.35</ele>
        <time>2025-02-05T13:33:41.858Z</time>
      </trkpt>
      <trkpt lat="58.55486696586013" lon="12.45420397259295">
        <ele>55.37</ele>
        <time>2025-02-05T13:34:05.659Z</time>
      </trkpt>
      <trkpt lat="58.554795971140265" lon="12.45411898009479">
        <ele>55.38</ele>
        <time>2025-02-05T13:34:29.461Z</time>
      </trkpt>
      <trkpt lat="58.5547249764204" lon="12.45403298176825">
        <ele>55.4</ele>
        <time>2025-02-05T13:34:53.264Z</time>
      </trkpt>
      <trkpt lat="58.55465297587216" lon="12.453947989270091">
        <ele>55.41</ele>
        <time>2025-02-05T13:35:17.069Z</time>
      </trkpt>
      <trkpt lat="58.554581981152296" lon="12.45386098511517">
        <ele>55.43</ele>
        <time>2025-02-05T13:35:40.875Z</time>
      </trkpt>
      <trkpt lat="58.55451098643243" lon="12.453776998445392">
        <ele>55.45</ele>
        <time>2025-02-05T13:36:04.682Z</time>
      </trkpt>
      <trkpt lat="58.55443999171257" lon="12.453694939613342">
        <ele>55.47</ele>
        <time>2025-02-05T13:36:28.491Z</time>
      </trkpt>
      <trkpt lat="58.55436799116433" lon="12.453612964600325">
        <ele>55.49</ele>
        <time>2025-02-05T13:36:52.301Z</time>
      </trkpt>
      <trkpt lat="58.554296996444464" lon="12.453532917425036">
        <ele>55.52</ele>
        <time>2025-02-05T13:37:16.112Z</time>
      </trkpt>
      <trkpt lat="58.55422499589622" lon="12.45345395989716">
        <ele>55.55</ele>
        <time>2025-02-05T13:37:39.925Z</time>
      </trkpt>
      <trkpt lat="58.554151989519596" lon="12.453377936035395">
        <ele>55.58</ele>
        <time>2025-02-05T13:38:03.739Z</time>
      </trkpt>
      <trkpt lat="58.55407998897135" lon="12.45330492965877">
        <ele>55.6</ele>
        <time>2025-02-05T13:38:27.554Z</time>
      </trkpt>
      <trkpt lat="58.55400597676635" lon="12.453234940767288">
        <ele>55.63</ele>
        <time>2025-02-05T13:38:51.371Z</time>
      </trkpt>
      <trkpt lat="58.55393095873296" lon="12.453168975189328">
        <ele>55.66</ele>
        <time>2025-02-05T13:39:15.189Z</time>
      </trkpt>
      <trkpt lat="58.55385694652796" lon="12.453106949105859">
        <ele>55.7</ele>
        <time>2025-02-05T13:39:39.008Z</time>
      </trkpt>
      <trkpt lat="58.55378293432295" lon="12.453048946335912">
        <ele>55.73</ele>
        <time>2025-02-05T13:40:02.829Z</time>
      </trkpt>
      <trkpt lat="58.55370992794633" lon="12.452991949394345">
        <ele>55.77</ele>
        <time>2025-02-05T13:40:26.651Z</time>
      </trkpt>
      <trkpt lat="58.553638933226466" lon="12.452933946624398">
        <ele>55.8</ele>
        <time>2025-02-05T13:40:50.474Z</time>
      </trkpt>
      <trkpt lat="58.553569950163364" lon="12.452878961339593">
        <ele>55.84</ele>
        <time>2025-02-05T13:41:14.298Z</time>
      </trkpt>
      <trkpt lat="58.5534989554435" lon="12.45282992720604">
        <ele>55.87</ele>
        <time>2025-02-05T13:41:38.124Z</time>
      </trkpt>
      <trkpt lat="58.55342594906688" lon="12.45278399437666">
        <ele>55.91</ele>
        <time>2025-02-05T13:42:01.951Z</time>
      </trkpt>
      <trkpt lat="58.553353948518634" lon="12.452739989385009">
        <ele>55.95</ele>
        <time>2025-02-05T13:42:25.779Z</time>
      </trkpt>
      <trkpt lat="58.55328395962715" lon="12.45269799605012">
        <ele>55.99</ele>
        <time>2025-02-05T13:42:49.608Z</time>
      </trkpt>
      <trkpt lat="58.55321296490729" lon="12.45265793055296">
        <ele>56.03</ele>
        <time>2025-02-05T13:43:13.438Z</time>
      </trkpt>
      <trkpt lat="58.553142976015806" lon="12.452619960531592">
        <ele>56.08</ele>
        <time>2025-02-05T13:43:37.270Z</time>
      </trkpt>
      <trkpt lat="58.55307198129594" lon="12.452582996338606">
        <ele>56.12</ele>
        <time>2025-02-05T13:44:01.103Z</time>
      </trkpt>
      <trkpt lat="58.55299897491932" lon="12.45254896581173">
        <ele>56.16</ele>
        <time>2025-02-05T13:44:24.937Z</time>
      </trkpt>
      <trkpt lat="58.552924962714314" lon="12.452516946941614">
        <ele>56.21</ele>
        <time>2025-02-05T13:44:48.772Z</time>
      </trkpt>
      <trkpt lat="58.55284994468093" lon="12.452483922243118">
        <ele>56.25</ele>
        <time>2025-02-05T13:45:12.608Z</time>
      </trkpt>
      <trkpt lat="58.55277392081916" lon="12.452450981363654">
        <ele>56.3</ele>
        <time>2025-02-05T13:45:36.446Z</time>
      </trkpt>
      <trkpt lat="58.55269697494805" lon="12.45241996832192">
        <ele>56.34</ele>
        <time>2025-02-05T13:46:00.285Z</time>
      </trkpt>
      <trkpt lat="58.55261893942952" lon="12.452390966936946">
        <ele>56.38</ele>
        <time>2025-02-05T13:46:24.125Z</time>
      </trkpt>
      <trkpt lat="58.552539981901646" lon="12.452365988865495">
        <ele>56.43</ele>
        <time>2025-02-05T13:46:47.966Z</time>
      </trkpt>
      <trkpt lat="58.55246194638312" lon="12.452342938631773">
        <ele>56.47</ele>
        <time>2025-02-05T13:47:11.809Z</time>
      </trkpt>
      <trkpt lat="58.55238399468362" lon="12.452318966388702">
        <ele>56.52</ele>
        <time>2025-02-05T13:47:35.653Z</time>
      </trkpt>
      <trkpt lat="58.552305959165096" lon="12.452294994145632">
        <ele>56.56</ele>
        <time>2025-02-05T13:47:59.498Z</time>
      </trkpt>
      <trkpt lat="58.55222892947495" lon="12.45227194391191">
        <ele>56.61</ele>
        <time>2025-02-05T13:48:23.345Z</time>
      </trkpt>
      <trkpt lat="58.552151983603835" lon="12.4522499833256">
        <ele>56.66</ele>
        <time>2025-02-05T13:48:47.193Z</time>
      </trkpt>
      <trkpt lat="58.55207595974207" lon="12.45222793892026">
        <ele>56.71</ele>
        <time>2025-02-05T13:49:11.042Z</time>
      </trkpt>
      <trkpt lat="58.5519999358803" lon="12.45220497250557">
        <ele>56.76</ele>
        <time>2025-02-05T13:49:34.892Z</time>
      </trkpt>
      <trkpt lat="58.55192299000919" lon="12.452180916443467">
        <ele>56.82</ele>
        <time>2025-02-05T13:49:58.744Z</time>
      </trkpt>
      <trkpt lat="58.5518479719758" lon="12.452158955857158">
        <ele>56.87</ele>
        <time>2025-02-05T13:50:22.597Z</time>
      </trkpt>
      <trkpt lat="58.5517739597708" lon="12.452137917280197">
        <ele>56.93</ele>
        <time>2025-02-05T13:50:46.451Z</time>
      </trkpt>
      <trkpt lat="58.551702965050936" lon="12.45211897417903">
        <ele>56.98</ele>
        <time>2025-02-05T13:51:10.306Z</time>
      </trkpt>
      <trkpt lat="58.551633981987834" lon="12.452097935602069">
        <ele>57.04</ele>
        <time>2025-02-05T13:51:34.162Z</time>
      </trkpt>
      <trkpt lat="58.55156399309635" lon="12.452078992500901">
        <ele>57.1</ele>
        <time>2025-02-05T13:51:58.019Z</time>
      </trkpt>
      <trkpt lat="58.55149693787098" lon="12.452061977237463">
        <ele>57.16</ele>
        <time>2025-02-05T13:52:21.877Z</time>
      </trkpt>
      <trkpt lat="58.5514319781214" lon="12.452041944488883">
        <ele>57.21</ele>
        <time>2025-02-05T13:52:45.736Z</time>
      </trkpt>
      <trkpt lat="58.55136693455279" lon="12.452023923397064">
        <ele>57.27</ele>
        <time>2025-02-05T13:53:09.597Z</time>
      </trkpt>
      <trkpt lat="58.55130298063159" lon="12.452003974467516">
        <ele>57.34</ele>
        <time>2025-02-05T13:53:33.459Z</time>
      </trkpt>
      <trkpt lat="58.55124095454812" lon="12.451983941718936">
        <ele>57.4</ele>
        <time>2025-02-05T13:53:57.322Z</time>
      </trkpt>
      <trkpt lat="58.55117993429303" lon="12.451964998617768">
        <ele>57.46</ele>
        <time>2025-02-05T13:54:21.186Z</time>
      </trkpt>
      <trkpt lat="58.551121931523085" lon="12.451945971697569">
        <ele>57.52</ele>
        <time>2025-02-05T13:54:45.051Z</time>
      </trkpt>
      <trkpt lat="58.55106493458152" lon="12.45192795060575">
        <ele>57.58</ele>
        <time>2025-02-05T13:55:08.916Z</time>
      </trkpt>
      <trkpt lat="58.551011960953474" lon="12.45190892368555">
        <ele>57.64</ele>
        <time>2025-02-05T13:55:32.782Z</time>
      </trkpt>
      <trkpt lat="58.55095999315381" lon="12.451889980584383">
        <ele>57.69</ele>
        <time>2025-02-05T13:55:56.649Z</time>
      </trkpt>
      <trkpt lat="58.550908947363496" lon="12.451870953664184">
        <ele>57.75</ele>
        <time>2025-02-05T13:56:20.517Z</time>
      </trkpt>
      <trkpt lat="58.55085697956383" lon="12.451850920915604">
        <ele>57.81</ele>
        <time>2025-02-05T13:56:44.386Z</time>
      </trkpt>
      <trkpt lat="58.55080492794514" lon="12.451828960329294">
        <ele>57.86</ele>
        <time>2025-02-05T13:57:08.256Z</time>
      </trkpt>
      <trkpt lat="58.550753965973854" lon="12.45179995894432">
        <ele>57.92</ele>
        <time>2025-02-05T13:57:32.127Z</time>
      </trkpt>
      <trkpt lat="58.55070392601192" lon="12.451769951730967">
        <ele>57.97</ele>
        <time>2025-02-05T13:57:55.998Z</time>
      </trkpt>
      <trkpt lat="58.55065396986902" lon="12.451742962002754">
        <ele>58.03</ele>
        <time>2025-02-05T13:58:19.870Z</time>
      </trkpt>
      <trkpt lat="58.550605941563845" lon="12.451710943132639">
        <ele>58.08</ele>
        <time>2025-02-05T13:58:43.743Z</time>
      </trkpt>
      <trkpt lat="58.55055992491543" lon="12.451676996424794">
        <ele>58.13</ele>
        <time>2025-02-05T13:59:07.617Z</time>
      </trkpt>
      <trkpt lat="58.55051399208605" lon="12.45164598338306">
        <ele>58.18</ele>
        <time>2025-02-05T13:59:31.492Z</time>
      </trkpt>
      <trkpt lat="58.5504699870944" lon="12.451616981998086">
        <ele>58.23</ele>
        <time>2025-02-05T13:59:55.367Z</time>
      </trkpt>
      <trkpt lat="58.55042497627437" lon="12.451580939814448">
        <ele>58.28</ele>
        <time>2025-02-05T14:00:19.243Z</time>
      </trkpt>
      <trkpt lat="58.55037895962596" lon="12.4515419639647">
        <ele>58.32</ele>
        <time>2025-02-05T14:00:43.120Z</time>
      </trkpt>
      <trkpt lat="58.55033093132079" lon="12.45149795897305">
        <ele>58.37</ele>
        <time>2025-02-05T14:01:06.998Z</time>
      </trkpt>
      <trkpt lat="58.550282986834645" lon="12.45145596563816">
        <ele>58.42</ele>
        <time>2025-02-05T14:01:30.877Z</time>
      </trkpt>
      <trkpt lat="58.55023194104433" lon="12.451407937332988">
        <ele>58.46</ele>
        <time>2025-02-05T14:01:54.757Z</time>
      </trkpt>
      <trkpt lat="58.55017997324467" lon="12.451357981190085">
        <ele>58.5</ele>
        <time>2025-02-05T14:02:18.637Z</time>
      </trkpt>
      <trkpt lat="58.55012699961662" lon="12.4513019900769">
        <ele>58.54</ele>
        <time>2025-02-05T14:02:42.518Z</time>
      </trkpt>
      <trkpt lat="58.55007595382631" lon="12.45123895816505">
        <ele>58.58</ele>
        <time>2025-02-05T14:03:06.400Z</time>
      </trkpt>
      <trkpt lat="58.550026919692755" lon="12.4511759262532">
        <ele>58.62</ele>
        <time>2025-02-05T14:03:30.283Z</time>
      </trkpt>
      <trkpt lat="58.54997897520661" lon="12.451113983988762">
        <ele>58.66</ele>
        <time>2025-02-05T14:03:54.167Z</time>
      </trkpt>
      <trkpt lat="58.54992994107306" lon="12.451054975390434">
        <ele>58.7</ele>
        <time>2025-02-05T14:04:18.052Z</time>
      </trkpt>
      <trkpt lat="58.54988199658692" lon="12.450995966792107">
        <ele>58.75</ele>
        <time>2025-02-05T14:04:41.938Z</time>
      </trkpt>
      <trkpt lat="58.54983597993851" lon="12.450931929051876">
        <ele>58.79</ele>
        <time>2025-02-05T14:05:05.825Z</time>
      </trkpt>
      <trkpt lat="58.549790969118476" lon="12.450864957645535">
        <ele>58.83</ele>
        <time>2025-02-05T14:05:29.713Z</time>
      </trkpt>
      <trkpt lat="58.549745958298445" lon="12.450800919905305">
        <ele>58.87</ele>
        <time>2025-02-05T14:05:53.602Z</time>
      </trkpt>
      <trkpt lat="58.54969692416489" lon="12.450737971812487">
        <ele>58.9</ele>
        <time>2025-02-05T14:06:17.492Z</time>
      </trkpt>
      <trkpt lat="58.54964696802199" lon="12.450673934072256">
        <ele>58.94</ele>
        <time>2025-02-05T14:06:41.383Z</time>
      </trkpt>
      <trkpt lat="58.549593994393945" lon="12.450605956837535">
        <ele>58.97</ele>
        <time>2025-02-05T14:07:05.275Z</time>
      </trkpt>
      <trkpt lat="58.54953892529011" lon="12.450527921319008">
        <ele>59.0</ele>
        <time>2025-02-05T14:07:29.168Z</time>
      </trkpt>
      <trkpt lat="58.54948494583368" lon="12.45044594630599">
        <ele>59.03</ele>
        <time>2025-02-05T14:07:53.062Z</time>
      </trkpt>
      <trkpt lat="58.549426943063736" lon="12.450357936322689">
        <ele>59.06</ele>
        <time>2025-02-05T14:08:16.957Z</time>
      </trkpt>
      <trkpt lat="58.54936994612217" lon="12.450278978794813">
        <ele>59.09</ele>
        <time>2025-02-05T14:08:40.853Z</time>
      </trkpt>
      <trkpt lat="58.54931194335222" lon="12.450199937447906">
        <ele>59.12</ele>
        <time>2025-02-05T14:09:04.750Z</time>
      </trkpt>
      <trkpt lat="58.549252934753895" lon="12.450115950778127">
        <ele>59.14</ele>
        <time>2025-02-05T14:09:28.649Z</time>
      </trkpt>
      <trkpt lat="58.54919292032719" lon="12.450033975765109">
        <ele>59.17</ele>
        <time>2025-02-05T14:09:52.549Z</time>
      </trkpt>
      <trkpt lat="58.54912896640599" lon="12.449944959953427">
        <ele>59.19</ele>
        <time>2025-02-05T14:10:16.450Z</time>
      </trkpt>
      <trkpt lat="58.54906492866576" lon="12.449861979112029">
        <ele>59.21</ele>
        <time>2025-02-05T14:10:40.352Z</time>
      </trkpt>
      <trkpt lat="58.5489989630878" lon="12.44977899827063">
        <ele>59.24</ele>
        <time>2025-02-05T14:11:04.256Z</time>
      </trkpt>
      <trkpt lat="58.54893199168146" lon="12.44969199411571">
        <ele>59.26</ele>
        <time>2025-02-05T14:11:28.161Z</time>
      </trkpt>
      <trkpt lat="58.548865942284465" lon="12.44960498996079">
        <ele>59.28</ele>
        <time>2025-02-05T14:11:52.067Z</time>
      </trkpt>
      <trkpt lat="58.548799976706505" lon="12.44952192530036">
        <ele>59.3</ele>
        <time>2025-02-05T14:12:15.974Z</time>
      </trkpt>
      <trkpt lat="58.548734933137894" lon="12.44943592697382">
        <ele>59.32</ele>
        <time>2025-02-05T14:12:39.883Z</time>
      </trkpt>
      <trkpt lat="58.54866796173155" lon="12.449351940304041">
        <ele>59.34</ele>
        <time>2025-02-05T14:13:03.793Z</time>
      </trkpt>
      <trkpt lat="58.54860099032521" lon="12.44926393032074">
        <ele>59.37</ele>
        <time>2025-02-05T14:13:27.704Z</time>
      </trkpt>
      <trkpt lat="58.54853292927146" lon="12.4491779319942">
        <ele>59.39</ele>
        <time>2025-02-05T14:13:51.617Z</time>
      </trkpt>
      <trkpt lat="58.5484619345516" lon="12.44909293949604">
        <ele>59.41</ele>
        <time>2025-02-05T14:14:15.531Z</time>
      </trkpt>
      <trkpt lat="58.548390939831734" lon="12.449007946997881">
        <ele>59.44</ele>
        <time>2025-02-05T14:14:39.446Z</time>
      </trkpt>
      <trkpt lat="58.54831893928349" lon="12.448922954499722">
        <ele>59.46</ele>
        <time>2025-02-05T14:15:03.363Z</time>
      </trkpt>
      <trkpt lat="58.548245932906866" lon="12.448838967829943">
        <ele>59.48</ele>
        <time>2025-02-05T14:15:27.281Z</time>
      </trkpt>
      <trkpt lat="58.54817292653024" lon="12.448753975331783">
        <ele>59.5</ele>
        <time>2025-02-05T14:15:51.200Z</time>
      </trkpt>
      <trkpt lat="58.54809899814427" lon="12.448670994490385">
        <ele>59.52</ele>
        <time>2025-02-05T14:16:15.121Z</time>
      </trkpt>
      <trkpt lat="58.5480229742825" lon="12.448590947315097">
        <ele>59.54</ele>
        <time>2025-02-05T14:16:39.043Z</time>
      </trkpt>
      <trkpt lat="58.54794594459236" lon="12.448514923453331">
        <ele>59.56</ele>
        <time>2025-02-05T14:17:02.967Z</time>
      </trkpt>
      <trkpt lat="58.54786899872124" lon="12.448441917076707">
        <ele>59.58</ele>
        <time>2025-02-05T14:17:26.892Z</time>
      </trkpt>
      <trkpt lat="58.547792974859476" lon="12.448370922356844">
        <ele>59.59</ele>
        <time>2025-02-05T14:17:50.818Z</time>
      </trkpt>
      <trkpt lat="58.54771695099771" lon="12.4482989218086">
        <ele>59.61</ele>
        <time>2025-02-05T14:18:14.746Z</time>
      </trkpt>
      <trkpt lat="58.547641932964325" lon="12.448225999251008">
        <ele>59.63</ele>
        <time>2025-02-05T14:18:38.675Z</time>
      </trkpt>
      <trkpt lat="58.5475689265877" lon="12.448147963732481">
        <ele>59.66</ele>
        <time>2025-02-05T14:19:02.605Z</time>
      </trkpt>
      <trkpt lat="58.54749893769622" lon="12.448061965405941">
        <ele>59.68</ele>
        <time>2025-02-05T14:19:26.537Z</time>
      </trkpt>
      <trkpt lat="58.54743498377502" lon="12.447961969301105">
        <ele>59.7</ele>
        <time>2025-02-05T14:19:50.470Z</time>
      </trkpt>
      <trkpt lat="58.54737396351993" lon="12.447850992903113">
        <ele>59.73</ele>
        <time>2025-02-05T14:20:14.404Z</time>
      </trkpt>
      <trkpt lat="58.547319984063506" lon="12.447729958221316">
        <ele>59.75</ele>
        <time>2025-02-05T14:20:38.340Z</time>
      </trkpt>
      <trkpt lat="58.54726994410157" lon="12.447600960731506">
        <ele>59.77</ele>
        <time>2025-02-05T14:21:02.277Z</time>
      </trkpt>
      <trkpt lat="58.54722493328154" lon="12.447467939928174">
        <ele>59.79</ele>
        <time>2025-02-05T14:21:26.215Z</time>
      </trkpt>
      <trkpt lat="58.54718293994665" lon="12.447333997115493">
        <ele>59.81</ele>
        <time>2025-02-05T14:21:50.155Z</time>
      </trkpt>
      <trkpt lat="58.547144969925284" lon="12.4471989646554">
        <ele>59.84</ele>
        <time>2025-02-05T14:22:14.096Z</time>
      </trkpt>
      <trkpt lat="58.547107921913266" lon="12.447062926366925">
        <ele>59.86</ele>
        <time>2025-02-05T14:22:38.038Z</time>
      </trkpt>
      <trkpt lat="58.54707196354866" lon="12.446927977725863">
        <ele>59.88</ele>
        <time>2025-02-05T14:23:01.982Z</time>
      </trkpt>
      <trkpt lat="58.547037933021784" lon="12.44679193943739">
        <ele>59.9</ele>
        <time>2025-02-05T14:23:25.927Z</time>
      </trkpt>
      <trkpt lat="58.54700298048556" lon="12.446656990796328">
        <ele>59.92</ele>
        <time>2025-02-05T14:23:49.873Z</time>
      </trkpt>
      <trkpt lat="58.54696693830192" lon="12.446522964164615">
        <ele>59.95</ele>
        <time>2025-02-05T14:24:13.820Z</time>
      </trkpt>
      <trkpt lat="58.546928968280554" lon="12.446389943361282">
        <ele>59.97</ele>
        <time>2025-02-05T14:24:37.769Z</time>
      </trkpt>
      <trkpt lat="58.546888986602426" lon="12.446258934214711">
        <ele>59.99</ele>
        <time>2025-02-05T14:25:01.719Z</time>
      </trkpt>
      <trkpt lat="58.546846993267536" lon="12.446129936724901">
        <ele>60.02</ele>
        <time>2025-02-05T14:25:25.670Z</time>
      </trkpt>
      <trkpt lat="58.546801982447505" lon="12.446001945063472">
        <ele>60.04</ele>
        <time>2025-02-05T14:25:49.622Z</time>
      </trkpt>
      <trkpt lat="58.54675395414233" lon="12.445875965058804">
        <ele>60.06</ele>
        <time>2025-02-05T14:26:13.576Z</time>
      </trkpt>
      <trkpt lat="58.54670399799943" lon="12.445752918720245">
        <ele>60.09</ele>
        <time>2025-02-05T14:26:37.531Z</time>
      </trkpt>
      <trkpt lat="58.546651946380734" lon="12.445633979514241">
        <ele>60.11</ele>
        <time>2025-02-05T14:27:01.487Z</time>
      </trkpt>
      <trkpt lat="58.54659897275269" lon="12.445517973974347">
        <ele>60.14</ele>
        <time>2025-02-05T14:27:25.445Z</time>
      </trkpt>
      <trkpt lat="58.546544993296266" lon="12.445404985919595">
        <ele>60.17</ele>
        <time>2025-02-05T14:27:49.404Z</time>
      </trkpt>
      <trkpt lat="58.54648992419243" lon="12.445291997864842">
        <ele>60.2</ele>
        <time>2025-02-05T14:28:13.364Z</time>
      </trkpt>
      <trkpt lat="58.54643393307924" lon="12.44518093764782">
        <ele>60.23</ele>
        <time>2025-02-05T14:28:37.325Z</time>
      </trkpt>
      <trkpt lat="58.54637894779444" lon="12.445069961249828">
        <ele>60.26</ele>
        <time>2025-02-05T14:29:01.288Z</time>
      </trkpt>
      <trkpt lat="58.54632396250963" lon="12.444960996508598">
        <ele>60.29</ele>
        <time>2025-02-05T14:29:25.252Z</time>
      </trkpt>
      <trkpt lat="58.546267971396446" lon="12.444855971261859">
        <ele>60.31</ele>
        <time>2025-02-05T14:29:49.217Z</time>
      </trkpt>
      <trkpt lat="58.54621198028326" lon="12.44475295767188">
        <ele>60.34</ele>
        <time>2025-02-05T14:30:13.184Z</time>
      </trkpt>
      <trkpt lat="58.546156994998455" lon="12.444651955738664">
        <ele>60.37</ele>
        <time>2025-02-05T14:30:37.152Z</time>
      </trkpt>
      <trkpt lat="58.54610192589462" lon="12.444552965462208">
        <ele>60.4</ele>
        <time>2025-02-05T14:31:01.121Z</time>
      </trkpt>
      <trkpt lat="58.54604694060981" lon="12.444452969357371">
        <ele>60.43</ele>
        <time>2025-02-05T14:31:25.091Z</time>
      </trkpt>
      <trkpt lat="58.54599094949663" lon="12.444354984909296">
        <ele>60.46</ele>
        <time>2025-02-05T14:31:49.062Z</time>
      </trkpt>
      <trkpt lat="58.54593596421182" lon="12.44425792247057">
        <ele>60.49</ele>
        <time>2025-02-05T14:32:13.035Z</time>
      </trkpt>
      <trkpt lat="58.5458819847554" lon="12.444160943850875">
        <ele>60.53</ele>
        <time>2025-02-05T14:32:37.009Z</time>
      </trkpt>
      <trkpt lat="58.54582792147994" lon="12.44406396523118">
        <ele>60.56</ele>
        <time>2025-02-05T14:33:00.984Z</time>
      </trkpt>
      <trkpt lat="58.545773942023516" lon="12.443967992439866">
        <ele>60.6</ele>
        <time>2025-02-05T14:33:24.960Z</time>
      </trkpt>
      <trkpt lat="58.54571795091033" lon="12.4438729416579">
        <ele>60.63</ele>
        <time>2025-02-05T14:33:48.937Z</time>
      </trkpt>
      <trkpt lat="58.54566095396876" lon="12.443777974694967">
        <ele>60.67</ele>
        <time>2025-02-05T14:34:12.916Z</time>
      </trkpt>
      <trkpt lat="58.545600939542055" lon="12.443682923913002">
        <ele>60.71</ele>
        <time>2025-02-05T14:34:36.896Z</time>
      </trkpt>
      <trkpt lat="58.54554193094373" lon="12.443592986091971">
        <ele>60.74</ele>
        <time>2025-02-05T14:35:00.877Z</time>
      </trkpt>
      <trkpt lat="58.54548099450767" lon="12.443506987765431">
        <ele>60.78</ele>
        <time>2025-02-05T14:35:24.859Z</time>
      </trkpt>
      <trkpt lat="58.54541997425258" lon="12.443423923105001">
        <ele>60.82</ele>
        <time>2025-02-05T14:35:48.842Z</time>
      </trkpt>
      <trkpt lat="58.54535895399749" lon="12.443340942263603">
        <ele>60.85</ele>
        <time>2025-02-05T14:36:12.827Z</time>
      </trkpt>
      <trkpt lat="58.545297933742404" lon="12.443258967250586">
        <ele>60.89</ele>
        <time>2025-02-05T14:36:36.813Z</time>
      </trkpt>
      <trkpt lat="58.545234985649586" lon="12.443177998065948">
        <ele>60.93</ele>
        <time>2025-02-05T14:37:00.800Z</time>
      </trkpt>
      <trkpt lat="58.545169942080975" lon="12.44309795089066">
        <ele>60.97</ele>
        <time>2025-02-05T14:37:24.788Z</time>
      </trkpt>
      <trkpt lat="58.545103976503015" lon="12.443019999191165">
        <ele>61.01</ele>
        <time>2025-02-05T14:37:48.778Z</time>
      </trkpt>
      <trkpt lat="58.54503792710602" lon="12.44294498115778">
        <ele>61.05</ele>
        <time>2025-02-05T14:38:12.769Z</time>
      </trkpt>
      <trkpt lat="58.5449699498713" lon="12.442868957296014">
        <ele>61.09</ele>
        <time>2025-02-05T14:38:36.761Z</time>
      </trkpt>
      <trkpt lat="58.54490197263658" lon="12.442793939262629">
        <ele>61.14</ele>
        <time>2025-02-05T14:39:00.754Z</time>
      </trkpt>
      <trkpt lat="58.5448319837451" lon="12.442719927057624">
        <ele>61.18</ele>
        <time>2025-02-05T14:39:24.749Z</time>
      </trkpt>
      <trkpt lat="58.544763922691345" lon="12.442648932337761">
        <ele>61.22</ele>
        <time>2025-02-05T14:39:48.745Z</time>
      </trkpt>
      <trkpt lat="58.54469292797148" lon="12.44258095510304">
        <ele>61.26</ele>
        <time>2025-02-05T14:40:12.742Z</time>
      </trkpt>
      <trkpt lat="58.54462293908" lon="12.44251498952508">
        <ele>61.3</ele>
        <time>2025-02-05T14:40:36.740Z</time>
      </trkpt>
      <trkpt lat="58.544549932703376" lon="12.442454975098372">
        <ele>61.35</ele>
        <time>2025-02-05T14:41:00.740Z</time>
      </trkpt>
      <trkpt lat="58.54447592049837" lon="12.442401917651296">
        <ele>61.39</ele>
        <time>2025-02-05T14:41:24.741Z</time>
      </trkpt>
      <trkpt lat="58.54440098628402" lon="12.442352967336774">
        <ele>61.43</ele>
        <time>2025-02-05T14:41:48.743Z</time>
      </trkpt>
      <trkpt lat="58.54432596825063" lon="12.442306950688362">
        <ele>61.48</ele>
        <time>2025-02-05T14:42:12.746Z</time>
      </trkpt>
      <trkpt lat="58.54425195604563" lon="12.44226093403995">
        <ele>61.52</ele>
        <time>2025-02-05T14:42:36.751Z</time>
      </trkpt>
      <trkpt lat="58.544178949669" lon="12.44221298955381">
        <ele>61.57</ele>
        <time>2025-02-05T14:43:00.757Z</time>
      </trkpt>
      <trkpt lat="58.54410694912076" lon="12.442164961248636">
        <ele>61.61</ele>
        <time>2025-02-05T14:43:24.764Z</time>
      </trkpt>
      <trkpt lat="58.544033942744136" lon="12.442113999277353">
        <ele>61.66</ele>
        <time>2025-02-05T14:43:48.772Z</time>
      </trkpt>
      <trkpt lat="58.54396093636751" lon="12.442060941830277">
        <ele>61.71</ele>
        <time>2025-02-05T14:44:12.782Z</time>
      </trkpt>
      <trkpt lat="58.54388792999089" lon="12.442006962373853">
        <ele>61.76</ele>
        <time>2025-02-05T14:44:36.793Z</time>
      </trkpt>
      <trkpt lat="58.54381492361426" lon="12.441953988745809">
        <ele>61.81</ele>
        <time>2025-02-05T14:45:00.805Z</time>
      </trkpt>
      <trkpt lat="58.54374191723764" lon="12.441898919641972">
        <ele>61.86</ele>
        <time>2025-02-05T14:45:24.818Z</time>
      </trkpt>
      <trkpt lat="58.54366798885167" lon="12.441842928528786">
        <ele>61.92</ele>
        <time>2025-02-05T14:45:48.833Z</time>
      </trkpt>
      <trkpt lat="58.54359498247504" lon="12.4417869374156">
        <ele>61.97</ele>
        <time>2025-02-05T14:46:12.849Z</time>
      </trkpt>
      <trkpt lat="58.54352097027004" lon="12.441730946302414">
        <ele>62.02</ele>
        <time>2025-02-05T14:46:36.866Z</time>
      </trkpt>
      <trkpt lat="58.54344796389341" lon="12.441673949360847">
        <ele>62.07</ele>
        <time>2025-02-05T14:47:00.885Z</time>
      </trkpt>
      <trkpt lat="58.54337495751679" lon="12.441616952419281">
        <ele>62.13</ele>
        <time>2025-02-05T14:47:24.905Z</time>
      </trkpt>
      <trkpt lat="58.543302956968546" lon="12.441558949649334">
        <ele>62.18</ele>
        <time>2025-02-05T14:47:48.926Z</time>
      </trkpt>
      <trkpt lat="58.54323196224868" lon="12.441502958536148">
        <ele>62.24</ele>
        <time>2025-02-05T14:48:12.948Z</time>
      </trkpt>
      <trkpt lat="58.54316297918558" lon="12.441447973251343">
        <ele>62.29</ele>
        <time>2025-02-05T14:48:36.971Z</time>
      </trkpt>
      <trkpt lat="58.54309491813183" lon="12.441393993794918">
        <ele>62.35</ele>
        <time>2025-02-05T14:49:00.996Z</time>
      </trkpt>
      <trkpt lat="58.54302593506873" lon="12.441338924691081">
        <ele>62.41</ele>
        <time>2025-02-05T14:49:25.022Z</time>
      </trkpt>
      <trkpt lat="58.542955946177244" lon="12.441283939406276">
        <ele>62.47</ele>
        <time>2025-02-05T14:49:49.049Z</time>
      </trkpt>
      <trkpt lat="58.54288696311414" lon="12.44122895412147">
        <ele>62.53</ele>
        <time>2025-02-05T14:50:13.077Z</time>
      </trkpt>
      <trkpt lat="58.54281898587942" lon="12.441173968836665">
        <ele>62.59</ele>
        <time>2025-02-05T14:50:37.106Z</time>
      </trkpt>
      <trkpt lat="58.54275193065405" lon="12.44111998938024">
        <ele>62.65</ele>
        <time>2025-02-05T14:51:01.137Z</time>
      </trkpt>
      <trkpt lat="58.54268596507609" lon="12.441063998267055">
        <ele>62.7</ele>
        <time>2025-02-05T14:51:25.169Z</time>
      </trkpt>
      <trkpt lat="58.54261899366975" lon="12.441007923334837">
        <ele>62.76</ele>
        <time>2025-02-05T14:51:49.202Z</time>
      </trkpt>
      <trkpt lat="58.54255294427276" lon="12.440952938050032">
        <ele>62.82</ele>
        <time>2025-02-05T14:52:13.236Z</time>
      </trkpt>
      <trkpt lat="58.54248899035156" lon="12.440897952765226">
        <ele>62.88</ele>
        <time>2025-02-05T14:52:37.271Z</time>
      </trkpt>
      <trkpt lat="58.54242394678295" lon="12.440844979137182">
        <ele>62.94</ele>
        <time>2025-02-05T14:53:01.307Z</time>
      </trkpt>
      <trkpt lat="58.54236099869013" lon="12.440791921690106">
        <ele>63.0</ele>
        <time>2025-02-05T14:53:25.344Z</time>
      </trkpt>
      <trkpt lat="58.5422969609499" lon="12.440739953890443">
        <ele>63.05</ele>
        <time>2025-02-05T14:53:49.383Z</time>
      </trkpt>
      <trkpt lat="58.54223493486643" lon="12.440686980262399">
        <ele>63.11</ele>
        <time>2025-02-05T14:54:13.423Z</time>
      </trkpt>
      <trkpt lat="58.54217299260199" lon="12.440632916986942">
        <ele>63.18</ele>
        <time>2025-02-05T14:54:37.464Z</time>
      </trkpt>
      <trkpt lat="58.54211096651852" lon="12.440576925873756">
        <ele>63.24</ele>
        <time>2025-02-05T14:55:01.506Z</time>
      </trkpt>
      <trkpt lat="58.54204994626343" lon="12.44051992893219">
        <ele>63.3</ele>
        <time>2025-02-05T14:55:25.549Z</time>
      </trkpt>
      <trkpt lat="58.541989931836724" lon="12.440461926162243">
        <ele>63.36</ele>
        <time>2025-02-05T14:55:49.593Z</time>
      </trkpt>
      <trkpt lat="58.5419309232384" lon="12.440404929220676">
        <ele>63.42</ele>
        <time>2025-02-05T14:56:13.638Z</time>
      </trkpt>
      <trkpt lat="58.5418719984591" lon="12.44034893810749">
        <ele>63.48</ele>
        <time>2025-02-05T14:56:37.684Z</time>
      </trkpt>
      <trkpt lat="58.5418149176985" lon="12.440294958651066">
        <ele>63.54</ele>
        <time>2025-02-05T14:57:01.731Z</time>
      </trkpt>
      <trkpt lat="58.541757920756936" lon="12.440241985023022">
        <ele>63.6</ele>
        <time>2025-02-05T14:57:25.779Z</time>
      </trkpt>
      <trkpt lat="58.54170092381537" lon="12.440189933404326">
        <ele>63.67</ele>
        <time>2025-02-05T14:57:49.828Z</time>
      </trkpt>
      <trkpt lat="58.541644932702184" lon="12.440136959776282">
        <ele>63.73</ele>
        <time>2025-02-05T14:58:13.878Z</time>
      </trkpt>
      <trkpt lat="58.54158793576062" lon="12.440081974491477">
        <ele>63.79</ele>
        <time>2025-02-05T14:58:37.929Z</time>
      </trkpt>
      <trkpt lat="58.54153194464743" lon="12.44002296589315">
        <ele>63.85</ele>
        <time>2025-02-05T14:59:01.981Z</time>
      </trkpt>
      <trkpt lat="58.541474947705865" lon="12.439966974779963">
        <ele>63.91</ele>
        <time>2025-02-05T14:59:26.034Z</time>
      </trkpt>
      <trkpt lat="58.54141996242106" lon="12.439913917332888">
        <ele>63.97</ele>
        <time>2025-02-05T14:59:50.088Z</time>
      </trkpt>
      <trkpt lat="58.541365982964635" lon="12.439861949533224">
        <ele>64.03</ele>
        <time>2025-02-05T15:00:14.143Z</time>
      </trkpt>
      <trkpt lat="58.54131493717432" lon="12.439815932884812">
        <ele>64.09</ele>
        <time>2025-02-05T15:00:38.199Z</time>
      </trkpt>
      <trkpt lat="58.54126498103142" lon="12.439771927893162">
        <ele>64.14</ele>
        <time>2025-02-05T15:01:02.256Z</time>
      </trkpt>
      <trkpt lat="58.54122399352491" lon="12.439737981185317">
        <ele>64.2</ele>
        <time>2025-02-05T15:01:26.314Z</time>
      </trkpt>
      <trkpt lat="58.54118191637099" lon="12.439706968143582">
        <ele>64.25</ele>
        <time>2025-02-05T15:01:50.372Z</time>
      </trkpt>
      <trkpt lat="58.54113891720772" lon="12.439668998122215">
        <ele>64.31</ele>
        <time>2025-02-05T15:02:14.431Z</time>
      </trkpt>
      <trkpt lat="58.54109399020672" lon="12.439629938453436">
        <ele>64.36</ele>
        <time>2025-02-05T15:02:38.491Z</time>
      </trkpt>
      <trkpt lat="58.541045961901546" lon="12.439581993967295">
        <ele>64.42</ele>
        <time>2025-02-05T15:03:02.552Z</time>
      </trkpt>
      <trkpt lat="58.54099499993026" lon="12.43953195400536">
        <ele>64.47</ele>
        <time>2025-02-05T15:03:26.614Z</time>
      </trkpt>
      <trkpt lat="58.54094395413995" lon="12.439473951235414">
        <ele>64.52</ele>
        <time>2025-02-05T15:03:50.677Z</time>
      </trkpt>
      <trkpt lat="58.54088997468352" lon="12.439410919323564">
        <ele>64.58</ele>
        <time>2025-02-05T15:04:14.741Z</time>
      </trkpt>
      <trkpt lat="58.54083297774196" lon="12.439344953745604">
        <ele>64.62</ele>
        <time>2025-02-05T15:04:38.806Z</time>
      </trkpt>
      <trkpt lat="58.54077396914363" lon="12.439279993996024">
        <ele>64.67</ele>
        <time>2025-02-05T15:05:02.872Z</time>
      </trkpt>
      <trkpt lat="58.54071596637368" lon="12.439212938770652">
        <ele>64.71</ele>
        <time>2025-02-05T15:05:26.939Z</time>
      </trkpt>
      <trkpt lat="58.540657963603735" lon="12.43914395570755">
        <ele>64.76</ele>
        <time>2025-02-05T15:05:51.007Z</time>
      </trkpt>
      <trkpt lat="58.54059794917703" lon="12.439072960987687">
        <ele>64.8</ele>
        <time>2025-02-05T15:06:15.076Z</time>
      </trkpt>
      <trkpt lat="58.54053793475032" lon="12.438997942954302">
        <ele>64.84</ele>
        <time>2025-02-05T15:06:39.146Z</time>
      </trkpt>
      <trkpt lat="58.54047892615199" lon="12.438920997083187">
        <ele>64.88</ele>
        <time>2025-02-05T15:07:03.218Z</time>
      </trkpt>
      <trkpt lat="58.540417989715934" lon="12.438846984878182">
        <ele>64.92</ele>
        <time>2025-02-05T15:07:27.291Z</time>
      </trkpt>
      <trkpt lat="58.540354957804084" lon="12.43877599015832">
        <ele>64.96</ele>
        <time>2025-02-05T15:07:51.365Z</time>
      </trkpt>
      <trkpt lat="58.540291925892234" lon="12.438701977953315">
        <ele>65.0</ele>
        <time>2025-02-05T15:08:15.440Z</time>
      </trkpt>
      <trkpt lat="58.54023098945618" lon="12.438623942434788">
        <ele>65.03</ele>
        <time>2025-02-05T15:08:39.516Z</time>
      </trkpt>
      <trkpt lat="58.54017298668623" lon="12.438543979078531">
        <ele>65.06</ele>
        <time>2025-02-05T15:09:03.593Z</time>
      </trkpt>
      <trkpt lat="58.54011096060276" lon="12.438462926074862">
        <ele>65.1</ele>
        <time>2025-02-05T15:09:27.672Z</time>
      </trkpt>
      <trkpt lat="58.54004591703415" lon="12.438379945233464">
        <ele>65.13</ele>
        <time>2025-02-05T15:09:51.752Z</time>
      </trkpt>
      <trkpt lat="58.53997693397105" lon="12.438291935250163">
        <ele>65.15</ele>
        <time>2025-02-05T15:10:15.833Z</time>
      </trkpt>
      <trkpt lat="58.539908956736326" lon="12.438204931095243">
        <ele>65.18</ele>
        <time>2025-02-05T15:10:39.915Z</time>
      </trkpt>
      <trkpt lat="58.539839973673224" lon="12.438113987445831">
        <ele>65.2</ele>
        <time>2025-02-05T15:11:03.999Z</time>
      </trkpt>
      <trkpt lat="58.5397719964385" lon="12.438022959977388">
        <ele>65.23</ele>
        <time>2025-02-05T15:11:28.084Z</time>
      </trkpt>
      <trkpt lat="58.53970393538475" lon="12.437930926680565">
        <ele>65.25</ele>
        <time>2025-02-05T15:11:52.170Z</time>
      </trkpt>
      <trkpt lat="58.53963595815003" lon="12.437839983031154">
        <ele>65.28</ele>
        <time>2025-02-05T15:12:16.258Z</time>
      </trkpt>
      <trkpt lat="58.53956798091531" lon="12.43774895556271">
        <ele>65.3</ele>
        <time>2025-02-05T15:12:40.347Z</time>
      </trkpt>
      <trkpt lat="58.539501931518316" lon="12.437659939751029">
        <ele>65.33</ele>
        <time>2025-02-05T15:13:04.437Z</time>
      </trkpt>
      <trkpt lat="58.539435965940356" lon="12.437571929767728">
        <ele>65.35</ele>
        <time>2025-02-05T15:13:28.529Z</time>
      </trkpt>
      <trkpt lat="58.539371928200126" lon="12.437484925612807">
        <ele>65.37</ele>
        <time>2025-02-05T15:13:52.622Z</time>
      </trkpt>
      <trkpt lat="58.539306968450546" lon="12.437396999448538">
        <ele>65.4</ele>
        <time>2025-02-05T15:14:16.716Z</time>
      </trkpt>
      <trkpt lat="58.539242930710316" lon="12.437306977808475">
        <ele>65.42</ele>
        <time>2025-02-05T15:14:40.812Z</time>
      </trkpt>
      <trkpt lat="58.539177970960736" lon="12.437214944511652">
        <ele>65.44</ele>
        <time>2025-02-05T15:15:04.909Z</time>
      </trkpt>
      <trkpt lat="58.539111921563745" lon="12.43712198920548">
        <ele>65.46</ele>
        <time>2025-02-05T15:15:29.007Z</time>
      </trkpt>
      <trkpt lat="58.539045955985785" lon="12.437029955908656">
        <ele>65.48</ele>
        <time>2025-02-05T15:15:53.106Z</time>
      </trkpt>
      <trkpt lat="58.53897797875106" lon="12.436934988945723">
        <ele>65.49</ele>
        <time>2025-02-05T15:16:17.207Z</time>
      </trkpt>
      <trkpt lat="58.53890991769731" lon="12.436838932335377">
        <ele>65.51</ele>
        <time>2025-02-05T15:16:41.309Z</time>
      </trkpt>
      <trkpt lat="58.53884194046259" lon="12.436743965372443">
        <ele>65.53</ele>
        <time>2025-02-05T15:17:05.413Z</time>
      </trkpt>
      <trkpt lat="58.53877396322787" lon="12.436647992581129">
        <ele>65.54</ele>
        <time>2025-02-05T15:17:29.518Z</time>
      </trkpt>
      <trkpt lat="58.53870699182153" lon="12.436554953455925">
        <ele>65.55</ele>
        <time>2025-02-05T15:17:53.624Z</time>
      </trkpt>
      <trkpt lat="58.538639936596155" lon="12.436462920159101">
        <ele>65.57</ele>
        <time>2025-02-05T15:18:17.732Z</time>
      </trkpt>
      <trkpt lat="58.538572965189815" lon="12.43637197650969">
        <ele>65.58</ele>
        <time>2025-02-05T15:18:41.841Z</time>
      </trkpt>
      <trkpt lat="58.53850498795509" lon="12.436279943212867">
        <ele>65.6</ele>
        <time>2025-02-05T15:19:05.951Z</time>
      </trkpt>
      <trkpt lat="58.53843692690134" lon="12.436187993735075">
        <ele>65.61</ele>
        <time>2025-02-05T15:19:30.063Z</time>
      </trkpt>
      <trkpt lat="58.53836794383824" lon="12.436095960438251">
        <ele>65.62</ele>
        <time>2025-02-05T15:19:54.176Z</time>
      </trkpt>
      <trkpt lat="58.5383009724319" lon="12.436001999303699">
        <ele>65.63</ele>
        <time>2025-02-05T15:20:18.290Z</time>
      </trkpt>
      <trkpt lat="58.538231989368796" lon="12.435907954350114">
        <ele>65.64</ele>
        <time>2025-02-05T15:20:42.406Z</time>
      </trkpt>
      <trkpt lat="58.53816392831504" lon="12.435813993215561">
        <ele>65.65</ele>
        <time>2025-02-05T15:21:06.523Z</time>
      </trkpt>
      <trkpt lat="58.53809595108032" lon="12.435717936605215">
        <ele>65.65</ele>
        <time>2025-02-05T15:21:30.641Z</time>
      </trkpt>
      <trkpt lat="58.5380279738456" lon="12.435621963813901">
        <ele>65.66</ele>
        <time>2025-02-05T15:21:54.761Z</time>
      </trkpt>
      <trkpt lat="58.53796091862023" lon="12.435526996850967">
        <ele>65.66</ele>
        <time>2025-02-05T15:22:18.882Z</time>
      </trkpt>
      <trkpt lat="58.53789495304227" lon="12.435433957725763">
        <ele>65.66</ele>
        <time>2025-02-05T15:22:43.004Z</time>
      </trkpt>
      <trkpt lat="58.53783192113042" lon="12.43534192442894">
        <ele>65.66</ele>
        <time>2025-02-05T15:23:07.128Z</time>
      </trkpt>
      <trkpt lat="58.5377689730376" lon="12.435250980779529">
        <ele>65.66</ele>
        <time>2025-02-05T15:23:31.253Z</time>
      </trkpt>
      <trkpt lat="58.53770594112575" lon="12.435158947482705">
        <ele>65.66</ele>
        <time>2025-02-05T15:23:55.379Z</time>
      </trkpt>
      <trkpt lat="58.53764299303293" lon="12.435062974691391">
        <ele>65.67</ele>
        <time>2025-02-05T15:24:19.506Z</time>
      </trkpt>
      <trkpt lat="58.53757996112108" lon="12.434966918081045">
        <ele>65.67</ele>
        <time>2025-02-05T15:24:43.635Z</time>
      </trkpt>
      <trkpt lat="58.53751592338085" lon="12.434870945289731">
        <ele>65.67</ele>
        <time>2025-02-05T15:25:07.765Z</time>
      </trkpt>
      <trkpt lat="58.53745196945965" lon="12.434774972498417">
        <ele>65.67</ele>
        <time>2025-02-05T15:25:31.896Z</time>
      </trkpt>
      <trkpt lat="58.5373889375478" lon="12.434679921716452">
        <ele>65.67</ele>
        <time>2025-02-05T15:25:56.029Z</time>
      </trkpt>
      <trkpt lat="58.537324983626604" lon="12.434583948925138">
        <ele>65.67</ele>
        <time>2025-02-05T15:26:20.163Z</time>
      </trkpt>
      <trkpt lat="58.53725893422961" lon="12.434487976133823">
        <ele>65.67</ele>
        <time>2025-02-05T15:26:44.298Z</time>
      </trkpt>
      <trkpt lat="58.53719196282327" lon="12.434389991685748">
        <ele>65.67</ele>
        <time>2025-02-05T15:27:08.435Z</time>
      </trkpt>
      <trkpt lat="58.53712499141693" lon="12.434291923418641">
        <ele>65.68</ele>
        <time>2025-02-05T15:27:32.573Z</time>
      </trkpt>
      <trkpt lat="58.53705894201994" lon="12.434192933142185">
        <ele>65.68</ele>
        <time>2025-02-05T15:27:56.712Z</time>
      </trkpt>
      <trkpt lat="58.53699297644198" lon="12.434096960350871">
        <ele>65.68</ele>
        <time>2025-02-05T15:28:20.853Z</time>
      </trkpt>
      <trkpt lat="58.53692893870175" lon="12.434002999216318">
        <ele>65.68</ele>
        <time>2025-02-05T15:28:44.995Z</time>
      </trkpt>
      <trkpt lat="58.53686498478055" lon="12.433908954262733">
        <ele>65.69</ele>
        <time>2025-02-05T15:29:09.138Z</time>
      </trkpt>
      <trkpt lat="58.53679893538356" lon="12.43381792679429">
        <ele>65.69</ele>
        <time>2025-02-05T15:29:33.282Z</time>
      </trkpt>
      <trkpt lat="58.53673095814884" lon="12.43373092263937">
        <ele>65.69</ele>
        <time>2025-02-05T15:29:57.428Z</time>
      </trkpt>
      <trkpt lat="58.536660969257355" lon="12.433650959283113">
        <ele>65.69</ele>
        <time>2025-02-05T15:30:21.575Z</time>
      </trkpt>
      <trkpt lat="58.53658796288073" lon="12.43357895873487">
        <ele>65.69</ele>
        <time>2025-02-05T15:30:45.723Z</time>
      </trkpt>
      <trkpt lat="58.536513950675726" lon="12.4335169326514">
        <ele>65.68</ele>
        <time>2025-02-05T15:31:09.873Z</time>
      </trkpt>
      <trkpt lat="58.53643993847072" lon="12.433467982336879">
        <ele>65.68</ele>
        <time>2025-02-05T15:31:34.024Z</time>
      </trkpt>
      <trkpt lat="58.53636399842799" lon="12.43342992849648">
        <ele>65.67</ele>
        <time>2025-02-05T15:31:58.176Z</time>
      </trkpt>
      <trkpt lat="58.5362889803946" lon="12.433397993445396">
        <ele>65.66</ele>
        <time>2025-02-05T15:32:22.329Z</time>
      </trkpt>
      <trkpt lat="58.536210944876075" lon="12.433369997888803">
        <ele>65.66</ele>
        <time>2025-02-05T15:32:46.484Z</time>
      </trkpt>
      <trkpt lat="58.53613299317658" lon="12.43334393016994">
        <ele>65.65</ele>
        <time>2025-02-05T15:33:10.640Z</time>
      </trkpt>
      <trkpt lat="58.536056969314814" lon="12.43332096375525">
        <ele>65.64</ele>
        <time>2025-02-05T15:33:34.797Z</time>
      </trkpt>
      <trkpt lat="58.53597993962467" lon="12.43330193683505">
        <ele>65.63</ele>
        <time>2025-02-05T15:33:58.955Z</time>
      </trkpt>
      <trkpt lat="58.53590399958193" lon="12.433284921571612">
        <ele>65.62</ele>
        <time>2025-02-05T15:34:23.115Z</time>
      </trkpt>
      <trkpt lat="58.535825964063406" lon="12.433271929621696">
        <ele>65.61</ele>
        <time>2025-02-05T15:34:47.276Z</time>
      </trkpt>
      <trkpt lat="58.53574792854488" lon="12.433264972642064">
        <ele>65.61</ele>
        <time>2025-02-05T15:35:11.438Z</time>
      </trkpt>
      <trkpt lat="58.53566695936024" lon="12.433262960985303">
        <ele>65.6</ele>
        <time>2025-02-05T15:35:35.601Z</time>
      </trkpt>
      <trkpt lat="58.535587918013334" lon="12.433268995955586">
        <ele>65.59</ele>
        <time>2025-02-05T15:35:59.766Z</time>
      </trkpt>
      <trkpt lat="58.53550896048546" lon="12.433280982077122">
        <ele>65.59</ele>
        <time>2025-02-05T15:36:23.932Z</time>
      </trkpt>
      <trkpt lat="58.53543092496693" lon="12.433289950713515">
        <ele>65.58</ele>
        <time>2025-02-05T15:36:48.099Z</time>
      </trkpt>
      <trkpt lat="58.53535397909582" lon="12.43329699151218">
        <ele>65.58</ele>
        <time>2025-02-05T15:37:12.268Z</time>
      </trkpt>
      <trkpt lat="58.53527996689081" lon="12.433303948491812">
        <ele>65.57</ele>
        <time>2025-02-05T15:37:36.438Z</time>
      </trkpt>
      <trkpt lat="58.53520696051419" lon="12.433314928784966">
        <ele>65.56</ele>
        <time>2025-02-05T15:38:00.609Z</time>
      </trkpt>
      <trkpt lat="58.53513294830918" lon="12.433322975412011">
        <ele>65.56</ele>
        <time>2025-02-05T15:38:24.781Z</time>
      </trkpt>
      <trkpt lat="58.53505994193256" lon="12.433330938220024">
        <ele>65.55</ele>
        <time>2025-02-05T15:38:48.954Z</time>
      </trkpt>
      <trkpt lat="58.534984923899174" lon="12.43334393016994">
        <ele>65.55</ele>
        <time>2025-02-05T15:39:13.128Z</time>
      </trkpt>
      <trkpt lat="58.5349109955132" lon="12.433357927948236">
        <ele>65.54</ele>
        <time>2025-02-05T15:39:37.304Z</time>
      </trkpt>
      <trkpt lat="58.534836983308196" lon="12.433365974575281">
        <ele>65.53</ele>
        <time>2025-02-05T15:40:01.481Z</time>
      </trkpt>
      <trkpt lat="58.53476196527481" lon="12.433361951261759">
        <ele>65.53</ele>
        <time>2025-02-05T15:40:25.659Z</time>
      </trkpt>
      <trkpt lat="58.534685941413045" lon="12.433356922119856">
        <ele>65.52</ele>
        <time>2025-02-05T15:40:49.838Z</time>
      </trkpt>
      <trkpt lat="58.53460991755128" lon="12.433356922119856">
        <ele>65.52</ele>
        <time>2025-02-05T15:41:14.018Z</time>
      </trkpt>
      <trkpt lat="58.534532971680164" lon="12.433355916291475">
        <ele>65.51</ele>
        <time>2025-02-05T15:41:38.200Z</time>
      </trkpt>
      <trkpt lat="58.534452924504876" lon="12.433349965140224">
        <ele>65.51</ele>
        <time>2025-02-05T15:42:02.383Z</time>
      </trkpt>
      <trkpt lat="58.53437094949186" lon="12.43333999067545">
        <ele>65.51</ele>
        <time>2025-02-05T15:42:26.567Z</time>
      </trkpt>
      <trkpt lat="58.53428796865046" lon="12.433327920734882">
        <ele>65.5</ele>
        <time>2025-02-05T15:42:50.753Z</time>
      </trkpt>
      <trkpt lat="58.53420599363744" lon="12.433313922956586">
        <ele>65.5</ele>
        <time>2025-02-05T15:43:14.940Z</time>
      </trkpt>
      <trkpt lat="58.534125946462154" lon="12.43329992517829">
        <ele>65.49</ele>
        <time>2025-02-05T15:43:39.128Z</time>
      </trkpt>
      <trkpt lat="58.53404698893428" lon="12.433285927399993">
        <ele>65.49</ele>
        <time>2025-02-05T15:44:03.318Z</time>
      </trkpt>
      <trkpt lat="58.53396895341575" lon="12.433270923793316">
        <ele>65.49</ele>
        <time>2025-02-05T15:44:27.509Z</time>
      </trkpt>
      <trkpt lat="58.533890917897224" lon="12.43325893767178">
        <ele>65.49</ele>
        <time>2025-02-05T15:44:51.701Z</time>
      </trkpt>
      <trkpt lat="58.53381296619773" lon="12.433244939893484">
        <ele>65.48</ele>
        <time>2025-02-05T15:45:15.894Z</time>
      </trkpt>
      <trkpt lat="58.53373593650758" lon="12.433229936286807">
        <ele>65.48</ele>
        <time>2025-02-05T15:45:40.089Z</time>
      </trkpt>
      <trkpt lat="58.53365999646485" lon="12.43321392685175">
        <ele>65.48</ele>
        <time>2025-02-05T15:46:04.285Z</time>
      </trkpt>
      <trkpt lat="58.533585984259844" lon="12.433202946558595">
        <ele>65.48</ele>
        <time>2025-02-05T15:46:28.482Z</time>
      </trkpt>
      <trkpt lat="58.53351197205484" lon="12.433189954608679">
        <ele>65.47</ele>
        <time>2025-02-05T15:46:52.680Z</time>
      </trkpt>
      <trkpt lat="58.533436954021454" lon="12.43316899985075">
        <ele>65.47</ele>
        <time>2025-02-05T15:47:16.879Z</time>
      </trkpt>
      <trkpt lat="58.53336294181645" lon="12.43314997293055">
        <ele>65.47</ele>
        <time>2025-02-05T15:47:41.080Z</time>
      </trkpt>
      <trkpt lat="58.533290941268206" lon="12.433136980980635">
        <ele>65.47</ele>
        <time>2025-02-05T15:48:05.282Z</time>
      </trkpt>
      <trkpt lat="58.53322095237672" lon="12.433121977373958">
        <ele>65.47</ele>
        <time>2025-02-05T15:48:29.485Z</time>
      </trkpt>
      <trkpt lat="58.53315196931362" lon="12.433108985424042">
        <ele>65.47</ele>
        <time>2025-02-05T15:48:53.689Z</time>
      </trkpt>
      <trkpt lat="58.53308499790728" lon="12.433094987645745">
        <ele>65.47</ele>
        <time>2025-02-05T15:49:17.894Z</time>
      </trkpt>
      <trkpt lat="58.53301794268191" lon="12.433077972382307">
        <ele>65.47</ele>
        <time>2025-02-05T15:49:42.100Z</time>
      </trkpt>
      <trkpt lat="58.53294996544719" lon="12.433058945462108">
        <ele>65.48</ele>
        <time>2025-02-05T15:50:06.307Z</time>
      </trkpt>
      <trkpt lat="58.532879976555705" lon="12.433039918541908">
        <ele>65.48</ele>
        <time>2025-02-05T15:50:30.515Z</time>
      </trkpt>
      <trkpt lat="58.53280998766422" lon="12.43302097544074">
        <ele>65.48</ele>
        <time>2025-02-05T15:50:54.725Z</time>
      </trkpt>
      <trkpt lat="58.53273899294436" lon="12.43300094269216">
        <ele>65.49</ele>
        <time>2025-02-05T15:51:18.936Z</time>
      </trkpt>
      <trkpt lat="58.532666992396116" lon="12.43297797627747">
        <ele>65.49</ele>
        <time>2025-02-05T15:51:43.148Z</time>
      </trkpt>
      <trkpt lat="58.53259398601949" lon="12.432953920215368">
        <ele>65.5</ele>
        <time>2025-02-05T15:52:07.361Z</time>
      </trkpt>
      <trkpt lat="58.53251997381449" lon="12.43293296545744">
        <ele>65.5</ele>
        <time>2025-02-05T15:52:31.575Z</time>
      </trkpt>
      <trkpt lat="58.53244294412434" lon="12.432915950194001">
        <ele>65.51</ele>
        <time>2025-02-05T15:52:55.790Z</time>
      </trkpt>
      <trkpt lat="58.532366920262575" lon="12.432895917445421">
        <ele>65.52</ele>
        <time>2025-02-05T15:53:20.007Z</time>
      </trkpt>
      <trkpt lat="58.53229098021984" lon="12.43286993354559">
        <ele>65.53</ele>
        <time>2025-02-05T15:53:44.225Z</time>
      </trkpt>
      <trkpt lat="58.532216968014836" lon="12.432842943817377">
        <ele>65.54</ele>
        <time>2025-02-05T15:54:08.444Z</time>
      </trkpt>
      <trkpt lat="58.53214295580983" lon="12.432818971574306">
        <ele>65.55</ele>
        <time>2025-02-05T15:54:32.664Z</time>
      </trkpt>
      <trkpt lat="58.53206994943321" lon="12.432799944654107">
        <ele>65.56</ele>
        <time>2025-02-05T15:54:56.886Z</time>
      </trkpt>
      <trkpt lat="58.531999960541725" lon="12.432776978239417">
        <ele>65.57</ele>
        <time>2025-02-05T15:55:21.109Z</time>
      </trkpt>
      <trkpt lat="58.53192896582186" lon="12.432746971026063">
        <ele>65.58</ele>
        <time>2025-02-05T15:55:45.333Z</time>
      </trkpt>
      <trkpt lat="58.531857971102" lon="12.432714952155948">
        <ele>65.59</ele>
        <time>2025-02-05T15:56:09.558Z</time>
      </trkpt>
      <trkpt lat="58.531784964725375" lon="12.432683939114213">
        <ele>65.61</ele>
        <time>2025-02-05T15:56:33.784Z</time>
      </trkpt>
      <trkpt lat="58.53171195834875" lon="12.43265594355762">
        <ele>65.62</ele>
        <time>2025-02-05T15:56:58.011Z</time>
      </trkpt>
      <trkpt lat="58.531637946143746" lon="12.432629959657788">
        <ele>65.63</ele>
        <time>2025-02-05T15:57:22.240Z</time>
      </trkpt>
      <trkpt lat="58.53156493976712" lon="12.432602969929576">
        <ele>65.64</ele>
        <time>2025-02-05T15:57:46.470Z</time>
      </trkpt>
      <trkpt lat="58.53149092756212" lon="12.432574974372983">
        <ele>65.65</ele>
        <time>2025-02-05T15:58:10.701Z</time>
      </trkpt>
      <trkpt lat="58.531418927013874" lon="12.432548990473151">
        <ele>65.67</ele>
        <time>2025-02-05T15:58:34.933Z</time>
      </trkpt>
      <trkpt lat="58.53134692646563" lon="12.43252594023943">
        <ele>65.68</ele>
        <time>2025-02-05T15:58:59.166Z</time>
      </trkpt>
      <trkpt lat="58.531273920089006" lon="12.432499956339598">
        <ele>65.69</ele>
        <time>2025-02-05T15:59:23.401Z</time>
      </trkpt>
      <trkpt lat="58.531200997531414" lon="12.432469949126244">
        <ele>65.7</ele>
        <time>2025-02-05T15:59:47.637Z</time>
      </trkpt>
      <trkpt lat="58.53112597949803" lon="12.43244195356965">
        <ele>65.72</ele>
        <time>2025-02-05T16:00:11.874Z</time>
      </trkpt>
      <trkpt lat="58.53104894980788" lon="12.432407923042774">
        <ele>65.73</ele>
        <time>2025-02-05T16:00:36.112Z</time>
      </trkpt>
      <trkpt lat="58.53097099810839" lon="12.43237397633493">
        <ele>65.74</ele>
        <time>2025-02-05T16:01:00.352Z</time>
      </trkpt>
      <trkpt lat="58.53088994510472" lon="12.432344974949956">
        <ele>65.75</ele>
        <time>2025-02-05T16:01:24.593Z</time>
      </trkpt>
      <trkpt lat="58.5308079700917" lon="12.432315973564982">
        <ele>65.77</ele>
        <time>2025-02-05T16:01:48.835Z</time>
      </trkpt>
      <trkpt lat="58.53072398342192" lon="12.432285966351628">
        <ele>65.78</ele>
        <time>2025-02-05T16:02:13.079Z</time>
      </trkpt>
      <trkpt lat="58.53063899092376" lon="12.432251935824752">
        <ele>65.79</ele>
        <time>2025-02-05T16:02:37.324Z</time>
      </trkpt>
      <trkpt lat="58.53055299259722" lon="12.432217989116907">
        <ele>65.8</ele>
        <time>2025-02-05T16:03:01.570Z</time>
      </trkpt>
      <trkpt lat="58.53046699427068" lon="12.432184964418411">
        <ele>65.82</ele>
        <time>2025-02-05T16:03:25.818Z</time>
      </trkpt>
      <trkpt lat="58.53038099594414" lon="12.432150933891535">
        <ele>65.84</ele>
        <time>2025-02-05T16:03:50.067Z</time>
      </trkpt>
      <trkpt lat="58.53029591962695" lon="12.43211698718369">
        <ele>65.85</ele>
        <time>2025-02-05T16:04:14.318Z</time>
      </trkpt>
      <trkpt lat="58.53020992130041" lon="12.432084968313575">
        <ele>65.87</ele>
        <time>2025-02-05T16:04:38.570Z</time>
      </trkpt>
      <trkpt lat="58.53012593463063" lon="12.43205496110022">
        <ele>65.88</ele>
        <time>2025-02-05T16:05:02.823Z</time>
      </trkpt>
      <trkpt lat="58.530043959617615" lon="12.432025959715247">
        <ele>65.9</ele>
        <time>2025-02-05T16:05:27.078Z</time>
      </trkpt>
      <trkpt lat="58.52996399626136" lon="12.431994946673512">
        <ele>65.92</ele>
        <time>2025-02-05T16:05:51.334Z</time>
      </trkpt>
      <trkpt lat="58.52988495491445" lon="12.431960999965668">
        <ele>65.94</ele>
        <time>2025-02-05T16:06:15.591Z</time>
      </trkpt>
      <trkpt lat="58.529806919395924" lon="12.431928981095552">
        <ele>65.96</ele>
        <time>2025-02-05T16:06:39.850Z</time>
      </trkpt>
      <trkpt lat="58.52973097935319" lon="12.431899979710579">
        <ele>65.98</ele>
        <time>2025-02-05T16:07:04.110Z</time>
      </trkpt>
      <trkpt lat="58.529654955491424" lon="12.431870978325605">
        <ele>66.0</ele>
        <time>2025-02-05T16:07:28.371Z</time>
      </trkpt>
      <trkpt lat="58.52957993745804" lon="12.431840971112251">
        <ele>66.02</ele>
        <time>2025-02-05T16:07:52.633Z</time>
      </trkpt>
      <trkpt lat="58.52950491942465" lon="12.431813981384039">
        <ele>66.04</ele>
        <time>2025-02-05T16:08:16.896Z</time>
      </trkpt>
      <trkpt lat="58.5294299852103" lon="12.431787997484207">
        <ele>66.06</ele>
        <time>2025-02-05T16:08:41.161Z</time>
      </trkpt>
      <trkpt lat="58.529353961348534" lon="12.431764947250485">
        <ele>66.07</ele>
        <time>2025-02-05T16:09:05.427Z</time>
      </trkpt>
      <trkpt lat="58.52927693165839" lon="12.431746926158667">
        <ele>66.09</ele>
        <time>2025-02-05T16:09:29.694Z</time>
      </trkpt>
      <trkpt lat="58.52919998578727" lon="12.43173292838037">
        <ele>66.1</ele>
        <time>2025-02-05T16:09:53.962Z</time>
      </trkpt>
      <trkpt lat="58.52912396192551" lon="12.431722953915596">
        <ele>66.12</ele>
        <time>2025-02-05T16:10:18.232Z</time>
      </trkpt>
      <trkpt lat="58.52904793806374" lon="12.431713985279202">
        <ele>66.14</ele>
        <time>2025-02-05T16:10:42.503Z</time>
      </trkpt>
      <trkpt lat="58.52897199802101" lon="12.431704932823777">
        <ele>66.15</ele>
        <time>2025-02-05T16:11:06.775Z</time>
      </trkpt>
      <trkpt lat="58.52889496833086" lon="12.431699987500906">
        <ele>66.17</ele>
        <time>2025-02-05T16:11:31.048Z</time>
      </trkpt>
      <trkpt lat="58.52881693281233" lon="12.431705938652158">
        <ele>66.19</ele>
        <time>2025-02-05T16:11:55.323Z</time>
      </trkpt>
      <trkpt lat="58.52873797528446" lon="12.431717924773693">
        <ele>66.21</ele>
        <time>2025-02-05T16:12:19.599Z</time>
      </trkpt>
      <trkpt lat="58.52866094559431" lon="12.43173292838037">
        <ele>66.22</ele>
        <time>2025-02-05T16:12:43.876Z</time>
      </trkpt>
      <trkpt lat="58.528583999723196" lon="12.431749943643808">
        <ele>66.24</ele>
        <time>2025-02-05T16:13:08.154Z</time>
      </trkpt>
      <trkpt lat="58.52850697003305" lon="12.431766958907247">
        <ele>66.26</ele>
        <time>2025-02-05T16:13:32.434Z</time>
      </trkpt>
      <trkpt lat="58.528431951999664" lon="12.431780956685543">
        <ele>66.27</ele>
        <time>2025-02-05T16:13:56.715Z</time>
      </trkpt>
      <trkpt lat="58.5283559281379" lon="12.43179495446384">
        <ele>66.29</ele>
        <time>2025-02-05T16:14:20.997Z</time>
      </trkpt>
      <trkpt lat="58.528279988095164" lon="12.431812975555658">
        <ele>66.31</ele>
        <time>2025-02-05T16:14:45.280Z</time>
      </trkpt>
      <trkpt lat="58.5282039642334" lon="12.431831918656826">
        <ele>66.32</ele>
        <time>2025-02-05T16:15:09.564Z</time>
      </trkpt>
      <trkpt lat="58.52812794037163" lon="12.431849939748645">
        <ele>66.34</ele>
        <time>2025-02-05T16:15:33.850Z</time>
      </trkpt>
      <trkpt lat="58.52805099450052" lon="12.4318609200418">
        <ele>66.35</ele>
        <time>2025-02-05T16:15:58.137Z</time>
      </trkpt>
      <trkpt lat="58.52797295898199" lon="12.43186293169856">
        <ele>66.37</ele>
        <time>2025-02-05T16:16:22.425Z</time>
      </trkpt>
      <trkpt lat="58.527894923463464" lon="12.43185899220407">
        <ele>66.38</ele>
        <time>2025-02-05T16:16:46.714Z</time>
      </trkpt>
      <trkpt lat="58.52781797759235" lon="12.431846922263503">
        <ele>66.4</ele>
        <time>2025-02-05T16:17:11.005Z</time>
      </trkpt>
      <trkpt lat="58.527742959558964" lon="12.431825967505574">
        <ele>66.41</ele>
        <time>2025-02-05T16:17:35.297Z</time>
      </trkpt>
      <trkpt lat="58.52767095901072" lon="12.431793948635459">
        <ele>66.43</ele>
        <time>2025-02-05T16:17:59.590Z</time>
      </trkpt>
      <trkpt lat="58.52759996429086" lon="12.43175396695733">
        <ele>66.44</ele>
        <time>2025-02-05T16:18:23.884Z</time>
      </trkpt>
      <trkpt lat="58.527529975399375" lon="12.431711973622441">
        <ele>66.46</ele>
        <time>2025-02-05T16:18:48.179Z</time>
      </trkpt>
      <trkpt lat="58.52745998650789" lon="12.431669980287552">
        <ele>66.47</ele>
        <time>2025-02-05T16:19:12.476Z</time>
      </trkpt>
      <trkpt lat="58.52739192545414" lon="12.431625975295901">
        <ele>66.49</ele>
        <time>2025-02-05T16:19:36.774Z</time>
      </trkpt>
      <trkpt lat="58.52732394821942" lon="12.431577946990728">
        <ele>66.51</ele>
        <time>2025-02-05T16:20:01.073Z</time>
      </trkpt>
      <trkpt lat="58.52725798264146" lon="12.431528996676207">
        <ele>66.53</ele>
        <time>2025-02-05T16:20:25.373Z</time>
      </trkpt>
      <trkpt lat="58.52719193324447" lon="12.431478956714272">
        <ele>66.54</ele>
        <time>2025-02-05T16:20:49.674Z</time>
      </trkpt>
      <trkpt lat="58.52712596766651" lon="12.431429922580719">
        <ele>66.56</ele>
        <time>2025-02-05T16:21:13.976Z</time>
      </trkpt>
      <trkpt lat="58.527057990431786" lon="12.431379966437817">
        <ele>66.57</ele>
        <time>2025-02-05T16:21:38.280Z</time>
      </trkpt>
      <trkpt lat="58.52698892354965" lon="12.431325986981392">
        <ele>66.58</ele>
        <time>2025-02-05T16:22:02.585Z</time>
      </trkpt>
      <trkpt lat="58.52691893465817" lon="12.431270917877555">
        <ele>66.59</ele>
        <time>2025-02-05T16:22:26.891Z</time>
      </trkpt>
      <trkpt lat="58.52684894576669" lon="12.431211993098259">
        <ele>66.6</ele>
        <time>2025-02-05T16:22:51.198Z</time>
      </trkpt>
      <trkpt lat="58.526778956875205" lon="12.43114996701479">
        <ele>66.6</ele>
        <time>2025-02-05T16:23:15.506Z</time>
      </trkpt>
      <trkpt lat="58.52670896798372" lon="12.431082995608449">
        <ele>66.61</ele>
        <time>2025-02-05T16:23:39.816Z</time>
      </trkpt>
      <trkpt lat="58.52663998492062" lon="12.431015940383077">
        <ele>66.61</ele>
        <time>2025-02-05T16:24:04.127Z</time>
      </trkpt>
      <trkpt lat="58.52657091803849" lon="12.430950980633497">
        <ele>66.62</ele>
        <time>2025-02-05T16:24:28.439Z</time>
      </trkpt>
      <trkpt lat="58.526500929147005" lon="12.430886942893267">
        <ele>66.62</ele>
        <time>2025-02-05T16:24:52.752Z</time>
      </trkpt>
      <trkpt lat="58.52643094025552" lon="12.430821983143687">
        <ele>66.63</ele>
        <time>2025-02-05T16:25:17.067Z</time>
      </trkpt>
      <trkpt lat="58.52636095136404" lon="12.430753922089934">
        <ele>66.63</ele>
        <time>2025-02-05T16:25:41.383Z</time>
      </trkpt>
      <trkpt lat="58.52628995664418" lon="12.430687956511974">
        <ele>66.64</ele>
        <time>2025-02-05T16:26:05.700Z</time>
      </trkpt>
      <trkpt lat="58.526217956095934" lon="12.430620985105634">
        <ele>66.65</ele>
        <time>2025-02-05T16:26:30.018Z</time>
      </trkpt>
      <trkpt lat="58.52614696137607" lon="12.430553929880261">
        <ele>66.66</ele>
        <time>2025-02-05T16:26:54.338Z</time>
      </trkpt>
      <trkpt lat="58.52607596665621" lon="12.43048695847392">
        <ele>66.66</ele>
        <time>2025-02-05T16:27:18.659Z</time>
      </trkpt>
      <trkpt lat="58.526004971936345" lon="12.4304189812392">
        <ele>66.67</ele>
        <time>2025-02-05T16:27:42.981Z</time>
      </trkpt>
      <trkpt lat="58.52593397721648" lon="12.430349998176098">
        <ele>66.67</ele>
        <time>2025-02-05T16:28:07.305Z</time>
      </trkpt>
      <trkpt lat="58.52586197666824" lon="12.430285960435867">
        <ele>66.67</ele>
        <time>2025-02-05T16:28:31.630Z</time>
      </trkpt>
      <trkpt lat="58.525789976119995" lon="12.430221922695637">
        <ele>66.67</ele>
        <time>2025-02-05T16:28:55.956Z</time>
      </trkpt>
      <trkpt lat="58.52571696974337" lon="12.430155957117677">
        <ele>66.68</ele>
        <time>2025-02-05T16:29:20.283Z</time>
      </trkpt>
      <trkpt lat="58.52564496919513" lon="12.430086974054575">
        <ele>66.68</ele>
        <time>2025-02-05T16:29:44.612Z</time>
      </trkpt>
      <trkpt lat="58.52556894533336" lon="12.430018996819854">
        <ele>66.68</ele>
        <time>2025-02-05T16:30:08.942Z</time>
      </trkpt>
      <trkpt lat="58.525492921471596" lon="12.429954959079623">
        <ele>66.68</ele>
        <time>2025-02-05T16:30:33.273Z</time>
      </trkpt>
      <trkpt lat="58.52541698142886" lon="12.429892932996154">
        <ele>66.68</ele>
        <time>2025-02-05T16:30:57.606Z</time>
      </trkpt>
      <trkpt lat="58.525340957567096" lon="12.429832918569446">
        <ele>66.68</ele>
        <time>2025-02-05T16:31:21.940Z</time>
      </trkpt>
      <trkpt lat="58.52526493370533" lon="12.42977592162788">
        <ele>66.68</ele>
        <time>2025-02-05T16:31:46.275Z</time>
      </trkpt>
      <trkpt lat="58.525188993662596" lon="12.429720936343074">
        <ele>66.67</ele>
        <time>2025-02-05T16:32:10.612Z</time>
      </trkpt>
      <trkpt lat="58.52511397562921" lon="12.429664945229888">
        <ele>66.66</ele>
        <time>2025-02-05T16:32:34.950Z</time>
      </trkpt>
      <trkpt lat="58.525039963424206" lon="12.429608954116702">
        <ele>66.66</ele>
        <time>2025-02-05T16:32:59.289Z</time>
      </trkpt>
      <trkpt lat="58.5249659512192" lon="12.429549945518374">
        <ele>66.65</ele>
        <time>2025-02-05T16:33:23.629Z</time>
      </trkpt>
      <trkpt lat="58.524891939014196" lon="12.429491942748427">
        <ele>66.64</ele>
        <time>2025-02-05T16:33:47.971Z</time>
      </trkpt>
      <trkpt lat="58.52481792680919" lon="12.429435951635242">
        <ele>66.64</ele>
        <time>2025-02-05T16:34:12.314Z</time>
      </trkpt>
      <trkpt lat="58.52474299259484" lon="12.429381972178817">
        <ele>66.63</ele>
        <time>2025-02-05T16:34:36.658Z</time>
      </trkpt>
      <trkpt lat="58.52466797456145" lon="12.429327992722392">
        <ele>66.62</ele>
        <time>2025-02-05T16:35:01.004Z</time>
      </trkpt>
      <trkpt lat="58.52459195069969" lon="12.429275941103697">
        <ele>66.61</ele>
        <time>2025-02-05T16:35:25.351Z</time>
      </trkpt>
      <trkpt lat="58.52451592683792" lon="12.429223973304033">
        <ele>66.61</ele>
        <time>2025-02-05T16:35:49.699Z</time>
      </trkpt>
      <trkpt lat="58.52444199845195" lon="12.429168988019228">
        <ele>66.6</ele>
        <time>2025-02-05T16:36:14.048Z</time>
      </trkpt>
      <trkpt lat="58.52436798624694" lon="12.429110985249281">
        <ele>66.59</ele>
        <time>2025-02-05T16:36:38.399Z</time>
      </trkpt>
      <trkpt lat="58.52429296821356" lon="12.429054994136095">
        <ele>66.58</ele>
        <time>2025-02-05T16:37:02.751Z</time>
      </trkpt>
      <trkpt lat="58.52421795018017" lon="12.4290029425174">
        <ele>66.57</ele>
        <time>2025-02-05T16:37:27.104Z</time>
      </trkpt>
      <trkpt lat="58.52414192631841" lon="12.428950974717736">
        <ele>66.56</ele>
        <time>2025-02-05T16:37:51.459Z</time>
      </trkpt>
      <trkpt lat="58.52406699210405" lon="12.428899928927422">
        <ele>66.55</ele>
        <time>2025-02-05T16:38:15.815Z</time>
      </trkpt>
      <trkpt lat="58.52399197407067" lon="12.42884997278452">
        <ele>66.54</ele>
        <time>2025-02-05T16:38:40.172Z</time>
      </trkpt>
      <trkpt lat="58.523918967694044" lon="12.428797921165824">
        <ele>66.53</ele>
        <time>2025-02-05T16:39:04.530Z</time>
      </trkpt>
      <trkpt lat="58.52384998463094" lon="12.428742935881019">
        <ele>66.52</ele>
        <time>2025-02-05T16:39:28.890Z</time>
      </trkpt>
      <trkpt lat="58.52378091774881" lon="12.428690968081355">
        <ele>66.51</ele>
        <time>2025-02-05T16:39:53.251Z</time>
      </trkpt>
      <trkpt lat="58.52371092885733" lon="12.42863891646266">
        <ele>66.5</ele>
        <time>2025-02-05T16:40:17.613Z</time>
      </trkpt>
      <trkpt lat="58.523639934137464" lon="12.428584937006235">
        <ele>66.49</ele>
        <time>2025-02-05T16:40:41.976Z</time>
      </trkpt>
      <trkpt lat="58.5235689394176" lon="12.42853095754981">
        <ele>66.47</ele>
        <time>2025-02-05T16:41:06.340Z</time>
      </trkpt>
      <trkpt lat="58.52349593304098" lon="12.428479995578527">
        <ele>66.46</ele>
        <time>2025-02-05T16:41:30.706Z</time>
      </trkpt>
      <trkpt lat="58.52342292666435" lon="12.428430961444974">
        <ele>66.45</ele>
        <time>2025-02-05T16:41:55.073Z</time>
      </trkpt>
      <trkpt lat="58.52334899827838" lon="12.42838092148304">
        <ele>66.44</ele>
        <time>2025-02-05T16:42:19.441Z</time>
      </trkpt>
      <trkpt lat="58.523275991901755" lon="12.428328953683376">
        <ele>66.42</ele>
        <time>2025-02-05T16:42:43.810Z</time>
      </trkpt>
      <trkpt lat="58.52320499718189" lon="12.42827095091343">
        <ele>66.4</ele>
        <time>2025-02-05T16:43:08.181Z</time>
      </trkpt>
      <trkpt lat="58.523133918643" lon="12.428210936486721">
        <ele>66.38</ele>
        <time>2025-02-05T16:43:32.553Z</time>
      </trkpt>
      <trkpt lat="58.523061918094754" lon="12.428148994222283">
        <ele>66.36</ele>
        <time>2025-02-05T16:43:56.926Z</time>
      </trkpt>
      <trkpt lat="58.52298991754651" lon="12.428081938996911">
        <ele>66.33</ele>
        <time>2025-02-05T16:44:21.300Z</time>
      </trkpt>
      <trkpt lat="58.52291992865503" lon="12.428006920963526">
        <ele>66.31</ele>
        <time>2025-02-05T16:44:45.676Z</time>
      </trkpt>
      <trkpt lat="58.52285195142031" lon="12.427921928465366">
        <ele>66.29</ele>
        <time>2025-02-05T16:45:10.053Z</time>
      </trkpt>
      <trkpt lat="58.52278699167073" lon="12.427829978987575">
        <ele>66.27</ele>
        <time>2025-02-05T16:45:34.431Z</time>
      </trkpt>
      <trkpt lat="58.52272395975888" lon="12.42773492820561">
        <ele>66.25</ele>
        <time>2025-02-05T16:45:58.811Z</time>
      </trkpt>
      <trkpt lat="58.52266394533217" lon="12.427638955414295">
        <ele>66.23</ele>
        <time>2025-02-05T16:46:23.192Z</time>
      </trkpt>
      <trkpt lat="58.52260594256222" lon="12.4275419767946">
        <ele>66.21</ele>
        <time>2025-02-05T16:46:47.574Z</time>
      </trkpt>
      <trkpt lat="58.522548945620656" lon="12.427445920184255">
        <ele>66.18</ele>
        <time>2025-02-05T16:47:11.957Z</time>
      </trkpt>
      <trkpt lat="58.52248993702233" lon="12.42734994739294">
        <ele>66.16</ele>
        <time>2025-02-05T16:47:36.342Z</time>
      </trkpt>
      <trkpt lat="58.52242992259562" lon="12.427252968773246">
        <ele>66.13</ele>
        <time>2025-02-05T16:48:00.728Z</time>
      </trkpt>
      <trkpt lat="58.522369991987944" lon="12.42715297266841">
        <ele>66.11</ele>
        <time>2025-02-05T16:48:25.115Z</time>
      </trkpt>
      <trkpt lat="58.522308971732855" lon="12.427051970735192">
        <ele>66.08</ele>
        <time>2025-02-05T16:48:49.503Z</time>
      </trkpt>
      <trkpt lat="58.52224895730615" lon="12.426949962973595">
        <ele>66.06</ele>
        <time>2025-02-05T16:49:13.893Z</time>
      </trkpt>
      <trkpt lat="58.52218693122268" lon="12.426850972697139">
        <ele>66.04</ele>
        <time>2025-02-05T16:49:38.284Z</time>
      </trkpt>
      <trkpt lat="58.52212599478662" lon="12.426753994077444">
        <ele>66.02</ele>
        <time>2025-02-05T16:50:02.676Z</time>
      </trkpt>
      <trkpt lat="58.52206497453153" lon="12.426658943295479">
        <ele>65.99</ele>
        <time>2025-02-05T16:50:27.070Z</time>
      </trkpt>
      <trkpt lat="58.52200395427644" lon="12.426564982160926">
        <ele>65.97</ele>
        <time>2025-02-05T16:50:51.465Z</time>
      </trkpt>
      <trkpt lat="58.52194092236459" lon="12.426472948864102">
        <ele>65.95</ele>
        <time>2025-02-05T16:51:15.861Z</time>
      </trkpt>
      <trkpt lat="58.52187596261501" lon="12.42638393305242">
        <ele>65.92</ele>
        <time>2025-02-05T16:51:40.258Z</time>
      </trkpt>
      <trkpt lat="58.52180798538029" lon="12.426299946382642">
        <ele>65.9</ele>
        <time>2025-02-05T16:52:04.657Z</time>
      </trkpt>
      <trkpt lat="58.52173799648881" lon="12.426221994683146">
        <ele>65.87</ele>
        <time>2025-02-05T16:52:29.057Z</time>
      </trkpt>
      <trkpt lat="58.521665995940566" lon="12.426147982478142">
        <ele>65.85</ele>
        <time>2025-02-05T16:52:53.458Z</time>
      </trkpt>
      <trkpt lat="58.52159491740167" lon="12.426073970273137">
        <ele>65.82</ele>
        <time>2025-02-05T16:53:17.861Z</time>
      </trkpt>
      <trkpt lat="58.52152392268181" lon="12.426001969724894">
        <ele>65.8</ele>
        <time>2025-02-05T16:53:42.265Z</time>
      </trkpt>
      <trkpt lat="58.521451922133565" lon="12.425931980833411">
        <ele>65.77</ele>
        <time>2025-02-05T16:54:06.670Z</time>
      </trkpt>
      <trkpt lat="58.52137899957597" lon="12.425861991941929">
        <ele>65.75</ele>
        <time>2025-02-05T16:54:31.076Z</time>
      </trkpt>
      <trkpt lat="58.52130599319935" lon="12.425791919231415">
        <ele>65.72</ele>
        <time>2025-02-05T16:54:55.484Z</time>
      </trkpt>
      <trkpt lat="58.521232986822724" lon="12.425724947825074">
        <ele>65.7</ele>
        <time>2025-02-05T16:55:19.893Z</time>
      </trkpt>
      <trkpt lat="58.5211599804461" lon="12.425656970590353">
        <ele>65.67</ele>
        <time>2025-02-05T16:55:44.303Z</time>
      </trkpt>
      <trkpt lat="58.521086974069476" lon="12.42558698169887">
        <ele>65.65</ele>
        <time>2025-02-05T16:56:08.715Z</time>
      </trkpt>
      <trkpt lat="58.52101396769285" lon="12.425514981150627">
        <ele>65.62</ele>
        <time>2025-02-05T16:56:33.128Z</time>
      </trkpt>
      <trkpt lat="58.52093995548785" lon="12.425442980602384">
        <ele>65.59</ele>
        <time>2025-02-05T16:56:57.542Z</time>
      </trkpt>
      <trkpt lat="58.520867954939604" lon="12.425366956740618">
        <ele>65.56</ele>
        <time>2025-02-05T16:57:21.958Z</time>
      </trkpt>
      <trkpt lat="58.5207989718765" lon="12.42528598755598">
        <ele>65.53</ele>
        <time>2025-02-05T16:57:46.375Z</time>
      </trkpt>
      <trkpt lat="58.52073191665113" lon="12.425200995057821">
        <ele>65.5</ele>
        <time>2025-02-05T16:58:10.793Z</time>
      </trkpt>
      <trkpt lat="58.52066695690155" lon="12.425110973417759">
        <ele>65.48</ele>
        <time>2025-02-05T16:58:35.213Z</time>
      </trkpt>
      <trkpt lat="58.52060291916132" lon="12.425014916807413">
        <ele>65.45</ele>
        <time>2025-02-05T16:58:59.634Z</time>
      </trkpt>
      <trkpt lat="58.52053896524012" lon="12.424912992864847">
        <ele>65.43</ele>
        <time>2025-02-05T16:59:24.056Z</time>
      </trkpt>
      <trkpt lat="58.52047794498503" lon="12.424803944304585">
        <ele>65.4</ele>
        <time>2025-02-05T16:59:48.479Z</time>
      </trkpt>
      <trkpt lat="58.52041692472994" lon="12.424692967906594">
        <ele>65.38</ele>
        <time>2025-02-05T17:00:12.904Z</time>
      </trkpt>
      <trkpt lat="58.52035699412227" lon="12.424579979851842">
        <ele>65.36</ele>
        <time>2025-02-05T17:00:37.330Z</time>
      </trkpt>
      <trkpt lat="58.52029899135232" lon="12.42446799762547">
        <ele>65.33</ele>
        <time>2025-02-05T17:01:01.758Z</time>
      </trkpt>
      <trkpt lat="58.52023998275399" lon="12.424356937408447">
        <ele>65.31</ele>
        <time>2025-02-05T17:01:26.187Z</time>
      </trkpt>
      <trkpt lat="58.520179968327284" lon="12.424247972667217">
        <ele>65.28</ele>
        <time>2025-02-05T17:01:50.617Z</time>
      </trkpt>
      <trkpt lat="58.520117942243814" lon="12.424142947420478">
        <ele>65.25</ele>
        <time>2025-02-05T17:02:15.049Z</time>
      </trkpt>
      <trkpt lat="58.520054994150996" lon="12.42404194548726">
        <ele>65.23</ele>
        <time>2025-02-05T17:02:39.482Z</time>
      </trkpt>
      <trkpt lat="58.51999296806753" lon="12.423944966867566">
        <ele>65.2</ele>
        <time>2025-02-05T17:03:03.916Z</time>
      </trkpt>
      <trkpt lat="58.51992993615568" lon="12.423848994076252">
        <ele>65.17</ele>
        <time>2025-02-05T17:03:28.351Z</time>
      </trkpt>
      <trkpt lat="58.51986698806286" lon="12.423754949122667">
        <ele>65.15</ele>
        <time>2025-02-05T17:03:52.788Z</time>
      </trkpt>
      <trkpt lat="58.51980194449425" lon="12.423660987988114">
        <ele>65.12</ele>
        <time>2025-02-05T17:04:17.226Z</time>
      </trkpt>
      <trkpt lat="58.51973597891629" lon="12.42356694303453">
        <ele>65.09</ele>
        <time>2025-02-05T17:04:41.665Z</time>
      </trkpt>
      <trkpt lat="58.519670935347676" lon="12.423470970243216">
        <ele>65.06</ele>
        <time>2025-02-05T17:05:06.106Z</time>
      </trkpt>
      <trkpt lat="58.519602958112955" lon="12.423376925289631">
        <ele>65.03</ele>
        <time>2025-02-05T17:05:30.548Z</time>
      </trkpt>
      <trkpt lat="58.519535986706614" lon="12.423281958326697">
        <ele>65.0</ele>
        <time>2025-02-05T17:05:54.991Z</time>
      </trkpt>
      <trkpt lat="58.51946893148124" lon="12.423188919201493">
        <ele>64.97</ele>
        <time>2025-02-05T17:06:19.436Z</time>
      </trkpt>
      <trkpt lat="58.5194019600749" lon="12.423097975552082">
        <ele>64.95</ele>
        <time>2025-02-05T17:06:43.882Z</time>
      </trkpt>
      <trkpt lat="58.51933599449694" lon="12.4230089597404">
        <ele>64.92</ele>
        <time>2025-02-05T17:07:08.329Z</time>
      </trkpt>
      <trkpt lat="58.51926893927157" lon="12.42292195558548">
        <ele>64.89</ele>
        <time>2025-02-05T17:07:32.778Z</time>
      </trkpt>
      <trkpt lat="58.51920297369361" lon="12.422839980572462">
        <ele>64.87</ele>
        <time>2025-02-05T17:07:57.228Z</time>
      </trkpt>
      <trkpt lat="58.51913893595338" lon="12.422760939225554">
        <ele>64.84</ele>
        <time>2025-02-05T17:08:21.679Z</time>
      </trkpt>
      <trkpt lat="58.51907598786056" lon="12.422681981697679">
        <ele>64.81</ele>
        <time>2025-02-05T17:08:46.131Z</time>
      </trkpt>
      <trkpt lat="58.51901396177709" lon="12.422604952007532">
        <ele>64.79</ele>
        <time>2025-02-05T17:09:10.584Z</time>
      </trkpt>
      <trkpt lat="58.51895092986524" lon="12.422526916489005">
        <ele>64.76</ele>
        <time>2025-02-05T17:09:35.039Z</time>
      </trkpt>
      <trkpt lat="58.51888496428728" lon="12.42244997061789">
        <ele>64.73</ele>
        <time>2025-02-05T17:09:59.495Z</time>
      </trkpt>
      <trkpt lat="58.51881598122418" lon="12.422372940927744">
        <ele>64.71</ele>
        <time>2025-02-05T17:10:23.952Z</time>
      </trkpt>
      <trkpt lat="58.518743980675936" lon="12.4223009403795">
        <ele>64.68</ele>
        <time>2025-02-05T17:10:48.410Z</time>
      </trkpt>
      <trkpt lat="58.51866996847093" lon="12.422231957316399">
        <ele>64.66</ele>
        <time>2025-02-05T17:11:12.870Z</time>
      </trkpt>
      <trkpt lat="58.518593944609165" lon="12.422165991738439">
        <ele>64.64</ele>
        <time>2025-02-05T17:11:37.331Z</time>
      </trkpt>
      <trkpt lat="58.5185179207474" lon="12.42210497148335">
        <ele>64.61</ele>
        <time>2025-02-05T17:12:01.793Z</time>
      </trkpt>
      <trkpt lat="58.518443992361426" lon="12.42204093374312">
        <ele>64.58</ele>
        <time>2025-02-05T17:12:26.257Z</time>
      </trkpt>
      <trkpt lat="58.51836998015642" lon="12.421973962336779">
        <ele>64.55</ele>
        <time>2025-02-05T17:12:50.722Z</time>
      </trkpt>
      <trkpt lat="58.51829596795142" lon="12.421905985102057">
        <ele>64.53</ele>
        <time>2025-02-05T17:13:15.188Z</time>
      </trkpt>
      <trkpt lat="58.51822396740317" lon="12.421838929876685">
        <ele>64.5</ele>
        <time>2025-02-05T17:13:39.656Z</time>
      </trkpt>
      <trkpt lat="58.51815397851169" lon="12.421769946813583">
        <ele>64.47</ele>
        <time>2025-02-05T17:14:04.125Z</time>
      </trkpt>
      <trkpt lat="58.51808499544859" lon="12.42169694043696">
        <ele>64.45</ele>
        <time>2025-02-05T17:14:28.595Z</time>
      </trkpt>
      <trkpt lat="58.51801794022322" lon="12.421619994565845">
        <ele>64.42</ele>
        <time>2025-02-05T17:14:53.066Z</time>
      </trkpt>
      <trkpt lat="58.517949962988496" lon="12.421542964875698">
        <ele>64.39</ele>
        <time>2025-02-05T17:15:17.539Z</time>
      </trkpt>
      <trkpt lat="58.517881985753775" lon="12.42146392352879">
        <ele>64.36</ele>
        <time>2025-02-05T17:15:42.013Z</time>
      </trkpt>
      <trkpt lat="58.51781199686229" lon="12.421385971829295">
        <ele>64.33</ele>
        <time>2025-02-05T17:16:06.488Z</time>
      </trkpt>
      <trkpt lat="58.51774292998016" lon="12.421306930482388">
        <ele>64.31</ele>
        <time>2025-02-05T17:16:30.965Z</time>
      </trkpt>
      <trkpt lat="58.51767294108868" lon="12.421230990439653">
        <ele>64.28</ele>
        <time>2025-02-05T17:16:55.443Z</time>
      </trkpt>
      <trkpt lat="58.517603958025575" lon="12.421155972406268">
        <ele>64.25</ele>
        <time>2025-02-05T17:17:19.922Z</time>
      </trkpt>
      <trkpt lat="58.51753598079085" lon="12.421080954372883">
        <ele>64.22</ele>
        <time>2025-02-05T17:17:44.402Z</time>
      </trkpt>
      <trkpt lat="58.5174679197371" lon="12.421005936339498">
        <ele>64.19</ele>
        <time>2025-02-05T17:18:08.884Z</time>
      </trkpt>
      <trkpt lat="58.51740094833076" lon="12.420930918306112">
        <ele>64.17</ele>
        <time>2025-02-05T17:18:33.367Z</time>
      </trkpt>
      <trkpt lat="58.5173349827528" lon="12.420855984091759">
        <ele>64.14</ele>
        <time>2025-02-05T17:18:57.851Z</time>
      </trkpt>
      <trkpt lat="58.51726792752743" lon="12.420781971886754">
        <ele>64.11</ele>
        <time>2025-02-05T17:19:22.336Z</time>
      </trkpt>
      <trkpt lat="58.51720095612109" lon="12.42070896551013">
        <ele>64.08</ele>
        <time>2025-02-05T17:19:46.823Z</time>
      </trkpt>
      <trkpt lat="58.517132978886366" lon="12.420635959133506">
        <ele>64.05</ele>
        <time>2025-02-05T17:20:11.311Z</time>
      </trkpt>
      <trkpt lat="58.517063995823264" lon="12.42056094110012">
        <ele>64.02</ele>
        <time>2025-02-05T17:20:35.800Z</time>
      </trkpt>
      <trkpt lat="58.51699593476951" lon="12.420482989400625">
        <ele>64.0</ele>
        <time>2025-02-05T17:21:00.290Z</time>
      </trkpt>
      <trkpt lat="58.51692896336317" lon="12.420401936396956">
        <ele>63.97</ele>
        <time>2025-02-05T17:21:24.782Z</time>
      </trkpt>
      <trkpt lat="58.51686098612845" lon="12.420318955555558">
        <ele>63.94</ele>
        <time>2025-02-05T17:21:49.275Z</time>
      </trkpt>
      <trkpt lat="58.51679393090308" lon="12.420233963057399">
        <ele>63.91</ele>
        <time>2025-02-05T17:22:13.769Z</time>
      </trkpt>
      <trkpt lat="58.516725953668356" lon="12.420147964730859">
        <ele>63.88</ele>
        <time>2025-02-05T17:22:38.265Z</time>
      </trkpt>
      <trkpt lat="58.516657976433635" lon="12.420060960575938">
        <ele>63.85</ele>
        <time>2025-02-05T17:23:02.762Z</time>
      </trkpt>
      <trkpt lat="58.51658899337053" lon="12.419973956421018">
        <ele>63.82</ele>
        <time>2025-02-05T17:23:27.260Z</time>
      </trkpt>
      <trkpt lat="58.51652193814516" lon="12.419887958094478">
        <ele>63.79</ele>
        <time>2025-02-05T17:23:51.760Z</time>
      </trkpt>
      <trkpt lat="58.51645496673882" lon="12.419799948111176">
        <ele>63.77</ele>
        <time>2025-02-05T17:24:16.261Z</time>
      </trkpt>
      <trkpt lat="58.51638992317021" lon="12.419711938127875">
        <ele>63.74</ele>
        <time>2025-02-05T17:24:40.763Z</time>
      </trkpt>
      <trkpt lat="58.51632496342063" lon="12.419622922316194">
        <ele>63.71</ele>
        <time>2025-02-05T17:25:05.266Z</time>
      </trkpt>
      <trkpt lat="58.51625899784267" lon="12.419536923989654">
        <ele>63.68</ele>
        <time>2025-02-05T17:25:29.771Z</time>
      </trkpt>
      <trkpt lat="58.51619395427406" lon="12.419449919834733">
        <ele>63.65</ele>
        <time>2025-02-05T17:25:54.277Z</time>
      </trkpt>
      <trkpt lat="58.51612899452448" lon="12.419363921508193">
        <ele>63.62</ele>
        <time>2025-02-05T17:26:18.784Z</time>
      </trkpt>
      <trkpt lat="58.51606395095587" lon="12.419275995343924">
        <ele>63.59</ele>
        <time>2025-02-05T17:26:43.292Z</time>
      </trkpt>
      <trkpt lat="58.51599798537791" lon="12.419187985360622">
        <ele>63.57</ele>
        <time>2025-02-05T17:27:07.802Z</time>
      </trkpt>
      <trkpt lat="58.515930930152535" lon="12.419099975377321">
        <ele>63.54</ele>
        <time>2025-02-05T17:27:32.313Z</time>
      </trkpt>
      <trkpt lat="58.515864964574575" lon="12.4190129712224">
        <ele>63.51</ele>
        <time>2025-02-05T17:27:56.825Z</time>
      </trkpt>
      <trkpt lat="58.515800926834345" lon="12.41892596706748">
        <ele>63.48</ele>
        <time>2025-02-05T17:28:21.339Z</time>
      </trkpt>
      <trkpt lat="58.515736972913146" lon="12.418837957084179">
        <ele>63.46</ele>
        <time>2025-02-05T17:28:45.854Z</time>
      </trkpt>
      <trkpt lat="58.515672935172915" lon="12.41875296458602">
        <ele>63.43</ele>
        <time>2025-02-05T17:29:10.370Z</time>
      </trkpt>
      <trkpt lat="58.5156099870801" lon="12.41866797208786">
        <ele>63.4</ele>
        <time>2025-02-05T17:29:34.887Z</time>
      </trkpt>
      <trkpt lat="58.515544943511486" lon="12.41858197376132">
        <ele>63.37</ele>
        <time>2025-02-05T17:29:59.406Z</time>
      </trkpt>
      <trkpt lat="58.515478977933526" lon="12.418493963778019">
        <ele>63.35</ele>
        <time>2025-02-05T17:30:23.926Z</time>
      </trkpt>
      <trkpt lat="58.515412928536534" lon="12.418406959623098">
        <ele>63.32</ele>
        <time>2025-02-05T17:30:48.447Z</time>
      </trkpt>
      <trkpt lat="58.515346962958574" lon="12.418318949639797">
        <ele>63.3</ele>
        <time>2025-02-05T17:31:12.969Z</time>
      </trkpt>
      <trkpt lat="58.515280997380614" lon="12.418229933828115">
        <ele>63.27</ele>
        <time>2025-02-05T17:31:37.493Z</time>
      </trkpt>
      <trkpt lat="58.51521494798362" lon="12.418142929673195">
        <ele>63.24</ele>
        <time>2025-02-05T17:32:02.018Z</time>
      </trkpt>
      <trkpt lat="58.51514898240566" lon="12.418057937175035">
        <ele>63.21</ele>
        <time>2025-02-05T17:32:26.544Z</time>
      </trkpt>
      <trkpt lat="58.51508595049381" lon="12.417972944676876">
        <ele>63.18</ele>
        <time>2025-02-05T17:32:51.072Z</time>
      </trkpt>
      <trkpt lat="58.51502291858196" lon="12.417891975492239">
        <ele>63.16</ele>
        <time>2025-02-05T17:33:15.601Z</time>
      </trkpt>
      <trkpt lat="58.514960976317525" lon="12.41781092248857">
        <ele>63.13</ele>
        <time>2025-02-05T17:33:40.131Z</time>
      </trkpt>
      <trkpt lat="58.514899956062436" lon="12.417728947475553">
        <ele>63.1</ele>
        <time>2025-02-05T17:34:04.662Z</time>
      </trkpt>
      <trkpt lat="58.51483792997897" lon="12.417645966634154">
        <ele>63.07</ele>
        <time>2025-02-05T17:34:29.194Z</time>
      </trkpt>
      <trkpt lat="58.51477598771453" lon="12.417562985792756">
        <ele>63.05</ele>
        <time>2025-02-05T17:34:53.728Z</time>
      </trkpt>
      <trkpt lat="58.51471295580268" lon="12.417477993294597">
        <ele>63.02</ele>
        <time>2025-02-05T17:35:18.263Z</time>
      </trkpt>
      <trkpt lat="58.51464891806245" lon="12.417394928634167">
        <ele>63.0</ele>
        <time>2025-02-05T17:35:42.799Z</time>
      </trkpt>
      <trkpt lat="58.51458395831287" lon="12.417310941964388">
        <ele>62.97</ele>
        <time>2025-02-05T17:36:07.336Z</time>
      </trkpt>
      <trkpt lat="58.51451799273491" lon="12.41722896695137">
        <ele>62.95</ele>
        <time>2025-02-05T17:36:31.875Z</time>
      </trkpt>
      <trkpt lat="58.5144529491663" lon="12.417144980281591">
        <ele>62.93</ele>
        <time>2025-02-05T17:36:56.415Z</time>
      </trkpt>
      <trkpt lat="58.51438798941672" lon="12.417059987783432">
        <ele>62.91</ele>
        <time>2025-02-05T17:37:20.956Z</time>
      </trkpt>
      <trkpt lat="58.51432194001973" lon="12.416973989456892">
        <ele>62.89</ele>
        <time>2025-02-05T17:37:45.498Z</time>
      </trkpt>
      <trkpt lat="58.514254968613386" lon="12.416887991130352">
        <ele>62.88</ele>
        <time>2025-02-05T17:38:10.042Z</time>
      </trkpt>
      <trkpt lat="58.514187997207046" lon="12.416800986975431">
        <ele>62.86</ele>
        <time>2025-02-05T17:38:34.587Z</time>
      </trkpt>
      <trkpt lat="58.51412094198167" lon="12.41671297699213">
        <ele>62.83</ele>
        <time>2025-02-05T17:38:59.133Z</time>
      </trkpt>
      <trkpt lat="58.51405296474695" lon="12.416623961180449">
        <ele>62.81</ele>
        <time>2025-02-05T17:39:23.681Z</time>
      </trkpt>
      <trkpt lat="58.51398498751223" lon="12.416536957025528">
        <ele>62.8</ele>
        <time>2025-02-05T17:39:48.230Z</time>
      </trkpt>
      <trkpt lat="58.51391793228686" lon="12.416449952870607">
        <ele>62.78</ele>
        <time>2025-02-05T17:40:12.780Z</time>
      </trkpt>
      <trkpt lat="58.5138519667089" lon="12.416361942887306">
        <ele>62.76</ele>
        <time>2025-02-05T17:40:37.332Z</time>
      </trkpt>
      <trkpt lat="58.51378692314029" lon="12.416272927075624">
        <ele>62.75</ele>
        <time>2025-02-05T17:41:01.885Z</time>
      </trkpt>
      <trkpt lat="58.51372095756233" lon="12.416186928749084">
        <ele>62.73</ele>
        <time>2025-02-05T17:41:26.439Z</time>
      </trkpt>
      <trkpt lat="58.51365398615599" lon="12.416101936250925">
        <ele>62.72</ele>
        <time>2025-02-05T17:41:50.994Z</time>
      </trkpt>
      <trkpt lat="58.513587936758995" lon="12.416017949581146">
        <ele>62.71</ele>
        <time>2025-02-05T17:42:15.551Z</time>
      </trkpt>
      <trkpt lat="58.513521971181035" lon="12.415934968739748">
        <ele>62.7</ele>
        <time>2025-02-05T17:42:40.109Z</time>
      </trkpt>
      <trkpt lat="58.513456927612424" lon="12.41585299372673">
        <ele>62.69</ele>
        <time>2025-02-05T17:43:04.668Z</time>
      </trkpt>
      <trkpt lat="58.513391967862844" lon="12.41576791740954">
        <ele>62.68</ele>
        <time>2025-02-05T17:43:29.228Z</time>
      </trkpt>
      <trkpt lat="58.51332692429423" lon="12.41568292491138">
        <ele>62.67</ele>
        <time>2025-02-05T17:43:53.790Z</time>
      </trkpt>
      <trkpt lat="58.51325995288789" lon="12.415599944069982">
        <ele>62.66</ele>
        <time>2025-02-05T17:44:18.353Z</time>
      </trkpt>
      <trkpt lat="58.51319298148155" lon="12.415516963228583">
        <ele>62.66</ele>
        <time>2025-02-05T17:44:42.917Z</time>
      </trkpt>
      <trkpt lat="58.51312592625618" lon="12.415435994043946">
        <ele>62.65</ele>
        <time>2025-02-05T17:45:07.483Z</time>
      </trkpt>
      <trkpt lat="58.5130609665066" lon="12.415353935211897">
        <ele>62.65</ele>
        <time>2025-02-05T17:45:32.050Z</time>
      </trkpt>
      <trkpt lat="58.51299692876637" lon="12.415269948542118">
        <ele>62.65</ele>
        <time>2025-02-05T17:45:56.618Z</time>
      </trkpt>
      <trkpt lat="58.51293096318841" lon="12.415188979357481">
        <ele>62.65</ele>
        <time>2025-02-05T17:46:21.187Z</time>
      </trkpt>
      <trkpt lat="58.51286499761045" lon="12.415105998516083">
        <ele>62.65</ele>
        <time>2025-02-05T17:46:45.758Z</time>
      </trkpt>
      <trkpt lat="58.51279894821346" lon="12.415022933855653">
        <ele>62.65</ele>
        <time>2025-02-05T17:47:10.330Z</time>
      </trkpt>
      <trkpt lat="58.51273197680712" lon="12.414940958842635">
        <ele>62.65</ele>
        <time>2025-02-05T17:47:34.903Z</time>
      </trkpt>
      <trkpt lat="58.512665927410126" lon="12.414858983829618">
        <ele>62.66</ele>
        <time>2025-02-05T17:47:59.477Z</time>
      </trkpt>
      <trkpt lat="58.512600967660546" lon="12.414777930825949">
        <ele>62.66</ele>
        <time>2025-02-05T17:48:24.053Z</time>
      </trkpt>
      <trkpt lat="58.512533996254206" lon="12.414695955812931">
        <ele>62.67</ele>
        <time>2025-02-05T17:48:48.630Z</time>
      </trkpt>
      <trkpt lat="58.51246694102883" lon="12.414614986628294">
        <ele>62.67</ele>
        <time>2025-02-05T17:49:13.208Z</time>
      </trkpt>
      <trkpt lat="58.51239996962249" lon="12.414533933624625">
        <ele>62.68</ele>
        <time>2025-02-05T17:49:37.787Z</time>
      </trkpt>
      <trkpt lat="58.51233299821615" lon="12.41445497609675">
        <ele>62.68</ele>
        <time>2025-02-05T17:50:02.368Z</time>
      </trkpt>
      <trkpt lat="58.51226594299078" lon="12.414378952234983">
        <ele>62.69</ele>
        <time>2025-02-05T17:50:26.950Z</time>
      </trkpt>
      <trkpt lat="58.51219796575606" lon="12.414303934201598">
        <ele>62.7</ele>
        <time>2025-02-05T17:50:51.533Z</time>
      </trkpt>
      <trkpt lat="58.51212898269296" lon="12.414228999987245">
        <ele>62.72</ele>
        <time>2025-02-05T17:51:16.117Z</time>
      </trkpt>
      <trkpt lat="58.512060921639204" lon="12.41415498778224">
        <ele>62.73</ele>
        <time>2025-02-05T17:51:40.703Z</time>
      </trkpt>
      <trkpt lat="58.51199093274772" lon="12.414081981405616">
        <ele>62.75</ele>
        <time>2025-02-05T17:52:05.290Z</time>
      </trkpt>
      <trkpt lat="58.51192194968462" lon="12.414009980857372">
        <ele>62.77</ele>
        <time>2025-02-05T17:52:29.878Z</time>
      </trkpt>
      <trkpt lat="58.51185095496476" lon="12.41393999196589">
        <ele>62.79</ele>
        <time>2025-02-05T17:52:54.468Z</time>
      </trkpt>
      <trkpt lat="58.511779960244894" lon="12.413869919255376">
        <ele>62.81</ele>
        <time>2025-02-05T17:53:19.059Z</time>
      </trkpt>
      <trkpt lat="58.51170795969665" lon="12.413799930363894">
        <ele>62.83</ele>
        <time>2025-02-05T17:53:43.651Z</time>
      </trkpt>
      <trkpt lat="58.51163595914841" lon="12.41372893564403">
        <ele>62.86</ele>
        <time>2025-02-05T17:54:08.244Z</time>
      </trkpt>
      <trkpt lat="58.51156395860016" lon="12.413657940924168">
        <ele>62.88</ele>
        <time>2025-02-05T17:54:32.839Z</time>
      </trkpt>
      <trkpt lat="58.5114929638803" lon="12.413585940375924">
        <ele>62.91</ele>
        <time>2025-02-05T17:54:57.435Z</time>
      </trkpt>
      <trkpt lat="58.51142498664558" lon="12.413516957312822">
        <ele>62.94</ele>
        <time>2025-02-05T17:55:22.032Z</time>
      </trkpt>
      <trkpt lat="58.51135793142021" lon="12.413448980078101">
        <ele>62.97</ele>
        <time>2025-02-05T17:55:46.630Z</time>
      </trkpt>
      <trkpt lat="58.51129196584225" lon="12.41338293068111">
        <ele>63.01</ele>
        <time>2025-02-05T17:56:11.230Z</time>
      </trkpt>
      <trkpt lat="58.511224994435906" lon="12.41331696510315">
        <ele>63.04</ele>
        <time>2025-02-05T17:56:35.831Z</time>
      </trkpt>
      <trkpt lat="58.51115592755377" lon="12.413248987868428">
        <ele>63.08</ele>
        <time>2025-02-05T17:57:00.433Z</time>
      </trkpt>
      <trkpt lat="58.51108593866229" lon="12.413180926814675">
        <ele>63.12</ele>
        <time>2025-02-05T17:57:25.036Z</time>
      </trkpt>
      <trkpt lat="58.51101695559919" lon="12.413114961236715">
        <ele>63.16</ele>
        <time>2025-02-05T17:57:49.641Z</time>
      </trkpt>
      <trkpt lat="58.51094797253609" lon="12.413050923496485">
        <ele>63.2</ele>
        <time>2025-02-05T17:58:14.247Z</time>
      </trkpt>
      <trkpt lat="58.510878989472985" lon="12.412984957918525">
        <ele>63.25</ele>
        <time>2025-02-05T17:58:38.854Z</time>
      </trkpt>
      <trkpt lat="58.51080992259085" lon="12.412916980683804">
        <ele>63.3</ele>
        <time>2025-02-05T17:59:03.462Z</time>
      </trkpt>
      <trkpt lat="58.51073993369937" lon="12.412850931286812">
        <ele>63.35</ele>
        <time>2025-02-05T17:59:28.072Z</time>
      </trkpt>
      <trkpt lat="58.51066994480789" lon="12.412786977365613">
        <ele>63.4</ele>
        <time>2025-02-05T17:59:52.683Z</time>
      </trkpt>
      <trkpt lat="58.510601967573166" lon="12.412723945453763">
        <ele>63.46</ele>
        <time>2025-02-05T18:00:17.295Z</time>
      </trkpt>
      <trkpt lat="58.510533990338445" lon="12.412657979875803">
        <ele>63.51</ele>
        <time>2025-02-05T18:00:41.908Z</time>
      </trkpt>
      <trkpt lat="58.51046794094145" lon="12.41258991882205">
        <ele>63.57</ele>
        <time>2025-02-05T18:01:06.522Z</time>
      </trkpt>
      <trkpt lat="58.51040197536349" lon="12.412520935758948">
        <ele>63.63</ele>
        <time>2025-02-05T18:01:31.138Z</time>
      </trkpt>
      <trkpt lat="58.5103359259665" lon="12.412451952695847">
        <ele>63.69</ele>
        <time>2025-02-05T18:01:55.755Z</time>
      </trkpt>
      <trkpt lat="58.51026895456016" lon="12.412382969632745">
        <ele>63.75</ele>
        <time>2025-02-05T18:02:20.373Z</time>
      </trkpt>
      <trkpt lat="58.5102029889822" lon="12.412313986569643">
        <ele>63.81</ele>
        <time>2025-02-05T18:02:44.992Z</time>
      </trkpt>
      <trkpt lat="58.51013895124197" lon="12.412240980193019">
        <ele>63.87</ele>
        <time>2025-02-05T18:03:09.613Z</time>
      </trkpt>
      <trkpt lat="58.51007399149239" lon="12.412163950502872">
        <ele>63.94</ele>
        <time>2025-02-05T18:03:34.235Z</time>
      </trkpt>
      <trkpt lat="58.51000693626702" lon="12.412089938297868">
        <ele>64.01</ele>
        <time>2025-02-05T18:03:58.858Z</time>
      </trkpt>
      <trkpt lat="58.5099389590323" lon="12.412021961063147">
        <ele>64.08</ele>
        <time>2025-02-05T18:04:23.482Z</time>
      </trkpt>
      <trkpt lat="58.509870981797576" lon="12.411954989656806">
        <ele>64.15</ele>
        <time>2025-02-05T18:04:48.107Z</time>
      </trkpt>
      <trkpt lat="58.50980292074382" lon="12.411892963573337">
        <ele>64.23</ele>
        <time>2025-02-05T18:05:12.734Z</time>
      </trkpt>
      <trkpt lat="58.5097349435091" lon="12.411832949146628">
        <ele>64.31</ele>
        <time>2025-02-05T18:05:37.362Z</time>
      </trkpt>
      <trkpt lat="58.509665960446" lon="12.411774946376681">
        <ele>64.39</ele>
        <time>2025-02-05T18:06:01.991Z</time>
      </trkpt>
      <trkpt lat="58.50959395989776" lon="12.411717949435115">
        <ele>64.47</ele>
        <time>2025-02-05T18:06:26.621Z</time>
      </trkpt>
      <trkpt lat="58.50952195934951" lon="12.411660952493548">
        <ele>64.56</ele>
        <time>2025-02-05T18:06:51.253Z</time>
      </trkpt>
      <trkpt lat="58.50944794714451" lon="12.411603955551982">
        <ele>64.65</ele>
        <time>2025-02-05T18:07:15.886Z</time>
      </trkpt>
      <trkpt lat="58.509374940767884" lon="12.411548970267177">
        <ele>64.74</ele>
        <time>2025-02-05T18:07:40.520Z</time>
      </trkpt>
      <trkpt lat="58.50930092856288" lon="12.41149297915399">
        <ele>64.83</ele>
        <time>2025-02-05T18:08:05.155Z</time>
      </trkpt>
      <trkpt lat="58.509226916357875" lon="12.411431958898902">
        <ele>64.93</ele>
        <time>2025-02-05T18:08:29.792Z</time>
      </trkpt>
      <trkpt lat="58.50915399380028" lon="12.411371944472194">
        <ele>65.03</ele>
        <time>2025-02-05T18:08:54.430Z</time>
      </trkpt>
      <trkpt lat="58.50908098742366" lon="12.411310924217105">
        <ele>65.13</ele>
        <time>2025-02-05T18:09:19.069Z</time>
      </trkpt>
      <trkpt lat="58.509009992703795" lon="12.411245964467525">
        <ele>65.23</ele>
        <time>2025-02-05T18:09:43.709Z</time>
      </trkpt>
      <trkpt lat="58.50894293747842" lon="12.411172958090901">
        <ele>65.33</ele>
        <time>2025-02-05T18:10:08.351Z</time>
      </trkpt>
      <trkpt lat="58.508878983557224" lon="12.411094922572374">
        <ele>65.44</ele>
        <time>2025-02-05T18:10:32.994Z</time>
      </trkpt>
      <trkpt lat="58.508817963302135" lon="12.411013953387737">
        <ele>65.55</ele>
        <time>2025-02-05T18:10:57.638Z</time>
      </trkpt>
      <trkpt lat="58.50876197218895" lon="12.410930972546339">
        <ele>65.66</ele>
        <time>2025-02-05T18:11:22.283Z</time>
      </trkpt>
      <trkpt lat="58.508708998560905" lon="12.41084598004818">
        <ele>65.77</ele>
        <time>2025-02-05T18:11:46.929Z</time>
      </trkpt>
      <trkpt lat="58.50865795277059" lon="12.410762999206781">
        <ele>65.88</ele>
        <time>2025-02-05T18:12:11.576Z</time>
      </trkpt>
      <trkpt lat="58.50860992446542" lon="12.410679934546351">
        <ele>65.99</ele>
        <time>2025-02-05T18:12:36.224Z</time>
      </trkpt>
      <trkpt lat="58.50856499746442" lon="12.410596953704953">
        <ele>66.1</ele>
        <time>2025-02-05T18:13:00.874Z</time>
      </trkpt>
      <trkpt lat="58.50851998664439" lon="12.410510955378413">
        <ele>66.21</ele>
        <time>2025-02-05T18:13:25.525Z</time>
      </trkpt>
      <trkpt lat="58.508472964167595" lon="12.410422945395112">
        <ele>66.33</ele>
        <time>2025-02-05T18:13:50.177Z</time>
      </trkpt>
      <trkpt lat="58.508427953347564" lon="12.410324960947037">
        <ele>66.45</ele>
        <time>2025-02-05T18:14:14.830Z</time>
      </trkpt>
      <trkpt lat="58.50838294252753" lon="12.410213984549046">
        <ele>66.57</ele>
        <time>2025-02-05T18:14:39.484Z</time>
      </trkpt>
      <trkpt lat="58.50833893753588" lon="12.410091944038868">
        <ele>66.7</ele>
        <time>2025-02-05T18:15:04.139Z</time>
      </trkpt>
      <trkpt lat="58.508298955857754" lon="12.409961940720677">
        <ele>66.82</ele>
        <time>2025-02-05T18:15:28.795Z</time>
      </trkpt>
      <trkpt lat="58.50826098583639" lon="12.409828919917345">
        <ele>66.95</ele>
        <time>2025-02-05T18:15:53.453Z</time>
      </trkpt>
      <trkpt lat="58.50822695530951" lon="12.409692965447903">
        <ele>67.07</ele>
        <time>2025-02-05T18:16:18.112Z</time>
      </trkpt>
      <trkpt lat="58.508195942267776" lon="12.409556927159429">
        <ele>67.2</ele>
        <time>2025-02-05T18:16:42.772Z</time>
      </trkpt>
      <trkpt lat="58.5081669408828" lon="12.409420972689986">
        <ele>67.33</ele>
        <time>2025-02-05T18:17:07.433Z</time>
      </trkpt>
      <trkpt lat="58.50813995115459" lon="12.409283928573132">
        <ele>67.47</ele>
        <time>2025-02-05T18:17:32.096Z</time>
      </trkpt>
      <trkpt lat="58.50811296142638" lon="12.409143950790167">
        <ele>67.6</ele>
        <time>2025-02-05T18:17:56.760Z</time>
      </trkpt>
      <trkpt lat="58.508086977526546" lon="12.409002967178822">
        <ele>67.74</ele>
        <time>2025-02-05T18:18:21.425Z</time>
      </trkpt>
      <trkpt lat="58.508060993626714" lon="12.408860977739096">
        <ele>67.88</ele>
        <time>2025-02-05T18:18:46.091Z</time>
      </trkpt>
      <trkpt lat="58.50803299807012" lon="12.40871999412775">
        <ele>68.02</ele>
        <time>2025-02-05T18:19:10.759Z</time>
      </trkpt>
      <trkpt lat="58.508004918694496" lon="12.408578926697373">
        <ele>68.17</ele>
        <time>2025-02-05T18:19:35.428Z</time>
      </trkpt>
      <trkpt lat="58.507977928966284" lon="12.40844096057117">
        <ele>68.32</ele>
        <time>2025-02-05T18:20:00.098Z</time>
      </trkpt>
      <trkpt lat="58.50795093923807" lon="12.408306933939457">
        <ele>68.47</ele>
        <time>2025-02-05T18:20:24.769Z</time>
      </trkpt>
      <trkpt lat="58.50792596116662" lon="12.408179948106408">
        <ele>68.62</ele>
        <time>2025-02-05T18:20:49.441Z</time>
      </trkpt>
      <trkpt lat="58.50790098309517" lon="12.408061930909753">
        <ele>68.78</ele>
        <time>2025-02-05T18:21:14.115Z</time>
      </trkpt>
      <trkpt lat="58.507872987538576" lon="12.407957995310426">
        <ele>68.93</ele>
        <time>2025-02-05T18:21:38.790Z</time>
      </trkpt>
      <trkpt lat="58.50783996284008" lon="12.407871996983886">
        <ele>69.08</ele>
        <time>2025-02-05T18:22:03.465Z</time>
      </trkpt>
      <trkpt lat="58.50780492648482" lon="12.407804941758513">
        <ele>69.23</ele>
        <time>2025-02-05T18:22:28.141Z</time>
      </trkpt>
      <trkpt lat="58.507763938978314" lon="12.407740987837315">
        <ele>69.38</ele>
        <time>2025-02-05T18:22:52.818Z</time>
      </trkpt>
      <trkpt lat="58.50771892815828" lon="12.407677955925465">
        <ele>69.53</ele>
        <time>2025-02-05T18:23:17.496Z</time>
      </trkpt>
      <trkpt lat="58.50767198950052" lon="12.407619953155518">
        <ele>69.68</ele>
        <time>2025-02-05T18:23:42.175Z</time>
      </trkpt>
      <trkpt lat="58.50762597285211" lon="12.407566979527473">
        <ele>69.84</ele>
        <time>2025-02-05T18:24:06.855Z</time>
      </trkpt>
      <trkpt lat="58.50757794454694" lon="12.407521968707442">
        <ele>69.99</ele>
        <time>2025-02-05T18:24:31.536Z</time>
      </trkpt>
      <trkpt lat="58.507527988404036" lon="12.407481987029314">
        <ele>70.15</ele>
        <time>2025-02-05T18:24:56.217Z</time>
      </trkpt>
      <trkpt lat="58.50747895427048" lon="12.407442927360535">
        <ele>70.3</ele>
        <time>2025-02-05T18:25:20.899Z</time>
      </trkpt>
      <trkpt lat="58.50742698647082" lon="12.407406968995929">
        <ele>70.46</ele>
        <time>2025-02-05T18:25:45.582Z</time>
      </trkpt>
      <trkpt lat="58.50737493485212" lon="12.40736992098391">
        <ele>70.61</ele>
        <time>2025-02-05T18:26:10.266Z</time>
      </trkpt>
      <trkpt lat="58.50732699036598" lon="12.407330945134163">
        <ele>70.77</ele>
        <time>2025-02-05T18:26:34.951Z</time>
      </trkpt>
      <trkpt lat="58.50728097371757" lon="12.407286940142512">
        <ele>70.93</ele>
        <time>2025-02-05T18:26:59.637Z</time>
      </trkpt>
      <trkpt lat="58.5072329454124" lon="12.407232960686088">
        <ele>71.09</ele>
        <time>2025-02-05T18:27:24.324Z</time>
      </trkpt>
      <trkpt lat="58.507184917107224" lon="12.407170934602618">
        <ele>71.24</ele>
        <time>2025-02-05T18:27:49.012Z</time>
      </trkpt>
      <trkpt lat="58.50713496096432" lon="12.407101951539516">
        <ele>71.4</ele>
        <time>2025-02-05T18:28:13.701Z</time>
      </trkpt>
      <trkpt lat="58.50708399899304" lon="12.407032968476415">
        <ele>71.56</ele>
        <time>2025-02-05T18:28:38.391Z</time>
      </trkpt>
      <trkpt lat="58.507031947374344" lon="12.406966919079423">
        <ele>71.72</ele>
        <time>2025-02-05T18:29:03.082Z</time>
      </trkpt>
      <trkpt lat="58.50698199123144" lon="12.406903970986605">
        <ele>71.88</ele>
        <time>2025-02-05T18:29:27.774Z</time>
      </trkpt>
      <trkpt lat="58.50693396292627" lon="12.4068489857018">
        <ele>72.04</ele>
        <time>2025-02-05T18:29:52.466Z</time>
      </trkpt>
      <trkpt lat="58.506883922964334" lon="12.406796934083104">
        <ele>72.19</ele>
        <time>2025-02-05T18:30:17.159Z</time>
      </trkpt>
      <trkpt lat="58.50682994350791" lon="12.406756952404976">
        <ele>72.35</ele>
        <time>2025-02-05T18:30:41.853Z</time>
      </trkpt>
      <trkpt lat="58.506775964051485" lon="12.40672392770648">
        <ele>72.51</ele>
        <time>2025-02-05T18:31:06.548Z</time>
      </trkpt>
      <trkpt lat="58.5067199729383" lon="12.406690986827016">
        <ele>72.67</ele>
        <time>2025-02-05T18:31:31.244Z</time>
      </trkpt>
      <trkpt lat="58.506664987653494" lon="12.406655950471759">
        <ele>72.82</ele>
        <time>2025-02-05T18:31:55.941Z</time>
      </trkpt>
      <trkpt lat="58.5066129360348" lon="12.406617980450392">
        <ele>72.98</ele>
        <time>2025-02-05T18:32:20.639Z</time>
      </trkpt>
      <trkpt lat="58.506559962406754" lon="12.406580932438374">
        <ele>73.14</ele>
        <time>2025-02-05T18:32:45.338Z</time>
      </trkpt>
      <trkpt lat="58.50650598295033" lon="12.406540950760245">
        <ele>73.29</ele>
        <time>2025-02-05T18:33:10.038Z</time>
      </trkpt>
      <trkpt lat="58.50644898600876" lon="12.406501974910498">
        <ele>73.45</ele>
        <time>2025-02-05T18:33:34.739Z</time>
      </trkpt>
      <trkpt lat="58.506388971582055" lon="12.406463921070099">
        <ele>73.6</ele>
        <time>2025-02-05T18:33:59.441Z</time>
      </trkpt>
      <trkpt lat="58.506327951326966" lon="12.406428968533874">
        <ele>73.76</ele>
        <time>2025-02-05T18:34:24.144Z</time>
      </trkpt>
      <trkpt lat="58.50626399740577" lon="12.406395943835378">
        <ele>73.92</ele>
        <time>2025-02-05T18:34:48.848Z</time>
      </trkpt>
      <trkpt lat="58.506197948008776" lon="12.406364930793643">
        <ele>74.07</ele>
        <time>2025-02-05T18:35:13.553Z</time>
      </trkpt>
      <trkpt lat="58.506130976602435" lon="12.40633592940867">
        <ele>74.23</ele>
        <time>2025-02-05T18:35:38.259Z</time>
      </trkpt>
      <trkpt lat="58.50606392137706" lon="12.406304916366935">
        <ele>74.38</ele>
        <time>2025-02-05T18:36:02.966Z</time>
      </trkpt>
      <trkpt lat="58.505999967455864" lon="12.406279938295484">
        <ele>74.53</ele>
        <time>2025-02-05T18:36:27.674Z</time>
      </trkpt>
      <trkpt lat="58.50593098439276" lon="12.40624699741602">
        <ele>74.69</ele>
        <time>2025-02-05T18:36:52.383Z</time>
      </trkpt>
      <trkpt lat="58.50586191751063" lon="12.406220929697156">
        <ele>74.84</ele>
        <time>2025-02-05T18:37:17.093Z</time>
      </trkpt>
      <trkpt lat="58.50579394027591" lon="12.406199974939227">
        <ele>75.0</ele>
        <time>2025-02-05T18:37:41.805Z</time>
      </trkpt>
      <trkpt lat="58.505725963041186" lon="12.406187988817692">
        <ele>75.15</ele>
        <time>2025-02-05T18:38:06.518Z</time>
      </trkpt>
      <trkpt lat="58.505659997463226" lon="12.406179942190647">
        <ele>75.3</ele>
        <time>2025-02-05T18:38:31.232Z</time>
      </trkpt>
      <trkpt lat="58.505593948066235" lon="12.406175918877125">
        <ele>75.46</ele>
        <time>2025-02-05T18:38:55.947Z</time>
      </trkpt>
      <trkpt lat="58.505526976659894" lon="12.406180948019028">
        <ele>75.6</ele>
        <time>2025-02-05T18:39:20.663Z</time>
      </trkpt>
      <trkpt lat="58.50545992143452" lon="12.406189916655421">
        <ele>75.75</ele>
        <time>2025-02-05T18:39:45.380Z</time>
      </trkpt>
      <trkpt lat="58.50539295002818" lon="12.406198969110847">
        <ele>75.89</ele>
        <time>2025-02-05T18:40:10.098Z</time>
      </trkpt>
      <trkpt lat="58.50532094947994" lon="12.40620793774724">
        <ele>76.04</ele>
        <time>2025-02-05T18:40:34.817Z</time>
      </trkpt>
      <trkpt lat="58.5052399802953" lon="12.406222941353917">
        <ele>76.18</ele>
        <time>2025-02-05T18:40:59.537Z</time>
      </trkpt>
      <trkpt lat="58.50515096448362" lon="12.406237944960594">
        <ele>76.32</ele>
        <time>2025-02-05T18:41:24.259Z</time>
      </trkpt>
      <trkpt lat="58.505055997520685" lon="12.406236939132214">
        <ele>76.46</ele>
        <time>2025-02-05T18:41:48.982Z</time>
      </trkpt>
      <trkpt lat="58.50495893508196" lon="12.406219923868775">
        <ele>76.6</ele>
        <time>2025-02-05T18:42:13.707Z</time>
      </trkpt>
      <trkpt lat="58.50485793314874" lon="12.406202992424369">
        <ele>76.74</ele>
        <time>2025-02-05T18:42:38.434Z</time>
      </trkpt>
      <trkpt lat="58.504755925387144" lon="12.406187988817692">
        <ele>76.88</ele>
        <time>2025-02-05T18:43:03.162Z</time>
      </trkpt>
      <trkpt lat="58.50465592928231" lon="12.406182959675789">
        <ele>77.03</ele>
        <time>2025-02-05T18:43:27.892Z</time>
      </trkpt>
      <trkpt lat="58.50455693900585" lon="12.40618597716093">
        <ele>77.18</ele>
        <time>2025-02-05T18:43:52.623Z</time>
      </trkpt>
      <trkpt lat="58.5044629778713" lon="12.406191928312182">
        <ele>77.33</ele>
        <time>2025-02-05T18:44:17.356Z</time>
      </trkpt>
      <trkpt lat="58.504374967888" lon="12.406200980767608">
        <ele>77.47</ele>
        <time>2025-02-05T18:44:42.090Z</time>
      </trkpt>
      <trkpt lat="58.50429299287498" lon="12.406202992424369">
        <ele>77.61</ele>
        <time>2025-02-05T18:45:06.826Z</time>
      </trkpt>
      <trkpt lat="58.50421495735645" lon="12.406192934140563">
        <ele>77.75</ele>
        <time>2025-02-05T18:45:31.563Z</time>
      </trkpt>
      <trkpt lat="58.50414396263659" lon="12.406167956069112">
        <ele>77.89</ele>
        <time>2025-02-05T18:45:56.301Z</time>
      </trkpt>
      <trkpt lat="58.50407598540187" lon="12.4061409663409">
        <ele>78.03</ele>
        <time>2025-02-05T18:46:21.040Z</time>
      </trkpt>
      <trkpt lat="58.5040089301765" lon="12.406114982441068">
        <ele>78.17</ele>
        <time>2025-02-05T18:46:45.780Z</time>
      </trkpt>
      <trkpt lat="58.50394397042692" lon="12.406088998541236">
        <ele>78.31</ele>
        <time>2025-02-05T18:47:10.521Z</time>
      </trkpt>
      <trkpt lat="58.50388194434345" lon="12.406058991327882">
        <ele>78.44</ele>
        <time>2025-02-05T18:47:35.263Z</time>
      </trkpt>
      <trkpt lat="58.5038239415735" lon="12.406027978286147">
        <ele>78.58</ele>
        <time>2025-02-05T18:48:00.006Z</time>
      </trkpt>
      <trkpt lat="58.503767950460315" lon="12.405998976901174">
        <ele>78.71</ele>
        <time>2025-02-05T18:48:24.750Z</time>
      </trkpt>
      <trkpt lat="58.50371598266065" lon="12.40597098134458">
        <ele>78.83</ele>
        <time>2025-02-05T18:48:49.495Z</time>
      </trkpt>
      <trkpt lat="58.503661919385195" lon="12.405941979959607">
        <ele>78.96</ele>
        <time>2025-02-05T18:49:14.241Z</time>
      </trkpt>
      <trkpt lat="58.50360592827201" lon="12.405909961089492">
        <ele>79.08</ele>
        <time>2025-02-05T18:49:38.988Z</time>
      </trkpt>
      <trkpt lat="58.50354993715882" lon="12.405876936390996">
        <ele>79.21</ele>
        <time>2025-02-05T18:50:03.736Z</time>
      </trkpt>
      <trkpt lat="58.503491934388876" lon="12.40584491752088">
        <ele>79.32</ele>
        <time>2025-02-05T18:50:28.485Z</time>
      </trkpt>
      <trkpt lat="58.50343292579055" lon="12.405807953327894">
        <ele>79.44</ele>
        <time>2025-02-05T18:50:53.235Z</time>
      </trkpt>
      <trkpt lat="58.50337299518287" lon="12.405774928629398">
        <ele>79.56</ele>
        <time>2025-02-05T18:51:17.986Z</time>
      </trkpt>
      <trkpt lat="58.503314992412925" lon="12.405741987749934">
        <ele>79.67</ele>
        <time>2025-02-05T18:51:42.738Z</time>
      </trkpt>
      <trkpt lat="58.50326193496585" lon="12.4057109747082">
        <ele>79.78</ele>
        <time>2025-02-05T18:52:07.491Z</time>
      </trkpt>
      <trkpt lat="58.50321692414582" lon="12.405686918646097">
        <ele>79.9</ele>
        <time>2025-02-05T18:52:32.245Z</time>
      </trkpt>
      <trkpt lat="58.50317199714482" lon="12.405659928917885">
        <ele>80.0</ele>
        <time>2025-02-05T18:52:56.999Z</time>
      </trkpt>
      <trkpt lat="58.50312899798155" lon="12.40562992170453">
        <ele>80.11</ele>
        <time>2025-02-05T18:53:21.754Z</time>
      </trkpt>
      <trkpt lat="58.50308893248439" lon="12.405597986653447">
        <ele>80.22</ele>
        <time>2025-02-05T18:53:46.510Z</time>
      </trkpt>
      <trkpt lat="58.50304995663464" lon="12.405565967783332">
        <ele>80.32</ele>
        <time>2025-02-05T18:54:11.266Z</time>
      </trkpt>
      <trkpt lat="58.50300997495651" lon="12.405525986105204">
        <ele>80.42</ele>
        <time>2025-02-05T18:54:36.023Z</time>
      </trkpt>
      <trkpt lat="58.50296798162162" lon="12.405480975285172">
        <ele>80.51</ele>
        <time>2025-02-05T18:55:00.781Z</time>
      </trkpt>
      <trkpt lat="58.502926994115114" lon="12.405428923666477">
        <ele>80.6</ele>
        <time>2025-02-05T18:55:25.540Z</time>
      </trkpt>
      <trkpt lat="58.502883994951844" lon="12.405365975573659">
        <ele>80.69</ele>
        <time>2025-02-05T18:55:50.300Z</time>
      </trkpt>
      <trkpt lat="58.502843929454684" lon="12.405292969197035">
        <ele>80.78</ele>
        <time>2025-02-05T18:56:15.060Z</time>
      </trkpt>
      <trkpt lat="58.5028069652617" lon="12.405215939506888">
        <ele>80.87</ele>
        <time>2025-02-05T18:56:39.821Z</time>
      </trkpt>
      <trkpt lat="58.50277494639158" lon="12.40513295866549">
        <ele>80.95</ele>
        <time>2025-02-05T18:57:04.583Z</time>
      </trkpt>
      <trkpt lat="58.50274795666337" lon="12.40504696033895">
        <ele>81.03</ele>
        <time>2025-02-05T18:57:29.346Z</time>
      </trkpt>
      <trkpt lat="58.50272096693516" lon="12.404954927042127">
        <ele>81.11</ele>
        <time>2025-02-05T18:57:54.110Z</time>
      </trkpt>
      <trkpt lat="58.50269892252982" lon="12.404865995049477">
        <ele>81.19</ele>
        <time>2025-02-05T18:58:18.875Z</time>
      </trkpt>
      <trkpt lat="58.50267696194351" lon="12.40476893261075">
        <ele>81.26</ele>
        <time>2025-02-05T18:58:43.641Z</time>
      </trkpt>
      <trkpt lat="58.50265592336655" lon="12.404666924849153">
        <ele>81.33</ele>
        <time>2025-02-05T18:59:08.408Z</time>
      </trkpt>
      <trkpt lat="58.502631951123476" lon="12.404561983421445">
        <ele>81.4</ele>
        <time>2025-02-05T18:59:33.175Z</time>
      </trkpt>
      <trkpt lat="58.502606973052025" lon="12.404453940689564">
        <ele>81.47</ele>
        <time>2025-02-05T18:59:57.943Z</time>
      </trkpt>
      <trkpt lat="58.50258098915219" lon="12.404343970119953">
        <ele>81.54</ele>
        <time>2025-02-05T19:00:22.712Z</time>
      </trkpt>
      <trkpt lat="58.50255592726171" lon="12.404232993721962">
        <ele>81.6</ele>
        <time>2025-02-05T19:00:47.483Z</time>
      </trkpt>
      <trkpt lat="58.50253195501864" lon="12.404116988182068">
        <ele>81.66</ele>
        <time>2025-02-05T19:01:12.255Z</time>
      </trkpt>
      <trkpt lat="58.50250496529043" lon="12.404000982642174">
        <ele>81.72</ele>
        <time>2025-02-05T19:01:37.028Z</time>
      </trkpt>
      <trkpt lat="58.502475963905454" lon="12.403878942131996">
        <ele>81.78</ele>
        <time>2025-02-05T19:02:01.802Z</time>
      </trkpt>
      <trkpt lat="58.50244495086372" lon="12.40375597961247">
        <ele>81.83</ele>
        <time>2025-02-05T19:02:26.577Z</time>
      </trkpt>
      <trkpt lat="58.50241192616522" lon="12.403631927445531">
        <ele>81.88</ele>
        <time>2025-02-05T19:02:51.353Z</time>
      </trkpt>
      <trkpt lat="58.50237999111414" lon="12.403506953269243">
        <ele>81.93</ele>
        <time>2025-02-05T19:03:16.130Z</time>
      </trkpt>
      <trkpt lat="58.502347972244024" lon="12.403384996578097">
        <ele>81.97</ele>
        <time>2025-02-05T19:03:40.908Z</time>
      </trkpt>
      <trkpt lat="58.50231494754553" lon="12.403266979381442">
        <ele>82.02</ele>
        <time>2025-02-05T19:04:05.687Z</time>
      </trkpt>
      <trkpt lat="58.50228091701865" lon="12.403149968013167">
        <ele>82.06</ele>
        <time>2025-02-05T19:04:30.468Z</time>
      </trkpt>
      <trkpt lat="58.50224596448243" lon="12.403030944988132">
        <ele>82.1</ele>
        <time>2025-02-05T19:04:55.250Z</time>
      </trkpt>
      <trkpt lat="58.50220497697592" lon="12.402907982468605">
        <ele>82.13</ele>
        <time>2025-02-05T19:05:20.033Z</time>
      </trkpt>
      <trkpt lat="58.50216197781265" lon="12.402792982757092">
        <ele>82.16</ele>
        <time>2025-02-05T19:05:44.817Z</time>
      </trkpt>
      <trkpt lat="58.502111937850714" lon="12.402681922540069">
        <ele>82.19</ele>
        <time>2025-02-05T19:06:09.602Z</time>
      </trkpt>
      <trkpt lat="58.50205695256591" lon="12.402576981112361">
        <ele>82.22</ele>
        <time>2025-02-05T19:06:34.389Z</time>
      </trkpt>
      <trkpt lat="58.50199794396758" lon="12.402472961694002">
        <ele>82.25</ele>
        <time>2025-02-05T19:06:59.177Z</time>
      </trkpt>
      <trkpt lat="58.50193591788411" lon="12.402370953932405">
        <ele>82.26</ele>
        <time>2025-02-05T19:07:23.966Z</time>
      </trkpt>
      <trkpt lat="58.50186592899263" lon="12.402255954220891">
        <ele>82.28</ele>
        <time>2025-02-05T19:07:48.757Z</time>
      </trkpt>
      <trkpt lat="58.50180197507143" lon="12.40214891731739">
        <ele>82.29</ele>
        <time>2025-02-05T19:08:13.549Z</time>
      </trkpt>
      <trkpt lat="58.501744978129864" lon="12.402046993374825">
        <ele>82.31</ele>
        <time>2025-02-05T19:08:38.342Z</time>
      </trkpt>
      <trkpt lat="58.50168697535992" lon="12.40192998200655">
        <ele>82.32</ele>
        <time>2025-02-05T19:09:03.137Z</time>
      </trkpt>
      <trkpt lat="58.501622937619686" lon="12.401819927617908">
        <ele>82.33</ele>
        <time>2025-02-05T19:09:27.933Z</time>
      </trkpt>
      <trkpt lat="58.50155898369849" lon="12.401712974533439">
        <ele>82.33</ele>
        <time>2025-02-05T19:09:52.730Z</time>
      </trkpt>
      <trkpt lat="58.50149595178664" lon="12.401604931801558">
        <ele>82.33</ele>
        <time>2025-02-05T19:10:17.529Z</time>
      </trkpt>
      <trkpt lat="58.5014289803803" lon="12.401504935696721">
        <ele>82.34</ele>
        <time>2025-02-05T19:10:42.329Z</time>
      </trkpt>
      <trkpt lat="58.501361925154924" lon="12.401409968733788">
        <ele>82.34</ele>
        <time>2025-02-05T19:11:07.131Z</time>
      </trkpt>
      <trkpt lat="58.5012939479202" lon="12.401316929608583">
        <ele>82.34</ele>
        <time>2025-02-05T19:11:31.934Z</time>
      </trkpt>
      <trkpt lat="58.5012249648571" lon="12.401229925453663">
        <ele>82.33</ele>
        <time>2025-02-05T19:11:56.738Z</time>
      </trkpt>
      <trkpt lat="58.501155981794" lon="12.401149962097406">
        <ele>82.32</ele>
        <time>2025-02-05T19:12:21.543Z</time>
      </trkpt>
      <trkpt lat="58.50108599290252" lon="12.401082990691066">
        <ele>82.31</ele>
        <time>2025-02-05T19:12:46.350Z</time>
      </trkpt>
      <trkpt lat="58.50101298652589" lon="12.401033956557512">
        <ele>82.3</ele>
        <time>2025-02-05T19:13:11.158Z</time>
      </trkpt>
      <trkpt lat="58.500934951007366" lon="12.401010990142822">
        <ele>82.29</ele>
        <time>2025-02-05T19:13:35.967Z</time>
      </trkpt>
      <trkpt lat="58.50085792131722" lon="12.401010990142822">
        <ele>82.27</ele>
        <time>2025-02-05T19:14:00.777Z</time>
      </trkpt>
      <trkpt lat="58.50078399293125" lon="12.40102892741561">
        <ele>82.26</ele>
        <time>2025-02-05T19:14:25.589Z</time>
      </trkpt>
      <trkpt lat="58.50070897489786" lon="12.401056922972202">
        <ele>82.25</ele>
        <time>2025-02-05T19:14:50.402Z</time>
      </trkpt>
      <trkpt lat="58.50063697434962" lon="12.401087936013937">
        <ele>82.24</ele>
        <time>2025-02-05T19:15:15.216Z</time>
      </trkpt>
      <trkpt lat="58.500569919124246" lon="12.401121966540813">
        <ele>82.22</ele>
        <time>2025-02-05T19:15:40.031Z</time>
      </trkpt>
      <trkpt lat="58.500504959374666" lon="12.40115499123931">
        <ele>82.2</ele>
        <time>2025-02-05T19:16:04.847Z</time>
      </trkpt>
      <trkpt lat="58.500437987968326" lon="12.40119799040258">
        <ele>82.18</ele>
        <time>2025-02-05T19:16:29.664Z</time>
      </trkpt>
      <trkpt lat="58.50036397576332" lon="12.401249958202243">
        <ele>82.16</ele>
        <time>2025-02-05T19:16:54.483Z</time>
      </trkpt>
      <trkpt lat="58.50029893219471" lon="12.401289939880371">
        <ele>82.14</ele>
        <time>2025-02-05T19:17:19.303Z</time>
      </trkpt>
      <trkpt lat="58.50023497827351" lon="12.40132698789239">
        <ele>82.11</ele>
        <time>2025-02-05T19:17:44.124Z</time>
      </trkpt>
      <trkpt lat="58.50016599521041" lon="12.401363952085376">
        <ele>82.09</ele>
        <time>2025-02-05T19:18:08.946Z</time>
      </trkpt>
      <trkpt lat="58.50009893998504" lon="12.401399994269013">
        <ele>82.06</ele>
        <time>2025-02-05T19:18:33.769Z</time>
      </trkpt>
      <trkpt lat="58.500029956921935" lon="12.401436958462">
        <ele>82.02</ele>
        <time>2025-02-05T19:18:58.593Z</time>
      </trkpt>
      <trkpt lat="58.49996097385883" lon="12.401468977332115">
        <ele>81.99</ele>
        <time>2025-02-05T19:19:23.418Z</time>
      </trkpt>
      <trkpt lat="58.49988997913897" lon="12.401482975110412">
        <ele>81.96</ele>
        <time>2025-02-05T19:19:48.245Z</time>
      </trkpt>
      <trkpt lat="58.499816972762346" lon="12.401474928483367">
        <ele>81.92</ele>
        <time>2025-02-05T19:20:13.073Z</time>
      </trkpt>
      <trkpt lat="58.4997399430722" lon="12.401467971503735">
        <ele>81.88</ele>
        <time>2025-02-05T19:20:37.902Z</time>
      </trkpt>
      <trkpt lat="58.499666936695576" lon="12.401450956240296">
        <ele>81.85</ele>
        <time>2025-02-05T19:21:02.732Z</time>
      </trkpt>
      <trkpt lat="58.49959594197571" lon="12.401442993432283">
        <ele>81.81</ele>
        <time>2025-02-05T19:21:27.563Z</time>
      </trkpt>
      <trkpt lat="58.49952092394233" lon="12.40143796429038">
        <ele>81.77</ele>
        <time>2025-02-05T19:21:52.395Z</time>
      </trkpt>
      <trkpt lat="58.499449929222465" lon="12.401428995653987">
        <ele>81.72</ele>
        <time>2025-02-05T19:22:17.229Z</time>
      </trkpt>
      <trkpt lat="58.49937591701746" lon="12.40141298621893">
        <ele>81.68</ele>
        <time>2025-02-05T19:22:42.064Z</time>
      </trkpt>
      <trkpt lat="58.499299976974726" lon="12.401409968733788">
        <ele>81.63</ele>
        <time>2025-02-05T19:23:06.900Z</time>
      </trkpt>
      <trkpt lat="58.49922294728458" lon="12.401408962905407">
        <ele>81.58</ele>
        <time>2025-02-05T19:23:31.737Z</time>
      </trkpt>
      <trkpt lat="58.49914692342281" lon="12.401411980390549">
        <ele>81.53</ele>
        <time>2025-02-05T19:23:56.575Z</time>
      </trkpt>
      <trkpt lat="58.4990699775517" lon="12.40141692571342">
        <ele>81.48</ele>
        <time>2025-02-05T19:24:21.415Z</time>
      </trkpt>
      <trkpt lat="58.49899093620479" lon="12.401424972340465">
        <ele>81.42</ele>
        <time>2025-02-05T19:24:46.256Z</time>
      </trkpt>
      <trkpt lat="58.49890795536339" lon="12.401436958462">
        <ele>81.37</ele>
        <time>2025-02-05T19:25:11.098Z</time>
      </trkpt>
      <trkpt lat="58.49882899783552" lon="12.401454979553819">
        <ele>81.32</ele>
        <time>2025-02-05T19:25:35.942Z</time>
      </trkpt>
      <trkpt lat="58.49875196814537" lon="12.40148096345365">
        <ele>81.27</ele>
        <time>2025-02-05T19:26:00.787Z</time>
      </trkpt>
      <trkpt lat="58.498676950111985" lon="12.401509964838624">
        <ele>81.22</ele>
        <time>2025-02-05T19:26:25.633Z</time>
      </trkpt>
      <trkpt lat="58.498609978705645" lon="12.401533937081695">
        <ele>81.17</ele>
        <time>2025-02-05T19:26:50.480Z</time>
      </trkpt>
      <trkpt lat="58.49854099564254" lon="12.40156696178019">
        <ele>81.12</ele>
        <time>2025-02-05T19:27:15.328Z</time>
      </trkpt>
      <trkpt lat="58.49847394041717" lon="12.40160996094346">
        <ele>81.08</ele>
        <time>2025-02-05T19:27:40.177Z</time>
      </trkpt>
      <trkpt lat="58.49840395152569" lon="12.401653965935111">
        <ele>81.03</ele>
        <time>2025-02-05T19:28:05.028Z</time>
      </trkpt>
      <trkpt lat="58.49833597429097" lon="12.401690930128098">
        <ele>80.98</ele>
        <time>2025-02-05T19:28:29.880Z</time>
      </trkpt>
      <trkpt lat="58.498264979571104" lon="12.401720937341452">
        <ele>80.93</ele>
        <time>2025-02-05T19:28:54.733Z</time>
      </trkpt>
      <trkpt lat="58.49819499067962" lon="12.401754967868328">
        <ele>80.87</ele>
        <time>2025-02-05T19:29:19.587Z</time>
      </trkpt>
      <trkpt lat="58.49812793545425" lon="12.401788998395205">
        <ele>80.82</ele>
        <time>2025-02-05T19:29:44.442Z</time>
      </trkpt>
      <trkpt lat="58.49805895239115" lon="12.40182495675981">
        <ele>80.77</ele>
        <time>2025-02-05T19:30:09.298Z</time>
      </trkpt>
      <trkpt lat="58.49799298681319" lon="12.401863932609558">
        <ele>80.71</ele>
        <time>2025-02-05T19:30:34.155Z</time>
      </trkpt>
      <trkpt lat="58.497923919931054" lon="12.401906931772828">
        <ele>80.65</ele>
        <time>2025-02-05T19:30:59.014Z</time>
      </trkpt>
      <trkpt lat="58.49785191938281" lon="12.401948925107718">
        <ele>80.59</ele>
        <time>2025-02-05T19:31:23.874Z</time>
      </trkpt>
      <trkpt lat="58.49778293631971" lon="12.401993935927749">
        <ele>80.53</ele>
        <time>2025-02-05T19:31:48.735Z</time>
      </trkpt>
      <trkpt lat="58.49771395325661" lon="12.40203894674778">
        <ele>80.48</ele>
        <time>2025-02-05T19:32:13.597Z</time>
      </trkpt>
      <trkpt lat="58.497643964365125" lon="12.402092926204205">
        <ele>80.42</ele>
        <time>2025-02-05T19:32:38.460Z</time>
      </trkpt>
      <trkpt lat="58.49757296964526" lon="12.402152940630913">
        <ele>80.35</ele>
        <time>2025-02-05T19:33:03.325Z</time>
      </trkpt>
      <trkpt lat="58.49750398658216" lon="12.402219995856285">
        <ele>80.29</ele>
        <time>2025-02-05T19:33:28.191Z</time>
      </trkpt>
      <trkpt lat="58.49743693135679" lon="12.40229593589902">
        <ele>80.22</ele>
        <time>2025-02-05T19:33:53.058Z</time>
      </trkpt>
      <trkpt lat="58.49737297743559" lon="12.40238193422556">
        <ele>80.16</ele>
        <time>2025-02-05T19:34:17.926Z</time>
      </trkpt>
      <trkpt lat="58.49731095135212" lon="12.402473967522383">
        <ele>80.1</ele>
        <time>2025-02-05T19:34:42.796Z</time>
      </trkpt>
      <trkpt lat="58.49724993109703" lon="12.402576981112361">
        <ele>80.04</ele>
        <time>2025-02-05T19:35:07.667Z</time>
      </trkpt>
      <trkpt lat="58.49718798883259" lon="12.402680916711688">
        <ele>79.98</ele>
        <time>2025-02-05T19:35:32.539Z</time>
      </trkpt>
      <trkpt lat="58.497126968577504" lon="12.402776973322034">
        <ele>79.92</ele>
        <time>2025-02-05T19:35:57.413Z</time>
      </trkpt>
      <trkpt lat="58.497059997171164" lon="12.402869928628206">
        <ele>79.85</ele>
        <time>2025-02-05T19:36:22.288Z</time>
      </trkpt>
      <trkpt lat="58.49699294194579" lon="12.402957938611507">
        <ele>79.8</ele>
        <time>2025-02-05T19:36:47.164Z</time>
      </trkpt>
      <trkpt lat="58.49692496471107" lon="12.403038991615176">
        <ele>79.74</ele>
        <time>2025-02-05T19:37:12.041Z</time>
      </trkpt>
      <trkpt lat="58.49685296416283" lon="12.403104957193136">
        <ele>79.68</ele>
        <time>2025-02-05T19:37:36.920Z</time>
      </trkpt>
      <trkpt lat="58.49678096361458" lon="12.403150973841548">
        <ele>79.63</ele>
        <time>2025-02-05T19:38:01.800Z</time>
      </trkpt>
      <trkpt lat="58.49670493975282" lon="12.40317796356976">
        <ele>79.57</ele>
        <time>2025-02-05T19:38:26.681Z</time>
      </trkpt>
      <trkpt lat="58.49662598222494" lon="12.403183998540044">
        <ele>79.51</ele>
        <time>2025-02-05T19:38:51.563Z</time>
      </trkpt>
      <trkpt lat="58.49654492922127" lon="12.403168994933367">
        <ele>79.45</ele>
        <time>2025-02-05T19:39:16.447Z</time>
      </trkpt>
      <trkpt lat="58.496463960036635" lon="12.403136976063251">
        <ele>79.39</ele>
        <time>2025-02-05T19:39:41.332Z</time>
      </trkpt>
      <trkpt lat="58.496382990852" lon="12.403092971071601">
        <ele>79.34</ele>
        <time>2025-02-05T19:40:06.218Z</time>
      </trkpt>
      <trkpt lat="58.49630596116185" lon="12.403033962473273">
        <ele>79.28</ele>
        <time>2025-02-05T19:40:31.106Z</time>
      </trkpt>
      <trkpt lat="58.496225997805595" lon="12.402972942218184">
        <ele>79.23</ele>
        <time>2025-02-05T19:40:55.995Z</time>
      </trkpt>
      <trkpt lat="58.49614595063031" lon="12.402920974418521">
        <ele>79.18</ele>
        <time>2025-02-05T19:41:20.885Z</time>
      </trkpt>
      <trkpt lat="58.49606498144567" lon="12.402878981083632">
        <ele>79.12</ele>
        <time>2025-02-05T19:41:45.777Z</time>
      </trkpt>
      <trkpt lat="58.49598493427038" lon="12.402846962213516">
        <ele>79.07</ele>
        <time>2025-02-05T19:42:10.670Z</time>
      </trkpt>
      <trkpt lat="58.495902959257364" lon="12.402827935293317">
        <ele>79.02</ele>
        <time>2025-02-05T19:42:35.564Z</time>
      </trkpt>
      <trkpt lat="58.495819978415966" lon="12.402819972485304">
        <ele>78.97</ele>
        <time>2025-02-05T19:43:00.460Z</time>
      </trkpt>
      <trkpt lat="58.49573599174619" lon="12.402814943343401">
        <ele>78.92</ele>
        <time>2025-02-05T19:43:25.357Z</time>
      </trkpt>
      <trkpt lat="58.49565099924803" lon="12.40281192585826">
        <ele>78.86</ele>
        <time>2025-02-05T19:43:50.256Z</time>
      </trkpt>
      <trkpt lat="58.49556592293084" lon="12.40280999802053">
        <ele>78.81</ele>
        <time>2025-02-05T19:44:15.156Z</time>
      </trkpt>
      <trkpt lat="58.49548294208944" lon="12.402804968878627">
        <ele>78.76</ele>
        <time>2025-02-05T19:44:40.057Z</time>
      </trkpt>
      <trkpt lat="58.4954019729048" lon="12.402787953615189">
        <ele>78.71</ele>
        <time>2025-02-05T19:45:04.960Z</time>
      </trkpt>
      <trkpt lat="58.495324943214655" lon="12.402748977765441">
        <ele>78.66</ele>
        <time>2025-02-05T19:45:29.864Z</time>
      </trkpt>
      <trkpt lat="58.49525294266641" lon="12.402689969167113">
        <ele>78.61</ele>
        <time>2025-02-05T19:45:54.769Z</time>
      </trkpt>
      <trkpt lat="58.49518496543169" lon="12.40261897444725">
        <ele>78.56</ele>
        <time>2025-02-05T19:46:19.675Z</time>
      </trkpt>
      <trkpt lat="58.49511899985373" lon="12.402544962242246">
        <ele>78.51</ele>
        <time>2025-02-05T19:46:44.583Z</time>
      </trkpt>
      <trkpt lat="58.49505093879998" lon="12.40246893838048">
        <ele>78.47</ele>
        <time>2025-02-05T19:47:09.492Z</time>
      </trkpt>
      <trkpt lat="58.494979944080114" lon="12.40240196697414">
        <ele>78.42</ele>
        <time>2025-02-05T19:47:34.402Z</time>
      </trkpt>
      <trkpt lat="58.49490593187511" lon="12.402342958375812">
        <ele>78.38</ele>
        <time>2025-02-05T19:47:59.313Z</time>
      </trkpt>
      <trkpt lat="58.494831919670105" lon="12.402290990576148">
        <ele>78.34</ele>
        <time>2025-02-05T19:48:24.226Z</time>
      </trkpt>
      <trkpt lat="58.49475497379899" lon="12.402245979756117">
        <ele>78.3</ele>
        <time>2025-02-05T19:48:49.140Z</time>
      </trkpt>
      <trkpt lat="58.494679955765605" lon="12.402198957279325">
        <ele>78.26</ele>
        <time>2025-02-05T19:49:14.055Z</time>
      </trkpt>
      <trkpt lat="58.49460694938898" lon="12.402151934802532">
        <ele>78.22</ele>
        <time>2025-02-05T19:49:38.971Z</time>
      </trkpt>
      <trkpt lat="58.4945369604975" lon="12.402106923982501">
        <ele>78.18</ele>
        <time>2025-02-05T19:50:03.889Z</time>
      </trkpt>
      <trkpt lat="58.494466971606016" lon="12.40206291899085">
        <ele>78.15</ele>
        <time>2025-02-05T19:50:28.808Z</time>
      </trkpt>
      <trkpt lat="58.494396982714534" lon="12.40201991982758">
        <ele>78.1</ele>
        <time>2025-02-05T19:50:53.728Z</time>
      </trkpt>
      <trkpt lat="58.49432799965143" lon="12.40197692066431">
        <ele>78.06</ele>
        <time>2025-02-05T19:51:18.649Z</time>
      </trkpt>
      <trkpt lat="58.49425792694092" lon="12.401935933157802">
        <ele>78.02</ele>
        <time>2025-02-05T19:51:43.571Z</time>
      </trkpt>
      <trkpt lat="58.494185926392674" lon="12.401891928166151">
        <ele>77.97</ele>
        <time>2025-02-05T19:52:08.495Z</time>
      </trkpt>
      <trkpt lat="58.49411292001605" lon="12.401850940659642">
        <ele>77.93</ele>
        <time>2025-02-05T19:52:33.420Z</time>
      </trkpt>
      <trkpt lat="58.4940379858017" lon="12.401819927617908">
        <ele>77.88</ele>
        <time>2025-02-05T19:52:58.346Z</time>
      </trkpt>
      <trkpt lat="58.49396296776831" lon="12.401797967031598">
        <ele>77.83</ele>
        <time>2025-02-05T19:53:23.273Z</time>
      </trkpt>
      <trkpt lat="58.493886943906546" lon="12.401786986738443">
        <ele>77.79</ele>
        <time>2025-02-05T19:53:48.201Z</time>
      </trkpt>
      <trkpt lat="58.49381393752992" lon="12.401793943718076">
        <ele>77.74</ele>
        <time>2025-02-05T19:54:13.131Z</time>
      </trkpt>
      <trkpt lat="58.49374495446682" lon="12.401817999780178">
        <ele>77.7</ele>
        <time>2025-02-05T19:54:38.062Z</time>
      </trkpt>
      <trkpt lat="58.4936769772321" lon="12.401845995336771">
        <ele>77.65</ele>
        <time>2025-02-05T19:55:02.994Z</time>
      </trkpt>
      <trkpt lat="58.493606988340616" lon="12.401877930387855">
        <ele>77.61</ele>
        <time>2025-02-05T19:55:27.927Z</time>
      </trkpt>
      <trkpt lat="58.49353792145848" lon="12.40190894342959">
        <ele>77.57</ele>
        <time>2025-02-05T19:55:52.861Z</time>
      </trkpt>
      <trkpt lat="58.49346994422376" lon="12.401931993663311">
        <ele>77.52</ele>
        <time>2025-02-05T19:56:17.796Z</time>
      </trkpt>
      <trkpt lat="58.4934039786458" lon="12.401954960078001">
        <ele>77.48</ele>
        <time>2025-02-05T19:56:42.732Z</time>
      </trkpt>
      <trkpt lat="58.49333591759205" lon="12.401980943977833">
        <ele>77.44</ele>
        <time>2025-02-05T19:57:07.669Z</time>
      </trkpt>
      <trkpt lat="58.49326794035733" lon="12.402004916220903">
        <ele>77.4</ele>
        <time>2025-02-05T19:57:32.608Z</time>
      </trkpt>
      <trkpt lat="58.49320096895099" lon="12.402024948969483">
        <ele>77.36</ele>
        <time>2025-02-05T19:57:57.548Z</time>
      </trkpt>
      <trkpt lat="58.493130980059505" lon="12.402044981718063">
        <ele>77.32</ele>
        <time>2025-02-05T19:58:22.489Z</time>
      </trkpt>
      <trkpt lat="58.4930619969964" lon="12.402073983103037">
        <ele>77.28</ele>
        <time>2025-02-05T19:58:47.431Z</time>
      </trkpt>
      <trkpt lat="58.49299293011427" lon="12.402109941467643">
        <ele>77.24</ele>
        <time>2025-02-05T19:59:12.374Z</time>
      </trkpt>
      <trkpt lat="58.49292394705117" lon="12.402156963944435">
        <ele>77.2</ele>
        <time>2025-02-05T19:59:37.318Z</time>
      </trkpt>
      <trkpt lat="58.49285898730159" lon="12.402214966714382">
        <ele>77.16</ele>
        <time>2025-02-05T20:00:02.263Z</time>
      </trkpt>
      <trkpt lat="58.49279595538974" lon="12.402285961434245">
        <ele>77.13</ele>
        <time>2025-02-05T20:00:27.210Z</time>
      </trkpt>
      <trkpt lat="58.49273191764951" lon="12.402365924790502">
        <ele>77.09</ele>
        <time>2025-02-05T20:00:52.158Z</time>
      </trkpt>
      <trkpt lat="58.49266896955669" lon="12.40244597196579">
        <ele>77.05</ele>
        <time>2025-02-05T20:01:17.107Z</time>
      </trkpt>
      <trkpt lat="58.4926029201597" lon="12.402525935322046">
        <ele>77.02</ele>
        <time>2025-02-05T20:01:42.057Z</time>
      </trkpt>
      <trkpt lat="58.49253695458174" lon="12.40259693004191">
        <ele>76.98</ele>
        <time>2025-02-05T20:02:07.008Z</time>
      </trkpt>
      <trkpt lat="58.492464954033494" lon="12.402658956125379">
        <ele>76.95</ele>
        <time>2025-02-05T20:02:31.961Z</time>
      </trkpt>
      <trkpt lat="58.49239194765687" lon="12.402709918096662">
        <ele>76.92</ele>
        <time>2025-02-05T20:02:56.915Z</time>
      </trkpt>
      <trkpt lat="58.49231491796672" lon="12.402738919481635">
        <ele>76.88</ele>
        <time>2025-02-05T20:03:21.870Z</time>
      </trkpt>
      <trkpt lat="58.49223696626723" lon="12.402734979987144">
        <ele>76.84</ele>
        <time>2025-02-05T20:03:46.826Z</time>
      </trkpt>
      <trkpt lat="58.492166977375746" lon="12.402692986652255">
        <ele>76.8</ele>
        <time>2025-02-05T20:04:11.784Z</time>
      </trkpt>
      <trkpt lat="58.49209992215037" lon="12.402625931426883">
        <ele>76.76</ele>
        <time>2025-02-05T20:04:36.743Z</time>
      </trkpt>
      <trkpt lat="58.492034962400794" lon="12.402537921443582">
        <ele>76.72</ele>
        <time>2025-02-05T20:05:01.703Z</time>
      </trkpt>
      <trkpt lat="58.491971930488944" lon="12.402433985844254">
        <ele>76.68</ele>
        <time>2025-02-05T20:05:26.664Z</time>
      </trkpt>
      <trkpt lat="58.49191199988127" lon="12.402319991961122">
        <ele>76.64</ele>
        <time>2025-02-05T20:05:51.627Z</time>
      </trkpt>
      <trkpt lat="58.49185399711132" lon="12.402201974764466">
        <ele>76.61</ele>
        <time>2025-02-05T20:06:16.591Z</time>
      </trkpt>
      <trkpt lat="58.49179599434137" lon="12.402084963396192">
        <ele>76.59</ele>
        <time>2025-02-05T20:06:41.557Z</time>
      </trkpt>
      <trkpt lat="58.491735979914665" lon="12.40197298116982">
        <ele>76.57</ele>
        <time>2025-02-05T20:07:06.524Z</time>
      </trkpt>
      <trkpt lat="58.491672948002815" lon="12.401870973408222">
        <ele>76.54</ele>
        <time>2025-02-05T20:07:31.492Z</time>
      </trkpt>
      <trkpt lat="58.491611927747726" lon="12.40177994593978">
        <ele>76.52</ele>
        <time>2025-02-05T20:07:56.461Z</time>
      </trkpt>
      <trkpt lat="58.491542944684625" lon="12.401709957048297">
        <ele>76.5</ele>
        <time>2025-02-05T20:08:21.432Z</time>
      </trkpt>
      <trkpt lat="58.49147194996476" lon="12.401660922914743">
        <ele>76.48</ele>
        <time>2025-02-05T20:08:46.404Z</time>
      </trkpt>
      <trkpt lat="58.49139793775976" lon="12.401624964550138">
        <ele>76.46</ele>
        <time>2025-02-05T20:09:11.377Z</time>
      </trkpt>
      <trkpt lat="58.49132291972637" lon="12.401601998135448">
        <ele>76.44</ele>
        <time>2025-02-05T20:09:36.351Z</time>
      </trkpt>
      <trkpt lat="58.49124999716878" lon="12.4015889223665">
        <ele>76.42</ele>
        <time>2025-02-05T20:10:01.327Z</time>
      </trkpt>
      <trkpt lat="58.491180930286646" lon="12.401573918759823">
        <ele>76.4</ele>
        <time>2025-02-05T20:10:26.304Z</time>
      </trkpt>
      <trkpt lat="58.49111597053707" lon="12.401549946516752">
        <ele>76.38</ele>
        <time>2025-02-05T20:10:51.282Z</time>
      </trkpt>
      <trkpt lat="58.4910539444536" lon="12.401515999808908">
        <ele>76.36</ele>
        <time>2025-02-05T20:11:16.261Z</time>
      </trkpt>
      <trkpt lat="58.49099493585527" lon="12.401472916826606">
        <ele>76.34</ele>
        <time>2025-02-05T20:11:41.241Z</time>
      </trkpt>
      <trkpt lat="58.49093894474208" lon="12.401421954855323">
        <ele>76.32</ele>
        <time>2025-02-05T20:12:06.222Z</time>
      </trkpt>
      <trkpt lat="58.49088597111404" lon="12.401366969570518">
        <ele>76.3</ele>
        <time>2025-02-05T20:12:31.204Z</time>
      </trkpt>
      <trkpt lat="58.490835931152105" lon="12.401305949315429">
        <ele>76.27</ele>
        <time>2025-02-05T20:12:56.187Z</time>
      </trkpt>
      <trkpt lat="58.490787986665964" lon="12.401242917403579">
        <ele>76.25</ele>
        <time>2025-02-05T20:13:21.171Z</time>
      </trkpt>
      <trkpt lat="58.49074297584593" lon="12.40117896348238">
        <ele>76.22</ele>
        <time>2025-02-05T20:13:46.155Z</time>
      </trkpt>
      <trkpt lat="58.49069997668266" lon="12.401106962934136">
        <ele>76.2</ele>
        <time>2025-02-05T20:14:11.140Z</time>
      </trkpt>
      <trkpt lat="58.490664940327406" lon="12.401027921587229">
        <ele>76.17</ele>
        <time>2025-02-05T20:14:36.126Z</time>
      </trkpt>
      <trkpt lat="58.49062998779118" lon="12.400938989594579">
        <ele>76.15</ele>
        <time>2025-02-05T20:15:01.113Z</time>
      </trkpt>
      <trkpt lat="58.49059293977916" lon="12.40083396434784">
        <ele>76.12</ele>
        <time>2025-02-05T20:15:26.101Z</time>
      </trkpt>
      <trkpt lat="58.49055698141456" lon="12.400722987949848">
        <ele>76.1</ele>
        <time>2025-02-05T20:15:51.090Z</time>
      </trkpt>
      <trkpt lat="58.49051699973643" lon="12.40060094743967">
        <ele>76.08</ele>
        <time>2025-02-05T20:16:16.081Z</time>
      </trkpt>
      <trkpt lat="58.490469977259636" lon="12.400475973263383">
        <ele>76.05</ele>
        <time>2025-02-05T20:16:41.073Z</time>
      </trkpt>
      <trkpt lat="58.4904199372977" lon="12.400359967723489">
        <ele>76.03</ele>
        <time>2025-02-05T20:17:06.066Z</time>
      </trkpt>
      <trkpt lat="58.490360928699374" lon="12.400245973840356">
        <ele>76.0</ele>
        <time>2025-02-05T20:17:31.060Z</time>
      </trkpt>
      <trkpt lat="58.490294963121414" lon="12.400139942765236">
        <ele>75.98</ele>
        <time>2025-02-05T20:17:56.056Z</time>
      </trkpt>
      <trkpt lat="58.490228997543454" lon="12.400045981630683">
        <ele>75.96</ele>
        <time>2025-02-05T20:18:21.053Z</time>
      </trkpt>
      <trkpt lat="58.49015892483294" lon="12.399963922798634">
        <ele>75.94</ele>
        <time>2025-02-05T20:18:46.051Z</time>
      </trkpt>
      <trkpt lat="58.4900869242847" lon="12.39989292807877">
        <ele>75.91</ele>
        <time>2025-02-05T20:19:11.051Z</time>
      </trkpt>
      <trkpt lat="58.49001199007034" lon="12.399832997471094">
        <ele>75.89</ele>
        <time>2025-02-05T20:19:36.052Z</time>
      </trkpt>
      <trkpt lat="58.489933954551816" lon="12.399778934195638">
        <ele>75.87</ele>
        <time>2025-02-05T20:20:01.054Z</time>
      </trkpt>
      <trkpt lat="58.48985399119556" lon="12.399726966395974">
        <ele>75.84</ele>
        <time>2025-02-05T20:20:26.058Z</time>
      </trkpt>
      <trkpt lat="58.48977092653513" lon="12.399669969454408">
        <ele>75.82</ele>
        <time>2025-02-05T20:20:51.063Z</time>
      </trkpt>
      <trkpt lat="58.489693980664015" lon="12.399612972512841">
        <ele>75.8</ele>
        <time>2025-02-05T20:21:16.070Z</time>
      </trkpt>
      <trkpt lat="58.48961896263063" lon="12.399550946429372">
        <ele>75.78</ele>
        <time>2025-02-05T20:21:41.078Z</time>
      </trkpt>
      <trkpt lat="58.489545956254005" lon="12.39948296919465">
        <ele>75.76</ele>
        <time>2025-02-05T20:22:06.087Z</time>
      </trkpt>
      <trkpt lat="58.48947496153414" lon="12.399410968646407">
        <ele>75.74</ele>
        <time>2025-02-05T20:22:31.097Z</time>
      </trkpt>
      <trkpt lat="58.48940396681428" lon="12.3993319272995">
        <ele>75.72</ele>
        <time>2025-02-05T20:22:56.109Z</time>
      </trkpt>
      <trkpt lat="58.48933598957956" lon="12.399251963943243">
        <ele>75.71</ele>
        <time>2025-02-05T20:23:21.122Z</time>
      </trkpt>
      <trkpt lat="58.48926994018257" lon="12.399166971445084">
        <ele>75.69</ele>
        <time>2025-02-05T20:23:46.136Z</time>
      </trkpt>
      <trkpt lat="58.48920498043299" lon="12.399079967290163">
        <ele>75.67</ele>
        <time>2025-02-05T20:24:11.152Z</time>
      </trkpt>
      <trkpt lat="58.489139936864376" lon="12.399001931771636">
        <ele>75.65</ele>
        <time>2025-02-05T20:24:36.169Z</time>
      </trkpt>
      <trkpt lat="58.489073971286416" lon="12.398928925395012">
        <ele>75.63</ele>
        <time>2025-02-05T20:25:01.187Z</time>
      </trkpt>
      <trkpt lat="58.489006999880075" lon="12.398856924846768">
        <ele>75.62</ele>
        <time>2025-02-05T20:25:26.206Z</time>
      </trkpt>
      <trkpt lat="58.48893793299794" lon="12.398779978975654">
        <ele>75.6</ele>
        <time>2025-02-05T20:25:51.227Z</time>
      </trkpt>
      <trkpt lat="58.48886894993484" lon="12.398696998134255">
        <ele>75.57</ele>
        <time>2025-02-05T20:26:16.249Z</time>
      </trkpt>
      <trkpt lat="58.4887969493866" lon="12.398604964837432">
        <ele>75.55</ele>
        <time>2025-02-05T20:26:41.272Z</time>
      </trkpt>
      <trkpt lat="58.488729977980256" lon="12.398498933762312">
        <ele>75.53</ele>
        <time>2025-02-05T20:27:06.297Z</time>
      </trkpt>
      <trkpt lat="58.48867197521031" lon="12.398372953757644">
        <ele>75.51</ele>
        <time>2025-02-05T20:27:31.323Z</time>
      </trkpt>
      <trkpt lat="58.4886259585619" lon="12.398231970146298">
        <ele>75.49</ele>
        <time>2025-02-05T20:27:56.350Z</time>
      </trkpt>
      <trkpt lat="58.48858597688377" lon="12.398087969049811">
        <ele>75.47</ele>
        <time>2025-02-05T20:28:21.379Z</time>
      </trkpt>
      <trkpt lat="58.48853996023536" lon="12.397949919104576">
        <ele>75.46</ele>
        <time>2025-02-05T20:28:46.409Z</time>
      </trkpt>
      <trkpt lat="58.48848598077893" lon="12.397821927443147">
        <ele>75.44</ele>
        <time>2025-02-05T20:29:11.441Z</time>
      </trkpt>
      <trkpt lat="58.48842395469546" lon="12.397706927731633">
        <ele>75.43</ele>
        <time>2025-02-05T20:29:36.474Z</time>
      </trkpt>
      <trkpt lat="58.48835698328912" lon="12.397605925798416">
        <ele>75.41</ele>
        <time>2025-02-05T20:30:01.508Z</time>
      </trkpt>
      <trkpt lat="58.48828699439764" lon="12.397516993805766">
        <ele>75.4</ele>
        <time>2025-02-05T20:30:26.544Z</time>
      </trkpt>
      <trkpt lat="58.488216921687126" lon="12.397435940802097">
        <ele>75.4</ele>
        <time>2025-02-05T20:30:51.581Z</time>
      </trkpt>
      <trkpt lat="58.488147938624024" lon="12.397358994930983">
        <ele>75.39</ele>
        <time>2025-02-05T20:31:16.619Z</time>
      </trkpt>
      <trkpt lat="58.4880799613893" lon="12.397282971069217">
        <ele>75.38</ele>
        <time>2025-02-05T20:31:41.659Z</time>
      </trkpt>
      <trkpt lat="58.48801298998296" lon="12.397202923893929">
        <ele>75.37</ele>
        <time>2025-02-05T20:32:06.700Z</time>
      </trkpt>
      <trkpt lat="58.48795096389949" lon="12.39711793139577">
        <ele>75.36</ele>
        <time>2025-02-05T20:32:31.742Z</time>
      </trkpt>
      <trkpt lat="58.48789597861469" lon="12.397028999403119">
        <ele>75.35</ele>
        <time>2025-02-05T20:32:56.785Z</time>
      </trkpt>
      <trkpt lat="58.48784292116761" lon="12.396928919479251">
        <ele>75.34</ele>
        <time>2025-02-05T20:33:21.829Z</time>
      </trkpt>
      <trkpt lat="58.48779296502471" lon="12.39681693725288">
        <ele>75.33</ele>
        <time>2025-02-05T20:33:46.875Z</time>
      </trkpt>
      <trkpt lat="58.48774795420468" lon="12.396694980561733">
        <ele>75.31</ele>
        <time>2025-02-05T20:34:11.922Z</time>
      </trkpt>
      <trkpt lat="58.48770596086979" lon="12.396562965586782">
        <ele>75.3</ele>
        <time>2025-02-05T20:34:36.970Z</time>
      </trkpt>
      <trkpt lat="58.48766799084842" lon="12.396424999460578">
        <ele>75.28</ele>
        <time>2025-02-05T20:35:02.019Z</time>
      </trkpt>
      <trkpt lat="58.487631948664784" lon="12.39628292620182">
        <ele>75.26</ele>
        <time>2025-02-05T20:35:27.070Z</time>
      </trkpt>
      <trkpt lat="58.48759699612856" lon="12.396139930933714">
        <ele>75.24</ele>
        <time>2025-02-05T20:35:52.122Z</time>
      </trkpt>
      <trkpt lat="58.48756296560168" lon="12.395996935665607">
        <ele>75.22</ele>
        <time>2025-02-05T20:36:17.175Z</time>
      </trkpt>
      <trkpt lat="58.487527929246426" lon="12.395858969539404">
        <ele>75.2</ele>
        <time>2025-02-05T20:36:42.230Z</time>
      </trkpt>
      <trkpt lat="58.48748995922506" lon="12.395724942907691">
        <ele>75.18</ele>
        <time>2025-02-05T20:37:07.286Z</time>
      </trkpt>
      <trkpt lat="58.48744897171855" lon="12.3955949395895">
        <ele>75.16</ele>
        <time>2025-02-05T20:37:32.343Z</time>
      </trkpt>
      <trkpt lat="58.48740396089852" lon="12.39546099677682">
        <ele>75.13</ele>
        <time>2025-02-05T20:37:57.402Z</time>
      </trkpt>
      <trkpt lat="58.48735794425011" lon="12.395323952659965">
        <ele>75.11</ele>
        <time>2025-02-05T20:38:22.462Z</time>
      </trkpt>
      <trkpt lat="58.487310921773314" lon="12.39518498070538">
        <ele>75.09</ele>
        <time>2025-02-05T20:38:47.523Z</time>
      </trkpt>
      <trkpt lat="58.48726197145879" lon="12.395039973780513">
        <ele>75.07</ele>
        <time>2025-02-05T20:39:12.586Z</time>
      </trkpt>
      <trkpt lat="58.48721193149686" lon="12.3948869202286">
        <ele>75.05</ele>
        <time>2025-02-05T20:39:37.650Z</time>
      </trkpt>
      <trkpt lat="58.48716792650521" lon="12.394726993516088">
        <ele>75.03</ele>
        <time>2025-02-05T20:40:02.716Z</time>
      </trkpt>
      <trkpt lat="58.4871319681406" lon="12.39456094801426">
        <ele>75.02</ele>
        <time>2025-02-05T20:40:27.783Z</time>
      </trkpt>
      <trkpt lat="58.48710196092725" lon="12.39439096301794">
        <ele>75.0</ele>
        <time>2025-02-05T20:40:52.852Z</time>
      </trkpt>
      <trkpt lat="58.48707899451256" lon="12.39421896636486">
        <ele>74.98</ele>
        <time>2025-02-05T20:41:17.922Z</time>
      </trkpt>
      <trkpt lat="58.48705896176398" lon="12.3940459638834">
        <ele>74.97</ele>
        <time>2025-02-05T20:41:42.994Z</time>
      </trkpt>
      <trkpt lat="58.48703993484378" lon="12.3938749730587">
        <ele>74.96</ele>
        <time>2025-02-05T20:42:08.067Z</time>
      </trkpt>
      <trkpt lat="58.48702199757099" lon="12.393704988062382">
        <ele>74.95</ele>
        <time>2025-02-05T20:42:33.142Z</time>
      </trkpt>
      <trkpt lat="58.48700397647917" lon="12.393536930903792">
        <ele>74.93</ele>
        <time>2025-02-05T20:42:58.218Z</time>
      </trkpt>
      <trkpt lat="58.486985955387354" lon="12.393370969220996">
        <ele>74.92</ele>
        <time>2025-02-05T20:43:23.296Z</time>
      </trkpt>
      <trkpt lat="58.486965922638774" lon="12.393206935375929">
        <ele>74.92</ele>
        <time>2025-02-05T20:43:48.375Z</time>
      </trkpt>
      <trkpt lat="58.486942956224084" lon="12.393044997006655">
        <ele>74.91</ele>
        <time>2025-02-05T20:44:13.455Z</time>
      </trkpt>
      <trkpt lat="58.48691596649587" lon="12.39288599230349">
        <ele>74.9</ele>
        <time>2025-02-05T20:44:38.537Z</time>
      </trkpt>
      <trkpt lat="58.48688495345414" lon="12.392730927094817">
        <ele>74.9</ele>
        <time>2025-02-05T20:45:03.620Z</time>
      </trkpt>
      <trkpt lat="58.48684899508953" lon="12.392580974847078">
        <ele>74.89</ele>
        <time>2025-02-05T20:45:28.705Z</time>
      </trkpt>
      <trkpt lat="58.48680691793561" lon="12.392436973750591">
        <ele>74.88</ele>
        <time>2025-02-05T20:45:53.791Z</time>
      </trkpt>
      <trkpt lat="58.48676299676299" lon="12.39230495877564">
        <ele>74.87</ele>
        <time>2025-02-05T20:46:18.878Z</time>
      </trkpt>
      <trkpt lat="58.48671496845782" lon="12.392182918265462">
        <ele>74.86</ele>
        <time>2025-02-05T20:46:43.967Z</time>
      </trkpt>
      <trkpt lat="58.486665934324265" lon="12.392072947695851">
        <ele>74.85</ele>
        <time>2025-02-05T20:47:09.057Z</time>
      </trkpt>
      <trkpt lat="58.48661698400974" lon="12.391967922449112">
        <ele>74.84</ele>
        <time>2025-02-05T20:47:34.148Z</time>
      </trkpt>
      <trkpt lat="58.48656694404781" lon="12.391868932172656">
        <ele>74.83</ele>
        <time>2025-02-05T20:47:59.240Z</time>
      </trkpt>
      <trkpt lat="58.486513970419765" lon="12.391776982694864">
        <ele>74.82</ele>
        <time>2025-02-05T20:48:24.333Z</time>
      </trkpt>
      <trkpt lat="58.4864569734782" lon="12.391691990196705">
        <ele>74.81</ele>
        <time>2025-02-05T20:48:49.427Z</time>
      </trkpt>
      <trkpt lat="58.48639595322311" lon="12.391601968556643">
        <ele>74.79</ele>
        <time>2025-02-05T20:49:14.523Z</time>
      </trkpt>
      <trkpt lat="58.48632898181677" lon="12.3915109410882">
        <ele>74.78</ele>
        <time>2025-02-05T20:49:39.620Z</time>
      </trkpt>
      <trkpt lat="58.48625999875367" lon="12.391423936933279">
        <ele>74.76</ele>
        <time>2025-02-05T20:50:04.718Z</time>
      </trkpt>
      <trkpt lat="58.48618992604315" lon="12.391334921121597">
        <ele>74.75</ele>
        <time>2025-02-05T20:50:29.818Z</time>
      </trkpt>
      <trkpt lat="58.48612295463681" lon="12.391241965815425">
        <ele>74.74</ele>
        <time>2025-02-05T20:50:54.919Z</time>
      </trkpt>
      <trkpt lat="58.48605992272496" lon="12.39114398136735">
        <ele>74.73</ele>
        <time>2025-02-05T20:51:20.021Z</time>
      </trkpt>
      <trkpt lat="58.486001919955015" lon="12.391041973605752">
        <ele>74.72</ele>
        <time>2025-02-05T20:51:45.125Z</time>
      </trkpt>
      <trkpt lat="58.48594995215535" lon="12.390928985551">
        <ele>74.71</ele>
        <time>2025-02-05T20:52:10.230Z</time>
      </trkpt>
      <trkpt lat="58.48590795882046" lon="12.39080392755568">
        <ele>74.7</ele>
        <time>2025-02-05T20:52:35.336Z</time>
      </trkpt>
      <trkpt lat="58.485872922465205" lon="12.39067493006587">
        <ele>74.69</ele>
        <time>2025-02-05T20:53:00.443Z</time>
      </trkpt>
      <trkpt lat="58.48584593273699" lon="12.39054593257606">
        <ele>74.68</ele>
        <time>2025-02-05T20:53:25.552Z</time>
      </trkpt>
      <trkpt lat="58.48582196049392" lon="12.39041592925787">
        <ele>74.67</ele>
        <time>2025-02-05T20:53:50.662Z</time>
      </trkpt>
      <trkpt lat="58.48580192774534" lon="12.39028592593968">
        <ele>74.65</ele>
        <time>2025-02-05T20:54:15.773Z</time>
      </trkpt>
      <trkpt lat="58.485781978815794" lon="12.390154916793108">
        <ele>74.63</ele>
        <time>2025-02-05T20:54:40.885Z</time>
      </trkpt>
      <trkpt lat="58.485762951895595" lon="12.390026925131679">
        <ele>74.61</ele>
        <time>2025-02-05T20:55:05.998Z</time>
      </trkpt>
      <trkpt lat="58.485742919147015" lon="12.389896921813488">
        <ele>74.59</ele>
        <time>2025-02-05T20:55:31.112Z</time>
      </trkpt>
      <trkpt lat="58.485720958560705" lon="12.389768930152059">
        <ele>74.57</ele>
        <time>2025-02-05T20:55:56.227Z</time>
      </trkpt>
      <trkpt lat="58.48569296300411" lon="12.389638926833868">
        <ele>74.55</ele>
        <time>2025-02-05T20:56:21.344Z</time>
      </trkpt>
      <trkpt lat="58.48566295579076" lon="12.38951395265758">
        <ele>74.53</ele>
        <time>2025-02-05T20:56:46.462Z</time>
      </trkpt>
      <trkpt lat="58.4856279194355" lon="12.389390990138054">
        <ele>74.51</ele>
        <time>2025-02-05T20:57:11.581Z</time>
      </trkpt>
      <trkpt lat="58.48558399826288" lon="12.389263920485973">
        <ele>74.48</ele>
        <time>2025-02-05T20:57:36.701Z</time>
      </trkpt>
      <trkpt lat="58.48553596995771" lon="12.389134922996163">
        <ele>74.45</ele>
        <time>2025-02-05T20:58:01.822Z</time>
      </trkpt>
      <trkpt lat="58.485486935824156" lon="12.389003997668624">
        <ele>74.43</ele>
        <time>2025-02-05T20:58:26.945Z</time>
      </trkpt>
      <trkpt lat="58.485440919175744" lon="12.388872988522053">
        <ele>74.4</ele>
        <time>2025-02-05T20:58:52.069Z</time>
      </trkpt>
      <trkpt lat="58.485397920012474" lon="12.38873896189034">
        <ele>74.37</ele>
        <time>2025-02-05T20:59:17.194Z</time>
      </trkpt>
      <trkpt lat="58.485357938334346" lon="12.388599989935756">
        <ele>74.34</ele>
        <time>2025-02-05T20:59:42.321Z</time>
      </trkpt>
      <trkpt lat="58.48532591946423" lon="12.38845699466765">
        <ele>74.31</ele>
        <time>2025-02-05T21:00:07.449Z</time>
      </trkpt>
      <trkpt lat="58.48529691807926" lon="12.388305952772498">
        <ele>74.28</ele>
        <time>2025-02-05T21:00:32.578Z</time>
      </trkpt>
      <trkpt lat="58.485269928351045" lon="12.388151977211237">
        <ele>74.24</ele>
        <time>2025-02-05T21:00:57.709Z</time>
      </trkpt>
      <trkpt lat="58.48524092696607" lon="12.387997917830944">
        <ele>74.21</ele>
        <time>2025-02-05T21:01:22.841Z</time>
      </trkpt>
      <trkpt lat="58.485206980258226" lon="12.387845953926444">
        <ele>74.19</ele>
        <time>2025-02-05T21:01:47.975Z</time>
      </trkpt>
      <trkpt lat="58.48516792058945" lon="12.387696923688054">
        <ele>74.16</ele>
        <time>2025-02-05T21:02:13.110Z</time>
      </trkpt>
      <trkpt lat="58.48512299358845" lon="12.387552922591567">
        <ele>74.13</ele>
        <time>2025-02-05T21:02:38.246Z</time>
      </trkpt>
      <trkpt lat="58.485073959454894" lon="12.387415962293744">
        <ele>74.1</ele>
        <time>2025-02-05T21:03:03.384Z</time>
      </trkpt>
      <trkpt lat="58.48502299748361" lon="12.387283947318792">
        <ele>74.07</ele>
        <time>2025-02-05T21:03:28.523Z</time>
      </trkpt>
      <trkpt lat="58.484970945864916" lon="12.387159978970885">
        <ele>74.04</ele>
        <time>2025-02-05T21:03:53.663Z</time>
      </trkpt>
      <trkpt lat="58.48492098972201" lon="12.387044979259372">
        <ele>74.01</ele>
        <time>2025-02-05T21:04:18.805Z</time>
      </trkpt>
      <trkpt lat="58.48487597890198" lon="12.38693199120462">
        <ele>73.97</ele>
        <time>2025-02-05T21:04:43.948Z</time>
      </trkpt>
      <trkpt lat="58.484838930889964" lon="12.386817997321486">
        <ele>73.94</ele>
        <time>2025-02-05T21:05:09.092Z</time>
      </trkpt>
      <trkpt lat="58.48480791784823" lon="12.386704925447702">
        <ele>73.91</ele>
        <time>2025-02-05T21:05:34.237Z</time>
      </trkpt>
      <trkpt lat="58.48477992229164" lon="12.386594954878092">
        <ele>73.88</ele>
        <time>2025-02-05T21:05:59.383Z</time>
      </trkpt>
      <trkpt lat="58.484749998897314" lon="12.386488923802972">
        <ele>73.84</ele>
        <time>2025-02-05T21:06:24.530Z</time>
      </trkpt>
      <trkpt lat="58.48471596837044" lon="12.386382976546884">
        <ele>73.81</ele>
        <time>2025-02-05T21:06:49.678Z</time>
      </trkpt>
      <trkpt lat="58.48467699252069" lon="12.386276945471764">
        <ele>73.77</ele>
        <time>2025-02-05T21:07:14.827Z</time>
      </trkpt>
      <trkpt lat="58.48463097587228" lon="12.386175943538547">
        <ele>73.73</ele>
        <time>2025-02-05T21:07:39.977Z</time>
      </trkpt>
      <trkpt lat="58.48457599058747" lon="12.386088939383626">
        <ele>73.69</ele>
        <time>2025-02-05T21:08:05.129Z</time>
      </trkpt>
      <trkpt lat="58.484513964504" lon="12.386015933007002">
        <ele>73.65</ele>
        <time>2025-02-05T21:08:30.282Z</time>
      </trkpt>
      <trkpt lat="58.4844449814409" lon="12.385951979085803">
        <ele>73.61</ele>
        <time>2025-02-05T21:08:55.436Z</time>
      </trkpt>
      <trkpt lat="58.48437298089266" lon="12.385893976315856">
        <ele>73.56</ele>
        <time>2025-02-05T21:09:20.591Z</time>
      </trkpt>
      <trkpt lat="58.48429595120251" lon="12.38584192469716">
        <ele>73.52</ele>
        <time>2025-02-05T21:09:45.748Z</time>
      </trkpt>
      <trkpt lat="58.484219927340746" lon="12.38579398021102">
        <ele>73.48</ele>
        <time>2025-02-05T21:10:10.906Z</time>
      </trkpt>
      <trkpt lat="58.4841479267925" lon="12.385738994926214">
        <ele>73.44</ele>
        <time>2025-02-05T21:10:36.065Z</time>
      </trkpt>
      <trkpt lat="58.48408095538616" lon="12.385671939700842">
        <ele>73.4</ele>
        <time>2025-02-05T21:11:01.225Z</time>
      </trkpt>
      <trkpt lat="58.48401691764593" lon="12.385596921667457">
        <ele>73.36</ele>
        <time>2025-02-05T21:11:26.386Z</time>
      </trkpt>
      <trkpt lat="58.483956987038255" lon="12.385519975796342">
        <ele>73.31</ele>
        <time>2025-02-05T21:11:51.549Z</time>
      </trkpt>
      <trkpt lat="58.48389999009669" lon="12.385437916964293">
        <ele>73.27</ele>
        <time>2025-02-05T21:12:16.713Z</time>
      </trkpt>
      <trkpt lat="58.48384793847799" lon="12.38534496165812">
        <ele>73.23</ele>
        <time>2025-02-05T21:12:41.878Z</time>
      </trkpt>
      <trkpt lat="58.48379898816347" lon="12.385244965553284">
        <ele>73.19</ele>
        <time>2025-02-05T21:13:07.044Z</time>
      </trkpt>
      <trkpt lat="58.48375297151506" lon="12.385140946134925">
        <ele>73.14</ele>
        <time>2025-02-05T21:13:32.211Z</time>
      </trkpt>
      <trkpt lat="58.48370594903827" lon="12.385031981393695">
        <ele>73.09</ele>
        <time>2025-02-05T21:13:57.379Z</time>
      </trkpt>
      <trkpt lat="58.483655992895365" lon="12.384923938661814">
        <ele>73.04</ele>
        <time>2025-02-05T21:14:22.549Z</time>
      </trkpt>
      <trkpt lat="58.48360595293343" lon="12.384817991405725">
        <ele>72.99</ele>
        <time>2025-02-05T21:14:47.720Z</time>
      </trkpt>
      <trkpt lat="58.483551973477006" lon="12.384710954502225">
        <ele>72.93</ele>
        <time>2025-02-05T21:15:12.892Z</time>
      </trkpt>
      <trkpt lat="58.48349799402058" lon="12.384605929255486">
        <ele>72.88</ele>
        <time>2025-02-05T21:15:38.065Z</time>
      </trkpt>
      <trkpt lat="58.483439991250634" lon="12.384502999484539">
        <ele>72.82</ele>
        <time>2025-02-05T21:16:03.240Z</time>
      </trkpt>
      <trkpt lat="58.48338391631842" lon="12.38439998589456">
        <ele>72.77</ele>
        <time>2025-02-05T21:16:28.416Z</time>
      </trkpt>
      <trkpt lat="58.48332993686199" lon="12.384296972304583">
        <ele>72.71</ele>
        <time>2025-02-05T21:16:53.593Z</time>
      </trkpt>
      <trkpt lat="58.483269922435284" lon="12.384169986471534">
        <ele>72.66</ele>
        <time>2025-02-05T21:17:18.771Z</time>
      </trkpt>
      <trkpt lat="58.48321694880724" lon="12.38405892625451">
        <ele>72.6</ele>
        <time>2025-02-05T21:17:43.951Z</time>
      </trkpt>
      <trkpt lat="58.483163975179195" lon="12.383932946249843">
        <ele>72.55</ele>
        <time>2025-02-05T21:18:09.132Z</time>
      </trkpt>
      <trkpt lat="58.48310496658087" lon="12.383811995387077">
        <ele>72.49</ele>
        <time>2025-02-05T21:18:34.314Z</time>
      </trkpt>
      <trkpt lat="58.483034977689385" lon="12.383703952655196">
        <ele>72.43</ele>
        <time>2025-02-05T21:18:59.498Z</time>
      </trkpt>
      <trkpt lat="58.48295199684799" lon="12.383611919358373">
        <ele>72.37</ele>
        <time>2025-02-05T21:19:24.683Z</time>
      </trkpt>
      <trkpt lat="58.482860969379544" lon="12.383548971265554">
        <ele>72.31</ele>
        <time>2025-02-05T21:19:49.870Z</time>
      </trkpt>
      <trkpt lat="58.48276499658823" lon="12.383503960445523">
        <ele>72.25</ele>
        <time>2025-02-05T21:20:15.059Z</time>
      </trkpt>
      <trkpt lat="58.482667934149504" lon="12.383468924090266">
        <ele>72.19</ele>
        <time>2025-02-05T21:20:40.249Z</time>
      </trkpt>
      <trkpt lat="58.48257196135819" lon="12.383442940190434">
        <ele>72.14</ele>
        <time>2025-02-05T21:21:05.441Z</time>
      </trkpt>
      <trkpt lat="58.482477916404605" lon="12.383419973775744">
        <ele>72.08</ele>
        <time>2025-02-05T21:21:30.634Z</time>
      </trkpt>
      <trkpt lat="58.48238395527005" lon="12.383400946855545">
        <ele>72.02</ele>
        <time>2025-02-05T21:21:55.829Z</time>
      </trkpt>
      <trkpt lat="58.48229192197323" lon="12.383386949077249">
        <ele>71.97</ele>
        <time>2025-02-05T21:22:21.025Z</time>
      </trkpt>
      <trkpt lat="58.4822019841522" lon="12.383375968784094">
        <ele>71.91</ele>
        <time>2025-02-05T21:22:46.223Z</time>
      </trkpt>
      <trkpt lat="58.482111962512136" lon="12.383370939642191">
        <ele>71.86</ele>
        <time>2025-02-05T21:23:11.422Z</time>
      </trkpt>
      <trkpt lat="58.48202194087207" lon="12.38336993381381">
        <ele>71.81</ele>
        <time>2025-02-05T21:23:36.623Z</time>
      </trkpt>
      <trkpt lat="58.48193191923201" lon="12.383366916328669">
        <ele>71.75</ele>
        <time>2025-02-05T21:24:01.825Z</time>
      </trkpt>
      <trkpt lat="58.48183996975422" lon="12.383360965177417">
        <ele>71.71</ele>
        <time>2025-02-05T21:24:27.029Z</time>
      </trkpt>
      <trkpt lat="58.481748942285776" lon="12.383348979055882">
        <ele>71.66</ele>
        <time>2025-02-05T21:24:52.234Z</time>
      </trkpt>
      <trkpt lat="58.481660932302475" lon="12.383323917165399">
        <ele>71.61</ele>
        <time>2025-02-05T21:25:17.440Z</time>
      </trkpt>
      <trkpt lat="58.481576945632696" lon="12.383286952972412">
        <ele>71.57</ele>
        <time>2025-02-05T21:25:42.648Z</time>
      </trkpt>
      <trkpt lat="58.4814989939332" lon="12.383234985172749">
        <ele>71.52</ele>
        <time>2025-02-05T21:26:07.857Z</time>
      </trkpt>
      <trkpt lat="58.48142598755658" lon="12.383175976574421">
        <ele>71.47</ele>
        <time>2025-02-05T21:26:33.067Z</time>
      </trkpt>
      <trkpt lat="58.481357926502824" lon="12.3831079993397">
        <ele>71.42</ele>
        <time>2025-02-05T21:26:58.279Z</time>
      </trkpt>
      <trkpt lat="58.481295984238386" lon="12.383035998791456">
        <ele>71.38</ele>
        <time>2025-02-05T21:27:23.492Z</time>
      </trkpt>
      <trkpt lat="58.48123697564006" lon="12.382967937737703">
        <ele>71.33</ele>
        <time>2025-02-05T21:27:48.706Z</time>
      </trkpt>
      <trkpt lat="58.48117997869849" lon="12.382908929139376">
        <ele>71.28</ele>
        <time>2025-02-05T21:28:13.921Z</time>
      </trkpt>
      <trkpt lat="58.481120970100164" lon="12.382862996309996">
        <ele>71.24</ele>
        <time>2025-02-05T21:28:39.137Z</time>
      </trkpt>
      <trkpt lat="58.481060955673456" lon="12.382831983268261">
        <ele>71.19</ele>
        <time>2025-02-05T21:29:04.354Z</time>
      </trkpt>
      <trkpt lat="58.480997923761606" lon="12.382816979661584">
        <ele>71.15</ele>
        <time>2025-02-05T21:29:29.572Z</time>
      </trkpt>
      <trkpt lat="58.480931958183646" lon="12.382816979661584">
        <ele>71.1</ele>
        <time>2025-02-05T21:29:54.791Z</time>
      </trkpt>
      <trkpt lat="58.480865992605686" lon="12.3828299716115">
        <ele>71.06</ele>
        <time>2025-02-05T21:30:20.011Z</time>
      </trkpt>
      <trkpt lat="58.48079591989517" lon="12.382850926369429">
        <ele>71.01</ele>
        <time>2025-02-05T21:30:45.232Z</time>
      </trkpt>
      <trkpt lat="58.48072299733758" lon="12.38287397660315">
        <ele>70.96</ele>
        <time>2025-02-05T21:31:10.454Z</time>
      </trkpt>
      <trkpt lat="58.480648985132575" lon="12.38289493136108">
        <ele>70.9</ele>
        <time>2025-02-05T21:31:35.678Z</time>
      </trkpt>
      <trkpt lat="58.48057195544243" lon="12.382908929139376">
        <ele>70.85</ele>
        <time>2025-02-05T21:32:00.903Z</time>
      </trkpt>
      <trkpt lat="58.4804939199239" lon="12.382917981594801">
        <ele>70.8</ele>
        <time>2025-02-05T21:32:26.129Z</time>
      </trkpt>
      <trkpt lat="58.480413956567645" lon="12.38291496410966">
        <ele>70.74</ele>
        <time>2025-02-05T21:32:51.356Z</time>
      </trkpt>
      <trkpt lat="58.48033399321139" lon="12.382900966331363">
        <ele>70.69</ele>
        <time>2025-02-05T21:33:16.585Z</time>
      </trkpt>
      <trkpt lat="58.48025294020772" lon="12.382875988259912">
        <ele>70.63</ele>
        <time>2025-02-05T21:33:41.815Z</time>
      </trkpt>
      <trkpt lat="58.48016995936632" lon="12.382842963561416">
        <ele>70.58</ele>
        <time>2025-02-05T21:34:07.046Z</time>
      </trkpt>
      <trkpt lat="58.48008697852492" lon="12.382798958569765">
        <ele>70.52</ele>
        <time>2025-02-05T21:34:32.279Z</time>
      </trkpt>
      <trkpt lat="58.480001986026764" lon="12.382749924436212">
        <ele>70.46</ele>
        <time>2025-02-05T21:34:57.513Z</time>
      </trkpt>
      <trkpt lat="58.479916993528605" lon="12.382704997435212">
        <ele>70.41</ele>
        <time>2025-02-05T21:35:22.749Z</time>
      </trkpt>
      <trkpt lat="58.4798289835453" lon="12.382659986615181">
        <ele>70.35</ele>
        <time>2025-02-05T21:35:47.986Z</time>
      </trkpt>
      <trkpt lat="58.47974298521876" lon="12.38261497579515">
        <ele>70.29</ele>
        <time>2025-02-05T21:36:13.224Z</time>
      </trkpt>
      <trkpt lat="58.47965598106384" lon="12.382568959146738">
        <ele>70.23</ele>
        <time>2025-02-05T21:36:38.464Z</time>
      </trkpt>
      <trkpt lat="58.4795699827373" lon="12.382523948326707">
        <ele>70.18</ele>
        <time>2025-02-05T21:37:03.705Z</time>
      </trkpt>
      <trkpt lat="58.47948691807687" lon="12.382477931678295">
        <ele>70.13</ele>
        <time>2025-02-05T21:37:28.948Z</time>
      </trkpt>
      <trkpt lat="58.479403937235475" lon="12.382433926686645">
        <ele>70.07</ele>
        <time>2025-02-05T21:37:54.192Z</time>
      </trkpt>
      <trkpt lat="58.47932397387922" lon="12.382392939180136">
        <ele>70.02</ele>
        <time>2025-02-05T21:38:19.437Z</time>
      </trkpt>
      <trkpt lat="58.47924895584583" lon="12.38235798664391">
        <ele>69.97</ele>
        <time>2025-02-05T21:38:44.684Z</time>
      </trkpt>
      <trkpt lat="58.47917594946921" lon="12.382322950288653">
        <ele>69.92</ele>
        <time>2025-02-05T21:39:09.932Z</time>
      </trkpt>
      <trkpt lat="58.479102943092585" lon="12.382288919761777">
        <ele>69.87</ele>
        <time>2025-02-05T21:39:35.181Z</time>
      </trkpt>
      <trkpt lat="58.47902893088758" lon="12.382252961397171">
        <ele>69.82</ele>
        <time>2025-02-05T21:40:00.431Z</time>
      </trkpt>
      <trkpt lat="58.478953996673226" lon="12.382219936698675">
        <ele>69.77</ele>
        <time>2025-02-05T21:40:25.683Z</time>
      </trkpt>
      <trkpt lat="58.47887897863984" lon="12.382186995819211">
        <ele>69.72</ele>
        <time>2025-02-05T21:40:50.936Z</time>
      </trkpt>
      <trkpt lat="58.47879993729293" lon="12.38214491866529">
        <ele>69.67</ele>
        <time>2025-02-05T21:41:16.190Z</time>
      </trkpt>
      <trkpt lat="58.478717962279916" lon="12.382100997492671">
        <ele>69.62</ele>
        <time>2025-02-05T21:41:41.445Z</time>
      </trkpt>
      <trkpt lat="58.47863498143852" lon="12.382052969187498">
        <ele>69.58</ele>
        <time>2025-02-05T21:42:06.702Z</time>
      </trkpt>
      <trkpt lat="58.47855292260647" lon="12.382002929225564">
        <ele>69.53</ele>
        <time>2025-02-05T21:42:31.960Z</time>
      </trkpt>
      <trkpt lat="58.47847094759345" lon="12.3819509614259">
        <ele>69.48</ele>
        <time>2025-02-05T21:42:57.220Z</time>
      </trkpt>
      <trkpt lat="58.47838897258043" lon="12.381899999454618">
        <ele>69.43</ele>
        <time>2025-02-05T21:43:22.481Z</time>
      </trkpt>
      <trkpt lat="58.478305991739035" lon="12.381849959492683">
        <ele>69.38</ele>
        <time>2025-02-05T21:43:47.743Z</time>
      </trkpt>
      <trkpt lat="58.478222927078605" lon="12.38179698586464">
        <ele>69.33</ele>
        <time>2025-02-05T21:44:13.007Z</time>
      </trkpt>
      <trkpt lat="58.47814195789397" lon="12.381736971437931">
        <ele>69.27</ele>
        <time>2025-02-05T21:44:38.272Z</time>
      </trkpt>
      <trkpt lat="58.47806291654706" lon="12.3816729336977">
        <ele>69.21</ele>
        <time>2025-02-05T21:45:03.539Z</time>
      </trkpt>
      <trkpt lat="58.47798798233271" lon="12.381599927321076">
        <ele>69.15</ele>
        <time>2025-02-05T21:45:28.807Z</time>
      </trkpt>
      <trkpt lat="58.477917993441224" lon="12.381512923166156">
        <ele>69.09</ele>
        <time>2025-02-05T21:45:54.076Z</time>
      </trkpt>
      <trkpt lat="58.47785294987261" lon="12.381417956203222">
        <ele>69.03</ele>
        <time>2025-02-05T21:46:19.347Z</time>
      </trkpt>
      <trkpt lat="58.477790923789144" lon="12.381320977583528">
        <ele>68.97</ele>
        <time>2025-02-05T21:46:44.619Z</time>
      </trkpt>
      <trkpt lat="58.47773099318147" lon="12.381221987307072">
        <ele>68.92</ele>
        <time>2025-02-05T21:47:09.892Z</time>
      </trkpt>
      <trkpt lat="58.4776739962399" lon="12.381117967888713">
        <ele>68.86</ele>
        <time>2025-02-05T21:47:35.166Z</time>
      </trkpt>
      <trkpt lat="58.47761792130768" lon="12.381007997319102">
        <ele>68.81</ele>
        <time>2025-02-05T21:48:00.442Z</time>
      </trkpt>
      <trkpt lat="58.47756494767964" lon="12.380895931273699">
        <ele>68.75</ele>
        <time>2025-02-05T21:48:25.719Z</time>
      </trkpt>
      <trkpt lat="58.477510968223214" lon="12.380776992067695">
        <ele>68.7</ele>
        <time>2025-02-05T21:48:50.997Z</time>
      </trkpt>
      <trkpt lat="58.47745598293841" lon="12.380652939900756">
        <ele>68.65</ele>
        <time>2025-02-05T21:49:16.277Z</time>
      </trkpt>
      <trkpt lat="58.47740292549133" lon="12.380526959896088">
        <ele>68.6</ele>
        <time>2025-02-05T21:49:41.558Z</time>
      </trkpt>
      <trkpt lat="58.47735296934843" lon="12.380398968234658">
        <ele>68.54</ele>
        <time>2025-02-05T21:50:06.840Z</time>
      </trkpt>
      <trkpt lat="58.4773029293865" lon="12.380274999886751">
        <ele>68.49</ele>
        <time>2025-02-05T21:50:32.124Z</time>
      </trkpt>
      <trkpt lat="58.47725096158683" lon="12.38014591857791">
        <ele>68.43</ele>
        <time>2025-02-05T21:50:57.409Z</time>
      </trkpt>
      <trkpt lat="58.47719899378717" lon="12.380011975765228">
        <ele>68.38</ele>
        <time>2025-02-05T21:51:22.695Z</time>
      </trkpt>
      <trkpt lat="58.477145936340094" lon="12.379877949133515">
        <ele>68.31</ele>
        <time>2025-02-05T21:51:47.983Z</time>
      </trkpt>
      <trkpt lat="58.47709296271205" lon="12.379743922501802">
        <ele>68.25</ele>
        <time>2025-02-05T21:52:13.272Z</time>
      </trkpt>
      <trkpt lat="58.477038983255625" lon="12.379602938890457">
        <ele>68.19</ele>
        <time>2025-02-05T21:52:38.563Z</time>
      </trkpt>
      <trkpt lat="58.47698299214244" lon="12.379462961107492">
        <ele>68.13</ele>
        <time>2025-02-05T21:53:03.855Z</time>
      </trkpt>
      <trkpt lat="58.476930940523744" lon="12.379315942525864">
        <ele>68.07</ele>
        <time>2025-02-05T21:53:29.149Z</time>
      </trkpt>
      <trkpt lat="58.4768779668957" lon="12.379167918115854">
        <ele>68.02</ele>
        <time>2025-02-05T21:53:54.444Z</time>
      </trkpt>
      <trkpt lat="58.476824993267655" lon="12.379022995010018">
        <ele>67.97</ele>
        <time>2025-02-05T21:54:19.741Z</time>
      </trkpt>
      <trkpt lat="58.47676992416382" lon="12.378882933408022">
        <ele>67.92</ele>
        <time>2025-02-05T21:54:45.039Z</time>
      </trkpt>
      <trkpt lat="58.47671393305063" lon="12.378741949796677">
        <ele>67.86</ele>
        <time>2025-02-05T21:55:10.339Z</time>
      </trkpt>
      <trkpt lat="58.476654924452305" lon="12.378608928993344">
        <ele>67.81</ele>
        <time>2025-02-05T21:55:35.640Z</time>
      </trkpt>
      <trkpt lat="58.47659499384463" lon="12.378481943160295">
        <ele>67.76</ele>
        <time>2025-02-05T21:56:00.943Z</time>
      </trkpt>
      <trkpt lat="58.47653397358954" lon="12.378368955105543">
        <ele>67.71</ele>
        <time>2025-02-05T21:56:26.247Z</time>
      </trkpt>
      <trkpt lat="58.47647295333445" lon="12.37827599979937">
        <ele>67.65</ele>
        <time>2025-02-05T21:56:51.552Z</time>
      </trkpt>
      <trkpt lat="58.47641092725098" lon="12.378200981765985">
        <ele>67.6</ele>
        <time>2025-02-05T21:57:16.858Z</time>
      </trkpt>
      <trkpt lat="58.476348984986544" lon="12.378134932368994">
        <ele>67.55</ele>
        <time>2025-02-05T21:57:42.165Z</time>
      </trkpt>
      <trkpt lat="58.47628494724631" lon="12.378074917942286">
        <ele>67.5</ele>
        <time>2025-02-05T21:58:07.474Z</time>
      </trkpt>
      <trkpt lat="58.476219987496734" lon="12.37802093848586">
        <ele>67.46</ele>
        <time>2025-02-05T21:58:32.784Z</time>
      </trkpt>
      <trkpt lat="58.47614899277687" lon="12.377964947372675">
        <ele>67.41</ele>
        <time>2025-02-05T21:58:58.095Z</time>
      </trkpt>
      <trkpt lat="58.476070957258344" lon="12.377902921289206">
        <ele>67.36</ele>
        <time>2025-02-05T21:59:23.407Z</time>
      </trkpt>
      <trkpt lat="58.47599099390209" lon="12.377833938226104">
        <ele>67.32</ele>
        <time>2025-02-05T21:59:48.721Z</time>
      </trkpt>
      <trkpt lat="58.47590994089842" lon="12.377759926021099">
        <ele>67.27</ele>
        <time>2025-02-05T22:00:14.036Z</time>
      </trkpt>
      <trkpt lat="58.47582997754216" lon="12.377679962664843">
        <ele>67.23</ele>
        <time>2025-02-05T22:00:39.353Z</time>
      </trkpt>
      <trkpt lat="58.475749930366874" lon="12.377595975995064">
        <ele>67.18</ele>
        <time>2025-02-05T22:01:04.671Z</time>
      </trkpt>
      <trkpt lat="58.47567298449576" lon="12.377508971840143">
        <ele>67.14</ele>
        <time>2025-02-05T22:01:29.991Z</time>
      </trkpt>
      <trkpt lat="58.475597966462374" lon="12.377421967685223">
        <ele>67.1</ele>
        <time>2025-02-05T22:01:55.312Z</time>
      </trkpt>
      <trkpt lat="58.47552496008575" lon="12.377338986843824">
        <ele>67.06</ele>
        <time>2025-02-05T22:02:20.634Z</time>
      </trkpt>
      <trkpt lat="58.47545396536589" lon="12.377257933840156">
        <ele>67.03</ele>
        <time>2025-02-05T22:02:45.958Z</time>
      </trkpt>
      <trkpt lat="58.475385988131166" lon="12.377183921635151">
        <ele>67.0</ele>
        <time>2025-02-05T22:03:11.283Z</time>
      </trkpt>
      <trkpt lat="58.475319938734174" lon="12.377119967713952">
        <ele>66.96</ele>
        <time>2025-02-05T22:03:36.609Z</time>
      </trkpt>
      <trkpt lat="58.475257996469736" lon="12.377067999914289">
        <ele>66.92</ele>
        <time>2025-02-05T22:04:01.936Z</time>
      </trkpt>
      <trkpt lat="58.47519898787141" lon="12.377027934417129">
        <ele>66.87</ele>
        <time>2025-02-05T22:04:27.264Z</time>
      </trkpt>
      <trkpt lat="58.47514199092984" lon="12.376995999366045">
        <ele>66.83</ele>
        <time>2025-02-05T22:04:52.593Z</time>
      </trkpt>
      <trkpt lat="58.475083988159895" lon="12.376969931647182">
        <ele>66.79</ele>
        <time>2025-02-05T22:05:17.923Z</time>
      </trkpt>
      <trkpt lat="58.47502497956157" lon="12.376945959404111">
        <ele>66.74</ele>
        <time>2025-02-05T22:05:43.254Z</time>
      </trkpt>
      <trkpt lat="58.47496496513486" lon="12.376923998817801">
        <ele>66.7</ele>
        <time>2025-02-05T22:06:08.586Z</time>
      </trkpt>
      <trkpt lat="58.47490394487977" lon="12.37690094858408">
        <ele>66.65</ele>
        <time>2025-02-05T22:06:33.919Z</time>
      </trkpt>
      <trkpt lat="58.47484099678695" lon="12.376875970512629">
        <ele>66.6</ele>
        <time>2025-02-05T22:06:59.253Z</time>
      </trkpt>
      <trkpt lat="58.4747779648751" lon="12.376845963299274">
        <ele>66.56</ele>
        <time>2025-02-05T22:07:24.588Z</time>
      </trkpt>
      <trkpt lat="58.47471392713487" lon="12.37681394442916">
        <ele>66.51</ele>
        <time>2025-02-05T22:07:49.924Z</time>
      </trkpt>
      <trkpt lat="58.474652990698814" lon="12.376780919730663">
        <ele>66.46</ele>
        <time>2025-02-05T22:08:15.261Z</time>
      </trkpt>
      <trkpt lat="58.474592976272106" lon="12.376744961366057">
        <ele>66.42</ele>
        <time>2025-02-05T22:08:40.599Z</time>
      </trkpt>
      <trkpt lat="58.47453396767378" lon="12.376707997173071">
        <ele>66.38</ele>
        <time>2025-02-05T22:09:05.938Z</time>
      </trkpt>
      <trkpt lat="58.47447898238897" lon="12.376668937504292">
        <ele>66.33</ele>
        <time>2025-02-05T22:09:31.278Z</time>
      </trkpt>
      <trkpt lat="58.47442399710417" lon="12.37662292085588">
        <ele>66.28</ele>
        <time>2025-02-05T22:09:56.619Z</time>
      </trkpt>
      <trkpt lat="58.47436297684908" lon="12.37657992169261">
        <ele>66.23</ele>
        <time>2025-02-05T22:10:21.961Z</time>
      </trkpt>
      <trkpt lat="58.47429994493723" lon="12.37653792835772">
        <ele>66.18</ele>
        <time>2025-02-05T22:10:47.304Z</time>
      </trkpt>
      <trkpt lat="58.47423397935927" lon="12.37649492919445">
        <ele>66.13</ele>
        <time>2025-02-05T22:11:12.648Z</time>
      </trkpt>
      <trkpt lat="58.47416399046779" lon="12.376456959173083">
        <ele>66.08</ele>
        <time>2025-02-05T22:11:37.993Z</time>
      </trkpt>
      <trkpt lat="58.47409391775727" lon="12.376424940302968">
        <ele>66.03</ele>
        <time>2025-02-05T22:12:03.340Z</time>
      </trkpt>
      <trkpt lat="58.47401898354292" lon="12.376402979716659">
        <ele>65.98</ele>
        <time>2025-02-05T22:12:28.688Z</time>
      </trkpt>
      <trkpt lat="58.47394295968115" lon="12.376392921432853">
        <ele>65.93</ele>
        <time>2025-02-05T22:12:54.037Z</time>
      </trkpt>
      <trkpt lat="58.47386592999101" lon="12.376391999423504">
        <ele>65.88</ele>
        <time>2025-02-05T22:13:19.387Z</time>
      </trkpt>
      <trkpt lat="58.47379099577665" lon="12.37640893086791">
        <ele>65.83</ele>
        <time>2025-02-05T22:13:44.739Z</time>
      </trkpt>
      <trkpt lat="58.47371798940003" lon="12.376437932252884">
        <ele>65.77</ele>
        <time>2025-02-05T22:14:10.092Z</time>
      </trkpt>
      <trkpt lat="58.473649928346276" lon="12.37647095695138">
        <ele>65.72</ele>
        <time>2025-02-05T22:14:35.446Z</time>
      </trkpt>
      <trkpt lat="58.473581951111555" lon="12.376500964164734">
        <ele>65.66</ele>
        <time>2025-02-05T22:15:00.801Z</time>
      </trkpt>
      <trkpt lat="58.47351196222007" lon="12.37653692252934">
        <ele>65.61</ele>
        <time>2025-02-05T22:15:26.157Z</time>
      </trkpt>
      <trkpt lat="58.47344691865146" lon="12.376569947227836">
        <ele>65.55</ele>
        <time>2025-02-05T22:15:51.514Z</time>
      </trkpt>
      <trkpt lat="58.473386988043785" lon="12.376609928905964">
        <ele>65.49</ele>
        <time>2025-02-05T22:16:16.872Z</time>
      </trkpt>
      <trkpt lat="58.47333292476833" lon="12.376650916412473">
        <ele>65.43</ele>
        <time>2025-02-05T22:16:42.231Z</time>
      </trkpt>
      <trkpt lat="58.473278945311904" lon="12.376698944717646">
        <ele>65.37</ele>
        <time>2025-02-05T22:17:07.591Z</time>
      </trkpt>
      <trkpt lat="58.473228989169" lon="12.376745967194438">
        <ele>65.31</ele>
        <time>2025-02-05T22:17:32.952Z</time>
      </trkpt>
      <trkpt lat="58.47318196669221" lon="12.376789972186089">
        <ele>65.25</ele>
        <time>2025-02-05T22:17:58.314Z</time>
      </trkpt>
      <trkpt lat="58.473132932558656" lon="12.376832971349359">
        <ele>65.18</ele>
        <time>2025-02-05T22:18:23.677Z</time>
      </trkpt>
      <trkpt lat="58.473083982244134" lon="12.376874964684248">
        <ele>65.11</ele>
        <time>2025-02-05T22:18:49.041Z</time>
      </trkpt>
      <trkpt lat="58.47303293645382" lon="12.376916958019137">
        <ele>65.04</ele>
        <time>2025-02-05T22:19:14.405Z</time>
      </trkpt>
      <trkpt lat="58.47297292202711" lon="12.376950988546014">
        <ele>64.97</ele>
        <time>2025-02-05T22:19:39.770Z</time>
      </trkpt>
      <trkpt lat="58.472913997247815" lon="12.376976972445846">
        <ele>64.9</ele>
        <time>2025-02-05T22:20:05.136Z</time>
      </trkpt>
      <trkpt lat="58.4728439245373" lon="12.377002956345677">
        <ele>64.83</ele>
        <time>2025-02-05T22:20:30.504Z</time>
      </trkpt>
      <trkpt lat="58.472765972837806" lon="12.377024916931987">
        <ele>64.75</ele>
        <time>2025-02-05T22:20:55.873Z</time>
      </trkpt>
      <trkpt lat="58.47268399782479" lon="12.377043943852186">
        <ele>64.67</ele>
        <time>2025-02-05T22:21:21.243Z</time>
      </trkpt>
      <trkpt lat="58.47259799949825" lon="12.377055929973722">
        <ele>64.59</ele>
        <time>2025-02-05T22:21:46.615Z</time>
      </trkpt>
      <trkpt lat="58.472507977858186" lon="12.377060959115624">
        <ele>64.51</ele>
        <time>2025-02-05T22:22:11.988Z</time>
      </trkpt>
      <trkpt lat="58.47241594456136" lon="12.377052996307611">
        <ele>64.42</ele>
        <time>2025-02-05T22:22:37.362Z</time>
      </trkpt>
      <trkpt lat="58.47232491709292" lon="12.377034975215793">
        <ele>64.34</ele>
        <time>2025-02-05T22:23:02.738Z</time>
      </trkpt>
      <trkpt lat="58.47223296761513" lon="12.377004968002439">
        <ele>64.25</ele>
        <time>2025-02-05T22:23:28.115Z</time>
      </trkpt>
      <trkpt lat="58.472143951803446" lon="12.37696599215269">
        <ele>64.16</ele>
        <time>2025-02-05T22:23:53.494Z</time>
      </trkpt>
      <trkpt lat="58.472054935991764" lon="12.376917963847518">
        <ele>64.07</ele>
        <time>2025-02-05T22:24:18.874Z</time>
      </trkpt>
      <trkpt lat="58.471969943493605" lon="12.376853926107287">
        <ele>63.98</ele>
        <time>2025-02-05T22:24:44.256Z</time>
      </trkpt>
      <trkpt lat="58.47189199179411" lon="12.376775974407792">
        <ele>63.89</ele>
        <time>2025-02-05T22:25:09.639Z</time>
      </trkpt>
      <trkpt lat="58.47181395627558" lon="12.376692993566394">
        <ele>63.79</ele>
        <time>2025-02-05T22:25:35.024Z</time>
      </trkpt>
      <trkpt lat="58.47173793241382" lon="12.376605989411473">
        <ele>63.7</ele>
        <time>2025-02-05T22:26:00.410Z</time>
      </trkpt>
      <trkpt lat="58.47166593186557" lon="12.376520996913314">
        <ele>63.61</ele>
        <time>2025-02-05T22:26:25.797Z</time>
      </trkpt>
      <trkpt lat="58.47159191966057" lon="12.376440949738026">
        <ele>63.52</ele>
        <time>2025-02-05T22:26:51.186Z</time>
      </trkpt>
      <trkpt lat="58.471517991274595" lon="12.376371966674924">
        <ele>63.43</ele>
        <time>2025-02-05T22:27:16.576Z</time>
      </trkpt>
      <trkpt lat="58.47144096158445" lon="12.376305917277932">
        <ele>63.34</ele>
        <time>2025-02-05T22:27:41.968Z</time>
      </trkpt>
      <trkpt lat="58.47136099822819" lon="12.376247998327017">
        <ele>63.24</ele>
        <time>2025-02-05T22:28:07.361Z</time>
      </trkpt>
      <trkpt lat="58.47127692773938" lon="12.376195946708322">
        <ele>63.15</ele>
        <time>2025-02-05T22:28:32.755Z</time>
      </trkpt>
      <trkpt lat="58.47119092941284" lon="12.376151941716671">
        <ele>63.05</ele>
        <time>2025-02-05T22:28:58.151Z</time>
      </trkpt>
      <trkpt lat="58.47110593691468" lon="12.37610592506826">
        <ele>62.95</ele>
        <time>2025-02-05T22:29:23.548Z</time>
      </trkpt>
      <trkpt lat="58.47102094441652" lon="12.376061920076609">
        <ele>62.85</ele>
        <time>2025-02-05T22:29:48.947Z</time>
      </trkpt>
      <trkpt lat="58.470938969403505" lon="12.37601699307561">
        <ele>62.74</ele>
        <time>2025-02-05T22:30:14.347Z</time>
      </trkpt>
      <trkpt lat="58.4708599280566" lon="12.375975921750069">
        <ele>62.64</ele>
        <time>2025-02-05T22:30:39.748Z</time>
      </trkpt>
      <trkpt lat="58.470786921679974" lon="12.375938957557082">
        <ele>62.54</ele>
        <time>2025-02-05T22:31:05.150Z</time>
      </trkpt>
      <trkpt lat="58.47071894444525" lon="12.375897970050573">
        <ele>62.44</ele>
        <time>2025-02-05T22:31:30.554Z</time>
      </trkpt>
      <trkpt lat="58.470658930018544" lon="12.375858994200826">
        <ele>62.34</ele>
        <time>2025-02-05T22:31:55.959Z</time>
      </trkpt>
      <trkpt lat="58.47060293890536" lon="12.375821946188807">
        <ele>62.23</ele>
        <time>2025-02-05T22:32:21.365Z</time>
      </trkpt>
      <trkpt lat="58.47054694779217" lon="12.375787999480963">
        <ele>62.13</ele>
        <time>2025-02-05T22:32:46.772Z</time>
      </trkpt>
      <trkpt lat="58.470489950850606" lon="12.375756986439228">
        <ele>62.02</ele>
        <time>2025-02-05T22:33:12.179Z</time>
      </trkpt>
      <trkpt lat="58.47043094225228" lon="12.375722955912352">
        <ele>61.91</ele>
        <time>2025-02-05T22:33:37.587Z</time>
      </trkpt>
      <trkpt lat="58.47036992199719" lon="12.375688925385475">
        <ele>61.8</ele>
        <time>2025-02-05T22:34:02.996Z</time>
      </trkpt>
      <trkpt lat="58.47030496224761" lon="12.375648943707347">
        <ele>61.69</ele>
        <time>2025-02-05T22:34:28.407Z</time>
      </trkpt>
      <trkpt lat="58.47023698501289" lon="12.375605944544077">
        <ele>61.57</ele>
        <time>2025-02-05T22:34:53.819Z</time>
      </trkpt>
      <trkpt lat="58.47016699612141" lon="12.375563951209188">
        <ele>61.45</ele>
        <time>2025-02-05T22:35:19.232Z</time>
      </trkpt>
      <trkpt lat="58.47009398974478" lon="12.375522963702679">
        <ele>61.33</ele>
        <time>2025-02-05T22:35:44.646Z</time>
      </trkpt>
      <trkpt lat="58.470016960054636" lon="12.37548298202455">
        <ele>61.21</ele>
        <time>2025-02-05T22:36:10.061Z</time>
      </trkpt>
      <trkpt lat="58.46993699669838" lon="12.375446939840913">
        <ele>61.08</ele>
        <time>2025-02-05T22:36:35.478Z</time>
      </trkpt>
      <trkpt lat="58.46985393203795" lon="12.375415926799178">
        <ele>60.95</ele>
        <time>2025-02-05T22:37:00.896Z</time>
      </trkpt>
      <trkpt lat="58.46977095119655" lon="12.375393966212869">
        <ele>60.82</ele>
        <time>2025-02-05T22:37:26.315Z</time>
      </trkpt>
      <trkpt lat="58.46968696452677" lon="12.375380974262953">
        <ele>60.7</ele>
        <time>2025-02-05T22:37:51.736Z</time>
      </trkpt>
      <trkpt lat="58.46960197202861" lon="12.375372927635908">
        <ele>60.57</ele>
        <time>2025-02-05T22:38:17.158Z</time>
      </trkpt>
      <trkpt lat="58.469517985358834" lon="12.375373933464289">
        <ele>60.44</ele>
        <time>2025-02-05T22:38:42.581Z</time>
      </trkpt>
      <trkpt lat="58.469431987032294" lon="12.375377956777811">
        <ele>60.31</ele>
        <time>2025-02-05T22:39:08.006Z</time>
      </trkpt>
      <trkpt lat="58.469348922371864" lon="12.375386925414205">
        <ele>60.18</ele>
        <time>2025-02-05T22:39:33.432Z</time>
      </trkpt>
      <trkpt lat="58.46926795318723" lon="12.375402934849262">
        <ele>60.05</ele>
        <time>2025-02-05T22:39:58.859Z</time>
      </trkpt>
      <trkpt lat="58.46918899565935" lon="12.375428918749094">
        <ele>59.92</ele>
        <time>2025-02-05T22:40:24.288Z</time>
      </trkpt>
      <trkpt lat="58.469111965969205" lon="12.375471917912364">
        <ele>59.8</ele>
        <time>2025-02-05T22:40:49.718Z</time>
      </trkpt>
      <trkpt lat="58.46903895959258" lon="12.375531932339072">
        <ele>59.67</ele>
        <time>2025-02-05T22:41:15.149Z</time>
      </trkpt>
      <trkpt lat="58.4689689707011" lon="12.375602927058935">
        <ele>59.54</ele>
        <time>2025-02-05T22:41:40.582Z</time>
      </trkpt>
      <trkpt lat="58.46890199929476" lon="12.375688925385475">
        <ele>59.4</ele>
        <time>2025-02-05T22:42:06.016Z</time>
      </trkpt>
      <trkpt lat="58.468834944069386" lon="12.375789927318692">
        <ele>59.27</ele>
        <time>2025-02-05T22:42:31.451Z</time>
      </trkpt>
      <trkpt lat="58.468767972663045" lon="12.375906938686967">
        <ele>59.14</ele>
        <time>2025-02-05T22:42:56.888Z</time>
      </trkpt>
      <trkpt lat="58.46869898959994" lon="12.37604096531868">
        <ele>59.0</ele>
        <time>2025-02-05T22:43:22.326Z</time>
      </trkpt>
      <trkpt lat="58.4686269890517" lon="12.376187983900309">
        <ele>58.86</ele>
        <time>2025-02-05T22:43:47.766Z</time>
      </trkpt>
      <trkpt lat="58.46854694187641" lon="12.376329973340034">
        <ele>58.72</ele>
        <time>2025-02-05T22:44:13.208Z</time>
      </trkpt>
      <trkpt lat="58.46845398657024" lon="12.37644899636507">
        <ele>58.58</ele>
        <time>2025-02-05T22:44:38.652Z</time>
      </trkpt>
      <trkpt lat="58.46835197880864" lon="12.376522924751043">
        <ele>58.44</ele>
        <time>2025-02-05T22:45:04.097Z</time>
      </trkpt>
      <trkpt lat="58.468251982703805" lon="12.37653792835772">
        <ele>58.3</ele>
        <time>2025-02-05T22:45:29.544Z</time>
      </trkpt>
      <trkpt lat="58.46816196106374" lon="12.37649392336607">
        <ele>58.16</ele>
        <time>2025-02-05T22:45:54.992Z</time>
      </trkpt>
      <trkpt lat="58.468080991879106" lon="12.376421922817826">
        <ele>58.03</ele>
        <time>2025-02-05T22:46:20.442Z</time>
      </trkpt>
      <trkpt lat="58.46800597384572" lon="12.376336930319667">
        <ele>57.9</ele>
        <time>2025-02-05T22:46:45.893Z</time>
      </trkpt>
      <trkpt lat="58.467937996611" lon="12.376244980841875">
        <ele>57.76</ele>
        <time>2025-02-05T22:47:11.346Z</time>
      </trkpt>
      <trkpt lat="58.467865996062756" lon="12.3761469963938">
        <ele>57.62</ele>
        <time>2025-02-05T22:47:36.800Z</time>
      </trkpt>
      <trkpt lat="58.46778594888747" lon="12.376061920076609">
        <ele>57.48</ele>
        <time>2025-02-05T22:48:02.255Z</time>
      </trkpt>
      <trkpt lat="58.467694921419024" lon="12.375994948670268">
        <ele>57.34</ele>
        <time>2025-02-05T22:48:27.712Z</time>
      </trkpt>
      <trkpt lat="58.46759593114257" lon="12.375937951728702">
        <ele>57.2</ele>
        <time>2025-02-05T22:48:53.171Z</time>
      </trkpt>
      <trkpt lat="58.46749392338097" lon="12.375882966443896">
        <ele>57.06</ele>
        <time>2025-02-05T22:49:18.631Z</time>
      </trkpt>
      <trkpt lat="58.46738898195326" lon="12.375820940360427">
        <ele>56.92</ele>
        <time>2025-02-05T22:49:44.093Z</time>
      </trkpt>
      <trkpt lat="58.46728194504976" lon="12.375748939812183">
        <ele>56.78</ele>
        <time>2025-02-05T22:50:09.557Z</time>
      </trkpt>
      <trkpt lat="58.46717398613691" lon="12.375669982284307">
        <ele>56.65</ele>
        <time>2025-02-05T22:50:35.023Z</time>
      </trkpt>
      <trkpt lat="58.46706393174827" lon="12.375581972301006">
        <ele>56.52</ele>
        <time>2025-02-05T22:51:00.491Z</time>
      </trkpt>
      <trkpt lat="58.4669569786638" lon="12.37548298202455">
        <ele>56.39</ele>
        <time>2025-02-05T22:51:25.961Z</time>
      </trkpt>
      <trkpt lat="58.466854970902205" lon="12.375365970656276">
        <ele>56.27</ele>
        <time>2025-02-05T22:51:51.433Z</time>
      </trkpt>
      <trkpt lat="58.4667669609189" lon="12.375225992873311">
        <ele>56.15</ele>
        <time>2025-02-05T22:52:16.906Z</time>
      </trkpt>
      <trkpt lat="58.4666929487139" lon="12.375059947371483">
        <ele>56.03</ele>
        <time>2025-02-05T22:52:42.381Z</time>
      </trkpt>
      <trkpt lat="58.46662991680205" lon="12.374877976253629">
        <ele>55.91</ele>
        <time>2025-02-05T22:53:07.858Z</time>
      </trkpt>
      <trkpt lat="58.466578954830766" lon="12.374689970165491">
        <ele>55.81</ele>
        <time>2025-02-05T22:53:33.337Z</time>
      </trkpt>
      <trkpt lat="58.466532938182354" lon="12.374501964077353">
        <ele>55.69</ele>
        <time>2025-02-05T22:53:58.818Z</time>
      </trkpt>
      <trkpt lat="58.466489939019084" lon="12.37432393245399">
        <ele>55.59</ele>
        <time>2025-02-05T22:54:24.300Z</time>
      </trkpt>
      <trkpt lat="58.466449957340956" lon="12.374158976599574">
        <ele>55.48</ele>
        <time>2025-02-05T22:54:49.784Z</time>
      </trkpt>
      <trkpt lat="58.46641198731959" lon="12.374005923047662">
        <ele>55.38</ele>
        <time>2025-02-05T22:55:15.269Z</time>
      </trkpt>
      <trkpt lat="58.46637896262109" lon="12.373861921951175">
        <ele>55.28</ele>
        <time>2025-02-05T22:55:40.755Z</time>
      </trkpt>
      <trkpt lat="58.46634694375098" lon="12.373725967481732">
        <ele>55.19</ele>
        <time>2025-02-05T22:56:06.243Z</time>
      </trkpt>
      <trkpt lat="58.46631492488086" lon="12.373596969991922">
        <ele>55.09</ele>
        <time>2025-02-05T22:56:31.732Z</time>
      </trkpt>
      <trkpt lat="58.4662819840014" lon="12.373473923653364">
        <ele>54.99</ele>
        <time>2025-02-05T22:56:57.222Z</time>
      </trkpt>
      <trkpt lat="58.46625097095966" lon="12.373351966962218">
        <ele>54.9</ele>
        <time>2025-02-05T22:57:22.713Z</time>
      </trkpt>
      <trkpt lat="58.46621995791793" lon="12.37322992645204">
        <ele>54.81</ele>
        <time>2025-02-05T22:57:48.205Z</time>
      </trkpt>
      <trkpt lat="58.46618693321943" lon="12.373103946447372">
        <ele>54.72</ele>
        <time>2025-02-05T22:58:13.699Z</time>
      </trkpt>
      <trkpt lat="58.46615198068321" lon="12.372975954785943">
        <ele>54.63</ele>
        <time>2025-02-05T22:58:39.194Z</time>
      </trkpt>
      <trkpt lat="58.46611795015633" lon="12.372845951467752">
        <ele>54.54</ele>
        <time>2025-02-05T22:59:04.690Z</time>
      </trkpt>
      <trkpt lat="58.466083919629455" lon="12.372710919007659">
        <ele>54.46</ele>
        <time>2025-02-05T22:59:30.187Z</time>
      </trkpt>
      <trkpt lat="58.46604796126485" lon="12.372573958709836">
        <ele>54.37</ele>
        <time>2025-02-05T22:59:55.686Z</time>
      </trkpt>
      <trkpt lat="58.46601191908121" lon="12.372434986755252">
        <ele>54.29</ele>
        <time>2025-02-05T23:00:21.186Z</time>
      </trkpt>
      <trkpt lat="58.465975960716605" lon="12.372293919324875">
        <ele>54.21</ele>
        <time>2025-02-05T23:00:46.687Z</time>
      </trkpt>
      <trkpt lat="58.46593799069524" lon="12.372155953198671">
        <ele>54.13</ele>
        <time>2025-02-05T23:01:12.189Z</time>
      </trkpt>
      <trkpt lat="58.46590295433998" lon="12.372021926566958">
        <ele>54.05</ele>
        <time>2025-02-05T23:01:37.693Z</time>
      </trkpt>
      <trkpt lat="58.465866995975375" lon="12.371887983754277">
        <ele>53.98</ele>
        <time>2025-02-05T23:02:03.198Z</time>
      </trkpt>
      <trkpt lat="58.46583195962012" lon="12.371751945465803">
        <ele>53.91</ele>
        <time>2025-02-05T23:02:28.704Z</time>
      </trkpt>
      <trkpt lat="58.46579893492162" lon="12.37161599099636">
        <ele>53.84</ele>
        <time>2025-02-05T23:02:54.212Z</time>
      </trkpt>
      <trkpt lat="58.46576599404216" lon="12.37148498184979">
        <ele>53.77</ele>
        <time>2025-02-05T23:03:19.721Z</time>
      </trkpt>
      <trkpt lat="58.46573397517204" lon="12.37135699018836">
        <ele>53.7</ele>
        <time>2025-02-05T23:03:45.231Z</time>
      </trkpt>
      <trkpt lat="58.46570396795869" lon="12.37123193219304">
        <ele>53.64</ele>
        <time>2025-02-05T23:04:10.742Z</time>
      </trkpt>
      <trkpt lat="58.465673960745335" lon="12.371105952188373">
        <ele>53.58</ele>
        <time>2025-02-05T23:04:36.254Z</time>
      </trkpt>
      <trkpt lat="58.46564093604684" lon="12.370980978012085">
        <ele>53.52</ele>
        <time>2025-02-05T23:05:01.767Z</time>
      </trkpt>
      <trkpt lat="58.465606989338994" lon="12.370860949158669">
        <ele>53.46</ele>
        <time>2025-02-05T23:05:27.282Z</time>
      </trkpt>
      <trkpt lat="58.46557195298374" lon="12.370743937790394">
        <ele>53.4</ele>
        <time>2025-02-05T23:05:52.798Z</time>
      </trkpt>
      <trkpt lat="58.46553297713399" lon="12.3706279322505">
        <ele>53.34</ele>
        <time>2025-02-05T23:06:18.315Z</time>
      </trkpt>
      <trkpt lat="58.46548997797072" lon="12.370507987216115">
        <ele>53.28</ele>
        <time>2025-02-05T23:06:43.833Z</time>
      </trkpt>
      <trkpt lat="58.46544295549393" lon="12.370385946705937">
        <ele>53.23</ele>
        <time>2025-02-05T23:07:09.352Z</time>
      </trkpt>
      <trkpt lat="58.46539392136037" lon="12.37026097252965">
        <ele>53.18</ele>
        <time>2025-02-05T23:07:34.873Z</time>
      </trkpt>
      <trkpt lat="58.46534195356071" lon="12.370136920362711">
        <ele>53.12</ele>
        <time>2025-02-05T23:08:00.395Z</time>
      </trkpt>
      <trkpt lat="58.465289985761046" lon="12.370015969499946">
        <ele>53.07</ele>
        <time>2025-02-05T23:08:25.918Z</time>
      </trkpt>
      <trkpt lat="58.46524095162749" lon="12.369894934818149">
        <ele>53.02</ele>
        <time>2025-02-05T23:08:51.443Z</time>
      </trkpt>
      <trkpt lat="58.46519493497908" lon="12.3697679489851">
        <ele>52.98</ele>
        <time>2025-02-05T23:09:16.969Z</time>
      </trkpt>
      <trkpt lat="58.46514891833067" lon="12.369640963152051">
        <ele>52.94</ele>
        <time>2025-02-05T23:09:42.496Z</time>
      </trkpt>
      <trkpt lat="58.46510499715805" lon="12.369513977319002">
        <ele>52.89</ele>
        <time>2025-02-05T23:10:08.024Z</time>
      </trkpt>
      <trkpt lat="58.46506292000413" lon="12.369385985657573">
        <ele>52.86</ele>
        <time>2025-02-05T23:10:33.554Z</time>
      </trkpt>
      <trkpt lat="58.465022938326" lon="12.369258999824524">
        <ele>52.82</ele>
        <time>2025-02-05T23:10:59.085Z</time>
      </trkpt>
      <trkpt lat="58.464986979961395" lon="12.369131930172443">
        <ele>52.78</ele>
        <time>2025-02-05T23:11:24.617Z</time>
      </trkpt>
      <trkpt lat="58.46495194360614" lon="12.369004944339395">
        <ele>52.75</ele>
        <time>2025-02-05T23:11:50.150Z</time>
      </trkpt>
      <trkpt lat="58.46491891890764" lon="12.368877958506346">
        <ele>52.73</ele>
        <time>2025-02-05T23:12:15.685Z</time>
      </trkpt>
      <trkpt lat="58.46488798968494" lon="12.368747955188155">
        <ele>52.7</ele>
        <time>2025-02-05T23:12:41.221Z</time>
      </trkpt>
      <trkpt lat="58.464857982471585" lon="12.368615940213203">
        <ele>52.67</ele>
        <time>2025-02-05T23:13:06.758Z</time>
      </trkpt>
      <trkpt lat="58.46483099274337" lon="12.368479985743761">
        <ele>52.65</ele>
        <time>2025-02-05T23:13:32.296Z</time>
      </trkpt>
      <trkpt lat="58.46481095999479" lon="12.368336990475655">
        <ele>52.63</ele>
        <time>2025-02-05T23:13:57.835Z</time>
      </trkpt>
      <trkpt lat="58.464795956388116" lon="12.368192989379168">
        <ele>52.62</ele>
        <time>2025-02-05T23:14:23.376Z</time>
      </trkpt>
      <trkpt lat="58.46478497609496" lon="12.36804697662592">
        <ele>52.6</ele>
        <time>2025-02-05T23:14:48.918Z</time>
      </trkpt>
      <trkpt lat="58.46477692946792" lon="12.367900963872671">
        <ele>52.58</ele>
        <time>2025-02-05T23:15:14.461Z</time>
      </trkpt>
      <trkpt lat="58.46477399580181" lon="12.367761991918087">
        <ele>52.56</ele>
        <time>2025-02-05T23:15:40.005Z</time>
      </trkpt>
      <trkpt lat="58.46477399580181" lon="12.367623941972852">
        <ele>52.54</ele>
        <time>2025-02-05T23:16:05.551Z</time>
      </trkpt>
      <trkpt lat="58.464771984145045" lon="12.367486981675029">
        <ele>52.52</ele>
        <time>2025-02-05T23:16:31.098Z</time>
      </trkpt>
      <trkpt lat="58.46476695500314" lon="12.367350943386555">
        <ele>52.51</ele>
        <time>2025-02-05T23:16:56.646Z</time>
      </trkpt>
      <trkpt lat="58.46475698053837" lon="12.36721096560359">
        <ele>52.49</ele>
        <time>2025-02-05T23:17:22.195Z</time>
      </trkpt>
      <trkpt lat="58.46474097110331" lon="12.367065958678722">
        <ele>52.48</ele>
        <time>2025-02-05T23:17:47.745Z</time>
      </trkpt>
      <trkpt lat="58.46471892669797" lon="12.366920951753855">
        <ele>52.46</ele>
        <time>2025-02-05T23:18:13.297Z</time>
      </trkpt>
      <trkpt lat="58.464689925312996" lon="12.366785919293761">
        <ele>52.45</ele>
        <time>2025-02-05T23:18:38.850Z</time>
      </trkpt>
      <trkpt lat="58.46465296112001" lon="12.36665197648108">
        <ele>52.44</ele>
        <time>2025-02-05T23:19:04.404Z</time>
      </trkpt>
      <trkpt lat="58.46460895612836" lon="12.36652691848576">
        <ele>52.43</ele>
        <time>2025-02-05T23:19:29.959Z</time>
      </trkpt>
      <trkpt lat="58.464560927823186" lon="12.366410996764898">
        <ele>52.42</ele>
        <time>2025-02-05T23:19:55.516Z</time>
      </trkpt>
      <trkpt lat="58.464511977508664" lon="12.366299936547875">
        <ele>52.42</ele>
        <time>2025-02-05T23:20:21.074Z</time>
      </trkpt>
      <trkpt lat="58.46445992588997" lon="12.366198934614658">
        <ele>52.41</ele>
        <time>2025-02-05T23:20:46.633Z</time>
      </trkpt>
      <trkpt lat="58.464407958090305" lon="12.366105979308486">
        <ele>52.41</ele>
        <time>2025-02-05T23:21:12.193Z</time>
      </trkpt>
      <trkpt lat="58.46435096114874" lon="12.366024926304817">
        <ele>52.4</ele>
        <time>2025-02-05T23:21:37.754Z</time>
      </trkpt>
      <trkpt lat="58.46428994089365" lon="12.365954937413335">
        <ele>52.39</ele>
        <time>2025-02-05T23:22:03.316Z</time>
      </trkpt>
      <trkpt lat="58.46422799862921" lon="12.365895928815007">
        <ele>52.38</ele>
        <time>2025-02-05T23:22:28.879Z</time>
      </trkpt>
      <trkpt lat="58.4641629550606" lon="12.365846978500485">
        <ele>52.37</ele>
        <time>2025-02-05T23:22:54.444Z</time>
      </trkpt>
      <trkpt lat="58.46409598365426" lon="12.365812947973609">
        <ele>52.36</ele>
        <time>2025-02-05T23:23:20.010Z</time>
      </trkpt>
      <trkpt lat="58.46402691677213" lon="12.365785958245397">
        <ele>52.36</ele>
        <time>2025-02-05T23:23:45.577Z</time>
      </trkpt>
      <trkpt lat="58.463955922052264" lon="12.365761986002326">
        <ele>52.36</ele>
        <time>2025-02-05T23:24:11.145Z</time>
      </trkpt>
      <trkpt lat="58.46388199366629" lon="12.365735918283463">
        <ele>52.35</ele>
        <time>2025-02-05T23:24:36.714Z</time>
      </trkpt>
      <trkpt lat="58.463806975632906" lon="12.365713957697153">
        <ele>52.36</ele>
        <time>2025-02-05T23:25:02.284Z</time>
      </trkpt>
      <trkpt lat="58.46372994594276" lon="12.365690991282463">
        <ele>52.36</ele>
        <time>2025-02-05T23:25:27.856Z</time>
      </trkpt>
      <trkpt lat="58.4636499825865" lon="12.3656649235636">
        <ele>52.36</ele>
        <time>2025-02-05T23:25:53.429Z</time>
      </trkpt>
      <trkpt lat="58.463568929582834" lon="12.365639945492148">
        <ele>52.36</ele>
        <time>2025-02-05T23:26:19.003Z</time>
      </trkpt>
      <trkpt lat="58.4634879603982" lon="12.365613961592317">
        <ele>52.37</ele>
        <time>2025-02-05T23:26:44.579Z</time>
      </trkpt>
      <trkpt lat="58.46340598538518" lon="12.365591917186975">
        <ele>52.37</ele>
        <time>2025-02-05T23:27:10.156Z</time>
      </trkpt>
      <trkpt lat="58.46332493238151" lon="12.365564927458763">
        <ele>52.38</ele>
        <time>2025-02-05T23:27:35.734Z</time>
      </trkpt>
      <trkpt lat="58.46324094571173" lon="12.365538943558931">
        <ele>52.39</ele>
        <time>2025-02-05T23:28:01.314Z</time>
      </trkpt>
      <trkpt lat="58.463158970698714" lon="12.365509942173958">
        <ele>52.41</ele>
        <time>2025-02-05T23:28:26.895Z</time>
      </trkpt>
      <trkpt lat="58.463075989857316" lon="12.365482952445745">
        <ele>52.42</ele>
        <time>2025-02-05T23:28:52.477Z</time>
      </trkpt>
      <trkpt lat="58.46299493685365" lon="12.365454956889153">
        <ele>52.44</ele>
        <time>2025-02-05T23:29:18.061Z</time>
      </trkpt>
      <trkpt lat="58.46291497349739" lon="12.36542897298932">
        <ele>52.46</ele>
        <time>2025-02-05T23:29:43.646Z</time>
      </trkpt>
      <trkpt lat="58.4628349263221" lon="12.365401983261108">
        <ele>52.48</ele>
        <time>2025-02-05T23:30:09.232Z</time>
      </trkpt>
      <trkpt lat="58.462754962965846" lon="12.365376921370625">
        <ele>52.51</ele>
        <time>2025-02-05T23:30:34.820Z</time>
      </trkpt>
      <trkpt lat="58.46267499960959" lon="12.365351943299174">
        <ele>52.53</ele>
        <time>2025-02-05T23:31:00.409Z</time>
      </trkpt>
      <trkpt lat="58.46259696409106" lon="12.365325959399343">
        <ele>52.55</ele>
        <time>2025-02-05T23:31:25.999Z</time>
      </trkpt>
      <trkpt lat="58.462517922744155" lon="12.36529896967113">
        <ele>52.57</ele>
        <time>2025-02-05T23:31:51.590Z</time>
      </trkpt>
      <trkpt lat="58.46243896521628" lon="12.365273991599679">
        <ele>52.6</ele>
        <time>2025-02-05T23:32:17.183Z</time>
      </trkpt>
      <trkpt lat="58.46236193552613" lon="12.365248929709196">
        <ele>52.63</ele>
        <time>2025-02-05T23:32:42.777Z</time>
      </trkpt>
      <trkpt lat="58.46228398382664" lon="12.365222945809364">
        <ele>52.65</ele>
        <time>2025-02-05T23:33:08.372Z</time>
      </trkpt>
      <trkpt lat="58.46220695413649" lon="12.365197967737913">
        <ele>52.68</ele>
        <time>2025-02-05T23:33:33.968Z</time>
      </trkpt>
      <trkpt lat="58.462129924446344" lon="12.365173995494843">
        <ele>52.72</ele>
        <time>2025-02-05T23:33:59.566Z</time>
      </trkpt>
      <trkpt lat="58.46205197274685" lon="12.365152956917882">
        <ele>52.75</ele>
        <time>2025-02-05T23:34:25.165Z</time>
      </trkpt>
      <trkpt lat="58.4619749430567" lon="12.365134935826063">
        <ele>52.79</ele>
        <time>2025-02-05T23:34:50.765Z</time>
      </trkpt>
      <trkpt lat="58.46189992502332" lon="12.365119932219386">
        <ele>52.82</ele>
        <time>2025-02-05T23:35:16.366Z</time>
      </trkpt>
      <trkpt lat="58.461824990808964" lon="12.365109957754612">
        <ele>52.86</ele>
        <time>2025-02-05T23:35:41.969Z</time>
      </trkpt>
      <trkpt lat="58.46174796111882" lon="12.365101994946599">
        <ele>52.9</ele>
        <time>2025-02-05T23:36:07.573Z</time>
      </trkpt>
      <trkpt lat="58.46166799776256" lon="12.365095959976315">
        <ele>52.93</ele>
        <time>2025-02-05T23:36:33.178Z</time>
      </trkpt>
      <trkpt lat="58.46158493310213" lon="12.365086991339922">
        <ele>52.97</ele>
        <time>2025-02-05T23:36:58.784Z</time>
      </trkpt>
      <trkpt lat="58.46149994060397" lon="12.365075927227736">
        <ele>53.02</ele>
        <time>2025-02-05T23:37:24.392Z</time>
      </trkpt>
      <trkpt lat="58.46141494810581" lon="12.36506494693458">
        <ele>53.06</ele>
        <time>2025-02-05T23:37:50.001Z</time>
      </trkpt>
      <trkpt lat="58.46133096143603" lon="12.365048937499523">
        <ele>53.11</ele>
        <time>2025-02-05T23:38:15.612Z</time>
      </trkpt>
      <trkpt lat="58.461247980594635" lon="12.365029994398355">
        <ele>53.16</ele>
        <time>2025-02-05T23:38:41.224Z</time>
      </trkpt>
      <trkpt lat="58.461166927590966" lon="12.365009961649776">
        <ele>53.22</ele>
        <time>2025-02-05T23:39:06.837Z</time>
      </trkpt>
      <trkpt lat="58.46108797006309" lon="12.364989928901196">
        <ele>53.27</ele>
        <time>2025-02-05T23:39:32.451Z</time>
      </trkpt>
      <trkpt lat="58.46100993454456" lon="12.364969979971647">
        <ele>53.32</ele>
        <time>2025-02-05T23:39:58.067Z</time>
      </trkpt>
      <trkpt lat="58.46093198284507" lon="12.364950953051448">
        <ele>53.38</ele>
        <time>2025-02-05T23:40:23.684Z</time>
      </trkpt>
      <trkpt lat="58.46085495315492" lon="12.364930920302868">
        <ele>53.43</ele>
        <time>2025-02-05T23:40:49.302Z</time>
      </trkpt>
      <trkpt lat="58.460777923464775" lon="12.364906948059797">
        <ele>53.49</ele>
        <time>2025-02-05T23:41:14.922Z</time>
      </trkpt>
      <trkpt lat="58.46069997176528" lon="12.364880964159966">
        <ele>53.55</ele>
        <time>2025-02-05T23:41:40.543Z</time>
      </trkpt>
      <trkpt lat="58.46062193624675" lon="12.364855986088514">
        <ele>53.61</ele>
        <time>2025-02-05T23:42:06.165Z</time>
      </trkpt>
      <trkpt lat="58.46054398454726" lon="12.364833941683173">
        <ele>53.68</ele>
        <time>2025-02-05T23:42:31.788Z</time>
      </trkpt>
      <trkpt lat="58.46046594902873" lon="12.364807957783341">
        <ele>53.74</ele>
        <time>2025-02-05T23:42:57.413Z</time>
      </trkpt>
      <trkpt lat="58.460387997329235" lon="12.36478197388351">
        <ele>53.81</ele>
        <time>2025-02-05T23:43:23.039Z</time>
      </trkpt>
      <trkpt lat="58.46030996181071" lon="12.364755989983678">
        <ele>53.88</ele>
        <time>2025-02-05T23:43:48.666Z</time>
      </trkpt>
      <trkpt lat="58.4602309204638" lon="12.364731933921576">
        <ele>53.95</ele>
        <time>2025-02-05T23:44:14.294Z</time>
      </trkpt>
      <trkpt lat="58.460150957107544" lon="12.364705950021744">
        <ele>54.03</ele>
        <time>2025-02-05T23:44:39.924Z</time>
      </trkpt>
      <trkpt lat="58.46006998792291" lon="12.364673931151628">
        <ele>54.1</ele>
        <time>2025-02-05T23:45:05.555Z</time>
      </trkpt>
      <trkpt lat="58.459990946576" lon="12.36463495530188">
        <ele>54.18</ele>
        <time>2025-02-05T23:45:31.187Z</time>
      </trkpt>
      <trkpt lat="58.45991098321974" lon="12.364586926996708">
        <ele>54.26</ele>
        <time>2025-02-05T23:45:56.821Z</time>
      </trkpt>
      <trkpt lat="58.459831941872835" lon="12.364526996389031">
        <ele>54.33</ele>
        <time>2025-02-05T23:46:22.456Z</time>
      </trkpt>
      <trkpt lat="58.45975499600172" lon="12.36446094699204">
        <ele>54.41</ele>
        <time>2025-02-05T23:46:48.092Z</time>
      </trkpt>
      <trkpt lat="58.459677966311574" lon="12.36439598724246">
        <ele>54.49</ele>
        <time>2025-02-05T23:47:13.730Z</time>
      </trkpt>
      <trkpt lat="58.45960093662143" lon="12.364327926188707">
        <ele>54.58</ele>
        <time>2025-02-05T23:47:39.369Z</time>
      </trkpt>
      <trkpt lat="58.45952591858804" lon="12.364258943125606">
        <ele>54.66</ele>
        <time>2025-02-05T23:48:05.009Z</time>
      </trkpt>
      <trkpt lat="58.45945199020207" lon="12.364187948405743">
        <ele>54.75</ele>
        <time>2025-02-05T23:48:30.651Z</time>
      </trkpt>
      <trkpt lat="58.459379989653826" lon="12.36411795951426">
        <ele>54.84</ele>
        <time>2025-02-05T23:48:56.294Z</time>
      </trkpt>
      <trkpt lat="58.4593069832772" lon="12.364046964794397">
        <ele>54.94</ele>
        <time>2025-02-05T23:49:21.938Z</time>
      </trkpt>
      <trkpt lat="58.4592329710722" lon="12.363975970074534">
        <ele>55.03</ele>
        <time>2025-02-05T23:49:47.584Z</time>
      </trkpt>
      <trkpt lat="58.45915694721043" lon="12.36390296369791">
        <ele>55.13</ele>
        <time>2025-02-05T23:50:13.231Z</time>
      </trkpt>
      <trkpt lat="58.459080923348665" lon="12.363832974806428">
        <ele>55.22</ele>
        <time>2025-02-05T23:50:38.879Z</time>
      </trkpt>
      <trkpt lat="58.45900397747755" lon="12.363763991743326">
        <ele>55.32</ele>
        <time>2025-02-05T23:51:04.529Z</time>
      </trkpt>
      <trkpt lat="58.45892594195902" lon="12.363693919032812">
        <ele>55.42</ele>
        <time>2025-02-05T23:51:30.180Z</time>
      </trkpt>
      <trkpt lat="58.45884597860277" lon="12.36362099647522">
        <ele>55.52</ele>
        <time>2025-02-05T23:51:55.833Z</time>
      </trkpt>
      <trkpt lat="58.45876593142748" lon="12.363546984270215">
        <ele>55.62</ele>
        <time>2025-02-05T23:52:21.487Z</time>
      </trkpt>
      <trkpt lat="58.45868596807122" lon="12.363473977893591">
        <ele>55.73</ele>
        <time>2025-02-05T23:52:47.142Z</time>
      </trkpt>
      <trkpt lat="58.458603993058205" lon="12.363399965688586">
        <ele>55.84</ele>
        <time>2025-02-05T23:53:12.799Z</time>
      </trkpt>
      <trkpt lat="58.458521934226155" lon="12.363327965140343">
        <ele>55.95</ele>
        <time>2025-02-05T23:53:38.457Z</time>
      </trkpt>
      <trkpt lat="58.45844096504152" lon="12.363253952935338">
        <ele>56.06</ele>
        <time>2025-02-05T23:54:04.117Z</time>
      </trkpt>
      <trkpt lat="58.45836091786623" lon="12.363178934901953">
        <ele>56.18</ele>
        <time>2025-02-05T23:54:29.778Z</time>
      </trkpt>
      <trkpt lat="58.458282966166735" lon="12.363104922696948">
        <ele>56.3</ele>
        <time>2025-02-05T23:54:55.441Z</time>
      </trkpt>
      <trkpt lat="58.45820794813335" lon="12.363030994310975">
        <ele>56.43</ele>
        <time>2025-02-05T23:55:21.105Z</time>
      </trkpt>
      <trkpt lat="58.458135947585106" lon="12.362958993762732">
        <ele>56.56</ele>
        <time>2025-02-05T23:55:46.770Z</time>
      </trkpt>
      <trkpt lat="58.458067970350385" lon="12.362884981557727">
        <ele>56.69</ele>
        <time>2025-02-05T23:56:12.437Z</time>
      </trkpt>
      <trkpt lat="58.458000998944044" lon="12.362811975181103">
        <ele>56.82</ele>
        <time>2025-02-05T23:56:38.105Z</time>
      </trkpt>
      <trkpt lat="58.45793595537543" lon="12.362736957147717">
        <ele>56.95</ele>
        <time>2025-02-05T23:57:03.774Z</time>
      </trkpt>
      <trkpt lat="58.457873929291964" lon="12.362657999619842">
        <ele>57.08</ele>
        <time>2025-02-05T23:57:29.444Z</time>
      </trkpt>
      <trkpt lat="58.45781399868429" lon="12.36257292330265">
        <ele>57.22</ele>
        <time>2025-02-05T23:57:55.115Z</time>
      </trkpt>
      <trkpt lat="58.45775499008596" lon="12.36248298548162">
        <ele>57.35</ele>
        <time>2025-02-05T23:58:20.788Z</time>
      </trkpt>
      <trkpt lat="58.45769598148763" lon="12.362389946356416">
        <ele>57.49</ele>
        <time>2025-02-05T23:58:46.462Z</time>
      </trkpt>
      <trkpt lat="58.457636972889304" lon="12.36229196190834">
        <ele>57.63</ele>
        <time>2025-02-05T23:59:12.137Z</time>
      </trkpt>
      <trkpt lat="58.45757897011936" lon="12.362188948318362">
        <ele>57.77</ele>
        <time>2025-02-05T23:59:37.813Z</time>
      </trkpt>
      <trkpt lat="58.45752197317779" lon="12.362081995233893">
        <ele>57.9</ele>
        <time>2025-02-06T00:00:03.491Z</time>
      </trkpt>
      <trkpt lat="58.457463970407844" lon="12.361974958330393">
        <ele>58.05</ele>
        <time>2025-02-06T00:00:29.170Z</time>
      </trkpt>
      <trkpt lat="58.45740697346628" lon="12.361867921426892">
        <ele>58.19</ele>
        <time>2025-02-06T00:00:54.850Z</time>
      </trkpt>
      <trkpt lat="58.45734997652471" lon="12.361761974170804">
        <ele>58.34</ele>
        <time>2025-02-06T00:01:20.532Z</time>
      </trkpt>
      <trkpt lat="58.457293985411525" lon="12.361656948924065">
        <ele>58.49</ele>
        <time>2025-02-06T00:01:46.215Z</time>
      </trkpt>
      <trkpt lat="58.45723891630769" lon="12.361549995839596">
        <ele>58.64</ele>
        <time>2025-02-06T00:02:11.899Z</time>
      </trkpt>
      <trkpt lat="58.45718493685126" lon="12.361438935622573">
        <ele>58.79</ele>
        <time>2025-02-06T00:02:37.584Z</time>
      </trkpt>
      <trkpt lat="58.45712894573808" lon="12.36132594756782">
        <ele>58.95</ele>
        <time>2025-02-06T00:03:03.271Z</time>
      </trkpt>
      <trkpt lat="58.45707295462489" lon="12.36121497116983">
        <ele>59.1</ele>
        <time>2025-02-06T00:03:28.959Z</time>
      </trkpt>
      <trkpt lat="58.457014951854944" lon="12.361102988943458">
        <ele>59.26</ele>
        <time>2025-02-06T00:03:54.648Z</time>
      </trkpt>
      <trkpt lat="58.45695996657014" lon="12.360987989231944">
        <ele>59.41</ele>
        <time>2025-02-06T00:04:20.339Z</time>
      </trkpt>
      <trkpt lat="58.456904981285334" lon="12.360869972035289">
        <ele>59.57</ele>
        <time>2025-02-06T00:04:46.031Z</time>
      </trkpt>
      <trkpt lat="58.45685292966664" lon="12.360753966495395">
        <ele>59.73</ele>
        <time>2025-02-06T00:05:11.724Z</time>
      </trkpt>
      <trkpt lat="58.456799956038594" lon="12.360642990097404">
        <ele>59.9</ele>
        <time>2025-02-06T00:05:37.418Z</time>
      </trkpt>
      <trkpt lat="58.45674999989569" lon="12.360534947365522">
        <ele>60.06</ele>
        <time>2025-02-06T00:06:03.114Z</time>
      </trkpt>
      <trkpt lat="58.45670197159052" lon="12.360429922118783">
        <ele>60.23</ele>
        <time>2025-02-06T00:06:28.811Z</time>
      </trkpt>
      <trkpt lat="58.45665595494211" lon="12.360330931842327">
        <ele>60.4</ele>
        <time>2025-02-06T00:06:54.509Z</time>
      </trkpt>
      <trkpt lat="58.456610944122076" lon="12.360239988192916">
        <ele>60.57</ele>
        <time>2025-02-06T00:07:20.208Z</time>
      </trkpt>
      <trkpt lat="58.456566939130425" lon="12.360154995694757">
        <ele>60.73</ele>
        <time>2025-02-06T00:07:45.908Z</time>
      </trkpt>
      <trkpt lat="58.456523939967155" lon="12.360070925205946">
        <ele>60.9</ele>
        <time>2025-02-06T00:08:11.609Z</time>
      </trkpt>
      <trkpt lat="58.456480940803885" lon="12.359984926879406">
        <ele>61.07</ele>
        <time>2025-02-06T00:08:37.311Z</time>
      </trkpt>
      <trkpt lat="58.456435929983854" lon="12.359896916896105">
        <ele>61.24</ele>
        <time>2025-02-06T00:09:03.014Z</time>
      </trkpt>
      <trkpt lat="58.456389997154474" lon="12.359807984903455">
        <ele>61.41</ele>
        <time>2025-02-06T00:09:28.718Z</time>
      </trkpt>
      <trkpt lat="58.45634096302092" lon="12.359720980748534">
        <ele>61.58</ele>
        <time>2025-02-06T00:09:54.423Z</time>
      </trkpt>
      <trkpt lat="58.45629092305899" lon="12.359634982421994">
        <ele>61.75</ele>
        <time>2025-02-06T00:10:20.129Z</time>
      </trkpt>
      <trkpt lat="58.456239961087704" lon="12.359544960781932">
        <ele>61.93</ele>
        <time>2025-02-06T00:10:45.836Z</time>
      </trkpt>
      <trkpt lat="58.45618799328804" lon="12.35945594497025">
        <ele>62.1</ele>
        <time>2025-02-06T00:11:11.544Z</time>
      </trkpt>
      <trkpt lat="58.456135941669345" lon="12.35936894081533">
        <ele>62.28</ele>
        <time>2025-02-06T00:11:37.254Z</time>
      </trkpt>
      <trkpt lat="58.45608891919255" lon="12.359292916953564">
        <ele>62.45</ele>
        <time>2025-02-06T00:12:02.965Z</time>
      </trkpt>
      <trkpt lat="58.45604692585766" lon="12.359223933890462">
        <ele>62.63</ele>
        <time>2025-02-06T00:12:28.676Z</time>
      </trkpt>
      <trkpt lat="58.45600996166468" lon="12.359160985797644">
        <ele>62.8</ele>
        <time>2025-02-06T00:12:54.388Z</time>
      </trkpt>
      <trkpt lat="58.45597492530942" lon="12.359090996906161">
        <ele>62.98</ele>
        <time>2025-02-06T00:13:20.101Z</time>
      </trkpt>
      <trkpt lat="58.455944918096066" lon="12.359022935852408">
        <ele>63.15</ele>
        <time>2025-02-06T00:13:45.815Z</time>
      </trkpt>
      <trkpt lat="58.45591499470174" lon="12.358950935304165">
        <ele>63.32</ele>
        <time>2025-02-06T00:14:11.530Z</time>
      </trkpt>
      <trkpt lat="58.45588599331677" lon="12.35887591727078">
        <ele>63.49</ele>
        <time>2025-02-06T00:14:37.245Z</time>
      </trkpt>
      <trkpt lat="58.455854980275035" lon="12.358804922550917">
        <ele>63.66</ele>
        <time>2025-02-06T00:15:02.961Z</time>
      </trkpt>
      <trkpt lat="58.45582094974816" lon="12.358730994164944">
        <ele>63.83</ele>
        <time>2025-02-06T00:15:28.678Z</time>
      </trkpt>
      <trkpt lat="58.45578499138355" lon="12.358650946989655">
        <ele>64.0</ele>
        <time>2025-02-06T00:15:54.396Z</time>
      </trkpt>
      <trkpt lat="58.455748949199915" lon="12.35857693478465">
        <ele>64.17</ele>
        <time>2025-02-06T00:16:20.115Z</time>
      </trkpt>
      <trkpt lat="58.45571299083531" lon="12.358507951721549">
        <ele>64.33</ele>
        <time>2025-02-06T00:16:45.834Z</time>
      </trkpt>
      <trkpt lat="58.455681977793574" lon="12.358438968658447">
        <ele>64.5</ele>
        <time>2025-02-06T00:17:11.554Z</time>
      </trkpt>
      <trkpt lat="58.45564895309508" lon="12.358362944796681">
        <ele>64.66</ele>
        <time>2025-02-06T00:17:37.275Z</time>
      </trkpt>
      <trkpt lat="58.45561693422496" lon="12.358285998925567">
        <ele>64.82</ele>
        <time>2025-02-06T00:18:02.997Z</time>
      </trkpt>
      <trkpt lat="58.45558692701161" lon="12.358216932043433">
        <ele>64.98</ele>
        <time>2025-02-06T00:18:28.720Z</time>
      </trkpt>
      <trkpt lat="58.455556919798255" lon="12.358136968687177">
        <ele>65.13</ele>
        <time>2025-02-06T00:18:54.443Z</time>
      </trkpt>
      <trkpt lat="58.45552993007004" lon="12.358052982017398">
        <ele>65.28</ele>
        <time>2025-02-06T00:19:20.167Z</time>
      </trkpt>
      <trkpt lat="58.45550696365535" lon="12.357970923185349">
        <ele>65.44</ele>
        <time>2025-02-06T00:19:45.892Z</time>
      </trkpt>
      <trkpt lat="58.455488942563534" lon="12.357890959829092">
        <ele>65.59</ele>
        <time>2025-02-06T00:20:11.618Z</time>
      </trkpt>
      <trkpt lat="58.45547393895686" lon="12.357818959280849">
        <ele>65.74</ele>
        <time>2025-02-06T00:20:37.344Z</time>
      </trkpt>
      <trkpt lat="58.45545893535018" lon="12.357748970389366">
        <ele>65.89</ele>
        <time>2025-02-06T00:21:03.071Z</time>
      </trkpt>
      <trkpt lat="58.45544493757188" lon="12.357669929042459">
        <ele>66.04</ele>
        <time>2025-02-06T00:21:28.799Z</time>
      </trkpt>
      <trkpt lat="58.455428928136826" lon="12.35758795402944">
        <ele>66.18</ele>
        <time>2025-02-06T00:21:54.528Z</time>
      </trkpt>
      <trkpt lat="58.45541291870177" lon="12.357504973188043">
        <ele>66.32</ele>
        <time>2025-02-06T00:22:20.257Z</time>
      </trkpt>
      <trkpt lat="58.45539296977222" lon="12.357420986518264">
        <ele>66.47</ele>
        <time>2025-02-06T00:22:45.987Z</time>
      </trkpt>
      <trkpt lat="58.4553749486804" lon="12.357334988191724">
        <ele>66.61</ele>
        <time>2025-02-06T00:23:11.718Z</time>
      </trkpt>
      <trkpt lat="58.45535793341696" lon="12.357245972380042">
        <ele>66.74</ele>
        <time>2025-02-06T00:23:37.450Z</time>
      </trkpt>
      <trkpt lat="58.455339996144176" lon="12.357152933254838">
        <ele>66.88</ele>
        <time>2025-02-06T00:24:03.182Z</time>
      </trkpt>
      <trkpt lat="58.455316945910454" lon="12.357053942978382">
        <ele>67.01</ele>
        <time>2025-02-06T00:24:28.915Z</time>
      </trkpt>
      <trkpt lat="58.45529096201062" lon="12.356955958530307">
        <ele>67.15</ele>
        <time>2025-02-06T00:24:54.649Z</time>
      </trkpt>
      <trkpt lat="58.45526196062565" lon="12.356861997395754">
        <ele>67.28</ele>
        <time>2025-02-06T00:25:20.384Z</time>
      </trkpt>
      <trkpt lat="58.45522994175553" lon="12.356775999069214">
        <ele>67.41</ele>
        <time>2025-02-06T00:25:46.120Z</time>
      </trkpt>
      <trkpt lat="58.45519792288542" lon="12.356697963550687">
        <ele>67.54</ele>
        <time>2025-02-06T00:26:11.857Z</time>
      </trkpt>
      <trkpt lat="58.455164982005954" lon="12.35661992803216">
        <ele>67.66</ele>
        <time>2025-02-06T00:26:37.595Z</time>
      </trkpt>
      <trkpt lat="58.45513095147908" lon="12.356539964675903">
        <ele>67.78</ele>
        <time>2025-02-06T00:27:03.334Z</time>
      </trkpt>
      <trkpt lat="58.45509499311447" lon="12.356464946642518">
        <ele>67.9</ele>
        <time>2025-02-06T00:27:29.073Z</time>
      </trkpt>
      <trkpt lat="58.45505794510245" lon="12.356391940265894">
        <ele>68.02</ele>
        <time>2025-02-06T00:27:54.813Z</time>
      </trkpt>
      <trkpt lat="58.45502098090947" lon="12.356311976909637">
        <ele>68.13</ele>
        <time>2025-02-06T00:28:20.554Z</time>
      </trkpt>
      <trkpt lat="58.45498695038259" lon="12.356225978583097">
        <ele>68.24</ele>
        <time>2025-02-06T00:28:46.296Z</time>
      </trkpt>
      <trkpt lat="58.454952919855714" lon="12.356134951114655">
        <ele>68.35</ele>
        <time>2025-02-06T00:29:12.039Z</time>
      </trkpt>
      <trkpt lat="58.45491595566273" lon="12.356034955009818">
        <ele>68.45</ele>
        <time>2025-02-06T00:29:37.783Z</time>
      </trkpt>
      <trkpt lat="58.45488091930747" lon="12.355929929763079">
        <ele>68.55</ele>
        <time>2025-02-06T00:30:03.528Z</time>
      </trkpt>
      <trkpt lat="58.45484999008477" lon="12.355807973071933">
        <ele>68.64</ele>
        <time>2025-02-06T00:30:29.274Z</time>
      </trkpt>
      <trkpt lat="58.45481897704303" lon="12.355680987238884">
        <ele>68.74</ele>
        <time>2025-02-06T00:30:55.021Z</time>
      </trkpt>
      <trkpt lat="58.45478896982968" lon="12.355554923415184">
        <ele>68.84</ele>
        <time>2025-02-06T00:31:20.770Z</time>
      </trkpt>
      <trkpt lat="58.454757956787944" lon="12.355426931753755">
        <ele>68.93</ele>
        <time>2025-02-06T00:31:46.520Z</time>
      </trkpt>
      <trkpt lat="58.45472593791783" lon="12.355298940092325">
        <ele>69.03</ele>
        <time>2025-02-06T00:32:12.271Z</time>
      </trkpt>
      <trkpt lat="58.454695930704474" lon="12.355174971744418">
        <ele>69.12</ele>
        <time>2025-02-06T00:32:38.023Z</time>
      </trkpt>
      <trkpt lat="58.45466592349112" lon="12.35505192540586">
        <ele>69.21</ele>
        <time>2025-02-06T00:33:03.776Z</time>
      </trkpt>
      <trkpt lat="58.45463398844004" lon="12.354925945401192">
        <ele>69.29</ele>
        <time>2025-02-06T00:33:29.530Z</time>
      </trkpt>
      <trkpt lat="58.45460498705506" lon="12.354796947911382">
        <ele>69.38</ele>
        <time>2025-02-06T00:33:55.286Z</time>
      </trkpt>
      <trkpt lat="58.4545789193362" lon="12.354657975956798">
        <ele>69.46</ele>
        <time>2025-02-06T00:34:21.043Z</time>
      </trkpt>
      <trkpt lat="58.45455997623503" lon="12.354505928233266">
        <ele>69.54</ele>
        <time>2025-02-06T00:34:46.801Z</time>
      </trkpt>
      <trkpt lat="58.45455192960799" lon="12.354347929358482">
        <ele>69.62</ele>
        <time>2025-02-06T00:35:12.561Z</time>
      </trkpt>
      <trkpt lat="58.454549917951226" lon="12.354183979332447">
        <ele>69.7</ele>
        <time>2025-02-06T00:35:38.322Z</time>
      </trkpt>
      <trkpt lat="58.45455897040665" lon="12.35401994548738">
        <ele>69.79</ele>
        <time>2025-02-06T00:36:04.084Z</time>
      </trkpt>
      <trkpt lat="58.45457598567009" lon="12.353855995461345">
        <ele>69.87</ele>
        <time>2025-02-06T00:36:29.848Z</time>
      </trkpt>
      <trkpt lat="58.45459492877126" lon="12.353689949959517">
        <ele>69.96</ele>
        <time>2025-02-06T00:36:55.613Z</time>
      </trkpt>
      <trkpt lat="58.45461797900498" lon="12.353532956913114">
        <ele>70.04</ele>
        <time>2025-02-06T00:37:21.380Z</time>
      </trkpt>
      <trkpt lat="58.45464195124805" lon="12.353383926674724">
        <ele>70.12</ele>
        <time>2025-02-06T00:37:47.148Z</time>
      </trkpt>
      <trkpt lat="58.45465796068311" lon="12.35322592779994">
        <ele>70.2</ele>
        <time>2025-02-06T00:38:12.917Z</time>
      </trkpt>
      <trkpt lat="58.45466491766274" lon="12.353061977773905">
        <ele>70.29</ele>
        <time>2025-02-06T00:38:38.688Z</time>
      </trkpt>
      <trkpt lat="58.45466097816825" lon="12.352897943928838">
        <ele>70.37</ele>
        <time>2025-02-06T00:39:04.460Z</time>
      </trkpt>
      <trkpt lat="58.454649997875094" lon="12.352745980024338">
        <ele>70.44</ele>
        <time>2025-02-06T00:39:30.233Z</time>
      </trkpt>
      <trkpt lat="58.454630970954895" lon="12.352594938129187">
        <ele>70.52</ele>
        <time>2025-02-06T00:39:56.008Z</time>
      </trkpt>
      <trkpt lat="58.454605992883444" lon="12.352446997538209">
        <ele>70.59</ele>
        <time>2025-02-06T00:40:21.784Z</time>
      </trkpt>
      <trkpt lat="58.45457497984171" lon="12.352302996441722">
        <ele>70.66</ele>
        <time>2025-02-06T00:40:47.561Z</time>
      </trkpt>
      <trkpt lat="58.45453499816358" lon="12.352159917354584">
        <ele>70.73</ele>
        <time>2025-02-06T00:41:13.340Z</time>
      </trkpt>
      <trkpt lat="58.45448696985841" lon="12.352019939571619">
        <ele>70.8</ele>
        <time>2025-02-06T00:41:39.120Z</time>
      </trkpt>
      <trkpt lat="58.45442997291684" lon="12.351885996758938">
        <ele>70.87</ele>
        <time>2025-02-06T00:42:04.901Z</time>
      </trkpt>
      <trkpt lat="58.45436694100499" lon="12.35176496207714">
        <ele>70.93</ele>
        <time>2025-02-06T00:42:30.684Z</time>
      </trkpt>
      <trkpt lat="58.45429393462837" lon="12.35165499150753">
        <ele>70.99</ele>
        <time>2025-02-06T00:42:56.468Z</time>
      </trkpt>
      <trkpt lat="58.45421598292887" lon="12.351555917412043">
        <ele>71.05</ele>
        <time>2025-02-06T00:43:22.254Z</time>
      </trkpt>
      <trkpt lat="58.454136941581964" lon="12.351472936570644">
        <ele>71.1</ele>
        <time>2025-02-06T00:43:48.041Z</time>
      </trkpt>
      <trkpt lat="58.45405697822571" lon="12.351409988477826">
        <ele>71.16</ele>
        <time>2025-02-06T00:44:13.830Z</time>
      </trkpt>
      <trkpt lat="58.45397592522204" lon="12.351367995142937">
        <ele>71.22</ele>
        <time>2025-02-06T00:44:39.620Z</time>
      </trkpt>
      <trkpt lat="58.45389696769416" lon="12.351339999586344">
        <ele>71.27</ele>
        <time>2025-02-06T00:45:05.411Z</time>
      </trkpt>
      <trkpt lat="58.45382194966078" lon="12.351325917989016">
        <ele>71.33</ele>
        <time>2025-02-06T00:45:31.203Z</time>
      </trkpt>
      <trkpt lat="58.45374693162739" lon="12.35131099820137">
        <ele>71.38</ele>
        <time>2025-02-06T00:45:56.997Z</time>
      </trkpt>
      <trkpt lat="58.45367493107915" lon="12.351293982937932">
        <ele>71.43</ele>
        <time>2025-02-06T00:46:22.792Z</time>
      </trkpt>
      <trkpt lat="58.453603936359286" lon="12.351275961846113">
        <ele>71.48</ele>
        <time>2025-02-06T00:46:48.588Z</time>
      </trkpt>
      <trkpt lat="58.45353294163942" lon="12.351254923269153">
        <ele>71.53</ele>
        <time>2025-02-06T00:47:14.385Z</time>
      </trkpt>
      <trkpt lat="58.45346194691956" lon="12.351229945197701">
        <ele>71.57</ele>
        <time>2025-02-06T00:47:40.183Z</time>
      </trkpt>
      <trkpt lat="58.453388940542936" lon="12.351201949641109">
        <ele>71.62</ele>
        <time>2025-02-06T00:48:05.983Z</time>
      </trkpt>
      <trkpt lat="58.45331291668117" lon="12.3511609621346">
        <ele>71.67</ele>
        <time>2025-02-06T00:48:31.784Z</time>
      </trkpt>
      <trkpt lat="58.453236976638436" lon="12.351107988506556">
        <ele>71.72</ele>
        <time>2025-02-06T00:48:57.586Z</time>
      </trkpt>
      <trkpt lat="58.45316095277667" lon="12.351047974079847">
        <ele>71.77</ele>
        <time>2025-02-06T00:49:23.389Z</time>
      </trkpt>
      <trkpt lat="58.453083923086524" lon="12.350979996845126">
        <ele>71.83</ele>
        <time>2025-02-06T00:49:49.194Z</time>
      </trkpt>
      <trkpt lat="58.45300597138703" lon="12.350908918306231">
        <ele>71.88</ele>
        <time>2025-02-06T00:50:15.000Z</time>
      </trkpt>
      <trkpt lat="58.45292994752526" lon="12.35083892941475">
        <ele>71.94</ele>
        <time>2025-02-06T00:50:40.808Z</time>
      </trkpt>
      <trkpt lat="58.45285492949188" lon="12.350763995200396">
        <ele>71.99</ele>
        <time>2025-02-06T00:51:06.617Z</time>
      </trkpt>
      <trkpt lat="58.45277898944914" lon="12.350694928318262">
        <ele>72.05</ele>
        <time>2025-02-06T00:51:32.427Z</time>
      </trkpt>
      <trkpt lat="58.45270497724414" lon="12.350627956911922">
        <ele>72.11</ele>
        <time>2025-02-06T00:51:58.239Z</time>
      </trkpt>
      <trkpt lat="58.452630965039134" lon="12.350562997162342">
        <ele>72.17</ele>
        <time>2025-02-06T00:52:24.052Z</time>
      </trkpt>
      <trkpt lat="58.45255795866251" lon="12.350501976907253">
        <ele>72.23</ele>
        <time>2025-02-06T00:52:49.866Z</time>
      </trkpt>
      <trkpt lat="58.45248897559941" lon="12.350446991622448">
        <ele>72.29</ele>
        <time>2025-02-06T00:53:15.681Z</time>
      </trkpt>
      <trkpt lat="58.45242493785918" lon="12.350389994680882">
        <ele>72.35</ele>
        <time>2025-02-06T00:53:41.497Z</time>
      </trkpt>
      <trkpt lat="58.45236492343247" lon="12.350330986082554">
        <ele>72.4</ele>
        <time>2025-02-06T00:54:07.315Z</time>
      </trkpt>
      <trkpt lat="58.452311949804425" lon="12.35028094612062">
        <ele>72.46</ele>
        <time>2025-02-06T00:54:33.133Z</time>
      </trkpt>
      <trkpt lat="58.45226593315601" lon="12.350232917815447">
        <ele>72.51</ele>
        <time>2025-02-06T00:54:58.952Z</time>
      </trkpt>
      <trkpt lat="58.4522199165076" lon="12.350192936137319">
        <ele>72.57</ele>
        <time>2025-02-06T00:55:24.772Z</time>
      </trkpt>
      <trkpt lat="58.45217599533498" lon="12.350154966115952">
        <ele>72.62</ele>
        <time>2025-02-06T00:55:50.593Z</time>
      </trkpt>
      <trkpt lat="58.45213299617171" lon="12.350122947245836">
        <ele>72.68</ele>
        <time>2025-02-06T00:56:16.415Z</time>
      </trkpt>
      <trkpt lat="58.45209393650293" lon="12.35008992254734">
        <ele>72.74</ele>
        <time>2025-02-06T00:56:42.237Z</time>
      </trkpt>
      <trkpt lat="58.452051943168044" lon="12.350056981667876">
        <ele>72.79</ele>
        <time>2025-02-06T00:57:08.060Z</time>
      </trkpt>
      <trkpt lat="58.452010955661535" lon="12.35002395696938">
        <ele>72.85</ele>
        <time>2025-02-06T00:57:33.884Z</time>
      </trkpt>
      <trkpt lat="58.451968962326646" lon="12.349997973069549">
        <ele>72.9</ele>
        <time>2025-02-06T00:57:59.708Z</time>
      </trkpt>
      <trkpt lat="58.451923951506615" lon="12.349971989169717">
        <ele>72.96</ele>
        <time>2025-02-06T00:58:25.533Z</time>
      </trkpt>
      <trkpt lat="58.45187894068658" lon="12.349940976127982">
        <ele>73.01</ele>
        <time>2025-02-06T00:58:51.359Z</time>
      </trkpt>
      <trkpt lat="58.45183292403817" lon="12.349919937551022">
        <ele>73.06</ele>
        <time>2025-02-06T00:59:17.186Z</time>
      </trkpt>
      <trkpt lat="58.45178296789527" lon="12.349900994449854">
        <ele>73.11</ele>
        <time>2025-02-06T00:59:43.014Z</time>
      </trkpt>
      <trkpt lat="58.451730916276574" lon="12.349887918680906">
        <ele>73.16</ele>
        <time>2025-02-06T01:00:08.842Z</time>
      </trkpt>
      <trkpt lat="58.45166897401214" lon="12.3498709872365">
        <ele>73.21</ele>
        <time>2025-02-06T01:00:34.671Z</time>
      </trkpt>
      <trkpt lat="58.451604936271906" lon="12.349855983629823">
        <ele>73.26</ele>
        <time>2025-02-06T01:01:00.501Z</time>
      </trkpt>
      <trkpt lat="58.45154399983585" lon="12.349853971973062">
        <ele>73.31</ele>
        <time>2025-02-06T01:01:26.332Z</time>
      </trkpt>
      <trkpt lat="58.45148398540914" lon="12.34984994865954">
        <ele>73.36</ele>
        <time>2025-02-06T01:01:52.164Z</time>
      </trkpt>
      <trkpt lat="58.451427994295955" lon="12.349840980023146">
        <ele>73.41</ele>
        <time>2025-02-06T01:02:17.997Z</time>
      </trkpt>
      <trkpt lat="58.4513739310205" lon="12.349834945052862">
        <ele>73.46</ele>
        <time>2025-02-06T01:02:43.831Z</time>
      </trkpt>
      <trkpt lat="58.45131693407893" lon="12.34980694949627">
        <ele>73.51</ele>
        <time>2025-02-06T01:03:09.666Z</time>
      </trkpt>
      <trkpt lat="58.451258931308985" lon="12.349766967818141">
        <ele>73.57</ele>
        <time>2025-02-06T01:03:35.502Z</time>
      </trkpt>
      <trkpt lat="58.45119992271066" lon="12.349711982533336">
        <ele>73.62</ele>
        <time>2025-02-06T01:04:01.339Z</time>
      </trkpt>
      <trkpt lat="58.45114191994071" lon="12.349652973935008">
        <ele>73.68</ele>
        <time>2025-02-06T01:04:27.177Z</time>
      </trkpt>
      <trkpt lat="58.451087940484285" lon="12.349594971165061">
        <ele>73.73</ele>
        <time>2025-02-06T01:04:53.016Z</time>
      </trkpt>
      <trkpt lat="58.45103597268462" lon="12.349537974223495">
        <ele>73.78</ele>
        <time>2025-02-06T01:05:18.856Z</time>
      </trkpt>
      <trkpt lat="58.45098392106593" lon="12.349478965625167">
        <ele>73.83</ele>
        <time>2025-02-06T01:05:44.697Z</time>
      </trkpt>
      <trkpt lat="58.45092298462987" lon="12.349403947591782">
        <ele>73.88</ele>
        <time>2025-02-06T01:06:10.539Z</time>
      </trkpt>
      <trkpt lat="58.45086397603154" lon="12.34933496452868">
        <ele>73.93</ele>
        <time>2025-02-06T01:06:36.382Z</time>
      </trkpt>
      <trkpt lat="58.450806979089975" lon="12.349266987293959">
        <ele>73.98</ele>
        <time>2025-02-06T01:07:02.226Z</time>
      </trkpt>
      <trkpt lat="58.45074998214841" lon="12.349201943725348">
        <ele>74.04</ele>
        <time>2025-02-06T01:07:28.072Z</time>
      </trkpt>
      <trkpt lat="58.45069097355008" lon="12.34914293512702">
        <ele>74.09</ele>
        <time>2025-02-06T01:07:53.919Z</time>
      </trkpt>
      <trkpt lat="58.45062794163823" lon="12.349088955670595">
        <ele>74.15</ele>
        <time>2025-02-06T01:08:19.767Z</time>
      </trkpt>
      <trkpt lat="58.45055493526161" lon="12.349041933193803">
        <ele>74.2</ele>
        <time>2025-02-06T01:08:45.616Z</time>
      </trkpt>
      <trkpt lat="58.45047798939049" lon="12.349002957344055">
        <ele>74.26</ele>
        <time>2025-02-06T01:09:11.466Z</time>
      </trkpt>
      <trkpt lat="58.45039593055844" lon="12.348972950130701">
        <ele>74.31</ele>
        <time>2025-02-06T01:09:37.318Z</time>
      </trkpt>
      <trkpt lat="58.450312949717045" lon="12.348953923210502">
        <ele>74.37</ele>
        <time>2025-02-06T01:10:03.171Z</time>
      </trkpt>
      <trkpt lat="58.450226951390505" lon="12.348925927653909">
        <ele>74.43</ele>
        <time>2025-02-06T01:10:29.025Z</time>
      </trkpt>
      <trkpt lat="58.450141958892345" lon="12.348893992602825">
        <ele>74.48</ele>
        <time>2025-02-06T01:10:54.881Z</time>
      </trkpt>
      <trkpt lat="58.450055960565805" lon="12.348853927105665">
        <ele>74.53</ele>
        <time>2025-02-06T01:11:20.738Z</time>
      </trkpt>
      <trkpt lat="58.449969962239265" lon="12.348796930164099">
        <ele>74.59</ele>
        <time>2025-02-06T01:11:46.597Z</time>
      </trkpt>
      <trkpt lat="58.449883963912725" lon="12.348738927394152">
        <ele>74.64</ele>
        <time>2025-02-06T01:12:12.457Z</time>
      </trkpt>
      <trkpt lat="58.44980098307133" lon="12.348675979301333">
        <ele>74.69</ele>
        <time>2025-02-06T01:12:38.318Z</time>
      </trkpt>
      <trkpt lat="58.44972194172442" lon="12.348616970703006">
        <ele>74.74</ele>
        <time>2025-02-06T01:13:04.181Z</time>
      </trkpt>
      <trkpt lat="58.449642984196544" lon="12.34855997376144">
        <ele>74.79</ele>
        <time>2025-02-06T01:13:30.045Z</time>
      </trkpt>
      <trkpt lat="58.449563942849636" lon="12.348490990698338">
        <ele>74.84</ele>
        <time>2025-02-06T01:13:55.911Z</time>
      </trkpt>
      <trkpt lat="58.44948892481625" lon="12.348422929644585">
        <ele>74.89</ele>
        <time>2025-02-06T01:14:21.778Z</time>
      </trkpt>
      <trkpt lat="58.44941298477352" lon="12.348341960459948">
        <ele>74.94</ele>
        <time>2025-02-06T01:14:47.646Z</time>
      </trkpt>
      <trkpt lat="58.44933897256851" lon="12.348254956305027">
        <ele>74.99</ele>
        <time>2025-02-06T01:15:13.516Z</time>
      </trkpt>
      <trkpt lat="58.44927099533379" lon="12.348164934664965">
        <ele>75.05</ele>
        <time>2025-02-06T01:15:39.387Z</time>
      </trkpt>
      <trkpt lat="58.44920595176518" lon="12.348056975752115">
        <ele>75.1</ele>
        <time>2025-02-06T01:16:05.259Z</time>
      </trkpt>
      <trkpt lat="58.44914794899523" lon="12.347942981868982">
        <ele>75.16</ele>
        <time>2025-02-06T01:16:31.133Z</time>
      </trkpt>
      <trkpt lat="58.44909598119557" lon="12.347817923873663">
        <ele>75.22</ele>
        <time>2025-02-06T01:16:57.008Z</time>
      </trkpt>
      <trkpt lat="58.44905097037554" lon="12.347684986889362">
        <ele>75.28</ele>
        <time>2025-02-06T01:17:22.884Z</time>
      </trkpt>
      <trkpt lat="58.449022974818945" lon="12.347549954429269">
        <ele>75.34</ele>
        <time>2025-02-06T01:17:48.762Z</time>
      </trkpt>
      <trkpt lat="58.44900897704065" lon="12.347406959161162">
        <ele>75.4</ele>
        <time>2025-02-06T01:18:14.641Z</time>
      </trkpt>
      <trkpt lat="58.44900998286903" lon="12.347270920872688">
        <ele>75.46</ele>
        <time>2025-02-06T01:18:40.521Z</time>
      </trkpt>
      <trkpt lat="58.4490199573338" lon="12.347128931432962">
        <ele>75.53</ele>
        <time>2025-02-06T01:19:06.402Z</time>
      </trkpt>
      <trkpt lat="58.44903596676886" lon="12.346988953649998">
        <ele>75.6</ele>
        <time>2025-02-06T01:19:32.284Z</time>
      </trkpt>
      <trkpt lat="58.44905792735517" lon="12.346853921189904">
        <ele>75.66</ele>
        <time>2025-02-06T01:19:58.168Z</time>
      </trkpt>
      <trkpt lat="58.44907997176051" lon="12.34671394340694">
        <ele>75.73</ele>
        <time>2025-02-06T01:20:24.053Z</time>
      </trkpt>
      <trkpt lat="58.44910092651844" lon="12.346571953967214">
        <ele>75.8</ele>
        <time>2025-02-06T01:20:49.939Z</time>
      </trkpt>
      <trkpt lat="58.44911894761026" lon="12.346423929557204">
        <ele>75.87</ele>
        <time>2025-02-06T01:21:15.826Z</time>
      </trkpt>
      <trkpt lat="58.449132945388556" lon="12.346270959824324">
        <ele>75.94</ele>
        <time>2025-02-06T01:21:41.715Z</time>
      </trkpt>
      <trkpt lat="58.44914392568171" lon="12.346116984263062">
        <ele>76.02</ele>
        <time>2025-02-06T01:22:07.605Z</time>
      </trkpt>
      <trkpt lat="58.449152978137136" lon="12.34596292488277">
        <ele>76.09</ele>
        <time>2025-02-06T01:22:33.496Z</time>
      </trkpt>
      <trkpt lat="58.44916094094515" lon="12.345809955149889">
        <ele>76.16</ele>
        <time>2025-02-06T01:22:59.389Z</time>
      </trkpt>
      <trkpt lat="58.44916395843029" lon="12.345656985417008">
        <ele>76.24</ele>
        <time>2025-02-06T01:23:25.283Z</time>
      </trkpt>
      <trkpt lat="58.44916194677353" lon="12.345499992370605">
        <ele>76.31</ele>
        <time>2025-02-06T01:23:51.178Z</time>
      </trkpt>
      <trkpt lat="58.44915892928839" lon="12.345351967960596">
        <ele>76.39</ele>
        <time>2025-02-06T01:24:17.074Z</time>
      </trkpt>
      <trkpt lat="58.449156917631626" lon="12.345202937722206">
        <ele>76.46</ele>
        <time>2025-02-06T01:24:42.972Z</time>
      </trkpt>
      <trkpt lat="58.449152978137136" lon="12.345053991302848">
        <ele>76.53</ele>
        <time>2025-02-06T01:25:08.871Z</time>
      </trkpt>
      <trkpt lat="58.449150966480374" lon="12.34490999020636">
        <ele>76.61</ele>
        <time>2025-02-06T01:25:34.771Z</time>
      </trkpt>
      <trkpt lat="58.449151972308755" lon="12.344772946089506">
        <ele>76.68</ele>
        <time>2025-02-06T01:26:00.672Z</time>
      </trkpt>
      <trkpt lat="58.449149960651994" lon="12.344633974134922">
        <ele>76.76</ele>
        <time>2025-02-06T01:26:26.574Z</time>
      </trkpt>
      <trkpt lat="58.44914895482361" lon="12.34449994750321">
        <ele>76.84</ele>
        <time>2025-02-06T01:26:52.478Z</time>
      </trkpt>
      <trkpt lat="58.44914291985333" lon="12.344358963891864">
        <ele>76.92</ele>
        <time>2025-02-06T01:27:18.383Z</time>
      </trkpt>
      <trkpt lat="58.449131939560175" lon="12.344212951138616">
        <ele>77.0</ele>
        <time>2025-02-06T01:27:44.289Z</time>
      </trkpt>
      <trkpt lat="58.4491169359535" lon="12.344063920900226">
        <ele>77.08</ele>
        <time>2025-02-06T01:28:10.196Z</time>
      </trkpt>
      <trkpt lat="58.44909992069006" lon="12.343911956995726">
        <ele>77.16</ele>
        <time>2025-02-06T01:28:36.105Z</time>
      </trkpt>
      <trkpt lat="58.44908198341727" lon="12.343755969777703">
        <ele>77.24</ele>
        <time>2025-02-06T01:29:02.015Z</time>
      </trkpt>
      <trkpt lat="58.44907393679023" lon="12.343603922054172">
        <ele>77.32</ele>
        <time>2025-02-06T01:29:27.926Z</time>
      </trkpt>
      <trkpt lat="58.44907695427537" lon="12.343451958149672">
        <ele>77.4</ele>
        <time>2025-02-06T01:29:53.839Z</time>
      </trkpt>
      <trkpt lat="58.44909598119557" lon="12.343304939568043">
        <ele>77.48</ele>
        <time>2025-02-06T01:30:19.753Z</time>
      </trkpt>
      <trkpt lat="58.44912598840892" lon="12.343159932643175">
        <ele>77.56</ele>
        <time>2025-02-06T01:30:45.668Z</time>
      </trkpt>
      <trkpt lat="58.44916798174381" lon="12.343025989830494">
        <ele>77.65</ele>
        <time>2025-02-06T01:31:11.584Z</time>
      </trkpt>
      <trkpt lat="58.449217937886715" lon="12.342905960977077">
        <ele>77.73</ele>
        <time>2025-02-06T01:31:37.502Z</time>
      </trkpt>
      <trkpt lat="58.44927191734314" lon="12.342789955437183">
        <ele>77.81</ele>
        <time>2025-02-06T01:32:03.421Z</time>
      </trkpt>
      <trkpt lat="58.449322963133454" lon="12.342667998746037">
        <ele>77.89</ele>
        <time>2025-02-06T01:32:29.341Z</time>
      </trkpt>
      <trkpt lat="58.449367973953485" lon="12.342536989599466">
        <ele>77.97</ele>
        <time>2025-02-06T01:32:55.263Z</time>
      </trkpt>
      <trkpt lat="58.44940292648971" lon="12.34239399433136">
        <ele>78.06</ele>
        <time>2025-02-06T01:33:21.186Z</time>
      </trkpt>
      <trkpt lat="58.44942698255181" lon="12.34224596992135">
        <ele>78.14</ele>
        <time>2025-02-06T01:33:47.110Z</time>
      </trkpt>
      <trkpt lat="58.44943695701659" lon="12.34209593385458">
        <ele>78.23</ele>
        <time>2025-02-06T01:34:13.036Z</time>
      </trkpt>
      <trkpt lat="58.449434945359826" lon="12.341948999091983">
        <ele>78.31</ele>
        <time>2025-02-06T01:34:38.963Z</time>
      </trkpt>
      <trkpt lat="58.449428994208574" lon="12.341809943318367">
        <ele>78.4</ele>
        <time>2025-02-06T01:35:04.891Z</time>
      </trkpt>
      <trkpt lat="58.44941692426801" lon="12.341676922515035">
        <ele>78.49</ele>
        <time>2025-02-06T01:35:30.820Z</time>
      </trkpt>
      <trkpt lat="58.44939798116684" lon="12.341549936681986">
        <ele>78.58</ele>
        <time>2025-02-06T01:35:56.750Z</time>
      </trkpt>
      <trkpt lat="58.44937493093312" lon="12.341432925313711">
        <ele>78.68</ele>
        <time>2025-02-06T01:36:22.681Z</time>
      </trkpt>
      <trkpt lat="58.449347941204906" lon="12.341325972229242">
        <ele>78.77</ele>
        <time>2025-02-06T01:36:48.613Z</time>
      </trkpt>
      <trkpt lat="58.44931592233479" lon="12.341224970296025">
        <ele>78.86</ele>
        <time>2025-02-06T01:37:14.546Z</time>
      </trkpt>
      <trkpt lat="58.449279963970184" lon="12.341132936999202">
        <ele>78.95</ele>
        <time>2025-02-06T01:37:40.480Z</time>
      </trkpt>
      <trkpt lat="58.449237970635295" lon="12.341042999178171">
        <ele>79.05</ele>
        <time>2025-02-06T01:38:06.415Z</time>
      </trkpt>
      <trkpt lat="58.44919798895717" lon="12.34095892868936">
        <ele>79.14</ele>
        <time>2025-02-06T01:38:32.351Z</time>
      </trkpt>
      <trkpt lat="58.4491549897939" lon="12.340877959504724">
        <ele>79.24</ele>
        <time>2025-02-06T01:38:58.288Z</time>
      </trkpt>
      <trkpt lat="58.449108973145485" lon="12.340801935642958">
        <ele>79.33</ele>
        <time>2025-02-06T01:39:24.226Z</time>
      </trkpt>
      <trkpt lat="58.44905893318355" lon="12.340724989771843">
        <ele>79.43</ele>
        <time>2025-02-06T01:39:50.165Z</time>
      </trkpt>
      <trkpt lat="58.44900797121227" lon="12.34065399505198">
        <ele>79.53</ele>
        <time>2025-02-06T01:40:16.105Z</time>
      </trkpt>
      <trkpt lat="58.44895198009908" lon="12.340582916513085">
        <ele>79.62</ele>
        <time>2025-02-06T01:40:42.046Z</time>
      </trkpt>
      <trkpt lat="58.448892971500754" lon="12.340511921793222">
        <ele>79.72</ele>
        <time>2025-02-06T01:41:07.988Z</time>
      </trkpt>
      <trkpt lat="58.448830945417285" lon="12.340434975922108">
        <ele>79.81</ele>
        <time>2025-02-06T01:41:33.932Z</time>
      </trkpt>
      <trkpt lat="58.44876799732447" lon="12.34035694040358">
        <ele>79.91</ele>
        <time>2025-02-06T01:41:59.877Z</time>
      </trkpt>
      <trkpt lat="58.448701947927475" lon="12.340278988704085">
        <ele>80.0</ele>
        <time>2025-02-06T01:42:25.823Z</time>
      </trkpt>
      <trkpt lat="58.448633970692754" lon="12.340200953185558">
        <ele>80.1</ele>
        <time>2025-02-06T01:42:51.770Z</time>
      </trkpt>
      <trkpt lat="58.44856398180127" lon="12.340121995657682">
        <ele>80.19</ele>
        <time>2025-02-06T01:43:17.719Z</time>
      </trkpt>
      <trkpt lat="58.44849499873817" lon="12.340044965967536">
        <ele>80.27</ele>
        <time>2025-02-06T01:43:43.669Z</time>
      </trkpt>
      <trkpt lat="58.44842693768442" lon="12.33996994793415">
        <ele>80.36</ele>
        <time>2025-02-06T01:44:09.620Z</time>
      </trkpt>
      <trkpt lat="58.448359966278076" lon="12.339893924072385">
        <ele>80.45</ele>
        <time>2025-02-06T01:44:35.572Z</time>
      </trkpt>
      <trkpt lat="58.448294922709465" lon="12.33981798402965">
        <ele>80.53</ele>
        <time>2025-02-06T01:45:01.526Z</time>
      </trkpt>
      <trkpt lat="58.448229962959886" lon="12.339737936854362">
        <ele>80.62</ele>
        <time>2025-02-06T01:45:27.481Z</time>
      </trkpt>
      <trkpt lat="58.448167936876416" lon="12.339653950184584">
        <ele>80.7</ele>
        <time>2025-02-06T01:45:53.437Z</time>
      </trkpt>
      <trkpt lat="58.44810792244971" lon="12.339563928544521">
        <ele>80.78</ele>
        <time>2025-02-06T01:46:19.394Z</time>
      </trkpt>
      <trkpt lat="58.44804991967976" lon="12.339464938268065">
        <ele>80.87</ele>
        <time>2025-02-06T01:46:45.353Z</time>
      </trkpt>
      <trkpt lat="58.447993928566575" lon="12.339350944384933">
        <ele>80.95</ele>
        <time>2025-02-06T01:47:11.313Z</time>
      </trkpt>
      <trkpt lat="58.44794095493853" lon="12.339222952723503">
        <ele>81.03</ele>
        <time>2025-02-06T01:47:37.274Z</time>
      </trkpt>
      <trkpt lat="58.44788999296725" lon="12.339082974940538">
        <ele>81.12</ele>
        <time>2025-02-06T01:48:03.237Z</time>
      </trkpt>
      <trkpt lat="58.447841964662075" lon="12.338931933045387">
        <ele>81.21</ele>
        <time>2025-02-06T01:48:29.201Z</time>
      </trkpt>
      <trkpt lat="58.447796953842044" lon="12.338772928342223">
        <ele>81.29</ele>
        <time>2025-02-06T01:48:55.167Z</time>
      </trkpt>
      <trkpt lat="58.447754960507154" lon="12.338610989972949">
        <ele>81.38</ele>
        <time>2025-02-06T01:49:21.134Z</time>
      </trkpt>
      <trkpt lat="58.44771699048579" lon="12.338450979441404">
        <ele>81.47</ele>
        <time>2025-02-06T01:49:47.103Z</time>
      </trkpt>
      <trkpt lat="58.44767994247377" lon="12.338294992223382">
        <ele>81.56</ele>
        <time>2025-02-06T01:50:13.073Z</time>
      </trkpt>
      <trkpt lat="58.4476419724524" lon="12.33814294449985">
        <ele>81.64</ele>
        <time>2025-02-06T01:50:39.044Z</time>
      </trkpt>
      <trkpt lat="58.447601990774274" lon="12.337995925918221">
        <ele>81.73</ele>
        <time>2025-02-06T01:51:05.017Z</time>
      </trkpt>
      <trkpt lat="58.447558991611004" lon="12.337850918993354">
        <ele>81.81</ele>
        <time>2025-02-06T01:51:30.991Z</time>
      </trkpt>
      <trkpt lat="58.44751297496259" lon="12.337709935382009">
        <ele>81.9</ele>
        <time>2025-02-06T01:51:56.967Z</time>
      </trkpt>
      <trkpt lat="58.44746293500066" lon="12.337570963427424">
        <ele>81.98</ele>
        <time>2025-02-06T01:52:22.944Z</time>
      </trkpt>
      <trkpt lat="58.447409961372614" lon="12.337436936795712">
        <ele>82.06</ele>
        <time>2025-02-06T01:52:48.923Z</time>
      </trkpt>
      <trkpt lat="58.44735397025943" lon="12.337311962619424">
        <ele>82.14</ele>
        <time>2025-02-06T01:53:14.903Z</time>
      </trkpt>
      <trkpt lat="58.44729395583272" lon="12.33719595707953">
        <ele>82.22</ele>
        <time>2025-02-06T01:53:40.884Z</time>
      </trkpt>
      <trkpt lat="58.44723192974925" lon="12.33708892017603">
        <ele>82.3</ele>
        <time>2025-02-06T01:54:06.867Z</time>
      </trkpt>
      <trkpt lat="58.44716797582805" lon="12.336990935727954">
        <ele>82.38</ele>
        <time>2025-02-06T01:54:32.851Z</time>
      </trkpt>
      <trkpt lat="58.4471049439162" lon="12.336898986250162">
        <ele>82.46</ele>
        <time>2025-02-06T01:54:58.836Z</time>
      </trkpt>
      <trkpt lat="58.44704199582338" lon="12.33680795878172">
        <ele>82.54</ele>
        <time>2025-02-06T01:55:24.822Z</time>
      </trkpt>
      <trkpt lat="58.44697896391153" lon="12.336717937141657">
        <ele>82.63</ele>
        <time>2025-02-06T01:55:50.810Z</time>
      </trkpt>
      <trkpt lat="58.44691593199968" lon="12.336631938815117">
        <ele>82.7</ele>
        <time>2025-02-06T01:56:16.799Z</time>
      </trkpt>
      <trkpt lat="58.446851978078485" lon="12.33655096963048">
        <ele>82.78</ele>
        <time>2025-02-06T01:56:42.789Z</time>
      </trkpt>
      <trkpt lat="58.44678592868149" lon="12.336473939940333">
        <ele>82.86</ele>
        <time>2025-02-06T01:57:08.780Z</time>
      </trkpt>
      <trkpt lat="58.44671996310353" lon="12.336399927735329">
        <ele>82.93</ele>
        <time>2025-02-06T01:57:34.773Z</time>
      </trkpt>
      <trkpt lat="58.44665491953492" lon="12.336331950500607">
        <ele>83.0</ele>
        <time>2025-02-06T01:58:00.767Z</time>
      </trkpt>
      <trkpt lat="58.4465869423002" lon="12.336269924417138">
        <ele>83.07</ele>
        <time>2025-02-06T01:58:26.762Z</time>
      </trkpt>
      <trkpt lat="58.44651896506548" lon="12.336215944960713">
        <ele>83.14</ele>
        <time>2025-02-06T01:58:52.758Z</time>
      </trkpt>
      <trkpt lat="58.446447970345616" lon="12.336168922483921">
        <ele>83.2</ele>
        <time>2025-02-06T01:59:18.755Z</time>
      </trkpt>
      <trkpt lat="58.44637496396899" lon="12.336129946634173">
        <ele>83.27</ele>
        <time>2025-02-06T01:59:44.754Z</time>
      </trkpt>
      <trkpt lat="58.44630396924913" lon="12.336097927764058">
        <ele>83.32</ele>
        <time>2025-02-06T02:00:10.754Z</time>
      </trkpt>
      <trkpt lat="58.446232974529266" lon="12.336071943864226">
        <ele>83.38</ele>
        <time>2025-02-06T02:00:36.755Z</time>
      </trkpt>
      <trkpt lat="58.44616097398102" lon="12.336050989106297">
        <ele>83.44</ele>
        <time>2025-02-06T02:01:02.757Z</time>
      </trkpt>
      <trkpt lat="58.4460929967463" lon="12.336028944700956">
        <ele>83.49</ele>
        <time>2025-02-06T02:01:28.760Z</time>
      </trkpt>
      <trkpt lat="58.44602895900607" lon="12.336005978286266">
        <ele>83.55</ele>
        <time>2025-02-06T02:01:54.764Z</time>
      </trkpt>
      <trkpt lat="58.44596592709422" lon="12.335985945537686">
        <ele>83.6</ele>
        <time>2025-02-06T02:02:20.769Z</time>
      </trkpt>
      <trkpt lat="58.4459029790014" lon="12.335969936102629">
        <ele>83.65</ele>
        <time>2025-02-06T02:02:46.775Z</time>
      </trkpt>
      <trkpt lat="58.44583994708955" lon="12.335954932495952">
        <ele>83.7</ele>
        <time>2025-02-06T02:03:12.782Z</time>
      </trkpt>
      <trkpt lat="58.445776998996735" lon="12.335940934717655">
        <ele>83.75</ele>
        <time>2025-02-06T02:03:38.790Z</time>
      </trkpt>
      <trkpt lat="58.445713967084885" lon="12.335926936939359">
        <ele>83.8</ele>
        <time>2025-02-06T02:04:04.799Z</time>
      </trkpt>
      <trkpt lat="58.445650935173035" lon="12.335910927504301">
        <ele>83.84</ele>
        <time>2025-02-06T02:04:30.809Z</time>
      </trkpt>
      <trkpt lat="58.445584969595075" lon="12.33588494360447">
        <ele>83.89</ele>
        <time>2025-02-06T02:04:56.821Z</time>
      </trkpt>
      <trkpt lat="58.44551892019808" lon="12.335851918905973">
        <ele>83.93</ele>
        <time>2025-02-06T02:05:22.834Z</time>
      </trkpt>
      <trkpt lat="58.44545295462012" lon="12.335809925571084">
        <ele>83.97</ele>
        <time>2025-02-06T02:05:48.848Z</time>
      </trkpt>
      <trkpt lat="58.44538195990026" lon="12.33575795777142">
        <ele>84.01</ele>
        <time>2025-02-06T02:06:14.863Z</time>
      </trkpt>
      <trkpt lat="58.44531297683716" lon="12.33569199219346">
        <ele>84.05</ele>
        <time>2025-02-06T02:06:40.879Z</time>
      </trkpt>
      <trkpt lat="58.445241982117295" lon="12.335609933361411">
        <ele>84.08</ele>
        <time>2025-02-06T02:07:06.897Z</time>
      </trkpt>
      <trkpt lat="58.44517299905419" lon="12.335516978055239">
        <ele>84.11</ele>
        <time>2025-02-06T02:07:32.916Z</time>
      </trkpt>
      <trkpt lat="58.44510393217206" lon="12.33541295863688">
        <ele>84.14</ele>
        <time>2025-02-06T02:07:58.936Z</time>
      </trkpt>
      <trkpt lat="58.44503897242248" lon="12.33530499972403">
        <ele>84.16</ele>
        <time>2025-02-06T02:08:24.958Z</time>
      </trkpt>
      <trkpt lat="58.444964960217476" lon="12.335172984749079">
        <ele>84.19</ele>
        <time>2025-02-06T02:08:50.981Z</time>
      </trkpt>
      <trkpt lat="58.444899916648865" lon="12.335046920925379">
        <ele>84.22</ele>
        <time>2025-02-06T02:09:17.006Z</time>
      </trkpt>
      <trkpt lat="58.444834956899285" lon="12.334933932870626">
        <ele>84.25</ele>
        <time>2025-02-06T02:09:43.032Z</time>
      </trkpt>
      <trkpt lat="58.444767985492945" lon="12.334825973957777">
        <ele>84.27</ele>
        <time>2025-02-06T02:10:09.060Z</time>
      </trkpt>
      <trkpt lat="58.44469397328794" lon="12.334731929004192">
        <ele>84.3</ele>
        <time>2025-02-06T02:10:35.089Z</time>
      </trkpt>
      <trkpt lat="58.444617949426174" lon="12.334648948162794">
        <ele>84.32</ele>
        <time>2025-02-06T02:11:01.119Z</time>
      </trkpt>
      <trkpt lat="58.4445389918983" lon="12.334584994241595">
        <ele>84.34</ele>
        <time>2025-02-06T02:11:27.151Z</time>
      </trkpt>
      <trkpt lat="58.44446095637977" lon="12.334520956501365">
        <ele>84.36</ele>
        <time>2025-02-06T02:11:53.184Z</time>
      </trkpt>
      <trkpt lat="58.444383926689625" lon="12.334461947903037">
        <ele>84.37</ele>
        <time>2025-02-06T02:12:19.218Z</time>
      </trkpt>
      <trkpt lat="58.44430798664689" lon="12.334396988153458">
        <ele>84.37</ele>
        <time>2025-02-06T02:12:45.254Z</time>
      </trkpt>
      <trkpt lat="58.444230956956744" lon="12.334328927099705">
        <ele>84.37</ele>
        <time>2025-02-06T02:13:11.291Z</time>
      </trkpt>
      <trkpt lat="58.44414998777211" lon="12.334253992885351">
        <ele>84.36</ele>
        <time>2025-02-06T02:13:37.330Z</time>
      </trkpt>
      <trkpt lat="58.44407295808196" lon="12.334171934053302">
        <ele>84.35</ele>
        <time>2025-02-06T02:14:03.370Z</time>
      </trkpt>
      <trkpt lat="58.443996934220195" lon="12.334084929898381">
        <ele>84.35</ele>
        <time>2025-02-06T02:14:29.411Z</time>
      </trkpt>
      <trkpt lat="58.44392099417746" lon="12.333999937400222">
        <ele>84.34</ele>
        <time>2025-02-06T02:14:55.454Z</time>
      </trkpt>
      <trkpt lat="58.443846981972456" lon="12.333918968215585">
        <ele>84.33</ele>
        <time>2025-02-06T02:15:21.498Z</time>
      </trkpt>
      <trkpt lat="58.44377397559583" lon="12.333837999030948">
        <ele>84.31</ele>
        <time>2025-02-06T02:15:47.544Z</time>
      </trkpt>
      <trkpt lat="58.44369895756245" lon="12.333761975169182">
        <ele>84.3</ele>
        <time>2025-02-06T02:16:13.591Z</time>
      </trkpt>
      <trkpt lat="58.44362393952906" lon="12.333690980449319">
        <ele>84.28</ele>
        <time>2025-02-06T02:16:39.639Z</time>
      </trkpt>
      <trkpt lat="58.44354992732406" lon="12.333616968244314">
        <ele>84.25</ele>
        <time>2025-02-06T02:17:05.689Z</time>
      </trkpt>
      <trkpt lat="58.44347692094743" lon="12.33354396186769">
        <ele>84.22</ele>
        <time>2025-02-06T02:17:31.740Z</time>
      </trkpt>
      <trkpt lat="58.4434009809047" lon="12.333473972976208">
        <ele>84.18</ele>
        <time>2025-02-06T02:17:57.792Z</time>
      </trkpt>
      <trkpt lat="58.44332395121455" lon="12.333408929407597">
        <ele>84.14</ele>
        <time>2025-02-06T02:18:23.846Z</time>
      </trkpt>
      <trkpt lat="58.44324599951506" lon="12.333343969658017">
        <ele>84.1</ele>
        <time>2025-02-06T02:18:49.901Z</time>
      </trkpt>
      <trkpt lat="58.44316796399653" lon="12.333279931917787">
        <ele>84.06</ele>
        <time>2025-02-06T02:19:15.957Z</time>
      </trkpt>
      <trkpt lat="58.44308892264962" lon="12.333216983824968">
        <ele>84.01</ele>
        <time>2025-02-06T02:19:42.015Z</time>
      </trkpt>
      <trkpt lat="58.443007953464985" lon="12.33315596356988">
        <ele>83.96</ele>
        <time>2025-02-06T02:20:08.074Z</time>
      </trkpt>
      <trkpt lat="58.44292698428035" lon="12.33309293165803">
        <ele>83.9</ele>
        <time>2025-02-06T02:20:34.135Z</time>
      </trkpt>
      <trkpt lat="58.44284391961992" lon="12.333031995221972">
        <ele>83.85</ele>
        <time>2025-02-06T02:21:00.197Z</time>
      </trkpt>
      <trkpt lat="58.44275993295014" lon="12.332969969138503">
        <ele>83.79</ele>
        <time>2025-02-06T02:21:26.260Z</time>
      </trkpt>
      <trkpt lat="58.44267795793712" lon="12.332901991903782">
        <ele>83.73</ele>
        <time>2025-02-06T02:21:52.325Z</time>
      </trkpt>
      <trkpt lat="58.442596988752484" lon="12.332828985527158">
        <ele>83.66</ele>
        <time>2025-02-06T02:22:18.391Z</time>
      </trkpt>
      <trkpt lat="58.442515935748816" lon="12.332757990807295">
        <ele>83.6</ele>
        <time>2025-02-06T02:22:44.459Z</time>
      </trkpt>
      <trkpt lat="58.44243697822094" lon="12.332685990259051">
        <ele>83.53</ele>
        <time>2025-02-06T02:23:10.528Z</time>
      </trkpt>
      <trkpt lat="58.44235693104565" lon="12.332614995539188">
        <ele>83.46</ele>
        <time>2025-02-06T02:23:36.599Z</time>
      </trkpt>
      <trkpt lat="58.442278979346156" lon="12.332543917000294">
        <ele>83.38</ele>
        <time>2025-02-06T02:24:02.671Z</time>
      </trkpt>
      <trkpt lat="58.44220094382763" lon="12.33247292228043">
        <ele>83.31</ele>
        <time>2025-02-06T02:24:28.744Z</time>
      </trkpt>
      <trkpt lat="58.442125925794244" lon="12.33240595087409">
        <ele>83.23</ele>
        <time>2025-02-06T02:24:54.819Z</time>
      </trkpt>
      <trkpt lat="58.44204998575151" lon="12.332336967810988">
        <ele>83.14</ele>
        <time>2025-02-06T02:25:20.895Z</time>
      </trkpt>
      <trkpt lat="58.441973961889744" lon="12.332266978919506">
        <ele>83.06</ele>
        <time>2025-02-06T02:25:46.972Z</time>
      </trkpt>
      <trkpt lat="58.44189894385636" lon="12.332196990028024">
        <ele>82.97</ele>
        <time>2025-02-06T02:26:13.051Z</time>
      </trkpt>
      <trkpt lat="58.44181998632848" lon="12.33212691731751">
        <ele>82.88</ele>
        <time>2025-02-06T02:26:39.131Z</time>
      </trkpt>
      <trkpt lat="58.44173692166805" lon="12.332054916769266">
        <ele>82.79</ele>
        <time>2025-02-06T02:27:05.213Z</time>
      </trkpt>
      <trkpt lat="58.441653940826654" lon="12.331983922049403">
        <ele>82.69</ele>
        <time>2025-02-06T02:27:31.296Z</time>
      </trkpt>
      <trkpt lat="58.44157196581364" lon="12.33191099949181">
        <ele>82.59</ele>
        <time>2025-02-06T02:27:57.380Z</time>
      </trkpt>
      <trkpt lat="58.44148999080062" lon="12.331831958144903">
        <ele>82.49</ele>
        <time>2025-02-06T02:28:23.466Z</time>
      </trkpt>
      <trkpt lat="58.44140893779695" lon="12.331747971475124">
        <ele>82.39</ele>
        <time>2025-02-06T02:28:49.553Z</time>
      </trkpt>
      <trkpt lat="58.44132696278393" lon="12.331661973148584">
        <ele>82.29</ele>
        <time>2025-02-06T02:29:15.642Z</time>
      </trkpt>
      <trkpt lat="58.441243981942534" lon="12.331581925973296">
        <ele>82.18</ele>
        <time>2025-02-06T02:29:41.732Z</time>
      </trkpt>
      <trkpt lat="58.441159995272756" lon="12.331497939303517">
        <ele>82.07</ele>
        <time>2025-02-06T02:30:07.824Z</time>
      </trkpt>
      <trkpt lat="58.441075924783945" lon="12.331411940976977">
        <ele>81.95</ele>
        <time>2025-02-06T02:30:33.917Z</time>
      </trkpt>
      <trkpt lat="58.44099294394255" lon="12.331320997327566">
        <ele>81.83</ele>
        <time>2025-02-06T02:31:00.012Z</time>
      </trkpt>
      <trkpt lat="58.44090795144439" lon="12.331228964030743">
        <ele>81.71</ele>
        <time>2025-02-06T02:31:26.109Z</time>
      </trkpt>
      <trkpt lat="58.44082698225975" lon="12.331125950440764">
        <ele>81.58</ele>
        <time>2025-02-06T02:31:52.207Z</time>
      </trkpt>
      <trkpt lat="58.440750958397985" lon="12.331018997356296">
        <ele>81.44</ele>
        <time>2025-02-06T02:32:18.307Z</time>
      </trkpt>
      <trkpt lat="58.44067895784974" lon="12.330908942967653">
        <ele>81.31</ele>
        <time>2025-02-06T02:32:44.408Z</time>
      </trkpt>
      <trkpt lat="58.44060896895826" lon="12.330798972398043">
        <ele>81.18</ele>
        <time>2025-02-06T02:33:10.511Z</time>
      </trkpt>
      <trkpt lat="58.440538980066776" lon="12.330682966858149">
        <ele>81.04</ele>
        <time>2025-02-06T02:33:36.615Z</time>
      </trkpt>
      <trkpt lat="58.44046195037663" lon="12.33055698685348">
        <ele>80.9</ele>
        <time>2025-02-06T02:34:02.721Z</time>
      </trkpt>
      <trkpt lat="58.44039397314191" lon="12.330438969656825">
        <ele>80.76</ele>
        <time>2025-02-06T02:34:28.828Z</time>
      </trkpt>
      <trkpt lat="58.44033194705844" lon="12.330316929146647">
        <ele>80.62</ele>
        <time>2025-02-06T02:34:54.937Z</time>
      </trkpt>
      <trkpt lat="58.44027394428849" lon="12.330196984112263">
        <ele>80.48</ele>
        <time>2025-02-06T02:35:21.047Z</time>
      </trkpt>
      <trkpt lat="58.44021895900369" lon="12.33008299022913">
        <ele>80.34</ele>
        <time>2025-02-06T02:35:47.158Z</time>
      </trkpt>
      <trkpt lat="58.44016397371888" lon="12.329974947497249">
        <ele>80.21</ele>
        <time>2025-02-06T02:36:13.271Z</time>
      </trkpt>
      <trkpt lat="58.440108988434076" lon="12.32987092807889">
        <ele>80.06</ele>
        <time>2025-02-06T02:36:39.385Z</time>
      </trkpt>
      <trkpt lat="58.44005391933024" lon="12.329770931974053">
        <ele>79.91</ele>
        <time>2025-02-06T02:37:05.500Z</time>
      </trkpt>
      <trkpt lat="58.439999939873815" lon="12.329669930040836">
        <ele>79.76</ele>
        <time>2025-02-06T02:37:31.616Z</time>
      </trkpt>
      <trkpt lat="58.43995098955929" lon="12.32957093976438">
        <ele>79.62</ele>
        <time>2025-02-06T02:37:57.733Z</time>
      </trkpt>
      <trkpt lat="58.43990094959736" lon="12.329469937831163">
        <ele>79.47</ele>
        <time>2025-02-06T02:38:23.852Z</time>
      </trkpt>
      <trkpt lat="58.439848981797695" lon="12.329362984746695">
        <ele>79.31</ele>
        <time>2025-02-06T02:38:49.972Z</time>
      </trkpt>
      <trkpt lat="58.43979793600738" lon="12.329256953671575">
        <ele>79.15</ele>
        <time>2025-02-06T02:39:16.093Z</time>
      </trkpt>
      <trkpt lat="58.439743956550956" lon="12.329146983101964">
        <ele>78.98</ele>
        <time>2025-02-06T02:39:42.215Z</time>
      </trkpt>
      <trkpt lat="58.43968997709453" lon="12.329041957855225">
        <ele>78.82</ele>
        <time>2025-02-06T02:40:08.338Z</time>
      </trkpt>
      <trkpt lat="58.439632980152965" lon="12.32892494648695">
        <ele>78.66</ele>
        <time>2025-02-06T02:40:34.463Z</time>
      </trkpt>
      <trkpt lat="58.43957497738302" lon="12.328798966482282">
        <ele>78.49</ele>
        <time>2025-02-06T02:41:00.589Z</time>
      </trkpt>
      <trkpt lat="58.43951798044145" lon="12.328671980649233">
        <ele>78.32</ele>
        <time>2025-02-06T02:41:26.717Z</time>
      </trkpt>
      <trkpt lat="58.4394549485296" lon="12.328540971502662">
        <ele>78.16</ele>
        <time>2025-02-06T02:41:52.846Z</time>
      </trkpt>
      <trkpt lat="58.43938797712326" lon="12.328406944870949">
        <ele>77.99</ele>
        <time>2025-02-06T02:42:18.977Z</time>
      </trkpt>
      <trkpt lat="58.43931798823178" lon="12.328269984573126">
        <ele>77.82</ele>
        <time>2025-02-06T02:42:45.109Z</time>
      </trkpt>
      <trkpt lat="58.439245987683535" lon="12.328132940456271">
        <ele>77.65</ele>
        <time>2025-02-06T02:43:11.243Z</time>
      </trkpt>
      <trkpt lat="58.43917096965015" lon="12.327992962673306">
        <ele>77.49</ele>
        <time>2025-02-06T02:43:37.379Z</time>
      </trkpt>
      <trkpt lat="58.439097963273525" lon="12.327851979061961">
        <ele>77.32</ele>
        <time>2025-02-06T02:44:03.516Z</time>
      </trkpt>
      <trkpt lat="58.43902395106852" lon="12.327709989622235">
        <ele>77.16</ele>
        <time>2025-02-06T02:44:29.655Z</time>
      </trkpt>
      <trkpt lat="58.438950944691896" lon="12.327568922191858">
        <ele>76.99</ele>
        <time>2025-02-06T02:44:55.796Z</time>
      </trkpt>
      <trkpt lat="58.43887693248689" lon="12.327424921095371">
        <ele>76.82</ele>
        <time>2025-02-06T02:45:21.938Z</time>
      </trkpt>
      <trkpt lat="58.43880593776703" lon="12.327280919998884">
        <ele>76.65</ele>
        <time>2025-02-06T02:45:48.082Z</time>
      </trkpt>
      <trkpt lat="58.438734943047166" lon="12.32714094221592">
        <ele>76.47</ele>
        <time>2025-02-06T02:46:14.228Z</time>
      </trkpt>
      <trkpt lat="58.43866495415568" lon="12.327000964432955">
        <ele>76.29</ele>
        <time>2025-02-06T02:46:40.375Z</time>
      </trkpt>
      <trkpt lat="58.43859395943582" lon="12.326862998306751">
        <ele>76.11</ele>
        <time>2025-02-06T02:47:06.524Z</time>
      </trkpt>
      <trkpt lat="58.43852397054434" lon="12.326726960018277">
        <ele>75.92</ele>
        <time>2025-02-06T02:47:32.674Z</time>
      </trkpt>
      <trkpt lat="58.438452975824475" lon="12.326591927558184">
        <ele>75.74</ele>
        <time>2025-02-06T02:47:58.826Z</time>
      </trkpt>
      <trkpt lat="58.4383859205991" lon="12.326457984745502">
        <ele>75.55</ele>
        <time>2025-02-06T02:48:24.980Z</time>
      </trkpt>
      <trkpt lat="58.438321966677904" lon="12.32632496394217">
        <ele>75.37</ele>
        <time>2025-02-06T02:48:51.135Z</time>
      </trkpt>
      <trkpt lat="58.43825692310929" lon="12.326191943138838">
        <ele>75.18</ele>
        <time>2025-02-06T02:49:17.292Z</time>
      </trkpt>
      <trkpt lat="58.438192969188094" lon="12.326062945649028">
        <ele>75.0</ele>
        <time>2025-02-06T02:49:43.450Z</time>
      </trkpt>
      <trkpt lat="58.43812298029661" lon="12.325930930674076">
        <ele>74.81</ele>
        <time>2025-02-06T02:50:09.610Z</time>
      </trkpt>
      <trkpt lat="58.43805399723351" lon="12.325794976204634">
        <ele>74.63</ele>
        <time>2025-02-06T02:50:35.771Z</time>
      </trkpt>
      <trkpt lat="58.437983924522996" lon="12.325655920431018">
        <ele>74.45</ele>
        <time>2025-02-06T02:51:01.934Z</time>
      </trkpt>
      <trkpt lat="58.43791192397475" lon="12.325512925162911">
        <ele>74.27</ele>
        <time>2025-02-06T02:51:28.099Z</time>
      </trkpt>
      <trkpt lat="58.43783799558878" lon="12.325370935723186">
        <ele>74.1</ele>
        <time>2025-02-06T02:51:54.265Z</time>
      </trkpt>
      <trkpt lat="58.437765995040536" lon="12.325226934626698">
        <ele>73.92</ele>
        <time>2025-02-06T02:52:20.433Z</time>
      </trkpt>
      <trkpt lat="58.4376969281584" lon="12.32508192770183">
        <ele>73.75</ele>
        <time>2025-02-06T02:52:46.603Z</time>
      </trkpt>
      <trkpt lat="58.43762593343854" lon="12.324938932433724">
        <ele>73.57</ele>
        <time>2025-02-06T02:53:12.774Z</time>
      </trkpt>
      <trkpt lat="58.43755795620382" lon="12.32480096630752">
        <ele>73.39</ele>
        <time>2025-02-06T02:53:38.947Z</time>
      </trkpt>
      <trkpt lat="58.43749098479748" lon="12.324664928019047">
        <ele>73.22</ele>
        <time>2025-02-06T02:54:05.121Z</time>
      </trkpt>
      <trkpt lat="58.43742594122887" lon="12.324533918872476">
        <ele>73.04</ele>
        <time>2025-02-06T02:54:31.297Z</time>
      </trkpt>
      <trkpt lat="58.43736299313605" lon="12.324406933039427">
        <ele>72.87</ele>
        <time>2025-02-06T02:54:57.474Z</time>
      </trkpt>
      <trkpt lat="58.43730197288096" lon="12.32428296469152">
        <ele>72.7</ele>
        <time>2025-02-06T02:55:23.653Z</time>
      </trkpt>
      <trkpt lat="58.43724296428263" lon="12.324163941666484">
        <ele>72.52</ele>
        <time>2025-02-06T02:55:49.833Z</time>
      </trkpt>
      <trkpt lat="58.437183955684304" lon="12.324044918641448">
        <ele>72.35</ele>
        <time>2025-02-06T02:56:16.015Z</time>
      </trkpt>
      <trkpt lat="58.43712695874274" lon="12.323926985263824">
        <ele>72.18</ele>
        <time>2025-02-06T02:56:42.198Z</time>
      </trkpt>
      <trkpt lat="58.43707197345793" lon="12.32380997389555">
        <ele>72.02</ele>
        <time>2025-02-06T02:57:08.382Z</time>
      </trkpt>
      <trkpt lat="58.437014976516366" lon="12.323697991669178">
        <ele>71.85</ele>
        <time>2025-02-06T02:57:34.568Z</time>
      </trkpt>
      <trkpt lat="58.43695697374642" lon="12.323589948937297">
        <ele>71.68</ele>
        <time>2025-02-06T02:58:00.755Z</time>
      </trkpt>
      <trkpt lat="58.43690098263323" lon="12.323484923690557">
        <ele>71.52</ele>
        <time>2025-02-06T02:58:26.943Z</time>
      </trkpt>
      <trkpt lat="58.43684893101454" lon="12.323381993919611">
        <ele>71.35</ele>
        <time>2025-02-06T02:58:53.132Z</time>
      </trkpt>
      <trkpt lat="58.43679495155811" lon="12.323277974501252">
        <ele>71.19</ele>
        <time>2025-02-06T02:59:19.323Z</time>
      </trkpt>
      <trkpt lat="58.43673996627331" lon="12.323173955082893">
        <ele>71.03</ele>
        <time>2025-02-06T02:59:45.515Z</time>
      </trkpt>
      <trkpt lat="58.4366849809885" lon="12.323070941492915">
        <ele>70.87</ele>
        <time>2025-02-06T03:00:11.708Z</time>
      </trkpt>
      <trkpt lat="58.436630917713046" lon="12.322960970923305">
        <ele>70.7</ele>
        <time>2025-02-06T03:00:37.902Z</time>
      </trkpt>
      <trkpt lat="58.43657995574176" lon="12.322852928191423">
        <ele>70.54</ele>
        <time>2025-02-06T03:01:04.098Z</time>
      </trkpt>
      <trkpt lat="58.43652396462858" lon="12.322742957621813">
        <ele>70.38</ele>
        <time>2025-02-06T03:01:30.295Z</time>
      </trkpt>
      <trkpt lat="58.43646696768701" lon="12.32262996956706">
        <ele>70.22</ele>
        <time>2025-02-06T03:01:56.493Z</time>
      </trkpt>
      <trkpt lat="58.436409970745444" lon="12.322514969855547">
        <ele>70.07</ele>
        <time>2025-02-06T03:02:22.693Z</time>
      </trkpt>
      <trkpt lat="58.4363519679755" lon="12.322400975972414">
        <ele>69.92</ele>
        <time>2025-02-06T03:02:48.894Z</time>
      </trkpt>
      <trkpt lat="58.43629094772041" lon="12.322290921583772">
        <ele>69.76</ele>
        <time>2025-02-06T03:03:15.096Z</time>
      </trkpt>
      <trkpt lat="58.43621391803026" lon="12.322190925478935">
        <ele>69.61</ele>
        <time>2025-02-06T03:03:41.300Z</time>
      </trkpt>
      <trkpt lat="58.43612993136048" lon="12.322105932980776">
        <ele>69.46</ele>
        <time>2025-02-06T03:04:07.505Z</time>
      </trkpt>
      <trkpt lat="58.43602993525565" lon="12.322022952139378">
        <ele>69.31</ele>
        <time>2025-02-06T03:04:33.712Z</time>
      </trkpt>
      <trkpt lat="58.43593295663595" lon="12.321966961026192">
        <ele>69.16</ele>
        <time>2025-02-06T03:04:59.921Z</time>
      </trkpt>
      <trkpt lat="58.435829943045974" lon="12.321928991004825">
        <ele>69.01</ele>
        <time>2025-02-06T03:05:26.131Z</time>
      </trkpt>
      <trkpt lat="58.435725923627615" lon="12.321909964084625">
        <ele>68.87</ele>
        <time>2025-02-06T03:05:52.343Z</time>
      </trkpt>
      <trkpt lat="58.43562299385667" lon="12.321908958256245">
        <ele>68.73</ele>
        <time>2025-02-06T03:06:18.557Z</time>
      </trkpt>
      <trkpt lat="58.43552593141794" lon="12.321933936327696">
        <ele>68.6</ele>
        <time>2025-02-06T03:06:44.772Z</time>
      </trkpt>
      <trkpt lat="58.435425935313106" lon="12.321981964632869">
        <ele>68.46</ele>
        <time>2025-02-06T03:07:10.989Z</time>
      </trkpt>
      <trkpt lat="58.43533197417855" lon="12.322041979059577">
        <ele>68.33</ele>
        <time>2025-02-06T03:07:37.207Z</time>
      </trkpt>
      <trkpt lat="58.435247987508774" lon="12.322110962122679">
        <ele>68.2</ele>
        <time>2025-02-06T03:08:03.427Z</time>
      </trkpt>
      <trkpt lat="58.43517095781863" lon="12.322202995419502">
        <ele>68.08</ele>
        <time>2025-02-06T03:08:29.648Z</time>
      </trkpt>
      <trkpt lat="58.435099963098764" lon="12.32230693101883">
        <ele>67.96</ele>
        <time>2025-02-06T03:08:55.871Z</time>
      </trkpt>
      <trkpt lat="58.43502595089376" lon="12.322429977357388">
        <ele>67.85</ele>
        <time>2025-02-06T03:09:22.095Z</time>
      </trkpt>
      <trkpt lat="58.43495696783066" lon="12.322563920170069">
        <ele>67.73</ele>
        <time>2025-02-06T03:09:48.321Z</time>
      </trkpt>
      <trkpt lat="58.43489695340395" lon="12.322698952630162">
        <ele>67.61</ele>
        <time>2025-02-06T03:10:14.548Z</time>
      </trkpt>
      <trkpt lat="58.43483794480562" lon="12.322833985090256">
        <ele>67.5</ele>
        <time>2025-02-06T03:10:40.777Z</time>
      </trkpt>
      <trkpt lat="58.434774996712804" lon="12.322976980358362">
        <ele>67.38</ele>
        <time>2025-02-06T03:11:07.007Z</time>
      </trkpt>
      <trkpt lat="58.434713976457715" lon="12.323115952312946">
        <ele>67.27</ele>
        <time>2025-02-06T03:11:33.239Z</time>
      </trkpt>
      <trkpt lat="58.434651950374246" lon="12.32325492426753">
        <ele>67.17</ele>
        <time>2025-02-06T03:11:59.473Z</time>
      </trkpt>
      <trkpt lat="58.434585984796286" lon="12.323393980041146">
        <ele>67.06</ele>
        <time>2025-02-06T03:12:25.708Z</time>
      </trkpt>
      <trkpt lat="58.43450895510614" lon="12.32353194616735">
        <ele>66.96</ele>
        <time>2025-02-06T03:12:51.945Z</time>
      </trkpt>
      <trkpt lat="58.43442597426474" lon="12.32365993782878">
        <ele>66.86</ele>
        <time>2025-02-06T03:13:18.184Z</time>
      </trkpt>
      <trkpt lat="58.43433695845306" lon="12.323782984167337">
        <ele>66.77</ele>
        <time>2025-02-06T03:13:44.424Z</time>
      </trkpt>
      <trkpt lat="58.434242997318506" lon="12.323900917544961">
        <ele>66.69</ele>
        <time>2025-02-06T03:14:10.666Z</time>
      </trkpt>
      <trkpt lat="58.43414794653654" lon="12.324010971933603">
        <ele>66.61</ele>
        <time>2025-02-06T03:14:36.910Z</time>
      </trkpt>
      <trkpt lat="58.434048956260085" lon="12.324106944724917">
        <ele>66.53</ele>
        <time>2025-02-06T03:15:03.156Z</time>
      </trkpt>
      <trkpt lat="58.43394795432687" lon="12.324180956929922">
        <ele>66.46</ele>
        <time>2025-02-06T03:15:29.403Z</time>
      </trkpt>
      <trkpt lat="58.43384594656527" lon="12.324233930557966">
        <ele>66.39</ele>
        <time>2025-02-06T03:15:55.652Z</time>
      </trkpt>
      <trkpt lat="58.43374393880367" lon="12.324269972741604">
        <ele>66.32</ele>
        <time>2025-02-06T03:16:21.903Z</time>
      </trkpt>
      <trkpt lat="58.43364494852722" lon="12.324295956641436">
        <ele>66.26</ele>
        <time>2025-02-06T03:16:48.155Z</time>
      </trkpt>
      <trkpt lat="58.43354796990752" lon="12.324315989390016">
        <ele>66.21</ele>
        <time>2025-02-06T03:17:14.409Z</time>
      </trkpt>
      <trkpt lat="58.4334559366107" lon="12.32432696968317">
        <ele>66.16</ele>
        <time>2025-02-06T03:17:40.664Z</time>
      </trkpt>
      <trkpt lat="58.43336599878967" lon="12.32432696968317">
        <ele>66.11</ele>
        <time>2025-02-06T03:18:06.921Z</time>
      </trkpt>
      <trkpt lat="58.43328192830086" lon="12.324318923056126">
        <ele>66.06</ele>
        <time>2025-02-06T03:18:33.179Z</time>
      </trkpt>
      <trkpt lat="58.43320297077298" lon="12.324312971904874">
        <ele>66.02</ele>
        <time>2025-02-06T03:18:59.438Z</time>
      </trkpt>
      <trkpt lat="58.433127952739596" lon="12.32430199161172">
        <ele>65.99</ele>
        <time>2025-02-06T03:19:25.699Z</time>
      </trkpt>
      <trkpt lat="58.433058969676495" lon="12.324280953034759">
        <ele>65.95</ele>
        <time>2025-02-06T03:19:51.961Z</time>
      </trkpt>
      <trkpt lat="58.43298998661339" lon="12.32425999827683">
        <ele>65.92</ele>
        <time>2025-02-06T03:20:18.224Z</time>
      </trkpt>
      <trkpt lat="58.43291999772191" lon="12.324237953871489">
        <ele>65.89</ele>
        <time>2025-02-06T03:20:44.488Z</time>
      </trkpt>
      <trkpt lat="58.43285093083978" lon="12.324212975800037">
        <ele>65.86</ele>
        <time>2025-02-06T03:21:10.753Z</time>
      </trkpt>
      <trkpt lat="58.432780941948295" lon="12.324193948879838">
        <ele>65.84</ele>
        <time>2025-02-06T03:21:37.019Z</time>
      </trkpt>
      <trkpt lat="58.432714976370335" lon="12.324174921959639">
        <ele>65.82</ele>
        <time>2025-02-06T03:22:03.286Z</time>
      </trkpt>
      <trkpt lat="58.43264993280172" lon="12.324159918352962">
        <ele>65.8</ele>
        <time>2025-02-06T03:22:29.554Z</time>
      </trkpt>
      <trkpt lat="58.432588996365666" lon="12.324149943888187">
        <ele>65.78</ele>
        <time>2025-02-06T03:22:55.823Z</time>
      </trkpt>
      <trkpt lat="58.43252998776734" lon="12.324142986908555">
        <ele>65.76</ele>
        <time>2025-02-06T03:23:22.093Z</time>
      </trkpt>
      <trkpt lat="58.4324749186635" lon="12.324125971645117">
        <ele>65.75</ele>
        <time>2025-02-06T03:23:48.364Z</time>
      </trkpt>
      <trkpt lat="58.432419933378696" lon="12.32411197386682">
        <ele>65.74</ele>
        <time>2025-02-06T03:24:14.636Z</time>
      </trkpt>
      <trkpt lat="58.43236394226551" lon="12.324108956381679">
        <ele>65.73</ele>
        <time>2025-02-06T03:24:40.909Z</time>
      </trkpt>
      <trkpt lat="58.432308956980705" lon="12.32411197386682">
        <ele>65.72</ele>
        <time>2025-02-06T03:25:07.183Z</time>
      </trkpt>
      <trkpt lat="58.432246930897236" lon="12.324113985523582">
        <ele>65.72</ele>
        <time>2025-02-06T03:25:33.458Z</time>
      </trkpt>
      <trkpt lat="58.432181971147656" lon="12.324112979695201">
        <ele>65.72</ele>
        <time>2025-02-06T03:25:59.734Z</time>
      </trkpt>
      <trkpt lat="58.43210997059941" lon="12.324119936674833">
        <ele>65.73</ele>
        <time>2025-02-06T03:26:26.011Z</time>
      </trkpt>
      <trkpt lat="58.43203595839441" lon="12.324117925018072">
        <ele>65.73</ele>
        <time>2025-02-06T03:26:52.289Z</time>
      </trkpt>
      <trkpt lat="58.43195993453264" lon="12.324108956381679">
        <ele>65.74</ele>
        <time>2025-02-06T03:27:18.569Z</time>
      </trkpt>
      <trkpt lat="58.43188198283315" lon="12.324100993573666">
        <ele>65.75</ele>
        <time>2025-02-06T03:27:44.850Z</time>
      </trkpt>
      <trkpt lat="58.4317999240011" lon="12.324093952775002">
        <ele>65.76</ele>
        <time>2025-02-06T03:28:11.132Z</time>
      </trkpt>
      <trkpt lat="58.43171794898808" lon="12.324082972481847">
        <ele>65.77</ele>
        <time>2025-02-06T03:28:37.415Z</time>
      </trkpt>
      <trkpt lat="58.43163597397506" lon="12.324064951390028">
        <ele>65.79</ele>
        <time>2025-02-06T03:29:03.700Z</time>
      </trkpt>
      <trkpt lat="58.43154896982014" lon="12.324042990803719">
        <ele>65.81</ele>
        <time>2025-02-06T03:29:29.986Z</time>
      </trkpt>
      <trkpt lat="58.43146095983684" lon="12.324007954448462">
        <ele>65.82</ele>
        <time>2025-02-06T03:29:56.274Z</time>
      </trkpt>
      <trkpt lat="58.43137395568192" lon="12.323965961113572">
        <ele>65.84</ele>
        <time>2025-02-06T03:30:22.563Z</time>
      </trkpt>
      <trkpt lat="58.43129097484052" lon="12.323913993313909">
        <ele>65.86</ele>
        <time>2025-02-06T03:30:48.853Z</time>
      </trkpt>
      <trkpt lat="58.431210927665234" lon="12.323850961402059">
        <ele>65.88</ele>
        <time>2025-02-06T03:31:15.145Z</time>
      </trkpt>
      <trkpt lat="58.43113599345088" lon="12.323774937540293">
        <ele>65.9</ele>
        <time>2025-02-06T03:31:41.438Z</time>
      </trkpt>
      <trkpt lat="58.431060975417495" lon="12.323692962527275">
        <ele>65.93</ele>
        <time>2025-02-06T03:32:07.733Z</time>
      </trkpt>
      <trkpt lat="58.43098796904087" lon="12.323604952543974">
        <ele>65.96</ele>
        <time>2025-02-06T03:32:34.029Z</time>
      </trkpt>
      <trkpt lat="58.43091697432101" lon="12.32350797392428">
        <ele>66.0</ele>
        <time>2025-02-06T03:33:00.326Z</time>
      </trkpt>
      <trkpt lat="58.430849919095635" lon="12.323404960334301">
        <ele>66.03</ele>
        <time>2025-02-06T03:33:26.625Z</time>
      </trkpt>
      <trkpt lat="58.43078596517444" lon="12.323295995593071">
        <ele>66.07</ele>
        <time>2025-02-06T03:33:52.925Z</time>
      </trkpt>
      <trkpt lat="58.43072293326259" lon="12.323184935376048">
        <ele>66.11</ele>
        <time>2025-02-06T03:34:19.226Z</time>
      </trkpt>
      <trkpt lat="58.43066099099815" lon="12.323069935664535">
        <ele>66.15</ele>
        <time>2025-02-06T03:34:45.529Z</time>
      </trkpt>
      <trkpt lat="58.43059695325792" lon="12.322958959266543">
        <ele>66.2</ele>
        <time>2025-02-06T03:35:11.833Z</time>
      </trkpt>
      <trkpt lat="58.43053392134607" lon="12.322846977040172">
        <ele>66.24</ele>
        <time>2025-02-06T03:35:38.139Z</time>
      </trkpt>
      <trkpt lat="58.43047591857612" lon="12.322726948186755">
        <ele>66.29</ele>
        <time>2025-02-06T03:36:04.446Z</time>
      </trkpt>
      <trkpt lat="58.430418921634555" lon="12.322613960132003">
        <ele>66.34</ele>
        <time>2025-02-06T03:36:30.754Z</time>
      </trkpt>
      <trkpt lat="58.43036393634975" lon="12.322503989562392">
        <ele>66.38</ele>
        <time>2025-02-06T03:36:57.064Z</time>
      </trkpt>
      <trkpt lat="58.4303059335798" lon="12.322400975972414">
        <ele>66.43</ele>
        <time>2025-02-06T03:37:23.375Z</time>
      </trkpt>
      <trkpt lat="58.430247930809855" lon="12.322291927412152">
        <ele>66.49</ele>
        <time>2025-02-06T03:37:49.687Z</time>
      </trkpt>
      <trkpt lat="58.43018892221153" lon="12.322181956842542">
        <ele>66.55</ele>
        <time>2025-02-06T03:38:16.001Z</time>
      </trkpt>
      <trkpt lat="58.43012999743223" lon="12.322074919939041">
        <ele>66.6</ele>
        <time>2025-02-06T03:38:42.316Z</time>
      </trkpt>
      <trkpt lat="58.430070988833904" lon="12.321968972682953">
        <ele>66.65</ele>
        <time>2025-02-06T03:39:08.632Z</time>
      </trkpt>
      <trkpt lat="58.43001198023558" lon="12.321864953264594">
        <ele>66.71</ele>
        <time>2025-02-06T03:39:34.949Z</time>
      </trkpt>
      <trkpt lat="58.42995397746563" lon="12.321760933846235">
        <ele>66.76</ele>
        <time>2025-02-06T03:40:01.268Z</time>
      </trkpt>
      <trkpt lat="58.429897986352444" lon="12.321658926084638">
        <ele>66.82</ele>
        <time>2025-02-06T03:40:27.588Z</time>
      </trkpt>
      <trkpt lat="58.42984392307699" lon="12.321558929979801">
        <ele>66.88</ele>
        <time>2025-02-06T03:40:53.909Z</time>
      </trkpt>
      <trkpt lat="58.42979094944894" lon="12.321458933874965">
        <ele>66.94</ele>
        <time>2025-02-06T03:41:20.231Z</time>
      </trkpt>
      <trkpt lat="58.42973898164928" lon="12.321358937770128">
        <ele>67.0</ele>
        <time>2025-02-06T03:41:46.555Z</time>
      </trkpt>
      <trkpt lat="58.429688941687346" lon="12.321258941665292">
        <ele>67.07</ele>
        <time>2025-02-06T03:42:12.880Z</time>
      </trkpt>
      <trkpt lat="58.42964191921055" lon="12.321152994409204">
        <ele>67.14</ele>
        <time>2025-02-06T03:42:39.206Z</time>
      </trkpt>
      <trkpt lat="58.429600931704044" lon="12.32104193419218">
        <ele>67.2</ele>
        <time>2025-02-06T03:43:05.533Z</time>
      </trkpt>
      <trkpt lat="58.42956296168268" lon="12.320926934480667">
        <ele>67.27</ele>
        <time>2025-02-06T03:43:31.861Z</time>
      </trkpt>
      <trkpt lat="58.42953194864094" lon="12.320808917284012">
        <ele>67.33</ele>
        <time>2025-02-06T03:43:58.190Z</time>
      </trkpt>
      <trkpt lat="58.42950797639787" lon="12.320687966421247">
        <ele>67.4</ele>
        <time>2025-02-06T03:44:24.520Z</time>
      </trkpt>
      <trkpt lat="58.429490961134434" lon="12.320565925911069">
        <ele>67.46</ele>
        <time>2025-02-06T03:44:50.851Z</time>
      </trkpt>
      <trkpt lat="58.42947796918452" lon="12.320440951734781">
        <ele>67.52</ele>
        <time>2025-02-06T03:45:17.183Z</time>
      </trkpt>
      <trkpt lat="58.42946598306298" lon="12.320313965901732">
        <ele>67.59</ele>
        <time>2025-02-06T03:45:43.517Z</time>
      </trkpt>
      <trkpt lat="58.42945793643594" lon="12.320187985897064">
        <ele>67.65</ele>
        <time>2025-02-06T03:46:09.852Z</time>
      </trkpt>
      <trkpt lat="58.42945693060756" lon="12.320066951215267">
        <ele>67.71</ele>
        <time>2025-02-06T03:46:36.188Z</time>
      </trkpt>
      <trkpt lat="58.42945592477918" lon="12.31994298286736">
        <ele>67.77</ele>
        <time>2025-02-06T03:47:02.525Z</time>
      </trkpt>
      <trkpt lat="58.42945399694145" lon="12.319818930700421">
        <ele>67.83</ele>
        <time>2025-02-06T03:47:28.863Z</time>
      </trkpt>
      <trkpt lat="58.429454918950796" lon="12.319694962352514">
        <ele>67.89</ele>
        <time>2025-02-06T03:47:55.202Z</time>
      </trkpt>
      <trkpt lat="58.42945693060756" lon="12.319566970691085">
        <ele>67.96</ele>
        <time>2025-02-06T03:48:21.542Z</time>
      </trkpt>
      <trkpt lat="58.42945894226432" lon="12.31943093240261">
        <ele>68.02</ele>
        <time>2025-02-06T03:48:47.883Z</time>
      </trkpt>
      <trkpt lat="58.42946095392108" lon="12.319289948791265">
        <ele>68.08</ele>
        <time>2025-02-06T03:49:14.225Z</time>
      </trkpt>
      <trkpt lat="58.42946195974946" lon="12.319145947694778">
        <ele>68.14</ele>
        <time>2025-02-06T03:49:40.568Z</time>
      </trkpt>
      <trkpt lat="58.42946698889136" lon="12.31899993494153">
        <ele>68.19</ele>
        <time>2025-02-06T03:50:06.913Z</time>
      </trkpt>
      <trkpt lat="58.42946992255747" lon="12.31884897686541">
        <ele>68.25</ele>
        <time>2025-02-06T03:50:33.259Z</time>
      </trkpt>
      <trkpt lat="58.42947998084128" lon="12.318693995475769">
        <ele>68.3</ele>
        <time>2025-02-06T03:50:59.606Z</time>
      </trkpt>
      <trkpt lat="58.42948794364929" lon="12.318538930267096">
        <ele>68.36</ele>
        <time>2025-02-06T03:51:25.955Z</time>
      </trkpt>
      <trkpt lat="58.429491966962814" lon="12.318389983847737">
        <ele>68.41</ele>
        <time>2025-02-06T03:51:52.305Z</time>
      </trkpt>
      <trkpt lat="58.42949699610472" lon="12.318239947780967">
        <ele>68.47</ele>
        <time>2025-02-06T03:52:18.656Z</time>
      </trkpt>
      <trkpt lat="58.42949599027634" lon="12.318077925592661">
        <ele>68.53</ele>
        <time>2025-02-06T03:52:45.008Z</time>
      </trkpt>
      <trkpt lat="58.429497918114066" lon="12.317921938374639">
        <ele>68.58</ele>
        <time>2025-02-06T03:53:11.362Z</time>
      </trkpt>
      <trkpt lat="58.42949892394245" lon="12.317765951156616">
        <ele>68.64</ele>
        <time>2025-02-06T03:53:37.717Z</time>
      </trkpt>
      <trkpt lat="58.42950093559921" lon="12.317610969766974">
        <ele>68.7</ele>
        <time>2025-02-06T03:54:04.073Z</time>
      </trkpt>
      <trkpt lat="58.42950093559921" lon="12.317453976720572">
        <ele>68.75</ele>
        <time>2025-02-06T03:54:30.431Z</time>
      </trkpt>
      <trkpt lat="58.42950194142759" lon="12.317295977845788">
        <ele>68.81</ele>
        <time>2025-02-06T03:54:56.790Z</time>
      </trkpt>
      <trkpt lat="58.42950395308435" lon="12.317134961485863">
        <ele>68.86</ele>
        <time>2025-02-06T03:55:23.150Z</time>
      </trkpt>
      <trkpt lat="58.42950495891273" lon="12.316964976489544">
        <ele>68.92</ele>
        <time>2025-02-06T03:55:49.512Z</time>
      </trkpt>
      <trkpt lat="58.42950395308435" lon="12.316796919330955">
        <ele>68.97</ele>
        <time>2025-02-06T03:56:15.875Z</time>
      </trkpt>
      <trkpt lat="58.42950495891273" lon="12.316630957648158">
        <ele>69.03</ele>
        <time>2025-02-06T03:56:42.240Z</time>
      </trkpt>
      <trkpt lat="58.42950495891273" lon="12.316466923803091">
        <ele>69.08</ele>
        <time>2025-02-06T03:57:08.606Z</time>
      </trkpt>
      <trkpt lat="58.42950596474111" lon="12.316306997090578">
        <ele>69.13</ele>
        <time>2025-02-06T03:57:34.973Z</time>
      </trkpt>
      <trkpt lat="58.42950998805463" lon="12.316151931881905">
        <ele>69.19</ele>
        <time>2025-02-06T03:58:01.342Z</time>
      </trkpt>
      <trkpt lat="58.429515939205885" lon="12.315996950492263">
        <ele>69.25</ele>
        <time>2025-02-06T03:58:27.712Z</time>
      </trkpt>
      <trkpt lat="58.42952398583293" lon="12.315842974931002">
        <ele>69.3</ele>
        <time>2025-02-06T03:58:54.083Z</time>
      </trkpt>
      <trkpt lat="58.42953194864094" lon="12.31568799354136">
        <ele>69.36</ele>
        <time>2025-02-06T03:59:20.456Z</time>
      </trkpt>
      <trkpt lat="58.4295429289341" lon="12.315532928332686">
        <ele>69.41</ele>
        <time>2025-02-06T03:59:46.830Z</time>
      </trkpt>
      <trkpt lat="58.4295529872179" lon="12.315377946943045">
        <ele>69.46</ele>
        <time>2025-02-06T04:00:13.205Z</time>
      </trkpt>
      <trkpt lat="58.42956296168268" lon="12.315223971381783">
        <ele>69.51</ele>
        <time>2025-02-06T04:00:39.581Z</time>
      </trkpt>
      <trkpt lat="58.42957394197583" lon="12.315068989992142">
        <ele>69.56</ele>
        <time>2025-02-06T04:01:05.959Z</time>
      </trkpt>
      <trkpt lat="58.42958793975413" lon="12.31491593644023">
        <ele>69.6</ele>
        <time>2025-02-06T04:01:32.338Z</time>
      </trkpt>
      <trkpt lat="58.429602943360806" lon="12.31476497836411">
        <ele>69.65</ele>
        <time>2025-02-06T04:01:58.718Z</time>
      </trkpt>
      <trkpt lat="58.42961895279586" lon="12.31461594812572">
        <ele>69.69</ele>
        <time>2025-02-06T04:02:25.100Z</time>
      </trkpt>
      <trkpt lat="58.42963295057416" lon="12.31446297839284">
        <ele>69.74</ele>
        <time>2025-02-06T04:02:51.483Z</time>
      </trkpt>
      <trkpt lat="58.42964896000922" lon="12.314312942326069">
        <ele>69.78</ele>
        <time>2025-02-06T04:03:17.867Z</time>
      </trkpt>
      <trkpt lat="58.429665975272655" lon="12.31416692957282">
        <ele>69.82</ele>
        <time>2025-02-06T04:03:44.253Z</time>
      </trkpt>
      <trkpt lat="58.42968491837382" lon="12.314022928476334">
        <ele>69.86</ele>
        <time>2025-02-06T04:04:10.640Z</time>
      </trkpt>
      <trkpt lat="58.42970193363726" lon="12.313877921551466">
        <ele>69.9</ele>
        <time>2025-02-06T04:04:37.028Z</time>
      </trkpt>
      <trkpt lat="58.4297139197588" lon="12.31373199261725">
        <ele>69.94</ele>
        <time>2025-02-06T04:05:03.417Z</time>
      </trkpt>
      <trkpt lat="58.42972498387098" lon="12.313592936843634">
        <ele>69.99</ele>
        <time>2025-02-06T04:05:29.807Z</time>
      </trkpt>
      <trkpt lat="58.42973596416414" lon="12.313458994030952">
        <ele>70.03</ele>
        <time>2025-02-06T04:05:56.199Z</time>
      </trkpt>
      <trkpt lat="58.42974694445729" lon="12.313328990712762">
        <ele>70.08</ele>
        <time>2025-02-06T04:06:22.592Z</time>
      </trkpt>
      <trkpt lat="58.42975599691272" lon="12.31319798156619">
        <ele>70.11</ele>
        <time>2025-02-06T04:06:48.986Z</time>
      </trkpt>
      <trkpt lat="58.42976295389235" lon="12.31306898407638">
        <ele>70.16</ele>
        <time>2025-02-06T04:07:15.381Z</time>
      </trkpt>
      <trkpt lat="58.42976597137749" lon="12.312922971323133">
        <ele>70.19</ele>
        <time>2025-02-06T04:07:41.777Z</time>
      </trkpt>
      <trkpt lat="58.42976597137749" lon="12.312777964398265">
        <ele>70.23</ele>
        <time>2025-02-06T04:08:08.174Z</time>
      </trkpt>
      <trkpt lat="58.42976295389235" lon="12.312628934159875">
        <ele>70.26</ele>
        <time>2025-02-06T04:08:34.573Z</time>
      </trkpt>
      <trkpt lat="58.42975893057883" lon="12.312475964426994">
        <ele>70.29</ele>
        <time>2025-02-06T04:09:00.973Z</time>
      </trkpt>
      <trkpt lat="58.429751973599195" lon="12.31231695972383">
        <ele>70.32</ele>
        <time>2025-02-06T04:09:27.374Z</time>
      </trkpt>
      <trkpt lat="58.42974493280053" lon="12.312153931707144">
        <ele>70.34</ele>
        <time>2025-02-06T04:09:53.777Z</time>
      </trkpt>
      <trkpt lat="58.42973495833576" lon="12.311983946710825">
        <ele>70.36</ele>
        <time>2025-02-06T04:10:20.181Z</time>
      </trkpt>
      <trkpt lat="58.42972297221422" lon="12.311810944229364">
        <ele>70.37</ele>
        <time>2025-02-06T04:10:46.586Z</time>
      </trkpt>
      <trkpt lat="58.42971299774945" lon="12.311636935919523">
        <ele>70.4</ele>
        <time>2025-02-06T04:11:12.993Z</time>
      </trkpt>
      <trkpt lat="58.42970293946564" lon="12.311464939266443">
        <ele>70.42</ele>
        <time>2025-02-06T04:11:39.401Z</time>
      </trkpt>
      <trkpt lat="58.429686930030584" lon="12.311294954270124">
        <ele>70.44</ele>
        <time>2025-02-06T04:12:05.811Z</time>
      </trkpt>
      <trkpt lat="58.429664969444275" lon="12.31113494373858">
        <ele>70.46</ele>
        <time>2025-02-06T04:12:32.222Z</time>
      </trkpt>
      <trkpt lat="58.4296359680593" lon="12.310977950692177">
        <ele>70.49</ele>
        <time>2025-02-06T04:12:58.635Z</time>
      </trkpt>
      <trkpt lat="58.429600931704044" lon="12.310831937938929">
        <ele>70.51</ele>
        <time>2025-02-06T04:13:25.049Z</time>
      </trkpt>
      <trkpt lat="58.429557932540774" lon="12.310694977641106">
        <ele>70.53</ele>
        <time>2025-02-06T04:13:51.464Z</time>
      </trkpt>
      <trkpt lat="58.429511999711394" lon="12.310559945181012">
        <ele>70.56</ele>
        <time>2025-02-06T04:14:17.881Z</time>
      </trkpt>
      <trkpt lat="58.42946296557784" lon="12.310418961569667">
        <ele>70.59</ele>
        <time>2025-02-06T04:14:44.299Z</time>
      </trkpt>
      <trkpt lat="58.42941393144429" lon="12.310269931331277">
        <ele>70.63</ele>
        <time>2025-02-06T04:15:10.719Z</time>
      </trkpt>
      <trkpt lat="58.429365986958146" lon="12.310118973255157">
        <ele>70.65</ele>
        <time>2025-02-06T04:15:37.140Z</time>
      </trkpt>
      <trkpt lat="58.42931795865297" lon="12.309965919703245">
        <ele>70.67</ele>
        <time>2025-02-06T04:16:03.563Z</time>
      </trkpt>
      <trkpt lat="58.42926892451942" lon="12.309809932485223">
        <ele>70.7</ele>
        <time>2025-02-06T04:16:29.987Z</time>
      </trkpt>
      <trkpt lat="58.4292199742049" lon="12.30965193361044">
        <ele>70.72</ele>
        <time>2025-02-06T04:16:56.413Z</time>
      </trkpt>
      <trkpt lat="58.429170940071344" lon="12.309491923078895">
        <ele>70.74</ele>
        <time>2025-02-06T04:17:22.840Z</time>
      </trkpt>
      <trkpt lat="58.42911897227168" lon="12.309331996366382">
        <ele>70.76</ele>
        <time>2025-02-06T04:17:49.269Z</time>
      </trkpt>
      <trkpt lat="58.429062981158495" lon="12.309177936986089">
        <ele>70.79</ele>
        <time>2025-02-06T04:18:15.699Z</time>
      </trkpt>
      <trkpt lat="58.42900799587369" lon="12.30903192423284">
        <ele>70.82</ele>
        <time>2025-02-06T04:18:42.131Z</time>
      </trkpt>
      <trkpt lat="58.42894898727536" lon="12.308888928964734">
        <ele>70.84</ele>
        <time>2025-02-06T04:19:08.564Z</time>
      </trkpt>
      <trkpt lat="58.428888972848654" lon="12.308745933696628">
        <ele>70.86</ele>
        <time>2025-02-06T04:19:34.999Z</time>
      </trkpt>
      <trkpt lat="58.428827952593565" lon="12.308603944256902">
        <ele>70.88</ele>
        <time>2025-02-06T04:20:01.436Z</time>
      </trkpt>
      <trkpt lat="58.42876793816686" lon="12.308464972302318">
        <ele>70.91</ele>
        <time>2025-02-06T04:20:27.874Z</time>
      </trkpt>
      <trkpt lat="58.42870792374015" lon="12.308326922357082">
        <ele>70.94</ele>
        <time>2025-02-06T04:20:54.314Z</time>
      </trkpt>
      <trkpt lat="58.42864899896085" lon="12.30819096788764">
        <ele>70.97</ele>
        <time>2025-02-06T04:21:20.755Z</time>
      </trkpt>
      <trkpt lat="58.428592924028635" lon="12.308059958741069">
        <ele>70.99</ele>
        <time>2025-02-06T04:21:47.197Z</time>
      </trkpt>
      <trkpt lat="58.42853793874383" lon="12.307927943766117">
        <ele>71.02</ele>
        <time>2025-02-06T04:22:13.641Z</time>
      </trkpt>
      <trkpt lat="58.42848798260093" lon="12.307797940447927">
        <ele>71.06</ele>
        <time>2025-02-06T04:22:40.086Z</time>
      </trkpt>
      <trkpt lat="58.428442971780896" lon="12.307664919644594">
        <ele>71.09</ele>
        <time>2025-02-06T04:23:06.533Z</time>
      </trkpt>
      <trkpt lat="58.42840592376888" lon="12.307528965175152">
        <ele>71.12</ele>
        <time>2025-02-06T04:23:32.981Z</time>
      </trkpt>
      <trkpt lat="58.428375916555524" lon="12.307387981563807">
        <ele>71.16</ele>
        <time>2025-02-06T04:23:59.430Z</time>
      </trkpt>
      <trkpt lat="58.428355967625976" lon="12.307241968810558">
        <ele>71.19</ele>
        <time>2025-02-06T04:24:25.880Z</time>
      </trkpt>
      <trkpt lat="58.42834196984768" lon="12.307090926915407">
        <ele>71.23</ele>
        <time>2025-02-06T04:24:52.332Z</time>
      </trkpt>
      <trkpt lat="58.428329983726144" lon="12.306938963010907">
        <ele>71.26</ele>
        <time>2025-02-06T04:25:18.785Z</time>
      </trkpt>
      <trkpt lat="58.42832093127072" lon="12.306785993278027">
        <ele>71.29</ele>
        <time>2025-02-06T04:25:45.239Z</time>
      </trkpt>
      <trkpt lat="58.428312968462706" lon="12.306629922240973">
        <ele>71.31</ele>
        <time>2025-02-06T04:26:11.695Z</time>
      </trkpt>
      <trkpt lat="58.42830399982631" lon="12.306471923366189">
        <ele>71.34</ele>
        <time>2025-02-06T04:26:38.152Z</time>
      </trkpt>
      <trkpt lat="58.42829494737089" lon="12.306314930319786">
        <ele>71.37</ele>
        <time>2025-02-06T04:27:04.610Z</time>
      </trkpt>
      <trkpt lat="58.428286984562874" lon="12.306163972243667">
        <ele>71.41</ele>
        <time>2025-02-06T04:27:31.070Z</time>
      </trkpt>
      <trkpt lat="58.42827994376421" lon="12.306008990854025">
        <ele>71.44</ele>
        <time>2025-02-06T04:27:57.531Z</time>
      </trkpt>
      <trkpt lat="58.428270975127816" lon="12.30584898032248">
        <ele>71.46</ele>
        <time>2025-02-06T04:28:23.993Z</time>
      </trkpt>
      <trkpt lat="58.42826292850077" lon="12.305684946477413">
        <ele>71.49</ele>
        <time>2025-02-06T04:28:50.457Z</time>
      </trkpt>
      <trkpt lat="58.42825697734952" lon="12.305518984794617">
        <ele>71.52</ele>
        <time>2025-02-06T04:29:16.922Z</time>
      </trkpt>
      <trkpt lat="58.428249936550856" lon="12.305346988141537">
        <ele>71.55</ele>
        <time>2025-02-06T04:29:43.388Z</time>
      </trkpt>
      <trkpt lat="58.42824297957122" lon="12.305175997316837">
        <ele>71.57</ele>
        <time>2025-02-06T04:30:09.856Z</time>
      </trkpt>
      <trkpt lat="58.42823795042932" lon="12.305007940158248">
        <ele>71.6</ele>
        <time>2025-02-06T04:30:36.325Z</time>
      </trkpt>
      <trkpt lat="58.42823292128742" lon="12.304841978475451">
        <ele>71.63</ele>
        <time>2025-02-06T04:31:02.796Z</time>
      </trkpt>
      <trkpt lat="58.428226970136166" lon="12.304673921316862">
        <ele>71.67</ele>
        <time>2025-02-06T04:31:29.268Z</time>
      </trkpt>
      <trkpt lat="58.42822093516588" lon="12.304502930492163">
        <ele>71.7</ele>
        <time>2025-02-06T04:31:55.742Z</time>
      </trkpt>
      <trkpt lat="58.42821397818625" lon="12.304330933839083">
        <ele>71.73</ele>
        <time>2025-02-06T04:32:22.217Z</time>
      </trkpt>
      <trkpt lat="58.42820894904435" lon="12.304159943014383">
        <ele>71.77</ele>
        <time>2025-02-06T04:32:48.693Z</time>
      </trkpt>
      <trkpt lat="58.428203919902444" lon="12.303987946361303">
        <ele>71.8</ele>
        <time>2025-02-06T04:33:15.171Z</time>
      </trkpt>
      <trkpt lat="58.42819796875119" lon="12.303816955536604">
        <ele>71.85</ele>
        <time>2025-02-06T04:33:41.650Z</time>
      </trkpt>
      <trkpt lat="58.42819293960929" lon="12.303646970540285">
        <ele>71.89</ele>
        <time>2025-02-06T04:34:08.131Z</time>
      </trkpt>
      <trkpt lat="58.42818698845804" lon="12.303477991372347">
        <ele>71.92</ele>
        <time>2025-02-06T04:34:34.613Z</time>
      </trkpt>
      <trkpt lat="58.428181959316134" lon="12.303309934213758">
        <ele>71.96</ele>
        <time>2025-02-06T04:35:01.097Z</time>
      </trkpt>
      <trkpt lat="58.42817693017423" lon="12.303143972530961">
        <ele>71.99</ele>
        <time>2025-02-06T04:35:27.582Z</time>
      </trkpt>
      <trkpt lat="58.42817198485136" lon="12.302977927029133">
        <ele>72.03</ele>
        <time>2025-02-06T04:35:54.068Z</time>
      </trkpt>
      <trkpt lat="58.42816695570946" lon="12.302813977003098">
        <ele>72.08</ele>
        <time>2025-02-06T04:36:20.556Z</time>
      </trkpt>
      <trkpt lat="58.428159998729825" lon="12.302651954814792">
        <ele>72.12</ele>
        <time>2025-02-06T04:36:47.045Z</time>
      </trkpt>
      <trkpt lat="58.42815295793116" lon="12.302492950111628">
        <ele>72.16</ele>
        <time>2025-02-06T04:37:13.536Z</time>
      </trkpt>
      <trkpt lat="58.428141977638006" lon="12.302337968721986">
        <ele>72.2</ele>
        <time>2025-02-06T04:37:40.028Z</time>
      </trkpt>
      <trkpt lat="58.42812496237457" lon="12.302186926826835">
        <ele>72.24</ele>
        <time>2025-02-06T04:38:06.521Z</time>
      </trkpt>
      <trkpt lat="58.42810199595988" lon="12.302040997892618">
        <ele>72.28</ele>
        <time>2025-02-06T04:38:33.015Z</time>
      </trkpt>
      <trkpt lat="58.428071988746524" lon="12.301899930462241">
        <ele>72.32</ele>
        <time>2025-02-06T04:38:59.511Z</time>
      </trkpt>
      <trkpt lat="58.428035946562886" lon="12.30176892131567">
        <ele>72.35</ele>
        <time>2025-02-06T04:39:26.008Z</time>
      </trkpt>
      <trkpt lat="58.427993953228" lon="12.301641935482621">
        <ele>72.39</ele>
        <time>2025-02-06T04:39:52.506Z</time>
      </trkpt>
      <trkpt lat="58.42795095406473" lon="12.301518972963095">
        <ele>72.42</ele>
        <time>2025-02-06T04:40:19.005Z</time>
      </trkpt>
      <trkpt lat="58.427906949073076" lon="12.301395926624537">
        <ele>72.46</ele>
        <time>2025-02-06T04:40:45.506Z</time>
      </trkpt>
      <trkpt lat="58.427860932424664" lon="12.30127195827663">
        <ele>72.5</ele>
        <time>2025-02-06T04:41:12.008Z</time>
      </trkpt>
      <trkpt lat="58.427814999595284" lon="12.301150923594832">
        <ele>72.53</ele>
        <time>2025-02-06T04:41:38.511Z</time>
      </trkpt>
      <trkpt lat="58.42776596546173" lon="12.301032990217209">
        <ele>72.56</ele>
        <time>2025-02-06T04:42:05.015Z</time>
      </trkpt>
      <trkpt lat="58.427714919671416" lon="12.300918996334076">
        <ele>72.6</ele>
        <time>2025-02-06T04:42:31.521Z</time>
      </trkpt>
      <trkpt lat="58.42766194604337" lon="12.300806930288672">
        <ele>72.63</ele>
        <time>2025-02-06T04:42:58.028Z</time>
      </trkpt>
      <trkpt lat="58.42760897241533" lon="12.300696959719062">
        <ele>72.66</ele>
        <time>2025-02-06T04:43:24.536Z</time>
      </trkpt>
      <trkpt lat="58.4275549929589" lon="12.300590928643942">
        <ele>72.69</ele>
        <time>2025-02-06T04:43:51.046Z</time>
      </trkpt>
      <trkpt lat="58.427499923855066" lon="12.300487998872995">
        <ele>72.71</ele>
        <time>2025-02-06T04:44:17.557Z</time>
      </trkpt>
      <trkpt lat="58.42744393274188" lon="12.300386996939778">
        <ele>72.74</ele>
        <time>2025-02-06T04:44:44.069Z</time>
      </trkpt>
      <trkpt lat="58.42738592997193" lon="12.300285995006561">
        <ele>72.76</ele>
        <time>2025-02-06T04:45:10.582Z</time>
      </trkpt>
      <trkpt lat="58.427327927201986" lon="12.300187926739454">
        <ele>72.78</ele>
        <time>2025-02-06T04:45:37.096Z</time>
      </trkpt>
      <trkpt lat="58.42726891860366" lon="12.30009195394814">
        <ele>72.8</ele>
        <time>2025-02-06T04:46:03.612Z</time>
      </trkpt>
      <trkpt lat="58.42720999382436" lon="12.299998998641968">
        <ele>72.82</ele>
        <time>2025-02-06T04:46:30.129Z</time>
      </trkpt>
      <trkpt lat="58.427152996882796" lon="12.299906965345144">
        <ele>72.84</ele>
        <time>2025-02-06T04:46:56.647Z</time>
      </trkpt>
      <trkpt lat="58.42709599994123" lon="12.29981392621994">
        <ele>72.85</ele>
        <time>2025-02-06T04:47:23.166Z</time>
      </trkpt>
      <trkpt lat="58.42703397385776" lon="12.299722982570529">
        <ele>72.87</ele>
        <time>2025-02-06T04:47:49.687Z</time>
      </trkpt>
      <trkpt lat="58.42696691863239" lon="12.29963899590075">
        <ele>72.88</ele>
        <time>2025-02-06T04:48:16.209Z</time>
      </trkpt>
      <trkpt lat="58.426895923912525" lon="12.299557942897081">
        <ele>72.89</ele>
        <time>2025-02-06T04:48:42.732Z</time>
      </trkpt>
      <trkpt lat="58.42682492919266" lon="12.299476973712444">
        <ele>72.89</ele>
        <time>2025-02-06T04:49:09.257Z</time>
      </trkpt>
      <trkpt lat="58.42674697749317" lon="12.299396926537156">
        <ele>72.9</ele>
        <time>2025-02-06T04:49:35.783Z</time>
      </trkpt>
      <trkpt lat="58.4266709536314" lon="12.299324925988913">
        <ele>72.9</ele>
        <time>2025-02-06T04:50:02.310Z</time>
      </trkpt>
      <trkpt lat="58.426594929769635" lon="12.299246974289417">
        <ele>72.9</ele>
        <time>2025-02-06T04:50:28.839Z</time>
      </trkpt>
      <trkpt lat="58.4265189897269" lon="12.299160975962877">
        <ele>72.9</ele>
        <time>2025-02-06T04:50:55.369Z</time>
      </trkpt>
      <trkpt lat="58.42644598335028" lon="12.299071960151196">
        <ele>72.9</ele>
        <time>2025-02-06T04:51:21.901Z</time>
      </trkpt>
      <trkpt lat="58.42637398280203" lon="12.298975987359881">
        <ele>72.9</ele>
        <time>2025-02-06T04:51:48.434Z</time>
      </trkpt>
      <trkpt lat="58.42630592174828" lon="12.298876997083426">
        <ele>72.89</ele>
        <time>2025-02-06T04:52:14.968Z</time>
      </trkpt>
      <trkpt lat="58.42623995617032" lon="12.298774989321828">
        <ele>72.89</ele>
        <time>2025-02-06T04:52:41.504Z</time>
      </trkpt>
      <trkpt lat="58.42617692425847" lon="12.298663929104805">
        <ele>72.89</ele>
        <time>2025-02-06T04:53:08.041Z</time>
      </trkpt>
      <trkpt lat="58.42611498199403" lon="12.298545995727181">
        <ele>72.88</ele>
        <time>2025-02-06T04:53:34.579Z</time>
      </trkpt>
      <trkpt lat="58.426053961738944" lon="12.298430996015668">
        <ele>72.87</ele>
        <time>2025-02-06T04:54:01.119Z</time>
      </trkpt>
      <trkpt lat="58.425994953140616" lon="12.298317924141884">
        <ele>72.87</ele>
        <time>2025-02-06T04:54:27.660Z</time>
      </trkpt>
      <trkpt lat="58.42593393288553" lon="12.2981979791075">
        <ele>72.86</ele>
        <time>2025-02-06T04:54:54.203Z</time>
      </trkpt>
      <trkpt lat="58.4258749242872" lon="12.298077950254083">
        <ele>72.84</ele>
        <time>2025-02-06T04:55:20.747Z</time>
      </trkpt>
      <trkpt lat="58.42581499367952" lon="12.297957921400666">
        <ele>72.83</ele>
        <time>2025-02-06T04:55:47.292Z</time>
      </trkpt>
      <trkpt lat="58.425758918747306" lon="12.297842921689153">
        <ele>72.81</ele>
        <time>2025-02-06T04:56:13.839Z</time>
      </trkpt>
      <trkpt lat="58.42570695094764" lon="12.29772699996829">
        <ele>72.79</ele>
        <time>2025-02-06T04:56:40.387Z</time>
      </trkpt>
      <trkpt lat="58.42565598897636" lon="12.297603953629732">
        <ele>72.77</ele>
        <time>2025-02-06T04:57:06.936Z</time>
      </trkpt>
      <trkpt lat="58.425606954842806" lon="12.297477973625064">
        <ele>72.74</ele>
        <time>2025-02-06T04:57:33.487Z</time>
      </trkpt>
      <trkpt lat="58.42554995790124" lon="12.297352999448776">
        <ele>72.72</ele>
        <time>2025-02-06T04:58:00.039Z</time>
      </trkpt>
      <trkpt lat="58.42549396678805" lon="12.297227941453457">
        <ele>72.7</ele>
        <time>2025-02-06T04:58:26.592Z</time>
      </trkpt>
      <trkpt lat="58.42544099316001" lon="12.297096932306886">
        <ele>72.67</ele>
        <time>2025-02-06T04:58:53.147Z</time>
      </trkpt>
      <trkpt lat="58.425390953198075" lon="12.296958966180682">
        <ele>72.65</ele>
        <time>2025-02-06T04:59:19.703Z</time>
      </trkpt>
      <trkpt lat="58.425346948206425" lon="12.296809935942292">
        <ele>72.62</ele>
        <time>2025-02-06T04:59:46.261Z</time>
      </trkpt>
      <trkpt lat="58.4253069665283" lon="12.296656966209412">
        <ele>72.6</ele>
        <time>2025-02-06T05:00:12.820Z</time>
      </trkpt>
      <trkpt lat="58.42526991851628" lon="12.29650097899139">
        <ele>72.57</ele>
        <time>2025-02-06T05:00:39.381Z</time>
      </trkpt>
      <trkpt lat="58.425238989293575" lon="12.296343985944986">
        <ele>72.54</ele>
        <time>2025-02-06T05:01:05.943Z</time>
      </trkpt>
      <trkpt lat="58.425217950716615" lon="12.296186992898583">
        <ele>72.51</ele>
        <time>2025-02-06T05:01:32.506Z</time>
      </trkpt>
      <trkpt lat="58.42520194128156" lon="12.296026982367039">
        <ele>72.48</ele>
        <time>2025-02-06T05:01:59.071Z</time>
      </trkpt>
      <trkpt lat="58.42518894933164" lon="12.295869989320636">
        <ele>72.46</ele>
        <time>2025-02-06T05:02:25.637Z</time>
      </trkpt>
      <trkpt lat="58.425174951553345" lon="12.295715929940343">
        <ele>72.43</ele>
        <time>2025-02-06T05:02:52.204Z</time>
      </trkpt>
      <trkpt lat="58.425153996795416" lon="12.295572934672236">
        <ele>72.4</ele>
        <time>2025-02-06T05:03:18.773Z</time>
      </trkpt>
      <trkpt lat="58.42512692324817" lon="12.295437986031175">
        <ele>72.37</ele>
        <time>2025-02-06T05:03:45.343Z</time>
      </trkpt>
      <trkpt lat="58.42509297654033" lon="12.295305971056223">
        <ele>72.34</ele>
        <time>2025-02-06T05:04:11.914Z</time>
      </trkpt>
      <trkpt lat="58.4250529948622" lon="12.29517093859613">
        <ele>72.31</ele>
        <time>2025-02-06T05:04:38.486Z</time>
      </trkpt>
      <trkpt lat="58.42500798404217" lon="12.295035989955068">
        <ele>72.27</ele>
        <time>2025-02-06T05:05:05.060Z</time>
      </trkpt>
      <trkpt lat="58.424958949908614" lon="12.294898945838213">
        <ele>72.24</ele>
        <time>2025-02-06T05:05:31.635Z</time>
      </trkpt>
      <trkpt lat="58.42490698210895" lon="12.294757962226868">
        <ele>72.21</ele>
        <time>2025-02-06T05:05:58.211Z</time>
      </trkpt>
      <trkpt lat="58.424851996824145" lon="12.294619996100664">
        <ele>72.17</ele>
        <time>2025-02-06T05:06:24.789Z</time>
      </trkpt>
      <trkpt lat="58.42473498545587" lon="12.294360995292664">
        <ele>72.13</ele>
        <time>2025-02-06T05:06:51.370Z</time>
      </trkpt>
      <trkpt lat="58.4246729593724" lon="12.294239960610867">
        <ele>72.09</ele>
        <time>2025-02-06T05:07:17.952Z</time>
      </trkpt>
      <trkpt lat="58.42464194633067" lon="12.2941829636693">
        <ele>72.05</ele>
        <time>2025-02-06T05:07:44.535Z</time>
      </trkpt>
      <trkpt lat="58.42460992746055" lon="12.294126972556114">
        <ele>72.01</ele>
        <time>2025-02-06T05:08:11.119Z</time>
      </trkpt>
      <trkpt lat="58.42454697936773" lon="12.294020941480994">
        <ele>71.96</ele>
        <time>2025-02-06T05:08:37.704Z</time>
      </trkpt>
      <trkpt lat="58.424485959112644" lon="12.293914994224906">
        <ele>71.92</ele>
        <time>2025-02-06T05:09:04.290Z</time>
      </trkpt>
      <trkpt lat="58.424425944685936" lon="12.293810974806547">
        <ele>71.88</ele>
        <time>2025-02-06T05:09:30.878Z</time>
      </trkpt>
      <trkpt lat="58.42436593025923" lon="12.29370997287333">
        <ele>71.84</ele>
        <time>2025-02-06T05:09:57.467Z</time>
      </trkpt>
      <trkpt lat="58.42430599965155" lon="12.293610982596874">
        <ele>71.79</ele>
        <time>2025-02-06T05:10:24.057Z</time>
      </trkpt>
      <trkpt lat="58.42424598522484" lon="12.293515931814909">
        <ele>71.75</ele>
        <time>2025-02-06T05:10:50.648Z</time>
      </trkpt>
      <trkpt lat="58.424184964969754" lon="12.293420964851975">
        <ele>71.71</ele>
        <time>2025-02-06T05:11:17.241Z</time>
      </trkpt>
      <trkpt lat="58.424124950543046" lon="12.29332197457552">
        <ele>71.67</ele>
        <time>2025-02-06T05:11:43.835Z</time>
      </trkpt>
      <trkpt lat="58.42406493611634" lon="12.293218960985541">
        <ele>71.62</ele>
        <time>2025-02-06T05:12:10.430Z</time>
      </trkpt>
      <trkpt lat="58.42400492168963" lon="12.293116953223944">
        <ele>71.58</ele>
        <time>2025-02-06T05:12:37.027Z</time>
      </trkpt>
      <trkpt lat="58.42394398525357" lon="12.293010922148824">
        <ele>71.53</ele>
        <time>2025-02-06T05:13:03.625Z</time>
      </trkpt>
      <trkpt lat="58.423884976655245" lon="12.292899945750833">
        <ele>71.49</ele>
        <time>2025-02-06T05:13:30.224Z</time>
      </trkpt>
      <trkpt lat="58.42382898554206" lon="12.29278796352446">
        <ele>71.44</ele>
        <time>2025-02-06T05:13:56.824Z</time>
      </trkpt>
      <trkpt lat="58.423776933923364" lon="12.292672963812947">
        <ele>71.39</ele>
        <time>2025-02-06T05:14:23.426Z</time>
      </trkpt>
      <trkpt lat="58.42372898943722" lon="12.29254899546504">
        <ele>71.35</ele>
        <time>2025-02-06T05:14:50.029Z</time>
      </trkpt>
      <trkpt lat="58.42368297278881" lon="12.292416980490088">
        <ele>71.31</ele>
        <time>2025-02-06T05:15:16.633Z</time>
      </trkpt>
      <trkpt lat="58.42363595031202" lon="12.292277924716473">
        <ele>71.26</ele>
        <time>2025-02-06T05:15:43.239Z</time>
      </trkpt>
      <trkpt lat="58.42358993366361" lon="12.292131995782256">
        <ele>71.21</ele>
        <time>2025-02-06T05:16:09.846Z</time>
      </trkpt>
      <trkpt lat="58.423545928671956" lon="12.291979948058724">
        <ele>71.17</ele>
        <time>2025-02-06T05:16:36.455Z</time>
      </trkpt>
      <trkpt lat="58.42350695282221" lon="12.291823960840702">
        <ele>71.12</ele>
        <time>2025-02-06T05:17:03.065Z</time>
      </trkpt>
      <trkpt lat="58.423475939780474" lon="12.2916669677943">
        <ele>71.08</ele>
        <time>2025-02-06T05:17:29.677Z</time>
      </trkpt>
      <trkpt lat="58.42345096170902" lon="12.291508968919516">
        <ele>71.03</ele>
        <time>2025-02-06T05:17:56.290Z</time>
      </trkpt>
      <trkpt lat="58.42343092896044" lon="12.291353987529874">
        <ele>70.98</ele>
        <time>2025-02-06T05:18:22.904Z</time>
      </trkpt>
      <trkpt lat="58.423416931182146" lon="12.291207974776626">
        <ele>70.94</ele>
        <time>2025-02-06T05:18:49.520Z</time>
      </trkpt>
      <trkpt lat="58.42340796254575" lon="12.291071936488152">
        <ele>70.9</ele>
        <time>2025-02-06T05:19:16.137Z</time>
      </trkpt>
      <trkpt lat="58.42340092174709" lon="12.29094092734158">
        <ele>70.86</ele>
        <time>2025-02-06T05:19:42.755Z</time>
      </trkpt>
      <trkpt lat="58.42339597642422" lon="12.290819976478815">
        <ele>70.82</ele>
        <time>2025-02-06T05:20:09.374Z</time>
      </trkpt>
      <trkpt lat="58.42339497059584" lon="12.290712939575315">
        <ele>70.78</ele>
        <time>2025-02-06T05:20:35.994Z</time>
      </trkpt>
      <trkpt lat="58.423393964767456" lon="12.290609925985336">
        <ele>70.74</ele>
        <time>2025-02-06T05:21:02.615Z</time>
      </trkpt>
      <trkpt lat="58.423393964767456" lon="12.290513953194022">
        <ele>70.7</ele>
        <time>2025-02-06T05:21:29.236Z</time>
      </trkpt>
      <trkpt lat="58.42339497059584" lon="12.29042393155396">
        <ele>70.66</ele>
        <time>2025-02-06T05:21:55.858Z</time>
      </trkpt>
      <trkpt lat="58.42339798808098" lon="12.290339944884181">
        <ele>70.62</ele>
        <time>2025-02-06T05:22:22.481Z</time>
      </trkpt>
      <trkpt lat="58.42340293340385" lon="12.290263921022415">
        <ele>70.58</ele>
        <time>2025-02-06T05:22:49.105Z</time>
      </trkpt>
      <trkpt lat="58.42340595088899" lon="12.290197955444455">
        <ele>70.54</ele>
        <time>2025-02-06T05:23:15.729Z</time>
      </trkpt>
      <trkpt lat="58.42340695671737" lon="12.290135929360986">
        <ele>70.51</ele>
        <time>2025-02-06T05:23:42.354Z</time>
      </trkpt>
      <trkpt lat="58.42340293340385" lon="12.290067952126265">
        <ele>70.47</ele>
        <time>2025-02-06T05:24:08.979Z</time>
      </trkpt>
      <trkpt lat="58.42338591814041" lon="12.289996957406402">
        <ele>70.44</ele>
        <time>2025-02-06T05:24:35.605Z</time>
      </trkpt>
      <trkpt lat="58.42335691675544" lon="12.289925962686539">
        <ele>70.4</ele>
        <time>2025-02-06T05:25:02.232Z</time>
      </trkpt>
      <trkpt lat="58.42331894673407" lon="12.28986494243145">
        <ele>70.37</ele>
        <time>2025-02-06T05:25:28.859Z</time>
      </trkpt>
      <trkpt lat="58.4232709184289" lon="12.289819931611419">
        <ele>70.33</ele>
        <time>2025-02-06T05:25:55.487Z</time>
      </trkpt>
      <trkpt lat="58.42321593314409" lon="12.28979797102511">
        <ele>70.3</ele>
        <time>2025-02-06T05:26:22.116Z</time>
      </trkpt>
      <trkpt lat="58.423157930374146" lon="12.289794953539968">
        <ele>70.26</ele>
        <time>2025-02-06T05:26:48.746Z</time>
      </trkpt>
      <trkpt lat="58.42310596257448" lon="12.28979897685349">
        <ele>70.22</ele>
        <time>2025-02-06T05:27:15.377Z</time>
      </trkpt>
      <trkpt lat="58.42306296341121" lon="12.28979897685349">
        <ele>70.19</ele>
        <time>2025-02-06T05:27:42.009Z</time>
      </trkpt>
      <trkpt lat="58.4230309445411" lon="12.289796965196729">
        <ele>70.15</ele>
        <time>2025-02-06T05:28:08.641Z</time>
      </trkpt>
      <trkpt lat="58.423005966469646" lon="12.289793947711587">
        <ele>70.12</ele>
        <time>2025-02-06T05:28:35.274Z</time>
      </trkpt>
      <trkpt lat="58.42299297451973" lon="12.289790930226445">
        <ele>70.08</ele>
        <time>2025-02-06T05:29:01.907Z</time>
      </trkpt>
      <trkpt lat="58.42299096286297" lon="12.289789924398065">
        <ele>70.04</ele>
        <time>2025-02-06T05:29:28.540Z</time>
      </trkpt>
      <trkpt lat="58.42298794537783" lon="12.289788918569684">
        <ele>70.01</ele>
        <time>2025-02-06T05:29:55.173Z</time>
      </trkpt>
      <trkpt lat="58.422985933721066" lon="12.289781961590052">
        <ele>69.98</ele>
        <time>2025-02-06T05:30:21.806Z</time>
      </trkpt>
      <trkpt lat="58.422983922064304" lon="12.289776932448149">
        <ele>69.94</ele>
        <time>2025-02-06T05:30:48.439Z</time>
      </trkpt>
      <trkpt lat="58.42297897674143" lon="12.289772992953658">
        <ele>69.91</ele>
        <time>2025-02-06T05:31:15.072Z</time>
      </trkpt>
      <trkpt lat="58.42297495342791" lon="12.289769975468516">
        <ele>69.88</ele>
        <time>2025-02-06T05:31:41.705Z</time>
      </trkpt>
      <trkpt lat="58.42297495342791" lon="12.289771987125278">
        <ele>69.84</ele>
        <time>2025-02-06T05:32:08.338Z</time>
      </trkpt>
      <trkpt lat="58.4229289367795" lon="12.289780955761671">
        <ele>69.81</ele>
        <time>2025-02-06T05:32:34.972Z</time>
      </trkpt>
      <trkpt lat="58.42290295287967" lon="12.289791936054826">
        <ele>69.78</ele>
        <time>2025-02-06T05:33:01.606Z</time>
      </trkpt>
      <trkpt lat="58.42286892235279" lon="12.289805933833122">
        <ele>69.75</ele>
        <time>2025-02-06T05:33:28.241Z</time>
      </trkpt>
      <trkpt lat="58.422830952331424" lon="12.28982294909656">
        <ele>69.72</ele>
        <time>2025-02-06T05:33:54.876Z</time>
      </trkpt>
      <trkpt lat="58.42278392985463" lon="12.28984197601676">
        <ele>69.69</ele>
        <time>2025-02-06T05:34:21.512Z</time>
      </trkpt>
      <trkpt lat="58.42272995039821" lon="12.289856979623437">
        <ele>69.66</ele>
        <time>2025-02-06T05:34:48.149Z</time>
      </trkpt>
      <trkpt lat="58.42267295345664" lon="12.289867959916592">
        <ele>69.63</ele>
        <time>2025-02-06T05:35:14.787Z</time>
      </trkpt>
      <trkpt lat="58.42260992154479" lon="12.289878940209746">
        <ele>69.6</ele>
        <time>2025-02-06T05:35:41.426Z</time>
      </trkpt>
      <trkpt lat="58.42254194431007" lon="12.289891932159662">
        <ele>69.57</ele>
        <time>2025-02-06T05:36:08.066Z</time>
      </trkpt>
      <trkpt lat="58.422469943761826" lon="12.289901990443468">
        <ele>69.54</ele>
        <time>2025-02-06T05:36:34.707Z</time>
      </trkpt>
      <trkpt lat="58.42239391990006" lon="12.289914982393384">
        <ele>69.51</ele>
        <time>2025-02-06T05:37:01.349Z</time>
      </trkpt>
      <trkpt lat="58.42231295071542" lon="12.289925962686539">
        <ele>69.49</ele>
        <time>2025-02-06T05:37:27.993Z</time>
      </trkpt>
      <trkpt lat="58.422229969874024" lon="12.289935937151313">
        <ele>69.46</ele>
        <time>2025-02-06T05:37:54.638Z</time>
      </trkpt>
      <trkpt lat="58.42213994823396" lon="12.289948929101229">
        <ele>69.43</ele>
        <time>2025-02-06T05:38:21.285Z</time>
      </trkpt>
      <trkpt lat="58.42205093242228" lon="12.289963932707906">
        <ele>69.4</ele>
        <time>2025-02-06T05:38:47.933Z</time>
      </trkpt>
      <trkpt lat="58.42196099460125" lon="12.289978936314583">
        <ele>69.38</ele>
        <time>2025-02-06T05:39:14.582Z</time>
      </trkpt>
      <trkpt lat="58.421865943819284" lon="12.289991928264499">
        <ele>69.36</ele>
        <time>2025-02-06T05:39:41.233Z</time>
      </trkpt>
      <trkpt lat="58.42177198268473" lon="12.290008943527937">
        <ele>69.34</ele>
        <time>2025-02-06T05:40:07.886Z</time>
      </trkpt>
      <trkpt lat="58.42167894355953" lon="12.290024952962995">
        <ele>69.32</ele>
        <time>2025-02-06T05:40:34.540Z</time>
      </trkpt>
      <trkpt lat="58.421584982424974" lon="12.290043979883194">
        <ele>69.31</ele>
        <time>2025-02-06T05:41:01.196Z</time>
      </trkpt>
      <trkpt lat="58.42149093747139" lon="12.290064934641123">
        <ele>69.3</ele>
        <time>2025-02-06T05:41:27.853Z</time>
      </trkpt>
      <trkpt lat="58.42139697633684" lon="12.290088990703225">
        <ele>69.29</ele>
        <time>2025-02-06T05:41:54.512Z</time>
      </trkpt>
      <trkpt lat="58.42130192555487" lon="12.290110951289535">
        <ele>69.27</ele>
        <time>2025-02-06T05:42:21.172Z</time>
      </trkpt>
      <trkpt lat="58.42120494693518" lon="12.290134923532605">
        <ele>69.26</ele>
        <time>2025-02-06T05:42:47.834Z</time>
      </trkpt>
      <trkpt lat="58.42110897414386" lon="12.290162919089198">
        <ele>69.25</ele>
        <time>2025-02-06T05:43:14.497Z</time>
      </trkpt>
      <trkpt lat="58.42101291753352" lon="12.290191920474172">
        <ele>69.23</ele>
        <time>2025-02-06T05:43:41.162Z</time>
      </trkpt>
      <trkpt lat="58.4209169447422" lon="12.290216982364655">
        <ele>69.22</ele>
        <time>2025-02-06T05:44:07.828Z</time>
      </trkpt>
      <trkpt lat="58.42082197777927" lon="12.290244977921247">
        <ele>69.21</ele>
        <time>2025-02-06T05:44:34.496Z</time>
      </trkpt>
      <trkpt lat="58.420726926997304" lon="12.290274985134602">
        <ele>69.2</ele>
        <time>2025-02-06T05:45:01.165Z</time>
      </trkpt>
      <trkpt lat="58.42063196003437" lon="12.290304992347956">
        <ele>69.19</ele>
        <time>2025-02-06T05:45:27.836Z</time>
      </trkpt>
      <trkpt lat="58.420535987243056" lon="12.29033692739904">
        <ele>69.18</ele>
        <time>2025-02-06T05:45:54.509Z</time>
      </trkpt>
      <trkpt lat="58.42043892480433" lon="12.290368946269155">
        <ele>69.18</ele>
        <time>2025-02-06T05:46:21.183Z</time>
      </trkpt>
      <trkpt lat="58.420343957841396" lon="12.29040096513927">
        <ele>69.17</ele>
        <time>2025-02-06T05:46:47.859Z</time>
      </trkpt>
      <trkpt lat="58.42025091871619" lon="12.290432984009385">
        <ele>69.17</ele>
        <time>2025-02-06T05:47:14.536Z</time>
      </trkpt>
      <trkpt lat="58.42015997506678" lon="12.29046399705112">
        <ele>69.16</ele>
        <time>2025-02-06T05:47:41.215Z</time>
      </trkpt>
      <trkpt lat="58.42006995342672" lon="12.290493920445442">
        <ele>69.16</ele>
        <time>2025-02-06T05:48:07.895Z</time>
      </trkpt>
      <trkpt lat="58.41998093761504" lon="12.290524933487177">
        <ele>69.16</ele>
        <time>2025-02-06T05:48:34.577Z</time>
      </trkpt>
      <trkpt lat="58.419893933460116" lon="12.290556952357292">
        <ele>69.16</ele>
        <time>2025-02-06T05:49:01.260Z</time>
      </trkpt>
      <trkpt lat="58.419805923476815" lon="12.290589977055788">
        <ele>69.16</ele>
        <time>2025-02-06T05:49:27.944Z</time>
      </trkpt>
      <trkpt lat="58.419717997312546" lon="12.290622917935252">
        <ele>69.16</ele>
        <time>2025-02-06T05:49:54.630Z</time>
      </trkpt>
      <trkpt lat="58.419628981500864" lon="12.29065795429051">
        <ele>69.16</ele>
        <time>2025-02-06T05:50:21.317Z</time>
      </trkpt>
      <trkpt lat="58.41953996568918" lon="12.290689973160625">
        <ele>69.17</ele>
        <time>2025-02-06T05:50:48.006Z</time>
      </trkpt>
      <trkpt lat="58.41944893822074" lon="12.29072199203074">
        <ele>69.17</ele>
        <time>2025-02-06T05:51:14.696Z</time>
      </trkpt>
      <trkpt lat="58.41935698874295" lon="12.290754932910204">
        <ele>69.18</ele>
        <time>2025-02-06T05:51:41.388Z</time>
      </trkpt>
      <trkpt lat="58.419264955446124" lon="12.29078695178032">
        <ele>69.19</ele>
        <time>2025-02-06T05:52:08.081Z</time>
      </trkpt>
      <trkpt lat="58.41917099431157" lon="12.290818970650434">
        <ele>69.2</ele>
        <time>2025-02-06T05:52:34.776Z</time>
      </trkpt>
      <trkpt lat="58.41907795518637" lon="12.29085199534893">
        <ele>69.21</ele>
        <time>2025-02-06T05:53:01.472Z</time>
      </trkpt>
      <trkpt lat="58.418984999880195" lon="12.290887953713536">
        <ele>69.22</ele>
        <time>2025-02-06T05:53:28.170Z</time>
      </trkpt>
      <trkpt lat="58.41889497824013" lon="12.290920978412032">
        <ele>69.24</ele>
        <time>2025-02-06T05:53:54.869Z</time>
      </trkpt>
      <trkpt lat="58.41880797408521" lon="12.290950985625386">
        <ele>69.27</ele>
        <time>2025-02-06T05:54:21.570Z</time>
      </trkpt>
      <trkpt lat="58.41872298158705" lon="12.290981998667121">
        <ele>69.29</ele>
        <time>2025-02-06T05:54:48.272Z</time>
      </trkpt>
      <trkpt lat="58.41863899491727" lon="12.291011922061443">
        <ele>69.32</ele>
        <time>2025-02-06T05:55:14.975Z</time>
      </trkpt>
      <trkpt lat="58.418557941913605" lon="12.291040923446417">
        <ele>69.35</ele>
        <time>2025-02-06T05:55:41.680Z</time>
      </trkpt>
      <trkpt lat="58.41847898438573" lon="12.29106992483139">
        <ele>69.38</ele>
        <time>2025-02-06T05:56:08.386Z</time>
      </trkpt>
      <trkpt lat="58.418405978009105" lon="12.291094986721873">
        <ele>69.41</ele>
        <time>2025-02-06T05:56:35.093Z</time>
      </trkpt>
      <trkpt lat="58.418341940268874" lon="12.291117953136563">
        <ele>69.44</ele>
        <time>2025-02-06T05:57:01.801Z</time>
      </trkpt>
      <trkpt lat="58.41828293167055" lon="12.291138991713524">
        <ele>69.48</ele>
        <time>2025-02-06T05:57:28.510Z</time>
      </trkpt>
      <trkpt lat="58.41822392307222" lon="12.291159946471453">
        <ele>69.53</ele>
        <time>2025-02-06T05:57:55.220Z</time>
      </trkpt>
      <trkpt lat="58.41816399246454" lon="12.291180985048413">
        <ele>69.57</ele>
        <time>2025-02-06T05:58:21.931Z</time>
      </trkpt>
      <trkpt lat="58.418106995522976" lon="12.291201939806342">
        <ele>69.61</ele>
        <time>2025-02-06T05:58:48.643Z</time>
      </trkpt>
      <trkpt lat="58.41805594973266" lon="12.291219960898161">
        <ele>69.66</ele>
        <time>2025-02-06T05:59:15.356Z</time>
      </trkpt>
      <trkpt lat="58.41800892725587" lon="12.29123898781836">
        <ele>69.7</ele>
        <time>2025-02-06T05:59:42.070Z</time>
      </trkpt>
      <trkpt lat="58.41796098276973" lon="12.291257930919528">
        <ele>69.75</ele>
        <time>2025-02-06T06:00:08.785Z</time>
      </trkpt>
      <trkpt lat="58.417912954464555" lon="12.291272934526205">
        <ele>69.8</ele>
        <time>2025-02-06T06:00:35.500Z</time>
      </trkpt>
      <trkpt lat="58.417863920331" lon="12.291288943961263">
        <ele>69.85</ele>
        <time>2025-02-06T06:01:02.216Z</time>
      </trkpt>
      <trkpt lat="58.4178139641881" lon="12.291306965053082">
        <ele>69.9</ele>
        <time>2025-02-06T06:01:28.933Z</time>
      </trkpt>
      <trkpt lat="58.417761996388435" lon="12.29132791981101">
        <ele>69.95</ele>
        <time>2025-02-06T06:01:55.651Z</time>
      </trkpt>
      <trkpt lat="58.41770994476974" lon="12.29134795255959">
        <ele>70.01</ele>
        <time>2025-02-06T06:02:22.370Z</time>
      </trkpt>
      <trkpt lat="58.417656971141696" lon="12.29136798530817">
        <ele>70.07</ele>
        <time>2025-02-06T06:02:49.090Z</time>
      </trkpt>
      <trkpt lat="58.417604919523" lon="12.291387934237719">
        <ele>70.13</ele>
        <time>2025-02-06T06:03:15.810Z</time>
      </trkpt>
      <trkpt lat="58.417550940066576" lon="12.291406961157918">
        <ele>70.19</ele>
        <time>2025-02-06T06:03:42.531Z</time>
      </trkpt>
      <trkpt lat="58.41749696061015" lon="12.291426993906498">
        <ele>70.25</ele>
        <time>2025-02-06T06:04:09.253Z</time>
      </trkpt>
      <trkpt lat="58.41744499281049" lon="12.291448954492807">
        <ele>70.32</ele>
        <time>2025-02-06T06:04:35.976Z</time>
      </trkpt>
      <trkpt lat="58.417395958676934" lon="12.291471920907497">
        <ele>70.38</ele>
        <time>2025-02-06T06:05:02.700Z</time>
      </trkpt>
      <trkpt lat="58.41734793037176" lon="12.291492959484458">
        <ele>70.45</ele>
        <time>2025-02-06T06:05:29.425Z</time>
      </trkpt>
      <trkpt lat="58.41729998588562" lon="12.291510980576277">
        <ele>70.52</ele>
        <time>2025-02-06T06:05:56.150Z</time>
      </trkpt>
      <trkpt lat="58.41725296340883" lon="12.291524978354573">
        <ele>70.59</ele>
        <time>2025-02-06T06:06:22.876Z</time>
      </trkpt>
      <trkpt lat="58.417203929275274" lon="12.29153797030449">
        <ele>70.66</ele>
        <time>2025-02-06T06:06:49.603Z</time>
      </trkpt>
      <trkpt lat="58.41715296730399" lon="12.291553979739547">
        <ele>70.73</ele>
        <time>2025-02-06T06:07:16.331Z</time>
      </trkpt>
      <trkpt lat="58.41709898784757" lon="12.291572922840714">
        <ele>70.8</ele>
        <time>2025-02-06T06:07:43.060Z</time>
      </trkpt>
      <trkpt lat="58.41704391874373" lon="12.291593961417675">
        <ele>70.88</ele>
        <time>2025-02-06T06:08:09.790Z</time>
      </trkpt>
      <trkpt lat="58.41698692180216" lon="12.291613994166255">
        <ele>70.95</ele>
        <time>2025-02-06T06:08:36.520Z</time>
      </trkpt>
      <trkpt lat="58.41692699119449" lon="12.291632937267423">
        <ele>71.03</ele>
        <time>2025-02-06T06:09:03.251Z</time>
      </trkpt>
      <trkpt lat="58.4168659709394" lon="12.291655987501144">
        <ele>71.11</ele>
        <time>2025-02-06T06:09:29.983Z</time>
      </trkpt>
      <trkpt lat="58.41680394485593" lon="12.291678953915834">
        <ele>71.18</ele>
        <time>2025-02-06T06:09:56.716Z</time>
      </trkpt>
      <trkpt lat="58.41674099676311" lon="12.291700998321176">
        <ele>71.26</ele>
        <time>2025-02-06T06:10:23.450Z</time>
      </trkpt>
      <trkpt lat="58.4166759531945" lon="12.291722958907485">
        <ele>71.34</ele>
        <time>2025-02-06T06:10:50.186Z</time>
      </trkpt>
      <trkpt lat="58.41660797595978" lon="12.291744919493794">
        <ele>71.42</ele>
        <time>2025-02-06T06:11:16.923Z</time>
      </trkpt>
      <trkpt lat="58.416537987068295" lon="12.291767969727516">
        <ele>71.5</ele>
        <time>2025-02-06T06:11:43.661Z</time>
      </trkpt>
      <trkpt lat="58.41646598652005" lon="12.291792947798967">
        <ele>71.58</ele>
        <time>2025-02-06T06:12:10.400Z</time>
      </trkpt>
      <trkpt lat="58.41639298014343" lon="12.291817925870419">
        <ele>71.66</ele>
        <time>2025-02-06T06:12:37.140Z</time>
      </trkpt>
      <trkpt lat="58.41631896793842" lon="12.29184097610414">
        <ele>71.74</ele>
        <time>2025-02-06T06:13:03.881Z</time>
      </trkpt>
      <trkpt lat="58.41624495573342" lon="12.291865954175591">
        <ele>71.82</ele>
        <time>2025-02-06T06:13:30.624Z</time>
      </trkpt>
      <trkpt lat="58.416170943528414" lon="12.291888920590281">
        <ele>71.9</ele>
        <time>2025-02-06T06:13:57.368Z</time>
      </trkpt>
      <trkpt lat="58.41609693132341" lon="12.291912976652384">
        <ele>71.99</ele>
        <time>2025-02-06T06:14:24.113Z</time>
      </trkpt>
      <trkpt lat="58.416021997109056" lon="12.291937954723835">
        <ele>72.07</ele>
        <time>2025-02-06T06:14:50.859Z</time>
      </trkpt>
      <trkpt lat="58.41594496741891" lon="12.291961926966906">
        <ele>72.16</ele>
        <time>2025-02-06T06:15:17.606Z</time>
      </trkpt>
      <trkpt lat="58.41586693190038" lon="12.291985983029008">
        <ele>72.24</ele>
        <time>2025-02-06T06:15:44.355Z</time>
      </trkpt>
      <trkpt lat="58.415787974372506" lon="12.292009955272079">
        <ele>72.32</ele>
        <time>2025-02-06T06:16:11.105Z</time>
      </trkpt>
      <trkpt lat="58.41570792719722" lon="12.29203593917191">
        <ele>72.41</ele>
        <time>2025-02-06T06:16:37.856Z</time>
      </trkpt>
      <trkpt lat="58.41562695801258" lon="12.292059995234013">
        <ele>72.5</ele>
        <time>2025-02-06T06:17:04.609Z</time>
      </trkpt>
      <trkpt lat="58.41554498299956" lon="12.292083967477083">
        <ele>72.58</ele>
        <time>2025-02-06T06:17:31.363Z</time>
      </trkpt>
      <trkpt lat="58.415462924167514" lon="12.292106933891773">
        <ele>72.67</ele>
        <time>2025-02-06T06:17:58.118Z</time>
      </trkpt>
      <trkpt lat="58.41538195498288" lon="12.292128978297114">
        <ele>72.75</ele>
        <time>2025-02-06T06:18:24.875Z</time>
      </trkpt>
      <trkpt lat="58.41530098579824" lon="12.292153956368566">
        <ele>72.82</ele>
        <time>2025-02-06T06:18:51.633Z</time>
      </trkpt>
      <trkpt lat="58.41522093862295" lon="12.292177928611636">
        <ele>72.9</ele>
        <time>2025-02-06T06:19:18.392Z</time>
      </trkpt>
      <trkpt lat="58.415140975266695" lon="12.292198967188597">
        <ele>72.98</ele>
        <time>2025-02-06T06:19:45.152Z</time>
      </trkpt>
      <trkpt lat="58.415059922263026" lon="12.292220927774906">
        <ele>73.06</ele>
        <time>2025-02-06T06:20:11.914Z</time>
      </trkpt>
      <trkpt lat="58.41497694142163" lon="12.292242972180247">
        <ele>73.14</ele>
        <time>2025-02-06T06:20:38.677Z</time>
      </trkpt>
      <trkpt lat="58.41489094309509" lon="12.292264932766557">
        <ele>73.22</ele>
        <time>2025-02-06T06:21:05.442Z</time>
      </trkpt>
      <trkpt lat="58.41480293311179" lon="12.292288988828659">
        <ele>73.3</ele>
        <time>2025-02-06T06:21:32.208Z</time>
      </trkpt>
      <trkpt lat="58.414712995290756" lon="12.29231497272849">
        <ele>73.38</ele>
        <time>2025-02-06T06:21:58.975Z</time>
      </trkpt>
      <trkpt lat="58.414622973650694" lon="12.292339950799942">
        <ele>73.46</ele>
        <time>2025-02-06T06:22:25.744Z</time>
      </trkpt>
      <trkpt lat="58.41453295201063" lon="12.292364928871393">
        <ele>73.55</ele>
        <time>2025-02-06T06:22:52.514Z</time>
      </trkpt>
      <trkpt lat="58.41444393619895" lon="12.292389990761876">
        <ele>73.64</ele>
        <time>2025-02-06T06:23:19.286Z</time>
      </trkpt>
      <trkpt lat="58.41435592621565" lon="12.292413963004947">
        <ele>73.72</ele>
        <time>2025-02-06T06:23:46.059Z</time>
      </trkpt>
      <trkpt lat="58.41426892206073" lon="12.292439946904778">
        <ele>73.81</ele>
        <time>2025-02-06T06:24:12.834Z</time>
      </trkpt>
      <trkpt lat="58.41418392956257" lon="12.292463919147849">
        <ele>73.89</ele>
        <time>2025-02-06T06:24:39.610Z</time>
      </trkpt>
      <trkpt lat="58.41409994289279" lon="12.292487975209951">
        <ele>73.98</ele>
        <time>2025-02-06T06:25:06.387Z</time>
      </trkpt>
      <trkpt lat="58.41401696205139" lon="12.292511947453022">
        <ele>74.07</ele>
        <time>2025-02-06T06:25:33.166Z</time>
      </trkpt>
      <trkpt lat="58.413934987038374" lon="12.292535919696093">
        <ele>74.15</ele>
        <time>2025-02-06T06:25:59.946Z</time>
      </trkpt>
      <trkpt lat="58.413852928206325" lon="12.292559975758195">
        <ele>74.24</ele>
        <time>2025-02-06T06:26:26.727Z</time>
      </trkpt>
      <trkpt lat="58.413768941536546" lon="12.292583948001266">
        <ele>74.32</ele>
        <time>2025-02-06T06:26:53.510Z</time>
      </trkpt>
      <trkpt lat="58.41368696652353" lon="12.292607920244336">
        <ele>74.4</ele>
        <time>2025-02-06T06:27:20.294Z</time>
      </trkpt>
      <trkpt lat="58.41360297985375" lon="12.292631976306438">
        <ele>74.47</ele>
        <time>2025-02-06T06:27:47.079Z</time>
      </trkpt>
      <trkpt lat="58.41351999901235" lon="12.29265695437789">
        <ele>74.55</ele>
        <time>2025-02-06T06:28:13.866Z</time>
      </trkpt>
      <trkpt lat="58.41343693435192" lon="12.29268193244934">
        <ele>74.63</ele>
        <time>2025-02-06T06:28:40.654Z</time>
      </trkpt>
      <trkpt lat="58.41335294768214" lon="12.292705988511443">
        <ele>74.7</ele>
        <time>2025-02-06T06:29:07.443Z</time>
      </trkpt>
      <trkpt lat="58.41326795518398" lon="12.292727949097753">
        <ele>74.78</ele>
        <time>2025-02-06T06:29:34.234Z</time>
      </trkpt>
      <trkpt lat="58.413183968514204" lon="12.292751921340823">
        <ele>74.85</ele>
        <time>2025-02-06T06:30:01.026Z</time>
      </trkpt>
      <trkpt lat="58.413099981844425" lon="12.292777989059687">
        <ele>74.91</ele>
        <time>2025-02-06T06:30:27.820Z</time>
      </trkpt>
      <trkpt lat="58.413015995174646" lon="12.292801961302757">
        <ele>74.98</ele>
        <time>2025-02-06T06:30:54.615Z</time>
      </trkpt>
      <trkpt lat="58.4129339363426" lon="12.292824927717447">
        <ele>75.06</ele>
        <time>2025-02-06T06:31:21.411Z</time>
      </trkpt>
      <trkpt lat="58.41285397298634" lon="12.29284898377955">
        <ele>75.13</ele>
        <time>2025-02-06T06:31:48.209Z</time>
      </trkpt>
      <trkpt lat="58.41277593746781" lon="12.292870944365859">
        <ele>75.19</ele>
        <time>2025-02-06T06:32:15.008Z</time>
      </trkpt>
      <trkpt lat="58.41269999742508" lon="12.2928929887712">
        <ele>75.26</ele>
        <time>2025-02-06T06:32:41.808Z</time>
      </trkpt>
      <trkpt lat="58.412624979391694" lon="12.29291595518589">
        <ele>75.33</ele>
        <time>2025-02-06T06:33:08.609Z</time>
      </trkpt>
      <trkpt lat="58.41254895552993" lon="12.29293892160058">
        <ele>75.39</ele>
        <time>2025-02-06T06:33:35.412Z</time>
      </trkpt>
      <trkpt lat="58.41247293166816" lon="12.292960966005921">
        <ele>75.46</ele>
        <time>2025-02-06T06:34:02.216Z</time>
      </trkpt>
      <trkpt lat="58.41239598579705" lon="12.29298292659223">
        <ele>75.53</ele>
        <time>2025-02-06T06:34:29.021Z</time>
      </trkpt>
      <trkpt lat="58.41231795027852" lon="12.293004970997572">
        <ele>75.59</ele>
        <time>2025-02-06T06:34:55.827Z</time>
      </trkpt>
      <trkpt lat="58.412239998579025" lon="12.293028943240643">
        <ele>75.65</ele>
        <time>2025-02-06T06:35:22.635Z</time>
      </trkpt>
      <trkpt lat="58.4121619630605" lon="12.293051993474364">
        <ele>75.7</ele>
        <time>2025-02-06T06:35:49.444Z</time>
      </trkpt>
      <trkpt lat="58.41208392754197" lon="12.293073954060674">
        <ele>75.76</ele>
        <time>2025-02-06T06:36:16.254Z</time>
      </trkpt>
      <trkpt lat="58.412004970014095" lon="12.293095998466015">
        <ele>75.82</ele>
        <time>2025-02-06T06:36:43.065Z</time>
      </trkpt>
      <trkpt lat="58.41192693449557" lon="12.293118964880705">
        <ele>75.86</ele>
        <time>2025-02-06T06:37:09.878Z</time>
      </trkpt>
      <trkpt lat="58.41184898279607" lon="12.293143942952156">
        <ele>75.91</ele>
        <time>2025-02-06T06:37:36.692Z</time>
      </trkpt>
      <trkpt lat="58.41177396476269" lon="12.293166993185878">
        <ele>75.95</ele>
        <time>2025-02-06T06:38:03.507Z</time>
      </trkpt>
      <trkpt lat="58.411700958386064" lon="12.293189959600568">
        <ele>76.0</ele>
        <time>2025-02-06T06:38:30.323Z</time>
      </trkpt>
      <trkpt lat="58.41163096949458" lon="12.293209992349148">
        <ele>76.04</ele>
        <time>2025-02-06T06:38:57.140Z</time>
      </trkpt>
      <trkpt lat="58.41156399808824" lon="12.293228935450315">
        <ele>76.08</ele>
        <time>2025-02-06T06:39:23.959Z</time>
      </trkpt>
      <trkpt lat="58.41149593703449" lon="12.293246956542134">
        <ele>76.13</ele>
        <time>2025-02-06T06:39:50.779Z</time>
      </trkpt>
      <trkpt lat="58.41142795979977" lon="12.293265983462334">
        <ele>76.17</ele>
        <time>2025-02-06T06:40:17.600Z</time>
      </trkpt>
      <trkpt lat="58.411359982565045" lon="12.293285932391882">
        <ele>76.21</ele>
        <time>2025-02-06T06:40:44.422Z</time>
      </trkpt>
      <trkpt lat="58.41129292733967" lon="12.293304959312081">
        <ele>76.25</ele>
        <time>2025-02-06T06:41:11.245Z</time>
      </trkpt>
      <trkpt lat="58.41122595593333" lon="12.29332398623228">
        <ele>76.28</ele>
        <time>2025-02-06T06:41:38.069Z</time>
      </trkpt>
      <trkpt lat="58.41115797869861" lon="12.29334594681859">
        <ele>76.32</ele>
        <time>2025-02-06T06:42:04.894Z</time>
      </trkpt>
      <trkpt lat="58.41108798980713" lon="12.293367991223931">
        <ele>76.35</ele>
        <time>2025-02-06T06:42:31.720Z</time>
      </trkpt>
      <trkpt lat="58.411018922924995" lon="12.29338794015348">
        <ele>76.37</ele>
        <time>2025-02-06T06:42:58.547Z</time>
      </trkpt>
      <trkpt lat="58.410950945690274" lon="12.29340897873044">
        <ele>76.4</ele>
        <time>2025-02-06T06:43:25.375Z</time>
      </trkpt>
      <trkpt lat="58.41088296845555" lon="12.293427921831608">
        <ele>76.43</ele>
        <time>2025-02-06T06:43:52.205Z</time>
      </trkpt>
      <trkpt lat="58.41081398539245" lon="12.293446948751807">
        <ele>76.46</ele>
        <time>2025-02-06T06:44:19.036Z</time>
      </trkpt>
      <trkpt lat="58.41074299067259" lon="12.293466981500387">
        <ele>76.48</ele>
        <time>2025-02-06T06:44:45.868Z</time>
      </trkpt>
      <trkpt lat="58.410671995952725" lon="12.293484918773174">
        <ele>76.51</ele>
        <time>2025-02-06T06:45:12.701Z</time>
      </trkpt>
      <trkpt lat="58.41059999540448" lon="12.293503945693374">
        <ele>76.53</ele>
        <time>2025-02-06T06:45:39.535Z</time>
      </trkpt>
      <trkpt lat="58.41052598319948" lon="12.293522972613573">
        <ele>76.55</ele>
        <time>2025-02-06T06:46:06.370Z</time>
      </trkpt>
      <trkpt lat="58.41045096516609" lon="12.293544933199883">
        <ele>76.57</ele>
        <time>2025-02-06T06:46:33.207Z</time>
      </trkpt>
      <trkpt lat="58.410374941304326" lon="12.293566977605224">
        <ele>76.59</ele>
        <time>2025-02-06T06:47:00.045Z</time>
      </trkpt>
      <trkpt lat="58.41029698960483" lon="12.293587932363153">
        <ele>76.6</ele>
        <time>2025-02-06T06:47:26.884Z</time>
      </trkpt>
      <trkpt lat="58.410218954086304" lon="12.293608970940113">
        <ele>76.62</ele>
        <time>2025-02-06T06:47:53.724Z</time>
      </trkpt>
      <trkpt lat="58.41014091856778" lon="12.293630931526423">
        <ele>76.63</ele>
        <time>2025-02-06T06:48:20.566Z</time>
      </trkpt>
      <trkpt lat="58.41006296686828" lon="12.293651970103383">
        <ele>76.64</ele>
        <time>2025-02-06T06:48:47.409Z</time>
      </trkpt>
      <trkpt lat="58.409983925521374" lon="12.293674936518073">
        <ele>76.65</ele>
        <time>2025-02-06T06:49:14.253Z</time>
      </trkpt>
      <trkpt lat="58.40990396216512" lon="12.293697986751795">
        <ele>76.66</ele>
        <time>2025-02-06T06:49:41.098Z</time>
      </trkpt>
      <trkpt lat="58.40982399880886" lon="12.293722964823246">
        <ele>76.67</ele>
        <time>2025-02-06T06:50:07.945Z</time>
      </trkpt>
      <trkpt lat="58.40974294580519" lon="12.293746937066317">
        <ele>76.69</ele>
        <time>2025-02-06T06:50:34.793Z</time>
      </trkpt>
      <trkpt lat="58.409660970792174" lon="12.293770993128419">
        <ele>76.7</ele>
        <time>2025-02-06T06:51:01.642Z</time>
      </trkpt>
      <trkpt lat="58.409577989950776" lon="12.293793959543109">
        <ele>76.71</ele>
        <time>2025-02-06T06:51:28.493Z</time>
      </trkpt>
      <trkpt lat="58.409493919461966" lon="12.29381793178618">
        <ele>76.72</ele>
        <time>2025-02-06T06:51:55.345Z</time>
      </trkpt>
      <trkpt lat="58.409408926963806" lon="12.293841987848282">
        <ele>76.73</ele>
        <time>2025-02-06T06:52:22.198Z</time>
      </trkpt>
      <trkpt lat="58.409322928637266" lon="12.293864954262972">
        <ele>76.74</ele>
        <time>2025-02-06T06:52:49.053Z</time>
      </trkpt>
      <trkpt lat="58.409235924482346" lon="12.293888926506042">
        <ele>76.74</ele>
        <time>2025-02-06T06:53:15.909Z</time>
      </trkpt>
      <trkpt lat="58.409148920327425" lon="12.293913988396525">
        <ele>76.74</ele>
        <time>2025-02-06T06:53:42.767Z</time>
      </trkpt>
      <trkpt lat="58.409063927829266" lon="12.293939972296357">
        <ele>76.75</ele>
        <time>2025-02-06T06:54:09.626Z</time>
      </trkpt>
      <trkpt lat="58.408978935331106" lon="12.29396696202457">
        <ele>76.76</ele>
        <time>2025-02-06T06:54:36.486Z</time>
      </trkpt>
      <trkpt lat="58.40889394283295" lon="12.29399194009602">
        <ele>76.76</ele>
        <time>2025-02-06T06:55:03.348Z</time>
      </trkpt>
      <trkpt lat="58.40880895033479" lon="12.294013984501362">
        <ele>76.77</ele>
        <time>2025-02-06T06:55:30.211Z</time>
      </trkpt>
      <trkpt lat="58.40872295200825" lon="12.294037956744432">
        <ele>76.78</ele>
        <time>2025-02-06T06:55:57.076Z</time>
      </trkpt>
      <trkpt lat="58.408634942024946" lon="12.294063940644264">
        <ele>76.78</ele>
        <time>2025-02-06T06:56:23.942Z</time>
      </trkpt>
      <trkpt lat="58.408545926213264" lon="12.294090930372477">
        <ele>76.79</ele>
        <time>2025-02-06T06:56:50.809Z</time>
      </trkpt>
      <trkpt lat="58.408455988392234" lon="12.294117920100689">
        <ele>76.79</ele>
        <time>2025-02-06T06:57:17.678Z</time>
      </trkpt>
      <trkpt lat="58.40836697258055" lon="12.294144993647933">
        <ele>76.79</ele>
        <time>2025-02-06T06:57:44.548Z</time>
      </trkpt>
      <trkpt lat="58.40827795676887" lon="12.294170977547765">
        <ele>76.8</ele>
        <time>2025-02-06T06:58:11.420Z</time>
      </trkpt>
      <trkpt lat="58.40818994678557" lon="12.294196961447597">
        <ele>76.81</ele>
        <time>2025-02-06T06:58:38.293Z</time>
      </trkpt>
      <trkpt lat="58.40810193680227" lon="12.294221939519048">
        <ele>76.82</ele>
        <time>2025-02-06T06:59:05.168Z</time>
      </trkpt>
      <trkpt lat="58.40801493264735" lon="12.294246917590499">
        <ele>76.82</ele>
        <time>2025-02-06T06:59:32.044Z</time>
      </trkpt>
      <trkpt lat="58.40792893432081" lon="12.294271979480982">
        <ele>76.83</ele>
        <time>2025-02-06T06:59:58.921Z</time>
      </trkpt>
      <trkpt lat="58.40784293599427" lon="12.294296957552433">
        <ele>76.83</ele>
        <time>2025-02-06T07:00:25.800Z</time>
      </trkpt>
      <trkpt lat="58.40775794349611" lon="12.294321935623884">
        <ele>76.84</ele>
        <time>2025-02-06T07:00:52.680Z</time>
      </trkpt>
      <trkpt lat="58.40767395682633" lon="12.294345991685987">
        <ele>76.85</ele>
        <time>2025-02-06T07:01:19.562Z</time>
      </trkpt>
      <trkpt lat="58.40758896432817" lon="12.294369963929057">
        <ele>76.85</ele>
        <time>2025-02-06T07:01:46.445Z</time>
      </trkpt>
      <trkpt lat="58.40750598348677" lon="12.294395947828889">
        <ele>76.85</ele>
        <time>2025-02-06T07:02:13.329Z</time>
      </trkpt>
      <trkpt lat="58.40742291882634" lon="12.29442092590034">
        <ele>76.86</ele>
        <time>2025-02-06T07:02:40.215Z</time>
      </trkpt>
      <trkpt lat="58.40733993798494" lon="12.294444981962442">
        <ele>76.87</ele>
        <time>2025-02-06T07:03:07.102Z</time>
      </trkpt>
      <trkpt lat="58.407258968800306" lon="12.294470965862274">
        <ele>76.88</ele>
        <time>2025-02-06T07:03:33.990Z</time>
      </trkpt>
      <trkpt lat="58.40717892162502" lon="12.294495943933725">
        <ele>76.89</ele>
        <time>2025-02-06T07:04:00.880Z</time>
      </trkpt>
      <trkpt lat="58.407096946612" lon="12.294518994167447">
        <ele>76.9</ele>
        <time>2025-02-06T07:04:27.771Z</time>
      </trkpt>
      <trkpt lat="58.407016983255744" lon="12.294542966410518">
        <ele>76.91</ele>
        <time>2025-02-06T07:04:54.663Z</time>
      </trkpt>
      <trkpt lat="58.406937941908836" lon="12.294565932825208">
        <ele>76.92</ele>
        <time>2025-02-06T07:05:21.557Z</time>
      </trkpt>
      <trkpt lat="58.40686191804707" lon="12.29458898305893">
        <ele>76.93</ele>
        <time>2025-02-06T07:05:48.452Z</time>
      </trkpt>
      <trkpt lat="58.40678698383272" lon="12.294609937816858">
        <ele>76.94</ele>
        <time>2025-02-06T07:06:15.348Z</time>
      </trkpt>
      <trkpt lat="58.40671397745609" lon="12.294630976393819">
        <ele>76.95</ele>
        <time>2025-02-06T07:06:42.245Z</time>
      </trkpt>
      <trkpt lat="58.40664197690785" lon="12.29465696029365">
        <ele>76.96</ele>
        <time>2025-02-06T07:07:09.143Z</time>
      </trkpt>
      <trkpt lat="58.40657198801637" lon="12.294682944193482">
        <ele>76.97</ele>
        <time>2025-02-06T07:07:36.043Z</time>
      </trkpt>
      <trkpt lat="58.40649898163974" lon="12.294701971113682">
        <ele>76.99</ele>
        <time>2025-02-06T07:08:02.944Z</time>
      </trkpt>
      <trkpt lat="58.40642597526312" lon="12.29471798054874">
        <ele>77.0</ele>
        <time>2025-02-06T07:08:29.846Z</time>
      </trkpt>
      <trkpt lat="58.40634995140135" lon="12.294736923649907">
        <ele>77.01</ele>
        <time>2025-02-06T07:08:56.749Z</time>
      </trkpt>
      <trkpt lat="58.40627392753959" lon="12.294759973883629">
        <ele>77.03</ele>
        <time>2025-02-06T07:09:23.653Z</time>
      </trkpt>
      <trkpt lat="58.40619698166847" lon="12.294781934469938">
        <ele>77.04</ele>
        <time>2025-02-06T07:09:50.559Z</time>
      </trkpt>
      <trkpt lat="58.406117940321565" lon="12.29480397887528">
        <ele>77.06</ele>
        <time>2025-02-06T07:10:17.466Z</time>
      </trkpt>
      <trkpt lat="58.40603898279369" lon="12.294825939461589">
        <ele>77.08</ele>
        <time>2025-02-06T07:10:44.374Z</time>
      </trkpt>
      <trkpt lat="58.40595994144678" lon="12.294849995523691">
        <ele>77.09</ele>
        <time>2025-02-06T07:11:11.283Z</time>
      </trkpt>
      <trkpt lat="58.405881989747286" lon="12.294872961938381">
        <ele>77.11</ele>
        <time>2025-02-06T07:11:38.194Z</time>
      </trkpt>
      <trkpt lat="58.405801942572" lon="12.294895928353071">
        <ele>77.13</ele>
        <time>2025-02-06T07:12:05.106Z</time>
      </trkpt>
      <trkpt lat="58.40572197921574" lon="12.294918978586793">
        <ele>77.16</ele>
        <time>2025-02-06T07:12:32.019Z</time>
      </trkpt>
      <trkpt lat="58.40564293786883" lon="12.294943956658244">
        <ele>77.19</ele>
        <time>2025-02-06T07:12:58.934Z</time>
      </trkpt>
      <trkpt lat="58.40556297451258" lon="12.294967928901315">
        <ele>77.22</ele>
        <time>2025-02-06T07:13:25.850Z</time>
      </trkpt>
      <trkpt lat="58.40548393316567" lon="12.294991984963417">
        <ele>77.25</ele>
        <time>2025-02-06T07:13:52.767Z</time>
      </trkpt>
      <trkpt lat="58.40540497563779" lon="12.295013945549726">
        <ele>77.28</ele>
        <time>2025-02-06T07:14:19.685Z</time>
      </trkpt>
      <trkpt lat="58.405325934290886" lon="12.295035989955068">
        <ele>77.31</ele>
        <time>2025-02-06T07:14:46.605Z</time>
      </trkpt>
      <trkpt lat="58.40524697676301" lon="12.295059962198138">
        <ele>77.34</ele>
        <time>2025-02-06T07:15:13.526Z</time>
      </trkpt>
      <trkpt lat="58.40516894124448" lon="12.295083934441209">
        <ele>77.38</ele>
        <time>2025-02-06T07:15:40.448Z</time>
      </trkpt>
      <trkpt lat="58.40508998371661" lon="12.29510698467493">
        <ele>77.42</ele>
        <time>2025-02-06T07:16:07.372Z</time>
      </trkpt>
      <trkpt lat="58.4050109423697" lon="12.29512995108962">
        <ele>77.46</ele>
        <time>2025-02-06T07:16:34.297Z</time>
      </trkpt>
      <trkpt lat="58.40493097901344" lon="12.295151995494962">
        <ele>77.5</ele>
        <time>2025-02-06T07:17:01.223Z</time>
      </trkpt>
      <trkpt lat="58.404850931838155" lon="12.295173956081271">
        <ele>77.54</ele>
        <time>2025-02-06T07:17:28.150Z</time>
      </trkpt>
      <trkpt lat="58.40476996265352" lon="12.295197928324342">
        <ele>77.58</ele>
        <time>2025-02-06T07:17:55.079Z</time>
      </trkpt>
      <trkpt lat="58.4046879876405" lon="12.295222990214825">
        <ele>77.63</ele>
        <time>2025-02-06T07:18:22.009Z</time>
      </trkpt>
      <trkpt lat="58.40460794046521" lon="12.295246962457895">
        <ele>77.67</ele>
        <time>2025-02-06T07:18:48.940Z</time>
      </trkpt>
      <trkpt lat="58.404527977108955" lon="12.295270934700966">
        <ele>77.72</ele>
        <time>2025-02-06T07:19:15.873Z</time>
      </trkpt>
      <trkpt lat="58.40444792993367" lon="12.295294990763068">
        <ele>77.76</ele>
        <time>2025-02-06T07:19:42.807Z</time>
      </trkpt>
      <trkpt lat="58.40436696074903" lon="12.295316951349378">
        <ele>77.81</ele>
        <time>2025-02-06T07:20:09.742Z</time>
      </trkpt>
      <trkpt lat="58.40428599156439" lon="12.295339917764068">
        <ele>77.87</ele>
        <time>2025-02-06T07:20:36.679Z</time>
      </trkpt>
      <trkpt lat="58.404203932732344" lon="12.29536397382617">
        <ele>77.92</ele>
        <time>2025-02-06T07:21:03.617Z</time>
      </trkpt>
      <trkpt lat="58.404121957719326" lon="12.295389957726002">
        <ele>77.97</ele>
        <time>2025-02-06T07:21:30.556Z</time>
      </trkpt>
      <trkpt lat="58.40403897687793" lon="12.295415941625834">
        <ele>78.03</ele>
        <time>2025-02-06T07:21:57.497Z</time>
      </trkpt>
      <trkpt lat="58.40395599603653" lon="12.295440919697285">
        <ele>78.09</ele>
        <time>2025-02-06T07:22:24.439Z</time>
      </trkpt>
      <trkpt lat="58.40387393720448" lon="12.295464975759387">
        <ele>78.14</ele>
        <time>2025-02-06T07:22:51.382Z</time>
      </trkpt>
      <trkpt lat="58.40379196219146" lon="12.295488948002458">
        <ele>78.21</ele>
        <time>2025-02-06T07:23:18.327Z</time>
      </trkpt>
      <trkpt lat="58.403710993006825" lon="12.295512920245528">
        <ele>78.27</ele>
        <time>2025-02-06T07:23:45.273Z</time>
      </trkpt>
      <trkpt lat="58.40362994000316" lon="12.29553697630763">
        <ele>78.34</ele>
        <time>2025-02-06T07:24:12.220Z</time>
      </trkpt>
      <trkpt lat="58.4035499766469" lon="12.295561954379082">
        <ele>78.41</ele>
        <time>2025-02-06T07:24:39.169Z</time>
      </trkpt>
      <trkpt lat="58.40346992947161" lon="12.295585926622152">
        <ele>78.48</ele>
        <time>2025-02-06T07:25:06.119Z</time>
      </trkpt>
      <trkpt lat="58.403390971943736" lon="12.295609982684255">
        <ele>78.55</ele>
        <time>2025-02-06T07:25:33.070Z</time>
      </trkpt>
      <trkpt lat="58.40331293642521" lon="12.295632949098945">
        <ele>78.62</ele>
        <time>2025-02-06T07:26:00.022Z</time>
      </trkpt>
      <trkpt lat="58.403235990554094" lon="12.295654993504286">
        <ele>78.69</ele>
        <time>2025-02-06T07:26:26.976Z</time>
      </trkpt>
      <trkpt lat="58.40316097252071" lon="12.295677959918976">
        <ele>78.77</ele>
        <time>2025-02-06T07:26:53.931Z</time>
      </trkpt>
      <trkpt lat="58.403086960315704" lon="12.295699920505285">
        <ele>78.85</ele>
        <time>2025-02-06T07:27:20.887Z</time>
      </trkpt>
      <trkpt lat="58.40301194228232" lon="12.295722970739007">
        <ele>78.94</ele>
        <time>2025-02-06T07:27:47.844Z</time>
      </trkpt>
      <trkpt lat="58.40293591842055" lon="12.295743925496936">
        <ele>79.02</ele>
        <time>2025-02-06T07:28:14.803Z</time>
      </trkpt>
      <trkpt lat="58.40285997837782" lon="12.295765969902277">
        <ele>79.11</ele>
        <time>2025-02-06T07:28:41.763Z</time>
      </trkpt>
      <trkpt lat="58.40278194285929" lon="12.295788936316967">
        <ele>79.2</ele>
        <time>2025-02-06T07:29:08.724Z</time>
      </trkpt>
      <trkpt lat="58.402702985331416" lon="12.295811986550689">
        <ele>79.3</ele>
        <time>2025-02-06T07:29:35.686Z</time>
      </trkpt>
      <trkpt lat="58.40262092649937" lon="12.295832941308618">
        <ele>79.39</ele>
        <time>2025-02-06T07:30:02.650Z</time>
      </trkpt>
      <trkpt lat="58.40253492817283" lon="12.29585699737072">
        <ele>79.49</ele>
        <time>2025-02-06T07:30:29.615Z</time>
      </trkpt>
      <trkpt lat="58.402447924017906" lon="12.295881975442171">
        <ele>79.59</ele>
        <time>2025-02-06T07:30:56.581Z</time>
      </trkpt>
      <trkpt lat="58.40236293151975" lon="12.295907959342003">
        <ele>79.69</ele>
        <time>2025-02-06T07:31:23.549Z</time>
      </trkpt>
      <trkpt lat="58.40228095650673" lon="12.295932937413454">
        <ele>79.79</ele>
        <time>2025-02-06T07:31:50.518Z</time>
      </trkpt>
      <trkpt lat="58.40220099315047" lon="12.295956993475556">
        <ele>79.9</ele>
        <time>2025-02-06T07:32:17.488Z</time>
      </trkpt>
      <trkpt lat="58.402121951803565" lon="12.295979959890246">
        <ele>80.01</ele>
        <time>2025-02-06T07:32:44.460Z</time>
      </trkpt>
      <trkpt lat="58.40204299427569" lon="12.296002926304936">
        <ele>80.11</ele>
        <time>2025-02-06T07:33:11.433Z</time>
      </trkpt>
      <trkpt lat="58.40196495875716" lon="12.296026982367039">
        <ele>80.23</ele>
        <time>2025-02-06T07:33:38.407Z</time>
      </trkpt>
      <trkpt lat="58.401885917410254" lon="12.296048942953348">
        <ele>80.34</ele>
        <time>2025-02-06T07:34:05.383Z</time>
      </trkpt>
      <trkpt lat="58.40180796571076" lon="12.29607199318707">
        <ele>80.46</ele>
        <time>2025-02-06T07:34:32.360Z</time>
      </trkpt>
      <trkpt lat="58.40172993019223" lon="12.29609596543014">
        <ele>80.58</ele>
        <time>2025-02-06T07:34:59.338Z</time>
      </trkpt>
      <trkpt lat="58.4016539901495" lon="12.296120943501592">
        <ele>80.7</ele>
        <time>2025-02-06T07:35:26.317Z</time>
      </trkpt>
      <trkpt lat="58.40157696045935" lon="12.296144999563694">
        <ele>80.82</ele>
        <time>2025-02-06T07:35:53.298Z</time>
      </trkpt>
      <trkpt lat="58.401500936597586" lon="12.296165954321623">
        <ele>80.94</ele>
        <time>2025-02-06T07:36:20.280Z</time>
      </trkpt>
      <trkpt lat="58.4014259185642" lon="12.296187998726964">
        <ele>81.07</ele>
        <time>2025-02-06T07:36:47.263Z</time>
      </trkpt>
      <trkpt lat="58.40135199017823" lon="12.296208953484893">
        <ele>81.19</ele>
        <time>2025-02-06T07:37:14.247Z</time>
      </trkpt>
      <trkpt lat="58.401279989629984" lon="12.296228986233473">
        <ele>81.32</ele>
        <time>2025-02-06T07:37:41.232Z</time>
      </trkpt>
      <trkpt lat="58.40120597742498" lon="12.296248935163021">
        <ele>81.45</ele>
        <time>2025-02-06T07:38:08.219Z</time>
      </trkpt>
      <trkpt lat="58.401131965219975" lon="12.29626796208322">
        <ele>81.58</ele>
        <time>2025-02-06T07:38:35.207Z</time>
      </trkpt>
      <trkpt lat="58.40105795301497" lon="12.29628891684115">
        <ele>81.72</ele>
        <time>2025-02-06T07:39:02.196Z</time>
      </trkpt>
      <trkpt lat="58.400982934981585" lon="12.29630995541811">
        <ele>81.85</ele>
        <time>2025-02-06T07:39:29.186Z</time>
      </trkpt>
      <trkpt lat="58.40090699493885" lon="12.296327976509929">
        <ele>81.98</ele>
        <time>2025-02-06T07:39:56.177Z</time>
      </trkpt>
      <trkpt lat="58.400830971077085" lon="12.296345997601748">
        <ele>82.12</ele>
        <time>2025-02-06T07:40:23.170Z</time>
      </trkpt>
      <trkpt lat="58.40075494721532" lon="12.296362929046154">
        <ele>82.26</ele>
        <time>2025-02-06T07:40:50.164Z</time>
      </trkpt>
      <trkpt lat="58.40067892335355" lon="12.296379944309592">
        <ele>82.4</ele>
        <time>2025-02-06T07:41:17.159Z</time>
      </trkpt>
      <trkpt lat="58.40060197748244" lon="12.296399977058172">
        <ele>82.54</ele>
        <time>2025-02-06T07:41:44.155Z</time>
      </trkpt>
      <trkpt lat="58.40052494779229" lon="12.29641992598772">
        <ele>82.68</ele>
        <time>2025-02-06T07:42:11.153Z</time>
      </trkpt>
      <trkpt lat="58.400445990264416" lon="12.296436941251159">
        <ele>82.82</ele>
        <time>2025-02-06T07:42:38.152Z</time>
      </trkpt>
      <trkpt lat="58.40036795474589" lon="12.296451944857836">
        <ele>82.96</ele>
        <time>2025-02-06T07:43:05.152Z</time>
      </trkpt>
      <trkpt lat="58.40028991922736" lon="12.296464936807752">
        <ele>83.1</ele>
        <time>2025-02-06T07:43:32.153Z</time>
      </trkpt>
      <trkpt lat="58.40021397918463" lon="12.296477928757668">
        <ele>83.25</ele>
        <time>2025-02-06T07:43:59.156Z</time>
      </trkpt>
      <trkpt lat="58.40013896115124" lon="12.296489998698235">
        <ele>83.39</ele>
        <time>2025-02-06T07:44:26.160Z</time>
      </trkpt>
      <trkpt lat="58.400066960603" lon="12.296499973163009">
        <ele>83.53</ele>
        <time>2025-02-06T07:44:53.165Z</time>
      </trkpt>
      <trkpt lat="58.39999898336828" lon="12.296508941799402">
        <ele>83.68</ele>
        <time>2025-02-06T07:45:20.171Z</time>
      </trkpt>
      <trkpt lat="58.399933939799666" lon="12.296516988426447">
        <ele>83.82</ele>
        <time>2025-02-06T07:45:47.178Z</time>
      </trkpt>
      <trkpt lat="58.39987099170685" lon="12.29652495123446">
        <ele>83.97</ele>
        <time>2025-02-06T07:46:14.186Z</time>
      </trkpt>
      <trkpt lat="58.399807959795" lon="12.296532997861505">
        <ele>84.11</ele>
        <time>2025-02-06T07:46:41.195Z</time>
      </trkpt>
      <trkpt lat="58.39974492788315" lon="12.296539954841137">
        <ele>84.26</ele>
        <time>2025-02-06T07:47:08.205Z</time>
      </trkpt>
      <trkpt lat="58.39968097396195" lon="12.29654598981142">
        <ele>84.4</ele>
        <time>2025-02-06T07:47:35.216Z</time>
      </trkpt>
      <trkpt lat="58.39961593039334" lon="12.296551940962672">
        <ele>84.55</ele>
        <time>2025-02-06T07:48:02.228Z</time>
      </trkpt>
      <trkpt lat="58.39955097064376" lon="12.296557975932956">
        <ele>84.7</ele>
        <time>2025-02-06T07:48:29.241Z</time>
      </trkpt>
      <trkpt lat="58.39948592707515" lon="12.296562921255827">
        <ele>84.85</ele>
        <time>2025-02-06T07:48:56.255Z</time>
      </trkpt>
      <trkpt lat="58.39941895566881" lon="12.296564932912588">
        <ele>84.99</ele>
        <time>2025-02-06T07:49:23.270Z</time>
      </trkpt>
      <trkpt lat="58.39935299009085" lon="12.29656694456935">
        <ele>85.14</ele>
        <time>2025-02-06T07:49:50.286Z</time>
      </trkpt>
      <trkpt lat="58.399287946522236" lon="12.296569962054491">
        <ele>85.29</ele>
        <time>2025-02-06T07:50:17.303Z</time>
      </trkpt>
      <trkpt lat="58.39922499842942" lon="12.296574991196394">
        <ele>85.44</ele>
        <time>2025-02-06T07:50:44.322Z</time>
      </trkpt>
      <trkpt lat="58.39916498400271" lon="12.296577924862504">
        <ele>85.59</ele>
        <time>2025-02-06T07:51:11.341Z</time>
      </trkpt>
      <trkpt lat="58.39910798706114" lon="12.296574991196394">
        <ele>85.74</ele>
        <time>2025-02-06T07:51:38.361Z</time>
      </trkpt>
      <trkpt lat="58.39905694127083" lon="12.296561999246478">
        <ele>85.88</ele>
        <time>2025-02-06T07:52:05.382Z</time>
      </trkpt>
      <trkpt lat="58.39901394210756" lon="12.296535931527615">
        <ele>86.03</ele>
        <time>2025-02-06T07:52:32.404Z</time>
      </trkpt>
      <trkpt lat="58.39897597208619" lon="12.296494944021106">
        <ele>86.17</ele>
        <time>2025-02-06T07:52:59.427Z</time>
      </trkpt>
      <trkpt lat="58.398943953216076" lon="12.29643794707954">
        <ele>86.32</ele>
        <time>2025-02-06T07:53:26.450Z</time>
      </trkpt>
      <trkpt lat="58.39892492629588" lon="12.296362929046154">
        <ele>86.46</ele>
        <time>2025-02-06T07:53:53.474Z</time>
      </trkpt>
      <trkpt lat="58.39891696348786" lon="12.296279948204756">
        <ele>86.61</ele>
        <time>2025-02-06T07:54:20.499Z</time>
      </trkpt>
      <trkpt lat="58.39890598319471" lon="12.29620493017137">
        <ele>86.75</ele>
        <time>2025-02-06T07:54:47.524Z</time>
      </trkpt>
      <trkpt lat="58.39888192713261" lon="12.29615899734199">
        <ele>86.9</ele>
        <time>2025-02-06T07:55:14.550Z</time>
      </trkpt>
      <trkpt lat="58.39885191991925" lon="12.296152962371707">
        <ele>87.04</ele>
        <time>2025-02-06T07:55:41.576Z</time>
      </trkpt>
      <trkpt lat="58.39881696738303" lon="12.296166960150003">
        <ele>87.18</ele>
        <time>2025-02-06T07:56:08.603Z</time>
      </trkpt>
      <trkpt lat="58.39877597987652" lon="12.296189926564693">
        <ele>87.31</ele>
        <time>2025-02-06T07:56:35.631Z</time>
      </trkpt>
      <trkpt lat="58.398728957399726" lon="12.296221945434809">
        <ele>87.45</ele>
        <time>2025-02-06T07:57:02.659Z</time>
      </trkpt>
      <trkpt lat="58.39867799542844" lon="12.296263938769698">
        <ele>87.58</ele>
        <time>2025-02-06T07:57:29.688Z</time>
      </trkpt>
      <trkpt lat="58.39862795546651" lon="12.29632998816669">
        <ele>87.71</ele>
        <time>2025-02-06T07:57:56.718Z</time>
      </trkpt>
      <trkpt lat="58.39859099127352" lon="12.296428978443146">
        <ele>87.84</ele>
        <time>2025-02-06T07:58:23.749Z</time>
      </trkpt>
      <trkpt lat="58.39856391772628" lon="12.29654892347753">
        <ele>87.97</ele>
        <time>2025-02-06T07:58:50.781Z</time>
      </trkpt>
      <trkpt lat="58.39853893965483" lon="12.296688985079527">
        <ele>88.09</ele>
        <time>2025-02-06T07:59:17.815Z</time>
      </trkpt>
      <trkpt lat="58.39852393604815" lon="12.29682695120573">
        <ele>88.23</ele>
        <time>2025-02-06T07:59:44.850Z</time>
      </trkpt>
      <trkpt lat="58.39850197546184" lon="12.296938933432102">
        <ele>88.35</ele>
        <time>2025-02-06T08:00:11.886Z</time>
      </trkpt>
      <trkpt lat="58.39845696464181" lon="12.297029960900545">
        <ele>88.48</ele>
        <time>2025-02-06T08:00:38.923Z</time>
      </trkpt>
      <trkpt lat="58.398404996842146" lon="12.297080922871828">
        <ele>88.6</ele>
        <time>2025-02-06T08:01:05.961Z</time>
      </trkpt>
      <trkpt lat="58.39835294522345" lon="12.297115959227085">
        <ele>88.72</ele>
        <time>2025-02-06T08:01:33.000Z</time>
      </trkpt>
      <trkpt lat="58.398295948281884" lon="12.297151917591691">
        <ele>88.84</ele>
        <time>2025-02-06T08:02:00.040Z</time>
      </trkpt>
      <trkpt lat="58.39823794551194" lon="12.29718997143209">
        <ele>88.95</ele>
        <time>2025-02-06T08:02:27.081Z</time>
      </trkpt>
      <trkpt lat="58.39818094857037" lon="12.297235988080502">
        <ele>89.07</ele>
        <time>2025-02-06T08:02:54.123Z</time>
      </trkpt>
      <trkpt lat="58.398125963285565" lon="12.297286950051785">
        <ele>89.18</ele>
        <time>2025-02-06T08:03:21.166Z</time>
      </trkpt>
      <trkpt lat="58.398068966344" lon="12.297329949215055">
        <ele>89.29</ele>
        <time>2025-02-06T08:03:48.210Z</time>
      </trkpt>
      <trkpt lat="58.39800995774567" lon="12.297367919236422">
        <ele>89.39</ele>
        <time>2025-02-06T08:04:15.255Z</time>
      </trkpt>
      <trkpt lat="58.3979479316622" lon="12.297401949763298">
        <ele>89.5</ele>
        <time>2025-02-06T08:04:42.301Z</time>
      </trkpt>
      <trkpt lat="58.397883977741" lon="12.297435980290174">
        <ele>89.6</ele>
        <time>2025-02-06T08:05:09.348Z</time>
      </trkpt>
      <trkpt lat="58.39781994000077" lon="12.297474956139922">
        <ele>89.69</ele>
        <time>2025-02-06T08:05:36.396Z</time>
      </trkpt>
      <trkpt lat="58.39775498025119" lon="12.297520972788334">
        <ele>89.79</ele>
        <time>2025-02-06T08:06:03.445Z</time>
      </trkpt>
      <trkpt lat="58.39768993668258" lon="12.297567995265126">
        <ele>89.88</ele>
        <time>2025-02-06T08:06:30.495Z</time>
      </trkpt>
      <trkpt lat="58.397627994418144" lon="12.297613928094506">
        <ele>89.97</ele>
        <time>2025-02-06T08:06:57.546Z</time>
      </trkpt>
      <trkpt lat="58.397563956677914" lon="12.297660950571299">
        <ele>90.06</ele>
        <time>2025-02-06T08:07:24.598Z</time>
      </trkpt>
      <trkpt lat="58.397500924766064" lon="12.29770596139133">
        <ele>90.14</ele>
        <time>2025-02-06T08:07:51.651Z</time>
      </trkpt>
      <trkpt lat="58.397437976673245" lon="12.297750972211361">
        <ele>90.22</ele>
        <time>2025-02-06T08:08:18.705Z</time>
      </trkpt>
      <trkpt lat="58.397375950589776" lon="12.297796988859773">
        <ele>90.31</ele>
        <time>2025-02-06T08:08:45.760Z</time>
      </trkpt>
      <trkpt lat="58.39731593616307" lon="12.297845939174294">
        <ele>90.39</ele>
        <time>2025-02-06T08:09:12.817Z</time>
      </trkpt>
      <trkpt lat="58.39725592173636" lon="12.297892961651087">
        <ele>90.46</ele>
        <time>2025-02-06T08:09:39.875Z</time>
      </trkpt>
      <trkpt lat="58.3971949853003" lon="12.29794291779399">
        <ele>90.52</ele>
        <time>2025-02-06T08:10:06.934Z</time>
      </trkpt>
      <trkpt lat="58.397134970873594" lon="12.297996981069446">
        <ele>90.59</ele>
        <time>2025-02-06T08:10:33.994Z</time>
      </trkpt>
      <trkpt lat="58.397071938961744" lon="12.298052972182631">
        <ele>90.64</ele>
        <time>2025-02-06T08:11:01.055Z</time>
      </trkpt>
      <trkpt lat="58.397007985040545" lon="12.298110974952579">
        <ele>90.7</ele>
        <time>2025-02-06T08:11:28.117Z</time>
      </trkpt>
      <trkpt lat="58.396941935643554" lon="12.298170989379287">
        <ele>90.74</ele>
        <time>2025-02-06T08:11:55.180Z</time>
      </trkpt>
      <trkpt lat="58.396875970065594" lon="12.298233937472105">
        <ele>90.79</ele>
        <time>2025-02-06T08:12:22.244Z</time>
      </trkpt>
      <trkpt lat="58.39680497534573" lon="12.298295963555574">
        <ele>90.83</ele>
        <time>2025-02-06T08:12:49.310Z</time>
      </trkpt>
      <trkpt lat="58.39673498645425" lon="12.298363940790296">
        <ele>90.87</ele>
        <time>2025-02-06T08:13:16.377Z</time>
      </trkpt>
      <trkpt lat="58.396663991734385" lon="12.298431918025017">
        <ele>90.9</ele>
        <time>2025-02-06T08:13:43.445Z</time>
      </trkpt>
      <trkpt lat="58.39659098535776" lon="12.29849997907877">
        <ele>90.93</ele>
        <time>2025-02-06T08:14:10.514Z</time>
      </trkpt>
      <trkpt lat="58.39651697315276" lon="12.298569967970252">
        <ele>90.96</ele>
        <time>2025-02-06T08:14:37.585Z</time>
      </trkpt>
      <trkpt lat="58.39644396677613" lon="12.298639956861734">
        <ele>90.99</ele>
        <time>2025-02-06T08:15:04.657Z</time>
      </trkpt>
      <trkpt lat="58.39637096039951" lon="12.298712963238358">
        <ele>91.01</ele>
        <time>2025-02-06T08:15:31.730Z</time>
      </trkpt>
      <trkpt lat="58.396297954022884" lon="12.298785969614983">
        <ele>91.02</ele>
        <time>2025-02-06T08:15:58.805Z</time>
      </trkpt>
      <trkpt lat="58.39622193016112" lon="12.298857970163226">
        <ele>91.03</ele>
        <time>2025-02-06T08:16:25.881Z</time>
      </trkpt>
      <trkpt lat="58.39614297263324" lon="12.29892997071147">
        <ele>91.04</ele>
        <time>2025-02-06T08:16:52.958Z</time>
      </trkpt>
      <trkpt lat="58.396063931286335" lon="12.299004988744855">
        <ele>91.04</ele>
        <time>2025-02-06T08:17:20.037Z</time>
      </trkpt>
      <trkpt lat="58.39598396793008" lon="12.299084952101111">
        <ele>91.04</ele>
        <time>2025-02-06T08:17:47.117Z</time>
      </trkpt>
      <trkpt lat="58.39590299874544" lon="12.29916893877089">
        <ele>91.03</ele>
        <time>2025-02-06T08:18:14.199Z</time>
      </trkpt>
      <trkpt lat="58.39582194574177" lon="12.29925493709743">
        <ele>91.01</ele>
        <time>2025-02-06T08:18:41.282Z</time>
      </trkpt>
      <trkpt lat="58.395740976557136" lon="12.29934093542397">
        <ele>91.0</ele>
        <time>2025-02-06T08:19:08.367Z</time>
      </trkpt>
      <trkpt lat="58.39566092938185" lon="12.29942693375051">
        <ele>90.98</ele>
        <time>2025-02-06T08:19:35.453Z</time>
      </trkpt>
      <trkpt lat="58.39558096602559" lon="12.299514943733811">
        <ele>90.96</ele>
        <time>2025-02-06T08:20:02.541Z</time>
      </trkpt>
      <trkpt lat="58.395499996840954" lon="12.29959993623197">
        <ele>90.94</ele>
        <time>2025-02-06T08:20:29.630Z</time>
      </trkpt>
      <trkpt lat="58.395418943837285" lon="12.29968199506402">
        <ele>90.92</ele>
        <time>2025-02-06T08:20:56.721Z</time>
      </trkpt>
      <trkpt lat="58.39533998630941" lon="12.29976992122829">
        <ele>90.89</ele>
        <time>2025-02-06T08:21:23.813Z</time>
      </trkpt>
      <trkpt lat="58.39525893330574" lon="12.29985692538321">
        <ele>90.86</ele>
        <time>2025-02-06T08:21:50.907Z</time>
      </trkpt>
      <trkpt lat="58.395178969949484" lon="12.29993999004364">
        <ele>90.83</ele>
        <time>2025-02-06T08:22:18.002Z</time>
      </trkpt>
      <trkpt lat="58.395097916945815" lon="12.300021965056658">
        <ele>90.79</ele>
        <time>2025-02-06T08:22:45.099Z</time>
      </trkpt>
      <trkpt lat="58.39501795358956" lon="12.300103940069675">
        <ele>90.75</ele>
        <time>2025-02-06T08:23:12.197Z</time>
      </trkpt>
      <trkpt lat="58.3949379902333" lon="12.300185998901725">
        <ele>90.7</ele>
        <time>2025-02-06T08:23:39.296Z</time>
      </trkpt>
      <trkpt lat="58.394861966371536" lon="12.300270991399884">
        <ele>90.64</ele>
        <time>2025-02-06T08:24:06.397Z</time>
      </trkpt>
      <trkpt lat="58.39478393085301" lon="12.300355983898044">
        <ele>90.58</ele>
        <time>2025-02-06T08:24:33.499Z</time>
      </trkpt>
      <trkpt lat="58.39470497332513" lon="12.30043695308268">
        <ele>90.52</ele>
        <time>2025-02-06T08:25:00.603Z</time>
      </trkpt>
      <trkpt lat="58.394625931978226" lon="12.300517922267318">
        <ele>90.45</ele>
        <time>2025-02-06T08:25:27.708Z</time>
      </trkpt>
      <trkpt lat="58.39454798027873" lon="12.300598975270987">
        <ele>90.38</ele>
        <time>2025-02-06T08:25:54.815Z</time>
      </trkpt>
      <trkpt lat="58.394470950588584" lon="12.300682961940765">
        <ele>90.31</ele>
        <time>2025-02-06T08:26:21.923Z</time>
      </trkpt>
      <trkpt lat="58.39439492672682" lon="12.300766948610544">
        <ele>90.23</ele>
        <time>2025-02-06T08:26:49.032Z</time>
      </trkpt>
      <trkpt lat="58.39431697502732" lon="12.300847917795181">
        <ele>90.14</ele>
        <time>2025-02-06T08:27:16.143Z</time>
      </trkpt>
      <trkpt lat="58.394235922023654" lon="12.300926959142089">
        <ele>90.05</ele>
        <time>2025-02-06T08:27:43.255Z</time>
      </trkpt>
      <trkpt lat="58.394151935353875" lon="12.301009939983487">
        <ele>89.95</ele>
        <time>2025-02-06T08:28:10.369Z</time>
      </trkpt>
      <trkpt lat="58.394067948684096" lon="12.301096944138408">
        <ele>89.85</ele>
        <time>2025-02-06T08:28:37.484Z</time>
      </trkpt>
      <trkpt lat="58.393981950357556" lon="12.30118696577847">
        <ele>89.75</ele>
        <time>2025-02-06T08:29:04.601Z</time>
      </trkpt>
      <trkpt lat="58.3938969578594" lon="12.301275981590152">
        <ele>89.64</ele>
        <time>2025-02-06T08:29:31.720Z</time>
      </trkpt>
      <trkpt lat="58.393809953704476" lon="12.301363991573453">
        <ele>89.53</ele>
        <time>2025-02-06T08:29:58.840Z</time>
      </trkpt>
      <trkpt lat="58.39372496120632" lon="12.301454935222864">
        <ele>89.41</ele>
        <time>2025-02-06T08:30:25.962Z</time>
      </trkpt>
      <trkpt lat="58.3936429861933" lon="12.301546968519688">
        <ele>89.29</ele>
        <time>2025-02-06T08:30:53.085Z</time>
      </trkpt>
      <trkpt lat="58.39355992153287" lon="12.301634978502989">
        <ele>89.17</ele>
        <time>2025-02-06T08:31:20.210Z</time>
      </trkpt>
      <trkpt lat="58.39347593486309" lon="12.30172198265791">
        <ele>89.05</ele>
        <time>2025-02-06T08:31:47.336Z</time>
      </trkpt>
      <trkpt lat="58.39339496567845" lon="12.30180798098445">
        <ele>88.92</ele>
        <time>2025-02-06T08:32:14.464Z</time>
      </trkpt>
      <trkpt lat="58.393311984837055" lon="12.301892973482609">
        <ele>88.79</ele>
        <time>2025-02-06T08:32:41.593Z</time>
      </trkpt>
      <trkpt lat="58.393229926005006" lon="12.301975954324007">
        <ele>88.66</ele>
        <time>2025-02-06T08:33:08.724Z</time>
      </trkpt>
      <trkpt lat="58.39314996264875" lon="12.302059940993786">
        <ele>88.52</ele>
        <time>2025-02-06T08:33:35.856Z</time>
      </trkpt>
      <trkpt lat="58.39306999929249" lon="12.302140993997455">
        <ele>88.37</ele>
        <time>2025-02-06T08:34:02.990Z</time>
      </trkpt>
      <trkpt lat="58.392990957945585" lon="12.302216934040189">
        <ele>88.22</ele>
        <time>2025-02-06T08:34:30.125Z</time>
      </trkpt>
      <trkpt lat="58.39290898293257" lon="12.302289940416813">
        <ele>88.07</ele>
        <time>2025-02-06T08:34:57.262Z</time>
      </trkpt>
      <trkpt lat="58.39282499626279" lon="12.302361940965056">
        <ele>87.91</ele>
        <time>2025-02-06T08:35:24.400Z</time>
      </trkpt>
      <trkpt lat="58.39273698627949" lon="12.302431929856539">
        <ele>87.75</ele>
        <time>2025-02-06T08:35:51.540Z</time>
      </trkpt>
      <trkpt lat="58.39265098795295" lon="12.302507953718305">
        <ele>87.59</ele>
        <time>2025-02-06T08:36:18.681Z</time>
      </trkpt>
      <trkpt lat="58.39256792329252" lon="12.302586995065212">
        <ele>87.42</ele>
        <time>2025-02-06T08:36:45.824Z</time>
      </trkpt>
      <trkpt lat="58.39248393662274" lon="12.302663940936327">
        <ele>87.25</ele>
        <time>2025-02-06T08:37:12.968Z</time>
      </trkpt>
      <trkpt lat="58.3923979382962" lon="12.302738958969712">
        <ele>87.07</ele>
        <time>2025-02-06T08:37:40.114Z</time>
      </trkpt>
      <trkpt lat="58.39231193996966" lon="12.302811965346336">
        <ele>86.89</ele>
        <time>2025-02-06T08:38:07.261Z</time>
      </trkpt>
      <trkpt lat="58.39222594164312" lon="12.302881954237819">
        <ele>86.7</ele>
        <time>2025-02-06T08:38:34.410Z</time>
      </trkpt>
      <trkpt lat="58.39214094914496" lon="12.30294599197805">
        <ele>86.51</ele>
        <time>2025-02-06T08:39:01.560Z</time>
      </trkpt>
      <trkpt lat="58.39205495081842" lon="12.303003994747996">
        <ele>86.32</ele>
        <time>2025-02-06T08:39:28.712Z</time>
      </trkpt>
      <trkpt lat="58.39196492917836" lon="12.303058980032802">
        <ele>86.12</ele>
        <time>2025-02-06T08:39:55.865Z</time>
      </trkpt>
      <trkpt lat="58.39187599718571" lon="12.30311798863113">
        <ele>85.91</ele>
        <time>2025-02-06T08:40:23.020Z</time>
      </trkpt>
      <trkpt lat="58.391786981374025" lon="12.303175991401076">
        <ele>85.7</ele>
        <time>2025-02-06T08:40:50.176Z</time>
      </trkpt>
      <trkpt lat="58.391698971390724" lon="12.30322795920074">
        <ele>85.49</ele>
        <time>2025-02-06T08:41:17.334Z</time>
      </trkpt>
      <trkpt lat="58.39160794392228" lon="12.303277999162674">
        <ele>85.28</ele>
        <time>2025-02-06T08:41:44.493Z</time>
      </trkpt>
      <trkpt lat="58.39151792228222" lon="12.303328961133957">
        <ele>85.06</ele>
        <time>2025-02-06T08:42:11.654Z</time>
      </trkpt>
      <trkpt lat="58.39142798446119" lon="12.30337992310524">
        <ele>84.84</ele>
        <time>2025-02-06T08:42:38.816Z</time>
      </trkpt>
      <trkpt lat="58.39133896864951" lon="12.303427951410413">
        <ele>84.62</ele>
        <time>2025-02-06T08:43:05.980Z</time>
      </trkpt>
      <trkpt lat="58.391249952837825" lon="12.303474973887205">
        <ele>84.4</ele>
        <time>2025-02-06T08:43:33.145Z</time>
      </trkpt>
      <trkpt lat="58.391162948682904" lon="12.303522918373346">
        <ele>84.17</ele>
        <time>2025-02-06T08:44:00.311Z</time>
      </trkpt>
      <trkpt lat="58.391076950356364" lon="12.303569940850139">
        <ele>83.94</ele>
        <time>2025-02-06T08:44:27.479Z</time>
      </trkpt>
      <trkpt lat="58.390991957858205" lon="12.303612940013409">
        <ele>83.72</ele>
        <time>2025-02-06T08:44:54.648Z</time>
      </trkpt>
      <trkpt lat="58.390906965360045" lon="12.303649988025427">
        <ele>83.5</ele>
        <time>2025-02-06T08:45:21.819Z</time>
      </trkpt>
      <trkpt lat="58.39082297869027" lon="12.303686952218413">
        <ele>83.26</ele>
        <time>2025-02-06T08:45:48.991Z</time>
      </trkpt>
      <trkpt lat="58.39073798619211" lon="12.303727939724922">
        <ele>83.03</ele>
        <time>2025-02-06T08:46:16.165Z</time>
      </trkpt>
      <trkpt lat="58.39065299369395" lon="12.303773956373334">
        <ele>82.78</ele>
        <time>2025-02-06T08:46:43.340Z</time>
      </trkpt>
      <trkpt lat="58.39056699536741" lon="12.303819973021746">
        <ele>82.53</ele>
        <time>2025-02-06T08:47:10.516Z</time>
      </trkpt>
      <trkpt lat="58.39047898538411" lon="12.303865989670157">
        <ele>82.29</ele>
        <time>2025-02-06T08:47:37.694Z</time>
      </trkpt>
      <trkpt lat="58.390388963744044" lon="12.303909994661808">
        <ele>82.04</ele>
        <time>2025-02-06T08:48:04.873Z</time>
      </trkpt>
      <trkpt lat="58.39029894210398" lon="12.303948970511556">
        <ele>81.79</ele>
        <time>2025-02-06T08:48:32.054Z</time>
      </trkpt>
      <trkpt lat="58.39020892046392" lon="12.303988952189684">
        <ele>81.53</ele>
        <time>2025-02-06T08:48:59.236Z</time>
      </trkpt>
      <trkpt lat="58.39011998847127" lon="12.304030945524573">
        <ele>81.26</ele>
        <time>2025-02-06T08:49:26.420Z</time>
      </trkpt>
      <trkpt lat="58.39003097265959" lon="12.304074950516224">
        <ele>80.99</ele>
        <time>2025-02-06T08:49:53.605Z</time>
      </trkpt>
      <trkpt lat="58.389941956847906" lon="12.304120967164636">
        <ele>80.72</ele>
        <time>2025-02-06T08:50:20.792Z</time>
      </trkpt>
      <trkpt lat="58.389852941036224" lon="12.304166983813047">
        <ele>80.46</ele>
        <time>2025-02-06T08:50:47.980Z</time>
      </trkpt>
      <trkpt lat="58.38976291939616" lon="12.304212916642427">
        <ele>80.18</ele>
        <time>2025-02-06T08:51:15.170Z</time>
      </trkpt>
      <trkpt lat="58.38967298157513" lon="12.30425599962473">
        <ele>79.91</ele>
        <time>2025-02-06T08:51:42.361Z</time>
      </trkpt>
      <trkpt lat="58.38958295993507" lon="12.304299920797348">
        <ele>79.64</ele>
        <time>2025-02-06T08:52:09.554Z</time>
      </trkpt>
      <trkpt lat="58.38949394412339" lon="12.30434199795127">
        <ele>79.36</ele>
        <time>2025-02-06T08:52:36.748Z</time>
      </trkpt>
      <trkpt lat="58.389400988817215" lon="12.304383991286159">
        <ele>79.08</ele>
        <time>2025-02-06T08:53:03.944Z</time>
      </trkpt>
      <trkpt lat="58.38930694386363" lon="12.304426990449429">
        <ele>78.8</ele>
        <time>2025-02-06T08:53:31.141Z</time>
      </trkpt>
      <trkpt lat="58.38921398855746" lon="12.304469989612699">
        <ele>78.51</ele>
        <time>2025-02-06T08:53:58.340Z</time>
      </trkpt>
      <trkpt lat="58.389120949432254" lon="12.30451399460435">
        <ele>78.22</ele>
        <time>2025-02-06T08:54:25.540Z</time>
      </trkpt>
      <trkpt lat="58.38902598246932" lon="12.30456193909049">
        <ele>77.94</ele>
        <time>2025-02-06T08:54:52.742Z</time>
      </trkpt>
      <trkpt lat="58.388929925858974" lon="12.304610973224044">
        <ele>77.66</ele>
        <time>2025-02-06T08:55:19.945Z</time>
      </trkpt>
      <trkpt lat="58.3888319414109" lon="12.304657995700836">
        <ele>77.37</ele>
        <time>2025-02-06T08:55:47.150Z</time>
      </trkpt>
      <trkpt lat="58.38873295113444" lon="12.304707951843739">
        <ele>77.08</ele>
        <time>2025-02-06T08:56:14.357Z</time>
      </trkpt>
      <trkpt lat="58.388629937544465" lon="12.304755980148911">
        <ele>76.79</ele>
        <time>2025-02-06T08:56:41.565Z</time>
      </trkpt>
      <trkpt lat="58.38852893561125" lon="12.304799985140562">
        <ele>76.5</ele>
        <time>2025-02-06T08:57:08.775Z</time>
      </trkpt>
      <trkpt lat="58.38842692784965" lon="12.30483996681869">
        <ele>76.21</ele>
        <time>2025-02-06T08:57:35.987Z</time>
      </trkpt>
      <trkpt lat="58.38832299225032" lon="12.3048809543252">
        <ele>75.92</ele>
        <time>2025-02-06T08:58:03.200Z</time>
      </trkpt>
      <trkpt lat="58.388219978660345" lon="12.304921941831708">
        <ele>75.62</ele>
        <time>2025-02-06T08:58:30.415Z</time>
      </trkpt>
      <trkpt lat="58.388115959241986" lon="12.304956978186965">
        <ele>75.32</ele>
        <time>2025-02-06T08:58:57.632Z</time>
      </trkpt>
      <trkpt lat="58.38801193982363" lon="12.304986985400319">
        <ele>75.02</ele>
        <time>2025-02-06T08:59:24.851Z</time>
      </trkpt>
      <trkpt lat="58.38790699839592" lon="12.30501196347177">
        <ele>74.72</ele>
        <time>2025-02-06T08:59:52.071Z</time>
      </trkpt>
      <trkpt lat="58.38780197314918" lon="12.305027972906828">
        <ele>74.42</ele>
        <time>2025-02-06T09:00:19.293Z</time>
      </trkpt>
      <trkpt lat="58.38769493624568" lon="12.305039959028363">
        <ele>74.11</ele>
        <time>2025-02-06T09:00:46.517Z</time>
      </trkpt>
      <trkpt lat="58.38758898898959" lon="12.305047921836376">
        <ele>73.81</ele>
        <time>2025-02-06T09:01:13.742Z</time>
      </trkpt>
      <trkpt lat="58.38748295791447" lon="12.305050939321518">
        <ele>73.51</ele>
        <time>2025-02-06T09:01:40.969Z</time>
      </trkpt>
      <trkpt lat="58.38737692683935" lon="12.305045993998647">
        <ele>73.2</ele>
        <time>2025-02-06T09:02:08.198Z</time>
      </trkpt>
      <trkpt lat="58.3872689679265" lon="12.30503392405808">
        <ele>72.89</ele>
        <time>2025-02-06T09:02:35.428Z</time>
      </trkpt>
      <trkpt lat="58.387161931023" lon="12.305019926279783">
        <ele>72.59</ele>
        <time>2025-02-06T09:03:02.660Z</time>
      </trkpt>
      <trkpt lat="58.38705397211015" lon="12.305002994835377">
        <ele>72.28</ele>
        <time>2025-02-06T09:03:29.894Z</time>
      </trkpt>
      <trkpt lat="58.38694391772151" lon="12.304982962086797">
        <ele>71.97</ele>
        <time>2025-02-06T09:03:57.130Z</time>
      </trkpt>
      <trkpt lat="58.3868339471519" lon="12.304956978186965">
        <ele>71.67</ele>
        <time>2025-02-06T09:04:24.367Z</time>
      </trkpt>
      <trkpt lat="58.38672297075391" lon="12.30492697097361">
        <ele>71.37</ele>
        <time>2025-02-06T09:04:51.606Z</time>
      </trkpt>
      <trkpt lat="58.386612916365266" lon="12.304894952103496">
        <ele>71.06</ele>
        <time>2025-02-06T09:05:18.847Z</time>
      </trkpt>
      <trkpt lat="58.38649992831051" lon="12.304851952940226">
        <ele>70.76</ele>
        <time>2025-02-06T09:05:46.090Z</time>
      </trkpt>
      <trkpt lat="58.3863899577409" lon="12.3047979734838">
        <ele>70.46</ele>
        <time>2025-02-06T09:06:13.335Z</time>
      </trkpt>
      <trkpt lat="58.38627998717129" lon="12.304741982370615">
        <ele>70.15</ele>
        <time>2025-02-06T09:06:40.582Z</time>
      </trkpt>
      <trkpt lat="58.38617093861103" lon="12.30468599125743">
        <ele>69.85</ele>
        <time>2025-02-06T09:07:07.830Z</time>
      </trkpt>
      <trkpt lat="58.38606096804142" lon="12.304629916325212">
        <ele>69.54</ele>
        <time>2025-02-06T09:07:35.080Z</time>
      </trkpt>
      <trkpt lat="58.38595191948116" lon="12.304583983495831">
        <ele>69.24</ele>
        <time>2025-02-06T09:08:02.332Z</time>
      </trkpt>
      <trkpt lat="58.38584898971021" lon="12.3045389726758">
        <ele>68.93</ele>
        <time>2025-02-06T09:08:29.586Z</time>
      </trkpt>
      <trkpt lat="58.38575595058501" lon="12.304489938542247">
        <ele>68.62</ele>
        <time>2025-02-06T09:08:56.841Z</time>
      </trkpt>
      <trkpt lat="58.38567397557199" lon="12.304442999884486">
        <ele>68.32</ele>
        <time>2025-02-06T09:09:24.098Z</time>
      </trkpt>
      <trkpt lat="58.38560197502375" lon="12.304400922730565">
        <ele>68.01</ele>
        <time>2025-02-06T09:09:51.356Z</time>
      </trkpt>
      <trkpt lat="58.385534919798374" lon="12.304359935224056">
        <ele>67.71</ele>
        <time>2025-02-06T09:10:18.615Z</time>
      </trkpt>
      <trkpt lat="58.38546694256365" lon="12.304318947717547">
        <ele>67.4</ele>
        <time>2025-02-06T09:10:45.875Z</time>
      </trkpt>
      <trkpt lat="58.38539795950055" lon="12.30428097769618">
        <ele>67.09</ele>
        <time>2025-02-06T09:11:13.136Z</time>
      </trkpt>
      <trkpt lat="58.385321935638785" lon="12.30423797853291">
        <ele>66.79</ele>
        <time>2025-02-06T09:11:40.399Z</time>
      </trkpt>
      <trkpt lat="58.38524993509054" lon="12.304200930520892">
        <ele>66.48</ele>
        <time>2025-02-06T09:12:07.663Z</time>
      </trkpt>
      <trkpt lat="58.38517692871392" lon="12.304162960499525">
        <ele>66.17</ele>
        <time>2025-02-06T09:12:34.928Z</time>
      </trkpt>
      <trkpt lat="58.385104928165674" lon="12.304123984649777">
        <ele>65.87</ele>
        <time>2025-02-06T09:13:02.194Z</time>
      </trkpt>
      <trkpt lat="58.38503292761743" lon="12.304085930809379">
        <ele>65.56</ele>
        <time>2025-02-06T09:13:29.461Z</time>
      </trkpt>
      <trkpt lat="58.38496495038271" lon="12.30404594913125">
        <ele>65.26</ele>
        <time>2025-02-06T09:13:56.729Z</time>
      </trkpt>
      <trkpt lat="58.38490393012762" lon="12.304009990766644">
        <ele>64.96</ele>
        <time>2025-02-06T09:14:23.998Z</time>
      </trkpt>
      <trkpt lat="58.384846933186054" lon="12.303968919441104">
        <ele>64.66</ele>
        <time>2025-02-06T09:14:51.268Z</time>
      </trkpt>
      <trkpt lat="58.38479295372963" lon="12.303926926106215">
        <ele>64.36</ele>
        <time>2025-02-06T09:15:18.539Z</time>
      </trkpt>
      <trkpt lat="58.384740985929966" lon="12.30389197356999">
        <ele>64.06</ele>
        <time>2025-02-06T09:15:45.811Z</time>
      </trkpt>
      <trkpt lat="58.38468692265451" lon="12.303864983841777">
        <ele>63.76</ele>
        <time>2025-02-06T09:16:13.084Z</time>
      </trkpt>
      <trkpt lat="58.384630931541324" lon="12.3038499802351">
        <ele>63.46</ele>
        <time>2025-02-06T09:16:40.358Z</time>
      </trkpt>
      <trkpt lat="58.384570917114615" lon="12.30385391972959">
        <ele>63.17</ele>
        <time>2025-02-06T09:17:07.633Z</time>
      </trkpt>
      <trkpt lat="58.3845129981637" lon="12.30389398522675">
        <ele>62.87</ele>
        <time>2025-02-06T09:17:34.909Z</time>
      </trkpt>
      <trkpt lat="58.384461952373385" lon="12.303971936926246">
        <ele>62.58</ele>
        <time>2025-02-06T09:18:02.186Z</time>
      </trkpt>
      <trkpt lat="58.384418953210115" lon="12.304069921374321">
        <ele>62.29</ele>
        <time>2025-02-06T09:18:29.464Z</time>
      </trkpt>
      <trkpt lat="58.38438098318875" lon="12.304163966327906">
        <ele>62.0</ele>
        <time>2025-02-06T09:18:56.743Z</time>
      </trkpt>
      <trkpt lat="58.38434393517673" lon="12.304242923855782">
        <ele>61.71</ele>
        <time>2025-02-06T09:19:24.023Z</time>
      </trkpt>
      <trkpt lat="58.38429599069059" lon="12.304304949939251">
        <ele>61.43</ele>
        <time>2025-02-06T09:19:51.304Z</time>
      </trkpt>
      <trkpt lat="58.3842349704355" lon="12.304340992122889">
        <ele>61.15</ele>
        <time>2025-02-06T09:20:18.586Z</time>
      </trkpt>
      <trkpt lat="58.38416799902916" lon="12.304339986294508">
        <ele>60.86</ele>
        <time>2025-02-06T09:20:45.869Z</time>
      </trkpt>
      <trkpt lat="58.38410295546055" lon="12.304293969646096">
        <ele>60.58</ele>
        <time>2025-02-06T09:21:13.153Z</time>
      </trkpt>
      <trkpt lat="58.3840449526906" lon="12.304224986582994">
        <ele>60.3</ele>
        <time>2025-02-06T09:21:40.438Z</time>
      </trkpt>
      <trkpt lat="58.383988961577415" lon="12.304152986034751">
        <ele>60.02</ele>
        <time>2025-02-06T09:22:07.724Z</time>
      </trkpt>
      <trkpt lat="58.38393297046423" lon="12.304092971608043">
        <ele>59.74</ele>
        <time>2025-02-06T09:22:35.011Z</time>
      </trkpt>
      <trkpt lat="58.383879996836185" lon="12.30404393747449">
        <ele>59.46</ele>
        <time>2025-02-06T09:23:02.299Z</time>
      </trkpt>
      <trkpt lat="58.38382895104587" lon="12.304019965231419">
        <ele>59.19</ele>
        <time>2025-02-06T09:23:29.588Z</time>
      </trkpt>
      <trkpt lat="58.383772959932685" lon="12.304018959403038">
        <ele>58.91</ele>
        <time>2025-02-06T09:23:56.878Z</time>
      </trkpt>
      <trkpt lat="58.38372493162751" lon="12.30404494330287">
        <ele>58.64</ele>
        <time>2025-02-06T09:24:24.169Z</time>
      </trkpt>
      <trkpt lat="58.383686961606145" lon="12.304082997143269">
        <ele>58.38</ele>
        <time>2025-02-06T09:24:51.461Z</time>
      </trkpt>
      <trkpt lat="58.38365494273603" lon="12.304143933579326">
        <ele>58.11</ele>
        <time>2025-02-06T09:25:18.753Z</time>
      </trkpt>
      <trkpt lat="58.38362795300782" lon="12.304211994633079">
        <ele>57.84</ele>
        <time>2025-02-06T09:25:46.046Z</time>
      </trkpt>
      <trkpt lat="58.38360498659313" lon="12.30427896603942">
        <ele>57.57</ele>
        <time>2025-02-06T09:26:13.340Z</time>
      </trkpt>
      <trkpt lat="58.38358595967293" lon="12.304351972416043">
        <ele>57.31</ele>
        <time>2025-02-06T09:26:40.634Z</time>
      </trkpt>
      <trkpt lat="58.38356693275273" lon="12.304426990449429">
        <ele>57.05</ele>
        <time>2025-02-06T09:27:07.929Z</time>
      </trkpt>
      <trkpt lat="58.38354698382318" lon="12.30451692827046">
        <ele>56.79</ele>
        <time>2025-02-06T09:27:35.225Z</time>
      </trkpt>
      <trkpt lat="58.38352594524622" lon="12.304613990709186">
        <ele>56.53</ele>
        <time>2025-02-06T09:28:02.522Z</time>
      </trkpt>
      <trkpt lat="58.38350398465991" lon="12.30471096932888">
        <ele>56.27</ele>
        <time>2025-02-06T09:28:29.820Z</time>
      </trkpt>
      <trkpt lat="58.38348495773971" lon="12.304800990968943">
        <ele>56.02</ele>
        <time>2025-02-06T09:28:57.119Z</time>
      </trkpt>
      <trkpt lat="58.38345495052636" lon="12.304891934618354">
        <ele>55.76</ele>
        <time>2025-02-06T09:29:24.418Z</time>
      </trkpt>
      <trkpt lat="58.38341999799013" lon="12.304975921288133">
        <ele>55.5</ele>
        <time>2025-02-06T09:29:51.718Z</time>
      </trkpt>
      <trkpt lat="58.383386973291636" lon="12.305043982341886">
        <ele>55.25</ele>
        <time>2025-02-06T09:30:19.019Z</time>
      </trkpt>
      <trkpt lat="58.383364928886294" lon="12.305115982890129">
        <ele>54.99</ele>
        <time>2025-02-06T09:30:46.321Z</time>
      </trkpt>
      <trkpt lat="58.3833559602499" lon="12.30518496595323">
        <ele>54.74</ele>
        <time>2025-02-06T09:31:13.623Z</time>
      </trkpt>
      <trkpt lat="58.38335394859314" lon="12.305255960673094">
        <ele>54.49</ele>
        <time>2025-02-06T09:31:40.926Z</time>
      </trkpt>
      <trkpt lat="58.38334699161351" lon="12.305329972878098">
        <ele>54.24</ele>
        <time>2025-02-06T09:32:08.230Z</time>
      </trkpt>
      <trkpt lat="58.38333198800683" lon="12.305402979254723">
        <ele>53.99</ele>
        <time>2025-02-06T09:32:35.534Z</time>
      </trkpt>
      <trkpt lat="58.38331497274339" lon="12.305471962317824">
        <ele>53.74</ele>
        <time>2025-02-06T09:33:02.839Z</time>
      </trkpt>
      <trkpt lat="58.38329292833805" lon="12.305535916239023">
        <ele>53.5</ele>
        <time>2025-02-06T09:33:30.145Z</time>
      </trkpt>
      <trkpt lat="58.38326593860984" lon="12.30558997951448">
        <ele>53.26</ele>
        <time>2025-02-06T09:33:57.451Z</time>
      </trkpt>
      <trkpt lat="58.383232997730374" lon="12.30563792400062">
        <ele>53.02</ele>
        <time>2025-02-06T09:34:24.758Z</time>
      </trkpt>
      <trkpt lat="58.38319997303188" lon="12.305692993104458">
        <ele>52.78</ele>
        <time>2025-02-06T09:34:52.066Z</time>
      </trkpt>
      <trkpt lat="58.38317398913205" lon="12.305764993652701">
        <ele>52.54</ele>
        <time>2025-02-06T09:35:19.374Z</time>
      </trkpt>
      <trkpt lat="58.38315496221185" lon="12.30585291981697">
        <ele>52.3</ele>
        <time>2025-02-06T09:35:46.683Z</time>
      </trkpt>
      <trkpt lat="58.38313694112003" lon="12.305950988084078">
        <ele>52.06</ele>
        <time>2025-02-06T09:36:13.993Z</time>
      </trkpt>
      <trkpt lat="58.38311892002821" lon="12.306049978360534">
        <ele>51.82</ele>
        <time>2025-02-06T09:36:41.304Z</time>
      </trkpt>
      <trkpt lat="58.38309796527028" lon="12.306153997778893">
        <ele>51.59</ele>
        <time>2025-02-06T09:37:08.616Z</time>
      </trkpt>
      <trkpt lat="58.38307893835008" lon="12.306264974176884">
        <ele>51.35</ele>
        <time>2025-02-06T09:37:35.929Z</time>
      </trkpt>
      <trkpt lat="58.383065946400166" lon="12.306380979716778">
        <ele>51.12</ele>
        <time>2025-02-06T09:38:03.243Z</time>
      </trkpt>
      <trkpt lat="58.38305798359215" lon="12.306498996913433">
        <ele>50.89</ele>
        <time>2025-02-06T09:38:30.558Z</time>
      </trkpt>
      <trkpt lat="58.38305094279349" lon="12.306613996624947">
        <ele>50.66</ele>
        <time>2025-02-06T09:38:57.874Z</time>
      </trkpt>
      <trkpt lat="58.38304499164224" lon="12.306729918345809">
        <ele>50.43</ele>
        <time>2025-02-06T09:39:25.191Z</time>
      </trkpt>
      <trkpt lat="58.38303694501519" lon="12.306844918057323">
        <ele>50.21</ele>
        <time>2025-02-06T09:39:52.509Z</time>
      </trkpt>
      <trkpt lat="58.38302697055042" lon="12.306955978274345">
        <ele>49.99</ele>
        <time>2025-02-06T09:40:19.828Z</time>
      </trkpt>
      <trkpt lat="58.38301096111536" lon="12.307062931358814">
        <ele>49.76</ele>
        <time>2025-02-06T09:40:47.148Z</time>
      </trkpt>
      <trkpt lat="58.3829949516803" lon="12.307168962433934">
        <ele>49.54</ele>
        <time>2025-02-06T09:41:14.469Z</time>
      </trkpt>
      <trkpt lat="58.382977936416864" lon="12.307273987680674">
        <ele>49.32</ele>
        <time>2025-02-06T09:41:41.790Z</time>
      </trkpt>
      <trkpt lat="58.38296192698181" lon="12.307378929108381">
        <ele>49.11</ele>
        <time>2025-02-06T09:42:09.112Z</time>
      </trkpt>
      <trkpt lat="58.38294591754675" lon="12.30748395435512">
        <ele>48.89</ele>
        <time>2025-02-06T09:42:36.435Z</time>
      </trkpt>
      <trkpt lat="58.382930997759104" lon="12.30758998543024">
        <ele>48.67</ele>
        <time>2025-02-06T09:43:03.759Z</time>
      </trkpt>
      <trkpt lat="58.38291699998081" lon="12.30769693851471">
        <ele>48.45</ele>
        <time>2025-02-06T09:43:31.084Z</time>
      </trkpt>
      <trkpt lat="58.38290099054575" lon="12.307797940447927">
        <ele>48.24</ele>
        <time>2025-02-06T09:43:58.410Z</time>
      </trkpt>
      <trkpt lat="58.38288498111069" lon="12.307896930724382">
        <ele>48.03</ele>
        <time>2025-02-06T09:44:25.737Z</time>
      </trkpt>
      <trkpt lat="58.382870983332396" lon="12.30799893848598">
        <ele>47.81</ele>
        <time>2025-02-06T09:44:53.065Z</time>
      </trkpt>
      <trkpt lat="58.38285497389734" lon="12.30810396373272">
        <ele>47.6</ele>
        <time>2025-02-06T09:45:20.394Z</time>
      </trkpt>
      <trkpt lat="58.38283896446228" lon="12.30820999480784">
        <ele>47.38</ele>
        <time>2025-02-06T09:45:47.724Z</time>
      </trkpt>
      <trkpt lat="58.3828239608556" lon="12.308316947892308">
        <ele>47.17</ele>
        <time>2025-02-06T09:46:15.055Z</time>
      </trkpt>
      <trkpt lat="58.382808957248926" lon="12.308423984795809">
        <ele>46.97</ele>
        <time>2025-02-06T09:46:42.387Z</time>
      </trkpt>
      <trkpt lat="58.38279495947063" lon="12.308530937880278">
        <ele>46.77</ele>
        <time>2025-02-06T09:47:09.719Z</time>
      </trkpt>
      <trkpt lat="58.38277995586395" lon="12.308638980612159">
        <ele>46.56</ele>
        <time>2025-02-06T09:47:37.052Z</time>
      </trkpt>
      <trkpt lat="58.382764952257276" lon="12.30874995701015">
        <ele>46.36</ele>
        <time>2025-02-06T09:48:04.386Z</time>
      </trkpt>
      <trkpt lat="58.38274894282222" lon="12.308862945064902">
        <ele>46.16</ele>
        <time>2025-02-06T09:48:31.721Z</time>
      </trkpt>
      <trkpt lat="58.38273293338716" lon="12.308974927291274">
        <ele>45.96</ele>
        <time>2025-02-06T09:48:59.057Z</time>
      </trkpt>
      <trkpt lat="58.38271792978048" lon="12.309089927002788">
        <ele>45.76</ele>
        <time>2025-02-06T09:49:26.394Z</time>
      </trkpt>
      <trkpt lat="58.382702926173806" lon="12.309206938371062">
        <ele>45.57</ele>
        <time>2025-02-06T09:49:53.732Z</time>
      </trkpt>
      <trkpt lat="58.38268792256713" lon="12.309326967224479">
        <ele>45.38</ele>
        <time>2025-02-06T09:50:21.071Z</time>
      </trkpt>
      <trkpt lat="58.38267099112272" lon="12.309447918087244">
        <ele>45.19</ele>
        <time>2025-02-06T09:50:48.411Z</time>
      </trkpt>
      <trkpt lat="58.38265196420252" lon="12.309572976082563">
        <ele>45.01</ele>
        <time>2025-02-06T09:51:15.753Z</time>
      </trkpt>
      <trkpt lat="58.382634948939085" lon="12.30969694443047">
        <ele>44.84</ele>
        <time>2025-02-06T09:51:43.096Z</time>
      </trkpt>
      <trkpt lat="58.38261893950403" lon="12.309818984940648">
        <ele>44.67</ele>
        <time>2025-02-06T09:52:10.440Z</time>
      </trkpt>
      <trkpt lat="58.38260091841221" lon="12.309939935803413">
        <ele>44.51</ele>
        <time>2025-02-06T09:52:37.785Z</time>
      </trkpt>
      <trkpt lat="58.3825839869678" lon="12.31005996465683">
        <ele>44.35</ele>
        <time>2025-02-06T09:53:05.131Z</time>
      </trkpt>
      <trkpt lat="58.38256596587598" lon="12.310181921347976">
        <ele>44.2</ele>
        <time>2025-02-06T09:53:32.478Z</time>
      </trkpt>
      <trkpt lat="58.3825459331274" lon="12.310304967686534">
        <ele>44.06</ele>
        <time>2025-02-06T09:53:59.826Z</time>
      </trkpt>
      <trkpt lat="58.382528917863965" lon="12.31042692437768">
        <ele>43.92</ele>
        <time>2025-02-06T09:54:27.175Z</time>
      </trkpt>
      <trkpt lat="58.38251299224794" lon="12.310543935745955">
        <ele>43.78</ele>
        <time>2025-02-06T09:54:54.525Z</time>
      </trkpt>
      <trkpt lat="58.38249698281288" lon="12.31066295877099">
        <ele>43.65</ele>
        <time>2025-02-06T09:55:21.876Z</time>
      </trkpt>
      <trkpt lat="58.38247896172106" lon="12.310781981796026">
        <ele>43.52</ele>
        <time>2025-02-06T09:55:49.228Z</time>
      </trkpt>
      <trkpt lat="58.38245993480086" lon="12.310903938487172">
        <ele>43.41</ele>
        <time>2025-02-06T09:56:16.581Z</time>
      </trkpt>
      <trkpt lat="58.382441997528076" lon="12.31102991849184">
        <ele>43.3</ele>
        <time>2025-02-06T09:56:43.935Z</time>
      </trkpt>
      <trkpt lat="58.382421964779496" lon="12.311156988143921">
        <ele>43.19</ele>
        <time>2025-02-06T09:57:11.290Z</time>
      </trkpt>
      <trkpt lat="58.382401932030916" lon="12.311287997290492">
        <ele>43.1</ele>
        <time>2025-02-06T09:57:38.647Z</time>
      </trkpt>
      <trkpt lat="58.38238298892975" lon="12.311420934274793">
        <ele>43.0</ele>
        <time>2025-02-06T09:58:06.005Z</time>
      </trkpt>
      <trkpt lat="58.38236496783793" lon="12.311554960906506">
        <ele>42.92</ele>
        <time>2025-02-06T09:58:33.364Z</time>
      </trkpt>
      <trkpt lat="58.38234594091773" lon="12.311691921204329">
        <ele>42.84</ele>
        <time>2025-02-06T09:59:00.724Z</time>
      </trkpt>
      <trkpt lat="58.38232699781656" lon="12.311833994463086">
        <ele>42.76</ele>
        <time>2025-02-06T09:59:28.085Z</time>
      </trkpt>
      <trkpt lat="58.3823059592396" lon="12.311976989731193">
        <ele>42.68</ele>
        <time>2025-02-06T09:59:55.448Z</time>
      </trkpt>
      <trkpt lat="58.38228492066264" lon="12.31212392449379">
        <ele>42.62</ele>
        <time>2025-02-06T10:00:22.812Z</time>
      </trkpt>
      <trkpt lat="58.38226296007633" lon="12.312271948903799">
        <ele>42.55</ele>
        <time>2025-02-06T10:00:50.177Z</time>
      </trkpt>
      <trkpt lat="58.38224099949002" lon="12.312416955828667">
        <ele>42.49</ele>
        <time>2025-02-06T10:01:17.543Z</time>
      </trkpt>
      <trkpt lat="58.38221996091306" lon="12.312562968581915">
        <ele>42.44</ele>
        <time>2025-02-06T10:01:44.911Z</time>
      </trkpt>
      <trkpt lat="58.38220193982124" lon="12.312711998820305">
        <ele>42.39</ele>
        <time>2025-02-06T10:02:12.280Z</time>
      </trkpt>
      <trkpt lat="58.382181990891695" lon="12.312863962724805">
        <ele>42.35</ele>
        <time>2025-02-06T10:02:39.650Z</time>
      </trkpt>
      <trkpt lat="58.382160952314734" lon="12.313016932457685">
        <ele>42.31</ele>
        <time>2025-02-06T10:03:07.022Z</time>
      </trkpt>
      <trkpt lat="58.382136980071664" lon="12.313170991837978">
        <ele>42.27</ele>
        <time>2025-02-06T10:03:34.395Z</time>
      </trkpt>
      <trkpt lat="58.38211392983794" lon="12.313326979056">
        <ele>42.24</ele>
        <time>2025-02-06T10:04:01.769Z</time>
      </trkpt>
      <trkpt lat="58.38209096342325" lon="12.313483972102404">
        <ele>42.22</ele>
        <time>2025-02-06T10:04:29.145Z</time>
      </trkpt>
      <trkpt lat="58.38206799700856" lon="12.313643982633948">
        <ele>42.2</ele>
        <time>2025-02-06T10:04:56.522Z</time>
      </trkpt>
      <trkpt lat="58.38204494677484" lon="12.313802987337112">
        <ele>42.19</ele>
        <time>2025-02-06T10:05:23.900Z</time>
      </trkpt>
      <trkpt lat="58.38202198036015" lon="12.313964925706387">
        <ele>42.18</ele>
        <time>2025-02-06T10:05:51.280Z</time>
      </trkpt>
      <trkpt lat="58.38199792429805" lon="12.314129965379834">
        <ele>42.18</ele>
        <time>2025-02-06T10:06:18.661Z</time>
      </trkpt>
      <trkpt lat="58.38197495788336" lon="12.314297938719392">
        <ele>42.19</ele>
        <time>2025-02-06T10:06:46.044Z</time>
      </trkpt>
      <trkpt lat="58.38195098564029" lon="12.314465995877981">
        <ele>42.2</ele>
        <time>2025-02-06T10:07:13.428Z</time>
      </trkpt>
      <trkpt lat="58.381927935406566" lon="12.3146359808743">
        <ele>42.21</ele>
        <time>2025-02-06T10:07:40.814Z</time>
      </trkpt>
      <trkpt lat="58.381903963163495" lon="12.314803954213858">
        <ele>42.22</ele>
        <time>2025-02-06T10:08:08.201Z</time>
      </trkpt>
      <trkpt lat="58.381878985092044" lon="12.31496094726026">
        <ele>42.25</ele>
        <time>2025-02-06T10:08:35.590Z</time>
      </trkpt>
      <trkpt lat="58.38185593485832" lon="12.31510997749865">
        <ele>42.27</ele>
        <time>2025-02-06T10:09:02.980Z</time>
      </trkpt>
      <trkpt lat="58.38183397427201" lon="12.315255990251899">
        <ele>42.31</ele>
        <time>2025-02-06T10:09:30.371Z</time>
      </trkpt>
      <trkpt lat="58.38181394152343" lon="12.315398985520005">
        <ele>42.34</ele>
        <time>2025-02-06T10:09:57.763Z</time>
      </trkpt>
      <trkpt lat="58.381792986765504" lon="12.315542986616492">
        <ele>42.38</ele>
        <time>2025-02-06T10:10:25.157Z</time>
      </trkpt>
      <trkpt lat="58.381772954016924" lon="12.31569092720747">
        <ele>42.43</ele>
        <time>2025-02-06T10:10:52.552Z</time>
      </trkpt>
      <trkpt lat="58.381750993430614" lon="12.315841969102621">
        <ele>42.47</ele>
        <time>2025-02-06T10:11:19.948Z</time>
      </trkpt>
      <trkpt lat="58.38172894902527" lon="12.315994938835502">
        <ele>42.53</ele>
        <time>2025-02-06T10:11:47.346Z</time>
      </trkpt>
      <trkpt lat="58.381707994267344" lon="12.316150926053524">
        <ele>42.59</ele>
        <time>2025-02-06T10:12:14.745Z</time>
      </trkpt>
      <trkpt lat="58.381685949862" lon="12.316307919099927">
        <ele>42.65</ele>
        <time>2025-02-06T10:12:42.145Z</time>
      </trkpt>
      <trkpt lat="58.381664995104074" lon="12.316458960995078">
        <ele>42.73</ele>
        <time>2025-02-06T10:13:09.547Z</time>
      </trkpt>
      <trkpt lat="58.381644962355494" lon="12.316598938778043">
        <ele>42.81</ele>
        <time>2025-02-06T10:13:36.950Z</time>
      </trkpt>
      <trkpt lat="58.381627947092056" lon="12.316732965409756">
        <ele>42.89</ele>
        <time>2025-02-06T10:14:04.354Z</time>
      </trkpt>
      <trkpt lat="58.38161093182862" lon="12.316865986213088">
        <ele>42.97</ele>
        <time>2025-02-06T10:14:31.759Z</time>
      </trkpt>
      <trkpt lat="58.38159198872745" lon="12.316998923197389">
        <ele>43.06</ele>
        <time>2025-02-06T10:14:59.165Z</time>
      </trkpt>
      <trkpt lat="58.38157296180725" lon="12.317134961485863">
        <ele>43.16</ele>
        <time>2025-02-06T10:15:26.573Z</time>
      </trkpt>
      <trkpt lat="58.38155695237219" lon="12.317274939268827">
        <ele>43.23</ele>
        <time>2025-02-06T10:15:53.982Z</time>
      </trkpt>
      <trkpt lat="58.381538931280375" lon="12.317421957850456">
        <ele>43.31</ele>
        <time>2025-02-06T10:16:21.392Z</time>
      </trkpt>
      <trkpt lat="58.381517976522446" lon="12.317576939240098">
        <ele>43.42</ele>
        <time>2025-02-06T10:16:48.803Z</time>
      </trkpt>
      <trkpt lat="58.381495932117105" lon="12.317735943943262">
        <ele>43.53</ele>
        <time>2025-02-06T10:17:16.216Z</time>
      </trkpt>
      <trkpt lat="58.381472965702415" lon="12.317896960303187">
        <ele>43.65</ele>
        <time>2025-02-06T10:17:43.630Z</time>
      </trkpt>
      <trkpt lat="58.381451927125454" lon="12.31805495917797">
        <ele>43.77</ele>
        <time>2025-02-06T10:18:11.046Z</time>
      </trkpt>
      <trkpt lat="58.381429966539145" lon="12.318211952224374">
        <ele>43.88</ele>
        <time>2025-02-06T10:18:38.463Z</time>
      </trkpt>
      <trkpt lat="58.381405994296074" lon="12.318370956927538">
        <ele>43.99</ele>
        <time>2025-02-06T10:19:05.881Z</time>
      </trkpt>
      <trkpt lat="58.38138394989073" lon="12.318530967459083">
        <ele>44.07</ele>
        <time>2025-02-06T10:19:33.301Z</time>
      </trkpt>
      <trkpt lat="58.38136098347604" lon="12.318690977990627">
        <ele>44.19</ele>
        <time>2025-02-06T10:20:00.722Z</time>
      </trkpt>
      <trkpt lat="58.3813389390707" lon="12.318843947723508">
        <ele>44.32</ele>
        <time>2025-02-06T10:20:28.144Z</time>
      </trkpt>
      <trkpt lat="58.38131697848439" lon="12.318989960476756">
        <ele>44.46</ele>
        <time>2025-02-06T10:20:55.568Z</time>
      </trkpt>
      <trkpt lat="58.38129593990743" lon="12.31912893243134">
        <ele>44.6</ele>
        <time>2025-02-06T10:21:22.993Z</time>
      </trkpt>
      <trkpt lat="58.381276996806264" lon="12.319260947406292">
        <ele>44.74</ele>
        <time>2025-02-06T10:21:50.419Z</time>
      </trkpt>
      <trkpt lat="58.381258975714445" lon="12.319389944896102">
        <ele>44.89</ele>
        <time>2025-02-06T10:22:17.846Z</time>
      </trkpt>
      <trkpt lat="58.38124296627939" lon="12.319518942385912">
        <ele>45.04</ele>
        <time>2025-02-06T10:22:45.274Z</time>
      </trkpt>
      <trkpt lat="58.38122595101595" lon="12.31964592821896">
        <ele>45.19</ele>
        <time>2025-02-06T10:23:12.703Z</time>
      </trkpt>
      <trkpt lat="58.38120692409575" lon="12.31977199204266">
        <ele>45.34</ele>
        <time>2025-02-06T10:23:40.134Z</time>
      </trkpt>
      <trkpt lat="58.38118798099458" lon="12.319893948733807">
        <ele>45.5</ele>
        <time>2025-02-06T10:24:07.566Z</time>
      </trkpt>
      <trkpt lat="58.38116995990276" lon="12.320003919303417">
        <ele>45.66</ele>
        <time>2025-02-06T10:24:34.999Z</time>
      </trkpt>
      <trkpt lat="58.381154956296086" lon="12.32009394094348">
        <ele>45.82</ele>
        <time>2025-02-06T10:25:02.432Z</time>
      </trkpt>
      <trkpt lat="58.38114196434617" lon="12.320169964805245">
        <ele>45.99</ele>
        <time>2025-02-06T10:25:29.866Z</time>
      </trkpt>
      <trkpt lat="58.381129978224635" lon="12.32024297118187">
        <ele>46.16</ele>
        <time>2025-02-06T10:25:57.301Z</time>
      </trkpt>
      <trkpt lat="58.38111899793148" lon="12.320314971730113">
        <ele>46.33</ele>
        <time>2025-02-06T10:26:24.736Z</time>
      </trkpt>
      <trkpt lat="58.381108939647675" lon="12.320383954793215">
        <ele>46.5</ele>
        <time>2025-02-06T10:26:52.172Z</time>
      </trkpt>
      <trkpt lat="58.38109997101128" lon="12.320450926199555">
        <ele>46.66</ele>
        <time>2025-02-06T10:27:19.608Z</time>
      </trkpt>
      <trkpt lat="58.381090918555856" lon="12.320513958111405">
        <ele>46.83</ele>
        <time>2025-02-06T10:27:47.045Z</time>
      </trkpt>
      <trkpt lat="58.38108194991946" lon="12.320575984194875">
        <ele>47.0</ele>
        <time>2025-02-06T10:28:14.483Z</time>
      </trkpt>
      <trkpt lat="58.38107096962631" lon="12.320643961429596">
        <ele>47.16</ele>
        <time>2025-02-06T10:28:41.921Z</time>
      </trkpt>
      <trkpt lat="58.38105596601963" lon="12.3207179736346">
        <ele>47.33</ele>
        <time>2025-02-06T10:29:09.360Z</time>
      </trkpt>
      <trkpt lat="58.38103995658457" lon="12.320792991667986">
        <ele>47.5</ele>
        <time>2025-02-06T10:29:36.800Z</time>
      </trkpt>
      <trkpt lat="58.381021935492754" lon="12.32086792588234">
        <ele>47.68</ele>
        <time>2025-02-06T10:30:04.240Z</time>
      </trkpt>
      <trkpt lat="58.381004920229316" lon="12.320947973057628">
        <ele>47.85</ele>
        <time>2025-02-06T10:30:31.681Z</time>
      </trkpt>
      <trkpt lat="58.38098798878491" lon="12.321025924757123">
        <ele>48.02</ele>
        <time>2025-02-06T10:30:59.123Z</time>
      </trkpt>
      <trkpt lat="58.38096996769309" lon="12.32110396027565">
        <ele>48.19</ele>
        <time>2025-02-06T10:31:26.565Z</time>
      </trkpt>
      <trkpt lat="58.38095094077289" lon="12.321179984137416">
        <ele>48.36</ele>
        <time>2025-02-06T10:31:54.008Z</time>
      </trkpt>
      <trkpt lat="58.38093099184334" lon="12.32125299051404">
        <ele>48.52</ele>
        <time>2025-02-06T10:32:21.452Z</time>
      </trkpt>
      <trkpt lat="58.38091095909476" lon="12.32131795026362">
        <ele>48.69</ele>
        <time>2025-02-06T10:32:48.896Z</time>
      </trkpt>
      <trkpt lat="58.380893943831325" lon="12.321383999660611">
        <ele>48.86</ele>
        <time>2025-02-06T10:33:16.341Z</time>
      </trkpt>
      <trkpt lat="58.38088095188141" lon="12.321450971066952">
        <ele>49.03</ele>
        <time>2025-02-06T10:33:43.787Z</time>
      </trkpt>
      <trkpt lat="58.38086192496121" lon="12.321522971615195">
        <ele>49.2</ele>
        <time>2025-02-06T10:34:11.233Z</time>
      </trkpt>
      <trkpt lat="58.38084298186004" lon="12.321603940799832">
        <ele>49.37</ele>
        <time>2025-02-06T10:34:38.680Z</time>
      </trkpt>
      <trkpt lat="58.380826972424984" lon="12.321684993803501">
        <ele>49.53</ele>
        <time>2025-02-06T10:35:06.128Z</time>
      </trkpt>
      <trkpt lat="58.380810962989926" lon="12.3217679746449">
        <ele>49.69</ele>
        <time>2025-02-06T10:35:33.577Z</time>
      </trkpt>
      <trkpt lat="58.38079193606973" lon="12.321851961314678">
        <ele>49.86</ele>
        <time>2025-02-06T10:36:01.026Z</time>
      </trkpt>
      <trkpt lat="58.38077592663467" lon="12.321936953812838">
        <ele>50.02</ele>
        <time>2025-02-06T10:36:28.476Z</time>
      </trkpt>
      <trkpt lat="58.38075899519026" lon="12.322016917169094">
        <ele>50.19</ele>
        <time>2025-02-06T10:36:55.927Z</time>
      </trkpt>
      <trkpt lat="58.38073996827006" lon="12.322098976001143">
        <ele>50.35</ele>
        <time>2025-02-06T10:37:23.379Z</time>
      </trkpt>
      <trkpt lat="58.380721947178245" lon="12.322187991812825">
        <ele>50.51</ele>
        <time>2025-02-06T10:37:50.831Z</time>
      </trkpt>
      <trkpt lat="58.380698980763555" lon="12.322273990139365">
        <ele>50.67</ele>
        <time>2025-02-06T10:38:18.284Z</time>
      </trkpt>
      <trkpt lat="58.380678948014975" lon="12.322359988465905">
        <ele>50.83</ele>
        <time>2025-02-06T10:38:45.738Z</time>
      </trkpt>
      <trkpt lat="58.380657993257046" lon="12.322447998449206">
        <ele>50.99</ele>
        <time>2025-02-06T10:39:13.193Z</time>
      </trkpt>
      <trkpt lat="58.380635948851705" lon="12.322532990947366">
        <ele>51.15</ele>
        <time>2025-02-06T10:39:40.649Z</time>
      </trkpt>
      <trkpt lat="58.380613988265395" lon="12.322619995102286">
        <ele>51.31</ele>
        <time>2025-02-06T10:40:08.105Z</time>
      </trkpt>
      <trkpt lat="58.380593955516815" lon="12.322705993428826">
        <ele>51.47</ele>
        <time>2025-02-06T10:40:35.562Z</time>
      </trkpt>
      <trkpt lat="58.380573922768235" lon="12.322790985926986">
        <ele>51.63</ele>
        <time>2025-02-06T10:41:03.020Z</time>
      </trkpt>
      <trkpt lat="58.38055799715221" lon="12.322872960940003">
        <ele>51.78</ele>
        <time>2025-02-06T10:41:30.479Z</time>
      </trkpt>
      <trkpt lat="58.38054492138326" lon="12.322945967316628">
        <ele>51.93</ele>
        <time>2025-02-06T10:41:57.938Z</time>
      </trkpt>
      <trkpt lat="58.38053595274687" lon="12.323005981743336">
        <ele>52.08</ele>
        <time>2025-02-06T10:42:25.398Z</time>
      </trkpt>
      <trkpt lat="58.380527989938855" lon="12.323054932057858">
        <ele>52.23</ele>
        <time>2025-02-06T10:42:52.858Z</time>
      </trkpt>
      <trkpt lat="58.38052296079695" lon="12.323093991726637">
        <ele>52.38</ele>
        <time>2025-02-06T10:43:20.319Z</time>
      </trkpt>
      <trkpt lat="58.38051994331181" lon="12.323126932606101">
        <ele>52.52</ele>
        <time>2025-02-06T10:43:47.780Z</time>
      </trkpt>
      <trkpt lat="58.38052094914019" lon="12.323160963132977">
        <ele>52.67</ele>
        <time>2025-02-06T10:44:15.241Z</time>
      </trkpt>
      <trkpt lat="58.38052195496857" lon="12.323199938982725">
        <ele>52.81</ele>
        <time>2025-02-06T10:44:42.703Z</time>
      </trkpt>
      <trkpt lat="58.38052094914019" lon="12.323242938145995">
        <ele>52.94</ele>
        <time>2025-02-06T10:45:10.165Z</time>
      </trkpt>
      <trkpt lat="58.380525978282094" lon="12.323301946744323">
        <ele>53.08</ele>
        <time>2025-02-06T10:45:37.627Z</time>
      </trkpt>
      <trkpt lat="58.380525978282094" lon="12.323364978656173">
        <ele>53.22</ele>
        <time>2025-02-06T10:46:05.090Z</time>
      </trkpt>
      <trkpt lat="58.38051499798894" lon="12.323424993082881">
        <ele>53.35</ele>
        <time>2025-02-06T10:46:32.553Z</time>
      </trkpt>
      <trkpt lat="58.38050091639161" lon="12.323485929518938">
        <ele>53.48</ele>
        <time>2025-02-06T10:47:00.017Z</time>
      </trkpt>
      <trkpt lat="58.380486918613315" lon="12.323546949774027">
        <ele>53.61</ele>
        <time>2025-02-06T10:47:27.482Z</time>
      </trkpt>
      <trkpt lat="58.38047199882567" lon="12.323614927008748">
        <ele>53.74</ele>
        <time>2025-02-06T10:47:54.947Z</time>
      </trkpt>
      <trkpt lat="58.38045598939061" lon="12.323689945042133">
        <ele>53.86</ele>
        <time>2025-02-06T10:48:22.413Z</time>
      </trkpt>
      <trkpt lat="58.380439979955554" lon="12.3237659689039">
        <ele>53.98</ele>
        <time>2025-02-06T10:48:49.880Z</time>
      </trkpt>
      <trkpt lat="58.380421958863735" lon="12.323840986937284">
        <ele>54.1</ele>
        <time>2025-02-06T10:49:17.347Z</time>
      </trkpt>
      <trkpt lat="58.38040796108544" lon="12.323926985263824">
        <ele>54.22</ele>
        <time>2025-02-06T10:49:44.815Z</time>
      </trkpt>
      <trkpt lat="58.38039295747876" lon="12.324016923084855">
        <ele>54.33</ele>
        <time>2025-02-06T10:50:12.284Z</time>
      </trkpt>
      <trkpt lat="58.38037594221532" lon="12.324112979695201">
        <ele>54.44</ele>
        <time>2025-02-06T10:50:39.754Z</time>
      </trkpt>
      <trkpt lat="58.380357921123505" lon="12.324210964143276">
        <ele>54.55</ele>
        <time>2025-02-06T10:51:07.225Z</time>
      </trkpt>
      <trkpt lat="58.38033897802234" lon="12.324319928884506">
        <ele>54.65</ele>
        <time>2025-02-06T10:51:34.697Z</time>
      </trkpt>
      <trkpt lat="58.38031894527376" lon="12.324429983273149">
        <ele>54.75</ele>
        <time>2025-02-06T10:52:02.170Z</time>
      </trkpt>
      <trkpt lat="58.38029799051583" lon="12.324532996863127">
        <ele>54.84</ele>
        <time>2025-02-06T10:52:29.643Z</time>
      </trkpt>
      <trkpt lat="58.380274940282106" lon="12.324632992967963">
        <ele>54.94</ele>
        <time>2025-02-06T10:52:57.117Z</time>
      </trkpt>
      <trkpt lat="58.38025599718094" lon="12.324737934395671">
        <ele>55.03</ele>
        <time>2025-02-06T10:53:24.592Z</time>
      </trkpt>
      <trkpt lat="58.38024199940264" lon="12.32484295964241">
        <ele>55.11</ele>
        <time>2025-02-06T10:53:52.068Z</time>
      </trkpt>
      <trkpt lat="58.3802389819175" lon="12.324940944090486">
        <ele>55.2</ele>
        <time>2025-02-06T10:54:19.545Z</time>
      </trkpt>
      <trkpt lat="58.38024593889713" lon="12.32503599487245">
        <ele>55.28</ele>
        <time>2025-02-06T10:54:47.023Z</time>
      </trkpt>
      <trkpt lat="58.380270916968584" lon="12.325096931308508">
        <ele>55.36</ele>
        <time>2025-02-06T10:55:14.502Z</time>
      </trkpt>
      <trkpt lat="58.3803079649806" lon="12.325130961835384">
        <ele>55.44</ele>
        <time>2025-02-06T10:55:41.981Z</time>
      </trkpt>
      <trkpt lat="58.38034694083035" lon="12.32516792602837">
        <ele>55.51</ele>
        <time>2025-02-06T10:56:09.461Z</time>
      </trkpt>
      <trkpt lat="58.38039195165038" lon="12.325211931020021">
        <ele>55.58</ele>
        <time>2025-02-06T10:56:36.942Z</time>
      </trkpt>
      <trkpt lat="58.380440985783935" lon="12.325254930183291">
        <ele>55.65</ele>
        <time>2025-02-06T10:57:04.424Z</time>
      </trkpt>
      <trkpt lat="58.3804929535836" lon="12.325298935174942">
        <ele>55.72</ele>
        <time>2025-02-06T10:57:31.906Z</time>
      </trkpt>
      <trkpt lat="58.38054198771715" lon="12.325342940166593">
        <ele>55.78</ele>
        <time>2025-02-06T10:57:59.389Z</time>
      </trkpt>
      <trkpt lat="58.380591943860054" lon="12.325385939329863">
        <ele>55.83</ele>
        <time>2025-02-06T10:58:26.873Z</time>
      </trkpt>
      <trkpt lat="58.38064399547875" lon="12.325433967635036">
        <ele>55.88</ele>
        <time>2025-02-06T10:58:54.358Z</time>
      </trkpt>
      <trkpt lat="58.38069596327841" lon="12.325474955141544">
        <ele>55.93</ele>
        <time>2025-02-06T10:59:21.844Z</time>
      </trkpt>
      <trkpt lat="58.380745919421315" lon="12.32550898566842">
        <ele>55.98</ele>
        <time>2025-02-06T10:59:49.331Z</time>
      </trkpt>
      <trkpt lat="58.38079294189811" lon="12.325535975396633">
        <ele>56.02</ele>
        <time>2025-02-06T11:00:16.819Z</time>
      </trkpt>
      <trkpt lat="58.38083594106138" lon="12.325558941811323">
        <ele>56.06</ele>
        <time>2025-02-06T11:00:44.307Z</time>
      </trkpt>
      <trkpt lat="58.380870977416635" lon="12.325585931539536">
        <ele>56.09</ele>
        <time>2025-02-06T11:01:11.796Z</time>
      </trkpt>
      <trkpt lat="58.38089092634618" lon="12.325614932924509">
        <ele>56.13</ele>
        <time>2025-02-06T11:01:39.285Z</time>
      </trkpt>
      <trkpt lat="58.38089897297323" lon="12.325652986764908">
        <ele>56.16</ele>
        <time>2025-02-06T11:02:06.775Z</time>
      </trkpt>
      <trkpt lat="58.38090098462999" lon="12.325684921815991">
        <ele>56.19</ele>
        <time>2025-02-06T11:02:34.265Z</time>
      </trkpt>
      <trkpt lat="58.38090199045837" lon="12.325709983706474">
        <ele>56.22</ele>
        <time>2025-02-06T11:03:01.755Z</time>
      </trkpt>
      <trkpt lat="58.38090492412448" lon="12.325717946514487">
        <ele>56.25</ele>
        <time>2025-02-06T11:03:29.245Z</time>
      </trkpt>
      <trkpt lat="58.38090794160962" lon="12.32572196982801">
        <ele>56.28</ele>
        <time>2025-02-06T11:03:56.735Z</time>
      </trkpt>
      <trkpt lat="58.38091095909476" lon="12.32572297565639">
        <ele>56.3</ele>
        <time>2025-02-06T11:04:24.225Z</time>
      </trkpt>
      <trkpt lat="58.380914982408285" lon="12.325994968414307">
        <ele>56.32</ele>
        <time>2025-02-06T11:04:51.718Z</time>
      </trkpt>
      <trkpt lat="58.38090492412448" lon="12.326037967577577">
        <ele>56.34</ele>
        <time>2025-02-06T11:05:19.211Z</time>
      </trkpt>
      <trkpt lat="58.38089997880161" lon="12.326080966740847">
        <ele>56.35</ele>
        <time>2025-02-06T11:05:46.704Z</time>
      </trkpt>
      <trkpt lat="58.38089193217456" lon="12.32612899504602">
        <ele>56.37</ele>
        <time>2025-02-06T11:06:14.198Z</time>
      </trkpt>
      <trkpt lat="58.38088296353817" lon="12.326179957017303">
        <ele>56.38</ele>
        <time>2025-02-06T11:06:41.692Z</time>
      </trkpt>
      <trkpt lat="58.380873994901776" lon="12.326235948130488">
        <ele>56.38</ele>
        <time>2025-02-06T11:07:09.187Z</time>
      </trkpt>
      <trkpt lat="58.38086393661797" lon="12.3263009916991">
        <ele>56.39</ele>
        <time>2025-02-06T11:07:36.682Z</time>
      </trkpt>
      <trkpt lat="58.380851950496435" lon="12.326377937570214">
        <ele>56.39</ele>
        <time>2025-02-06T11:08:04.178Z</time>
      </trkpt>
      <trkpt lat="58.3808399643749" lon="12.326451949775219">
        <ele>56.39</ele>
        <time>2025-02-06T11:08:31.675Z</time>
      </trkpt>
      <trkpt lat="58.38082194328308" lon="12.326537948101759">
        <ele>56.4</ele>
        <time>2025-02-06T11:08:59.173Z</time>
      </trkpt>
      <trkpt lat="58.380806939676404" lon="12.326615983620286">
        <ele>56.39</ele>
        <time>2025-02-06T11:09:26.671Z</time>
      </trkpt>
      <trkpt lat="58.38079193606973" lon="12.326693935319781">
        <ele>56.39</ele>
        <time>2025-02-06T11:09:54.170Z</time>
      </trkpt>
      <trkpt lat="58.38077492080629" lon="12.326779933646321">
        <ele>56.39</ele>
        <time>2025-02-06T11:10:21.670Z</time>
      </trkpt>
      <trkpt lat="58.38076192885637" lon="12.326858974993229">
        <ele>56.38</ele>
        <time>2025-02-06T11:10:49.170Z</time>
      </trkpt>
      <trkpt lat="58.38074893690646" lon="12.326933993026614">
        <ele>56.37</ele>
        <time>2025-02-06T11:11:16.671Z</time>
      </trkpt>
      <trkpt lat="58.3807329274714" lon="12.327018985524774">
        <ele>56.35</ele>
        <time>2025-02-06T11:11:44.173Z</time>
      </trkpt>
      <trkpt lat="58.3807189296931" lon="12.32709794305265">
        <ele>56.34</ele>
        <time>2025-02-06T11:12:11.676Z</time>
      </trkpt>
      <trkpt lat="58.380699986591935" lon="12.32718494720757">
        <ele>56.32</ele>
        <time>2025-02-06T11:12:39.179Z</time>
      </trkpt>
      <trkpt lat="58.380681965500116" lon="12.327254936099052">
        <ele>56.3</ele>
        <time>2025-02-06T11:13:06.683Z</time>
      </trkpt>
      <trkpt lat="58.380661932751536" lon="12.327303970232606">
        <ele>56.28</ele>
        <time>2025-02-06T11:13:34.188Z</time>
      </trkpt>
      <trkpt lat="58.380636954680085" lon="12.327339928597212">
        <ele>56.26</ele>
        <time>2025-02-06T11:14:01.693Z</time>
      </trkpt>
      <trkpt lat="58.38060594163835" lon="12.327353926375508">
        <ele>56.23</ele>
        <time>2025-02-06T11:14:29.199Z</time>
      </trkpt>
      <trkpt lat="58.38057794608176" lon="12.327340934425592">
        <ele>56.21</ele>
        <time>2025-02-06T11:14:56.705Z</time>
      </trkpt>
      <trkpt lat="58.38054492138326" lon="12.327319979667664">
        <ele>56.19</ele>
        <time>2025-02-06T11:15:24.212Z</time>
      </trkpt>
      <trkpt lat="58.38050292804837" lon="12.327293995767832">
        <ele>56.16</ele>
        <time>2025-02-06T11:15:51.719Z</time>
      </trkpt>
      <trkpt lat="58.38045297190547" lon="12.327277986332774">
        <ele>56.14</ele>
        <time>2025-02-06T11:16:19.227Z</time>
      </trkpt>
      <trkpt lat="58.380403937771916" lon="12.327250996604562">
        <ele>56.11</ele>
        <time>2025-02-06T11:16:46.736Z</time>
      </trkpt>
      <trkpt lat="58.380353981629014" lon="12.327219983562827">
        <ele>56.08</ele>
        <time>2025-02-06T11:17:14.246Z</time>
      </trkpt>
      <trkpt lat="58.38030595332384" lon="12.327188970521092">
        <ele>56.05</ele>
        <time>2025-02-06T11:17:41.757Z</time>
      </trkpt>
      <trkpt lat="58.38025893084705" lon="12.327150916680694">
        <ele>56.02</ele>
        <time>2025-02-06T11:18:09.268Z</time>
      </trkpt>
      <trkpt lat="58.380208974704146" lon="12.327110935002565">
        <ele>55.98</ele>
        <time>2025-02-06T11:18:36.780Z</time>
      </trkpt>
      <trkpt lat="58.38015792891383" lon="12.327072964981198">
        <ele>55.95</ele>
        <time>2025-02-06T11:19:04.293Z</time>
      </trkpt>
      <trkpt lat="58.38010696694255" lon="12.327034994959831">
        <ele>55.91</ele>
        <time>2025-02-06T11:19:31.807Z</time>
      </trkpt>
      <trkpt lat="58.380058938637376" lon="12.326991995796561">
        <ele>55.87</ele>
        <time>2025-02-06T11:19:59.322Z</time>
      </trkpt>
      <trkpt lat="58.380010994151235" lon="12.326952936127782">
        <ele>55.84</ele>
        <time>2025-02-06T11:20:26.838Z</time>
      </trkpt>
      <trkpt lat="58.37996196001768" lon="12.326934998854995">
        <ele>55.8</ele>
        <time>2025-02-06T11:20:54.354Z</time>
      </trkpt>
      <trkpt lat="58.37992591783404" lon="12.326940950006247">
        <ele>55.75</ele>
        <time>2025-02-06T11:21:21.871Z</time>
      </trkpt>
      <trkpt lat="58.379881996661425" lon="12.326998952776194">
        <ele>55.7</ele>
        <time>2025-02-06T11:21:49.389Z</time>
      </trkpt>
      <trkpt lat="58.37985098361969" lon="12.327078999951482">
        <ele>55.66</ele>
        <time>2025-02-06T11:22:16.908Z</time>
      </trkpt>
      <trkpt lat="58.37982994504273" lon="12.327173966914415">
        <ele>55.61</ele>
        <time>2025-02-06T11:22:44.428Z</time>
      </trkpt>
      <trkpt lat="58.3798089902848" lon="12.327278992161155">
        <ele>55.56</ele>
        <time>2025-02-06T11:23:11.949Z</time>
      </trkpt>
      <trkpt lat="58.37978594005108" lon="12.327385945245624">
        <ele>55.5</ele>
        <time>2025-02-06T11:23:39.471Z</time>
      </trkpt>
      <trkpt lat="58.37976498529315" lon="12.327498933300376">
        <ele>55.45</ele>
        <time>2025-02-06T11:24:06.994Z</time>
      </trkpt>
      <trkpt lat="58.37974394671619" lon="12.32761594466865">
        <ele>55.39</ele>
        <time>2025-02-06T11:24:34.518Z</time>
      </trkpt>
      <trkpt lat="58.37972399778664" lon="12.327730944380164">
        <ele>55.34</ele>
        <time>2025-02-06T11:25:02.043Z</time>
      </trkpt>
      <trkpt lat="58.37970396503806" lon="12.327846949920058">
        <ele>55.29</ele>
        <time>2025-02-06T11:25:29.569Z</time>
      </trkpt>
      <trkpt lat="58.37968393228948" lon="12.327963961288333">
        <ele>55.24</ele>
        <time>2025-02-06T11:25:57.096Z</time>
      </trkpt>
      <trkpt lat="58.37966297753155" lon="12.328078960999846">
        <ele>55.18</ele>
        <time>2025-02-06T11:26:24.624Z</time>
      </trkpt>
      <trkpt lat="58.37964093312621" lon="12.328191949054599">
        <ele>55.13</ele>
        <time>2025-02-06T11:26:52.153Z</time>
      </trkpt>
      <trkpt lat="58.37961696088314" lon="12.32830393128097">
        <ele>55.08</ele>
        <time>2025-02-06T11:27:19.683Z</time>
      </trkpt>
      <trkpt lat="58.37959692813456" lon="12.328414991497993">
        <ele>55.03</ele>
        <time>2025-02-06T11:27:47.214Z</time>
      </trkpt>
      <trkpt lat="58.37957496754825" lon="12.328522950410843">
        <ele>54.98</ele>
        <time>2025-02-06T11:28:14.746Z</time>
      </trkpt>
      <trkpt lat="58.37955493479967" lon="12.328636944293976">
        <ele>54.94</ele>
        <time>2025-02-06T11:28:42.279Z</time>
      </trkpt>
      <trkpt lat="58.37953398004174" lon="12.328746998682618">
        <ele>54.89</ele>
        <time>2025-02-06T11:29:09.813Z</time>
      </trkpt>
      <trkpt lat="58.379518976435065" lon="12.328860992565751">
        <ele>54.83</ele>
        <time>2025-02-06T11:29:37.348Z</time>
      </trkpt>
      <trkpt lat="58.3795119356364" lon="12.328982949256897">
        <ele>54.78</ele>
        <time>2025-02-06T11:30:04.884Z</time>
      </trkpt>
      <trkpt lat="58.379520988091826" lon="12.329098954796791">
        <ele>54.73</ele>
        <time>2025-02-06T11:30:32.421Z</time>
      </trkpt>
      <trkpt lat="58.37953791953623" lon="12.329206997528672">
        <ele>54.68</ele>
        <time>2025-02-06T11:30:59.959Z</time>
      </trkpt>
      <trkpt lat="58.379563987255096" lon="12.329309927299619">
        <ele>54.62</ele>
        <time>2025-02-06T11:31:27.498Z</time>
      </trkpt>
      <trkpt lat="58.37959692813456" lon="12.329403972253203">
        <ele>54.56</ele>
        <time>2025-02-06T11:31:55.038Z</time>
      </trkpt>
      <trkpt lat="58.37963397614658" lon="12.329494999721646">
        <ele>54.5</ele>
        <time>2025-02-06T11:32:22.579Z</time>
      </trkpt>
      <trkpt lat="58.379669934511185" lon="12.329592984169722">
        <ele>54.44</ele>
        <time>2025-02-06T11:32:50.121Z</time>
      </trkpt>
      <trkpt lat="58.37970295920968" lon="12.32969792559743">
        <ele>54.37</ele>
        <time>2025-02-06T11:33:17.664Z</time>
      </trkpt>
      <trkpt lat="58.37972894310951" lon="12.329809991642833">
        <ele>54.32</ele>
        <time>2025-02-06T11:33:45.208Z</time>
      </trkpt>
      <trkpt lat="58.37974394671619" lon="12.329927925020456">
        <ele>54.26</ele>
        <time>2025-02-06T11:34:12.753Z</time>
      </trkpt>
      <trkpt lat="58.37974897585809" lon="12.330046948045492">
        <ele>54.2</ele>
        <time>2025-02-06T11:34:40.299Z</time>
      </trkpt>
      <trkpt lat="58.37974193505943" lon="12.330165971070528">
        <ele>54.14</ele>
        <time>2025-02-06T11:35:07.846Z</time>
      </trkpt>
      <trkpt lat="58.37972693145275" lon="12.330280970782042">
        <ele>54.08</ele>
        <time>2025-02-06T11:35:35.394Z</time>
      </trkpt>
      <trkpt lat="58.379708994179964" lon="12.330399993807077">
        <ele>54.02</ele>
        <time>2025-02-06T11:36:02.943Z</time>
      </trkpt>
      <trkpt lat="58.37968493811786" lon="12.330507952719927">
        <ele>53.96</ele>
        <time>2025-02-06T11:36:30.493Z</time>
      </trkpt>
      <trkpt lat="58.37965593673289" lon="12.330612977966666">
        <ele>53.9</ele>
        <time>2025-02-06T11:36:58.044Z</time>
      </trkpt>
      <trkpt lat="58.379627941176295" lon="12.330712974071503">
        <ele>53.85</ele>
        <time>2025-02-06T11:37:25.596Z</time>
      </trkpt>
      <trkpt lat="58.37960195727646" lon="12.330809952691197">
        <ele>53.79</ele>
        <time>2025-02-06T11:37:53.149Z</time>
      </trkpt>
      <trkpt lat="58.37957697920501" lon="12.330904919654131">
        <ele>53.73</ele>
        <time>2025-02-06T11:38:20.702Z</time>
      </trkpt>
      <trkpt lat="58.3795499894768" lon="12.330993935465813">
        <ele>53.68</ele>
        <time>2025-02-06T11:38:48.256Z</time>
      </trkpt>
      <trkpt lat="58.37952299974859" lon="12.33109393157065">
        <ele>53.62</ele>
        <time>2025-02-06T11:39:15.811Z</time>
      </trkpt>
      <trkpt lat="58.379498943686485" lon="12.331172972917557">
        <ele>53.56</ele>
        <time>2025-02-06T11:39:43.367Z</time>
      </trkpt>
      <trkpt lat="58.379475977271795" lon="12.331246985122561">
        <ele>53.51</ele>
        <time>2025-02-06T11:40:10.924Z</time>
      </trkpt>
      <trkpt lat="58.37945996783674" lon="12.331320997327566">
        <ele>53.45</ele>
        <time>2025-02-06T11:40:38.481Z</time>
      </trkpt>
      <trkpt lat="58.37944898754358" lon="12.331408923491836">
        <ele>53.39</ele>
        <time>2025-02-06T11:41:06.039Z</time>
      </trkpt>
      <trkpt lat="58.379436917603016" lon="12.331509925425053">
        <ele>53.33</ele>
        <time>2025-02-06T11:41:33.598Z</time>
      </trkpt>
      <trkpt lat="58.37942099198699" lon="12.33161293901503">
        <ele>53.27</ele>
        <time>2025-02-06T11:42:01.158Z</time>
      </trkpt>
      <trkpt lat="58.37940598838031" lon="12.331711929291487">
        <ele>53.21</ele>
        <time>2025-02-06T11:42:28.719Z</time>
      </trkpt>
      <trkpt lat="58.379387967288494" lon="12.331812931224704">
        <ele>53.15</ele>
        <time>2025-02-06T11:42:56.281Z</time>
      </trkpt>
      <trkpt lat="58.37936692871153" lon="12.331924997270107">
        <ele>53.09</ele>
        <time>2025-02-06T11:43:23.844Z</time>
      </trkpt>
      <trkpt lat="58.37934195064008" lon="12.33204091899097">
        <ele>53.04</ele>
        <time>2025-02-06T11:43:51.408Z</time>
      </trkpt>
      <trkpt lat="58.37931697256863" lon="12.332157930359244">
        <ele>52.98</ele>
        <time>2025-02-06T11:44:18.973Z</time>
      </trkpt>
      <trkpt lat="58.3792909886688" lon="12.332272930070758">
        <ele>52.92</ele>
        <time>2025-02-06T11:44:46.539Z</time>
      </trkpt>
      <trkpt lat="58.379264920949936" lon="12.332388935610652">
        <ele>52.86</ele>
        <time>2025-02-06T11:45:14.106Z</time>
      </trkpt>
      <trkpt lat="58.379241954535246" lon="12.332499995827675">
        <ele>52.8</ele>
        <time>2025-02-06T11:45:41.674Z</time>
      </trkpt>
      <trkpt lat="58.379217982292175" lon="12.332607954740524">
        <ele>52.74</ele>
        <time>2025-02-06T11:46:09.243Z</time>
      </trkpt>
      <trkpt lat="58.37919292040169" lon="12.3327059391886">
        <ele>52.68</ele>
        <time>2025-02-06T11:46:36.813Z</time>
      </trkpt>
      <trkpt lat="58.37917095981538" lon="12.332802917808294">
        <ele>52.62</ele>
        <time>2025-02-06T11:47:04.384Z</time>
      </trkpt>
      <trkpt lat="58.37914992123842" lon="12.332895956933498">
        <ele>52.55</ele>
        <time>2025-02-06T11:47:31.956Z</time>
      </trkpt>
      <trkpt lat="58.37912695482373" lon="12.332981955260038">
        <ele>52.49</ele>
        <time>2025-02-06T11:47:59.528Z</time>
      </trkpt>
      <trkpt lat="58.37910398840904" lon="12.333072982728481">
        <ele>52.43</ele>
        <time>2025-02-06T11:48:27.101Z</time>
      </trkpt>
      <trkpt lat="58.37907993234694" lon="12.333169961348176">
        <ele>52.37</ele>
        <time>2025-02-06T11:48:54.675Z</time>
      </trkpt>
      <trkpt lat="58.37905495427549" lon="12.33326492831111">
        <ele>52.32</ele>
        <time>2025-02-06T11:49:22.250Z</time>
      </trkpt>
      <trkpt lat="58.37902997620404" lon="12.333357967436314">
        <ele>52.26</ele>
        <time>2025-02-06T11:49:49.826Z</time>
      </trkpt>
      <trkpt lat="58.37900499813259" lon="12.333450922742486">
        <ele>52.2</ele>
        <time>2025-02-06T11:50:17.403Z</time>
      </trkpt>
      <trkpt lat="58.378981947898865" lon="12.33354295603931">
        <ele>52.13</ele>
        <time>2025-02-06T11:50:44.981Z</time>
      </trkpt>
      <trkpt lat="58.378963926807046" lon="12.33362895436585">
        <ele>52.08</ele>
        <time>2025-02-06T11:51:12.559Z</time>
      </trkpt>
      <trkpt lat="58.37895596399903" lon="12.333698943257332">
        <ele>52.02</ele>
        <time>2025-02-06T11:51:40.138Z</time>
      </trkpt>
      <trkpt lat="58.3789439778775" lon="12.333762980997562">
        <ele>51.95</ele>
        <time>2025-02-06T11:52:07.718Z</time>
      </trkpt>
      <trkpt lat="58.37892595678568" lon="12.333827940747142">
        <ele>51.89</ele>
        <time>2025-02-06T11:52:35.298Z</time>
      </trkpt>
      <trkpt lat="58.37890299037099" lon="12.333880998194218">
        <ele>51.83</ele>
        <time>2025-02-06T11:53:02.879Z</time>
      </trkpt>
      <trkpt lat="58.378872983157635" lon="12.333932965993881">
        <ele>51.77</ele>
        <time>2025-02-06T11:53:30.461Z</time>
      </trkpt>
      <trkpt lat="58.37884398177266" lon="12.33399792574346">
        <ele>51.71</ele>
        <time>2025-02-06T11:53:58.043Z</time>
      </trkpt>
      <trkpt lat="58.37881992571056" lon="12.334071937948465">
        <ele>51.65</ele>
        <time>2025-02-06T11:54:25.626Z</time>
      </trkpt>
      <trkpt lat="58.37880592793226" lon="12.334153996780515">
        <ele>51.6</ele>
        <time>2025-02-06T11:54:53.210Z</time>
      </trkpt>
      <trkpt lat="58.37879695929587" lon="12.334240917116404">
        <ele>51.54</ele>
        <time>2025-02-06T11:55:20.794Z</time>
      </trkpt>
      <trkpt lat="58.378785979002714" lon="12.334325993433595">
        <ele>51.48</ele>
        <time>2025-02-06T11:55:48.379Z</time>
      </trkpt>
      <trkpt lat="58.37876996956766" lon="12.334410985931754">
        <ele>51.43</ele>
        <time>2025-02-06T11:56:15.965Z</time>
      </trkpt>
      <trkpt lat="58.378747925162315" lon="12.334494972601533">
        <ele>51.37</ele>
        <time>2025-02-06T11:56:43.552Z</time>
      </trkpt>
      <trkpt lat="58.378722947090864" lon="12.33457493595779">
        <ele>51.32</ele>
        <time>2025-02-06T11:57:11.140Z</time>
      </trkpt>
      <trkpt lat="58.37869495153427" lon="12.33466093428433">
        <ele>51.26</ele>
        <time>2025-02-06T11:57:38.728Z</time>
      </trkpt>
      <trkpt lat="58.37866695597768" lon="12.334751961752772">
        <ele>51.21</ele>
        <time>2025-02-06T11:58:06.317Z</time>
      </trkpt>
      <trkpt lat="58.37864197790623" lon="12.334846928715706">
        <ele>51.15</ele>
        <time>2025-02-06T11:58:33.907Z</time>
      </trkpt>
      <trkpt lat="58.378616999834776" lon="12.334942985326052">
        <ele>51.1</ele>
        <time>2025-02-06T11:59:01.498Z</time>
      </trkpt>
      <trkpt lat="58.37859093211591" lon="12.335037952288985">
        <ele>51.04</ele>
        <time>2025-02-06T11:59:29.090Z</time>
      </trkpt>
      <trkpt lat="58.37856193073094" lon="12.33513199724257">
        <ele>50.99</ele>
        <time>2025-02-06T11:59:56.683Z</time>
      </trkpt>
      <trkpt lat="58.378530917689204" lon="12.335224952548742">
        <ele>50.94</ele>
        <time>2025-02-06T12:00:24.277Z</time>
      </trkpt>
      <trkpt lat="58.3784999884665" lon="12.335319919511676">
        <ele>50.88</ele>
        <time>2025-02-06T12:00:51.872Z</time>
      </trkpt>
      <trkpt lat="58.378467969596386" lon="12.335415976122022">
        <ele>50.83</ele>
        <time>2025-02-06T12:01:19.468Z</time>
      </trkpt>
      <trkpt lat="58.37843595072627" lon="12.335515972226858">
        <ele>50.77</ele>
        <time>2025-02-06T12:01:47.065Z</time>
      </trkpt>
      <trkpt lat="58.378402926027775" lon="12.335612950846553">
        <ele>50.72</ele>
        <time>2025-02-06T12:02:14.663Z</time>
      </trkpt>
      <trkpt lat="58.37836897931993" lon="12.335710935294628">
        <ele>50.67</ele>
        <time>2025-02-06T12:02:42.262Z</time>
      </trkpt>
      <trkpt lat="58.378334948793054" lon="12.335812943056226">
        <ele>50.61</ele>
        <time>2025-02-06T12:03:09.862Z</time>
      </trkpt>
      <trkpt lat="58.37829899042845" lon="12.335914950817823">
        <ele>50.56</ele>
        <time>2025-02-06T12:03:37.463Z</time>
      </trkpt>
      <trkpt lat="58.37826093658805" lon="12.33601494692266">
        <ele>50.5</ele>
        <time>2025-02-06T12:04:05.065Z</time>
      </trkpt>
      <trkpt lat="58.37822296656668" lon="12.336115948855877">
        <ele>50.44</ele>
        <time>2025-02-06T12:04:32.668Z</time>
      </trkpt>
      <trkpt lat="58.378183990716934" lon="12.336216950789094">
        <ele>50.39</ele>
        <time>2025-02-06T12:05:00.272Z</time>
      </trkpt>
      <trkpt lat="58.378144931048155" lon="12.336317952722311">
        <ele>50.33</ele>
        <time>2025-02-06T12:05:27.877Z</time>
      </trkpt>
      <trkpt lat="58.37810494937003" lon="12.336415937170386">
        <ele>50.27</ele>
        <time>2025-02-06T12:05:55.483Z</time>
      </trkpt>
      <trkpt lat="58.37806396186352" lon="12.336512999609113">
        <ele>50.22</ele>
        <time>2025-02-06T12:06:23.090Z</time>
      </trkpt>
      <trkpt lat="58.37802398018539" lon="12.336610984057188">
        <ele>50.16</ele>
        <time>2025-02-06T12:06:50.698Z</time>
      </trkpt>
      <trkpt lat="58.37798299267888" lon="12.336709974333644">
        <ele>50.11</ele>
        <time>2025-02-06T12:07:18.307Z</time>
      </trkpt>
      <trkpt lat="58.37793999351561" lon="12.33680997043848">
        <ele>50.06</ele>
        <time>2025-02-06T12:07:45.917Z</time>
      </trkpt>
      <trkpt lat="58.3778939768672" lon="12.336909966543317">
        <ele>50.0</ele>
        <time>2025-02-06T12:08:13.528Z</time>
      </trkpt>
      <trkpt lat="58.377845948562026" lon="12.337006945163012">
        <ele>49.95</ele>
        <time>2025-02-06T12:08:41.140Z</time>
      </trkpt>
      <trkpt lat="58.37779498659074" lon="12.337101995944977">
        <ele>49.9</ele>
        <time>2025-02-06T12:09:08.754Z</time>
      </trkpt>
      <trkpt lat="58.37774394080043" lon="12.33719696290791">
        <ele>49.85</ele>
        <time>2025-02-06T12:09:36.369Z</time>
      </trkpt>
      <trkpt lat="58.377691973000765" lon="12.337287990376353">
        <ele>49.8</ele>
        <time>2025-02-06T12:10:03.985Z</time>
      </trkpt>
      <trkpt lat="58.37763992138207" lon="12.337377928197384">
        <ele>49.75</ele>
        <time>2025-02-06T12:10:31.602Z</time>
      </trkpt>
      <trkpt lat="58.377586947754025" lon="12.337467949837446">
        <ele>49.7</ele>
        <time>2025-02-06T12:10:59.220Z</time>
      </trkpt>
      <trkpt lat="58.37753598578274" lon="12.337557971477509">
        <ele>49.65</ele>
        <time>2025-02-06T12:11:26.839Z</time>
      </trkpt>
      <trkpt lat="58.37748393416405" lon="12.33764598146081">
        <ele>49.59</ele>
        <time>2025-02-06T12:11:54.459Z</time>
      </trkpt>
      <trkpt lat="58.377430960536" lon="12.33773399144411">
        <ele>49.54</ele>
        <time>2025-02-06T12:12:22.080Z</time>
      </trkpt>
      <trkpt lat="58.37737899273634" lon="12.337823929265141">
        <ele>49.48</ele>
        <time>2025-02-06T12:12:49.703Z</time>
      </trkpt>
      <trkpt lat="58.3773239236325" lon="12.337914956733584">
        <ele>49.43</ele>
        <time>2025-02-06T12:13:17.327Z</time>
      </trkpt>
      <trkpt lat="58.37726994417608" lon="12.338007995858788">
        <ele>49.38</ele>
        <time>2025-02-06T12:13:44.952Z</time>
      </trkpt>
      <trkpt lat="58.37721395306289" lon="12.33810095116496">
        <ele>49.32</ele>
        <time>2025-02-06T12:14:12.578Z</time>
      </trkpt>
      <trkpt lat="58.377156956121325" lon="12.338195918127894">
        <ele>49.27</ele>
        <time>2025-02-06T12:14:40.205Z</time>
      </trkpt>
      <trkpt lat="58.37709995917976" lon="12.33829096890986">
        <ele>49.21</ele>
        <time>2025-02-06T12:15:07.834Z</time>
      </trkpt>
      <trkpt lat="58.37704296223819" lon="12.338384930044413">
        <ele>49.16</ele>
        <time>2025-02-06T12:15:35.464Z</time>
      </trkpt>
      <trkpt lat="58.37698898278177" lon="12.338474951684475">
        <ele>49.11</ele>
        <time>2025-02-06T12:16:03.095Z</time>
      </trkpt>
      <trkpt lat="58.37693592533469" lon="12.338558938354254">
        <ele>49.06</ele>
        <time>2025-02-06T12:16:30.727Z</time>
      </trkpt>
      <trkpt lat="58.37688596919179" lon="12.338640997186303">
        <ele>49.0</ele>
        <time>2025-02-06T12:16:58.360Z</time>
      </trkpt>
      <trkpt lat="58.376836935058236" lon="12.33872196637094">
        <ele>48.95</ele>
        <time>2025-02-06T12:17:25.994Z</time>
      </trkpt>
      <trkpt lat="58.376787984743714" lon="12.338802935555577">
        <ele>48.9</ele>
        <time>2025-02-06T12:17:53.629Z</time>
      </trkpt>
      <trkpt lat="58.37673794478178" lon="12.338877953588963">
        <ele>48.85</ele>
        <time>2025-02-06T12:18:21.265Z</time>
      </trkpt>
      <trkpt lat="58.37668991647661" lon="12.338948948308825">
        <ele>48.8</ele>
        <time>2025-02-06T12:18:48.902Z</time>
      </trkpt>
      <trkpt lat="58.376641971990466" lon="12.339018937200308">
        <ele>48.75</ele>
        <time>2025-02-06T12:19:16.540Z</time>
      </trkpt>
      <trkpt lat="58.37659394368529" lon="12.33908993192017">
        <ele>48.7</ele>
        <time>2025-02-06T12:19:44.179Z</time>
      </trkpt>
      <trkpt lat="58.37654599919915" lon="12.339159920811653">
        <ele>48.65</ele>
        <time>2025-02-06T12:20:11.819Z</time>
      </trkpt>
      <trkpt lat="58.37649495340884" lon="12.339230999350548">
        <ele>48.6</ele>
        <time>2025-02-06T12:20:39.460Z</time>
      </trkpt>
      <trkpt lat="58.37644197978079" lon="12.339305933564901">
        <ele>48.55</ele>
        <time>2025-02-06T12:21:07.102Z</time>
      </trkpt>
      <trkpt lat="58.37638791650534" lon="12.339383969083428">
        <ele>48.5</ele>
        <time>2025-02-06T12:21:34.745Z</time>
      </trkpt>
      <trkpt lat="58.37633192539215" lon="12.339465944096446">
        <ele>48.45</ele>
        <time>2025-02-06T12:22:02.389Z</time>
      </trkpt>
      <trkpt lat="58.376275934278965" lon="12.339543979614973">
        <ele>48.4</ele>
        <time>2025-02-06T12:22:30.034Z</time>
      </trkpt>
      <trkpt lat="58.37621692568064" lon="12.33962394297123">
        <ele>48.36</ele>
        <time>2025-02-06T12:22:57.681Z</time>
      </trkpt>
      <trkpt lat="58.37615699507296" lon="12.339702984318137">
        <ele>48.31</ele>
        <time>2025-02-06T12:23:25.329Z</time>
      </trkpt>
      <trkpt lat="58.37609597481787" lon="12.339782947674394">
        <ele>48.27</ele>
        <time>2025-02-06T12:23:52.978Z</time>
      </trkpt>
      <trkpt lat="58.375311931595206" lon="12.340939985588193">
        <ele>48.21</ele>
        <time>2025-02-06T12:24:20.643Z</time>
      </trkpt>
      <trkpt lat="58.375285947695374" lon="12.340981978923082">
        <ele>48.16</ele>
        <time>2025-02-06T12:24:48.308Z</time>
      </trkpt>
      <trkpt lat="58.37525895796716" lon="12.341022966429591">
        <ele>48.11</ele>
        <time>2025-02-06T12:25:15.974Z</time>
      </trkpt>
      <trkpt lat="58.37520598433912" lon="12.34110594727099">
        <ele>48.06</ele>
        <time>2025-02-06T12:25:43.641Z</time>
      </trkpt>
      <trkpt lat="58.37514999322593" lon="12.341187922284007">
        <ele>48.01</ele>
        <time>2025-02-06T12:26:11.309Z</time>
      </trkpt>
      <trkpt lat="58.375094924122095" lon="12.341268975287676">
        <ele>47.97</ele>
        <time>2025-02-06T12:26:38.978Z</time>
      </trkpt>
      <trkpt lat="58.37503692135215" lon="12.341348938643932">
        <ele>47.92</ele>
        <time>2025-02-06T12:27:06.649Z</time>
      </trkpt>
      <trkpt lat="58.37497497908771" lon="12.341422950848937">
        <ele>47.88</ele>
        <time>2025-02-06T12:27:34.321Z</time>
      </trkpt>
      <trkpt lat="58.37491194717586" lon="12.341491933912039">
        <ele>47.84</ele>
        <time>2025-02-06T12:28:01.994Z</time>
      </trkpt>
      <trkpt lat="58.37484992109239" lon="12.341575920581818">
        <ele>47.79</ele>
        <time>2025-02-06T12:28:29.668Z</time>
      </trkpt>
      <trkpt lat="58.374792924150825" lon="12.341670971363783">
        <ele>47.75</ele>
        <time>2025-02-06T12:28:57.343Z</time>
      </trkpt>
      <trkpt lat="58.37473793886602" lon="12.341771973297">
        <ele>47.71</ele>
        <time>2025-02-06T12:29:25.020Z</time>
      </trkpt>
      <trkpt lat="58.374682953581214" lon="12.341871969401836">
        <ele>47.66</ele>
        <time>2025-02-06T12:29:52.698Z</time>
      </trkpt>
      <trkpt lat="58.374621933326125" lon="12.341963918879628">
        <ele>47.62</ele>
        <time>2025-02-06T12:30:20.377Z</time>
      </trkpt>
      <trkpt lat="58.37455999106169" lon="12.34205192886293">
        <ele>47.58</ele>
        <time>2025-02-06T12:30:48.057Z</time>
      </trkpt>
      <trkpt lat="58.37449695914984" lon="12.342143962159753">
        <ele>47.53</ele>
        <time>2025-02-06T12:31:15.739Z</time>
      </trkpt>
      <trkpt lat="58.37443199940026" lon="12.342236917465925">
        <ele>47.49</ele>
        <time>2025-02-06T12:31:43.422Z</time>
      </trkpt>
      <trkpt lat="58.37436695583165" lon="12.342327944934368">
        <ele>47.45</ele>
        <time>2025-02-06T12:32:11.106Z</time>
      </trkpt>
      <trkpt lat="58.374302918091416" lon="12.342418972402811">
        <ele>47.41</ele>
        <time>2025-02-06T12:32:38.791Z</time>
      </trkpt>
      <trkpt lat="58.37424198165536" lon="12.342512933537364">
        <ele>47.37</ele>
        <time>2025-02-06T12:33:06.478Z</time>
      </trkpt>
      <trkpt lat="58.37418297305703" lon="12.342604966834188">
        <ele>47.33</ele>
        <time>2025-02-06T12:33:34.166Z</time>
      </trkpt>
      <trkpt lat="58.374124970287085" lon="12.342692976817489">
        <ele>47.29</ele>
        <time>2025-02-06T12:34:01.855Z</time>
      </trkpt>
      <trkpt lat="58.37406797334552" lon="12.342774951830506">
        <ele>47.26</ele>
        <time>2025-02-06T12:34:29.545Z</time>
      </trkpt>
      <trkpt lat="58.37401298806071" lon="12.342853993177414">
        <ele>47.22</ele>
        <time>2025-02-06T12:34:57.236Z</time>
      </trkpt>
      <trkpt lat="58.373953979462385" lon="12.342929933220148">
        <ele>47.19</ele>
        <time>2025-02-06T12:35:24.928Z</time>
      </trkpt>
      <trkpt lat="58.37389497086406" lon="12.343001933768392">
        <ele>47.16</ele>
        <time>2025-02-06T12:35:52.622Z</time>
      </trkpt>
      <trkpt lat="58.37383395060897" lon="12.343073934316635">
        <ele>47.12</ele>
        <time>2025-02-06T12:36:20.317Z</time>
      </trkpt>
      <trkpt lat="58.37377091869712" lon="12.343149958178401">
        <ele>47.09</ele>
        <time>2025-02-06T12:36:48.013Z</time>
      </trkpt>
      <trkpt lat="58.3737079706043" lon="12.343226987868547">
        <ele>47.05</ele>
        <time>2025-02-06T12:37:15.710Z</time>
      </trkpt>
      <trkpt lat="58.37364393286407" lon="12.343301922082901">
        <ele>47.02</ele>
        <time>2025-02-06T12:37:43.408Z</time>
      </trkpt>
      <trkpt lat="58.37357997894287" lon="12.343378951773047">
        <ele>46.99</ele>
        <time>2025-02-06T12:38:11.108Z</time>
      </trkpt>
      <trkpt lat="58.37351493537426" lon="12.343458998948336">
        <ele>46.95</ele>
        <time>2025-02-06T12:38:38.809Z</time>
      </trkpt>
      <trkpt lat="58.37345198728144" lon="12.343542985618114">
        <ele>46.92</ele>
        <time>2025-02-06T12:39:06.511Z</time>
      </trkpt>
      <trkpt lat="58.37338996119797" lon="12.343628983944654">
        <ele>46.88</ele>
        <time>2025-02-06T12:39:34.214Z</time>
      </trkpt>
      <trkpt lat="58.37332894094288" lon="12.343714982271194">
        <ele>46.86</ele>
        <time>2025-02-06T12:40:01.918Z</time>
      </trkpt>
      <trkpt lat="58.373268926516175" lon="12.343798968940973">
        <ele>46.83</ele>
        <time>2025-02-06T12:40:29.624Z</time>
      </trkpt>
      <trkpt lat="58.37320991791785" lon="12.343883961439133">
        <ele>46.8</ele>
        <time>2025-02-06T12:40:57.331Z</time>
      </trkpt>
      <trkpt lat="58.37315292097628" lon="12.343968953937292">
        <ele>46.76</ele>
        <time>2025-02-06T12:41:25.039Z</time>
      </trkpt>
      <trkpt lat="58.373095924034715" lon="12.344057969748974">
        <ele>46.74</ele>
        <time>2025-02-06T12:41:52.748Z</time>
      </trkpt>
      <trkpt lat="58.37304093874991" lon="12.344149919226766">
        <ele>46.72</ele>
        <time>2025-02-06T12:42:20.458Z</time>
      </trkpt>
      <trkpt lat="58.37298494763672" lon="12.34424195252359">
        <ele>46.69</ele>
        <time>2025-02-06T12:42:48.170Z</time>
      </trkpt>
      <trkpt lat="58.37292996235192" lon="12.344332979992032">
        <ele>46.66</ele>
        <time>2025-02-06T12:43:15.883Z</time>
      </trkpt>
      <trkpt lat="58.37287598289549" lon="12.344424929469824">
        <ele>46.63</ele>
        <time>2025-02-06T12:43:43.597Z</time>
      </trkpt>
      <trkpt lat="58.37281999178231" lon="12.344516962766647">
        <ele>46.61</ele>
        <time>2025-02-06T12:44:11.312Z</time>
      </trkpt>
      <trkpt lat="58.37276592850685" lon="12.34460899606347">
        <ele>46.58</ele>
        <time>2025-02-06T12:44:39.028Z</time>
      </trkpt>
      <trkpt lat="58.37271295487881" lon="12.344701951369643">
        <ele>46.56</ele>
        <time>2025-02-06T12:45:06.745Z</time>
      </trkpt>
      <trkpt lat="58.37266098707914" lon="12.344788955524564">
        <ele>46.53</ele>
        <time>2025-02-06T12:45:34.463Z</time>
      </trkpt>
      <trkpt lat="58.37260499596596" lon="12.344873948022723">
        <ele>46.51</ele>
        <time>2025-02-06T12:46:02.183Z</time>
      </trkpt>
      <trkpt lat="58.37255193851888" lon="12.344958940520883">
        <ele>46.49</ele>
        <time>2025-02-06T12:46:29.904Z</time>
      </trkpt>
      <trkpt lat="58.37249896489084" lon="12.34504192136228">
        <ele>46.47</ele>
        <time>2025-02-06T12:46:57.626Z</time>
      </trkpt>
      <trkpt lat="58.37244297377765" lon="12.34512398019433">
        <ele>46.44</ele>
        <time>2025-02-06T12:47:25.349Z</time>
      </trkpt>
      <trkpt lat="58.372386982664466" lon="12.345201931893826">
        <ele>46.42</ele>
        <time>2025-02-06T12:47:53.073Z</time>
      </trkpt>
      <trkpt lat="58.37233099155128" lon="12.345282984897494">
        <ele>46.39</ele>
        <time>2025-02-06T12:48:20.798Z</time>
      </trkpt>
      <trkpt lat="58.372273994609714" lon="12.345367977395654">
        <ele>46.37</ele>
        <time>2025-02-06T12:48:48.524Z</time>
      </trkpt>
      <trkpt lat="58.37221699766815" lon="12.345455987378955">
        <ele>46.35</ele>
        <time>2025-02-06T12:49:16.252Z</time>
      </trkpt>
      <trkpt lat="58.37215798906982" lon="12.345541985705495">
        <ele>46.33</ele>
        <time>2025-02-06T12:49:43.981Z</time>
      </trkpt>
      <trkpt lat="58.37209898047149" lon="12.345625972375274">
        <ele>46.32</ele>
        <time>2025-02-06T12:50:11.711Z</time>
      </trkpt>
      <trkpt lat="58.372039971873164" lon="12.345712976530194">
        <ele>46.3</ele>
        <time>2025-02-06T12:50:39.442Z</time>
      </trkpt>
      <trkpt lat="58.371979957446456" lon="12.345800986513495">
        <ele>46.28</ele>
        <time>2025-02-06T12:51:07.174Z</time>
      </trkpt>
      <trkpt lat="58.37192094884813" lon="12.345890924334526">
        <ele>46.26</ele>
        <time>2025-02-06T12:51:34.908Z</time>
      </trkpt>
      <trkpt lat="58.37186093442142" lon="12.345981951802969">
        <ele>46.25</ele>
        <time>2025-02-06T12:52:02.643Z</time>
      </trkpt>
      <trkpt lat="58.37179899215698" lon="12.346071973443031">
        <ele>46.23</ele>
        <time>2025-02-06T12:52:30.379Z</time>
      </trkpt>
      <trkpt lat="58.37173696607351" lon="12.346158977597952">
        <ele>46.22</ele>
        <time>2025-02-06T12:52:58.116Z</time>
      </trkpt>
      <trkpt lat="58.371676951646805" lon="12.346245981752872">
        <ele>46.21</ele>
        <time>2025-02-06T12:53:25.854Z</time>
      </trkpt>
      <trkpt lat="58.37161794304848" lon="12.346330974251032">
        <ele>46.19</ele>
        <time>2025-02-06T12:53:53.594Z</time>
      </trkpt>
      <trkpt lat="58.37155792862177" lon="12.34641395509243">
        <ele>46.18</ele>
        <time>2025-02-06T12:54:21.335Z</time>
      </trkpt>
      <trkpt lat="58.37149799801409" lon="12.346495930105448">
        <ele>46.17</ele>
        <time>2025-02-06T12:54:49.077Z</time>
      </trkpt>
      <trkpt lat="58.371437983587384" lon="12.346578994765878">
        <ele>46.15</ele>
        <time>2025-02-06T12:55:16.820Z</time>
      </trkpt>
      <trkpt lat="58.37137998081744" lon="12.346662981435657">
        <ele>46.14</ele>
        <time>2025-02-06T12:55:44.564Z</time>
      </trkpt>
      <trkpt lat="58.37132197804749" lon="12.346747973933816">
        <ele>46.13</ele>
        <time>2025-02-06T12:56:12.310Z</time>
      </trkpt>
      <trkpt lat="58.371265986934304" lon="12.346833972260356">
        <ele>46.12</ele>
        <time>2025-02-06T12:56:40.057Z</time>
      </trkpt>
      <trkpt lat="58.37120999582112" lon="12.346918964758515">
        <ele>46.12</ele>
        <time>2025-02-06T12:57:07.805Z</time>
      </trkpt>
      <trkpt lat="58.37115492671728" lon="12.347000939771533">
        <ele>46.11</ele>
        <time>2025-02-06T12:57:35.554Z</time>
      </trkpt>
      <trkpt lat="58.371099941432476" lon="12.347081992775202">
        <ele>46.1</ele>
        <time>2025-02-06T12:58:03.304Z</time>
      </trkpt>
      <trkpt lat="58.37104696780443" lon="12.34716396778822">
        <ele>46.1</ele>
        <time>2025-02-06T12:58:31.055Z</time>
      </trkpt>
      <trkpt lat="58.37099491618574" lon="12.347244936972857">
        <ele>46.1</ele>
        <time>2025-02-06T12:58:58.807Z</time>
      </trkpt>
      <trkpt lat="58.370944960042834" lon="12.347325989976525">
        <ele>46.09</ele>
        <time>2025-02-06T12:59:26.560Z</time>
      </trkpt>
      <trkpt lat="58.37089693173766" lon="12.347406959161162">
        <ele>46.09</ele>
        <time>2025-02-06T12:59:54.314Z</time>
      </trkpt>
      <trkpt lat="58.3708499930799" lon="12.34748893417418">
        <ele>46.09</ele>
        <time>2025-02-06T13:00:22.069Z</time>
      </trkpt>
      <trkpt lat="58.37080397643149" lon="12.34757392667234">
        <ele>46.09</ele>
        <time>2025-02-06T13:00:49.825Z</time>
      </trkpt>
      <trkpt lat="58.37075795978308" lon="12.347653973847628">
        <ele>46.1</ele>
        <time>2025-02-06T13:01:17.582Z</time>
      </trkpt>
      <trkpt lat="58.37070498615503" lon="12.347715999931097">
        <ele>46.1</ele>
        <time>2025-02-06T13:01:45.340Z</time>
      </trkpt>
      <trkpt lat="58.370642960071564" lon="12.34774793498218">
        <ele>46.09</ele>
        <time>2025-02-06T13:02:13.099Z</time>
      </trkpt>
      <trkpt lat="58.37057892233133" lon="12.34776696190238">
        <ele>46.09</ele>
        <time>2025-02-06T13:02:40.860Z</time>
      </trkpt>
      <trkpt lat="58.370517985895276" lon="12.347802920266986">
        <ele>46.09</ele>
        <time>2025-02-06T13:03:08.622Z</time>
      </trkpt>
      <trkpt lat="58.3704649284482" lon="12.347864946350455">
        <ele>46.1</ele>
        <time>2025-02-06T13:03:36.385Z</time>
      </trkpt>
      <trkpt lat="58.37041798979044" lon="12.347950944676995">
        <ele>46.1</ele>
        <time>2025-02-06T13:04:04.149Z</time>
      </trkpt>
      <trkpt lat="58.37037297897041" lon="12.34804792329669">
        <ele>46.1</ele>
        <time>2025-02-06T13:04:31.914Z</time>
      </trkpt>
      <trkpt lat="58.370326962322" lon="12.348146997392178">
        <ele>46.1</ele>
        <time>2025-02-06T13:04:59.680Z</time>
      </trkpt>
      <trkpt lat="58.370279939845204" lon="12.348241964355111">
        <ele>46.11</ele>
        <time>2025-02-06T13:05:27.447Z</time>
      </trkpt>
      <trkpt lat="58.37023098953068" lon="12.348331985995173">
        <ele>46.11</ele>
        <time>2025-02-06T13:05:55.215Z</time>
      </trkpt>
      <trkpt lat="58.37018195539713" lon="12.34841094352305">
        <ele>46.12</ele>
        <time>2025-02-06T13:06:22.984Z</time>
      </trkpt>
      <trkpt lat="58.37013493292034" lon="12.348480932414532">
        <ele>46.13</ele>
        <time>2025-02-06T13:06:50.754Z</time>
      </trkpt>
      <trkpt lat="58.370090927928686" lon="12.348547987639904">
        <ele>46.14</ele>
        <time>2025-02-06T13:07:18.525Z</time>
      </trkpt>
      <trkpt lat="58.370047928765416" lon="12.348609929904342">
        <ele>46.15</ele>
        <time>2025-02-06T13:07:46.297Z</time>
      </trkpt>
      <trkpt lat="58.370004929602146" lon="12.34866994433105">
        <ele>46.17</ele>
        <time>2025-02-06T13:08:14.070Z</time>
      </trkpt>
      <trkpt lat="58.369961930438876" lon="12.348726941272616">
        <ele>46.18</ele>
        <time>2025-02-06T13:08:41.843Z</time>
      </trkpt>
      <trkpt lat="58.36991993710399" lon="12.348786955699325">
        <ele>46.2</ele>
        <time>2025-02-06T13:09:09.617Z</time>
      </trkpt>
      <trkpt lat="58.36987894959748" lon="12.348845964297652">
        <ele>46.21</ele>
        <time>2025-02-06T13:09:37.392Z</time>
      </trkpt>
      <trkpt lat="58.36983896791935" lon="12.348902961239219">
        <ele>46.22</ele>
        <time>2025-02-06T13:10:05.168Z</time>
      </trkpt>
      <trkpt lat="58.3697999920696" lon="12.348960964009166">
        <ele>46.24</ele>
        <time>2025-02-06T13:10:32.945Z</time>
      </trkpt>
      <trkpt lat="58.36976093240082" lon="12.349015949293971">
        <ele>46.25</ele>
        <time>2025-02-06T13:11:00.722Z</time>
      </trkpt>
      <trkpt lat="58.369720950722694" lon="12.349068922922015">
        <ele>46.27</ele>
        <time>2025-02-06T13:11:28.500Z</time>
      </trkpt>
      <trkpt lat="58.369679963216186" lon="12.349121980369091">
        <ele>46.28</ele>
        <time>2025-02-06T13:11:56.279Z</time>
      </trkpt>
      <trkpt lat="58.369636964052916" lon="12.349177971482277">
        <ele>46.3</ele>
        <time>2025-02-06T13:12:24.059Z</time>
      </trkpt>
      <trkpt lat="58.369594970718026" lon="12.349232956767082">
        <ele>46.32</ele>
        <time>2025-02-06T13:12:51.840Z</time>
      </trkpt>
      <trkpt lat="58.36955297738314" lon="12.349286936223507">
        <ele>46.34</ele>
        <time>2025-02-06T13:13:19.622Z</time>
      </trkpt>
      <trkpt lat="58.36951198987663" lon="12.349341921508312">
        <ele>46.35</ele>
        <time>2025-02-06T13:13:47.404Z</time>
      </trkpt>
      <trkpt lat="58.36947293020785" lon="12.349395984783769">
        <ele>46.37</ele>
        <time>2025-02-06T13:14:15.187Z</time>
      </trkpt>
      <trkpt lat="58.3694339543581" lon="12.349450970068574">
        <ele>46.39</ele>
        <time>2025-02-06T13:14:42.971Z</time>
      </trkpt>
      <trkpt lat="58.369396990165114" lon="12.34950595535338">
        <ele>46.41</ele>
        <time>2025-02-06T13:15:10.756Z</time>
      </trkpt>
      <trkpt lat="58.369359942153096" lon="12.349557923153043">
        <ele>46.43</ele>
        <time>2025-02-06T13:15:38.541Z</time>
      </trkpt>
      <trkpt lat="58.36932297796011" lon="12.349607963114977">
        <ele>46.46</ele>
        <time>2025-02-06T13:16:06.327Z</time>
      </trkpt>
      <trkpt lat="58.36928693577647" lon="12.34965993091464">
        <ele>46.48</ele>
        <time>2025-02-06T13:16:34.114Z</time>
      </trkpt>
      <trkpt lat="58.369249971583486" lon="12.349713994190097">
        <ele>46.5</ele>
        <time>2025-02-06T13:17:01.902Z</time>
      </trkpt>
      <trkpt lat="58.36921191774309" lon="12.349770991131663">
        <ele>46.52</ele>
        <time>2025-02-06T13:17:29.690Z</time>
      </trkpt>
      <trkpt lat="58.36917193606496" lon="12.34982899390161">
        <ele>46.55</ele>
        <time>2025-02-06T13:17:57.479Z</time>
      </trkpt>
      <trkpt lat="58.36913296021521" lon="12.349887918680906">
        <ele>46.57</ele>
        <time>2025-02-06T13:18:25.269Z</time>
      </trkpt>
      <trkpt lat="58.36909691803157" lon="12.349945921450853">
        <ele>46.6</ele>
        <time>2025-02-06T13:18:53.060Z</time>
      </trkpt>
      <trkpt lat="58.36906498298049" lon="12.349995961412787">
        <ele>46.62</ele>
        <time>2025-02-06T13:19:20.851Z</time>
      </trkpt>
      <trkpt lat="58.369035981595516" lon="12.350034937262535">
        <ele>46.64</ele>
        <time>2025-02-06T13:19:48.643Z</time>
      </trkpt>
      <trkpt lat="58.36901091970503" lon="12.35006595030427">
        <ele>46.67</ele>
        <time>2025-02-06T13:20:16.435Z</time>
      </trkpt>
      <trkpt lat="58.36898795329034" lon="12.350091934204102">
        <ele>46.69</ele>
        <time>2025-02-06T13:20:44.228Z</time>
      </trkpt>
      <trkpt lat="58.36896792054176" lon="12.35010995529592">
        <ele>46.72</ele>
        <time>2025-02-06T13:21:12.021Z</time>
      </trkpt>
      <trkpt lat="58.36895199492574" lon="12.350119929760695">
        <ele>46.74</ele>
        <time>2025-02-06T13:21:39.814Z</time>
      </trkpt>
      <trkpt lat="58.36894093081355" lon="12.350124958902597">
        <ele>46.77</ele>
        <time>2025-02-06T13:22:07.608Z</time>
      </trkpt>
      <trkpt lat="58.36893296800554" lon="12.35012797638774">
        <ele>46.79</ele>
        <time>2025-02-06T13:22:35.402Z</time>
      </trkpt>
      <trkpt lat="58.36893196217716" lon="12.35012898221612">
        <ele>46.81</ele>
        <time>2025-02-06T13:23:03.196Z</time>
      </trkpt>
      <trkpt lat="58.36893196217716" lon="12.35012797638774">
        <ele>46.84</ele>
        <time>2025-02-06T13:23:30.990Z</time>
      </trkpt>
      <trkpt lat="58.3689109236002" lon="12.350165946409106">
        <ele>46.86</ele>
        <time>2025-02-06T13:23:58.784Z</time>
      </trkpt>
      <trkpt lat="58.3689019549638" lon="12.350192936137319">
        <ele>46.89</ele>
        <time>2025-02-06T13:24:26.579Z</time>
      </trkpt>
      <trkpt lat="58.36888896301389" lon="12.350221937522292">
        <ele>46.91</ele>
        <time>2025-02-06T13:24:54.374Z</time>
      </trkpt>
      <trkpt lat="58.36886993609369" lon="12.350254962220788">
        <ele>46.94</ele>
        <time>2025-02-06T13:25:22.169Z</time>
      </trkpt>
      <trkpt lat="58.36884998716414" lon="12.350293938070536">
        <ele>46.96</ele>
        <time>2025-02-06T13:25:49.965Z</time>
      </trkpt>
      <trkpt lat="58.36882693693042" lon="12.350339954718947">
        <ele>46.98</ele>
        <time>2025-02-06T13:26:17.761Z</time>
      </trkpt>
      <trkpt lat="58.368799947202206" lon="12.350388988852501">
        <ele>47.0</ele>
        <time>2025-02-06T13:26:45.558Z</time>
      </trkpt>
      <trkpt lat="58.36876993998885" lon="12.350439950823784">
        <ele>47.02</ele>
        <time>2025-02-06T13:27:13.355Z</time>
      </trkpt>
      <trkpt lat="58.368734987452626" lon="12.350491918623447">
        <ele>47.05</ele>
        <time>2025-02-06T13:27:41.153Z</time>
      </trkpt>
      <trkpt lat="58.36869693361223" lon="12.350545981898904">
        <ele>47.07</ele>
        <time>2025-02-06T13:28:08.952Z</time>
      </trkpt>
      <trkpt lat="58.3686569519341" lon="12.35060197301209">
        <ele>47.09</ele>
        <time>2025-02-06T13:28:36.752Z</time>
      </trkpt>
      <trkpt lat="58.36861395277083" lon="12.350658969953656">
        <ele>47.12</ele>
        <time>2025-02-06T13:29:04.553Z</time>
      </trkpt>
      <trkpt lat="58.3685689419508" lon="12.350718984380364">
        <ele>47.14</ele>
        <time>2025-02-06T13:29:32.354Z</time>
      </trkpt>
      <trkpt lat="58.36852393113077" lon="12.350779920816422">
        <ele>47.16</ele>
        <time>2025-02-06T13:30:00.156Z</time>
      </trkpt>
      <trkpt lat="58.36847799830139" lon="12.35084094107151">
        <ele>47.19</ele>
        <time>2025-02-06T13:30:27.959Z</time>
      </trkpt>
      <trkpt lat="58.368430975824594" lon="12.35090397298336">
        <ele>47.21</ele>
        <time>2025-02-06T13:30:55.763Z</time>
      </trkpt>
      <trkpt lat="58.36838495917618" lon="12.35096993856132">
        <ele>47.23</ele>
        <time>2025-02-06T13:31:23.568Z</time>
      </trkpt>
      <trkpt lat="58.36833994835615" lon="12.351039927452803">
        <ele>47.25</ele>
        <time>2025-02-06T13:31:51.374Z</time>
      </trkpt>
      <trkpt lat="58.36829292587936" lon="12.351107988506556">
        <ele>47.28</ele>
        <time>2025-02-06T13:32:19.181Z</time>
      </trkpt>
      <trkpt lat="58.3682459872216" lon="12.351174959912896">
        <ele>47.3</ele>
        <time>2025-02-06T13:32:46.989Z</time>
      </trkpt>
      <trkpt lat="58.368195947259665" lon="12.351244948804379">
        <ele>47.33</ele>
        <time>2025-02-06T13:33:14.798Z</time>
      </trkpt>
      <trkpt lat="58.36814599111676" lon="12.35131393186748">
        <ele>47.35</ele>
        <time>2025-02-06T13:33:42.608Z</time>
      </trkpt>
      <trkpt lat="58.36809695698321" lon="12.351383920758963">
        <ele>47.37</ele>
        <time>2025-02-06T13:34:10.419Z</time>
      </trkpt>
      <trkpt lat="58.368045995011926" lon="12.351454999297857">
        <ele>47.39</ele>
        <time>2025-02-06T13:34:38.231Z</time>
      </trkpt>
      <trkpt lat="58.36799595504999" lon="12.35152599401772">
        <ele>47.42</ele>
        <time>2025-02-06T13:35:06.044Z</time>
      </trkpt>
      <trkpt lat="58.36794499307871" lon="12.351597994565964">
        <ele>47.44</ele>
        <time>2025-02-06T13:35:33.858Z</time>
      </trkpt>
      <trkpt lat="58.367895958945155" lon="12.351664965972304">
        <ele>47.46</ele>
        <time>2025-02-06T13:36:01.673Z</time>
      </trkpt>
      <trkpt lat="58.3678469248116" lon="12.351728919893503">
        <ele>47.48</ele>
        <time>2025-02-06T13:36:29.489Z</time>
      </trkpt>
      <trkpt lat="58.36779898032546" lon="12.351794969290495">
        <ele>47.49</ele>
        <time>2025-02-06T13:36:57.306Z</time>
      </trkpt>
      <trkpt lat="58.36775296367705" lon="12.351861940696836">
        <ele>47.51</ele>
        <time>2025-02-06T13:37:25.124Z</time>
      </trkpt>
      <trkpt lat="58.367705941200256" lon="12.351930923759937">
        <ele>47.53</ele>
        <time>2025-02-06T13:37:52.943Z</time>
      </trkpt>
      <trkpt lat="58.367658918723464" lon="12.352004935964942">
        <ele>47.55</ele>
        <time>2025-02-06T13:38:20.763Z</time>
      </trkpt>
      <trkpt lat="58.3676119800657" lon="12.352076936513186">
        <ele>47.57</ele>
        <time>2025-02-06T13:38:48.584Z</time>
      </trkpt>
      <trkpt lat="58.36756596341729" lon="12.352147931233048">
        <ele>47.58</ele>
        <time>2025-02-06T13:39:16.406Z</time>
      </trkpt>
      <trkpt lat="58.36751793511212" lon="12.35221792012453">
        <ele>47.6</ele>
        <time>2025-02-06T13:39:44.229Z</time>
      </trkpt>
      <trkpt lat="58.36746999062598" lon="12.352289920672774">
        <ele>47.61</ele>
        <time>2025-02-06T13:40:12.053Z</time>
      </trkpt>
      <trkpt lat="58.367423973977566" lon="12.352360999211669">
        <ele>47.63</ele>
        <time>2025-02-06T13:40:39.877Z</time>
      </trkpt>
      <trkpt lat="58.367377957329154" lon="12.352432999759912">
        <ele>47.64</ele>
        <time>2025-02-06T13:41:07.702Z</time>
      </trkpt>
      <trkpt lat="58.36733093485236" lon="12.352504916489124">
        <ele>47.66</ele>
        <time>2025-02-06T13:41:35.528Z</time>
      </trkpt>
      <trkpt lat="58.36728299036622" lon="12.352574989199638">
        <ele>47.67</ele>
        <time>2025-02-06T13:42:03.355Z</time>
      </trkpt>
      <trkpt lat="58.36723596788943" lon="12.35264397226274">
        <ele>47.68</ele>
        <time>2025-02-06T13:42:31.183Z</time>
      </trkpt>
      <trkpt lat="58.367187939584255" lon="12.352712955325842">
        <ele>47.7</ele>
        <time>2025-02-06T13:42:59.012Z</time>
      </trkpt>
      <trkpt lat="58.36714091710746" lon="12.352780932560563">
        <ele>47.71</ele>
        <time>2025-02-06T13:43:26.842Z</time>
      </trkpt>
      <trkpt lat="58.36709297262132" lon="12.352849999442697">
        <ele>47.72</ele>
        <time>2025-02-06T13:43:54.673Z</time>
      </trkpt>
      <trkpt lat="58.36704595014453" lon="12.352917976677418">
        <ele>47.73</ele>
        <time>2025-02-06T13:44:22.505Z</time>
      </trkpt>
      <trkpt lat="58.366997921839356" lon="12.35298695974052">
        <ele>47.74</ele>
        <time>2025-02-06T13:44:50.338Z</time>
      </trkpt>
      <trkpt lat="58.366950983181596" lon="12.353055942803621">
        <ele>47.75</ele>
        <time>2025-02-06T13:45:18.172Z</time>
      </trkpt>
      <trkpt lat="58.36690295487642" lon="12.353125931695104">
        <ele>47.77</ele>
        <time>2025-02-06T13:45:46.007Z</time>
      </trkpt>
      <trkpt lat="58.36685492657125" lon="12.353195920586586">
        <ele>47.78</ele>
        <time>2025-02-06T13:46:13.843Z</time>
      </trkpt>
      <trkpt lat="58.36680698208511" lon="12.35326699912548">
        <ele>47.79</ele>
        <time>2025-02-06T13:46:41.680Z</time>
      </trkpt>
      <trkpt lat="58.366758953779936" lon="12.353336988016963">
        <ele>47.79</ele>
        <time>2025-02-06T13:47:09.518Z</time>
      </trkpt>
      <trkpt lat="58.36671092547476" lon="12.353407982736826">
        <ele>47.8</ele>
        <time>2025-02-06T13:47:37.357Z</time>
      </trkpt>
      <trkpt lat="58.36666298098862" lon="12.353475959971547">
        <ele>47.81</ele>
        <time>2025-02-06T13:48:05.197Z</time>
      </trkpt>
      <trkpt lat="58.36661495268345" lon="12.35354594886303">
        <ele>47.82</ele>
        <time>2025-02-06T13:48:33.038Z</time>
      </trkpt>
      <trkpt lat="58.366566924378276" lon="12.353614931926131">
        <ele>47.82</ele>
        <time>2025-02-06T13:49:00.880Z</time>
      </trkpt>
      <trkpt lat="58.366517974063754" lon="12.353683998808265">
        <ele>47.83</ele>
        <time>2025-02-06T13:49:28.723Z</time>
      </trkpt>
      <trkpt lat="58.36646994575858" lon="12.353752981871367">
        <ele>47.83</ele>
        <time>2025-02-06T13:49:56.567Z</time>
      </trkpt>
      <trkpt lat="58.36642191745341" lon="12.353821964934468">
        <ele>47.84</ele>
        <time>2025-02-06T13:50:24.412Z</time>
      </trkpt>
      <trkpt lat="58.36637397296727" lon="12.353892959654331">
        <ele>47.84</ele>
        <time>2025-02-06T13:50:52.258Z</time>
      </trkpt>
      <trkpt lat="58.366326950490475" lon="12.353964960202575">
        <ele>47.85</ele>
        <time>2025-02-06T13:51:20.105Z</time>
      </trkpt>
      <trkpt lat="58.3662789221853" lon="12.354036960750818">
        <ele>47.85</ele>
        <time>2025-02-06T13:51:47.953Z</time>
      </trkpt>
      <trkpt lat="58.36623097769916" lon="12.354108961299062">
        <ele>47.86</ele>
        <time>2025-02-06T13:52:15.802Z</time>
      </trkpt>
      <trkpt lat="58.36618294939399" lon="12.354180961847305">
        <ele>47.86</ele>
        <time>2025-02-06T13:52:43.652Z</time>
      </trkpt>
      <trkpt lat="58.366133999079466" lon="12.35425497405231">
        <ele>47.86</ele>
        <time>2025-02-06T13:53:11.503Z</time>
      </trkpt>
      <trkpt lat="58.36608496494591" lon="12.354326974600554">
        <ele>47.86</ele>
        <time>2025-02-06T13:53:39.355Z</time>
      </trkpt>
      <trkpt lat="58.36603593081236" lon="12.354397969320416">
        <ele>47.86</ele>
        <time>2025-02-06T13:54:07.208Z</time>
      </trkpt>
      <trkpt lat="58.36598698049784" lon="12.35446896404028">
        <ele>47.86</ele>
        <time>2025-02-06T13:54:35.062Z</time>
      </trkpt>
      <trkpt lat="58.365937946364284" lon="12.354539958760142">
        <ele>47.87</ele>
        <time>2025-02-06T13:55:02.917Z</time>
      </trkpt>
      <trkpt lat="58.36588899604976" lon="12.354612965136766">
        <ele>47.87</ele>
        <time>2025-02-06T13:55:30.773Z</time>
      </trkpt>
      <trkpt lat="58.36583996191621" lon="12.35468597151339">
        <ele>47.87</ele>
        <time>2025-02-06T13:55:58.630Z</time>
      </trkpt>
      <trkpt lat="58.365789921954274" lon="12.354756966233253">
        <ele>47.86</ele>
        <time>2025-02-06T13:56:26.488Z</time>
      </trkpt>
      <trkpt lat="58.36573895998299" lon="12.354831984266639">
        <ele>47.86</ele>
        <time>2025-02-06T13:56:54.347Z</time>
      </trkpt>
      <trkpt lat="58.36568699218333" lon="12.354906918480992">
        <ele>47.85</ele>
        <time>2025-02-06T13:57:22.207Z</time>
      </trkpt>
      <trkpt lat="58.36563494056463" lon="12.35498495399952">
        <ele>47.85</ele>
        <time>2025-02-06T13:57:50.068Z</time>
      </trkpt>
      <trkpt lat="58.36558096110821" lon="12.355065923184156">
        <ele>47.84</ele>
        <time>2025-02-06T13:58:17.930Z</time>
      </trkpt>
      <trkpt lat="58.365527987480164" lon="12.355149993672967">
        <ele>47.83</ele>
        <time>2025-02-06T13:58:45.793Z</time>
      </trkpt>
      <trkpt lat="58.36547493003309" lon="12.355235991999507">
        <ele>47.82</ele>
        <time>2025-02-06T13:59:13.657Z</time>
      </trkpt>
      <trkpt lat="58.365421956405044" lon="12.355324923992157">
        <ele>47.82</ele>
        <time>2025-02-06T13:59:41.522Z</time>
      </trkpt>
      <trkpt lat="58.365368982777" lon="12.35541494563222">
        <ele>47.81</ele>
        <time>2025-02-06T14:00:09.388Z</time>
      </trkpt>
      <trkpt lat="58.365315925329924" lon="12.355508990585804">
        <ele>47.81</ele>
        <time>2025-02-06T14:00:37.255Z</time>
      </trkpt>
      <trkpt lat="58.36526496335864" lon="12.35560697503388">
        <ele>47.8</ele>
        <time>2025-02-06T14:01:05.124Z</time>
      </trkpt>
      <trkpt lat="58.365213917568326" lon="12.355705965310335">
        <ele>47.79</ele>
        <time>2025-02-06T14:01:32.994Z</time>
      </trkpt>
      <trkpt lat="58.36516194976866" lon="12.355805961415172">
        <ele>47.79</ele>
        <time>2025-02-06T14:02:00.865Z</time>
      </trkpt>
      <trkpt lat="58.365109981969" lon="12.35590998083353">
        <ele>47.79</ele>
        <time>2025-02-06T14:02:28.737Z</time>
      </trkpt>
      <trkpt lat="58.365059942007065" lon="12.35601894557476">
        <ele>47.78</ele>
        <time>2025-02-06T14:02:56.610Z</time>
      </trkpt>
      <trkpt lat="58.3650079742074" lon="12.356130927801132">
        <ele>47.77</ele>
        <time>2025-02-06T14:03:24.485Z</time>
      </trkpt>
      <trkpt lat="58.36495692841709" lon="12.356246933341026">
        <ele>47.76</ele>
        <time>2025-02-06T14:03:52.361Z</time>
      </trkpt>
      <trkpt lat="58.364906972274184" lon="12.356366962194443">
        <ele>47.76</ele>
        <time>2025-02-06T14:04:20.238Z</time>
      </trkpt>
      <trkpt lat="58.36485693231225" lon="12.35648992471397">
        <ele>47.75</ele>
        <time>2025-02-06T14:04:48.117Z</time>
      </trkpt>
      <trkpt lat="58.36480798199773" lon="12.356617916375399">
        <ele>47.74</ele>
        <time>2025-02-06T14:05:15.997Z</time>
      </trkpt>
      <trkpt lat="58.364760959520936" lon="12.356751943007112">
        <ele>47.73</ele>
        <time>2025-02-06T14:05:43.878Z</time>
      </trkpt>
      <trkpt lat="58.364713937044144" lon="12.356888987123966">
        <ele>47.71</ele>
        <time>2025-02-06T14:06:11.761Z</time>
      </trkpt>
      <trkpt lat="58.36466699838638" lon="12.357028964906931">
        <ele>47.7</ele>
        <time>2025-02-06T14:06:39.645Z</time>
      </trkpt>
      <trkpt lat="58.36461897008121" lon="12.357170954346657">
        <ele>47.69</ele>
        <time>2025-02-06T14:07:07.530Z</time>
      </trkpt>
      <trkpt lat="58.3645729534328" lon="12.357315961271524">
        <ele>47.68</ele>
        <time>2025-02-06T14:07:35.417Z</time>
      </trkpt>
      <trkpt lat="58.36452794261277" lon="12.357465997338295">
        <ele>47.67</ele>
        <time>2025-02-06T14:08:03.305Z</time>
      </trkpt>
      <trkpt lat="58.36448393762112" lon="12.357618967071176">
        <ele>47.66</ele>
        <time>2025-02-06T14:08:31.195Z</time>
      </trkpt>
      <trkpt lat="58.364439932629466" lon="12.357774954289198">
        <ele>47.66</ele>
        <time>2025-02-06T14:08:59.086Z</time>
      </trkpt>
      <trkpt lat="58.36439793929458" lon="12.357934964820743">
        <ele>47.65</ele>
        <time>2025-02-06T14:09:26.979Z</time>
      </trkpt>
      <trkpt lat="58.36435795761645" lon="12.35809899866581">
        <ele>47.64</ele>
        <time>2025-02-06T14:09:54.873Z</time>
      </trkpt>
      <trkpt lat="58.36431797593832" lon="12.358264960348606">
        <ele>47.63</ele>
        <time>2025-02-06T14:10:22.769Z</time>
      </trkpt>
      <trkpt lat="58.36427992209792" lon="12.358434945344925">
        <ele>47.62</ele>
        <time>2025-02-06T14:10:50.666Z</time>
      </trkpt>
      <trkpt lat="58.364242957904935" lon="12.358607947826385">
        <ele>47.6</ele>
        <time>2025-02-06T14:11:18.565Z</time>
      </trkpt>
      <trkpt lat="58.36420699954033" lon="12.358782961964607">
        <ele>47.58</ele>
        <time>2025-02-06T14:11:46.466Z</time>
      </trkpt>
      <trkpt lat="58.36417196318507" lon="12.35895998775959">
        <ele>47.57</ele>
        <time>2025-02-06T14:12:14.368Z</time>
      </trkpt>
      <trkpt lat="58.364138938486576" lon="12.359138941392303">
        <ele>47.56</ele>
        <time>2025-02-06T14:12:42.272Z</time>
      </trkpt>
      <trkpt lat="58.36410691961646" lon="12.359318984672427">
        <ele>47.54</ele>
        <time>2025-02-06T14:13:10.177Z</time>
      </trkpt>
      <trkpt lat="58.36407599039376" lon="12.3594999499619">
        <ele>47.53</ele>
        <time>2025-02-06T14:13:38.084Z</time>
      </trkpt>
      <trkpt lat="58.364048916846514" lon="12.359681921079755">
        <ele>47.51</ele>
        <time>2025-02-06T14:14:05.993Z</time>
      </trkpt>
      <trkpt lat="58.36402393877506" lon="12.359865987673402">
        <ele>47.5</ele>
        <time>2025-02-06T14:14:33.903Z</time>
      </trkpt>
      <trkpt lat="58.36400197818875" lon="12.360050976276398">
        <ele>47.49</ele>
        <time>2025-02-06T14:15:01.815Z</time>
      </trkpt>
      <trkpt lat="58.36398194544017" lon="12.360234959051013">
        <ele>47.48</ele>
        <time>2025-02-06T14:15:29.728Z</time>
      </trkpt>
      <trkpt lat="58.363963924348354" lon="12.360419947654009">
        <ele>47.47</ele>
        <time>2025-02-06T14:15:57.643Z</time>
      </trkpt>
      <trkpt lat="58.36394892074168" lon="12.360605942085385">
        <ele>47.46</ele>
        <time>2025-02-06T14:16:25.560Z</time>
      </trkpt>
      <trkpt lat="58.36393693462014" lon="12.36078992486">
        <ele>47.45</ele>
        <time>2025-02-06T14:16:53.478Z</time>
      </trkpt>
      <trkpt lat="58.36392595432699" lon="12.360972985625267">
        <ele>47.44</ele>
        <time>2025-02-06T14:17:21.398Z</time>
      </trkpt>
      <trkpt lat="58.36391597986221" lon="12.36115395091474">
        <ele>47.43</ele>
        <time>2025-02-06T14:17:49.319Z</time>
      </trkpt>
      <trkpt lat="58.36390893906355" lon="12.361330976709723">
        <ele>47.41</ele>
        <time>2025-02-06T14:18:17.242Z</time>
      </trkpt>
      <trkpt lat="58.36390399374068" lon="12.361505990847945">
        <ele>47.4</ele>
        <time>2025-02-06T14:18:45.166Z</time>
      </trkpt>
      <trkpt lat="58.363899970427155" lon="12.361678993329406">
        <ele>47.39</ele>
        <time>2025-02-06T14:19:13.092Z</time>
      </trkpt>
      <trkpt lat="58.363899970427155" lon="12.361849984154105">
        <ele>47.37</ele>
        <time>2025-02-06T14:19:41.019Z</time>
      </trkpt>
      <trkpt lat="58.36390198208392" lon="12.362019969150424">
        <ele>47.36</ele>
        <time>2025-02-06T14:20:08.947Z</time>
      </trkpt>
      <trkpt lat="58.36390499956906" lon="12.362190959975123">
        <ele>47.34</ele>
        <time>2025-02-06T14:20:36.877Z</time>
      </trkpt>
      <trkpt lat="58.36390893906355" lon="12.3623579274863">
        <ele>47.32</ele>
        <time>2025-02-06T14:21:04.808Z</time>
      </trkpt>
      <trkpt lat="58.36391497403383" lon="12.36252598464489">
        <ele>47.31</ele>
        <time>2025-02-06T14:21:32.741Z</time>
      </trkpt>
      <trkpt lat="58.363921931013465" lon="12.362692952156067">
        <ele>47.29</ele>
        <time>2025-02-06T14:22:00.675Z</time>
      </trkpt>
      <trkpt lat="58.36393098346889" lon="12.362856986001134">
        <ele>47.27</ele>
        <time>2025-02-06T14:22:28.611Z</time>
      </trkpt>
      <trkpt lat="58.363941963762045" lon="12.363019930198789">
        <ele>47.26</ele>
        <time>2025-02-06T14:22:56.548Z</time>
      </trkpt>
      <trkpt lat="58.36395394988358" lon="12.363184969872236">
        <ele>47.25</ele>
        <time>2025-02-06T14:23:24.486Z</time>
      </trkpt>
      <trkpt lat="58.363965936005116" lon="12.363345986232162">
        <ele>47.24</ele>
        <time>2025-02-06T14:23:52.426Z</time>
      </trkpt>
      <trkpt lat="58.36397792212665" lon="12.363505996763706">
        <ele>47.23</ele>
        <time>2025-02-06T14:24:20.367Z</time>
      </trkpt>
      <trkpt lat="58.363986974582076" lon="12.363664917647839">
        <ele>47.21</ele>
        <time>2025-02-06T14:24:48.309Z</time>
      </trkpt>
      <trkpt lat="58.36399795487523" lon="12.363824928179383">
        <ele>47.21</ele>
        <time>2025-02-06T14:25:16.253Z</time>
      </trkpt>
      <trkpt lat="58.364009940996766" lon="12.363983932882547">
        <ele>47.2</ele>
        <time>2025-02-06T14:25:44.198Z</time>
      </trkpt>
      <trkpt lat="58.36402092128992" lon="12.364142937585711">
        <ele>47.19</ele>
        <time>2025-02-06T14:26:12.145Z</time>
      </trkpt>
      <trkpt lat="58.36403097957373" lon="12.364302948117256">
        <ele>47.18</ele>
        <time>2025-02-06T14:26:40.093Z</time>
      </trkpt>
      <trkpt lat="58.36404195986688" lon="12.36446094699204">
        <ele>47.17</ele>
        <time>2025-02-06T14:27:08.042Z</time>
      </trkpt>
      <trkpt lat="58.3640549518168" lon="12.364620957523584">
        <ele>47.15</ele>
        <time>2025-02-06T14:27:35.993Z</time>
      </trkpt>
      <trkpt lat="58.36406492628157" lon="12.364776944741607">
        <ele>47.14</ele>
        <time>2025-02-06T14:28:03.945Z</time>
      </trkpt>
      <trkpt lat="58.364072972908616" lon="12.36493393778801">
        <ele>47.13</ele>
        <time>2025-02-06T14:28:31.898Z</time>
      </trkpt>
      <trkpt lat="58.36407992988825" lon="12.365086991339922">
        <ele>47.12</ele>
        <time>2025-02-06T14:28:59.853Z</time>
      </trkpt>
      <trkpt lat="58.36408797651529" lon="12.365242978557944">
        <ele>47.12</ele>
        <time>2025-02-06T14:29:27.809Z</time>
      </trkpt>
      <trkpt lat="58.36409694515169" lon="12.365400977432728">
        <ele>47.11</ele>
        <time>2025-02-06T14:29:55.766Z</time>
      </trkpt>
      <trkpt lat="58.36410599760711" lon="12.36555696465075">
        <ele>47.1</ele>
        <time>2025-02-06T14:30:23.725Z</time>
      </trkpt>
      <trkpt lat="58.36411898955703" lon="12.365712951868773">
        <ele>47.1</ele>
        <time>2025-02-06T14:30:51.685Z</time>
      </trkpt>
      <trkpt lat="58.3641289640218" lon="12.365868939086795">
        <ele>47.09</ele>
        <time>2025-02-06T14:31:19.646Z</time>
      </trkpt>
      <trkpt lat="58.364137932658195" lon="12.366025932133198">
        <ele>47.08</ele>
        <time>2025-02-06T14:31:47.608Z</time>
      </trkpt>
      <trkpt lat="58.36414497345686" lon="12.36618191935122">
        <ele>47.07</ele>
        <time>2025-02-06T14:32:15.572Z</time>
      </trkpt>
      <trkpt lat="58.36415394209325" lon="12.366337990388274">
        <ele>47.06</ele>
        <time>2025-02-06T14:32:43.537Z</time>
      </trkpt>
      <trkpt lat="58.36416299454868" lon="12.366493977606297">
        <ele>47.06</ele>
        <time>2025-02-06T14:33:11.503Z</time>
      </trkpt>
      <trkpt lat="58.36416995152831" lon="12.366647953167558">
        <ele>47.05</ele>
        <time>2025-02-06T14:33:39.471Z</time>
      </trkpt>
      <trkpt lat="58.364176992326975" lon="12.36680394038558">
        <ele>47.04</ele>
        <time>2025-02-06T14:34:07.440Z</time>
      </trkpt>
      <trkpt lat="58.364180931821465" lon="12.366957999765873">
        <ele>47.03</ele>
        <time>2025-02-06T14:34:35.410Z</time>
      </trkpt>
      <trkpt lat="58.36418596096337" lon="12.367112981155515">
        <ele>47.02</ele>
        <time>2025-02-06T14:35:03.382Z</time>
      </trkpt>
      <trkpt lat="58.36418998427689" lon="12.367265950888395">
        <ele>47.01</ele>
        <time>2025-02-06T14:35:31.355Z</time>
      </trkpt>
      <trkpt lat="58.36419099010527" lon="12.367417998611927">
        <ele>47.01</ele>
        <time>2025-02-06T14:35:59.329Z</time>
      </trkpt>
      <trkpt lat="58.36419392377138" lon="12.367567950859666">
        <ele>47.0</ele>
        <time>2025-02-06T14:36:27.305Z</time>
      </trkpt>
      <trkpt lat="58.364198952913284" lon="12.367717986926436">
        <ele>46.99</ele>
        <time>2025-02-06T14:36:55.282Z</time>
      </trkpt>
      <trkpt lat="58.36420297622681" lon="12.367867939174175">
        <ele>46.98</ele>
        <time>2025-02-06T14:37:23.260Z</time>
      </trkpt>
      <trkpt lat="58.36420297622681" lon="12.368020992726088">
        <ele>46.97</ele>
        <time>2025-02-06T14:37:51.239Z</time>
      </trkpt>
      <trkpt lat="58.364198952913284" lon="12.368173962458968">
        <ele>46.97</ele>
        <time>2025-02-06T14:38:19.220Z</time>
      </trkpt>
      <trkpt lat="58.36419492959976" lon="12.368326932191849">
        <ele>46.96</ele>
        <time>2025-02-06T14:38:47.202Z</time>
      </trkpt>
      <trkpt lat="58.36419099010527" lon="12.36847897991538">
        <ele>46.96</ele>
        <time>2025-02-06T14:39:15.185Z</time>
      </trkpt>
      <trkpt lat="58.36418797262013" lon="12.368633961305022">
        <ele>46.96</ele>
        <time>2025-02-06T14:39:43.170Z</time>
      </trkpt>
      <trkpt lat="58.36418998427689" lon="12.368790954351425">
        <ele>46.95</ele>
        <time>2025-02-06T14:40:11.156Z</time>
      </trkpt>
      <trkpt lat="58.364192917943" lon="12.368944929912686">
        <ele>46.94</ele>
        <time>2025-02-06T14:40:39.143Z</time>
      </trkpt>
      <trkpt lat="58.36419694125652" lon="12.36910192295909">
        <ele>46.94</ele>
        <time>2025-02-06T14:41:07.131Z</time>
      </trkpt>
      <trkpt lat="58.364200964570045" lon="12.369260927662253">
        <ele>46.94</ele>
        <time>2025-02-06T14:41:35.121Z</time>
      </trkpt>
      <trkpt lat="58.364199958741665" lon="12.369420938193798">
        <ele>46.93</ele>
        <time>2025-02-06T14:42:03.112Z</time>
      </trkpt>
      <trkpt lat="58.364198952913284" lon="12.369580948725343">
        <ele>46.93</ele>
        <time>2025-02-06T14:42:31.105Z</time>
      </trkpt>
      <trkpt lat="58.364199958741665" lon="12.369740959256887">
        <ele>46.94</ele>
        <time>2025-02-06T14:42:59.099Z</time>
      </trkpt>
      <trkpt lat="58.364201970398426" lon="12.369903987273574">
        <ele>46.93</ele>
        <time>2025-02-06T14:43:27.094Z</time>
      </trkpt>
      <trkpt lat="58.364200964570045" lon="12.370063997805119">
        <ele>46.94</ele>
        <time>2025-02-06T14:43:55.091Z</time>
      </trkpt>
      <trkpt lat="58.364198952913284" lon="12.370227947831154">
        <ele>46.94</ele>
        <time>2025-02-06T14:44:23.089Z</time>
      </trkpt>
      <trkpt lat="58.364197947084904" lon="12.370391981676221">
        <ele>46.95</ele>
        <time>2025-02-06T14:44:51.088Z</time>
      </trkpt>
      <trkpt lat="58.36419492959976" lon="12.370555931702256">
        <ele>46.96</ele>
        <time>2025-02-06T14:45:19.089Z</time>
      </trkpt>
      <trkpt lat="58.36419199593365" lon="12.370718959718943">
        <ele>46.97</ele>
        <time>2025-02-06T14:45:47.091Z</time>
      </trkpt>
      <trkpt lat="58.36418797262013" lon="12.370880981907248">
        <ele>46.97</ele>
        <time>2025-02-06T14:46:15.094Z</time>
      </trkpt>
      <trkpt lat="58.36418294347823" lon="12.371044931933284">
        <ele>46.99</ele>
        <time>2025-02-06T14:46:43.099Z</time>
      </trkpt>
      <trkpt lat="58.364175986498594" lon="12.37120695412159">
        <ele>47.0</ele>
        <time>2025-02-06T14:47:11.105Z</time>
      </trkpt>
      <trkpt lat="58.36416894569993" lon="12.371367970481515">
        <ele>47.0</ele>
        <time>2025-02-06T14:47:39.113Z</time>
      </trkpt>
      <trkpt lat="58.3641619887203" lon="12.37152999266982">
        <ele>47.01</ele>
        <time>2025-02-06T14:48:07.122Z</time>
      </trkpt>
      <trkpt lat="58.364154947921634" lon="12.371692936867476">
        <ele>47.02</ele>
        <time>2025-02-06T14:48:35.132Z</time>
      </trkpt>
      <trkpt lat="58.36414698511362" lon="12.371856970712543">
        <ele>47.04</ele>
        <time>2025-02-06T14:49:03.144Z</time>
      </trkpt>
      <trkpt lat="58.364136926829815" lon="12.372018992900848">
        <ele>47.05</ele>
        <time>2025-02-06T14:49:31.157Z</time>
      </trkpt>
      <trkpt lat="58.36412795819342" lon="12.372180931270123">
        <ele>47.07</ele>
        <time>2025-02-06T14:49:59.171Z</time>
      </trkpt>
      <trkpt lat="58.36411999538541" lon="12.372340941801667">
        <ele>47.09</ele>
        <time>2025-02-06T14:50:27.187Z</time>
      </trkpt>
      <trkpt lat="58.36411094292998" lon="12.37249894067645">
        <ele>47.11</ele>
        <time>2025-02-06T14:50:55.204Z</time>
      </trkpt>
      <trkpt lat="58.36410398595035" lon="12.372656939551234">
        <ele>47.14</ele>
        <time>2025-02-06T14:51:23.222Z</time>
      </trkpt>
      <trkpt lat="58.364094933494925" lon="12.372812926769257">
        <ele>47.17</ele>
        <time>2025-02-06T14:51:51.242Z</time>
      </trkpt>
      <trkpt lat="58.36408596485853" lon="12.37297092564404">
        <ele>47.19</ele>
        <time>2025-02-06T14:52:19.263Z</time>
      </trkpt>
      <trkpt lat="58.36407498456538" lon="12.373125990852714">
        <ele>47.23</ele>
        <time>2025-02-06T14:52:47.285Z</time>
      </trkpt>
      <trkpt lat="58.36406392045319" lon="12.373281978070736">
        <ele>47.26</ele>
        <time>2025-02-06T14:53:15.309Z</time>
      </trkpt>
      <trkpt lat="58.364051934331656" lon="12.373437965288758">
        <ele>47.31</ele>
        <time>2025-02-06T14:53:43.334Z</time>
      </trkpt>
      <trkpt lat="58.3640409540385" lon="12.3735929466784">
        <ele>47.35</ele>
        <time>2025-02-06T14:54:11.360Z</time>
      </trkpt>
      <trkpt lat="58.364027962088585" lon="12.373746922239661">
        <ele>47.39</ele>
        <time>2025-02-06T14:54:39.388Z</time>
      </trkpt>
      <trkpt lat="58.36401597596705" lon="12.373900981619954">
        <ele>47.44</ele>
        <time>2025-02-06T14:55:07.417Z</time>
      </trkpt>
      <trkpt lat="58.36400097236037" lon="12.374054957181215">
        <ele>47.49</ele>
        <time>2025-02-06T14:55:35.447Z</time>
      </trkpt>
      <trkpt lat="58.363984962925315" lon="12.374209938570857">
        <ele>47.52</ele>
        <time>2025-02-06T14:56:03.479Z</time>
      </trkpt>
      <trkpt lat="58.36397096514702" lon="12.374364919960499">
        <ele>47.57</ele>
        <time>2025-02-06T14:56:31.512Z</time>
      </trkpt>
      <trkpt lat="58.36395596154034" lon="12.374517973512411">
        <ele>47.61</ele>
        <time>2025-02-06T14:56:59.546Z</time>
      </trkpt>
      <trkpt lat="58.36393794044852" lon="12.37466691993177">
        <ele>47.65</ele>
        <time>2025-02-06T14:57:27.582Z</time>
      </trkpt>
      <trkpt lat="58.363920925185084" lon="12.374820979312062">
        <ele>47.69</ele>
        <time>2025-02-06T14:57:55.619Z</time>
      </trkpt>
      <trkpt lat="58.36390198208392" lon="12.374972943216562">
        <ele>47.74</ele>
        <time>2025-02-06T14:58:23.657Z</time>
      </trkpt>
      <trkpt lat="58.3638839609921" lon="12.375125996768475">
        <ele>47.79</ele>
        <time>2025-02-06T14:58:51.697Z</time>
      </trkpt>
      <trkpt lat="58.36386392824352" lon="12.375279972329736">
        <ele>47.84</ele>
        <time>2025-02-06T14:59:19.738Z</time>
      </trkpt>
      <trkpt lat="58.36384196765721" lon="12.375433947890997">
        <ele>47.89</ele>
        <time>2025-02-06T14:59:47.780Z</time>
      </trkpt>
      <trkpt lat="58.36381891742349" lon="12.375585995614529">
        <ele>47.94</ele>
        <time>2025-02-06T15:00:15.824Z</time>
      </trkpt>
      <trkpt lat="58.363793939352036" lon="12.375732930377126">
        <ele>48.0</ele>
        <time>2025-02-06T15:00:43.869Z</time>
      </trkpt>
      <trkpt lat="58.363769967108965" lon="12.375880954787135">
        <ele>48.06</ele>
        <time>2025-02-06T15:01:11.915Z</time>
      </trkpt>
      <trkpt lat="58.36374691687524" lon="12.376027973368764">
        <ele>48.11</ele>
        <time>2025-02-06T15:01:39.963Z</time>
      </trkpt>
      <trkpt lat="58.36372193880379" lon="12.376173986122012">
        <ele>48.17</ele>
        <time>2025-02-06T15:02:08.012Z</time>
      </trkpt>
      <trkpt lat="58.36369494907558" lon="12.37631899304688">
        <ele>48.23</ele>
        <time>2025-02-06T15:02:36.062Z</time>
      </trkpt>
      <trkpt lat="58.36366795934737" lon="12.376463999971747">
        <ele>48.28</ele>
        <time>2025-02-06T15:03:04.113Z</time>
      </trkpt>
      <trkpt lat="58.363638957962394" lon="12.376609928905964">
        <ele>48.34</ele>
        <time>2025-02-06T15:03:32.166Z</time>
      </trkpt>
      <trkpt lat="58.36360995657742" lon="12.376755941659212">
        <ele>48.4</ele>
        <time>2025-02-06T15:04:00.220Z</time>
      </trkpt>
      <trkpt lat="58.363577937707305" lon="12.376897931098938">
        <ele>48.45</ele>
        <time>2025-02-06T15:04:28.275Z</time>
      </trkpt>
      <trkpt lat="58.36354499682784" lon="12.377042938023806">
        <ele>48.51</ele>
        <time>2025-02-06T15:04:56.332Z</time>
      </trkpt>
      <trkpt lat="58.363510966300964" lon="12.377183921635151">
        <ele>48.56</ele>
        <time>2025-02-06T15:05:24.390Z</time>
      </trkpt>
      <trkpt lat="58.36347592994571" lon="12.377325994893909">
        <ele>48.62</ele>
        <time>2025-02-06T15:05:52.449Z</time>
      </trkpt>
      <trkpt lat="58.36344097740948" lon="12.377468990162015">
        <ele>48.69</ele>
        <time>2025-02-06T15:06:20.510Z</time>
      </trkpt>
      <trkpt lat="58.363403929397464" lon="12.37760896794498">
        <ele>48.75</ele>
        <time>2025-02-06T15:06:48.572Z</time>
      </trkpt>
      <trkpt lat="58.36336797103286" lon="12.377748945727944">
        <ele>48.81</ele>
        <time>2025-02-06T15:07:16.635Z</time>
      </trkpt>
      <trkpt lat="58.36333092302084" lon="12.37788992933929">
        <ele>48.87</ele>
        <time>2025-02-06T15:07:44.700Z</time>
      </trkpt>
      <trkpt lat="58.36329295299947" lon="12.378025967627764">
        <ele>48.93</ele>
        <time>2025-02-06T15:08:12.766Z</time>
      </trkpt>
      <trkpt lat="58.363253977149725" lon="12.378159994259477">
        <ele>49.0</ele>
        <time>2025-02-06T15:08:40.833Z</time>
      </trkpt>
      <trkpt lat="58.3632139954716" lon="12.378292931243777">
        <ele>49.07</ele>
        <time>2025-02-06T15:09:08.901Z</time>
      </trkpt>
      <trkpt lat="58.36317392997444" lon="12.378423940390348">
        <ele>49.14</ele>
        <time>2025-02-06T15:09:36.971Z</time>
      </trkpt>
      <trkpt lat="58.36313294246793" lon="12.378552937880158">
        <ele>49.2</ele>
        <time>2025-02-06T15:10:05.042Z</time>
      </trkpt>
      <trkpt lat="58.3630929607898" lon="12.378680929541588">
        <ele>49.27</ele>
        <time>2025-02-06T15:10:33.114Z</time>
      </trkpt>
      <trkpt lat="58.36305197328329" lon="12.378805987536907">
        <ele>49.34</ele>
        <time>2025-02-06T15:11:01.188Z</time>
      </trkpt>
      <trkpt lat="58.3630099799484" lon="12.378927944228053">
        <ele>49.41</ele>
        <time>2025-02-06T15:11:29.263Z</time>
      </trkpt>
      <trkpt lat="58.36296698078513" lon="12.379046967253089">
        <ele>49.49</ele>
        <time>2025-02-06T15:11:57.339Z</time>
      </trkpt>
      <trkpt lat="58.3629219699651" lon="12.379164984449744">
        <ele>49.56</ele>
        <time>2025-02-06T15:12:25.416Z</time>
      </trkpt>
      <trkpt lat="58.36287897080183" lon="12.379281995818019">
        <ele>49.63</ele>
        <time>2025-02-06T15:12:53.494Z</time>
      </trkpt>
      <trkpt lat="58.36283496581018" lon="12.379394983872771">
        <ele>49.71</ele>
        <time>2025-02-06T15:13:21.574Z</time>
      </trkpt>
      <trkpt lat="58.36278995499015" lon="12.379504954442382">
        <ele>49.78</ele>
        <time>2025-02-06T15:13:49.655Z</time>
      </trkpt>
      <trkpt lat="58.3627459499985" lon="12.379613919183612">
        <ele>49.86</ele>
        <time>2025-02-06T15:14:17.737Z</time>
      </trkpt>
      <trkpt lat="58.36270194500685" lon="12.379719950258732">
        <ele>49.94</ele>
        <time>2025-02-06T15:14:45.820Z</time>
      </trkpt>
      <trkpt lat="58.36265894584358" lon="12.37982396967709">
        <ele>50.02</ele>
        <time>2025-02-06T15:15:13.904Z</time>
      </trkpt>
      <trkpt lat="58.36261494085193" lon="12.379925977438688">
        <ele>50.09</ele>
        <time>2025-02-06T15:15:41.989Z</time>
      </trkpt>
      <trkpt lat="58.36257194168866" lon="12.380022956058383">
        <ele>50.18</ele>
        <time>2025-02-06T15:16:10.075Z</time>
      </trkpt>
      <trkpt lat="58.36252994835377" lon="12.380117923021317">
        <ele>50.26</ele>
        <time>2025-02-06T15:16:38.162Z</time>
      </trkpt>
      <trkpt lat="58.3624869491905" lon="12.380211967974901">
        <ele>50.35</ele>
        <time>2025-02-06T15:17:06.250Z</time>
      </trkpt>
      <trkpt lat="58.36244395002723" lon="12.380304923281074">
        <ele>50.43</ele>
        <time>2025-02-06T15:17:34.340Z</time>
      </trkpt>
      <trkpt lat="58.36239994503558" lon="12.380395950749516">
        <ele>50.51</ele>
        <time>2025-02-06T15:18:02.431Z</time>
      </trkpt>
      <trkpt lat="58.362354934215546" lon="12.38048697821796">
        <ele>50.6</ele>
        <time>2025-02-06T15:18:30.523Z</time>
      </trkpt>
      <trkpt lat="58.362310929223895" lon="12.380578927695751">
        <ele>50.68</ele>
        <time>2025-02-06T15:18:58.616Z</time>
      </trkpt>
      <trkpt lat="58.362264996394515" lon="12.380667943507433">
        <ele>50.77</ele>
        <time>2025-02-06T15:19:26.710Z</time>
      </trkpt>
      <trkpt lat="58.36221797391772" lon="12.380755953490734">
        <ele>50.86</ele>
        <time>2025-02-06T15:19:54.805Z</time>
      </trkpt>
      <trkpt lat="58.36217095144093" lon="12.380841951817274">
        <ele>50.94</ele>
        <time>2025-02-06T15:20:22.901Z</time>
      </trkpt>
      <trkpt lat="58.36212392896414" lon="12.380926944315434">
        <ele>51.03</ele>
        <time>2025-02-06T15:20:50.998Z</time>
      </trkpt>
      <trkpt lat="58.362075984478" lon="12.381012942641973">
        <ele>51.12</ele>
        <time>2025-02-06T15:21:19.096Z</time>
      </trkpt>
      <trkpt lat="58.362027956172824" lon="12.381098940968513">
        <ele>51.21</ele>
        <time>2025-02-06T15:21:47.195Z</time>
      </trkpt>
      <trkpt lat="58.36197892203927" lon="12.381182927638292">
        <ele>51.3</ele>
        <time>2025-02-06T15:22:15.295Z</time>
      </trkpt>
      <trkpt lat="58.36192997172475" lon="12.381265992298722">
        <ele>51.39</ele>
        <time>2025-02-06T15:22:43.396Z</time>
      </trkpt>
      <trkpt lat="58.361881943419576" lon="12.38134897314012">
        <ele>51.48</ele>
        <time>2025-02-06T15:23:11.498Z</time>
      </trkpt>
      <trkpt lat="58.36183198727667" lon="12.381428936496377">
        <ele>51.57</ele>
        <time>2025-02-06T15:23:39.601Z</time>
      </trkpt>
      <trkpt lat="58.36178194731474" lon="12.381505966186523">
        <ele>51.67</ele>
        <time>2025-02-06T15:24:07.705Z</time>
      </trkpt>
      <trkpt lat="58.36173199117184" lon="12.381583917886019">
        <ele>51.76</ele>
        <time>2025-02-06T15:24:35.810Z</time>
      </trkpt>
      <trkpt lat="58.3616819512099" lon="12.381660947576165">
        <ele>51.86</ele>
        <time>2025-02-06T15:25:03.916Z</time>
      </trkpt>
      <trkpt lat="58.36163098923862" lon="12.38173596560955">
        <ele>51.96</ele>
        <time>2025-02-06T15:25:32.023Z</time>
      </trkpt>
      <trkpt lat="58.361578937619925" lon="12.381810983642936">
        <ele>52.05</ele>
        <time>2025-02-06T15:26:00.131Z</time>
      </trkpt>
      <trkpt lat="58.36152696982026" lon="12.38188499584794">
        <ele>52.15</ele>
        <time>2025-02-06T15:26:28.240Z</time>
      </trkpt>
      <trkpt lat="58.36147399619222" lon="12.381957918405533">
        <ele>52.24</ele>
        <time>2025-02-06T15:26:56.350Z</time>
      </trkpt>
      <trkpt lat="58.36142093874514" lon="12.382028996944427">
        <ele>52.34</ele>
        <time>2025-02-06T15:27:24.461Z</time>
      </trkpt>
      <trkpt lat="58.3613679651171" lon="12.382096974179149">
        <ele>52.44</ele>
        <time>2025-02-06T15:27:52.574Z</time>
      </trkpt>
      <trkpt lat="58.36131398566067" lon="12.38216495141387">
        <ele>52.54</ele>
        <time>2025-02-06T15:28:20.688Z</time>
      </trkpt>
      <trkpt lat="58.361260928213596" lon="12.382232928648591">
        <ele>52.64</ele>
        <time>2025-02-06T15:28:48.803Z</time>
      </trkpt>
      <trkpt lat="58.36120594292879" lon="12.382298978045583">
        <ele>52.74</ele>
        <time>2025-02-06T15:29:16.919Z</time>
      </trkpt>
      <trkpt lat="58.361150957643986" lon="12.382362931966782">
        <ele>52.84</ele>
        <time>2025-02-06T15:29:45.036Z</time>
      </trkpt>
      <trkpt lat="58.36109697818756" lon="12.382425963878632">
        <ele>52.94</ele>
        <time>2025-02-06T15:30:13.154Z</time>
      </trkpt>
      <trkpt lat="58.361042998731136" lon="12.382488995790482">
        <ele>53.04</ele>
        <time>2025-02-06T15:30:41.273Z</time>
      </trkpt>
      <trkpt lat="58.36098692379892" lon="12.38255093805492">
        <ele>53.15</ele>
        <time>2025-02-06T15:31:09.393Z</time>
      </trkpt>
      <trkpt lat="58.36093193851411" lon="12.382610952481627">
        <ele>53.25</ele>
        <time>2025-02-06T15:31:37.514Z</time>
      </trkpt>
      <trkpt lat="58.36087594740093" lon="12.382671972736716">
        <ele>53.36</ele>
        <time>2025-02-06T15:32:05.636Z</time>
      </trkpt>
      <trkpt lat="58.36081995628774" lon="12.382730981335044">
        <ele>53.47</ele>
        <time>2025-02-06T15:32:33.759Z</time>
      </trkpt>
      <trkpt lat="58.360763965174556" lon="12.382788984104991">
        <ele>53.58</ele>
        <time>2025-02-06T15:33:01.883Z</time>
      </trkpt>
      <trkpt lat="58.36070696823299" lon="12.382845981046557">
        <ele>53.69</ele>
        <time>2025-02-06T15:33:30.008Z</time>
      </trkpt>
      <trkpt lat="58.36064896546304" lon="12.382901972159743">
        <ele>53.8</ele>
        <time>2025-02-06T15:33:58.134Z</time>
      </trkpt>
      <trkpt lat="58.360590962693095" lon="12.38295796327293">
        <ele>53.91</ele>
        <time>2025-02-06T15:34:26.261Z</time>
      </trkpt>
      <trkpt lat="58.36053195409477" lon="12.383012948557734">
        <ele>54.02</ele>
        <time>2025-02-06T15:34:54.389Z</time>
      </trkpt>
      <trkpt lat="58.36047294549644" lon="12.383065922185779">
        <ele>54.14</ele>
        <time>2025-02-06T15:35:22.518Z</time>
      </trkpt>
      <trkpt lat="58.36041293106973" lon="12.383119985461235">
        <ele>54.25</ele>
        <time>2025-02-06T15:35:50.648Z</time>
      </trkpt>
      <trkpt lat="58.360353922471404" lon="12.38317295908928">
        <ele>54.37</ele>
        <time>2025-02-06T15:36:18.779Z</time>
      </trkpt>
      <trkpt lat="58.36029399186373" lon="12.383226938545704">
        <ele>54.48</ele>
        <time>2025-02-06T15:36:46.911Z</time>
      </trkpt>
      <trkpt lat="58.36023297160864" lon="12.383280918002129">
        <ele>54.6</ele>
        <time>2025-02-06T15:37:15.044Z</time>
      </trkpt>
      <trkpt lat="58.36017195135355" lon="12.383333975449204">
        <ele>54.71</ele>
        <time>2025-02-06T15:37:43.178Z</time>
      </trkpt>
      <trkpt lat="58.36010992527008" lon="12.38338896073401">
        <ele>54.83</ele>
        <time>2025-02-06T15:38:11.313Z</time>
      </trkpt>
      <trkpt lat="58.36004798300564" lon="12.383441934362054">
        <ele>54.94</ele>
        <time>2025-02-06T15:38:39.450Z</time>
      </trkpt>
      <trkpt lat="58.359986962750554" lon="12.38349499180913">
        <ele>55.06</ele>
        <time>2025-02-06T15:39:07.588Z</time>
      </trkpt>
      <trkpt lat="58.359925942495465" lon="12.383547965437174">
        <ele>55.17</ele>
        <time>2025-02-06T15:39:35.727Z</time>
      </trkpt>
      <trkpt lat="58.35986492224038" lon="12.383599933236837">
        <ele>55.29</ele>
        <time>2025-02-06T15:40:03.867Z</time>
      </trkpt>
      <trkpt lat="58.35980297997594" lon="12.383652990683913">
        <ele>55.41</ele>
        <time>2025-02-06T15:40:32.008Z</time>
      </trkpt>
      <trkpt lat="58.35974195972085" lon="12.383707975968719">
        <ele>55.53</ele>
        <time>2025-02-06T15:41:00.150Z</time>
      </trkpt>
      <trkpt lat="58.35968093946576" lon="12.383761955425143">
        <ele>55.64</ele>
        <time>2025-02-06T15:41:28.293Z</time>
      </trkpt>
      <trkpt lat="58.35961899720132" lon="12.383813923224807">
        <ele>55.76</ele>
        <time>2025-02-06T15:41:56.437Z</time>
      </trkpt>
      <trkpt lat="58.359557976946235" lon="12.383867986500263">
        <ele>55.88</ele>
        <time>2025-02-06T15:42:24.582Z</time>
      </trkpt>
      <trkpt lat="58.359495950862765" lon="12.383922971785069">
        <ele>55.99</ele>
        <time>2025-02-06T15:42:52.728Z</time>
      </trkpt>
      <trkpt lat="58.359432918950915" lon="12.383975945413113">
        <ele>56.11</ele>
        <time>2025-02-06T15:43:20.875Z</time>
      </trkpt>
      <trkpt lat="58.3593699708581" lon="12.384028919041157">
        <ele>56.22</ele>
        <time>2025-02-06T15:43:49.023Z</time>
      </trkpt>
      <trkpt lat="58.35930794477463" lon="12.384085999801755">
        <ele>56.34</ele>
        <time>2025-02-06T15:44:17.173Z</time>
      </trkpt>
      <trkpt lat="58.35924499668181" lon="12.384138973429799">
        <ele>56.45</ele>
        <time>2025-02-06T15:44:45.324Z</time>
      </trkpt>
      <trkpt lat="58.35918095894158" lon="12.384193958714604">
        <ele>56.56</ele>
        <time>2025-02-06T15:45:13.476Z</time>
      </trkpt>
      <trkpt lat="58.35911893285811" lon="12.38425095565617">
        <ele>56.67</ele>
        <time>2025-02-06T15:45:41.629Z</time>
      </trkpt>
      <trkpt lat="58.35905598476529" lon="12.384306946769357">
        <ele>56.78</ele>
        <time>2025-02-06T15:46:09.783Z</time>
      </trkpt>
      <trkpt lat="58.35899094119668" lon="12.384361932054162">
        <ele>56.88</ele>
        <time>2025-02-06T15:46:37.938Z</time>
      </trkpt>
      <trkpt lat="58.3589259814471" lon="12.384415995329618">
        <ele>56.98</ele>
        <time>2025-02-06T15:47:06.094Z</time>
      </trkpt>
      <trkpt lat="58.35886194370687" lon="12.384470980614424">
        <ele>57.09</ele>
        <time>2025-02-06T15:47:34.251Z</time>
      </trkpt>
      <trkpt lat="58.35879597812891" lon="12.384529989212751">
        <ele>57.19</ele>
        <time>2025-02-06T15:48:02.410Z</time>
      </trkpt>
      <trkpt lat="58.3587309345603" lon="12.384590925648808">
        <ele>57.3</ele>
        <time>2025-02-06T15:48:30.570Z</time>
      </trkpt>
      <trkpt lat="58.35866396315396" lon="12.384652951732278">
        <ele>57.4</ele>
        <time>2025-02-06T15:48:58.731Z</time>
      </trkpt>
      <trkpt lat="58.35859699174762" lon="12.384715983644128">
        <ele>57.5</ele>
        <time>2025-02-06T15:49:26.893Z</time>
      </trkpt>
      <trkpt lat="58.358527924865484" lon="12.384775998070836">
        <ele>57.6</ele>
        <time>2025-02-06T15:49:55.056Z</time>
      </trkpt>
      <trkpt lat="58.35845894180238" lon="12.384835928678513">
        <ele>57.7</ele>
        <time>2025-02-06T15:50:23.221Z</time>
      </trkpt>
      <trkpt lat="58.35838995873928" lon="12.384897954761982">
        <ele>57.8</ele>
        <time>2025-02-06T15:50:51.387Z</time>
      </trkpt>
      <trkpt lat="58.35832198150456" lon="12.38495897501707">
        <ele>57.9</ele>
        <time>2025-02-06T15:51:19.554Z</time>
      </trkpt>
      <trkpt lat="58.35825299844146" lon="12.385021923109889">
        <ele>58.01</ele>
        <time>2025-02-06T15:51:47.722Z</time>
      </trkpt>
      <trkpt lat="58.358182925730944" lon="12.385084955021739">
        <ele>58.11</ele>
        <time>2025-02-06T15:52:15.892Z</time>
      </trkpt>
      <trkpt lat="58.35811394266784" lon="12.385146981105208">
        <ele>58.21</ele>
        <time>2025-02-06T15:52:44.063Z</time>
      </trkpt>
      <trkpt lat="58.35804495960474" lon="12.385208923369646">
        <ele>58.31</ele>
        <time>2025-02-06T15:53:12.235Z</time>
      </trkpt>
      <trkpt lat="58.35797497071326" lon="12.385268937796354">
        <ele>58.4</ele>
        <time>2025-02-06T15:53:40.408Z</time>
      </trkpt>
      <trkpt lat="58.357905987650156" lon="12.385331969708204">
        <ele>58.49</ele>
        <time>2025-02-06T15:54:08.582Z</time>
      </trkpt>
      <trkpt lat="58.35783692076802" lon="12.385393995791674">
        <ele>58.58</ele>
        <time>2025-02-06T15:54:36.758Z</time>
      </trkpt>
      <trkpt lat="58.3577689435333" lon="12.385457949712873">
        <ele>58.67</ele>
        <time>2025-02-06T15:55:04.935Z</time>
      </trkpt>
      <trkpt lat="58.3576999604702" lon="12.385521987453103">
        <ele>58.77</ele>
        <time>2025-02-06T15:55:33.113Z</time>
      </trkpt>
      <trkpt lat="58.3576309774071" lon="12.385585941374302">
        <ele>58.85</ele>
        <time>2025-02-06T15:56:01.292Z</time>
      </trkpt>
      <trkpt lat="58.357560988515615" lon="12.385643944144249">
        <ele>58.93</ele>
        <time>2025-02-06T15:56:29.473Z</time>
      </trkpt>
      <trkpt lat="58.35748898796737" lon="12.385694989934564">
        <ele>59.02</ele>
        <time>2025-02-06T15:56:57.655Z</time>
      </trkpt>
      <trkpt lat="58.35741598159075" lon="12.38573094829917">
        <ele>59.1</ele>
        <time>2025-02-06T15:57:25.838Z</time>
      </trkpt>
      <trkpt lat="58.35734096355736" lon="12.385738994926214">
        <ele>59.19</ele>
        <time>2025-02-06T15:57:54.022Z</time>
      </trkpt>
      <trkpt lat="58.35726695135236" lon="12.385722985491157">
        <ele>59.27</ele>
        <time>2025-02-06T15:58:22.207Z</time>
      </trkpt>
      <trkpt lat="58.35719193331897" lon="12.385717956349254">
        <ele>59.36</ele>
        <time>2025-02-06T15:58:50.394Z</time>
      </trkpt>
      <trkpt lat="58.35712194442749" lon="12.385748969390988">
        <ele>59.44</ele>
        <time>2025-02-06T15:59:18.582Z</time>
      </trkpt>
      <trkpt lat="58.357065953314304" lon="12.385825999081135">
        <ele>59.52</ele>
        <time>2025-02-06T15:59:46.771Z</time>
      </trkpt>
      <trkpt lat="58.3570159971714" lon="12.385930940508842">
        <ele>59.59</ele>
        <time>2025-02-06T16:00:14.961Z</time>
      </trkpt>
      <trkpt lat="58.35697098635137" lon="12.386042922735214">
        <ele>59.67</ele>
        <time>2025-02-06T16:00:43.152Z</time>
      </trkpt>
      <trkpt lat="58.3569229580462" lon="12.386147947981954">
        <ele>59.74</ele>
        <time>2025-02-06T16:01:11.344Z</time>
      </trkpt>
      <trkpt lat="58.35686696693301" lon="12.386235957965255">
        <ele>59.82</ele>
        <time>2025-02-06T16:01:39.538Z</time>
      </trkpt>
      <trkpt lat="58.35680292919278" lon="12.386306952685118">
        <ele>59.9</ele>
        <time>2025-02-06T16:02:07.733Z</time>
      </trkpt>
      <trkpt lat="58.35673495195806" lon="12.386369984596968">
        <ele>59.97</ele>
        <time>2025-02-06T16:02:35.929Z</time>
      </trkpt>
      <trkpt lat="58.35666697472334" lon="12.386428993195295">
        <ele>60.03</ele>
        <time>2025-02-06T16:03:04.126Z</time>
      </trkpt>
      <trkpt lat="58.35659799166024" lon="12.386488923802972">
        <ele>60.09</ele>
        <time>2025-02-06T16:03:32.324Z</time>
      </trkpt>
      <trkpt lat="58.356530936434865" lon="12.386550949886441">
        <ele>60.15</ele>
        <time>2025-02-06T16:04:00.524Z</time>
      </trkpt>
      <trkpt lat="58.356462959200144" lon="12.386615993455052">
        <ele>60.22</ele>
        <time>2025-02-06T16:04:28.725Z</time>
      </trkpt>
      <trkpt lat="58.356396993622184" lon="12.386682964861393">
        <ele>60.28</ele>
        <time>2025-02-06T16:04:56.927Z</time>
      </trkpt>
      <trkpt lat="58.356333961710334" lon="12.38675999455154">
        <ele>60.34</ele>
        <time>2025-02-06T16:05:25.130Z</time>
      </trkpt>
      <trkpt lat="58.356272941455245" lon="12.386840963736176">
        <ele>60.4</ele>
        <time>2025-02-06T16:05:53.334Z</time>
      </trkpt>
      <trkpt lat="58.35621099919081" lon="12.386920927092433">
        <ele>60.45</ele>
        <time>2025-02-06T16:06:21.540Z</time>
      </trkpt>
      <trkpt lat="58.35614796727896" lon="12.387002985924482">
        <ele>60.5</ele>
        <time>2025-02-06T16:06:49.747Z</time>
      </trkpt>
      <trkpt lat="58.35608392953873" lon="12.387082949280739">
        <ele>60.56</ele>
        <time>2025-02-06T16:07:17.955Z</time>
      </trkpt>
      <trkpt lat="58.356015952304006" lon="12.387156961485744">
        <ele>60.61</ele>
        <time>2025-02-06T16:07:46.164Z</time>
      </trkpt>
      <trkpt lat="58.35594596341252" lon="12.387226950377226">
        <ele>60.66</ele>
        <time>2025-02-06T16:08:14.375Z</time>
      </trkpt>
      <trkpt lat="58.3558779861778" lon="12.387297945097089">
        <ele>60.71</ele>
        <time>2025-02-06T16:08:42.587Z</time>
      </trkpt>
      <trkpt lat="58.35581193678081" lon="12.387369945645332">
        <ele>60.76</ele>
        <time>2025-02-06T16:09:10.800Z</time>
      </trkpt>
      <trkpt lat="58.35574898868799" lon="12.387437922880054">
        <ele>60.8</ele>
        <time>2025-02-06T16:09:39.014Z</time>
      </trkpt>
      <trkpt lat="58.355689980089664" lon="12.387504978105426">
        <ele>60.84</ele>
        <time>2025-02-06T16:10:07.229Z</time>
      </trkpt>
      <trkpt lat="58.35563893429935" lon="12.387564992532134">
        <ele>60.88</ele>
        <time>2025-02-06T16:10:35.445Z</time>
      </trkpt>
      <trkpt lat="58.35559593513608" lon="12.387614948675036">
        <ele>60.92</ele>
        <time>2025-02-06T16:11:03.662Z</time>
      </trkpt>
      <trkpt lat="58.355561988428235" lon="12.387653924524784">
        <ele>60.95</ele>
        <time>2025-02-06T16:11:31.880Z</time>
      </trkpt>
      <trkpt lat="58.35553592070937" lon="12.387680998072028">
        <ele>60.99</ele>
        <time>2025-02-06T16:12:00.098Z</time>
      </trkpt>
      <trkpt lat="58.355517983436584" lon="12.387698935344815">
        <ele>61.02</ele>
        <time>2025-02-06T16:12:28.317Z</time>
      </trkpt>
      <trkpt lat="58.3555069193244" lon="12.387712933123112">
        <ele>61.05</ele>
        <time>2025-02-06T16:12:56.536Z</time>
      </trkpt>
      <trkpt lat="58.355500968173146" lon="12.387722991406918">
        <ele>61.07</ele>
        <time>2025-02-06T16:13:24.755Z</time>
      </trkpt>
      <trkpt lat="58.355498956516385" lon="12.387722991406918">
        <ele>61.1</ele>
        <time>2025-02-06T16:13:52.974Z</time>
      </trkpt>
      <trkpt lat="58.355498956516385" lon="12.387721985578537">
        <ele>61.12</ele>
        <time>2025-02-06T16:14:21.193Z</time>
      </trkpt>
      <trkpt lat="58.35548596456647" lon="12.387756938114762">
        <ele>61.14</ele>
        <time>2025-02-06T16:14:49.412Z</time>
      </trkpt>
      <trkpt lat="58.35548596456647" lon="12.38779398612678">
        <ele>61.16</ele>
        <time>2025-02-06T16:15:17.632Z</time>
      </trkpt>
      <trkpt lat="58.35549593903124" lon="12.387833967804909">
        <ele>61.17</ele>
        <time>2025-02-06T16:15:45.852Z</time>
      </trkpt>
      <trkpt lat="58.35551396012306" lon="12.387874955311418">
        <ele>61.18</ele>
        <time>2025-02-06T16:16:14.072Z</time>
      </trkpt>
      <trkpt lat="58.35553793236613" lon="12.387918960303068">
        <ele>61.19</ele>
        <time>2025-02-06T16:16:42.293Z</time>
      </trkpt>
      <trkpt lat="58.355566933751106" lon="12.387966988608241">
        <ele>61.19</ele>
        <time>2025-02-06T16:17:10.515Z</time>
      </trkpt>
      <trkpt lat="58.35560197010636" lon="12.388012921437621">
        <ele>61.2</ele>
        <time>2025-02-06T16:17:38.737Z</time>
      </trkpt>
      <trkpt lat="58.35563792847097" lon="12.388058938086033">
        <ele>61.2</ele>
        <time>2025-02-06T16:18:06.960Z</time>
      </trkpt>
      <trkpt lat="58.35567598231137" lon="12.388110989704728">
        <ele>61.2</ele>
        <time>2025-02-06T16:18:35.184Z</time>
      </trkpt>
      <trkpt lat="58.355711940675974" lon="12.388168992474675">
        <ele>61.2</ele>
        <time>2025-02-06T16:19:03.408Z</time>
      </trkpt>
      <trkpt lat="58.35574798285961" lon="12.388229928910732">
        <ele>61.2</ele>
        <time>2025-02-06T16:19:31.633Z</time>
      </trkpt>
      <trkpt lat="58.35578897036612" lon="12.388292960822582">
        <ele>61.19</ele>
        <time>2025-02-06T16:19:59.859Z</time>
      </trkpt>
      <trkpt lat="58.35582794621587" lon="12.388353981077671">
        <ele>61.19</ele>
        <time>2025-02-06T16:20:28.086Z</time>
      </trkpt>
      <trkpt lat="58.355864994227886" lon="12.388411983847618">
        <ele>61.18</ele>
        <time>2025-02-06T16:20:56.314Z</time>
      </trkpt>
      <trkpt lat="58.35589894093573" lon="12.388469986617565">
        <ele>61.17</ele>
        <time>2025-02-06T16:21:24.542Z</time>
      </trkpt>
      <trkpt lat="58.355926936492324" lon="12.388527989387512">
        <ele>61.16</ele>
        <time>2025-02-06T16:21:52.771Z</time>
      </trkpt>
      <trkpt lat="58.355953926220536" lon="12.388580963015556">
        <ele>61.15</ele>
        <time>2025-02-06T16:22:21.001Z</time>
      </trkpt>
      <trkpt lat="58.35598292760551" lon="12.388621950522065">
        <ele>61.13</ele>
        <time>2025-02-06T16:22:49.231Z</time>
      </trkpt>
      <trkpt lat="58.356014946475625" lon="12.388642989099026">
        <ele>61.11</ele>
        <time>2025-02-06T16:23:17.462Z</time>
      </trkpt>
      <trkpt lat="58.35604696534574" lon="12.38863293081522">
        <ele>61.09</ele>
        <time>2025-02-06T16:23:45.693Z</time>
      </trkpt>
      <trkpt lat="58.35607294924557" lon="12.38858993165195">
        <ele>61.07</ele>
        <time>2025-02-06T16:24:13.925Z</time>
      </trkpt>
      <trkpt lat="58.35609298199415" lon="12.388536958023906">
        <ele>61.05</ele>
        <time>2025-02-06T16:24:42.157Z</time>
      </trkpt>
      <trkpt lat="58.35610798560083" lon="12.3884819727391">
        <ele>61.02</ele>
        <time>2025-02-06T16:25:10.390Z</time>
      </trkpt>
      <trkpt lat="58.356119971722364" lon="12.388427993282676">
        <ele>61.0</ele>
        <time>2025-02-06T16:25:38.623Z</time>
      </trkpt>
      <trkpt lat="58.3561319578439" lon="12.3883749358356">
        <ele>60.97</ele>
        <time>2025-02-06T16:26:06.857Z</time>
      </trkpt>
      <trkpt lat="58.356145955622196" lon="12.388325985521078">
        <ele>60.94</ele>
        <time>2025-02-06T16:26:35.091Z</time>
      </trkpt>
      <trkpt lat="58.35615995340049" lon="12.388278963044286">
        <ele>60.9</ele>
        <time>2025-02-06T16:27:03.326Z</time>
      </trkpt>
      <trkpt lat="58.35617395117879" lon="12.388234958052635">
        <ele>60.87</ele>
        <time>2025-02-06T16:27:31.561Z</time>
      </trkpt>
      <trkpt lat="58.356186943128705" lon="12.388194976374507">
        <ele>60.83</ele>
        <time>2025-02-06T16:27:59.797Z</time>
      </trkpt>
      <trkpt lat="58.35620194673538" lon="12.388155916705728">
        <ele>60.79</ele>
        <time>2025-02-06T16:28:28.033Z</time>
      </trkpt>
      <trkpt lat="58.35622097365558" lon="12.3881159350276">
        <ele>60.75</ele>
        <time>2025-02-06T16:28:56.270Z</time>
      </trkpt>
      <trkpt lat="58.35623991675675" lon="12.388077965006232">
        <ele>60.71</ele>
        <time>2025-02-06T16:29:24.507Z</time>
      </trkpt>
      <trkpt lat="58.356254920363426" lon="12.388044940307736">
        <ele>60.66</ele>
        <time>2025-02-06T16:29:52.744Z</time>
      </trkpt>
      <trkpt lat="58.35626397281885" lon="12.388019962236285">
        <ele>60.62</ele>
        <time>2025-02-06T16:30:20.982Z</time>
      </trkpt>
      <trkpt lat="58.356267996132374" lon="12.38800697028637">
        <ele>60.57</ele>
        <time>2025-02-06T16:30:49.220Z</time>
      </trkpt>
      <trkpt lat="58.35626891814172" lon="12.388004958629608">
        <ele>60.52</ele>
        <time>2025-02-06T16:31:17.458Z</time>
      </trkpt>
      <trkpt lat="58.35624293424189" lon="12.388039994984865">
        <ele>60.47</ele>
        <time>2025-02-06T16:31:45.696Z</time>
      </trkpt>
      <trkpt lat="58.356231953948736" lon="12.388065978884697">
        <ele>60.42</ele>
        <time>2025-02-06T16:32:13.935Z</time>
      </trkpt>
      <trkpt lat="58.3562199678272" lon="12.388091962784529">
        <ele>60.36</ele>
        <time>2025-02-06T16:32:42.174Z</time>
      </trkpt>
      <trkpt lat="58.356208987534046" lon="12.388119958341122">
        <ele>60.31</ele>
        <time>2025-02-06T16:33:10.413Z</time>
      </trkpt>
      <trkpt lat="58.35619398392737" lon="12.388151977211237">
        <ele>60.25</ele>
        <time>2025-02-06T16:33:38.652Z</time>
      </trkpt>
      <trkpt lat="58.35617596283555" lon="12.388186929747462">
        <ele>60.19</ele>
        <time>2025-02-06T16:34:06.892Z</time>
      </trkpt>
      <trkpt lat="58.35615693591535" lon="12.388220960274339">
        <ele>60.13</ele>
        <time>2025-02-06T16:34:35.132Z</time>
      </trkpt>
      <trkpt lat="58.35613799281418" lon="12.388254990801215">
        <ele>60.07</ele>
        <time>2025-02-06T16:35:03.373Z</time>
      </trkpt>
      <trkpt lat="58.35612399503589" lon="12.388286925852299">
        <ele>60.0</ele>
        <time>2025-02-06T16:35:31.614Z</time>
      </trkpt>
      <trkpt lat="58.3561129309237" lon="12.388312993571162">
        <ele>59.94</ele>
        <time>2025-02-06T16:35:59.855Z</time>
      </trkpt>
      <trkpt lat="58.35610396228731" lon="12.388333948329091">
        <ele>59.87</ele>
        <time>2025-02-06T16:36:28.097Z</time>
      </trkpt>
      <trkpt lat="58.35608996450901" lon="12.38835297524929">
        <ele>59.8</ele>
        <time>2025-02-06T16:36:56.339Z</time>
      </trkpt>
      <trkpt lat="58.35606699809432" lon="12.388366973027587">
        <ele>59.73</ele>
        <time>2025-02-06T16:37:24.581Z</time>
      </trkpt>
      <trkpt lat="58.356038918718696" lon="12.3883749358356">
        <ele>59.65</ele>
        <time>2025-02-06T16:37:52.824Z</time>
      </trkpt>
      <trkpt lat="58.35600698366761" lon="12.388368984684348">
        <ele>59.58</ele>
        <time>2025-02-06T16:38:21.067Z</time>
      </trkpt>
      <trkpt lat="58.3559749647975" lon="12.388349957764149">
        <ele>59.5</ele>
        <time>2025-02-06T16:38:49.311Z</time>
      </trkpt>
      <trkpt lat="58.35593992844224" lon="12.388324979692698">
        <ele>59.42</ele>
        <time>2025-02-06T16:39:17.555Z</time>
      </trkpt>
      <trkpt lat="58.35590195842087" lon="12.388292960822582">
        <ele>59.34</ele>
        <time>2025-02-06T16:39:45.800Z</time>
      </trkpt>
      <trkpt lat="58.355863988399506" lon="12.388253984972835">
        <ele>59.26</ele>
        <time>2025-02-06T16:40:14.046Z</time>
      </trkpt>
      <trkpt lat="58.355823922902346" lon="12.388206962496042">
        <ele>59.18</ele>
        <time>2025-02-06T16:40:42.292Z</time>
      </trkpt>
      <trkpt lat="58.35578595288098" lon="12.388150971382856">
        <ele>59.1</ele>
        <time>2025-02-06T16:41:10.539Z</time>
      </trkpt>
      <trkpt lat="58.3557519223541" lon="12.388086933642626">
        <ele>59.01</ele>
        <time>2025-02-06T16:41:38.787Z</time>
      </trkpt>
      <trkpt lat="58.35572292096913" lon="12.388019962236285">
        <ele>58.92</ele>
        <time>2025-02-06T16:42:07.036Z</time>
      </trkpt>
      <trkpt lat="58.3556969370693" lon="12.387952990829945">
        <ele>58.84</ele>
        <time>2025-02-06T16:42:35.285Z</time>
      </trkpt>
      <trkpt lat="58.35567397065461" lon="12.387886941432953">
        <ele>58.75</ele>
        <time>2025-02-06T16:43:03.535Z</time>
      </trkpt>
      <trkpt lat="58.35565594956279" lon="12.387833967804909">
        <ele>58.66</ele>
        <time>2025-02-06T16:43:31.786Z</time>
      </trkpt>
      <trkpt lat="58.35564195178449" lon="12.387798931449652">
        <ele>58.57</ele>
        <time>2025-02-06T16:44:00.037Z</time>
      </trkpt>
      <trkpt lat="58.3556329831481" lon="12.387778982520103">
        <ele>58.48</ele>
        <time>2025-02-06T16:44:28.288Z</time>
      </trkpt>
      <trkpt lat="58.355627954006195" lon="12.38777194172144">
        <ele>58.38</ele>
        <time>2025-02-06T16:44:56.539Z</time>
      </trkpt>
      <trkpt lat="58.355625942349434" lon="12.38777194172144">
        <ele>58.29</ele>
        <time>2025-02-06T16:45:24.790Z</time>
      </trkpt>
      <trkpt lat="58.3555999584496" lon="12.387739922851324">
        <ele>58.19</ele>
        <time>2025-02-06T16:45:53.042Z</time>
      </trkpt>
      <trkpt lat="58.35557397454977" lon="12.387708993628621">
        <ele>58.1</ele>
        <time>2025-02-06T16:46:21.294Z</time>
      </trkpt>
      <trkpt lat="58.35553793236613" lon="12.387684937566519">
        <ele>58.0</ele>
        <time>2025-02-06T16:46:49.547Z</time>
      </trkpt>
      <trkpt lat="58.35549392737448" lon="12.387688960880041">
        <ele>57.9</ele>
        <time>2025-02-06T16:47:17.801Z</time>
      </trkpt>
      <trkpt lat="58.35544891655445" lon="12.387719973921776">
        <ele>57.8</ele>
        <time>2025-02-06T16:47:46.055Z</time>
      </trkpt>
      <trkpt lat="58.35540398955345" lon="12.387763978913426">
        <ele>57.7</ele>
        <time>2025-02-06T16:48:14.310Z</time>
      </trkpt>
      <trkpt lat="58.35535797290504" lon="12.387812929227948">
        <ele>57.59</ele>
        <time>2025-02-06T16:48:42.566Z</time>
      </trkpt>
      <trkpt lat="58.355308938771486" lon="12.387860957533121">
        <ele>57.49</ele>
        <time>2025-02-06T16:49:10.823Z</time>
      </trkpt>
      <trkpt lat="58.3552579768002" lon="12.387911919504404">
        <ele>57.38</ele>
        <time>2025-02-06T16:49:39.081Z</time>
      </trkpt>
      <trkpt lat="58.35520693100989" lon="12.38796598277986">
        <ele>57.27</ele>
        <time>2025-02-06T16:50:07.340Z</time>
      </trkpt>
      <trkpt lat="58.355153957381845" lon="12.388021973893046">
        <ele>57.16</ele>
        <time>2025-02-06T16:50:35.600Z</time>
      </trkpt>
      <trkpt lat="58.35509897209704" lon="12.388075953349471">
        <ele>57.05</ele>
        <time>2025-02-06T16:51:03.861Z</time>
      </trkpt>
      <trkpt lat="58.35504197515547" lon="12.388131944462657">
        <ele>56.93</ele>
        <time>2025-02-06T16:51:32.123Z</time>
      </trkpt>
      <trkpt lat="58.354982966557145" lon="12.388190953060985">
        <ele>56.82</ele>
        <time>2025-02-06T16:52:00.386Z</time>
      </trkpt>
      <trkpt lat="58.35492295213044" lon="12.388248955830932">
        <ele>56.7</ele>
        <time>2025-02-06T16:52:28.650Z</time>
      </trkpt>
      <trkpt lat="58.35486293770373" lon="12.388303941115737">
        <ele>56.59</ele>
        <time>2025-02-06T16:52:56.915Z</time>
      </trkpt>
      <trkpt lat="58.35480292327702" lon="12.388357920572162">
        <ele>56.47</ele>
        <time>2025-02-06T16:53:25.181Z</time>
      </trkpt>
      <trkpt lat="58.35474198684096" lon="12.388415923342109">
        <ele>56.35</ele>
        <time>2025-02-06T16:53:53.448Z</time>
      </trkpt>
      <trkpt lat="58.35467895492911" lon="12.388473926112056">
        <ele>56.24</ele>
        <time>2025-02-06T16:54:21.716Z</time>
      </trkpt>
      <trkpt lat="58.35461592301726" lon="12.388530923053622">
        <ele>56.12</ele>
        <time>2025-02-06T16:54:49.985Z</time>
      </trkpt>
      <trkpt lat="58.354551969096065" lon="12.38858892582357">
        <ele>56.0</ele>
        <time>2025-02-06T16:55:18.256Z</time>
      </trkpt>
      <trkpt lat="58.354488937184215" lon="12.388648940250278">
        <ele>55.89</ele>
        <time>2025-02-06T16:55:46.528Z</time>
      </trkpt>
      <trkpt lat="58.354423977434635" lon="12.38871498964727">
        <ele>55.77</ele>
        <time>2025-02-06T16:56:14.801Z</time>
      </trkpt>
      <trkpt lat="58.354358933866024" lon="12.388774920254946">
        <ele>55.66</ele>
        <time>2025-02-06T16:56:43.075Z</time>
      </trkpt>
      <trkpt lat="58.354292968288064" lon="12.388833928853273">
        <ele>55.55</ele>
        <time>2025-02-06T16:57:11.350Z</time>
      </trkpt>
      <trkpt lat="58.35422691889107" lon="12.388897966593504">
        <ele>55.43</ele>
        <time>2025-02-06T16:57:39.626Z</time>
      </trkpt>
      <trkpt lat="58.35416095331311" lon="12.388962926343083">
        <ele>55.31</ele>
        <time>2025-02-06T16:58:07.904Z</time>
      </trkpt>
      <trkpt lat="58.35409297607839" lon="12.389027969911695">
        <ele>55.19</ele>
        <time>2025-02-06T16:58:36.183Z</time>
      </trkpt>
      <trkpt lat="58.3540269266814" lon="12.389096952974796">
        <ele>55.08</ele>
        <time>2025-02-06T16:59:04.463Z</time>
      </trkpt>
      <trkpt lat="58.35395995527506" lon="12.38916895352304">
        <ele>54.96</ele>
        <time>2025-02-06T16:59:32.744Z</time>
      </trkpt>
      <trkpt lat="58.35389298386872" lon="12.389240954071283">
        <ele>54.84</ele>
        <time>2025-02-06T17:00:01.027Z</time>
      </trkpt>
      <trkpt lat="58.353825928643346" lon="12.389313960447907">
        <ele>54.73</ele>
        <time>2025-02-06T17:00:29.311Z</time>
      </trkpt>
      <trkpt lat="58.353758957237005" lon="12.389388978481293">
        <ele>54.63</ele>
        <time>2025-02-06T17:00:57.596Z</time>
      </trkpt>
      <trkpt lat="58.353692991659045" lon="12.389467936009169">
        <ele>54.52</ele>
        <time>2025-02-06T17:01:25.882Z</time>
      </trkpt>
      <trkpt lat="58.353629959747195" lon="12.389552928507328">
        <ele>54.41</ele>
        <time>2025-02-06T17:01:54.169Z</time>
      </trkpt>
      <trkpt lat="58.353568939492106" lon="12.389638926833868">
        <ele>54.3</ele>
        <time>2025-02-06T17:02:22.458Z</time>
      </trkpt>
      <trkpt lat="58.3535089250654" lon="12.389723919332027">
        <ele>54.2</ele>
        <time>2025-02-06T17:02:50.748Z</time>
      </trkpt>
      <trkpt lat="58.35344899445772" lon="12.389805978164077">
        <ele>54.1</ele>
        <time>2025-02-06T17:03:19.039Z</time>
      </trkpt>
      <trkpt lat="58.353391997516155" lon="12.389887953177094">
        <ele>54.0</ele>
        <time>2025-02-06T17:03:47.331Z</time>
      </trkpt>
      <trkpt lat="58.35333491675556" lon="12.389972945675254">
        <ele>53.9</ele>
        <time>2025-02-06T17:04:15.624Z</time>
      </trkpt>
      <trkpt lat="58.35327892564237" lon="12.390061961486936">
        <ele>53.8</ele>
        <time>2025-02-06T17:04:43.919Z</time>
      </trkpt>
      <trkpt lat="58.35322494618595" lon="12.390155922621489">
        <ele>53.7</ele>
        <time>2025-02-06T17:05:12.215Z</time>
      </trkpt>
      <trkpt lat="58.35317096672952" lon="12.390249967575073">
        <ele>53.6</ele>
        <time>2025-02-06T17:05:40.512Z</time>
      </trkpt>
      <trkpt lat="58.3531169872731" lon="12.390344934538007">
        <ele>53.5</ele>
        <time>2025-02-06T17:06:08.810Z</time>
      </trkpt>
      <trkpt lat="58.35306292399764" lon="12.390442918986082">
        <ele>53.41</ele>
        <time>2025-02-06T17:06:37.109Z</time>
      </trkpt>
      <trkpt lat="58.35301196202636" lon="12.39054199308157">
        <ele>53.32</ele>
        <time>2025-02-06T17:07:05.409Z</time>
      </trkpt>
      <trkpt lat="58.352961922064424" lon="12.390643917024136">
        <ele>53.22</ele>
        <time>2025-02-06T17:07:33.711Z</time>
      </trkpt>
      <trkpt lat="58.35291096009314" lon="12.390745924785733">
        <ele>53.13</ele>
        <time>2025-02-06T17:08:02.014Z</time>
      </trkpt>
      <trkpt lat="58.35286092013121" lon="12.390848938375711">
        <ele>53.05</ele>
        <time>2025-02-06T17:08:30.318Z</time>
      </trkpt>
      <trkpt lat="58.352810963988304" lon="12.39095195196569">
        <ele>52.96</ele>
        <time>2025-02-06T17:08:58.623Z</time>
      </trkpt>
      <trkpt lat="58.35276092402637" lon="12.391056977212429">
        <ele>52.88</ele>
        <time>2025-02-06T17:09:26.929Z</time>
      </trkpt>
      <trkpt lat="58.35271297954023" lon="12.391162924468517">
        <ele>52.8</ele>
        <time>2025-02-06T17:09:55.237Z</time>
      </trkpt>
      <trkpt lat="58.352664951235056" lon="12.391270967200398">
        <ele>52.72</ele>
        <time>2025-02-06T17:10:23.546Z</time>
      </trkpt>
      <trkpt lat="58.352618934586644" lon="12.39138194359839">
        <ele>52.64</ele>
        <time>2025-02-06T17:10:51.856Z</time>
      </trkpt>
      <trkpt lat="58.35257392376661" lon="12.39149291999638">
        <ele>52.57</ele>
        <time>2025-02-06T17:11:20.167Z</time>
      </trkpt>
      <trkpt lat="58.35252991877496" lon="12.391603980213404">
        <ele>52.5</ele>
        <time>2025-02-06T17:11:48.479Z</time>
      </trkpt>
      <trkpt lat="58.35248792544007" lon="12.391716968268156">
        <ele>52.42</ele>
        <time>2025-02-06T17:12:16.792Z</time>
      </trkpt>
      <trkpt lat="58.352447943761945" lon="12.391828950494528">
        <ele>52.35</ele>
        <time>2025-02-06T17:12:45.107Z</time>
      </trkpt>
      <trkpt lat="58.3524089679122" lon="12.391939926892519">
        <ele>52.28</ele>
        <time>2025-02-06T17:13:13.423Z</time>
      </trkpt>
      <trkpt lat="58.35237099789083" lon="12.392045957967639">
        <ele>52.21</ele>
        <time>2025-02-06T17:13:41.740Z</time>
      </trkpt>
      <trkpt lat="58.35232799872756" lon="12.392135979607701">
        <ele>52.15</ele>
        <time>2025-02-06T17:14:10.058Z</time>
      </trkpt>
      <trkpt lat="58.352274941280484" lon="12.392179984599352">
        <ele>52.08</ele>
        <time>2025-02-06T17:14:38.377Z</time>
      </trkpt>
      <trkpt lat="58.35221794433892" lon="12.392184929922223">
        <ele>52.02</ele>
        <time>2025-02-06T17:15:06.697Z</time>
      </trkpt>
      <trkpt lat="58.35216094739735" lon="12.392191970720887">
        <ele>51.96</ele>
        <time>2025-02-06T17:15:35.018Z</time>
      </trkpt>
      <trkpt lat="58.352103950455785" lon="12.39219699986279">
        <ele>51.9</ele>
        <time>2025-02-06T17:16:03.340Z</time>
      </trkpt>
      <trkpt lat="58.35204896517098" lon="12.392185935750604">
        <ele>51.84</ele>
        <time>2025-02-06T17:16:31.662Z</time>
      </trkpt>
      <trkpt lat="58.351996997371316" lon="12.392154922708869">
        <ele>51.78</ele>
        <time>2025-02-06T17:16:59.985Z</time>
      </trkpt>
      <trkpt lat="58.35194393992424" lon="12.39210999570787">
        <ele>51.72</ele>
        <time>2025-02-06T17:17:28.309Z</time>
      </trkpt>
      <trkpt lat="58.351888954639435" lon="12.392056938260794">
        <ele>51.67</ele>
        <time>2025-02-06T17:17:56.634Z</time>
      </trkpt>
      <trkpt lat="58.35182994604111" lon="12.392002958804369">
        <ele>51.62</ele>
        <time>2025-02-06T17:18:24.960Z</time>
      </trkpt>
      <trkpt lat="58.35176892578602" lon="12.391948979347944">
        <ele>51.57</ele>
        <time>2025-02-06T17:18:53.287Z</time>
      </trkpt>
      <trkpt lat="58.35170798934996" lon="12.391892988234758">
        <ele>51.52</ele>
        <time>2025-02-06T17:19:21.615Z</time>
      </trkpt>
      <trkpt lat="58.351651998236775" lon="12.391821993514895">
        <ele>51.47</ele>
        <time>2025-02-06T17:19:49.944Z</time>
      </trkpt>
      <trkpt lat="58.35160296410322" lon="12.391729960218072">
        <ele>51.43</ele>
        <time>2025-02-06T17:20:18.275Z</time>
      </trkpt>
      <trkpt lat="58.35155996493995" lon="12.391626946628094">
        <ele>51.39</ele>
        <time>2025-02-06T17:20:46.607Z</time>
      </trkpt>
      <trkpt lat="58.35152895189822" lon="12.391516976058483">
        <ele>51.35</ele>
        <time>2025-02-06T17:21:14.940Z</time>
      </trkpt>
      <trkpt lat="58.351522916927934" lon="12.391398958861828">
        <ele>51.31</ele>
        <time>2025-02-06T17:21:43.274Z</time>
      </trkpt>
      <trkpt lat="58.351546972990036" lon="12.39129594527185">
        <ele>51.28</ele>
        <time>2025-02-06T17:22:11.609Z</time>
      </trkpt>
      <trkpt lat="58.3515849430114" lon="12.391208941116929">
        <ele>51.25</ele>
        <time>2025-02-06T17:22:39.945Z</time>
      </trkpt>
      <trkpt lat="58.35162693634629" lon="12.391129983589053">
        <ele>51.22</ele>
        <time>2025-02-06T17:23:08.282Z</time>
      </trkpt>
      <trkpt lat="58.35166993550956" lon="12.391052953898907">
        <ele>51.19</ele>
        <time>2025-02-06T17:23:36.620Z</time>
      </trkpt>
      <trkpt lat="58.35171192884445" lon="12.39097399637103">
        <ele>51.17</ele>
        <time>2025-02-06T17:24:04.958Z</time>
      </trkpt>
      <trkpt lat="58.351757945492864" lon="12.39091096445918">
        <ele>51.15</ele>
        <time>2025-02-06T17:24:33.297Z</time>
      </trkpt>
      <trkpt lat="58.35181091912091" lon="12.390882968902588">
        <ele>51.13</ele>
        <time>2025-02-06T17:25:01.637Z</time>
      </trkpt>
      <trkpt lat="58.3518629707396" lon="12.3908909317106">
        <ele>51.11</ele>
        <time>2025-02-06T17:25:29.978Z</time>
      </trkpt>
      <trkpt lat="58.351909993216395" lon="12.39093099720776">
        <ele>51.09</ele>
        <time>2025-02-06T17:25:58.320Z</time>
      </trkpt>
      <trkpt lat="58.351952992379665" lon="12.390983970835805">
        <ele>51.08</ele>
        <time>2025-02-06T17:26:26.663Z</time>
      </trkpt>
      <trkpt lat="58.351995991542935" lon="12.391028981655836">
        <ele>51.06</ele>
        <time>2025-02-06T17:26:55.007Z</time>
      </trkpt>
      <trkpt lat="58.352038990706205" lon="12.391055971384048">
        <ele>51.05</ele>
        <time>2025-02-06T17:27:23.351Z</time>
      </trkpt>
      <trkpt lat="58.35207696072757" lon="12.391053959727287">
        <ele>51.04</ele>
        <time>2025-02-06T17:27:51.696Z</time>
      </trkpt>
      <trkpt lat="58.35210797376931" lon="12.391012972220778">
        <ele>51.03</ele>
        <time>2025-02-06T17:28:20.042Z</time>
      </trkpt>
      <trkpt lat="58.352125994861126" lon="12.390959998592734">
        <ele>51.02</ele>
        <time>2025-02-06T17:28:48.388Z</time>
      </trkpt>
      <trkpt lat="58.35213295184076" lon="12.390934936702251">
        <ele>51.01</ele>
        <time>2025-02-06T17:29:16.734Z</time>
      </trkpt>
      <trkpt lat="58.35213697515428" lon="12.39093292504549">
        <ele>51.01</ele>
        <time>2025-02-06T17:29:45.080Z</time>
      </trkpt>
      <trkpt lat="58.352015940472484" lon="12.390979947522283">
        <ele>51.0</ele>
        <time>2025-02-06T17:30:13.428Z</time>
      </trkpt>
      <trkpt lat="58.35199196822941" lon="12.390946922823787">
        <ele>50.99</ele>
        <time>2025-02-06T17:30:41.777Z</time>
      </trkpt>
      <trkpt lat="58.35196095518768" lon="12.390911970287561">
        <ele>50.99</ele>
        <time>2025-02-06T17:31:10.126Z</time>
      </trkpt>
      <trkpt lat="58.351930947974324" lon="12.390871988609433">
        <ele>50.99</ele>
        <time>2025-02-06T17:31:38.476Z</time>
      </trkpt>
      <trkpt lat="58.3518959954381" lon="12.390839969739318">
        <ele>50.99</ele>
        <time>2025-02-06T17:32:06.827Z</time>
      </trkpt>
      <trkpt lat="58.35185592994094" lon="12.390834940597415">
        <ele>50.99</ele>
        <time>2025-02-06T17:32:35.178Z</time>
      </trkpt>
      <trkpt lat="58.35181695409119" lon="12.390864947810769">
        <ele>50.99</ele>
        <time>2025-02-06T17:33:03.530Z</time>
      </trkpt>
      <trkpt lat="58.351783929392695" lon="12.390911970287561">
        <ele>50.99</ele>
        <time>2025-02-06T17:33:31.883Z</time>
      </trkpt>
      <trkpt lat="58.35175291635096" lon="12.390967961400747">
        <ele>51.0</ele>
        <time>2025-02-06T17:34:00.236Z</time>
      </trkpt>
      <trkpt lat="58.35172299295664" lon="12.391027975827456">
        <ele>51.0</ele>
        <time>2025-02-06T17:34:28.590Z</time>
      </trkpt>
      <trkpt lat="58.351693991571665" lon="12.391088996082544">
        <ele>51.01</ele>
        <time>2025-02-06T17:34:56.945Z</time>
      </trkpt>
      <trkpt lat="58.35166499018669" lon="12.391150938346982">
        <ele>51.02</ele>
        <time>2025-02-06T17:35:25.300Z</time>
      </trkpt>
      <trkpt lat="58.35163791663945" lon="12.391216987743974">
        <ele>51.03</ele>
        <time>2025-02-06T17:35:53.656Z</time>
      </trkpt>
      <trkpt lat="58.351609921082854" lon="12.391282953321934">
        <ele>51.04</ele>
        <time>2025-02-06T17:36:22.013Z</time>
      </trkpt>
      <trkpt lat="58.35158091969788" lon="12.391346991062164">
        <ele>51.05</ele>
        <time>2025-02-06T17:36:50.370Z</time>
      </trkpt>
      <trkpt lat="58.35155392996967" lon="12.391416979953647">
        <ele>51.06</ele>
        <time>2025-02-06T17:37:18.728Z</time>
      </trkpt>
      <trkpt lat="58.35153196938336" lon="12.391493925824761">
        <ele>51.08</ele>
        <time>2025-02-06T17:37:47.087Z</time>
      </trkpt>
      <trkpt lat="58.351521994918585" lon="12.391577996313572">
        <ele>51.09</ele>
        <time>2025-02-06T17:38:15.447Z</time>
      </trkpt>
      <trkpt lat="58.351520989090204" lon="12.39166097715497">
        <ele>51.11</ele>
        <time>2025-02-06T17:38:43.807Z</time>
      </trkpt>
      <trkpt lat="58.35152794606984" lon="12.391731971874833">
        <ele>51.12</ele>
        <time>2025-02-06T17:39:12.168Z</time>
      </trkpt>
      <trkpt lat="58.351542949676514" lon="12.391791986301541">
        <ele>51.14</ele>
        <time>2025-02-06T17:39:40.530Z</time>
      </trkpt>
      <trkpt lat="58.351565999910235" lon="12.391841942444444">
        <ele>51.16</ele>
        <time>2025-02-06T17:40:08.892Z</time>
      </trkpt>
      <trkpt lat="58.35159298963845" lon="12.391880918294191">
        <ele>51.18</ele>
        <time>2025-02-06T17:40:37.255Z</time>
      </trkpt>
      <trkpt lat="58.35161997936666" lon="12.391915954649448">
        <ele>51.2</ele>
        <time>2025-02-06T17:41:05.618Z</time>
      </trkpt>
      <trkpt lat="58.351649986580014" lon="12.391947973519564">
        <ele>51.22</ele>
        <time>2025-02-06T17:41:33.982Z</time>
      </trkpt>
      <trkpt lat="58.35168099962175" lon="12.391978986561298">
        <ele>51.24</ele>
        <time>2025-02-06T17:42:02.346Z</time>
      </trkpt>
      <trkpt lat="58.35171293467283" lon="12.392009999603033">
        <ele>51.26</ele>
        <time>2025-02-06T17:42:30.711Z</time>
      </trkpt>
      <trkpt lat="58.35174797102809" lon="12.392040928825736">
        <ele>51.29</ele>
        <time>2025-02-06T17:42:59.076Z</time>
      </trkpt>
      <trkpt lat="58.351784935221076" lon="12.392073953524232">
        <ele>51.31</ele>
        <time>2025-02-06T17:43:27.442Z</time>
      </trkpt>
      <trkpt lat="58.351821983233094" lon="12.392110917717218">
        <ele>51.33</ele>
        <time>2025-02-06T17:43:55.809Z</time>
      </trkpt>
      <trkpt lat="58.35185995325446" lon="12.392150983214378">
        <ele>51.35</ele>
        <time>2025-02-06T17:44:24.176Z</time>
      </trkpt>
      <trkpt lat="58.35189792327583" lon="12.392191970720887">
        <ele>51.38</ele>
        <time>2025-02-06T17:44:52.544Z</time>
      </trkpt>
      <trkpt lat="58.35193798877299" lon="12.392235975712538">
        <ele>51.4</ele>
        <time>2025-02-06T17:45:20.913Z</time>
      </trkpt>
      <trkpt lat="58.35197797045112" lon="12.39228693768382">
        <ele>51.42</ele>
        <time>2025-02-06T17:45:49.283Z</time>
      </trkpt>
      <trkpt lat="58.3520149346441" lon="12.392350975424051">
        <ele>51.44</ele>
        <time>2025-02-06T17:46:17.654Z</time>
      </trkpt>
      <trkpt lat="58.35204695351422" lon="12.392426999285817">
        <ele>51.46</ele>
        <time>2025-02-06T17:46:46.025Z</time>
      </trkpt>
      <trkpt lat="58.35207595489919" lon="12.392511991783977">
        <ele>51.48</ele>
        <time>2025-02-06T17:47:14.397Z</time>
      </trkpt>
      <trkpt lat="58.35210696794093" lon="12.392598995938897">
        <ele>51.51</ele>
        <time>2025-02-06T17:47:42.770Z</time>
      </trkpt>
      <trkpt lat="58.35213999263942" lon="12.392681976780295">
        <ele>51.53</ele>
        <time>2025-02-06T17:48:11.144Z</time>
      </trkpt>
      <trkpt lat="58.35218198597431" lon="12.392750959843397">
        <ele>51.55</ele>
        <time>2025-02-06T17:48:39.519Z</time>
      </trkpt>
      <trkpt lat="58.352234959602356" lon="12.39279798232019">
        <ele>51.57</ele>
        <time>2025-02-06T17:49:07.895Z</time>
      </trkpt>
      <trkpt lat="58.352293968200684" lon="12.392828995361924">
        <ele>51.59</ele>
        <time>2025-02-06T17:49:36.272Z</time>
      </trkpt>
      <trkpt lat="58.35235498845577" lon="12.392852967604995">
        <ele>51.61</ele>
        <time>2025-02-06T17:50:04.650Z</time>
      </trkpt>
      <trkpt lat="58.35241592489183" lon="12.392882974818349">
        <ele>51.63</ele>
        <time>2025-02-06T17:50:33.029Z</time>
      </trkpt>
      <trkpt lat="58.35247593931854" lon="12.392921950668097">
        <ele>51.65</ele>
        <time>2025-02-06T17:51:01.409Z</time>
      </trkpt>
      <trkpt lat="58.352534947916865" lon="12.392966961488128">
        <ele>51.66</ele>
        <time>2025-02-06T17:51:29.790Z</time>
      </trkpt>
      <trkpt lat="58.35259194485843" lon="12.3930149897933">
        <ele>51.68</ele>
        <time>2025-02-06T17:51:58.172Z</time>
      </trkpt>
      <trkpt lat="58.35264793597162" lon="12.393061928451061">
        <ele>51.7</ele>
        <time>2025-02-06T17:52:26.555Z</time>
      </trkpt>
      <trkpt lat="58.352701999247074" lon="12.393109956756234">
        <ele>51.71</ele>
        <time>2025-02-06T17:52:54.939Z</time>
      </trkpt>
      <trkpt lat="58.352750949561596" lon="12.393162930384278">
        <ele>51.72</ele>
        <time>2025-02-06T17:53:23.324Z</time>
      </trkpt>
      <trkpt lat="58.35279596038163" lon="12.393219927325845">
        <ele>51.73</ele>
        <time>2025-02-06T17:53:51.710Z</time>
      </trkpt>
      <trkpt lat="58.3528389595449" lon="12.393277930095792">
        <ele>51.74</ele>
        <time>2025-02-06T17:54:20.096Z</time>
      </trkpt>
      <trkpt lat="58.352878941223025" lon="12.393332999199629">
        <ele>51.75</ele>
        <time>2025-02-06T17:54:48.483Z</time>
      </trkpt>
      <trkpt lat="58.352918922901154" lon="12.393383961170912">
        <ele>51.76</ele>
        <time>2025-02-06T17:55:16.871Z</time>
      </trkpt>
      <trkpt lat="58.35295798256993" lon="12.393433917313814">
        <ele>51.77</ele>
        <time>2025-02-06T17:55:45.260Z</time>
      </trkpt>
      <trkpt lat="58.35299494676292" lon="12.39348798058927">
        <ele>51.78</ele>
        <time>2025-02-06T17:56:13.649Z</time>
      </trkpt>
      <trkpt lat="58.35303098894656" lon="12.393541960045695">
        <ele>51.79</ele>
        <time>2025-02-06T17:56:42.039Z</time>
      </trkpt>
      <trkpt lat="58.35306594148278" lon="12.393590994179249">
        <ele>51.79</ele>
        <time>2025-02-06T17:57:10.430Z</time>
      </trkpt>
      <trkpt lat="58.35309695452452" lon="12.393641956150532">
        <ele>51.79</ele>
        <time>2025-02-06T17:57:38.822Z</time>
      </trkpt>
      <trkpt lat="58.35312595590949" lon="12.393698953092098">
        <ele>51.79</ele>
        <time>2025-02-06T17:58:07.214Z</time>
      </trkpt>
      <trkpt lat="58.35314992815256" lon="12.393757961690426">
        <ele>51.79</ele>
        <time>2025-02-06T17:58:35.607Z</time>
      </trkpt>
      <trkpt lat="58.353174990043044" lon="12.39380699582398">
        <ele>51.79</ele>
        <time>2025-02-06T17:59:04.000Z</time>
      </trkpt>
      <trkpt lat="58.353199968114495" lon="12.393850916996598">
        <ele>51.79</ele>
        <time>2025-02-06T17:59:32.394Z</time>
      </trkpt>
      <trkpt lat="58.35321991704404" lon="12.393890982493758">
        <ele>51.78</ele>
        <time>2025-02-06T18:00:00.788Z</time>
      </trkpt>
      <trkpt lat="58.35322997532785" lon="12.39391797222197">
        <ele>51.77</ele>
        <time>2025-02-06T18:00:29.183Z</time>
      </trkpt>
      <trkpt lat="58.35323198698461" lon="12.393926940858364">
        <ele>51.76</ele>
        <time>2025-02-06T18:00:57.578Z</time>
      </trkpt>
      <trkpt lat="58.35323098115623" lon="12.393926940858364">
        <ele>51.75</ele>
        <time>2025-02-06T18:01:25.973Z</time>
      </trkpt>
      <trkpt lat="58.35325294174254" lon="12.39394093863666">
        <ele>51.73</ele>
        <time>2025-02-06T18:01:54.368Z</time>
      </trkpt>
      <trkpt lat="58.35327196866274" lon="12.393955942243338">
        <ele>51.72</ele>
        <time>2025-02-06T18:02:22.763Z</time>
      </trkpt>
      <trkpt lat="58.35329099558294" lon="12.393977986648679">
        <ele>51.7</ele>
        <time>2025-02-06T18:02:51.159Z</time>
      </trkpt>
      <trkpt lat="58.35331195034087" lon="12.394004976376891">
        <ele>51.68</ele>
        <time>2025-02-06T18:03:19.555Z</time>
      </trkpt>
      <trkpt lat="58.35333491675556" lon="12.394037917256355">
        <ele>51.66</ele>
        <time>2025-02-06T18:03:47.952Z</time>
      </trkpt>
      <trkpt lat="58.35335897281766" lon="12.394077982753515">
        <ele>51.64</ele>
        <time>2025-02-06T18:04:16.349Z</time>
      </trkpt>
      <trkpt lat="58.35338395088911" lon="12.394124921411276">
        <ele>51.62</ele>
        <time>2025-02-06T18:04:44.747Z</time>
      </trkpt>
      <trkpt lat="58.35341094061732" lon="12.39417496137321">
        <ele>51.59</ele>
        <time>2025-02-06T18:05:13.145Z</time>
      </trkpt>
      <trkpt lat="58.353438936173916" lon="12.394219972193241">
        <ele>51.56</ele>
        <time>2025-02-06T18:05:41.544Z</time>
      </trkpt>
      <trkpt lat="58.35346592590213" lon="12.39426095969975">
        <ele>51.54</ele>
        <time>2025-02-06T18:06:09.944Z</time>
      </trkpt>
      <trkpt lat="58.35349199362099" lon="12.394305970519781">
        <ele>51.51</ele>
        <time>2025-02-06T18:06:38.344Z</time>
      </trkpt>
      <trkpt lat="58.35351797752082" lon="12.394357938319445">
        <ele>51.47</ele>
        <time>2025-02-06T18:07:06.745Z</time>
      </trkpt>
      <trkpt lat="58.353543961420655" lon="12.39440898410976">
        <ele>51.44</ele>
        <time>2025-02-06T18:07:35.146Z</time>
      </trkpt>
      <trkpt lat="58.353565922006965" lon="12.394462963566184">
        <ele>51.4</ele>
        <time>2025-02-06T18:08:03.548Z</time>
      </trkpt>
      <trkpt lat="58.353584948927164" lon="12.394528929144144">
        <ele>51.37</ele>
        <time>2025-02-06T18:08:31.951Z</time>
      </trkpt>
      <trkpt lat="58.35358997806907" lon="12.39460595883429">
        <ele>51.33</ele>
        <time>2025-02-06T18:09:00.354Z</time>
      </trkpt>
      <trkpt lat="58.35357799194753" lon="12.394683994352818">
        <ele>51.28</ele>
        <time>2025-02-06T18:09:28.758Z</time>
      </trkpt>
      <trkpt lat="58.35355896502733" lon="12.394762951880693">
        <ele>51.24</ele>
        <time>2025-02-06T18:09:57.163Z</time>
      </trkpt>
      <trkpt lat="58.35353499278426" lon="12.394835958257318">
        <ele>51.19</ele>
        <time>2025-02-06T18:10:25.568Z</time>
      </trkpt>
      <trkpt lat="58.35350699722767" lon="12.39490494132042">
        <ele>51.15</ele>
        <time>2025-02-06T18:10:53.974Z</time>
      </trkpt>
      <trkpt lat="58.353479923680425" lon="12.394973924383521">
        <ele>51.1</ele>
        <time>2025-02-06T18:11:22.381Z</time>
      </trkpt>
      <trkpt lat="58.35345192812383" lon="12.395045924931765">
        <ele>51.05</ele>
        <time>2025-02-06T18:11:50.789Z</time>
      </trkpt>
      <trkpt lat="58.35342393256724" lon="12.39511993713677">
        <ele>50.99</ele>
        <time>2025-02-06T18:12:19.197Z</time>
      </trkpt>
      <trkpt lat="58.353394931182265" lon="12.395195960998535">
        <ele>50.94</ele>
        <time>2025-02-06T18:12:47.606Z</time>
      </trkpt>
      <trkpt lat="58.35336492396891" lon="12.395271984860301">
        <ele>50.89</ele>
        <time>2025-02-06T18:13:16.016Z</time>
      </trkpt>
      <trkpt lat="58.35333491675556" lon="12.395349936559796">
        <ele>50.83</ele>
        <time>2025-02-06T18:13:44.427Z</time>
      </trkpt>
      <trkpt lat="58.353306921198964" lon="12.395430989563465">
        <ele>50.77</ele>
        <time>2025-02-06T18:14:12.839Z</time>
      </trkpt>
      <trkpt lat="58.35327892564237" lon="12.395513970404863">
        <ele>50.71</ele>
        <time>2025-02-06T18:14:41.251Z</time>
      </trkpt>
      <trkpt lat="58.3532499242574" lon="12.3955949395895">
        <ele>50.65</ele>
        <time>2025-02-06T18:15:09.664Z</time>
      </trkpt>
      <trkpt lat="58.353220922872424" lon="12.395674986764789">
        <ele>50.59</ele>
        <time>2025-02-06T18:15:38.078Z</time>
      </trkpt>
      <trkpt lat="58.3531909994781" lon="12.395753944292665">
        <ele>50.53</ele>
        <time>2025-02-06T18:16:06.493Z</time>
      </trkpt>
      <trkpt lat="58.35316099226475" lon="12.395832985639572">
        <ele>50.47</ele>
        <time>2025-02-06T18:16:34.909Z</time>
      </trkpt>
      <trkpt lat="58.35312796756625" lon="12.395908925682306">
        <ele>50.41</ele>
        <time>2025-02-06T18:17:03.325Z</time>
      </trkpt>
      <trkpt lat="58.35309896618128" lon="12.395988972857594">
        <ele>50.34</ele>
        <time>2025-02-06T18:17:31.742Z</time>
      </trkpt>
      <trkpt lat="58.353071976453066" lon="12.396075977012515">
        <ele>50.27</ele>
        <time>2025-02-06T18:18:00.160Z</time>
      </trkpt>
      <trkpt lat="58.353045992553234" lon="12.396162981167436">
        <ele>50.2</ele>
        <time>2025-02-06T18:18:28.579Z</time>
      </trkpt>
      <trkpt lat="58.35302495397627" lon="12.396253924816847">
        <ele>50.13</ele>
        <time>2025-02-06T18:18:56.999Z</time>
      </trkpt>
      <trkpt lat="58.353008944541216" lon="12.396348975598812">
        <ele>50.06</ele>
        <time>2025-02-06T18:19:25.420Z</time>
      </trkpt>
      <trkpt lat="58.3529959525913" lon="12.396446960046887">
        <ele>49.99</ele>
        <time>2025-02-06T18:19:53.842Z</time>
      </trkpt>
      <trkpt lat="58.35298698395491" lon="12.396545950323343">
        <ele>49.93</ele>
        <time>2025-02-06T18:20:22.264Z</time>
      </trkpt>
      <trkpt lat="58.35297994315624" lon="12.396658938378096">
        <ele>49.86</ele>
        <time>2025-02-06T18:20:50.687Z</time>
      </trkpt>
      <trkpt lat="58.35297591984272" lon="12.396766981109977">
        <ele>49.78</ele>
        <time>2025-02-06T18:21:19.111Z</time>
      </trkpt>
      <trkpt lat="58.35297399200499" lon="12.396876951679587">
        <ele>49.71</ele>
        <time>2025-02-06T18:21:47.536Z</time>
      </trkpt>
      <trkpt lat="58.35297298617661" lon="12.396987928077579">
        <ele>49.63</ele>
        <time>2025-02-06T18:22:15.962Z</time>
      </trkpt>
      <trkpt lat="58.35297298617661" lon="12.39709798246622">
        <ele>49.56</ele>
        <time>2025-02-06T18:22:44.389Z</time>
      </trkpt>
      <trkpt lat="58.35297591984272" lon="12.39720594137907">
        <ele>49.49</ele>
        <time>2025-02-06T18:23:12.817Z</time>
      </trkpt>
      <trkpt lat="58.352982960641384" lon="12.397314989939332">
        <ele>49.42</ele>
        <time>2025-02-06T18:23:41.246Z</time>
      </trkpt>
      <trkpt lat="58.35299192927778" lon="12.397425966337323">
        <ele>49.34</ele>
        <time>2025-02-06T18:24:09.676Z</time>
      </trkpt>
      <trkpt lat="58.3530009817332" lon="12.397536942735314">
        <ele>49.27</ele>
        <time>2025-02-06T18:24:38.107Z</time>
      </trkpt>
      <trkpt lat="58.35301095619798" lon="12.397647919133306">
        <ele>49.2</ele>
        <time>2025-02-06T18:25:06.539Z</time>
      </trkpt>
      <trkpt lat="58.35302495397627" lon="12.397758979350328">
        <ele>49.13</ele>
        <time>2025-02-06T18:25:34.972Z</time>
      </trkpt>
      <trkpt lat="58.35303995758295" lon="12.3978709615767">
        <ele>49.06</ele>
        <time>2025-02-06T18:26:03.406Z</time>
      </trkpt>
      <trkpt lat="58.35305395536125" lon="12.39797892048955">
        <ele>48.98</ele>
        <time>2025-02-06T18:26:31.841Z</time>
      </trkpt>
      <trkpt lat="58.3530649356544" lon="12.398082939907908">
        <ele>48.91</ele>
        <time>2025-02-06T18:27:00.276Z</time>
      </trkpt>
      <trkpt lat="58.35308094508946" lon="12.398176984861493">
        <ele>48.84</ele>
        <time>2025-02-06T18:27:28.712Z</time>
      </trkpt>
      <trkpt lat="58.35309695452452" lon="12.398275975137949">
        <ele>48.77</ele>
        <time>2025-02-06T18:27:57.149Z</time>
      </trkpt>
      <trkpt lat="58.353111958131194" lon="12.398378988727927">
        <ele>48.7</ele>
        <time>2025-02-06T18:28:25.587Z</time>
      </trkpt>
      <trkpt lat="58.35312997922301" lon="12.398483930155635">
        <ele>48.63</ele>
        <time>2025-02-06T18:28:54.026Z</time>
      </trkpt>
      <trkpt lat="58.35315093398094" lon="12.398592978715897">
        <ele>48.57</ele>
        <time>2025-02-06T18:29:22.466Z</time>
      </trkpt>
      <trkpt lat="58.3531719725579" lon="12.398703955113888">
        <ele>48.5</ele>
        <time>2025-02-06T18:29:50.907Z</time>
      </trkpt>
      <trkpt lat="58.35319393314421" lon="12.398818954825401">
        <ele>48.44</ele>
        <time>2025-02-06T18:30:19.349Z</time>
      </trkpt>
      <trkpt lat="58.35321698337793" lon="12.398933954536915">
        <ele>48.37</ele>
        <time>2025-02-06T18:30:47.792Z</time>
      </trkpt>
      <trkpt lat="58.35323793813586" lon="12.39905197173357">
        <ele>48.31</ele>
        <time>2025-02-06T18:31:16.236Z</time>
      </trkpt>
      <trkpt lat="58.35325294174254" lon="12.399173928424716">
        <ele>48.25</ele>
        <time>2025-02-06T18:31:44.681Z</time>
      </trkpt>
      <trkpt lat="58.353264927864075" lon="12.399298986420035">
        <ele>48.19</ele>
        <time>2025-02-06T18:32:13.127Z</time>
      </trkpt>
      <trkpt lat="58.35327498614788" lon="12.399423960596323">
        <ele>48.13</ele>
        <time>2025-02-06T18:32:41.574Z</time>
      </trkpt>
      <trkpt lat="58.353284960612655" lon="12.39954792894423">
        <ele>48.07</ele>
        <time>2025-02-06T18:33:10.022Z</time>
      </trkpt>
      <trkpt lat="58.35329392924905" lon="12.399670975282788">
        <ele>48.01</ele>
        <time>2025-02-06T18:33:38.471Z</time>
      </trkpt>
      <trkpt lat="58.35330298170447" lon="12.399791926145554">
        <ele>47.97</ele>
        <time>2025-02-06T18:34:06.921Z</time>
      </trkpt>
      <trkpt lat="58.35331295616925" lon="12.399909943342209">
        <ele>47.92</ele>
        <time>2025-02-06T18:34:35.372Z</time>
      </trkpt>
      <trkpt lat="58.35332091897726" lon="12.400025948882103">
        <ele>47.87</ele>
        <time>2025-02-06T18:35:03.824Z</time>
      </trkpt>
      <trkpt lat="58.353326953947544" lon="12.400137931108475">
        <ele>47.83</ele>
        <time>2025-02-06T18:35:32.277Z</time>
      </trkpt>
      <trkpt lat="58.35333399474621" lon="12.400246979668736">
        <ele>47.79</ele>
        <time>2025-02-06T18:36:00.731Z</time>
      </trkpt>
      <trkpt lat="58.35334095172584" lon="12.400353932753205">
        <ele>47.76</ele>
        <time>2025-02-06T18:36:29.186Z</time>
      </trkpt>
      <trkpt lat="58.353346986696124" lon="12.400456946343184">
        <ele>47.72</ele>
        <time>2025-02-06T18:36:57.642Z</time>
      </trkpt>
      <trkpt lat="58.35335494950414" lon="12.4005579482764">
        <ele>47.69</ele>
        <time>2025-02-06T18:37:26.099Z</time>
      </trkpt>
      <trkpt lat="58.35336592979729" lon="12.400656938552856">
        <ele>47.66</ele>
        <time>2025-02-06T18:37:54.557Z</time>
      </trkpt>
      <trkpt lat="58.35337498225272" lon="12.400755928829312">
        <ele>47.63</ele>
        <time>2025-02-06T18:38:23.016Z</time>
      </trkpt>
      <trkpt lat="58.35337799973786" lon="12.40085399709642">
        <ele>47.61</ele>
        <time>2025-02-06T18:38:51.475Z</time>
      </trkpt>
      <trkpt lat="58.35337498225272" lon="12.400950975716114">
        <ele>47.58</ele>
        <time>2025-02-06T18:39:19.935Z</time>
      </trkpt>
      <trkpt lat="58.353371964767575" lon="12.401032950729132">
        <ele>47.56</ele>
        <time>2025-02-06T18:39:48.396Z</time>
      </trkpt>
      <trkpt lat="58.353373976424336" lon="12.401095982640982">
        <ele>47.54</ele>
        <time>2025-02-06T18:40:16.858Z</time>
      </trkpt>
      <trkpt lat="58.35337699390948" lon="12.401128923520446">
        <ele>47.53</ele>
        <time>2025-02-06T18:40:45.320Z</time>
      </trkpt>
      <trkpt lat="58.35337799973786" lon="12.401137975975871">
        <ele>47.51</ele>
        <time>2025-02-06T18:41:13.782Z</time>
      </trkpt>
      <trkpt lat="58.353392919525504" lon="12.40120092406869">
        <ele>47.5</ele>
        <time>2025-02-06T18:41:42.244Z</time>
      </trkpt>
      <trkpt lat="58.35340197198093" lon="12.401238977909088">
        <ele>47.5</ele>
        <time>2025-02-06T18:42:10.707Z</time>
      </trkpt>
      <trkpt lat="58.35340892896056" lon="12.4012849945575">
        <ele>47.5</ele>
        <time>2025-02-06T18:42:39.170Z</time>
      </trkpt>
      <trkpt lat="58.353416975587606" lon="12.401344925165176">
        <ele>47.5</ele>
        <time>2025-02-06T18:43:07.634Z</time>
      </trkpt>
      <trkpt lat="58.35342896170914" lon="12.40141399204731">
        <ele>47.5</ele>
        <time>2025-02-06T18:43:36.098Z</time>
      </trkpt>
      <trkpt lat="58.35344094783068" lon="12.401491943746805">
        <ele>47.51</ele>
        <time>2025-02-06T18:44:04.563Z</time>
      </trkpt>
      <trkpt lat="58.35345293395221" lon="12.401581965386868">
        <ele>47.52</ele>
        <time>2025-02-06T18:44:33.029Z</time>
      </trkpt>
      <trkpt lat="58.35346198640764" lon="12.401679949834943">
        <ele>47.53</ele>
        <time>2025-02-06T18:45:01.496Z</time>
      </trkpt>
      <trkpt lat="58.35347095504403" lon="12.401782963424921">
        <ele>47.55</ele>
        <time>2025-02-06T18:45:29.964Z</time>
      </trkpt>
      <trkpt lat="58.353477995842695" lon="12.401893939822912">
        <ele>47.57</ele>
        <time>2025-02-06T18:45:58.432Z</time>
      </trkpt>
      <trkpt lat="58.353480929508805" lon="12.402006927877665">
        <ele>47.59</ele>
        <time>2025-02-06T18:46:26.901Z</time>
      </trkpt>
      <trkpt lat="58.35348495282233" lon="12.402114970609546">
        <ele>47.62</ele>
        <time>2025-02-06T18:46:55.371Z</time>
      </trkpt>
      <trkpt lat="58.35348998196423" lon="12.402219995856285">
        <ele>47.65</ele>
        <time>2025-02-06T18:47:23.842Z</time>
      </trkpt>
      <trkpt lat="58.3534949272871" lon="12.402321919798851">
        <ele>47.68</ele>
        <time>2025-02-06T18:47:52.314Z</time>
      </trkpt>
      <trkpt lat="58.353498950600624" lon="12.402420993894339">
        <ele>47.72</ele>
        <time>2025-02-06T18:48:20.787Z</time>
      </trkpt>
      <trkpt lat="58.353502973914146" lon="12.402516966685653">
        <ele>47.75</ele>
        <time>2025-02-06T18:48:49.261Z</time>
      </trkpt>
      <trkpt lat="58.35350498557091" lon="12.402610927820206">
        <ele>47.79</ele>
        <time>2025-02-06T18:49:17.736Z</time>
      </trkpt>
      <trkpt lat="58.35350599139929" lon="12.40270497277379">
        <ele>47.83</ele>
        <time>2025-02-06T18:49:46.211Z</time>
      </trkpt>
      <trkpt lat="58.35350791923702" lon="12.402795916423202">
        <ele>47.87</ele>
        <time>2025-02-06T18:50:14.687Z</time>
      </trkpt>
      <trkpt lat="58.3535089250654" lon="12.402883926406503">
        <ele>47.92</ele>
        <time>2025-02-06T18:50:43.164Z</time>
      </trkpt>
      <trkpt lat="58.35351093672216" lon="12.402969924733043">
        <ele>47.97</ele>
        <time>2025-02-06T18:51:11.642Z</time>
      </trkpt>
      <trkpt lat="58.35351294837892" lon="12.403053995221853">
        <ele>48.02</ele>
        <time>2025-02-06T18:51:40.120Z</time>
      </trkpt>
      <trkpt lat="58.3535139542073" lon="12.403135970234871">
        <ele>48.08</ele>
        <time>2025-02-06T18:52:08.599Z</time>
      </trkpt>
      <trkpt lat="58.35351294837892" lon="12.40321895107627">
        <ele>48.14</ele>
        <time>2025-02-06T18:52:37.079Z</time>
      </trkpt>
      <trkpt lat="58.35351194255054" lon="12.403301931917667">
        <ele>48.2</ele>
        <time>2025-02-06T18:53:05.559Z</time>
      </trkpt>
      <trkpt lat="58.35351093672216" lon="12.403384996578097">
        <ele>48.26</ele>
        <time>2025-02-06T18:53:34.040Z</time>
      </trkpt>
      <trkpt lat="58.35350993089378" lon="12.403468983247876">
        <ele>48.33</ele>
        <time>2025-02-06T18:54:02.522Z</time>
      </trkpt>
      <trkpt lat="58.35351093672216" lon="12.403551964089274">
        <ele>48.4</ele>
        <time>2025-02-06T18:54:31.004Z</time>
      </trkpt>
      <trkpt lat="58.35351194255054" lon="12.403633939102292">
        <ele>48.47</ele>
        <time>2025-02-06T18:54:59.487Z</time>
      </trkpt>
      <trkpt lat="58.35351093672216" lon="12.40371792577207">
        <ele>48.55</ele>
        <time>2025-02-06T18:55:27.971Z</time>
      </trkpt>
      <trkpt lat="58.35350791923702" lon="12.40380291827023">
        <ele>48.63</ele>
        <time>2025-02-06T18:55:56.456Z</time>
      </trkpt>
      <trkpt lat="58.353500962257385" lon="12.40388598293066">
        <ele>48.71</ele>
        <time>2025-02-06T18:56:24.941Z</time>
      </trkpt>
      <trkpt lat="58.35349299944937" lon="12.403968963772058">
        <ele>48.78</ele>
        <time>2025-02-06T18:56:53.427Z</time>
      </trkpt>
      <trkpt lat="58.35348595865071" lon="12.404053956270218">
        <ele>48.87</ele>
        <time>2025-02-06T18:57:21.914Z</time>
      </trkpt>
      <trkpt lat="58.353476990014315" lon="12.404138948768377">
        <ele>48.95</ele>
        <time>2025-02-06T18:57:50.401Z</time>
      </trkpt>
      <trkpt lat="58.35346592590213" lon="12.404223941266537">
        <ele>49.04</ele>
        <time>2025-02-06T18:58:18.889Z</time>
      </trkpt>
      <trkpt lat="58.35345293395221" lon="12.404309939593077">
        <ele>49.13</ele>
        <time>2025-02-06T18:58:47.378Z</time>
      </trkpt>
      <trkpt lat="58.353438936173916" lon="12.404393926262856">
        <ele>49.22</ele>
        <time>2025-02-06T18:59:15.868Z</time>
      </trkpt>
      <trkpt lat="58.35342292673886" lon="12.404478918761015">
        <ele>49.31</ele>
        <time>2025-02-06T18:59:44.358Z</time>
      </trkpt>
      <trkpt lat="58.35340398363769" lon="12.404562989249825">
        <ele>49.4</ele>
        <time>2025-02-06T19:00:12.849Z</time>
      </trkpt>
      <trkpt lat="58.35338193923235" lon="12.404645970091224">
        <ele>49.5</ele>
        <time>2025-02-06T19:00:41.341Z</time>
      </trkpt>
      <trkpt lat="58.35335897281766" lon="12.404729956761003">
        <ele>49.6</ele>
        <time>2025-02-06T19:01:09.834Z</time>
      </trkpt>
      <trkpt lat="58.35333491675556" lon="12.404814949259162">
        <ele>49.7</ele>
        <time>2025-02-06T19:01:38.328Z</time>
      </trkpt>
      <trkpt lat="58.353308932855725" lon="12.404899941757321">
        <ele>49.8</ele>
        <time>2025-02-06T19:02:06.822Z</time>
      </trkpt>
      <trkpt lat="58.35328093729913" lon="12.4049839284271">
        <ele>49.91</ele>
        <time>2025-02-06T19:02:35.317Z</time>
      </trkpt>
      <trkpt lat="58.35325394757092" lon="12.40506598725915">
        <ele>50.02</ele>
        <time>2025-02-06T19:03:03.813Z</time>
      </trkpt>
      <trkpt lat="58.35322796367109" lon="12.405148968100548">
        <ele>50.13</ele>
        <time>2025-02-06T19:03:32.310Z</time>
      </trkpt>
      <trkpt lat="58.353200973942876" lon="12.405229937285185">
        <ele>50.24</ele>
        <time>2025-02-06T19:04:00.808Z</time>
      </trkpt>
      <trkpt lat="58.35317297838628" lon="12.405308978632092">
        <ele>50.35</ele>
        <time>2025-02-06T19:04:29.307Z</time>
      </trkpt>
      <trkpt lat="58.35314397700131" lon="12.405381985008717">
        <ele>50.47</ele>
        <time>2025-02-06T19:04:57.806Z</time>
      </trkpt>
      <trkpt lat="58.353112963959575" lon="12.40545398555696">
        <ele>50.58</ele>
        <time>2025-02-06T19:05:26.306Z</time>
      </trkpt>
      <trkpt lat="58.35308295674622" lon="12.4055209569633">
        <ele>50.7</ele>
        <time>2025-02-06T19:05:54.807Z</time>
      </trkpt>
      <trkpt lat="58.35305496118963" lon="12.40558692254126">
        <ele>50.83</ele>
        <time>2025-02-06T19:06:23.309Z</time>
      </trkpt>
      <trkpt lat="58.35302998311818" lon="12.405651966109872">
        <ele>50.95</ele>
        <time>2025-02-06T19:06:51.811Z</time>
      </trkpt>
      <trkpt lat="58.353004921227694" lon="12.405716925859451">
        <ele>51.07</ele>
        <time>2025-02-06T19:07:20.314Z</time>
      </trkpt>
      <trkpt lat="58.35297893732786" lon="12.405784986913204">
        <ele>51.19</ele>
        <time>2025-02-06T19:07:48.818Z</time>
      </trkpt>
      <trkpt lat="58.35295295342803" lon="12.405852964147925">
        <ele>51.32</ele>
        <time>2025-02-06T19:08:17.322Z</time>
      </trkpt>
      <trkpt lat="58.35292495787144" lon="12.405922953039408">
        <ele>51.45</ele>
        <time>2025-02-06T19:08:45.827Z</time>
      </trkpt>
      <trkpt lat="58.352896962314844" lon="12.405998976901174">
        <ele>51.58</ele>
        <time>2025-02-06T19:09:14.333Z</time>
      </trkpt>
      <trkpt lat="58.35286796092987" lon="12.40607793442905">
        <ele>51.71</ele>
        <time>2025-02-06T19:09:42.840Z</time>
      </trkpt>
      <trkpt lat="58.3528389595449" lon="12.406158987432718">
        <ele>51.84</ele>
        <time>2025-02-06T19:10:11.348Z</time>
      </trkpt>
      <trkpt lat="58.352809958159924" lon="12.406244985759258">
        <ele>51.97</ele>
        <time>2025-02-06T19:10:39.856Z</time>
      </trkpt>
      <trkpt lat="58.35277894511819" lon="12.406327966600657">
        <ele>52.1</ele>
        <time>2025-02-06T19:11:08.365Z</time>
      </trkpt>
      <trkpt lat="58.352746926248074" lon="12.406412959098816">
        <ele>52.24</ele>
        <time>2025-02-06T19:11:36.875Z</time>
      </trkpt>
      <trkpt lat="58.35271599702537" lon="12.406500969082117">
        <ele>52.38</ele>
        <time>2025-02-06T19:12:05.386Z</time>
      </trkpt>
      <trkpt lat="58.352683978155255" lon="12.406588979065418">
        <ele>52.52</ele>
        <time>2025-02-06T19:12:33.898Z</time>
      </trkpt>
      <trkpt lat="58.35265296511352" lon="12.40668092854321">
        <ele>52.65</ele>
        <time>2025-02-06T19:13:02.411Z</time>
      </trkpt>
      <trkpt lat="58.352621952071786" lon="12.406776985153556">
        <ele>52.79</ele>
        <time>2025-02-06T19:13:30.925Z</time>
      </trkpt>
      <trkpt lat="58.35259093903005" lon="12.40687396377325">
        <ele>52.93</ele>
        <time>2025-02-06T19:13:59.440Z</time>
      </trkpt>
      <trkpt lat="58.3525609318167" lon="12.406974965706468">
        <ele>53.07</ele>
        <time>2025-02-06T19:14:27.956Z</time>
      </trkpt>
      <trkpt lat="58.352531930431724" lon="12.407078985124826">
        <ele>53.22</ele>
        <time>2025-02-06T19:14:56.473Z</time>
      </trkpt>
      <trkpt lat="58.35250494070351" lon="12.407184932380915">
        <ele>53.36</ele>
        <time>2025-02-06T19:15:24.991Z</time>
      </trkpt>
      <trkpt lat="58.35247996263206" lon="12.407293980941176">
        <ele>53.51</ele>
        <time>2025-02-06T19:15:53.510Z</time>
      </trkpt>
      <trkpt lat="58.35245699621737" lon="12.407401939854026">
        <ele>53.65</ele>
        <time>2025-02-06T19:16:22.030Z</time>
      </trkpt>
      <trkpt lat="58.35243092849851" lon="12.407509982585907">
        <ele>53.8</ele>
        <time>2025-02-06T19:16:50.551Z</time>
      </trkpt>
      <trkpt lat="58.352399999275804" lon="12.407613918185234">
        <ele>53.94</ele>
        <time>2025-02-06T19:17:19.073Z</time>
      </trkpt>
      <trkpt lat="58.35236496292055" lon="12.40770997479558">
        <ele>54.08</ele>
        <time>2025-02-06T19:17:47.596Z</time>
      </trkpt>
      <trkpt lat="58.35232699289918" lon="12.407801924273372">
        <ele>54.23</ele>
        <time>2025-02-06T19:18:16.120Z</time>
      </trkpt>
      <trkpt lat="58.35229195654392" lon="12.407894963398576">
        <ele>54.38</ele>
        <time>2025-02-06T19:18:44.645Z</time>
      </trkpt>
      <trkpt lat="58.35226094350219" lon="12.407992947846651">
        <ele>54.53</ele>
        <time>2025-02-06T19:19:13.171Z</time>
      </trkpt>
      <trkpt lat="58.35222993046045" lon="12.408087998628616">
        <ele>54.68</ele>
        <time>2025-02-06T19:19:41.698Z</time>
      </trkpt>
      <trkpt lat="58.35219598375261" lon="12.408177936449647">
        <ele>54.82</ele>
        <time>2025-02-06T19:20:10.225Z</time>
      </trkpt>
      <trkpt lat="58.35216094739735" lon="12.408260917291045">
        <ele>54.97</ele>
        <time>2025-02-06T19:20:38.753Z</time>
      </trkpt>
      <trkpt lat="58.352123983204365" lon="12.40833392366767">
        <ele>55.11</ele>
        <time>2025-02-06T19:21:07.282Z</time>
      </trkpt>
      <trkpt lat="58.352083917707205" lon="12.408399973064661">
        <ele>55.26</ele>
        <time>2025-02-06T19:21:35.812Z</time>
      </trkpt>
      <trkpt lat="58.35204393602908" lon="12.408453952521086">
        <ele>55.4</ele>
        <time>2025-02-06T19:22:04.343Z</time>
      </trkpt>
      <trkpt lat="58.351998925209045" lon="12.40850793197751">
        <ele>55.55</ele>
        <time>2025-02-06T19:22:32.875Z</time>
      </trkpt>
      <trkpt lat="58.351952992379665" lon="12.408554954454303">
        <ele>55.69</ele>
        <time>2025-02-06T19:23:01.408Z</time>
      </trkpt>
      <trkpt lat="58.35190395824611" lon="12.408595941960812">
        <ele>55.83</ele>
        <time>2025-02-06T19:23:29.941Z</time>
      </trkpt>
      <trkpt lat="58.35185492411256" lon="12.40863298997283">
        <ele>55.97</ele>
        <time>2025-02-06T19:23:58.475Z</time>
      </trkpt>
      <trkpt lat="58.351804967969656" lon="12.408667942509055">
        <ele>56.11</ele>
        <time>2025-02-06T19:24:27.010Z</time>
      </trkpt>
      <trkpt lat="58.35175492800772" lon="12.408703984692693">
        <ele>56.25</ele>
        <time>2025-02-06T19:24:55.546Z</time>
      </trkpt>
      <trkpt lat="58.35170497186482" lon="12.408744972199202">
        <ele>56.39</ele>
        <time>2025-02-06T19:25:24.083Z</time>
      </trkpt>
      <trkpt lat="58.351654931902885" lon="12.40878394804895">
        <ele>56.53</ele>
        <time>2025-02-06T19:25:52.621Z</time>
      </trkpt>
      <trkpt lat="58.3516039699316" lon="12.408823929727077">
        <ele>56.67</ele>
        <time>2025-02-06T19:26:21.160Z</time>
      </trkpt>
      <trkpt lat="58.35155392996967" lon="12.408861983567476">
        <ele>56.81</ele>
        <time>2025-02-06T19:26:49.699Z</time>
      </trkpt>
      <trkpt lat="58.35150598548353" lon="12.408897941932082">
        <ele>56.95</ele>
        <time>2025-02-06T19:27:18.239Z</time>
      </trkpt>
      <trkpt lat="58.351459968835115" lon="12.408931972458959">
        <ele>57.09</ele>
        <time>2025-02-06T19:27:46.780Z</time>
      </trkpt>
      <trkpt lat="58.351415963843465" lon="12.408964997157454">
        <ele>57.23</ele>
        <time>2025-02-06T19:28:15.322Z</time>
      </trkpt>
      <trkpt lat="58.351373970508575" lon="12.408997938036919">
        <ele>57.37</ele>
        <time>2025-02-06T19:28:43.865Z</time>
      </trkpt>
      <trkpt lat="58.35133398883045" lon="12.409035991877317">
        <ele>57.51</ele>
        <time>2025-02-06T19:29:12.408Z</time>
      </trkpt>
      <trkpt lat="58.35129593499005" lon="12.409076979383826">
        <ele>57.65</ele>
        <time>2025-02-06T19:29:40.952Z</time>
      </trkpt>
      <trkpt lat="58.35125897079706" lon="12.409121990203857">
        <ele>57.79</ele>
        <time>2025-02-06T19:30:09.497Z</time>
      </trkpt>
      <trkpt lat="58.351224940270185" lon="12.40917094051838">
        <ele>57.93</ele>
        <time>2025-02-06T19:30:38.042Z</time>
      </trkpt>
      <trkpt lat="58.35119392722845" lon="12.409222992137074">
        <ele>58.07</ele>
        <time>2025-02-06T19:31:06.588Z</time>
      </trkpt>
      <trkpt lat="58.35116593167186" lon="12.409275965765119">
        <ele>58.21</ele>
        <time>2025-02-06T19:31:35.135Z</time>
      </trkpt>
      <trkpt lat="58.351139947772026" lon="12.409331956878304">
        <ele>58.35</ele>
        <time>2025-02-06T19:32:03.682Z</time>
      </trkpt>
      <trkpt lat="58.351116981357336" lon="12.409388953819871">
        <ele>58.49</ele>
        <time>2025-02-06T19:32:32.230Z</time>
      </trkpt>
      <trkpt lat="58.351095942780375" lon="12.409445950761437">
        <ele>58.63</ele>
        <time>2025-02-06T19:33:00.778Z</time>
      </trkpt>
      <trkpt lat="58.35107699967921" lon="12.409506971016526">
        <ele>58.77</ele>
        <time>2025-02-06T19:33:29.327Z</time>
      </trkpt>
      <trkpt lat="58.35106099024415" lon="12.409564973786473">
        <ele>58.9</ele>
        <time>2025-02-06T19:33:57.877Z</time>
      </trkpt>
      <trkpt lat="58.35104498080909" lon="12.40962297655642">
        <ele>59.04</ele>
        <time>2025-02-06T19:34:26.427Z</time>
      </trkpt>
      <trkpt lat="58.351029977202415" lon="12.409681985154748">
        <ele>59.17</ele>
        <time>2025-02-06T19:34:54.978Z</time>
      </trkpt>
      <trkpt lat="58.35101497359574" lon="12.409740993753076">
        <ele>59.31</ele>
        <time>2025-02-06T19:35:23.529Z</time>
      </trkpt>
      <trkpt lat="58.35100097581744" lon="12.409799918532372">
        <ele>59.45</ele>
        <time>2025-02-06T19:35:52.081Z</time>
      </trkpt>
      <trkpt lat="58.350987983867526" lon="12.40985993295908">
        <ele>59.58</ele>
        <time>2025-02-06T19:36:20.633Z</time>
      </trkpt>
      <trkpt lat="58.35097499191761" lon="12.409919947385788">
        <ele>59.71</ele>
        <time>2025-02-06T19:36:49.186Z</time>
      </trkpt>
      <trkpt lat="58.350963927805424" lon="12.409980967640877">
        <ele>59.84</ele>
        <time>2025-02-06T19:37:17.739Z</time>
      </trkpt>
      <trkpt lat="58.35095395334065" lon="12.410042993724346">
        <ele>59.97</ele>
        <time>2025-02-06T19:37:46.293Z</time>
      </trkpt>
      <trkpt lat="58.350942973047495" lon="12.410105941817164">
        <ele>60.1</ele>
        <time>2025-02-06T19:38:14.848Z</time>
      </trkpt>
      <trkpt lat="58.35093299858272" lon="12.410171991214156">
        <ele>60.23</ele>
        <time>2025-02-06T19:38:43.403Z</time>
      </trkpt>
      <trkpt lat="58.350923946127295" lon="12.410238962620497">
        <ele>60.35</ele>
        <time>2025-02-06T19:39:11.959Z</time>
      </trkpt>
      <trkpt lat="58.35091397166252" lon="12.410305934026837">
        <ele>60.48</ele>
        <time>2025-02-06T19:39:40.515Z</time>
      </trkpt>
      <trkpt lat="58.350904919207096" lon="12.41037298925221">
        <ele>60.6</ele>
        <time>2025-02-06T19:40:09.072Z</time>
      </trkpt>
      <trkpt lat="58.35089494474232" lon="12.41043895483017">
        <ele>60.72</ele>
        <time>2025-02-06T19:40:37.629Z</time>
      </trkpt>
      <trkpt lat="58.350881952792406" lon="12.4105029925704">
        <ele>60.85</ele>
        <time>2025-02-06T19:41:06.187Z</time>
      </trkpt>
      <trkpt lat="58.35086493752897" lon="12.410562923178077">
        <ele>60.97</ele>
        <time>2025-02-06T19:41:34.746Z</time>
      </trkpt>
      <trkpt lat="58.35084398277104" lon="12.410617992281914">
        <ele>61.08</ele>
        <time>2025-02-06T19:42:03.305Z</time>
      </trkpt>
      <trkpt lat="58.35081799887121" lon="12.410665936768055">
        <ele>61.2</ele>
        <time>2025-02-06T19:42:31.865Z</time>
      </trkpt>
      <trkpt lat="58.35078799165785" lon="12.410709941759706">
        <ele>61.32</ele>
        <time>2025-02-06T19:43:00.425Z</time>
      </trkpt>
      <trkpt lat="58.35075697861612" lon="12.410753946751356">
        <ele>61.43</ele>
        <time>2025-02-06T19:43:28.986Z</time>
      </trkpt>
      <trkpt lat="58.350726971402764" lon="12.41080298088491">
        <ele>61.54</ele>
        <time>2025-02-06T19:43:57.548Z</time>
      </trkpt>
      <trkpt lat="58.35070392116904" lon="12.410862995311618">
        <ele>61.65</ele>
        <time>2025-02-06T19:44:26.110Z</time>
      </trkpt>
      <trkpt lat="58.35069394670427" lon="12.410940947011113">
        <ele>61.76</ele>
        <time>2025-02-06T19:44:54.673Z</time>
      </trkpt>
      <trkpt lat="58.35069797001779" lon="12.41102191619575">
        <ele>61.87</ele>
        <time>2025-02-06T19:45:23.237Z</time>
      </trkpt>
      <trkpt lat="58.35071196779609" lon="12.411102969199419">
        <ele>61.98</ele>
        <time>2025-02-06T19:45:51.801Z</time>
      </trkpt>
      <trkpt lat="58.350731916725636" lon="12.411182932555676">
        <ele>62.09</ele>
        <time>2025-02-06T19:46:20.366Z</time>
      </trkpt>
      <trkpt lat="58.35075496695936" lon="12.411259962245822">
        <ele>62.19</ele>
        <time>2025-02-06T19:46:48.932Z</time>
      </trkpt>
      <trkpt lat="58.35077692754567" lon="12.411333974450827">
        <ele>62.29</ele>
        <time>2025-02-06T19:47:17.499Z</time>
      </trkpt>
      <trkpt lat="58.35079796612263" lon="12.411412931978703">
        <ele>62.4</ele>
        <time>2025-02-06T19:47:46.066Z</time>
      </trkpt>
      <trkpt lat="58.350818920880556" lon="12.411497924476862">
        <ele>62.5</ele>
        <time>2025-02-06T19:48:14.634Z</time>
      </trkpt>
      <trkpt lat="58.350837947800756" lon="12.411582916975021">
        <ele>62.6</ele>
        <time>2025-02-06T19:48:43.203Z</time>
      </trkpt>
      <trkpt lat="58.350857980549335" lon="12.411670926958323">
        <ele>62.69</ele>
        <time>2025-02-06T19:49:11.773Z</time>
      </trkpt>
      <trkpt lat="58.350877929478884" lon="12.411758936941624">
        <ele>62.79</ele>
        <time>2025-02-06T19:49:40.344Z</time>
      </trkpt>
      <trkpt lat="58.350898968055844" lon="12.411847952753305">
        <ele>62.88</ele>
        <time>2025-02-06T19:50:08.915Z</time>
      </trkpt>
      <trkpt lat="58.35091891698539" lon="12.411937974393368">
        <ele>62.98</ele>
        <time>2025-02-06T19:50:37.487Z</time>
      </trkpt>
      <trkpt lat="58.35093894973397" lon="12.41202699020505">
        <ele>63.07</ele>
        <time>2025-02-06T19:51:06.060Z</time>
      </trkpt>
      <trkpt lat="58.35095998831093" lon="12.41211692802608">
        <ele>63.16</ele>
        <time>2025-02-06T19:51:34.634Z</time>
      </trkpt>
      <trkpt lat="58.35097691975534" lon="12.412208961322904">
        <ele>63.26</ele>
        <time>2025-02-06T19:52:03.209Z</time>
      </trkpt>
      <trkpt lat="58.350987983867526" lon="12.412302922457457">
        <ele>63.35</ele>
        <time>2025-02-06T19:52:31.784Z</time>
      </trkpt>
      <trkpt lat="58.35099695250392" lon="12.412398979067802">
        <ele>63.43</ele>
        <time>2025-02-06T19:53:00.360Z</time>
      </trkpt>
      <trkpt lat="58.351006926968694" lon="12.412494951859117">
        <ele>63.52</ele>
        <time>2025-02-06T19:53:28.937Z</time>
      </trkpt>
      <trkpt lat="58.35101597942412" lon="12.41258991882205">
        <ele>63.61</ele>
        <time>2025-02-06T19:53:57.515Z</time>
      </trkpt>
      <trkpt lat="58.35102595388889" lon="12.412684969604015">
        <ele>63.7</ele>
        <time>2025-02-06T19:54:26.094Z</time>
      </trkpt>
      <trkpt lat="58.35103592835367" lon="12.412777924910188">
        <ele>63.78</ele>
        <time>2025-02-06T19:54:54.674Z</time>
      </trkpt>
      <trkpt lat="58.35104498080909" lon="12.412870964035392">
        <ele>63.87</ele>
        <time>2025-02-06T19:55:23.254Z</time>
      </trkpt>
      <trkpt lat="58.351053949445486" lon="12.412962997332215">
        <ele>63.96</ele>
        <time>2025-02-06T19:55:51.835Z</time>
      </trkpt>
      <trkpt lat="58.35106099024415" lon="12.413055952638388">
        <ele>64.04</ele>
        <time>2025-02-06T19:56:20.417Z</time>
      </trkpt>
      <trkpt lat="58.3510669413954" lon="12.41314698010683">
        <ele>64.13</ele>
        <time>2025-02-06T19:56:49.000Z</time>
      </trkpt>
      <trkpt lat="58.351069958880544" lon="12.413238929584622">
        <ele>64.21</ele>
        <time>2025-02-06T19:57:17.583Z</time>
      </trkpt>
      <trkpt lat="58.351071970537305" lon="12.413330962881446">
        <ele>64.29</ele>
        <time>2025-02-06T19:57:46.167Z</time>
      </trkpt>
      <trkpt lat="58.35107498802245" lon="12.41342299617827">
        <ele>64.37</ele>
        <time>2025-02-06T19:58:14.752Z</time>
      </trkpt>
      <trkpt lat="58.35107792168856" lon="12.413514945656061">
        <ele>64.44</ele>
        <time>2025-02-06T19:58:43.338Z</time>
      </trkpt>
      <trkpt lat="58.35107892751694" lon="12.413607984781265">
        <ele>64.52</ele>
        <time>2025-02-06T19:59:11.925Z</time>
      </trkpt>
      <trkpt lat="58.35107892751694" lon="12.413701945915818">
        <ele>64.6</ele>
        <time>2025-02-06T19:59:40.512Z</time>
      </trkpt>
      <trkpt lat="58.35107892751694" lon="12.413795990869403">
        <ele>64.67</ele>
        <time>2025-02-06T20:00:09.100Z</time>
      </trkpt>
      <trkpt lat="58.35107892751694" lon="12.413890957832336">
        <ele>64.75</ele>
        <time>2025-02-06T20:00:37.689Z</time>
      </trkpt>
      <trkpt lat="58.35107892751694" lon="12.41398592479527">
        <ele>64.82</ele>
        <time>2025-02-06T20:01:06.279Z</time>
      </trkpt>
      <trkpt lat="58.35107792168856" lon="12.414080975577235">
        <ele>64.9</ele>
        <time>2025-02-06T20:01:34.870Z</time>
      </trkpt>
      <trkpt lat="58.35107699967921" lon="12.414174936711788">
        <ele>64.97</ele>
        <time>2025-02-06T20:02:03.461Z</time>
      </trkpt>
      <trkpt lat="58.35107599385083" lon="12.414268981665373">
        <ele>65.04</ele>
        <time>2025-02-06T20:02:32.053Z</time>
      </trkpt>
      <trkpt lat="58.35107498802245" lon="12.414360931143165">
        <ele>65.11</ele>
        <time>2025-02-06T20:03:00.646Z</time>
      </trkpt>
      <trkpt lat="58.351072976365685" lon="12.414451958611608">
        <ele>65.17</ele>
        <time>2025-02-06T20:03:29.240Z</time>
      </trkpt>
      <trkpt lat="58.351070964708924" lon="12.41454198025167">
        <ele>65.24</ele>
        <time>2025-02-06T20:03:57.834Z</time>
      </trkpt>
      <trkpt lat="58.35106895305216" lon="12.414632923901081">
        <ele>65.3</ele>
        <time>2025-02-06T20:04:26.429Z</time>
      </trkpt>
      <trkpt lat="58.3510669413954" lon="12.414722945541143">
        <ele>65.37</ele>
        <time>2025-02-06T20:04:55.025Z</time>
      </trkpt>
      <trkpt lat="58.35106492973864" lon="12.414810955524445">
        <ele>65.43</ele>
        <time>2025-02-06T20:05:23.622Z</time>
      </trkpt>
      <trkpt lat="58.35106199607253" lon="12.414896953850985">
        <ele>65.49</ele>
        <time>2025-02-06T20:05:52.219Z</time>
      </trkpt>
      <trkpt lat="58.35106099024415" lon="12.414982952177525">
        <ele>65.55</ele>
        <time>2025-02-06T20:06:20.817Z</time>
      </trkpt>
      <trkpt lat="58.35106099024415" lon="12.415068950504065">
        <ele>65.62</ele>
        <time>2025-02-06T20:06:49.416Z</time>
      </trkpt>
      <trkpt lat="58.351052943617105" lon="12.415151931345463">
        <ele>65.68</ele>
        <time>2025-02-06T20:07:18.016Z</time>
      </trkpt>
      <trkpt lat="58.35104296915233" lon="12.415231978520751">
        <ele>65.74</ele>
        <time>2025-02-06T20:07:46.616Z</time>
      </trkpt>
      <trkpt lat="58.35104095749557" lon="12.415310936048627">
        <ele>65.79</ele>
        <time>2025-02-06T20:08:15.217Z</time>
      </trkpt>
      <trkpt lat="58.35103794001043" lon="12.415384948253632">
        <ele>65.85</ele>
        <time>2025-02-06T20:08:43.819Z</time>
      </trkpt>
      <trkpt lat="58.351033916696906" lon="12.415460972115397">
        <ele>65.91</ele>
        <time>2025-02-06T20:09:12.421Z</time>
      </trkpt>
      <trkpt lat="58.35103299468756" lon="12.415536995977163">
        <ele>65.96</ele>
        <time>2025-02-06T20:09:41.024Z</time>
      </trkpt>
      <trkpt lat="58.351033916696906" lon="12.41561695933342">
        <ele>66.03</ele>
        <time>2025-02-06T20:10:09.628Z</time>
      </trkpt>
      <trkpt lat="58.35103693418205" lon="12.415695916861296">
        <ele>66.09</ele>
        <time>2025-02-06T20:10:38.232Z</time>
      </trkpt>
      <trkpt lat="58.35104296915233" lon="12.415771940723062">
        <ele>66.15</ele>
        <time>2025-02-06T20:11:06.837Z</time>
      </trkpt>
      <trkpt lat="58.351049926131964" lon="12.415846958756447">
        <ele>66.21</ele>
        <time>2025-02-06T20:11:35.442Z</time>
      </trkpt>
      <trkpt lat="58.35105797275901" lon="12.415922982618213">
        <ele>66.27</ele>
        <time>2025-02-06T20:12:04.048Z</time>
      </trkpt>
      <trkpt lat="58.35106794722378" lon="12.415998922660947">
        <ele>66.33</ele>
        <time>2025-02-06T20:12:32.655Z</time>
      </trkpt>
      <trkpt lat="58.3510809391737" lon="12.416077964007854">
        <ele>66.38</ele>
        <time>2025-02-06T20:13:01.263Z</time>
      </trkpt>
      <trkpt lat="58.351096948608756" lon="12.416162956506014">
        <ele>66.45</ele>
        <time>2025-02-06T20:13:29.871Z</time>
      </trkpt>
      <trkpt lat="58.35111798718572" lon="12.416244931519032">
        <ele>66.51</ele>
        <time>2025-02-06T20:13:58.480Z</time>
      </trkpt>
      <trkpt lat="58.351139947772026" lon="12.416329924017191">
        <ele>66.57</ele>
        <time>2025-02-06T20:14:27.090Z</time>
      </trkpt>
      <trkpt lat="58.35116593167186" lon="12.416416928172112">
        <ele>66.63</ele>
        <time>2025-02-06T20:14:55.701Z</time>
      </trkpt>
      <trkpt lat="58.35119392722845" lon="12.416504938155413">
        <ele>66.69</ele>
        <time>2025-02-06T20:15:24.313Z</time>
      </trkpt>
      <trkpt lat="58.351222928613424" lon="12.416590936481953">
        <ele>66.75</ele>
        <time>2025-02-06T20:15:52.925Z</time>
      </trkpt>
      <trkpt lat="58.3512519299984" lon="12.416672995314002">
        <ele>66.81</ele>
        <time>2025-02-06T20:16:21.538Z</time>
      </trkpt>
      <trkpt lat="58.351284954696894" lon="12.416752958670259">
        <ele>66.86</ele>
        <time>2025-02-06T20:16:50.152Z</time>
      </trkpt>
      <trkpt lat="58.35131797939539" lon="12.416833927854896">
        <ele>66.92</ele>
        <time>2025-02-06T20:17:18.767Z</time>
      </trkpt>
      <trkpt lat="58.351351926103234" lon="12.416915986686945">
        <ele>66.98</ele>
        <time>2025-02-06T20:17:47.383Z</time>
      </trkpt>
      <trkpt lat="58.35138595663011" lon="12.416997961699963">
        <ele>67.05</ele>
        <time>2025-02-06T20:18:16.000Z</time>
      </trkpt>
      <trkpt lat="58.35141998715699" lon="12.417081948369741">
        <ele>67.11</ele>
        <time>2025-02-06T20:18:44.618Z</time>
      </trkpt>
      <trkpt lat="58.351456951349974" lon="12.41716593503952">
        <ele>67.17</ele>
        <time>2025-02-06T20:19:13.237Z</time>
      </trkpt>
      <trkpt lat="58.35149198770523" lon="12.41725092753768">
        <ele>67.24</ele>
        <time>2025-02-06T20:19:41.856Z</time>
      </trkpt>
      <trkpt lat="58.3515299577266" lon="12.41733692586422">
        <ele>67.3</ele>
        <time>2025-02-06T20:20:10.476Z</time>
      </trkpt>
      <trkpt lat="58.351565999910235" lon="12.41742493584752">
        <ele>67.37</ele>
        <time>2025-02-06T20:20:39.097Z</time>
      </trkpt>
      <trkpt lat="58.35160497575998" lon="12.417513951659203">
        <ele>67.43</ele>
        <time>2025-02-06T20:21:07.719Z</time>
      </trkpt>
      <trkpt lat="58.35164495743811" lon="12.417604979127645">
        <ele>67.49</ele>
        <time>2025-02-06T20:21:36.342Z</time>
      </trkpt>
      <trkpt lat="58.35168493911624" lon="12.417698940262198">
        <ele>67.56</ele>
        <time>2025-02-06T20:22:04.966Z</time>
      </trkpt>
      <trkpt lat="58.35172894410789" lon="12.417795918881893">
        <ele>67.62</ele>
        <time>2025-02-06T20:22:33.591Z</time>
      </trkpt>
      <trkpt lat="58.35177294909954" lon="12.417895998805761">
        <ele>67.69</ele>
        <time>2025-02-06T20:23:02.218Z</time>
      </trkpt>
      <trkpt lat="58.35181393660605" lon="12.418004963546991">
        <ele>67.75</ele>
        <time>2025-02-06T20:23:30.846Z</time>
      </trkpt>
      <trkpt lat="58.3518579415977" lon="12.418122980743647">
        <ele>67.82</ele>
        <time>2025-02-06T20:23:59.475Z</time>
      </trkpt>
      <trkpt lat="58.35189993493259" lon="12.418249966576695">
        <ele>67.88</ele>
        <time>2025-02-06T20:24:28.105Z</time>
      </trkpt>
      <trkpt lat="58.35194192826748" lon="12.418385921046138">
        <ele>67.95</ele>
        <time>2025-02-06T20:24:56.736Z</time>
      </trkpt>
      <trkpt lat="58.35198492743075" lon="12.418529922142625">
        <ele>68.03</ele>
        <time>2025-02-06T20:25:25.369Z</time>
      </trkpt>
      <trkpt lat="58.35202398709953" lon="12.418682975694537">
        <ele>68.1</ele>
        <time>2025-02-06T20:25:54.003Z</time>
      </trkpt>
      <trkpt lat="58.352060951292515" lon="12.41884097456932">
        <ele>68.17</ele>
        <time>2025-02-06T20:26:22.639Z</time>
      </trkpt>
      <trkpt lat="58.35209498181939" lon="12.419003918766975">
        <ele>68.25</ele>
        <time>2025-02-06T20:26:51.276Z</time>
      </trkpt>
      <trkpt lat="58.352125994861126" lon="12.419167952612042">
        <ele>68.33</ele>
        <time>2025-02-06T20:27:19.915Z</time>
      </trkpt>
      <trkpt lat="58.35215399041772" lon="12.41933198645711">
        <ele>68.4</ele>
        <time>2025-02-06T20:27:48.555Z</time>
      </trkpt>
      <trkpt lat="58.35218198597431" lon="12.419494930654764">
        <ele>68.48</ele>
        <time>2025-02-06T20:28:17.197Z</time>
      </trkpt>
      <trkpt lat="58.352207969874144" lon="12.41965594701469">
        <ele>68.56</ele>
        <time>2025-02-06T20:28:45.840Z</time>
      </trkpt>
      <trkpt lat="58.352234959602356" lon="12.419816963374615">
        <ele>68.64</ele>
        <time>2025-02-06T20:29:14.484Z</time>
      </trkpt>
      <trkpt lat="58.35226094350219" lon="12.419980997219682">
        <ele>68.72</ele>
        <time>2025-02-06T20:29:43.130Z</time>
      </trkpt>
      <trkpt lat="58.35228097625077" lon="12.420146958902478">
        <ele>68.81</ele>
        <time>2025-02-06T20:30:11.777Z</time>
      </trkpt>
      <trkpt lat="58.3523069601506" lon="12.420314932242036">
        <ele>68.9</ele>
        <time>2025-02-06T20:30:40.426Z</time>
      </trkpt>
      <trkpt lat="58.35233596153557" lon="12.420481983572245">
        <ele>68.99</ele>
        <time>2025-02-06T20:31:09.076Z</time>
      </trkpt>
      <trkpt lat="58.35236898623407" lon="12.42064693942666">
        <ele>69.07</ele>
        <time>2025-02-06T20:31:37.728Z</time>
      </trkpt>
      <trkpt lat="58.352404944598675" lon="12.420809967443347">
        <ele>69.16</ele>
        <time>2025-02-06T20:32:06.381Z</time>
      </trkpt>
      <trkpt lat="58.35244392044842" lon="12.420968972146511">
        <ele>69.26</ele>
        <time>2025-02-06T20:32:35.036Z</time>
      </trkpt>
      <trkpt lat="58.35248792544007" lon="12.421125965192914">
        <ele>69.35</ele>
        <time>2025-02-06T20:33:03.692Z</time>
      </trkpt>
      <trkpt lat="58.352533942088485" lon="12.421278934925795">
        <ele>69.45</ele>
        <time>2025-02-06T20:33:32.350Z</time>
      </trkpt>
      <trkpt lat="58.35258297622204" lon="12.421429976820946">
        <ele>69.55</ele>
        <time>2025-02-06T20:34:01.009Z</time>
      </trkpt>
      <trkpt lat="58.35263594985008" lon="12.421578923240304">
        <ele>69.64</ele>
        <time>2025-02-06T20:34:29.670Z</time>
      </trkpt>
      <trkpt lat="58.35269294679165" lon="12.421723930165172">
        <ele>69.75</ele>
        <time>2025-02-06T20:34:58.332Z</time>
      </trkpt>
      <trkpt lat="58.3527559787035" lon="12.421862985938787">
        <ele>69.86</ele>
        <time>2025-02-06T20:35:26.996Z</time>
      </trkpt>
      <trkpt lat="58.35282295010984" lon="12.421995922923088">
        <ele>69.97</ele>
        <time>2025-02-06T20:35:55.661Z</time>
      </trkpt>
      <trkpt lat="58.3528939448297" lon="12.422119975090027">
        <ele>70.08</ele>
        <time>2025-02-06T20:36:24.328Z</time>
      </trkpt>
      <trkpt lat="58.35297097451985" lon="12.42223396897316">
        <ele>70.19</ele>
        <time>2025-02-06T20:36:52.996Z</time>
      </trkpt>
      <trkpt lat="58.353048926219344" lon="12.422339916229248">
        <ele>70.31</ele>
        <time>2025-02-06T20:37:21.666Z</time>
      </trkpt>
      <trkpt lat="58.35312997922301" lon="12.422436978667974">
        <ele>70.43</ele>
        <time>2025-02-06T20:37:50.338Z</time>
      </trkpt>
      <trkpt lat="58.35320994257927" lon="12.422526916489005">
        <ele>70.55</ele>
        <time>2025-02-06T20:38:19.011Z</time>
      </trkpt>
      <trkpt lat="58.35328898392618" lon="12.422610986977816">
        <ele>70.68</ele>
        <time>2025-02-06T20:38:47.685Z</time>
      </trkpt>
      <trkpt lat="58.35336693562567" lon="12.42268592119217">
        <ele>70.8</ele>
        <time>2025-02-06T20:39:16.361Z</time>
      </trkpt>
      <trkpt lat="58.3534449711442" lon="12.422751970589161">
        <ele>70.93</ele>
        <time>2025-02-06T20:39:45.038Z</time>
      </trkpt>
      <trkpt lat="58.353520995005965" lon="12.42281491868198">
        <ele>71.06</ele>
        <time>2025-02-06T20:40:13.717Z</time>
      </trkpt>
      <trkpt lat="58.35359592922032" lon="12.422873927280307">
        <ele>71.19</ele>
        <time>2025-02-06T20:40:42.397Z</time>
      </trkpt>
      <trkpt lat="58.35366792976856" lon="12.422930924221873">
        <ele>71.32</ele>
        <time>2025-02-06T20:41:11.078Z</time>
      </trkpt>
      <trkpt lat="58.353734984993935" lon="12.42298892699182">
        <ele>71.45</ele>
        <time>2025-02-06T20:41:39.760Z</time>
      </trkpt>
      <trkpt lat="58.353800950571895" lon="12.423047935590148">
        <ele>71.59</ele>
        <time>2025-02-06T20:42:08.443Z</time>
      </trkpt>
      <trkpt lat="58.353862976655364" lon="12.423108955845237">
        <ele>71.72</ele>
        <time>2025-02-06T20:42:37.128Z</time>
      </trkpt>
      <trkpt lat="58.35392198525369" lon="12.423173999413848">
        <ele>71.86</ele>
        <time>2025-02-06T20:43:05.814Z</time>
      </trkpt>
      <trkpt lat="58.3539769705385" lon="12.423240970820189">
        <ele>72.0</ele>
        <time>2025-02-06T20:43:34.501Z</time>
      </trkpt>
      <trkpt lat="58.35402793250978" lon="12.42331095971167">
        <ele>72.15</ele>
        <time>2025-02-06T20:44:03.189Z</time>
      </trkpt>
      <trkpt lat="58.35407495498657" lon="12.423387989401817">
        <ele>72.28</ele>
        <time>2025-02-06T20:44:31.878Z</time>
      </trkpt>
      <trkpt lat="58.35411694832146" lon="12.423467952758074">
        <ele>72.42</ele>
        <time>2025-02-06T20:45:00.568Z</time>
      </trkpt>
      <trkpt lat="58.35415592417121" lon="12.423552945256233">
        <ele>72.56</ele>
        <time>2025-02-06T20:45:29.259Z</time>
      </trkpt>
      <trkpt lat="58.354190960526466" lon="12.423637937754393">
        <ele>72.7</ele>
        <time>2025-02-06T20:45:57.951Z</time>
      </trkpt>
      <trkpt lat="58.3542219735682" lon="12.423724941909313">
        <ele>72.84</ele>
        <time>2025-02-06T20:46:26.643Z</time>
      </trkpt>
      <trkpt lat="58.35424896329641" lon="12.423813957720995">
        <ele>72.98</ele>
        <time>2025-02-06T20:46:55.336Z</time>
      </trkpt>
      <trkpt lat="58.3542719297111" lon="12.423904985189438">
        <ele>73.12</ele>
        <time>2025-02-06T20:47:24.030Z</time>
      </trkpt>
      <trkpt lat="58.354293974116445" lon="12.42399693466723">
        <ele>73.26</ele>
        <time>2025-02-06T20:47:52.725Z</time>
      </trkpt>
      <trkpt lat="58.35431492887437" lon="12.424092991277575">
        <ele>73.4</ele>
        <time>2025-02-06T20:48:21.421Z</time>
      </trkpt>
      <trkpt lat="58.35433395579457" lon="12.424192987382412">
        <ele>73.54</ele>
        <time>2025-02-06T20:48:50.118Z</time>
      </trkpt>
      <trkpt lat="58.35435097105801" lon="12.4242989346385">
        <ele>73.68</ele>
        <time>2025-02-06T20:49:18.816Z</time>
      </trkpt>
      <trkpt lat="58.35436496883631" lon="12.424409994855523">
        <ele>73.82</ele>
        <time>2025-02-06T20:49:47.515Z</time>
      </trkpt>
      <trkpt lat="58.354378966614604" lon="12.424526922404766">
        <ele>73.95</ele>
        <time>2025-02-06T20:50:16.215Z</time>
      </trkpt>
      <trkpt lat="58.35438994690776" lon="12.424647957086563">
        <ele>74.08</ele>
        <time>2025-02-06T20:50:44.916Z</time>
      </trkpt>
      <trkpt lat="58.35440092720091" lon="12.424773937091231">
        <ele>74.21</ele>
        <time>2025-02-06T20:51:13.618Z</time>
      </trkpt>
      <trkpt lat="58.35441098548472" lon="12.424902934581041">
        <ele>74.36</ele>
        <time>2025-02-06T20:51:42.321Z</time>
      </trkpt>
      <trkpt lat="58.35441995412111" lon="12.425032937899232">
        <ele>74.49</ele>
        <time>2025-02-06T20:52:11.025Z</time>
      </trkpt>
      <trkpt lat="58.35442992858589" lon="12.425165958702564">
        <ele>74.63</ele>
        <time>2025-02-06T20:52:39.730Z</time>
      </trkpt>
      <trkpt lat="58.35443898104131" lon="12.425299985334277">
        <ele>74.76</ele>
        <time>2025-02-06T20:53:08.436Z</time>
      </trkpt>
      <trkpt lat="58.35444996133447" lon="12.42543593980372">
        <ele>74.89</ele>
        <time>2025-02-06T20:53:37.143Z</time>
      </trkpt>
      <trkpt lat="58.35446094162762" lon="12.425571978092194">
        <ele>75.03</ele>
        <time>2025-02-06T20:54:05.852Z</time>
      </trkpt>
      <trkpt lat="58.354471921920776" lon="12.425708938390017">
        <ele>75.16</ele>
        <time>2025-02-06T20:54:34.562Z</time>
      </trkpt>
      <trkpt lat="58.354484997689724" lon="12.425845982506871">
        <ele>75.29</ele>
        <time>2025-02-06T20:55:03.273Z</time>
      </trkpt>
      <trkpt lat="58.35449899546802" lon="12.425981936976314">
        <ele>75.42</ele>
        <time>2025-02-06T20:55:31.985Z</time>
      </trkpt>
      <trkpt lat="58.354514921084046" lon="12.426117975264788">
        <ele>75.56</ele>
        <time>2025-02-06T20:56:00.698Z</time>
      </trkpt>
      <trkpt lat="58.354531936347485" lon="12.42625292390585">
        <ele>75.69</ele>
        <time>2025-02-06T20:56:29.412Z</time>
      </trkpt>
      <trkpt lat="58.3545499574393" lon="12.426384938880801">
        <ele>75.82</ele>
        <time>2025-02-06T20:56:58.128Z</time>
      </trkpt>
      <trkpt lat="58.35456797853112" lon="12.426515948027372">
        <ele>75.96</ele>
        <time>2025-02-06T20:57:26.845Z</time>
      </trkpt>
      <trkpt lat="58.35458599962294" lon="12.426645951345563">
        <ele>76.09</ele>
        <time>2025-02-06T20:57:55.563Z</time>
      </trkpt>
      <trkpt lat="58.35460293106735" lon="12.426772937178612">
        <ele>76.22</ele>
        <time>2025-02-06T20:58:24.282Z</time>
      </trkpt>
      <trkpt lat="58.354619946330786" lon="12.426897995173931">
        <ele>76.36</ele>
        <time>2025-02-06T20:58:53.002Z</time>
      </trkpt>
      <trkpt lat="58.354636961594224" lon="12.427021963521838">
        <ele>76.49</ele>
        <time>2025-02-06T20:59:21.723Z</time>
      </trkpt>
      <trkpt lat="58.35465397685766" lon="12.427142998203635">
        <ele>76.63</ele>
        <time>2025-02-06T20:59:50.445Z</time>
      </trkpt>
      <trkpt lat="58.3546709921211" lon="12.42726193740964">
        <ele>76.76</ele>
        <time>2025-02-06T21:00:19.168Z</time>
      </trkpt>
      <trkpt lat="58.35468892939389" lon="12.427377942949533">
        <ele>76.89</ele>
        <time>2025-02-06T21:00:47.892Z</time>
      </trkpt>
      <trkpt lat="58.35470896214247" lon="12.427490931004286">
        <ele>77.02</ele>
        <time>2025-02-06T21:01:16.617Z</time>
      </trkpt>
      <trkpt lat="58.35472899489105" lon="12.427601991221309">
        <ele>77.15</ele>
        <time>2025-02-06T21:01:45.343Z</time>
      </trkpt>
      <trkpt lat="58.35475196130574" lon="12.42771397344768">
        <ele>77.28</ele>
        <time>2025-02-06T21:02:14.070Z</time>
      </trkpt>
      <trkpt lat="58.35477593354881" lon="12.427824949845672">
        <ele>77.41</ele>
        <time>2025-02-06T21:02:42.798Z</time>
      </trkpt>
      <trkpt lat="58.35480191744864" lon="12.427934920415282">
        <ele>77.54</ele>
        <time>2025-02-06T21:03:11.527Z</time>
      </trkpt>
      <trkpt lat="58.35483091883361" lon="12.428044974803925">
        <ele>77.67</ele>
        <time>2025-02-06T21:03:40.257Z</time>
      </trkpt>
      <trkpt lat="58.35486193187535" lon="12.428154945373535">
        <ele>77.8</ele>
        <time>2025-02-06T21:04:08.988Z</time>
      </trkpt>
      <trkpt lat="58.354894956573844" lon="12.428263993933797">
        <ele>77.93</ele>
        <time>2025-02-06T21:04:37.720Z</time>
      </trkpt>
      <trkpt lat="58.35492898710072" lon="12.428371952846646">
        <ele>78.05</ele>
        <time>2025-02-06T21:05:06.454Z</time>
      </trkpt>
      <trkpt lat="58.354962933808565" lon="12.428479995578527">
        <ele>78.17</ele>
        <time>2025-02-06T21:05:35.189Z</time>
      </trkpt>
      <trkpt lat="58.35499797016382" lon="12.428586948662996">
        <ele>78.3</ele>
        <time>2025-02-06T21:06:03.925Z</time>
      </trkpt>
      <trkpt lat="58.35503191687167" lon="12.428694991394877">
        <ele>78.42</ele>
        <time>2025-02-06T21:06:32.662Z</time>
      </trkpt>
      <trkpt lat="58.3550629299134" lon="12.428802950307727">
        <ele>78.54</ele>
        <time>2025-02-06T21:07:01.400Z</time>
      </trkpt>
      <trkpt lat="58.355091931298375" lon="12.428908981382847">
        <ele>78.66</ele>
        <time>2025-02-06T21:07:30.139Z</time>
      </trkpt>
      <trkpt lat="58.35511892102659" lon="12.429014928638935">
        <ele>78.77</ele>
        <time>2025-02-06T21:07:58.879Z</time>
      </trkpt>
      <trkpt lat="58.35514892823994" lon="12.429123977199197">
        <ele>78.88</ele>
        <time>2025-02-06T21:08:27.620Z</time>
      </trkpt>
      <trkpt lat="58.355179941281676" lon="12.429235959425569">
        <ele>78.99</ele>
        <time>2025-02-06T21:08:56.362Z</time>
      </trkpt>
      <trkpt lat="58.35521497763693" lon="12.42934794165194">
        <ele>79.09</ele>
        <time>2025-02-06T21:09:25.105Z</time>
      </trkpt>
      <trkpt lat="58.3552479185164" lon="12.429462941363454">
        <ele>79.19</ele>
        <time>2025-02-06T21:09:53.849Z</time>
      </trkpt>
      <trkpt lat="58.355285972356796" lon="12.429578946903348">
        <ele>79.29</ele>
        <time>2025-02-06T21:10:22.594Z</time>
      </trkpt>
      <trkpt lat="58.35532394237816" lon="12.429696964100003">
        <ele>79.39</ele>
        <time>2025-02-06T21:10:51.340Z</time>
      </trkpt>
      <trkpt lat="58.35536392405629" lon="12.429814981296659">
        <ele>79.49</ele>
        <time>2025-02-06T21:11:20.088Z</time>
      </trkpt>
      <trkpt lat="58.35540197789669" lon="12.429938949644566">
        <ele>79.59</ele>
        <time>2025-02-06T21:11:48.837Z</time>
      </trkpt>
      <trkpt lat="58.35543994791806" lon="12.430062917992473">
        <ele>79.68</ele>
        <time>2025-02-06T21:12:17.587Z</time>
      </trkpt>
      <trkpt lat="58.355479929596186" lon="12.430189987644553">
        <ele>79.78</ele>
        <time>2025-02-06T21:12:46.338Z</time>
      </trkpt>
      <trkpt lat="58.355520917102695" lon="12.430316973477602">
        <ele>79.88</ele>
        <time>2025-02-06T21:13:15.091Z</time>
      </trkpt>
      <trkpt lat="58.355559976771474" lon="12.430446976795793">
        <ele>79.97</ele>
        <time>2025-02-06T21:13:43.845Z</time>
      </trkpt>
      <trkpt lat="58.3555949293077" lon="12.430579997599125">
        <ele>80.05</ele>
        <time>2025-02-06T21:14:12.600Z</time>
      </trkpt>
      <trkpt lat="58.355629965662956" lon="12.43071997538209">
        <ele>80.13</ele>
        <time>2025-02-06T21:14:41.356Z</time>
      </trkpt>
      <trkpt lat="58.355668941512704" lon="12.430857941508293">
        <ele>80.22</ele>
        <time>2025-02-06T21:15:10.114Z</time>
      </trkpt>
      <trkpt lat="58.35570892319083" lon="12.430995991453528">
        <ele>80.29</ele>
        <time>2025-02-06T21:15:38.873Z</time>
      </trkpt>
      <trkpt lat="58.35575292818248" lon="12.431132951751351">
        <ele>80.37</ele>
        <time>2025-02-06T21:16:07.633Z</time>
      </trkpt>
      <trkpt lat="58.35579399950802" lon="12.431270917877555">
        <ele>80.43</ele>
        <time>2025-02-06T21:16:36.395Z</time>
      </trkpt>
      <trkpt lat="58.35582995787263" lon="12.43140997365117">
        <ele>80.5</ele>
        <time>2025-02-06T21:17:05.158Z</time>
      </trkpt>
      <trkpt lat="58.355867927893996" lon="12.431542994454503">
        <ele>80.57</ele>
        <time>2025-02-06T21:17:33.922Z</time>
      </trkpt>
      <trkpt lat="58.355907993391156" lon="12.431677943095565">
        <ele>80.64</ele>
        <time>2025-02-06T21:18:02.688Z</time>
      </trkpt>
      <trkpt lat="58.355950992554426" lon="12.431805934756994">
        <ele>80.71</ele>
        <time>2025-02-06T21:18:31.455Z</time>
      </trkpt>
      <trkpt lat="58.35599499754608" lon="12.43192495778203">
        <ele>80.78</ele>
        <time>2025-02-06T21:19:00.223Z</time>
      </trkpt>
      <trkpt lat="58.35604093037546" lon="12.43203199468553">
        <ele>80.84</ele>
        <time>2025-02-06T21:19:28.992Z</time>
      </trkpt>
      <trkpt lat="58.35608594119549" lon="12.432133918628097">
        <ele>80.91</ele>
        <time>2025-02-06T21:19:57.762Z</time>
      </trkpt>
      <trkpt lat="58.35612994618714" lon="12.432231986895204">
        <ele>80.98</ele>
        <time>2025-02-06T21:20:26.533Z</time>
      </trkpt>
      <trkpt lat="58.35617495700717" lon="12.432325948029757">
        <ele>81.04</ele>
        <time>2025-02-06T21:20:55.306Z</time>
      </trkpt>
      <trkpt lat="58.35622298531234" lon="12.432409934699535">
        <ele>81.11</ele>
        <time>2025-02-06T21:21:24.080Z</time>
      </trkpt>
      <trkpt lat="58.356271935626864" lon="12.432487970218062">
        <ele>81.17</ele>
        <time>2025-02-06T21:21:52.855Z</time>
      </trkpt>
      <trkpt lat="58.35631895810366" lon="12.432564999908209">
        <ele>81.23</ele>
        <time>2025-02-06T21:22:21.631Z</time>
      </trkpt>
      <trkpt lat="58.35636497475207" lon="12.432643957436085">
        <ele>81.29</ele>
        <time>2025-02-06T21:22:50.408Z</time>
      </trkpt>
      <trkpt lat="58.35641291923821" lon="12.432723920792341">
        <ele>81.35</ele>
        <time>2025-02-06T21:23:19.186Z</time>
      </trkpt>
      <trkpt lat="58.356459941715" lon="12.432806985452771">
        <ele>81.4</ele>
        <time>2025-02-06T21:23:47.965Z</time>
      </trkpt>
      <trkpt lat="58.356507970020175" lon="12.432892983779311">
        <ele>81.45</ele>
        <time>2025-02-06T21:24:16.745Z</time>
      </trkpt>
      <trkpt lat="58.35655792616308" lon="12.432983927428722">
        <ele>81.5</ele>
        <time>2025-02-06T21:24:45.526Z</time>
      </trkpt>
      <trkpt lat="58.35660897195339" lon="12.433078978210688">
        <ele>81.56</ele>
        <time>2025-02-06T21:25:14.308Z</time>
      </trkpt>
      <trkpt lat="58.356661945581436" lon="12.433177968487144">
        <ele>81.61</ele>
        <time>2025-02-06T21:25:43.091Z</time>
      </trkpt>
      <trkpt lat="58.35671592503786" lon="12.433282993733883">
        <ele>81.66</ele>
        <time>2025-02-06T21:26:11.875Z</time>
      </trkpt>
      <trkpt lat="58.35676898248494" lon="12.433397993445396">
        <ele>81.71</ele>
        <time>2025-02-06T21:26:40.661Z</time>
      </trkpt>
      <trkpt lat="58.35681994445622" lon="12.433522967621684">
        <ele>81.76</ele>
        <time>2025-02-06T21:27:09.448Z</time>
      </trkpt>
      <trkpt lat="58.356869984418154" lon="12.433657916262746">
        <ele>81.81</ele>
        <time>2025-02-06T21:27:38.236Z</time>
      </trkpt>
      <trkpt lat="58.356916923075914" lon="12.433801917359233">
        <ele>81.86</ele>
        <time>2025-02-06T21:28:07.026Z</time>
      </trkpt>
      <trkpt lat="58.35696495138109" lon="12.433955976739526">
        <ele>81.91</ele>
        <time>2025-02-06T21:28:35.817Z</time>
      </trkpt>
      <trkpt lat="58.35700895637274" lon="12.434117998927832">
        <ele>81.95</ele>
        <time>2025-02-06T21:29:04.610Z</time>
      </trkpt>
      <trkpt lat="58.357046926394105" lon="12.434284966439009">
        <ele>81.99</ele>
        <time>2025-02-06T21:29:33.404Z</time>
      </trkpt>
      <trkpt lat="58.35707894526422" lon="12.434456963092089">
        <ele>82.03</ele>
        <time>2025-02-06T21:30:02.200Z</time>
      </trkpt>
      <trkpt lat="58.35710694082081" lon="12.43463097140193">
        <ele>82.06</ele>
        <time>2025-02-06T21:30:30.997Z</time>
      </trkpt>
      <trkpt lat="58.357132924720645" lon="12.43480296805501">
        <ele>82.1</ele>
        <time>2025-02-06T21:30:59.796Z</time>
      </trkpt>
      <trkpt lat="58.357153963297606" lon="12.434976976364851">
        <ele>82.14</ele>
        <time>2025-02-06T21:31:28.596Z</time>
      </trkpt>
      <trkpt lat="58.357171984389424" lon="12.435149978846312">
        <ele>82.18</ele>
        <time>2025-02-06T21:31:57.398Z</time>
      </trkpt>
      <trkpt lat="58.35718799382448" lon="12.435323987156153">
        <ele>82.22</ele>
        <time>2025-02-06T21:32:26.201Z</time>
      </trkpt>
      <trkpt lat="58.35720391944051" lon="12.435497995465994">
        <ele>82.26</ele>
        <time>2025-02-06T21:32:55.006Z</time>
      </trkpt>
      <trkpt lat="58.357219928875566" lon="12.435674937441945">
        <ele>82.29</ele>
        <time>2025-02-06T21:33:23.812Z</time>
      </trkpt>
      <trkpt lat="58.357236944139004" lon="12.435852969065309">
        <ele>82.31</ele>
        <time>2025-02-06T21:33:52.620Z</time>
      </trkpt>
      <trkpt lat="58.357257982715964" lon="12.43603091686964">
        <ele>82.34</ele>
        <time>2025-02-06T21:34:21.430Z</time>
      </trkpt>
      <trkpt lat="58.357282960787416" lon="12.436206936836243">
        <ele>82.37</ele>
        <time>2025-02-06T21:34:50.241Z</time>
      </trkpt>
      <trkpt lat="58.35731296800077" lon="12.436380945146084">
        <ele>82.4</ele>
        <time>2025-02-06T21:35:19.054Z</time>
      </trkpt>
      <trkpt lat="58.357348926365376" lon="12.436549924314022">
        <ele>82.43</ele>
        <time>2025-02-06T21:35:47.868Z</time>
      </trkpt>
      <trkpt lat="58.357388991862535" lon="12.436713958159089">
        <ele>82.47</ele>
        <time>2025-02-06T21:36:16.684Z</time>
      </trkpt>
      <trkpt lat="58.357434924691916" lon="12.436870951205492">
        <ele>82.5</ele>
        <time>2025-02-06T21:36:45.501Z</time>
      </trkpt>
      <trkpt lat="58.35748697631061" lon="12.437019981443882">
        <ele>82.53</ele>
        <time>2025-02-06T21:37:14.320Z</time>
      </trkpt>
      <trkpt lat="58.357541961595416" lon="12.437161970883608">
        <ele>82.56</ele>
        <time>2025-02-06T21:37:43.140Z</time>
      </trkpt>
      <trkpt lat="58.357600970193744" lon="12.437299937009811">
        <ele>82.59</ele>
        <time>2025-02-06T21:38:11.962Z</time>
      </trkpt>
      <trkpt lat="58.35766098462045" lon="12.437432957813144">
        <ele>82.62</ele>
        <time>2025-02-06T21:38:40.785Z</time>
      </trkpt>
      <trkpt lat="58.35771999321878" lon="12.437562961131334">
        <ele>82.65</ele>
        <time>2025-02-06T21:39:09.610Z</time>
      </trkpt>
      <trkpt lat="58.357776990160346" lon="12.437687935307622">
        <ele>82.68</ele>
        <time>2025-02-06T21:39:38.436Z</time>
      </trkpt>
      <trkpt lat="58.35783197544515" lon="12.437807964161038">
        <ele>82.7</ele>
        <time>2025-02-06T21:40:07.263Z</time>
      </trkpt>
      <trkpt lat="58.357882937416434" lon="12.437924975529313">
        <ele>82.74</ele>
        <time>2025-02-06T21:40:36.092Z</time>
      </trkpt>
      <trkpt lat="58.35793096572161" lon="12.438040981069207">
        <ele>82.76</ele>
        <time>2025-02-06T21:41:04.922Z</time>
      </trkpt>
      <trkpt lat="58.35797698237002" lon="12.43815598078072">
        <ele>82.79</ele>
        <time>2025-02-06T21:41:33.753Z</time>
      </trkpt>
      <trkpt lat="58.35801796987653" lon="12.438272992148995">
        <ele>82.82</ele>
        <time>2025-02-06T21:42:02.585Z</time>
      </trkpt>
      <trkpt lat="58.358054934069514" lon="12.438391931355">
        <ele>82.84</ele>
        <time>2025-02-06T21:42:31.418Z</time>
      </trkpt>
      <trkpt lat="58.35808292962611" lon="12.438511960208416">
        <ele>82.85</ele>
        <time>2025-02-06T21:43:00.253Z</time>
      </trkpt>
      <trkpt lat="58.35810991935432" lon="12.438629977405071">
        <ele>82.86</ele>
        <time>2025-02-06T21:43:29.089Z</time>
      </trkpt>
      <trkpt lat="58.35813397541642" lon="12.438745982944965">
        <ele>82.88</ele>
        <time>2025-02-06T21:43:57.926Z</time>
      </trkpt>
      <trkpt lat="58.35815593600273" lon="12.438859976828098">
        <ele>82.89</ele>
        <time>2025-02-06T21:44:26.764Z</time>
      </trkpt>
      <trkpt lat="58.35817596875131" lon="12.43897195905447">
        <ele>82.89</ele>
        <time>2025-02-06T21:44:55.603Z</time>
      </trkpt>
      <trkpt lat="58.35819591768086" lon="12.439082935452461">
        <ele>82.89</ele>
        <time>2025-02-06T21:45:24.443Z</time>
      </trkpt>
      <trkpt lat="58.3582179620862" lon="12.439192989841104">
        <ele>82.9</ele>
        <time>2025-02-06T21:45:53.284Z</time>
      </trkpt>
      <trkpt lat="58.35823891684413" lon="12.439302960410714">
        <ele>82.91</ele>
        <time>2025-02-06T21:46:22.126Z</time>
      </trkpt>
      <trkpt lat="58.35825995542109" lon="12.439412930980325">
        <ele>82.92</ele>
        <time>2025-02-06T21:46:50.969Z</time>
      </trkpt>
      <trkpt lat="58.35828099399805" lon="12.439520973712206">
        <ele>82.92</ele>
        <time>2025-02-06T21:47:19.813Z</time>
      </trkpt>
      <trkpt lat="58.35829993709922" lon="12.439631950110197">
        <ele>82.92</ele>
        <time>2025-02-06T21:47:48.658Z</time>
      </trkpt>
      <trkpt lat="58.35832198150456" lon="12.439741920679808">
        <ele>82.93</ele>
        <time>2025-02-06T21:48:17.504Z</time>
      </trkpt>
      <trkpt lat="58.35834394209087" lon="12.439853986725211">
        <ele>82.94</ele>
        <time>2025-02-06T21:48:46.351Z</time>
      </trkpt>
      <trkpt lat="58.35836397483945" lon="12.439970998093486">
        <ele>82.95</ele>
        <time>2025-02-06T21:49:15.199Z</time>
      </trkpt>
      <trkpt lat="58.35838492959738" lon="12.440086919814348">
        <ele>82.95</ele>
        <time>2025-02-06T21:49:44.048Z</time>
      </trkpt>
      <trkpt lat="58.35840395651758" lon="12.440204937011003">
        <ele>82.95</ele>
        <time>2025-02-06T21:50:12.898Z</time>
      </trkpt>
      <trkpt lat="58.358420971781015" lon="12.440320942550898">
        <ele>82.95</ele>
        <time>2025-02-06T21:50:41.749Z</time>
      </trkpt>
      <trkpt lat="58.35843496955931" lon="12.440438959747553">
        <ele>82.95</ele>
        <time>2025-02-06T21:51:10.601Z</time>
      </trkpt>
      <trkpt lat="58.35845097899437" lon="12.44055999442935">
        <ele>82.94</ele>
        <time>2025-02-06T21:51:39.454Z</time>
      </trkpt>
      <trkpt lat="58.35846992209554" lon="12.440680945292115">
        <ele>82.93</ele>
        <time>2025-02-06T21:52:08.308Z</time>
      </trkpt>
      <trkpt lat="58.35848995484412" lon="12.440803991630673">
        <ele>82.92</ele>
        <time>2025-02-06T21:52:37.163Z</time>
      </trkpt>
      <trkpt lat="58.35851292125881" lon="12.44092594832182">
        <ele>82.91</ele>
        <time>2025-02-06T21:53:06.019Z</time>
      </trkpt>
      <trkpt lat="58.35853295400739" lon="12.441046983003616">
        <ele>82.9</ele>
        <time>2025-02-06T21:53:34.876Z</time>
      </trkpt>
      <trkpt lat="58.35855692625046" lon="12.441166928038001">
        <ele>82.89</ele>
        <time>2025-02-06T21:54:03.734Z</time>
      </trkpt>
      <trkpt lat="58.35857997648418" lon="12.441287962719798">
        <ele>82.88</ele>
        <time>2025-02-06T21:54:32.593Z</time>
      </trkpt>
      <trkpt lat="58.35860294289887" lon="12.441408997401595">
        <ele>82.88</ele>
        <time>2025-02-06T21:55:01.453Z</time>
      </trkpt>
      <trkpt lat="58.35862599313259" lon="12.441531959921122">
        <ele>82.88</ele>
        <time>2025-02-06T21:55:30.314Z</time>
      </trkpt>
      <trkpt lat="58.35864694789052" lon="12.441655928269029">
        <ele>82.88</ele>
        <time>2025-02-06T21:55:59.177Z</time>
      </trkpt>
      <trkpt lat="58.35866798646748" lon="12.441783919930458">
        <ele>82.87</ele>
        <time>2025-02-06T21:56:28.041Z</time>
      </trkpt>
      <trkpt lat="58.35868894122541" lon="12.441912917420268">
        <ele>82.86</ele>
        <time>2025-02-06T21:56:56.906Z</time>
      </trkpt>
      <trkpt lat="58.35871199145913" lon="12.44204199872911">
        <ele>82.85</ele>
        <time>2025-02-06T21:57:25.772Z</time>
      </trkpt>
      <trkpt lat="58.35873495787382" lon="12.44217292405665">
        <ele>82.85</ele>
        <time>2025-02-06T21:57:54.639Z</time>
      </trkpt>
      <trkpt lat="58.35875993594527" lon="12.44230393320322">
        <ele>82.84</ele>
        <time>2025-02-06T21:58:23.507Z</time>
      </trkpt>
      <trkpt lat="58.358782986178994" lon="12.442437959834933">
        <ele>82.82</ele>
        <time>2025-02-06T21:58:52.377Z</time>
      </trkpt>
      <trkpt lat="58.358807964250445" lon="12.442570980638266">
        <ele>82.8</ele>
        <time>2025-02-06T21:59:21.248Z</time>
      </trkpt>
      <trkpt lat="58.35883696563542" lon="12.442702995613217">
        <ele>82.79</ele>
        <time>2025-02-06T21:59:50.120Z</time>
      </trkpt>
      <trkpt lat="58.358872924000025" lon="12.442831993103027">
        <ele>82.78</ele>
        <time>2025-02-06T22:00:18.993Z</time>
      </trkpt>
      <trkpt lat="58.3589069545269" lon="12.442962918430567">
        <ele>82.77</ele>
        <time>2025-02-06T22:00:47.867Z</time>
      </trkpt>
      <trkpt lat="58.358935955911875" lon="12.4430959392339">
        <ele>82.75</ele>
        <time>2025-02-06T22:01:16.743Z</time>
      </trkpt>
      <trkpt lat="58.35896495729685" lon="12.443229965865612">
        <ele>82.74</ele>
        <time>2025-02-06T22:01:45.620Z</time>
      </trkpt>
      <trkpt lat="58.358997981995344" lon="12.443361980840564">
        <ele>82.73</ele>
        <time>2025-02-06T22:02:14.498Z</time>
      </trkpt>
      <trkpt lat="58.35903192870319" lon="12.443492989987135">
        <ele>82.72</ele>
        <time>2025-02-06T22:02:43.377Z</time>
      </trkpt>
      <trkpt lat="58.359062941744924" lon="12.443624921143055">
        <ele>82.71</ele>
        <time>2025-02-06T22:03:12.257Z</time>
      </trkpt>
      <trkpt lat="58.35909496061504" lon="12.443753918632865">
        <ele>82.7</ele>
        <time>2025-02-06T22:03:41.139Z</time>
      </trkpt>
      <trkpt lat="58.35912396200001" lon="12.443883921951056">
        <ele>82.68</ele>
        <time>2025-02-06T22:04:10.022Z</time>
      </trkpt>
      <trkpt lat="58.359151957556605" lon="12.444016942754388">
        <ele>82.67</ele>
        <time>2025-02-06T22:04:38.906Z</time>
      </trkpt>
      <trkpt lat="58.35918598808348" lon="12.444151975214481">
        <ele>82.66</ele>
        <time>2025-02-06T22:05:07.791Z</time>
      </trkpt>
      <trkpt lat="58.359218928962946" lon="12.444293964654207">
        <ele>82.65</ele>
        <time>2025-02-06T22:05:36.678Z</time>
      </trkpt>
      <trkpt lat="58.359261928126216" lon="12.444438971579075">
        <ele>82.65</ele>
        <time>2025-02-06T22:06:05.566Z</time>
      </trkpt>
      <trkpt lat="58.35929495282471" lon="12.444590935483575">
        <ele>82.63</ele>
        <time>2025-02-06T22:06:34.455Z</time>
      </trkpt>
      <trkpt lat="58.359322948381305" lon="12.444747928529978">
        <ele>82.62</ele>
        <time>2025-02-06T22:07:03.346Z</time>
      </trkpt>
      <trkpt lat="58.359347926452756" lon="12.444909950718284">
        <ele>82.6</ele>
        <time>2025-02-06T22:07:32.238Z</time>
      </trkpt>
      <trkpt lat="58.359375" lon="12.44507398456335">
        <ele>82.58</ele>
        <time>2025-02-06T22:08:01.132Z</time>
      </trkpt>
      <trkpt lat="58.35939796641469" lon="12.445241957902908">
        <ele>82.56</ele>
        <time>2025-02-06T22:08:30.027Z</time>
      </trkpt>
      <trkpt lat="58.359419927001" lon="12.445410937070847">
        <ele>82.53</ele>
        <time>2025-02-06T22:08:58.924Z</time>
      </trkpt>
      <trkpt lat="58.35944297723472" lon="12.445579916238785">
        <ele>82.5</ele>
        <time>2025-02-06T22:09:27.822Z</time>
      </trkpt>
      <trkpt lat="58.359472984448075" lon="12.445746967568994">
        <ele>82.47</ele>
        <time>2025-02-06T22:09:56.722Z</time>
      </trkpt>
      <trkpt lat="58.35950299166143" lon="12.44591393508017">
        <ele>82.45</ele>
        <time>2025-02-06T22:10:25.623Z</time>
      </trkpt>
      <trkpt lat="58.35953392088413" lon="12.446079980581999">
        <ele>82.43</ele>
        <time>2025-02-06T22:10:54.526Z</time>
      </trkpt>
      <trkpt lat="58.35956392809749" lon="12.446245942264795">
        <ele>82.41</ele>
        <time>2025-02-06T22:11:23.430Z</time>
      </trkpt>
      <trkpt lat="58.35959695279598" lon="12.446409976109862">
        <ele>82.39</ele>
        <time>2025-02-06T22:11:52.336Z</time>
      </trkpt>
      <trkpt lat="58.35962997749448" lon="12.446569986641407">
        <ele>82.36</ele>
        <time>2025-02-06T22:12:21.243Z</time>
      </trkpt>
      <trkpt lat="58.35966199636459" lon="12.446728991344571">
        <ele>82.34</ele>
        <time>2025-02-06T22:12:50.151Z</time>
      </trkpt>
      <trkpt lat="58.3596929255873" lon="12.446885984390974">
        <ele>82.31</ele>
        <time>2025-02-06T22:13:19.061Z</time>
      </trkpt>
      <trkpt lat="58.35972494445741" lon="12.447040965780616">
        <ele>82.3</ele>
        <time>2025-02-06T22:13:47.972Z</time>
      </trkpt>
      <trkpt lat="58.35975998081267" lon="12.447195947170258">
        <ele>82.28</ele>
        <time>2025-02-06T22:14:16.885Z</time>
      </trkpt>
      <trkpt lat="58.35979392752051" lon="12.44735294021666">
        <ele>82.26</ele>
        <time>2025-02-06T22:14:45.799Z</time>
      </trkpt>
      <trkpt lat="58.35982795804739" lon="12.447512950748205">
        <ele>82.24</ele>
        <time>2025-02-06T22:15:14.715Z</time>
      </trkpt>
      <trkpt lat="58.35986299440265" lon="12.447675978764892">
        <ele>82.22</ele>
        <time>2025-02-06T22:15:43.632Z</time>
      </trkpt>
      <trkpt lat="58.35989895276725" lon="12.447837917134166">
        <ele>82.2</ele>
        <time>2025-02-06T22:16:12.551Z</time>
      </trkpt>
      <trkpt lat="58.35993893444538" lon="12.447998933494091">
        <ele>82.18</ele>
        <time>2025-02-06T22:16:41.471Z</time>
      </trkpt>
      <trkpt lat="58.3599759824574" lon="12.448162967339158">
        <ele>82.16</ele>
        <time>2025-02-06T22:17:10.393Z</time>
      </trkpt>
      <trkpt lat="58.360012946650386" lon="12.448328929021955">
        <ele>82.14</ele>
        <time>2025-02-06T22:17:39.316Z</time>
      </trkpt>
      <trkpt lat="58.36005091667175" lon="12.448492962867022">
        <ele>82.12</ele>
        <time>2025-02-06T22:18:08.241Z</time>
      </trkpt>
      <trkpt lat="58.36008897051215" lon="12.448656996712089">
        <ele>82.11</ele>
        <time>2025-02-06T22:18:37.167Z</time>
      </trkpt>
      <trkpt lat="58.3601279463619" lon="12.448820946738124">
        <ele>82.1</ele>
        <time>2025-02-06T22:19:06.095Z</time>
      </trkpt>
      <trkpt lat="58.360159965232015" lon="12.448985986411572">
        <ele>82.09</ele>
        <time>2025-02-06T22:19:35.024Z</time>
      </trkpt>
      <trkpt lat="58.36019298993051" lon="12.449150942265987">
        <ele>82.07</ele>
        <time>2025-02-06T22:20:03.955Z</time>
      </trkpt>
      <trkpt lat="58.3602299541235" lon="12.449313970282674">
        <ele>82.06</ele>
        <time>2025-02-06T22:20:32.887Z</time>
      </trkpt>
      <trkpt lat="58.360265996307135" lon="12.44947892613709">
        <ele>82.05</ele>
        <time>2025-02-06T22:21:01.821Z</time>
      </trkpt>
      <trkpt lat="58.3603039663285" lon="12.449644971638918">
        <ele>82.04</ele>
        <time>2025-02-06T22:21:30.756Z</time>
      </trkpt>
      <trkpt lat="58.36034394800663" lon="12.449812944978476">
        <ele>82.02</ele>
        <time>2025-02-06T22:21:59.693Z</time>
      </trkpt>
      <trkpt lat="58.36038392968476" lon="12.449984941631556">
        <ele>82.01</ele>
        <time>2025-02-06T22:22:28.631Z</time>
      </trkpt>
      <trkpt lat="58.36042491719127" lon="12.450156938284636">
        <ele>81.98</ele>
        <time>2025-02-06T22:22:57.571Z</time>
      </trkpt>
      <trkpt lat="58.36046699434519" lon="12.450329940766096">
        <ele>81.96</ele>
        <time>2025-02-06T22:23:26.512Z</time>
      </trkpt>
      <trkpt lat="58.360506976023316" lon="12.450503949075937">
        <ele>81.94</ele>
        <time>2025-02-06T22:23:55.455Z</time>
      </trkpt>
      <trkpt lat="58.3605439402163" lon="12.450677957385778">
        <ele>81.93</ele>
        <time>2025-02-06T22:24:24.400Z</time>
      </trkpt>
      <trkpt lat="58.3605819940567" lon="12.450848948210478">
        <ele>81.92</ele>
        <time>2025-02-06T22:24:53.346Z</time>
      </trkpt>
      <trkpt lat="58.36062096990645" lon="12.451018933206797">
        <ele>81.91</ele>
        <time>2025-02-06T22:25:22.294Z</time>
      </trkpt>
      <trkpt lat="58.3606599457562" lon="12.451186990365386">
        <ele>81.89</ele>
        <time>2025-02-06T22:25:51.243Z</time>
      </trkpt>
      <trkpt lat="58.360698921605945" lon="12.451351946219802">
        <ele>81.88</ele>
        <time>2025-02-06T22:26:20.194Z</time>
      </trkpt>
      <trkpt lat="58.360737981274724" lon="12.451515980064869">
        <ele>81.87</ele>
        <time>2025-02-06T22:26:49.146Z</time>
      </trkpt>
      <trkpt lat="58.36077595129609" lon="12.451680935919285">
        <ele>81.87</ele>
        <time>2025-02-06T22:27:18.100Z</time>
      </trkpt>
      <trkpt lat="58.36081199347973" lon="12.451844969764352">
        <ele>81.85</ele>
        <time>2025-02-06T22:27:47.055Z</time>
      </trkpt>
      <trkpt lat="58.360847951844335" lon="12.452007997781038">
        <ele>81.84</ele>
        <time>2025-02-06T22:28:16.012Z</time>
      </trkpt>
      <trkpt lat="58.36088793352246" lon="12.452170941978693">
        <ele>81.83</ele>
        <time>2025-02-06T22:28:44.970Z</time>
      </trkpt>
      <trkpt lat="58.36092598736286" lon="12.45233497582376">
        <ele>81.82</ele>
        <time>2025-02-06T22:29:13.930Z</time>
      </trkpt>
      <trkpt lat="58.36096496321261" lon="12.452497920021415">
        <ele>81.82</ele>
        <time>2025-02-06T22:29:42.891Z</time>
      </trkpt>
      <trkpt lat="58.361002933233976" lon="12.452660948038101">
        <ele>81.82</ele>
        <time>2025-02-06T22:30:11.854Z</time>
      </trkpt>
      <trkpt lat="58.361040987074375" lon="12.452820958569646">
        <ele>81.81</ele>
        <time>2025-02-06T22:30:40.818Z</time>
      </trkpt>
      <trkpt lat="58.36107996292412" lon="12.452977951616049">
        <ele>81.81</ele>
        <time>2025-02-06T22:31:09.784Z</time>
      </trkpt>
      <trkpt lat="58.36111793294549" lon="12.45313293300569">
        <ele>81.81</ele>
        <time>2025-02-06T22:31:38.751Z</time>
      </trkpt>
      <trkpt lat="58.36115498095751" lon="12.453287998214364">
        <ele>81.81</ele>
        <time>2025-02-06T22:32:07.720Z</time>
      </trkpt>
      <trkpt lat="58.361191945150495" lon="12.453439962118864">
        <ele>81.81</ele>
        <time>2025-02-06T22:32:36.690Z</time>
      </trkpt>
      <trkpt lat="58.36122999899089" lon="12.453590920194983">
        <ele>81.81</ele>
        <time>2025-02-06T22:33:05.662Z</time>
      </trkpt>
      <trkpt lat="58.36126796901226" lon="12.453738944604993">
        <ele>81.8</ele>
        <time>2025-02-06T22:33:34.635Z</time>
      </trkpt>
      <trkpt lat="58.36130593903363" lon="12.45388395152986">
        <ele>81.81</ele>
        <time>2025-02-06T22:34:03.609Z</time>
      </trkpt>
      <trkpt lat="58.361341981217265" lon="12.454025940969586">
        <ele>81.81</ele>
        <time>2025-02-06T22:34:32.585Z</time>
      </trkpt>
      <trkpt lat="58.36137693375349" lon="12.454164996743202">
        <ele>81.8</ele>
        <time>2025-02-06T22:35:01.562Z</time>
      </trkpt>
      <trkpt lat="58.361409958451986" lon="12.454299945384264">
        <ele>81.8</ele>
        <time>2025-02-06T22:35:30.540Z</time>
      </trkpt>
      <trkpt lat="58.3614419773221" lon="12.454428942874074">
        <ele>81.8</ele>
        <time>2025-02-06T22:35:59.519Z</time>
      </trkpt>
      <trkpt lat="58.361471984535456" lon="12.454555928707123">
        <ele>81.79</ele>
        <time>2025-02-06T22:36:28.500Z</time>
      </trkpt>
      <trkpt lat="58.36149897426367" lon="12.454680986702442">
        <ele>81.78</ele>
        <time>2025-02-06T22:36:57.482Z</time>
      </trkpt>
      <trkpt lat="58.36152395233512" lon="12.45480596087873">
        <ele>81.78</ele>
        <time>2025-02-06T22:37:26.465Z</time>
      </trkpt>
      <trkpt lat="58.36154993623495" lon="12.454928923398256">
        <ele>81.77</ele>
        <time>2025-02-06T22:37:55.449Z</time>
      </trkpt>
      <trkpt lat="58.36157399229705" lon="12.455049958080053">
        <ele>81.77</ele>
        <time>2025-02-06T22:38:24.434Z</time>
      </trkpt>
      <trkpt lat="58.36159494705498" lon="12.45517099276185">
        <ele>81.77</ele>
        <time>2025-02-06T22:38:53.420Z</time>
      </trkpt>
      <trkpt lat="58.36161497980356" lon="12.455292949452996">
        <ele>81.76</ele>
        <time>2025-02-06T22:39:22.407Z</time>
      </trkpt>
      <trkpt lat="58.36163895204663" lon="12.455414989963174">
        <ele>81.77</ele>
        <time>2025-02-06T22:39:51.395Z</time>
      </trkpt>
      <trkpt lat="58.36165999062359" lon="12.455540969967842">
        <ele>81.77</ele>
        <time>2025-02-06T22:40:20.384Z</time>
      </trkpt>
      <trkpt lat="58.36168094538152" lon="12.455671979114413">
        <ele>81.78</ele>
        <time>2025-02-06T22:40:49.375Z</time>
      </trkpt>
      <trkpt lat="58.3617009781301" lon="12.455807933583856">
        <ele>81.79</ele>
        <time>2025-02-06T22:41:18.367Z</time>
      </trkpt>
      <trkpt lat="58.36172293871641" lon="12.455950928851962">
        <ele>81.8</ele>
        <time>2025-02-06T22:41:47.360Z</time>
      </trkpt>
      <trkpt lat="58.36174598895013" lon="12.456098953261971">
        <ele>81.8</ele>
        <time>2025-02-06T22:42:16.354Z</time>
      </trkpt>
      <trkpt lat="58.361772978678346" lon="12.456250917166471">
        <ele>81.8</ele>
        <time>2025-02-06T22:42:45.350Z</time>
      </trkpt>
      <trkpt lat="58.36180198006332" lon="12.456404976546764">
        <ele>81.81</ele>
        <time>2025-02-06T22:43:14.347Z</time>
      </trkpt>
      <trkpt lat="58.36182796396315" lon="12.456562975421548">
        <ele>81.82</ele>
        <time>2025-02-06T22:43:43.345Z</time>
      </trkpt>
      <trkpt lat="58.361858977004886" lon="12.456721980124712">
        <ele>81.83</ele>
        <time>2025-02-06T22:44:12.345Z</time>
      </trkpt>
      <trkpt lat="58.36188898421824" lon="12.456882996484637">
        <ele>81.83</ele>
        <time>2025-02-06T22:44:41.346Z</time>
      </trkpt>
      <trkpt lat="58.36191496811807" lon="12.457048958167434">
        <ele>81.82</ele>
        <time>2025-02-06T22:45:10.349Z</time>
      </trkpt>
      <trkpt lat="58.361941957846284" lon="12.457216931506991">
        <ele>81.82</ele>
        <time>2025-02-06T22:45:39.353Z</time>
      </trkpt>
      <trkpt lat="58.36197095923126" lon="12.457385994493961">
        <ele>81.82</ele>
        <time>2025-02-06T22:46:08.359Z</time>
      </trkpt>
      <trkpt lat="58.362004989758134" lon="12.45755597949028">
        <ele>81.81</ele>
        <time>2025-02-06T22:46:37.366Z</time>
      </trkpt>
      <trkpt lat="58.36204497143626" lon="12.457724958658218">
        <ele>81.81</ele>
        <time>2025-02-06T22:47:06.375Z</time>
      </trkpt>
      <trkpt lat="58.36208897642791" lon="12.457891926169395">
        <ele>81.81</ele>
        <time>2025-02-06T22:47:35.385Z</time>
      </trkpt>
      <trkpt lat="58.362134993076324" lon="12.458057971671224">
        <ele>81.81</ele>
        <time>2025-02-06T22:48:04.397Z</time>
      </trkpt>
      <trkpt lat="58.362181931734085" lon="12.45822292752564">
        <ele>81.8</ele>
        <time>2025-02-06T22:48:33.411Z</time>
      </trkpt>
      <trkpt lat="58.36222996003926" lon="12.458386961370707">
        <ele>81.8</ele>
        <time>2025-02-06T22:49:02.426Z</time>
      </trkpt>
      <trkpt lat="58.36227698251605" lon="12.458548983559012">
        <ele>81.81</ele>
        <time>2025-02-06T22:49:31.443Z</time>
      </trkpt>
      <trkpt lat="58.36232199333608" lon="12.458709999918938">
        <ele>81.82</ele>
        <time>2025-02-06T22:50:00.461Z</time>
      </trkpt>
      <trkpt lat="58.36236096918583" lon="12.458870932459831">
        <ele>81.82</ele>
        <time>2025-02-06T22:50:29.481Z</time>
      </trkpt>
      <trkpt lat="58.362398939207196" lon="12.459030942991376">
        <ele>81.8</ele>
        <time>2025-02-06T22:50:58.502Z</time>
      </trkpt>
      <trkpt lat="58.36243296973407" lon="12.459192965179682">
        <ele>81.79</ele>
        <time>2025-02-06T22:51:27.525Z</time>
      </trkpt>
      <trkpt lat="58.36246498860419" lon="12.459354987367988">
        <ele>81.78</ele>
        <time>2025-02-06T22:51:56.549Z</time>
      </trkpt>
      <trkpt lat="58.36249792948365" lon="12.459516925737262">
        <ele>81.77</ele>
        <time>2025-02-06T22:52:25.575Z</time>
      </trkpt>
      <trkpt lat="58.36253095418215" lon="12.459678947925568">
        <ele>81.77</ele>
        <time>2025-02-06T22:52:54.602Z</time>
      </trkpt>
      <trkpt lat="58.36256196722388" lon="12.459843987599015">
        <ele>81.76</ele>
        <time>2025-02-06T22:53:23.631Z</time>
      </trkpt>
      <trkpt lat="58.36259197443724" lon="12.460010955110192">
        <ele>81.76</ele>
        <time>2025-02-06T22:53:52.661Z</time>
      </trkpt>
      <trkpt lat="58.36262298747897" lon="12.46017993427813">
        <ele>81.76</ele>
        <time>2025-02-06T22:54:21.693Z</time>
      </trkpt>
      <trkpt lat="58.362652994692326" lon="12.4603489972651">
        <ele>81.76</ele>
        <time>2025-02-06T22:54:50.726Z</time>
      </trkpt>
      <trkpt lat="58.36268392391503" lon="12.4605199880898">
        <ele>81.75</ele>
        <time>2025-02-06T22:55:19.761Z</time>
      </trkpt>
      <trkpt lat="58.362716948613524" lon="12.4606909789145">
        <ele>81.74</ele>
        <time>2025-02-06T22:55:48.797Z</time>
      </trkpt>
      <trkpt lat="58.36274796165526" lon="12.46086297556758">
        <ele>81.73</ele>
        <time>2025-02-06T22:56:17.835Z</time>
      </trkpt>
      <trkpt lat="58.362779980525374" lon="12.46103597804904">
        <ele>81.73</ele>
        <time>2025-02-06T22:56:46.874Z</time>
      </trkpt>
      <trkpt lat="58.36281099356711" lon="12.4612089805305">
        <ele>81.72</ele>
        <time>2025-02-06T22:57:15.915Z</time>
      </trkpt>
      <trkpt lat="58.36284393444657" lon="12.461381983011961">
        <ele>81.72</ele>
        <time>2025-02-06T22:57:44.957Z</time>
      </trkpt>
      <trkpt lat="58.36287695914507" lon="12.461554985493422">
        <ele>81.71</ele>
        <time>2025-02-06T22:58:14.001Z</time>
      </trkpt>
      <trkpt lat="58.362910989671946" lon="12.461725976318121">
        <ele>81.71</ele>
        <time>2025-02-06T22:58:43.046Z</time>
      </trkpt>
      <trkpt lat="58.36294694803655" lon="12.461892943829298">
        <ele>81.7</ele>
        <time>2025-02-06T22:59:12.093Z</time>
      </trkpt>
      <trkpt lat="58.36298399604857" lon="12.462055971845984">
        <ele>81.7</ele>
        <time>2025-02-06T22:59:41.141Z</time>
      </trkpt>
      <trkpt lat="58.363020960241556" lon="12.462213970720768">
        <ele>81.69</ele>
        <time>2025-02-06T23:00:10.191Z</time>
      </trkpt>
      <trkpt lat="58.36305792443454" lon="12.462363922968507">
        <ele>81.68</ele>
        <time>2025-02-06T23:00:39.242Z</time>
      </trkpt>
      <trkpt lat="58.36309396661818" lon="12.462507924064994">
        <ele>81.68</ele>
        <time>2025-02-06T23:01:08.295Z</time>
      </trkpt>
      <trkpt lat="58.363128919154406" lon="12.462645974010229">
        <ele>81.67</ele>
        <time>2025-02-06T23:01:37.349Z</time>
      </trkpt>
      <trkpt lat="58.36316496133804" lon="12.462778994813561">
        <ele>81.66</ele>
        <time>2025-02-06T23:02:06.404Z</time>
      </trkpt>
      <trkpt lat="58.36320293135941" lon="12.46290698647499">
        <ele>81.65</ele>
        <time>2025-02-06T23:02:35.460Z</time>
      </trkpt>
      <trkpt lat="58.36323997937143" lon="12.46303397230804">
        <ele>81.64</ele>
        <time>2025-02-06T23:03:04.518Z</time>
      </trkpt>
      <trkpt lat="58.363278955221176" lon="12.463158946484327">
        <ele>81.62</ele>
        <time>2025-02-06T23:03:33.577Z</time>
      </trkpt>
      <trkpt lat="58.363318936899304" lon="12.463283920660615">
        <ele>81.61</ele>
        <time>2025-02-06T23:04:02.637Z</time>
      </trkpt>
      <trkpt lat="58.36335992440581" lon="12.463409984484315">
        <ele>81.6</ele>
        <time>2025-02-06T23:04:31.698Z</time>
      </trkpt>
      <trkpt lat="58.36340292356908" lon="12.463537976145744">
        <ele>81.6</ele>
        <time>2025-02-06T23:05:00.761Z</time>
      </trkpt>
      <trkpt lat="58.363443994894624" lon="12.463665967807174">
        <ele>81.59</ele>
        <time>2025-02-06T23:05:29.825Z</time>
      </trkpt>
      <trkpt lat="58.36348498240113" lon="12.463795971125364">
        <ele>81.57</ele>
        <time>2025-02-06T23:05:58.890Z</time>
      </trkpt>
      <trkpt lat="58.3635229524225" lon="12.463927986100316">
        <ele>81.56</ele>
        <time>2025-02-06T23:06:27.956Z</time>
      </trkpt>
      <trkpt lat="58.36356293410063" lon="12.464060923084617">
        <ele>81.55</ele>
        <time>2025-02-06T23:06:57.024Z</time>
      </trkpt>
      <trkpt lat="58.36360299959779" lon="12.464191932231188">
        <ele>81.53</ele>
        <time>2025-02-06T23:07:26.093Z</time>
      </trkpt>
      <trkpt lat="58.363642981275916" lon="12.46432394720614">
        <ele>81.51</ele>
        <time>2025-02-06T23:07:55.163Z</time>
      </trkpt>
      <trkpt lat="58.36368095129728" lon="12.464456968009472">
        <ele>81.48</ele>
        <time>2025-02-06T23:08:24.234Z</time>
      </trkpt>
      <trkpt lat="58.36372193880379" lon="12.464589988812804">
        <ele>81.46</ele>
        <time>2025-02-06T23:08:53.307Z</time>
      </trkpt>
      <trkpt lat="58.3637629263103" lon="12.464722925797105">
        <ele>81.43</ele>
        <time>2025-02-06T23:09:22.381Z</time>
      </trkpt>
      <trkpt lat="58.36380399763584" lon="12.464855946600437">
        <ele>81.4</ele>
        <time>2025-02-06T23:09:51.456Z</time>
      </trkpt>
      <trkpt lat="58.36384297348559" lon="12.46498896740377">
        <ele>81.36</ele>
        <time>2025-02-06T23:10:20.533Z</time>
      </trkpt>
      <trkpt lat="58.363879937678576" lon="12.465121988207102">
        <ele>81.32</ele>
        <time>2025-02-06T23:10:49.611Z</time>
      </trkpt>
      <trkpt lat="58.363917991518974" lon="12.465252997353673">
        <ele>81.27</ele>
        <time>2025-02-06T23:11:18.690Z</time>
      </trkpt>
      <trkpt lat="58.36395394988358" lon="12.465381994843483">
        <ele>81.21</ele>
        <time>2025-02-06T23:11:47.770Z</time>
      </trkpt>
      <trkpt lat="58.363984962925315" lon="12.465507974848151">
        <ele>81.16</ele>
        <time>2025-02-06T23:12:16.852Z</time>
      </trkpt>
      <trkpt lat="58.36401396431029" lon="12.465628925710917">
        <ele>81.1</ele>
        <time>2025-02-06T23:12:45.935Z</time>
      </trkpt>
      <trkpt lat="58.36403793655336" lon="12.46574493125081">
        <ele>81.04</ele>
        <time>2025-02-06T23:13:15.019Z</time>
      </trkpt>
      <trkpt lat="58.36406199261546" lon="12.465858925133944">
        <ele>80.98</ele>
        <time>2025-02-06T23:13:44.104Z</time>
      </trkpt>
      <trkpt lat="58.36408797651529" lon="12.465968979522586">
        <ele>80.91</ele>
        <time>2025-02-06T23:14:13.190Z</time>
      </trkpt>
      <trkpt lat="58.364113960415125" lon="12.46608498506248">
        <ele>80.85</ele>
        <time>2025-02-06T23:14:42.277Z</time>
      </trkpt>
      <trkpt lat="58.364137932658195" lon="12.466210965067148">
        <ele>80.77</ele>
        <time>2025-02-06T23:15:11.365Z</time>
      </trkpt>
      <trkpt lat="58.36416693404317" lon="12.466339962556958">
        <ele>80.69</ele>
        <time>2025-02-06T23:15:40.454Z</time>
      </trkpt>
      <trkpt lat="58.364197947084904" lon="12.466474995017052">
        <ele>80.61</ele>
        <time>2025-02-06T23:16:09.544Z</time>
      </trkpt>
      <trkpt lat="58.36422896012664" lon="12.466613966971636">
        <ele>80.54</ele>
        <time>2025-02-06T23:16:38.636Z</time>
      </trkpt>
      <trkpt lat="58.36425997316837" lon="12.466756962239742">
        <ele>80.46</ele>
        <time>2025-02-06T23:17:07.729Z</time>
      </trkpt>
      <trkpt lat="58.36429391987622" lon="12.46690096333623">
        <ele>80.39</ele>
        <time>2025-02-06T23:17:36.823Z</time>
      </trkpt>
      <trkpt lat="58.364328956231475" lon="12.467047981917858">
        <ele>80.31</ele>
        <time>2025-02-06T23:18:05.919Z</time>
      </trkpt>
      <trkpt lat="58.36436399258673" lon="12.467195922508836">
        <ele>80.23</ele>
        <time>2025-02-06T23:18:35.016Z</time>
      </trkpt>
      <trkpt lat="58.364396933466196" lon="12.467346964403987">
        <ele>80.14</ele>
        <time>2025-02-06T23:19:04.114Z</time>
      </trkpt>
      <trkpt lat="58.36443096399307" lon="12.467499934136868">
        <ele>80.06</ele>
        <time>2025-02-06T23:19:33.214Z</time>
      </trkpt>
      <trkpt lat="58.36446499451995" lon="12.46765592135489">
        <ele>79.99</ele>
        <time>2025-02-06T23:20:02.315Z</time>
      </trkpt>
      <trkpt lat="58.364501958712935" lon="12.467812998220325">
        <ele>79.91</ele>
        <time>2025-02-06T23:20:31.418Z</time>
      </trkpt>
      <trkpt lat="58.364541940391064" lon="12.467970997095108">
        <ele>79.82</ele>
        <time>2025-02-06T23:21:00.522Z</time>
      </trkpt>
      <trkpt lat="58.36457999423146" lon="12.46812991797924">
        <ele>79.73</ele>
        <time>2025-02-06T23:21:29.628Z</time>
      </trkpt>
      <trkpt lat="58.36461695842445" lon="12.468289928510785">
        <ele>79.63</ele>
        <time>2025-02-06T23:21:58.735Z</time>
      </trkpt>
      <trkpt lat="58.364651994779706" lon="12.46844993904233">
        <ele>79.53</ele>
        <time>2025-02-06T23:22:27.844Z</time>
      </trkpt>
      <trkpt lat="58.36468493565917" lon="12.468609949573874">
        <ele>79.41</ele>
        <time>2025-02-06T23:22:56.954Z</time>
      </trkpt>
      <trkpt lat="58.36471896618605" lon="12.46876996010542">
        <ele>79.31</ele>
        <time>2025-02-06T23:23:26.066Z</time>
      </trkpt>
      <trkpt lat="58.364757942035794" lon="12.468929970636964">
        <ele>79.21</ele>
        <time>2025-02-06T23:23:55.179Z</time>
      </trkpt>
      <trkpt lat="58.364800941199064" lon="12.469085957854986">
        <ele>79.11</ele>
        <time>2025-02-06T23:24:24.294Z</time>
      </trkpt>
      <trkpt lat="58.364842934533954" lon="12.469237921759486">
        <ele>79.0</ele>
        <time>2025-02-06T23:24:53.410Z</time>
      </trkpt>
      <trkpt lat="58.36488492786884" lon="12.469389969483018">
        <ele>78.89</ele>
        <time>2025-02-06T23:25:22.527Z</time>
      </trkpt>
      <trkpt lat="58.36492692120373" lon="12.469540927559137">
        <ele>78.77</ele>
        <time>2025-02-06T23:25:51.646Z</time>
      </trkpt>
      <trkpt lat="58.36497092619538" lon="12.469688951969147">
        <ele>78.65</ele>
        <time>2025-02-06T23:26:20.766Z</time>
      </trkpt>
      <trkpt lat="58.365016942843795" lon="12.469833958894014">
        <ele>78.54</ele>
        <time>2025-02-06T23:26:49.888Z</time>
      </trkpt>
      <trkpt lat="58.36506295949221" lon="12.46997594833374">
        <ele>78.42</ele>
        <time>2025-02-06T23:27:19.011Z</time>
      </trkpt>
      <trkpt lat="58.36511299945414" lon="12.470115926116705">
        <ele>78.29</ele>
        <time>2025-02-06T23:27:48.136Z</time>
      </trkpt>
      <trkpt lat="58.36516194976866" lon="12.470255987718701">
        <ele>78.16</ele>
        <time>2025-02-06T23:28:17.262Z</time>
      </trkpt>
      <trkpt lat="58.365210983902216" lon="12.470395965501666">
        <ele>78.04</ele>
        <time>2025-02-06T23:28:46.389Z</time>
      </trkpt>
      <trkpt lat="58.36526496335864" lon="12.470532925799489">
        <ele>77.91</ele>
        <time>2025-02-06T23:29:15.518Z</time>
      </trkpt>
      <trkpt lat="58.36532095447183" lon="12.470666952431202">
        <ele>77.78</ele>
        <time>2025-02-06T23:29:44.648Z</time>
      </trkpt>
      <trkpt lat="58.365379963070154" lon="12.470799973234534">
        <ele>77.65</ele>
        <time>2025-02-06T23:30:13.780Z</time>
      </trkpt>
      <trkpt lat="58.36543494835496" lon="12.470931988209486">
        <ele>77.51</ele>
        <time>2025-02-06T23:30:42.913Z</time>
      </trkpt>
      <trkpt lat="58.365486999973655" lon="12.471061991527677">
        <ele>77.37</ele>
        <time>2025-02-06T23:31:12.048Z</time>
      </trkpt>
      <trkpt lat="58.36553796194494" lon="12.471194928511977">
        <ele>77.23</ele>
        <time>2025-02-06T23:31:41.184Z</time>
      </trkpt>
      <trkpt lat="58.36558699607849" lon="12.47132895514369">
        <ele>77.08</ele>
        <time>2025-02-06T23:32:10.321Z</time>
      </trkpt>
      <trkpt lat="58.36563594639301" lon="12.471459964290261">
        <ele>76.93</ele>
        <time>2025-02-06T23:32:39.460Z</time>
      </trkpt>
      <trkpt lat="58.36568498052657" lon="12.47158795595169">
        <ele>76.78</ele>
        <time>2025-02-06T23:33:08.600Z</time>
      </trkpt>
      <trkpt lat="58.36573393084109" lon="12.47171494178474">
        <ele>76.63</ele>
        <time>2025-02-06T23:33:37.741Z</time>
      </trkpt>
      <trkpt lat="58.365788999944925" lon="12.471835976466537">
        <ele>76.47</ele>
        <time>2025-02-06T23:34:06.884Z</time>
      </trkpt>
      <trkpt lat="58.36584398522973" lon="12.471956927329302">
        <ele>76.32</ele>
        <time>2025-02-06T23:34:36.028Z</time>
      </trkpt>
      <trkpt lat="58.365895953029394" lon="12.472077962011099">
        <ele>76.16</ele>
        <time>2025-02-06T23:35:05.173Z</time>
      </trkpt>
      <trkpt lat="58.36594792082906" lon="12.472196985036135">
        <ele>76.0</ele>
        <time>2025-02-06T23:35:34.320Z</time>
      </trkpt>
      <trkpt lat="58.36599896661937" lon="12.4723179358989">
        <ele>75.83</ele>
        <time>2025-02-06T23:36:03.468Z</time>
      </trkpt>
      <trkpt lat="58.36605194024742" lon="12.4724439997226">
        <ele>75.66</ele>
        <time>2025-02-06T23:36:32.617Z</time>
      </trkpt>
      <trkpt lat="58.36610399186611" lon="12.472570985555649">
        <ele>75.49</ele>
        <time>2025-02-06T23:37:01.768Z</time>
      </trkpt>
      <trkpt lat="58.366156965494156" lon="12.472697971388698">
        <ele>75.33</ele>
        <time>2025-02-06T23:37:30.920Z</time>
      </trkpt>
      <trkpt lat="58.36620893329382" lon="12.472825963050127">
        <ele>75.15</ele>
        <time>2025-02-06T23:38:00.073Z</time>
      </trkpt>
      <trkpt lat="58.366259979084134" lon="12.472955966368318">
        <ele>74.98</ele>
        <time>2025-02-06T23:38:29.228Z</time>
      </trkpt>
      <trkpt lat="58.36631094105542" lon="12.47308898717165">
        <ele>74.8</ele>
        <time>2025-02-06T23:38:58.384Z</time>
      </trkpt>
      <trkpt lat="58.36635997518897" lon="12.473225947469473">
        <ele>74.63</ele>
        <time>2025-02-06T23:39:27.542Z</time>
      </trkpt>
      <trkpt lat="58.36640599183738" lon="12.473365925252438">
        <ele>74.45</ele>
        <time>2025-02-06T23:39:56.701Z</time>
      </trkpt>
      <trkpt lat="58.36644899100065" lon="12.473511938005686">
        <ele>74.26</ele>
        <time>2025-02-06T23:40:25.861Z</time>
      </trkpt>
      <trkpt lat="58.3664879668504" lon="12.473665997385979">
        <ele>74.07</ele>
        <time>2025-02-06T23:40:55.023Z</time>
      </trkpt>
      <trkpt lat="58.366520991548896" lon="12.473826929926872">
        <ele>73.87</ele>
        <time>2025-02-06T23:41:24.186Z</time>
      </trkpt>
      <trkpt lat="58.36654596962035" lon="12.473993981257081">
        <ele>73.67</ele>
        <time>2025-02-06T23:41:53.351Z</time>
      </trkpt>
      <trkpt lat="58.366562984883785" lon="12.474165977910161">
        <ele>73.47</ele>
        <time>2025-02-06T23:42:22.517Z</time>
      </trkpt>
      <trkpt lat="58.36657195352018" lon="12.474342919886112">
        <ele>73.26</ele>
        <time>2025-02-06T23:42:51.685Z</time>
      </trkpt>
      <trkpt lat="58.36657396517694" lon="12.474523968994617">
        <ele>73.06</ele>
        <time>2025-02-06T23:43:20.854Z</time>
      </trkpt>
      <trkpt lat="58.366563990712166" lon="12.474707951769233">
        <ele>72.86</ele>
        <time>2025-02-06T23:43:50.025Z</time>
      </trkpt>
      <trkpt lat="58.36654798127711" lon="12.474891934543848">
        <ele>72.66</ele>
        <time>2025-02-06T23:44:19.197Z</time>
      </trkpt>
      <trkpt lat="58.36651696823537" lon="12.475073989480734">
        <ele>72.45</ele>
        <time>2025-02-06T23:44:48.371Z</time>
      </trkpt>
      <trkpt lat="58.366479920223355" lon="12.475251937285066">
        <ele>72.24</ele>
        <time>2025-02-06T23:45:17.547Z</time>
      </trkpt>
      <trkpt lat="58.366435999050736" lon="12.475424939766526">
        <ele>72.04</ele>
        <time>2025-02-06T23:45:46.724Z</time>
      </trkpt>
      <trkpt lat="58.3663859590888" lon="12.475587967783213">
        <ele>71.84</ele>
        <time>2025-02-06T23:46:15.903Z</time>
      </trkpt>
      <trkpt lat="58.366328962147236" lon="12.475739931687713">
        <ele>71.64</ele>
        <time>2025-02-06T23:46:45.083Z</time>
      </trkpt>
      <trkpt lat="58.366265930235386" lon="12.475878987461329">
        <ele>71.43</ele>
        <time>2025-02-06T23:47:14.265Z</time>
      </trkpt>
      <trkpt lat="58.366198958829045" lon="12.476010918617249">
        <ele>71.23</ele>
        <time>2025-02-06T23:47:43.448Z</time>
      </trkpt>
      <trkpt lat="58.36612997576594" lon="12.476140921935439">
        <ele>71.04</ele>
        <time>2025-02-06T23:48:12.633Z</time>
      </trkpt>
      <trkpt lat="58.36606292054057" lon="12.476265979930758">
        <ele>70.85</ele>
        <time>2025-02-06T23:48:41.819Z</time>
      </trkpt>
      <trkpt lat="58.36599594913423" lon="12.476386930793524">
        <ele>70.66</ele>
        <time>2025-02-06T23:49:11.007Z</time>
      </trkpt>
      <trkpt lat="58.36592696607113" lon="12.47650695964694">
        <ele>70.46</ele>
        <time>2025-02-06T23:49:40.196Z</time>
      </trkpt>
      <trkpt lat="58.36585697717965" lon="12.476622965186834">
        <ele>70.27</ele>
        <time>2025-02-06T23:50:09.387Z</time>
      </trkpt>
      <trkpt lat="58.365786988288164" lon="12.476735953241587">
        <ele>70.08</ele>
        <time>2025-02-06T23:50:38.579Z</time>
      </trkpt>
      <trkpt lat="58.36571892723441" lon="12.476848941296339">
        <ele>69.89</ele>
        <time>2025-02-06T23:51:07.773Z</time>
      </trkpt>
      <trkpt lat="58.36565094999969" lon="12.476963941007853">
        <ele>69.7</ele>
        <time>2025-02-06T23:51:36.968Z</time>
      </trkpt>
      <trkpt lat="58.36558297276497" lon="12.477078940719366">
        <ele>69.51</ele>
        <time>2025-02-06T23:52:06.165Z</time>
      </trkpt>
      <trkpt lat="58.36551398970187" lon="12.47719394043088">
        <ele>69.33</ele>
        <time>2025-02-06T23:52:35.363Z</time>
      </trkpt>
      <trkpt lat="58.36544391699135" lon="12.477305922657251">
        <ele>69.14</ele>
        <time>2025-02-06T23:53:04.563Z</time>
      </trkpt>
      <trkpt lat="58.36537292227149" lon="12.477417988702655">
        <ele>68.95</ele>
        <time>2025-02-06T23:53:33.764Z</time>
      </trkpt>
      <trkpt lat="58.36530092172325" lon="12.477525947615504">
        <ele>68.76</ele>
        <time>2025-02-06T23:54:02.967Z</time>
      </trkpt>
      <trkpt lat="58.365227999165654" lon="12.477626949548721">
        <ele>68.57</ele>
        <time>2025-02-06T23:54:32.171Z</time>
      </trkpt>
      <trkpt lat="58.36515298113227" lon="12.477723928168416">
        <ele>68.39</ele>
        <time>2025-02-06T23:55:01.377Z</time>
      </trkpt>
      <trkpt lat="58.3650769572705" lon="12.477823924273252">
        <ele>68.2</ele>
        <time>2025-02-06T23:55:30.584Z</time>
      </trkpt>
      <trkpt lat="58.36500093340874" lon="12.477919980883598">
        <ele>68.02</ele>
        <time>2025-02-06T23:55:59.793Z</time>
      </trkpt>
      <trkpt lat="58.364924993366" lon="12.478013942018151">
        <ele>67.84</ele>
        <time>2025-02-06T23:56:29.003Z</time>
      </trkpt>
      <trkpt lat="58.364845952019095" lon="12.478105975314975">
        <ele>67.65</ele>
        <time>2025-02-06T23:56:58.214Z</time>
      </trkpt>
      <trkpt lat="58.36476699449122" lon="12.478198930621147">
        <ele>67.46</ele>
        <time>2025-02-06T23:57:27.427Z</time>
      </trkpt>
      <trkpt lat="58.36468795314431" lon="12.478293981403112">
        <ele>67.28</ele>
        <time>2025-02-06T23:57:56.641Z</time>
      </trkpt>
      <trkpt lat="58.364609917625785" lon="12.478390960022807">
        <ele>67.11</ele>
        <time>2025-02-06T23:58:25.857Z</time>
      </trkpt>
      <trkpt lat="58.36453196592629" lon="12.478492967784405">
        <ele>66.93</ele>
        <time>2025-02-06T23:58:55.074Z</time>
      </trkpt>
      <trkpt lat="58.364458959549665" lon="12.478600926697254">
        <ele>66.76</ele>
        <time>2025-02-06T23:59:24.293Z</time>
      </trkpt>
      <trkpt lat="58.364389976486564" lon="12.47871894389391">
        <ele>66.59</ele>
        <time>2025-02-06T23:59:53.513Z</time>
      </trkpt>
      <trkpt lat="58.36432593874633" lon="12.47884794138372">
        <ele>66.42</ele>
        <time>2025-02-07T00:00:22.735Z</time>
      </trkpt>
      <trkpt lat="58.364265924319625" lon="12.478991942480206">
        <ele>66.25</ele>
        <time>2025-02-07T00:00:51.958Z</time>
      </trkpt>
      <trkpt lat="58.36420993320644" lon="12.47914994135499">
        <ele>66.09</ele>
        <time>2025-02-07T00:01:21.183Z</time>
      </trkpt>
      <trkpt lat="58.36416098289192" lon="12.479319926351309">
        <ele>65.93</ele>
        <time>2025-02-07T00:01:50.410Z</time>
      </trkpt>
      <trkpt lat="58.36411898955703" lon="12.479498963803053">
        <ele>65.77</ele>
        <time>2025-02-07T00:02:19.638Z</time>
      </trkpt>
      <trkpt lat="58.36408495903015" lon="12.479687975719571">
        <ele>65.6</ele>
        <time>2025-02-07T00:02:48.868Z</time>
      </trkpt>
      <trkpt lat="58.36405897513032" lon="12.47988193295896">
        <ele>65.44</ele>
        <time>2025-02-07T00:03:18.100Z</time>
      </trkpt>
      <trkpt lat="58.36404296569526" lon="12.480080919340253">
        <ele>65.27</ele>
        <time>2025-02-07T00:03:47.333Z</time>
      </trkpt>
      <trkpt lat="58.3640359248966" lon="12.480283929035068">
        <ele>65.11</ele>
        <time>2025-02-07T00:04:16.568Z</time>
      </trkpt>
      <trkpt lat="58.36403894238174" lon="12.480490962043405">
        <ele>64.95</ele>
        <time>2025-02-07T00:04:45.805Z</time>
      </trkpt>
      <trkpt lat="58.364050928503275" lon="12.480709981173277">
        <ele>64.78</ele>
        <time>2025-02-07T00:05:15.044Z</time>
      </trkpt>
      <trkpt lat="58.364071967080235" lon="12.48093193396926">
        <ele>64.63</ele>
        <time>2025-02-07T00:05:44.285Z</time>
      </trkpt>
      <trkpt lat="58.36410096846521" lon="12.481151958927512">
        <ele>64.47</ele>
        <time>2025-02-07T00:06:13.528Z</time>
      </trkpt>
      <trkpt lat="58.36414095014334" lon="12.481365948915482">
        <ele>64.32</ele>
        <time>2025-02-07T00:06:42.772Z</time>
      </trkpt>
      <trkpt lat="58.36418897844851" lon="12.48157792724669">
        <ele>64.17</ele>
        <time>2025-02-07T00:07:12.018Z</time>
      </trkpt>
      <trkpt lat="58.36423994041979" lon="12.48179191723466">
        <ele>64.01</ele>
        <time>2025-02-07T00:07:41.266Z</time>
      </trkpt>
      <trkpt lat="58.36429391987622" lon="12.482006996870041">
        <ele>63.86</ele>
        <time>2025-02-07T00:08:10.516Z</time>
      </trkpt>
      <trkpt lat="58.36434295400977" lon="12.48221897520125">
        <ele>63.7</ele>
        <time>2025-02-07T00:08:39.768Z</time>
      </trkpt>
      <trkpt lat="58.364396933466196" lon="12.48243598267436">
        <ele>63.54</ele>
        <time>2025-02-07T00:09:09.022Z</time>
      </trkpt>
      <trkpt lat="58.36445493623614" lon="12.482652990147471">
        <ele>63.4</ele>
        <time>2025-02-07T00:09:38.278Z</time>
      </trkpt>
      <trkpt lat="58.36451495066285" lon="12.482874942943454">
        <ele>63.26</ele>
        <time>2025-02-07T00:10:07.537Z</time>
      </trkpt>
      <trkpt lat="58.36457395926118" lon="12.483092956244946">
        <ele>63.12</ele>
        <time>2025-02-07T00:10:36.798Z</time>
      </trkpt>
      <trkpt lat="58.364630956202745" lon="12.48331499285996">
        <ele>62.96</ele>
        <time>2025-02-07T00:11:06.061Z</time>
      </trkpt>
      <trkpt lat="58.364693988114595" lon="12.483536945655942">
        <ele>62.82</ele>
        <time>2025-02-07T00:11:35.326Z</time>
      </trkpt>
      <trkpt lat="58.36475492455065" lon="12.483758982270956">
        <ele>62.68</ele>
        <time>2025-02-07T00:12:04.593Z</time>
      </trkpt>
      <trkpt lat="58.364803958684206" lon="12.48398495838046">
        <ele>62.53</ele>
        <time>2025-02-07T00:12:33.862Z</time>
      </trkpt>
      <trkpt lat="58.36484896950424" lon="12.484207917004824">
        <ele>62.4</ele>
        <time>2025-02-07T00:13:03.133Z</time>
      </trkpt>
      <trkpt lat="58.364889957010746" lon="12.484428947791457">
        <ele>62.24</ele>
        <time>2025-02-07T00:13:32.406Z</time>
      </trkpt>
      <trkpt lat="58.364928932860494" lon="12.484652996063232">
        <ele>62.09</ele>
        <time>2025-02-07T00:14:01.681Z</time>
      </trkpt>
      <trkpt lat="58.36496296338737" lon="12.484874948859215">
        <ele>61.94</ele>
        <time>2025-02-07T00:14:30.958Z</time>
      </trkpt>
      <trkpt lat="58.364998921751976" lon="12.485090950503945">
        <ele>61.8</ele>
        <time>2025-02-07T00:15:00.237Z</time>
      </trkpt>
      <trkpt lat="58.36503395810723" lon="12.485304940491915">
        <ele>61.69</ele>
        <time>2025-02-07T00:15:29.518Z</time>
      </trkpt>
      <trkpt lat="58.36506597697735" lon="12.485518930479884">
        <ele>61.56</ele>
        <time>2025-02-07T00:15:58.801Z</time>
      </trkpt>
      <trkpt lat="58.36509992368519" lon="12.485730992630124">
        <ele>61.43</ele>
        <time>2025-02-07T00:16:28.085Z</time>
      </trkpt>
      <trkpt lat="58.36513194255531" lon="12.485941965132952">
        <ele>61.32</ele>
        <time>2025-02-07T00:16:57.371Z</time>
      </trkpt>
      <trkpt lat="58.365163961425424" lon="12.486149920150638">
        <ele>61.2</ele>
        <time>2025-02-07T00:17:26.659Z</time>
      </trkpt>
      <trkpt lat="58.36519899778068" lon="12.486352929845452">
        <ele>61.08</ele>
        <time>2025-02-07T00:17:55.949Z</time>
      </trkpt>
      <trkpt lat="58.36523495614529" lon="12.486551916226745">
        <ele>60.96</ele>
        <time>2025-02-07T00:18:25.241Z</time>
      </trkpt>
      <trkpt lat="58.3652669750154" lon="12.48675199225545">
        <ele>60.85</ele>
        <time>2025-02-07T00:18:54.534Z</time>
      </trkpt>
      <trkpt lat="58.365296982228756" lon="12.486950978636742">
        <ele>60.76</ele>
        <time>2025-02-07T00:19:23.829Z</time>
      </trkpt>
      <trkpt lat="58.36533193476498" lon="12.48714191839099">
        <ele>60.65</ele>
        <time>2025-02-07T00:19:53.126Z</time>
      </trkpt>
      <trkpt lat="58.365361941978335" lon="12.487330930307508">
        <ele>60.54</ele>
        <time>2025-02-07T00:20:22.425Z</time>
      </trkpt>
      <trkpt lat="58.36539295502007" lon="12.487520948052406">
        <ele>60.45</ele>
        <time>2025-02-07T00:20:51.725Z</time>
      </trkpt>
      <trkpt lat="58.365425979718566" lon="12.487708954140544">
        <ele>60.35</ele>
        <time>2025-02-07T00:21:21.027Z</time>
      </trkpt>
      <trkpt lat="58.36545892059803" lon="12.48789394274354">
        <ele>60.24</ele>
        <time>2025-02-07T00:21:50.331Z</time>
      </trkpt>
      <trkpt lat="58.36549395695329" lon="12.488074991852045">
        <ele>60.14</ele>
        <time>2025-02-07T00:22:19.636Z</time>
      </trkpt>
      <trkpt lat="58.365527987480164" lon="12.488252939656377">
        <ele>60.04</ele>
        <time>2025-02-07T00:22:48.943Z</time>
      </trkpt>
      <trkpt lat="58.36555799469352" lon="12.488431977108121">
        <ele>59.95</ele>
        <time>2025-02-07T00:23:18.251Z</time>
      </trkpt>
      <trkpt lat="58.36558498442173" lon="12.488610930740833">
        <ele>59.87</ele>
        <time>2025-02-07T00:23:47.561Z</time>
      </trkpt>
      <trkpt lat="58.365613985806704" lon="12.488787956535816">
        <ele>59.79</ele>
        <time>2025-02-07T00:24:16.873Z</time>
      </trkpt>
      <trkpt lat="58.36564592085779" lon="12.488959953188896">
        <ele>59.71</ele>
        <time>2025-02-07T00:24:46.186Z</time>
      </trkpt>
      <trkpt lat="58.365679951384664" lon="12.489127926528454">
        <ele>59.62</ele>
        <time>2025-02-07T00:25:15.501Z</time>
      </trkpt>
      <trkpt lat="58.36571297608316" lon="12.489294977858663">
        <ele>59.54</ele>
        <time>2025-02-07T00:25:44.817Z</time>
      </trkpt>
      <trkpt lat="58.365745916962624" lon="12.489456916227937">
        <ele>59.46</ele>
        <time>2025-02-07T00:26:14.135Z</time>
      </trkpt>
      <trkpt lat="58.3657799474895" lon="12.489614998921752">
        <ele>59.37</ele>
        <time>2025-02-07T00:26:43.454Z</time>
      </trkpt>
      <trkpt lat="58.36581498384476" lon="12.489771991968155">
        <ele>59.29</ele>
        <time>2025-02-07T00:27:12.774Z</time>
      </trkpt>
      <trkpt lat="58.36584993638098" lon="12.489927979186177">
        <ele>59.22</ele>
        <time>2025-02-07T00:27:42.096Z</time>
      </trkpt>
      <trkpt lat="58.36588396690786" lon="12.4900839664042">
        <ele>59.14</ele>
        <time>2025-02-07T00:28:11.419Z</time>
      </trkpt>
      <trkpt lat="58.365916991606355" lon="12.490239953622222">
        <ele>59.08</ele>
        <time>2025-02-07T00:28:40.744Z</time>
      </trkpt>
      <trkpt lat="58.36594892665744" lon="12.490396946668625">
        <ele>59.01</ele>
        <time>2025-02-07T00:29:10.070Z</time>
      </trkpt>
      <trkpt lat="58.365982957184315" lon="12.490549916401505">
        <ele>58.95</ele>
        <time>2025-02-07T00:29:39.398Z</time>
      </trkpt>
      <trkpt lat="58.36601397022605" lon="12.490704981610179">
        <ele>58.89</ele>
        <time>2025-02-07T00:30:08.727Z</time>
      </trkpt>
      <trkpt lat="58.366048922762275" lon="12.49085895717144">
        <ele>58.82</ele>
        <time>2025-02-07T00:30:38.057Z</time>
      </trkpt>
      <trkpt lat="58.36608194746077" lon="12.49100899323821">
        <ele>58.76</ele>
        <time>2025-02-07T00:31:07.389Z</time>
      </trkpt>
      <trkpt lat="58.366112960502505" lon="12.49115894548595">
        <ele>58.71</ele>
        <time>2025-02-07T00:31:36.722Z</time>
      </trkpt>
      <trkpt lat="58.36614397354424" lon="12.491305964067578">
        <ele>58.67</ele>
        <time>2025-02-07T00:32:06.056Z</time>
      </trkpt>
      <trkpt lat="58.366173980757594" lon="12.491451976820827">
        <ele>58.63</ele>
        <time>2025-02-07T00:32:35.392Z</time>
      </trkpt>
      <trkpt lat="58.366199964657426" lon="12.491595977917314">
        <ele>58.59</ele>
        <time>2025-02-07T00:33:04.729Z</time>
      </trkpt>
      <trkpt lat="58.366217985749245" lon="12.491743918508291">
        <ele>58.56</ele>
        <time>2025-02-07T00:33:34.067Z</time>
      </trkpt>
      <trkpt lat="58.366240952163935" lon="12.491893954575062">
        <ele>58.52</ele>
        <time>2025-02-07T00:34:03.407Z</time>
      </trkpt>
      <trkpt lat="58.366263918578625" lon="12.492042984813452">
        <ele>58.48</ele>
        <time>2025-02-07T00:34:32.748Z</time>
      </trkpt>
      <trkpt lat="58.366282945498824" lon="12.49219293706119">
        <ele>58.43</ele>
        <time>2025-02-07T00:35:02.090Z</time>
      </trkpt>
      <trkpt lat="58.36629694327712" lon="12.492344984784722">
        <ele>58.39</ele>
        <time>2025-02-07T00:35:31.434Z</time>
      </trkpt>
      <trkpt lat="58.366306917741895" lon="12.492497954517603">
        <ele>58.36</ele>
        <time>2025-02-07T00:36:00.779Z</time>
      </trkpt>
      <trkpt lat="58.36632192134857" lon="12.492649918422103">
        <ele>58.32</ele>
        <time>2025-02-07T00:36:30.125Z</time>
      </trkpt>
      <trkpt lat="58.36633591912687" lon="12.492798948660493">
        <ele>58.29</ele>
        <time>2025-02-07T00:36:59.472Z</time>
      </trkpt>
      <trkpt lat="58.36634195409715" lon="12.492946973070502">
        <ele>58.26</ele>
        <time>2025-02-07T00:37:28.821Z</time>
      </trkpt>
      <trkpt lat="58.366346983239055" lon="12.49309197999537">
        <ele>58.23</ele>
        <time>2025-02-07T00:37:58.171Z</time>
      </trkpt>
      <trkpt lat="58.366349916905165" lon="12.493234975263476">
        <ele>58.21</ele>
        <time>2025-02-07T00:38:27.522Z</time>
      </trkpt>
      <trkpt lat="58.366351928561926" lon="12.493379982188344">
        <ele>58.19</ele>
        <time>2025-02-07T00:38:56.874Z</time>
      </trkpt>
      <trkpt lat="58.366350922733545" lon="12.49352197162807">
        <ele>58.16</ele>
        <time>2025-02-07T00:39:26.227Z</time>
      </trkpt>
      <trkpt lat="58.36634497158229" lon="12.493667984381318">
        <ele>58.15</ele>
        <time>2025-02-07T00:39:55.582Z</time>
      </trkpt>
      <trkpt lat="58.36633692495525" lon="12.493814919143915">
        <ele>58.13</ele>
        <time>2025-02-07T00:40:24.938Z</time>
      </trkpt>
      <trkpt lat="58.366326950490475" lon="12.493961937725544">
        <ele>58.12</ele>
        <time>2025-02-07T00:40:54.295Z</time>
      </trkpt>
      <trkpt lat="58.36631496436894" lon="12.494107950478792">
        <ele>58.11</ele>
        <time>2025-02-07T00:41:23.653Z</time>
      </trkpt>
      <trkpt lat="58.366302978247404" lon="12.494254969060421">
        <ele>58.1</ele>
        <time>2025-02-07T00:41:53.013Z</time>
      </trkpt>
      <trkpt lat="58.36628898046911" lon="12.49440098181367">
        <ele>58.1</ele>
        <time>2025-02-07T00:42:22.374Z</time>
      </trkpt>
      <trkpt lat="58.36627498269081" lon="12.494547916576266">
        <ele>58.09</ele>
        <time>2025-02-07T00:42:51.736Z</time>
      </trkpt>
      <trkpt lat="58.36625796742737" lon="12.494694935157895">
        <ele>58.09</ele>
        <time>2025-02-07T00:43:21.099Z</time>
      </trkpt>
      <trkpt lat="58.36623692885041" lon="12.49483591876924">
        <ele>58.09</ele>
        <time>2025-02-07T00:43:50.464Z</time>
      </trkpt>
      <trkpt lat="58.36621195077896" lon="12.494972962886095">
        <ele>58.09</ele>
        <time>2025-02-07T00:44:19.830Z</time>
      </trkpt>
      <trkpt lat="58.36618697270751" lon="12.49511394649744">
        <ele>58.1</ele>
        <time>2025-02-07T00:44:49.197Z</time>
      </trkpt>
      <trkpt lat="58.3661599829793" lon="12.495251996442676">
        <ele>58.08</ele>
        <time>2025-02-07T00:45:18.565Z</time>
      </trkpt>
      <trkpt lat="58.36612896993756" lon="12.495386945083737">
        <ele>58.09</ele>
        <time>2025-02-07T00:45:47.935Z</time>
      </trkpt>
      <trkpt lat="58.36609594523907" lon="12.495522983372211">
        <ele>58.08</ele>
        <time>2025-02-07T00:46:17.306Z</time>
      </trkpt>
      <trkpt lat="58.36605898104608" lon="12.495652986690402">
        <ele>58.09</ele>
        <time>2025-02-07T00:46:46.678Z</time>
      </trkpt>
      <trkpt lat="58.36602193303406" lon="12.495783995836973">
        <ele>58.11</ele>
        <time>2025-02-07T00:47:16.051Z</time>
      </trkpt>
      <trkpt lat="58.365980945527554" lon="12.495911987498403">
        <ele>58.12</ele>
        <time>2025-02-07T00:47:45.426Z</time>
      </trkpt>
      <trkpt lat="58.365938952192664" lon="12.496034950017929">
        <ele>58.13</ele>
        <time>2025-02-07T00:48:14.802Z</time>
      </trkpt>
      <trkpt lat="58.365896958857775" lon="12.496153973042965">
        <ele>58.13</ele>
        <time>2025-02-07T00:48:44.179Z</time>
      </trkpt>
      <trkpt lat="58.365853959694505" lon="12.496265955269337">
        <ele>58.14</ele>
        <time>2025-02-07T00:49:13.557Z</time>
      </trkpt>
      <trkpt lat="58.365810960531235" lon="12.496373998001218">
        <ele>58.15</ele>
        <time>2025-02-07T00:49:42.936Z</time>
      </trkpt>
      <trkpt lat="58.365767961367965" lon="12.496471982449293">
        <ele>58.16</ele>
        <time>2025-02-07T00:50:12.317Z</time>
      </trkpt>
      <trkpt lat="58.365726973861456" lon="12.496560998260975">
        <ele>58.19</ele>
        <time>2025-02-07T00:50:41.699Z</time>
      </trkpt>
      <trkpt lat="58.36568598635495" lon="12.496652947738767">
        <ele>58.2</ele>
        <time>2025-02-07T00:51:11.082Z</time>
      </trkpt>
      <trkpt lat="58.36564298719168" lon="12.49674498103559">
        <ele>58.22</ele>
        <time>2025-02-07T00:51:40.466Z</time>
      </trkpt>
      <trkpt lat="58.365596970543265" lon="12.496844977140427">
        <ele>58.23</ele>
        <time>2025-02-07T00:52:09.851Z</time>
      </trkpt>
      <trkpt lat="58.36554894223809" lon="12.496949918568134">
        <ele>58.24</ele>
        <time>2025-02-07T00:52:39.237Z</time>
      </trkpt>
      <trkpt lat="58.36550099775195" lon="12.497057961300015">
        <ele>58.26</ele>
        <time>2025-02-07T00:53:08.624Z</time>
      </trkpt>
      <trkpt lat="58.365446934476495" lon="12.497161980718374">
        <ele>58.28</ele>
        <time>2025-02-07T00:53:38.012Z</time>
      </trkpt>
      <trkpt lat="58.36538993753493" lon="12.497265916317701">
        <ele>58.3</ele>
        <time>2025-02-07T00:54:07.402Z</time>
      </trkpt>
      <trkpt lat="58.3653309289366" lon="12.497371947392821">
        <ele>58.31</ele>
        <time>2025-02-07T00:54:36.793Z</time>
      </trkpt>
      <trkpt lat="58.365272926166654" lon="12.497480995953083">
        <ele>58.32</ele>
        <time>2025-02-07T00:55:06.185Z</time>
      </trkpt>
      <trkpt lat="58.36521492339671" lon="12.497589960694313">
        <ele>58.34</ele>
        <time>2025-02-07T00:55:35.578Z</time>
      </trkpt>
      <trkpt lat="58.36515692062676" lon="12.497697919607162">
        <ele>58.36</ele>
        <time>2025-02-07T00:56:04.973Z</time>
      </trkpt>
      <trkpt lat="58.365097995847464" lon="12.497805962339044">
        <ele>58.38</ele>
        <time>2025-02-07T00:56:34.369Z</time>
      </trkpt>
      <trkpt lat="58.36503999307752" lon="12.49790696427226">
        <ele>58.4</ele>
        <time>2025-02-07T00:57:03.766Z</time>
      </trkpt>
      <trkpt lat="58.36497997865081" lon="12.498007966205478">
        <ele>58.42</ele>
        <time>2025-02-07T00:57:33.165Z</time>
      </trkpt>
      <trkpt lat="58.3649199642241" lon="12.498107962310314">
        <ele>58.44</ele>
        <time>2025-02-07T00:58:02.565Z</time>
      </trkpt>
      <trkpt lat="58.364863973110914" lon="12.49820795841515">
        <ele>58.48</ele>
        <time>2025-02-07T00:58:31.966Z</time>
      </trkpt>
      <trkpt lat="58.36480798199773" lon="12.49831298366189">
        <ele>58.51</ele>
        <time>2025-02-07T00:59:01.368Z</time>
      </trkpt>
      <trkpt lat="58.36475299671292" lon="12.498416919261217">
        <ele>58.54</ele>
        <time>2025-02-07T00:59:30.772Z</time>
      </trkpt>
      <trkpt lat="58.364697927609086" lon="12.498523956164718">
        <ele>58.57</ele>
        <time>2025-02-07T01:00:00.177Z</time>
      </trkpt>
      <trkpt lat="58.36464093066752" lon="12.498627975583076">
        <ele>58.6</ele>
        <time>2025-02-07T01:00:29.583Z</time>
      </trkpt>
      <trkpt lat="58.36458393372595" lon="12.498729983344674">
        <ele>58.63</ele>
        <time>2025-02-07T01:00:58.990Z</time>
      </trkpt>
      <trkpt lat="58.36452794261277" lon="12.498835930600762">
        <ele>58.67</ele>
        <time>2025-02-07T01:01:28.399Z</time>
      </trkpt>
      <trkpt lat="58.3644709456712" lon="12.498942967504263">
        <ele>58.71</ele>
        <time>2025-02-07T01:01:57.809Z</time>
      </trkpt>
      <trkpt lat="58.364413948729634" lon="12.499047992751002">
        <ele>58.74</ele>
        <time>2025-02-07T01:02:27.220Z</time>
      </trkpt>
      <trkpt lat="58.36435695178807" lon="12.499155951663852">
        <ele>58.77</ele>
        <time>2025-02-07T01:02:56.633Z</time>
      </trkpt>
      <trkpt lat="58.3642999548465" lon="12.499264916405082">
        <ele>58.79</ele>
        <time>2025-02-07T01:03:26.047Z</time>
      </trkpt>
      <trkpt lat="58.364240946248174" lon="12.499374970793724">
        <ele>58.81</ele>
        <time>2025-02-07T01:03:55.462Z</time>
      </trkpt>
      <trkpt lat="58.364181937649846" lon="12.499484941363335">
        <ele>58.83</ele>
        <time>2025-02-07T01:04:24.879Z</time>
      </trkpt>
      <trkpt lat="58.36412494070828" lon="12.499594995751977">
        <ele>58.85</ele>
        <time>2025-02-07T01:04:54.297Z</time>
      </trkpt>
      <trkpt lat="58.364068949595094" lon="12.499706977978349">
        <ele>58.86</ele>
        <time>2025-02-07T01:05:23.716Z</time>
      </trkpt>
      <trkpt lat="58.36401396431029" lon="12.499823989346623">
        <ele>58.87</ele>
        <time>2025-02-07T01:05:53.136Z</time>
      </trkpt>
      <trkpt lat="58.36395897902548" lon="12.49994594603777">
        <ele>58.88</ele>
        <time>2025-02-07T01:06:22.558Z</time>
      </trkpt>
      <trkpt lat="58.36390499956906" lon="12.500064969062805">
        <ele>58.88</ele>
        <time>2025-02-07T01:06:51.981Z</time>
      </trkpt>
      <trkpt lat="58.36385194212198" lon="12.500184997916222">
        <ele>58.88</ele>
        <time>2025-02-07T01:07:21.405Z</time>
      </trkpt>
      <trkpt lat="58.36379997432232" lon="12.500308966264129">
        <ele>58.88</ele>
        <time>2025-02-07T01:07:50.831Z</time>
      </trkpt>
      <trkpt lat="58.363748928532004" lon="12.500436957925558">
        <ele>58.88</ele>
        <time>2025-02-07T01:08:20.258Z</time>
      </trkpt>
      <trkpt lat="58.3636989723891" lon="12.500572996214032">
        <ele>58.87</ele>
        <time>2025-02-07T01:08:49.687Z</time>
      </trkpt>
      <trkpt lat="58.36364893242717" lon="12.500708950683475">
        <ele>58.87</ele>
        <time>2025-02-07T01:09:19.117Z</time>
      </trkpt>
      <trkpt lat="58.363599982112646" lon="12.500847922638059">
        <ele>58.86</ele>
        <time>2025-02-07T01:09:48.548Z</time>
      </trkpt>
      <trkpt lat="58.36355094797909" lon="12.500989995896816">
        <ele>58.85</ele>
        <time>2025-02-07T01:10:17.981Z</time>
      </trkpt>
      <trkpt lat="58.36350493133068" lon="12.501131985336542">
        <ele>58.84</ele>
        <time>2025-02-07T01:10:47.415Z</time>
      </trkpt>
      <trkpt lat="58.36345799267292" lon="12.501272968947887">
        <ele>58.83</ele>
        <time>2025-02-07T01:11:16.851Z</time>
      </trkpt>
      <trkpt lat="58.36341499350965" lon="12.501416970044374">
        <ele>58.82</ele>
        <time>2025-02-07T01:11:46.288Z</time>
      </trkpt>
      <trkpt lat="58.36337199434638" lon="12.501560971140862">
        <ele>58.8</ele>
        <time>2025-02-07T01:12:15.726Z</time>
      </trkpt>
      <trkpt lat="58.36333092302084" lon="12.501704972237349">
        <ele>58.78</ele>
        <time>2025-02-07T01:12:45.166Z</time>
      </trkpt>
      <trkpt lat="58.36328892968595" lon="12.501847967505455">
        <ele>58.76</ele>
        <time>2025-02-07T01:13:14.607Z</time>
      </trkpt>
      <trkpt lat="58.36324794217944" lon="12.501989956945181">
        <ele>58.73</ele>
        <time>2025-02-07T01:13:44.050Z</time>
      </trkpt>
      <trkpt lat="58.363208966329694" lon="12.502131946384907">
        <ele>58.71</ele>
        <time>2025-02-07T01:14:13.494Z</time>
      </trkpt>
      <trkpt lat="58.363169990479946" lon="12.502272929996252">
        <ele>58.68</ele>
        <time>2025-02-07T01:14:42.939Z</time>
      </trkpt>
      <trkpt lat="58.36313394829631" lon="12.502415925264359">
        <ele>58.64</ele>
        <time>2025-02-07T01:15:12.386Z</time>
      </trkpt>
      <trkpt lat="58.36309899576008" lon="12.502560932189226">
        <ele>58.61</ele>
        <time>2025-02-07T01:15:41.834Z</time>
      </trkpt>
      <trkpt lat="58.36306798271835" lon="12.502713985741138">
        <ele>58.57</ele>
        <time>2025-02-07T01:16:11.283Z</time>
      </trkpt>
      <trkpt lat="58.36303596384823" lon="12.502865949645638">
        <ele>58.53</ele>
        <time>2025-02-07T01:16:40.734Z</time>
      </trkpt>
      <trkpt lat="58.36300696246326" lon="12.50302093103528">
        <ele>58.49</ele>
        <time>2025-02-07T01:17:10.186Z</time>
      </trkpt>
      <trkpt lat="58.362975949421525" lon="12.503175996243954">
        <ele>58.45</ele>
        <time>2025-02-07T01:17:39.639Z</time>
      </trkpt>
      <trkpt lat="58.36294594220817" lon="12.503331983461976">
        <ele>58.4</ele>
        <time>2025-02-07T01:18:09.094Z</time>
      </trkpt>
      <trkpt lat="58.3629169408232" lon="12.503487970679998">
        <ele>58.34</ele>
        <time>2025-02-07T01:18:38.550Z</time>
      </trkpt>
      <trkpt lat="58.362887939438224" lon="12.50364194624126">
        <ele>58.29</ele>
        <time>2025-02-07T01:19:08.008Z</time>
      </trkpt>
      <trkpt lat="58.36285994388163" lon="12.50379097647965">
        <ele>58.24</ele>
        <time>2025-02-07T01:19:37.467Z</time>
      </trkpt>
      <trkpt lat="58.36283295415342" lon="12.503945957869291">
        <ele>58.19</ele>
        <time>2025-02-07T01:20:06.927Z</time>
      </trkpt>
      <trkpt lat="58.362804958596826" lon="12.50409297645092">
        <ele>58.13</ele>
        <time>2025-02-07T01:20:36.389Z</time>
      </trkpt>
      <trkpt lat="58.362778974696994" lon="12.504238989204168">
        <ele>58.07</ele>
        <time>2025-02-07T01:21:05.852Z</time>
      </trkpt>
      <trkpt lat="58.36275198496878" lon="12.504380978643894">
        <ele>58.0</ele>
        <time>2025-02-07T01:21:35.316Z</time>
      </trkpt>
      <trkpt lat="58.36272398941219" lon="12.504526991397142">
        <ele>57.94</ele>
        <time>2025-02-07T01:22:04.782Z</time>
      </trkpt>
      <trkpt lat="58.362696999683976" lon="12.504676943644881">
        <ele>57.88</ele>
        <time>2025-02-07T01:22:34.249Z</time>
      </trkpt>
      <trkpt lat="58.36267093196511" lon="12.504826979711652">
        <ele>57.81</ele>
        <time>2025-02-07T01:23:03.717Z</time>
      </trkpt>
      <trkpt lat="58.3626439422369" lon="12.504984978586435">
        <ele>57.74</ele>
        <time>2025-02-07T01:23:33.187Z</time>
      </trkpt>
      <trkpt lat="58.36261695250869" lon="12.505142977461219">
        <ele>57.66</ele>
        <time>2025-02-07T01:24:02.658Z</time>
      </trkpt>
      <trkpt lat="58.362586945295334" lon="12.50529795885086">
        <ele>57.58</ele>
        <time>2025-02-07T01:24:32.130Z</time>
      </trkpt>
      <trkpt lat="58.36255794391036" lon="12.505454951897264">
        <ele>57.51</ele>
        <time>2025-02-07T01:25:01.604Z</time>
      </trkpt>
      <trkpt lat="58.36252894252539" lon="12.505612950772047">
        <ele>57.43</ele>
        <time>2025-02-07T01:25:31.079Z</time>
      </trkpt>
      <trkpt lat="58.362500946968794" lon="12.505771955475211">
        <ele>57.35</ele>
        <time>2025-02-07T01:26:00.556Z</time>
      </trkpt>
      <trkpt lat="58.3624729514122" lon="12.505930960178375">
        <ele>57.27</ele>
        <time>2025-02-07T01:26:30.034Z</time>
      </trkpt>
      <trkpt lat="58.36244495585561" lon="12.506088959053159">
        <ele>57.18</ele>
        <time>2025-02-07T01:26:59.513Z</time>
      </trkpt>
      <trkpt lat="58.362416960299015" lon="12.506249975413084">
        <ele>57.1</ele>
        <time>2025-02-07T01:27:28.994Z</time>
      </trkpt>
      <trkpt lat="58.36238795891404" lon="12.50641199760139">
        <ele>57.01</ele>
        <time>2025-02-07T01:27:58.476Z</time>
      </trkpt>
      <trkpt lat="58.36235694587231" lon="12.506571924313903">
        <ele>56.91</ele>
        <time>2025-02-07T01:28:27.960Z</time>
      </trkpt>
      <trkpt lat="58.362328950315714" lon="12.506730929017067">
        <ele>56.82</ele>
        <time>2025-02-07T01:28:57.445Z</time>
      </trkpt>
      <trkpt lat="58.36230095475912" lon="12.50688792206347">
        <ele>56.73</ele>
        <time>2025-02-07T01:29:26.932Z</time>
      </trkpt>
      <trkpt lat="58.36227195337415" lon="12.507040975615382">
        <ele>56.63</ele>
        <time>2025-02-07T01:29:56.420Z</time>
      </trkpt>
      <trkpt lat="58.36224094033241" lon="12.507193945348263">
        <ele>56.53</ele>
        <time>2025-02-07T01:30:25.909Z</time>
      </trkpt>
      <trkpt lat="58.3622139506042" lon="12.507349932566285">
        <ele>56.43</ele>
        <time>2025-02-07T01:30:55.400Z</time>
      </trkpt>
      <trkpt lat="58.36218696087599" lon="12.507506925612688">
        <ele>56.33</ele>
        <time>2025-02-07T01:31:24.892Z</time>
      </trkpt>
      <trkpt lat="58.362158965319395" lon="12.507665930315852">
        <ele>56.22</ele>
        <time>2025-02-07T01:31:54.385Z</time>
      </trkpt>
      <trkpt lat="58.3621309697628" lon="12.507822923362255">
        <ele>56.11</ele>
        <time>2025-02-07T01:32:23.880Z</time>
      </trkpt>
      <trkpt lat="58.36210398003459" lon="12.50797899439931">
        <ele>56.0</ele>
        <time>2025-02-07T01:32:53.376Z</time>
      </trkpt>
      <trkpt lat="58.36207699030638" lon="12.508135987445712">
        <ele>55.9</ele>
        <time>2025-02-07T01:33:22.874Z</time>
      </trkpt>
      <trkpt lat="58.362048994749784" lon="12.508289963006973">
        <ele>55.78</ele>
        <time>2025-02-07T01:33:52.373Z</time>
      </trkpt>
      <trkpt lat="58.36202099919319" lon="12.508441926911473">
        <ele>55.67</ele>
        <time>2025-02-07T01:34:21.873Z</time>
      </trkpt>
      <trkpt lat="58.36199291981757" lon="12.508594980463386">
        <ele>55.56</ele>
        <time>2025-02-07T01:34:51.375Z</time>
      </trkpt>
      <trkpt lat="58.361964924260974" lon="12.508747950196266">
        <ele>55.44</ele>
        <time>2025-02-07T01:35:20.878Z</time>
      </trkpt>
      <trkpt lat="58.36193692870438" lon="12.508898992091417">
        <ele>55.32</ele>
        <time>2025-02-07T01:35:50.382Z</time>
      </trkpt>
      <trkpt lat="58.36190893314779" lon="12.509048944339156">
        <ele>55.2</ele>
        <time>2025-02-07T01:36:19.888Z</time>
      </trkpt>
      <trkpt lat="58.361881943419576" lon="12.509200992062688">
        <ele>55.09</ele>
        <time>2025-02-07T01:36:49.395Z</time>
      </trkpt>
      <trkpt lat="58.36185495369136" lon="12.509354967623949">
        <ele>54.97</ele>
        <time>2025-02-07T01:37:18.904Z</time>
      </trkpt>
      <trkpt lat="58.36182494647801" lon="12.50950894318521">
        <ele>54.85</ele>
        <time>2025-02-07T01:37:48.414Z</time>
      </trkpt>
      <trkpt lat="58.361793933436275" lon="12.50965897925198">
        <ele>54.74</ele>
        <time>2025-02-07T01:38:17.925Z</time>
      </trkpt>
      <trkpt lat="58.36175998672843" lon="12.509804992005229">
        <ele>54.62</ele>
        <time>2025-02-07T01:38:47.438Z</time>
      </trkpt>
      <trkpt lat="58.36172595620155" lon="12.509950920939445">
        <ele>54.5</ele>
        <time>2025-02-07T01:39:16.952Z</time>
      </trkpt>
      <trkpt lat="58.36169293150306" lon="12.510096933692694">
        <ele>54.38</ele>
        <time>2025-02-07T01:39:46.467Z</time>
      </trkpt>
      <trkpt lat="58.36165797896683" lon="12.51023892313242">
        <ele>54.26</ele>
        <time>2025-02-07T01:40:15.984Z</time>
      </trkpt>
      <trkpt lat="58.361620930954814" lon="12.510378984734416">
        <ele>54.14</ele>
        <time>2025-02-07T01:40:45.502Z</time>
      </trkpt>
      <trkpt lat="58.36158396676183" lon="12.510519968345761">
        <ele>54.03</ele>
        <time>2025-02-07T01:41:15.021Z</time>
      </trkpt>
      <trkpt lat="58.36154792457819" lon="12.510659946128726">
        <ele>53.91</ele>
        <time>2025-02-07T01:41:44.542Z</time>
      </trkpt>
      <trkpt lat="58.36150995455682" lon="12.510801935568452">
        <ele>53.8</ele>
        <time>2025-02-07T01:42:14.064Z</time>
      </trkpt>
      <trkpt lat="58.361470978707075" lon="12.510941997170448">
        <ele>53.69</ele>
        <time>2025-02-07T01:42:43.587Z</time>
      </trkpt>
      <trkpt lat="58.361429991200566" lon="12.511079963296652">
        <ele>53.57</ele>
        <time>2025-02-07T01:43:13.112Z</time>
      </trkpt>
      <trkpt lat="58.361388919875026" lon="12.511215917766094">
        <ele>53.46</ele>
        <time>2025-02-07T01:43:42.638Z</time>
      </trkpt>
      <trkpt lat="58.361346926540136" lon="12.511348938569427">
        <ele>53.34</ele>
        <time>2025-02-07T01:44:12.165Z</time>
      </trkpt>
      <trkpt lat="58.361303927376866" lon="12.511481959372759">
        <ele>53.23</ele>
        <time>2025-02-07T01:44:41.694Z</time>
      </trkpt>
      <trkpt lat="58.361258916556835" lon="12.51161196269095">
        <ele>53.12</ele>
        <time>2025-02-07T01:45:11.224Z</time>
      </trkpt>
      <trkpt lat="58.361211977899075" lon="12.51174297183752">
        <ele>53.01</ele>
        <time>2025-02-07T01:45:40.755Z</time>
      </trkpt>
      <trkpt lat="58.36116495542228" lon="12.511874986812472">
        <ele>52.89</ele>
        <time>2025-02-07T01:46:10.288Z</time>
      </trkpt>
      <trkpt lat="58.36111692711711" lon="12.512003984302282">
        <ele>52.77</ele>
        <time>2025-02-07T01:46:39.822Z</time>
      </trkpt>
      <trkpt lat="58.36106898263097" lon="12.512134993448853">
        <ele>52.66</ele>
        <time>2025-02-07T01:47:09.357Z</time>
      </trkpt>
      <trkpt lat="58.361020954325795" lon="12.512264996767044">
        <ele>52.55</ele>
        <time>2025-02-07T01:47:38.894Z</time>
      </trkpt>
      <trkpt lat="58.36097099818289" lon="12.512393994256854">
        <ele>52.44</ele>
        <time>2025-02-07T01:48:08.432Z</time>
      </trkpt>
      <trkpt lat="58.36091995239258" lon="12.51251695677638">
        <ele>52.33</ele>
        <time>2025-02-07T01:48:37.971Z</time>
      </trkpt>
      <trkpt lat="58.360867984592915" lon="12.512637991458178">
        <ele>52.22</ele>
        <time>2025-02-07T01:49:07.512Z</time>
      </trkpt>
      <trkpt lat="58.36081794463098" lon="12.512755924835801">
        <ele>52.1</ele>
        <time>2025-02-07T01:49:37.054Z</time>
      </trkpt>
      <trkpt lat="58.36076798848808" lon="12.512871930375695">
        <ele>51.99</ele>
        <time>2025-02-07T01:50:06.597Z</time>
      </trkpt>
      <trkpt lat="58.360718954354525" lon="12.512984918430448">
        <ele>51.88</ele>
        <time>2025-02-07T01:50:36.141Z</time>
      </trkpt>
      <trkpt lat="58.36066899821162" lon="12.51309497281909">
        <ele>51.76</ele>
        <time>2025-02-07T01:51:05.687Z</time>
      </trkpt>
      <trkpt lat="58.36061694659293" lon="12.5132049433887">
        <ele>51.65</ele>
        <time>2025-02-07T01:51:35.234Z</time>
      </trkpt>
      <trkpt lat="58.36056497879326" lon="12.513312986120582">
        <ele>51.53</ele>
        <time>2025-02-07T01:52:04.782Z</time>
      </trkpt>
      <trkpt lat="58.36051099933684" lon="12.51341893337667">
        <ele>51.41</ele>
        <time>2025-02-07T01:52:34.331Z</time>
      </trkpt>
      <trkpt lat="58.36045693606138" lon="12.51352395862341">
        <ele>51.3</ele>
        <time>2025-02-07T01:53:03.882Z</time>
      </trkpt>
      <trkpt lat="58.36040295660496" lon="12.513628983870149">
        <ele>51.18</ele>
        <time>2025-02-07T01:53:33.434Z</time>
      </trkpt>
      <trkpt lat="58.36034595966339" lon="12.513732919469476">
        <ele>51.07</ele>
        <time>2025-02-07T01:54:02.987Z</time>
      </trkpt>
      <trkpt lat="58.360287956893444" lon="12.513836938887835">
        <ele>50.95</ele>
        <time>2025-02-07T01:54:32.541Z</time>
      </trkpt>
      <trkpt lat="58.360228948295116" lon="12.513941964134574">
        <ele>50.83</ele>
        <time>2025-02-07T01:55:02.097Z</time>
      </trkpt>
      <trkpt lat="58.36016792804003" lon="12.514045983552933">
        <ele>50.72</ele>
        <time>2025-02-07T01:55:31.654Z</time>
      </trkpt>
      <trkpt lat="58.36010598577559" lon="12.51414597965777">
        <ele>50.61</ele>
        <time>2025-02-07T01:56:01.212Z</time>
      </trkpt>
      <trkpt lat="58.36004395969212" lon="12.514244969934225">
        <ele>50.5</ele>
        <time>2025-02-07T01:56:30.772Z</time>
      </trkpt>
      <trkpt lat="58.35997992195189" lon="12.514343960210681">
        <ele>50.38</ele>
        <time>2025-02-07T01:57:00.333Z</time>
      </trkpt>
      <trkpt lat="58.35991697385907" lon="12.514441944658756">
        <ele>50.27</ele>
        <time>2025-02-07T01:57:29.895Z</time>
      </trkpt>
      <trkpt lat="58.35985193029046" lon="12.514538923278451">
        <ele>50.16</ele>
        <time>2025-02-07T01:57:59.458Z</time>
      </trkpt>
      <trkpt lat="58.3597859647125" lon="12.514632968232036">
        <ele>50.05</ele>
        <time>2025-02-07T01:58:29.023Z</time>
      </trkpt>
      <trkpt lat="58.35971899330616" lon="12.514726929366589">
        <ele>49.93</ele>
        <time>2025-02-07T01:58:58.589Z</time>
      </trkpt>
      <trkpt lat="58.35965193808079" lon="12.514819968491793">
        <ele>49.82</ele>
        <time>2025-02-07T01:59:28.156Z</time>
      </trkpt>
      <trkpt lat="58.359582955017686" lon="12.514910995960236">
        <ele>49.72</ele>
        <time>2025-02-07T01:59:57.725Z</time>
      </trkpt>
      <trkpt lat="58.359514977782965" lon="12.514999927952886">
        <ele>49.6</ele>
        <time>2025-02-07T02:00:27.295Z</time>
      </trkpt>
      <trkpt lat="58.35944691672921" lon="12.515086932107806">
        <ele>49.49</ele>
        <time>2025-02-07T02:00:56.866Z</time>
      </trkpt>
      <trkpt lat="58.35937893949449" lon="12.515168990939856">
        <ele>49.38</ele>
        <time>2025-02-07T02:01:26.439Z</time>
      </trkpt>
      <trkpt lat="58.35930995643139" lon="12.515250965952873">
        <ele>49.28</ele>
        <time>2025-02-07T02:01:56.013Z</time>
      </trkpt>
      <trkpt lat="58.35924197919667" lon="12.515333946794271">
        <ele>49.18</ele>
        <time>2025-02-07T02:02:25.588Z</time>
      </trkpt>
      <trkpt lat="58.359175929799676" lon="12.51541793346405">
        <ele>49.07</ele>
        <time>2025-02-07T02:02:55.165Z</time>
      </trkpt>
      <trkpt lat="58.359109964221716" lon="12.51550099812448">
        <ele>48.96</ele>
        <time>2025-02-07T02:03:24.743Z</time>
      </trkpt>
      <trkpt lat="58.359044920653105" lon="12.515579955652356">
        <ele>48.86</ele>
        <time>2025-02-07T02:03:54.322Z</time>
      </trkpt>
      <trkpt lat="58.358979960903525" lon="12.515654973685741">
        <ele>48.77</ele>
        <time>2025-02-07T02:04:23.902Z</time>
      </trkpt>
      <trkpt lat="58.358913995325565" lon="12.515731919556856">
        <ele>48.66</ele>
        <time>2025-02-07T02:04:53.484Z</time>
      </trkpt>
      <trkpt lat="58.358847945928574" lon="12.515806937590241">
        <ele>48.55</ele>
        <time>2025-02-07T02:05:23.067Z</time>
      </trkpt>
      <trkpt lat="58.358781980350614" lon="12.51588698476553">
        <ele>48.46</ele>
        <time>2025-02-07T02:05:52.651Z</time>
      </trkpt>
      <trkpt lat="58.35871492512524" lon="12.515964936465025">
        <ele>48.36</ele>
        <time>2025-02-07T02:06:22.236Z</time>
      </trkpt>
      <trkpt lat="58.35864694789052" lon="12.516042971983552">
        <ele>48.26</ele>
        <time>2025-02-07T02:06:51.823Z</time>
      </trkpt>
      <trkpt lat="58.35857796482742" lon="12.516128970310092">
        <ele>48.15</ele>
        <time>2025-02-07T02:07:21.411Z</time>
      </trkpt>
      <trkpt lat="58.358507975935936" lon="12.51621195115149">
        <ele>48.06</ele>
        <time>2025-02-07T02:07:51.000Z</time>
      </trkpt>
      <trkpt lat="58.358437987044454" lon="12.516295937821269">
        <ele>47.96</ele>
        <time>2025-02-07T02:08:20.591Z</time>
      </trkpt>
      <trkpt lat="58.35836699232459" lon="12.516377996653318">
        <ele>47.85</ele>
        <time>2025-02-07T02:08:50.183Z</time>
      </trkpt>
      <trkpt lat="58.35829599760473" lon="12.516463994979858">
        <ele>47.75</ele>
        <time>2025-02-07T02:09:19.776Z</time>
      </trkpt>
      <trkpt lat="58.358222991228104" lon="12.516552926972508">
        <ele>47.66</ele>
        <time>2025-02-07T02:09:49.371Z</time>
      </trkpt>
      <trkpt lat="58.3581489790231" lon="12.51664294861257">
        <ele>47.55</ele>
        <time>2025-02-07T02:10:18.967Z</time>
      </trkpt>
      <trkpt lat="58.358076978474855" lon="12.516729952767491">
        <ele>47.46</ele>
        <time>2025-02-07T02:10:48.564Z</time>
      </trkpt>
      <trkpt lat="58.35800296626985" lon="12.516821986064315">
        <ele>47.35</ele>
        <time>2025-02-07T02:11:18.163Z</time>
      </trkpt>
      <trkpt lat="58.357928954064846" lon="12.516909996047616">
        <ele>47.25</ele>
        <time>2025-02-07T02:11:47.763Z</time>
      </trkpt>
      <trkpt lat="58.35785494185984" lon="12.517000939697027">
        <ele>47.16</ele>
        <time>2025-02-07T02:12:17.365Z</time>
      </trkpt>
      <trkpt lat="58.35778193548322" lon="12.517089955508709">
        <ele>47.06</ele>
        <time>2025-02-07T02:12:46.968Z</time>
      </trkpt>
      <trkpt lat="58.35770892910659" lon="12.51717897132039">
        <ele>46.96</ele>
        <time>2025-02-07T02:13:16.572Z</time>
      </trkpt>
      <trkpt lat="58.35763592272997" lon="12.51726496964693">
        <ele>46.87</ele>
        <time>2025-02-07T02:13:46.178Z</time>
      </trkpt>
      <trkpt lat="58.357562916353345" lon="12.51735096797347">
        <ele>46.78</ele>
        <time>2025-02-07T02:14:15.785Z</time>
      </trkpt>
      <trkpt lat="58.35749099962413" lon="12.51743696630001">
        <ele>46.7</ele>
        <time>2025-02-07T02:14:45.394Z</time>
      </trkpt>
      <trkpt lat="58.35741992108524" lon="12.517523970454931">
        <ele>46.61</ele>
        <time>2025-02-07T02:15:15.004Z</time>
      </trkpt>
      <trkpt lat="58.357349932193756" lon="12.517610974609852">
        <ele>46.52</ele>
        <time>2025-02-07T02:15:44.615Z</time>
      </trkpt>
      <trkpt lat="58.357279943302274" lon="12.517695967108011">
        <ele>46.43</ele>
        <time>2025-02-07T02:16:14.228Z</time>
      </trkpt>
      <trkpt lat="58.35720894858241" lon="12.51777995377779">
        <ele>46.35</ele>
        <time>2025-02-07T02:16:43.842Z</time>
      </trkpt>
      <trkpt lat="58.35713795386255" lon="12.51786494627595">
        <ele>46.26</ele>
        <time>2025-02-07T02:17:13.457Z</time>
      </trkpt>
      <trkpt lat="58.357066959142685" lon="12.51795094460249">
        <ele>46.18</ele>
        <time>2025-02-07T02:17:43.074Z</time>
      </trkpt>
      <trkpt lat="58.35699395276606" lon="12.51803694292903">
        <ele>46.1</ele>
        <time>2025-02-07T02:18:12.692Z</time>
      </trkpt>
      <trkpt lat="58.35692094638944" lon="12.51812394708395">
        <ele>46.02</ele>
        <time>2025-02-07T02:18:42.311Z</time>
      </trkpt>
      <trkpt lat="58.35684794001281" lon="12.518212962895632">
        <ele>45.95</ele>
        <time>2025-02-07T02:19:11.932Z</time>
      </trkpt>
      <trkpt lat="58.35677593946457" lon="12.518304996192455">
        <ele>45.88</ele>
        <time>2025-02-07T02:19:41.554Z</time>
      </trkpt>
      <trkpt lat="58.356702933087945" lon="12.518394934013486">
        <ele>45.81</ele>
        <time>2025-02-07T02:20:11.178Z</time>
      </trkpt>
      <trkpt lat="58.3566309325397" lon="12.518484955653548">
        <ele>45.73</ele>
        <time>2025-02-07T02:20:40.803Z</time>
      </trkpt>
      <trkpt lat="58.35655893199146" lon="12.51857296563685">
        <ele>45.66</ele>
        <time>2025-02-07T02:21:10.429Z</time>
      </trkpt>
      <trkpt lat="58.356486931443214" lon="12.51866097562015">
        <ele>45.59</ele>
        <time>2025-02-07T02:21:40.057Z</time>
      </trkpt>
      <trkpt lat="58.35641392506659" lon="12.518748985603452">
        <ele>45.53</ele>
        <time>2025-02-07T02:22:09.686Z</time>
      </trkpt>
      <trkpt lat="58.35634192451835" lon="12.518839929252863">
        <ele>45.45</ele>
        <time>2025-02-07T02:22:39.316Z</time>
      </trkpt>
      <trkpt lat="58.356267996132374" lon="12.518931962549686">
        <ele>45.38</ele>
        <time>2025-02-07T02:23:08.948Z</time>
      </trkpt>
      <trkpt lat="58.35619498975575" lon="12.51902299001813">
        <ele>45.32</ele>
        <time>2025-02-07T02:23:38.581Z</time>
      </trkpt>
      <trkpt lat="58.356122989207506" lon="12.51911192201078">
        <ele>45.26</ele>
        <time>2025-02-07T02:24:08.216Z</time>
      </trkpt>
      <trkpt lat="58.35605098865926" lon="12.51919993199408">
        <ele>45.19</ele>
        <time>2025-02-07T02:24:37.852Z</time>
      </trkpt>
      <trkpt lat="58.35597898811102" lon="12.519287941977382">
        <ele>45.13</ele>
        <time>2025-02-07T02:25:07.489Z</time>
      </trkpt>
      <trkpt lat="58.355907993391156" lon="12.519374946132302">
        <ele>45.07</ele>
        <time>2025-02-07T02:25:37.128Z</time>
      </trkpt>
      <trkpt lat="58.35583699867129" lon="12.519460944458842">
        <ele>45.01</ele>
        <time>2025-02-07T02:26:06.768Z</time>
      </trkpt>
      <trkpt lat="58.35576692596078" lon="12.519545936957002">
        <ele>44.96</ele>
        <time>2025-02-07T02:26:36.409Z</time>
      </trkpt>
      <trkpt lat="58.35569794289768" lon="12.519630929455161">
        <ele>44.91</ele>
        <time>2025-02-07T02:27:06.052Z</time>
      </trkpt>
      <trkpt lat="58.35563097149134" lon="12.519714999943972">
        <ele>44.86</ele>
        <time>2025-02-07T02:27:35.696Z</time>
      </trkpt>
      <trkpt lat="58.355564922094345" lon="12.519799992442131">
        <ele>44.8</ele>
        <time>2025-02-07T02:28:05.341Z</time>
      </trkpt>
      <trkpt lat="58.355497950688004" lon="12.51988297328353">
        <ele>44.75</ele>
        <time>2025-02-07T02:28:34.988Z</time>
      </trkpt>
      <trkpt lat="58.35542997345328" lon="12.519963942468166">
        <ele>44.7</ele>
        <time>2025-02-07T02:29:04.636Z</time>
      </trkpt>
      <trkpt lat="58.35536099039018" lon="12.520045917481184">
        <ele>44.65</ele>
        <time>2025-02-07T02:29:34.285Z</time>
      </trkpt>
      <trkpt lat="58.35529091767967" lon="12.520129987969995">
        <ele>44.6</ele>
        <time>2025-02-07T02:30:03.936Z</time>
      </trkpt>
      <trkpt lat="58.355218917131424" lon="12.520213974639773">
        <ele>44.55</ele>
        <time>2025-02-07T02:30:33.588Z</time>
      </trkpt>
      <trkpt lat="58.35514792241156" lon="12.520299972966313">
        <ele>44.51</ele>
        <time>2025-02-07T02:31:03.241Z</time>
      </trkpt>
      <trkpt lat="58.35507592186332" lon="12.520386977121234">
        <ele>44.47</ele>
        <time>2025-02-07T02:31:32.896Z</time>
      </trkpt>
      <trkpt lat="58.355004927143455" lon="12.520474987104535">
        <ele>44.42</ele>
        <time>2025-02-07T02:32:02.552Z</time>
      </trkpt>
      <trkpt lat="58.35493393242359" lon="12.520564924925566">
        <ele>44.37</ele>
        <time>2025-02-07T02:32:32.209Z</time>
      </trkpt>
      <trkpt lat="58.35486394353211" lon="12.520649917423725">
        <ele>44.33</ele>
        <time>2025-02-07T02:33:01.868Z</time>
      </trkpt>
      <trkpt lat="58.35479496046901" lon="12.520735999569297">
        <ele>44.29</ele>
        <time>2025-02-07T02:33:31.528Z</time>
      </trkpt>
      <trkpt lat="58.354725977405906" lon="12.520821997895837">
        <ele>44.25</ele>
        <time>2025-02-07T02:34:01.189Z</time>
      </trkpt>
      <trkpt lat="58.35465791635215" lon="12.520907996222377">
        <ele>44.21</ele>
        <time>2025-02-07T02:34:30.852Z</time>
      </trkpt>
      <trkpt lat="58.35459094494581" lon="12.520997934043407">
        <ele>44.18</ele>
        <time>2025-02-07T02:35:00.516Z</time>
      </trkpt>
      <trkpt lat="58.35452397353947" lon="12.52108795568347">
        <ele>44.14</ele>
        <time>2025-02-07T02:35:30.181Z</time>
      </trkpt>
      <trkpt lat="58.3544569183141" lon="12.521178983151913">
        <ele>44.1</ele>
        <time>2025-02-07T02:35:59.848Z</time>
      </trkpt>
      <trkpt lat="58.35439095273614" lon="12.521274955943227">
        <ele>44.06</ele>
        <time>2025-02-07T02:36:29.516Z</time>
      </trkpt>
      <trkpt lat="58.35432498715818" lon="12.521370928734541">
        <ele>44.03</ele>
        <time>2025-02-07T02:36:59.185Z</time>
      </trkpt>
      <trkpt lat="58.35425793193281" lon="12.521466985344887">
        <ele>43.99</ele>
        <time>2025-02-07T02:37:28.856Z</time>
      </trkpt>
      <trkpt lat="58.35419397801161" lon="12.521563963964581">
        <ele>43.95</ele>
        <time>2025-02-07T02:37:58.528Z</time>
      </trkpt>
      <trkpt lat="58.35412994027138" lon="12.521659936755896">
        <ele>43.92</ele>
        <time>2025-02-07T02:38:28.201Z</time>
      </trkpt>
      <trkpt lat="58.35406799800694" lon="12.521756999194622">
        <ele>43.89</ele>
        <time>2025-02-07T02:38:57.875Z</time>
      </trkpt>
      <trkpt lat="58.35400697775185" lon="12.521853977814317">
        <ele>43.86</ele>
        <time>2025-02-07T02:39:27.551Z</time>
      </trkpt>
      <trkpt lat="58.35394696332514" lon="12.52194995060563">
        <ele>43.83</ele>
        <time>2025-02-07T02:39:57.228Z</time>
      </trkpt>
      <trkpt lat="58.353886948898435" lon="12.522046929225326">
        <ele>43.79</ele>
        <time>2025-02-07T02:40:26.906Z</time>
      </trkpt>
      <trkpt lat="58.353826934471726" lon="12.522145919501781">
        <ele>43.76</ele>
        <time>2025-02-07T02:40:56.586Z</time>
      </trkpt>
      <trkpt lat="58.3537679258734" lon="12.522246921434999">
        <ele>43.73</ele>
        <time>2025-02-07T02:41:26.267Z</time>
      </trkpt>
      <trkpt lat="58.35370891727507" lon="12.522346917539835">
        <ele>43.7</ele>
        <time>2025-02-07T02:41:55.949Z</time>
      </trkpt>
      <trkpt lat="58.353649992495775" lon="12.522448925301433">
        <ele>43.67</ele>
        <time>2025-02-07T02:42:25.632Z</time>
      </trkpt>
      <trkpt lat="58.35359198972583" lon="12.52255093306303">
        <ele>43.64</ele>
        <time>2025-02-07T02:42:55.317Z</time>
      </trkpt>
      <trkpt lat="58.35353398695588" lon="12.52265696413815">
        <ele>43.62</ele>
        <time>2025-02-07T02:43:25.003Z</time>
      </trkpt>
      <trkpt lat="58.353475984185934" lon="12.52276299521327">
        <ele>43.59</ele>
        <time>2025-02-07T02:43:54.690Z</time>
      </trkpt>
      <trkpt lat="58.35341999307275" lon="12.522868942469358">
        <ele>43.56</ele>
        <time>2025-02-07T02:44:24.378Z</time>
      </trkpt>
      <trkpt lat="58.35336391814053" lon="12.522973967716098">
        <ele>43.54</ele>
        <time>2025-02-07T02:44:54.068Z</time>
      </trkpt>
      <trkpt lat="58.353308932855725" lon="12.523078992962837">
        <ele>43.51</ele>
        <time>2025-02-07T02:45:23.759Z</time>
      </trkpt>
      <trkpt lat="58.35325595922768" lon="12.523183934390545">
        <ele>43.49</ele>
        <time>2025-02-07T02:45:53.451Z</time>
      </trkpt>
      <trkpt lat="58.35320298559964" lon="12.523288959637284">
        <ele>43.46</ele>
        <time>2025-02-07T02:46:23.144Z</time>
      </trkpt>
      <trkpt lat="58.35315193980932" lon="12.523395996540785">
        <ele>43.43</ele>
        <time>2025-02-07T02:46:52.839Z</time>
      </trkpt>
      <trkpt lat="58.35310198366642" lon="12.523506972938776">
        <ele>43.41</ele>
        <time>2025-02-07T02:47:22.535Z</time>
      </trkpt>
      <trkpt lat="58.353050937876105" lon="12.523617949336767">
        <ele>43.39</ele>
        <time>2025-02-07T02:47:52.232Z</time>
      </trkpt>
      <trkpt lat="58.35299695841968" lon="12.523728925734758">
        <ele>43.36</ele>
        <time>2025-02-07T02:48:21.930Z</time>
      </trkpt>
      <trkpt lat="58.352942978963256" lon="12.523840991780162">
        <ele>43.34</ele>
        <time>2025-02-07T02:48:51.630Z</time>
      </trkpt>
      <trkpt lat="58.35288992151618" lon="12.523955991491675">
        <ele>43.32</ele>
        <time>2025-02-07T02:49:21.331Z</time>
      </trkpt>
      <trkpt lat="58.35283795371652" lon="12.52407593652606">
        <ele>43.3</ele>
        <time>2025-02-07T02:49:51.033Z</time>
      </trkpt>
      <trkpt lat="58.35278498008847" lon="12.524196971207857">
        <ele>43.27</ele>
        <time>2025-02-07T02:50:20.737Z</time>
      </trkpt>
      <trkpt lat="58.3527319226414" lon="12.524318927899003">
        <ele>43.26</ele>
        <time>2025-02-07T02:50:50.442Z</time>
      </trkpt>
      <trkpt lat="58.35267794318497" lon="12.524441974237561">
        <ele>43.24</ele>
        <time>2025-02-07T02:51:20.148Z</time>
      </trkpt>
      <trkpt lat="58.35262496955693" lon="12.524566948413849">
        <ele>43.22</ele>
        <time>2025-02-07T02:51:49.856Z</time>
      </trkpt>
      <trkpt lat="58.35257392376661" lon="12.524692928418517">
        <ele>43.2</ele>
        <time>2025-02-07T02:52:19.565Z</time>
      </trkpt>
      <trkpt lat="58.35252396762371" lon="12.524818992242217">
        <ele>43.18</ele>
        <time>2025-02-07T02:52:49.275Z</time>
      </trkpt>
      <trkpt lat="58.352472921833396" lon="12.524944972246885">
        <ele>43.16</ele>
        <time>2025-02-07T02:53:18.987Z</time>
      </trkpt>
      <trkpt lat="58.352422965690494" lon="12.525071958079934">
        <ele>43.14</ele>
        <time>2025-02-07T02:53:48.700Z</time>
      </trkpt>
      <trkpt lat="58.35237493738532" lon="12.525198943912983">
        <ele>43.13</ele>
        <time>2025-02-07T02:54:18.414Z</time>
      </trkpt>
      <trkpt lat="58.35232699289918" lon="12.525324923917651">
        <ele>43.12</ele>
        <time>2025-02-07T02:54:48.130Z</time>
      </trkpt>
      <trkpt lat="58.35228097625077" lon="12.525452999398112">
        <ele>43.1</ele>
        <time>2025-02-07T02:55:17.847Z</time>
      </trkpt>
      <trkpt lat="58.352234959602356" lon="12.525583924725652">
        <ele>43.09</ele>
        <time>2025-02-07T02:55:47.565Z</time>
      </trkpt>
      <trkpt lat="58.352188942953944" lon="12.525715939700603">
        <ele>43.07</ele>
        <time>2025-02-07T02:56:17.285Z</time>
      </trkpt>
      <trkpt lat="58.35214393213391" lon="12.525847954675555">
        <ele>43.06</ele>
        <time>2025-02-07T02:56:47.006Z</time>
      </trkpt>
      <trkpt lat="58.35209992714226" lon="12.525978963822126">
        <ele>43.06</ele>
        <time>2025-02-07T02:57:16.728Z</time>
      </trkpt>
      <trkpt lat="58.35205692797899" lon="12.526107961311936">
        <ele>43.05</ele>
        <time>2025-02-07T02:57:46.452Z</time>
      </trkpt>
      <trkpt lat="58.3520149346441" lon="12.526237964630127">
        <ele>43.04</ele>
        <time>2025-02-07T02:58:16.177Z</time>
      </trkpt>
      <trkpt lat="58.351973947137594" lon="12.526367967948318">
        <ele>43.03</ele>
        <time>2025-02-07T02:58:45.903Z</time>
      </trkpt>
      <trkpt lat="58.351933965459466" lon="12.52650098875165">
        <ele>43.02</ele>
        <time>2025-02-07T02:59:15.630Z</time>
      </trkpt>
      <trkpt lat="58.35189297795296" lon="12.526634931564331">
        <ele>43.01</ele>
        <time>2025-02-07T02:59:45.359Z</time>
      </trkpt>
      <trkpt lat="58.35185199044645" lon="12.526771975681186">
        <ele>43.0</ele>
        <time>2025-02-07T03:00:15.089Z</time>
      </trkpt>
      <trkpt lat="58.35181192494929" lon="12.52691094763577">
        <ele>43.0</ele>
        <time>2025-02-07T03:00:44.820Z</time>
      </trkpt>
      <trkpt lat="58.35177395492792" lon="12.527051931247115">
        <ele>42.99</ele>
        <time>2025-02-07T03:01:14.553Z</time>
      </trkpt>
      <trkpt lat="58.351734979078174" lon="12.527192998677492">
        <ele>42.99</ele>
        <time>2025-02-07T03:01:44.287Z</time>
      </trkpt>
      <trkpt lat="58.351696925237775" lon="12.527332976460457">
        <ele>42.98</ele>
        <time>2025-02-07T03:02:14.022Z</time>
      </trkpt>
      <trkpt lat="58.35165895521641" lon="12.52746993675828">
        <ele>42.97</ele>
        <time>2025-02-07T03:02:43.759Z</time>
      </trkpt>
      <trkpt lat="58.35162199102342" lon="12.527606980875134">
        <ele>42.96</ele>
        <time>2025-02-07T03:03:13.497Z</time>
      </trkpt>
      <trkpt lat="58.351585948839784" lon="12.527745952829719">
        <ele>42.96</ele>
        <time>2025-02-07T03:03:43.236Z</time>
      </trkpt>
      <trkpt lat="58.35154999047518" lon="12.527883918955922">
        <ele>42.96</ele>
        <time>2025-02-07T03:04:12.977Z</time>
      </trkpt>
      <trkpt lat="58.35151294246316" lon="12.528022974729538">
        <ele>42.97</ele>
        <time>2025-02-07T03:04:42.719Z</time>
      </trkpt>
      <trkpt lat="58.35147597827017" lon="12.528159935027361">
        <ele>42.97</ele>
        <time>2025-02-07T03:05:12.462Z</time>
      </trkpt>
      <trkpt lat="58.351437924429774" lon="12.528293961659074">
        <ele>42.97</ele>
        <time>2025-02-07T03:05:42.206Z</time>
      </trkpt>
      <trkpt lat="58.35140096023679" lon="12.528427988290787">
        <ele>42.97</ele>
        <time>2025-02-07T03:06:11.952Z</time>
      </trkpt>
      <trkpt lat="58.3513639960438" lon="12.528561931103468">
        <ele>42.98</ele>
        <time>2025-02-07T03:06:41.699Z</time>
      </trkpt>
      <trkpt lat="58.351327953860164" lon="12.528697969391942">
        <ele>42.98</ele>
        <time>2025-02-07T03:07:11.447Z</time>
      </trkpt>
      <trkpt lat="58.35129098966718" lon="12.528834929689765">
        <ele>42.98</ele>
        <time>2025-02-07T03:07:41.197Z</time>
      </trkpt>
      <trkpt lat="58.35125494748354" lon="12.52897398546338">
        <ele>42.98</ele>
        <time>2025-02-07T03:08:10.948Z</time>
      </trkpt>
      <trkpt lat="58.35121798329055" lon="12.529112957417965">
        <ele>42.99</ele>
        <time>2025-02-07T03:08:40.700Z</time>
      </trkpt>
      <trkpt lat="58.351179929450154" lon="12.52925293520093">
        <ele>42.99</ele>
        <time>2025-02-07T03:09:10.454Z</time>
      </trkpt>
      <trkpt lat="58.35114296525717" lon="12.529392996802926">
        <ele>43.0</ele>
        <time>2025-02-07T03:09:40.209Z</time>
      </trkpt>
      <trkpt lat="58.35110591724515" lon="12.529534986242652">
        <ele>43.0</ele>
        <time>2025-02-07T03:10:09.965Z</time>
      </trkpt>
      <trkpt lat="58.3510669413954" lon="12.529678987339139">
        <ele>43.0</ele>
        <time>2025-02-07T03:10:39.723Z</time>
      </trkpt>
      <trkpt lat="58.351029977202415" lon="12.529824916273355">
        <ele>43.01</ele>
        <time>2025-02-07T03:11:09.482Z</time>
      </trkpt>
      <trkpt lat="58.3509929291904" lon="12.529971934854984">
        <ele>43.01</ele>
        <time>2025-02-07T03:11:39.242Z</time>
      </trkpt>
      <trkpt lat="58.35095294751227" lon="12.530119959264994">
        <ele>43.02</ele>
        <time>2025-02-07T03:12:09.004Z</time>
      </trkpt>
      <trkpt lat="58.35091397166252" lon="12.530264966189861">
        <ele>43.03</ele>
        <time>2025-02-07T03:12:38.767Z</time>
      </trkpt>
      <trkpt lat="58.3508769236505" lon="12.530409973114729">
        <ele>43.03</ele>
        <time>2025-02-07T03:13:08.531Z</time>
      </trkpt>
      <trkpt lat="58.35083995945752" lon="12.530550956726074">
        <ele>43.04</ele>
        <time>2025-02-07T03:13:38.297Z</time>
      </trkpt>
      <trkpt lat="58.35080098360777" lon="12.530688922852278">
        <ele>43.05</ele>
        <time>2025-02-07T03:14:08.064Z</time>
      </trkpt>
      <trkpt lat="58.35076292976737" lon="12.530824961140752">
        <ele>43.05</ele>
        <time>2025-02-07T03:14:37.832Z</time>
      </trkpt>
      <trkpt lat="58.350724959746" lon="12.530962927266955">
        <ele>43.06</ele>
        <time>2025-02-07T03:15:07.602Z</time>
      </trkpt>
      <trkpt lat="58.350686989724636" lon="12.531101983040571">
        <ele>43.07</ele>
        <time>2025-02-07T03:15:37.373Z</time>
      </trkpt>
      <trkpt lat="58.35064893588424" lon="12.531242966651917">
        <ele>43.08</ele>
        <time>2025-02-07T03:16:07.145Z</time>
      </trkpt>
      <trkpt lat="58.35060996003449" lon="12.531384956091642">
        <ele>43.09</ele>
        <time>2025-02-07T03:16:36.919Z</time>
      </trkpt>
      <trkpt lat="58.35056997835636" lon="12.531526945531368">
        <ele>43.1</ele>
        <time>2025-02-07T03:17:06.694Z</time>
      </trkpt>
      <trkpt lat="58.35052899084985" lon="12.531670946627855">
        <ele>43.11</ele>
        <time>2025-02-07T03:17:36.470Z</time>
      </trkpt>
      <trkpt lat="58.35048892535269" lon="12.531816959381104">
        <ele>43.12</ele>
        <time>2025-02-07T03:18:06.248Z</time>
      </trkpt>
      <trkpt lat="58.350448943674564" lon="12.531962972134352">
        <ele>43.13</ele>
        <time>2025-02-07T03:18:36.027Z</time>
      </trkpt>
      <trkpt lat="58.35040996782482" lon="12.53210797905922">
        <ele>43.14</ele>
        <time>2025-02-07T03:19:05.808Z</time>
      </trkpt>
      <trkpt lat="58.35037199780345" lon="12.532251980155706">
        <ele>43.15</ele>
        <time>2025-02-07T03:19:35.590Z</time>
      </trkpt>
      <trkpt lat="58.35033293813467" lon="12.532393969595432">
        <ele>43.16</ele>
        <time>2025-02-07T03:20:05.373Z</time>
      </trkpt>
      <trkpt lat="58.3502949681133" lon="12.532534953206778">
        <ele>43.17</ele>
        <time>2025-02-07T03:20:35.158Z</time>
      </trkpt>
      <trkpt lat="58.350256998091936" lon="12.532675936818123">
        <ele>43.19</ele>
        <time>2025-02-07T03:21:04.944Z</time>
      </trkpt>
      <trkpt lat="58.35021894425154" lon="12.53281599842012">
        <ele>43.2</ele>
        <time>2025-02-07T03:21:34.731Z</time>
      </trkpt>
      <trkpt lat="58.35017996840179" lon="12.532952958717942">
        <ele>43.21</ele>
        <time>2025-02-07T03:22:04.520Z</time>
      </trkpt>
      <trkpt lat="58.35014292038977" lon="12.533090924844146">
        <ele>43.22</ele>
        <time>2025-02-07T03:22:34.310Z</time>
      </trkpt>
      <trkpt lat="58.350104950368404" lon="12.533228974789381">
        <ele>43.24</ele>
        <time>2025-02-07T03:23:04.101Z</time>
      </trkpt>
      <trkpt lat="58.35006698034704" lon="12.533367946743965">
        <ele>43.25</ele>
        <time>2025-02-07T03:23:33.894Z</time>
      </trkpt>
      <trkpt lat="58.35002892650664" lon="12.53350893035531">
        <ele>43.26</ele>
        <time>2025-02-07T03:24:03.688Z</time>
      </trkpt>
      <trkpt lat="58.34998995065689" lon="12.533650919795036">
        <ele>43.28</ele>
        <time>2025-02-07T03:24:33.483Z</time>
      </trkpt>
      <trkpt lat="58.34995097480714" lon="12.533794920891523">
        <ele>43.3</ele>
        <time>2025-02-07T03:25:03.280Z</time>
      </trkpt>
      <trkpt lat="58.349910993129015" lon="12.533939927816391">
        <ele>43.32</ele>
        <time>2025-02-07T03:25:33.078Z</time>
      </trkpt>
      <trkpt lat="58.349870927631855" lon="12.53408594056964">
        <ele>43.33</ele>
        <time>2025-02-07T03:26:02.877Z</time>
      </trkpt>
      <trkpt lat="58.34983094595373" lon="12.534232959151268">
        <ele>43.34</ele>
        <time>2025-02-07T03:26:32.678Z</time>
      </trkpt>
      <trkpt lat="58.3497909642756" lon="12.534378971904516">
        <ele>43.36</ele>
        <time>2025-02-07T03:27:02.480Z</time>
      </trkpt>
      <trkpt lat="58.34975098259747" lon="12.534523978829384">
        <ele>43.38</ele>
        <time>2025-02-07T03:27:32.284Z</time>
      </trkpt>
      <trkpt lat="58.34970999509096" lon="12.534669991582632">
        <ele>43.38</ele>
        <time>2025-02-07T03:28:02.089Z</time>
      </trkpt>
      <trkpt lat="58.34967093542218" lon="12.534815920516849">
        <ele>43.4</ele>
        <time>2025-02-07T03:28:31.895Z</time>
      </trkpt>
      <trkpt lat="58.349630953744054" lon="12.534959921613336">
        <ele>43.41</ele>
        <time>2025-02-07T03:29:01.703Z</time>
      </trkpt>
      <trkpt lat="58.349591977894306" lon="12.535099983215332">
        <ele>43.43</ele>
        <time>2025-02-07T03:29:31.512Z</time>
      </trkpt>
      <trkpt lat="58.34955291822553" lon="12.535240966826677">
        <ele>43.45</ele>
        <time>2025-02-07T03:30:01.322Z</time>
      </trkpt>
      <trkpt lat="58.34951494820416" lon="12.535380944609642">
        <ele>43.46</ele>
        <time>2025-02-07T03:30:31.134Z</time>
      </trkpt>
      <trkpt lat="58.34947697818279" lon="12.535519916564226">
        <ele>43.48</ele>
        <time>2025-02-07T03:31:00.947Z</time>
      </trkpt>
      <trkpt lat="58.349438924342394" lon="12.535658972337842">
        <ele>43.5</ele>
        <time>2025-02-07T03:31:30.761Z</time>
      </trkpt>
      <trkpt lat="58.34940095432103" lon="12.535796938464046">
        <ele>43.52</ele>
        <time>2025-02-07T03:32:00.577Z</time>
      </trkpt>
      <trkpt lat="58.34936399012804" lon="12.53593691624701">
        <ele>43.53</ele>
        <time>2025-02-07T03:32:30.394Z</time>
      </trkpt>
      <trkpt lat="58.34932694211602" lon="12.536076977849007">
        <ele>43.55</ele>
        <time>2025-02-07T03:33:00.212Z</time>
      </trkpt>
      <trkpt lat="58.349288972094655" lon="12.536218967288733">
        <ele>43.57</ele>
        <time>2025-02-07T03:33:30.032Z</time>
      </trkpt>
      <trkpt lat="58.34925192408264" lon="12.536359950900078">
        <ele>43.59</ele>
        <time>2025-02-07T03:33:59.853Z</time>
      </trkpt>
      <trkpt lat="58.34921395406127" lon="12.536500934511423">
        <ele>43.61</ele>
        <time>2025-02-07T03:34:29.675Z</time>
      </trkpt>
      <trkpt lat="58.34917698986828" lon="12.53664099611342">
        <ele>43.63</ele>
        <time>2025-02-07T03:34:59.499Z</time>
      </trkpt>
      <trkpt lat="58.349139941856265" lon="12.536780973896384">
        <ele>43.64</ele>
        <time>2025-02-07T03:35:29.324Z</time>
      </trkpt>
      <trkpt lat="58.34910297766328" lon="12.536919945850968">
        <ele>43.66</ele>
        <time>2025-02-07T03:35:59.150Z</time>
      </trkpt>
      <trkpt lat="58.34906492382288" lon="12.537057995796204">
        <ele>43.68</ele>
        <time>2025-02-07T03:36:28.978Z</time>
      </trkpt>
      <trkpt lat="58.34902795962989" lon="12.537196967750788">
        <ele>43.7</ele>
        <time>2025-02-07T03:36:58.807Z</time>
      </trkpt>
      <trkpt lat="58.348989989608526" lon="12.537336945533752">
        <ele>43.72</ele>
        <time>2025-02-07T03:37:28.637Z</time>
      </trkpt>
      <trkpt lat="58.34895193576813" lon="12.537476923316717">
        <ele>43.74</ele>
        <time>2025-02-07T03:37:58.469Z</time>
      </trkpt>
      <trkpt lat="58.34891497157514" lon="12.537619918584824">
        <ele>43.76</ele>
        <time>2025-02-07T03:38:28.302Z</time>
      </trkpt>
      <trkpt lat="58.34887691773474" lon="12.537761991843581">
        <ele>43.78</ele>
        <time>2025-02-07T03:38:58.136Z</time>
      </trkpt>
      <trkpt lat="58.348837941884995" lon="12.537904987111688">
        <ele>43.81</ele>
        <time>2025-02-07T03:39:27.972Z</time>
      </trkpt>
      <trkpt lat="58.34879997186363" lon="12.538047982379794">
        <ele>43.83</ele>
        <time>2025-02-07T03:39:57.809Z</time>
      </trkpt>
      <trkpt lat="58.34876099601388" lon="12.53818997181952">
        <ele>43.85</ele>
        <time>2025-02-07T03:40:27.647Z</time>
      </trkpt>
      <trkpt lat="58.3487219363451" lon="12.538330955430865">
        <ele>43.87</ele>
        <time>2025-02-07T03:40:57.487Z</time>
      </trkpt>
      <trkpt lat="58.348684972152114" lon="12.53847093321383">
        <ele>43.89</ele>
        <time>2025-02-07T03:41:27.328Z</time>
      </trkpt>
      <trkpt lat="58.348646918311715" lon="12.538609988987446">
        <ele>43.91</ele>
        <time>2025-02-07T03:41:57.170Z</time>
      </trkpt>
      <trkpt lat="58.34860894829035" lon="12.53874795511365">
        <ele>43.94</ele>
        <time>2025-02-07T03:42:27.014Z</time>
      </trkpt>
      <trkpt lat="58.34857298992574" lon="12.538886927068233">
        <ele>43.96</ele>
        <time>2025-02-07T03:42:56.859Z</time>
      </trkpt>
      <trkpt lat="58.348535941913724" lon="12.539023971185088">
        <ele>43.98</ele>
        <time>2025-02-07T03:43:26.705Z</time>
      </trkpt>
      <trkpt lat="58.34849897772074" lon="12.539161937311292">
        <ele>44.0</ele>
        <time>2025-02-07T03:43:56.553Z</time>
      </trkpt>
      <trkpt lat="58.34846092388034" lon="12.539300993084908">
        <ele>44.03</ele>
        <time>2025-02-07T03:44:26.402Z</time>
      </trkpt>
      <trkpt lat="58.34842295385897" lon="12.539439965039492">
        <ele>44.05</ele>
        <time>2025-02-07T03:44:56.252Z</time>
      </trkpt>
      <trkpt lat="58.348384983837605" lon="12.539578936994076">
        <ele>44.07</ele>
        <time>2025-02-07T03:45:26.103Z</time>
      </trkpt>
      <trkpt lat="58.348346929997206" lon="12.539718998596072">
        <ele>44.1</ele>
        <time>2025-02-07T03:45:55.956Z</time>
      </trkpt>
      <trkpt lat="58.34830895997584" lon="12.539858976379037">
        <ele>44.12</ele>
        <time>2025-02-07T03:46:25.810Z</time>
      </trkpt>
      <trkpt lat="58.34827199578285" lon="12.539997948333621">
        <ele>44.14</ele>
        <time>2025-02-07T03:46:55.665Z</time>
      </trkpt>
      <trkpt lat="58.34823293611407" lon="12.540136920288205">
        <ele>44.17</ele>
        <time>2025-02-07T03:47:25.522Z</time>
      </trkpt>
      <trkpt lat="58.348195971921086" lon="12.54027497023344">
        <ele>44.19</ele>
        <time>2025-02-07T03:47:55.380Z</time>
      </trkpt>
      <trkpt lat="58.34815699607134" lon="12.540411930531263">
        <ele>44.22</ele>
        <time>2025-02-07T03:48:25.239Z</time>
      </trkpt>
      <trkpt lat="58.34811994805932" lon="12.540549980476499">
        <ele>44.24</ele>
        <time>2025-02-07T03:48:55.100Z</time>
      </trkpt>
      <trkpt lat="58.348082983866334" lon="12.540688952431083">
        <ele>44.27</ele>
        <time>2025-02-07T03:49:24.962Z</time>
      </trkpt>
      <trkpt lat="58.348044930025935" lon="12.540826918557286">
        <ele>44.29</ele>
        <time>2025-02-07T03:49:54.825Z</time>
      </trkpt>
      <trkpt lat="58.34800595417619" lon="12.540963962674141">
        <ele>44.32</ele>
        <time>2025-02-07T03:50:24.690Z</time>
      </trkpt>
      <trkpt lat="58.34796798415482" lon="12.541101928800344">
        <ele>44.34</ele>
        <time>2025-02-07T03:50:54.556Z</time>
      </trkpt>
      <trkpt lat="58.3479309361428" lon="12.54123997874558">
        <ele>44.37</ele>
        <time>2025-02-07T03:51:24.423Z</time>
      </trkpt>
      <trkpt lat="58.347893971949816" lon="12.541378950700164">
        <ele>44.4</ele>
        <time>2025-02-07T03:51:54.292Z</time>
      </trkpt>
      <trkpt lat="58.3478569239378" lon="12.541518928483129">
        <ele>44.42</ele>
        <time>2025-02-07T03:52:24.162Z</time>
      </trkpt>
      <trkpt lat="58.34781895391643" lon="12.541659995913506">
        <ele>44.45</ele>
        <time>2025-02-07T03:52:54.033Z</time>
      </trkpt>
      <trkpt lat="58.34778098389506" lon="12.541801985353231">
        <ele>44.47</ele>
        <time>2025-02-07T03:53:23.906Z</time>
      </trkpt>
      <trkpt lat="58.347741924226284" lon="12.541944980621338">
        <ele>44.5</ele>
        <time>2025-02-07T03:53:53.780Z</time>
      </trkpt>
      <trkpt lat="58.347702948376536" lon="12.542090993374586">
        <ele>44.53</ele>
        <time>2025-02-07T03:54:23.655Z</time>
      </trkpt>
      <trkpt lat="58.34766397252679" lon="12.542236922308803">
        <ele>44.55</ele>
        <time>2025-02-07T03:54:53.532Z</time>
      </trkpt>
      <trkpt lat="58.34762399084866" lon="12.542383940890431">
        <ele>44.58</ele>
        <time>2025-02-07T03:55:23.410Z</time>
      </trkpt>
      <trkpt lat="58.34758493117988" lon="12.54252995364368">
        <ele>44.61</ele>
        <time>2025-02-07T03:55:53.289Z</time>
      </trkpt>
      <trkpt lat="58.34754494950175" lon="12.542675966396928">
        <ele>44.64</ele>
        <time>2025-02-07T03:56:23.170Z</time>
      </trkpt>
      <trkpt lat="58.347505973652005" lon="12.542820973321795">
        <ele>44.66</ele>
        <time>2025-02-07T03:56:53.052Z</time>
      </trkpt>
      <trkpt lat="58.34746599197388" lon="12.542967991903424">
        <ele>44.69</ele>
        <time>2025-02-07T03:57:22.936Z</time>
      </trkpt>
      <trkpt lat="58.34742592647672" lon="12.543114926666021">
        <ele>44.72</ele>
        <time>2025-02-07T03:57:52.821Z</time>
      </trkpt>
      <trkpt lat="58.34738594479859" lon="12.54326194524765">
        <ele>44.75</ele>
        <time>2025-02-07T03:58:22.707Z</time>
      </trkpt>
      <trkpt lat="58.34734596312046" lon="12.54340996965766">
        <ele>44.77</ele>
        <time>2025-02-07T03:58:52.595Z</time>
      </trkpt>
      <trkpt lat="58.34730598144233" lon="12.543557994067669">
        <ele>44.8</ele>
        <time>2025-02-07T03:59:22.484Z</time>
      </trkpt>
      <trkpt lat="58.34726499393582" lon="12.543704928830266">
        <ele>44.83</ele>
        <time>2025-02-07T03:59:52.375Z</time>
      </trkpt>
      <trkpt lat="58.3472229167819" lon="12.543850941583514">
        <ele>44.86</ele>
        <time>2025-02-07T04:00:22.267Z</time>
      </trkpt>
      <trkpt lat="58.34718092344701" lon="12.543994942680001">
        <ele>44.88</ele>
        <time>2025-02-07T04:00:52.160Z</time>
      </trkpt>
      <trkpt lat="58.34713792428374" lon="12.544139949604869">
        <ele>44.91</ele>
        <time>2025-02-07T04:01:22.055Z</time>
      </trkpt>
      <trkpt lat="58.34709492512047" lon="12.544284956529737">
        <ele>44.94</ele>
        <time>2025-02-07T04:01:51.951Z</time>
      </trkpt>
      <trkpt lat="58.34705092012882" lon="12.544430969282985">
        <ele>44.97</ele>
        <time>2025-02-07T04:02:21.849Z</time>
      </trkpt>
      <trkpt lat="58.3470069989562" lon="12.544575976207852">
        <ele>45.0</ele>
        <time>2025-02-07T04:02:51.748Z</time>
      </trkpt>
      <trkpt lat="58.34696198813617" lon="12.54472098313272">
        <ele>45.02</ele>
        <time>2025-02-07T04:03:21.648Z</time>
      </trkpt>
      <trkpt lat="58.34691597148776" lon="12.544862972572446">
        <ele>45.05</ele>
        <time>2025-02-07T04:03:51.550Z</time>
      </trkpt>
      <trkpt lat="58.34687096066773" lon="12.545004962012172">
        <ele>45.08</ele>
        <time>2025-02-07T04:04:21.453Z</time>
      </trkpt>
      <trkpt lat="58.34682393819094" lon="12.545143933966756">
        <ele>45.11</ele>
        <time>2025-02-07T04:04:51.358Z</time>
      </trkpt>
      <trkpt lat="58.346776999533176" lon="12.54528097808361">
        <ele>45.14</ele>
        <time>2025-02-07T04:05:21.264Z</time>
      </trkpt>
      <trkpt lat="58.346730982884765" lon="12.545417938381433">
        <ele>45.17</ele>
        <time>2025-02-07T04:05:51.171Z</time>
      </trkpt>
      <trkpt lat="58.34668396040797" lon="12.545552970841527">
        <ele>45.2</ele>
        <time>2025-02-07T04:06:21.080Z</time>
      </trkpt>
      <trkpt lat="58.34663693793118" lon="12.54568993113935">
        <ele>45.23</ele>
        <time>2025-02-07T04:06:50.990Z</time>
      </trkpt>
      <trkpt lat="58.34658999927342" lon="12.545825969427824">
        <ele>45.26</ele>
        <time>2025-02-07T04:07:20.902Z</time>
      </trkpt>
      <trkpt lat="58.346540965139866" lon="12.545960918068886">
        <ele>45.28</ele>
        <time>2025-02-07T04:07:50.815Z</time>
      </trkpt>
      <trkpt lat="58.34649092517793" lon="12.546093938872218">
        <ele>45.31</ele>
        <time>2025-02-07T04:08:20.729Z</time>
      </trkpt>
      <trkpt lat="58.34644197486341" lon="12.54622595384717">
        <ele>45.34</ele>
        <time>2025-02-07T04:08:50.645Z</time>
      </trkpt>
      <trkpt lat="58.346391934901476" lon="12.546356962993741">
        <ele>45.37</ele>
        <time>2025-02-07T04:09:20.562Z</time>
      </trkpt>
      <trkpt lat="58.34634197875857" lon="12.546485960483551">
        <ele>45.4</ele>
        <time>2025-02-07T04:09:50.480Z</time>
      </trkpt>
      <trkpt lat="58.34629193879664" lon="12.54661395214498">
        <ele>45.43</ele>
        <time>2025-02-07T04:10:20.400Z</time>
      </trkpt>
      <trkpt lat="58.34624198265374" lon="12.546739932149649">
        <ele>45.45</ele>
        <time>2025-02-07T04:10:50.321Z</time>
      </trkpt>
      <trkpt lat="58.346192948520184" lon="12.546865995973349">
        <ele>45.48</ele>
        <time>2025-02-07T04:11:20.243Z</time>
      </trkpt>
      <trkpt lat="58.34614399820566" lon="12.546990970149636">
        <ele>45.5</ele>
        <time>2025-02-07T04:11:50.167Z</time>
      </trkpt>
      <trkpt lat="58.34609295241535" lon="12.547115944325924">
        <ele>45.53</ele>
        <time>2025-02-07T04:12:20.092Z</time>
      </trkpt>
      <trkpt lat="58.346040984615684" lon="12.547241924330592">
        <ele>45.55</ele>
        <time>2025-02-07T04:12:50.018Z</time>
      </trkpt>
      <trkpt lat="58.34598893299699" lon="12.547367988154292">
        <ele>45.58</ele>
        <time>2025-02-07T04:13:19.946Z</time>
      </trkpt>
      <trkpt lat="58.345935959368944" lon="12.5474919565022">
        <ele>45.6</ele>
        <time>2025-02-07T04:13:49.875Z</time>
      </trkpt>
      <trkpt lat="58.34588197991252" lon="12.547615924850106">
        <ele>45.63</ele>
        <time>2025-02-07T04:14:19.805Z</time>
      </trkpt>
      <trkpt lat="58.345826994627714" lon="12.547738971188664">
        <ele>45.66</ele>
        <time>2025-02-07T04:14:49.737Z</time>
      </trkpt>
      <trkpt lat="58.34577192552388" lon="12.547861933708191">
        <ele>45.68</ele>
        <time>2025-02-07T04:15:19.670Z</time>
      </trkpt>
      <trkpt lat="58.34571492858231" lon="12.547982968389988">
        <ele>45.7</ele>
        <time>2025-02-07T04:15:49.605Z</time>
      </trkpt>
      <trkpt lat="58.345657931640744" lon="12.548104925081134">
        <ele>45.73</ele>
        <time>2025-02-07T04:16:19.541Z</time>
      </trkpt>
      <trkpt lat="58.34560194052756" lon="12.548226965591311">
        <ele>45.75</ele>
        <time>2025-02-07T04:16:49.478Z</time>
      </trkpt>
      <trkpt lat="58.34554494358599" lon="12.548349928110838">
        <ele>45.77</ele>
        <time>2025-02-07T04:17:19.417Z</time>
      </trkpt>
      <trkpt lat="58.345487946644425" lon="12.548471968621016">
        <ele>45.79</ele>
        <time>2025-02-07T04:17:49.357Z</time>
      </trkpt>
      <trkpt lat="58.34542994387448" lon="12.54859291948378">
        <ele>45.8</ele>
        <time>2025-02-07T04:18:19.298Z</time>
      </trkpt>
      <trkpt lat="58.34537395276129" lon="12.548712948337197">
        <ele>45.82</ele>
        <time>2025-02-07T04:18:49.241Z</time>
      </trkpt>
      <trkpt lat="58.34531796164811" lon="12.548833983018994">
        <ele>45.84</ele>
        <time>2025-02-07T04:19:19.185Z</time>
      </trkpt>
      <trkpt lat="58.34526197053492" lon="12.548952922224998">
        <ele>45.85</ele>
        <time>2025-02-07T04:19:49.130Z</time>
      </trkpt>
      <trkpt lat="58.345205979421735" lon="12.549071945250034">
        <ele>45.87</ele>
        <time>2025-02-07T04:20:19.077Z</time>
      </trkpt>
      <trkpt lat="58.34515099413693" lon="12.549188956618309">
        <ele>45.89</ele>
        <time>2025-02-07T04:20:49.025Z</time>
      </trkpt>
      <trkpt lat="58.34509491920471" lon="12.549306973814964">
        <ele>45.91</ele>
        <time>2025-02-07T04:21:18.975Z</time>
      </trkpt>
      <trkpt lat="58.34503993391991" lon="12.549423985183239">
        <ele>45.92</ele>
        <time>2025-02-07T04:21:48.926Z</time>
      </trkpt>
      <trkpt lat="58.34498394280672" lon="12.549543930217624">
        <ele>45.94</ele>
        <time>2025-02-07T04:22:18.878Z</time>
      </trkpt>
      <trkpt lat="58.344928957521915" lon="12.54966395907104">
        <ele>45.96</ele>
        <time>2025-02-07T04:22:48.832Z</time>
      </trkpt>
      <trkpt lat="58.34487296640873" lon="12.549780970439315">
        <ele>45.97</ele>
        <time>2025-02-07T04:23:18.787Z</time>
      </trkpt>
      <trkpt lat="58.344817981123924" lon="12.54989798180759">
        <ele>45.99</ele>
        <time>2025-02-07T04:23:48.743Z</time>
      </trkpt>
      <trkpt lat="58.34476299583912" lon="12.550012981519103">
        <ele>46.0</ele>
        <time>2025-02-07T04:24:18.700Z</time>
      </trkpt>
      <trkpt lat="58.34470792673528" lon="12.550129992887378">
        <ele>46.02</ele>
        <time>2025-02-07T04:24:48.659Z</time>
      </trkpt>
      <trkpt lat="58.34465294145048" lon="12.550248932093382">
        <ele>46.04</ele>
        <time>2025-02-07T04:25:18.619Z</time>
      </trkpt>
      <trkpt lat="58.34459695033729" lon="12.550366949290037">
        <ele>46.05</ele>
        <time>2025-02-07T04:25:48.580Z</time>
      </trkpt>
      <trkpt lat="58.344541965052485" lon="12.550486978143454">
        <ele>46.06</ele>
        <time>2025-02-07T04:26:18.543Z</time>
      </trkpt>
      <trkpt lat="58.34448697976768" lon="12.550607929006219">
        <ele>46.07</ele>
        <time>2025-02-07T04:26:48.507Z</time>
      </trkpt>
      <trkpt lat="58.344429982826114" lon="12.550728963688016">
        <ele>46.09</ele>
        <time>2025-02-07T04:27:18.473Z</time>
      </trkpt>
      <trkpt lat="58.34437298588455" lon="12.550849998369813">
        <ele>46.1</ele>
        <time>2025-02-07T04:27:48.440Z</time>
      </trkpt>
      <trkpt lat="58.34431397728622" lon="12.550970949232578">
        <ele>46.11</ele>
        <time>2025-02-07T04:28:18.408Z</time>
      </trkpt>
      <trkpt lat="58.34425698034465" lon="12.551092989742756">
        <ele>46.12</ele>
        <time>2025-02-07T04:28:48.378Z</time>
      </trkpt>
      <trkpt lat="58.344198977574706" lon="12.551213940605521">
        <ele>46.13</ele>
        <time>2025-02-07T04:29:18.349Z</time>
      </trkpt>
      <trkpt lat="58.34414298646152" lon="12.551334975287318">
        <ele>46.14</ele>
        <time>2025-02-07T04:29:48.321Z</time>
      </trkpt>
      <trkpt lat="58.344086995348334" lon="12.551453998312354">
        <ele>46.15</ele>
        <time>2025-02-07T04:30:18.295Z</time>
      </trkpt>
      <trkpt lat="58.34403092041612" lon="12.551570925861597">
        <ele>46.16</ele>
        <time>2025-02-07T04:30:48.270Z</time>
      </trkpt>
      <trkpt lat="58.34397593513131" lon="12.551687937229872">
        <ele>46.17</ele>
        <time>2025-02-07T04:31:18.246Z</time>
      </trkpt>
      <trkpt lat="58.343920949846506" lon="12.551803942769766">
        <ele>46.17</ele>
        <time>2025-02-07T04:31:48.224Z</time>
      </trkpt>
      <trkpt lat="58.3438659645617" lon="12.55192095413804">
        <ele>46.18</ele>
        <time>2025-02-07T04:32:18.203Z</time>
      </trkpt>
      <trkpt lat="58.343810979276896" lon="12.552038971334696">
        <ele>46.19</ele>
        <time>2025-02-07T04:32:48.183Z</time>
      </trkpt>
      <trkpt lat="58.34375498816371" lon="12.55215598270297">
        <ele>46.19</ele>
        <time>2025-02-07T04:33:18.165Z</time>
      </trkpt>
      <trkpt lat="58.34369991905987" lon="12.552272994071245">
        <ele>46.2</ele>
        <time>2025-02-07T04:33:48.148Z</time>
      </trkpt>
      <trkpt lat="58.34364493377507" lon="12.55239193327725">
        <ele>46.21</ele>
        <time>2025-02-07T04:34:18.132Z</time>
      </trkpt>
      <trkpt lat="58.34358894266188" lon="12.552509950473905">
        <ele>46.22</ele>
        <time>2025-02-07T04:34:48.118Z</time>
      </trkpt>
      <trkpt lat="58.343532951548696" lon="12.55262897349894">
        <ele>46.23</ele>
        <time>2025-02-07T04:35:18.105Z</time>
      </trkpt>
      <trkpt lat="58.34347595460713" lon="12.552749924361706">
        <ele>46.24</ele>
        <time>2025-02-07T04:35:48.093Z</time>
      </trkpt>
      <trkpt lat="58.34341795183718" lon="12.55286693572998">
        <ele>46.25</ele>
        <time>2025-02-07T04:36:18.083Z</time>
      </trkpt>
      <trkpt lat="58.343359949067235" lon="12.552985958755016">
        <ele>46.26</ele>
        <time>2025-02-07T04:36:48.074Z</time>
      </trkpt>
      <trkpt lat="58.34330295212567" lon="12.553108921274543">
        <ele>46.26</ele>
        <time>2025-02-07T04:37:18.067Z</time>
      </trkpt>
      <trkpt lat="58.3432459551841" lon="12.553234985098243">
        <ele>46.27</ele>
        <time>2025-02-07T04:37:48.061Z</time>
      </trkpt>
      <trkpt lat="58.343187952414155" lon="12.55335995927453">
        <ele>46.27</ele>
        <time>2025-02-07T04:38:18.056Z</time>
      </trkpt>
      <trkpt lat="58.34312994964421" lon="12.553483927622437">
        <ele>46.27</ele>
        <time>2025-02-07T04:38:48.053Z</time>
      </trkpt>
      <trkpt lat="58.34307295270264" lon="12.553606973960996">
        <ele>46.27</ele>
        <time>2025-02-07T04:39:18.051Z</time>
      </trkpt>
      <trkpt lat="58.343013944104314" lon="12.553729936480522">
        <ele>46.27</ele>
        <time>2025-02-07T04:39:48.051Z</time>
      </trkpt>
      <trkpt lat="58.34295694716275" lon="12.55385298281908">
        <ele>46.27</ele>
        <time>2025-02-07T04:40:18.052Z</time>
      </trkpt>
      <trkpt lat="58.34289793856442" lon="12.553976951166987">
        <ele>46.27</ele>
        <time>2025-02-07T04:40:48.054Z</time>
      </trkpt>
      <trkpt lat="58.34283993579447" lon="12.554100919514894">
        <ele>46.27</ele>
        <time>2025-02-07T04:41:18.058Z</time>
      </trkpt>
      <trkpt lat="58.342781933024526" lon="12.554225977510214">
        <ele>46.26</ele>
        <time>2025-02-07T04:41:48.063Z</time>
      </trkpt>
      <trkpt lat="58.34272393025458" lon="12.55434894002974">
        <ele>46.26</ele>
        <time>2025-02-07T04:42:18.070Z</time>
      </trkpt>
      <trkpt lat="58.34266492165625" lon="12.554474920034409">
        <ele>46.26</ele>
        <time>2025-02-07T04:42:48.078Z</time>
      </trkpt>
      <trkpt lat="58.342605996876955" lon="12.554603917524219">
        <ele>46.26</ele>
        <time>2025-02-07T04:43:18.087Z</time>
      </trkpt>
      <trkpt lat="58.34254598245025" lon="12.55473199300468">
        <ele>46.26</ele>
        <time>2025-02-07T04:43:48.098Z</time>
      </trkpt>
      <trkpt lat="58.34248596802354" lon="12.554859984666109">
        <ele>46.25</ele>
        <time>2025-02-07T04:44:18.110Z</time>
      </trkpt>
      <trkpt lat="58.34242394194007" lon="12.554988982155919">
        <ele>46.25</ele>
        <time>2025-02-07T04:44:48.124Z</time>
      </trkpt>
      <trkpt lat="58.34236292168498" lon="12.55511898547411">
        <ele>46.26</ele>
        <time>2025-02-07T04:45:18.139Z</time>
      </trkpt>
      <trkpt lat="58.34230198524892" lon="12.5552489887923">
        <ele>46.26</ele>
        <time>2025-02-07T04:45:48.156Z</time>
      </trkpt>
      <trkpt lat="58.342241970822215" lon="12.555379997938871">
        <ele>46.26</ele>
        <time>2025-02-07T04:46:18.174Z</time>
      </trkpt>
      <trkpt lat="58.34218195639551" lon="12.55551092326641">
        <ele>46.26</ele>
        <time>2025-02-07T04:46:48.194Z</time>
      </trkpt>
      <trkpt lat="58.34212093614042" lon="12.555640926584601">
        <ele>46.26</ele>
        <time>2025-02-07T04:47:18.215Z</time>
      </trkpt>
      <trkpt lat="58.34205999970436" lon="12.555771935731173">
        <ele>46.26</ele>
        <time>2025-02-07T04:47:48.238Z</time>
      </trkpt>
      <trkpt lat="58.34199998527765" lon="12.555902944877744">
        <ele>46.26</ele>
        <time>2025-02-07T04:48:18.262Z</time>
      </trkpt>
      <trkpt lat="58.341940976679325" lon="12.556031942367554">
        <ele>46.26</ele>
        <time>2025-02-07T04:48:48.288Z</time>
      </trkpt>
      <trkpt lat="58.341881968081" lon="12.556157922372222">
        <ele>46.27</ele>
        <time>2025-02-07T04:49:18.315Z</time>
      </trkpt>
      <trkpt lat="58.34182295948267" lon="12.556283986195922">
        <ele>46.27</ele>
        <time>2025-02-07T04:49:48.343Z</time>
      </trkpt>
      <trkpt lat="58.34176495671272" lon="12.556405942887068">
        <ele>46.28</ele>
        <time>2025-02-07T04:50:18.373Z</time>
      </trkpt>
      <trkpt lat="58.341707959771156" lon="12.556526977568865">
        <ele>46.28</ele>
        <time>2025-02-07T04:50:48.404Z</time>
      </trkpt>
      <trkpt lat="58.34165096282959" lon="12.55664692260325">
        <ele>46.28</ele>
        <time>2025-02-07T04:51:18.436Z</time>
      </trkpt>
      <trkpt lat="58.341595977544785" lon="12.556765945628285">
        <ele>46.28</ele>
        <time>2025-02-07T04:51:48.470Z</time>
      </trkpt>
      <trkpt lat="58.3415399864316" lon="12.55688396282494">
        <ele>46.28</ele>
        <time>2025-02-07T04:52:18.505Z</time>
      </trkpt>
      <trkpt lat="58.34148399531841" lon="12.557002985849977">
        <ele>46.29</ele>
        <time>2025-02-07T04:52:48.541Z</time>
      </trkpt>
      <trkpt lat="58.341427920386195" lon="12.557122930884361">
        <ele>46.29</ele>
        <time>2025-02-07T04:53:18.579Z</time>
      </trkpt>
      <trkpt lat="58.34137192927301" lon="12.557241953909397">
        <ele>46.29</ele>
        <time>2025-02-07T04:53:48.618Z</time>
      </trkpt>
      <trkpt lat="58.34131493233144" lon="12.557362988591194">
        <ele>46.29</ele>
        <time>2025-02-07T04:54:18.659Z</time>
      </trkpt>
      <trkpt lat="58.341257935389876" lon="12.55748494528234">
        <ele>46.29</ele>
        <time>2025-02-07T04:54:48.701Z</time>
      </trkpt>
      <trkpt lat="58.34120093844831" lon="12.557605979964137">
        <ele>46.3</ele>
        <time>2025-02-07T04:55:18.744Z</time>
      </trkpt>
      <trkpt lat="58.34114293567836" lon="12.557726930826902">
        <ele>46.3</ele>
        <time>2025-02-07T04:55:48.789Z</time>
      </trkpt>
      <trkpt lat="58.341083927080035" lon="12.557850982993841">
        <ele>46.3</ele>
        <time>2025-02-07T04:56:18.835Z</time>
      </trkpt>
      <trkpt lat="58.34102693013847" lon="12.557975957170129">
        <ele>46.31</ele>
        <time>2025-02-07T04:56:48.883Z</time>
      </trkpt>
      <trkpt lat="58.34096892736852" lon="12.558100931346416">
        <ele>46.31</ele>
        <time>2025-02-07T04:57:18.932Z</time>
      </trkpt>
      <trkpt lat="58.340910924598575" lon="12.558222971856594">
        <ele>46.31</ele>
        <time>2025-02-07T04:57:48.982Z</time>
      </trkpt>
      <trkpt lat="58.34085292182863" lon="12.55834392271936">
        <ele>46.32</ele>
        <time>2025-02-07T04:58:19.034Z</time>
      </trkpt>
      <trkpt lat="58.34079491905868" lon="12.558461939916015">
        <ele>46.32</ele>
        <time>2025-02-07T04:58:49.087Z</time>
      </trkpt>
      <trkpt lat="58.340738927945495" lon="12.558577945455909">
        <ele>46.33</ele>
        <time>2025-02-07T04:59:19.141Z</time>
      </trkpt>
      <trkpt lat="58.34068394266069" lon="12.558694956824183">
        <ele>46.33</ele>
        <time>2025-02-07T04:59:49.197Z</time>
      </trkpt>
      <trkpt lat="58.340629963204265" lon="12.55881397984922">
        <ele>46.33</ele>
        <time>2025-02-07T05:00:19.254Z</time>
      </trkpt>
      <trkpt lat="58.34057497791946" lon="12.558931997045875">
        <ele>46.34</ele>
        <time>2025-02-07T05:00:49.312Z</time>
      </trkpt>
      <trkpt lat="58.34051898680627" lon="12.55905194208026">
        <ele>46.35</ele>
        <time>2025-02-07T05:01:19.372Z</time>
      </trkpt>
      <trkpt lat="58.34046299569309" lon="12.559172976762056">
        <ele>46.35</ele>
        <time>2025-02-07T05:01:49.433Z</time>
      </trkpt>
      <trkpt lat="58.34040599875152" lon="12.559293927624822">
        <ele>46.36</ele>
        <time>2025-02-07T05:02:19.495Z</time>
      </trkpt>
      <trkpt lat="58.34034891799092" lon="12.559415968135">
        <ele>46.36</ele>
        <time>2025-02-07T05:02:49.559Z</time>
      </trkpt>
      <trkpt lat="58.34029099904001" lon="12.559538930654526">
        <ele>46.37</ele>
        <time>2025-02-07T05:03:19.624Z</time>
      </trkpt>
      <trkpt lat="58.34023299627006" lon="12.559660971164703">
        <ele>46.38</ele>
        <time>2025-02-07T05:03:49.691Z</time>
      </trkpt>
      <trkpt lat="58.34017499350011" lon="12.55978292785585">
        <ele>46.38</ele>
        <time>2025-02-07T05:04:19.759Z</time>
      </trkpt>
      <trkpt lat="58.340116990730166" lon="12.559902956709266">
        <ele>46.39</ele>
        <time>2025-02-07T05:04:49.828Z</time>
      </trkpt>
      <trkpt lat="58.34006099961698" lon="12.56001996807754">
        <ele>46.4</ele>
        <time>2025-02-07T05:05:19.899Z</time>
      </trkpt>
      <trkpt lat="58.34000593051314" lon="12.560137985274196">
        <ele>46.41</ele>
        <time>2025-02-07T05:05:49.971Z</time>
      </trkpt>
      <trkpt lat="58.33994993939996" lon="12.56025793030858">
        <ele>46.42</ele>
        <time>2025-02-07T05:06:20.044Z</time>
      </trkpt>
      <trkpt lat="58.33989495411515" lon="12.560377959161997">
        <ele>46.42</ele>
        <time>2025-02-07T05:06:50.119Z</time>
      </trkpt>
      <trkpt lat="58.339837957173586" lon="12.560497988015413">
        <ele>46.43</ele>
        <time>2025-02-07T05:07:20.195Z</time>
      </trkpt>
      <trkpt lat="58.33978096023202" lon="12.560616927221417">
        <ele>46.44</ele>
        <time>2025-02-07T05:07:50.272Z</time>
      </trkpt>
      <trkpt lat="58.33972295746207" lon="12.560735950246453">
        <ele>46.45</ele>
        <time>2025-02-07T05:08:20.351Z</time>
      </trkpt>
      <trkpt lat="58.339665960520506" lon="12.560857990756631">
        <ele>46.46</ele>
        <time>2025-02-07T05:08:50.431Z</time>
      </trkpt>
      <trkpt lat="58.33960996940732" lon="12.560977935791016">
        <ele>46.47</ele>
        <time>2025-02-07T05:09:20.513Z</time>
      </trkpt>
      <trkpt lat="58.339552972465754" lon="12.561097964644432">
        <ele>46.48</ele>
        <time>2025-02-07T05:09:50.596Z</time>
      </trkpt>
      <trkpt lat="58.33949798718095" lon="12.561217993497849">
        <ele>46.49</ele>
        <time>2025-02-07T05:10:20.680Z</time>
      </trkpt>
      <trkpt lat="58.33944199606776" lon="12.561336932703853">
        <ele>46.5</ele>
        <time>2025-02-07T05:10:50.766Z</time>
      </trkpt>
      <trkpt lat="58.339384999126196" lon="12.561455955728889">
        <ele>46.52</ele>
        <time>2025-02-07T05:11:20.853Z</time>
      </trkpt>
      <trkpt lat="58.3393279183656" lon="12.561574978753924">
        <ele>46.53</ele>
        <time>2025-02-07T05:11:50.941Z</time>
      </trkpt>
      <trkpt lat="58.33927293308079" lon="12.561694923788309">
        <ele>46.54</ele>
        <time>2025-02-07T05:12:21.031Z</time>
      </trkpt>
      <trkpt lat="58.33921794779599" lon="12.561813946813345">
        <ele>46.55</ele>
        <time>2025-02-07T05:12:51.122Z</time>
      </trkpt>
      <trkpt lat="58.3391619566828" lon="12.56193296983838">
        <ele>46.56</ele>
        <time>2025-02-07T05:13:21.214Z</time>
      </trkpt>
      <trkpt lat="58.339105965569615" lon="12.562050987035036">
        <ele>46.58</ele>
        <time>2025-02-07T05:13:51.308Z</time>
      </trkpt>
      <trkpt lat="58.33904896862805" lon="12.56216992624104">
        <ele>46.59</ele>
        <time>2025-02-07T05:14:21.403Z</time>
      </trkpt>
      <trkpt lat="58.33899297751486" lon="12.562287943437696">
        <ele>46.6</ele>
        <time>2025-02-07T05:14:51.499Z</time>
      </trkpt>
      <trkpt lat="58.33893698640168" lon="12.562406966462731">
        <ele>46.62</ele>
        <time>2025-02-07T05:15:21.597Z</time>
      </trkpt>
      <trkpt lat="58.33888191729784" lon="12.562525989487767">
        <ele>46.63</ele>
        <time>2025-02-07T05:15:51.696Z</time>
      </trkpt>
      <trkpt lat="58.338825926184654" lon="12.56264392286539">
        <ele>46.65</ele>
        <time>2025-02-07T05:16:21.796Z</time>
      </trkpt>
      <trkpt lat="58.33876892924309" lon="12.562763951718807">
        <ele>46.66</ele>
        <time>2025-02-07T05:16:51.898Z</time>
      </trkpt>
      <trkpt lat="58.33871193230152" lon="12.562885992228985">
        <ele>46.68</ele>
        <time>2025-02-07T05:17:22.001Z</time>
      </trkpt>
      <trkpt lat="58.338654935359955" lon="12.56300794892013">
        <ele>46.7</ele>
        <time>2025-02-07T05:17:52.105Z</time>
      </trkpt>
      <trkpt lat="58.33859693259001" lon="12.563130995258689">
        <ele>46.72</ele>
        <time>2025-02-07T05:18:22.211Z</time>
      </trkpt>
      <trkpt lat="58.33853892982006" lon="12.563253957778215">
        <ele>46.74</ele>
        <time>2025-02-07T05:18:52.318Z</time>
      </trkpt>
      <trkpt lat="58.338480927050114" lon="12.563375998288393">
        <ele>46.75</ele>
        <time>2025-02-07T05:19:22.427Z</time>
      </trkpt>
      <trkpt lat="58.33842292428017" lon="12.56350097246468">
        <ele>46.77</ele>
        <time>2025-02-07T05:19:52.537Z</time>
      </trkpt>
      <trkpt lat="58.33836492151022" lon="12.563625946640968">
        <ele>46.78</ele>
        <time>2025-02-07T05:20:22.648Z</time>
      </trkpt>
      <trkpt lat="58.33830691874027" lon="12.563749998807907">
        <ele>46.8</ele>
        <time>2025-02-07T05:20:52.761Z</time>
      </trkpt>
      <trkpt lat="58.33824799396098" lon="12.563874972984195">
        <ele>46.82</ele>
        <time>2025-02-07T05:21:22.875Z</time>
      </trkpt>
      <trkpt lat="58.33818999119103" lon="12.563999947160482">
        <ele>46.83</ele>
        <time>2025-02-07T05:21:52.991Z</time>
      </trkpt>
      <trkpt lat="58.3381309825927" lon="12.564123999327421">
        <ele>46.85</ele>
        <time>2025-02-07T05:22:23.108Z</time>
      </trkpt>
      <trkpt lat="58.338071973994374" lon="12.564247967675328">
        <ele>46.87</ele>
        <time>2025-02-07T05:22:53.227Z</time>
      </trkpt>
      <trkpt lat="58.33801296539605" lon="12.564371936023235">
        <ele>46.89</ele>
        <time>2025-02-07T05:23:23.347Z</time>
      </trkpt>
      <trkpt lat="58.3379549626261" lon="12.564496994018555">
        <ele>46.9</ele>
        <time>2025-02-07T05:23:53.468Z</time>
      </trkpt>
      <trkpt lat="58.33789695985615" lon="12.564621968194842">
        <ele>46.92</ele>
        <time>2025-02-07T05:24:23.591Z</time>
      </trkpt>
      <trkpt lat="58.337838957086205" lon="12.564744930714369">
        <ele>46.94</ele>
        <time>2025-02-07T05:24:53.715Z</time>
      </trkpt>
      <trkpt lat="58.33778095431626" lon="12.564867977052927">
        <ele>46.96</ele>
        <time>2025-02-07T05:25:23.841Z</time>
      </trkpt>
      <trkpt lat="58.33772295154631" lon="12.564989933744073">
        <ele>46.97</ele>
        <time>2025-02-07T05:25:53.968Z</time>
      </trkpt>
      <trkpt lat="58.337664948776364" lon="12.565113985911012">
        <ele>46.99</ele>
        <time>2025-02-07T05:26:24.096Z</time>
      </trkpt>
      <trkpt lat="58.33760694600642" lon="12.565237954258919">
        <ele>47.01</ele>
        <time>2025-02-07T05:26:54.226Z</time>
      </trkpt>
      <trkpt lat="58.33754793740809" lon="12.565360916778445">
        <ele>47.03</ele>
        <time>2025-02-07T05:27:24.357Z</time>
      </trkpt>
      <trkpt lat="58.33748993463814" lon="12.565482957288623">
        <ele>47.05</ele>
        <time>2025-02-07T05:27:54.490Z</time>
      </trkpt>
      <trkpt lat="58.337430926039815" lon="12.5656049977988">
        <ele>47.07</ele>
        <time>2025-02-07T05:28:24.624Z</time>
      </trkpt>
      <trkpt lat="58.33737392909825" lon="12.565725948661566">
        <ele>47.08</ele>
        <time>2025-02-07T05:28:54.759Z</time>
      </trkpt>
      <trkpt lat="58.33731793798506" lon="12.565847989171743">
        <ele>47.1</ele>
        <time>2025-02-07T05:29:24.896Z</time>
      </trkpt>
      <trkpt lat="58.33726194687188" lon="12.56597095169127">
        <ele>47.11</ele>
        <time>2025-02-07T05:29:55.034Z</time>
      </trkpt>
      <trkpt lat="58.33720494993031" lon="12.566093998029828">
        <ele>47.13</ele>
        <time>2025-02-07T05:30:25.173Z</time>
      </trkpt>
      <trkpt lat="58.33714694716036" lon="12.566216960549355">
        <ele>47.15</ele>
        <time>2025-02-07T05:30:55.314Z</time>
      </trkpt>
      <trkpt lat="58.337088944390416" lon="12.566339923068881">
        <ele>47.18</ele>
        <time>2025-02-07T05:31:25.456Z</time>
      </trkpt>
      <trkpt lat="58.33702993579209" lon="12.566460957750678">
        <ele>47.2</ele>
        <time>2025-02-07T05:31:55.600Z</time>
      </trkpt>
      <trkpt lat="58.33697193302214" lon="12.566579980775714">
        <ele>47.22</ele>
        <time>2025-02-07T05:32:25.745Z</time>
      </trkpt>
      <trkpt lat="58.336913930252194" lon="12.56669799797237">
        <ele>47.23</ele>
        <time>2025-02-07T05:32:55.891Z</time>
      </trkpt>
      <trkpt lat="58.33685592748225" lon="12.566812997683883">
        <ele>47.25</ele>
        <time>2025-02-07T05:33:26.039Z</time>
      </trkpt>
      <trkpt lat="58.33679993636906" lon="12.566925985738635">
        <ele>47.27</ele>
        <time>2025-02-07T05:33:56.188Z</time>
      </trkpt>
      <trkpt lat="58.336743945255876" lon="12.567037967965007">
        <ele>47.29</ele>
        <time>2025-02-07T05:34:26.338Z</time>
      </trkpt>
      <trkpt lat="58.33668694831431" lon="12.567148944362998">
        <ele>47.31</ele>
        <time>2025-02-07T05:34:56.490Z</time>
      </trkpt>
      <trkpt lat="58.33662793971598" lon="12.56725992076099">
        <ele>47.33</ele>
        <time>2025-02-07T05:35:26.643Z</time>
      </trkpt>
      <trkpt lat="58.336565997451544" lon="12.567370980978012">
        <ele>47.35</ele>
        <time>2025-02-07T05:35:56.797Z</time>
      </trkpt>
      <trkpt lat="58.336502965539694" lon="12.567479945719242">
        <ele>47.37</ele>
        <time>2025-02-07T05:36:26.953Z</time>
      </trkpt>
      <trkpt lat="58.33643892779946" lon="12.567585976794362">
        <ele>47.39</ele>
        <time>2025-02-07T05:36:57.110Z</time>
      </trkpt>
      <trkpt lat="58.336373968049884" lon="12.56768798455596">
        <ele>47.42</ele>
        <time>2025-02-07T05:37:27.268Z</time>
      </trkpt>
      <trkpt lat="58.33630993030965" lon="12.567784963175654">
        <ele>47.44</ele>
        <time>2025-02-07T05:37:57.428Z</time>
      </trkpt>
      <trkpt lat="58.336246982216835" lon="12.567878924310207">
        <ele>47.46</ele>
        <time>2025-02-07T05:38:27.589Z</time>
      </trkpt>
      <trkpt lat="58.336182944476604" lon="12.567971963435411">
        <ele>47.47</ele>
        <time>2025-02-07T05:38:57.751Z</time>
      </trkpt>
      <trkpt lat="58.336115973070264" lon="12.568060979247093">
        <ele>47.49</ele>
        <time>2025-02-07T05:39:27.915Z</time>
      </trkpt>
      <trkpt lat="58.33604699000716" lon="12.568147983402014">
        <ele>47.5</ele>
        <time>2025-02-07T05:39:58.080Z</time>
      </trkpt>
      <trkpt lat="58.33597892895341" lon="12.568235993385315">
        <ele>47.52</ele>
        <time>2025-02-07T05:40:28.246Z</time>
      </trkpt>
      <trkpt lat="58.33590994589031" lon="12.568326937034726">
        <ele>47.54</ele>
        <time>2025-02-07T05:40:58.414Z</time>
      </trkpt>
      <trkpt lat="58.335840962827206" lon="12.568416958674788">
        <ele>47.55</ele>
        <time>2025-02-07T05:41:28.583Z</time>
      </trkpt>
      <trkpt lat="58.33577097393572" lon="12.56850698031485">
        <ele>47.57</ele>
        <time>2025-02-07T05:41:58.753Z</time>
      </trkpt>
      <trkpt lat="58.335702996701" lon="12.568595996126533">
        <ele>47.59</ele>
        <time>2025-02-07T05:42:28.925Z</time>
      </trkpt>
      <trkpt lat="58.33563594147563" lon="12.568680988624692">
        <ele>47.62</ele>
        <time>2025-02-07T05:42:59.098Z</time>
      </trkpt>
      <trkpt lat="58.33556897006929" lon="12.56876296363771">
        <ele>47.64</ele>
        <time>2025-02-07T05:43:29.272Z</time>
      </trkpt>
      <trkpt lat="58.3355029206723" lon="12.568844938650727">
        <ele>47.66</ele>
        <time>2025-02-07T05:43:59.447Z</time>
      </trkpt>
      <trkpt lat="58.33543594926596" lon="12.568926997482777">
        <ele>47.68</ele>
        <time>2025-02-07T05:44:29.624Z</time>
      </trkpt>
      <trkpt lat="58.335369983688" lon="12.569008972495794">
        <ele>47.69</ele>
        <time>2025-02-07T05:44:59.802Z</time>
      </trkpt>
      <trkpt lat="58.335301922634244" lon="12.569089941680431">
        <ele>47.71</ele>
        <time>2025-02-07T05:45:29.981Z</time>
      </trkpt>
      <trkpt lat="58.33523394539952" lon="12.569168983027339">
        <ele>47.72</ele>
        <time>2025-02-07T05:46:00.162Z</time>
      </trkpt>
      <trkpt lat="58.3351659681648" lon="12.569248946383595">
        <ele>47.73</ele>
        <time>2025-02-07T05:46:30.344Z</time>
      </trkpt>
      <trkpt lat="58.33509799093008" lon="12.569328993558884">
        <ele>47.73</ele>
        <time>2025-02-07T05:47:00.527Z</time>
      </trkpt>
      <trkpt lat="58.33503093570471" lon="12.56940996274352">
        <ele>47.74</ele>
        <time>2025-02-07T05:47:30.711Z</time>
      </trkpt>
      <trkpt lat="58.33496295846999" lon="12.569491937756538">
        <ele>47.75</ele>
        <time>2025-02-07T05:48:00.897Z</time>
      </trkpt>
      <trkpt lat="58.334895987063646" lon="12.569575924426317">
        <ele>47.76</ele>
        <time>2025-02-07T05:48:31.084Z</time>
      </trkpt>
      <trkpt lat="58.33482792600989" lon="12.569658989086747">
        <ele>47.77</ele>
        <time>2025-02-07T05:49:01.272Z</time>
      </trkpt>
      <trkpt lat="58.33475793711841" lon="12.569740964099765">
        <ele>47.78</ele>
        <time>2025-02-07T05:49:31.462Z</time>
      </trkpt>
      <trkpt lat="58.33468794822693" lon="12.569823944941163">
        <ele>47.79</ele>
        <time>2025-02-07T05:50:01.653Z</time>
      </trkpt>
      <trkpt lat="58.334615947678685" lon="12.569908937439322">
        <ele>47.8</ele>
        <time>2025-02-07T05:50:31.845Z</time>
      </trkpt>
      <trkpt lat="58.33454294130206" lon="12.569992924109101">
        <ele>47.81</ele>
        <time>2025-02-07T05:51:02.039Z</time>
      </trkpt>
      <trkpt lat="58.33447094075382" lon="12.57007791660726">
        <ele>47.83</ele>
        <time>2025-02-07T05:51:32.234Z</time>
      </trkpt>
      <trkpt lat="58.33439793437719" lon="12.570161987096071">
        <ele>47.84</ele>
        <time>2025-02-07T05:52:02.430Z</time>
      </trkpt>
      <trkpt lat="58.33432392217219" lon="12.570247985422611">
        <ele>47.85</ele>
        <time>2025-02-07T05:52:32.628Z</time>
      </trkpt>
      <trkpt lat="58.334250999614596" lon="12.570333983749151">
        <ele>47.86</ele>
        <time>2025-02-07T05:53:02.827Z</time>
      </trkpt>
      <trkpt lat="58.33417899906635" lon="12.57041897624731">
        <ele>47.87</ele>
        <time>2025-02-07T05:53:33.027Z</time>
      </trkpt>
      <trkpt lat="58.33410792052746" lon="12.570500951260328">
        <ele>47.89</ele>
        <time>2025-02-07T05:54:03.229Z</time>
      </trkpt>
      <trkpt lat="58.334038937464356" lon="12.570581920444965">
        <ele>47.9</ele>
        <time>2025-02-07T05:54:33.432Z</time>
      </trkpt>
      <trkpt lat="58.333971966058016" lon="12.570663979277015">
        <ele>47.91</ele>
        <time>2025-02-07T05:55:03.636Z</time>
      </trkpt>
      <trkpt lat="58.333906922489405" lon="12.570744948461652">
        <ele>47.92</ele>
        <time>2025-02-07T05:55:33.842Z</time>
      </trkpt>
      <trkpt lat="58.33384498022497" lon="12.57082398980856">
        <ele>47.93</ele>
        <time>2025-02-07T05:56:04.049Z</time>
      </trkpt>
      <trkpt lat="58.33378395996988" lon="12.570900935679674">
        <ele>47.94</ele>
        <time>2025-02-07T05:56:34.257Z</time>
      </trkpt>
      <trkpt lat="58.33372595719993" lon="12.570973942056298">
        <ele>47.96</ele>
        <time>2025-02-07T05:57:04.466Z</time>
      </trkpt>
      <trkpt lat="58.333667954429984" lon="12.57104191929102">
        <ele>47.97</ele>
        <time>2025-02-07T05:57:34.676Z</time>
      </trkpt>
      <trkpt lat="58.33361095748842" lon="12.57110495120287">
        <ele>47.97</ele>
        <time>2025-02-07T05:58:04.887Z</time>
      </trkpt>
      <trkpt lat="58.33355597220361" lon="12.571165971457958">
        <ele>47.98</ele>
        <time>2025-02-07T05:58:35.099Z</time>
      </trkpt>
      <trkpt lat="58.33350098691881" lon="12.571227997541428">
        <ele>48.0</ele>
        <time>2025-02-07T05:59:05.312Z</time>
      </trkpt>
      <trkpt lat="58.33344591781497" lon="12.571289939805865">
        <ele>48.01</ele>
        <time>2025-02-07T05:59:35.526Z</time>
      </trkpt>
      <trkpt lat="58.333390932530165" lon="12.571352971717715">
        <ele>48.02</ele>
        <time>2025-02-07T06:00:05.741Z</time>
      </trkpt>
      <trkpt lat="58.33333594724536" lon="12.571416925638914">
        <ele>48.03</ele>
        <time>2025-02-07T06:00:35.957Z</time>
      </trkpt>
      <trkpt lat="58.33327995613217" lon="12.571479957550764">
        <ele>48.04</ele>
        <time>2025-02-07T06:01:06.174Z</time>
      </trkpt>
      <trkpt lat="58.33322597667575" lon="12.571543995290995">
        <ele>48.05</ele>
        <time>2025-02-07T06:01:36.392Z</time>
      </trkpt>
      <trkpt lat="58.33317291922867" lon="12.571606943383813">
        <ele>48.06</ele>
        <time>2025-02-07T06:02:06.611Z</time>
      </trkpt>
      <trkpt lat="58.33312195725739" lon="12.571667963638902">
        <ele>48.07</ele>
        <time>2025-02-07T06:02:36.831Z</time>
      </trkpt>
      <trkpt lat="58.33307292312384" lon="12.571725966408849">
        <ele>48.08</ele>
        <time>2025-02-07T06:03:07.052Z</time>
      </trkpt>
      <trkpt lat="58.333025984466076" lon="12.571782963350415">
        <ele>48.09</ele>
        <time>2025-02-07T06:03:37.274Z</time>
      </trkpt>
      <trkpt lat="58.3329779561609" lon="12.571840966120362">
        <ele>48.09</ele>
        <time>2025-02-07T06:04:07.497Z</time>
      </trkpt>
      <trkpt lat="58.33292992785573" lon="12.571903998032212">
        <ele>48.1</ele>
        <time>2025-02-07T06:04:37.721Z</time>
      </trkpt>
      <trkpt lat="58.33287997171283" lon="12.571968957781792">
        <ele>48.11</ele>
        <time>2025-02-07T06:05:07.946Z</time>
      </trkpt>
      <trkpt lat="58.332829931750894" lon="12.572030983865261">
        <ele>48.12</ele>
        <time>2025-02-07T06:05:38.172Z</time>
      </trkpt>
      <trkpt lat="58.33278098143637" lon="12.572088986635208">
        <ele>48.13</ele>
        <time>2025-02-07T06:06:08.399Z</time>
      </trkpt>
      <trkpt lat="58.33273898810148" lon="12.572140954434872">
        <ele>48.13</ele>
        <time>2025-02-07T06:06:38.627Z</time>
      </trkpt>
      <trkpt lat="58.332702945917845" lon="12.572180936113">
        <ele>48.14</ele>
        <time>2025-02-07T06:07:08.855Z</time>
      </trkpt>
      <trkpt lat="58.33267394453287" lon="12.572210943326354">
        <ele>48.15</ele>
        <time>2025-02-07T06:07:39.084Z</time>
      </trkpt>
      <trkpt lat="58.33264896646142" lon="12.572234999388456">
        <ele>48.16</ele>
        <time>2025-02-07T06:08:09.313Z</time>
      </trkpt>
      <trkpt lat="58.33262692205608" lon="12.572259977459908">
        <ele>48.16</ele>
        <time>2025-02-07T06:08:39.543Z</time>
      </trkpt>
      <trkpt lat="58.33261292427778" lon="12.57228696718812">
        <ele>48.17</ele>
        <time>2025-02-07T06:09:09.773Z</time>
      </trkpt>
      <trkpt lat="58.33261393010616" lon="12.572311945259571">
        <ele>48.18</ele>
        <time>2025-02-07T06:09:40.003Z</time>
      </trkpt>
      <trkpt lat="58.33262692205608" lon="12.572321919724345">
        <ele>48.18</ele>
        <time>2025-02-07T06:10:10.234Z</time>
      </trkpt>
      <trkpt lat="58.33264393731952" lon="12.572314962744713">
        <ele>48.19</ele>
        <time>2025-02-07T06:10:40.465Z</time>
      </trkpt>
      <trkpt lat="58.33266497589648" lon="12.572293924167752">
        <ele>48.19</ele>
        <time>2025-02-07T06:11:10.696Z</time>
      </trkpt>
      <trkpt lat="58.33268794231117" lon="12.572263916954398">
        <ele>48.2</ele>
        <time>2025-02-07T06:11:40.928Z</time>
      </trkpt>
      <trkpt lat="58.332713926211" lon="12.572230976074934">
        <ele>48.21</ele>
        <time>2025-02-07T06:12:11.160Z</time>
      </trkpt>
      <trkpt lat="58.332743933424354" lon="12.572195939719677">
        <ele>48.21</ele>
        <time>2025-02-07T06:12:41.393Z</time>
      </trkpt>
      <trkpt lat="58.33277695812285" lon="12.57215796969831">
        <ele>48.22</ele>
        <time>2025-02-07T06:13:11.626Z</time>
      </trkpt>
      <trkpt lat="58.332809982821345" lon="12.572116982191801">
        <ele>48.22</ele>
        <time>2025-02-07T06:13:41.860Z</time>
      </trkpt>
      <trkpt lat="58.33284493535757" lon="12.57207297720015">
        <ele>48.23</ele>
        <time>2025-02-07T06:14:12.095Z</time>
      </trkpt>
      <trkpt lat="58.33287997171283" lon="12.57202796638012">
        <ele>48.23</ele>
        <time>2025-02-07T06:14:42.330Z</time>
      </trkpt>
      <trkpt lat="58.332918947562575" lon="12.571980943903327">
        <ele>48.24</ele>
        <time>2025-02-07T06:15:12.566Z</time>
      </trkpt>
      <trkpt lat="58.332960940897465" lon="12.571933921426535">
        <ele>48.24</ele>
        <time>2025-02-07T06:15:42.803Z</time>
      </trkpt>
      <trkpt lat="58.333004945889115" lon="12.571884971112013">
        <ele>48.25</ele>
        <time>2025-02-07T06:16:13.041Z</time>
      </trkpt>
      <trkpt lat="58.33305196836591" lon="12.571832919493318">
        <ele>48.25</ele>
        <time>2025-02-07T06:16:43.280Z</time>
      </trkpt>
      <trkpt lat="58.33309999667108" lon="12.571778940036893">
        <ele>48.26</ele>
        <time>2025-02-07T06:17:13.519Z</time>
      </trkpt>
      <trkpt lat="58.3331489469856" lon="12.571720937266946">
        <ele>48.26</ele>
        <time>2025-02-07T06:17:43.759Z</time>
      </trkpt>
      <trkpt lat="58.33319898694754" lon="12.571661928668618">
        <ele>48.27</ele>
        <time>2025-02-07T06:18:14.000Z</time>
      </trkpt>
      <trkpt lat="58.3332509547472" lon="12.571601998060942">
        <ele>48.27</ele>
        <time>2025-02-07T06:18:44.242Z</time>
      </trkpt>
      <trkpt lat="58.333304934203625" lon="12.571542989462614">
        <ele>48.28</ele>
        <time>2025-02-07T06:19:14.485Z</time>
      </trkpt>
      <trkpt lat="58.33335899747908" lon="12.571481969207525">
        <ele>48.28</ele>
        <time>2025-02-07T06:19:44.729Z</time>
      </trkpt>
      <trkpt lat="58.33341398276389" lon="12.571416925638914">
        <ele>48.28</ele>
        <time>2025-02-07T06:20:14.974Z</time>
      </trkpt>
      <trkpt lat="58.33346997387707" lon="12.571349954232574">
        <ele>48.29</ele>
        <time>2025-02-07T06:20:45.220Z</time>
      </trkpt>
      <trkpt lat="58.33352697081864" lon="12.571282982826233">
        <ele>48.29</ele>
        <time>2025-02-07T06:21:15.467Z</time>
      </trkpt>
      <trkpt lat="58.333584973588586" lon="12.57121492177248">
        <ele>48.29</ele>
        <time>2025-02-07T06:21:45.716Z</time>
      </trkpt>
      <trkpt lat="58.33364398218691" lon="12.571145938709378">
        <ele>48.29</ele>
        <time>2025-02-07T06:22:15.966Z</time>
      </trkpt>
      <trkpt lat="58.33370399661362" lon="12.571074943989515">
        <ele>48.29</ele>
        <time>2025-02-07T06:22:46.217Z</time>
      </trkpt>
      <trkpt lat="58.3337639272213" lon="12.571004955098033">
        <ele>48.3</ele>
        <time>2025-02-07T06:23:16.469Z</time>
      </trkpt>
      <trkpt lat="58.333823941648006" lon="12.57093496620655">
        <ele>48.3</ele>
        <time>2025-02-07T06:23:46.722Z</time>
      </trkpt>
      <trkpt lat="58.333884961903095" lon="12.570861959829926">
        <ele>48.3</ele>
        <time>2025-02-07T06:24:16.976Z</time>
      </trkpt>
      <trkpt lat="58.333946987986565" lon="12.570786941796541">
        <ele>48.3</ele>
        <time>2025-02-07T06:24:47.231Z</time>
      </trkpt>
      <trkpt lat="58.33401094190776" lon="12.570710917934775">
        <ele>48.3</ele>
        <time>2025-02-07T06:25:17.488Z</time>
      </trkpt>
      <trkpt lat="58.334075985476375" lon="12.57063296623528">
        <ele>48.31</ele>
        <time>2025-02-07T06:25:47.746Z</time>
      </trkpt>
      <trkpt lat="58.334141951054335" lon="12.570554930716753">
        <ele>48.31</ele>
        <time>2025-02-07T06:26:18.005Z</time>
      </trkpt>
      <trkpt lat="58.334208922460675" lon="12.570476979017258">
        <ele>48.31</ele>
        <time>2025-02-07T06:26:48.265Z</time>
      </trkpt>
      <trkpt lat="58.33427597768605" lon="12.57039693184197">
        <ele>48.31</ele>
        <time>2025-02-07T06:27:18.527Z</time>
      </trkpt>
      <trkpt lat="58.33434395492077" lon="12.570317974314094">
        <ele>48.31</ele>
        <time>2025-02-07T06:27:48.790Z</time>
      </trkpt>
      <trkpt lat="58.33441092632711" lon="12.570238932967186">
        <ele>48.32</ele>
        <time>2025-02-07T06:28:19.054Z</time>
      </trkpt>
      <trkpt lat="58.3344769757241" lon="12.57016098126769">
        <ele>48.32</ele>
        <time>2025-02-07T06:28:49.319Z</time>
      </trkpt>
      <trkpt lat="58.33454193547368" lon="12.570080934092402">
        <ele>48.32</ele>
        <time>2025-02-07T06:29:19.586Z</time>
      </trkpt>
      <trkpt lat="58.33460697904229" lon="12.570003988221288">
        <ele>48.32</ele>
        <time>2025-02-07T06:29:49.854Z</time>
      </trkpt>
      <trkpt lat="58.33467193879187" lon="12.569929976016283">
        <ele>48.32</ele>
        <time>2025-02-07T06:30:20.123Z</time>
      </trkpt>
      <trkpt lat="58.33473698236048" lon="12.569856969639659">
        <ele>48.32</ele>
        <time>2025-02-07T06:30:50.393Z</time>
      </trkpt>
      <trkpt lat="58.33480194211006" lon="12.569780945777893">
        <ele>48.32</ele>
        <time>2025-02-07T06:31:20.665Z</time>
      </trkpt>
      <trkpt lat="58.33486698567867" lon="12.569701988250017">
        <ele>48.33</ele>
        <time>2025-02-07T06:31:50.938Z</time>
      </trkpt>
      <trkpt lat="58.33493194542825" lon="12.56962395273149">
        <ele>48.33</ele>
        <time>2025-02-07T06:32:21.212Z</time>
      </trkpt>
      <trkpt lat="58.334997994825244" lon="12.569545917212963">
        <ele>48.34</ele>
        <time>2025-02-07T06:32:51.487Z</time>
      </trkpt>
      <trkpt lat="58.33506295457482" lon="12.569465953856707">
        <ele>48.34</ele>
        <time>2025-02-07T06:33:21.763Z</time>
      </trkpt>
      <trkpt lat="58.335126992315054" lon="12.56938699632883">
        <ele>48.35</ele>
        <time>2025-02-07T06:33:52.041Z</time>
      </trkpt>
      <trkpt lat="58.33519195206463" lon="12.569311978295445">
        <ele>48.36</ele>
        <time>2025-02-07T06:34:22.320Z</time>
      </trkpt>
      <trkpt lat="58.335255989804864" lon="12.569238971918821">
        <ele>48.36</ele>
        <time>2025-02-07T06:34:52.600Z</time>
      </trkpt>
      <trkpt lat="58.335321955382824" lon="12.56917493417859">
        <ele>48.36</ele>
        <time>2025-02-07T06:35:22.881Z</time>
      </trkpt>
      <trkpt lat="58.335391944274306" lon="12.56913092918694">
        <ele>48.36</ele>
        <time>2025-02-07T06:35:53.163Z</time>
      </trkpt>
      <trkpt lat="58.33546394482255" lon="12.569115925580263">
        <ele>48.36</ele>
        <time>2025-02-07T06:36:23.447Z</time>
      </trkpt>
      <trkpt lat="58.33553594537079" lon="12.569136964157224">
        <ele>48.36</ele>
        <time>2025-02-07T06:36:53.732Z</time>
      </trkpt>
      <trkpt lat="58.335599983111024" lon="12.569196978583932">
        <ele>48.35</ele>
        <time>2025-02-07T06:37:24.018Z</time>
      </trkpt>
      <trkpt lat="58.33565496839583" lon="12.569283982738853">
        <ele>48.35</ele>
        <time>2025-02-07T06:37:54.305Z</time>
      </trkpt>
      <trkpt lat="58.33570693619549" lon="12.569380961358547">
        <ele>48.35</ele>
        <time>2025-02-07T06:38:24.593Z</time>
      </trkpt>
      <trkpt lat="58.3357619214803" lon="12.569468971341848">
        <ele>48.35</ele>
        <time>2025-02-07T06:38:54.882Z</time>
      </trkpt>
      <trkpt lat="58.335821935907006" lon="12.569546923041344">
        <ele>48.34</ele>
        <time>2025-02-07T06:39:25.173Z</time>
      </trkpt>
      <trkpt lat="58.335882956162095" lon="12.569612972438335">
        <ele>48.34</ele>
        <time>2025-02-07T06:39:55.465Z</time>
      </trkpt>
      <trkpt lat="58.335949927568436" lon="12.569662928581238">
        <ele>48.34</ele>
        <time>2025-02-07T06:40:25.758Z</time>
      </trkpt>
      <trkpt lat="58.33601597696543" lon="12.569699976593256">
        <ele>48.33</ele>
        <time>2025-02-07T06:40:56.052Z</time>
      </trkpt>
      <trkpt lat="58.336077919229865" lon="12.56973291747272">
        <ele>48.33</ele>
        <time>2025-02-07T06:41:26.347Z</time>
      </trkpt>
      <trkpt lat="58.33613793365657" lon="12.569756973534822">
        <ele>48.32</ele>
        <time>2025-02-07T06:41:56.643Z</time>
      </trkpt>
      <trkpt lat="58.33619895391166" lon="12.569774994626641">
        <ele>48.31</ele>
        <time>2025-02-07T06:42:26.940Z</time>
      </trkpt>
      <trkpt lat="58.33625796250999" lon="12.569799972698092">
        <ele>48.31</ele>
        <time>2025-02-07T06:42:57.238Z</time>
      </trkpt>
      <trkpt lat="58.33631596527994" lon="12.569827968254685">
        <ele>48.3</ele>
        <time>2025-02-07T06:43:27.537Z</time>
      </trkpt>
      <trkpt lat="58.336374973878264" lon="12.569853952154517">
        <ele>48.29</ele>
        <time>2025-02-07T06:43:57.837Z</time>
      </trkpt>
      <trkpt lat="58.33643297664821" lon="12.569873984903097">
        <ele>48.29</ele>
        <time>2025-02-07T06:44:28.138Z</time>
      </trkpt>
      <trkpt lat="58.33649097941816" lon="12.569894939661026">
        <ele>48.28</ele>
        <time>2025-02-07T06:44:58.440Z</time>
      </trkpt>
      <trkpt lat="58.336545964702964" lon="12.569917989894748">
        <ele>48.27</ele>
        <time>2025-02-07T06:45:28.743Z</time>
      </trkpt>
      <trkpt lat="58.33659994415939" lon="12.569942967966199">
        <ele>48.26</ele>
        <time>2025-02-07T06:45:59.047Z</time>
      </trkpt>
      <trkpt lat="58.336655935272574" lon="12.56996895186603">
        <ele>48.25</ele>
        <time>2025-02-07T06:46:29.352Z</time>
      </trkpt>
      <trkpt lat="58.33670999854803" lon="12.569996947422624">
        <ele>48.24</ele>
        <time>2025-02-07T06:46:59.657Z</time>
      </trkpt>
      <trkpt lat="58.336762972176075" lon="12.570026954635978">
        <ele>48.23</ele>
        <time>2025-02-07T06:47:29.963Z</time>
      </trkpt>
      <trkpt lat="58.3368169516325" lon="12.570055956020951">
        <ele>48.22</ele>
        <time>2025-02-07T06:48:00.270Z</time>
      </trkpt>
      <trkpt lat="58.336871936917305" lon="12.570086969062686">
        <ele>48.21</ele>
        <time>2025-02-07T06:48:30.578Z</time>
      </trkpt>
      <trkpt lat="58.33692893385887" lon="12.570118987932801">
        <ele>48.2</ele>
        <time>2025-02-07T06:49:00.887Z</time>
      </trkpt>
      <trkpt lat="58.33698593080044" lon="12.570153940469027">
        <ele>48.19</ele>
        <time>2025-02-07T06:49:31.197Z</time>
      </trkpt>
      <trkpt lat="58.337044939398766" lon="12.570191994309425">
        <ele>48.18</ele>
        <time>2025-02-07T06:50:01.508Z</time>
      </trkpt>
      <trkpt lat="58.33710394799709" lon="12.570230970159173">
        <ele>48.18</ele>
        <time>2025-02-07T06:50:31.820Z</time>
      </trkpt>
      <trkpt lat="58.33716295659542" lon="12.57026894018054">
        <ele>48.17</ele>
        <time>2025-02-07T06:51:02.133Z</time>
      </trkpt>
      <trkpt lat="58.33722196519375" lon="12.570304982364178">
        <ele>48.16</ele>
        <time>2025-02-07T06:51:32.447Z</time>
      </trkpt>
      <trkpt lat="58.337279967963696" lon="12.570341946557164">
        <ele>48.15</ele>
        <time>2025-02-07T06:52:02.762Z</time>
      </trkpt>
      <trkpt lat="58.33733797073364" lon="12.570379916578531">
        <ele>48.14</ele>
        <time>2025-02-07T06:52:33.078Z</time>
      </trkpt>
      <trkpt lat="58.33739597350359" lon="12.570419982075691">
        <ele>48.13</ele>
        <time>2025-02-07T06:53:03.395Z</time>
      </trkpt>
      <trkpt lat="58.33745397627354" lon="12.5704609695822">
        <ele>48.12</ele>
        <time>2025-02-07T06:53:33.713Z</time>
      </trkpt>
      <trkpt lat="58.337511979043484" lon="12.570499945431948">
        <ele>48.11</ele>
        <time>2025-02-07T06:54:04.032Z</time>
      </trkpt>
      <trkpt lat="58.33757098764181" lon="12.570535987615585">
        <ele>48.11</ele>
        <time>2025-02-07T06:54:34.352Z</time>
      </trkpt>
      <trkpt lat="58.33762798458338" lon="12.57056993432343">
        <ele>48.1</ele>
        <time>2025-02-07T06:55:04.673Z</time>
      </trkpt>
      <trkpt lat="58.337685987353325" lon="12.57060999982059">
        <ele>48.09</ele>
        <time>2025-02-07T06:55:34.995Z</time>
      </trkpt>
      <trkpt lat="58.33774499595165" lon="12.57065299898386">
        <ele>48.08</ele>
        <time>2025-02-07T06:56:05.318Z</time>
      </trkpt>
      <trkpt lat="58.33780693821609" lon="12.570692980661988">
        <ele>48.07</ele>
        <time>2025-02-07T06:56:35.642Z</time>
      </trkpt>
      <trkpt lat="58.33786997012794" lon="12.570732962340117">
        <ele>48.06</ele>
        <time>2025-02-07T06:57:05.967Z</time>
      </trkpt>
      <trkpt lat="58.33793392404914" lon="12.570772944018245">
        <ele>48.05</ele>
        <time>2025-02-07T06:57:36.293Z</time>
      </trkpt>
      <trkpt lat="58.33799796178937" lon="12.570812925696373">
        <ele>48.04</ele>
        <time>2025-02-07T06:58:06.620Z</time>
      </trkpt>
      <trkpt lat="58.33806099370122" lon="12.570853997021914">
        <ele>48.04</ele>
        <time>2025-02-07T06:58:36.948Z</time>
      </trkpt>
      <trkpt lat="58.33812293596566" lon="12.570896996185184">
        <ele>48.03</ele>
        <time>2025-02-07T06:59:07.277Z</time>
      </trkpt>
      <trkpt lat="58.33818697370589" lon="12.570940917357802">
        <ele>48.02</ele>
        <time>2025-02-07T06:59:37.607Z</time>
      </trkpt>
      <trkpt lat="58.33825193345547" lon="12.570984922349453">
        <ele>48.01</ele>
        <time>2025-02-07T07:00:07.939Z</time>
      </trkpt>
      <trkpt lat="58.33831798285246" lon="12.571029933169484">
        <ele>48.0</ele>
        <time>2025-02-07T07:00:38.272Z</time>
      </trkpt>
      <trkpt lat="58.33838394843042" lon="12.571076955646276">
        <ele>47.99</ele>
        <time>2025-02-07T07:01:08.606Z</time>
      </trkpt>
      <trkpt lat="58.33844999782741" lon="12.57112498395145">
        <ele>47.99</ele>
        <time>2025-02-07T07:01:38.941Z</time>
      </trkpt>
      <trkpt lat="58.33851696923375" lon="12.571173934265971">
        <ele>47.98</ele>
        <time>2025-02-07T07:02:09.277Z</time>
      </trkpt>
      <trkpt lat="58.33858293481171" lon="12.571222968399525">
        <ele>47.97</ele>
        <time>2025-02-07T07:02:39.614Z</time>
      </trkpt>
      <trkpt lat="58.33864797838032" lon="12.571273930370808">
        <ele>47.96</ele>
        <time>2025-02-07T07:03:09.952Z</time>
      </trkpt>
      <trkpt lat="58.3387129381299" lon="12.571328999474645">
        <ele>47.96</ele>
        <time>2025-02-07T07:03:40.291Z</time>
      </trkpt>
      <trkpt lat="58.33877798169851" lon="12.571389935910702">
        <ele>47.95</ele>
        <time>2025-02-07T07:04:10.632Z</time>
      </trkpt>
      <trkpt lat="58.33884294144809" lon="12.571454979479313">
        <ele>47.94</ele>
        <time>2025-02-07T07:04:40.974Z</time>
      </trkpt>
      <trkpt lat="58.33890697918832" lon="12.571526980027556">
        <ele>47.93</ele>
        <time>2025-02-07T07:05:11.317Z</time>
      </trkpt>
      <trkpt lat="58.33896892145276" lon="12.57160292007029">
        <ele>47.93</ele>
        <time>2025-02-07T07:05:41.661Z</time>
      </trkpt>
      <trkpt lat="58.33902893587947" lon="12.571682967245579">
        <ele>47.92</ele>
        <time>2025-02-07T07:06:12.006Z</time>
      </trkpt>
      <trkpt lat="58.339085932821035" lon="12.571765948086977">
        <ele>47.91</ele>
        <time>2025-02-07T07:06:42.352Z</time>
      </trkpt>
      <trkpt lat="58.33914192393422" lon="12.571853958070278">
        <ele>47.9</ele>
        <time>2025-02-07T07:07:12.700Z</time>
      </trkpt>
      <trkpt lat="58.33919598720968" lon="12.571946997195482">
        <ele>47.89</ele>
        <time>2025-02-07T07:07:43.049Z</time>
      </trkpt>
      <trkpt lat="58.3392499666661" lon="12.572042969986796">
        <ele>47.89</ele>
        <time>2025-02-07T07:08:13.399Z</time>
      </trkpt>
      <trkpt lat="58.33930294029415" lon="12.572143971920013">
        <ele>47.88</ele>
        <time>2025-02-07T07:08:43.750Z</time>
      </trkpt>
      <trkpt lat="58.33935298025608" lon="12.572246985509992">
        <ele>47.88</ele>
        <time>2025-02-07T07:09:14.102Z</time>
      </trkpt>
      <trkpt lat="58.3394019305706" lon="12.57234999909997">
        <ele>47.87</ele>
        <time>2025-02-07T07:09:44.456Z</time>
      </trkpt>
      <trkpt lat="58.339448953047395" lon="12.572451923042536">
        <ele>47.87</ele>
        <time>2025-02-07T07:10:14.811Z</time>
      </trkpt>
      <trkpt lat="58.339493963867426" lon="12.572553930804133">
        <ele>47.87</ele>
        <time>2025-02-07T07:10:45.167Z</time>
      </trkpt>
      <trkpt lat="58.339535957202315" lon="12.572657950222492">
        <ele>47.86</ele>
        <time>2025-02-07T07:11:15.524Z</time>
      </trkpt>
      <trkpt lat="58.339576944708824" lon="12.572763981297612">
        <ele>47.86</ele>
        <time>2025-02-07T07:11:45.882Z</time>
      </trkpt>
      <trkpt lat="58.33961592055857" lon="12.572873951867223">
        <ele>47.86</ele>
        <time>2025-02-07T07:12:16.241Z</time>
      </trkpt>
      <trkpt lat="58.33965397439897" lon="12.572982916608453">
        <ele>47.86</ele>
        <time>2025-02-07T07:12:46.601Z</time>
      </trkpt>
      <trkpt lat="58.33969093859196" lon="12.573088947683573">
        <ele>47.85</ele>
        <time>2025-02-07T07:13:16.962Z</time>
      </trkpt>
      <trkpt lat="58.339727986603975" lon="12.573194978758693">
        <ele>47.85</ele>
        <time>2025-02-07T07:13:47.324Z</time>
      </trkpt>
      <trkpt lat="58.33976595662534" lon="12.573303943499923">
        <ele>47.85</ele>
        <time>2025-02-07T07:14:17.688Z</time>
      </trkpt>
      <trkpt lat="58.33980493247509" lon="12.573413997888565">
        <ele>47.85</ele>
        <time>2025-02-07T07:14:48.053Z</time>
      </trkpt>
      <trkpt lat="58.33984399214387" lon="12.573526985943317">
        <ele>47.85</ele>
        <time>2025-02-07T07:15:18.419Z</time>
      </trkpt>
      <trkpt lat="58.33988196216524" lon="12.57364097982645">
        <ele>47.85</ele>
        <time>2025-02-07T07:15:48.786Z</time>
      </trkpt>
      <trkpt lat="58.33991892635822" lon="12.573753967881203">
        <ele>47.85</ele>
        <time>2025-02-07T07:16:19.154Z</time>
      </trkpt>
      <trkpt lat="58.339957986027" lon="12.573868967592716">
        <ele>47.85</ele>
        <time>2025-02-07T07:16:49.523Z</time>
      </trkpt>
      <trkpt lat="58.33999696187675" lon="12.573986984789371">
        <ele>47.86</ele>
        <time>2025-02-07T07:17:19.893Z</time>
      </trkpt>
      <trkpt lat="58.3400359377265" lon="12.574105923995376">
        <ele>47.86</ele>
        <time>2025-02-07T07:17:50.265Z</time>
      </trkpt>
      <trkpt lat="58.340075919404626" lon="12.574225952848792">
        <ele>47.87</ele>
        <time>2025-02-07T07:18:20.638Z</time>
      </trkpt>
      <trkpt lat="58.340116990730166" lon="12.57434899918735">
        <ele>47.87</ele>
        <time>2025-02-07T07:18:51.012Z</time>
      </trkpt>
      <trkpt lat="58.340157978236675" lon="12.574471961706877">
        <ele>47.87</ele>
        <time>2025-02-07T07:19:21.387Z</time>
      </trkpt>
      <trkpt lat="58.3401979599148" lon="12.574594924226403">
        <ele>47.88</ele>
        <time>2025-02-07T07:19:51.763Z</time>
      </trkpt>
      <trkpt lat="58.34023894742131" lon="12.574717970564961">
        <ele>47.88</ele>
        <time>2025-02-07T07:20:22.141Z</time>
      </trkpt>
      <trkpt lat="58.34027892909944" lon="12.574840933084488">
        <ele>47.89</ele>
        <time>2025-02-07T07:20:52.520Z</time>
      </trkpt>
      <trkpt lat="58.34031798876822" lon="12.574961967766285">
        <ele>47.9</ele>
        <time>2025-02-07T07:21:22.900Z</time>
      </trkpt>
      <trkpt lat="58.34035696461797" lon="12.57508099079132">
        <ele>47.9</ele>
        <time>2025-02-07T07:21:53.281Z</time>
      </trkpt>
      <trkpt lat="58.340396946296096" lon="12.575199929997325">
        <ele>47.91</ele>
        <time>2025-02-07T07:22:23.663Z</time>
      </trkpt>
      <trkpt lat="58.340436927974224" lon="12.57531794719398">
        <ele>47.91</ele>
        <time>2025-02-07T07:22:54.047Z</time>
      </trkpt>
      <trkpt lat="58.340476993471384" lon="12.575435964390635">
        <ele>47.92</ele>
        <time>2025-02-07T07:23:24.432Z</time>
      </trkpt>
      <trkpt lat="58.34051798097789" lon="12.575554987415671">
        <ele>47.92</ele>
        <time>2025-02-07T07:23:54.818Z</time>
      </trkpt>
      <trkpt lat="58.3405589684844" lon="12.575675938278437">
        <ele>47.93</ele>
        <time>2025-02-07T07:24:25.205Z</time>
      </trkpt>
      <trkpt lat="58.34059895016253" lon="12.575796972960234">
        <ele>47.94</ele>
        <time>2025-02-07T07:24:55.593Z</time>
      </trkpt>
      <trkpt lat="58.34063893184066" lon="12.57591993547976">
        <ele>47.95</ele>
        <time>2025-02-07T07:25:25.983Z</time>
      </trkpt>
      <trkpt lat="58.34067991934717" lon="12.576042981818318">
        <ele>47.95</ele>
        <time>2025-02-07T07:25:56.374Z</time>
      </trkpt>
      <trkpt lat="58.34072099067271" lon="12.576165944337845">
        <ele>47.96</ele>
        <time>2025-02-07T07:26:26.766Z</time>
      </trkpt>
      <trkpt lat="58.340760972350836" lon="12.576289996504784">
        <ele>47.96</ele>
        <time>2025-02-07T07:26:57.159Z</time>
      </trkpt>
      <trkpt lat="58.340800954028964" lon="12.57641396485269">
        <ele>47.97</ele>
        <time>2025-02-07T07:27:27.554Z</time>
      </trkpt>
      <trkpt lat="58.34084093570709" lon="12.576535921543837">
        <ele>47.97</ele>
        <time>2025-02-07T07:27:57.950Z</time>
      </trkpt>
      <trkpt lat="58.34087999537587" lon="12.576657962054014">
        <ele>47.98</ele>
        <time>2025-02-07T07:28:28.347Z</time>
      </trkpt>
      <trkpt lat="58.340919977054" lon="12.576781930401921">
        <ele>47.98</ele>
        <time>2025-02-07T07:28:58.745Z</time>
      </trkpt>
      <trkpt lat="58.34096197038889" lon="12.57690497674048">
        <ele>47.99</ele>
        <time>2025-02-07T07:29:29.144Z</time>
      </trkpt>
      <trkpt lat="58.34100496955216" lon="12.577027939260006">
        <ele>48.0</ele>
        <time>2025-02-07T07:29:59.545Z</time>
      </trkpt>
      <trkpt lat="58.34104595705867" lon="12.577152997255325">
        <ele>48.0</ele>
        <time>2025-02-07T07:30:29.947Z</time>
      </trkpt>
      <trkpt lat="58.34108795039356" lon="12.577278977259994">
        <ele>48.01</ele>
        <time>2025-02-07T07:31:00.350Z</time>
      </trkpt>
      <trkpt lat="58.34113094955683" lon="12.577404957264662">
        <ele>48.02</ele>
        <time>2025-02-07T07:31:30.754Z</time>
      </trkpt>
      <trkpt lat="58.3411739487201" lon="12.577527919784188">
        <ele>48.03</ele>
        <time>2025-02-07T07:32:01.160Z</time>
      </trkpt>
      <trkpt lat="58.34121594205499" lon="12.577650966122746">
        <ele>48.04</ele>
        <time>2025-02-07T07:32:31.567Z</time>
      </trkpt>
      <trkpt lat="58.341257935389876" lon="12.577772922813892">
        <ele>48.04</ele>
        <time>2025-02-07T07:33:01.975Z</time>
      </trkpt>
      <trkpt lat="58.341298922896385" lon="12.57789496332407">
        <ele>48.05</ele>
        <time>2025-02-07T07:33:32.384Z</time>
      </trkpt>
      <trkpt lat="58.341338988393545" lon="12.578016920015216">
        <ele>48.06</ele>
        <time>2025-02-07T07:34:02.795Z</time>
      </trkpt>
      <trkpt lat="58.34137897007167" lon="12.578138960525393">
        <ele>48.08</ele>
        <time>2025-02-07T07:34:33.207Z</time>
      </trkpt>
      <trkpt lat="58.3414189517498" lon="12.57826091721654">
        <ele>48.09</ele>
        <time>2025-02-07T07:35:03.620Z</time>
      </trkpt>
      <trkpt lat="58.34146094508469" lon="12.578382957726717">
        <ele>48.11</ele>
        <time>2025-02-07T07:35:34.034Z</time>
      </trkpt>
      <trkpt lat="58.34150293841958" lon="12.578506926074624">
        <ele>48.13</ele>
        <time>2025-02-07T07:36:04.450Z</time>
      </trkpt>
      <trkpt lat="58.34154493175447" lon="12.578632989898324">
        <ele>48.15</ele>
        <time>2025-02-07T07:36:34.867Z</time>
      </trkpt>
      <trkpt lat="58.34158692508936" lon="12.578757964074612">
        <ele>48.16</ele>
        <time>2025-02-07T07:37:05.285Z</time>
      </trkpt>
      <trkpt lat="58.3416279964149" lon="12.578881932422519">
        <ele>48.18</ele>
        <time>2025-02-07T07:37:35.704Z</time>
      </trkpt>
      <trkpt lat="58.34166998974979" lon="12.579006990417838">
        <ele>48.19</ele>
        <time>2025-02-07T07:38:06.125Z</time>
      </trkpt>
      <trkpt lat="58.34171198308468" lon="12.579133976250887">
        <ele>48.21</ele>
        <time>2025-02-07T07:38:36.547Z</time>
      </trkpt>
      <trkpt lat="58.34175598807633" lon="12.579260962083936">
        <ele>48.23</ele>
        <time>2025-02-07T07:39:06.970Z</time>
      </trkpt>
      <trkpt lat="58.3417989872396" lon="12.579385936260223">
        <ele>48.24</ele>
        <time>2025-02-07T07:39:37.394Z</time>
      </trkpt>
      <trkpt lat="58.34184198640287" lon="12.579508982598782">
        <ele>48.26</ele>
        <time>2025-02-07T07:40:07.820Z</time>
      </trkpt>
      <trkpt lat="58.34188599139452" lon="12.579627921804786">
        <ele>48.27</ele>
        <time>2025-02-07T07:40:38.247Z</time>
      </trkpt>
      <trkpt lat="58.34192899055779" lon="12.5797429215163">
        <ele>48.29</ele>
        <time>2025-02-07T07:41:08.675Z</time>
      </trkpt>
      <trkpt lat="58.34197098389268" lon="12.579861944541335">
        <ele>48.3</ele>
        <time>2025-02-07T07:41:39.104Z</time>
      </trkpt>
      <trkpt lat="58.34201096557081" lon="12.579986918717623">
        <ele>48.32</ele>
        <time>2025-02-07T07:42:09.534Z</time>
      </trkpt>
      <trkpt lat="58.342050947248936" lon="12.580112982541323">
        <ele>48.33</ele>
        <time>2025-02-07T07:42:39.966Z</time>
      </trkpt>
      <trkpt lat="58.342092940583825" lon="12.580238962545991">
        <ele>48.34</ele>
        <time>2025-02-07T07:43:10.399Z</time>
      </trkpt>
      <trkpt lat="58.342134933918715" lon="12.58036695420742">
        <ele>48.36</ele>
        <time>2025-02-07T07:43:40.833Z</time>
      </trkpt>
      <trkpt lat="58.342176927253604" lon="12.58049494586885">
        <ele>48.37</ele>
        <time>2025-02-07T07:44:11.268Z</time>
      </trkpt>
      <trkpt lat="58.342219926416874" lon="12.58062293753028">
        <ele>48.39</ele>
        <time>2025-02-07T07:44:41.705Z</time>
      </trkpt>
      <trkpt lat="58.34226191975176" lon="12.58075193502009">
        <ele>48.41</ele>
        <time>2025-02-07T07:45:12.143Z</time>
      </trkpt>
      <trkpt lat="58.342303996905684" lon="12.58088193833828">
        <ele>48.42</ele>
        <time>2025-02-07T07:45:42.582Z</time>
      </trkpt>
      <trkpt lat="58.342345990240574" lon="12.58101093582809">
        <ele>48.44</ele>
        <time>2025-02-07T07:46:13.023Z</time>
      </trkpt>
      <trkpt lat="58.34238697774708" lon="12.58113892748952">
        <ele>48.46</ele>
        <time>2025-02-07T07:46:43.465Z</time>
      </trkpt>
      <trkpt lat="58.34242695942521" lon="12.5812659971416">
        <ele>48.48</ele>
        <time>2025-02-07T07:47:13.908Z</time>
      </trkpt>
      <trkpt lat="58.34246694110334" lon="12.581390971317887">
        <ele>48.5</ele>
        <time>2025-02-07T07:47:44.352Z</time>
      </trkpt>
      <trkpt lat="58.34250591695309" lon="12.581513933837414">
        <ele>48.52</ele>
        <time>2025-02-07T07:48:14.798Z</time>
      </trkpt>
      <trkpt lat="58.342544976621866" lon="12.58163396269083">
        <ele>48.54</ele>
        <time>2025-02-07T07:48:45.245Z</time>
      </trkpt>
      <trkpt lat="58.342583952471614" lon="12.581755919381976">
        <ele>48.56</ele>
        <time>2025-02-07T07:49:15.693Z</time>
      </trkpt>
      <trkpt lat="58.34262393414974" lon="12.581879971548915">
        <ele>48.58</ele>
        <time>2025-02-07T07:49:46.142Z</time>
      </trkpt>
      <trkpt lat="58.3426639996469" lon="12.582005951553583">
        <ele>48.6</ele>
        <time>2025-02-07T07:50:16.592Z</time>
      </trkpt>
      <trkpt lat="58.34270196966827" lon="12.582133943215013">
        <ele>48.62</ele>
        <time>2025-02-07T07:50:47.044Z</time>
      </trkpt>
      <trkpt lat="58.34274094551802" lon="12.582261934876442">
        <ele>48.64</ele>
        <time>2025-02-07T07:51:17.497Z</time>
      </trkpt>
      <trkpt lat="58.342777993530035" lon="12.582391938194633">
        <ele>48.66</ele>
        <time>2025-02-07T07:51:47.951Z</time>
      </trkpt>
      <trkpt lat="58.34281495772302" lon="12.582522947341204">
        <ele>48.68</ele>
        <time>2025-02-07T07:52:18.406Z</time>
      </trkpt>
      <trkpt lat="58.34284999407828" lon="12.582652950659394">
        <ele>48.7</ele>
        <time>2025-02-07T07:52:48.863Z</time>
      </trkpt>
      <trkpt lat="58.342884946614504" lon="12.582781948149204">
        <ele>48.72</ele>
        <time>2025-02-07T07:53:19.321Z</time>
      </trkpt>
      <trkpt lat="58.34292098879814" lon="12.582912957295775">
        <ele>48.74</ele>
        <time>2025-02-07T07:53:49.780Z</time>
      </trkpt>
      <trkpt lat="58.34295795299113" lon="12.583041954785585">
        <ele>48.77</ele>
        <time>2025-02-07T07:54:20.240Z</time>
      </trkpt>
      <trkpt lat="58.342993995174766" lon="12.583171958103776">
        <ele>48.79</ele>
        <time>2025-02-07T07:54:50.702Z</time>
      </trkpt>
      <trkpt lat="58.34302995353937" lon="12.583302967250347">
        <ele>48.81</ele>
        <time>2025-02-07T07:55:21.165Z</time>
      </trkpt>
      <trkpt lat="58.34306398406625" lon="12.583433976396918">
        <ele>48.84</ele>
        <time>2025-02-07T07:55:51.629Z</time>
      </trkpt>
      <trkpt lat="58.34309692494571" lon="12.58356599137187">
        <ele>48.86</ele>
        <time>2025-02-07T07:56:22.094Z</time>
      </trkpt>
      <trkpt lat="58.34312994964421" lon="12.58369792252779">
        <ele>48.89</ele>
        <time>2025-02-07T07:56:52.561Z</time>
      </trkpt>
      <trkpt lat="58.343164985999465" lon="12.583829937502742">
        <ele>48.91</ele>
        <time>2025-02-07T07:57:23.029Z</time>
      </trkpt>
      <trkpt lat="58.34319893270731" lon="12.583962958306074">
        <ele>48.93</ele>
        <time>2025-02-07T07:57:53.498Z</time>
      </trkpt>
      <trkpt lat="58.343232963234186" lon="12.584096984937787">
        <ele>48.96</ele>
        <time>2025-02-07T07:58:23.968Z</time>
      </trkpt>
      <trkpt lat="58.34326598793268" lon="12.584229921922088">
        <ele>48.98</ele>
        <time>2025-02-07T07:58:54.440Z</time>
      </trkpt>
      <trkpt lat="58.34329993464053" lon="12.58436294272542">
        <ele>49.01</ele>
        <time>2025-02-07T07:59:24.913Z</time>
      </trkpt>
      <trkpt lat="58.343334970995784" lon="12.584495963528752">
        <ele>49.04</ele>
        <time>2025-02-07T07:59:55.387Z</time>
      </trkpt>
      <trkpt lat="58.34336992353201" lon="12.584628984332085">
        <ele>49.06</ele>
        <time>2025-02-07T08:00:25.862Z</time>
      </trkpt>
      <trkpt lat="58.343403954058886" lon="12.584761921316385">
        <ele>49.09</ele>
        <time>2025-02-07T08:00:56.339Z</time>
      </trkpt>
      <trkpt lat="58.34343899041414" lon="12.584893936291337">
        <ele>49.12</ele>
        <time>2025-02-07T08:01:26.817Z</time>
      </trkpt>
      <trkpt lat="58.34347394295037" lon="12.585025951266289">
        <ele>49.15</ele>
        <time>2025-02-07T08:01:57.296Z</time>
      </trkpt>
      <trkpt lat="58.343508979305625" lon="12.585158972069621">
        <ele>49.17</ele>
        <time>2025-02-07T08:02:27.776Z</time>
      </trkpt>
      <trkpt lat="58.34354393184185" lon="12.585290987044573">
        <ele>49.2</ele>
        <time>2025-02-07T08:02:58.258Z</time>
      </trkpt>
      <trkpt lat="58.34357796236873" lon="12.585423924028873">
        <ele>49.23</ele>
        <time>2025-02-07T08:03:28.741Z</time>
      </trkpt>
      <trkpt lat="58.3436119928956" lon="12.585557950660586">
        <ele>49.26</ele>
        <time>2025-02-07T08:03:59.225Z</time>
      </trkpt>
      <trkpt lat="58.34364593960345" lon="12.58569298312068">
        <ele>49.29</ele>
        <time>2025-02-07T08:04:29.710Z</time>
      </trkpt>
      <trkpt lat="58.343679970130324" lon="12.585829943418503">
        <ele>49.32</ele>
        <time>2025-02-07T08:05:00.197Z</time>
      </trkpt>
      <trkpt lat="58.34371492266655" lon="12.585966987535357">
        <ele>49.35</ele>
        <time>2025-02-07T08:05:30.685Z</time>
      </trkpt>
      <trkpt lat="58.34375096485019" lon="12.58610394783318">
        <ele>49.38</ele>
        <time>2025-02-07T08:06:01.174Z</time>
      </trkpt>
      <trkpt lat="58.34378692321479" lon="12.586240991950035">
        <ele>49.41</ele>
        <time>2025-02-07T08:06:31.664Z</time>
      </trkpt>
      <trkpt lat="58.34382296539843" lon="12.586377952247858">
        <ele>49.44</ele>
        <time>2025-02-07T08:07:02.156Z</time>
      </trkpt>
      <trkpt lat="58.343857917934656" lon="12.586513990536332">
        <ele>49.47</ele>
        <time>2025-02-07T08:07:32.649Z</time>
      </trkpt>
      <trkpt lat="58.34389295428991" lon="12.586648939177394">
        <ele>49.5</ele>
        <time>2025-02-07T08:08:03.143Z</time>
      </trkpt>
      <trkpt lat="58.34392698481679" lon="12.586782965809107">
        <ele>49.53</ele>
        <time>2025-02-07T08:08:33.639Z</time>
      </trkpt>
      <trkpt lat="58.343960931524634" lon="12.58691598661244">
        <ele>49.56</ele>
        <time>2025-02-07T08:09:04.136Z</time>
      </trkpt>
      <trkpt lat="58.34399496205151" lon="12.587050935253501">
        <ele>49.6</ele>
        <time>2025-02-07T08:09:34.634Z</time>
      </trkpt>
      <trkpt lat="58.34402999840677" lon="12.587185967713594">
        <ele>49.63</ele>
        <time>2025-02-07T08:10:05.133Z</time>
      </trkpt>
      <trkpt lat="58.344065956771374" lon="12.587320916354656">
        <ele>49.66</ele>
        <time>2025-02-07T08:10:35.634Z</time>
      </trkpt>
      <trkpt lat="58.34410099312663" lon="12.58745494298637">
        <ele>49.69</ele>
        <time>2025-02-07T08:11:06.136Z</time>
      </trkpt>
      <trkpt lat="58.344134939834476" lon="12.587588969618082">
        <ele>49.73</ele>
        <time>2025-02-07T08:11:36.639Z</time>
      </trkpt>
      <trkpt lat="58.34416997618973" lon="12.587723918259144">
        <ele>49.76</ele>
        <time>2025-02-07T08:12:07.143Z</time>
      </trkpt>
      <trkpt lat="58.34420392289758" lon="12.587857944890857">
        <ele>49.79</ele>
        <time>2025-02-07T08:12:37.649Z</time>
      </trkpt>
      <trkpt lat="58.344238959252834" lon="12.58799297735095">
        <ele>49.83</ele>
        <time>2025-02-07T08:13:08.156Z</time>
      </trkpt>
      <trkpt lat="58.34427491761744" lon="12.588127925992012">
        <ele>49.86</ele>
        <time>2025-02-07T08:13:38.664Z</time>
      </trkpt>
      <trkpt lat="58.3443099539727" lon="12.588262958452106">
        <ele>49.9</ele>
        <time>2025-02-07T08:14:09.173Z</time>
      </trkpt>
      <trkpt lat="58.344344990327954" lon="12.588397990912199">
        <ele>49.93</ele>
        <time>2025-02-07T08:14:39.684Z</time>
      </trkpt>
      <trkpt lat="58.3443789370358" lon="12.588533945381641">
        <ele>49.97</ele>
        <time>2025-02-07T08:15:10.196Z</time>
      </trkpt>
      <trkpt lat="58.344412967562675" lon="12.588668977841735">
        <ele>50.0</ele>
        <time>2025-02-07T08:15:40.709Z</time>
      </trkpt>
      <trkpt lat="58.34444892592728" lon="12.588806943967938">
        <ele>50.04</ele>
        <time>2025-02-07T08:16:11.224Z</time>
      </trkpt>
      <trkpt lat="58.34448295645416" lon="12.588945999741554">
        <ele>50.07</ele>
        <time>2025-02-07T08:16:41.740Z</time>
      </trkpt>
      <trkpt lat="58.34451497532427" lon="12.589084971696138">
        <ele>50.11</ele>
        <time>2025-02-07T08:17:12.257Z</time>
      </trkpt>
      <trkpt lat="58.34454699419439" lon="12.58922092616558">
        <ele>50.14</ele>
        <time>2025-02-07T08:17:42.775Z</time>
      </trkpt>
      <trkpt lat="58.34457792341709" lon="12.589356964454055">
        <ele>50.18</ele>
        <time>2025-02-07T08:18:13.295Z</time>
      </trkpt>
      <trkpt lat="58.344607930630445" lon="12.589493924751878">
        <ele>50.21</ele>
        <time>2025-02-07T08:18:43.816Z</time>
      </trkpt>
      <trkpt lat="58.3446379378438" lon="12.589631974697113">
        <ele>50.25</ele>
        <time>2025-02-07T08:19:14.338Z</time>
      </trkpt>
      <trkpt lat="58.34466693922877" lon="12.589771952480078">
        <ele>50.29</ele>
        <time>2025-02-07T08:19:44.861Z</time>
      </trkpt>
      <trkpt lat="58.344693928956985" lon="12.589912936091423">
        <ele>50.33</ele>
        <time>2025-02-07T08:20:15.386Z</time>
      </trkpt>
      <trkpt lat="58.34472192451358" lon="12.590053919702768">
        <ele>50.37</ele>
        <time>2025-02-07T08:20:45.912Z</time>
      </trkpt>
      <trkpt lat="58.34474992007017" lon="12.590194987133145">
        <ele>50.4</ele>
        <time>2025-02-07T08:21:16.439Z</time>
      </trkpt>
      <trkpt lat="58.344774981960654" lon="12.590336976572871">
        <ele>50.44</ele>
        <time>2025-02-07T08:21:46.967Z</time>
      </trkpt>
      <trkpt lat="58.344799960032105" lon="12.590479971840978">
        <ele>50.47</ele>
        <time>2025-02-07T08:22:17.497Z</time>
      </trkpt>
      <trkpt lat="58.34482493810356" lon="12.590622967109084">
        <ele>50.51</ele>
        <time>2025-02-07T08:22:48.028Z</time>
      </trkpt>
      <trkpt lat="58.34484999999404" lon="12.59076596237719">
        <ele>50.54</ele>
        <time>2025-02-07T08:23:18.560Z</time>
      </trkpt>
      <trkpt lat="58.34487497806549" lon="12.590907951816916">
        <ele>50.57</ele>
        <time>2025-02-07T08:23:49.094Z</time>
      </trkpt>
      <trkpt lat="58.34489895030856" lon="12.591049941256642">
        <ele>50.61</ele>
        <time>2025-02-07T08:24:19.629Z</time>
      </trkpt>
      <trkpt lat="58.34492292255163" lon="12.591191930696368">
        <ele>50.65</ele>
        <time>2025-02-07T08:24:50.165Z</time>
      </trkpt>
      <trkpt lat="58.344946978613734" lon="12.591332998126745">
        <ele>50.69</ele>
        <time>2025-02-07T08:25:20.702Z</time>
      </trkpt>
      <trkpt lat="58.344969945028424" lon="12.591474987566471">
        <ele>50.72</ele>
        <time>2025-02-07T08:25:51.241Z</time>
      </trkpt>
      <trkpt lat="58.344994923099875" lon="12.591616977006197">
        <ele>50.76</ele>
        <time>2025-02-07T08:26:21.781Z</time>
      </trkpt>
      <trkpt lat="58.34501998499036" lon="12.591759972274303">
        <ele>50.79</ele>
        <time>2025-02-07T08:26:52.322Z</time>
      </trkpt>
      <trkpt lat="58.34504596889019" lon="12.59190196171403">
        <ele>50.83</ele>
        <time>2025-02-07T08:27:22.864Z</time>
      </trkpt>
      <trkpt lat="58.34507195279002" lon="12.592042945325375">
        <ele>50.87</ele>
        <time>2025-02-07T08:27:53.408Z</time>
      </trkpt>
      <trkpt lat="58.345099948346615" lon="12.59218292310834">
        <ele>50.9</ele>
        <time>2025-02-07T08:28:23.953Z</time>
      </trkpt>
      <trkpt lat="58.34512794390321" lon="12.592321978881955">
        <ele>50.93</ele>
        <time>2025-02-07T08:28:54.499Z</time>
      </trkpt>
      <trkpt lat="58.34515795111656" lon="12.5924629624933">
        <ele>50.97</ele>
        <time>2025-02-07T08:29:25.046Z</time>
      </trkpt>
      <trkpt lat="58.345187958329916" lon="12.592603946104646">
        <ele>51.0</ele>
        <time>2025-02-07T08:29:55.595Z</time>
      </trkpt>
      <trkpt lat="58.34521897137165" lon="12.592745935544372">
        <ele>51.03</ele>
        <time>2025-02-07T08:30:26.145Z</time>
      </trkpt>
      <trkpt lat="58.345249984413385" lon="12.592885997146368">
        <ele>51.06</ele>
        <time>2025-02-07T08:30:56.696Z</time>
      </trkpt>
      <trkpt lat="58.34527999162674" lon="12.593024969100952">
        <ele>51.09</ele>
        <time>2025-02-07T08:31:27.249Z</time>
      </trkpt>
      <trkpt lat="58.34531092084944" lon="12.593162935227156">
        <ele>51.12</ele>
        <time>2025-02-07T08:31:57.803Z</time>
      </trkpt>
      <trkpt lat="58.345339922234416" lon="12.593301991000772">
        <ele>51.16</ele>
        <time>2025-02-07T08:32:28.358Z</time>
      </trkpt>
      <trkpt lat="58.34537093527615" lon="12.593440962955356">
        <ele>51.19</ele>
        <time>2025-02-07T08:32:58.914Z</time>
      </trkpt>
      <trkpt lat="58.345401948317885" lon="12.59357993490994">
        <ele>51.23</ele>
        <time>2025-02-07T08:33:29.472Z</time>
      </trkpt>
      <trkpt lat="58.34543497301638" lon="12.593716979026794">
        <ele>51.26</ele>
        <time>2025-02-07T08:34:00.031Z</time>
      </trkpt>
      <trkpt lat="58.34546799771488" lon="12.593853939324617">
        <ele>51.29</ele>
        <time>2025-02-07T08:34:30.591Z</time>
      </trkpt>
      <trkpt lat="58.34549993276596" lon="12.593989977613091">
        <ele>51.33</ele>
        <time>2025-02-07T08:35:01.152Z</time>
      </trkpt>
      <trkpt lat="58.34553295746446" lon="12.594125932082534">
        <ele>51.36</ele>
        <time>2025-02-07T08:35:31.715Z</time>
      </trkpt>
      <trkpt lat="58.34556598216295" lon="12.594260964542627">
        <ele>51.39</ele>
        <time>2025-02-07T08:36:02.279Z</time>
      </trkpt>
      <trkpt lat="58.34559699520469" lon="12.59439893066883">
        <ele>51.42</ele>
        <time>2025-02-07T08:36:32.844Z</time>
      </trkpt>
      <trkpt lat="58.34562691859901" lon="12.594536980614066">
        <ele>51.44</ele>
        <time>2025-02-07T08:37:03.410Z</time>
      </trkpt>
      <trkpt lat="58.34565591998398" lon="12.59467494674027">
        <ele>51.47</ele>
        <time>2025-02-07T08:37:33.978Z</time>
      </trkpt>
      <trkpt lat="58.34568693302572" lon="12.594812996685505">
        <ele>51.49</ele>
        <time>2025-02-07T08:38:04.547Z</time>
      </trkpt>
      <trkpt lat="58.34571794606745" lon="12.594949956983328">
        <ele>51.51</ele>
        <time>2025-02-07T08:38:35.117Z</time>
      </trkpt>
      <trkpt lat="58.34575097076595" lon="12.595085995271802">
        <ele>51.53</ele>
        <time>2025-02-07T08:39:05.688Z</time>
      </trkpt>
      <trkpt lat="58.345783995464444" lon="12.595218932256103">
        <ele>51.56</ele>
        <time>2025-02-07T08:39:36.261Z</time>
      </trkpt>
      <trkpt lat="58.34581693634391" lon="12.595348935574293">
        <ele>51.58</ele>
        <time>2025-02-07T08:40:06.835Z</time>
      </trkpt>
      <trkpt lat="58.34584694355726" lon="12.595482962206006">
        <ele>51.59</ele>
        <time>2025-02-07T08:40:37.410Z</time>
      </trkpt>
      <trkpt lat="58.345875944942236" lon="12.595616988837719">
        <ele>51.61</ele>
        <time>2025-02-07T08:41:07.986Z</time>
      </trkpt>
      <trkpt lat="58.34590494632721" lon="12.5957509316504">
        <ele>51.63</ele>
        <time>2025-02-07T08:41:38.564Z</time>
      </trkpt>
      <trkpt lat="58.34593394771218" lon="12.595882946625352">
        <ele>51.64</ele>
        <time>2025-02-07T08:42:09.143Z</time>
      </trkpt>
      <trkpt lat="58.3459659665823" lon="12.596016973257065">
        <ele>51.66</ele>
        <time>2025-02-07T08:42:39.723Z</time>
      </trkpt>
      <trkpt lat="58.34599697962403" lon="12.596152927726507">
        <ele>51.68</ele>
        <time>2025-02-07T08:43:10.304Z</time>
      </trkpt>
      <trkpt lat="58.34602698683739" lon="12.596291983500123">
        <ele>51.7</ele>
        <time>2025-02-07T08:43:40.887Z</time>
      </trkpt>
      <trkpt lat="58.3460539765656" lon="12.596427937969565">
        <ele>51.71</ele>
        <time>2025-02-07T08:44:11.471Z</time>
      </trkpt>
      <trkpt lat="58.346085995435715" lon="12.59656498208642">
        <ele>51.73</ele>
        <time>2025-02-07T08:44:42.056Z</time>
      </trkpt>
      <trkpt lat="58.3461179304868" lon="12.596700936555862">
        <ele>51.74</ele>
        <time>2025-02-07T08:45:12.642Z</time>
      </trkpt>
      <trkpt lat="58.34614894352853" lon="12.596839992329478">
        <ele>51.75</ele>
        <time>2025-02-07T08:45:43.230Z</time>
      </trkpt>
      <trkpt lat="58.34618096239865" lon="12.596979970112443">
        <ele>51.76</ele>
        <time>2025-02-07T08:46:13.819Z</time>
      </trkpt>
      <trkpt lat="58.34621298126876" lon="12.597118942067027">
        <ele>51.77</ele>
        <time>2025-02-07T08:46:44.409Z</time>
      </trkpt>
      <trkpt lat="58.34624793380499" lon="12.597259925678372">
        <ele>51.78</ele>
        <time>2025-02-07T08:47:15.000Z</time>
      </trkpt>
      <trkpt lat="58.346280958503485" lon="12.59740099310875">
        <ele>51.79</ele>
        <time>2025-02-07T08:47:45.593Z</time>
      </trkpt>
      <trkpt lat="58.34631398320198" lon="12.597540970891714">
        <ele>51.8</ele>
        <time>2025-02-07T08:48:16.187Z</time>
      </trkpt>
      <trkpt lat="58.346346924081445" lon="12.597677931189537">
        <ele>51.8</ele>
        <time>2025-02-07T08:48:46.782Z</time>
      </trkpt>
      <trkpt lat="58.34638296626508" lon="12.597814975306392">
        <ele>51.81</ele>
        <time>2025-02-07T08:49:17.379Z</time>
      </trkpt>
      <trkpt lat="58.34641599096358" lon="12.597953947260976">
        <ele>51.81</ele>
        <time>2025-02-07T08:49:47.977Z</time>
      </trkpt>
      <trkpt lat="58.34644993767142" lon="12.598091997206211">
        <ele>51.81</ele>
        <time>2025-02-07T08:50:18.576Z</time>
      </trkpt>
      <trkpt lat="58.34648296236992" lon="12.598227951675653">
        <ele>51.81</ele>
        <time>2025-02-07T08:50:49.176Z</time>
      </trkpt>
      <trkpt lat="58.346515987068415" lon="12.598361978307366">
        <ele>51.81</ele>
        <time>2025-02-07T08:51:19.778Z</time>
      </trkpt>
      <trkpt lat="58.34654993377626" lon="12.598493993282318">
        <ele>51.81</ele>
        <time>2025-02-07T08:51:50.381Z</time>
      </trkpt>
      <trkpt lat="58.346580946817994" lon="12.598627936095">
        <ele>51.81</ele>
        <time>2025-02-07T08:52:20.985Z</time>
      </trkpt>
      <trkpt lat="58.34661095403135" lon="12.598763974383473">
        <ele>51.81</ele>
        <time>2025-02-07T08:52:51.590Z</time>
      </trkpt>
      <trkpt lat="58.3466409612447" lon="12.598897917196155">
        <ele>51.8</ele>
        <time>2025-02-07T08:53:22.197Z</time>
      </trkpt>
      <trkpt lat="58.34667096845806" lon="12.599031943827868">
        <ele>51.8</ele>
        <time>2025-02-07T08:53:52.805Z</time>
      </trkpt>
      <trkpt lat="58.34670097567141" lon="12.59916395880282">
        <ele>51.79</ele>
        <time>2025-02-07T08:54:23.414Z</time>
      </trkpt>
      <trkpt lat="58.346729977056384" lon="12.599297985434532">
        <ele>51.79</ele>
        <time>2025-02-07T08:54:54.024Z</time>
      </trkpt>
      <trkpt lat="58.3467619959265" lon="12.599431928247213">
        <ele>51.79</ele>
        <time>2025-02-07T08:55:24.636Z</time>
      </trkpt>
      <trkpt lat="58.34679393097758" lon="12.599565954878926">
        <ele>51.78</ele>
        <time>2025-02-07T08:55:55.249Z</time>
      </trkpt>
      <trkpt lat="58.34682896733284" lon="12.599697969853878">
        <ele>51.78</ele>
        <time>2025-02-07T08:56:25.863Z</time>
      </trkpt>
      <trkpt lat="58.346864925697446" lon="12.59983099065721">
        <ele>51.77</ele>
        <time>2025-02-07T08:56:56.478Z</time>
      </trkpt>
      <trkpt lat="58.34690096788108" lon="12.599963927641511">
        <ele>51.77</ele>
        <time>2025-02-07T08:57:27.095Z</time>
      </trkpt>
      <trkpt lat="58.34693994373083" lon="12.600090997293591">
        <ele>51.76</ele>
        <time>2025-02-07T08:57:57.713Z</time>
      </trkpt>
      <trkpt lat="58.34698093123734" lon="12.60021798312664">
        <ele>51.75</ele>
        <time>2025-02-07T08:58:28.332Z</time>
      </trkpt>
      <trkpt lat="58.34702393040061" lon="12.60034597478807">
        <ele>51.74</ele>
        <time>2025-02-07T08:58:58.952Z</time>
      </trkpt>
      <trkpt lat="58.34706793539226" lon="12.600471954792738">
        <ele>51.74</ele>
        <time>2025-02-07T08:59:29.574Z</time>
      </trkpt>
      <trkpt lat="58.34711194038391" lon="12.600597934797406">
        <ele>51.73</ele>
        <time>2025-02-07T09:00:00.197Z</time>
      </trkpt>
      <trkpt lat="58.34715594537556" lon="12.600722992792726">
        <ele>51.72</ele>
        <time>2025-02-07T09:00:30.821Z</time>
      </trkpt>
      <trkpt lat="58.34719995036721" lon="12.600848972797394">
        <ele>51.71</ele>
        <time>2025-02-07T09:01:01.446Z</time>
      </trkpt>
      <trkpt lat="58.34724496118724" lon="12.6009729411453">
        <ele>51.7</ele>
        <time>2025-02-07T09:01:32.073Z</time>
      </trkpt>
      <trkpt lat="58.347292989492416" lon="12.60109699331224">
        <ele>51.7</ele>
        <time>2025-02-07T09:02:02.701Z</time>
      </trkpt>
      <trkpt lat="58.34733992815018" lon="12.601222973316908">
        <ele>51.69</ele>
        <time>2025-02-07T09:02:33.330Z</time>
      </trkpt>
      <trkpt lat="58.34738594479859" lon="12.601347947493196">
        <ele>51.67</ele>
        <time>2025-02-07T09:03:03.961Z</time>
      </trkpt>
      <trkpt lat="58.34743296727538" lon="12.601472921669483">
        <ele>51.66</ele>
        <time>2025-02-07T09:03:34.593Z</time>
      </trkpt>
      <trkpt lat="58.34748292341828" lon="12.601596973836422">
        <ele>51.66</ele>
        <time>2025-02-07T09:04:05.226Z</time>
      </trkpt>
      <trkpt lat="58.34753195755184" lon="12.601718930527568">
        <ele>51.64</ele>
        <time>2025-02-07T09:04:35.861Z</time>
      </trkpt>
      <trkpt lat="58.34757998585701" lon="12.601840971037745">
        <ele>51.63</ele>
        <time>2025-02-07T09:05:06.497Z</time>
      </trkpt>
      <trkpt lat="58.34762994199991" lon="12.601963933557272">
        <ele>51.61</ele>
        <time>2025-02-07T09:05:37.134Z</time>
      </trkpt>
      <trkpt lat="58.347678976133466" lon="12.602084968239069">
        <ele>51.59</ele>
        <time>2025-02-07T09:06:07.772Z</time>
      </trkpt>
      <trkpt lat="58.34772993810475" lon="12.602202985435724">
        <ele>51.57</ele>
        <time>2025-02-07T09:06:38.412Z</time>
      </trkpt>
      <trkpt lat="58.347782995551825" lon="12.602317985147238">
        <ele>51.56</ele>
        <time>2025-02-07T09:07:09.053Z</time>
      </trkpt>
      <trkpt lat="58.34783697500825" lon="12.602432984858751">
        <ele>51.53</ele>
        <time>2025-02-07T09:07:39.695Z</time>
      </trkpt>
      <trkpt lat="58.34788894280791" lon="12.602546978741884">
        <ele>51.51</ele>
        <time>2025-02-07T09:08:10.339Z</time>
      </trkpt>
      <trkpt lat="58.34794292226434" lon="12.602661978453398">
        <ele>51.5</ele>
        <time>2025-02-07T09:08:40.984Z</time>
      </trkpt>
      <trkpt lat="58.347996985539794" lon="12.60277597233653">
        <ele>51.48</ele>
        <time>2025-02-07T09:09:11.630Z</time>
      </trkpt>
      <trkpt lat="58.3480519708246" lon="12.60288493707776">
        <ele>51.46</ele>
        <time>2025-02-07T09:09:42.277Z</time>
      </trkpt>
      <trkpt lat="58.348107961937785" lon="12.60299096815288">
        <ele>51.44</ele>
        <time>2025-02-07T09:10:12.926Z</time>
      </trkpt>
      <trkpt lat="58.34816495887935" lon="12.60309498757124">
        <ele>51.42</ele>
        <time>2025-02-07T09:10:43.576Z</time>
      </trkpt>
      <trkpt lat="58.34822497330606" lon="12.603197917342186">
        <ele>51.4</ele>
        <time>2025-02-07T09:11:14.227Z</time>
      </trkpt>
      <trkpt lat="58.34828498773277" lon="12.603298919275403">
        <ele>51.38</ele>
        <time>2025-02-07T09:11:44.880Z</time>
      </trkpt>
      <trkpt lat="58.348346929997206" lon="12.60339799337089">
        <ele>51.36</ele>
        <time>2025-02-07T09:12:15.534Z</time>
      </trkpt>
      <trkpt lat="58.348409961909056" lon="12.603492960333824">
        <ele>51.34</ele>
        <time>2025-02-07T09:12:46.189Z</time>
      </trkpt>
      <trkpt lat="58.348472993820906" lon="12.603588933125138">
        <ele>51.33</ele>
        <time>2025-02-07T09:13:16.845Z</time>
      </trkpt>
      <trkpt lat="58.348535941913724" lon="12.603686917573214">
        <ele>51.31</ele>
        <time>2025-02-07T09:13:47.503Z</time>
      </trkpt>
      <trkpt lat="58.34859696216881" lon="12.603788925334811">
        <ele>51.29</ele>
        <time>2025-02-07T09:14:18.162Z</time>
      </trkpt>
      <trkpt lat="58.3486579824239" lon="12.603890933096409">
        <ele>51.27</ele>
        <time>2025-02-07T09:14:48.822Z</time>
      </trkpt>
      <trkpt lat="58.34871891885996" lon="12.603992940858006">
        <ele>51.24</ele>
        <time>2025-02-07T09:15:19.484Z</time>
      </trkpt>
      <trkpt lat="58.34877993911505" lon="12.604096960276365">
        <ele>51.22</ele>
        <time>2025-02-07T09:15:50.147Z</time>
      </trkpt>
      <trkpt lat="58.348837941884995" lon="12.604202991351485">
        <ele>51.2</ele>
        <time>2025-02-07T09:16:20.811Z</time>
      </trkpt>
      <trkpt lat="58.34889493882656" lon="12.604311956092715">
        <ele>51.19</ele>
        <time>2025-02-07T09:16:51.477Z</time>
      </trkpt>
      <trkpt lat="58.34895092993975" lon="12.604425949975848">
        <ele>51.17</ele>
        <time>2025-02-07T09:17:22.144Z</time>
      </trkpt>
      <trkpt lat="58.34900692105293" lon="12.604541955515742">
        <ele>51.15</ele>
        <time>2025-02-07T09:17:52.812Z</time>
      </trkpt>
      <trkpt lat="58.34906199015677" lon="12.604657961055636">
        <ele>51.14</ele>
        <time>2025-02-07T09:18:23.482Z</time>
      </trkpt>
      <trkpt lat="58.349116975441575" lon="12.604774972423911">
        <ele>51.12</ele>
        <time>2025-02-07T09:18:54.153Z</time>
      </trkpt>
      <trkpt lat="58.34916994906962" lon="12.604891983792186">
        <ele>51.11</ele>
        <time>2025-02-07T09:19:24.825Z</time>
      </trkpt>
      <trkpt lat="58.349223928526044" lon="12.60500798933208">
        <ele>51.09</ele>
        <time>2025-02-07T09:19:55.498Z</time>
      </trkpt>
      <trkpt lat="58.34927698597312" lon="12.605123994871974">
        <ele>51.07</ele>
        <time>2025-02-07T09:20:26.173Z</time>
      </trkpt>
      <trkpt lat="58.349330965429544" lon="12.605239916592836">
        <ele>51.06</ele>
        <time>2025-02-07T09:20:56.849Z</time>
      </trkpt>
      <trkpt lat="58.34938494488597" lon="12.605356927961111">
        <ele>51.04</ele>
        <time>2025-02-07T09:21:27.526Z</time>
      </trkpt>
      <trkpt lat="58.349438924342394" lon="12.605471927672625">
        <ele>51.03</ele>
        <time>2025-02-07T09:21:58.205Z</time>
      </trkpt>
      <trkpt lat="58.34949298761785" lon="12.605583993718028">
        <ele>51.01</ele>
        <time>2025-02-07T09:22:28.885Z</time>
      </trkpt>
      <trkpt lat="58.349548978731036" lon="12.605692958459258">
        <ele>51.0</ele>
        <time>2025-02-07T09:22:59.566Z</time>
      </trkpt>
      <trkpt lat="58.34960698150098" lon="12.605798989534378">
        <ele>50.98</ele>
        <time>2025-02-07T09:23:30.249Z</time>
      </trkpt>
      <trkpt lat="58.34966599009931" lon="12.605906948447227">
        <ele>50.96</ele>
        <time>2025-02-07T09:24:00.933Z</time>
      </trkpt>
      <trkpt lat="58.34972499869764" lon="12.606017924845219">
        <ele>50.94</ele>
        <time>2025-02-07T09:24:31.618Z</time>
      </trkpt>
      <trkpt lat="58.349781995639205" lon="12.606130996719003">
        <ele>50.92</ele>
        <time>2025-02-07T09:25:02.304Z</time>
      </trkpt>
      <trkpt lat="58.3498409204185" lon="12.606243984773755">
        <ele>50.9</ele>
        <time>2025-02-07T09:25:32.992Z</time>
      </trkpt>
      <trkpt lat="58.34989992901683" lon="12.606358984485269">
        <ele>50.89</ele>
        <time>2025-02-07T09:26:03.681Z</time>
      </trkpt>
      <trkpt lat="58.349958937615156" lon="12.606473984196782">
        <ele>50.87</ele>
        <time>2025-02-07T09:26:34.372Z</time>
      </trkpt>
      <trkpt lat="58.3500169403851" lon="12.606591917574406">
        <ele>50.85</ele>
        <time>2025-02-07T09:27:05.064Z</time>
      </trkpt>
      <trkpt lat="58.35007393732667" lon="12.606710940599442">
        <ele>50.83</ele>
        <time>2025-02-07T09:27:35.757Z</time>
      </trkpt>
      <trkpt lat="58.350130934268236" lon="12.606829963624477">
        <ele>50.81</ele>
        <time>2025-02-07T09:28:06.452Z</time>
      </trkpt>
      <trkpt lat="58.3501879312098" lon="12.606948986649513">
        <ele>50.79</ele>
        <time>2025-02-07T09:28:37.148Z</time>
      </trkpt>
      <trkpt lat="58.35024492815137" lon="12.607068931683898">
        <ele>50.77</ele>
        <time>2025-02-07T09:29:07.845Z</time>
      </trkpt>
      <trkpt lat="58.350300919264555" lon="12.607190972194076">
        <ele>50.76</ele>
        <time>2025-02-07T09:29:38.544Z</time>
      </trkpt>
      <trkpt lat="58.35035598836839" lon="12.607312928885221">
        <ele>50.74</ele>
        <time>2025-02-07T09:30:09.244Z</time>
      </trkpt>
      <trkpt lat="58.35040996782482" lon="12.607433963567019">
        <ele>50.72</ele>
        <time>2025-02-07T09:30:39.945Z</time>
      </trkpt>
      <trkpt lat="58.35046495310962" lon="12.607555920258164">
        <ele>50.7</ele>
        <time>2025-02-07T09:31:10.648Z</time>
      </trkpt>
      <trkpt lat="58.350517926737666" lon="12.607678966596723">
        <ele>50.69</ele>
        <time>2025-02-07T09:31:41.352Z</time>
      </trkpt>
      <trkpt lat="58.35057098418474" lon="12.607801929116249">
        <ele>50.68</ele>
        <time>2025-02-07T09:32:12.057Z</time>
      </trkpt>
      <trkpt lat="58.350622951984406" lon="12.607924975454807">
        <ele>50.66</ele>
        <time>2025-02-07T09:32:42.764Z</time>
      </trkpt>
      <trkpt lat="58.35067399777472" lon="12.608047937974334">
        <ele>50.65</ele>
        <time>2025-02-07T09:33:13.472Z</time>
      </trkpt>
      <trkpt lat="58.35072395391762" lon="12.608171990141273">
        <ele>50.64</ele>
        <time>2025-02-07T09:33:44.181Z</time>
      </trkpt>
      <trkpt lat="58.350772988051176" lon="12.60829595848918">
        <ele>50.63</ele>
        <time>2025-02-07T09:34:14.892Z</time>
      </trkpt>
      <trkpt lat="58.35082395002246" lon="12.608418921008706">
        <ele>50.62</ele>
        <time>2025-02-07T09:34:45.604Z</time>
      </trkpt>
      <trkpt lat="58.35087398998439" lon="12.608540961518884">
        <ele>50.6</ele>
        <time>2025-02-07T09:35:16.317Z</time>
      </trkpt>
      <trkpt lat="58.350924951955676" lon="12.608665935695171">
        <ele>50.59</ele>
        <time>2025-02-07T09:35:47.032Z</time>
      </trkpt>
      <trkpt lat="58.35097691975534" lon="12.608791999518871">
        <ele>50.58</ele>
        <time>2025-02-07T09:36:17.748Z</time>
      </trkpt>
      <trkpt lat="58.351028971374035" lon="12.60891898535192">
        <ele>50.56</ele>
        <time>2025-02-07T09:36:48.465Z</time>
      </trkpt>
      <trkpt lat="58.3510809391737" lon="12.609045971184969">
        <ele>50.56</ele>
        <time>2025-02-07T09:37:19.184Z</time>
      </trkpt>
      <trkpt lat="58.351132990792394" lon="12.609173962846398">
        <ele>50.55</ele>
        <time>2025-02-07T09:37:49.904Z</time>
      </trkpt>
      <trkpt lat="58.35118395276368" lon="12.609300948679447">
        <ele>50.54</ele>
        <time>2025-02-07T09:38:20.625Z</time>
      </trkpt>
      <trkpt lat="58.35123298689723" lon="12.609430951997638">
        <ele>50.53</ele>
        <time>2025-02-07T09:38:51.348Z</time>
      </trkpt>
      <trkpt lat="58.35127992555499" lon="12.609560955315828">
        <ele>50.52</ele>
        <time>2025-02-07T09:39:22.072Z</time>
      </trkpt>
      <trkpt lat="58.3513259422034" lon="12.60969397611916">
        <ele>50.51</ele>
        <time>2025-02-07T09:39:52.797Z</time>
      </trkpt>
      <trkpt lat="58.351371958851814" lon="12.609826996922493">
        <ele>50.5</ele>
        <time>2025-02-07T09:40:23.524Z</time>
      </trkpt>
      <trkpt lat="58.351414958015084" lon="12.609961945563555">
        <ele>50.49</ele>
        <time>2025-02-07T09:40:54.252Z</time>
      </trkpt>
      <trkpt lat="58.35145594552159" lon="12.61009999550879">
        <ele>50.48</ele>
        <time>2025-02-07T09:41:24.981Z</time>
      </trkpt>
      <trkpt lat="58.35149399936199" lon="12.610238967463374">
        <ele>50.47</ele>
        <time>2025-02-07T09:41:55.712Z</time>
      </trkpt>
      <trkpt lat="58.351526940241456" lon="12.610382968559861">
        <ele>50.46</ele>
        <time>2025-02-07T09:42:26.444Z</time>
      </trkpt>
      <trkpt lat="58.35155694745481" lon="12.61052898131311">
        <ele>50.45</ele>
        <time>2025-02-07T09:42:57.177Z</time>
      </trkpt>
      <trkpt lat="58.35158393718302" lon="12.610676921904087">
        <ele>50.44</ele>
        <time>2025-02-07T09:43:27.912Z</time>
      </trkpt>
      <trkpt lat="58.351608999073505" lon="12.610824946314096">
        <ele>50.43</ele>
        <time>2025-02-07T09:43:58.648Z</time>
      </trkpt>
      <trkpt lat="58.351630959659815" lon="12.610974982380867">
        <ele>50.42</ele>
        <time>2025-02-07T09:44:29.385Z</time>
      </trkpt>
      <trkpt lat="58.351652920246124" lon="12.611123928800225">
        <ele>50.41</ele>
        <time>2025-02-07T09:45:00.124Z</time>
      </trkpt>
      <trkpt lat="58.351675970479846" lon="12.611272959038615">
        <ele>50.4</ele>
        <time>2025-02-07T09:45:30.864Z</time>
      </trkpt>
      <trkpt lat="58.351698936894536" lon="12.611419977620244">
        <ele>50.38</ele>
        <time>2025-02-07T09:46:01.605Z</time>
      </trkpt>
      <trkpt lat="58.35172098129988" lon="12.611566996201873">
        <ele>50.37</ele>
        <time>2025-02-07T09:46:32.348Z</time>
      </trkpt>
      <trkpt lat="58.35174394771457" lon="12.61171292513609">
        <ele>50.37</ele>
        <time>2025-02-07T09:47:03.092Z</time>
      </trkpt>
      <trkpt lat="58.35176791995764" lon="12.611860949546099">
        <ele>50.36</ele>
        <time>2025-02-07T09:47:33.837Z</time>
      </trkpt>
      <trkpt lat="58.35178996436298" lon="12.61201098561287">
        <ele>50.35</ele>
        <time>2025-02-07T09:48:04.583Z</time>
      </trkpt>
      <trkpt lat="58.35181192494929" lon="12.612160937860608">
        <ele>50.34</ele>
        <time>2025-02-07T09:48:35.331Z</time>
      </trkpt>
      <trkpt lat="58.35183396935463" lon="12.612310973927379">
        <ele>50.34</ele>
        <time>2025-02-07T09:49:06.080Z</time>
      </trkpt>
      <trkpt lat="58.35185592994094" lon="12.612459920346737">
        <ele>50.33</ele>
        <time>2025-02-07T09:49:36.830Z</time>
      </trkpt>
      <trkpt lat="58.3518769685179" lon="12.612607944756746">
        <ele>50.32</ele>
        <time>2025-02-07T09:50:07.582Z</time>
      </trkpt>
      <trkpt lat="58.35189993493259" lon="12.612756974995136">
        <ele>50.32</ele>
        <time>2025-02-07T09:50:38.335Z</time>
      </trkpt>
      <trkpt lat="58.35192197933793" lon="12.612904999405146">
        <ele>50.31</ele>
        <time>2025-02-07T09:51:09.089Z</time>
      </trkpt>
      <trkpt lat="58.35194393992424" lon="12.613053945824504">
        <ele>50.31</ele>
        <time>2025-02-07T09:51:39.845Z</time>
      </trkpt>
      <trkpt lat="58.3519649785012" lon="12.613200964406133">
        <ele>50.3</ele>
        <time>2025-02-07T09:52:10.602Z</time>
      </trkpt>
      <trkpt lat="58.35198693908751" lon="12.613345971331">
        <ele>50.29</ele>
        <time>2025-02-07T09:52:41.360Z</time>
      </trkpt>
      <trkpt lat="58.35200898349285" lon="12.613489972427487">
        <ele>50.29</ele>
        <time>2025-02-07T09:53:12.119Z</time>
      </trkpt>
      <trkpt lat="58.35202993825078" lon="12.613632967695594">
        <ele>50.28</ele>
        <time>2025-02-07T09:53:42.880Z</time>
      </trkpt>
      <trkpt lat="58.3520529884845" lon="12.613772945478559">
        <ele>50.28</ele>
        <time>2025-02-07T09:54:13.642Z</time>
      </trkpt>
      <trkpt lat="58.35207494907081" lon="12.613909989595413">
        <ele>50.27</ele>
        <time>2025-02-07T09:54:44.405Z</time>
      </trkpt>
      <trkpt lat="58.35209992714226" lon="12.614046949893236">
        <ele>50.27</ele>
        <time>2025-02-07T09:55:15.169Z</time>
      </trkpt>
      <trkpt lat="58.352123983204365" lon="12.61418298818171">
        <ele>50.28</ele>
        <time>2025-02-07T09:55:45.935Z</time>
      </trkpt>
      <trkpt lat="58.352146949619055" lon="12.614318942651153">
        <ele>50.27</ele>
        <time>2025-02-07T09:56:16.702Z</time>
      </trkpt>
      <trkpt lat="58.352171927690506" lon="12.614451963454485">
        <ele>50.27</ele>
        <time>2025-02-07T09:56:47.470Z</time>
      </trkpt>
      <trkpt lat="58.35219799540937" lon="12.614584984257817">
        <ele>50.26</ele>
        <time>2025-02-07T09:57:18.239Z</time>
      </trkpt>
      <trkpt lat="58.35222599096596" lon="12.614718927070498">
        <ele>50.26</ele>
        <time>2025-02-07T09:57:49.009Z</time>
      </trkpt>
      <trkpt lat="58.352252980694175" lon="12.614853959530592">
        <ele>50.25</ele>
        <time>2025-02-07T09:58:19.781Z</time>
      </trkpt>
      <trkpt lat="58.35228097625077" lon="12.614987986162305">
        <ele>50.25</ele>
        <time>2025-02-07T09:58:50.554Z</time>
      </trkpt>
      <trkpt lat="58.35230897180736" lon="12.615120923146605">
        <ele>50.25</ele>
        <time>2025-02-07T09:59:21.328Z</time>
      </trkpt>
      <trkpt lat="58.35233596153557" lon="12.615253943949938">
        <ele>50.24</ele>
        <time>2025-02-07T09:59:52.103Z</time>
      </trkpt>
      <trkpt lat="58.352363957092166" lon="12.61538797058165">
        <ele>50.24</ele>
        <time>2025-02-07T10:00:22.879Z</time>
      </trkpt>
      <trkpt lat="58.35239094682038" lon="12.615522919222713">
        <ele>50.24</ele>
        <time>2025-02-07T10:00:53.657Z</time>
      </trkpt>
      <trkpt lat="58.35241894237697" lon="12.615657951682806">
        <ele>50.23</ele>
        <time>2025-02-07T10:01:24.436Z</time>
      </trkpt>
      <trkpt lat="58.352445932105184" lon="12.615790972486138">
        <ele>50.22</ele>
        <time>2025-02-07T10:01:55.216Z</time>
      </trkpt>
      <trkpt lat="58.352472921833396" lon="12.61592692695558">
        <ele>50.21</ele>
        <time>2025-02-07T10:02:25.997Z</time>
      </trkpt>
      <trkpt lat="58.35250091738999" lon="12.616061959415674">
        <ele>50.21</ele>
        <time>2025-02-07T10:02:56.780Z</time>
      </trkpt>
      <trkpt lat="58.352528996765614" lon="12.616198919713497">
        <ele>50.21</ele>
        <time>2025-02-07T10:03:27.564Z</time>
      </trkpt>
      <trkpt lat="58.352555986493826" lon="12.616335963830352">
        <ele>50.2</ele>
        <time>2025-02-07T10:03:58.349Z</time>
      </trkpt>
      <trkpt lat="58.35258398205042" lon="12.616472924128175">
        <ele>50.2</ele>
        <time>2025-02-07T10:04:29.135Z</time>
      </trkpt>
      <trkpt lat="58.35261197760701" lon="12.61660996824503">
        <ele>50.2</ele>
        <time>2025-02-07T10:04:59.922Z</time>
      </trkpt>
      <trkpt lat="58.352640978991985" lon="12.616748940199614">
        <ele>50.2</ele>
        <time>2025-02-07T10:05:30.711Z</time>
      </trkpt>
      <trkpt lat="58.35266998037696" lon="12.616886990144849">
        <ele>50.2</ele>
        <time>2025-02-07T10:06:01.501Z</time>
      </trkpt>
      <trkpt lat="58.35269898176193" lon="12.617025962099433">
        <ele>50.2</ele>
        <time>2025-02-07T10:06:32.292Z</time>
      </trkpt>
      <trkpt lat="58.352726977318525" lon="12.617163928225636">
        <ele>50.2</ele>
        <time>2025-02-07T10:07:03.084Z</time>
      </trkpt>
      <trkpt lat="58.35275497287512" lon="12.61729996651411">
        <ele>50.2</ele>
        <time>2025-02-07T10:07:33.878Z</time>
      </trkpt>
      <trkpt lat="58.35278296843171" lon="12.617437932640314">
        <ele>50.19</ele>
        <time>2025-02-07T10:08:04.673Z</time>
      </trkpt>
      <trkpt lat="58.352810963988304" lon="12.61757598258555">
        <ele>50.19</ele>
        <time>2025-02-07T10:08:35.469Z</time>
      </trkpt>
      <trkpt lat="58.3528389595449" lon="12.617716966196895">
        <ele>50.19</ele>
        <time>2025-02-07T10:09:06.266Z</time>
      </trkpt>
      <trkpt lat="58.35286695510149" lon="12.61785694397986">
        <ele>50.19</ele>
        <time>2025-02-07T10:09:37.065Z</time>
      </trkpt>
      <trkpt lat="58.35289495065808" lon="12.617996921762824">
        <ele>50.18</ele>
        <time>2025-02-07T10:10:07.865Z</time>
      </trkpt>
      <trkpt lat="58.352920934557915" lon="12.61813597753644">
        <ele>50.18</ele>
        <time>2025-02-07T10:10:38.666Z</time>
      </trkpt>
      <trkpt lat="58.35294691845775" lon="12.618276961147785">
        <ele>50.18</ele>
        <time>2025-02-07T10:11:09.469Z</time>
      </trkpt>
      <trkpt lat="58.35297298617661" lon="12.61841693893075">
        <ele>50.18</ele>
        <time>2025-02-07T10:11:40.273Z</time>
      </trkpt>
      <trkpt lat="58.35299997590482" lon="12.618557922542095">
        <ele>50.17</ele>
        <time>2025-02-07T10:12:11.078Z</time>
      </trkpt>
      <trkpt lat="58.353025959804654" lon="12.618698989972472">
        <ele>50.17</ele>
        <time>2025-02-07T10:12:41.884Z</time>
      </trkpt>
      <trkpt lat="58.353051943704486" lon="12.618840979412198">
        <ele>50.17</ele>
        <time>2025-02-07T10:13:12.692Z</time>
      </trkpt>
      <trkpt lat="58.35307792760432" lon="12.618982968851924">
        <ele>50.16</ele>
        <time>2025-02-07T10:13:43.501Z</time>
      </trkpt>
      <trkpt lat="58.35310399532318" lon="12.61912596412003">
        <ele>50.16</ele>
        <time>2025-02-07T10:14:14.311Z</time>
      </trkpt>
      <trkpt lat="58.35312997922301" lon="12.619267953559756">
        <ele>50.16</ele>
        <time>2025-02-07T10:14:45.122Z</time>
      </trkpt>
      <trkpt lat="58.353156968951225" lon="12.619409942999482">
        <ele>50.15</ele>
        <time>2025-02-07T10:15:15.935Z</time>
      </trkpt>
      <trkpt lat="58.35318295285106" lon="12.619548998773098">
        <ele>50.15</ele>
        <time>2025-02-07T10:15:46.749Z</time>
      </trkpt>
      <trkpt lat="58.35320994257927" lon="12.619686964899302">
        <ele>50.15</ele>
        <time>2025-02-07T10:16:17.564Z</time>
      </trkpt>
      <trkpt lat="58.35323894396424" lon="12.619824931025505">
        <ele>50.14</ele>
        <time>2025-02-07T10:16:48.380Z</time>
      </trkpt>
      <trkpt lat="58.35327196866274" lon="12.619958957657218">
        <ele>50.14</ele>
        <time>2025-02-07T10:17:19.198Z</time>
      </trkpt>
      <trkpt lat="58.35331094451249" lon="12.620086949318647">
        <ele>50.14</ele>
        <time>2025-02-07T10:17:50.017Z</time>
      </trkpt>
      <trkpt lat="58.3533569611609" lon="12.620208989828825">
        <ele>50.13</ele>
        <time>2025-02-07T10:18:20.837Z</time>
      </trkpt>
      <trkpt lat="58.35341094061732" lon="12.620319966226816">
        <ele>50.13</ele>
        <time>2025-02-07T10:18:51.658Z</time>
      </trkpt>
      <trkpt lat="58.35346994921565" lon="12.620420968160033">
        <ele>50.13</ele>
        <time>2025-02-07T10:19:22.481Z</time>
      </trkpt>
      <trkpt lat="58.3535329811275" lon="12.620515935122967">
        <ele>50.13</ele>
        <time>2025-02-07T10:19:53.305Z</time>
      </trkpt>
      <trkpt lat="58.35359794087708" lon="12.620605956763029">
        <ele>50.13</ele>
        <time>2025-02-07T10:20:24.130Z</time>
      </trkpt>
      <trkpt lat="58.35366399027407" lon="12.62069296091795">
        <ele>50.13</ele>
        <time>2025-02-07T10:20:54.957Z</time>
      </trkpt>
      <trkpt lat="58.35373096168041" lon="12.620781976729631">
        <ele>50.13</ele>
        <time>2025-02-07T10:21:25.785Z</time>
      </trkpt>
      <trkpt lat="58.35379793308675" lon="12.620869986712933">
        <ele>50.14</ele>
        <time>2025-02-07T10:21:56.614Z</time>
      </trkpt>
      <trkpt lat="58.353864988312125" lon="12.620954979211092">
        <ele>50.13</ele>
        <time>2025-02-07T10:22:27.444Z</time>
      </trkpt>
      <trkpt lat="58.353932965546846" lon="12.62103896588087">
        <ele>50.13</ele>
        <time>2025-02-07T10:22:58.276Z</time>
      </trkpt>
      <trkpt lat="58.35400094278157" lon="12.62112295255065">
        <ele>50.13</ele>
        <time>2025-02-07T10:23:29.109Z</time>
      </trkpt>
      <trkpt lat="58.35406892001629" lon="12.621205933392048">
        <ele>50.13</ele>
        <time>2025-02-07T10:23:59.943Z</time>
      </trkpt>
      <trkpt lat="58.35413698107004" lon="12.621285980567336">
        <ele>50.13</ele>
        <time>2025-02-07T10:24:30.779Z</time>
      </trkpt>
      <trkpt lat="58.35420596413314" lon="12.621367955580354">
        <ele>50.12</ele>
        <time>2025-02-07T10:25:01.616Z</time>
      </trkpt>
      <trkpt lat="58.354273941367865" lon="12.621449930593371">
        <ele>50.12</ele>
        <time>2025-02-07T10:25:32.454Z</time>
      </trkpt>
      <trkpt lat="58.35434099659324" lon="12.62153391726315">
        <ele>50.12</ele>
        <time>2025-02-07T10:26:03.294Z</time>
      </trkpt>
      <trkpt lat="58.35440796799958" lon="12.621618993580341">
        <ele>50.11</ele>
        <time>2025-02-07T10:26:34.135Z</time>
      </trkpt>
      <trkpt lat="58.35447493940592" lon="12.62170197442174">
        <ele>50.11</ele>
        <time>2025-02-07T10:27:04.977Z</time>
      </trkpt>
      <trkpt lat="58.35454199463129" lon="12.621784955263138">
        <ele>50.11</ele>
        <time>2025-02-07T10:27:35.820Z</time>
      </trkpt>
      <trkpt lat="58.35460896603763" lon="12.621867936104536">
        <ele>50.11</ele>
        <time>2025-02-07T10:28:06.665Z</time>
      </trkpt>
      <trkpt lat="58.35467694327235" lon="12.621950916945934">
        <ele>50.11</ele>
        <time>2025-02-07T10:28:37.511Z</time>
      </trkpt>
      <trkpt lat="58.354743998497725" lon="12.622033981606364">
        <ele>50.11</ele>
        <time>2025-02-07T10:29:08.358Z</time>
      </trkpt>
      <trkpt lat="58.354808958247304" lon="12.62211394496262">
        <ele>50.11</ele>
        <time>2025-02-07T10:29:39.206Z</time>
      </trkpt>
      <trkpt lat="58.354872995987535" lon="12.622191980481148">
        <ele>50.11</ele>
        <time>2025-02-07T10:30:10.056Z</time>
      </trkpt>
      <trkpt lat="58.354938961565495" lon="12.622270938009024">
        <ele>50.11</ele>
        <time>2025-02-07T10:30:40.907Z</time>
      </trkpt>
      <trkpt lat="58.355005932971835" lon="12.622350985184312">
        <ele>50.11</ele>
        <time>2025-02-07T10:31:11.759Z</time>
      </trkpt>
      <trkpt lat="58.35507298819721" lon="12.622430948540568">
        <ele>50.11</ele>
        <time>2025-02-07T10:31:42.613Z</time>
      </trkpt>
      <trkpt lat="58.35514096543193" lon="12.622511917725205">
        <ele>50.11</ele>
        <time>2025-02-07T10:32:13.468Z</time>
      </trkpt>
      <trkpt lat="58.35520793683827" lon="12.622592970728874">
        <ele>50.11</ele>
        <time>2025-02-07T10:32:44.324Z</time>
      </trkpt>
      <trkpt lat="58.35527499206364" lon="12.62267293408513">
        <ele>50.11</ele>
        <time>2025-02-07T10:33:15.181Z</time>
      </trkpt>
      <trkpt lat="58.3553409576416" lon="12.622752981260419">
        <ele>50.1</ele>
        <time>2025-02-07T10:33:46.040Z</time>
      </trkpt>
      <trkpt lat="58.35540591739118" lon="12.622831938788295">
        <ele>50.1</ele>
        <time>2025-02-07T10:34:16.900Z</time>
      </trkpt>
      <trkpt lat="58.35547196678817" lon="12.622909974306822">
        <ele>50.1</ele>
        <time>2025-02-07T10:34:47.761Z</time>
      </trkpt>
      <trkpt lat="58.35553793236613" lon="12.622988931834698">
        <ele>50.11</ele>
        <time>2025-02-07T10:35:18.623Z</time>
      </trkpt>
      <trkpt lat="58.35560197010636" lon="12.623068979009986">
        <ele>50.11</ele>
        <time>2025-02-07T10:35:49.487Z</time>
      </trkpt>
      <trkpt lat="58.35566592402756" lon="12.623148942366242">
        <ele>50.11</ele>
        <time>2025-02-07T10:36:20.352Z</time>
      </trkpt>
      <trkpt lat="58.35572895593941" lon="12.62322898954153">
        <ele>50.11</ele>
        <time>2025-02-07T10:36:51.218Z</time>
      </trkpt>
      <trkpt lat="58.35579198785126" lon="12.623310964554548">
        <ele>50.12</ele>
        <time>2025-02-07T10:37:22.085Z</time>
      </trkpt>
      <trkpt lat="58.35585493594408" lon="12.623394951224327">
        <ele>50.12</ele>
        <time>2025-02-07T10:37:52.953Z</time>
      </trkpt>
      <trkpt lat="58.35591897368431" lon="12.623479943722486">
        <ele>50.12</ele>
        <time>2025-02-07T10:38:23.823Z</time>
      </trkpt>
      <trkpt lat="58.35598192177713" lon="12.623566947877407">
        <ele>50.12</ele>
        <time>2025-02-07T10:38:54.694Z</time>
      </trkpt>
      <trkpt lat="58.3560439478606" lon="12.623655963689089">
        <ele>50.12</ele>
        <time>2025-02-07T10:39:25.566Z</time>
      </trkpt>
      <trkpt lat="58.35610396228731" lon="12.623745985329151">
        <ele>50.13</ele>
        <time>2025-02-07T10:39:56.439Z</time>
      </trkpt>
      <trkpt lat="58.356161965057254" lon="12.623840952292085">
        <ele>50.13</ele>
        <time>2025-02-07T10:40:27.314Z</time>
      </trkpt>
      <trkpt lat="58.35621795617044" lon="12.62393793091178">
        <ele>50.13</ele>
        <time>2025-02-07T10:40:58.190Z</time>
      </trkpt>
      <trkpt lat="58.356273947283626" lon="12.624038932844996">
        <ele>50.13</ele>
        <time>2025-02-07T10:41:29.067Z</time>
      </trkpt>
      <trkpt lat="58.35632792674005" lon="12.624145969748497">
        <ele>50.13</ele>
        <time>2025-02-07T10:41:59.945Z</time>
      </trkpt>
      <trkpt lat="58.356379978358746" lon="12.624255940318108">
        <ele>50.14</ele>
        <time>2025-02-07T10:42:30.825Z</time>
      </trkpt>
      <trkpt lat="58.35643094033003" lon="12.624366916716099">
        <ele>50.14</ele>
        <time>2025-02-07T10:43:01.706Z</time>
      </trkpt>
      <trkpt lat="58.35647997446358" lon="12.624479988589883">
        <ele>50.14</ele>
        <time>2025-02-07T10:43:32.588Z</time>
      </trkpt>
      <trkpt lat="58.356528924778104" lon="12.624591970816255">
        <ele>50.15</ele>
        <time>2025-02-07T10:44:03.471Z</time>
      </trkpt>
      <trkpt lat="58.35657795891166" lon="12.624702947214246">
        <ele>50.15</ele>
        <time>2025-02-07T10:44:34.356Z</time>
      </trkpt>
      <trkpt lat="58.35662892088294" lon="12.624810989946127">
        <ele>50.15</ele>
        <time>2025-02-07T10:45:05.242Z</time>
      </trkpt>
      <trkpt lat="58.356680972501636" lon="12.624915931373835">
        <ele>50.16</ele>
        <time>2025-02-07T10:45:36.129Z</time>
      </trkpt>
      <trkpt lat="58.35673495195806" lon="12.62501492165029">
        <ele>50.17</ele>
        <time>2025-02-07T10:46:07.017Z</time>
      </trkpt>
      <trkpt lat="58.35679295472801" lon="12.625106954947114">
        <ele>50.17</ele>
        <time>2025-02-07T10:46:37.906Z</time>
      </trkpt>
      <trkpt lat="58.356851963326335" lon="12.625194964930415">
        <ele>50.18</ele>
        <time>2025-02-07T10:47:08.797Z</time>
      </trkpt>
      <trkpt lat="58.356913989409804" lon="12.625277945771813">
        <ele>50.18</ele>
        <time>2025-02-07T10:47:39.689Z</time>
      </trkpt>
      <trkpt lat="58.35697693750262" lon="12.625357992947102">
        <ele>50.19</ele>
        <time>2025-02-07T10:48:10.582Z</time>
      </trkpt>
      <trkpt lat="58.35704097524285" lon="12.625433932989836">
        <ele>50.19</ele>
        <time>2025-02-07T10:48:41.476Z</time>
      </trkpt>
      <trkpt lat="58.35710593499243" lon="12.625508951023221">
        <ele>50.19</ele>
        <time>2025-02-07T10:49:12.371Z</time>
      </trkpt>
      <trkpt lat="58.357171984389424" lon="12.625582963228226">
        <ele>50.19</ele>
        <time>2025-02-07T10:49:43.268Z</time>
      </trkpt>
      <trkpt lat="58.357237949967384" lon="12.625657981261611">
        <ele>50.19</ele>
        <time>2025-02-07T10:50:14.166Z</time>
      </trkpt>
      <trkpt lat="58.357303999364376" lon="12.625733921304345">
        <ele>50.2</ele>
        <time>2025-02-07T10:50:45.065Z</time>
      </trkpt>
      <trkpt lat="58.357367953285575" lon="12.625811956822872">
        <ele>50.2</ele>
        <time>2025-02-07T10:51:15.965Z</time>
      </trkpt>
      <trkpt lat="58.357428973540664" lon="12.62589292600751">
        <ele>50.21</ele>
        <time>2025-02-07T10:51:46.867Z</time>
      </trkpt>
      <trkpt lat="58.35748798213899" lon="12.62597993016243">
        <ele>50.21</ele>
        <time>2025-02-07T10:52:17.770Z</time>
      </trkpt>
      <trkpt lat="58.35754397325218" lon="12.626073975116014">
        <ele>50.21</ele>
        <time>2025-02-07T10:52:48.674Z</time>
      </trkpt>
      <trkpt lat="58.35759895853698" lon="12.62617195956409">
        <ele>50.22</ele>
        <time>2025-02-07T10:53:19.579Z</time>
      </trkpt>
      <trkpt lat="58.35765394382179" lon="12.626269944012165">
        <ele>50.22</ele>
        <time>2025-02-07T10:53:50.485Z</time>
      </trkpt>
      <trkpt lat="58.35770599544048" lon="12.626370945945382">
        <ele>50.23</ele>
        <time>2025-02-07T10:54:21.393Z</time>
      </trkpt>
      <trkpt lat="58.357756957411766" lon="12.62647295370698">
        <ele>50.24</ele>
        <time>2025-02-07T10:54:52.302Z</time>
      </trkpt>
      <trkpt lat="58.35780791938305" lon="12.626574961468577">
        <ele>50.24</ele>
        <time>2025-02-07T10:55:23.212Z</time>
      </trkpt>
      <trkpt lat="58.357858965173364" lon="12.626675963401794">
        <ele>50.25</ele>
        <time>2025-02-07T10:55:54.123Z</time>
      </trkpt>
      <trkpt lat="58.35790992714465" lon="12.62677495367825">
        <ele>50.25</ele>
        <time>2025-02-07T10:56:25.035Z</time>
      </trkpt>
      <trkpt lat="58.35796197876334" lon="12.626873943954706">
        <ele>50.26</ele>
        <time>2025-02-07T10:56:55.948Z</time>
      </trkpt>
      <trkpt lat="58.358013946563005" lon="12.626971928402781">
        <ele>50.27</ele>
        <time>2025-02-07T10:57:26.863Z</time>
      </trkpt>
      <trkpt lat="58.35806692019105" lon="12.627069996669888">
        <ele>50.27</ele>
        <time>2025-02-07T10:57:57.779Z</time>
      </trkpt>
      <trkpt lat="58.358119977638125" lon="12.627166975289583">
        <ele>50.27</ele>
        <time>2025-02-07T10:58:28.696Z</time>
      </trkpt>
      <trkpt lat="58.35817194543779" lon="12.627262948080897">
        <ele>50.28</ele>
        <time>2025-02-07T10:58:59.614Z</time>
      </trkpt>
      <trkpt lat="58.358223997056484" lon="12.627357998862863">
        <ele>50.28</ele>
        <time>2025-02-07T10:59:30.533Z</time>
      </trkpt>
      <trkpt lat="58.35827596485615" lon="12.627452965825796">
        <ele>50.28</ele>
        <time>2025-02-07T11:00:01.453Z</time>
      </trkpt>
      <trkpt lat="58.35832893848419" lon="12.627546926960349">
        <ele>50.29</ele>
        <time>2025-02-07T11:00:32.375Z</time>
      </trkpt>
      <trkpt lat="58.358383923769" lon="12.627640971913934">
        <ele>50.3</ele>
        <time>2025-02-07T11:01:03.298Z</time>
      </trkpt>
      <trkpt lat="58.358437987044454" lon="12.627733927220106">
        <ele>50.31</ele>
        <time>2025-02-07T11:01:34.222Z</time>
      </trkpt>
      <trkpt lat="58.35848995484412" lon="12.62782797217369">
        <ele>50.32</ele>
        <time>2025-02-07T11:02:05.147Z</time>
      </trkpt>
      <trkpt lat="58.35854292847216" lon="12.627921933308244">
        <ele>50.33</ele>
        <time>2025-02-07T11:02:36.073Z</time>
      </trkpt>
      <trkpt lat="58.35859598591924" lon="12.628015978261828">
        <ele>50.33</ele>
        <time>2025-02-07T11:03:07.000Z</time>
      </trkpt>
      <trkpt lat="58.35864996537566" lon="12.628108933568">
        <ele>50.34</ele>
        <time>2025-02-07T11:03:37.929Z</time>
      </trkpt>
      <trkpt lat="58.35870394483209" lon="12.628201972693205">
        <ele>50.34</ele>
        <time>2025-02-07T11:04:08.859Z</time>
      </trkpt>
      <trkpt lat="58.35875893011689" lon="12.628294927999377">
        <ele>50.35</ele>
        <time>2025-02-07T11:04:39.790Z</time>
      </trkpt>
      <trkpt lat="58.35881299339235" lon="12.628390984609723">
        <ele>50.36</ele>
        <time>2025-02-07T11:05:10.722Z</time>
      </trkpt>
      <trkpt lat="58.358868984505534" lon="12.628484945744276">
        <ele>50.36</ele>
        <time>2025-02-07T11:05:41.655Z</time>
      </trkpt>
      <trkpt lat="58.35892497561872" lon="12.62857798486948">
        <ele>50.37</ele>
        <time>2025-02-07T11:06:12.590Z</time>
      </trkpt>
      <trkpt lat="58.358980966731906" lon="12.628670940175653">
        <ele>50.37</ele>
        <time>2025-02-07T11:06:43.526Z</time>
      </trkpt>
      <trkpt lat="58.35903595201671" lon="12.628764985129237">
        <ele>50.38</ele>
        <time>2025-02-07T11:07:14.463Z</time>
      </trkpt>
      <trkpt lat="58.359089931473136" lon="12.62885995209217">
        <ele>50.39</ele>
        <time>2025-02-07T11:07:45.401Z</time>
      </trkpt>
      <trkpt lat="58.35914491675794" lon="12.628953997045755">
        <ele>50.39</ele>
        <time>2025-02-07T11:08:16.340Z</time>
      </trkpt>
      <trkpt lat="58.3591989800334" lon="12.629048964008689">
        <ele>50.4</ele>
        <time>2025-02-07T11:08:47.280Z</time>
      </trkpt>
      <trkpt lat="58.359254971146584" lon="12.629142925143242">
        <ele>50.41</ele>
        <time>2025-02-07T11:09:18.222Z</time>
      </trkpt>
      <trkpt lat="58.35930995643139" lon="12.629237975925207">
        <ele>50.42</ele>
        <time>2025-02-07T11:09:49.165Z</time>
      </trkpt>
      <trkpt lat="58.359364941716194" lon="12.62933294288814">
        <ele>50.42</ele>
        <time>2025-02-07T11:10:20.109Z</time>
      </trkpt>
      <trkpt lat="58.359419927001" lon="12.629428999498487">
        <ele>50.43</ele>
        <time>2025-02-07T11:10:51.054Z</time>
      </trkpt>
      <trkpt lat="58.359475918114185" lon="12.629525978118181">
        <ele>50.44</ele>
        <time>2025-02-07T11:11:22.000Z</time>
      </trkpt>
      <trkpt lat="58.35953299887478" lon="12.629622956737876">
        <ele>50.44</ele>
        <time>2025-02-07T11:11:52.948Z</time>
      </trkpt>
      <trkpt lat="58.35958999581635" lon="12.62971993535757">
        <ele>50.45</ele>
        <time>2025-02-07T11:12:23.897Z</time>
      </trkpt>
      <trkpt lat="58.35964699275792" lon="12.629814986139536">
        <ele>50.45</ele>
        <time>2025-02-07T11:12:54.847Z</time>
      </trkpt>
      <trkpt lat="58.3597029838711" lon="12.62991095893085">
        <ele>50.45</ele>
        <time>2025-02-07T11:13:25.798Z</time>
      </trkpt>
      <trkpt lat="58.35975796915591" lon="12.630006931722164">
        <ele>50.46</ele>
        <time>2025-02-07T11:13:56.751Z</time>
      </trkpt>
      <trkpt lat="58.35981295444071" lon="12.630099970847368">
        <ele>50.46</ele>
        <time>2025-02-07T11:14:27.705Z</time>
      </trkpt>
      <trkpt lat="58.3598689455539" lon="12.630190998315811">
        <ele>50.47</ele>
        <time>2025-02-07T11:14:58.660Z</time>
      </trkpt>
      <trkpt lat="58.359926948323846" lon="12.6302779186517">
        <ele>50.47</ele>
        <time>2025-02-07T11:15:29.616Z</time>
      </trkpt>
      <trkpt lat="58.35998595692217" lon="12.63036198914051">
        <ele>50.47</ele>
        <time>2025-02-07T11:16:00.573Z</time>
      </trkpt>
      <trkpt lat="58.36004697717726" lon="12.630444969981909">
        <ele>50.48</ele>
        <time>2025-02-07T11:16:31.531Z</time>
      </trkpt>
      <trkpt lat="58.36010699160397" lon="12.630526944994926">
        <ele>50.49</ele>
        <time>2025-02-07T11:17:02.491Z</time>
      </trkpt>
      <trkpt lat="58.36016692221165" lon="12.630612943321466">
        <ele>50.5</ele>
        <time>2025-02-07T11:17:33.452Z</time>
      </trkpt>
      <trkpt lat="58.360224924981594" lon="12.63070397078991">
        <ele>50.51</ele>
        <time>2025-02-07T11:18:04.414Z</time>
      </trkpt>
      <trkpt lat="58.36028099991381" lon="12.630798937752843">
        <ele>50.51</ele>
        <time>2025-02-07T11:18:35.377Z</time>
      </trkpt>
      <trkpt lat="58.360332967713475" lon="12.630896922200918">
        <ele>50.51</ele>
        <time>2025-02-07T11:19:06.341Z</time>
      </trkpt>
      <trkpt lat="58.36038099601865" lon="12.630997924134135">
        <ele>50.51</ele>
        <time>2025-02-07T11:19:37.307Z</time>
      </trkpt>
      <trkpt lat="58.36042592301965" lon="12.631100937724113">
        <ele>50.5</ele>
        <time>2025-02-07T11:20:08.274Z</time>
      </trkpt>
      <trkpt lat="58.36047093383968" lon="12.631204957142472">
        <ele>50.5</ele>
        <time>2025-02-07T11:20:39.242Z</time>
      </trkpt>
      <trkpt lat="58.36051594465971" lon="12.631309982389212">
        <ele>50.5</ele>
        <time>2025-02-07T11:21:10.211Z</time>
      </trkpt>
      <trkpt lat="58.36055994965136" lon="12.63141693547368">
        <ele>50.49</ele>
        <time>2025-02-07T11:21:41.181Z</time>
      </trkpt>
      <trkpt lat="58.36060294881463" lon="12.631523972377181">
        <ele>50.49</ele>
        <time>2025-02-07T11:22:12.152Z</time>
      </trkpt>
      <trkpt lat="58.3606459479779" lon="12.631632937118411">
        <ele>50.49</ele>
        <time>2025-02-07T11:22:43.124Z</time>
      </trkpt>
      <trkpt lat="58.36068894714117" lon="12.631741985678673">
        <ele>50.49</ele>
        <time>2025-02-07T11:23:14.098Z</time>
      </trkpt>
      <trkpt lat="58.36073194630444" lon="12.631850950419903">
        <ele>50.48</ele>
        <time>2025-02-07T11:23:45.073Z</time>
      </trkpt>
      <trkpt lat="58.36077393963933" lon="12.631959998980165">
        <ele>50.48</ele>
        <time>2025-02-07T11:24:16.049Z</time>
      </trkpt>
      <trkpt lat="58.36081492714584" lon="12.632069969549775">
        <ele>50.48</ele>
        <time>2025-02-07T11:24:47.026Z</time>
      </trkpt>
      <trkpt lat="58.36085692048073" lon="12.632179940119386">
        <ele>50.48</ele>
        <time>2025-02-07T11:25:18.004Z</time>
      </trkpt>
      <trkpt lat="58.360899919644" lon="12.632289994508028">
        <ele>50.48</ele>
        <time>2025-02-07T11:25:48.983Z</time>
      </trkpt>
      <trkpt lat="58.36094199679792" lon="12.632398959249258">
        <ele>50.48</ele>
        <time>2025-02-07T11:26:19.963Z</time>
      </trkpt>
      <trkpt lat="58.36098298430443" lon="12.632507923990488">
        <ele>50.48</ele>
        <time>2025-02-07T11:26:50.945Z</time>
      </trkpt>
      <trkpt lat="58.361020954325795" lon="12.63261797837913">
        <ele>50.48</ele>
        <time>2025-02-07T11:27:21.928Z</time>
      </trkpt>
      <trkpt lat="58.36105699650943" lon="12.632729960605502">
        <ele>50.48</ele>
        <time>2025-02-07T11:27:52.912Z</time>
      </trkpt>
      <trkpt lat="58.36109295487404" lon="12.632842948660254">
        <ele>50.48</ele>
        <time>2025-02-07T11:28:23.897Z</time>
      </trkpt>
      <trkpt lat="58.361126985400915" lon="12.63295996002853">
        <ele>50.48</ele>
        <time>2025-02-07T11:28:54.883Z</time>
      </trkpt>
      <trkpt lat="58.36115992628038" lon="12.633078983053565">
        <ele>50.48</ele>
        <time>2025-02-07T11:29:25.870Z</time>
      </trkpt>
      <trkpt lat="58.361191945150495" lon="12.633200939744711">
        <ele>50.47</ele>
        <time>2025-02-07T11:29:56.858Z</time>
      </trkpt>
      <trkpt lat="58.36122195236385" lon="12.633321974426508">
        <ele>50.47</ele>
        <time>2025-02-07T11:30:27.847Z</time>
      </trkpt>
      <trkpt lat="58.36125095374882" lon="12.633442925289273">
        <ele>50.46</ele>
        <time>2025-02-07T11:30:58.838Z</time>
      </trkpt>
      <trkpt lat="58.361279955133796" lon="12.63356496579945">
        <ele>50.46</ele>
        <time>2025-02-07T11:31:29.830Z</time>
      </trkpt>
      <trkpt lat="58.36130795069039" lon="12.633686922490597">
        <ele>50.45</ele>
        <time>2025-02-07T11:32:00.823Z</time>
      </trkpt>
      <trkpt lat="58.36133795790374" lon="12.633808963000774">
        <ele>50.45</ele>
        <time>2025-02-07T11:32:31.817Z</time>
      </trkpt>
      <trkpt lat="58.3613679651171" lon="12.633929997682571">
        <ele>50.45</ele>
        <time>2025-02-07T11:33:02.812Z</time>
      </trkpt>
      <trkpt lat="58.36139897815883" lon="12.634049942716956">
        <ele>50.44</ele>
        <time>2025-02-07T11:33:33.808Z</time>
      </trkpt>
      <trkpt lat="58.361432924866676" lon="12.634167959913611">
        <ele>50.44</ele>
        <time>2025-02-07T11:34:04.805Z</time>
      </trkpt>
      <trkpt lat="58.361468967050314" lon="12.634283965453506">
        <ele>50.44</ele>
        <time>2025-02-07T11:34:35.803Z</time>
      </trkpt>
      <trkpt lat="58.36150693707168" lon="12.63440097682178">
        <ele>50.43</ele>
        <time>2025-02-07T11:35:06.803Z</time>
      </trkpt>
      <trkpt lat="58.36154691874981" lon="12.634514970704913">
        <ele>50.43</ele>
        <time>2025-02-07T11:35:37.804Z</time>
      </trkpt>
      <trkpt lat="58.36158799007535" lon="12.634626952931285">
        <ele>50.43</ele>
        <time>2025-02-07T11:36:08.806Z</time>
      </trkpt>
      <trkpt lat="58.36162797175348" lon="12.634737929329276">
        <ele>50.42</ele>
        <time>2025-02-07T11:36:39.809Z</time>
      </trkpt>
      <trkpt lat="58.36167197674513" lon="12.634843960404396">
        <ele>50.42</ele>
        <time>2025-02-07T11:37:10.813Z</time>
      </trkpt>
      <trkpt lat="58.36171992123127" lon="12.634943956509233">
        <ele>50.42</ele>
        <time>2025-02-07T11:37:41.818Z</time>
      </trkpt>
      <trkpt lat="58.36177499033511" lon="12.635029954835773">
        <ele>50.42</ele>
        <time>2025-02-07T11:38:12.825Z</time>
      </trkpt>
      <trkpt lat="58.361837938427925" lon="12.635099943727255">
        <ele>50.41</ele>
        <time>2025-02-07T11:38:43.833Z</time>
      </trkpt>
      <trkpt lat="58.3619049936533" lon="12.635156940668821">
        <ele>50.41</ele>
        <time>2025-02-07T11:39:14.842Z</time>
      </trkpt>
      <trkpt lat="58.36197598837316" lon="12.635204968973994">
        <ele>50.41</ele>
        <time>2025-02-07T11:39:45.852Z</time>
      </trkpt>
      <trkpt lat="58.36204698309302" lon="12.635248973965645">
        <ele>50.4</ele>
        <time>2025-02-07T11:40:16.863Z</time>
      </trkpt>
      <trkpt lat="58.362117977812886" lon="12.635291973128915">
        <ele>50.4</ele>
        <time>2025-02-07T11:40:47.875Z</time>
      </trkpt>
      <trkpt lat="58.36218897253275" lon="12.635336983948946">
        <ele>50.4</ele>
        <time>2025-02-07T11:41:18.889Z</time>
      </trkpt>
      <trkpt lat="58.36226097308099" lon="12.635381994768977">
        <ele>50.39</ele>
        <time>2025-02-07T11:41:49.904Z</time>
      </trkpt>
      <trkpt lat="58.362332973629236" lon="12.635428933426738">
        <ele>50.39</ele>
        <time>2025-02-07T11:42:20.920Z</time>
      </trkpt>
      <trkpt lat="58.36240497417748" lon="12.63547696173191">
        <ele>50.39</ele>
        <time>2025-02-07T11:42:51.937Z</time>
      </trkpt>
      <trkpt lat="58.36247596889734" lon="12.635528929531574">
        <ele>50.38</ele>
        <time>2025-02-07T11:43:22.956Z</time>
      </trkpt>
      <trkpt lat="58.362546963617206" lon="12.63558198697865">
        <ele>50.38</ele>
        <time>2025-02-07T11:43:53.976Z</time>
      </trkpt>
      <trkpt lat="58.36261695250869" lon="12.635634960606694">
        <ele>50.38</ele>
        <time>2025-02-07T11:44:24.997Z</time>
      </trkpt>
      <trkpt lat="58.36268794722855" lon="12.635685922577977">
        <ele>50.37</ele>
        <time>2025-02-07T11:44:56.019Z</time>
      </trkpt>
      <trkpt lat="58.362760953605175" lon="12.635735962539911">
        <ele>50.37</ele>
        <time>2025-02-07T11:45:27.042Z</time>
      </trkpt>
      <trkpt lat="58.36283496581018" lon="12.6357779558748">
        <ele>50.37</ele>
        <time>2025-02-07T11:45:58.067Z</time>
      </trkpt>
      <trkpt lat="58.362910989671946" lon="12.635806957259774">
        <ele>50.37</ele>
        <time>2025-02-07T11:46:29.093Z</time>
      </trkpt>
      <trkpt lat="58.36298894137144" lon="12.63581994920969">
        <ele>50.36</ele>
        <time>2025-02-07T11:47:00.120Z</time>
      </trkpt>
      <trkpt lat="58.36306697688997" lon="12.635812992230058">
        <ele>50.36</ele>
        <time>2025-02-07T11:47:31.148Z</time>
      </trkpt>
      <trkpt lat="58.36314492858946" lon="12.635786924511194">
        <ele>50.36</ele>
        <time>2025-02-07T11:48:02.178Z</time>
      </trkpt>
      <trkpt lat="58.36322195827961" lon="12.635745937004685">
        <ele>50.36</ele>
        <time>2025-02-07T11:48:33.209Z</time>
      </trkpt>
      <trkpt lat="58.363297982141376" lon="12.635702937841415">
        <ele>50.37</ele>
        <time>2025-02-07T11:49:04.241Z</time>
      </trkpt>
      <trkpt lat="58.36337392218411" lon="12.63567192479968">
        <ele>50.37</ele>
        <time>2025-02-07T11:49:35.274Z</time>
      </trkpt>
      <trkpt lat="58.36345296353102" lon="12.635661950334907">
        <ele>50.37</ele>
        <time>2025-02-07T11:50:06.309Z</time>
      </trkpt>
      <trkpt lat="58.36353192105889" lon="12.6356709189713">
        <ele>50.38</ele>
        <time>2025-02-07T11:50:37.345Z</time>
      </trkpt>
      <trkpt lat="58.3636109624058" lon="12.635692963376641">
        <ele>50.38</ele>
        <time>2025-02-07T11:51:08.382Z</time>
      </trkpt>
      <trkpt lat="58.36368698626757" lon="12.635728921741247">
        <ele>50.38</ele>
        <time>2025-02-07T11:51:39.421Z</time>
      </trkpt>
      <trkpt lat="58.36376099847257" lon="12.6357779558748">
        <ele>50.38</ele>
        <time>2025-02-07T11:52:10.461Z</time>
      </trkpt>
      <trkpt lat="58.363830987364054" lon="12.635833946987987">
        <ele>50.37</ele>
        <time>2025-02-07T11:52:41.502Z</time>
      </trkpt>
      <trkpt lat="58.363896952942014" lon="12.635902930051088">
        <ele>50.37</ele>
        <time>2025-02-07T11:53:12.544Z</time>
      </trkpt>
      <trkpt lat="58.36395193822682" lon="12.63599295169115">
        <ele>50.37</ele>
        <time>2025-02-07T11:53:43.587Z</time>
      </trkpt>
      <trkpt lat="58.36399795487523" lon="12.63609898276627">
        <ele>50.36</ele>
        <time>2025-02-07T11:54:14.632Z</time>
      </trkpt>
      <trkpt lat="58.36404195986688" lon="12.636219933629036">
        <ele>50.36</ele>
        <time>2025-02-07T11:54:45.678Z</time>
      </trkpt>
      <trkpt lat="58.36408495903015" lon="12.636344991624355">
        <ele>50.36</ele>
        <time>2025-02-07T11:55:16.725Z</time>
      </trkpt>
      <trkpt lat="58.3641289640218" lon="12.636469965800643">
        <ele>50.35</ele>
        <time>2025-02-07T11:55:47.773Z</time>
      </trkpt>
      <trkpt lat="58.36417296901345" lon="12.636597957462072">
        <ele>50.35</ele>
        <time>2025-02-07T11:56:18.823Z</time>
      </trkpt>
      <trkpt lat="58.3642169740051" lon="12.636724943295121">
        <ele>50.35</ele>
        <time>2025-02-07T11:56:49.874Z</time>
      </trkpt>
      <trkpt lat="58.364260978996754" lon="12.63685092329979">
        <ele>50.34</ele>
        <time>2025-02-07T11:57:20.926Z</time>
      </trkpt>
      <trkpt lat="58.364306995645165" lon="12.636974975466728">
        <ele>50.34</ele>
        <time>2025-02-07T11:57:51.979Z</time>
      </trkpt>
      <trkpt lat="58.36435594595969" lon="12.637099949643016">
        <ele>50.33</ele>
        <time>2025-02-07T11:58:23.034Z</time>
      </trkpt>
      <trkpt lat="58.36440992541611" lon="12.637220984324813">
        <ele>50.32</ele>
        <time>2025-02-07T11:58:54.090Z</time>
      </trkpt>
      <trkpt lat="58.36446893401444" lon="12.637337995693088">
        <ele>50.32</ele>
        <time>2025-02-07T11:59:25.147Z</time>
      </trkpt>
      <trkpt lat="58.36453196592629" lon="12.637452995404601">
        <ele>50.31</ele>
        <time>2025-02-07T11:59:56.206Z</time>
      </trkpt>
      <trkpt lat="58.36459499783814" lon="12.637571934610605">
        <ele>50.31</ele>
        <time>2025-02-07T12:00:27.266Z</time>
      </trkpt>
      <trkpt lat="58.3646559342742" lon="12.637696992605925">
        <ele>50.31</ele>
        <time>2025-02-07T12:00:58.328Z</time>
      </trkpt>
      <trkpt lat="58.364713937044144" lon="12.637826995924115">
        <ele>50.31</ele>
        <time>2025-02-07T12:01:29.391Z</time>
      </trkpt>
      <trkpt lat="58.36476992815733" lon="12.637961944565177">
        <ele>50.3</ele>
        <time>2025-02-07T12:02:00.456Z</time>
      </trkpt>
      <trkpt lat="58.364822985604405" lon="12.63809597119689">
        <ele>50.3</ele>
        <time>2025-02-07T12:02:31.522Z</time>
      </trkpt>
      <trkpt lat="58.36487394757569" lon="12.638230919837952">
        <ele>50.3</ele>
        <time>2025-02-07T12:03:02.589Z</time>
      </trkpt>
      <trkpt lat="58.36492398753762" lon="12.638365952298045">
        <ele>50.3</ele>
        <time>2025-02-07T12:03:33.658Z</time>
      </trkpt>
      <trkpt lat="58.364971932023764" lon="12.638499978929758">
        <ele>50.29</ele>
        <time>2025-02-07T12:04:04.728Z</time>
      </trkpt>
      <trkpt lat="58.3650219719857" lon="12.63863392174244">
        <ele>50.29</ele>
        <time>2025-02-07T12:04:35.800Z</time>
      </trkpt>
      <trkpt lat="58.3650719281286" lon="12.63876493088901">
        <ele>50.3</ele>
        <time>2025-02-07T12:05:06.873Z</time>
      </trkpt>
      <trkpt lat="58.365121968090534" lon="12.63889392837882">
        <ele>50.3</ele>
        <time>2025-02-07T12:05:37.947Z</time>
      </trkpt>
      <trkpt lat="58.365170918405056" lon="12.63901898637414">
        <ele>50.31</ele>
        <time>2025-02-07T12:06:09.023Z</time>
      </trkpt>
      <trkpt lat="58.36521894671023" lon="12.639139937236905">
        <ele>50.32</ele>
        <time>2025-02-07T12:06:40.100Z</time>
      </trkpt>
      <trkpt lat="58.36526596918702" lon="12.639258960261941">
        <ele>50.33</ele>
        <time>2025-02-07T12:07:11.178Z</time>
      </trkpt>
      <trkpt lat="58.365312991663814" lon="12.639372954145074">
        <ele>50.34</ele>
        <time>2025-02-07T12:07:42.257Z</time>
      </trkpt>
      <trkpt lat="58.365360936149955" lon="12.639483930543065">
        <ele>50.36</ele>
        <time>2025-02-07T12:08:13.338Z</time>
      </trkpt>
      <trkpt lat="58.36540695279837" lon="12.639589961618185">
        <ele>50.37</ele>
        <time>2025-02-07T12:08:44.420Z</time>
      </trkpt>
      <trkpt lat="58.36545296944678" lon="12.639691969379783">
        <ele>50.38</ele>
        <time>2025-02-07T12:09:15.503Z</time>
      </trkpt>
      <trkpt lat="58.36549798026681" lon="12.639788947999477">
        <ele>50.39</ele>
        <time>2025-02-07T12:09:46.587Z</time>
      </trkpt>
      <trkpt lat="58.36554299108684" lon="12.639883998781443">
        <ele>50.4</ele>
        <time>2025-02-07T12:10:17.672Z</time>
      </trkpt>
      <trkpt lat="58.36558699607849" lon="12.639977959915996">
        <ele>50.41</ele>
        <time>2025-02-07T12:10:48.758Z</time>
      </trkpt>
      <trkpt lat="58.36562898941338" lon="12.64007493853569">
        <ele>50.42</ele>
        <time>2025-02-07T12:11:19.845Z</time>
      </trkpt>
      <trkpt lat="58.36566997691989" lon="12.640173928812146">
        <ele>50.43</ele>
        <time>2025-02-07T12:11:50.933Z</time>
      </trkpt>
      <trkpt lat="58.36570895276964" lon="12.640274930745363">
        <ele>50.44</ele>
        <time>2025-02-07T12:12:22.022Z</time>
      </trkpt>
      <trkpt lat="58.365748934447765" lon="12.640377944335341">
        <ele>50.45</ele>
        <time>2025-02-07T12:12:53.112Z</time>
      </trkpt>
      <trkpt lat="58.365788999944925" lon="12.64048296958208">
        <ele>50.46</ele>
        <time>2025-02-07T12:13:24.203Z</time>
      </trkpt>
      <trkpt lat="58.36582898162305" lon="12.640585983172059">
        <ele>50.47</ele>
        <time>2025-02-07T12:13:55.296Z</time>
      </trkpt>
      <trkpt lat="58.3658679574728" lon="12.640687990933657">
        <ele>50.49</ele>
        <time>2025-02-07T12:14:26.390Z</time>
      </trkpt>
      <trkpt lat="58.36590592749417" lon="12.640790920704603">
        <ele>50.5</ele>
        <time>2025-02-07T12:14:57.485Z</time>
      </trkpt>
      <trkpt lat="58.36594398133457" lon="12.640893934294581">
        <ele>50.51</ele>
        <time>2025-02-07T12:15:28.581Z</time>
      </trkpt>
      <trkpt lat="58.365981951355934" lon="12.64099795371294">
        <ele>50.52</ele>
        <time>2025-02-07T12:15:59.678Z</time>
      </trkpt>
      <trkpt lat="58.3660199213773" lon="12.64110297895968">
        <ele>50.54</ele>
        <time>2025-02-07T12:16:30.776Z</time>
      </trkpt>
      <trkpt lat="58.36605898104608" lon="12.641207920387387">
        <ele>50.55</ele>
        <time>2025-02-07T12:17:01.875Z</time>
      </trkpt>
      <trkpt lat="58.36609896272421" lon="12.641311939805746">
        <ele>50.56</ele>
        <time>2025-02-07T12:17:32.975Z</time>
      </trkpt>
      <trkpt lat="58.36613894440234" lon="12.641414953395724">
        <ele>50.57</ele>
        <time>2025-02-07T12:18:04.076Z</time>
      </trkpt>
      <trkpt lat="58.366177920252085" lon="12.641517966985703">
        <ele>50.58</ele>
        <time>2025-02-07T12:18:35.178Z</time>
      </trkpt>
      <trkpt lat="58.366218991577625" lon="12.64162098057568">
        <ele>50.59</ele>
        <time>2025-02-07T12:19:06.281Z</time>
      </trkpt>
      <trkpt lat="58.366259979084134" lon="12.641721982508898">
        <ele>50.6</ele>
        <time>2025-02-07T12:19:37.385Z</time>
      </trkpt>
      <trkpt lat="58.36630197241902" lon="12.641823990270495">
        <ele>50.61</ele>
        <time>2025-02-07T12:20:08.490Z</time>
      </trkpt>
      <trkpt lat="58.36634295992553" lon="12.641927925869823">
        <ele>50.62</ele>
        <time>2025-02-07T12:20:39.597Z</time>
      </trkpt>
      <trkpt lat="58.36638294160366" lon="12.642032951116562">
        <ele>50.63</ele>
        <time>2025-02-07T12:21:10.705Z</time>
      </trkpt>
      <trkpt lat="58.36642392911017" lon="12.642138982191682">
        <ele>50.64</ele>
        <time>2025-02-07T12:21:41.814Z</time>
      </trkpt>
      <trkpt lat="58.36646592244506" lon="12.64224392361939">
        <ele>50.66</ele>
        <time>2025-02-07T12:22:12.924Z</time>
      </trkpt>
      <trkpt lat="58.3665069937706" lon="12.642348948866129">
        <ele>50.67</ele>
        <time>2025-02-07T12:22:44.035Z</time>
      </trkpt>
      <trkpt lat="58.36654898710549" lon="12.642452968284488">
        <ele>50.68</ele>
        <time>2025-02-07T12:23:15.147Z</time>
      </trkpt>
      <trkpt lat="58.36659098044038" lon="12.642557993531227">
        <ele>50.69</ele>
        <time>2025-02-07T12:23:46.260Z</time>
      </trkpt>
      <trkpt lat="58.36663397960365" lon="12.642662934958935">
        <ele>50.7</ele>
        <time>2025-02-07T12:24:17.374Z</time>
      </trkpt>
      <trkpt lat="58.36667697876692" lon="12.642766954377294">
        <ele>50.71</ele>
        <time>2025-02-07T12:24:48.489Z</time>
      </trkpt>
      <trkpt lat="58.36671897210181" lon="12.642872985452414">
        <ele>50.72</ele>
        <time>2025-02-07T12:25:19.606Z</time>
      </trkpt>
      <trkpt lat="58.36676197126508" lon="12.642978932708502">
        <ele>50.73</ele>
        <time>2025-02-07T12:25:50.724Z</time>
      </trkpt>
      <trkpt lat="58.36680597625673" lon="12.643084963783622">
        <ele>50.74</ele>
        <time>2025-02-07T12:26:21.843Z</time>
      </trkpt>
      <trkpt lat="58.36684897542" lon="12.643190994858742">
        <ele>50.75</ele>
        <time>2025-02-07T12:26:52.963Z</time>
      </trkpt>
      <trkpt lat="58.36689197458327" lon="12.64329794794321">
        <ele>50.76</ele>
        <time>2025-02-07T12:27:24.084Z</time>
      </trkpt>
      <trkpt lat="58.36693497374654" lon="12.64340397901833">
        <ele>50.77</ele>
        <time>2025-02-07T12:27:55.206Z</time>
      </trkpt>
      <trkpt lat="58.36697897873819" lon="12.643508920446038">
        <ele>50.78</ele>
        <time>2025-02-07T12:28:26.329Z</time>
      </trkpt>
      <trkpt lat="58.36702298372984" lon="12.643613945692778">
        <ele>50.79</ele>
        <time>2025-02-07T12:28:57.453Z</time>
      </trkpt>
      <trkpt lat="58.36706598289311" lon="12.643718970939517">
        <ele>50.8</ele>
        <time>2025-02-07T12:29:28.579Z</time>
      </trkpt>
      <trkpt lat="58.36710998788476" lon="12.643823996186256">
        <ele>50.81</ele>
        <time>2025-02-07T12:29:59.706Z</time>
      </trkpt>
      <trkpt lat="58.36715399287641" lon="12.643928937613964">
        <ele>50.81</ele>
        <time>2025-02-07T12:30:30.834Z</time>
      </trkpt>
      <trkpt lat="58.36719699203968" lon="12.644033962860703">
        <ele>50.83</ele>
        <time>2025-02-07T12:31:01.963Z</time>
      </trkpt>
      <trkpt lat="58.36724191904068" lon="12.644139993935823">
        <ele>50.84</ele>
        <time>2025-02-07T12:31:33.093Z</time>
      </trkpt>
      <trkpt lat="58.36728592403233" lon="12.644245941191912">
        <ele>50.85</ele>
        <time>2025-02-07T12:32:04.224Z</time>
      </trkpt>
      <trkpt lat="58.36732992902398" lon="12.644352978095412">
        <ele>50.86</ele>
        <time>2025-02-07T12:32:35.356Z</time>
      </trkpt>
      <trkpt lat="58.36737493984401" lon="12.644459931179881">
        <ele>50.86</ele>
        <time>2025-02-07T12:33:06.490Z</time>
      </trkpt>
      <trkpt lat="58.36741995066404" lon="12.644566968083382">
        <ele>50.87</ele>
        <time>2025-02-07T12:33:37.625Z</time>
      </trkpt>
      <trkpt lat="58.367464961484075" lon="12.644672999158502">
        <ele>50.88</ele>
        <time>2025-02-07T12:34:08.761Z</time>
      </trkpt>
      <trkpt lat="58.367508966475725" lon="12.64477995224297">
        <ele>50.88</ele>
        <time>2025-02-07T12:34:39.898Z</time>
      </trkpt>
      <trkpt lat="58.367552971467376" lon="12.644886989146471">
        <ele>50.88</ele>
        <time>2025-02-07T12:35:11.036Z</time>
      </trkpt>
      <trkpt lat="58.367594964802265" lon="12.64499494805932">
        <ele>50.89</ele>
        <time>2025-02-07T12:35:42.175Z</time>
      </trkpt>
      <trkpt lat="58.367638969793916" lon="12.645102990791202">
        <ele>50.89</ele>
        <time>2025-02-07T12:36:13.315Z</time>
      </trkpt>
      <trkpt lat="58.367681968957186" lon="12.645213967189193">
        <ele>50.89</ele>
        <time>2025-02-07T12:36:44.457Z</time>
      </trkpt>
      <trkpt lat="58.367725973948836" lon="12.645324943587184">
        <ele>50.89</ele>
        <time>2025-02-07T12:37:15.600Z</time>
      </trkpt>
      <trkpt lat="58.36777098476887" lon="12.645435919985175">
        <ele>50.9</ele>
        <time>2025-02-07T12:37:46.744Z</time>
      </trkpt>
      <trkpt lat="58.36781498976052" lon="12.645546980202198">
        <ele>50.9</ele>
        <time>2025-02-07T12:38:17.889Z</time>
      </trkpt>
      <trkpt lat="58.36785798892379" lon="12.64565996825695">
        <ele>50.9</ele>
        <time>2025-02-07T12:38:49.035Z</time>
      </trkpt>
      <trkpt lat="58.36790098808706" lon="12.645772956311703">
        <ele>50.91</ele>
        <time>2025-02-07T12:39:20.182Z</time>
      </trkpt>
      <trkpt lat="58.36794398725033" lon="12.645885944366455">
        <ele>50.91</ele>
        <time>2025-02-07T12:39:51.331Z</time>
      </trkpt>
      <trkpt lat="58.36798799224198" lon="12.645999938249588">
        <ele>50.91</ele>
        <time>2025-02-07T12:40:22.481Z</time>
      </trkpt>
      <trkpt lat="58.36802998557687" lon="12.64611292630434">
        <ele>50.91</ele>
        <time>2025-02-07T12:40:53.632Z</time>
      </trkpt>
      <trkpt lat="58.36807298474014" lon="12.646227926015854">
        <ele>50.91</ele>
        <time>2025-02-07T12:41:24.784Z</time>
      </trkpt>
      <trkpt lat="58.36811598390341" lon="12.646342925727367">
        <ele>50.91</ele>
        <time>2025-02-07T12:41:55.937Z</time>
      </trkpt>
      <trkpt lat="58.3681579772383" lon="12.646458931267262">
        <ele>50.91</ele>
        <time>2025-02-07T12:42:27.092Z</time>
      </trkpt>
      <trkpt lat="58.36820198222995" lon="12.646575942635536">
        <ele>50.91</ele>
        <time>2025-02-07T12:42:58.248Z</time>
      </trkpt>
      <trkpt lat="58.36824498139322" lon="12.64669295400381">
        <ele>50.91</ele>
        <time>2025-02-07T12:43:29.405Z</time>
      </trkpt>
      <trkpt lat="58.36828697472811" lon="12.646809965372086">
        <ele>50.91</ele>
        <time>2025-02-07T12:44:00.563Z</time>
      </trkpt>
      <trkpt lat="58.36833097971976" lon="12.64692597091198">
        <ele>50.91</ele>
        <time>2025-02-07T12:44:31.722Z</time>
      </trkpt>
      <trkpt lat="58.36837297305465" lon="12.647043988108635">
        <ele>50.91</ele>
        <time>2025-02-07T12:45:02.883Z</time>
      </trkpt>
      <trkpt lat="58.36841597221792" lon="12.647162927314639">
        <ele>50.91</ele>
        <time>2025-02-07T12:45:34.045Z</time>
      </trkpt>
      <trkpt lat="58.36845796555281" lon="12.647281950339675">
        <ele>50.9</ele>
        <time>2025-02-07T12:46:05.208Z</time>
      </trkpt>
      <trkpt lat="58.36850197054446" lon="12.64740097336471">
        <ele>50.9</ele>
        <time>2025-02-07T12:46:36.372Z</time>
      </trkpt>
      <trkpt lat="58.36854597553611" lon="12.647517984732985">
        <ele>50.9</ele>
        <time>2025-02-07T12:47:07.537Z</time>
      </trkpt>
      <trkpt lat="58.36858897469938" lon="12.64763499610126">
        <ele>50.89</ele>
        <time>2025-02-07T12:47:38.704Z</time>
      </trkpt>
      <trkpt lat="58.36863197386265" lon="12.647750917822123">
        <ele>50.89</ele>
        <time>2025-02-07T12:48:09.872Z</time>
      </trkpt>
      <trkpt lat="58.36867497302592" lon="12.647864995524287">
        <ele>50.88</ele>
        <time>2025-02-07T12:48:41.041Z</time>
      </trkpt>
      <trkpt lat="58.36871696636081" lon="12.64797898940742">
        <ele>50.88</ele>
        <time>2025-02-07T12:49:12.211Z</time>
      </trkpt>
      <trkpt lat="58.368757953867316" lon="12.648092983290553">
        <ele>50.87</ele>
        <time>2025-02-07T12:49:43.382Z</time>
      </trkpt>
      <trkpt lat="58.368798941373825" lon="12.648206977173686">
        <ele>50.87</ele>
        <time>2025-02-07T12:50:14.555Z</time>
      </trkpt>
      <trkpt lat="58.368840934708714" lon="12.6483219768852">
        <ele>50.86</ele>
        <time>2025-02-07T12:50:45.729Z</time>
      </trkpt>
      <trkpt lat="58.36888091638684" lon="12.648438988253474">
        <ele>50.86</ele>
        <time>2025-02-07T12:51:16.904Z</time>
      </trkpt>
      <trkpt lat="58.36892198771238" lon="12.648557927459478">
        <ele>50.85</ele>
        <time>2025-02-07T12:51:48.080Z</time>
      </trkpt>
      <trkpt lat="58.36896398104727" lon="12.648673932999372">
        <ele>50.85</ele>
        <time>2025-02-07T12:52:19.257Z</time>
      </trkpt>
      <trkpt lat="58.36900597438216" lon="12.648786921054125">
        <ele>50.84</ele>
        <time>2025-02-07T12:52:50.435Z</time>
      </trkpt>
      <trkpt lat="58.36904696188867" lon="12.64890099875629">
        <ele>50.83</ele>
        <time>2025-02-07T12:53:21.615Z</time>
      </trkpt>
      <trkpt lat="58.3690869435668" lon="12.649015998467803">
        <ele>50.82</ele>
        <time>2025-02-07T12:53:52.796Z</time>
      </trkpt>
      <trkpt lat="58.36912793107331" lon="12.649131920188665">
        <ele>50.81</ele>
        <time>2025-02-07T12:54:23.978Z</time>
      </trkpt>
      <trkpt lat="58.36916891857982" lon="12.64924792572856">
        <ele>50.8</ele>
        <time>2025-02-07T12:54:55.161Z</time>
      </trkpt>
      <trkpt lat="58.36920998990536" lon="12.649361919611692">
        <ele>50.79</ele>
        <time>2025-02-07T12:55:26.345Z</time>
      </trkpt>
      <trkpt lat="58.36925198324025" lon="12.649475997313857">
        <ele>50.78</ele>
        <time>2025-02-07T12:55:57.530Z</time>
      </trkpt>
      <trkpt lat="58.36929498240352" lon="12.64958999119699">
        <ele>50.77</ele>
        <time>2025-02-07T12:56:28.717Z</time>
      </trkpt>
      <trkpt lat="58.369336975738406" lon="12.649706918746233">
        <ele>50.76</ele>
        <time>2025-02-07T12:56:59.905Z</time>
      </trkpt>
      <trkpt lat="58.36938098073006" lon="12.649824935942888">
        <ele>50.75</ele>
        <time>2025-02-07T12:57:31.094Z</time>
      </trkpt>
      <trkpt lat="58.369422974064946" lon="12.649945970624685">
        <ele>50.74</ele>
        <time>2025-02-07T12:58:02.284Z</time>
      </trkpt>
      <trkpt lat="58.369464967399836" lon="12.650069938972592">
        <ele>50.72</ele>
        <time>2025-02-07T12:58:33.476Z</time>
      </trkpt>
      <trkpt lat="58.369506960734725" lon="12.650193991139531">
        <ele>50.71</ele>
        <time>2025-02-07T12:59:04.669Z</time>
      </trkpt>
      <trkpt lat="58.369547948241234" lon="12.6503199711442">
        <ele>50.7</ele>
        <time>2025-02-07T12:59:35.863Z</time>
      </trkpt>
      <trkpt lat="58.36958893574774" lon="12.650445951148868">
        <ele>50.69</ele>
        <time>2025-02-07T13:00:07.058Z</time>
      </trkpt>
      <trkpt lat="58.36962799541652" lon="12.650570925325155">
        <ele>50.68</ele>
        <time>2025-02-07T13:00:38.254Z</time>
      </trkpt>
      <trkpt lat="58.36966797709465" lon="12.650696989148855">
        <ele>50.66</ele>
        <time>2025-02-07T13:01:09.452Z</time>
      </trkpt>
      <trkpt lat="58.36970795877278" lon="12.650822969153523">
        <ele>50.65</ele>
        <time>2025-02-07T13:01:40.651Z</time>
      </trkpt>
      <trkpt lat="58.36974894627929" lon="12.650948949158192">
        <ele>50.64</ele>
        <time>2025-02-07T13:02:11.851Z</time>
      </trkpt>
      <trkpt lat="58.369789933785796" lon="12.65107593499124">
        <ele>50.62</ele>
        <time>2025-02-07T13:02:43.052Z</time>
      </trkpt>
      <trkpt lat="58.369831927120686" lon="12.65120292082429">
        <ele>50.6</ele>
        <time>2025-02-07T13:03:14.255Z</time>
      </trkpt>
      <trkpt lat="58.369871992617846" lon="12.65133099630475">
        <ele>50.59</ele>
        <time>2025-02-07T13:03:45.459Z</time>
      </trkpt>
      <trkpt lat="58.369912980124354" lon="12.65145898796618">
        <ele>50.57</ele>
        <time>2025-02-07T13:04:16.664Z</time>
      </trkpt>
      <trkpt lat="58.36995396763086" lon="12.65158697962761">
        <ele>50.56</ele>
        <time>2025-02-07T13:04:47.871Z</time>
      </trkpt>
      <trkpt lat="58.36999495513737" lon="12.65171597711742">
        <ele>50.54</ele>
        <time>2025-02-07T13:05:19.079Z</time>
      </trkpt>
      <trkpt lat="58.37003594264388" lon="12.65184497460723">
        <ele>50.53</ele>
        <time>2025-02-07T13:05:50.288Z</time>
      </trkpt>
      <trkpt lat="58.37007793597877" lon="12.65197497792542">
        <ele>50.52</ele>
        <time>2025-02-07T13:06:21.498Z</time>
      </trkpt>
      <trkpt lat="58.37011992931366" lon="12.65210498124361">
        <ele>50.5</ele>
        <time>2025-02-07T13:06:52.710Z</time>
      </trkpt>
      <trkpt lat="58.37016192264855" lon="12.652234984561801">
        <ele>50.49</ele>
        <time>2025-02-07T13:07:23.923Z</time>
      </trkpt>
      <trkpt lat="58.37020299397409" lon="12.652363982051611">
        <ele>50.47</ele>
        <time>2025-02-07T13:07:55.137Z</time>
      </trkpt>
      <trkpt lat="58.37024297565222" lon="12.652492979541421">
        <ele>50.46</ele>
        <time>2025-02-07T13:08:26.352Z</time>
      </trkpt>
      <trkpt lat="58.37028396315873" lon="12.652621977031231">
        <ele>50.44</ele>
        <time>2025-02-07T13:08:57.569Z</time>
      </trkpt>
      <trkpt lat="58.370325956493616" lon="12.652751980349422">
        <ele>50.43</ele>
        <time>2025-02-07T13:09:28.787Z</time>
      </trkpt>
      <trkpt lat="58.370367949828506" lon="12.652880977839231">
        <ele>50.41</ele>
        <time>2025-02-07T13:10:00.006Z</time>
      </trkpt>
      <trkpt lat="58.370409943163395" lon="12.65300796367228">
        <ele>50.4</ele>
        <time>2025-02-07T13:10:31.227Z</time>
      </trkpt>
      <trkpt lat="58.370452942326665" lon="12.653132937848568">
        <ele>50.38</ele>
        <time>2025-02-07T13:11:02.449Z</time>
      </trkpt>
      <trkpt lat="58.370493929833174" lon="12.653258917853236">
        <ele>50.37</ele>
        <time>2025-02-07T13:11:33.672Z</time>
      </trkpt>
      <trkpt lat="58.37053592316806" lon="12.653384981676936">
        <ele>50.35</ele>
        <time>2025-02-07T13:12:04.896Z</time>
      </trkpt>
      <trkpt lat="58.37057892233133" lon="12.653511967509985">
        <ele>50.34</ele>
        <time>2025-02-07T13:12:36.122Z</time>
      </trkpt>
      <trkpt lat="58.370619993656874" lon="12.653638953343034">
        <ele>50.32</ele>
        <time>2025-02-07T13:13:07.349Z</time>
      </trkpt>
      <trkpt lat="58.37066098116338" lon="12.653766945004463">
        <ele>50.3</ele>
        <time>2025-02-07T13:13:38.577Z</time>
      </trkpt>
      <trkpt lat="58.37070196866989" lon="12.653893930837512">
        <ele>50.29</ele>
        <time>2025-02-07T13:14:09.806Z</time>
      </trkpt>
      <trkpt lat="58.3707429561764" lon="12.65402091667056">
        <ele>50.27</ele>
        <time>2025-02-07T13:14:41.037Z</time>
      </trkpt>
      <trkpt lat="58.37078293785453" lon="12.65414698049426">
        <ele>50.25</ele>
        <time>2025-02-07T13:15:12.269Z</time>
      </trkpt>
      <trkpt lat="58.37082199752331" lon="12.65427396632731">
        <ele>50.24</ele>
        <time>2025-02-07T13:15:43.502Z</time>
      </trkpt>
      <trkpt lat="58.370860973373055" lon="12.65440296381712">
        <ele>50.22</ele>
        <time>2025-02-07T13:16:14.736Z</time>
      </trkpt>
      <trkpt lat="58.3708999492228" lon="12.65453196130693">
        <ele>50.21</ele>
        <time>2025-02-07T13:16:45.972Z</time>
      </trkpt>
      <trkpt lat="58.37093892507255" lon="12.65466196462512">
        <ele>50.2</ele>
        <time>2025-02-07T13:17:17.209Z</time>
      </trkpt>
      <trkpt lat="58.37097798474133" lon="12.65479196794331">
        <ele>50.19</ele>
        <time>2025-02-07T13:17:48.447Z</time>
      </trkpt>
      <trkpt lat="58.37101696059108" lon="12.654923982918262">
        <ele>50.18</ele>
        <time>2025-02-07T13:18:19.686Z</time>
      </trkpt>
      <trkpt lat="58.371055936440825" lon="12.655056919902563">
        <ele>50.16</ele>
        <time>2025-02-07T13:18:50.927Z</time>
      </trkpt>
      <trkpt lat="58.371094996109605" lon="12.655190946534276">
        <ele>50.15</ele>
        <time>2025-02-07T13:19:22.169Z</time>
      </trkpt>
      <trkpt lat="58.37113296613097" lon="12.655323967337608">
        <ele>50.14</ele>
        <time>2025-02-07T13:19:53.412Z</time>
      </trkpt>
      <trkpt lat="58.37117194198072" lon="12.655457993969321">
        <ele>50.12</ele>
        <time>2025-02-07T13:20:24.657Z</time>
      </trkpt>
      <trkpt lat="58.37120999582112" lon="12.655591936782002">
        <ele>50.11</ele>
        <time>2025-02-07T13:20:55.903Z</time>
      </trkpt>
      <trkpt lat="58.371246960014105" lon="12.655724957585335">
        <ele>50.09</ele>
        <time>2025-02-07T13:21:27.150Z</time>
      </trkpt>
      <trkpt lat="58.37128493003547" lon="12.655857978388667">
        <ele>50.08</ele>
        <time>2025-02-07T13:21:58.398Z</time>
      </trkpt>
      <trkpt lat="58.37132398970425" lon="12.655989993363619">
        <ele>50.07</ele>
        <time>2025-02-07T13:22:29.648Z</time>
      </trkpt>
      <trkpt lat="58.37136195972562" lon="12.656120918691158">
        <ele>50.05</ele>
        <time>2025-02-07T13:23:00.899Z</time>
      </trkpt>
      <trkpt lat="58.37140194140375" lon="12.656250922009349">
        <ele>50.04</ele>
        <time>2025-02-07T13:23:32.151Z</time>
      </trkpt>
      <trkpt lat="58.371442928910255" lon="12.656379919499159">
        <ele>50.03</ele>
        <time>2025-02-07T13:24:03.404Z</time>
      </trkpt>
      <trkpt lat="58.371485928073525" lon="12.65650799497962">
        <ele>50.01</ele>
        <time>2025-02-07T13:24:34.659Z</time>
      </trkpt>
      <trkpt lat="58.371529933065176" lon="12.656634980812669">
        <ele>50.0</ele>
        <time>2025-02-07T13:25:05.915Z</time>
      </trkpt>
      <trkpt lat="58.37157594971359" lon="12.656758949160576">
        <ele>49.99</ele>
        <time>2025-02-07T13:25:37.172Z</time>
      </trkpt>
      <trkpt lat="58.37162498384714" lon="12.656878978013992">
        <ele>49.98</ele>
        <time>2025-02-07T13:26:08.431Z</time>
      </trkpt>
      <trkpt lat="58.371674939990044" lon="12.656997917219996">
        <ele>49.96</ele>
        <time>2025-02-07T13:26:39.691Z</time>
      </trkpt>
      <trkpt lat="58.37172598578036" lon="12.657115934416652">
        <ele>49.95</ele>
        <time>2025-02-07T13:27:10.952Z</time>
      </trkpt>
      <trkpt lat="58.37177694775164" lon="12.657231939956546">
        <ele>49.94</ele>
        <time>2025-02-07T13:27:42.214Z</time>
      </trkpt>
      <trkpt lat="58.371829921379685" lon="12.657344928011298">
        <ele>49.93</ele>
        <time>2025-02-07T13:28:13.478Z</time>
      </trkpt>
      <trkpt lat="58.37188297882676" lon="12.657456994056702">
        <ele>49.92</ele>
        <time>2025-02-07T13:28:44.743Z</time>
      </trkpt>
      <trkpt lat="58.371936958283186" lon="12.657568976283073">
        <ele>49.91</ele>
        <time>2025-02-07T13:29:16.009Z</time>
      </trkpt>
      <trkpt lat="58.37198993191123" lon="12.657678946852684">
        <ele>49.9</ele>
        <time>2025-02-07T13:29:47.277Z</time>
      </trkpt>
      <trkpt lat="58.372044917196035" lon="12.657788917422295">
        <ele>49.89</ele>
        <time>2025-02-07T13:30:18.546Z</time>
      </trkpt>
      <trkpt lat="58.37209898047149" lon="12.657899977639318">
        <ele>49.87</ele>
        <time>2025-02-07T13:30:49.816Z</time>
      </trkpt>
      <trkpt lat="58.37215295992792" lon="12.658010954037309">
        <ele>49.86</ele>
        <time>2025-02-07T13:31:21.087Z</time>
      </trkpt>
      <trkpt lat="58.37220794521272" lon="12.65811899676919">
        <ele>49.85</ele>
        <time>2025-02-07T13:31:52.360Z</time>
      </trkpt>
      <trkpt lat="58.37226192466915" lon="12.65822796151042">
        <ele>49.83</ele>
        <time>2025-02-07T13:32:23.634Z</time>
      </trkpt>
      <trkpt lat="58.37231699377298" lon="12.65833592042327">
        <ele>49.82</ele>
        <time>2025-02-07T13:32:54.909Z</time>
      </trkpt>
      <trkpt lat="58.37237097322941" lon="12.658444968983531">
        <ele>49.81</ele>
        <time>2025-02-07T13:33:26.185Z</time>
      </trkpt>
      <trkpt lat="58.372425958514214" lon="12.658554939553142">
        <ele>49.79</ele>
        <time>2025-02-07T13:33:57.463Z</time>
      </trkpt>
      <trkpt lat="58.37248094379902" lon="12.658664993941784">
        <ele>49.78</ele>
        <time>2025-02-07T13:34:28.742Z</time>
      </trkpt>
      <trkpt lat="58.372536934912205" lon="12.658774964511395">
        <ele>49.78</ele>
        <time>2025-02-07T13:35:00.022Z</time>
      </trkpt>
      <trkpt lat="58.37259292602539" lon="12.658885940909386">
        <ele>49.77</ele>
        <time>2025-02-07T13:35:31.304Z</time>
      </trkpt>
      <trkpt lat="58.37264799512923" lon="12.658997923135757">
        <ele>49.76</ele>
        <time>2025-02-07T13:36:02.587Z</time>
      </trkpt>
      <trkpt lat="58.37270398624241" lon="12.659109989181161">
        <ele>49.75</ele>
        <time>2025-02-07T13:36:33.871Z</time>
      </trkpt>
      <trkpt lat="58.37276098318398" lon="12.659222977235913">
        <ele>49.75</ele>
        <time>2025-02-07T13:37:05.156Z</time>
      </trkpt>
      <trkpt lat="58.37281898595393" lon="12.659335965290666">
        <ele>49.74</ele>
        <time>2025-02-07T13:37:36.443Z</time>
      </trkpt>
      <trkpt lat="58.372876988723874" lon="12.659448953345418">
        <ele>49.73</ele>
        <time>2025-02-07T13:38:07.731Z</time>
      </trkpt>
      <trkpt lat="58.37293398566544" lon="12.65956194140017">
        <ele>49.72</ele>
        <time>2025-02-07T13:38:39.020Z</time>
      </trkpt>
      <trkpt lat="58.37299098260701" lon="12.659675935283303">
        <ele>49.71</ele>
        <time>2025-02-07T13:39:10.311Z</time>
      </trkpt>
      <trkpt lat="58.37304797954857" lon="12.659789929166436">
        <ele>49.71</ele>
        <time>2025-02-07T13:39:41.603Z</time>
      </trkpt>
      <trkpt lat="58.37310497649014" lon="12.65990492887795">
        <ele>49.7</ele>
        <time>2025-02-07T13:40:12.896Z</time>
      </trkpt>
      <trkpt lat="58.373159961774945" lon="12.660020934417844">
        <ele>49.7</ele>
        <time>2025-02-07T13:40:44.191Z</time>
      </trkpt>
      <trkpt lat="58.37321494705975" lon="12.660137945786119">
        <ele>49.7</ele>
        <time>2025-02-07T13:41:15.487Z</time>
      </trkpt>
      <trkpt lat="58.373267920687795" lon="12.660254957154393">
        <ele>49.7</ele>
        <time>2025-02-07T13:41:46.784Z</time>
      </trkpt>
      <trkpt lat="58.37332097813487" lon="12.66037498600781">
        <ele>49.7</ele>
        <time>2025-02-07T13:42:18.083Z</time>
      </trkpt>
      <trkpt lat="58.373374957591295" lon="12.660496942698956">
        <ele>49.7</ele>
        <time>2025-02-07T13:42:49.383Z</time>
      </trkpt>
      <trkpt lat="58.37342793121934" lon="12.660622922703624">
        <ele>49.69</ele>
        <time>2025-02-07T13:43:20.684Z</time>
      </trkpt>
      <trkpt lat="58.373480988666415" lon="12.660753931850195">
        <ele>49.68</ele>
        <time>2025-02-07T13:43:51.987Z</time>
      </trkpt>
      <trkpt lat="58.37353396229446" lon="12.660887958481908">
        <ele>49.67</ele>
        <time>2025-02-07T13:44:23.291Z</time>
      </trkpt>
      <trkpt lat="58.3735869359225" lon="12.66102491877973">
        <ele>49.66</ele>
        <time>2025-02-07T13:44:54.597Z</time>
      </trkpt>
      <trkpt lat="58.37364192120731" lon="12.661165986210108">
        <ele>49.64</ele>
        <time>2025-02-07T13:45:25.904Z</time>
      </trkpt>
      <trkpt lat="58.373695984482765" lon="12.661311998963356">
        <ele>49.61</ele>
        <time>2025-02-07T13:45:57.213Z</time>
      </trkpt>
      <trkpt lat="58.37374795228243" lon="12.661462957039475">
        <ele>49.59</ele>
        <time>2025-02-07T13:46:28.523Z</time>
      </trkpt>
      <trkpt lat="58.37380092591047" lon="12.661618944257498">
        <ele>49.58</ele>
        <time>2025-02-07T13:46:59.835Z</time>
      </trkpt>
      <trkpt lat="58.37385297752917" lon="12.661779960617423">
        <ele>49.57</ele>
        <time>2025-02-07T13:47:31.148Z</time>
      </trkpt>
      <trkpt lat="58.37390293367207" lon="12.66194399446249">
        <ele>49.56</ele>
        <time>2025-02-07T13:48:02.463Z</time>
      </trkpt>
      <trkpt lat="58.373953979462385" lon="12.662110961973667">
        <ele>49.55</ele>
        <time>2025-02-07T13:48:33.780Z</time>
      </trkpt>
      <trkpt lat="58.37400292977691" lon="12.662278935313225">
        <ele>49.55</ele>
        <time>2025-02-07T13:49:05.098Z</time>
      </trkpt>
      <trkpt lat="58.3740499522537" lon="12.662447998300195">
        <ele>49.55</ele>
        <time>2025-02-07T13:49:36.418Z</time>
      </trkpt>
      <trkpt lat="58.37409596890211" lon="12.662615971639752">
        <ele>49.55</ele>
        <time>2025-02-07T13:50:07.739Z</time>
      </trkpt>
      <trkpt lat="58.37413896806538" lon="12.66278293915093">
        <ele>49.55</ele>
        <time>2025-02-07T13:50:39.062Z</time>
      </trkpt>
      <trkpt lat="58.37418096140027" lon="12.662946972995996">
        <ele>49.55</ele>
        <time>2025-02-07T13:51:10.386Z</time>
      </trkpt>
      <trkpt lat="58.3742209430784" lon="12.663107989355922">
        <ele>49.56</ele>
        <time>2025-02-07T13:51:41.712Z</time>
      </trkpt>
      <trkpt lat="58.37425799109042" lon="12.663266994059086">
        <ele>49.56</ele>
        <time>2025-02-07T13:52:13.039Z</time>
      </trkpt>
      <trkpt lat="58.37429193779826" lon="12.663422981277108">
        <ele>49.56</ele>
        <time>2025-02-07T13:52:44.368Z</time>
      </trkpt>
      <trkpt lat="58.37432395666838" lon="12.66357695683837">
        <ele>49.57</ele>
        <time>2025-02-07T13:53:15.698Z</time>
      </trkpt>
      <trkpt lat="58.37435496971011" lon="12.66372892074287">
        <ele>49.57</ele>
        <time>2025-02-07T13:53:47.030Z</time>
      </trkpt>
      <trkpt lat="58.374383971095085" lon="12.66387795098126">
        <ele>49.57</ele>
        <time>2025-02-07T13:54:18.363Z</time>
      </trkpt>
      <trkpt lat="58.3744109608233" lon="12.664024969562888">
        <ele>49.57</ele>
        <time>2025-02-07T13:54:49.697Z</time>
      </trkpt>
      <trkpt lat="58.37443593889475" lon="12.664169976487756">
        <ele>49.58</ele>
        <time>2025-02-07T13:55:21.033Z</time>
      </trkpt>
      <trkpt lat="58.37445999495685" lon="12.664313977584243">
        <ele>49.58</ele>
        <time>2025-02-07T13:55:52.370Z</time>
      </trkpt>
      <trkpt lat="58.3744849730283" lon="12.664455967023969">
        <ele>49.59</ele>
        <time>2025-02-07T13:56:23.708Z</time>
      </trkpt>
      <trkpt lat="58.37450995109975" lon="12.664595944806933">
        <ele>49.59</ele>
        <time>2025-02-07T13:56:55.047Z</time>
      </trkpt>
      <trkpt lat="58.374534929171205" lon="12.664732988923788">
        <ele>49.59</ele>
        <time>2025-02-07T13:57:26.388Z</time>
      </trkpt>
      <trkpt lat="58.37455999106169" lon="12.664870955049992">
        <ele>49.59</ele>
        <time>2025-02-07T13:57:57.730Z</time>
      </trkpt>
      <trkpt lat="58.37458496913314" lon="12.665006993338466">
        <ele>49.6</ele>
        <time>2025-02-07T13:58:29.073Z</time>
      </trkpt>
      <trkpt lat="58.37461095303297" lon="12.665141941979527">
        <ele>49.6</ele>
        <time>2025-02-07T13:59:00.417Z</time>
      </trkpt>
      <trkpt lat="58.37463794276118" lon="12.66527596861124">
        <ele>49.6</ele>
        <time>2025-02-07T13:59:31.762Z</time>
      </trkpt>
      <trkpt lat="58.374665938317776" lon="12.665408989414573">
        <ele>49.6</ele>
        <time>2025-02-07T14:00:03.109Z</time>
      </trkpt>
      <trkpt lat="58.37469493970275" lon="12.665541926398873">
        <ele>49.6</ele>
        <time>2025-02-07T14:00:34.457Z</time>
      </trkpt>
      <trkpt lat="58.374726958572865" lon="12.665668996050954">
        <ele>49.61</ele>
        <time>2025-02-07T14:01:05.806Z</time>
      </trkpt>
      <trkpt lat="58.37476694025099" lon="12.665795981884003">
        <ele>49.61</ele>
        <time>2025-02-07T14:01:37.156Z</time>
      </trkpt>
      <trkpt lat="58.37480893358588" lon="12.66592095606029">
        <ele>49.61</ele>
        <time>2025-02-07T14:02:08.508Z</time>
      </trkpt>
      <trkpt lat="58.37485293857753" lon="12.666045930236578">
        <ele>49.61</ele>
        <time>2025-02-07T14:02:39.861Z</time>
      </trkpt>
      <trkpt lat="58.37489694356918" lon="12.666167970746756">
        <ele>49.61</ele>
        <time>2025-02-07T14:03:11.215Z</time>
      </trkpt>
      <trkpt lat="58.374940948560834" lon="12.666290933266282">
        <ele>49.61</ele>
        <time>2025-02-07T14:03:42.570Z</time>
      </trkpt>
      <trkpt lat="58.374986965209246" lon="12.66641498543322">
        <ele>49.62</ele>
        <time>2025-02-07T14:04:13.927Z</time>
      </trkpt>
      <trkpt lat="58.37503298185766" lon="12.666537947952747">
        <ele>49.62</ele>
        <time>2025-02-07T14:04:45.285Z</time>
      </trkpt>
      <trkpt lat="58.37507992051542" lon="12.666659988462925">
        <ele>49.63</ele>
        <time>2025-02-07T14:05:16.644Z</time>
      </trkpt>
      <trkpt lat="58.37512794882059" lon="12.666783956810832">
        <ele>49.64</ele>
        <time>2025-02-07T14:05:48.004Z</time>
      </trkpt>
      <trkpt lat="58.37517497129738" lon="12.666907925158739">
        <ele>49.64</ele>
        <time>2025-02-07T14:06:19.366Z</time>
      </trkpt>
      <trkpt lat="58.375221993774176" lon="12.667030971497297">
        <ele>49.65</ele>
        <time>2025-02-07T14:06:50.729Z</time>
      </trkpt>
      <trkpt lat="58.37526993826032" lon="12.667155945673585">
        <ele>49.65</ele>
        <time>2025-02-07T14:07:22.093Z</time>
      </trkpt>
      <trkpt lat="58.37531796656549" lon="12.667279997840524">
        <ele>49.66</ele>
        <time>2025-02-07T14:07:53.459Z</time>
      </trkpt>
      <trkpt lat="58.37536498904228" lon="12.66740396618843">
        <ele>49.66</ele>
        <time>2025-02-07T14:08:24.826Z</time>
      </trkpt>
      <trkpt lat="58.37541092187166" lon="12.667528940364718">
        <ele>49.67</ele>
        <time>2025-02-07T14:08:56.194Z</time>
      </trkpt>
      <trkpt lat="58.375457944348454" lon="12.667652992531657">
        <ele>49.67</ele>
        <time>2025-02-07T14:09:27.563Z</time>
      </trkpt>
      <trkpt lat="58.37550597265363" lon="12.667776960879564">
        <ele>49.68</ele>
        <time>2025-02-07T14:09:58.934Z</time>
      </trkpt>
      <trkpt lat="58.37555391713977" lon="12.667900929227471">
        <ele>49.68</ele>
        <time>2025-02-07T14:10:30.306Z</time>
      </trkpt>
      <trkpt lat="58.37560194544494" lon="12.66802397556603">
        <ele>49.69</ele>
        <time>2025-02-07T14:11:01.679Z</time>
      </trkpt>
      <trkpt lat="58.375648967921734" lon="12.668147943913937">
        <ele>49.69</ele>
        <time>2025-02-07T14:11:33.054Z</time>
      </trkpt>
      <trkpt lat="58.375695990398526" lon="12.668273923918605">
        <ele>49.7</ele>
        <time>2025-02-07T14:12:04.430Z</time>
      </trkpt>
      <trkpt lat="58.37574292905629" lon="12.668399987742305">
        <ele>49.71</ele>
        <time>2025-02-07T14:12:35.807Z</time>
      </trkpt>
      <trkpt lat="58.37578995153308" lon="12.668525967746973">
        <ele>49.72</ele>
        <time>2025-02-07T14:13:07.186Z</time>
      </trkpt>
      <trkpt lat="58.37583797983825" lon="12.668651947751641">
        <ele>49.72</ele>
        <time>2025-02-07T14:13:38.566Z</time>
      </trkpt>
      <trkpt lat="58.37588592432439" lon="12.66877792775631">
        <ele>49.73</ele>
        <time>2025-02-07T14:14:09.947Z</time>
      </trkpt>
      <trkpt lat="58.375933952629566" lon="12.668902985751629">
        <ele>49.73</ele>
        <time>2025-02-07T14:14:41.329Z</time>
      </trkpt>
      <trkpt lat="58.37598298676312" lon="12.669028965756297">
        <ele>49.74</ele>
        <time>2025-02-07T14:15:12.713Z</time>
      </trkpt>
      <trkpt lat="58.37603193707764" lon="12.669153939932585">
        <ele>49.74</ele>
        <time>2025-02-07T14:15:44.098Z</time>
      </trkpt>
      <trkpt lat="58.376079965382814" lon="12.669282937422395">
        <ele>49.75</ele>
        <time>2025-02-07T14:16:15.484Z</time>
      </trkpt>
      <trkpt lat="58.37612799368799" lon="12.669411934912205">
        <ele>49.76</ele>
        <time>2025-02-07T14:16:46.872Z</time>
      </trkpt>
      <trkpt lat="58.37617794983089" lon="12.669541938230395">
        <ele>49.77</ele>
        <time>2025-02-07T14:17:18.261Z</time>
      </trkpt>
      <trkpt lat="58.37622698396444" lon="12.669671941548586">
        <ele>49.78</ele>
        <time>2025-02-07T14:17:49.651Z</time>
      </trkpt>
      <trkpt lat="58.376276940107346" lon="12.669800939038396">
        <ele>49.79</ele>
        <time>2025-02-07T14:18:21.043Z</time>
      </trkpt>
      <trkpt lat="58.37632698006928" lon="12.669931948184967">
        <ele>49.8</ele>
        <time>2025-02-07T14:18:52.436Z</time>
      </trkpt>
      <trkpt lat="58.37637693621218" lon="12.670061951503158">
        <ele>49.81</ele>
        <time>2025-02-07T14:19:23.831Z</time>
      </trkpt>
      <trkpt lat="58.376425970345736" lon="12.670192960649729">
        <ele>49.82</ele>
        <time>2025-02-07T14:19:55.227Z</time>
      </trkpt>
      <trkpt lat="58.37647592648864" lon="12.67032296396792">
        <ele>49.83</ele>
        <time>2025-02-07T14:20:26.624Z</time>
      </trkpt>
      <trkpt lat="58.37652496062219" lon="12.67045296728611">
        <ele>49.84</ele>
        <time>2025-02-07T14:20:58.023Z</time>
      </trkpt>
      <trkpt lat="58.376573994755745" lon="12.67058196477592">
        <ele>49.85</ele>
        <time>2025-02-07T14:21:29.423Z</time>
      </trkpt>
      <trkpt lat="58.37662294507027" lon="12.67070995643735">
        <ele>49.86</ele>
        <time>2025-02-07T14:22:00.824Z</time>
      </trkpt>
      <trkpt lat="58.37667197920382" lon="12.670835936442018">
        <ele>49.87</ele>
        <time>2025-02-07T14:22:32.227Z</time>
      </trkpt>
      <trkpt lat="58.37672092951834" lon="12.670961916446686">
        <ele>49.88</ele>
        <time>2025-02-07T14:23:03.631Z</time>
      </trkpt>
      <trkpt lat="58.376767951995134" lon="12.671087980270386">
        <ele>49.89</ele>
        <time>2025-02-07T14:23:35.036Z</time>
      </trkpt>
      <trkpt lat="58.37681497447193" lon="12.671212954446673">
        <ele>49.9</ele>
        <time>2025-02-07T14:24:06.443Z</time>
      </trkpt>
      <trkpt lat="58.37686199694872" lon="12.671337928622961">
        <ele>49.91</ele>
        <time>2025-02-07T14:24:37.851Z</time>
      </trkpt>
      <trkpt lat="58.37690893560648" lon="12.6714619807899">
        <ele>49.92</ele>
        <time>2025-02-07T14:25:09.260Z</time>
      </trkpt>
      <trkpt lat="58.37695696391165" lon="12.671584943309426">
        <ele>49.93</ele>
        <time>2025-02-07T14:25:40.670Z</time>
      </trkpt>
      <trkpt lat="58.377003986388445" lon="12.671708995476365">
        <ele>49.94</ele>
        <time>2025-02-07T14:26:12.082Z</time>
      </trkpt>
      <trkpt lat="58.377051930874586" lon="12.671833969652653">
        <ele>49.96</ele>
        <time>2025-02-07T14:26:43.495Z</time>
      </trkpt>
      <trkpt lat="58.37709995917976" lon="12.671959949657321">
        <ele>49.98</ele>
        <time>2025-02-07T14:27:14.909Z</time>
      </trkpt>
      <trkpt lat="58.37714798748493" lon="12.67208592966199">
        <ele>49.99</ele>
        <time>2025-02-07T14:27:46.325Z</time>
      </trkpt>
      <trkpt lat="58.37719593197107" lon="12.672209981828928">
        <ele>50.01</ele>
        <time>2025-02-07T14:28:17.742Z</time>
      </trkpt>
      <trkpt lat="58.377243960276246" lon="12.672335961833596">
        <ele>50.03</ele>
        <time>2025-02-07T14:28:49.160Z</time>
      </trkpt>
      <trkpt lat="58.37729198858142" lon="12.672460936009884">
        <ele>50.05</ele>
        <time>2025-02-07T14:29:20.580Z</time>
      </trkpt>
      <trkpt lat="58.37733993306756" lon="12.672585994005203">
        <ele>50.06</ele>
        <time>2025-02-07T14:29:52.001Z</time>
      </trkpt>
      <trkpt lat="58.37738695554435" lon="12.672710968181491">
        <ele>50.08</ele>
        <time>2025-02-07T14:30:23.423Z</time>
      </trkpt>
      <trkpt lat="58.377433978021145" lon="12.672835942357779">
        <ele>50.09</ele>
        <time>2025-02-07T14:30:54.846Z</time>
      </trkpt>
      <trkpt lat="58.377481922507286" lon="12.672961922362447">
        <ele>50.11</ele>
        <time>2025-02-07T14:31:26.271Z</time>
      </trkpt>
      <trkpt lat="58.37752995081246" lon="12.673086980357766">
        <ele>50.13</ele>
        <time>2025-02-07T14:31:57.697Z</time>
      </trkpt>
      <trkpt lat="58.37757797911763" lon="12.673211954534054">
        <ele>50.15</ele>
        <time>2025-02-07T14:32:29.124Z</time>
      </trkpt>
      <trkpt lat="58.37762592360377" lon="12.673337934538722">
        <ele>50.16</ele>
        <time>2025-02-07T14:33:00.553Z</time>
      </trkpt>
      <trkpt lat="58.377673951908946" lon="12.67346492037177">
        <ele>50.18</ele>
        <time>2025-02-07T14:33:31.983Z</time>
      </trkpt>
      <trkpt lat="58.37772097438574" lon="12.67359098419547">
        <ele>50.21</ele>
        <time>2025-02-07T14:34:03.414Z</time>
      </trkpt>
      <trkpt lat="58.37776992470026" lon="12.673715958371758">
        <ele>50.23</ele>
        <time>2025-02-07T14:34:34.847Z</time>
      </trkpt>
      <trkpt lat="58.377818958833814" lon="12.673840932548046">
        <ele>50.25</ele>
        <time>2025-02-07T14:35:06.281Z</time>
      </trkpt>
      <trkpt lat="58.37786698713899" lon="12.673967918381095">
        <ele>50.27</ele>
        <time>2025-02-07T14:35:37.716Z</time>
      </trkpt>
      <trkpt lat="58.37791493162513" lon="12.674093982204795">
        <ele>50.29</ele>
        <time>2025-02-07T14:36:09.153Z</time>
      </trkpt>
      <trkpt lat="58.3779629599303" lon="12.674219962209463">
        <ele>50.31</ele>
        <time>2025-02-07T14:36:40.591Z</time>
      </trkpt>
      <trkpt lat="58.378010988235474" lon="12.674345942214131">
        <ele>50.33</ele>
        <time>2025-02-07T14:37:12.030Z</time>
      </trkpt>
      <trkpt lat="58.378057926893234" lon="12.6744719222188">
        <ele>50.35</ele>
        <time>2025-02-07T14:37:43.470Z</time>
      </trkpt>
      <trkpt lat="58.37810595519841" lon="12.67459899187088">
        <ele>50.37</ele>
        <time>2025-02-07T14:38:14.912Z</time>
      </trkpt>
      <trkpt lat="58.37815398350358" lon="12.674724971875548">
        <ele>50.39</ele>
        <time>2025-02-07T14:38:46.355Z</time>
      </trkpt>
      <trkpt lat="58.37820192798972" lon="12.674849946051836">
        <ele>50.41</ele>
        <time>2025-02-07T14:39:17.799Z</time>
      </trkpt>
      <trkpt lat="58.378249956294894" lon="12.674975926056504">
        <ele>50.43</ele>
        <time>2025-02-07T14:39:49.245Z</time>
      </trkpt>
      <trkpt lat="58.37829697877169" lon="12.675100984051824">
        <ele>50.45</ele>
        <time>2025-02-07T14:40:20.692Z</time>
      </trkpt>
      <trkpt lat="58.37834391742945" lon="12.675226964056492">
        <ele>50.47</ele>
        <time>2025-02-07T14:40:52.140Z</time>
      </trkpt>
      <trkpt lat="58.37839093990624" lon="12.67535294406116">
        <ele>50.49</ele>
        <time>2025-02-07T14:41:23.590Z</time>
      </trkpt>
      <trkpt lat="58.37843796238303" lon="12.675477918237448">
        <ele>50.52</ele>
        <time>2025-02-07T14:41:55.041Z</time>
      </trkpt>
      <trkpt lat="58.378485990688205" lon="12.675602976232767">
        <ele>50.54</ele>
        <time>2025-02-07T14:42:26.493Z</time>
      </trkpt>
      <trkpt lat="58.378531923517585" lon="12.675727950409055">
        <ele>50.56</ele>
        <time>2025-02-07T14:42:57.946Z</time>
      </trkpt>
      <trkpt lat="58.37857894599438" lon="12.675851918756962">
        <ele>50.58</ele>
        <time>2025-02-07T14:43:29.401Z</time>
      </trkpt>
      <trkpt lat="58.37862496264279" lon="12.67597496509552">
        <ele>50.61</ele>
        <time>2025-02-07T14:44:00.857Z</time>
      </trkpt>
      <trkpt lat="58.37867299094796" lon="12.676095999777317">
        <ele>50.63</ele>
        <time>2025-02-07T14:44:32.314Z</time>
      </trkpt>
      <trkpt lat="58.3787209354341" lon="12.676216950640082">
        <ele>50.65</ele>
        <time>2025-02-07T14:45:03.773Z</time>
      </trkpt>
      <trkpt lat="58.378767957910895" lon="12.67634091898799">
        <ele>50.68</ele>
        <time>2025-02-07T14:45:35.233Z</time>
      </trkpt>
      <trkpt lat="58.37881397455931" lon="12.676465976983309">
        <ele>50.7</ele>
        <time>2025-02-07T14:46:06.694Z</time>
      </trkpt>
      <trkpt lat="58.3788609970361" lon="12.676590951159596">
        <ele>50.73</ele>
        <time>2025-02-07T14:46:38.156Z</time>
      </trkpt>
      <trkpt lat="58.37890793569386" lon="12.676714919507504">
        <ele>50.75</ele>
        <time>2025-02-07T14:47:09.620Z</time>
      </trkpt>
      <trkpt lat="58.37895596399903" lon="12.676839977502823">
        <ele>50.78</ele>
        <time>2025-02-07T14:47:41.085Z</time>
      </trkpt>
      <trkpt lat="58.379003992304206" lon="12.67696294002235">
        <ele>50.8</ele>
        <time>2025-02-07T14:48:12.551Z</time>
      </trkpt>
      <trkpt lat="58.37905193679035" lon="12.677084980532527">
        <ele>50.83</ele>
        <time>2025-02-07T14:48:44.019Z</time>
      </trkpt>
      <trkpt lat="58.37909996509552" lon="12.677206937223673">
        <ele>50.85</ele>
        <time>2025-02-07T14:49:15.488Z</time>
      </trkpt>
      <trkpt lat="58.37914799340069" lon="12.67732897773385">
        <ele>50.88</ele>
        <time>2025-02-07T14:49:46.958Z</time>
      </trkpt>
      <trkpt lat="58.379194932058454" lon="12.677451940253377">
        <ele>50.9</ele>
        <time>2025-02-07T14:50:18.429Z</time>
      </trkpt>
      <trkpt lat="58.379240948706865" lon="12.677574986591935">
        <ele>50.93</ele>
        <time>2025-02-07T14:50:49.902Z</time>
      </trkpt>
      <trkpt lat="58.379284953698516" lon="12.677698954939842">
        <ele>50.95</ele>
        <time>2025-02-07T14:51:21.376Z</time>
      </trkpt>
      <trkpt lat="58.37932392954826" lon="12.677828958258033">
        <ele>50.98</ele>
        <time>2025-02-07T14:51:52.851Z</time>
      </trkpt>
      <trkpt lat="58.379350919276476" lon="12.677967930212617">
        <ele>51.01</ele>
        <time>2025-02-07T14:52:24.328Z</time>
      </trkpt>
      <trkpt lat="58.37935695424676" lon="12.678113942965865">
        <ele>51.05</ele>
        <time>2025-02-07T14:52:55.806Z</time>
      </trkpt>
      <trkpt lat="58.37933893315494" lon="12.678256938233972">
        <ele>51.08</ele>
        <time>2025-02-07T14:53:27.285Z</time>
      </trkpt>
      <trkpt lat="58.379302974790335" lon="12.678386941552162">
        <ele>51.11</ele>
        <time>2025-02-07T14:53:58.765Z</time>
      </trkpt>
      <trkpt lat="58.37925595231354" lon="12.678502947092056">
        <ele>51.14</ele>
        <time>2025-02-07T14:54:30.246Z</time>
      </trkpt>
      <trkpt lat="58.37920499034226" lon="12.678609983995557">
        <ele>51.17</ele>
        <time>2025-02-07T14:55:01.729Z</time>
      </trkpt>
      <trkpt lat="58.37914899922907" lon="12.678712997585535">
        <ele>51.2</ele>
        <time>2025-02-07T14:55:33.213Z</time>
      </trkpt>
      <trkpt lat="58.379091918468475" lon="12.678813999518752">
        <ele>51.22</ele>
        <time>2025-02-07T14:56:04.698Z</time>
      </trkpt>
      <trkpt lat="58.37903399951756" lon="12.678914917632937">
        <ele>51.25</ele>
        <time>2025-02-07T14:56:36.184Z</time>
      </trkpt>
      <trkpt lat="58.37897792458534" lon="12.679015919566154">
        <ele>51.28</ele>
        <time>2025-02-07T14:57:07.672Z</time>
      </trkpt>
      <trkpt lat="58.378920927643776" lon="12.679113987833261">
        <ele>51.3</ele>
        <time>2025-02-07T14:57:39.161Z</time>
      </trkpt>
      <trkpt lat="58.37886493653059" lon="12.679212978109717">
        <ele>51.33</ele>
        <time>2025-02-07T14:58:10.651Z</time>
      </trkpt>
      <trkpt lat="58.378808945417404" lon="12.679311968386173">
        <ele>51.35</ele>
        <time>2025-02-07T14:58:42.142Z</time>
      </trkpt>
      <trkpt lat="58.37875295430422" lon="12.679409952834249">
        <ele>51.38</ele>
        <time>2025-02-07T14:59:13.635Z</time>
      </trkpt>
      <trkpt lat="58.37869595736265" lon="12.679507937282324">
        <ele>51.4</ele>
        <time>2025-02-07T14:59:45.129Z</time>
      </trkpt>
      <trkpt lat="58.378639966249466" lon="12.6796059217304">
        <ele>51.43</ele>
        <time>2025-02-07T15:00:16.624Z</time>
      </trkpt>
      <trkpt lat="58.3785829693079" lon="12.679703989997506">
        <ele>51.46</ele>
        <time>2025-02-07T15:00:48.120Z</time>
      </trkpt>
      <trkpt lat="58.37852496653795" lon="12.679801974445581">
        <ele>51.49</ele>
        <time>2025-02-07T15:01:19.618Z</time>
      </trkpt>
      <trkpt lat="58.378467969596386" lon="12.679899958893657">
        <ele>51.52</ele>
        <time>2025-02-07T15:01:51.117Z</time>
      </trkpt>
      <trkpt lat="58.37841097265482" lon="12.679999954998493">
        <ele>51.55</ele>
        <time>2025-02-07T15:02:22.617Z</time>
      </trkpt>
      <trkpt lat="58.37835296988487" lon="12.68009995110333">
        <ele>51.59</ele>
        <time>2025-02-07T15:02:54.118Z</time>
      </trkpt>
      <trkpt lat="58.378295972943306" lon="12.680199947208166">
        <ele>51.62</ele>
        <time>2025-02-07T15:03:25.620Z</time>
      </trkpt>
      <trkpt lat="58.37823897600174" lon="12.680298937484622">
        <ele>51.65</ele>
        <time>2025-02-07T15:03:57.124Z</time>
      </trkpt>
      <trkpt lat="58.37818197906017" lon="12.680397927761078">
        <ele>51.68</ele>
        <time>2025-02-07T15:04:28.629Z</time>
      </trkpt>
      <trkpt lat="58.378123976290226" lon="12.680496918037534">
        <ele>51.71</ele>
        <time>2025-02-07T15:05:00.135Z</time>
      </trkpt>
      <trkpt lat="58.37806697934866" lon="12.680595992133021">
        <ele>51.75</ele>
        <time>2025-02-07T15:05:31.642Z</time>
      </trkpt>
      <trkpt lat="58.37800998240709" lon="12.680696994066238">
        <ele>51.78</ele>
        <time>2025-02-07T15:06:03.151Z</time>
      </trkpt>
      <trkpt lat="58.37795298546553" lon="12.680797995999455">
        <ele>51.81</ele>
        <time>2025-02-07T15:06:34.661Z</time>
      </trkpt>
      <trkpt lat="58.37789598852396" lon="12.680898997932673">
        <ele>51.84</ele>
        <time>2025-02-07T15:07:06.172Z</time>
      </trkpt>
      <trkpt lat="58.377838991582394" lon="12.680998994037509">
        <ele>51.87</ele>
        <time>2025-02-07T15:07:37.684Z</time>
      </trkpt>
      <trkpt lat="58.37778098881245" lon="12.681099995970726">
        <ele>51.9</ele>
        <time>2025-02-07T15:08:09.198Z</time>
      </trkpt>
      <trkpt lat="58.37772499769926" lon="12.681200997903943">
        <ele>51.93</ele>
        <time>2025-02-07T15:08:40.713Z</time>
      </trkpt>
      <trkpt lat="58.37766791693866" lon="12.681302921846509">
        <ele>51.97</ele>
        <time>2025-02-07T15:09:12.229Z</time>
      </trkpt>
      <trkpt lat="58.37761192582548" lon="12.681403923779726">
        <ele>52.0</ele>
        <time>2025-02-07T15:09:43.746Z</time>
      </trkpt>
      <trkpt lat="58.37755392305553" lon="12.681504925712943">
        <ele>52.03</ele>
        <time>2025-02-07T15:10:15.265Z</time>
      </trkpt>
      <trkpt lat="58.37749692611396" lon="12.68160492181778">
        <ele>52.07</ele>
        <time>2025-02-07T15:10:46.785Z</time>
      </trkpt>
      <trkpt lat="58.377438923344016" lon="12.681703995913267">
        <ele>52.11</ele>
        <time>2025-02-07T15:11:18.306Z</time>
      </trkpt>
      <trkpt lat="58.37738092057407" lon="12.681803992018104">
        <ele>52.14</ele>
        <time>2025-02-07T15:11:49.828Z</time>
      </trkpt>
      <trkpt lat="58.37732291780412" lon="12.68190398812294">
        <ele>52.18</ele>
        <time>2025-02-07T15:12:21.352Z</time>
      </trkpt>
      <trkpt lat="58.377263993024826" lon="12.682003984227777">
        <ele>52.21</ele>
        <time>2025-02-07T15:12:52.877Z</time>
      </trkpt>
      <trkpt lat="58.37720599025488" lon="12.682104986160994">
        <ele>52.25</ele>
        <time>2025-02-07T15:13:24.403Z</time>
      </trkpt>
      <trkpt lat="58.37714798748493" lon="12.682206993922591">
        <ele>52.28</ele>
        <time>2025-02-07T15:13:55.930Z</time>
      </trkpt>
      <trkpt lat="58.377090990543365" lon="12.682309923693538">
        <ele>52.32</ele>
        <time>2025-02-07T15:14:27.459Z</time>
      </trkpt>
      <trkpt lat="58.37703198194504" lon="12.682412937283516">
        <ele>52.36</ele>
        <time>2025-02-07T15:14:58.989Z</time>
      </trkpt>
      <trkpt lat="58.37697297334671" lon="12.682515950873494">
        <ele>52.4</ele>
        <time>2025-02-07T15:15:30.520Z</time>
      </trkpt>
      <trkpt lat="58.37691396474838" lon="12.682618964463472">
        <ele>52.44</ele>
        <time>2025-02-07T15:16:02.053Z</time>
      </trkpt>
      <trkpt lat="58.376855961978436" lon="12.68272097222507">
        <ele>52.47</ele>
        <time>2025-02-07T15:16:33.587Z</time>
      </trkpt>
      <trkpt lat="58.37679795920849" lon="12.682823985815048">
        <ele>52.51</ele>
        <time>2025-02-07T15:17:05.122Z</time>
      </trkpt>
      <trkpt lat="58.37674096226692" lon="12.682925993576646">
        <ele>52.55</ele>
        <time>2025-02-07T15:17:36.658Z</time>
      </trkpt>
      <trkpt lat="58.376682959496975" lon="12.683027917519212">
        <ele>52.58</ele>
        <time>2025-02-07T15:18:08.196Z</time>
      </trkpt>
      <trkpt lat="58.37662596255541" lon="12.683128919452429">
        <ele>52.62</ele>
        <time>2025-02-07T15:18:39.735Z</time>
      </trkpt>
      <trkpt lat="58.37656997144222" lon="12.683229921385646">
        <ele>52.65</ele>
        <time>2025-02-07T15:19:11.275Z</time>
      </trkpt>
      <trkpt lat="58.37651398032904" lon="12.683329917490482">
        <ele>52.69</ele>
        <time>2025-02-07T15:19:42.816Z</time>
      </trkpt>
      <trkpt lat="58.37645798921585" lon="12.68342999741435">
        <ele>52.73</ele>
        <time>2025-02-07T15:20:14.359Z</time>
      </trkpt>
      <trkpt lat="58.376402920112014" lon="12.683528987690806">
        <ele>52.76</ele>
        <time>2025-02-07T15:20:45.903Z</time>
      </trkpt>
      <trkpt lat="58.37634692899883" lon="12.683625966310501">
        <ele>52.8</ele>
        <time>2025-02-07T15:21:17.448Z</time>
      </trkpt>
      <trkpt lat="58.3762929495424" lon="12.683723950758576">
        <ele>52.83</ele>
        <time>2025-02-07T15:21:48.994Z</time>
      </trkpt>
      <trkpt lat="58.3762379642576" lon="12.683821935206652">
        <ele>52.87</ele>
        <time>2025-02-07T15:22:20.541Z</time>
      </trkpt>
      <trkpt lat="58.37618398480117" lon="12.683920925483108">
        <ele>52.91</ele>
        <time>2025-02-07T15:22:52.090Z</time>
      </trkpt>
      <trkpt lat="58.37612899951637" lon="12.684018993750215">
        <ele>52.95</ele>
        <time>2025-02-07T15:23:23.640Z</time>
      </trkpt>
      <trkpt lat="58.37607292458415" lon="12.68411697819829">
        <ele>52.99</ele>
        <time>2025-02-07T15:23:55.191Z</time>
      </trkpt>
      <trkpt lat="58.376017939299345" lon="12.684216974303126">
        <ele>53.03</ele>
        <time>2025-02-07T15:24:26.743Z</time>
      </trkpt>
      <trkpt lat="58.37596194818616" lon="12.684316970407963">
        <ele>53.07</ele>
        <time>2025-02-07T15:24:58.297Z</time>
      </trkpt>
      <trkpt lat="58.37590495124459" lon="12.68441797234118">
        <ele>53.11</ele>
        <time>2025-02-07T15:25:29.852Z</time>
      </trkpt>
      <trkpt lat="58.375846948474646" lon="12.684519980102777">
        <ele>53.14</ele>
        <time>2025-02-07T15:26:01.408Z</time>
      </trkpt>
      <trkpt lat="58.3757889457047" lon="12.684621987864375">
        <ele>53.18</ele>
        <time>2025-02-07T15:26:32.965Z</time>
      </trkpt>
      <trkpt lat="58.37572993710637" lon="12.684724917635322">
        <ele>53.22</ele>
        <time>2025-02-07T15:27:04.524Z</time>
      </trkpt>
      <trkpt lat="58.37567092850804" lon="12.6848279312253">
        <ele>53.26</ele>
        <time>2025-02-07T15:27:36.084Z</time>
      </trkpt>
      <trkpt lat="58.37561099790037" lon="12.684931950643659">
        <ele>53.3</ele>
        <time>2025-02-07T15:28:07.645Z</time>
      </trkpt>
      <trkpt lat="58.37555198930204" lon="12.685035970062017">
        <ele>53.34</ele>
        <time>2025-02-07T15:28:39.207Z</time>
      </trkpt>
      <trkpt lat="58.37549298070371" lon="12.685138983651996">
        <ele>53.38</ele>
        <time>2025-02-07T15:29:10.771Z</time>
      </trkpt>
      <trkpt lat="58.375433972105384" lon="12.685240991413593">
        <ele>53.42</ele>
        <time>2025-02-07T15:29:42.336Z</time>
      </trkpt>
      <trkpt lat="58.37537596933544" lon="12.68534199334681">
        <ele>53.46</ele>
        <time>2025-02-07T15:30:13.902Z</time>
      </trkpt>
      <trkpt lat="58.37531796656549" lon="12.685444923117757">
        <ele>53.5</ele>
        <time>2025-02-07T15:30:45.470Z</time>
      </trkpt>
      <trkpt lat="58.37526096962392" lon="12.685548942536116">
        <ele>53.54</ele>
        <time>2025-02-07T15:31:17.039Z</time>
      </trkpt>
      <trkpt lat="58.37520397268236" lon="12.685652961954474">
        <ele>53.58</ele>
        <time>2025-02-07T15:31:48.609Z</time>
      </trkpt>
      <trkpt lat="58.37515099905431" lon="12.685762932524085">
        <ele>53.63</ele>
        <time>2025-02-07T15:32:20.180Z</time>
      </trkpt>
      <trkpt lat="58.37510598823428" lon="12.685881955549121">
        <ele>53.67</ele>
        <time>2025-02-07T15:32:51.753Z</time>
      </trkpt>
      <trkpt lat="58.37506894022226" lon="12.68600994721055">
        <ele>53.71</ele>
        <time>2025-02-07T15:33:23.327Z</time>
      </trkpt>
      <trkpt lat="58.37504295632243" lon="12.686145985499024">
        <ele>53.75</ele>
        <time>2025-02-07T15:33:54.902Z</time>
      </trkpt>
      <trkpt lat="58.375026946887374" lon="12.68628797493875">
        <ele>53.79</ele>
        <time>2025-02-07T15:34:26.478Z</time>
      </trkpt>
      <trkpt lat="58.37501998990774" lon="12.686431976035237">
        <ele>53.83</ele>
        <time>2025-02-07T15:34:58.055Z</time>
      </trkpt>
      <trkpt lat="58.37501797825098" lon="12.686576982960105">
        <ele>53.87</ele>
        <time>2025-02-07T15:35:29.634Z</time>
      </trkpt>
      <trkpt lat="58.37501898407936" lon="12.686719978228211">
        <ele>53.91</ele>
        <time>2025-02-07T15:36:01.214Z</time>
      </trkpt>
      <trkpt lat="58.37502191774547" lon="12.686862973496318">
        <ele>53.95</ele>
        <time>2025-02-07T15:36:32.795Z</time>
      </trkpt>
      <trkpt lat="58.37502493523061" lon="12.687001945450902">
        <ele>53.99</ele>
        <time>2025-02-07T15:37:04.377Z</time>
      </trkpt>
      <trkpt lat="58.375028958544135" lon="12.687133960425854">
        <ele>54.03</ele>
        <time>2025-02-07T15:37:35.960Z</time>
      </trkpt>
      <trkpt lat="58.37503298185766" lon="12.687260946258903">
        <ele>54.07</ele>
        <time>2025-02-07T15:38:07.544Z</time>
      </trkpt>
      <trkpt lat="58.37503792718053" lon="12.68738298676908">
        <ele>54.11</ele>
        <time>2025-02-07T15:38:39.129Z</time>
      </trkpt>
      <trkpt lat="58.37504295632243" lon="12.687501925975084">
        <ele>54.14</ele>
        <time>2025-02-07T15:39:10.715Z</time>
      </trkpt>
      <trkpt lat="58.375047985464334" lon="12.68762094900012">
        <ele>54.18</ele>
        <time>2025-02-07T15:39:42.303Z</time>
      </trkpt>
      <trkpt lat="58.375052930787206" lon="12.687740977853537">
        <ele>54.22</ele>
        <time>2025-02-07T15:40:13.892Z</time>
      </trkpt>
      <trkpt lat="58.37505695410073" lon="12.687862934544683">
        <ele>54.27</ele>
        <time>2025-02-07T15:40:45.482Z</time>
      </trkpt>
      <trkpt lat="58.37506198324263" lon="12.687986986711621">
        <ele>54.3</ele>
        <time>2025-02-07T15:41:17.073Z</time>
      </trkpt>
      <trkpt lat="58.37506592273712" lon="12.688111960887909">
        <ele>54.34</ele>
        <time>2025-02-07T15:41:48.665Z</time>
      </trkpt>
      <trkpt lat="58.375069946050644" lon="12.688236935064197">
        <ele>54.37</ele>
        <time>2025-02-07T15:42:20.258Z</time>
      </trkpt>
      <trkpt lat="58.375073969364166" lon="12.688362998887897">
        <ele>54.41</ele>
        <time>2025-02-07T15:42:51.852Z</time>
      </trkpt>
      <trkpt lat="58.37507992051542" lon="12.688488978892565">
        <ele>54.45</ele>
        <time>2025-02-07T15:43:23.447Z</time>
      </trkpt>
      <trkpt lat="58.37508494965732" lon="12.688614958897233">
        <ele>54.48</ele>
        <time>2025-02-07T15:43:55.043Z</time>
      </trkpt>
      <trkpt lat="58.37508897297084" lon="12.68873993307352">
        <ele>54.51</ele>
        <time>2025-02-07T15:44:26.640Z</time>
      </trkpt>
      <trkpt lat="58.375092996284366" lon="12.68886499106884">
        <ele>54.55</ele>
        <time>2025-02-07T15:44:58.238Z</time>
      </trkpt>
      <trkpt lat="58.37509794160724" lon="12.688988959416747">
        <ele>54.58</ele>
        <time>2025-02-07T15:45:29.837Z</time>
      </trkpt>
      <trkpt lat="58.37510196492076" lon="12.689111921936274">
        <ele>54.61</ele>
        <time>2025-02-07T15:46:01.437Z</time>
      </trkpt>
      <trkpt lat="58.37510699406266" lon="12.689234968274832">
        <ele>54.64</ele>
        <time>2025-02-07T15:46:33.038Z</time>
      </trkpt>
      <trkpt lat="58.375112945213914" lon="12.689357930794358">
        <ele>54.68</ele>
        <time>2025-02-07T15:47:04.640Z</time>
      </trkpt>
      <trkpt lat="58.375116968527436" lon="12.689481982961297">
        <ele>54.71</ele>
        <time>2025-02-07T15:47:36.243Z</time>
      </trkpt>
      <trkpt lat="58.37512099184096" lon="12.689604945480824">
        <ele>54.74</ele>
        <time>2025-02-07T15:48:07.847Z</time>
      </trkpt>
      <trkpt lat="58.37512593716383" lon="12.68972598016262">
        <ele>54.77</ele>
        <time>2025-02-07T15:48:39.452Z</time>
      </trkpt>
      <trkpt lat="58.37513197213411" lon="12.689845925197005">
        <ele>54.8</ele>
        <time>2025-02-07T15:49:11.058Z</time>
      </trkpt>
      <trkpt lat="58.375138929113746" lon="12.689965954050422">
        <ele>54.83</ele>
        <time>2025-02-07T15:49:42.665Z</time>
      </trkpt>
      <trkpt lat="58.37514596991241" lon="12.690085982903838">
        <ele>54.86</ele>
        <time>2025-02-07T15:50:14.273Z</time>
      </trkpt>
      <trkpt lat="58.37515292689204" lon="12.690207939594984">
        <ele>54.89</ele>
        <time>2025-02-07T15:50:45.882Z</time>
      </trkpt>
      <trkpt lat="58.375157956033945" lon="12.690330985933542">
        <ele>54.92</ele>
        <time>2025-02-07T15:51:17.492Z</time>
      </trkpt>
      <trkpt lat="58.37516399100423" lon="12.69045596010983">
        <ele>54.94</ele>
        <time>2025-02-07T15:51:49.103Z</time>
      </trkpt>
      <trkpt lat="58.37517094798386" lon="12.690582945942879">
        <ele>54.97</ele>
        <time>2025-02-07T15:52:20.716Z</time>
      </trkpt>
      <trkpt lat="58.375177988782525" lon="12.690710937604308">
        <ele>54.99</ele>
        <time>2025-02-07T15:52:52.330Z</time>
      </trkpt>
      <trkpt lat="58.37518494576216" lon="12.690837923437357">
        <ele>55.01</ele>
        <time>2025-02-07T15:53:23.945Z</time>
      </trkpt>
      <trkpt lat="58.37519098073244" lon="12.690959963947535">
        <ele>55.04</ele>
        <time>2025-02-07T15:53:55.561Z</time>
      </trkpt>
      <trkpt lat="58.37519693188369" lon="12.69107697531581">
        <ele>55.06</ele>
        <time>2025-02-07T15:54:27.178Z</time>
      </trkpt>
      <trkpt lat="58.375201961025596" lon="12.691190969198942">
        <ele>55.08</ele>
        <time>2025-02-07T15:54:58.796Z</time>
      </trkpt>
      <trkpt lat="58.37520598433912" lon="12.691300939768553">
        <ele>55.11</ele>
        <time>2025-02-07T15:55:30.415Z</time>
      </trkpt>
      <trkpt lat="58.37521092966199" lon="12.691407976672053">
        <ele>55.13</ele>
        <time>2025-02-07T15:56:02.035Z</time>
      </trkpt>
      <trkpt lat="58.37521595880389" lon="12.691510990262032">
        <ele>55.15</ele>
        <time>2025-02-07T15:56:33.655Z</time>
      </trkpt>
      <trkpt lat="58.375218976289034" lon="12.691604951396585">
        <ele>55.16</ele>
        <time>2025-02-07T15:57:05.276Z</time>
      </trkpt>
      <trkpt lat="58.375220987945795" lon="12.691686926409602">
        <ele>55.18</ele>
        <time>2025-02-07T15:57:36.898Z</time>
      </trkpt>
      <trkpt lat="58.375221993774176" lon="12.691757921129465">
        <ele>55.2</ele>
        <time>2025-02-07T15:58:08.520Z</time>
      </trkpt>
      <trkpt lat="58.375222999602556" lon="12.691821958869696">
        <ele>55.21</ele>
        <time>2025-02-07T15:58:40.143Z</time>
      </trkpt>
      <trkpt lat="58.375224927440286" lon="12.691882979124784">
        <ele>55.22</ele>
        <time>2025-02-07T15:59:11.767Z</time>
      </trkpt>
      <trkpt lat="58.37522794492543" lon="12.691944921389222">
        <ele>55.23</ele>
        <time>2025-02-07T15:59:43.391Z</time>
      </trkpt>
      <trkpt lat="58.37523599155247" lon="12.692007953301072">
        <ele>55.24</ele>
        <time>2025-02-07T16:00:15.016Z</time>
      </trkpt>
      <trkpt lat="58.37525292299688" lon="12.692068973556161">
        <ele>55.25</ele>
        <time>2025-02-07T16:00:46.641Z</time>
      </trkpt>
      <trkpt lat="58.37527899071574" lon="12.692126976326108">
        <ele>55.26</ele>
        <time>2025-02-07T16:01:18.267Z</time>
      </trkpt>
      <trkpt lat="58.37531494908035" lon="12.6921739988029">
        <ele>55.26</ele>
        <time>2025-02-07T16:01:49.894Z</time>
      </trkpt>
      <trkpt lat="58.37536297738552" lon="12.692207945510745">
        <ele>55.27</ele>
        <time>2025-02-07T16:02:21.521Z</time>
      </trkpt>
      <trkpt lat="58.375416956841946" lon="12.692233929410577">
        <ele>55.28</ele>
        <time>2025-02-07T16:02:53.149Z</time>
      </trkpt>
      <trkpt lat="58.375477977097034" lon="12.69225798547268">
        <ele>55.28</ele>
        <time>2025-02-07T16:03:24.778Z</time>
      </trkpt>
      <trkpt lat="58.375542936846614" lon="12.692276928573847">
        <ele>55.29</ele>
        <time>2025-02-07T16:03:56.408Z</time>
      </trkpt>
      <trkpt lat="58.375612925738096" lon="12.692294949665666">
        <ele>55.3</ele>
        <time>2025-02-07T16:04:28.039Z</time>
      </trkpt>
      <trkpt lat="58.37568492628634" lon="12.692316994071007">
        <ele>55.3</ele>
        <time>2025-02-07T16:04:59.672Z</time>
      </trkpt>
      <trkpt lat="58.375758938491344" lon="12.692342977970839">
        <ele>55.31</ele>
        <time>2025-02-07T16:05:31.306Z</time>
      </trkpt>
      <trkpt lat="58.37583496235311" lon="12.692374996840954">
        <ele>55.31</ele>
        <time>2025-02-07T16:06:02.941Z</time>
      </trkpt>
      <trkpt lat="58.375913919880986" lon="12.692408943548799">
        <ele>55.31</ele>
        <time>2025-02-07T16:06:34.577Z</time>
      </trkpt>
      <trkpt lat="58.375993967056274" lon="12.692441968247294">
        <ele>55.31</ele>
        <time>2025-02-07T16:07:06.215Z</time>
      </trkpt>
      <trkpt lat="58.37607393041253" lon="12.69247499294579">
        <ele>55.31</ele>
        <time>2025-02-07T16:07:37.854Z</time>
      </trkpt>
      <trkpt lat="58.3761549834162" lon="12.692506927996874">
        <ele>55.31</ele>
        <time>2025-02-07T16:08:09.494Z</time>
      </trkpt>
      <trkpt lat="58.3762379642576" lon="12.692541964352131">
        <ele>55.3</ele>
        <time>2025-02-07T16:08:41.136Z</time>
      </trkpt>
      <trkpt lat="58.376320945098996" lon="12.692578928545117">
        <ele>55.3</ele>
        <time>2025-02-07T16:09:12.779Z</time>
      </trkpt>
      <trkpt lat="58.376403925940394" lon="12.692611953243613">
        <ele>55.29</ele>
        <time>2025-02-07T16:09:44.423Z</time>
      </trkpt>
      <trkpt lat="58.376485984772444" lon="12.692641960456967">
        <ele>55.28</ele>
        <time>2025-02-07T16:10:16.069Z</time>
      </trkpt>
      <trkpt lat="58.37656795978546" lon="12.692673979327083">
        <ele>55.27</ele>
        <time>2025-02-07T16:10:47.716Z</time>
      </trkpt>
      <trkpt lat="58.37664993479848" lon="12.692703986540437">
        <ele>55.26</ele>
        <time>2025-02-07T16:11:19.364Z</time>
      </trkpt>
      <trkpt lat="58.37673199363053" lon="12.692736927419901">
        <ele>55.24</ele>
        <time>2025-02-07T16:11:51.014Z</time>
      </trkpt>
      <trkpt lat="58.376812962815166" lon="12.692773975431919">
        <ele>55.23</ele>
        <time>2025-02-07T16:12:22.665Z</time>
      </trkpt>
      <trkpt lat="58.3768939319998" lon="12.692812951281667">
        <ele>55.22</ele>
        <time>2025-02-07T16:12:54.317Z</time>
      </trkpt>
      <trkpt lat="58.37697599083185" lon="12.692849999293685">
        <ele>55.2</ele>
        <time>2025-02-07T16:13:25.971Z</time>
      </trkpt>
      <trkpt lat="58.37705997750163" lon="12.69288495182991">
        <ele>55.19</ele>
        <time>2025-02-07T16:13:57.626Z</time>
      </trkpt>
      <trkpt lat="58.37714396417141" lon="12.692915964871645">
        <ele>55.18</ele>
        <time>2025-02-07T16:14:29.283Z</time>
      </trkpt>
      <trkpt lat="58.37722694501281" lon="12.69294798374176">
        <ele>55.17</ele>
        <time>2025-02-07T16:15:00.941Z</time>
      </trkpt>
      <trkpt lat="58.37731093168259" lon="12.692979918792844">
        <ele>55.16</ele>
        <time>2025-02-07T16:15:32.600Z</time>
      </trkpt>
      <trkpt lat="58.37739399634302" lon="12.693008920177817">
        <ele>55.14</ele>
        <time>2025-02-07T16:16:04.261Z</time>
      </trkpt>
      <trkpt lat="58.377475971356034" lon="12.693036999553442">
        <ele>55.13</ele>
        <time>2025-02-07T16:16:35.923Z</time>
      </trkpt>
      <trkpt lat="58.37755593471229" lon="12.693064995110035">
        <ele>55.11</ele>
        <time>2025-02-07T16:17:07.586Z</time>
      </trkpt>
      <trkpt lat="58.3776349760592" lon="12.693091984838247">
        <ele>55.1</ele>
        <time>2025-02-07T16:17:39.251Z</time>
      </trkpt>
      <trkpt lat="58.37771192193031" lon="12.693116962909698">
        <ele>55.08</ele>
        <time>2025-02-07T16:18:10.917Z</time>
      </trkpt>
      <trkpt lat="58.37778995744884" lon="12.693138923496008">
        <ele>55.06</ele>
        <time>2025-02-07T16:18:42.584Z</time>
      </trkpt>
      <trkpt lat="58.37786799296737" lon="12.693159962072968">
        <ele>55.05</ele>
        <time>2025-02-07T16:19:14.252Z</time>
      </trkpt>
      <trkpt lat="58.377947956323624" lon="12.693183934316039">
        <ele>55.03</ele>
        <time>2025-02-07T16:19:45.922Z</time>
      </trkpt>
      <trkpt lat="58.37802791967988" lon="12.693204972893">
        <ele>55.01</ele>
        <time>2025-02-07T16:20:17.593Z</time>
      </trkpt>
      <trkpt lat="58.37810897268355" lon="12.693223999813199">
        <ele>54.98</ele>
        <time>2025-02-07T16:20:49.265Z</time>
      </trkpt>
      <trkpt lat="58.378187930211425" lon="12.693243948742747">
        <ele>54.96</ele>
        <time>2025-02-07T16:21:20.939Z</time>
      </trkpt>
      <trkpt lat="58.37826495990157" lon="12.693263981491327">
        <ele>54.93</ele>
        <time>2025-02-07T16:21:52.614Z</time>
      </trkpt>
      <trkpt lat="58.37834098376334" lon="12.693282924592495">
        <ele>54.9</ele>
        <time>2025-02-07T16:22:24.290Z</time>
      </trkpt>
      <trkpt lat="58.37841692380607" lon="12.693298934027553">
        <ele>54.87</ele>
        <time>2025-02-07T16:22:55.967Z</time>
      </trkpt>
      <trkpt lat="58.37849697098136" lon="12.693311925977468">
        <ele>54.84</ele>
        <time>2025-02-07T16:23:27.646Z</time>
      </trkpt>
      <trkpt lat="58.37857995182276" lon="12.693320978432894">
        <ele>54.81</ele>
        <time>2025-02-07T16:23:59.326Z</time>
      </trkpt>
      <trkpt lat="58.37866695597768" lon="12.693327935412526">
        <ele>54.78</ele>
        <time>2025-02-07T16:24:31.007Z</time>
      </trkpt>
      <trkpt lat="58.37875496596098" lon="12.69333598203957">
        <ele>54.75</ele>
        <time>2025-02-07T16:25:02.690Z</time>
      </trkpt>
      <trkpt lat="58.37884096428752" lon="12.693343944847584">
        <ele>54.72</ele>
        <time>2025-02-07T16:25:34.374Z</time>
      </trkpt>
      <trkpt lat="58.37892897427082" lon="12.693350985646248">
        <ele>54.69</ele>
        <time>2025-02-07T16:26:06.059Z</time>
      </trkpt>
      <trkpt lat="58.37901991792023" lon="12.693359954282641">
        <ele>54.66</ele>
        <time>2025-02-07T16:26:37.746Z</time>
      </trkpt>
      <trkpt lat="58.379110945388675" lon="12.693370934575796">
        <ele>54.63</ele>
        <time>2025-02-07T16:27:09.434Z</time>
      </trkpt>
      <trkpt lat="58.37919996120036" lon="12.693387949839234">
        <ele>54.6</ele>
        <time>2025-02-07T16:27:41.124Z</time>
      </trkpt>
      <trkpt lat="58.37928797118366" lon="12.693405970931053">
        <ele>54.58</ele>
        <time>2025-02-07T16:28:12.815Z</time>
      </trkpt>
      <trkpt lat="58.3793739695102" lon="12.693431954830885">
        <ele>54.55</ele>
        <time>2025-02-07T16:28:44.508Z</time>
      </trkpt>
      <trkpt lat="58.37945896200836" lon="12.693463973701">
        <ele>54.52</ele>
        <time>2025-02-07T16:29:16.202Z</time>
      </trkpt>
      <trkpt lat="58.379542948678136" lon="12.693499932065606">
        <ele>54.49</ele>
        <time>2025-02-07T16:29:47.897Z</time>
      </trkpt>
      <trkpt lat="58.37962995283306" lon="12.693539997562766">
        <ele>54.46</ele>
        <time>2025-02-07T16:30:19.594Z</time>
      </trkpt>
      <trkpt lat="58.379715951159596" lon="12.693583918735385">
        <ele>54.43</ele>
        <time>2025-02-07T16:30:51.292Z</time>
      </trkpt>
      <trkpt lat="58.3798039611429" lon="12.693633958697319">
        <ele>54.39</ele>
        <time>2025-02-07T16:31:22.992Z</time>
      </trkpt>
      <trkpt lat="58.3798919711262" lon="12.693694978952408">
        <ele>54.36</ele>
        <time>2025-02-07T16:31:54.693Z</time>
      </trkpt>
      <trkpt lat="58.3799799811095" lon="12.69376496784389">
        <ele>54.32</ele>
        <time>2025-02-07T16:32:26.396Z</time>
      </trkpt>
      <trkpt lat="58.38006991893053" lon="12.693842919543386">
        <ele>54.29</ele>
        <time>2025-02-07T16:32:58.100Z</time>
      </trkpt>
      <trkpt lat="58.38015893474221" lon="12.693924978375435">
        <ele>54.26</ele>
        <time>2025-02-07T16:33:29.806Z</time>
      </trkpt>
      <trkpt lat="58.38024392724037" lon="12.694013994187117">
        <ele>54.22</ele>
        <time>2025-02-07T16:34:01.513Z</time>
      </trkpt>
      <trkpt lat="58.38032992556691" lon="12.694098986685276">
        <ele>54.18</ele>
        <time>2025-02-07T16:34:33.222Z</time>
      </trkpt>
      <trkpt lat="58.38041592389345" lon="12.694182973355055">
        <ele>54.15</ele>
        <time>2025-02-07T16:35:04.933Z</time>
      </trkpt>
      <trkpt lat="58.38050091639161" lon="12.694265954196453">
        <ele>54.11</ele>
        <time>2025-02-07T16:35:36.645Z</time>
      </trkpt>
      <trkpt lat="58.38058498688042" lon="12.694348935037851">
        <ele>54.08</ele>
        <time>2025-02-07T16:36:08.359Z</time>
      </trkpt>
      <trkpt lat="58.38066796772182" lon="12.694427976384759">
        <ele>54.05</ele>
        <time>2025-02-07T16:36:40.074Z</time>
      </trkpt>
      <trkpt lat="58.380747931078076" lon="12.694510957226157">
        <ele>54.02</ele>
        <time>2025-02-07T16:37:11.791Z</time>
      </trkpt>
      <trkpt lat="58.380826972424984" lon="12.694594943895936">
        <ele>53.98</ele>
        <time>2025-02-07T16:37:43.509Z</time>
      </trkpt>
      <trkpt lat="58.38090299628675" lon="12.694680942222476">
        <ele>53.95</ele>
        <time>2025-02-07T16:38:15.228Z</time>
      </trkpt>
      <trkpt lat="58.380978936329484" lon="12.694769958034158">
        <ele>53.92</ele>
        <time>2025-02-07T16:38:46.949Z</time>
      </trkpt>
      <trkpt lat="58.38105093687773" lon="12.69486391916871">
        <ele>53.88</ele>
        <time>2025-02-07T16:39:18.671Z</time>
      </trkpt>
      <trkpt lat="58.38112092576921" lon="12.694965926930308">
        <ele>53.85</ele>
        <time>2025-02-07T16:39:50.395Z</time>
      </trkpt>
      <trkpt lat="58.38118898682296" lon="12.69507396966219">
        <ele>53.82</ele>
        <time>2025-02-07T16:40:22.120Z</time>
      </trkpt>
      <trkpt lat="58.381256964057684" lon="12.6951839402318">
        <ele>53.79</ele>
        <time>2025-02-07T16:40:53.847Z</time>
      </trkpt>
      <trkpt lat="58.38132192380726" lon="12.695296928286552">
        <ele>53.75</ele>
        <time>2025-02-07T16:41:25.575Z</time>
      </trkpt>
      <trkpt lat="58.38138394989073" lon="12.695412933826447">
        <ele>53.72</ele>
        <time>2025-02-07T16:41:57.304Z</time>
      </trkpt>
      <trkpt lat="58.38144396431744" lon="12.695531956851482">
        <ele>53.7</ele>
        <time>2025-02-07T16:42:29.035Z</time>
      </trkpt>
      <trkpt lat="58.38150096125901" lon="12.695650979876518">
        <ele>53.67</ele>
        <time>2025-02-07T16:43:00.767Z</time>
      </trkpt>
      <trkpt lat="58.38155695237219" lon="12.695774948224425">
        <ele>53.64</ele>
        <time>2025-02-07T16:43:32.500Z</time>
      </trkpt>
      <trkpt lat="58.381611937657" lon="12.695900928229094">
        <ele>53.62</ele>
        <time>2025-02-07T16:44:04.235Z</time>
      </trkpt>
      <trkpt lat="58.381666922941804" lon="12.696028919890523">
        <ele>53.59</ele>
        <time>2025-02-07T16:44:35.971Z</time>
      </trkpt>
      <trkpt lat="58.38172299787402" lon="12.696156995370984">
        <ele>53.55</ele>
        <time>2025-02-07T16:45:07.709Z</time>
      </trkpt>
      <trkpt lat="58.38177898898721" lon="12.696283981204033">
        <ele>53.53</ele>
        <time>2025-02-07T16:45:39.448Z</time>
      </trkpt>
      <trkpt lat="58.38183498010039" lon="12.69640895538032">
        <ele>53.5</ele>
        <time>2025-02-07T16:46:11.188Z</time>
      </trkpt>
      <trkpt lat="58.3818899653852" lon="12.696532923728228">
        <ele>53.48</ele>
        <time>2025-02-07T16:46:42.930Z</time>
      </trkpt>
      <trkpt lat="58.38194193318486" lon="12.696654964238405">
        <ele>53.45</ele>
        <time>2025-02-07T16:47:14.673Z</time>
      </trkpt>
      <trkpt lat="58.38199499063194" lon="12.696774993091822">
        <ele>53.42</ele>
        <time>2025-02-07T16:47:46.417Z</time>
      </trkpt>
      <trkpt lat="58.3820469584316" lon="12.696895943954587">
        <ele>53.39</ele>
        <time>2025-02-07T16:48:18.163Z</time>
      </trkpt>
      <trkpt lat="58.382097920402884" lon="12.697017984464765">
        <ele>53.37</ele>
        <time>2025-02-07T16:48:49.910Z</time>
      </trkpt>
      <trkpt lat="58.38214997202158" lon="12.697140946984291">
        <ele>53.34</ele>
        <time>2025-02-07T16:49:21.658Z</time>
      </trkpt>
      <trkpt lat="58.382203951478004" lon="12.697260975837708">
        <ele>53.32</ele>
        <time>2025-02-07T16:49:53.408Z</time>
      </trkpt>
      <trkpt lat="58.38225893676281" lon="12.697378993034363">
        <ele>53.3</ele>
        <time>2025-02-07T16:50:25.159Z</time>
      </trkpt>
      <trkpt lat="58.382311994209886" lon="12.697496926411986">
        <ele>53.27</ele>
        <time>2025-02-07T16:50:56.911Z</time>
      </trkpt>
      <trkpt lat="58.38236597366631" lon="12.697614943608642">
        <ele>53.25</ele>
        <time>2025-02-07T16:51:28.665Z</time>
      </trkpt>
      <trkpt lat="58.382419953122735" lon="12.697731954976916">
        <ele>53.23</ele>
        <time>2025-02-07T16:52:00.420Z</time>
      </trkpt>
      <trkpt lat="58.38247292675078" lon="12.697848966345191">
        <ele>53.21</ele>
        <time>2025-02-07T16:52:32.176Z</time>
      </trkpt>
      <trkpt lat="58.382524978369474" lon="12.697966983541846">
        <ele>53.19</ele>
        <time>2025-02-07T16:53:03.934Z</time>
      </trkpt>
      <trkpt lat="58.38257594034076" lon="12.698086928576231">
        <ele>53.17</ele>
        <time>2025-02-07T16:53:35.693Z</time>
      </trkpt>
      <trkpt lat="58.38262899778783" lon="12.698207963258028">
        <ele>53.15</ele>
        <time>2025-02-07T16:54:07.453Z</time>
      </trkpt>
      <trkpt lat="58.38268498890102" lon="12.698329919949174">
        <ele>53.13</ele>
        <time>2025-02-07T16:54:39.215Z</time>
      </trkpt>
      <trkpt lat="58.382742991670966" lon="12.698453972116113">
        <ele>53.11</ele>
        <time>2025-02-07T16:55:10.978Z</time>
      </trkpt>
      <trkpt lat="58.38280191645026" lon="12.69857794046402">
        <ele>53.09</ele>
        <time>2025-02-07T16:55:42.742Z</time>
      </trkpt>
      <trkpt lat="58.38286092504859" lon="12.69870299845934">
        <ele>53.08</ele>
        <time>2025-02-07T16:56:14.508Z</time>
      </trkpt>
      <trkpt lat="58.3829209394753" lon="12.698823949322104">
        <ele>53.07</ele>
        <time>2025-02-07T16:56:46.275Z</time>
      </trkpt>
      <trkpt lat="58.382980953902006" lon="12.698939954861999">
        <ele>53.05</ele>
        <time>2025-02-07T16:57:18.044Z</time>
      </trkpt>
      <trkpt lat="58.383040968328714" lon="12.699053948745131">
        <ele>53.04</ele>
        <time>2025-02-07T16:57:49.814Z</time>
      </trkpt>
      <trkpt lat="58.383102994412184" lon="12.699166936799884">
        <ele>53.03</ele>
        <time>2025-02-07T16:58:21.585Z</time>
      </trkpt>
      <trkpt lat="58.38316694833338" lon="12.699277997016907">
        <ele>53.02</ele>
        <time>2025-02-07T16:58:53.358Z</time>
      </trkpt>
      <trkpt lat="58.383231991901994" lon="12.699385955929756">
        <ele>53.01</ele>
        <time>2025-02-07T16:59:25.132Z</time>
      </trkpt>
      <trkpt lat="58.383298963308334" lon="12.699491987004876">
        <ele>53.0</ele>
        <time>2025-02-07T16:59:56.908Z</time>
      </trkpt>
      <trkpt lat="58.383364928886294" lon="12.699597934260964">
        <ele>52.99</ele>
        <time>2025-02-07T17:00:28.685Z</time>
      </trkpt>
      <trkpt lat="58.383430978283286" lon="12.699700947850943">
        <ele>52.97</ele>
        <time>2025-02-07T17:01:00.463Z</time>
      </trkpt>
      <trkpt lat="58.38349794968963" lon="12.69980295561254">
        <ele>52.96</ele>
        <time>2025-02-07T17:01:32.243Z</time>
      </trkpt>
      <trkpt lat="58.38356492109597" lon="12.699904963374138">
        <ele>52.94</ele>
        <time>2025-02-07T17:02:04.024Z</time>
      </trkpt>
      <trkpt lat="58.38363097049296" lon="12.700006971135736">
        <ele>52.92</ele>
        <time>2025-02-07T17:02:35.806Z</time>
      </trkpt>
      <trkpt lat="58.3836979418993" lon="12.700108978897333">
        <ele>52.9</ele>
        <time>2025-02-07T17:03:07.590Z</time>
      </trkpt>
      <trkpt lat="58.38376399129629" lon="12.70020897500217">
        <ele>52.89</ele>
        <time>2025-02-07T17:03:39.375Z</time>
      </trkpt>
      <trkpt lat="58.38382895104587" lon="12.700307965278625">
        <ele>52.87</ele>
        <time>2025-02-07T17:04:11.161Z</time>
      </trkpt>
      <trkpt lat="58.38389399461448" lon="12.7004059497267">
        <ele>52.86</ele>
        <time>2025-02-07T17:04:42.949Z</time>
      </trkpt>
      <trkpt lat="58.38395794853568" lon="12.700503934174776">
        <ele>52.84</ele>
        <time>2025-02-07T17:05:14.738Z</time>
      </trkpt>
      <trkpt lat="58.38402198627591" lon="12.700604936107993">
        <ele>52.83</ele>
        <time>2025-02-07T17:05:46.528Z</time>
      </trkpt>
      <trkpt lat="58.38408795185387" lon="12.70070593804121">
        <ele>52.82</ele>
        <time>2025-02-07T17:06:18.320Z</time>
      </trkpt>
      <trkpt lat="58.38415492326021" lon="12.700806939974427">
        <ele>52.82</ele>
        <time>2025-02-07T17:06:50.113Z</time>
      </trkpt>
      <trkpt lat="58.384221978485584" lon="12.700905930250883">
        <ele>52.81</ele>
        <time>2025-02-07T17:07:21.908Z</time>
      </trkpt>
      <trkpt lat="58.384288949891925" lon="12.701000981032848">
        <ele>52.8</ele>
        <time>2025-02-07T17:07:53.704Z</time>
      </trkpt>
      <trkpt lat="58.384355921298265" lon="12.70109393633902">
        <ele>52.8</ele>
        <time>2025-02-07T17:08:25.501Z</time>
      </trkpt>
      <trkpt lat="58.384419959038496" lon="12.701189992949367">
        <ele>52.79</ele>
        <time>2025-02-07T17:08:57.299Z</time>
      </trkpt>
      <trkpt lat="58.384479973465204" lon="12.701287977397442">
        <ele>52.79</ele>
        <time>2025-02-07T17:09:29.099Z</time>
      </trkpt>
      <trkpt lat="58.38453898206353" lon="12.701381938531995">
        <ele>52.79</ele>
        <time>2025-02-07T17:10:00.900Z</time>
      </trkpt>
      <trkpt lat="58.38459799066186" lon="12.70147598348558">
        <ele>52.79</ele>
        <time>2025-02-07T17:10:32.702Z</time>
      </trkpt>
      <trkpt lat="58.38465699926019" lon="12.701571956276894">
        <ele>52.78</ele>
        <time>2025-02-07T17:11:04.505Z</time>
      </trkpt>
      <trkpt lat="58.384717935696244" lon="12.701666923239827">
        <ele>52.78</ele>
        <time>2025-02-07T17:11:36.310Z</time>
      </trkpt>
      <trkpt lat="58.38478599675" lon="12.701754933223128">
        <ele>52.77</ele>
        <time>2025-02-07T17:12:08.116Z</time>
      </trkpt>
      <trkpt lat="58.38485799729824" lon="12.701838919892907">
        <ele>52.77</ele>
        <time>2025-02-07T17:12:39.923Z</time>
      </trkpt>
      <trkpt lat="58.384931925684214" lon="12.701926929876208">
        <ele>52.76</ele>
        <time>2025-02-07T17:13:11.732Z</time>
      </trkpt>
      <trkpt lat="58.38500794954598" lon="12.702019969001412">
        <ele>52.76</ele>
        <time>2025-02-07T17:13:43.542Z</time>
      </trkpt>
      <trkpt lat="58.385080955922604" lon="12.702115941792727">
        <ele>52.76</ele>
        <time>2025-02-07T17:14:15.354Z</time>
      </trkpt>
      <trkpt lat="58.38515396229923" lon="12.70220898091793">
        <ele>52.75</ele>
        <time>2025-02-07T17:14:47.167Z</time>
      </trkpt>
      <trkpt lat="58.38522596284747" lon="12.702296990901232">
        <ele>52.75</ele>
        <time>2025-02-07T17:15:18.981Z</time>
      </trkpt>
      <trkpt lat="58.385296957567334" lon="12.702381983399391">
        <ele>52.75</ele>
        <time>2025-02-07T17:15:50.797Z</time>
      </trkpt>
      <trkpt lat="58.3853679522872" lon="12.702463958412409">
        <ele>52.74</ele>
        <time>2025-02-07T17:16:22.614Z</time>
      </trkpt>
      <trkpt lat="58.38543794117868" lon="12.702547945082188">
        <ele>52.74</ele>
        <time>2025-02-07T17:16:54.432Z</time>
      </trkpt>
      <trkpt lat="58.38550793007016" lon="12.702629920095205">
        <ele>52.74</ele>
        <time>2025-02-07T17:17:26.252Z</time>
      </trkpt>
      <trkpt lat="58.385578924790025" lon="12.702709967270494">
        <ele>52.74</ele>
        <time>2025-02-07T17:17:58.073Z</time>
      </trkpt>
      <trkpt lat="58.38564991950989" lon="12.70279093645513">
        <ele>52.74</ele>
        <time>2025-02-07T17:18:29.895Z</time>
      </trkpt>
      <trkpt lat="58.38572099804878" lon="12.702873917296529">
        <ele>52.74</ele>
        <time>2025-02-07T17:19:01.719Z</time>
      </trkpt>
      <trkpt lat="58.385790986940265" lon="12.702956981956959">
        <ele>52.74</ele>
        <time>2025-02-07T17:19:33.544Z</time>
      </trkpt>
      <trkpt lat="58.38586198166013" lon="12.703039962798357">
        <ele>52.74</ele>
        <time>2025-02-07T17:20:05.370Z</time>
      </trkpt>
      <trkpt lat="58.38593197055161" lon="12.703121937811375">
        <ele>52.75</ele>
        <time>2025-02-07T17:20:37.198Z</time>
      </trkpt>
      <trkpt lat="58.38600095361471" lon="12.703201984986663">
        <ele>52.75</ele>
        <time>2025-02-07T17:21:09.027Z</time>
      </trkpt>
      <trkpt lat="58.38606993667781" lon="12.703277925029397">
        <ele>52.75</ele>
        <time>2025-02-07T17:21:40.857Z</time>
      </trkpt>
      <trkpt lat="58.386136991903186" lon="12.703350931406021">
        <ele>52.75</ele>
        <time>2025-02-07T17:22:12.689Z</time>
      </trkpt>
      <trkpt lat="58.386203963309526" lon="12.703426955267787">
        <ele>52.75</ele>
        <time>2025-02-07T17:22:44.522Z</time>
      </trkpt>
      <trkpt lat="58.38627194054425" lon="12.703499961644411">
        <ele>52.74</ele>
        <time>2025-02-07T17:23:16.356Z</time>
      </trkpt>
      <trkpt lat="58.38634293526411" lon="12.703563999384642">
        <ele>52.74</ele>
        <time>2025-02-07T17:23:48.191Z</time>
      </trkpt>
      <trkpt lat="58.386415941640735" lon="12.703618984669447">
        <ele>52.74</ele>
        <time>2025-02-07T17:24:20.028Z</time>
      </trkpt>
      <trkpt lat="58.38649095967412" lon="12.70366894081235">
        <ele>52.74</ele>
        <time>2025-02-07T17:24:51.866Z</time>
      </trkpt>
      <trkpt lat="58.38656899519265" lon="12.703723926097155">
        <ele>52.73</ele>
        <time>2025-02-07T17:25:23.705Z</time>
      </trkpt>
      <trkpt lat="58.38664694689214" lon="12.703781928867102">
        <ele>52.73</ele>
        <time>2025-02-07T17:25:55.546Z</time>
      </trkpt>
      <trkpt lat="58.38672699406743" lon="12.70384093746543">
        <ele>52.72</ele>
        <time>2025-02-07T17:26:27.388Z</time>
      </trkpt>
      <trkpt lat="58.38680695742369" lon="12.703899946063757">
        <ele>52.72</ele>
        <time>2025-02-07T17:26:59.231Z</time>
      </trkpt>
      <trkpt lat="58.386888932436705" lon="12.703957948833704">
        <ele>52.71</ele>
        <time>2025-02-07T17:27:31.076Z</time>
      </trkpt>
      <trkpt lat="58.386970991268754" lon="12.704015951603651">
        <ele>52.71</ele>
        <time>2025-02-07T17:28:02.922Z</time>
      </trkpt>
      <trkpt lat="58.38705497793853" lon="12.704071942716837">
        <ele>52.71</ele>
        <time>2025-02-07T17:28:34.770Z</time>
      </trkpt>
      <trkpt lat="58.38713795877993" lon="12.704124916344881">
        <ele>52.71</ele>
        <time>2025-02-07T17:29:06.619Z</time>
      </trkpt>
      <trkpt lat="58.38722194544971" lon="12.704180991277099">
        <ele>52.71</ele>
        <time>2025-02-07T17:29:38.469Z</time>
      </trkpt>
      <trkpt lat="58.38730492629111" lon="12.704240921884775">
        <ele>52.71</ele>
        <time>2025-02-07T17:30:10.321Z</time>
      </trkpt>
      <trkpt lat="58.38738698512316" lon="12.704299930483103">
        <ele>52.71</ele>
        <time>2025-02-07T17:30:42.174Z</time>
      </trkpt>
      <trkpt lat="58.387467954307795" lon="12.70435793325305">
        <ele>52.71</ele>
        <time>2025-02-07T17:31:14.029Z</time>
      </trkpt>
      <trkpt lat="58.38755093514919" lon="12.704409984871745">
        <ele>52.7</ele>
        <time>2025-02-07T17:31:45.885Z</time>
      </trkpt>
      <trkpt lat="58.38763399980962" lon="12.704460946843028">
        <ele>52.7</ele>
        <time>2025-02-07T17:32:17.742Z</time>
      </trkpt>
      <trkpt lat="58.38771698065102" lon="12.70450796931982">
        <ele>52.7</ele>
        <time>2025-02-07T17:32:49.601Z</time>
      </trkpt>
      <trkpt lat="58.38779996149242" lon="12.70455096848309">
        <ele>52.7</ele>
        <time>2025-02-07T17:33:21.461Z</time>
      </trkpt>
      <trkpt lat="58.387880930677056" lon="12.704594973474741">
        <ele>52.7</ele>
        <time>2025-02-07T17:33:53.322Z</time>
      </trkpt>
      <trkpt lat="58.387962989509106" lon="12.704637972638011">
        <ele>52.7</ele>
        <time>2025-02-07T17:34:25.185Z</time>
      </trkpt>
      <trkpt lat="58.388045970350504" lon="12.70467896014452">
        <ele>52.7</ele>
        <time>2025-02-07T17:34:57.049Z</time>
      </trkpt>
      <trkpt lat="58.38813096284866" lon="12.70472095347941">
        <ele>52.7</ele>
        <time>2025-02-07T17:35:28.915Z</time>
      </trkpt>
      <trkpt lat="58.38821595534682" lon="12.704760935157537">
        <ele>52.7</ele>
        <time>2025-02-07T17:36:00.782Z</time>
      </trkpt>
      <trkpt lat="58.38830295950174" lon="12.704800916835666">
        <ele>52.7</ele>
        <time>2025-02-07T17:36:32.650Z</time>
      </trkpt>
      <trkpt lat="58.388389963656664" lon="12.704843999817967">
        <ele>52.7</ele>
        <time>2025-02-07T17:37:04.520Z</time>
      </trkpt>
      <trkpt lat="58.388476967811584" lon="12.704887920990586">
        <ele>52.7</ele>
        <time>2025-02-07T17:37:36.391Z</time>
      </trkpt>
      <trkpt lat="58.388563971966505" lon="12.704932931810617">
        <ele>52.7</ele>
        <time>2025-02-07T17:38:08.264Z</time>
      </trkpt>
      <trkpt lat="58.388648964464664" lon="12.70497995428741">
        <ele>52.7</ele>
        <time>2025-02-07T17:38:40.138Z</time>
      </trkpt>
      <trkpt lat="58.388733956962824" lon="12.705032927915454">
        <ele>52.7</ele>
        <time>2025-02-07T17:39:12.014Z</time>
      </trkpt>
      <trkpt lat="58.3888179436326" lon="12.705087997019291">
        <ele>52.7</ele>
        <time>2025-02-07T17:39:43.891Z</time>
      </trkpt>
      <trkpt lat="58.38890193030238" lon="12.705145999789238">
        <ele>52.7</ele>
        <time>2025-02-07T17:40:15.770Z</time>
      </trkpt>
      <trkpt lat="58.38898398913443" lon="12.705207942053676">
        <ele>52.7</ele>
        <time>2025-02-07T17:40:47.650Z</time>
      </trkpt>
      <trkpt lat="58.38906596414745" lon="12.705273991450667">
        <ele>52.69</ele>
        <time>2025-02-07T17:41:19.531Z</time>
      </trkpt>
      <trkpt lat="58.389147939160466" lon="12.70534498617053">
        <ele>52.69</ele>
        <time>2025-02-07T17:41:51.414Z</time>
      </trkpt>
      <trkpt lat="58.389228992164135" lon="12.705415980890393">
        <ele>52.69</ele>
        <time>2025-02-07T17:42:23.298Z</time>
      </trkpt>
      <trkpt lat="58.38930694386363" lon="12.705490998923779">
        <ele>52.69</ele>
        <time>2025-02-07T17:42:55.184Z</time>
      </trkpt>
      <trkpt lat="58.389381961897016" lon="12.705569956451654">
        <ele>52.69</ele>
        <time>2025-02-07T17:43:27.071Z</time>
      </trkpt>
      <trkpt lat="58.38945496827364" lon="12.705649919807911">
        <ele>52.69</ele>
        <time>2025-02-07T17:43:58.959Z</time>
      </trkpt>
      <trkpt lat="58.38952696882188" lon="12.70573097281158">
        <ele>52.69</ele>
        <time>2025-02-07T17:44:30.849Z</time>
      </trkpt>
      <trkpt lat="58.38959997519851" lon="12.705812947824597">
        <ele>52.69</ele>
        <time>2025-02-07T17:45:02.740Z</time>
      </trkpt>
      <trkpt lat="58.38967398740351" lon="12.705894922837615">
        <ele>52.69</ele>
        <time>2025-02-07T17:45:34.632Z</time>
      </trkpt>
      <trkpt lat="58.389746993780136" lon="12.705974970012903">
        <ele>52.7</ele>
        <time>2025-02-07T17:46:06.526Z</time>
      </trkpt>
      <trkpt lat="58.38981899432838" lon="12.70605694502592">
        <ele>52.7</ele>
        <time>2025-02-07T17:46:38.421Z</time>
      </trkpt>
      <trkpt lat="58.38989099487662" lon="12.706139925867319">
        <ele>52.71</ele>
        <time>2025-02-07T17:47:10.317Z</time>
      </trkpt>
      <trkpt lat="58.389961989596486" lon="12.706222990527749">
        <ele>52.71</ele>
        <time>2025-02-07T17:47:42.215Z</time>
      </trkpt>
      <trkpt lat="58.39003298431635" lon="12.706305971369147">
        <ele>52.71</ele>
        <time>2025-02-07T17:48:14.114Z</time>
      </trkpt>
      <trkpt lat="58.39010498486459" lon="12.706387946382165">
        <ele>52.71</ele>
        <time>2025-02-07T17:48:46.015Z</time>
      </trkpt>
      <trkpt lat="58.390176985412836" lon="12.706468999385834">
        <ele>52.71</ele>
        <time>2025-02-07T17:49:17.917Z</time>
      </trkpt>
      <trkpt lat="58.39024999178946" lon="12.70654996857047">
        <ele>52.71</ele>
        <time>2025-02-07T17:49:49.820Z</time>
      </trkpt>
      <trkpt lat="58.390321992337704" lon="12.70663395524025">
        <ele>52.71</ele>
        <time>2025-02-07T17:50:21.725Z</time>
      </trkpt>
      <trkpt lat="58.39039499871433" lon="12.706718947738409">
        <ele>52.71</ele>
        <time>2025-02-07T17:50:53.631Z</time>
      </trkpt>
      <trkpt lat="58.3904689271003" lon="12.706802934408188">
        <ele>52.71</ele>
        <time>2025-02-07T17:51:25.538Z</time>
      </trkpt>
      <trkpt lat="58.390543945133686" lon="12.706885999068618">
        <ele>52.71</ele>
        <time>2025-02-07T17:51:57.447Z</time>
      </trkpt>
      <trkpt lat="58.39061996899545" lon="12.706970991566777">
        <ele>52.71</ele>
        <time>2025-02-07T17:52:29.357Z</time>
      </trkpt>
      <trkpt lat="58.39069398120046" lon="12.707058917731047">
        <ele>52.71</ele>
        <time>2025-02-07T17:53:01.269Z</time>
      </trkpt>
      <trkpt lat="58.39076899923384" lon="12.707145921885967">
        <ele>52.72</ele>
        <time>2025-02-07T17:53:33.182Z</time>
      </trkpt>
      <trkpt lat="58.390842927619815" lon="12.707231920212507">
        <ele>52.72</ele>
        <time>2025-02-07T17:54:05.096Z</time>
      </trkpt>
      <trkpt lat="58.39091693982482" lon="12.707318924367428">
        <ele>52.73</ele>
        <time>2025-02-07T17:54:37.012Z</time>
      </trkpt>
      <trkpt lat="58.39098793454468" lon="12.707406934350729">
        <ele>52.73</ele>
        <time>2025-02-07T17:55:08.929Z</time>
      </trkpt>
      <trkpt lat="58.391057923436165" lon="12.707492932677269">
        <ele>52.73</ele>
        <time>2025-02-07T17:55:40.847Z</time>
      </trkpt>
      <trkpt lat="58.39112598448992" lon="12.707577925175428">
        <ele>52.73</ele>
        <time>2025-02-07T17:56:12.767Z</time>
      </trkpt>
      <trkpt lat="58.39119295589626" lon="12.70766694098711">
        <ele>52.73</ele>
        <time>2025-02-07T17:56:44.688Z</time>
      </trkpt>
      <trkpt lat="58.39125799946487" lon="12.707758974283934">
        <ele>52.73</ele>
        <time>2025-02-07T17:57:16.610Z</time>
      </trkpt>
      <trkpt lat="58.39132295921445" lon="12.707852935418487">
        <ele>52.73</ele>
        <time>2025-02-07T17:57:48.534Z</time>
      </trkpt>
      <trkpt lat="58.3913859911263" lon="12.707947986200452">
        <ele>52.74</ele>
        <time>2025-02-07T17:58:20.459Z</time>
      </trkpt>
      <trkpt lat="58.39145095087588" lon="12.708039935678244">
        <ele>52.74</ele>
        <time>2025-02-07T17:58:52.385Z</time>
      </trkpt>
      <trkpt lat="58.39151498861611" lon="12.708132974803448">
        <ele>52.75</ele>
        <time>2025-02-07T17:59:24.313Z</time>
      </trkpt>
      <trkpt lat="58.39157894253731" lon="12.70822492428124">
        <ele>52.75</ele>
        <time>2025-02-07T17:59:56.242Z</time>
      </trkpt>
      <trkpt lat="58.39164197444916" lon="12.708317963406444">
        <ele>52.75</ele>
        <time>2025-02-07T18:00:28.172Z</time>
      </trkpt>
      <trkpt lat="58.39170592837036" lon="12.708414942026138">
        <ele>52.76</ele>
        <time>2025-02-07T18:01:00.103Z</time>
      </trkpt>
      <trkpt lat="58.39176996611059" lon="12.708512926474214">
        <ele>52.76</ele>
        <time>2025-02-07T18:01:32.036Z</time>
      </trkpt>
      <trkpt lat="58.39183492586017" lon="12.70860998891294">
        <ele>52.76</ele>
        <time>2025-02-07T18:02:03.970Z</time>
      </trkpt>
      <trkpt lat="58.39189795777202" lon="12.708708979189396">
        <ele>52.76</ele>
        <time>2025-02-07T18:02:35.905Z</time>
      </trkpt>
      <trkpt lat="58.39196199551225" lon="12.708806963637471">
        <ele>52.76</ele>
        <time>2025-02-07T18:03:07.842Z</time>
      </trkpt>
      <trkpt lat="58.392023937776685" lon="12.708901930600405">
        <ele>52.76</ele>
        <time>2025-02-07T18:03:39.780Z</time>
      </trkpt>
      <trkpt lat="58.392084958031774" lon="12.708993963897228">
        <ele>52.76</ele>
        <time>2025-02-07T18:04:11.719Z</time>
      </trkpt>
      <trkpt lat="58.39214497245848" lon="12.709085997194052">
        <ele>52.76</ele>
        <time>2025-02-07T18:04:43.659Z</time>
      </trkpt>
      <trkpt lat="58.39220599271357" lon="12.709178952500224">
        <ele>52.76</ele>
        <time>2025-02-07T18:05:15.601Z</time>
      </trkpt>
      <trkpt lat="58.39226793497801" lon="12.709270985797048">
        <ele>52.76</ele>
        <time>2025-02-07T18:05:47.544Z</time>
      </trkpt>
      <trkpt lat="58.39233197271824" lon="12.709361929446459">
        <ele>52.76</ele>
        <time>2025-02-07T18:06:19.488Z</time>
      </trkpt>
      <trkpt lat="58.39239592663944" lon="12.709451951086521">
        <ele>52.76</ele>
        <time>2025-02-07T18:06:51.433Z</time>
      </trkpt>
      <trkpt lat="58.39246298186481" lon="12.709540966898203">
        <ele>52.76</ele>
        <time>2025-02-07T18:07:23.380Z</time>
      </trkpt>
      <trkpt lat="58.39253095909953" lon="12.709630988538265">
        <ele>52.76</ele>
        <time>2025-02-07T18:07:55.328Z</time>
      </trkpt>
      <trkpt lat="58.39259994216263" lon="12.709725955501199">
        <ele>52.77</ele>
        <time>2025-02-07T18:08:27.277Z</time>
      </trkpt>
      <trkpt lat="58.392669931054115" lon="12.709820922464132">
        <ele>52.77</ele>
        <time>2025-02-07T18:08:59.228Z</time>
      </trkpt>
      <trkpt lat="58.3927399199456" lon="12.709917984902859">
        <ele>52.77</ele>
        <time>2025-02-07T18:09:31.180Z</time>
      </trkpt>
      <trkpt lat="58.39281192049384" lon="12.710015969350934">
        <ele>52.77</ele>
        <time>2025-02-07T18:10:03.134Z</time>
      </trkpt>
      <trkpt lat="58.392884926870465" lon="12.710110936313868">
        <ele>52.77</ele>
        <time>2025-02-07T18:10:35.089Z</time>
      </trkpt>
      <trkpt lat="58.39295893907547" lon="12.710203975439072">
        <ele>52.77</ele>
        <time>2025-02-07T18:11:07.046Z</time>
      </trkpt>
      <trkpt lat="58.393033957108855" lon="12.710298942402005">
        <ele>52.78</ele>
        <time>2025-02-07T18:11:39.004Z</time>
      </trkpt>
      <trkpt lat="58.39310796931386" lon="12.71039298735559">
        <ele>52.78</ele>
        <time>2025-02-07T18:12:10.963Z</time>
      </trkpt>
      <trkpt lat="58.393181981518865" lon="12.710486948490143">
        <ele>52.78</ele>
        <time>2025-02-07T18:12:42.924Z</time>
      </trkpt>
      <trkpt lat="58.39325498789549" lon="12.710577975958586">
        <ele>52.78</ele>
        <time>2025-02-07T18:13:14.886Z</time>
      </trkpt>
      <trkpt lat="58.39332698844373" lon="12.710666991770267">
        <ele>52.78</ele>
        <time>2025-02-07T18:13:46.850Z</time>
      </trkpt>
      <trkpt lat="58.393397983163595" lon="12.710756929591298">
        <ele>52.79</ele>
        <time>2025-02-07T18:14:18.815Z</time>
      </trkpt>
      <trkpt lat="58.39346797205508" lon="12.710847957059741">
        <ele>52.79</ele>
        <time>2025-02-07T18:14:50.781Z</time>
      </trkpt>
      <trkpt lat="58.39353796094656" lon="12.710938984528184">
        <ele>52.79</ele>
        <time>2025-02-07T18:15:22.749Z</time>
      </trkpt>
      <trkpt lat="58.39360794983804" lon="12.711029928177595">
        <ele>52.79</ele>
        <time>2025-02-07T18:15:54.718Z</time>
      </trkpt>
      <trkpt lat="58.393677938729525" lon="12.711120955646038">
        <ele>52.8</ele>
        <time>2025-02-07T18:16:26.688Z</time>
      </trkpt>
      <trkpt lat="58.393746921792626" lon="12.711211983114481">
        <ele>52.8</ele>
        <time>2025-02-07T18:16:58.660Z</time>
      </trkpt>
      <trkpt lat="58.39381498284638" lon="12.711299993097782">
        <ele>52.8</ele>
        <time>2025-02-07T18:17:30.633Z</time>
      </trkpt>
      <trkpt lat="58.39388396590948" lon="12.711386997252703">
        <ele>52.8</ele>
        <time>2025-02-07T18:18:02.607Z</time>
      </trkpt>
      <trkpt lat="58.39395093731582" lon="12.711473917588592">
        <ele>52.81</ele>
        <time>2025-02-07T18:18:34.583Z</time>
      </trkpt>
      <trkpt lat="58.394017992541194" lon="12.711558993905783">
        <ele>52.81</ele>
        <time>2025-02-07T18:19:06.560Z</time>
      </trkpt>
      <trkpt lat="58.394085969775915" lon="12.711644992232323">
        <ele>52.81</ele>
        <time>2025-02-07T18:19:38.538Z</time>
      </trkpt>
      <trkpt lat="58.394153947010636" lon="12.711731996387243">
        <ele>52.82</ele>
        <time>2025-02-07T18:20:10.518Z</time>
      </trkpt>
      <trkpt lat="58.39422293007374" lon="12.711818916723132">
        <ele>52.82</ele>
        <time>2025-02-07T18:20:42.499Z</time>
      </trkpt>
      <trkpt lat="58.39429291896522" lon="12.711906926706433">
        <ele>52.82</ele>
        <time>2025-02-07T18:21:14.481Z</time>
      </trkpt>
      <trkpt lat="58.394364919513464" lon="12.711995942518115">
        <ele>52.83</ele>
        <time>2025-02-07T18:21:46.465Z</time>
      </trkpt>
      <trkpt lat="58.39443599805236" lon="12.712083952501416">
        <ele>52.83</ele>
        <time>2025-02-07T18:22:18.450Z</time>
      </trkpt>
      <trkpt lat="58.39450892060995" lon="12.712171962484717">
        <ele>52.83</ele>
        <time>2025-02-07T18:22:50.436Z</time>
      </trkpt>
      <trkpt lat="58.394581926986575" lon="12.712259972468019">
        <ele>52.83</ele>
        <time>2025-02-07T18:23:22.424Z</time>
      </trkpt>
      <trkpt lat="58.39465593919158" lon="12.71234798245132">
        <ele>52.83</ele>
        <time>2025-02-07T18:23:54.413Z</time>
      </trkpt>
      <trkpt lat="58.394729951396585" lon="12.71243599243462">
        <ele>52.84</ele>
        <time>2025-02-07T18:24:26.404Z</time>
      </trkpt>
      <trkpt lat="58.39480496942997" lon="12.71252391859889">
        <ele>52.84</ele>
        <time>2025-02-07T18:24:58.396Z</time>
      </trkpt>
      <trkpt lat="58.394879987463355" lon="12.71260991692543">
        <ele>52.84</ele>
        <time>2025-02-07T18:25:30.389Z</time>
      </trkpt>
      <trkpt lat="58.39495492167771" lon="12.71269197575748">
        <ele>52.85</ele>
        <time>2025-02-07T18:26:02.384Z</time>
      </trkpt>
      <trkpt lat="58.395029939711094" lon="12.712770933285356">
        <ele>52.85</ele>
        <time>2025-02-07T18:26:34.380Z</time>
      </trkpt>
      <trkpt lat="58.3951039519161" lon="12.712847962975502">
        <ele>52.86</ele>
        <time>2025-02-07T18:27:06.378Z</time>
      </trkpt>
      <trkpt lat="58.39517695829272" lon="12.712923986837268">
        <ele>52.87</ele>
        <time>2025-02-07T18:27:38.377Z</time>
      </trkpt>
      <trkpt lat="58.395247953012586" lon="12.712995987385511">
        <ele>52.87</ele>
        <time>2025-02-07T18:28:10.377Z</time>
      </trkpt>
      <trkpt lat="58.39531894773245" lon="12.713065976276994">
        <ele>52.88</ele>
        <time>2025-02-07T18:28:42.378Z</time>
      </trkpt>
      <trkpt lat="58.39538994245231" lon="12.713134959340096">
        <ele>52.88</ele>
        <time>2025-02-07T18:29:14.381Z</time>
      </trkpt>
      <trkpt lat="58.395459931343794" lon="12.713203942403197">
        <ele>52.89</ele>
        <time>2025-02-07T18:29:46.385Z</time>
      </trkpt>
      <trkpt lat="58.39552899822593" lon="12.713276948779821">
        <ele>52.9</ele>
        <time>2025-02-07T18:30:18.390Z</time>
      </trkpt>
      <trkpt lat="58.39559798128903" lon="12.713349955156446">
        <ele>52.91</ele>
        <time>2025-02-07T18:30:50.396Z</time>
      </trkpt>
      <trkpt lat="58.39566897600889" lon="12.713421955704689">
        <ele>52.92</ele>
        <time>2025-02-07T18:31:22.404Z</time>
      </trkpt>
      <trkpt lat="58.395739970728755" lon="12.713491944596171">
        <ele>52.93</ele>
        <time>2025-02-07T18:31:54.413Z</time>
      </trkpt>
      <trkpt lat="58.39581096544862" lon="12.713560927659273">
        <ele>52.94</ele>
        <time>2025-02-07T18:32:26.423Z</time>
      </trkpt>
      <trkpt lat="58.3958809543401" lon="12.713631922379136">
        <ele>52.94</ele>
        <time>2025-02-07T18:32:58.435Z</time>
      </trkpt>
      <trkpt lat="58.39595194905996" lon="12.713698977604508">
        <ele>52.95</ele>
        <time>2025-02-07T18:33:30.448Z</time>
      </trkpt>
      <trkpt lat="58.39602394960821" lon="12.713762931525707">
        <ele>52.96</ele>
        <time>2025-02-07T18:34:02.462Z</time>
      </trkpt>
      <trkpt lat="58.39609695598483" lon="12.713822945952415">
        <ele>52.97</ele>
        <time>2025-02-07T18:34:34.477Z</time>
      </trkpt>
      <trkpt lat="58.396168956533074" lon="12.713888995349407">
        <ele>52.97</ele>
        <time>2025-02-07T18:35:06.494Z</time>
      </trkpt>
      <trkpt lat="58.3962419629097" lon="12.71396292373538">
        <ele>52.98</ele>
        <time>2025-02-07T18:35:38.512Z</time>
      </trkpt>
      <trkpt lat="58.39631496928632" lon="12.714037941768765">
        <ele>52.99</ele>
        <time>2025-02-07T18:36:10.531Z</time>
      </trkpt>
      <trkpt lat="58.39639099314809" lon="12.71411094814539">
        <ele>53.0</ele>
        <time>2025-02-07T18:36:42.552Z</time>
      </trkpt>
      <trkpt lat="58.396468944847584" lon="12.71417892538011">
        <ele>53.01</ele>
        <time>2025-02-07T18:37:14.574Z</time>
      </trkpt>
      <trkpt lat="58.39654798619449" lon="12.71424195729196">
        <ele>53.02</ele>
        <time>2025-02-07T18:37:46.597Z</time>
      </trkpt>
      <trkpt lat="58.39662794955075" lon="12.714298954233527">
        <ele>53.02</ele>
        <time>2025-02-07T18:38:18.622Z</time>
      </trkpt>
      <trkpt lat="58.396708918735385" lon="12.71434991620481">
        <ele>53.03</ele>
        <time>2025-02-07T18:38:50.648Z</time>
      </trkpt>
      <trkpt lat="58.396791983395815" lon="12.714394927024841">
        <ele>53.03</ele>
        <time>2025-02-07T18:39:22.676Z</time>
      </trkpt>
      <trkpt lat="58.39687496423721" lon="12.71443692035973">
        <ele>53.04</ele>
        <time>2025-02-07T18:39:54.705Z</time>
      </trkpt>
      <trkpt lat="58.39695794507861" lon="12.71447698585689">
        <ele>53.05</ele>
        <time>2025-02-07T18:40:26.735Z</time>
      </trkpt>
      <trkpt lat="58.39704193174839" lon="12.714512944221497">
        <ele>53.06</ele>
        <time>2025-02-07T18:40:58.767Z</time>
      </trkpt>
      <trkpt lat="58.39712793007493" lon="12.714547980576754">
        <ele>53.07</ele>
        <time>2025-02-07T18:41:30.800Z</time>
      </trkpt>
      <trkpt lat="58.39721292257309" lon="12.714582933112979">
        <ele>53.08</ele>
        <time>2025-02-07T18:42:02.835Z</time>
      </trkpt>
      <trkpt lat="58.39729992672801" lon="12.714615957811475">
        <ele>53.09</ele>
        <time>2025-02-07T18:42:34.871Z</time>
      </trkpt>
      <trkpt lat="58.39738693088293" lon="12.714642947539687">
        <ele>53.1</ele>
        <time>2025-02-07T18:43:06.908Z</time>
      </trkpt>
      <trkpt lat="58.39747494086623" lon="12.714667925611138">
        <ele>53.11</ele>
        <time>2025-02-07T18:43:38.947Z</time>
      </trkpt>
      <trkpt lat="58.39756194502115" lon="12.714693993330002">
        <ele>53.12</ele>
        <time>2025-02-07T18:44:10.987Z</time>
      </trkpt>
      <trkpt lat="58.39764693751931" lon="12.714720983058214">
        <ele>53.13</ele>
        <time>2025-02-07T18:44:43.029Z</time>
      </trkpt>
      <trkpt lat="58.39773193001747" lon="12.714745961129665">
        <ele>53.15</ele>
        <time>2025-02-07T18:45:15.072Z</time>
      </trkpt>
      <trkpt lat="58.39781591668725" lon="12.714767921715975">
        <ele>53.16</ele>
        <time>2025-02-07T18:45:47.116Z</time>
      </trkpt>
      <trkpt lat="58.3978979755193" lon="12.714788960292935">
        <ele>53.17</ele>
        <time>2025-02-07T18:46:19.162Z</time>
      </trkpt>
      <trkpt lat="58.39797995053232" lon="12.714812932536006">
        <ele>53.19</ele>
        <time>2025-02-07T18:46:51.209Z</time>
      </trkpt>
      <trkpt lat="58.398060919716954" lon="12.714835982769728">
        <ele>53.2</ele>
        <time>2025-02-07T18:47:23.257Z</time>
      </trkpt>
      <trkpt lat="58.39814197272062" lon="12.714853920042515">
        <ele>53.21</ele>
        <time>2025-02-07T18:47:55.307Z</time>
      </trkpt>
      <trkpt lat="58.39822394773364" lon="12.714866995811462">
        <ele>53.22</ele>
        <time>2025-02-07T18:48:27.358Z</time>
      </trkpt>
      <trkpt lat="58.39830692857504" lon="12.714874958619475">
        <ele>53.23</ele>
        <time>2025-02-07T18:48:59.410Z</time>
      </trkpt>
      <trkpt lat="58.39838898740709" lon="12.714879987761378">
        <ele>53.24</ele>
        <time>2025-02-07T18:49:31.464Z</time>
      </trkpt>
      <trkpt lat="58.398469956591725" lon="12.71488199941814">
        <ele>53.25</ele>
        <time>2025-02-07T18:50:03.519Z</time>
      </trkpt>
      <trkpt lat="58.398552937433124" lon="12.714879987761378">
        <ele>53.26</ele>
        <time>2025-02-07T18:50:35.575Z</time>
      </trkpt>
      <trkpt lat="58.39863591827452" lon="12.714877976104617">
        <ele>53.27</ele>
        <time>2025-02-07T18:51:07.633Z</time>
      </trkpt>
      <trkpt lat="58.39872099459171" lon="12.714876970276237">
        <ele>53.27</ele>
        <time>2025-02-07T18:51:39.692Z</time>
      </trkpt>
      <trkpt lat="58.39880598708987" lon="12.714872946962714">
        <ele>53.28</ele>
        <time>2025-02-07T18:52:11.752Z</time>
      </trkpt>
      <trkpt lat="58.39889097958803" lon="12.714868923649192">
        <ele>53.29</ele>
        <time>2025-02-07T18:52:43.814Z</time>
      </trkpt>
      <trkpt lat="58.39897697791457" lon="12.71486397832632">
        <ele>53.3</ele>
        <time>2025-02-07T18:53:15.877Z</time>
      </trkpt>
      <trkpt lat="58.39906398206949" lon="12.714858949184418">
        <ele>53.31</ele>
        <time>2025-02-07T18:53:47.941Z</time>
      </trkpt>
      <trkpt lat="58.39915199205279" lon="12.714856937527657">
        <ele>53.31</ele>
        <time>2025-02-07T18:54:20.007Z</time>
      </trkpt>
      <trkpt lat="58.39924092404544" lon="12.714854925870895">
        <ele>53.32</ele>
        <time>2025-02-07T18:54:52.074Z</time>
      </trkpt>
      <trkpt lat="58.399330945685506" lon="12.714851992204785">
        <ele>53.33</ele>
        <time>2025-02-07T18:55:24.143Z</time>
      </trkpt>
      <trkpt lat="58.39941996149719" lon="12.714848974719644">
        <ele>53.34</ele>
        <time>2025-02-07T18:55:56.213Z</time>
      </trkpt>
      <trkpt lat="58.39951098896563" lon="12.714845957234502">
        <ele>53.35</ele>
        <time>2025-02-07T18:56:28.285Z</time>
      </trkpt>
      <trkpt lat="58.39960092678666" lon="12.71484193392098">
        <ele>53.36</ele>
        <time>2025-02-07T18:57:00.358Z</time>
      </trkpt>
      <trkpt lat="58.399691954255104" lon="12.714834976941347">
        <ele>53.37</ele>
        <time>2025-02-07T18:57:32.432Z</time>
      </trkpt>
      <trkpt lat="58.399780970066786" lon="12.714827936142683">
        <ele>53.38</ele>
        <time>2025-02-07T18:58:04.508Z</time>
      </trkpt>
      <trkpt lat="58.39986998587847" lon="12.71482097916305">
        <ele>53.38</ele>
        <time>2025-02-07T18:58:36.585Z</time>
      </trkpt>
      <trkpt lat="58.39995598420501" lon="12.71481896750629">
        <ele>53.39</ele>
        <time>2025-02-07T18:59:08.664Z</time>
      </trkpt>
      <trkpt lat="58.40004198253155" lon="12.71482097916305">
        <ele>53.4</ele>
        <time>2025-02-07T18:59:40.744Z</time>
      </trkpt>
      <trkpt lat="58.400125969201326" lon="12.714817961677909">
        <ele>53.41</ele>
        <time>2025-02-07T19:00:12.825Z</time>
      </trkpt>
      <trkpt lat="58.400209955871105" lon="12.714812932536006">
        <ele>53.42</ele>
        <time>2025-02-07T19:00:44.908Z</time>
      </trkpt>
      <trkpt lat="58.400294948369265" lon="12.714810920879245">
        <ele>53.43</ele>
        <time>2025-02-07T19:01:16.992Z</time>
      </trkpt>
      <trkpt lat="58.400383964180946" lon="12.714807987213135">
        <ele>53.43</ele>
        <time>2025-02-07T19:01:49.078Z</time>
      </trkpt>
      <trkpt lat="58.40047398582101" lon="12.714803963899612">
        <ele>53.44</ele>
        <time>2025-02-07T19:02:21.165Z</time>
      </trkpt>
      <trkpt lat="58.40056392364204" lon="12.714796923100948">
        <ele>53.45</ele>
        <time>2025-02-07T19:02:53.253Z</time>
      </trkpt>
      <trkpt lat="58.4006539452821" lon="12.714790971949697">
        <ele>53.46</ele>
        <time>2025-02-07T19:03:25.343Z</time>
      </trkpt>
      <trkpt lat="58.400744972750545" lon="12.714784936979413">
        <ele>53.47</ele>
        <time>2025-02-07T19:03:57.434Z</time>
      </trkpt>
      <trkpt lat="58.400836922228336" lon="12.71477596834302">
        <ele>53.48</ele>
        <time>2025-02-07T19:04:29.527Z</time>
      </trkpt>
      <trkpt lat="58.40092895552516" lon="12.714763982221484">
        <ele>53.49</ele>
        <time>2025-02-07T19:05:01.621Z</time>
      </trkpt>
      <trkpt lat="58.4010199829936" lon="12.714751996099949">
        <ele>53.49</ele>
        <time>2025-02-07T19:05:33.717Z</time>
      </trkpt>
      <trkpt lat="58.401108998805285" lon="12.714741937816143">
        <ele>53.5</ele>
        <time>2025-02-07T19:06:05.814Z</time>
      </trkpt>
      <trkpt lat="58.401196924969554" lon="12.714731963351369">
        <ele>53.51</ele>
        <time>2025-02-07T19:06:37.913Z</time>
      </trkpt>
      <trkpt lat="58.401283929124475" lon="12.714723916724324">
        <ele>53.51</ele>
        <time>2025-02-07T19:07:10.013Z</time>
      </trkpt>
      <trkpt lat="58.401369927451015" lon="12.714723916724324">
        <ele>53.52</ele>
        <time>2025-02-07T19:07:42.114Z</time>
      </trkpt>
      <trkpt lat="58.401455925777555" lon="12.71473296917975">
        <ele>53.52</ele>
        <time>2025-02-07T19:08:14.217Z</time>
      </trkpt>
      <trkpt lat="58.401539996266365" lon="12.714747972786427">
        <ele>53.53</ele>
        <time>2025-02-07T19:08:46.321Z</time>
      </trkpt>
      <trkpt lat="58.401623982936144" lon="12.714767921715975">
        <ele>53.53</ele>
        <time>2025-02-07T19:09:18.427Z</time>
      </trkpt>
      <trkpt lat="58.401709981262684" lon="12.714791977778077">
        <ele>53.54</ele>
        <time>2025-02-07T19:09:50.534Z</time>
      </trkpt>
      <trkpt lat="58.401797991245985" lon="12.71482097916305">
        <ele>53.54</ele>
        <time>2025-02-07T19:10:22.642Z</time>
      </trkpt>
      <trkpt lat="58.401886923238635" lon="12.714853920042515">
        <ele>53.55</ele>
        <time>2025-02-07T19:10:54.752Z</time>
      </trkpt>
      <trkpt lat="58.40197795070708" lon="12.714888956397772">
        <ele>53.55</ele>
        <time>2025-02-07T19:11:26.863Z</time>
      </trkpt>
      <trkpt lat="58.40207098983228" lon="12.71492994390428">
        <ele>53.55</ele>
        <time>2025-02-07T19:11:58.976Z</time>
      </trkpt>
      <trkpt lat="58.402163945138454" lon="12.71497294306755">
        <ele>53.55</ele>
        <time>2025-02-07T19:12:31.090Z</time>
      </trkpt>
      <trkpt lat="58.40225799009204" lon="12.715021977201104">
        <ele>53.55</ele>
        <time>2025-02-07T19:13:03.206Z</time>
      </trkpt>
      <trkpt lat="58.40234993956983" lon="12.715072939172387">
        <ele>53.55</ele>
        <time>2025-02-07T19:13:35.323Z</time>
      </trkpt>
      <trkpt lat="58.402440967038274" lon="12.715122979134321">
        <ele>53.56</ele>
        <time>2025-02-07T19:14:07.442Z</time>
      </trkpt>
      <trkpt lat="58.402529982849956" lon="12.715173941105604">
        <ele>53.56</ele>
        <time>2025-02-07T19:14:39.562Z</time>
      </trkpt>
      <trkpt lat="58.402616987004876" lon="12.7152259927243">
        <ele>53.56</ele>
        <time>2025-02-07T19:15:11.684Z</time>
      </trkpt>
      <trkpt lat="58.40270499698818" lon="12.715279972180724">
        <ele>53.55</ele>
        <time>2025-02-07T19:15:43.807Z</time>
      </trkpt>
      <trkpt lat="58.402791917324066" lon="12.71533495746553">
        <ele>53.55</ele>
        <time>2025-02-07T19:16:15.932Z</time>
      </trkpt>
      <trkpt lat="58.40287892147899" lon="12.715389942750335">
        <ele>53.56</ele>
        <time>2025-02-07T19:16:48.058Z</time>
      </trkpt>
      <trkpt lat="58.40296491980553" lon="12.71544593386352">
        <ele>53.56</ele>
        <time>2025-02-07T19:17:20.186Z</time>
      </trkpt>
      <trkpt lat="58.40304999612272" lon="12.715505948290229">
        <ele>53.57</ele>
        <time>2025-02-07T19:17:52.315Z</time>
      </trkpt>
      <trkpt lat="58.40313498862088" lon="12.715564956888556">
        <ele>53.57</ele>
        <time>2025-02-07T19:18:24.446Z</time>
      </trkpt>
      <trkpt lat="58.40322098694742" lon="12.715626982972026">
        <ele>53.57</ele>
        <time>2025-02-07T19:18:56.578Z</time>
      </trkpt>
      <trkpt lat="58.40330698527396" lon="12.715690936893225">
        <ele>53.57</ele>
        <time>2025-02-07T19:19:28.712Z</time>
      </trkpt>
      <trkpt lat="58.4033929836005" lon="12.715753968805075">
        <ele>53.58</ele>
        <time>2025-02-07T19:20:00.847Z</time>
      </trkpt>
      <trkpt lat="58.4034809935838" lon="12.715814989060163">
        <ele>53.58</ele>
        <time>2025-02-07T19:20:32.984Z</time>
      </trkpt>
      <trkpt lat="58.40356799773872" lon="12.71587491966784">
        <ele>53.59</ele>
        <time>2025-02-07T19:21:05.122Z</time>
      </trkpt>
      <trkpt lat="58.40365491807461" lon="12.71593694575131">
        <ele>53.59</ele>
        <time>2025-02-07T19:21:37.262Z</time>
      </trkpt>
      <trkpt lat="58.40374192222953" lon="12.71600098349154">
        <ele>53.58</ele>
        <time>2025-02-07T19:22:09.403Z</time>
      </trkpt>
      <trkpt lat="58.40382792055607" lon="12.716063931584358">
        <ele>53.58</ele>
        <time>2025-02-07T19:22:41.546Z</time>
      </trkpt>
      <trkpt lat="58.40391299687326" lon="12.716123946011066">
        <ele>53.58</ele>
        <time>2025-02-07T19:23:13.690Z</time>
      </trkpt>
      <trkpt lat="58.40399798937142" lon="12.716180942952633">
        <ele>53.58</ele>
        <time>2025-02-07T19:23:45.836Z</time>
      </trkpt>
      <trkpt lat="58.40408298186958" lon="12.716233916580677">
        <ele>53.58</ele>
        <time>2025-02-07T19:24:17.983Z</time>
      </trkpt>
      <trkpt lat="58.40416898019612" lon="12.716287979856133">
        <ele>53.58</ele>
        <time>2025-02-07T19:24:50.131Z</time>
      </trkpt>
      <trkpt lat="58.40425497852266" lon="12.716338941827416">
        <ele>53.58</ele>
        <time>2025-02-07T19:25:22.281Z</time>
      </trkpt>
      <trkpt lat="58.40433997102082" lon="12.71638797596097">
        <ele>53.58</ele>
        <time>2025-02-07T19:25:54.432Z</time>
      </trkpt>
      <trkpt lat="58.40442496351898" lon="12.716433992609382">
        <ele>53.58</ele>
        <time>2025-02-07T19:26:26.585Z</time>
      </trkpt>
      <trkpt lat="58.40450995601714" lon="12.716478919610381">
        <ele>53.57</ele>
        <time>2025-02-07T19:26:58.739Z</time>
      </trkpt>
      <trkpt lat="58.404593942686915" lon="12.716521918773651">
        <ele>53.56</ele>
        <time>2025-02-07T19:27:30.894Z</time>
      </trkpt>
      <trkpt lat="58.404678935185075" lon="12.716563995927572">
        <ele>53.55</ele>
        <time>2025-02-07T19:28:03.051Z</time>
      </trkpt>
      <trkpt lat="58.404763927683234" lon="12.71660196594894">
        <ele>53.55</ele>
        <time>2025-02-07T19:28:35.209Z</time>
      </trkpt>
      <trkpt lat="58.404847998172045" lon="12.716636918485165">
        <ele>53.54</ele>
        <time>2025-02-07T19:29:07.369Z</time>
      </trkpt>
      <trkpt lat="58.404932990670204" lon="12.716670949012041">
        <ele>53.54</ele>
        <time>2025-02-07T19:29:39.530Z</time>
      </trkpt>
      <trkpt lat="58.40501697733998" lon="12.716703973710537">
        <ele>53.53</ele>
        <time>2025-02-07T19:30:11.692Z</time>
      </trkpt>
      <trkpt lat="58.40509995818138" lon="12.716740937903523">
        <ele>53.53</ele>
        <time>2025-02-07T19:30:43.856Z</time>
      </trkpt>
      <trkpt lat="58.4051819331944" lon="12.716778991743922">
        <ele>53.52</ele>
        <time>2025-02-07T19:31:16.021Z</time>
      </trkpt>
      <trkpt lat="58.40526399202645" lon="12.716813944280148">
        <ele>53.52</ele>
        <time>2025-02-07T19:31:48.188Z</time>
      </trkpt>
      <trkpt lat="58.405345967039466" lon="12.716846968978643">
        <ele>53.51</ele>
        <time>2025-02-07T19:32:20.356Z</time>
      </trkpt>
      <trkpt lat="58.405427942052484" lon="12.716878987848759">
        <ele>53.5</ele>
        <time>2025-02-07T19:32:52.525Z</time>
      </trkpt>
      <trkpt lat="58.40551192872226" lon="12.716910922899842">
        <ele>53.49</ele>
        <time>2025-02-07T19:33:24.696Z</time>
      </trkpt>
      <trkpt lat="58.40559398755431" lon="12.716943947598338">
        <ele>53.48</ele>
        <time>2025-02-07T19:33:56.868Z</time>
      </trkpt>
      <trkpt lat="58.40567797422409" lon="12.716976972296834">
        <ele>53.47</ele>
        <time>2025-02-07T19:34:29.041Z</time>
      </trkpt>
      <trkpt lat="58.40576196089387" lon="12.71701192483306">
        <ele>53.46</ele>
        <time>2025-02-07T19:35:01.216Z</time>
      </trkpt>
      <trkpt lat="58.40584795922041" lon="12.717045955359936">
        <ele>53.45</ele>
        <time>2025-02-07T19:35:33.392Z</time>
      </trkpt>
      <trkpt lat="58.40593596920371" lon="12.71707696840167">
        <ele>53.44</ele>
        <time>2025-02-07T19:36:05.570Z</time>
      </trkpt>
      <trkpt lat="58.40602599084377" lon="12.717105969786644">
        <ele>53.44</ele>
        <time>2025-02-07T19:36:37.749Z</time>
      </trkpt>
      <trkpt lat="58.4061159286648" lon="12.717131953686476">
        <ele>53.43</ele>
        <time>2025-02-07T19:37:09.929Z</time>
      </trkpt>
      <trkpt lat="58.40620896779001" lon="12.717153998091817">
        <ele>53.42</ele>
        <time>2025-02-07T19:37:42.111Z</time>
      </trkpt>
      <trkpt lat="58.40630192309618" lon="12.717171935364604">
        <ele>53.41</ele>
        <time>2025-02-07T19:38:14.294Z</time>
      </trkpt>
      <trkpt lat="58.406394962221384" lon="12.71718299947679">
        <ele>53.4</ele>
        <time>2025-02-07T19:38:46.479Z</time>
      </trkpt>
      <trkpt lat="58.406487917527556" lon="12.717187944799662">
        <ele>53.39</ele>
        <time>2025-02-07T19:39:18.665Z</time>
      </trkpt>
      <trkpt lat="58.40658095665276" lon="12.717186938971281">
        <ele>53.38</ele>
        <time>2025-02-07T19:39:50.853Z</time>
      </trkpt>
      <trkpt lat="58.406673995777965" lon="12.71718199364841">
        <ele>53.37</ele>
        <time>2025-02-07T19:40:23.042Z</time>
      </trkpt>
      <trkpt lat="58.4067689627409" lon="12.717175958678126">
        <ele>53.35</ele>
        <time>2025-02-07T19:40:55.233Z</time>
      </trkpt>
      <trkpt lat="58.40686392970383" lon="12.717169923707843">
        <ele>53.34</ele>
        <time>2025-02-07T19:41:27.425Z</time>
      </trkpt>
      <trkpt lat="58.4069589804858" lon="12.71716296672821">
        <ele>53.34</ele>
        <time>2025-02-07T19:41:59.619Z</time>
      </trkpt>
      <trkpt lat="58.40705495327711" lon="12.717156931757927">
        <ele>53.33</ele>
        <time>2025-02-07T19:42:31.815Z</time>
      </trkpt>
      <trkpt lat="58.407149920240045" lon="12.717151986435056">
        <ele>53.32</ele>
        <time>2025-02-07T19:43:04.012Z</time>
      </trkpt>
      <trkpt lat="58.40724295936525" lon="12.717147963121533">
        <ele>53.31</ele>
        <time>2025-02-07T19:43:36.211Z</time>
      </trkpt>
      <trkpt lat="58.40733499266207" lon="12.717146957293153">
        <ele>53.3</ele>
        <time>2025-02-07T19:44:08.411Z</time>
      </trkpt>
      <trkpt lat="58.407427947968245" lon="12.717145951464772">
        <ele>53.28</ele>
        <time>2025-02-07T19:44:40.613Z</time>
      </trkpt>
      <trkpt lat="58.40751998126507" lon="12.717145951464772">
        <ele>53.27</ele>
        <time>2025-02-07T19:45:12.816Z</time>
      </trkpt>
      <trkpt lat="58.40761193074286" lon="12.717147963121533">
        <ele>53.26</ele>
        <time>2025-02-07T19:45:45.020Z</time>
      </trkpt>
      <trkpt lat="58.4077029582113" lon="12.717149974778295">
        <ele>53.25</ele>
        <time>2025-02-07T19:46:17.226Z</time>
      </trkpt>
      <trkpt lat="58.407792979851365" lon="12.717153998091817">
        <ele>53.24</ele>
        <time>2025-02-07T19:46:49.433Z</time>
      </trkpt>
      <trkpt lat="58.407882917672396" lon="12.717157937586308">
        <ele>53.23</ele>
        <time>2025-02-07T19:47:21.642Z</time>
      </trkpt>
      <trkpt lat="58.40797293931246" lon="12.71716296672821">
        <ele>53.21</ele>
        <time>2025-02-07T19:47:53.852Z</time>
      </trkpt>
      <trkpt lat="58.40806296095252" lon="12.717167995870113">
        <ele>53.2</ele>
        <time>2025-02-07T19:48:26.064Z</time>
      </trkpt>
      <trkpt lat="58.40815298259258" lon="12.717172941192985">
        <ele>53.18</ele>
        <time>2025-02-07T19:48:58.277Z</time>
      </trkpt>
      <trkpt lat="58.40824292041361" lon="12.717179981991649">
        <ele>53.17</ele>
        <time>2025-02-07T19:49:30.492Z</time>
      </trkpt>
      <trkpt lat="58.40833595953882" lon="12.7171859331429">
        <ele>53.16</ele>
        <time>2025-02-07T19:50:02.708Z</time>
      </trkpt>
      <trkpt lat="58.40842899866402" lon="12.717194985598326">
        <ele>53.14</ele>
        <time>2025-02-07T19:50:34.926Z</time>
      </trkpt>
      <trkpt lat="58.408523965626955" lon="12.717207977548242">
        <ele>53.12</ele>
        <time>2025-02-07T19:51:07.145Z</time>
      </trkpt>
      <trkpt lat="58.40861993841827" lon="12.717221975326538">
        <ele>53.11</ele>
        <time>2025-02-07T19:51:39.366Z</time>
      </trkpt>
      <trkpt lat="58.408716917037964" lon="12.717238990589976">
        <ele>53.1</ele>
        <time>2025-02-07T19:52:11.588Z</time>
      </trkpt>
      <trkpt lat="58.40881397947669" lon="12.717258939519525">
        <ele>53.09</ele>
        <time>2025-02-07T19:52:43.812Z</time>
      </trkpt>
      <trkpt lat="58.408910958096385" lon="12.717279978096485">
        <ele>53.08</ele>
        <time>2025-02-07T19:53:16.037Z</time>
      </trkpt>
      <trkpt lat="58.40900793671608" lon="12.717302944511175">
        <ele>53.06</ele>
        <time>2025-02-07T19:53:48.264Z</time>
      </trkpt>
      <trkpt lat="58.409104999154806" lon="12.717329934239388">
        <ele>53.05</ele>
        <time>2025-02-07T19:54:20.492Z</time>
      </trkpt>
      <trkpt lat="58.4092019777745" lon="12.717360947281122">
        <ele>53.04</ele>
        <time>2025-02-07T19:54:52.722Z</time>
      </trkpt>
      <trkpt lat="58.409298956394196" lon="12.717394977807999">
        <ele>53.03</ele>
        <time>2025-02-07T19:55:24.954Z</time>
      </trkpt>
      <trkpt lat="58.40939392335713" lon="12.717431942000985">
        <ele>53.02</ele>
        <time>2025-02-07T19:55:57.187Z</time>
      </trkpt>
      <trkpt lat="58.409487968310714" lon="12.717472929507494">
        <ele>53.01</ele>
        <time>2025-02-07T19:56:29.422Z</time>
      </trkpt>
      <trkpt lat="58.409580923616886" lon="12.717521963641047">
        <ele>53.0</ele>
        <time>2025-02-07T19:57:01.658Z</time>
      </trkpt>
      <trkpt lat="58.40967295691371" lon="12.717577954754233">
        <ele>52.98</ele>
        <time>2025-02-07T19:57:33.896Z</time>
      </trkpt>
      <trkpt lat="58.40976297855377" lon="12.717637969180942">
        <ele>52.97</ele>
        <time>2025-02-07T19:58:06.135Z</time>
      </trkpt>
      <trkpt lat="58.40985098853707" lon="12.71770192310214">
        <ele>52.97</ele>
        <time>2025-02-07T19:58:38.376Z</time>
      </trkpt>
      <trkpt lat="58.40993698686361" lon="12.717770989984274">
        <ele>52.96</ele>
        <time>2025-02-07T19:59:10.618Z</time>
      </trkpt>
      <trkpt lat="58.41002197936177" lon="12.717843996360898">
        <ele>52.95</ele>
        <time>2025-02-07T19:59:42.862Z</time>
      </trkpt>
      <trkpt lat="58.41010697185993" lon="12.717918930575252">
        <ele>52.95</ele>
        <time>2025-02-07T20:00:15.107Z</time>
      </trkpt>
      <trkpt lat="58.41019095852971" lon="12.717994954437017">
        <ele>52.94</ele>
        <time>2025-02-07T20:00:47.354Z</time>
      </trkpt>
      <trkpt lat="58.41027494519949" lon="12.718071984127164">
        <ele>52.93</ele>
        <time>2025-02-07T20:01:19.602Z</time>
      </trkpt>
      <trkpt lat="58.41035993769765" lon="12.71815094165504">
        <ele>52.92</ele>
        <time>2025-02-07T20:01:51.852Z</time>
      </trkpt>
      <trkpt lat="58.41044593602419" lon="12.718230988830328">
        <ele>52.91</ele>
        <time>2025-02-07T20:02:24.103Z</time>
      </trkpt>
      <trkpt lat="58.41053092852235" lon="12.718308940529823">
        <ele>52.9</ele>
        <time>2025-02-07T20:02:56.356Z</time>
      </trkpt>
      <trkpt lat="58.41061592102051" lon="12.718388987705112">
        <ele>52.89</ele>
        <time>2025-02-07T20:03:28.610Z</time>
      </trkpt>
      <trkpt lat="58.4107009973377" lon="12.718469956889749">
        <ele>52.88</ele>
        <time>2025-02-07T20:04:00.866Z</time>
      </trkpt>
      <trkpt lat="58.41078498400748" lon="12.718549920246005">
        <ele>52.87</ele>
        <time>2025-02-07T20:04:33.123Z</time>
      </trkpt>
      <trkpt lat="58.41086997650564" lon="12.718628961592913">
        <ele>52.86</ele>
        <time>2025-02-07T20:05:05.382Z</time>
      </trkpt>
      <trkpt lat="58.4109549690038" lon="12.71870892494917">
        <ele>52.85</ele>
        <time>2025-02-07T20:05:37.643Z</time>
      </trkpt>
      <trkpt lat="58.411038955673575" lon="12.718790983781219">
        <ele>52.84</ele>
        <time>2025-02-07T20:06:09.905Z</time>
      </trkpt>
      <trkpt lat="58.411122942343354" lon="12.718871952965856">
        <ele>52.82</ele>
        <time>2025-02-07T20:06:42.169Z</time>
      </trkpt>
      <trkpt lat="58.411207934841514" lon="12.718953927978873">
        <ele>52.81</ele>
        <time>2025-02-07T20:07:14.434Z</time>
      </trkpt>
      <trkpt lat="58.41129292733967" lon="12.719034980982542">
        <ele>52.8</ele>
        <time>2025-02-07T20:07:46.701Z</time>
      </trkpt>
      <trkpt lat="58.411376997828484" lon="12.719115950167179">
        <ele>52.78</ele>
        <time>2025-02-07T20:08:18.969Z</time>
      </trkpt>
      <trkpt lat="58.41146098449826" lon="12.719196919351816">
        <ele>52.77</ele>
        <time>2025-02-07T20:08:51.239Z</time>
      </trkpt>
      <trkpt lat="58.41154295951128" lon="12.719277972355485">
        <ele>52.76</ele>
        <time>2025-02-07T20:09:23.510Z</time>
      </trkpt>
      <trkpt lat="58.41162594035268" lon="12.71935692988336">
        <ele>52.75</ele>
        <time>2025-02-07T20:09:55.783Z</time>
      </trkpt>
      <trkpt lat="58.41171093285084" lon="12.719435971230268">
        <ele>52.74</ele>
        <time>2025-02-07T20:10:28.057Z</time>
      </trkpt>
      <trkpt lat="58.41179693117738" lon="12.719516940414906">
        <ele>52.73</ele>
        <time>2025-02-07T20:11:00.333Z</time>
      </trkpt>
      <trkpt lat="58.4118839353323" lon="12.719598999246955">
        <ele>52.72</ele>
        <time>2025-02-07T20:11:32.610Z</time>
      </trkpt>
      <trkpt lat="58.4119719453156" lon="12.719681980088353">
        <ele>52.71</ele>
        <time>2025-02-07T20:12:04.889Z</time>
      </trkpt>
      <trkpt lat="58.4120599552989" lon="12.71976294927299">
        <ele>52.69</ele>
        <time>2025-02-07T20:12:37.169Z</time>
      </trkpt>
      <trkpt lat="58.41214897111058" lon="12.719842996448278">
        <ele>52.68</ele>
        <time>2025-02-07T20:13:09.451Z</time>
      </trkpt>
      <trkpt lat="58.412238992750645" lon="12.719922959804535">
        <ele>52.67</ele>
        <time>2025-02-07T20:13:41.735Z</time>
      </trkpt>
      <trkpt lat="58.412328930571675" lon="12.720005940645933">
        <ele>52.67</ele>
        <time>2025-02-07T20:14:14.020Z</time>
      </trkpt>
      <trkpt lat="58.41241895221174" lon="12.720089927315712">
        <ele>52.66</ele>
        <time>2025-02-07T20:14:46.307Z</time>
      </trkpt>
      <trkpt lat="58.41250796802342" lon="12.720172991976142">
        <ele>52.65</ele>
        <time>2025-02-07T20:15:18.595Z</time>
      </trkpt>
      <trkpt lat="58.41259798966348" lon="12.72025597281754">
        <ele>52.65</ele>
        <time>2025-02-07T20:15:50.885Z</time>
      </trkpt>
      <trkpt lat="58.41268599964678" lon="12.720338953658938">
        <ele>52.65</ele>
        <time>2025-02-07T20:16:23.176Z</time>
      </trkpt>
      <trkpt lat="58.41277291998267" lon="12.720422940328717">
        <ele>52.65</ele>
        <time>2025-02-07T20:16:55.469Z</time>
      </trkpt>
      <trkpt lat="58.41285799629986" lon="12.720505921170115">
        <ele>52.64</ele>
        <time>2025-02-07T20:17:27.764Z</time>
      </trkpt>
      <trkpt lat="58.41293997131288" lon="12.720584962517023">
        <ele>52.64</ele>
        <time>2025-02-07T20:18:00.060Z</time>
      </trkpt>
      <trkpt lat="58.4130219463259" lon="12.72066199220717">
        <ele>52.64</ele>
        <time>2025-02-07T20:18:32.358Z</time>
      </trkpt>
      <trkpt lat="58.413101993501186" lon="12.720736926421523">
        <ele>52.63</ele>
        <time>2025-02-07T20:19:04.657Z</time>
      </trkpt>
      <trkpt lat="58.41318095102906" lon="12.720809932798147">
        <ele>52.63</ele>
        <time>2025-02-07T20:19:36.957Z</time>
      </trkpt>
      <trkpt lat="58.41325798071921" lon="12.720882939174771">
        <ele>52.62</ele>
        <time>2025-02-07T20:20:09.259Z</time>
      </trkpt>
      <trkpt lat="58.41333492659032" lon="12.720955945551395">
        <ele>52.62</ele>
        <time>2025-02-07T20:20:41.562Z</time>
      </trkpt>
      <trkpt lat="58.41341095045209" lon="12.721027946099639">
        <ele>52.62</ele>
        <time>2025-02-07T20:21:13.866Z</time>
      </trkpt>
      <trkpt lat="58.413487980142236" lon="12.721098940819502">
        <ele>52.61</ele>
        <time>2025-02-07T20:21:46.172Z</time>
      </trkpt>
      <trkpt lat="58.41356492601335" lon="12.721168929710984">
        <ele>52.61</ele>
        <time>2025-02-07T20:22:18.479Z</time>
      </trkpt>
      <trkpt lat="58.4136419557035" lon="12.721237996593118">
        <ele>52.6</ele>
        <time>2025-02-07T20:22:50.788Z</time>
      </trkpt>
      <trkpt lat="58.41371797956526" lon="12.721309997141361">
        <ele>52.6</ele>
        <time>2025-02-07T20:23:23.098Z</time>
      </trkpt>
      <trkpt lat="58.41379098594189" lon="12.721383925527334">
        <ele>52.6</ele>
        <time>2025-02-07T20:23:55.409Z</time>
      </trkpt>
      <trkpt lat="58.41386499814689" lon="12.721456931903958">
        <ele>52.59</ele>
        <time>2025-02-07T20:24:27.722Z</time>
      </trkpt>
      <trkpt lat="58.413938926532865" lon="12.721528932452202">
        <ele>52.59</ele>
        <time>2025-02-07T20:25:00.036Z</time>
      </trkpt>
      <trkpt lat="58.41401495039463" lon="12.721599927172065">
        <ele>52.59</ele>
        <time>2025-02-07T20:25:32.351Z</time>
      </trkpt>
      <trkpt lat="58.414089968428016" lon="12.721672933548689">
        <ele>52.59</ele>
        <time>2025-02-07T20:26:04.668Z</time>
      </trkpt>
      <trkpt lat="58.41416699811816" lon="12.721744934096932">
        <ele>52.58</ele>
        <time>2025-02-07T20:26:36.986Z</time>
      </trkpt>
      <trkpt lat="58.41424595564604" lon="12.721817940473557">
        <ele>52.58</ele>
        <time>2025-02-07T20:27:09.305Z</time>
      </trkpt>
      <trkpt lat="58.414324996992946" lon="12.721892958506942">
        <ele>52.58</ele>
        <time>2025-02-07T20:27:41.626Z</time>
      </trkpt>
      <trkpt lat="58.41440596617758" lon="12.721967976540327">
        <ele>52.58</ele>
        <time>2025-02-07T20:28:13.948Z</time>
      </trkpt>
      <trkpt lat="58.41448693536222" lon="12.722045928239822">
        <ele>52.58</ele>
        <time>2025-02-07T20:28:46.272Z</time>
      </trkpt>
      <trkpt lat="58.41456798836589" lon="12.72212496958673">
        <ele>52.57</ele>
        <time>2025-02-07T20:29:18.597Z</time>
      </trkpt>
      <trkpt lat="58.414645940065384" lon="12.722203927114606">
        <ele>52.57</ele>
        <time>2025-02-07T20:29:50.924Z</time>
      </trkpt>
      <trkpt lat="58.41472296975553" lon="12.722282968461514">
        <ele>52.57</ele>
        <time>2025-02-07T20:30:23.252Z</time>
      </trkpt>
      <trkpt lat="58.414797987788916" lon="12.72235999815166">
        <ele>52.57</ele>
        <time>2025-02-07T20:30:55.581Z</time>
      </trkpt>
      <trkpt lat="58.41487292200327" lon="12.722434932366014">
        <ele>52.57</ele>
        <time>2025-02-07T20:31:27.912Z</time>
      </trkpt>
      <trkpt lat="58.414946934208274" lon="12.722508944571018">
        <ele>52.57</ele>
        <time>2025-02-07T20:32:00.244Z</time>
      </trkpt>
      <trkpt lat="58.41502094641328" lon="12.722582956776023">
        <ele>52.57</ele>
        <time>2025-02-07T20:32:32.577Z</time>
      </trkpt>
      <trkpt lat="58.41509495861828" lon="12.72265998646617">
        <ele>52.57</ele>
        <time>2025-02-07T20:33:04.912Z</time>
      </trkpt>
      <trkpt lat="58.41516897082329" lon="12.722738943994045">
        <ele>52.57</ele>
        <time>2025-02-07T20:33:37.248Z</time>
      </trkpt>
      <trkpt lat="58.41524398885667" lon="12.722818991169333">
        <ele>52.57</ele>
        <time>2025-02-07T20:34:09.586Z</time>
      </trkpt>
      <trkpt lat="58.41531892307103" lon="12.72289895452559">
        <ele>52.57</ele>
        <time>2025-02-07T20:34:41.925Z</time>
      </trkpt>
      <trkpt lat="58.41539494693279" lon="12.722977995872498">
        <ele>52.58</ele>
        <time>2025-02-07T20:35:14.265Z</time>
      </trkpt>
      <trkpt lat="58.41547298245132" lon="12.723056953400373">
        <ele>52.58</ele>
        <time>2025-02-07T20:35:46.607Z</time>
      </trkpt>
      <trkpt lat="58.415550934150815" lon="12.723135994747281">
        <ele>52.58</ele>
        <time>2025-02-07T20:36:18.950Z</time>
      </trkpt>
      <trkpt lat="58.4156309813261" lon="12.723214952275157">
        <ele>52.58</ele>
        <time>2025-02-07T20:36:51.295Z</time>
      </trkpt>
      <trkpt lat="58.41571195051074" lon="12.723293993622065">
        <ele>52.58</ele>
        <time>2025-02-07T20:37:23.641Z</time>
      </trkpt>
      <trkpt lat="58.41579392552376" lon="12.723374962806702">
        <ele>52.58</ele>
        <time>2025-02-07T20:37:55.989Z</time>
      </trkpt>
      <trkpt lat="58.41587598435581" lon="12.723454926162958">
        <ele>52.59</ele>
        <time>2025-02-07T20:38:28.338Z</time>
      </trkpt>
      <trkpt lat="58.415958965197206" lon="12.723533967509866">
        <ele>52.59</ele>
        <time>2025-02-07T20:39:00.688Z</time>
      </trkpt>
      <trkpt lat="58.416041946038604" lon="12.723612925037742">
        <ele>52.6</ele>
        <time>2025-02-07T20:39:33.040Z</time>
      </trkpt>
      <trkpt lat="58.41612492688" lon="12.723688948899508">
        <ele>52.61</ele>
        <time>2025-02-07T20:40:05.393Z</time>
      </trkpt>
      <trkpt lat="58.41620899736881" lon="12.723764972761273">
        <ele>52.61</ele>
        <time>2025-02-07T20:40:37.748Z</time>
      </trkpt>
      <trkpt lat="58.41629298403859" lon="12.72384099662304">
        <ele>52.61</ele>
        <time>2025-02-07T20:41:10.104Z</time>
      </trkpt>
      <trkpt lat="58.41637697070837" lon="12.723915930837393">
        <ele>52.62</ele>
        <time>2025-02-07T20:41:42.462Z</time>
      </trkpt>
      <trkpt lat="58.41646095737815" lon="12.72399296052754">
        <ele>52.62</ele>
        <time>2025-02-07T20:42:14.821Z</time>
      </trkpt>
      <trkpt lat="58.41654494404793" lon="12.724071918055415">
        <ele>52.62</ele>
        <time>2025-02-07T20:42:47.182Z</time>
      </trkpt>
      <trkpt lat="58.41662893071771" lon="12.724148947745562">
        <ele>52.63</ele>
        <time>2025-02-07T20:43:19.544Z</time>
      </trkpt>
      <trkpt lat="58.41671492904425" lon="12.724222959950566">
        <ele>52.63</ele>
        <time>2025-02-07T20:43:51.908Z</time>
      </trkpt>
      <trkpt lat="58.416799921542406" lon="12.72429395467043">
        <ele>52.64</ele>
        <time>2025-02-07T20:44:24.273Z</time>
      </trkpt>
      <trkpt lat="58.41688399203122" lon="12.724365955218673">
        <ele>52.64</ele>
        <time>2025-02-07T20:44:56.640Z</time>
      </trkpt>
      <trkpt lat="58.416965967044234" lon="12.724439967423677">
        <ele>52.65</ele>
        <time>2025-02-07T20:45:29.008Z</time>
      </trkpt>
      <trkpt lat="58.41704391874373" lon="12.724516997113824">
        <ele>52.65</ele>
        <time>2025-02-07T20:46:01.378Z</time>
      </trkpt>
      <trkpt lat="58.41712195426226" lon="12.724589919671416">
        <ele>52.66</ele>
        <time>2025-02-07T20:46:33.749Z</time>
      </trkpt>
      <trkpt lat="58.41719797812402" lon="12.724655969068408">
        <ele>52.66</ele>
        <time>2025-02-07T20:47:06.121Z</time>
      </trkpt>
      <trkpt lat="58.41727199032903" lon="12.724720928817987">
        <ele>52.67</ele>
        <time>2025-02-07T20:47:38.495Z</time>
      </trkpt>
      <trkpt lat="58.41734499670565" lon="12.72478697821498">
        <ele>52.68</ele>
        <time>2025-02-07T20:48:10.870Z</time>
      </trkpt>
      <trkpt lat="58.417417919263244" lon="12.724856967106462">
        <ele>52.68</ele>
        <time>2025-02-07T20:48:43.246Z</time>
      </trkpt>
      <trkpt lat="58.41749092563987" lon="12.724922932684422">
        <ele>52.69</ele>
        <time>2025-02-07T20:49:15.624Z</time>
      </trkpt>
      <trkpt lat="58.41756594367325" lon="12.724988982081413">
        <ele>52.7</ele>
        <time>2025-02-07T20:49:48.003Z</time>
      </trkpt>
      <trkpt lat="58.41764196753502" lon="12.725059976801276">
        <ele>52.7</ele>
        <time>2025-02-07T20:50:20.383Z</time>
      </trkpt>
      <trkpt lat="58.417718997225165" lon="12.72513197734952">
        <ele>52.71</ele>
        <time>2025-02-07T20:50:52.765Z</time>
      </trkpt>
      <trkpt lat="58.4177999664098" lon="12.725202972069383">
        <ele>52.72</ele>
        <time>2025-02-07T20:51:25.148Z</time>
      </trkpt>
      <trkpt lat="58.41788194142282" lon="12.725273966789246">
        <ele>52.73</ele>
        <time>2025-02-07T20:51:57.533Z</time>
      </trkpt>
      <trkpt lat="58.41796391643584" lon="12.72534596733749">
        <ele>52.75</ele>
        <time>2025-02-07T20:52:29.919Z</time>
      </trkpt>
      <trkpt lat="58.41804496943951" lon="12.725417967885733">
        <ele>52.76</ele>
        <time>2025-02-07T20:53:02.307Z</time>
      </trkpt>
      <trkpt lat="58.418125938624144" lon="12.725488962605596">
        <ele>52.77</ele>
        <time>2025-02-07T20:53:34.696Z</time>
      </trkpt>
      <trkpt lat="58.41820699162781" lon="12.725554928183556">
        <ele>52.78</ele>
        <time>2025-02-07T20:54:07.086Z</time>
      </trkpt>
      <trkpt lat="58.41828997246921" lon="12.725619971752167">
        <ele>52.79</ele>
        <time>2025-02-07T20:54:39.478Z</time>
      </trkpt>
      <trkpt lat="58.41837395913899" lon="12.725685937330127">
        <ele>52.8</ele>
        <time>2025-02-07T20:55:11.871Z</time>
      </trkpt>
      <trkpt lat="58.41845995746553" lon="12.725747963413596">
        <ele>52.8</ele>
        <time>2025-02-07T20:55:44.266Z</time>
      </trkpt>
      <trkpt lat="58.41854796744883" lon="12.725803954526782">
        <ele>52.81</ele>
        <time>2025-02-07T20:56:16.662Z</time>
      </trkpt>
      <trkpt lat="58.41863798908889" lon="12.725855922326446">
        <ele>52.82</ele>
        <time>2025-02-07T20:56:49.060Z</time>
      </trkpt>
      <trkpt lat="58.418727926909924" lon="12.725903950631618">
        <ele>52.83</ele>
        <time>2025-02-07T20:57:21.459Z</time>
      </trkpt>
      <trkpt lat="58.41881895437837" lon="12.725946949794888">
        <ele>52.85</ele>
        <time>2025-02-07T20:57:53.860Z</time>
      </trkpt>
      <trkpt lat="58.41891098767519" lon="12.725984919816256">
        <ele>52.86</ele>
        <time>2025-02-07T20:58:26.262Z</time>
      </trkpt>
      <trkpt lat="58.41900394298136" lon="12.726019956171513">
        <ele>52.87</ele>
        <time>2025-02-07T20:58:58.666Z</time>
      </trkpt>
      <trkpt lat="58.419094970449805" lon="12.72605792619288">
        <ele>52.89</ele>
        <time>2025-02-07T20:59:31.071Z</time>
      </trkpt>
      <trkpt lat="58.41918499208987" lon="12.726094974204898">
        <ele>52.9</ele>
        <time>2025-02-07T21:00:03.478Z</time>
      </trkpt>
      <trkpt lat="58.41927291825414" lon="12.726126993075013">
        <ele>52.92</ele>
        <time>2025-02-07T21:00:35.886Z</time>
      </trkpt>
      <trkpt lat="58.41936193406582" lon="12.726152976974845">
        <ele>52.94</ele>
        <time>2025-02-07T21:01:08.296Z</time>
      </trkpt>
      <trkpt lat="58.41945195570588" lon="12.726174937561154">
        <ele>52.95</ele>
        <time>2025-02-07T21:01:40.707Z</time>
      </trkpt>
      <trkpt lat="58.41954197734594" lon="12.726191952824593">
        <ele>52.97</ele>
        <time>2025-02-07T21:02:13.120Z</time>
      </trkpt>
      <trkpt lat="58.419630993157625" lon="12.726205950602889">
        <ele>52.99</ele>
        <time>2025-02-07T21:02:45.534Z</time>
      </trkpt>
      <trkpt lat="58.419720930978656" lon="12.726217936724424">
        <ele>53.01</ele>
        <time>2025-02-07T21:03:17.949Z</time>
      </trkpt>
      <trkpt lat="58.41981095261872" lon="12.726224977523088">
        <ele>53.03</ele>
        <time>2025-02-07T21:03:50.366Z</time>
      </trkpt>
      <trkpt lat="58.41990097425878" lon="12.72622799500823">
        <ele>53.05</ele>
        <time>2025-02-07T21:04:22.784Z</time>
      </trkpt>
      <trkpt lat="58.41998999007046" lon="12.72622799500823">
        <ele>53.07</ele>
        <time>2025-02-07T21:04:55.204Z</time>
      </trkpt>
      <trkpt lat="58.42008093371987" lon="12.726225983351469">
        <ele>53.09</ele>
        <time>2025-02-07T21:05:27.625Z</time>
      </trkpt>
      <trkpt lat="58.420170955359936" lon="12.726222965866327">
        <ele>53.12</ele>
        <time>2025-02-07T21:06:00.048Z</time>
      </trkpt>
      <trkpt lat="58.42025997117162" lon="12.726211985573173">
        <ele>53.15</ele>
        <time>2025-02-07T21:06:32.472Z</time>
      </trkpt>
      <trkpt lat="58.4203489869833" lon="12.726195976138115">
        <ele>53.17</ele>
        <time>2025-02-07T21:07:04.897Z</time>
      </trkpt>
      <trkpt lat="58.42043892480433" lon="12.726179966703057">
        <ele>53.19</ele>
        <time>2025-02-07T21:07:37.324Z</time>
      </trkpt>
      <trkpt lat="58.42052794061601" lon="12.726161945611238">
        <ele>53.21</ele>
        <time>2025-02-07T21:08:09.752Z</time>
      </trkpt>
      <trkpt lat="58.420617962256074" lon="12.726146942004561">
        <ele>53.23</ele>
        <time>2025-02-07T21:08:42.182Z</time>
      </trkpt>
      <trkpt lat="58.42070898972452" lon="12.726133950054646">
        <ele>53.26</ele>
        <time>2025-02-07T21:09:14.613Z</time>
      </trkpt>
      <trkpt lat="58.42079892754555" lon="12.726123975589871">
        <ele>53.29</ele>
        <time>2025-02-07T21:09:47.046Z</time>
      </trkpt>
      <trkpt lat="58.42088995501399" lon="12.726117940619588">
        <ele>53.31</ele>
        <time>2025-02-07T21:10:19.480Z</time>
      </trkpt>
      <trkpt lat="58.42098098248243" lon="12.726112995296717">
        <ele>53.34</ele>
        <time>2025-02-07T21:10:51.916Z</time>
      </trkpt>
      <trkpt lat="58.421071926131845" lon="12.726110983639956">
        <ele>53.37</ele>
        <time>2025-02-07T21:11:24.353Z</time>
      </trkpt>
      <trkpt lat="58.42116295360029" lon="12.726113917306066">
        <ele>53.4</ele>
        <time>2025-02-07T21:11:56.792Z</time>
      </trkpt>
      <trkpt lat="58.42125297524035" lon="12.72612196393311">
        <ele>53.43</ele>
        <time>2025-02-07T21:12:29.232Z</time>
      </trkpt>
      <trkpt lat="58.42134299688041" lon="12.726130932569504">
        <ele>53.47</ele>
        <time>2025-02-07T21:13:01.673Z</time>
      </trkpt>
      <trkpt lat="58.42143293470144" lon="12.726142918691039">
        <ele>53.5</ele>
        <time>2025-02-07T21:13:34.116Z</time>
      </trkpt>
      <trkpt lat="58.421523962169886" lon="12.726158928126097">
        <ele>53.54</ele>
        <time>2025-02-07T21:14:06.560Z</time>
      </trkpt>
      <trkpt lat="58.42161599546671" lon="12.726175943389535">
        <ele>53.58</ele>
        <time>2025-02-07T21:14:39.006Z</time>
      </trkpt>
      <trkpt lat="58.42170895077288" lon="12.726195976138115">
        <ele>53.62</ele>
        <time>2025-02-07T21:15:11.453Z</time>
      </trkpt>
      <trkpt lat="58.421801989898086" lon="12.726219948381186">
        <ele>53.66</ele>
        <time>2025-02-07T21:15:43.902Z</time>
      </trkpt>
      <trkpt lat="58.42189494520426" lon="12.726245932281017">
        <ele>53.7</ele>
        <time>2025-02-07T21:16:16.352Z</time>
      </trkpt>
      <trkpt lat="58.4219859726727" lon="12.726275939494371">
        <ele>53.74</ele>
        <time>2025-02-07T21:16:48.804Z</time>
      </trkpt>
      <trkpt lat="58.42207792215049" lon="12.726308964192867">
        <ele>53.78</ele>
        <time>2025-02-07T21:17:21.257Z</time>
      </trkpt>
      <trkpt lat="58.422166937962174" lon="12.726343916729093">
        <ele>53.83</ele>
        <time>2025-02-07T21:17:53.712Z</time>
      </trkpt>
      <trkpt lat="58.422254947945476" lon="12.726383982226253">
        <ele>53.87</ele>
        <time>2025-02-07T21:18:26.168Z</time>
      </trkpt>
      <trkpt lat="58.42234295792878" lon="12.726428993046284">
        <ele>53.92</ele>
        <time>2025-02-07T21:18:58.626Z</time>
      </trkpt>
      <trkpt lat="58.42243096791208" lon="12.726478949189186">
        <ele>53.96</ele>
        <time>2025-02-07T21:19:31.085Z</time>
      </trkpt>
      <trkpt lat="58.422517972067" lon="12.726534940302372">
        <ele>54.01</ele>
        <time>2025-02-07T21:20:03.546Z</time>
      </trkpt>
      <trkpt lat="58.42260397039354" lon="12.726596966385841">
        <ele>54.06</ele>
        <time>2025-02-07T21:20:36.008Z</time>
      </trkpt>
      <trkpt lat="58.42268795706332" lon="12.726662931963801">
        <ele>54.11</ele>
        <time>2025-02-07T21:21:08.472Z</time>
      </trkpt>
      <trkpt lat="58.422771943733096" lon="12.726731998845935">
        <ele>54.16</ele>
        <time>2025-02-07T21:21:40.937Z</time>
      </trkpt>
      <trkpt lat="58.422855930402875" lon="12.726801987737417">
        <ele>54.21</ele>
        <time>2025-02-07T21:22:13.404Z</time>
      </trkpt>
      <trkpt lat="58.422938995063305" lon="12.726870970800519">
        <ele>54.26</ele>
        <time>2025-02-07T21:22:45.872Z</time>
      </trkpt>
      <trkpt lat="58.42302097007632" lon="12.726940959692001">
        <ele>54.32</ele>
        <time>2025-02-07T21:23:18.341Z</time>
      </trkpt>
      <trkpt lat="58.42310294508934" lon="12.727006925269961">
        <ele>54.37</ele>
        <time>2025-02-07T21:23:50.812Z</time>
      </trkpt>
      <trkpt lat="58.42318198643625" lon="12.727075992152095">
        <ele>54.43</ele>
        <time>2025-02-07T21:24:23.284Z</time>
      </trkpt>
      <trkpt lat="58.42325993813574" lon="12.727144975215197">
        <ele>54.49</ele>
        <time>2025-02-07T21:24:55.758Z</time>
      </trkpt>
      <trkpt lat="58.42333897948265" lon="12.727210940793157">
        <ele>54.55</ele>
        <time>2025-02-07T21:25:28.233Z</time>
      </trkpt>
      <trkpt lat="58.42341894283891" lon="12.727278918027878">
        <ele>54.61</ele>
        <time>2025-02-07T21:26:00.709Z</time>
      </trkpt>
      <trkpt lat="58.423497984185815" lon="12.727348990738392">
        <ele>54.67</ele>
        <time>2025-02-07T21:26:33.187Z</time>
      </trkpt>
      <trkpt lat="58.42357895337045" lon="12.727418979629874">
        <ele>54.73</ele>
        <time>2025-02-07T21:27:05.666Z</time>
      </trkpt>
      <trkpt lat="58.42365992255509" lon="12.727489974349737">
        <ele>54.79</ele>
        <time>2025-02-07T21:27:38.147Z</time>
      </trkpt>
      <trkpt lat="58.42374198138714" lon="12.727558957412839">
        <ele>54.86</ele>
        <time>2025-02-07T21:28:10.629Z</time>
      </trkpt>
      <trkpt lat="58.423822950571775" lon="12.72762592881918">
        <ele>54.92</ele>
        <time>2025-02-07T21:28:43.113Z</time>
      </trkpt>
      <trkpt lat="58.42390492558479" lon="12.727693989872932">
        <ele>54.99</ele>
        <time>2025-02-07T21:29:15.598Z</time>
      </trkpt>
      <trkpt lat="58.42398497276008" lon="12.727760961279273">
        <ele>55.05</ele>
        <time>2025-02-07T21:29:48.084Z</time>
      </trkpt>
      <trkpt lat="58.42406594194472" lon="12.727828938513994">
        <ele>55.12</ele>
        <time>2025-02-07T21:30:20.572Z</time>
      </trkpt>
      <trkpt lat="58.42414598912001" lon="12.727893982082605">
        <ele>55.19</ele>
        <time>2025-02-07T21:30:53.061Z</time>
      </trkpt>
      <trkpt lat="58.424226958304644" lon="12.727955924347043">
        <ele>55.26</ele>
        <time>2025-02-07T21:31:25.552Z</time>
      </trkpt>
      <trkpt lat="58.42430599965155" lon="12.728018956258893">
        <ele>55.33</ele>
        <time>2025-02-07T21:31:58.044Z</time>
      </trkpt>
      <trkpt lat="58.424382945522666" lon="12.728083999827504">
        <ele>55.41</ele>
        <time>2025-02-07T21:32:30.537Z</time>
      </trkpt>
      <trkpt lat="58.42445997521281" lon="12.728149965405464">
        <ele>55.48</ele>
        <time>2025-02-07T21:33:03.032Z</time>
      </trkpt>
      <trkpt lat="58.42453692108393" lon="12.728215930983424">
        <ele>55.56</ele>
        <time>2025-02-07T21:33:35.528Z</time>
      </trkpt>
      <trkpt lat="58.424614956602454" lon="12.728278962895274">
        <ele>55.63</ele>
        <time>2025-02-07T21:34:08.025Z</time>
      </trkpt>
      <trkpt lat="58.42469098046422" lon="12.728341994807124">
        <ele>55.71</ele>
        <time>2025-02-07T21:34:40.524Z</time>
      </trkpt>
      <trkpt lat="58.424766920506954" lon="12.728402931243181">
        <ele>55.78</ele>
        <time>2025-02-07T21:35:13.024Z</time>
      </trkpt>
      <trkpt lat="58.42484193854034" lon="12.728465963155031">
        <ele>55.86</ele>
        <time>2025-02-07T21:35:45.525Z</time>
      </trkpt>
      <trkpt lat="58.424916956573725" lon="12.728532934561372">
        <ele>55.94</ele>
        <time>2025-02-07T21:36:18.028Z</time>
      </trkpt>
      <trkpt lat="58.42499197460711" lon="12.728600995615125">
        <ele>56.02</ele>
        <time>2025-02-07T21:36:50.532Z</time>
      </trkpt>
      <trkpt lat="58.425067998468876" lon="12.728668972849846">
        <ele>56.1</ele>
        <time>2025-02-07T21:37:23.037Z</time>
      </trkpt>
      <trkpt lat="58.42514293268323" lon="12.728737955912948">
        <ele>56.18</ele>
        <time>2025-02-07T21:37:55.544Z</time>
      </trkpt>
      <trkpt lat="58.425217950716615" lon="12.728809956461191">
        <ele>56.27</ele>
        <time>2025-02-07T21:38:28.052Z</time>
      </trkpt>
      <trkpt lat="58.42529196292162" lon="12.728883968666196">
        <ele>56.35</ele>
        <time>2025-02-07T21:39:00.561Z</time>
      </trkpt>
      <trkpt lat="58.425366980955005" lon="12.72895596921444">
        <ele>56.43</ele>
        <time>2025-02-07T21:39:33.072Z</time>
      </trkpt>
      <trkpt lat="58.42544199898839" lon="12.729026963934302">
        <ele>56.52</ele>
        <time>2025-02-07T21:40:05.584Z</time>
      </trkpt>
      <trkpt lat="58.42551693320274" lon="12.729096952825785">
        <ele>56.6</ele>
        <time>2025-02-07T21:40:38.097Z</time>
      </trkpt>
      <trkpt lat="58.42559195123613" lon="12.729165935888886">
        <ele>56.69</ele>
        <time>2025-02-07T21:41:10.612Z</time>
      </trkpt>
      <trkpt lat="58.42566596344113" lon="12.72923793643713">
        <ele>56.77</ele>
        <time>2025-02-07T21:41:43.128Z</time>
      </trkpt>
      <trkpt lat="58.42574098147452" lon="12.729310942813754">
        <ele>56.86</ele>
        <time>2025-02-07T21:42:15.645Z</time>
      </trkpt>
      <trkpt lat="58.42581792734563" lon="12.72938596084714">
        <ele>56.95</ele>
        <time>2025-02-07T21:42:48.164Z</time>
      </trkpt>
      <trkpt lat="58.42589495703578" lon="12.729460978880525">
        <ele>57.04</ele>
        <time>2025-02-07T21:43:20.684Z</time>
      </trkpt>
      <trkpt lat="58.425974920392036" lon="12.729536918923259">
        <ele>57.13</ele>
        <time>2025-02-07T21:43:53.206Z</time>
      </trkpt>
      <trkpt lat="58.426053961738944" lon="12.729613948613405">
        <ele>57.22</ele>
        <time>2025-02-07T21:44:25.729Z</time>
      </trkpt>
      <trkpt lat="58.42613493092358" lon="12.729689972475171">
        <ele>57.31</ele>
        <time>2025-02-07T21:44:58.253Z</time>
      </trkpt>
      <trkpt lat="58.42621497809887" lon="12.729765996336937">
        <ele>57.4</ele>
        <time>2025-02-07T21:45:30.779Z</time>
      </trkpt>
      <trkpt lat="58.426293935626745" lon="12.729841936379671">
        <ele>57.49</ele>
        <time>2025-02-07T21:46:03.306Z</time>
      </trkpt>
      <trkpt lat="58.42637398280203" lon="12.729918966069818">
        <ele>57.58</ele>
        <time>2025-02-07T21:46:35.835Z</time>
      </trkpt>
      <trkpt lat="58.42645495198667" lon="12.729994989931583">
        <ele>57.66</ele>
        <time>2025-02-07T21:47:08.365Z</time>
      </trkpt>
      <trkpt lat="58.42653499916196" lon="12.730070929974318">
        <ele>57.75</ele>
        <time>2025-02-07T21:47:40.897Z</time>
      </trkpt>
      <trkpt lat="58.426613956689835" lon="12.730149971321225">
        <ele>57.84</ele>
        <time>2025-02-07T21:48:13.430Z</time>
      </trkpt>
      <trkpt lat="58.42669199220836" lon="12.73022691719234">
        <ele>57.93</ele>
        <time>2025-02-07T21:48:45.964Z</time>
      </trkpt>
      <trkpt lat="58.42676994390786" lon="12.730302941054106">
        <ele>58.02</ele>
        <time>2025-02-07T21:49:18.500Z</time>
      </trkpt>
      <trkpt lat="58.42684596776962" lon="12.730377959087491">
        <ele>58.11</ele>
        <time>2025-02-07T21:49:51.037Z</time>
      </trkpt>
      <trkpt lat="58.42692098580301" lon="12.730452977120876">
        <ele>58.2</ele>
        <time>2025-02-07T21:50:23.576Z</time>
      </trkpt>
      <trkpt lat="58.42699298635125" lon="12.73052497766912">
        <ele>58.29</ele>
        <time>2025-02-07T21:50:56.116Z</time>
      </trkpt>
      <trkpt lat="58.427062975242734" lon="12.730592954903841">
        <ele>58.38</ele>
        <time>2025-02-07T21:51:28.657Z</time>
      </trkpt>
      <trkpt lat="58.427131958305836" lon="12.730661937966943">
        <ele>58.47</ele>
        <time>2025-02-07T21:52:01.199Z</time>
      </trkpt>
      <trkpt lat="58.42719993554056" lon="12.730730921030045">
        <ele>58.56</ele>
        <time>2025-02-07T21:52:33.743Z</time>
      </trkpt>
      <trkpt lat="58.42726891860366" lon="12.730796970427036">
        <ele>58.64</ele>
        <time>2025-02-07T21:53:06.288Z</time>
      </trkpt>
      <trkpt lat="58.42733899131417" lon="12.730860924348235">
        <ele>58.73</ele>
        <time>2025-02-07T21:53:38.834Z</time>
      </trkpt>
      <trkpt lat="58.427408980205655" lon="12.730924962088466">
        <ele>58.81</ele>
        <time>2025-02-07T21:54:11.381Z</time>
      </trkpt>
      <trkpt lat="58.42747796326876" lon="12.730989921838045">
        <ele>58.9</ele>
        <time>2025-02-07T21:54:43.930Z</time>
      </trkpt>
      <trkpt lat="58.42754694633186" lon="12.731055971235037">
        <ele>58.99</ele>
        <time>2025-02-07T21:55:16.480Z</time>
      </trkpt>
      <trkpt lat="58.4276139177382" lon="12.731121936812997">
        <ele>59.07</ele>
        <time>2025-02-07T21:55:49.031Z</time>
      </trkpt>
      <trkpt lat="58.42767996713519" lon="12.731186980381608">
        <ele>59.16</ele>
        <time>2025-02-07T21:56:21.583Z</time>
      </trkpt>
      <trkpt lat="58.42774392105639" lon="12.731252945959568">
        <ele>59.24</ele>
        <time>2025-02-07T21:56:54.136Z</time>
      </trkpt>
      <trkpt lat="58.42780594713986" lon="12.731316983699799">
        <ele>59.33</ele>
        <time>2025-02-07T21:57:26.691Z</time>
      </trkpt>
      <trkpt lat="58.42786596156657" lon="12.731379931792617">
        <ele>59.41</ele>
        <time>2025-02-07T21:57:59.247Z</time>
      </trkpt>
      <trkpt lat="58.427924970164895" lon="12.731439946219325">
        <ele>59.49</ele>
        <time>2025-02-07T21:58:31.804Z</time>
      </trkpt>
      <trkpt lat="58.42798297293484" lon="12.731496943160892">
        <ele>59.57</ele>
        <time>2025-02-07T21:59:04.362Z</time>
      </trkpt>
      <trkpt lat="58.42803896404803" lon="12.731554945930839">
        <ele>59.65</ele>
        <time>2025-02-07T21:59:36.921Z</time>
      </trkpt>
      <trkpt lat="58.42809294350445" lon="12.731615966185927">
        <ele>59.73</ele>
        <time>2025-02-07T22:00:09.481Z</time>
      </trkpt>
      <trkpt lat="58.42814499512315" lon="12.731674974784255">
        <ele>59.8</ele>
        <time>2025-02-07T22:00:42.042Z</time>
      </trkpt>
      <trkpt lat="58.42819394543767" lon="12.731732977554202">
        <ele>59.88</ele>
        <time>2025-02-07T22:01:14.604Z</time>
      </trkpt>
      <trkpt lat="58.42823996208608" lon="12.73179592564702">
        <ele>59.95</ele>
        <time>2025-02-07T22:01:47.167Z</time>
      </trkpt>
      <trkpt lat="58.42828396707773" lon="12.731863986700773">
        <ele>60.01</ele>
        <time>2025-02-07T22:02:19.731Z</time>
      </trkpt>
      <trkpt lat="58.42832394875586" lon="12.731935987249017">
        <ele>60.08</ele>
        <time>2025-02-07T22:02:52.295Z</time>
      </trkpt>
      <trkpt lat="58.4283599909395" lon="12.732014944776893">
        <ele>60.14</ele>
        <time>2025-02-07T22:03:24.860Z</time>
      </trkpt>
      <trkpt lat="58.428395949304104" lon="12.732099937275052">
        <ele>60.2</ele>
        <time>2025-02-07T22:03:57.426Z</time>
      </trkpt>
      <trkpt lat="58.42843098565936" lon="12.732184929773211">
        <ele>60.25</ele>
        <time>2025-02-07T22:04:29.993Z</time>
      </trkpt>
      <trkpt lat="58.428464932367206" lon="12.732270928099751">
        <ele>60.31</ele>
        <time>2025-02-07T22:05:02.561Z</time>
      </trkpt>
      <trkpt lat="58.42849594540894" lon="12.73235592059791">
        <ele>60.36</ele>
        <time>2025-02-07T22:05:35.130Z</time>
      </trkpt>
      <trkpt lat="58.42852293513715" lon="12.732440996915102">
        <ele>60.41</ele>
        <time>2025-02-07T22:06:07.700Z</time>
      </trkpt>
      <trkpt lat="58.428550930693746" lon="12.732521966099739">
        <ele>60.46</ele>
        <time>2025-02-07T22:06:40.271Z</time>
      </trkpt>
      <trkpt lat="58.42857892625034" lon="12.732603941112757">
        <ele>60.51</ele>
        <time>2025-02-07T22:07:12.842Z</time>
      </trkpt>
      <trkpt lat="58.428611950948834" lon="12.732681976631284">
        <ele>60.55</ele>
        <time>2025-02-07T22:07:45.414Z</time>
      </trkpt>
      <trkpt lat="58.42865293845534" lon="12.732752971351147">
        <ele>60.59</ele>
        <time>2025-02-07T22:08:17.987Z</time>
      </trkpt>
      <trkpt lat="58.428696943446994" lon="12.732828995212913">
        <ele>60.63</ele>
        <time>2025-02-07T22:08:50.561Z</time>
      </trkpt>
      <trkpt lat="58.42873893678188" lon="12.732905941084027">
        <ele>60.67</ele>
        <time>2025-02-07T22:09:23.136Z</time>
      </trkpt>
      <trkpt lat="58.428784953430295" lon="12.732981964945793">
        <ele>60.7</ele>
        <time>2025-02-07T22:09:55.712Z</time>
      </trkpt>
      <trkpt lat="58.42883197590709" lon="12.73306293413043">
        <ele>60.73</ele>
        <time>2025-02-07T22:10:28.289Z</time>
      </trkpt>
      <trkpt lat="58.428894923999906" lon="12.73314893245697">
        <ele>60.75</ele>
        <time>2025-02-07T22:11:00.867Z</time>
      </trkpt>
      <trkpt lat="58.4289469756186" lon="12.7332319971174">
        <ele>60.78</ele>
        <time>2025-02-07T22:11:33.446Z</time>
      </trkpt>
      <trkpt lat="58.429001960903406" lon="12.73331698961556">
        <ele>60.81</ele>
        <time>2025-02-07T22:12:06.026Z</time>
      </trkpt>
      <trkpt lat="58.42905594035983" lon="12.73340692743659">
        <ele>60.83</ele>
        <time>2025-02-07T22:12:38.608Z</time>
      </trkpt>
      <trkpt lat="58.429107991978526" lon="12.733505917713046">
        <ele>60.85</ele>
        <time>2025-02-07T22:13:11.191Z</time>
      </trkpt>
      <trkpt lat="58.42915995977819" lon="12.733609937131405">
        <ele>60.87</ele>
        <time>2025-02-07T22:13:43.775Z</time>
      </trkpt>
      <trkpt lat="58.429209999740124" lon="12.733713956549764">
        <ele>60.88</ele>
        <time>2025-02-07T22:14:16.360Z</time>
      </trkpt>
      <trkpt lat="58.429257944226265" lon="12.73381294682622">
        <ele>60.89</ele>
        <time>2025-02-07T22:14:48.946Z</time>
      </trkpt>
      <trkpt lat="58.42930597253144" lon="12.733906991779804">
        <ele>60.9</ele>
        <time>2025-02-07T22:15:21.533Z</time>
      </trkpt>
      <trkpt lat="58.42935391701758" lon="12.734000952914357">
        <ele>60.91</ele>
        <time>2025-02-07T22:15:54.122Z</time>
      </trkpt>
      <trkpt lat="58.42939892783761" lon="12.734101954847574">
        <ele>60.91</ele>
        <time>2025-02-07T22:16:26.712Z</time>
      </trkpt>
      <trkpt lat="58.42943999916315" lon="12.734207985922694">
        <ele>60.91</ele>
        <time>2025-02-07T22:16:59.303Z</time>
      </trkpt>
      <trkpt lat="58.42948098666966" lon="12.734318962320685">
        <ele>60.91</ele>
        <time>2025-02-07T22:17:31.895Z</time>
      </trkpt>
      <trkpt lat="58.42951996251941" lon="12.73443597368896">
        <ele>60.9</ele>
        <time>2025-02-07T22:18:04.488Z</time>
      </trkpt>
      <trkpt lat="58.429556926712394" lon="12.734553990885615">
        <ele>60.89</ele>
        <time>2025-02-07T22:18:37.082Z</time>
      </trkpt>
      <trkpt lat="58.42959196306765" lon="12.734670918434858">
        <ele>60.88</ele>
        <time>2025-02-07T22:19:09.677Z</time>
      </trkpt>
      <trkpt lat="58.42962699942291" lon="12.734787929803133">
        <ele>60.87</ele>
        <time>2025-02-07T22:19:42.273Z</time>
      </trkpt>
      <trkpt lat="58.42965994030237" lon="12.734901923686266">
        <ele>60.86</ele>
        <time>2025-02-07T22:20:14.871Z</time>
      </trkpt>
      <trkpt lat="58.42969397082925" lon="12.735011978074908">
        <ele>60.84</ele>
        <time>2025-02-07T22:20:47.470Z</time>
      </trkpt>
      <trkpt lat="58.42972791753709" lon="12.735116919502616">
        <ele>60.82</ele>
        <time>2025-02-07T22:21:20.070Z</time>
      </trkpt>
      <trkpt lat="58.42976194806397" lon="12.735213981941342">
        <ele>60.8</ele>
        <time>2025-02-07T22:21:52.671Z</time>
      </trkpt>
      <trkpt lat="58.429795978590846" lon="12.735307943075895">
        <ele>60.77</ele>
        <time>2025-02-07T22:22:25.273Z</time>
      </trkpt>
      <trkpt lat="58.42982699163258" lon="12.73540198802948">
        <ele>60.75</ele>
        <time>2025-02-07T22:22:57.876Z</time>
      </trkpt>
      <trkpt lat="58.429855993017554" lon="12.735494943335652">
        <ele>60.72</ele>
        <time>2025-02-07T22:23:30.479Z</time>
      </trkpt>
      <trkpt lat="58.42988792806864" lon="12.735585970804095">
        <ele>60.68</ele>
        <time>2025-02-07T22:24:03.083Z</time>
      </trkpt>
      <trkpt lat="58.429920952767134" lon="12.735680937767029">
        <ele>60.65</ele>
        <time>2025-02-07T22:24:35.688Z</time>
      </trkpt>
      <trkpt lat="58.42995598912239" lon="12.735776994377375">
        <ele>60.61</ele>
        <time>2025-02-07T22:25:08.294Z</time>
      </trkpt>
      <trkpt lat="58.42999395914376" lon="12.735871961340308">
        <ele>60.57</ele>
        <time>2025-02-07T22:25:40.901Z</time>
      </trkpt>
      <trkpt lat="58.43003695830703" lon="12.735963994637132">
        <ele>60.53</ele>
        <time>2025-02-07T22:26:13.509Z</time>
      </trkpt>
      <trkpt lat="58.43008196912706" lon="12.736055944114923">
        <ele>60.48</ele>
        <time>2025-02-07T22:26:46.118Z</time>
      </trkpt>
      <trkpt lat="58.43013293109834" lon="12.736148983240128">
        <ele>60.44</ele>
        <time>2025-02-07T22:27:18.729Z</time>
      </trkpt>
      <trkpt lat="58.43018791638315" lon="12.73624093271792">
        <ele>60.39</ele>
        <time>2025-02-07T22:27:51.341Z</time>
      </trkpt>
      <trkpt lat="58.430244997143745" lon="12.73632894270122">
        <ele>60.33</ele>
        <time>2025-02-07T22:28:23.954Z</time>
      </trkpt>
      <trkpt lat="58.43030299991369" lon="12.736418964341283">
        <ele>60.28</ele>
        <time>2025-02-07T22:28:56.568Z</time>
      </trkpt>
      <trkpt lat="58.43036293052137" lon="12.736511919647455">
        <ele>60.23</ele>
        <time>2025-02-07T22:29:29.183Z</time>
      </trkpt>
      <trkpt lat="58.43042495660484" lon="12.736603952944279">
        <ele>60.17</ele>
        <time>2025-02-07T22:30:01.800Z</time>
      </trkpt>
      <trkpt lat="58.43048597685993" lon="12.736689951270819">
        <ele>60.11</ele>
        <time>2025-02-07T22:30:34.418Z</time>
      </trkpt>
      <trkpt lat="58.430544985458255" lon="12.736771926283836">
        <ele>60.05</ele>
        <time>2025-02-07T22:31:07.037Z</time>
      </trkpt>
      <trkpt lat="58.4306029882282" lon="12.736852979287505">
        <ele>59.99</ele>
        <time>2025-02-07T22:31:39.657Z</time>
      </trkpt>
      <trkpt lat="58.43066099099815" lon="12.736931936815381">
        <ele>59.92</ele>
        <time>2025-02-07T22:32:12.278Z</time>
      </trkpt>
      <trkpt lat="58.430720921605825" lon="12.737006954848766">
        <ele>59.85</ele>
        <time>2025-02-07T22:32:44.900Z</time>
      </trkpt>
      <trkpt lat="58.43077892437577" lon="12.73707895539701">
        <ele>59.78</ele>
        <time>2025-02-07T22:33:17.524Z</time>
      </trkpt>
      <trkpt lat="58.43083399347961" lon="12.737152967602015">
        <ele>59.71</ele>
        <time>2025-02-07T22:33:50.149Z</time>
      </trkpt>
      <trkpt lat="58.43088596127927" lon="12.737229997292161">
        <ele>59.63</ele>
        <time>2025-02-07T22:34:22.775Z</time>
      </trkpt>
      <trkpt lat="58.430935917422175" lon="12.737310966476798">
        <ele>59.55</ele>
        <time>2025-02-07T22:34:55.402Z</time>
      </trkpt>
      <trkpt lat="58.43098394572735" lon="12.737396964803338">
        <ele>59.47</ele>
        <time>2025-02-07T22:35:28.030Z</time>
      </trkpt>
      <trkpt lat="58.43102895654738" lon="12.737482963129878">
        <ele>59.39</ele>
        <time>2025-02-07T22:36:00.659Z</time>
      </trkpt>
      <trkpt lat="58.43107698485255" lon="12.73757097311318">
        <ele>59.3</ele>
        <time>2025-02-07T22:36:33.289Z</time>
      </trkpt>
      <trkpt lat="58.43112392351031" lon="12.73766191676259">
        <ele>59.21</ele>
        <time>2025-02-07T22:37:05.920Z</time>
      </trkpt>
      <trkpt lat="58.431170945987105" lon="12.737755961716175">
        <ele>59.12</ele>
        <time>2025-02-07T22:37:38.552Z</time>
      </trkpt>
      <trkpt lat="58.43121897429228" lon="12.73785394616425">
        <ele>59.02</ele>
        <time>2025-02-07T22:38:11.185Z</time>
      </trkpt>
      <trkpt lat="58.43126893043518" lon="12.737953942269087">
        <ele>58.92</ele>
        <time>2025-02-07T22:38:43.819Z</time>
      </trkpt>
      <trkpt lat="58.431319976225495" lon="12.738058967515826">
        <ele>58.82</ele>
        <time>2025-02-07T22:39:16.455Z</time>
      </trkpt>
      <trkpt lat="58.43137294985354" lon="12.738167932257056">
        <ele>58.72</ele>
        <time>2025-02-07T22:39:49.092Z</time>
      </trkpt>
      <trkpt lat="58.431426929309964" lon="12.73828293196857">
        <ele>58.62</ele>
        <time>2025-02-07T22:40:21.730Z</time>
      </trkpt>
      <trkpt lat="58.43147998675704" lon="12.738401954993606">
        <ele>58.52</ele>
        <time>2025-02-07T22:40:54.369Z</time>
      </trkpt>
      <trkpt lat="58.431532960385084" lon="12.738525923341513">
        <ele>58.41</ele>
        <time>2025-02-07T22:41:27.010Z</time>
      </trkpt>
      <trkpt lat="58.43158492818475" lon="12.738657938316464">
        <ele>58.3</ele>
        <time>2025-02-07T22:41:59.652Z</time>
      </trkpt>
      <trkpt lat="58.43163697980344" lon="12.738793976604939">
        <ele>58.19</ele>
        <time>2025-02-07T22:42:32.296Z</time>
      </trkpt>
      <trkpt lat="58.43169095925987" lon="12.738934960216284">
        <ele>58.07</ele>
        <time>2025-02-07T22:43:04.941Z</time>
      </trkpt>
      <trkpt lat="58.43174594454467" lon="12.73907896131277">
        <ele>57.96</ele>
        <time>2025-02-07T22:43:37.588Z</time>
      </trkpt>
      <trkpt lat="58.43180294148624" lon="12.739223968237638">
        <ele>57.85</ele>
        <time>2025-02-07T22:44:10.236Z</time>
      </trkpt>
      <trkpt lat="58.43186195008457" lon="12.739370986819267">
        <ele>57.74</ele>
        <time>2025-02-07T22:44:42.886Z</time>
      </trkpt>
      <trkpt lat="58.431921964511275" lon="12.739518927410245">
        <ele>57.62</ele>
        <time>2025-02-07T22:45:15.537Z</time>
      </trkpt>
      <trkpt lat="58.431983990594745" lon="12.739667957648635">
        <ele>57.51</ele>
        <time>2025-02-07T22:45:48.190Z</time>
      </trkpt>
      <trkpt lat="58.43204392120242" lon="12.739817993715405">
        <ele>57.39</ele>
        <time>2025-02-07T22:46:20.844Z</time>
      </trkpt>
      <trkpt lat="58.43210494145751" lon="12.739968951791525">
        <ele>57.28</ele>
        <time>2025-02-07T22:46:53.500Z</time>
      </trkpt>
      <trkpt lat="58.43216495588422" lon="12.740120999515057">
        <ele>57.17</ele>
        <time>2025-02-07T22:47:26.158Z</time>
      </trkpt>
      <trkpt lat="58.43222698196769" lon="12.740273969247937">
        <ele>57.05</ele>
        <time>2025-02-07T22:47:58.817Z</time>
      </trkpt>
      <trkpt lat="58.432287918403745" lon="12.740425933152437">
        <ele>56.94</ele>
        <time>2025-02-07T22:48:31.478Z</time>
      </trkpt>
      <trkpt lat="58.43234893865883" lon="12.740576975047588">
        <ele>56.83</ele>
        <time>2025-02-07T22:49:04.140Z</time>
      </trkpt>
      <trkpt lat="58.43240995891392" lon="12.740724999457598">
        <ele>56.71</ele>
        <time>2025-02-07T22:49:36.804Z</time>
      </trkpt>
      <trkpt lat="58.43247198499739" lon="12.740868916735053">
        <ele>56.6</ele>
        <time>2025-02-07T22:50:09.470Z</time>
      </trkpt>
      <trkpt lat="58.43253392726183" lon="12.74100897833705">
        <ele>56.49</ele>
        <time>2025-02-07T22:50:42.137Z</time>
      </trkpt>
      <trkpt lat="58.43259494751692" lon="12.741146944463253">
        <ele>56.38</ele>
        <time>2025-02-07T22:51:14.806Z</time>
      </trkpt>
      <trkpt lat="58.43265697360039" lon="12.741279965266585">
        <ele>56.26</ele>
        <time>2025-02-07T22:51:47.476Z</time>
      </trkpt>
      <trkpt lat="58.432717993855476" lon="12.741410974413157">
        <ele>56.15</ele>
        <time>2025-02-07T22:52:20.148Z</time>
      </trkpt>
      <trkpt lat="58.43277893029153" lon="12.741541983559728">
        <ele>56.04</ele>
        <time>2025-02-07T22:52:52.821Z</time>
      </trkpt>
      <trkpt lat="58.43283995054662" lon="12.741669975221157">
        <ele>55.93</ele>
        <time>2025-02-07T22:53:25.496Z</time>
      </trkpt>
      <trkpt lat="58.43290197663009" lon="12.741798972710967">
        <ele>55.82</ele>
        <time>2025-02-07T22:53:58.172Z</time>
      </trkpt>
      <trkpt lat="58.43296492472291" lon="12.741926964372396">
        <ele>55.71</ele>
        <time>2025-02-07T22:54:30.849Z</time>
      </trkpt>
      <trkpt lat="58.433025944978" lon="12.742054956033826">
        <ele>55.6</ele>
        <time>2025-02-07T22:55:03.528Z</time>
      </trkpt>
      <trkpt lat="58.43308897688985" lon="12.742181941866875">
        <ele>55.49</ele>
        <time>2025-02-07T22:55:36.208Z</time>
      </trkpt>
      <trkpt lat="58.43315192498267" lon="12.742307921871543">
        <ele>55.38</ele>
        <time>2025-02-07T22:56:08.890Z</time>
      </trkpt>
      <trkpt lat="58.4332159627229" lon="12.742434991523623">
        <ele>55.28</ele>
        <time>2025-02-07T22:56:41.573Z</time>
      </trkpt>
      <trkpt lat="58.43327899463475" lon="12.742561977356672">
        <ele>55.17</ele>
        <time>2025-02-07T22:57:14.258Z</time>
      </trkpt>
      <trkpt lat="58.433342948555946" lon="12.74268795736134">
        <ele>55.07</ele>
        <time>2025-02-07T22:57:46.944Z</time>
      </trkpt>
      <trkpt lat="58.43340698629618" lon="12.742811925709248">
        <ele>54.96</ele>
        <time>2025-02-07T22:58:19.632Z</time>
      </trkpt>
      <trkpt lat="58.433469934388995" lon="12.742935977876186">
        <ele>54.86</ele>
        <time>2025-02-07T22:58:52.321Z</time>
      </trkpt>
      <trkpt lat="58.433532966300845" lon="12.743060952052474">
        <ele>54.76</ele>
        <time>2025-02-07T22:59:25.012Z</time>
      </trkpt>
      <trkpt lat="58.433593986555934" lon="12.743185926228762">
        <ele>54.66</ele>
        <time>2025-02-07T22:59:57.704Z</time>
      </trkpt>
      <trkpt lat="58.43365693464875" lon="12.7433099783957">
        <ele>54.56</ele>
        <time>2025-02-07T23:00:30.398Z</time>
      </trkpt>
      <trkpt lat="58.43371896073222" lon="12.74343696422875">
        <ele>54.46</ele>
        <time>2025-02-07T23:01:03.093Z</time>
      </trkpt>
      <trkpt lat="58.43378098681569" lon="12.743564955890179">
        <ele>54.36</ele>
        <time>2025-02-07T23:01:35.789Z</time>
      </trkpt>
      <trkpt lat="58.43384292908013" lon="12.743692947551608">
        <ele>54.26</ele>
        <time>2025-02-07T23:02:08.487Z</time>
      </trkpt>
      <trkpt lat="58.43390696682036" lon="12.743820939213037">
        <ele>54.17</ele>
        <time>2025-02-07T23:02:41.186Z</time>
      </trkpt>
      <trkpt lat="58.43397092074156" lon="12.743949936702847">
        <ele>54.07</ele>
        <time>2025-02-07T23:03:13.887Z</time>
      </trkpt>
      <trkpt lat="58.43403697013855" lon="12.744079940021038">
        <ele>53.98</ele>
        <time>2025-02-07T23:03:46.589Z</time>
      </trkpt>
      <trkpt lat="58.43410092405975" lon="12.74421094916761">
        <ele>53.88</ele>
        <time>2025-02-07T23:04:19.293Z</time>
      </trkpt>
      <trkpt lat="58.43416496179998" lon="12.7443409524858">
        <ele>53.79</ele>
        <time>2025-02-07T23:04:51.998Z</time>
      </trkpt>
      <trkpt lat="58.43422799371183" lon="12.74447095580399">
        <ele>53.7</ele>
        <time>2025-02-07T23:05:24.705Z</time>
      </trkpt>
      <trkpt lat="58.43428993597627" lon="12.74459894746542">
        <ele>53.61</ele>
        <time>2025-02-07T23:05:57.413Z</time>
      </trkpt>
      <trkpt lat="58.434350956231356" lon="12.744724927470088">
        <ele>53.53</ele>
        <time>2025-02-07T23:06:30.123Z</time>
      </trkpt>
      <trkpt lat="58.434411976486444" lon="12.744849985465407">
        <ele>53.45</ele>
        <time>2025-02-07T23:07:02.834Z</time>
      </trkpt>
      <trkpt lat="58.43447391875088" lon="12.744974959641695">
        <ele>53.37</ele>
        <time>2025-02-07T23:07:35.547Z</time>
      </trkpt>
      <trkpt lat="58.43453493900597" lon="12.745101945474744">
        <ele>53.29</ele>
        <time>2025-02-07T23:08:08.261Z</time>
      </trkpt>
      <trkpt lat="58.43459495343268" lon="12.745230942964554">
        <ele>53.21</ele>
        <time>2025-02-07T23:08:40.977Z</time>
      </trkpt>
      <trkpt lat="58.43465597368777" lon="12.745359940454364">
        <ele>53.13</ele>
        <time>2025-02-07T23:09:13.694Z</time>
      </trkpt>
      <trkpt lat="58.434715988114476" lon="12.745487932115793">
        <ele>53.05</ele>
        <time>2025-02-07T23:09:46.413Z</time>
      </trkpt>
      <trkpt lat="58.434777930378914" lon="12.745615923777223">
        <ele>52.97</ele>
        <time>2025-02-07T23:10:19.133Z</time>
      </trkpt>
      <trkpt lat="58.43483794480562" lon="12.745744921267033">
        <ele>52.9</ele>
        <time>2025-02-07T23:10:51.854Z</time>
      </trkpt>
      <trkpt lat="58.43489795923233" lon="12.745875930413604">
        <ele>52.83</ele>
        <time>2025-02-07T23:11:24.577Z</time>
      </trkpt>
      <trkpt lat="58.43495797365904" lon="12.746005933731794">
        <ele>52.76</ele>
        <time>2025-02-07T23:11:57.301Z</time>
      </trkpt>
      <trkpt lat="58.43501999974251" lon="12.746134931221604">
        <ele>52.7</ele>
        <time>2025-02-07T23:12:30.027Z</time>
      </trkpt>
      <trkpt lat="58.435080936178565" lon="12.746263928711414">
        <ele>52.63</ele>
        <time>2025-02-07T23:13:02.754Z</time>
      </trkpt>
      <trkpt lat="58.435141956433654" lon="12.746390998363495">
        <ele>52.57</ele>
        <time>2025-02-07T23:13:35.483Z</time>
      </trkpt>
      <trkpt lat="58.43520197086036" lon="12.746514966711402">
        <ele>52.51</ele>
        <time>2025-02-07T23:14:08.213Z</time>
      </trkpt>
      <trkpt lat="58.43526399694383" lon="12.746636923402548">
        <ele>52.45</ele>
        <time>2025-02-07T23:14:40.945Z</time>
      </trkpt>
      <trkpt lat="58.43532694503665" lon="12.746759969741106">
        <ele>52.39</ele>
        <time>2025-02-07T23:15:13.678Z</time>
      </trkpt>
      <trkpt lat="58.4353899769485" lon="12.746881926432252">
        <ele>52.33</ele>
        <time>2025-02-07T23:15:46.412Z</time>
      </trkpt>
      <trkpt lat="58.43545292504132" lon="12.747002961114049">
        <ele>52.27</ele>
        <time>2025-02-07T23:16:19.148Z</time>
      </trkpt>
      <trkpt lat="58.43551595695317" lon="12.747123995795846">
        <ele>52.22</ele>
        <time>2025-02-07T23:16:51.885Z</time>
      </trkpt>
      <trkpt lat="58.43557898886502" lon="12.74724394083023">
        <ele>52.17</ele>
        <time>2025-02-07T23:17:24.624Z</time>
      </trkpt>
      <trkpt lat="58.435641936957836" lon="12.747364975512028">
        <ele>52.12</ele>
        <time>2025-02-07T23:17:57.364Z</time>
      </trkpt>
      <trkpt lat="58.435702957212925" lon="12.747486932203174">
        <ele>52.07</ele>
        <time>2025-02-07T23:18:30.106Z</time>
      </trkpt>
      <trkpt lat="58.43575995415449" lon="12.747610984370112">
        <ele>52.03</ele>
        <time>2025-02-07T23:19:02.849Z</time>
      </trkpt>
      <trkpt lat="58.43581695109606" lon="12.7477359585464">
        <ele>51.98</ele>
        <time>2025-02-07T23:19:35.593Z</time>
      </trkpt>
      <trkpt lat="58.43587193638086" lon="12.747860932722688">
        <ele>51.94</ele>
        <time>2025-02-07T23:20:08.339Z</time>
      </trkpt>
      <trkpt lat="58.43592499382794" lon="12.747988924384117">
        <ele>51.9</ele>
        <time>2025-02-07T23:20:41.086Z</time>
      </trkpt>
      <trkpt lat="58.4359769616276" lon="12.748117921873927">
        <ele>51.86</ele>
        <time>2025-02-07T23:21:13.835Z</time>
      </trkpt>
      <trkpt lat="58.436027923598886" lon="12.748247925192118">
        <ele>51.82</ele>
        <time>2025-02-07T23:21:46.585Z</time>
      </trkpt>
      <trkpt lat="58.4360789693892" lon="12.748377928510308">
        <ele>51.79</ele>
        <time>2025-02-07T23:22:19.336Z</time>
      </trkpt>
      <trkpt lat="58.4361289255321" lon="12.74850994348526">
        <ele>51.76</ele>
        <time>2025-02-07T23:22:52.089Z</time>
      </trkpt>
      <trkpt lat="58.43617997132242" lon="12.748642964288592">
        <ele>51.73</ele>
        <time>2025-02-07T23:23:24.843Z</time>
      </trkpt>
      <trkpt lat="58.43623193912208" lon="12.748775985091925">
        <ele>51.7</ele>
        <time>2025-02-07T23:23:57.598Z</time>
      </trkpt>
      <trkpt lat="58.436282984912395" lon="12.748908922076225">
        <ele>51.67</ele>
        <time>2025-02-07T23:24:30.355Z</time>
      </trkpt>
      <trkpt lat="58.4363329410553" lon="12.749038925394416">
        <ele>51.64</ele>
        <time>2025-02-07T23:25:03.113Z</time>
      </trkpt>
      <trkpt lat="58.43638398684561" lon="12.749168928712606">
        <ele>51.62</ele>
        <time>2025-02-07T23:25:35.873Z</time>
      </trkpt>
      <trkpt lat="58.436433942988515" lon="12.749296920374036">
        <ele>51.6</ele>
        <time>2025-02-07T23:26:08.634Z</time>
      </trkpt>
      <trkpt lat="58.43648297712207" lon="12.749425917863846">
        <ele>51.57</ele>
        <time>2025-02-07T23:26:41.396Z</time>
      </trkpt>
      <trkpt lat="58.43653192743659" lon="12.749554999172688">
        <ele>51.55</ele>
        <time>2025-02-07T23:27:14.160Z</time>
      </trkpt>
      <trkpt lat="58.436580961570144" lon="12.749684918671846">
        <ele>51.54</ele>
        <time>2025-02-07T23:27:46.925Z</time>
      </trkpt>
      <trkpt lat="58.436630917713046" lon="12.749814921990037">
        <ele>51.52</ele>
        <time>2025-02-07T23:28:19.691Z</time>
      </trkpt>
      <trkpt lat="58.4366799518466" lon="12.749944925308228">
        <ele>51.51</ele>
        <time>2025-02-07T23:28:52.459Z</time>
      </trkpt>
      <trkpt lat="58.436730997636914" lon="12.750075934454799">
        <ele>51.49</ele>
        <time>2025-02-07T23:29:25.228Z</time>
      </trkpt>
      <trkpt lat="58.43678095377982" lon="12.75020593777299">
        <ele>51.48</ele>
        <time>2025-02-07T23:29:57.998Z</time>
      </trkpt>
      <trkpt lat="58.43683199957013" lon="12.7503349352628">
        <ele>51.47</ele>
        <time>2025-02-07T23:30:30.770Z</time>
      </trkpt>
      <trkpt lat="58.436882961541414" lon="12.75046393275261">
        <ele>51.46</ele>
        <time>2025-02-07T23:31:03.543Z</time>
      </trkpt>
      <trkpt lat="58.43693492934108" lon="12.75059293024242">
        <ele>51.46</ele>
        <time>2025-02-07T23:31:36.317Z</time>
      </trkpt>
      <trkpt lat="58.43698496930301" lon="12.750720921903849">
        <ele>51.45</ele>
        <time>2025-02-07T23:32:09.093Z</time>
      </trkpt>
      <trkpt lat="58.437034925445914" lon="12.750846985727549">
        <ele>51.45</ele>
        <time>2025-02-07T23:32:41.870Z</time>
      </trkpt>
      <trkpt lat="58.43708496540785" lon="12.750970954075456">
        <ele>51.44</ele>
        <time>2025-02-07T23:33:14.648Z</time>
      </trkpt>
      <trkpt lat="58.43713592737913" lon="12.751092994585633">
        <ele>51.44</ele>
        <time>2025-02-07T23:33:47.428Z</time>
      </trkpt>
      <trkpt lat="58.437186973169446" lon="12.751213945448399">
        <ele>51.44</ele>
        <time>2025-02-07T23:34:20.209Z</time>
      </trkpt>
      <trkpt lat="58.43723692931235" lon="12.751333974301815">
        <ele>51.44</ele>
        <time>2025-02-07T23:34:52.991Z</time>
      </trkpt>
      <trkpt lat="58.43728797510266" lon="12.751452997326851">
        <ele>51.45</ele>
        <time>2025-02-07T23:35:25.775Z</time>
      </trkpt>
      <trkpt lat="58.437336925417185" lon="12.751572942361236">
        <ele>51.45</ele>
        <time>2025-02-07T23:35:58.560Z</time>
      </trkpt>
      <trkpt lat="58.43738696537912" lon="12.751695988699794">
        <ele>51.45</ele>
        <time>2025-02-07T23:36:31.346Z</time>
      </trkpt>
      <trkpt lat="58.4374379273504" lon="12.75181794539094">
        <ele>51.46</ele>
        <time>2025-02-07T23:37:04.134Z</time>
      </trkpt>
      <trkpt lat="58.437486961483955" lon="12.751940991729498">
        <ele>51.47</ele>
        <time>2025-02-07T23:37:36.923Z</time>
      </trkpt>
      <trkpt lat="58.43753599561751" lon="12.752062948420644">
        <ele>51.48</ele>
        <time>2025-02-07T23:38:09.713Z</time>
      </trkpt>
      <trkpt lat="58.43758494593203" lon="12.75218398310244">
        <ele>51.49</ele>
        <time>2025-02-07T23:38:42.504Z</time>
      </trkpt>
      <trkpt lat="58.437633980065584" lon="12.752306945621967">
        <ele>51.5</ele>
        <time>2025-02-07T23:39:15.297Z</time>
      </trkpt>
      <trkpt lat="58.437682930380106" lon="12.752431919798255">
        <ele>51.51</ele>
        <time>2025-02-07T23:39:48.091Z</time>
      </trkpt>
      <trkpt lat="58.43773095868528" lon="12.752561923116446">
        <ele>51.52</ele>
        <time>2025-02-07T23:40:20.886Z</time>
      </trkpt>
      <trkpt lat="58.43777697533369" lon="12.752695949748158">
        <ele>51.53</ele>
        <time>2025-02-07T23:40:53.683Z</time>
      </trkpt>
      <trkpt lat="58.43782198615372" lon="12.752829976379871">
        <ele>51.55</ele>
        <time>2025-02-07T23:41:26.481Z</time>
      </trkpt>
      <trkpt lat="58.43786498531699" lon="12.752965930849314">
        <ele>51.57</ele>
        <time>2025-02-07T23:41:59.280Z</time>
      </trkpt>
      <trkpt lat="58.43790396116674" lon="12.753102974966168">
        <ele>51.58</ele>
        <time>2025-02-07T23:42:32.081Z</time>
      </trkpt>
      <trkpt lat="58.43794193118811" lon="12.753239935263991">
        <ele>51.6</ele>
        <time>2025-02-07T23:43:04.883Z</time>
      </trkpt>
      <trkpt lat="58.437979985028505" lon="12.753376979380846">
        <ele>51.62</ele>
        <time>2025-02-07T23:43:37.686Z</time>
      </trkpt>
      <trkpt lat="58.43801896087825" lon="12.753513939678669">
        <ele>51.64</ele>
        <time>2025-02-07T23:44:10.491Z</time>
      </trkpt>
      <trkpt lat="58.43805994838476" lon="12.753649977967143">
        <ele>51.67</ele>
        <time>2025-02-07T23:44:43.297Z</time>
      </trkpt>
      <trkpt lat="58.43810294754803" lon="12.753785932436585">
        <ele>51.69</ele>
        <time>2025-02-07T23:45:16.104Z</time>
      </trkpt>
      <trkpt lat="58.4381459467113" lon="12.753919959068298">
        <ele>51.71</ele>
        <time>2025-02-07T23:45:48.913Z</time>
      </trkpt>
      <trkpt lat="58.43819095753133" lon="12.754055997356772">
        <ele>51.73</ele>
        <time>2025-02-07T23:46:21.723Z</time>
      </trkpt>
      <trkpt lat="58.438235968351364" lon="12.754192957654595">
        <ele>51.76</ele>
        <time>2025-02-07T23:46:54.534Z</time>
      </trkpt>
      <trkpt lat="58.438280979171395" lon="12.754329917952418">
        <ele>51.78</ele>
        <time>2025-02-07T23:47:27.347Z</time>
      </trkpt>
      <trkpt lat="58.438327917829156" lon="12.754465956240892">
        <ele>51.8</ele>
        <time>2025-02-07T23:48:00.161Z</time>
      </trkpt>
      <trkpt lat="58.43837494030595" lon="12.754600988700986">
        <ele>51.83</ele>
        <time>2025-02-07T23:48:32.976Z</time>
      </trkpt>
      <trkpt lat="58.43842196278274" lon="12.754732919856906">
        <ele>51.85</ele>
        <time>2025-02-07T23:49:05.793Z</time>
      </trkpt>
      <trkpt lat="58.43846999108791" lon="12.754864934831858">
        <ele>51.88</ele>
        <time>2025-02-07T23:49:38.611Z</time>
      </trkpt>
      <trkpt lat="58.438516929745674" lon="12.754995943978429">
        <ele>51.9</ele>
        <time>2025-02-07T23:50:11.430Z</time>
      </trkpt>
      <trkpt lat="58.43856395222247" lon="12.755126953125">
        <ele>51.93</ele>
        <time>2025-02-07T23:50:44.251Z</time>
      </trkpt>
      <trkpt lat="58.43861097469926" lon="12.755258968099952">
        <ele>51.95</ele>
        <time>2025-02-07T23:51:17.073Z</time>
      </trkpt>
      <trkpt lat="58.43865598551929" lon="12.755390983074903">
        <ele>51.98</ele>
        <time>2025-02-07T23:51:49.896Z</time>
      </trkpt>
      <trkpt lat="58.43869999051094" lon="12.755523920059204">
        <ele>52.0</ele>
        <time>2025-02-07T23:52:22.721Z</time>
      </trkpt>
      <trkpt lat="58.43874298967421" lon="12.755656940862536">
        <ele>52.03</ele>
        <time>2025-02-07T23:52:55.547Z</time>
      </trkpt>
      <trkpt lat="58.4387849830091" lon="12.755789961665869">
        <ele>52.06</ele>
        <time>2025-02-07T23:53:28.374Z</time>
      </trkpt>
      <trkpt lat="58.43882597051561" lon="12.755923988297582">
        <ele>52.08</ele>
        <time>2025-02-07T23:54:01.203Z</time>
      </trkpt>
      <trkpt lat="58.438864946365356" lon="12.756058936938643">
        <ele>52.11</ele>
        <time>2025-02-07T23:54:34.033Z</time>
      </trkpt>
      <trkpt lat="58.438903922215104" lon="12.756194975227118">
        <ele>52.14</ele>
        <time>2025-02-07T23:55:06.864Z</time>
      </trkpt>
      <trkpt lat="58.4389419760555" lon="12.75633193552494">
        <ele>52.17</ele>
        <time>2025-02-07T23:55:39.697Z</time>
      </trkpt>
      <trkpt lat="58.43897994607687" lon="12.756468979641795">
        <ele>52.19</ele>
        <time>2025-02-07T23:56:12.531Z</time>
      </trkpt>
      <trkpt lat="58.43901892192662" lon="12.756605939939618">
        <ele>52.22</ele>
        <time>2025-02-07T23:56:45.366Z</time>
      </trkpt>
      <trkpt lat="58.43905898742378" lon="12.756740972399712">
        <ele>52.25</ele>
        <time>2025-02-07T23:57:18.202Z</time>
      </trkpt>
      <trkpt lat="58.439098969101906" lon="12.756874999031425">
        <ele>52.27</ele>
        <time>2025-02-07T23:57:51.040Z</time>
      </trkpt>
      <trkpt lat="58.43913794495165" lon="12.757007936015725">
        <ele>52.3</ele>
        <time>2025-02-07T23:58:23.879Z</time>
      </trkpt>
      <trkpt lat="58.43917893245816" lon="12.757141962647438">
        <ele>52.33</ele>
        <time>2025-02-07T23:58:56.719Z</time>
      </trkpt>
      <trkpt lat="58.43921899795532" lon="12.757275989279151">
        <ele>52.36</ele>
        <time>2025-02-07T23:59:29.561Z</time>
      </trkpt>
      <trkpt lat="58.43925998546183" lon="12.757410937920213">
        <ele>52.39</ele>
        <time>2025-02-08T00:00:02.404Z</time>
      </trkpt>
      <trkpt lat="58.43929996713996" lon="12.757546976208687">
        <ele>52.42</ele>
        <time>2025-02-08T00:00:35.248Z</time>
      </trkpt>
      <trkpt lat="58.43933994881809" lon="12.75768393650651">
        <ele>52.45</ele>
        <time>2025-02-08T00:01:08.094Z</time>
      </trkpt>
      <trkpt lat="58.439378924667835" lon="12.757820980623364">
        <ele>52.48</ele>
        <time>2025-02-08T00:01:40.941Z</time>
      </trkpt>
      <trkpt lat="58.43941597267985" lon="12.757957940921187">
        <ele>52.51</ele>
        <time>2025-02-08T00:02:13.789Z</time>
      </trkpt>
      <trkpt lat="58.4394499193877" lon="12.758093979209661">
        <ele>52.54</ele>
        <time>2025-02-08T00:02:46.638Z</time>
      </trkpt>
      <trkpt lat="58.43947892077267" lon="12.758227922022343">
        <ele>52.57</ele>
        <time>2025-02-08T00:03:19.489Z</time>
      </trkpt>
      <trkpt lat="58.439504988491535" lon="12.758358931168914">
        <ele>52.6</ele>
        <time>2025-02-08T00:03:52.341Z</time>
      </trkpt>
      <trkpt lat="58.439527954906225" lon="12.758491951972246">
        <ele>52.63</ele>
        <time>2025-02-08T00:04:25.194Z</time>
      </trkpt>
      <trkpt lat="58.439548993483186" lon="12.758624972775578">
        <ele>52.65</ele>
        <time>2025-02-08T00:04:58.048Z</time>
      </trkpt>
      <trkpt lat="58.439571959897876" lon="12.75875799357891">
        <ele>52.67</ele>
        <time>2025-02-08T00:05:30.903Z</time>
      </trkpt>
      <trkpt lat="58.439593920484185" lon="12.758893948048353">
        <ele>52.69</ele>
        <time>2025-02-08T00:06:03.760Z</time>
      </trkpt>
      <trkpt lat="58.439613953232765" lon="12.759027974680066">
        <ele>52.71</ele>
        <time>2025-02-08T00:06:36.618Z</time>
      </trkpt>
      <trkpt lat="58.439631974324584" lon="12.759160995483398">
        <ele>52.74</ele>
        <time>2025-02-08T00:07:09.477Z</time>
      </trkpt>
      <trkpt lat="58.4396499954164" lon="12.75929493829608">
        <ele>52.75</ele>
        <time>2025-02-08T00:07:42.337Z</time>
      </trkpt>
      <trkpt lat="58.43966893851757" lon="12.759427959099412">
        <ele>52.77</ele>
        <time>2025-02-08T00:08:15.198Z</time>
      </trkpt>
      <trkpt lat="58.43969098292291" lon="12.759564919397235">
        <ele>52.78</ele>
        <time>2025-02-08T00:08:48.060Z</time>
      </trkpt>
      <trkpt lat="58.43971294350922" lon="12.759706992655993">
        <ele>52.8</ele>
        <time>2025-02-08T00:09:20.924Z</time>
      </trkpt>
      <trkpt lat="58.43973599374294" lon="12.75985099375248">
        <ele>52.81</ele>
        <time>2025-02-08T00:09:53.789Z</time>
      </trkpt>
      <trkpt lat="58.43975996598601" lon="12.759993989020586">
        <ele>52.83</ele>
        <time>2025-02-08T00:10:26.655Z</time>
      </trkpt>
      <trkpt lat="58.439785949885845" lon="12.760134972631931">
        <ele>52.85</ele>
        <time>2025-02-08T00:10:59.522Z</time>
      </trkpt>
      <trkpt lat="58.439810927957296" lon="12.760275956243277">
        <ele>52.86</ele>
        <time>2025-02-08T00:11:32.391Z</time>
      </trkpt>
      <trkpt lat="58.43983598984778" lon="12.760415934026241">
        <ele>52.87</ele>
        <time>2025-02-08T00:12:05.261Z</time>
      </trkpt>
      <trkpt lat="58.43986197374761" lon="12.760552978143096">
        <ele>52.89</ele>
        <time>2025-02-08T00:12:38.132Z</time>
      </trkpt>
      <trkpt lat="58.439889969304204" lon="12.760686920955777">
        <ele>52.9</ele>
        <time>2025-02-08T00:13:11.004Z</time>
      </trkpt>
      <trkpt lat="58.43991997651756" lon="12.760817930102348">
        <ele>52.92</ele>
        <time>2025-02-08T00:13:43.878Z</time>
      </trkpt>
      <trkpt lat="58.43995098955929" lon="12.76094893924892">
        <ele>52.93</ele>
        <time>2025-02-08T00:14:16.753Z</time>
      </trkpt>
      <trkpt lat="58.43998594209552" lon="12.761080954223871">
        <ele>52.95</ele>
        <time>2025-02-08T00:14:49.629Z</time>
      </trkpt>
      <trkpt lat="58.44002399593592" lon="12.761214980855584">
        <ele>52.96</ele>
        <time>2025-02-08T00:15:22.506Z</time>
      </trkpt>
      <trkpt lat="58.440063977614045" lon="12.761349929496646">
        <ele>52.97</ele>
        <time>2025-02-08T00:15:55.385Z</time>
      </trkpt>
      <trkpt lat="58.440106976777315" lon="12.761483956128359">
        <ele>52.99</ele>
        <time>2025-02-08T00:16:28.265Z</time>
      </trkpt>
      <trkpt lat="58.440150981768966" lon="12.761612953618169">
        <ele>53.0</ele>
        <time>2025-02-08T00:17:01.146Z</time>
      </trkpt>
      <trkpt lat="58.440194986760616" lon="12.761740945279598">
        <ele>53.01</ele>
        <time>2025-02-08T00:17:34.029Z</time>
      </trkpt>
      <trkpt lat="58.440240919589996" lon="12.761867931112647">
        <ele>53.02</ele>
        <time>2025-02-08T00:18:06.913Z</time>
      </trkpt>
      <trkpt lat="58.44028894789517" lon="12.761992989107966">
        <ele>53.04</ele>
        <time>2025-02-08T00:18:39.798Z</time>
      </trkpt>
      <trkpt lat="58.44033697620034" lon="12.762116957455873">
        <ele>53.05</ele>
        <time>2025-02-08T00:19:12.684Z</time>
      </trkpt>
      <trkpt lat="58.440386932343245" lon="12.7622399199754">
        <ele>53.06</ele>
        <time>2025-02-08T00:19:45.572Z</time>
      </trkpt>
      <trkpt lat="58.44043898396194" lon="12.762359948828816">
        <ele>53.07</ele>
        <time>2025-02-08T00:20:18.461Z</time>
      </trkpt>
      <trkpt lat="58.44048994593322" lon="12.762478971853852">
        <ele>53.08</ele>
        <time>2025-02-08T00:20:51.351Z</time>
      </trkpt>
      <trkpt lat="58.44054199755192" lon="12.762596989050508">
        <ele>53.09</ele>
        <time>2025-02-08T00:21:24.243Z</time>
      </trkpt>
      <trkpt lat="58.44059396535158" lon="12.76270997710526">
        <ele>53.1</ele>
        <time>2025-02-08T00:21:57.136Z</time>
      </trkpt>
      <trkpt lat="58.440645933151245" lon="12.762820953503251">
        <ele>53.11</ele>
        <time>2025-02-08T00:22:30.030Z</time>
      </trkpt>
      <trkpt lat="58.44069899059832" lon="12.762929918244481">
        <ele>53.12</ele>
        <time>2025-02-08T00:23:02.925Z</time>
      </trkpt>
      <trkpt lat="58.440749952569604" lon="12.763036955147982">
        <ele>53.13</ele>
        <time>2025-02-08T00:23:35.822Z</time>
      </trkpt>
      <trkpt lat="58.44079999253154" lon="12.76313896290958">
        <ele>53.14</ele>
        <time>2025-02-08T00:24:08.720Z</time>
      </trkpt>
      <trkpt lat="58.44084793701768" lon="12.763234935700893">
        <ele>53.15</ele>
        <time>2025-02-08T00:24:41.619Z</time>
      </trkpt>
      <trkpt lat="58.44089495949447" lon="12.763328980654478">
        <ele>53.16</ele>
        <time>2025-02-08T00:25:14.519Z</time>
      </trkpt>
      <trkpt lat="58.4409399703145" lon="12.763422941789031">
        <ele>53.16</ele>
        <time>2025-02-08T00:25:47.420Z</time>
      </trkpt>
      <trkpt lat="58.44098397530615" lon="12.763519920408726">
        <ele>53.17</ele>
        <time>2025-02-08T00:26:20.322Z</time>
      </trkpt>
      <trkpt lat="58.441028986126184" lon="12.763622933998704">
        <ele>53.18</ele>
        <time>2025-02-08T00:26:53.225Z</time>
      </trkpt>
      <trkpt lat="58.441074918955564" lon="12.763730976730585">
        <ele>53.19</ele>
        <time>2025-02-08T00:27:26.129Z</time>
      </trkpt>
      <trkpt lat="58.441120935603976" lon="12.763842958956957">
        <ele>53.2</ele>
        <time>2025-02-08T00:27:59.035Z</time>
      </trkpt>
      <trkpt lat="58.44116594642401" lon="12.76395795866847">
        <ele>53.2</ele>
        <time>2025-02-08T00:28:31.942Z</time>
      </trkpt>
      <trkpt lat="58.44121095724404" lon="12.764077987521887">
        <ele>53.21</ele>
        <time>2025-02-08T00:29:04.850Z</time>
      </trkpt>
      <trkpt lat="58.44125697389245" lon="12.764200950041413">
        <ele>53.22</ele>
        <time>2025-02-08T00:29:37.759Z</time>
      </trkpt>
      <trkpt lat="58.44130299054086" lon="12.76432491838932">
        <ele>53.22</ele>
        <time>2025-02-08T00:30:10.670Z</time>
      </trkpt>
      <trkpt lat="58.44134892337024" lon="12.76444997638464">
        <ele>53.23</ele>
        <time>2025-02-08T00:30:43.582Z</time>
      </trkpt>
      <trkpt lat="58.44139393419027" lon="12.764573944732547">
        <ele>53.24</ele>
        <time>2025-02-08T00:31:16.495Z</time>
      </trkpt>
      <trkpt lat="58.44143693335354" lon="12.764697996899486">
        <ele>53.24</ele>
        <time>2025-02-08T00:31:49.409Z</time>
      </trkpt>
      <trkpt lat="58.44147792086005" lon="12.764821965247393">
        <ele>53.25</ele>
        <time>2025-02-08T00:32:22.325Z</time>
      </trkpt>
      <trkpt lat="58.44151899218559" lon="12.764941994100809">
        <ele>53.26</ele>
        <time>2025-02-08T00:32:55.242Z</time>
      </trkpt>
      <trkpt lat="58.44156098552048" lon="12.765056993812323">
        <ele>53.27</ele>
        <time>2025-02-08T00:33:28.160Z</time>
      </trkpt>
      <trkpt lat="58.44160398468375" lon="12.765171993523836">
        <ele>53.28</ele>
        <time>2025-02-08T00:34:01.079Z</time>
      </trkpt>
      <trkpt lat="58.4416479896754" lon="12.76528799906373">
        <ele>53.28</ele>
        <time>2025-02-08T00:34:33.999Z</time>
      </trkpt>
      <trkpt lat="58.44169199466705" lon="12.765406938269734">
        <ele>53.29</ele>
        <time>2025-02-08T00:35:06.921Z</time>
      </trkpt>
      <trkpt lat="58.44173692166805" lon="12.765528978779912">
        <ele>53.3</ele>
        <time>2025-02-08T00:35:39.844Z</time>
      </trkpt>
      <trkpt lat="58.441782938316464" lon="12.765651941299438">
        <ele>53.31</ele>
        <time>2025-02-08T00:36:12.768Z</time>
      </trkpt>
      <trkpt lat="58.441827949136496" lon="12.765774987637997">
        <ele>53.32</ele>
        <time>2025-02-08T00:36:45.693Z</time>
      </trkpt>
      <trkpt lat="58.44187295995653" lon="12.765896944329143">
        <ele>53.33</ele>
        <time>2025-02-08T00:37:18.620Z</time>
      </trkpt>
      <trkpt lat="58.44191897660494" lon="12.7660199906677">
        <ele>53.34</ele>
        <time>2025-02-08T00:37:51.548Z</time>
      </trkpt>
      <trkpt lat="58.44196398742497" lon="12.766142953187227">
        <ele>53.35</ele>
        <time>2025-02-08T00:38:24.477Z</time>
      </trkpt>
      <trkpt lat="58.442008998245" lon="12.766268933191895">
        <ele>53.37</ele>
        <time>2025-02-08T00:38:57.408Z</time>
      </trkpt>
      <trkpt lat="58.442053925246" lon="12.766392985358834">
        <ele>53.38</ele>
        <time>2025-02-08T00:39:30.340Z</time>
      </trkpt>
      <trkpt lat="58.44209893606603" lon="12.76651494204998">
        <ele>53.4</ele>
        <time>2025-02-08T00:40:03.273Z</time>
      </trkpt>
      <trkpt lat="58.44214294105768" lon="12.766635976731777">
        <ele>53.42</ele>
        <time>2025-02-08T00:40:36.207Z</time>
      </trkpt>
      <trkpt lat="58.44218594022095" lon="12.766754999756813">
        <ele>53.43</ele>
        <time>2025-02-08T00:41:09.143Z</time>
      </trkpt>
      <trkpt lat="58.44222893938422" lon="12.766871927306056">
        <ele>53.45</ele>
        <time>2025-02-08T00:41:42.080Z</time>
      </trkpt>
      <trkpt lat="58.44227093271911" lon="12.76698499917984">
        <ele>53.47</ele>
        <time>2025-02-08T00:42:15.018Z</time>
      </trkpt>
      <trkpt lat="58.44231192022562" lon="12.767098993062973">
        <ele>53.49</ele>
        <time>2025-02-08T00:42:47.957Z</time>
      </trkpt>
      <trkpt lat="58.44235198572278" lon="12.767211981117725">
        <ele>53.5</ele>
        <time>2025-02-08T00:43:20.897Z</time>
      </trkpt>
      <trkpt lat="58.44239096157253" lon="12.767322957515717">
        <ele>53.52</ele>
        <time>2025-02-08T00:43:53.838Z</time>
      </trkpt>
      <trkpt lat="58.442430943250656" lon="12.767433933913708">
        <ele>53.54</ele>
        <time>2025-02-08T00:44:26.780Z</time>
      </trkpt>
      <trkpt lat="58.442470924928784" lon="12.76754398830235">
        <ele>53.56</ele>
        <time>2025-02-08T00:44:59.724Z</time>
      </trkpt>
      <trkpt lat="58.442511996254325" lon="12.76765395887196">
        <ele>53.58</ele>
        <time>2025-02-08T00:45:32.669Z</time>
      </trkpt>
      <trkpt lat="58.44255197793245" lon="12.767764935269952">
        <ele>53.6</ele>
        <time>2025-02-08T00:46:05.615Z</time>
      </trkpt>
      <trkpt lat="58.44259296543896" lon="12.767876917496324">
        <ele>53.63</ele>
        <time>2025-02-08T00:46:38.562Z</time>
      </trkpt>
      <trkpt lat="58.44263294711709" lon="12.767988983541727">
        <ele>53.65</ele>
        <time>2025-02-08T00:47:11.510Z</time>
      </trkpt>
      <trkpt lat="58.44267192296684" lon="12.76810197159648">
        <ele>53.67</ele>
        <time>2025-02-08T00:47:44.459Z</time>
      </trkpt>
      <trkpt lat="58.44271098263562" lon="12.768215965479612">
        <ele>53.69</ele>
        <time>2025-02-08T00:48:17.409Z</time>
      </trkpt>
      <trkpt lat="58.442750964313745" lon="12.768327947705984">
        <ele>53.72</ele>
        <time>2025-02-08T00:48:50.361Z</time>
      </trkpt>
      <trkpt lat="58.442790945991874" lon="12.768440935760736">
        <ele>53.74</ele>
        <time>2025-02-08T00:49:23.314Z</time>
      </trkpt>
      <trkpt lat="58.44282992184162" lon="12.76855199597776">
        <ele>53.76</ele>
        <time>2025-02-08T00:49:56.268Z</time>
      </trkpt>
      <trkpt lat="58.44286998733878" lon="12.76866096071899">
        <ele>53.79</ele>
        <time>2025-02-08T00:50:29.223Z</time>
      </trkpt>
      <trkpt lat="58.44290896318853" lon="12.768765985965729">
        <ele>53.81</ele>
        <time>2025-02-08T00:51:02.179Z</time>
      </trkpt>
      <trkpt lat="58.442945927381516" lon="12.768870927393436">
        <ele>53.84</ele>
        <time>2025-02-08T00:51:35.136Z</time>
      </trkpt>
      <trkpt lat="58.442983981221914" lon="12.768974946811795">
        <ele>53.87</ele>
        <time>2025-02-08T00:52:08.094Z</time>
      </trkpt>
      <trkpt lat="58.44302195124328" lon="12.769082989543676">
        <ele>53.9</ele>
        <time>2025-02-08T00:52:41.053Z</time>
      </trkpt>
      <trkpt lat="58.44306193292141" lon="12.769190948456526">
        <ele>53.92</ele>
        <time>2025-02-08T00:53:14.013Z</time>
      </trkpt>
      <trkpt lat="58.44310199841857" lon="12.769300919026136">
        <ele>53.95</ele>
        <time>2025-02-08T00:53:46.974Z</time>
      </trkpt>
      <trkpt lat="58.44314298592508" lon="12.76941197924316">
        <ele>53.97</ele>
        <time>2025-02-08T00:54:19.937Z</time>
      </trkpt>
      <trkpt lat="58.44318497925997" lon="12.769523961469531">
        <ele>54.0</ele>
        <time>2025-02-08T00:54:52.901Z</time>
      </trkpt>
      <trkpt lat="58.44322697259486" lon="12.769637955352664">
        <ele>54.03</ele>
        <time>2025-02-08T00:55:25.866Z</time>
      </trkpt>
      <trkpt lat="58.44326997175813" lon="12.769750943407416">
        <ele>54.06</ele>
        <time>2025-02-08T00:55:58.832Z</time>
      </trkpt>
      <trkpt lat="58.44331397674978" lon="12.76986493729055">
        <ele>54.08</ele>
        <time>2025-02-08T00:56:31.799Z</time>
      </trkpt>
      <trkpt lat="58.44335999339819" lon="12.769973985850811">
        <ele>54.1</ele>
        <time>2025-02-08T00:57:04.767Z</time>
      </trkpt>
      <trkpt lat="58.44340793788433" lon="12.77008093893528">
        <ele>54.13</ele>
        <time>2025-02-08T00:57:37.737Z</time>
      </trkpt>
      <trkpt lat="58.443456972017884" lon="12.77018596418202">
        <ele>54.16</ele>
        <time>2025-02-08T00:58:10.708Z</time>
      </trkpt>
      <trkpt lat="58.44350692816079" lon="12.770288977771997">
        <ele>54.19</ele>
        <time>2025-02-08T00:58:43.680Z</time>
      </trkpt>
      <trkpt lat="58.4435579739511" lon="12.770388973876834">
        <ele>54.22</ele>
        <time>2025-02-08T00:59:16.653Z</time>
      </trkpt>
      <trkpt lat="58.443609941750765" lon="12.77048796415329">
        <ele>54.25</ele>
        <time>2025-02-08T00:59:49.627Z</time>
      </trkpt>
      <trkpt lat="58.44366392120719" lon="12.770584942772985">
        <ele>54.28</ele>
        <time>2025-02-08T01:00:22.603Z</time>
      </trkpt>
      <trkpt lat="58.44371999613941" lon="12.77068192139268">
        <ele>54.32</ele>
        <time>2025-02-08T01:00:55.580Z</time>
      </trkpt>
      <trkpt lat="58.443776993080974" lon="12.770776972174644">
        <ele>54.35</ele>
        <time>2025-02-08T01:01:28.558Z</time>
      </trkpt>
      <trkpt lat="58.44383692368865" lon="12.770871939137578">
        <ele>54.39</ele>
        <time>2025-02-08T01:02:01.537Z</time>
      </trkpt>
      <trkpt lat="58.4438999556005" lon="12.770965984091163">
        <ele>54.43</ele>
        <time>2025-02-08T01:02:34.518Z</time>
      </trkpt>
      <trkpt lat="58.44396399334073" lon="12.771053994074464">
        <ele>54.46</ele>
        <time>2025-02-08T01:03:07.500Z</time>
      </trkpt>
      <trkpt lat="58.44402895309031" lon="12.771139992401004">
        <ele>54.5</ele>
        <time>2025-02-08T01:03:40.483Z</time>
      </trkpt>
      <trkpt lat="58.44409399665892" lon="12.771220961585641">
        <ele>54.54</ele>
        <time>2025-02-08T01:04:13.467Z</time>
      </trkpt>
      <trkpt lat="58.44416096806526" lon="12.771300924941897">
        <ele>54.58</ele>
        <time>2025-02-08T01:04:46.453Z</time>
      </trkpt>
      <trkpt lat="58.44422894529998" lon="12.771376948803663">
        <ele>54.62</ele>
        <time>2025-02-08T01:05:19.440Z</time>
      </trkpt>
      <trkpt lat="58.444295916706324" lon="12.771450961008668">
        <ele>54.66</ele>
        <time>2025-02-08T01:05:52.428Z</time>
      </trkpt>
      <trkpt lat="58.444362971931696" lon="12.771522961556911">
        <ele>54.69</ele>
        <time>2025-02-08T01:06:25.417Z</time>
      </trkpt>
      <trkpt lat="58.44442994333804" lon="12.771594962105155">
        <ele>54.73</ele>
        <time>2025-02-08T01:06:58.408Z</time>
      </trkpt>
      <trkpt lat="58.44449599273503" lon="12.771666962653399">
        <ele>54.76</ele>
        <time>2025-02-08T01:07:31.400Z</time>
      </trkpt>
      <trkpt lat="58.44456195831299" lon="12.771739969030023">
        <ele>54.8</ele>
        <time>2025-02-08T01:08:04.393Z</time>
      </trkpt>
      <trkpt lat="58.44462993554771" lon="12.771811969578266">
        <ele>54.84</ele>
        <time>2025-02-08T01:08:37.387Z</time>
      </trkpt>
      <trkpt lat="58.44469699077308" lon="12.77188397012651">
        <ele>54.87</ele>
        <time>2025-02-08T01:09:10.382Z</time>
      </trkpt>
      <trkpt lat="58.44476396217942" lon="12.771956976503134">
        <ele>54.91</ele>
        <time>2025-02-08T01:09:43.379Z</time>
      </trkpt>
      <trkpt lat="58.44482992775738" lon="12.772029982879758">
        <ele>54.95</ele>
        <time>2025-02-08T01:10:16.377Z</time>
      </trkpt>
      <trkpt lat="58.444895977154374" lon="12.772103995084763">
        <ele>54.99</ele>
        <time>2025-02-08T01:10:49.376Z</time>
      </trkpt>
      <trkpt lat="58.444961942732334" lon="12.772179935127497">
        <ele>55.03</ele>
        <time>2025-02-08T01:11:22.376Z</time>
      </trkpt>
      <trkpt lat="58.445027992129326" lon="12.772254953160882">
        <ele>55.06</ele>
        <time>2025-02-08T01:11:55.378Z</time>
      </trkpt>
      <trkpt lat="58.44509496353567" lon="12.772330977022648">
        <ele>55.1</ele>
        <time>2025-02-08T01:12:28.381Z</time>
      </trkpt>
      <trkpt lat="58.44516394659877" lon="12.772407922893763">
        <ele>55.14</ele>
        <time>2025-02-08T01:13:01.385Z</time>
      </trkpt>
      <trkpt lat="58.44523192383349" lon="12.77248595841229">
        <ele>55.19</ele>
        <time>2025-02-08T01:13:34.390Z</time>
      </trkpt>
      <trkpt lat="58.445301996544" lon="12.772565921768546">
        <ele>55.23</ele>
        <time>2025-02-08T01:14:07.397Z</time>
      </trkpt>
      <trkpt lat="58.445369973778725" lon="12.772647980600595">
        <ele>55.27</ele>
        <time>2025-02-08T01:14:40.405Z</time>
      </trkpt>
      <trkpt lat="58.445437951013446" lon="12.772732973098755">
        <ele>55.31</ele>
        <time>2025-02-08T01:15:13.414Z</time>
      </trkpt>
      <trkpt lat="58.44550492241979" lon="12.772818971425295">
        <ele>55.36</ele>
        <time>2025-02-08T01:15:46.425Z</time>
      </trkpt>
      <trkpt lat="58.4455699659884" lon="12.772903963923454">
        <ele>55.4</ele>
        <time>2025-02-08T01:16:19.437Z</time>
      </trkpt>
      <trkpt lat="58.445633919909596" lon="12.772987950593233">
        <ele>55.45</ele>
        <time>2025-02-08T01:16:52.450Z</time>
      </trkpt>
      <trkpt lat="58.44569795764983" lon="12.773070931434631">
        <ele>55.49</ele>
        <time>2025-02-08T01:17:25.464Z</time>
      </trkpt>
      <trkpt lat="58.44576199539006" lon="12.773153996095061">
        <ele>55.54</ele>
        <time>2025-02-08T01:17:58.480Z</time>
      </trkpt>
      <trkpt lat="58.445824943482876" lon="12.77323898859322">
        <ele>55.58</ele>
        <time>2025-02-08T01:18:31.497Z</time>
      </trkpt>
      <trkpt lat="58.445888981223106" lon="12.773322975263">
        <ele>55.63</ele>
        <time>2025-02-08T01:19:04.515Z</time>
      </trkpt>
      <trkpt lat="58.445952935144305" lon="12.773405956104398">
        <ele>55.68</ele>
        <time>2025-02-08T01:19:37.534Z</time>
      </trkpt>
      <trkpt lat="58.446016972884536" lon="12.773487931117415">
        <ele>55.73</ele>
        <time>2025-02-08T01:20:10.555Z</time>
      </trkpt>
      <trkpt lat="58.446080926805735" lon="12.773570995777845">
        <ele>55.78</ele>
        <time>2025-02-08T01:20:43.577Z</time>
      </trkpt>
      <trkpt lat="58.446144964545965" lon="12.773653976619244">
        <ele>55.83</ele>
        <time>2025-02-08T01:21:16.600Z</time>
      </trkpt>
      <trkpt lat="58.446209924295545" lon="12.7737339399755">
        <ele>55.88</ele>
        <time>2025-02-08T01:21:49.624Z</time>
      </trkpt>
      <trkpt lat="58.446274967864156" lon="12.773811975494027">
        <ele>55.94</ele>
        <time>2025-02-08T01:22:22.650Z</time>
      </trkpt>
      <trkpt lat="58.446341939270496" lon="12.773885987699032">
        <ele>55.99</ele>
        <time>2025-02-08T01:22:55.677Z</time>
      </trkpt>
      <trkpt lat="58.4464109223336" lon="12.773959999904037">
        <ele>56.04</ele>
        <time>2025-02-08T01:23:28.705Z</time>
      </trkpt>
      <trkpt lat="58.44647797755897" lon="12.774032922461629">
        <ele>56.09</ele>
        <time>2025-02-08T01:24:01.734Z</time>
      </trkpt>
      <trkpt lat="58.44654595479369" lon="12.774104923009872">
        <ele>56.14</ele>
        <time>2025-02-08T01:24:34.765Z</time>
      </trkpt>
      <trkpt lat="58.44661493785679" lon="12.774172984063625">
        <ele>56.19</ele>
        <time>2025-02-08T01:25:07.797Z</time>
      </trkpt>
      <trkpt lat="58.446683920919895" lon="12.774238949641585">
        <ele>56.24</ele>
        <time>2025-02-08T01:25:40.830Z</time>
      </trkpt>
      <trkpt lat="58.44675592146814" lon="12.774304999038577">
        <ele>56.29</ele>
        <time>2025-02-08T01:26:13.864Z</time>
      </trkpt>
      <trkpt lat="58.44682892784476" lon="12.774371970444918">
        <ele>56.35</ele>
        <time>2025-02-08T01:26:46.900Z</time>
      </trkpt>
      <trkpt lat="58.44690193422139" lon="12.774439947679639">
        <ele>56.4</ele>
        <time>2025-02-08T01:27:19.937Z</time>
      </trkpt>
      <trkpt lat="58.44697494059801" lon="12.77450792491436">
        <ele>56.45</ele>
        <time>2025-02-08T01:27:52.975Z</time>
      </trkpt>
      <trkpt lat="58.447046941146255" lon="12.774574980139732">
        <ele>56.51</ele>
        <time>2025-02-08T01:28:26.015Z</time>
      </trkpt>
      <trkpt lat="58.44711693003774" lon="12.774643963202834">
        <ele>56.56</ele>
        <time>2025-02-08T01:28:59.056Z</time>
      </trkpt>
      <trkpt lat="58.44718599691987" lon="12.774713952094316">
        <ele>56.62</ele>
        <time>2025-02-08T01:29:32.098Z</time>
      </trkpt>
      <trkpt lat="58.44725497998297" lon="12.77478595264256">
        <ele>56.68</ele>
        <time>2025-02-08T01:30:05.141Z</time>
      </trkpt>
      <trkpt lat="58.44732295721769" lon="12.774856947362423">
        <ele>56.73</ele>
        <time>2025-02-08T01:30:38.186Z</time>
      </trkpt>
      <trkpt lat="58.447389928624034" lon="12.774929953739047">
        <ele>56.79</ele>
        <time>2025-02-08T01:31:11.232Z</time>
      </trkpt>
      <trkpt lat="58.447456983849406" lon="12.775005977600813">
        <ele>56.85</ele>
        <time>2025-02-08T01:31:44.279Z</time>
      </trkpt>
      <trkpt lat="58.447521943598986" lon="12.77508594095707">
        <ele>56.91</ele>
        <time>2025-02-08T01:32:17.327Z</time>
      </trkpt>
      <trkpt lat="58.44758799299598" lon="12.775170933455229">
        <ele>56.96</ele>
        <time>2025-02-08T01:32:50.377Z</time>
      </trkpt>
      <trkpt lat="58.44765295274556" lon="12.77525793761015">
        <ele>57.02</ele>
        <time>2025-02-08T01:33:23.428Z</time>
      </trkpt>
      <trkpt lat="58.44771699048579" lon="12.77534494176507">
        <ele>57.08</ele>
        <time>2025-02-08T01:33:56.480Z</time>
      </trkpt>
      <trkpt lat="58.447780944406986" lon="12.775433957576752">
        <ele>57.14</ele>
        <time>2025-02-08T01:34:29.533Z</time>
      </trkpt>
      <trkpt lat="58.447843976318836" lon="12.775523979216814">
        <ele>57.2</ele>
        <time>2025-02-08T01:35:02.588Z</time>
      </trkpt>
      <trkpt lat="58.447905918583274" lon="12.775609977543354">
        <ele>57.25</ele>
        <time>2025-02-08T01:35:35.644Z</time>
      </trkpt>
      <trkpt lat="58.4479649271816" lon="12.775694970041513">
        <ele>57.31</ele>
        <time>2025-02-08T01:36:08.701Z</time>
      </trkpt>
      <trkpt lat="58.44802494160831" lon="12.775779962539673">
        <ele>57.36</ele>
        <time>2025-02-08T01:36:41.759Z</time>
      </trkpt>
      <trkpt lat="58.44808495603502" lon="12.775864955037832">
        <ele>57.42</ele>
        <time>2025-02-08T01:37:14.818Z</time>
      </trkpt>
      <trkpt lat="58.448143964633346" lon="12.77594793587923">
        <ele>57.47</ele>
        <time>2025-02-08T01:37:47.879Z</time>
      </trkpt>
      <trkpt lat="58.44820297323167" lon="12.776030916720629">
        <ele>57.53</ele>
        <time>2025-02-08T01:38:20.941Z</time>
      </trkpt>
      <trkpt lat="58.44826399348676" lon="12.7761169988662">
        <ele>57.58</ele>
        <time>2025-02-08T01:38:54.004Z</time>
      </trkpt>
      <trkpt lat="58.44832492992282" lon="12.77620391920209">
        <ele>57.64</ele>
        <time>2025-02-08T01:39:27.068Z</time>
      </trkpt>
      <trkpt lat="58.44838695600629" lon="12.776292935013771">
        <ele>57.7</ele>
        <time>2025-02-08T01:40:00.133Z</time>
      </trkpt>
      <trkpt lat="58.44844998791814" lon="12.776380944997072">
        <ele>57.76</ele>
        <time>2025-02-08T01:40:33.200Z</time>
      </trkpt>
      <trkpt lat="58.448511930182576" lon="12.776468954980373">
        <ele>57.82</ele>
        <time>2025-02-08T01:41:06.268Z</time>
      </trkpt>
      <trkpt lat="58.448573956266046" lon="12.776557970792055">
        <ele>57.88</ele>
        <time>2025-02-08T01:41:39.337Z</time>
      </trkpt>
      <trkpt lat="58.448636988177896" lon="12.776646986603737">
        <ele>57.94</ele>
        <time>2025-02-08T01:42:12.407Z</time>
      </trkpt>
      <trkpt lat="58.448701947927475" lon="12.776733990758657">
        <ele>58.0</ele>
        <time>2025-02-08T01:42:45.479Z</time>
      </trkpt>
      <trkpt lat="58.448766991496086" lon="12.776822922751307">
        <ele>58.06</ele>
        <time>2025-02-08T01:43:18.552Z</time>
      </trkpt>
      <trkpt lat="58.448830945417285" lon="12.77691395021975">
        <ele>58.13</ele>
        <time>2025-02-08T01:43:51.626Z</time>
      </trkpt>
      <trkpt lat="58.448891965672374" lon="12.777004977688193">
        <ele>58.19</ele>
        <time>2025-02-08T01:44:24.702Z</time>
      </trkpt>
      <trkpt lat="58.44894996844232" lon="12.77710396796465">
        <ele>58.24</ele>
        <time>2025-02-08T01:44:57.779Z</time>
      </trkpt>
      <trkpt lat="58.44900595955551" lon="12.777206981554627">
        <ele>58.3</ele>
        <time>2025-02-08T01:45:30.857Z</time>
      </trkpt>
      <trkpt lat="58.44906094484031" lon="12.777315946295857">
        <ele>58.36</ele>
        <time>2025-02-08T01:46:03.936Z</time>
      </trkpt>
      <trkpt lat="58.44911299645901" lon="12.77742792852223">
        <ele>58.42</ele>
        <time>2025-02-08T01:46:37.017Z</time>
      </trkpt>
      <trkpt lat="58.44916597008705" lon="12.777542928233743">
        <ele>58.48</ele>
        <time>2025-02-08T01:47:10.099Z</time>
      </trkpt>
      <trkpt lat="58.44922095537186" lon="12.777654994279146">
        <ele>58.55</ele>
        <time>2025-02-08T01:47:43.182Z</time>
      </trkpt>
      <trkpt lat="58.449282981455326" lon="12.777762953191996">
        <ele>58.62</ele>
        <time>2025-02-08T01:48:16.266Z</time>
      </trkpt>
      <trkpt lat="58.44934995286167" lon="12.77785792015493">
        <ele>58.69</ele>
        <time>2025-02-08T01:48:49.352Z</time>
      </trkpt>
      <trkpt lat="58.44942195340991" lon="12.777939978986979">
        <ele>58.76</ele>
        <time>2025-02-08T01:49:22.439Z</time>
      </trkpt>
      <trkpt lat="58.449496971443295" lon="12.7780079562217">
        <ele>58.84</ele>
        <time>2025-02-08T01:49:55.527Z</time>
      </trkpt>
      <trkpt lat="58.44957391731441" lon="12.778065958991647">
        <ele>58.91</ele>
        <time>2025-02-08T01:50:28.617Z</time>
      </trkpt>
      <trkpt lat="58.44965195283294" lon="12.77811692096293">
        <ele>58.98</ele>
        <time>2025-02-08T01:51:01.708Z</time>
      </trkpt>
      <trkpt lat="58.449728982523084" lon="12.778163943439722">
        <ele>59.06</ele>
        <time>2025-02-08T01:51:34.800Z</time>
      </trkpt>
      <trkpt lat="58.44980794005096" lon="12.778207948431373">
        <ele>59.13</ele>
        <time>2025-02-08T01:52:07.894Z</time>
      </trkpt>
      <trkpt lat="58.449884969741106" lon="12.778249941766262">
        <ele>59.2</ele>
        <time>2025-02-08T01:52:40.989Z</time>
      </trkpt>
      <trkpt lat="58.44995898194611" lon="12.778293946757913">
        <ele>59.27</ele>
        <time>2025-02-08T01:53:14.085Z</time>
      </trkpt>
      <trkpt lat="58.450031988322735" lon="12.778340969234705">
        <ele>59.34</ele>
        <time>2025-02-08T01:53:47.183Z</time>
      </trkpt>
      <trkpt lat="58.45010398887098" lon="12.778388997539878">
        <ele>59.41</ele>
        <time>2025-02-08T01:54:20.282Z</time>
      </trkpt>
      <trkpt lat="58.45017498359084" lon="12.778444988653064">
        <ele>59.48</ele>
        <time>2025-02-08T01:54:53.382Z</time>
      </trkpt>
      <trkpt lat="58.45024396665394" lon="12.778513971716166">
        <ele>59.55</ele>
        <time>2025-02-08T01:55:26.483Z</time>
      </trkpt>
      <trkpt lat="58.4503099322319" lon="12.778594940900803">
        <ele>59.62</ele>
        <time>2025-02-08T01:55:59.585Z</time>
      </trkpt>
      <trkpt lat="58.450374975800514" lon="12.778683956712484">
        <ele>59.69</ele>
        <time>2025-02-08T01:56:32.689Z</time>
      </trkpt>
      <trkpt lat="58.45043792389333" lon="12.778775990009308">
        <ele>59.77</ele>
        <time>2025-02-08T01:57:05.794Z</time>
      </trkpt>
      <trkpt lat="58.450502967461944" lon="12.77886894531548">
        <ele>59.84</ele>
        <time>2025-02-08T01:57:38.900Z</time>
      </trkpt>
      <trkpt lat="58.450568933039904" lon="12.778959972783923">
        <ele>59.91</ele>
        <time>2025-02-08T01:58:12.008Z</time>
      </trkpt>
      <trkpt lat="58.450634982436895" lon="12.779052928090096">
        <ele>59.99</ele>
        <time>2025-02-08T01:58:45.117Z</time>
      </trkpt>
      <trkpt lat="58.450698936358094" lon="12.779149990528822">
        <ele>60.06</ele>
        <time>2025-02-08T01:59:18.227Z</time>
      </trkpt>
      <trkpt lat="58.450761968269944" lon="12.77925493195653">
        <ele>60.14</ele>
        <time>2025-02-08T01:59:51.339Z</time>
      </trkpt>
      <trkpt lat="58.45082097686827" lon="12.77936196886003">
        <ele>60.22</ele>
        <time>2025-02-08T02:00:24.452Z</time>
      </trkpt>
      <trkpt lat="58.4508799854666" lon="12.77947093360126">
        <ele>60.31</ele>
        <time>2025-02-08T02:00:57.566Z</time>
      </trkpt>
      <trkpt lat="58.450932959094644" lon="12.779583921656013">
        <ele>60.39</ele>
        <time>2025-02-08T02:01:30.682Z</time>
      </trkpt>
      <trkpt lat="58.45098392106593" lon="12.779699927195907">
        <ele>60.47</ele>
        <time>2025-02-08T02:02:03.799Z</time>
      </trkpt>
      <trkpt lat="58.45102993771434" lon="12.779816938564181">
        <ele>60.56</ele>
        <time>2025-02-08T02:02:36.917Z</time>
      </trkpt>
      <trkpt lat="58.45107293687761" lon="12.77994099073112">
        <ele>60.65</ele>
        <time>2025-02-08T02:03:10.036Z</time>
      </trkpt>
      <trkpt lat="58.45111694186926" lon="12.780071999877691">
        <ele>60.74</ele>
        <time>2025-02-08T02:03:43.157Z</time>
      </trkpt>
      <trkpt lat="58.45115893520415" lon="12.780205942690372">
        <ele>60.82</ele>
        <time>2025-02-08T02:04:16.279Z</time>
      </trkpt>
      <trkpt lat="58.45120193436742" lon="12.780342986807227">
        <ele>60.9</ele>
        <time>2025-02-08T02:04:49.402Z</time>
      </trkpt>
      <trkpt lat="58.45124199986458" lon="12.78048095293343">
        <ele>60.99</ele>
        <time>2025-02-08T02:05:22.527Z</time>
      </trkpt>
      <trkpt lat="58.45128298737109" lon="12.780619924888015">
        <ele>61.08</ele>
        <time>2025-02-08T02:05:55.653Z</time>
      </trkpt>
      <trkpt lat="58.45132498070598" lon="12.780762920156121">
        <ele>61.17</ele>
        <time>2025-02-08T02:06:28.780Z</time>
      </trkpt>
      <trkpt lat="58.45136797986925" lon="12.78090893290937">
        <ele>61.26</ele>
        <time>2025-02-08T02:07:01.909Z</time>
      </trkpt>
      <trkpt lat="58.4514119848609" lon="12.781060980632901">
        <ele>61.35</ele>
        <time>2025-02-08T02:07:35.039Z</time>
      </trkpt>
      <trkpt lat="58.45145498402417" lon="12.781214956194162">
        <ele>61.45</ele>
        <time>2025-02-08T02:08:08.171Z</time>
      </trkpt>
      <trkpt lat="58.45149898901582" lon="12.781370943412185">
        <ele>61.54</ele>
        <time>2025-02-08T02:08:41.304Z</time>
      </trkpt>
      <trkpt lat="58.45154198817909" lon="12.781523996964097">
        <ele>61.64</ele>
        <time>2025-02-08T02:09:14.439Z</time>
      </trkpt>
      <trkpt lat="58.45158599317074" lon="12.781673949211836">
        <ele>61.74</ele>
        <time>2025-02-08T02:09:47.575Z</time>
      </trkpt>
      <trkpt lat="58.45162899233401" lon="12.781819961965084">
        <ele>61.84</ele>
        <time>2025-02-08T02:10:20.712Z</time>
      </trkpt>
      <trkpt lat="58.45167199149728" lon="12.781964968889952">
        <ele>61.94</ele>
        <time>2025-02-08T02:10:53.851Z</time>
      </trkpt>
      <trkpt lat="58.45171398483217" lon="12.7821109816432">
        <ele>62.05</ele>
        <time>2025-02-08T02:11:26.991Z</time>
      </trkpt>
      <trkpt lat="58.45175698399544" lon="12.782253976911306">
        <ele>62.15</ele>
        <time>2025-02-08T02:12:00.133Z</time>
      </trkpt>
      <trkpt lat="58.45179797150195" lon="12.782397978007793">
        <ele>62.26</ele>
        <time>2025-02-08T02:12:33.276Z</time>
      </trkpt>
      <trkpt lat="58.451839964836836" lon="12.782543990761042">
        <ele>62.37</ele>
        <time>2025-02-08T02:13:06.420Z</time>
      </trkpt>
      <trkpt lat="58.451879946514964" lon="12.782689919695258">
        <ele>62.48</ele>
        <time>2025-02-08T02:13:39.566Z</time>
      </trkpt>
      <trkpt lat="58.45192093402147" lon="12.782836938276887">
        <ele>62.59</ele>
        <time>2025-02-08T02:14:12.713Z</time>
      </trkpt>
      <trkpt lat="58.45196292735636" lon="12.782979933544993">
        <ele>62.7</ele>
        <time>2025-02-08T02:14:45.862Z</time>
      </trkpt>
      <trkpt lat="58.45200492069125" lon="12.783120917156339">
        <ele>62.81</ele>
        <time>2025-02-08T02:15:19.012Z</time>
      </trkpt>
      <trkpt lat="58.45204599201679" lon="12.783259972929955">
        <ele>62.93</ele>
        <time>2025-02-08T02:15:52.163Z</time>
      </trkpt>
      <trkpt lat="58.45208597369492" lon="12.783396933227777">
        <ele>63.05</ele>
        <time>2025-02-08T02:16:25.316Z</time>
      </trkpt>
      <trkpt lat="58.45212494954467" lon="12.783532971516252">
        <ele>63.17</ele>
        <time>2025-02-08T02:16:58.470Z</time>
      </trkpt>
      <trkpt lat="58.452163925394416" lon="12.783668925985694">
        <ele>63.3</ele>
        <time>2025-02-08T02:17:31.625Z</time>
      </trkpt>
      <trkpt lat="58.452202985063195" lon="12.783804964274168">
        <ele>63.42</ele>
        <time>2025-02-08T02:18:04.781Z</time>
      </trkpt>
      <trkpt lat="58.45224196091294" lon="12.783938990905881">
        <ele>63.55</ele>
        <time>2025-02-08T02:18:37.939Z</time>
      </trkpt>
      <trkpt lat="58.45228093676269" lon="12.784068994224072">
        <ele>63.68</ele>
        <time>2025-02-08T02:19:11.098Z</time>
      </trkpt>
      <trkpt lat="58.45231798477471" lon="12.784198997542262">
        <ele>63.81</ele>
        <time>2025-02-08T02:19:44.258Z</time>
      </trkpt>
      <trkpt lat="58.45235092565417" lon="12.784327995032072">
        <ele>63.94</ele>
        <time>2025-02-08T02:20:17.419Z</time>
      </trkpt>
      <trkpt lat="58.45238093286753" lon="12.78445498086512">
        <ele>64.08</ele>
        <time>2025-02-08T02:20:50.582Z</time>
      </trkpt>
      <trkpt lat="58.45241194590926" lon="12.784576937556267">
        <ele>64.21</ele>
        <time>2025-02-08T02:21:23.746Z</time>
      </trkpt>
      <trkpt lat="58.45243792980909" lon="12.784696966409683">
        <ele>64.34</ele>
        <time>2025-02-08T02:21:56.911Z</time>
      </trkpt>
      <trkpt lat="58.452465925365686" lon="12.784815989434719">
        <ele>64.46</ele>
        <time>2025-02-08T02:22:30.077Z</time>
      </trkpt>
      <trkpt lat="58.45249392092228" lon="12.784933922812343">
        <ele>64.59</ele>
        <time>2025-02-08T02:23:03.244Z</time>
      </trkpt>
      <trkpt lat="58.452516971156" lon="12.785051940008998">
        <ele>64.73</ele>
        <time>2025-02-08T02:23:36.412Z</time>
      </trkpt>
      <trkpt lat="58.452544966712594" lon="12.785168951377273">
        <ele>64.85</ele>
        <time>2025-02-08T02:24:09.581Z</time>
      </trkpt>
      <trkpt lat="58.45257497392595" lon="12.785285962745547">
        <ele>64.98</ele>
        <time>2025-02-08T02:24:42.751Z</time>
      </trkpt>
      <trkpt lat="58.45260598696768" lon="12.785414960235357">
        <ele>65.11</ele>
        <time>2025-02-08T02:25:15.923Z</time>
      </trkpt>
      <trkpt lat="58.45262593589723" lon="12.785546975210309">
        <ele>65.24</ele>
        <time>2025-02-08T02:25:49.096Z</time>
      </trkpt>
      <trkpt lat="58.45264697447419" lon="12.7856769785285">
        <ele>65.37</ele>
        <time>2025-02-08T02:26:22.270Z</time>
      </trkpt>
      <trkpt lat="58.45266792923212" lon="12.785804970189929">
        <ele>65.49</ele>
        <time>2025-02-08T02:26:55.445Z</time>
      </trkpt>
      <trkpt lat="58.45268494449556" lon="12.785925921052694">
        <ele>65.62</ele>
        <time>2025-02-08T02:27:28.621Z</time>
      </trkpt>
      <trkpt lat="58.45270296558738" lon="12.786047961562872">
        <ele>65.75</ele>
        <time>2025-02-08T02:28:01.798Z</time>
      </trkpt>
      <trkpt lat="58.452718975022435" lon="12.786168996244669">
        <ele>65.88</ele>
        <time>2025-02-08T02:28:34.976Z</time>
      </trkpt>
      <trkpt lat="58.45273196697235" lon="12.786290952935815">
        <ele>66.01</ele>
        <time>2025-02-08T02:29:08.155Z</time>
      </trkpt>
      <trkpt lat="58.45275099389255" lon="12.78643294237554">
        <ele>66.14</ele>
        <time>2025-02-08T02:29:41.335Z</time>
      </trkpt>
      <trkpt lat="58.452759962528944" lon="12.78656193986535">
        <ele>66.27</ele>
        <time>2025-02-08T02:30:14.516Z</time>
      </trkpt>
      <trkpt lat="58.452763985842466" lon="12.78668993152678">
        <ele>66.41</ele>
        <time>2025-02-08T02:30:47.699Z</time>
      </trkpt>
      <trkpt lat="58.45276893116534" lon="12.78681993484497">
        <ele>66.54</ele>
        <time>2025-02-08T02:31:20.883Z</time>
      </trkpt>
      <trkpt lat="58.45277295447886" lon="12.786951949819922">
        <ele>66.67</ele>
        <time>2025-02-08T02:31:54.068Z</time>
      </trkpt>
      <trkpt lat="58.45277697779238" lon="12.787082958966494">
        <ele>66.8</ele>
        <time>2025-02-08T02:32:27.254Z</time>
      </trkpt>
      <trkpt lat="58.452782928943634" lon="12.787218997254968">
        <ele>66.93</ele>
        <time>2025-02-08T02:33:00.441Z</time>
      </trkpt>
      <trkpt lat="58.45279399305582" lon="12.787352940067649">
        <ele>67.05</ele>
        <time>2025-02-08T02:33:33.629Z</time>
      </trkpt>
      <trkpt lat="58.45281193032861" lon="12.787489984184504">
        <ele>67.18</ele>
        <time>2025-02-08T02:34:06.818Z</time>
      </trkpt>
      <trkpt lat="58.45283498056233" lon="12.787627950310707">
        <ele>67.31</ele>
        <time>2025-02-08T02:34:40.009Z</time>
      </trkpt>
      <trkpt lat="58.4528639819473" lon="12.78776197694242">
        <ele>67.44</ele>
        <time>2025-02-08T02:35:13.201Z</time>
      </trkpt>
      <trkpt lat="58.45290094614029" lon="12.787901954725385">
        <ele>67.56</ele>
        <time>2025-02-08T02:35:46.394Z</time>
      </trkpt>
      <trkpt lat="58.45293095335364" lon="12.788033969700336">
        <ele>67.69</ele>
        <time>2025-02-08T02:36:19.588Z</time>
      </trkpt>
      <trkpt lat="58.452960960567" lon="12.788161961361766">
        <ele>67.82</ele>
        <time>2025-02-08T02:36:52.783Z</time>
      </trkpt>
      <trkpt lat="58.4529969189316" lon="12.788284923881292">
        <ele>67.94</ele>
        <time>2025-02-08T02:37:25.980Z</time>
      </trkpt>
      <trkpt lat="58.45303396694362" lon="12.788400929421186">
        <ele>68.06</ele>
        <time>2025-02-08T02:37:59.178Z</time>
      </trkpt>
      <trkpt lat="58.45306891947985" lon="12.78851492330432">
        <ele>68.19</ele>
        <time>2025-02-08T02:38:32.377Z</time>
      </trkpt>
      <trkpt lat="58.453106973320246" lon="12.788623971864581">
        <ele>68.31</ele>
        <time>2025-02-08T02:39:05.577Z</time>
      </trkpt>
      <trkpt lat="58.45314293168485" lon="12.78873193077743">
        <ele>68.44</ele>
        <time>2025-02-08T02:39:38.778Z</time>
      </trkpt>
      <trkpt lat="58.45317595638335" lon="12.78883695602417">
        <ele>68.56</ele>
        <time>2025-02-08T02:40:11.980Z</time>
      </trkpt>
      <trkpt lat="58.453211998566985" lon="12.78894298709929">
        <ele>68.69</ele>
        <time>2025-02-08T02:40:45.183Z</time>
      </trkpt>
      <trkpt lat="58.45324695110321" lon="12.789045916870236">
        <ele>68.81</ele>
        <time>2025-02-08T02:41:18.387Z</time>
      </trkpt>
      <trkpt lat="58.45328299328685" lon="12.789144990965724">
        <ele>68.93</ele>
        <time>2025-02-08T02:41:51.592Z</time>
      </trkpt>
      <trkpt lat="58.453318951651454" lon="12.78924498707056">
        <ele>69.05</ele>
        <time>2025-02-08T02:42:24.798Z</time>
      </trkpt>
      <trkpt lat="58.45335692167282" lon="12.789342971518636">
        <ele>69.17</ele>
        <time>2025-02-08T02:42:58.005Z</time>
      </trkpt>
      <trkpt lat="58.45339698716998" lon="12.78943793848157">
        <ele>69.28</ele>
        <time>2025-02-08T02:43:31.213Z</time>
      </trkpt>
      <trkpt lat="58.45343998633325" lon="12.789536928758025">
        <ele>69.4</ele>
        <time>2025-02-08T02:44:04.422Z</time>
      </trkpt>
      <trkpt lat="58.45348893664777" lon="12.789635919034481">
        <ele>69.52</ele>
        <time>2025-02-08T02:44:37.633Z</time>
      </trkpt>
      <trkpt lat="58.45354098826647" lon="12.789731975644827">
        <ele>69.64</ele>
        <time>2025-02-08T02:45:10.845Z</time>
      </trkpt>
      <trkpt lat="58.453597985208035" lon="12.78982593677938">
        <ele>69.76</ele>
        <time>2025-02-08T02:45:44.058Z</time>
      </trkpt>
      <trkpt lat="58.45365892164409" lon="12.789914952591062">
        <ele>69.87</ele>
        <time>2025-02-08T02:46:17.272Z</time>
      </trkpt>
      <trkpt lat="58.453725976869464" lon="12.78999692760408">
        <ele>69.99</ele>
        <time>2025-02-08T02:46:50.487Z</time>
      </trkpt>
      <trkpt lat="58.45380099490285" lon="12.790069933980703">
        <ele>70.1</ele>
        <time>2025-02-08T02:47:23.704Z</time>
      </trkpt>
      <trkpt lat="58.453878946602345" lon="12.790135983377695">
        <ele>70.21</ele>
        <time>2025-02-08T02:47:56.922Z</time>
      </trkpt>
      <trkpt lat="58.45395899377763" lon="12.790199937298894">
        <ele>70.31</ele>
        <time>2025-02-08T02:48:30.142Z</time>
      </trkpt>
      <trkpt lat="58.45404298044741" lon="12.790259951725602">
        <ele>70.41</ele>
        <time>2025-02-08T02:49:03.363Z</time>
      </trkpt>
      <trkpt lat="58.45412897877395" lon="12.79031996615231">
        <ele>70.51</ele>
        <time>2025-02-08T02:49:36.585Z</time>
      </trkpt>
      <trkpt lat="58.45421698875725" lon="12.790375957265496">
        <ele>70.6</ele>
        <time>2025-02-08T02:50:09.809Z</time>
      </trkpt>
      <trkpt lat="58.454304998740554" lon="12.790433960035443">
        <ele>70.7</ele>
        <time>2025-02-08T02:50:43.034Z</time>
      </trkpt>
      <trkpt lat="58.454393930733204" lon="12.790488945320249">
        <ele>70.79</ele>
        <time>2025-02-08T02:51:16.261Z</time>
      </trkpt>
      <trkpt lat="58.45447892323136" lon="12.790546948090196">
        <ele>70.88</ele>
        <time>2025-02-08T02:51:49.489Z</time>
      </trkpt>
      <trkpt lat="58.454566933214664" lon="12.790610985830426">
        <ele>70.98</ele>
        <time>2025-02-08T02:52:22.719Z</time>
      </trkpt>
      <trkpt lat="58.454654943197966" lon="12.79068399220705">
        <ele>71.07</ele>
        <time>2025-02-08T02:52:55.950Z</time>
      </trkpt>
      <trkpt lat="58.454740941524506" lon="12.79076999053359">
        <ele>71.16</ele>
        <time>2025-02-08T02:53:29.183Z</time>
      </trkpt>
      <trkpt lat="58.454823922365904" lon="12.790870992466807">
        <ele>71.25</ele>
        <time>2025-02-08T02:54:02.418Z</time>
      </trkpt>
      <trkpt lat="58.45489592291415" lon="12.790988925844431">
        <ele>71.34</ele>
        <time>2025-02-08T02:54:35.654Z</time>
      </trkpt>
      <trkpt lat="58.45496792346239" lon="12.791122952476144">
        <ele>71.42</ele>
        <time>2025-02-08T02:55:08.892Z</time>
      </trkpt>
      <trkpt lat="58.45503095537424" lon="12.791268965229392">
        <ele>71.5</ele>
        <time>2025-02-08T02:55:42.131Z</time>
      </trkpt>
      <trkpt lat="58.45508795231581" lon="12.791420929133892">
        <ele>71.58</ele>
        <time>2025-02-08T02:56:15.372Z</time>
      </trkpt>
      <trkpt lat="58.45513899810612" lon="12.791572976857424">
        <ele>71.66</ele>
        <time>2025-02-08T02:56:48.614Z</time>
      </trkpt>
      <trkpt lat="58.45518593676388" lon="12.791726952418685">
        <ele>71.74</ele>
        <time>2025-02-08T02:57:21.858Z</time>
      </trkpt>
      <trkpt lat="58.455232959240675" lon="12.791879922151566">
        <ele>71.81</ele>
        <time>2025-02-08T02:57:55.103Z</time>
      </trkpt>
      <trkpt lat="58.45527897588909" lon="12.792032975703478">
        <ele>71.89</ele>
        <time>2025-02-08T02:58:28.350Z</time>
      </trkpt>
      <trkpt lat="58.455319963395596" lon="12.792184939607978">
        <ele>71.95</ele>
        <time>2025-02-08T02:59:01.598Z</time>
      </trkpt>
      <trkpt lat="58.455363968387246" lon="12.79233799315989">
        <ele>72.02</ele>
        <time>2025-02-08T02:59:34.848Z</time>
      </trkpt>
      <trkpt lat="58.455403950065374" lon="12.792495992034674">
        <ele>72.08</ele>
        <time>2025-02-08T03:00:08.099Z</time>
      </trkpt>
      <trkpt lat="58.45544292591512" lon="12.792654996737838">
        <ele>72.15</ele>
        <time>2025-02-08T03:00:41.352Z</time>
      </trkpt>
      <trkpt lat="58.45547896809876" lon="12.792817940935493">
        <ele>72.21</ele>
        <time>2025-02-08T03:01:14.606Z</time>
      </trkpt>
      <trkpt lat="58.455509981140494" lon="12.79298298060894">
        <ele>72.27</ele>
        <time>2025-02-08T03:01:47.862Z</time>
      </trkpt>
      <trkpt lat="58.45553797669709" lon="12.793148942291737">
        <ele>72.32</ele>
        <time>2025-02-08T03:02:21.119Z</time>
      </trkpt>
      <trkpt lat="58.45556295476854" lon="12.793313981965184">
        <ele>72.38</ele>
        <time>2025-02-08T03:02:54.378Z</time>
      </trkpt>
      <trkpt lat="58.45558994449675" lon="12.793475920334458">
        <ele>72.44</ele>
        <time>2025-02-08T03:03:27.638Z</time>
      </trkpt>
      <trkpt lat="58.45561693422496" lon="12.793635930866003">
        <ele>72.5</ele>
        <time>2025-02-08T03:04:00.899Z</time>
      </trkpt>
      <trkpt lat="58.455644929781556" lon="12.793792923912406">
        <ele>72.56</ele>
        <time>2025-02-08T03:04:34.162Z</time>
      </trkpt>
      <trkpt lat="58.45567493699491" lon="12.793942959979177">
        <ele>72.62</ele>
        <time>2025-02-08T03:05:07.426Z</time>
      </trkpt>
      <trkpt lat="58.45571399666369" lon="12.794086961075664">
        <ele>72.67</ele>
        <time>2025-02-08T03:05:40.691Z</time>
      </trkpt>
      <trkpt lat="58.45575196668506" lon="12.794225933030248">
        <ele>72.71</ele>
        <time>2025-02-08T03:06:13.958Z</time>
      </trkpt>
      <trkpt lat="58.45579697750509" lon="12.794360965490341">
        <ele>72.76</ele>
        <time>2025-02-08T03:06:47.226Z</time>
      </trkpt>
      <trkpt lat="58.45584592781961" lon="12.794490968808532">
        <ele>72.81</ele>
        <time>2025-02-08T03:07:20.495Z</time>
      </trkpt>
      <trkpt lat="58.4558929502964" lon="12.79461795464158">
        <ele>72.85</ele>
        <time>2025-02-08T03:07:53.766Z</time>
      </trkpt>
      <trkpt lat="58.455939972773194" lon="12.79474695213139">
        <ele>72.89</ele>
        <time>2025-02-08T03:08:27.038Z</time>
      </trkpt>
      <trkpt lat="58.45599093474448" lon="12.794872932136059">
        <ele>72.93</ele>
        <time>2025-02-08T03:09:00.311Z</time>
      </trkpt>
      <trkpt lat="58.45603996887803" lon="12.795000923797488">
        <ele>72.96</ele>
        <time>2025-02-08T03:09:33.586Z</time>
      </trkpt>
      <trkpt lat="58.456090930849314" lon="12.79512899927795">
        <ele>72.99</ele>
        <time>2025-02-08T03:10:06.862Z</time>
      </trkpt>
      <trkpt lat="58.45614599995315" lon="12.795251961797476">
        <ele>73.02</ele>
        <time>2025-02-08T03:10:40.140Z</time>
      </trkpt>
      <trkpt lat="58.456198973581195" lon="12.795371990650892">
        <ele>73.04</ele>
        <time>2025-02-08T03:11:13.419Z</time>
      </trkpt>
      <trkpt lat="58.45625194720924" lon="12.795493947342038">
        <ele>73.07</ele>
        <time>2025-02-08T03:11:46.699Z</time>
      </trkpt>
      <trkpt lat="58.456306932494044" lon="12.795612970367074">
        <ele>73.09</ele>
        <time>2025-02-08T03:12:19.980Z</time>
      </trkpt>
      <trkpt lat="58.45635797828436" lon="12.79573098756373">
        <ele>73.1</ele>
        <time>2025-02-08T03:12:53.263Z</time>
      </trkpt>
      <trkpt lat="58.45640894025564" lon="12.795844981446862">
        <ele>73.12</ele>
        <time>2025-02-08T03:13:26.547Z</time>
      </trkpt>
      <trkpt lat="58.45646694302559" lon="12.795951934531331">
        <ele>73.13</ele>
        <time>2025-02-08T03:13:59.832Z</time>
      </trkpt>
      <trkpt lat="58.4565319865942" lon="12.796045979484916">
        <ele>73.14</ele>
        <time>2025-02-08T03:14:33.119Z</time>
      </trkpt>
      <trkpt lat="58.45659099519253" lon="12.79611798003316">
        <ele>73.15</ele>
        <time>2025-02-08T03:15:06.407Z</time>
      </trkpt>
      <trkpt lat="58.456651931628585" lon="12.79618595726788">
        <ele>73.15</ele>
        <time>2025-02-08T03:15:39.696Z</time>
      </trkpt>
      <trkpt lat="58.456713957712054" lon="12.79624898917973">
        <ele>73.15</ele>
        <time>2025-02-08T03:16:12.986Z</time>
      </trkpt>
      <trkpt lat="58.456782940775156" lon="12.796308919787407">
        <ele>73.15</ele>
        <time>2025-02-08T03:16:46.277Z</time>
      </trkpt>
      <trkpt lat="58.45685896463692" lon="12.796361977234483">
        <ele>73.15</ele>
        <time>2025-02-08T03:17:19.570Z</time>
      </trkpt>
      <trkpt lat="58.45693398267031" lon="12.796414950862527">
        <ele>73.14</ele>
        <time>2025-02-08T03:17:52.864Z</time>
      </trkpt>
      <trkpt lat="58.45701294019818" lon="12.796465996652842">
        <ele>73.13</ele>
        <time>2025-02-08T03:18:26.159Z</time>
      </trkpt>
      <trkpt lat="58.45708896405995" lon="12.796519976109266">
        <ele>73.12</ele>
        <time>2025-02-08T03:18:59.455Z</time>
      </trkpt>
      <trkpt lat="58.457167921587825" lon="12.79657194390893">
        <ele>73.11</ele>
        <time>2025-02-08T03:19:32.753Z</time>
      </trkpt>
      <trkpt lat="58.45724595710635" lon="12.796628940850496">
        <ele>73.09</ele>
        <time>2025-02-08T03:20:06.052Z</time>
      </trkpt>
      <trkpt lat="58.45732692629099" lon="12.796683926135302">
        <ele>73.08</ele>
        <time>2025-02-08T03:20:39.353Z</time>
      </trkpt>
      <trkpt lat="58.45740898512304" lon="12.796736983582377">
        <ele>73.06</ele>
        <time>2025-02-08T03:21:12.655Z</time>
      </trkpt>
      <trkpt lat="58.457490960136056" lon="12.796790963038802">
        <ele>73.04</ele>
        <time>2025-02-08T03:21:45.958Z</time>
      </trkpt>
      <trkpt lat="58.45757192932069" lon="12.796835973858833">
        <ele>73.02</ele>
        <time>2025-02-08T03:22:19.263Z</time>
      </trkpt>
      <trkpt lat="58.45765398815274" lon="12.796885930001736">
        <ele>72.99</ele>
        <time>2025-02-08T03:22:52.569Z</time>
      </trkpt>
      <trkpt lat="58.45773696899414" lon="12.796938987448812">
        <ele>72.96</ele>
        <time>2025-02-08T03:23:25.876Z</time>
      </trkpt>
      <trkpt lat="58.4578219614923" lon="12.796992966905236">
        <ele>72.92</ele>
        <time>2025-02-08T03:23:59.185Z</time>
      </trkpt>
      <trkpt lat="58.4579049423337" lon="12.797052981331944">
        <ele>72.88</ele>
        <time>2025-02-08T03:24:32.495Z</time>
      </trkpt>
      <trkpt lat="58.45798599533737" lon="12.797111989930272">
        <ele>72.84</ele>
        <time>2025-02-08T03:25:05.807Z</time>
      </trkpt>
      <trkpt lat="58.45807299949229" lon="12.797165969386697">
        <ele>72.8</ele>
        <time>2025-02-08T03:25:39.120Z</time>
      </trkpt>
      <trkpt lat="58.45815698616207" lon="12.797222966328263">
        <ele>72.75</ele>
        <time>2025-02-08T03:26:12.435Z</time>
      </trkpt>
      <trkpt lat="58.45824298448861" lon="12.79728096909821">
        <ele>72.7</ele>
        <time>2025-02-08T03:26:45.751Z</time>
      </trkpt>
      <trkpt lat="58.45832395367324" lon="12.797337966039777">
        <ele>72.65</ele>
        <time>2025-02-08T03:27:19.068Z</time>
      </trkpt>
      <trkpt lat="58.45840794034302" lon="12.797397980466485">
        <ele>72.6</ele>
        <time>2025-02-08T03:27:52.387Z</time>
      </trkpt>
      <trkpt lat="58.45849393866956" lon="12.797457994893193">
        <ele>72.55</ele>
        <time>2025-02-08T03:28:25.707Z</time>
      </trkpt>
      <trkpt lat="58.45858094282448" lon="12.79751792550087">
        <ele>72.5</ele>
        <time>2025-02-08T03:28:59.029Z</time>
      </trkpt>
      <trkpt lat="58.45866593532264" lon="12.797584980726242">
        <ele>72.44</ele>
        <time>2025-02-08T03:29:32.352Z</time>
      </trkpt>
      <trkpt lat="58.45874992199242" lon="12.797654969617724">
        <ele>72.39</ele>
        <time>2025-02-08T03:30:05.677Z</time>
      </trkpt>
      <trkpt lat="58.45882896333933" lon="12.79772998765111">
        <ele>72.33</ele>
        <time>2025-02-08T03:30:39.003Z</time>
      </trkpt>
      <trkpt lat="58.458905993029475" lon="12.797811962664127">
        <ele>72.27</ele>
        <time>2025-02-08T03:31:12.331Z</time>
      </trkpt>
      <trkpt lat="58.45898394472897" lon="12.797895949333906">
        <ele>72.21</ele>
        <time>2025-02-08T03:31:45.660Z</time>
      </trkpt>
      <trkpt lat="58.459059968590736" lon="12.797983959317207">
        <ele>72.15</ele>
        <time>2025-02-08T03:32:18.990Z</time>
      </trkpt>
      <trkpt lat="58.45913792029023" lon="12.798072975128889">
        <ele>72.08</ele>
        <time>2025-02-08T03:32:52.322Z</time>
      </trkpt>
      <trkpt lat="58.45921494998038" lon="12.79816199094057">
        <ele>72.01</ele>
        <time>2025-02-08T03:33:25.655Z</time>
      </trkpt>
      <trkpt lat="58.459291979670525" lon="12.79824798926711">
        <ele>71.94</ele>
        <time>2025-02-08T03:33:58.990Z</time>
      </trkpt>
      <trkpt lat="58.4593759663403" lon="12.79833398759365">
        <ele>71.86</ele>
        <time>2025-02-08T03:34:32.326Z</time>
      </trkpt>
      <trkpt lat="58.45944997854531" lon="12.798415962606668">
        <ele>71.78</ele>
        <time>2025-02-08T03:35:05.664Z</time>
      </trkpt>
      <trkpt lat="58.45952692441642" lon="12.798499949276447">
        <ele>71.7</ele>
        <time>2025-02-08T03:35:39.003Z</time>
      </trkpt>
      <trkpt lat="58.45960294827819" lon="12.798582930117846">
        <ele>71.62</ele>
        <time>2025-02-08T03:36:12.344Z</time>
      </trkpt>
      <trkpt lat="58.459678972139955" lon="12.798666916787624">
        <ele>71.54</ele>
        <time>2025-02-08T03:36:45.686Z</time>
      </trkpt>
      <trkpt lat="58.45975298434496" lon="12.798748975619674">
        <ele>71.45</ele>
        <time>2025-02-08T03:37:19.029Z</time>
      </trkpt>
      <trkpt lat="58.459826996549964" lon="12.798836985602975">
        <ele>71.36</ele>
        <time>2025-02-08T03:37:52.374Z</time>
      </trkpt>
      <trkpt lat="58.459899919107556" lon="12.798926923424006">
        <ele>71.27</ele>
        <time>2025-02-08T03:38:25.720Z</time>
      </trkpt>
      <trkpt lat="58.45997393131256" lon="12.799016945064068">
        <ele>71.17</ele>
        <time>2025-02-08T03:38:59.068Z</time>
      </trkpt>
      <trkpt lat="58.460047943517566" lon="12.799108978360891">
        <ele>71.08</ele>
        <time>2025-02-08T03:39:32.417Z</time>
      </trkpt>
      <trkpt lat="58.46011994406581" lon="12.799201933667064">
        <ele>70.98</ele>
        <time>2025-02-08T03:40:05.767Z</time>
      </trkpt>
      <trkpt lat="58.46018892712891" lon="12.79930293560028">
        <ele>70.87</ele>
        <time>2025-02-08T03:40:39.119Z</time>
      </trkpt>
      <trkpt lat="58.46025397069752" lon="12.7994089666754">
        <ele>70.77</ele>
        <time>2025-02-08T03:41:12.472Z</time>
      </trkpt>
      <trkpt lat="58.4603189304471" lon="12.799520948901772">
        <ele>70.65</ele>
        <time>2025-02-08T03:41:45.826Z</time>
      </trkpt>
      <trkpt lat="58.46038497984409" lon="12.799632931128144">
        <ele>70.54</ele>
        <time>2025-02-08T03:42:19.182Z</time>
      </trkpt>
      <trkpt lat="58.46044591628015" lon="12.799747930839658">
        <ele>70.43</ele>
        <time>2025-02-08T03:42:52.539Z</time>
      </trkpt>
      <trkpt lat="58.46050693653524" lon="12.799863936379552">
        <ele>70.31</ele>
        <time>2025-02-08T03:43:25.898Z</time>
      </trkpt>
      <trkpt lat="58.460564939305186" lon="12.799975918605924">
        <ele>70.19</ele>
        <time>2025-02-08T03:43:59.258Z</time>
      </trkpt>
      <trkpt lat="58.46062294207513" lon="12.800085972994566">
        <ele>70.07</ele>
        <time>2025-02-08T03:44:32.619Z</time>
      </trkpt>
      <trkpt lat="58.46067893318832" lon="12.800191920250654">
        <ele>69.95</ele>
        <time>2025-02-08T03:45:05.982Z</time>
      </trkpt>
      <trkpt lat="58.460730984807014" lon="12.800299962982535">
        <ele>69.82</ele>
        <time>2025-02-08T03:45:39.346Z</time>
      </trkpt>
      <trkpt lat="58.46078395843506" lon="12.800408927723765">
        <ele>69.7</ele>
        <time>2025-02-08T03:46:12.711Z</time>
      </trkpt>
      <trkpt lat="58.46083592623472" lon="12.800515964627266">
        <ele>69.56</ele>
        <time>2025-02-08T03:46:46.077Z</time>
      </trkpt>
      <trkpt lat="58.460885966196656" lon="12.800622917711735">
        <ele>69.43</ele>
        <time>2025-02-08T03:47:19.444Z</time>
      </trkpt>
      <trkpt lat="58.46093298867345" lon="12.800733977928758">
        <ele>69.3</ele>
        <time>2025-02-08T03:47:52.813Z</time>
      </trkpt>
      <trkpt lat="58.46098193898797" lon="12.80084596015513">
        <ele>69.16</ele>
        <time>2025-02-08T03:48:26.183Z</time>
      </trkpt>
      <trkpt lat="58.461031978949904" lon="12.800957942381501">
        <ele>69.03</ele>
        <time>2025-02-08T03:48:59.554Z</time>
      </trkpt>
      <trkpt lat="58.46108595840633" lon="12.801072942093015">
        <ele>68.89</ele>
        <time>2025-02-08T03:49:32.926Z</time>
      </trkpt>
      <trkpt lat="58.461140943691134" lon="12.801183918491006">
        <ele>68.75</ele>
        <time>2025-02-08T03:50:06.300Z</time>
      </trkpt>
      <trkpt lat="58.46119492314756" lon="12.801294978708029">
        <ele>68.61</ele>
        <time>2025-02-08T03:50:39.675Z</time>
      </trkpt>
      <trkpt lat="58.46124496310949" lon="12.8014069609344">
        <ele>68.47</ele>
        <time>2025-02-08T03:51:13.051Z</time>
      </trkpt>
      <trkpt lat="58.46129793673754" lon="12.801522966474295">
        <ele>68.33</ele>
        <time>2025-02-08T03:51:46.429Z</time>
      </trkpt>
      <trkpt lat="58.46135099418461" lon="12.801638972014189">
        <ele>68.19</ele>
        <time>2025-02-08T03:52:19.808Z</time>
      </trkpt>
      <trkpt lat="58.46140497364104" lon="12.801753971725702">
        <ele>68.05</ele>
        <time>2025-02-08T03:52:53.188Z</time>
      </trkpt>
      <trkpt lat="58.46145794726908" lon="12.801866959780455">
        <ele>67.9</ele>
        <time>2025-02-08T03:53:26.569Z</time>
      </trkpt>
      <trkpt lat="58.461510920897126" lon="12.801978942006826">
        <ele>67.75</ele>
        <time>2025-02-08T03:53:59.952Z</time>
      </trkpt>
      <trkpt lat="58.4615639783442" lon="12.802089918404818">
        <ele>67.6</ele>
        <time>2025-02-08T03:54:33.336Z</time>
      </trkpt>
      <trkpt lat="58.46162198111415" lon="12.802192931994796">
        <ele>67.45</ele>
        <time>2025-02-08T03:55:06.721Z</time>
      </trkpt>
      <trkpt lat="58.461676966398954" lon="12.802294939756393">
        <ele>67.29</ele>
        <time>2025-02-08T03:55:40.107Z</time>
      </trkpt>
      <trkpt lat="58.461738992482424" lon="12.802386973053217">
        <ele>67.13</ele>
        <time>2025-02-08T03:56:13.495Z</time>
      </trkpt>
      <trkpt lat="58.46180093474686" lon="12.802486969158053">
        <ele>66.97</ele>
        <time>2025-02-08T03:56:46.884Z</time>
      </trkpt>
      <trkpt lat="58.461868995800614" lon="12.802593922242522">
        <ele>66.8</ele>
        <time>2025-02-08T03:57:20.274Z</time>
      </trkpt>
      <trkpt lat="58.461934961378574" lon="12.802703976631165">
        <ele>66.63</ele>
        <time>2025-02-08T03:57:53.666Z</time>
      </trkpt>
      <trkpt lat="58.462002938613296" lon="12.80282199382782">
        <ele>66.46</ele>
        <time>2025-02-08T03:58:27.059Z</time>
      </trkpt>
      <trkpt lat="58.4620719216764" lon="12.802940933033824">
        <ele>66.29</ele>
        <time>2025-02-08T03:59:00.454Z</time>
      </trkpt>
      <trkpt lat="58.46213696524501" lon="12.803057944402099">
        <ele>66.12</ele>
        <time>2025-02-08T03:59:33.850Z</time>
      </trkpt>
      <trkpt lat="58.46220896579325" lon="12.803171938285232">
        <ele>65.95</ele>
        <time>2025-02-08T04:00:07.248Z</time>
      </trkpt>
      <trkpt lat="58.462280966341496" lon="12.803287943825126">
        <ele>65.79</ele>
        <time>2025-02-08T04:00:40.647Z</time>
      </trkpt>
      <trkpt lat="58.46235196106136" lon="12.803400931879878">
        <ele>65.62</ele>
        <time>2025-02-08T04:01:14.048Z</time>
      </trkpt>
      <trkpt lat="58.46242295578122" lon="12.803512997925282">
        <ele>65.45</ele>
        <time>2025-02-08T04:01:47.450Z</time>
      </trkpt>
      <trkpt lat="58.462494956329465" lon="12.803628919646144">
        <ele>65.28</ele>
        <time>2025-02-08T04:02:20.854Z</time>
      </trkpt>
      <trkpt lat="58.46256695687771" lon="12.803737968206406">
        <ele>65.11</ele>
        <time>2025-02-08T04:02:54.259Z</time>
      </trkpt>
      <trkpt lat="58.46263493411243" lon="12.803850956261158">
        <ele>64.94</ele>
        <time>2025-02-08T04:03:27.666Z</time>
      </trkpt>
      <trkpt lat="58.46270391717553" lon="12.803964950144291">
        <ele>64.77</ele>
        <time>2025-02-08T04:04:01.074Z</time>
      </trkpt>
      <trkpt lat="58.46276896074414" lon="12.804082967340946">
        <ele>64.6</ele>
        <time>2025-02-08T04:04:34.484Z</time>
      </trkpt>
      <trkpt lat="58.46283392049372" lon="12.804195955395699">
        <ele>64.43</ele>
        <time>2025-02-08T04:05:07.895Z</time>
      </trkpt>
      <trkpt lat="58.46289494074881" lon="12.804310955107212">
        <ele>64.26</ele>
        <time>2025-02-08T04:05:41.307Z</time>
      </trkpt>
      <trkpt lat="58.46295897848904" lon="12.804425954818726">
        <ele>64.1</ele>
        <time>2025-02-08T04:06:14.721Z</time>
      </trkpt>
      <trkpt lat="58.46302192658186" lon="12.804542966187">
        <ele>63.93</ele>
        <time>2025-02-08T04:06:48.136Z</time>
      </trkpt>
      <trkpt lat="58.46308395266533" lon="12.804654948413372">
        <ele>63.75</ele>
        <time>2025-02-08T04:07:21.552Z</time>
      </trkpt>
      <trkpt lat="58.46314396709204" lon="12.804766930639744">
        <ele>63.58</ele>
        <time>2025-02-08T04:07:54.970Z</time>
      </trkpt>
      <trkpt lat="58.46320599317551" lon="12.804884947836399">
        <ele>63.41</ele>
        <time>2025-02-08T04:08:28.389Z</time>
      </trkpt>
      <trkpt lat="58.463269947096705" lon="12.805006988346577">
        <ele>63.24</ele>
        <time>2025-02-08T04:09:01.810Z</time>
      </trkpt>
      <trkpt lat="58.4633359964937" lon="12.805130956694484">
        <ele>63.07</ele>
        <time>2025-02-08T04:09:35.232Z</time>
      </trkpt>
      <trkpt lat="58.4634049795568" lon="12.80525391921401">
        <ele>62.9</ele>
        <time>2025-02-08T04:10:08.656Z</time>
      </trkpt>
      <trkpt lat="58.46347496844828" lon="12.805376965552568">
        <ele>62.73</ele>
        <time>2025-02-08T04:10:42.081Z</time>
      </trkpt>
      <trkpt lat="58.463544957339764" lon="12.805496994405985">
        <ele>62.56</ele>
        <time>2025-02-08T04:11:15.508Z</time>
      </trkpt>
      <trkpt lat="58.46361796371639" lon="12.805607970803976">
        <ele>62.38</ele>
        <time>2025-02-08T04:11:48.936Z</time>
      </trkpt>
      <trkpt lat="58.463695999234915" lon="12.805716935545206">
        <ele>62.21</ele>
        <time>2025-02-08T04:12:22.366Z</time>
      </trkpt>
      <trkpt lat="58.46377797424793" lon="12.805820954963565">
        <ele>62.04</ele>
        <time>2025-02-08T04:12:55.797Z</time>
      </trkpt>
      <trkpt lat="58.46386497840285" lon="12.805907959118485">
        <ele>61.87</ele>
        <time>2025-02-08T04:13:29.230Z</time>
      </trkpt>
      <trkpt lat="58.463957933709025" lon="12.80598197132349">
        <ele>61.7</ele>
        <time>2025-02-08T04:14:02.665Z</time>
      </trkpt>
      <trkpt lat="58.46404694952071" lon="12.806041985750198">
        <ele>61.54</ele>
        <time>2025-02-08T04:14:36.101Z</time>
      </trkpt>
      <trkpt lat="58.46413998864591" lon="12.806093953549862">
        <ele>61.37</ele>
        <time>2025-02-08T04:15:09.539Z</time>
      </trkpt>
      <trkpt lat="58.464232943952084" lon="12.806135946884751">
        <ele>61.2</ele>
        <time>2025-02-08T04:15:42.978Z</time>
      </trkpt>
      <trkpt lat="58.4643289167434" lon="12.806171989068389">
        <ele>61.03</ele>
        <time>2025-02-08T04:16:16.419Z</time>
      </trkpt>
      <trkpt lat="58.464429918676615" lon="12.806207947432995">
        <ele>60.86</ele>
        <time>2025-02-08T04:16:49.861Z</time>
      </trkpt>
      <trkpt lat="58.464533938094974" lon="12.806247929111123">
        <ele>60.69</ele>
        <time>2025-02-08T04:17:23.305Z</time>
      </trkpt>
      <trkpt lat="58.46463695168495" lon="12.806292939931154">
        <ele>60.52</ele>
        <time>2025-02-08T04:17:56.751Z</time>
      </trkpt>
      <trkpt lat="58.46473996527493" lon="12.80634792521596">
        <ele>60.34</ele>
        <time>2025-02-08T04:18:30.198Z</time>
      </trkpt>
      <trkpt lat="58.46484096720815" lon="12.806413974612951">
        <ele>60.16</ele>
        <time>2025-02-08T04:19:03.647Z</time>
      </trkpt>
      <trkpt lat="58.46493693999946" lon="12.806484969332814">
        <ele>59.99</ele>
        <time>2025-02-08T04:19:37.098Z</time>
      </trkpt>
      <trkpt lat="58.465033918619156" lon="12.80656099319458">
        <ele>59.81</ele>
        <time>2025-02-08T04:20:10.551Z</time>
      </trkpt>
      <trkpt lat="58.4651299752295" lon="12.806639950722456">
        <ele>59.65</ele>
        <time>2025-02-08T04:20:44.005Z</time>
      </trkpt>
      <trkpt lat="58.465224942192435" lon="12.806716980412602">
        <ele>59.48</ele>
        <time>2025-02-08T04:21:17.461Z</time>
      </trkpt>
      <trkpt lat="58.46531798131764" lon="12.806793926283717">
        <ele>59.32</ele>
        <time>2025-02-08T04:21:50.918Z</time>
      </trkpt>
      <trkpt lat="58.46541194245219" lon="12.806871961802244">
        <ele>59.15</ele>
        <time>2025-02-08T04:22:24.377Z</time>
      </trkpt>
      <trkpt lat="58.46550699323416" lon="12.806953936815262">
        <ele>58.99</ele>
        <time>2025-02-08T04:22:57.838Z</time>
      </trkpt>
      <trkpt lat="58.46560095436871" lon="12.807043958455324">
        <ele>58.83</ele>
        <time>2025-02-08T04:23:31.300Z</time>
      </trkpt>
      <trkpt lat="58.46569097600877" lon="12.80714294873178">
        <ele>58.68</ele>
        <time>2025-02-08T04:24:04.764Z</time>
      </trkpt>
      <trkpt lat="58.46577697433531" lon="12.807259960100055">
        <ele>58.53</ele>
        <time>2025-02-08T04:24:38.230Z</time>
      </trkpt>
      <trkpt lat="58.46585593186319" lon="12.807387951761484">
        <ele>58.38</ele>
        <time>2025-02-08T04:25:11.697Z</time>
      </trkpt>
      <trkpt lat="58.46592893823981" lon="12.807521978393197">
        <ele>58.23</ele>
        <time>2025-02-08T04:25:45.166Z</time>
      </trkpt>
      <trkpt lat="58.465997921302915" lon="12.807663967832923">
        <ele>58.08</ele>
        <time>2025-02-08T04:26:18.637Z</time>
      </trkpt>
      <trkpt lat="58.46605592407286" lon="12.80780696310103">
        <ele>57.94</ele>
        <time>2025-02-08T04:26:52.109Z</time>
      </trkpt>
      <trkpt lat="58.46611199900508" lon="12.807950964197516">
        <ele>57.8</ele>
        <time>2025-02-08T04:27:25.583Z</time>
      </trkpt>
      <trkpt lat="58.46615793183446" lon="12.808100916445255">
        <ele>57.66</ele>
        <time>2025-02-08T04:27:59.058Z</time>
      </trkpt>
      <trkpt lat="58.466210989281535" lon="12.808244917541742">
        <ele>57.51</ele>
        <time>2025-02-08T04:28:32.535Z</time>
      </trkpt>
      <trkpt lat="58.46626195125282" lon="12.8083869908005">
        <ele>57.37</ele>
        <time>2025-02-08T04:29:06.013Z</time>
      </trkpt>
      <trkpt lat="58.46631391905248" lon="12.808529986068606">
        <ele>57.22</ele>
        <time>2025-02-08T04:29:39.493Z</time>
      </trkpt>
      <trkpt lat="58.46636798232794" lon="12.808676920831203">
        <ele>57.07</ele>
        <time>2025-02-08T04:30:12.974Z</time>
      </trkpt>
      <trkpt lat="58.466423973441124" lon="12.80882092192769">
        <ele>56.93</ele>
        <time>2025-02-08T04:30:46.457Z</time>
      </trkpt>
      <trkpt lat="58.46648398786783" lon="12.80896794050932">
        <ele>56.79</ele>
        <time>2025-02-08T04:31:19.941Z</time>
      </trkpt>
      <trkpt lat="58.46654391847551" lon="12.809114959090948">
        <ele>56.65</ele>
        <time>2025-02-08T04:31:53.427Z</time>
      </trkpt>
      <trkpt lat="58.46660393290222" lon="12.809257954359055">
        <ele>56.51</ele>
        <time>2025-02-08T04:32:26.914Z</time>
      </trkpt>
      <trkpt lat="58.466663947328925" lon="12.809401955455542">
        <ele>56.37</ele>
        <time>2025-02-08T04:33:00.403Z</time>
      </trkpt>
      <trkpt lat="58.46672396175563" lon="12.809549979865551">
        <ele>56.23</ele>
        <time>2025-02-08T04:33:33.893Z</time>
      </trkpt>
      <trkpt lat="58.46678498201072" lon="12.80969699844718">
        <ele>56.1</ele>
        <time>2025-02-08T04:34:07.385Z</time>
      </trkpt>
      <trkpt lat="58.46684692427516" lon="12.809844939038157">
        <ele>55.98</ele>
        <time>2025-02-08T04:34:40.879Z</time>
      </trkpt>
      <trkpt lat="58.46690995618701" lon="12.809992963448167">
        <ele>55.85</ele>
        <time>2025-02-08T04:35:14.374Z</time>
      </trkpt>
      <trkpt lat="58.46697198227048" lon="12.810138976201415">
        <ele>55.72</ele>
        <time>2025-02-08T04:35:47.871Z</time>
      </trkpt>
      <trkpt lat="58.4670349303633" lon="12.810284988954663">
        <ele>55.61</ele>
        <time>2025-02-08T04:36:21.369Z</time>
      </trkpt>
      <trkpt lat="58.467095950618386" lon="12.81043091788888">
        <ele>55.49</ele>
        <time>2025-02-08T04:36:54.869Z</time>
      </trkpt>
      <trkpt lat="58.467155965045094" lon="12.810575924813747">
        <ele>55.37</ele>
        <time>2025-02-08T04:37:28.370Z</time>
      </trkpt>
      <trkpt lat="58.46721296198666" lon="12.810717998072505">
        <ele>55.25</ele>
        <time>2025-02-08T04:38:01.873Z</time>
      </trkpt>
      <trkpt lat="58.46726995892823" lon="12.810866944491863">
        <ele>55.13</ele>
        <time>2025-02-08T04:38:35.378Z</time>
      </trkpt>
      <trkpt lat="58.467329973354936" lon="12.811013963073492">
        <ele>55.02</ele>
        <time>2025-02-08T04:39:08.884Z</time>
      </trkpt>
      <trkpt lat="58.467389987781644" lon="12.811161987483501">
        <ele>54.91</ele>
        <time>2025-02-08T04:39:42.392Z</time>
      </trkpt>
      <trkpt lat="58.46744799055159" lon="12.811309928074479">
        <ele>54.8</ele>
        <time>2025-02-08T04:40:15.901Z</time>
      </trkpt>
      <trkpt lat="58.46750699914992" lon="12.811457952484488">
        <ele>54.7</ele>
        <time>2025-02-08T04:40:49.412Z</time>
      </trkpt>
      <trkpt lat="58.467565923929214" lon="12.811603965237737">
        <ele>54.61</ele>
        <time>2025-02-08T04:41:22.924Z</time>
      </trkpt>
      <trkpt lat="58.46762593835592" lon="12.811749977990985">
        <ele>54.52</ele>
        <time>2025-02-08T04:41:56.438Z</time>
      </trkpt>
      <trkpt lat="58.46768494695425" lon="12.811896996572614">
        <ele>54.43</ele>
        <time>2025-02-08T04:42:29.953Z</time>
      </trkpt>
      <trkpt lat="58.46774395555258" lon="12.81204393133521">
        <ele>54.35</ele>
        <time>2025-02-08T04:43:03.470Z</time>
      </trkpt>
      <trkpt lat="58.467800952494144" lon="12.812187932431698">
        <ele>54.26</ele>
        <time>2025-02-08T04:43:36.989Z</time>
      </trkpt>
      <trkpt lat="58.46785392612219" lon="12.812331933528185">
        <ele>54.18</ele>
        <time>2025-02-08T04:44:10.509Z</time>
      </trkpt>
      <trkpt lat="58.467906983569264" lon="12.81247291713953">
        <ele>54.1</ele>
        <time>2025-02-08T04:44:44.030Z</time>
      </trkpt>
      <trkpt lat="58.46796297468245" lon="12.812612978741527">
        <ele>54.02</ele>
        <time>2025-02-08T04:45:17.553Z</time>
      </trkpt>
      <trkpt lat="58.468017959967256" lon="12.812752956524491">
        <ele>53.94</ele>
        <time>2025-02-08T04:45:51.077Z</time>
      </trkpt>
      <trkpt lat="58.46807395108044" lon="12.812892934307456">
        <ele>53.87</ele>
        <time>2025-02-08T04:46:24.603Z</time>
      </trkpt>
      <trkpt lat="58.468127930536866" lon="12.81302796676755">
        <ele>53.81</ele>
        <time>2025-02-08T04:46:58.130Z</time>
      </trkpt>
      <trkpt lat="58.46818199381232" lon="12.813161993399262">
        <ele>53.75</ele>
        <time>2025-02-08T04:47:31.659Z</time>
      </trkpt>
      <trkpt lat="58.468233961611986" lon="12.813291996717453">
        <ele>53.68</ele>
        <time>2025-02-08T04:48:05.189Z</time>
      </trkpt>
      <trkpt lat="58.46828592941165" lon="12.813419988378882">
        <ele>53.63</ele>
        <time>2025-02-08T04:48:38.720Z</time>
      </trkpt>
      <trkpt lat="58.468336975201964" lon="12.81354596838355">
        <ele>53.57</ele>
        <time>2025-02-08T04:49:12.253Z</time>
      </trkpt>
      <trkpt lat="58.46838693134487" lon="12.813670942559838">
        <ele>53.52</ele>
        <time>2025-02-08T04:49:45.787Z</time>
      </trkpt>
      <trkpt lat="58.4684369713068" lon="12.813797928392887">
        <ele>53.47</ele>
        <time>2025-02-08T04:50:19.322Z</time>
      </trkpt>
      <trkpt lat="58.468487933278084" lon="12.813926925882697">
        <ele>53.42</ele>
        <time>2025-02-08T04:50:52.859Z</time>
      </trkpt>
      <trkpt lat="58.46854099072516" lon="12.814056929200888">
        <ele>53.37</ele>
        <time>2025-02-08T04:51:26.397Z</time>
      </trkpt>
      <trkpt lat="58.468593964353204" lon="12.814187938347459">
        <ele>53.33</ele>
        <time>2025-02-08T04:51:59.937Z</time>
      </trkpt>
      <trkpt lat="58.46864995546639" lon="12.81431995332241">
        <ele>53.29</ele>
        <time>2025-02-08T04:52:33.478Z</time>
      </trkpt>
      <trkpt lat="58.46870795823634" lon="12.814453979954123">
        <ele>53.25</ele>
        <time>2025-02-08T04:53:07.021Z</time>
      </trkpt>
      <trkpt lat="58.4687649551779" lon="12.814591946080327">
        <ele>53.21</ele>
        <time>2025-02-08T04:53:40.565Z</time>
      </trkpt>
      <trkpt lat="58.46881994046271" lon="12.814732929691672">
        <ele>53.18</ele>
        <time>2025-02-08T04:54:14.110Z</time>
      </trkpt>
      <trkpt lat="58.468874925747514" lon="12.81487399712205">
        <ele>53.15</ele>
        <time>2025-02-08T04:54:47.657Z</time>
      </trkpt>
      <trkpt lat="58.4689309168607" lon="12.815013974905014">
        <ele>53.12</ele>
        <time>2025-02-08T04:55:21.205Z</time>
      </trkpt>
      <trkpt lat="58.46898699179292" lon="12.815152946859598">
        <ele>53.09</ele>
        <time>2025-02-08T04:55:54.755Z</time>
      </trkpt>
      <trkpt lat="58.469043988734484" lon="12.815293930470943">
        <ele>53.06</ele>
        <time>2025-02-08T04:56:28.306Z</time>
      </trkpt>
      <trkpt lat="58.46910299733281" lon="12.81543499790132">
        <ele>53.04</ele>
        <time>2025-02-08T04:57:01.859Z</time>
      </trkpt>
      <trkpt lat="58.46915999427438" lon="12.815572964027524">
        <ele>53.01</ele>
        <time>2025-02-08T04:57:35.413Z</time>
      </trkpt>
      <trkpt lat="58.46921497955918" lon="12.815708918496966">
        <ele>52.99</ele>
        <time>2025-02-08T04:58:08.969Z</time>
      </trkpt>
      <trkpt lat="58.46926795318723" lon="12.815839927643538">
        <ele>52.97</ele>
        <time>2025-02-08T04:58:42.526Z</time>
      </trkpt>
      <trkpt lat="58.46932092681527" lon="12.815967919304967">
        <ele>52.95</ele>
        <time>2025-02-08T04:59:16.085Z</time>
      </trkpt>
      <trkpt lat="58.46937398426235" lon="12.816091971471906">
        <ele>52.93</ele>
        <time>2025-02-08T04:59:49.645Z</time>
      </trkpt>
      <trkpt lat="58.46942494623363" lon="12.816215939819813">
        <ele>52.91</ele>
        <time>2025-02-08T05:00:23.206Z</time>
      </trkpt>
      <trkpt lat="58.469474986195564" lon="12.816341919824481">
        <ele>52.9</ele>
        <time>2025-02-08T05:00:56.769Z</time>
      </trkpt>
      <trkpt lat="58.46952594816685" lon="12.816462954506278">
        <ele>52.89</ele>
        <time>2025-02-08T05:01:30.333Z</time>
      </trkpt>
      <trkpt lat="58.46957699395716" lon="12.816585917025805">
        <ele>52.88</ele>
        <time>2025-02-08T05:02:03.898Z</time>
      </trkpt>
      <trkpt lat="58.469627955928445" lon="12.816711980849504">
        <ele>52.86</ele>
        <time>2025-02-08T05:02:37.465Z</time>
      </trkpt>
      <trkpt lat="58.46967799589038" lon="12.816839972510934">
        <ele>52.85</ele>
        <time>2025-02-08T05:03:11.033Z</time>
      </trkpt>
      <trkpt lat="58.46972895786166" lon="12.816972993314266">
        <ele>52.84</ele>
        <time>2025-02-08T05:03:44.602Z</time>
      </trkpt>
      <trkpt lat="58.469777991995215" lon="12.817107941955328">
        <ele>52.83</ele>
        <time>2025-02-08T05:04:18.173Z</time>
      </trkpt>
      <trkpt lat="58.46982794813812" lon="12.817247919738293">
        <ele>52.83</ele>
        <time>2025-02-08T05:04:51.745Z</time>
      </trkpt>
      <trkpt lat="58.46987999975681" lon="12.817385969683528">
        <ele>52.83</ele>
        <time>2025-02-08T05:05:25.319Z</time>
      </trkpt>
      <trkpt lat="58.46993397921324" lon="12.817524941638112">
        <ele>52.83</ele>
        <time>2025-02-08T05:05:58.894Z</time>
      </trkpt>
      <trkpt lat="58.46998795866966" lon="12.817662991583347">
        <ele>52.83</ele>
        <time>2025-02-08T05:06:32.470Z</time>
      </trkpt>
      <trkpt lat="58.47004093229771" lon="12.81779995188117">
        <ele>52.83</ele>
        <time>2025-02-08T05:07:06.048Z</time>
      </trkpt>
      <trkpt lat="58.47009591758251" lon="12.817934984341264">
        <ele>52.84</ele>
        <time>2025-02-08T05:07:39.627Z</time>
      </trkpt>
      <trkpt lat="58.47014998085797" lon="12.818069932982326">
        <ele>52.85</ele>
        <time>2025-02-08T05:08:13.208Z</time>
      </trkpt>
      <trkpt lat="58.47020295448601" lon="12.818202953785658">
        <ele>52.85</ele>
        <time>2025-02-08T05:08:46.790Z</time>
      </trkpt>
      <trkpt lat="58.47025693394244" lon="12.81833496876061">
        <ele>52.86</ele>
        <time>2025-02-08T05:09:20.374Z</time>
      </trkpt>
      <trkpt lat="58.470313930884004" lon="12.818467989563942">
        <ele>52.86</ele>
        <time>2025-02-08T05:09:53.959Z</time>
      </trkpt>
      <trkpt lat="58.47037193365395" lon="12.818602938205004">
        <ele>52.86</ele>
        <time>2025-02-08T05:10:27.545Z</time>
      </trkpt>
      <trkpt lat="58.47042599692941" lon="12.818733947351575">
        <ele>52.86</ele>
        <time>2025-02-08T05:11:01.133Z</time>
      </trkpt>
      <trkpt lat="58.47048098221421" lon="12.818860933184624">
        <ele>52.85</ele>
        <time>2025-02-08T05:11:34.722Z</time>
      </trkpt>
      <trkpt lat="58.4705369733274" lon="12.818986997008324">
        <ele>52.85</ele>
        <time>2025-02-08T05:12:08.313Z</time>
      </trkpt>
      <trkpt lat="58.470594976097345" lon="12.819112977012992">
        <ele>52.83</ele>
        <time>2025-02-08T05:12:41.905Z</time>
      </trkpt>
      <trkpt lat="58.470655996352434" lon="12.819240968674421">
        <ele>52.82</ele>
        <time>2025-02-08T05:13:15.498Z</time>
      </trkpt>
      <trkpt lat="58.47071693278849" lon="12.819370971992612">
        <ele>52.8</ele>
        <time>2025-02-08T05:13:49.093Z</time>
      </trkpt>
      <trkpt lat="58.47077996470034" lon="12.819500975310802">
        <ele>52.78</ele>
        <time>2025-02-08T05:14:22.689Z</time>
      </trkpt>
      <trkpt lat="58.47084199078381" lon="12.819630978628993">
        <ele>52.77</ele>
        <time>2025-02-08T05:14:56.287Z</time>
      </trkpt>
      <trkpt lat="58.47090695053339" lon="12.819761987775564">
        <ele>52.77</ele>
        <time>2025-02-08T05:15:29.886Z</time>
      </trkpt>
      <trkpt lat="58.47097299993038" lon="12.819898948073387">
        <ele>52.77</ele>
        <time>2025-02-08T05:16:03.487Z</time>
      </trkpt>
      <trkpt lat="58.47103896550834" lon="12.820029957219958">
        <ele>52.78</ele>
        <time>2025-02-08T05:16:37.090Z</time>
      </trkpt>
      <trkpt lat="58.4711049310863" lon="12.820157948881388">
        <ele>52.78</ele>
        <time>2025-02-08T05:17:10.694Z</time>
      </trkpt>
      <trkpt lat="58.47116896882653" lon="12.820288958027959">
        <ele>52.78</ele>
        <time>2025-02-08T05:17:44.300Z</time>
      </trkpt>
      <trkpt lat="58.47123191691935" lon="12.820421978831291">
        <ele>52.79</ele>
        <time>2025-02-08T05:18:17.907Z</time>
      </trkpt>
      <trkpt lat="58.47129394300282" lon="12.820554999634624">
        <ele>52.8</ele>
        <time>2025-02-08T05:18:51.516Z</time>
      </trkpt>
      <trkpt lat="58.47135697491467" lon="12.820685924962163">
        <ele>52.81</ele>
        <time>2025-02-08T05:19:25.126Z</time>
      </trkpt>
      <trkpt lat="58.47141992300749" lon="12.820814922451973">
        <ele>52.81</ele>
        <time>2025-02-08T05:19:58.737Z</time>
      </trkpt>
      <trkpt lat="58.47148396074772" lon="12.820942997932434">
        <ele>52.81</ele>
        <time>2025-02-08T05:20:32.350Z</time>
      </trkpt>
      <trkpt lat="58.47154799848795" lon="12.821071995422244">
        <ele>52.81</ele>
        <time>2025-02-08T05:21:05.964Z</time>
      </trkpt>
      <trkpt lat="58.47161195240915" lon="12.821201998740435">
        <ele>52.81</ele>
        <time>2025-02-08T05:21:39.580Z</time>
      </trkpt>
      <trkpt lat="58.47167599014938" lon="12.821329990401864">
        <ele>52.81</ele>
        <time>2025-02-08T05:22:13.197Z</time>
      </trkpt>
      <trkpt lat="58.47174094989896" lon="12.821457982063293">
        <ele>52.8</ele>
        <time>2025-02-08T05:22:46.816Z</time>
      </trkpt>
      <trkpt lat="58.47180498763919" lon="12.821589997038245">
        <ele>52.78</ele>
        <time>2025-02-08T05:23:20.436Z</time>
      </trkpt>
      <trkpt lat="58.47187095321715" lon="12.821720922365785">
        <ele>52.77</ele>
        <time>2025-02-08T05:23:54.058Z</time>
      </trkpt>
      <trkpt lat="58.47193599678576" lon="12.821852937340736">
        <ele>52.76</ele>
        <time>2025-02-08T05:24:27.682Z</time>
      </trkpt>
      <trkpt lat="58.47200196236372" lon="12.821984952315688">
        <ele>52.75</ele>
        <time>2025-02-08T05:25:01.307Z</time>
      </trkpt>
      <trkpt lat="58.47206792794168" lon="12.82211596146226">
        <ele>52.74</ele>
        <time>2025-02-08T05:25:34.934Z</time>
      </trkpt>
      <trkpt lat="58.47213397733867" lon="12.822248982265592">
        <ele>52.73</ele>
        <time>2025-02-08T05:26:08.562Z</time>
      </trkpt>
      <trkpt lat="58.47220195457339" lon="12.822378985583782">
        <ele>52.73</ele>
        <time>2025-02-08T05:26:42.192Z</time>
      </trkpt>
      <trkpt lat="58.472269931808114" lon="12.822510916739702">
        <ele>52.72</ele>
        <time>2025-02-08T05:27:15.823Z</time>
      </trkpt>
      <trkpt lat="58.472335981205106" lon="12.822641925886273">
        <ele>52.72</ele>
        <time>2025-02-08T05:27:49.456Z</time>
      </trkpt>
      <trkpt lat="58.472400940954685" lon="12.822773940861225">
        <ele>52.72</ele>
        <time>2025-02-08T05:28:23.090Z</time>
      </trkpt>
      <trkpt lat="58.472463972866535" lon="12.822904950007796">
        <ele>52.72</ele>
        <time>2025-02-08T05:28:56.726Z</time>
      </trkpt>
      <trkpt lat="58.472524993121624" lon="12.823030930012465">
        <ele>52.73</ele>
        <time>2025-02-08T05:29:30.363Z</time>
      </trkpt>
      <trkpt lat="58.47258693538606" lon="12.823153976351023">
        <ele>52.73</ele>
        <time>2025-02-08T05:30:04.002Z</time>
      </trkpt>
      <trkpt lat="58.47264594398439" lon="12.823275933042169">
        <ele>52.73</ele>
        <time>2025-02-08T05:30:37.642Z</time>
      </trkpt>
      <trkpt lat="58.47270495258272" lon="12.823397973552346">
        <ele>52.73</ele>
        <time>2025-02-08T05:31:11.283Z</time>
      </trkpt>
      <trkpt lat="58.472764967009425" lon="12.823516996577382">
        <ele>52.73</ele>
        <time>2025-02-08T05:31:44.926Z</time>
      </trkpt>
      <trkpt lat="58.472826993092895" lon="12.823636941611767">
        <ele>52.73</ele>
        <time>2025-02-08T05:32:18.570Z</time>
      </trkpt>
      <trkpt lat="58.47288792952895" lon="12.823755964636803">
        <ele>52.73</ele>
        <time>2025-02-08T05:32:52.216Z</time>
      </trkpt>
      <trkpt lat="58.47294693812728" lon="12.823874987661839">
        <ele>52.72</ele>
        <time>2025-02-08T05:33:25.863Z</time>
      </trkpt>
      <trkpt lat="58.473002929240465" lon="12.823990993201733">
        <ele>52.72</ele>
        <time>2025-02-08T05:33:59.511Z</time>
      </trkpt>
      <trkpt lat="58.47306093201041" lon="12.824106998741627">
        <ele>52.71</ele>
        <time>2025-02-08T05:34:33.161Z</time>
      </trkpt>
      <trkpt lat="58.4731219522655" lon="12.824217975139618">
        <ele>52.7</ele>
        <time>2025-02-08T05:35:06.812Z</time>
      </trkpt>
      <trkpt lat="58.47318498417735" lon="12.824322916567326">
        <ele>52.69</ele>
        <time>2025-02-08T05:35:40.464Z</time>
      </trkpt>
      <trkpt lat="58.47325296141207" lon="12.824427941814065">
        <ele>52.67</ele>
        <time>2025-02-08T05:36:14.118Z</time>
      </trkpt>
      <trkpt lat="58.47332093864679" lon="12.824538918212056">
        <ele>52.65</ele>
        <time>2025-02-08T05:36:47.773Z</time>
      </trkpt>
      <trkpt lat="58.473390927538276" lon="12.824645955115557">
        <ele>52.63</ele>
        <time>2025-02-08T05:37:21.430Z</time>
      </trkpt>
      <trkpt lat="58.47346091642976" lon="12.824751986190677">
        <ele>52.61</ele>
        <time>2025-02-08T05:37:55.088Z</time>
      </trkpt>
      <trkpt lat="58.47353199496865" lon="12.824857933446765">
        <ele>52.59</ele>
        <time>2025-02-08T05:38:28.748Z</time>
      </trkpt>
      <trkpt lat="58.473604917526245" lon="12.824961952865124">
        <ele>52.56</ele>
        <time>2025-02-08T05:39:02.409Z</time>
      </trkpt>
      <trkpt lat="58.47367993555963" lon="12.825068989768624">
        <ele>52.54</ele>
        <time>2025-02-08T05:39:36.071Z</time>
      </trkpt>
      <trkpt lat="58.473755959421396" lon="12.825172925367951">
        <ele>52.51</ele>
        <time>2025-02-08T05:40:09.735Z</time>
      </trkpt>
      <trkpt lat="58.47383097745478" lon="12.82527694478631">
        <ele>52.48</ele>
        <time>2025-02-08T05:40:43.400Z</time>
      </trkpt>
      <trkpt lat="58.47390892915428" lon="12.825380964204669">
        <ele>52.45</ele>
        <time>2025-02-08T05:41:17.067Z</time>
      </trkpt>
      <trkpt lat="58.47398495301604" lon="12.825479954481125">
        <ele>52.42</ele>
        <time>2025-02-08T05:41:50.735Z</time>
      </trkpt>
      <trkpt lat="58.47405997104943" lon="12.82557693310082">
        <ele>52.39</ele>
        <time>2025-02-08T05:42:24.405Z</time>
      </trkpt>
      <trkpt lat="58.47413691692054" lon="12.825673995539546">
        <ele>52.36</ele>
        <time>2025-02-08T05:42:58.076Z</time>
      </trkpt>
      <trkpt lat="58.47421294078231" lon="12.82577097415924">
        <ele>52.32</ele>
        <time>2025-02-08T05:43:31.749Z</time>
      </trkpt>
      <trkpt lat="58.474288964644074" lon="12.825863929465413">
        <ele>52.29</ele>
        <time>2025-02-08T05:44:05.423Z</time>
      </trkpt>
      <trkpt lat="58.4743619710207" lon="12.825951939448714">
        <ele>52.26</ele>
        <time>2025-02-08T05:44:39.099Z</time>
      </trkpt>
      <trkpt lat="58.4744359832257" lon="12.826037937775254">
        <ele>52.24</ele>
        <time>2025-02-08T05:45:12.776Z</time>
      </trkpt>
      <trkpt lat="58.47450999543071" lon="12.826126953586936">
        <ele>52.21</ele>
        <time>2025-02-08T05:45:46.455Z</time>
      </trkpt>
      <trkpt lat="58.47458593547344" lon="12.826214963570237">
        <ele>52.18</ele>
        <time>2025-02-08T05:46:20.135Z</time>
      </trkpt>
      <trkpt lat="58.474658941850066" lon="12.826301967725158">
        <ele>52.15</ele>
        <time>2025-02-08T05:46:53.816Z</time>
      </trkpt>
      <trkpt lat="58.47473295405507" lon="12.826389977708459">
        <ele>52.12</ele>
        <time>2025-02-08T05:47:27.499Z</time>
      </trkpt>
      <trkpt lat="58.474804954603314" lon="12.82648092135787">
        <ele>52.09</ele>
        <time>2025-02-08T05:48:01.183Z</time>
      </trkpt>
      <trkpt lat="58.474870920181274" lon="12.826571948826313">
        <ele>52.06</ele>
        <time>2025-02-08T05:48:34.868Z</time>
      </trkpt>
      <trkpt lat="58.474934957921505" lon="12.826666999608278">
        <ele>52.02</ele>
        <time>2025-02-08T05:49:08.555Z</time>
      </trkpt>
      <trkpt lat="58.474997989833355" lon="12.826764984056354">
        <ele>51.98</ele>
        <time>2025-02-08T05:49:42.243Z</time>
      </trkpt>
      <trkpt lat="58.475061943754554" lon="12.826861962676048">
        <ele>51.94</ele>
        <time>2025-02-08T05:50:15.932Z</time>
      </trkpt>
      <trkpt lat="58.475125981494784" lon="12.826960952952504">
        <ele>51.89</ele>
        <time>2025-02-08T05:50:49.623Z</time>
      </trkpt>
      <trkpt lat="58.475191947072744" lon="12.827066984027624">
        <ele>51.83</ele>
        <time>2025-02-08T05:51:23.315Z</time>
      </trkpt>
      <trkpt lat="58.475255984812975" lon="12.827176954597235">
        <ele>51.78</ele>
        <time>2025-02-08T05:51:57.008Z</time>
      </trkpt>
      <trkpt lat="58.475321950390935" lon="12.827296983450651">
        <ele>51.73</ele>
        <time>2025-02-08T05:52:30.703Z</time>
      </trkpt>
      <trkpt lat="58.475385988131166" lon="12.8274239692837">
        <ele>51.68</ele>
        <time>2025-02-08T05:53:04.399Z</time>
      </trkpt>
      <trkpt lat="58.4754479303956" lon="12.827555984258652">
        <ele>51.63</ele>
        <time>2025-02-08T05:53:38.097Z</time>
      </trkpt>
      <trkpt lat="58.47550199367106" lon="12.827689927071333">
        <ele>51.57</ele>
        <time>2025-02-08T05:54:11.796Z</time>
      </trkpt>
      <trkpt lat="58.47555396147072" lon="12.827825965359807">
        <ele>51.51</ele>
        <time>2025-02-08T05:54:45.497Z</time>
      </trkpt>
      <trkpt lat="58.475599978119135" lon="12.82796292565763">
        <ele>51.46</ele>
        <time>2025-02-08T05:55:19.199Z</time>
      </trkpt>
      <trkpt lat="58.475640965625644" lon="12.828104998916388">
        <ele>51.41</ele>
        <time>2025-02-08T05:55:52.902Z</time>
      </trkpt>
      <trkpt lat="58.47567591816187" lon="12.828247994184494">
        <ele>51.35</ele>
        <time>2025-02-08T05:56:26.607Z</time>
      </trkpt>
      <trkpt lat="58.47570491954684" lon="12.828391995280981">
        <ele>51.29</ele>
        <time>2025-02-08T05:57:00.313Z</time>
      </trkpt>
      <trkpt lat="58.475729981437325" lon="12.828534990549088">
        <ele>51.23</ele>
        <time>2025-02-08T05:57:34.020Z</time>
      </trkpt>
      <trkpt lat="58.475753953680396" lon="12.828678991645575">
        <ele>51.18</ele>
        <time>2025-02-08T05:58:07.729Z</time>
      </trkpt>
      <trkpt lat="58.47577792592347" lon="12.828823998570442">
        <ele>51.11</ele>
        <time>2025-02-08T05:58:41.439Z</time>
      </trkpt>
      <trkpt lat="58.47579997032881" lon="12.8289729449898">
        <ele>51.05</ele>
        <time>2025-02-08T05:59:15.150Z</time>
      </trkpt>
      <trkpt lat="58.47582092508674" lon="12.829124992713332">
        <ele>50.98</ele>
        <time>2025-02-08T05:59:48.862Z</time>
      </trkpt>
      <trkpt lat="58.4758419636637" lon="12.829280979931355">
        <ele>50.92</ele>
        <time>2025-02-08T06:00:22.576Z</time>
      </trkpt>
      <trkpt lat="58.475862918421626" lon="12.829439984634519">
        <ele>50.85</ele>
        <time>2025-02-08T06:00:56.291Z</time>
      </trkpt>
      <trkpt lat="58.47588496282697" lon="12.829599995166063">
        <ele>50.79</ele>
        <time>2025-02-08T06:01:30.008Z</time>
      </trkpt>
      <trkpt lat="58.47590792924166" lon="12.829761933535337">
        <ele>50.71</ele>
        <time>2025-02-08T06:02:03.726Z</time>
      </trkpt>
      <trkpt lat="58.47593097947538" lon="12.829925967380404">
        <ele>50.64</ele>
        <time>2025-02-08T06:02:37.445Z</time>
      </trkpt>
      <trkpt lat="58.47595696337521" lon="12.830095952376723">
        <ele>50.56</ele>
        <time>2025-02-08T06:03:11.166Z</time>
      </trkpt>
      <trkpt lat="58.47598395310342" lon="12.830269960686564">
        <ele>50.48</ele>
        <time>2025-02-08T06:03:44.888Z</time>
      </trkpt>
      <trkpt lat="58.476010942831635" lon="12.830448998138309">
        <ele>50.4</ele>
        <time>2025-02-08T06:04:18.612Z</time>
      </trkpt>
      <trkpt lat="58.47603692673147" lon="12.830629963427782">
        <ele>50.32</ele>
        <time>2025-02-08T06:04:52.338Z</time>
      </trkpt>
      <trkpt lat="58.47606198862195" lon="12.830813946202397">
        <ele>50.24</ele>
        <time>2025-02-08T06:05:26.065Z</time>
      </trkpt>
      <trkpt lat="58.47608495503664" lon="12.831001952290535">
        <ele>50.16</ele>
        <time>2025-02-08T06:05:59.794Z</time>
      </trkpt>
      <trkpt lat="58.47610993310809" lon="12.831188952550292">
        <ele>50.09</ele>
        <time>2025-02-08T06:06:33.524Z</time>
      </trkpt>
      <trkpt lat="58.47613591700792" lon="12.831373941153288">
        <ele>50.02</ele>
        <time>2025-02-08T06:07:07.256Z</time>
      </trkpt>
      <trkpt lat="58.476160978898406" lon="12.831558929756284">
        <ele>49.95</ele>
        <time>2025-02-08T06:07:40.990Z</time>
      </trkpt>
      <trkpt lat="58.47618696279824" lon="12.83174391835928">
        <ele>49.88</ele>
        <time>2025-02-08T06:08:14.725Z</time>
      </trkpt>
      <trkpt lat="58.47621194086969" lon="12.831928990781307">
        <ele>49.81</ele>
        <time>2025-02-08T06:08:48.462Z</time>
      </trkpt>
      <trkpt lat="58.47623599693179" lon="12.832112973555923">
        <ele>49.75</ele>
        <time>2025-02-08T06:09:22.200Z</time>
      </trkpt>
      <trkpt lat="58.47625996917486" lon="12.832295950502157">
        <ele>49.67</ele>
        <time>2025-02-08T06:09:55.940Z</time>
      </trkpt>
      <trkpt lat="58.47628394141793" lon="12.832477921620011">
        <ele>49.6</ele>
        <time>2025-02-08T06:10:29.682Z</time>
      </trkpt>
      <trkpt lat="58.476306991651654" lon="12.832656959071755">
        <ele>49.53</ele>
        <time>2025-02-08T06:11:03.425Z</time>
      </trkpt>
      <trkpt lat="58.476329958066344" lon="12.832832979038358">
        <ele>49.45</ele>
        <time>2025-02-08T06:11:37.170Z</time>
      </trkpt>
      <trkpt lat="58.476353930309415" lon="12.833009921014309">
        <ele>49.38</ele>
        <time>2025-02-08T06:12:10.916Z</time>
      </trkpt>
      <trkpt lat="58.476375974714756" lon="12.833190970122814">
        <ele>49.3</ele>
        <time>2025-02-08T06:12:44.664Z</time>
      </trkpt>
      <trkpt lat="58.47639994695783" lon="12.833372941240668">
        <ele>49.22</ele>
        <time>2025-02-08T06:13:18.413Z</time>
      </trkpt>
      <trkpt lat="58.47642492502928" lon="12.833557929843664">
        <ele>49.13</ele>
        <time>2025-02-08T06:13:52.164Z</time>
      </trkpt>
      <trkpt lat="58.47645099274814" lon="12.83374392427504">
        <ele>49.06</ele>
        <time>2025-02-08T06:14:25.917Z</time>
      </trkpt>
      <trkpt lat="58.476477982476354" lon="12.833931930363178">
        <ele>48.98</ele>
        <time>2025-02-08T06:14:59.671Z</time>
      </trkpt>
      <trkpt lat="58.476503966376185" lon="12.834119936451316">
        <ele>48.91</ele>
        <time>2025-02-08T06:15:33.427Z</time>
      </trkpt>
      <trkpt lat="58.47653296776116" lon="12.834308948367834">
        <ele>48.83</ele>
        <time>2025-02-08T06:16:07.184Z</time>
      </trkpt>
      <trkpt lat="58.476565992459655" lon="12.834497960284352">
        <ele>48.77</ele>
        <time>2025-02-08T06:16:40.943Z</time>
      </trkpt>
      <trkpt lat="58.47660094499588" lon="12.834682948887348">
        <ele>48.7</ele>
        <time>2025-02-08T06:17:14.704Z</time>
      </trkpt>
      <trkpt lat="58.47663992084563" lon="12.834864920005202">
        <ele>48.63</ele>
        <time>2025-02-08T06:17:48.466Z</time>
      </trkpt>
      <trkpt lat="58.47668099217117" lon="12.835040939971805">
        <ele>48.56</ele>
        <time>2025-02-08T06:18:22.230Z</time>
      </trkpt>
      <trkpt lat="58.47672499716282" lon="12.835209919139743">
        <ele>48.5</ele>
        <time>2025-02-08T06:18:55.996Z</time>
      </trkpt>
      <trkpt lat="58.4767709299922" lon="12.83537294715643">
        <ele>48.44</ele>
        <time>2025-02-08T06:19:29.763Z</time>
      </trkpt>
      <trkpt lat="58.47681996412575" lon="12.835529940202832">
        <ele>48.38</ele>
        <time>2025-02-08T06:20:03.532Z</time>
      </trkpt>
      <trkpt lat="58.476870926097035" lon="12.835682993754745">
        <ele>48.32</ele>
        <time>2025-02-08T06:20:37.302Z</time>
      </trkpt>
      <trkpt lat="58.47692398354411" lon="12.835834957659245">
        <ele>48.26</ele>
        <time>2025-02-08T06:21:11.074Z</time>
      </trkpt>
      <trkpt lat="58.476975951343775" lon="12.835987927392125">
        <ele>48.2</ele>
        <time>2025-02-08T06:21:44.847Z</time>
      </trkpt>
      <trkpt lat="58.47702892497182" lon="12.836140980944037">
        <ele>48.14</ele>
        <time>2025-02-08T06:22:18.622Z</time>
      </trkpt>
      <trkpt lat="58.477081982418895" lon="12.836294956505299">
        <ele>48.09</ele>
        <time>2025-02-08T06:22:52.398Z</time>
      </trkpt>
      <trkpt lat="58.47713596187532" lon="12.83644792623818">
        <ele>48.03</ele>
        <time>2025-02-08T06:23:26.176Z</time>
      </trkpt>
      <trkpt lat="58.477190947160125" lon="12.836599973961711">
        <ele>47.98</ele>
        <time>2025-02-08T06:23:59.956Z</time>
      </trkpt>
      <trkpt lat="58.47724693827331" lon="12.83675093203783">
        <ele>47.93</ele>
        <time>2025-02-08T06:24:33.737Z</time>
      </trkpt>
      <trkpt lat="58.477300917729735" lon="12.836902979761362">
        <ele>47.88</ele>
        <time>2025-02-08T06:25:07.520Z</time>
      </trkpt>
      <trkpt lat="58.47735598683357" lon="12.837055949494243">
        <ele>47.83</ele>
        <time>2025-02-08T06:25:41.304Z</time>
      </trkpt>
      <trkpt lat="58.47740996629" lon="12.837208919227123">
        <ele>47.79</ele>
        <time>2025-02-08T06:26:15.090Z</time>
      </trkpt>
      <trkpt lat="58.47746394574642" lon="12.837363984435797">
        <ele>47.74</ele>
        <time>2025-02-08T06:26:48.877Z</time>
      </trkpt>
      <trkpt lat="58.47751792520285" lon="12.837519971653819">
        <ele>47.69</ele>
        <time>2025-02-08T06:27:22.666Z</time>
      </trkpt>
      <trkpt lat="58.47757098264992" lon="12.837678976356983">
        <ele>47.65</ele>
        <time>2025-02-08T06:27:56.456Z</time>
      </trkpt>
      <trkpt lat="58.477619932964444" lon="12.837840998545289">
        <ele>47.61</ele>
        <time>2025-02-08T06:28:30.248Z</time>
      </trkpt>
      <trkpt lat="58.477664943784475" lon="12.838008971884847">
        <ele>47.57</ele>
        <time>2025-02-08T06:29:04.042Z</time>
      </trkpt>
      <trkpt lat="58.477705931290984" lon="12.838179962709546">
        <ele>47.53</ele>
        <time>2025-02-08T06:29:37.837Z</time>
      </trkpt>
      <trkpt lat="58.47774398513138" lon="12.838351959362626">
        <ele>47.5</ele>
        <time>2025-02-08T06:30:11.634Z</time>
      </trkpt>
      <trkpt lat="58.47777793183923" lon="12.838525967672467">
        <ele>47.47</ele>
        <time>2025-02-08T06:30:45.432Z</time>
      </trkpt>
      <trkpt lat="58.4778069332242" lon="12.83870299346745">
        <ele>47.44</ele>
        <time>2025-02-08T06:31:19.232Z</time>
      </trkpt>
      <trkpt lat="58.477831995114684" lon="12.838880941271782">
        <ele>47.41</ele>
        <time>2025-02-08T06:31:53.033Z</time>
      </trkpt>
      <trkpt lat="58.47785294987261" lon="12.839058972895145">
        <ele>47.38</ele>
        <time>2025-02-08T06:32:26.836Z</time>
      </trkpt>
      <trkpt lat="58.47786996513605" lon="12.839236920699477">
        <ele>47.36</ele>
        <time>2025-02-08T06:33:00.640Z</time>
      </trkpt>
      <trkpt lat="58.47788396291435" lon="12.83941495232284">
        <ele>47.33</ele>
        <time>2025-02-08T06:33:34.446Z</time>
      </trkpt>
      <trkpt lat="58.4778949432075" lon="12.839591978117824">
        <ele>47.31</ele>
        <time>2025-02-08T06:34:08.254Z</time>
      </trkpt>
      <trkpt lat="58.47790399566293" lon="12.839766992256045">
        <ele>47.3</ele>
        <time>2025-02-08T06:34:42.063Z</time>
      </trkpt>
      <trkpt lat="58.47791195847094" lon="12.839940916746855">
        <ele>47.28</ele>
        <time>2025-02-08T06:35:15.873Z</time>
      </trkpt>
      <trkpt lat="58.47791992127895" lon="12.840111991390586">
        <ele>47.26</ele>
        <time>2025-02-08T06:35:49.685Z</time>
      </trkpt>
      <trkpt lat="58.477927967906" lon="12.840281976386905">
        <ele>47.25</ele>
        <time>2025-02-08T06:36:23.498Z</time>
      </trkpt>
      <trkpt lat="58.47793693654239" lon="12.840450955554843">
        <ele>47.24</ele>
        <time>2025-02-08T06:36:57.313Z</time>
      </trkpt>
      <trkpt lat="58.47794598899782" lon="12.840620940551162">
        <ele>47.23</ele>
        <time>2025-02-08T06:37:31.129Z</time>
      </trkpt>
      <trkpt lat="58.47795495763421" lon="12.840791931375861">
        <ele>47.22</ele>
        <time>2025-02-08T06:38:04.947Z</time>
      </trkpt>
      <trkpt lat="58.47796292044222" lon="12.84096191637218">
        <ele>47.21</ele>
        <time>2025-02-08T06:38:38.766Z</time>
      </trkpt>
      <trkpt lat="58.47797197289765" lon="12.84113097935915">
        <ele>47.21</ele>
        <time>2025-02-08T06:39:12.586Z</time>
      </trkpt>
      <trkpt lat="58.47797892987728" lon="12.841297946870327">
        <ele>47.2</ele>
        <time>2025-02-08T06:39:46.408Z</time>
      </trkpt>
      <trkpt lat="58.477985970675945" lon="12.841461980715394">
        <ele>47.2</ele>
        <time>2025-02-08T06:40:20.231Z</time>
      </trkpt>
      <trkpt lat="58.47799594514072" lon="12.84162693656981">
        <ele>47.2</ele>
        <time>2025-02-08T06:40:54.056Z</time>
      </trkpt>
      <trkpt lat="58.478004997596145" lon="12.841792982071638">
        <ele>47.2</ele>
        <time>2025-02-08T06:41:27.882Z</time>
      </trkpt>
      <trkpt lat="58.47801296040416" lon="12.841957937926054">
        <ele>47.2</ele>
        <time>2025-02-08T06:42:01.709Z</time>
      </trkpt>
      <trkpt lat="58.47802092321217" lon="12.842122977599502">
        <ele>47.2</ele>
        <time>2025-02-08T06:42:35.538Z</time>
      </trkpt>
      <trkpt lat="58.478027964010835" lon="12.842287933453918">
        <ele>47.21</ele>
        <time>2025-02-08T06:43:09.368Z</time>
      </trkpt>
      <trkpt lat="58.47803592681885" lon="12.842450961470604">
        <ele>47.22</ele>
        <time>2025-02-08T06:43:43.200Z</time>
      </trkpt>
      <trkpt lat="58.47804296761751" lon="12.84261398948729">
        <ele>47.23</ele>
        <time>2025-02-08T06:44:17.033Z</time>
      </trkpt>
      <trkpt lat="58.478051936253905" lon="12.842776933684945">
        <ele>47.24</ele>
        <time>2025-02-08T06:44:50.867Z</time>
      </trkpt>
      <trkpt lat="58.47806098870933" lon="12.842934932559729">
        <ele>47.26</ele>
        <time>2025-02-08T06:45:24.703Z</time>
      </trkpt>
      <trkpt lat="58.478069957345724" lon="12.843091925606132">
        <ele>47.27</ele>
        <time>2025-02-08T06:45:58.540Z</time>
      </trkpt>
      <trkpt lat="58.47808093763888" lon="12.843250930309296">
        <ele>47.29</ele>
        <time>2025-02-08T06:46:32.378Z</time>
      </trkpt>
      <trkpt lat="58.47809191793203" lon="12.843411946669221">
        <ele>47.31</ele>
        <time>2025-02-08T06:47:06.218Z</time>
      </trkpt>
      <trkpt lat="58.47810298204422" lon="12.843574974685907">
        <ele>47.33</ele>
        <time>2025-02-08T06:47:40.059Z</time>
      </trkpt>
      <trkpt lat="58.478114968165755" lon="12.843738924711943">
        <ele>47.35</ele>
        <time>2025-02-08T06:48:13.902Z</time>
      </trkpt>
      <trkpt lat="58.47812796011567" lon="12.84390396438539">
        <ele>47.37</ele>
        <time>2025-02-08T06:48:47.746Z</time>
      </trkpt>
      <trkpt lat="58.478138940408826" lon="12.844070931896567">
        <ele>47.39</ele>
        <time>2025-02-08T06:49:21.591Z</time>
      </trkpt>
      <trkpt lat="58.47815193235874" lon="12.844239994883537">
        <ele>47.41</ele>
        <time>2025-02-08T06:49:55.438Z</time>
      </trkpt>
      <trkpt lat="58.47817397676408" lon="12.844407968223095">
        <ele>47.44</ele>
        <time>2025-02-08T06:50:29.286Z</time>
      </trkpt>
      <trkpt lat="58.47819291986525" lon="12.84457292407751">
        <ele>47.46</ele>
        <time>2025-02-08T06:51:03.136Z</time>
      </trkpt>
      <trkpt lat="58.47821496427059" lon="12.844735952094197">
        <ele>47.49</ele>
        <time>2025-02-08T06:51:36.987Z</time>
      </trkpt>
      <trkpt lat="58.47823298536241" lon="12.844896968454123">
        <ele>47.52</ele>
        <time>2025-02-08T06:52:10.839Z</time>
      </trkpt>
      <trkpt lat="58.47825394012034" lon="12.845060918480158">
        <ele>47.54</ele>
        <time>2025-02-08T06:52:44.693Z</time>
      </trkpt>
      <trkpt lat="58.47827598452568" lon="12.845224952325225">
        <ele>47.57</ele>
        <time>2025-02-08T06:53:18.548Z</time>
      </trkpt>
      <trkpt lat="58.47829693928361" lon="12.845387980341911">
        <ele>47.61</ele>
        <time>2025-02-08T06:53:52.405Z</time>
      </trkpt>
      <trkpt lat="58.47831998951733" lon="12.845553942024708">
        <ele>47.63</ele>
        <time>2025-02-08T06:54:26.263Z</time>
      </trkpt>
      <trkpt lat="58.47834295593202" lon="12.845720993354917">
        <ele>47.66</ele>
        <time>2025-02-08T06:55:00.123Z</time>
      </trkpt>
      <trkpt lat="58.47836491651833" lon="12.845887960866094">
        <ele>47.7</ele>
        <time>2025-02-08T06:55:33.984Z</time>
      </trkpt>
      <trkpt lat="58.47838696092367" lon="12.84605492837727">
        <ele>47.73</ele>
        <time>2025-02-08T06:56:07.846Z</time>
      </trkpt>
      <trkpt lat="58.47840992733836" lon="12.84622197970748">
        <ele>47.77</ele>
        <time>2025-02-08T06:56:41.710Z</time>
      </trkpt>
      <trkpt lat="58.47843297757208" lon="12.846387941390276">
        <ele>47.79</ele>
        <time>2025-02-08T06:57:15.575Z</time>
      </trkpt>
      <trkpt lat="58.478456949815154" lon="12.846553986892104">
        <ele>47.83</ele>
        <time>2025-02-08T06:57:49.442Z</time>
      </trkpt>
      <trkpt lat="58.478478994220495" lon="12.84671894274652">
        <ele>47.86</ele>
        <time>2025-02-08T06:58:23.310Z</time>
      </trkpt>
      <trkpt lat="58.478499948978424" lon="12.846882976591587">
        <ele>47.9</ele>
        <time>2025-02-08T06:58:57.180Z</time>
      </trkpt>
      <trkpt lat="58.47851897589862" lon="12.847043992951512">
        <ele>47.93</ele>
        <time>2025-02-08T06:59:31.051Z</time>
      </trkpt>
      <trkpt lat="58.47853993065655" lon="12.847204925492406">
        <ele>47.97</ele>
        <time>2025-02-08T07:00:04.923Z</time>
      </trkpt>
      <trkpt lat="58.47856096923351" lon="12.84736493602395">
        <ele>48.0</ele>
        <time>2025-02-08T07:00:38.797Z</time>
      </trkpt>
      <trkpt lat="58.47858091816306" lon="12.847520923241973">
        <ele>48.03</ele>
        <time>2025-02-08T07:01:12.672Z</time>
      </trkpt>
      <trkpt lat="58.4785979334265" lon="12.847675988450646">
        <ele>48.07</ele>
        <time>2025-02-08T07:01:46.549Z</time>
      </trkpt>
      <trkpt lat="58.478612937033176" lon="12.847830969840288">
        <ele>48.1</ele>
        <time>2025-02-08T07:02:20.427Z</time>
      </trkpt>
      <trkpt lat="58.47862794063985" lon="12.84798494540155">
        <ele>48.13</ele>
        <time>2025-02-08T07:02:54.306Z</time>
      </trkpt>
      <trkpt lat="58.47864395007491" lon="12.848137998953462">
        <ele>48.17</ele>
        <time>2025-02-08T07:03:28.186Z</time>
      </trkpt>
      <trkpt lat="58.47865995950997" lon="12.8482879512012">
        <ele>48.2</ele>
        <time>2025-02-08T07:04:02.068Z</time>
      </trkpt>
      <trkpt lat="58.478673957288265" lon="12.84843597561121">
        <ele>48.23</ele>
        <time>2025-02-08T07:04:35.951Z</time>
      </trkpt>
      <trkpt lat="58.47868493758142" lon="12.848581988364458">
        <ele>48.27</ele>
        <time>2025-02-08T07:05:09.835Z</time>
      </trkpt>
      <trkpt lat="58.478697929531336" lon="12.848728923127055">
        <ele>48.31</ele>
        <time>2025-02-08T07:05:43.721Z</time>
      </trkpt>
      <trkpt lat="58.47870798781514" lon="12.848875941708684">
        <ele>48.34</ele>
        <time>2025-02-08T07:06:17.608Z</time>
      </trkpt>
      <trkpt lat="58.478715950623155" lon="12.849023966118693">
        <ele>48.38</ele>
        <time>2025-02-08T07:06:51.496Z</time>
      </trkpt>
      <trkpt lat="58.47872299142182" lon="12.849169978871942">
        <ele>48.42</ele>
        <time>2025-02-08T07:07:25.385Z</time>
      </trkpt>
      <trkpt lat="58.47872994840145" lon="12.84931699745357">
        <ele>48.45</ele>
        <time>2025-02-08T07:07:59.275Z</time>
      </trkpt>
      <trkpt lat="58.478735983371735" lon="12.849464938044548">
        <ele>48.49</ele>
        <time>2025-02-08T07:08:33.167Z</time>
      </trkpt>
      <trkpt lat="58.478741934522986" lon="12.849613968282938">
        <ele>48.53</ele>
        <time>2025-02-08T07:09:07.060Z</time>
      </trkpt>
      <trkpt lat="58.47874696366489" lon="12.849762998521328">
        <ele>48.56</ele>
        <time>2025-02-08T07:09:40.954Z</time>
      </trkpt>
      <trkpt lat="58.47875299863517" lon="12.849912950769067">
        <ele>48.59</ele>
        <time>2025-02-08T07:10:14.850Z</time>
      </trkpt>
      <trkpt lat="58.478757943958044" lon="12.850062986835837">
        <ele>48.63</ele>
        <time>2025-02-08T07:10:48.747Z</time>
      </trkpt>
      <trkpt lat="58.47876397892833" lon="12.850212939083576">
        <ele>48.67</ele>
        <time>2025-02-08T07:11:22.645Z</time>
      </trkpt>
      <trkpt lat="58.47876993007958" lon="12.850363980978727">
        <ele>48.72</ele>
        <time>2025-02-08T07:11:56.544Z</time>
      </trkpt>
      <trkpt lat="58.47877596504986" lon="12.850514939054847">
        <ele>48.75</ele>
        <time>2025-02-08T07:12:30.445Z</time>
      </trkpt>
      <trkpt lat="58.478780994191766" lon="12.850665980949998">
        <ele>48.79</ele>
        <time>2025-02-08T07:13:04.347Z</time>
      </trkpt>
      <trkpt lat="58.47878694534302" lon="12.850815933197737">
        <ele>48.84</ele>
        <time>2025-02-08T07:13:38.250Z</time>
      </trkpt>
      <trkpt lat="58.4787929803133" lon="12.850965969264507">
        <ele>48.88</ele>
        <time>2025-02-08T07:14:12.154Z</time>
      </trkpt>
      <trkpt lat="58.478800943121314" lon="12.851115921512246">
        <ele>48.92</ele>
        <time>2025-02-08T07:14:46.060Z</time>
      </trkpt>
      <trkpt lat="58.47880798391998" lon="12.851266963407397">
        <ele>48.96</ele>
        <time>2025-02-08T07:15:19.967Z</time>
      </trkpt>
      <trkpt lat="58.47881393507123" lon="12.851419933140278">
        <ele>49.0</ele>
        <time>2025-02-08T07:15:53.875Z</time>
      </trkpt>
      <trkpt lat="58.47881896421313" lon="12.8515759203583">
        <ele>49.03</ele>
        <time>2025-02-08T07:16:27.785Z</time>
      </trkpt>
      <trkpt lat="58.478824999183416" lon="12.851732997223735">
        <ele>49.06</ele>
        <time>2025-02-08T07:17:01.696Z</time>
      </trkpt>
      <trkpt lat="58.47882994450629" lon="12.851889990270138">
        <ele>49.1</ele>
        <time>2025-02-08T07:17:35.608Z</time>
      </trkpt>
      <trkpt lat="58.47883597947657" lon="12.85204698331654">
        <ele>49.13</ele>
        <time>2025-02-08T07:18:09.521Z</time>
      </trkpt>
      <trkpt lat="58.4788429364562" lon="12.852204982191324">
        <ele>49.16</ele>
        <time>2025-02-08T07:18:43.436Z</time>
      </trkpt>
      <trkpt lat="58.478847965598106" lon="12.852362981066108">
        <ele>49.19</ele>
        <time>2025-02-08T07:19:17.352Z</time>
      </trkpt>
      <trkpt lat="58.47885198891163" lon="12.852521985769272">
        <ele>49.23</ele>
        <time>2025-02-08T07:19:51.269Z</time>
      </trkpt>
      <trkpt lat="58.47885794006288" lon="12.852681996300817">
        <ele>49.26</ele>
        <time>2025-02-08T07:20:25.188Z</time>
      </trkpt>
      <trkpt lat="58.478864980861545" lon="12.852840917184949">
        <ele>49.3</ele>
        <time>2025-02-08T07:20:59.108Z</time>
      </trkpt>
      <trkpt lat="58.478868920356035" lon="12.852996988222003">
        <ele>49.34</ele>
        <time>2025-02-08T07:21:33.029Z</time>
      </trkpt>
      <trkpt lat="58.47887294366956" lon="12.853148952126503">
        <ele>49.37</ele>
        <time>2025-02-08T07:22:06.952Z</time>
      </trkpt>
      <trkpt lat="58.47887897863984" lon="12.853300999850035">
        <ele>49.41</ele>
        <time>2025-02-08T07:22:40.876Z</time>
      </trkpt>
      <trkpt lat="58.47888492979109" lon="12.853452963754535">
        <ele>49.45</ele>
        <time>2025-02-08T07:23:14.801Z</time>
      </trkpt>
      <trkpt lat="58.478890964761376" lon="12.853603921830654">
        <ele>49.49</ele>
        <time>2025-02-08T07:23:48.728Z</time>
      </trkpt>
      <trkpt lat="58.47889699973166" lon="12.853755969554186">
        <ele>49.53</ele>
        <time>2025-02-08T07:24:22.656Z</time>
      </trkpt>
      <trkpt lat="58.47890194505453" lon="12.853906927630305">
        <ele>49.57</ele>
        <time>2025-02-08T07:24:56.585Z</time>
      </trkpt>
      <trkpt lat="58.478907980024815" lon="12.854056963697076">
        <ele>49.61</ele>
        <time>2025-02-08T07:25:30.515Z</time>
      </trkpt>
      <trkpt lat="58.47891594283283" lon="12.854207921773195">
        <ele>49.65</ele>
        <time>2025-02-08T07:26:04.447Z</time>
      </trkpt>
      <trkpt lat="58.47892097197473" lon="12.854355946183205">
        <ele>49.69</ele>
        <time>2025-02-08T07:26:38.380Z</time>
      </trkpt>
      <trkpt lat="58.47892499528825" lon="12.854500953108072">
        <ele>49.72</ele>
        <time>2025-02-08T07:27:12.314Z</time>
      </trkpt>
      <trkpt lat="58.478930946439505" lon="12.854643948376179">
        <ele>49.75</ele>
        <time>2025-02-08T07:27:46.249Z</time>
      </trkpt>
      <trkpt lat="58.47893496975303" lon="12.854784931987524">
        <ele>49.79</ele>
        <time>2025-02-08T07:28:20.186Z</time>
      </trkpt>
      <trkpt lat="58.47893899306655" lon="12.85492499358952">
        <ele>49.82</ele>
        <time>2025-02-08T07:28:54.124Z</time>
      </trkpt>
      <trkpt lat="58.47894293256104" lon="12.855061953887343">
        <ele>49.86</ele>
        <time>2025-02-08T07:29:28.063Z</time>
      </trkpt>
      <trkpt lat="58.47894695587456" lon="12.855195980519056">
        <ele>49.89</ele>
        <time>2025-02-08T07:30:02.003Z</time>
      </trkpt>
      <trkpt lat="58.478949973359704" lon="12.855330929160118">
        <ele>49.91</ele>
        <time>2025-02-08T07:30:35.944Z</time>
      </trkpt>
      <trkpt lat="58.478953996673226" lon="12.855465961620212">
        <ele>49.94</ele>
        <time>2025-02-08T07:31:09.886Z</time>
      </trkpt>
      <trkpt lat="58.47895793616772" lon="12.855600994080305">
        <ele>49.98</ele>
        <time>2025-02-08T07:31:43.829Z</time>
      </trkpt>
      <trkpt lat="58.47896296530962" lon="12.855733931064606">
        <ele>50.01</ele>
        <time>2025-02-08T07:32:17.774Z</time>
      </trkpt>
      <trkpt lat="58.47896799445152" lon="12.855864940211177">
        <ele>50.04</ele>
        <time>2025-02-08T07:32:51.720Z</time>
      </trkpt>
      <trkpt lat="58.478972939774394" lon="12.855995949357748">
        <ele>50.06</ele>
        <time>2025-02-08T07:33:25.667Z</time>
      </trkpt>
      <trkpt lat="58.47897897474468" lon="12.856125952675939">
        <ele>50.1</ele>
        <time>2025-02-08T07:33:59.615Z</time>
      </trkpt>
      <trkpt lat="58.47898593172431" lon="12.85625595599413">
        <ele>50.13</ele>
        <time>2025-02-08T07:34:33.564Z</time>
      </trkpt>
      <trkpt lat="58.478992972522974" lon="12.85638495348394">
        <ele>50.16</ele>
        <time>2025-02-08T07:35:07.514Z</time>
      </trkpt>
      <trkpt lat="58.478998923674226" lon="12.856510933488607">
        <ele>50.19</ele>
        <time>2025-02-08T07:35:41.465Z</time>
      </trkpt>
      <trkpt lat="58.47900395281613" lon="12.856636997312307">
        <ele>50.22</ele>
        <time>2025-02-08T07:36:15.417Z</time>
      </trkpt>
      <trkpt lat="58.47900797612965" lon="12.856762977316976">
        <ele>50.25</ele>
        <time>2025-02-08T07:36:49.370Z</time>
      </trkpt>
      <trkpt lat="58.47901292145252" lon="12.856888957321644">
        <ele>50.28</ele>
        <time>2025-02-08T07:37:23.324Z</time>
      </trkpt>
      <trkpt lat="58.479019962251186" lon="12.857019966468215">
        <ele>50.31</ele>
        <time>2025-02-08T07:37:57.279Z</time>
      </trkpt>
      <trkpt lat="58.4790279250592" lon="12.857154998928308">
        <ele>50.33</ele>
        <time>2025-02-08T07:38:31.236Z</time>
      </trkpt>
      <trkpt lat="58.479039994999766" lon="12.85728994756937">
        <ele>50.36</ele>
        <time>2025-02-08T07:39:05.194Z</time>
      </trkpt>
      <trkpt lat="58.47905592061579" lon="12.857424980029464">
        <ele>50.39</ele>
        <time>2025-02-08T07:39:39.153Z</time>
      </trkpt>
      <trkpt lat="58.47907394170761" lon="12.857560934498906">
        <ele>50.42</ele>
        <time>2025-02-08T07:40:13.113Z</time>
      </trkpt>
      <trkpt lat="58.47909296862781" lon="12.85769697278738">
        <ele>50.44</ele>
        <time>2025-02-08T07:40:47.074Z</time>
      </trkpt>
      <trkpt lat="58.4791159350425" lon="12.857831921428442">
        <ele>50.47</ele>
        <time>2025-02-08T07:41:21.036Z</time>
      </trkpt>
      <trkpt lat="58.47914099693298" lon="12.857964942231774">
        <ele>50.49</ele>
        <time>2025-02-08T07:41:55.000Z</time>
      </trkpt>
      <trkpt lat="58.47916999831796" lon="12.858096957206726">
        <ele>50.52</ele>
        <time>2025-02-08T07:42:28.965Z</time>
      </trkpt>
      <trkpt lat="58.47919992171228" lon="12.858225954696536">
        <ele>50.54</ele>
        <time>2025-02-08T07:43:02.931Z</time>
      </trkpt>
      <trkpt lat="58.479231940582395" lon="12.858352940529585">
        <ele>50.57</ele>
        <time>2025-02-08T07:43:36.898Z</time>
      </trkpt>
      <trkpt lat="58.47926597110927" lon="12.858475986868143">
        <ele>50.6</ele>
        <time>2025-02-08T07:44:10.866Z</time>
      </trkpt>
      <trkpt lat="58.47930192947388" lon="12.858596937730908">
        <ele>50.62</ele>
        <time>2025-02-08T07:44:44.835Z</time>
      </trkpt>
      <trkpt lat="58.479339983314276" lon="12.858715960755944">
        <ele>50.64</ele>
        <time>2025-02-08T07:45:18.806Z</time>
      </trkpt>
      <trkpt lat="58.47937895916402" lon="12.858831966295838">
        <ele>50.67</ele>
        <time>2025-02-08T07:45:52.778Z</time>
      </trkpt>
      <trkpt lat="58.47941994667053" lon="12.85894495435059">
        <ele>50.69</ele>
        <time>2025-02-08T07:46:26.751Z</time>
      </trkpt>
      <trkpt lat="58.47946093417704" lon="12.859054924920201">
        <ele>50.71</ele>
        <time>2025-02-08T07:47:00.725Z</time>
      </trkpt>
      <trkpt lat="58.47950292751193" lon="12.859163973480463">
        <ele>50.73</ele>
        <time>2025-02-08T07:47:34.700Z</time>
      </trkpt>
      <trkpt lat="58.4795459266752" lon="12.859271932393312">
        <ele>50.75</ele>
        <time>2025-02-08T07:48:08.676Z</time>
      </trkpt>
      <trkpt lat="58.47958792001009" lon="12.859378969296813">
        <ele>50.78</ele>
        <time>2025-02-08T07:48:42.653Z</time>
      </trkpt>
      <trkpt lat="58.47963091917336" lon="12.859488939866424">
        <ele>50.8</ele>
        <time>2025-02-08T07:49:16.632Z</time>
      </trkpt>
      <trkpt lat="58.47967391833663" lon="12.859600922092795">
        <ele>50.82</ele>
        <time>2025-02-08T07:49:50.612Z</time>
      </trkpt>
      <trkpt lat="58.47971892915666" lon="12.85971399396658">
        <ele>50.84</ele>
        <time>2025-02-08T07:50:24.593Z</time>
      </trkpt>
      <trkpt lat="58.47976293414831" lon="12.859826982021332">
        <ele>50.86</ele>
        <time>2025-02-08T07:50:58.575Z</time>
      </trkpt>
      <trkpt lat="58.47980895079672" lon="12.859942987561226">
        <ele>50.87</ele>
        <time>2025-02-08T07:51:32.558Z</time>
      </trkpt>
      <trkpt lat="58.479852955788374" lon="12.8600599989295">
        <ele>50.88</ele>
        <time>2025-02-08T07:52:06.543Z</time>
      </trkpt>
      <trkpt lat="58.4798929374665" lon="12.860179943963885">
        <ele>50.89</ele>
        <time>2025-02-08T07:52:40.529Z</time>
      </trkpt>
      <trkpt lat="58.47993199713528" lon="12.860302990302444">
        <ele>50.9</ele>
        <time>2025-02-08T07:53:14.516Z</time>
      </trkpt>
      <trkpt lat="58.47997298464179" lon="12.86042595282197">
        <ele>50.91</ele>
        <time>2025-02-08T07:53:48.504Z</time>
      </trkpt>
      <trkpt lat="58.4800139721483" lon="12.860550926998258">
        <ele>50.91</ele>
        <time>2025-02-08T07:54:22.493Z</time>
      </trkpt>
      <trkpt lat="58.480048924684525" lon="12.860678918659687">
        <ele>50.92</ele>
        <time>2025-02-08T07:54:56.484Z</time>
      </trkpt>
      <trkpt lat="58.48008194938302" lon="12.860810933634639">
        <ele>50.92</ele>
        <time>2025-02-08T07:55:30.476Z</time>
      </trkpt>
      <trkpt lat="58.480112962424755" lon="12.860946971923113">
        <ele>50.92</ele>
        <time>2025-02-08T07:56:04.469Z</time>
      </trkpt>
      <trkpt lat="58.48014196380973" lon="12.861086949706078">
        <ele>50.93</ele>
        <time>2025-02-08T07:56:38.463Z</time>
      </trkpt>
      <trkpt lat="58.48016794770956" lon="12.861226927489042">
        <ele>50.92</ele>
        <time>2025-02-08T07:57:12.459Z</time>
      </trkpt>
      <trkpt lat="58.48019099794328" lon="12.86136799491942">
        <ele>50.92</ele>
        <time>2025-02-08T07:57:46.456Z</time>
      </trkpt>
      <trkpt lat="58.48021295852959" lon="12.861517947167158">
        <ele>50.91</ele>
        <time>2025-02-08T07:58:20.454Z</time>
      </trkpt>
      <trkpt lat="58.48023299127817" lon="12.86166999489069">
        <ele>50.9</ele>
        <time>2025-02-08T07:58:54.454Z</time>
      </trkpt>
      <trkpt lat="58.48025092855096" lon="12.861826987937093">
        <ele>50.89</ele>
        <time>2025-02-08T07:59:28.455Z</time>
      </trkpt>
      <trkpt lat="58.480265932157636" lon="12.861984986811876">
        <ele>50.89</ele>
        <time>2025-02-08T08:00:02.457Z</time>
      </trkpt>
      <trkpt lat="58.48027699626982" lon="12.86214692518115">
        <ele>50.88</ele>
        <time>2025-02-08T08:00:36.461Z</time>
      </trkpt>
      <trkpt lat="58.480284959077835" lon="12.862309953197837">
        <ele>50.88</ele>
        <time>2025-02-08T08:01:10.466Z</time>
      </trkpt>
      <trkpt lat="58.4802919998765" lon="12.862472981214523">
        <ele>50.86</ele>
        <time>2025-02-08T08:01:44.472Z</time>
      </trkpt>
      <trkpt lat="58.4802919998765" lon="12.862636931240559">
        <ele>50.85</ele>
        <time>2025-02-08T08:02:18.480Z</time>
      </trkpt>
      <trkpt lat="58.48028797656298" lon="12.862801970914006">
        <ele>50.83</ele>
        <time>2025-02-08T08:02:52.489Z</time>
      </trkpt>
      <trkpt lat="58.48028093576431" lon="12.862967932596803">
        <ele>50.82</ele>
        <time>2025-02-08T08:03:26.500Z</time>
      </trkpt>
      <trkpt lat="58.48027498461306" lon="12.863134983927011">
        <ele>50.81</ele>
        <time>2025-02-08T08:04:00.512Z</time>
      </trkpt>
      <trkpt lat="58.480265932157636" lon="12.86330396309495">
        <ele>50.8</ele>
        <time>2025-02-08T08:04:34.525Z</time>
      </trkpt>
      <trkpt lat="58.48025595769286" lon="12.86347696557641">
        <ele>50.78</ele>
        <time>2025-02-08T08:05:08.540Z</time>
      </trkpt>
      <trkpt lat="58.48024598322809" lon="12.863651979714632">
        <ele>50.76</ele>
        <time>2025-02-08T08:05:42.556Z</time>
      </trkpt>
      <trkpt lat="58.4802349191159" lon="12.863827999681234">
        <ele>50.74</ele>
        <time>2025-02-08T08:06:16.574Z</time>
      </trkpt>
      <trkpt lat="58.480223938822746" lon="12.864004941657186">
        <ele>50.72</ele>
        <time>2025-02-08T08:06:50.593Z</time>
      </trkpt>
      <trkpt lat="58.48021195270121" lon="12.864181967452168">
        <ele>50.69</ele>
        <time>2025-02-08T08:07:24.614Z</time>
      </trkpt>
      <trkpt lat="58.480199966579676" lon="12.864361926913261">
        <ele>50.67</ele>
        <time>2025-02-08T08:07:58.636Z</time>
      </trkpt>
      <trkpt lat="58.48018798045814" lon="12.864540964365005">
        <ele>50.65</ele>
        <time>2025-02-08T08:08:32.660Z</time>
      </trkpt>
      <trkpt lat="58.480174988508224" lon="12.86472494713962">
        <ele>50.63</ele>
        <time>2025-02-08T08:09:06.685Z</time>
      </trkpt>
      <trkpt lat="58.48016199655831" lon="12.864909935742617">
        <ele>50.61</ele>
        <time>2025-02-08T08:09:40.712Z</time>
      </trkpt>
      <trkpt lat="58.48014992661774" lon="12.865095930173993">
        <ele>50.59</ele>
        <time>2025-02-08T08:10:14.741Z</time>
      </trkpt>
      <trkpt lat="58.48013894632459" lon="12.86528293043375">
        <ele>50.56</ele>
        <time>2025-02-08T08:10:48.771Z</time>
      </trkpt>
      <trkpt lat="58.48012997768819" lon="12.865467919036746">
        <ele>50.53</ele>
        <time>2025-02-08T08:11:22.803Z</time>
      </trkpt>
      <trkpt lat="58.48012092523277" lon="12.865649973973632">
        <ele>50.5</ele>
        <time>2025-02-08T08:11:56.836Z</time>
      </trkpt>
      <trkpt lat="58.480112962424755" lon="12.865829933434725">
        <ele>50.47</ele>
        <time>2025-02-08T08:12:30.871Z</time>
      </trkpt>
      <trkpt lat="58.48010893911123" lon="12.866008970886469">
        <ele>50.44</ele>
        <time>2025-02-08T08:13:04.907Z</time>
      </trkpt>
      <trkpt lat="58.48010499961674" lon="12.866185996681452">
        <ele>50.41</ele>
        <time>2025-02-08T08:13:38.945Z</time>
      </trkpt>
      <trkpt lat="58.4801019821316" lon="12.866362938657403">
        <ele>50.38</ele>
        <time>2025-02-08T08:14:12.984Z</time>
      </trkpt>
      <trkpt lat="58.48010097630322" lon="12.866540970280766">
        <ele>50.34</ele>
        <time>2025-02-08T08:14:47.025Z</time>
      </trkpt>
      <trkpt lat="58.4801019821316" lon="12.866719923913479">
        <ele>50.31</ele>
        <time>2025-02-08T08:15:21.067Z</time>
      </trkpt>
      <trkpt lat="58.48010499961674" lon="12.866896949708462">
        <ele>50.28</ele>
        <time>2025-02-08T08:15:55.111Z</time>
      </trkpt>
      <trkpt lat="58.480110950767994" lon="12.867075987160206">
        <ele>50.25</ele>
        <time>2025-02-08T08:16:29.156Z</time>
      </trkpt>
      <trkpt lat="58.48011799156666" lon="12.867254940792918">
        <ele>50.22</ele>
        <time>2025-02-08T08:17:03.203Z</time>
      </trkpt>
      <trkpt lat="58.48012595437467" lon="12.867435989901423">
        <ele>50.19</ele>
        <time>2025-02-08T08:17:37.251Z</time>
      </trkpt>
      <trkpt lat="58.480134923011065" lon="12.867615949362516">
        <ele>50.16</ele>
        <time>2025-02-08T08:18:11.301Z</time>
      </trkpt>
      <trkpt lat="58.48014498129487" lon="12.86779498681426">
        <ele>50.13</ele>
        <time>2025-02-08T08:18:45.352Z</time>
      </trkpt>
      <trkpt lat="58.480156967416406" lon="12.867970922961831">
        <ele>50.1</ele>
        <time>2025-02-08T08:19:19.405Z</time>
      </trkpt>
      <trkpt lat="58.48016995936632" lon="12.868143925443292">
        <ele>50.07</ele>
        <time>2025-02-08T08:19:53.459Z</time>
      </trkpt>
      <trkpt lat="58.48018295131624" lon="12.868313994258642">
        <ele>50.03</ele>
        <time>2025-02-08T08:20:27.515Z</time>
      </trkpt>
      <trkpt lat="58.48019493743777" lon="12.86848096176982">
        <ele>49.99</ele>
        <time>2025-02-08T08:21:01.572Z</time>
      </trkpt>
      <trkpt lat="58.48020692355931" lon="12.868645917624235">
        <ele>49.96</ele>
        <time>2025-02-08T08:21:35.630Z</time>
      </trkpt>
      <trkpt lat="58.480218993499875" lon="12.86880693398416">
        <ele>49.92</ele>
        <time>2025-02-08T08:22:09.690Z</time>
      </trkpt>
      <trkpt lat="58.48023198544979" lon="12.868962921202183">
        <ele>49.89</ele>
        <time>2025-02-08T08:22:43.751Z</time>
      </trkpt>
      <trkpt lat="58.480243971571326" lon="12.869113963097334">
        <ele>49.86</ele>
        <time>2025-02-08T08:23:17.813Z</time>
      </trkpt>
      <trkpt lat="58.48025595769286" lon="12.869261987507343">
        <ele>49.82</ele>
        <time>2025-02-08T08:23:51.877Z</time>
      </trkpt>
      <trkpt lat="58.4802679438144" lon="12.869406994432211">
        <ele>49.78</ele>
        <time>2025-02-08T08:24:25.942Z</time>
      </trkpt>
      <trkpt lat="58.48027892410755" lon="12.869548983871937">
        <ele>49.74</ele>
        <time>2025-02-08T08:25:00.008Z</time>
      </trkpt>
      <trkpt lat="58.48028998821974" lon="12.869688961654902">
        <ele>49.7</ele>
        <time>2025-02-08T08:25:34.075Z</time>
      </trkpt>
      <trkpt lat="58.48029996268451" lon="12.869827933609486">
        <ele>49.67</ele>
        <time>2025-02-08T08:26:08.144Z</time>
      </trkpt>
      <trkpt lat="58.48031194880605" lon="12.869961960241199">
        <ele>49.63</ele>
        <time>2025-02-08T08:26:42.214Z</time>
      </trkpt>
      <trkpt lat="58.48032393492758" lon="12.87009296938777">
        <ele>49.59</ele>
        <time>2025-02-08T08:27:16.285Z</time>
      </trkpt>
      <trkpt lat="58.48033399321139" lon="12.87022297270596">
        <ele>49.54</ele>
        <time>2025-02-08T08:27:50.357Z</time>
      </trkpt>
      <trkpt lat="58.48034296184778" lon="12.870353981852531">
        <ele>49.51</ele>
        <time>2025-02-08T08:28:24.430Z</time>
      </trkpt>
      <trkpt lat="58.480352936312556" lon="12.870485996827483">
        <ele>49.46</ele>
        <time>2025-02-08T08:28:58.504Z</time>
      </trkpt>
      <trkpt lat="58.48036299459636" lon="12.870617927983403">
        <ele>49.42</ele>
        <time>2025-02-08T08:29:32.579Z</time>
      </trkpt>
      <trkpt lat="58.480371963232756" lon="12.870750948786736">
        <ele>49.38</ele>
        <time>2025-02-08T08:30:06.655Z</time>
      </trkpt>
      <trkpt lat="58.48038193769753" lon="12.870884975418448">
        <ele>49.33</ele>
        <time>2025-02-08T08:30:40.733Z</time>
      </trkpt>
      <trkpt lat="58.480393923819065" lon="12.87101992405951">
        <ele>49.29</ele>
        <time>2025-02-08T08:31:14.812Z</time>
      </trkpt>
      <trkpt lat="58.48040599375963" lon="12.871156968176365">
        <ele>49.24</ele>
        <time>2025-02-08T08:31:48.892Z</time>
      </trkpt>
      <trkpt lat="58.480415968224406" lon="12.87129795178771">
        <ele>49.19</ele>
        <time>2025-02-08T08:32:22.973Z</time>
      </trkpt>
      <trkpt lat="58.48042694851756" lon="12.871441952884197">
        <ele>49.14</ele>
        <time>2025-02-08T08:32:57.055Z</time>
      </trkpt>
      <trkpt lat="58.480438934639096" lon="12.871588971465826">
        <ele>49.1</ele>
        <time>2025-02-08T08:33:31.138Z</time>
      </trkpt>
      <trkpt lat="58.48045092076063" lon="12.871736995875835">
        <ele>49.05</ele>
        <time>2025-02-08T08:34:05.223Z</time>
      </trkpt>
      <trkpt lat="58.4804629907012" lon="12.871886948123574">
        <ele>49.0</ele>
        <time>2025-02-08T08:34:39.309Z</time>
      </trkpt>
      <trkpt lat="58.480474976822734" lon="12.872036984190345">
        <ele>48.95</ele>
        <time>2025-02-08T08:35:13.396Z</time>
      </trkpt>
      <trkpt lat="58.48048595711589" lon="12.872189953923225">
        <ele>48.89</ele>
        <time>2025-02-08T08:35:47.485Z</time>
      </trkpt>
      <trkpt lat="58.480497943237424" lon="12.872346946969628">
        <ele>48.83</ele>
        <time>2025-02-08T08:36:21.575Z</time>
      </trkpt>
      <trkpt lat="58.48051194101572" lon="12.872506957501173">
        <ele>48.78</ele>
        <time>2025-02-08T08:36:55.666Z</time>
      </trkpt>
      <trkpt lat="58.48052593879402" lon="12.872668979689479">
        <ele>48.73</ele>
        <time>2025-02-08T08:37:29.759Z</time>
      </trkpt>
      <trkpt lat="58.48053993657231" lon="12.872831923887134">
        <ele>48.67</ele>
        <time>2025-02-08T08:38:03.853Z</time>
      </trkpt>
      <trkpt lat="58.48055292852223" lon="12.8729959577322">
        <ele>48.62</ele>
        <time>2025-02-08T08:38:37.948Z</time>
      </trkpt>
      <trkpt lat="58.480564998462796" lon="12.873161919414997">
        <ele>48.56</ele>
        <time>2025-02-08T08:39:12.045Z</time>
      </trkpt>
      <trkpt lat="58.48057597875595" lon="12.873330982401967">
        <ele>48.5</ele>
        <time>2025-02-08T08:39:46.143Z</time>
      </trkpt>
      <trkpt lat="58.48058897070587" lon="12.873500967398286">
        <ele>48.45</ele>
        <time>2025-02-08T08:40:20.243Z</time>
      </trkpt>
      <trkpt lat="58.48060196265578" lon="12.873669946566224">
        <ele>48.39</ele>
        <time>2025-02-08T08:40:54.344Z</time>
      </trkpt>
      <trkpt lat="58.48061596043408" lon="12.873839931562543">
        <ele>48.34</ele>
        <time>2025-02-08T08:41:28.447Z</time>
      </trkpt>
      <trkpt lat="58.480628952383995" lon="12.874009916558862">
        <ele>48.28</ele>
        <time>2025-02-08T08:42:02.551Z</time>
      </trkpt>
      <trkpt lat="58.48064194433391" lon="12.874178979545832">
        <ele>48.23</ele>
        <time>2025-02-08T08:42:36.656Z</time>
      </trkpt>
      <trkpt lat="58.48065493628383" lon="12.87434695288539">
        <ele>48.17</ele>
        <time>2025-02-08T08:43:10.763Z</time>
      </trkpt>
      <trkpt lat="58.48066692240536" lon="12.874511992558837">
        <ele>48.12</ele>
        <time>2025-02-08T08:43:44.871Z</time>
      </trkpt>
      <trkpt lat="58.48067899234593" lon="12.874674936756492">
        <ele>48.07</ele>
        <time>2025-02-08T08:44:18.981Z</time>
      </trkpt>
      <trkpt lat="58.480690978467464" lon="12.87483997642994">
        <ele>48.02</ele>
        <time>2025-02-08T08:44:53.092Z</time>
      </trkpt>
      <trkpt lat="58.48070195876062" lon="12.875004932284355">
        <ele>47.96</ele>
        <time>2025-02-08T08:45:27.205Z</time>
      </trkpt>
      <trkpt lat="58.480713944882154" lon="12.875168966129422">
        <ele>47.91</ele>
        <time>2025-02-08T08:46:01.319Z</time>
      </trkpt>
      <trkpt lat="58.48072492517531" lon="12.87533299997449">
        <ele>47.86</ele>
        <time>2025-02-08T08:46:35.434Z</time>
      </trkpt>
      <trkpt lat="58.480733977630734" lon="12.875496950000525">
        <ele>47.81</ele>
        <time>2025-02-08T08:47:09.551Z</time>
      </trkpt>
      <trkpt lat="58.48074294626713" lon="12.875661989673972">
        <ele>47.76</ele>
        <time>2025-02-08T08:47:43.669Z</time>
      </trkpt>
      <trkpt lat="58.48074998706579" lon="12.875825939700007">
        <ele>47.72</ele>
        <time>2025-02-08T08:48:17.788Z</time>
      </trkpt>
      <trkpt lat="58.480756944045424" lon="12.875989973545074">
        <ele>47.67</ele>
        <time>2025-02-08T08:48:51.909Z</time>
      </trkpt>
      <trkpt lat="58.48076197318733" lon="12.87615392357111">
        <ele>47.61</ele>
        <time>2025-02-08T08:49:26.031Z</time>
      </trkpt>
      <trkpt lat="58.48076599650085" lon="12.876315945759416">
        <ele>47.56</ele>
        <time>2025-02-08T08:50:00.155Z</time>
      </trkpt>
      <trkpt lat="58.48076792433858" lon="12.876476962119341">
        <ele>47.51</ele>
        <time>2025-02-08T08:50:34.280Z</time>
      </trkpt>
      <trkpt lat="58.48076993599534" lon="12.876635966822505">
        <ele>47.46</ele>
        <time>2025-02-08T08:51:08.406Z</time>
      </trkpt>
      <trkpt lat="58.48077094182372" lon="12.876794971525669">
        <ele>47.4</ele>
        <time>2025-02-08T08:51:42.534Z</time>
      </trkpt>
      <trkpt lat="58.48076993599534" lon="12.876953976228833">
        <ele>47.35</ele>
        <time>2025-02-08T08:52:16.663Z</time>
      </trkpt>
      <trkpt lat="58.4807669185102" lon="12.877111975103617">
        <ele>47.3</ele>
        <time>2025-02-08T08:52:50.793Z</time>
      </trkpt>
      <trkpt lat="58.480759961530566" lon="12.877271985635161">
        <ele>47.24</ele>
        <time>2025-02-08T08:53:24.925Z</time>
      </trkpt>
      <trkpt lat="58.48075099289417" lon="12.877434929832816">
        <ele>47.19</ele>
        <time>2025-02-08T08:53:59.058Z</time>
      </trkpt>
      <trkpt lat="58.48074194043875" lon="12.877598963677883">
        <ele>47.14</ele>
        <time>2025-02-08T08:54:33.192Z</time>
      </trkpt>
      <trkpt lat="58.48073196597397" lon="12.877763919532299">
        <ele>47.08</ele>
        <time>2025-02-08T08:55:07.328Z</time>
      </trkpt>
      <trkpt lat="58.48071997985244" lon="12.877928959205747">
        <ele>47.03</ele>
        <time>2025-02-08T08:55:41.465Z</time>
      </trkpt>
      <trkpt lat="58.48070992156863" lon="12.878095926716924">
        <ele>46.98</ele>
        <time>2025-02-08T08:56:15.604Z</time>
      </trkpt>
      <trkpt lat="58.48069894127548" lon="12.878263983875513">
        <ele>46.92</ele>
        <time>2025-02-08T08:56:49.744Z</time>
      </trkpt>
      <trkpt lat="58.48068494349718" lon="12.87843095138669">
        <ele>46.87</ele>
        <time>2025-02-08T08:57:23.885Z</time>
      </trkpt>
      <trkpt lat="58.480669939890504" lon="12.878597918897867">
        <ele>46.82</ele>
        <time>2025-02-08T08:57:58.028Z</time>
      </trkpt>
      <trkpt lat="58.480653930455446" lon="12.878764970228076">
        <ele>46.77</ele>
        <time>2025-02-08T08:58:32.172Z</time>
      </trkpt>
      <trkpt lat="58.48063792102039" lon="12.878930931910872">
        <ele>46.72</ele>
        <time>2025-02-08T08:59:06.318Z</time>
      </trkpt>
      <trkpt lat="58.48062098957598" lon="12.879097983241081">
        <ele>46.67</ele>
        <time>2025-02-08T08:59:40.465Z</time>
      </trkpt>
      <trkpt lat="58.480604980140924" lon="12.879263944923878">
        <ele>46.62</ele>
        <time>2025-02-08T09:00:14.614Z</time>
      </trkpt>
      <trkpt lat="58.48058897070587" lon="12.879428984597325">
        <ele>46.57</ele>
        <time>2025-02-08T09:00:48.764Z</time>
      </trkpt>
      <trkpt lat="58.48057296127081" lon="12.879594946280122">
        <ele>46.53</ele>
        <time>2025-02-08T09:01:22.915Z</time>
      </trkpt>
      <trkpt lat="58.48055795766413" lon="12.87976099178195">
        <ele>46.49</ele>
        <time>2025-02-08T09:01:57.068Z</time>
      </trkpt>
      <trkpt lat="58.480542954057455" lon="12.879925947636366">
        <ele>46.44</ele>
        <time>2025-02-08T09:02:31.222Z</time>
      </trkpt>
      <trkpt lat="58.4805269446224" lon="12.880090987309813">
        <ele>46.4</ele>
        <time>2025-02-08T09:03:05.378Z</time>
      </trkpt>
      <trkpt lat="58.48051093518734" lon="12.880253931507468">
        <ele>46.36</ele>
        <time>2025-02-08T09:03:39.535Z</time>
      </trkpt>
      <trkpt lat="58.4804939199239" lon="12.880417965352535">
        <ele>46.32</ele>
        <time>2025-02-08T09:04:13.693Z</time>
      </trkpt>
      <trkpt lat="58.480476988479495" lon="12.880582921206951">
        <ele>46.28</ele>
        <time>2025-02-08T09:04:47.853Z</time>
      </trkpt>
      <trkpt lat="58.480458967387676" lon="12.880746955052018">
        <ele>46.24</ele>
        <time>2025-02-08T09:05:22.014Z</time>
      </trkpt>
      <trkpt lat="58.48044094629586" lon="12.880910988897085">
        <ele>46.21</ele>
        <time>2025-02-08T09:05:56.177Z</time>
      </trkpt>
      <trkpt lat="58.48042393103242" lon="12.88107393309474">
        <ele>46.17</ele>
        <time>2025-02-08T09:06:30.341Z</time>
      </trkpt>
      <trkpt lat="58.48040699958801" lon="12.881233943626285">
        <ele>46.13</ele>
        <time>2025-02-08T09:07:04.506Z</time>
      </trkpt>
      <trkpt lat="58.480390990152955" lon="12.88139395415783">
        <ele>46.1</ele>
        <time>2025-02-08T09:07:38.673Z</time>
      </trkpt>
      <trkpt lat="58.4803749807179" lon="12.881552958860993">
        <ele>46.07</ele>
        <time>2025-02-08T09:08:12.841Z</time>
      </trkpt>
      <trkpt lat="58.48035695962608" lon="12.881708946079016">
        <ele>46.03</ele>
        <time>2025-02-08T09:08:47.010Z</time>
      </trkpt>
      <trkpt lat="58.48033994436264" lon="12.881861999630928">
        <ele>46.0</ele>
        <time>2025-02-08T09:09:21.181Z</time>
      </trkpt>
      <trkpt lat="58.4803229290992" lon="12.882013963535428">
        <ele>45.97</ele>
        <time>2025-02-08T09:09:55.353Z</time>
      </trkpt>
      <trkpt lat="58.480305997654796" lon="12.882165927439928">
        <ele>45.94</ele>
        <time>2025-02-08T09:10:29.526Z</time>
      </trkpt>
      <trkpt lat="58.48028797656298" lon="12.88231696933508">
        <ele>45.91</ele>
        <time>2025-02-08T09:11:03.701Z</time>
      </trkpt>
      <trkpt lat="58.48027096129954" lon="12.882466921582818">
        <ele>45.89</ele>
        <time>2025-02-08T09:11:37.877Z</time>
      </trkpt>
      <trkpt lat="58.48025294020772" lon="12.882615951821208">
        <ele>45.86</ele>
        <time>2025-02-08T09:12:12.054Z</time>
      </trkpt>
      <trkpt lat="58.48023399710655" lon="12.882765987887979">
        <ele>45.84</ele>
        <time>2025-02-08T09:12:46.233Z</time>
      </trkpt>
      <trkpt lat="58.48021396435797" lon="12.882916945964098">
        <ele>45.81</ele>
        <time>2025-02-08T09:13:20.413Z</time>
      </trkpt>
      <trkpt lat="58.48019393160939" lon="12.883066982030869">
        <ele>45.79</ele>
        <time>2025-02-08T09:13:54.594Z</time>
      </trkpt>
      <trkpt lat="58.480173982679844" lon="12.883216934278607">
        <ele>45.77</ele>
        <time>2025-02-08T09:14:28.776Z</time>
      </trkpt>
      <trkpt lat="58.48015294410288" lon="12.883366970345378">
        <ele>45.75</ele>
        <time>2025-02-08T09:15:02.960Z</time>
      </trkpt>
      <trkpt lat="58.480131989344954" lon="12.883517928421497">
        <ele>45.74</ele>
        <time>2025-02-08T09:15:37.145Z</time>
      </trkpt>
      <trkpt lat="58.480110950767994" lon="12.88367098197341">
        <ele>45.72</ele>
        <time>2025-02-08T09:16:11.331Z</time>
      </trkpt>
      <trkpt lat="58.480088990181684" lon="12.88382495753467">
        <ele>45.7</ele>
        <time>2025-02-08T09:16:45.519Z</time>
      </trkpt>
      <trkpt lat="58.48006593994796" lon="12.883978933095932">
        <ele>45.69</ele>
        <time>2025-02-08T09:17:19.708Z</time>
      </trkpt>
      <trkpt lat="58.48004297353327" lon="12.884134920313954">
        <ele>45.68</ele>
        <time>2025-02-08T09:17:53.898Z</time>
      </trkpt>
      <trkpt lat="58.48002092912793" lon="12.884290991351008">
        <ele>45.66</ele>
        <time>2025-02-08T09:18:28.090Z</time>
      </trkpt>
      <trkpt lat="58.47999896854162" lon="12.884448990225792">
        <ele>45.65</ele>
        <time>2025-02-08T09:19:02.283Z</time>
      </trkpt>
      <trkpt lat="58.47997692413628" lon="12.884605983272195">
        <ele>45.63</ele>
        <time>2025-02-08T09:19:36.478Z</time>
      </trkpt>
      <trkpt lat="58.47995395772159" lon="12.884762976318598">
        <ele>45.63</ele>
        <time>2025-02-08T09:20:10.674Z</time>
      </trkpt>
      <trkpt lat="58.47992897965014" lon="12.88491795770824">
        <ele>45.62</ele>
        <time>2025-02-08T09:20:44.871Z</time>
      </trkpt>
      <trkpt lat="58.47990492358804" lon="12.885072939097881">
        <ele>45.61</ele>
        <time>2025-02-08T09:21:19.070Z</time>
      </trkpt>
      <trkpt lat="58.47988296300173" lon="12.885224986821413">
        <ele>45.61</ele>
        <time>2025-02-08T09:21:53.270Z</time>
      </trkpt>
      <trkpt lat="58.47985999658704" lon="12.885375944897532">
        <ele>45.61</ele>
        <time>2025-02-08T09:22:27.471Z</time>
      </trkpt>
      <trkpt lat="58.479836946353316" lon="12.885526986792684">
        <ele>45.61</ele>
        <time>2025-02-08T09:23:01.674Z</time>
      </trkpt>
      <trkpt lat="58.47981498576701" lon="12.885677944868803">
        <ele>45.6</ele>
        <time>2025-02-08T09:23:35.878Z</time>
      </trkpt>
      <trkpt lat="58.479792941361666" lon="12.885828986763954">
        <ele>45.6</ele>
        <time>2025-02-08T09:24:10.083Z</time>
      </trkpt>
      <trkpt lat="58.47977198660374" lon="12.885977933183312">
        <ele>45.6</ele>
        <time>2025-02-08T09:24:44.290Z</time>
      </trkpt>
      <trkpt lat="58.47975195385516" lon="12.886127969250083">
        <ele>45.61</ele>
        <time>2025-02-08T09:25:18.498Z</time>
      </trkpt>
      <trkpt lat="58.47973192110658" lon="12.886278927326202">
        <ele>45.61</ele>
        <time>2025-02-08T09:25:52.707Z</time>
      </trkpt>
      <trkpt lat="58.47971398383379" lon="12.886428963392973">
        <ele>45.61</ele>
        <time>2025-02-08T09:26:26.917Z</time>
      </trkpt>
      <trkpt lat="58.47969797439873" lon="12.886581933125854">
        <ele>45.61</ele>
        <time>2025-02-08T09:27:01.129Z</time>
      </trkpt>
      <trkpt lat="58.479684982448816" lon="12.886735992506146">
        <ele>45.62</ele>
        <time>2025-02-08T09:27:35.342Z</time>
      </trkpt>
      <trkpt lat="58.47967592999339" lon="12.88689298555255">
        <ele>45.63</ele>
        <time>2025-02-08T09:28:09.556Z</time>
      </trkpt>
      <trkpt lat="58.47966897301376" lon="12.887050984427333">
        <ele>45.64</ele>
        <time>2025-02-08T09:28:43.772Z</time>
      </trkpt>
      <trkpt lat="58.479664949700236" lon="12.887209989130497">
        <ele>45.65</ele>
        <time>2025-02-08T09:29:17.989Z</time>
      </trkpt>
      <trkpt lat="58.479661932215095" lon="12.887368993833661">
        <ele>45.66</ele>
        <time>2025-02-08T09:29:52.207Z</time>
      </trkpt>
      <trkpt lat="58.47965992055833" lon="12.887526992708445">
        <ele>45.68</ele>
        <time>2025-02-08T09:30:26.427Z</time>
      </trkpt>
      <trkpt lat="58.479662938043475" lon="12.887683985754848">
        <ele>45.69</ele>
        <time>2025-02-08T09:31:00.648Z</time>
      </trkpt>
      <trkpt lat="58.47966897301376" lon="12.88784097880125">
        <ele>45.71</ele>
        <time>2025-02-08T09:31:34.870Z</time>
      </trkpt>
      <trkpt lat="58.47967794165015" lon="12.887998977676034">
        <ele>45.73</ele>
        <time>2025-02-08T09:32:09.094Z</time>
      </trkpt>
      <trkpt lat="58.47968992777169" lon="12.888158988207579">
        <ele>45.75</ele>
        <time>2025-02-08T09:32:43.319Z</time>
      </trkpt>
      <trkpt lat="58.4797029197216" lon="12.888317992910743">
        <ele>45.77</ele>
        <time>2025-02-08T09:33:17.545Z</time>
      </trkpt>
      <trkpt lat="58.47971498966217" lon="12.888474985957146">
        <ele>45.79</ele>
        <time>2025-02-08T09:33:51.773Z</time>
      </trkpt>
      <trkpt lat="58.47972999326885" lon="12.888628961518407">
        <ele>45.81</ele>
        <time>2025-02-08T09:34:26.002Z</time>
      </trkpt>
      <trkpt lat="58.479748936370015" lon="12.888782937079668">
        <ele>45.84</ele>
        <time>2025-02-08T09:35:00.232Z</time>
      </trkpt>
      <trkpt lat="58.479770980775356" lon="12.88893599063158">
        <ele>45.87</ele>
        <time>2025-02-08T09:35:34.464Z</time>
      </trkpt>
      <trkpt lat="58.47979595884681" lon="12.889089966192842">
        <ele>45.89</ele>
        <time>2025-02-08T09:36:08.697Z</time>
      </trkpt>
      <trkpt lat="58.47982194274664" lon="12.889242935925722">
        <ele>45.92</ele>
        <time>2025-02-08T09:36:42.931Z</time>
      </trkpt>
      <trkpt lat="58.47984893247485" lon="12.889396995306015">
        <ele>45.95</ele>
        <time>2025-02-08T09:37:17.167Z</time>
      </trkpt>
      <trkpt lat="58.479875922203064" lon="12.889551976695657">
        <ele>45.97</ele>
        <time>2025-02-08T09:37:51.404Z</time>
      </trkpt>
      <trkpt lat="58.47990198992193" lon="12.889706958085299">
        <ele>46.0</ele>
        <time>2025-02-08T09:38:25.643Z</time>
      </trkpt>
      <trkpt lat="58.47992897965014" lon="12.889863951131701">
        <ele>46.04</ele>
        <time>2025-02-08T09:38:59.883Z</time>
      </trkpt>
      <trkpt lat="58.47995596937835" lon="12.890019938349724">
        <ele>46.07</ele>
        <time>2025-02-08T09:39:34.124Z</time>
      </trkpt>
      <trkpt lat="58.479982959106565" lon="12.890173997730017">
        <ele>46.11</ele>
        <time>2025-02-08T09:40:08.367Z</time>
      </trkpt>
      <trkpt lat="58.48001296631992" lon="12.890326967462897">
        <ele>46.15</ele>
        <time>2025-02-08T09:40:42.611Z</time>
      </trkpt>
      <trkpt lat="58.48004196770489" lon="12.890480943024158">
        <ele>46.18</ele>
        <time>2025-02-08T09:41:16.856Z</time>
      </trkpt>
      <trkpt lat="58.480069963261485" lon="12.8906359244138">
        <ele>46.22</ele>
        <time>2025-02-08T09:41:51.103Z</time>
      </trkpt>
      <trkpt lat="58.48009795881808" lon="12.890788977965713">
        <ele>46.27</ele>
        <time>2025-02-08T09:42:25.351Z</time>
      </trkpt>
      <trkpt lat="58.48012394271791" lon="12.890939936041832">
        <ele>46.31</ele>
        <time>2025-02-08T09:42:59.600Z</time>
      </trkpt>
      <trkpt lat="58.4801519382745" lon="12.891088966280222">
        <ele>46.36</ele>
        <time>2025-02-08T09:43:33.851Z</time>
      </trkpt>
      <trkpt lat="58.480178928002715" lon="12.891239924356341">
        <ele>46.41</ele>
        <time>2025-02-08T09:44:08.103Z</time>
      </trkpt>
      <trkpt lat="58.48020591773093" lon="12.891389960423112">
        <ele>46.45</ele>
        <time>2025-02-08T09:44:42.356Z</time>
      </trkpt>
      <trkpt lat="58.48023198544979" lon="12.891539996489882">
        <ele>46.5</ele>
        <time>2025-02-08T09:45:16.611Z</time>
      </trkpt>
      <trkpt lat="58.48025696352124" lon="12.89168894290924">
        <ele>46.56</ele>
        <time>2025-02-08T09:45:50.867Z</time>
      </trkpt>
      <trkpt lat="58.48028194159269" lon="12.89183596149087">
        <ele>46.61</ele>
        <time>2025-02-08T09:46:25.124Z</time>
      </trkpt>
      <trkpt lat="58.480306919664145" lon="12.891980968415737">
        <ele>46.67</ele>
        <time>2025-02-08T09:46:59.383Z</time>
      </trkpt>
      <trkpt lat="58.48033198155463" lon="12.892122957855463">
        <ele>46.72</ele>
        <time>2025-02-08T09:47:33.643Z</time>
      </trkpt>
      <trkpt lat="58.48035695962608" lon="12.892261929810047">
        <ele>46.78</ele>
        <time>2025-02-08T09:48:07.904Z</time>
      </trkpt>
      <trkpt lat="58.48038093186915" lon="12.892398973926902">
        <ele>46.83</ele>
        <time>2025-02-08T09:48:42.166Z</time>
      </trkpt>
      <trkpt lat="58.48040599375963" lon="12.892532916739583">
        <ele>46.89</ele>
        <time>2025-02-08T09:49:16.430Z</time>
      </trkpt>
      <trkpt lat="58.48042896017432" lon="12.892664931714535">
        <ele>46.95</ele>
        <time>2025-02-08T09:49:50.695Z</time>
      </trkpt>
      <trkpt lat="58.48045293241739" lon="12.892795940861106">
        <ele>47.0</ele>
        <time>2025-02-08T09:50:24.961Z</time>
      </trkpt>
      <trkpt lat="58.480474976822734" lon="12.892926950007677">
        <ele>47.06</ele>
        <time>2025-02-08T09:50:59.228Z</time>
      </trkpt>
      <trkpt lat="58.48049693740904" lon="12.893056953325868">
        <ele>47.12</ele>
        <time>2025-02-08T09:51:33.496Z</time>
      </trkpt>
      <trkpt lat="58.480517975986004" lon="12.893187962472439">
        <ele>47.18</ele>
        <time>2025-02-08T09:52:07.765Z</time>
      </trkpt>
      <trkpt lat="58.48053893074393" lon="12.89331796579063">
        <ele>47.24</ele>
        <time>2025-02-08T09:52:42.036Z</time>
      </trkpt>
      <trkpt lat="58.48055996932089" lon="12.89344796910882">
        <ele>47.3</ele>
        <time>2025-02-08T09:53:16.308Z</time>
      </trkpt>
      <trkpt lat="58.480583941563964" lon="12.893578978255391">
        <ele>47.35</ele>
        <time>2025-02-08T09:53:50.581Z</time>
      </trkpt>
      <trkpt lat="58.48061394877732" lon="12.893715938553214">
        <ele>47.4</ele>
        <time>2025-02-08T09:54:24.855Z</time>
      </trkpt>
      <trkpt lat="58.48064395599067" lon="12.893851976841688">
        <ele>47.46</ele>
        <time>2025-02-08T09:54:59.130Z</time>
      </trkpt>
      <trkpt lat="58.480672957375646" lon="12.893991954624653">
        <ele>47.52</ele>
        <time>2025-02-08T09:55:33.407Z</time>
      </trkpt>
      <trkpt lat="58.48070195876062" lon="12.894133944064379">
        <ele>47.58</ele>
        <time>2025-02-08T09:56:07.685Z</time>
      </trkpt>
      <trkpt lat="58.48073096014559" lon="12.894278950989246">
        <ele>47.64</ele>
        <time>2025-02-08T09:56:41.964Z</time>
      </trkpt>
      <trkpt lat="58.48076096735895" lon="12.894425969570875">
        <ele>47.69</ele>
        <time>2025-02-08T09:57:16.245Z</time>
      </trkpt>
      <trkpt lat="58.4807909745723" lon="12.894571982324123">
        <ele>47.75</ele>
        <time>2025-02-08T09:57:50.527Z</time>
      </trkpt>
      <trkpt lat="58.480822993442416" lon="12.89471598342061">
        <ele>47.82</ele>
        <time>2025-02-08T09:58:24.810Z</time>
      </trkpt>
      <trkpt lat="58.4808549284935" lon="12.894861996173859">
        <ele>47.88</ele>
        <time>2025-02-08T09:58:59.094Z</time>
      </trkpt>
      <trkpt lat="58.480884935706854" lon="12.895008930936456">
        <ele>47.94</ele>
        <time>2025-02-08T09:59:33.380Z</time>
      </trkpt>
      <trkpt lat="58.48091494292021" lon="12.895154943689704">
        <ele>48.0</ele>
        <time>2025-02-08T10:00:07.667Z</time>
      </trkpt>
      <trkpt lat="58.48094495013356" lon="12.895299950614572">
        <ele>48.07</ele>
        <time>2025-02-08T10:00:41.955Z</time>
      </trkpt>
      <trkpt lat="58.48097696900368" lon="12.89544596336782">
        <ele>48.14</ele>
        <time>2025-02-08T10:01:16.245Z</time>
      </trkpt>
      <trkpt lat="58.48100898787379" lon="12.89559499360621">
        <ele>48.21</ele>
        <time>2025-02-08T10:01:50.536Z</time>
      </trkpt>
      <trkpt lat="58.48104192875326" lon="12.89574695751071">
        <ele>48.28</ele>
        <time>2025-02-08T10:02:24.828Z</time>
      </trkpt>
      <trkpt lat="58.48107495345175" lon="12.895901938900352">
        <ele>48.34</ele>
        <time>2025-02-08T10:02:59.122Z</time>
      </trkpt>
      <trkpt lat="58.48110797815025" lon="12.896059937775135">
        <ele>48.41</ele>
        <time>2025-02-08T10:03:33.417Z</time>
      </trkpt>
      <trkpt lat="58.481139997020364" lon="12.896217936649919">
        <ele>48.47</ele>
        <time>2025-02-08T10:04:07.714Z</time>
      </trkpt>
      <trkpt lat="58.48117293789983" lon="12.896373923867941">
        <ele>48.53</ele>
        <time>2025-02-08T10:04:42.012Z</time>
      </trkpt>
      <trkpt lat="58.48120495676994" lon="12.896526977419853">
        <ele>48.6</ele>
        <time>2025-02-08T10:05:16.312Z</time>
      </trkpt>
      <trkpt lat="58.48123596981168" lon="12.896677935495973">
        <ele>48.66</ele>
        <time>2025-02-08T10:05:50.613Z</time>
      </trkpt>
      <trkpt lat="58.48126698285341" lon="12.896825959905982">
        <ele>48.73</ele>
        <time>2025-02-08T10:06:24.915Z</time>
      </trkpt>
      <trkpt lat="58.48129699006677" lon="12.89697197265923">
        <ele>48.8</ele>
        <time>2025-02-08T10:06:59.219Z</time>
      </trkpt>
      <trkpt lat="58.48132699728012" lon="12.897115973755717">
        <ele>48.87</ele>
        <time>2025-02-08T10:07:33.524Z</time>
      </trkpt>
      <trkpt lat="58.481355998665094" lon="12.897259974852204">
        <ele>48.94</ele>
        <time>2025-02-08T10:08:07.830Z</time>
      </trkpt>
      <trkpt lat="58.48138592205942" lon="12.89740095846355">
        <ele>49.01</ele>
        <time>2025-02-08T10:08:42.137Z</time>
      </trkpt>
      <trkpt lat="58.48141693510115" lon="12.897540936246514">
        <ele>49.08</ele>
        <time>2025-02-08T10:09:16.446Z</time>
      </trkpt>
      <trkpt lat="58.481445936486125" lon="12.89767999202013">
        <ele>49.16</ele>
        <time>2025-02-08T10:09:50.756Z</time>
      </trkpt>
      <trkpt lat="58.48147594369948" lon="12.897816952317953">
        <ele>49.23</ele>
        <time>2025-02-08T10:10:25.067Z</time>
      </trkpt>
      <trkpt lat="58.48150494508445" lon="12.897950978949666">
        <ele>49.31</ele>
        <time>2025-02-08T10:10:59.379Z</time>
      </trkpt>
      <trkpt lat="58.481531934812665" lon="12.898081988096237">
        <ele>49.37</ele>
        <time>2025-02-08T10:11:33.693Z</time>
      </trkpt>
      <trkpt lat="58.4815579187125" lon="12.898207968100905">
        <ele>49.44</ele>
        <time>2025-02-08T10:12:08.008Z</time>
      </trkpt>
      <trkpt lat="58.48158398643136" lon="12.898329924792051">
        <ele>49.51</ele>
        <time>2025-02-08T10:12:42.324Z</time>
      </trkpt>
      <trkpt lat="58.48160997033119" lon="12.898450959473848">
        <ele>49.58</ele>
        <time>2025-02-08T10:13:16.641Z</time>
      </trkpt>
      <trkpt lat="58.481635954231024" lon="12.898570988327265">
        <ele>49.65</ele>
        <time>2025-02-08T10:13:50.959Z</time>
      </trkpt>
      <trkpt lat="58.481659926474094" lon="12.898693950846791">
        <ele>49.72</ele>
        <time>2025-02-08T10:14:25.278Z</time>
      </trkpt>
      <trkpt lat="58.48168599419296" lon="12.89881699718535">
        <ele>49.79</ele>
        <time>2025-02-08T10:14:59.598Z</time>
      </trkpt>
      <trkpt lat="58.48171298392117" lon="12.898941971361637">
        <ele>49.86</ele>
        <time>2025-02-08T10:15:33.919Z</time>
      </trkpt>
      <trkpt lat="58.48173997364938" lon="12.899067951366305">
        <ele>49.93</ele>
        <time>2025-02-08T10:16:08.242Z</time>
      </trkpt>
      <trkpt lat="58.481765957549214" lon="12.899193931370974">
        <ele>49.99</ele>
        <time>2025-02-08T10:16:42.566Z</time>
      </trkpt>
      <trkpt lat="58.481791941449046" lon="12.899323934689164">
        <ele>50.05</ele>
        <time>2025-02-08T10:17:16.891Z</time>
      </trkpt>
      <trkpt lat="58.4818169195205" lon="12.899454943835735">
        <ele>50.11</ele>
        <time>2025-02-08T10:17:51.217Z</time>
      </trkpt>
      <trkpt lat="58.48184499889612" lon="12.899586958810687">
        <ele>50.18</ele>
        <time>2025-02-08T10:18:25.544Z</time>
      </trkpt>
      <trkpt lat="58.481873916462064" lon="12.89971997961402">
        <ele>50.24</ele>
        <time>2025-02-08T10:18:59.872Z</time>
      </trkpt>
      <trkpt lat="58.48190291784704" lon="12.8998539224267">
        <ele>50.31</ele>
        <time>2025-02-08T10:19:34.202Z</time>
      </trkpt>
      <trkpt lat="58.48193099722266" lon="12.899991972371936">
        <ele>50.37</ele>
        <time>2025-02-08T10:20:08.533Z</time>
      </trkpt>
      <trkpt lat="58.481959998607635" lon="12.90012993849814">
        <ele>50.43</ele>
        <time>2025-02-08T10:20:42.865Z</time>
      </trkpt>
      <trkpt lat="58.48198899999261" lon="12.900266982614994">
        <ele>50.49</ele>
        <time>2025-02-08T10:21:17.198Z</time>
      </trkpt>
      <trkpt lat="58.48201791755855" lon="12.900403942912817">
        <ele>50.55</ele>
        <time>2025-02-08T10:21:51.533Z</time>
      </trkpt>
      <trkpt lat="58.482046918943524" lon="12.900542998686433">
        <ele>50.61</ele>
        <time>2025-02-08T10:22:25.869Z</time>
      </trkpt>
      <trkpt lat="58.48207793198526" lon="12.900681970641017">
        <ele>50.66</ele>
        <time>2025-02-08T10:23:00.206Z</time>
      </trkpt>
      <trkpt lat="58.48210793919861" lon="12.90081993676722">
        <ele>50.72</ele>
        <time>2025-02-08T10:23:34.544Z</time>
      </trkpt>
      <trkpt lat="58.48213794641197" lon="12.900960920378566">
        <ele>50.78</ele>
        <time>2025-02-08T10:24:08.884Z</time>
      </trkpt>
      <trkpt lat="58.48216694779694" lon="12.901103999465704">
        <ele>50.83</ele>
        <time>2025-02-08T10:24:43.225Z</time>
      </trkpt>
      <trkpt lat="58.482195949181914" lon="12.90124498307705">
        <ele>50.89</ele>
        <time>2025-02-08T10:25:17.567Z</time>
      </trkpt>
      <trkpt lat="58.48222394473851" lon="12.901383955031633">
        <ele>50.95</ele>
        <time>2025-02-08T10:25:51.911Z</time>
      </trkpt>
      <trkpt lat="58.4822519402951" lon="12.901521921157837">
        <ele>51.01</ele>
        <time>2025-02-08T10:26:26.256Z</time>
      </trkpt>
      <trkpt lat="58.482280941680074" lon="12.90165594778955">
        <ele>51.07</ele>
        <time>2025-02-08T10:27:00.602Z</time>
      </trkpt>
      <trkpt lat="58.48230994306505" lon="12.901787962764502">
        <ele>51.13</ele>
        <time>2025-02-08T10:27:34.949Z</time>
      </trkpt>
      <trkpt lat="58.48233894445002" lon="12.901918971911073">
        <ele>51.19</ele>
        <time>2025-02-08T10:28:09.297Z</time>
      </trkpt>
      <trkpt lat="58.482369957491755" lon="12.902050986886024">
        <ele>51.24</ele>
        <time>2025-02-08T10:28:43.647Z</time>
      </trkpt>
      <trkpt lat="58.48240298219025" lon="12.902181996032596">
        <ele>51.31</ele>
        <time>2025-02-08T10:29:17.998Z</time>
      </trkpt>
      <trkpt lat="58.482435923069715" lon="12.902312921360135">
        <ele>51.37</ele>
        <time>2025-02-08T10:29:52.350Z</time>
      </trkpt>
      <trkpt lat="58.48247196525335" lon="12.902440996840596">
        <ele>51.43</ele>
        <time>2025-02-08T10:30:26.703Z</time>
      </trkpt>
      <trkpt lat="58.48250691778958" lon="12.902567982673645">
        <ele>51.49</ele>
        <time>2025-02-08T10:31:01.057Z</time>
      </trkpt>
      <trkpt lat="58.482540948316455" lon="12.902692956849933">
        <ele>51.54</ele>
        <time>2025-02-08T10:31:35.413Z</time>
      </trkpt>
      <trkpt lat="58.48257598467171" lon="12.90281692519784">
        <ele>51.6</ele>
        <time>2025-02-08T10:32:09.770Z</time>
      </trkpt>
      <trkpt lat="58.48261093720794" lon="12.902940977364779">
        <ele>51.66</ele>
        <time>2025-02-08T10:32:44.128Z</time>
      </trkpt>
      <trkpt lat="58.482646979391575" lon="12.903062934055924">
        <ele>51.71</ele>
        <time>2025-02-08T10:33:18.487Z</time>
      </trkpt>
      <trkpt lat="58.48268494941294" lon="12.903185980394483">
        <ele>51.77</ele>
        <time>2025-02-08T10:33:52.847Z</time>
      </trkpt>
      <trkpt lat="58.48272392526269" lon="12.903308942914009">
        <ele>51.82</ele>
        <time>2025-02-08T10:34:27.209Z</time>
      </trkpt>
      <trkpt lat="58.48276399075985" lon="12.903430983424187">
        <ele>51.87</ele>
        <time>2025-02-08T10:35:01.572Z</time>
      </trkpt>
      <trkpt lat="58.48280497826636" lon="12.90354992263019">
        <ele>51.93</ele>
        <time>2025-02-08T10:35:35.936Z</time>
      </trkpt>
      <trkpt lat="58.48284495994449" lon="12.903668945655227">
        <ele>51.99</ele>
        <time>2025-02-08T10:36:10.301Z</time>
      </trkpt>
      <trkpt lat="58.482885947450995" lon="12.903787968680263">
        <ele>52.04</ele>
        <time>2025-02-08T10:36:44.667Z</time>
      </trkpt>
      <trkpt lat="58.482928946614265" lon="12.903908919543028">
        <ele>52.1</ele>
        <time>2025-02-08T10:37:19.035Z</time>
      </trkpt>
      <trkpt lat="58.482972951605916" lon="12.904030960053205">
        <ele>52.15</ele>
        <time>2025-02-08T10:37:53.404Z</time>
      </trkpt>
      <trkpt lat="58.48301796242595" lon="12.904150988906622">
        <ele>52.21</ele>
        <time>2025-02-08T10:38:27.774Z</time>
      </trkpt>
      <trkpt lat="58.4830619674176" lon="12.904267916455865">
        <ele>52.26</ele>
        <time>2025-02-08T10:39:02.145Z</time>
      </trkpt>
      <trkpt lat="58.48310697823763" lon="12.904380988329649">
        <ele>52.32</ele>
        <time>2025-02-08T10:39:36.517Z</time>
      </trkpt>
      <trkpt lat="58.48315299488604" lon="12.90449095889926">
        <ele>52.37</ele>
        <time>2025-02-08T10:40:10.891Z</time>
      </trkpt>
      <trkpt lat="58.4831999335438" lon="12.90460193529725">
        <ele>52.43</ele>
        <time>2025-02-08T10:40:45.266Z</time>
      </trkpt>
      <trkpt lat="58.483246956020594" lon="12.904710983857512">
        <ele>52.48</ele>
        <time>2025-02-08T10:41:19.642Z</time>
      </trkpt>
      <trkpt lat="58.48329498432577" lon="12.904818942770362">
        <ele>52.54</ele>
        <time>2025-02-08T10:41:54.019Z</time>
      </trkpt>
      <trkpt lat="58.48334393464029" lon="12.904925979673862">
        <ele>52.59</ele>
        <time>2025-02-08T10:42:28.397Z</time>
      </trkpt>
      <trkpt lat="58.48339196294546" lon="12.90503092110157">
        <ele>52.63</ele>
        <time>2025-02-08T10:43:02.777Z</time>
      </trkpt>
      <trkpt lat="58.483439991250634" lon="12.90513594634831">
        <ele>52.67</ele>
        <time>2025-02-08T10:43:37.158Z</time>
      </trkpt>
      <trkpt lat="58.483487935736775" lon="12.905238959938288">
        <ele>52.71</ele>
        <time>2025-02-08T10:44:11.540Z</time>
      </trkpt>
      <trkpt lat="58.48353696987033" lon="12.905338956043124">
        <ele>52.75</ele>
        <time>2025-02-08T10:44:45.923Z</time>
      </trkpt>
      <trkpt lat="58.48358692601323" lon="12.9054369404912">
        <ele>52.79</ele>
        <time>2025-02-08T10:45:20.307Z</time>
      </trkpt>
      <trkpt lat="58.483637971803546" lon="12.905535930767655">
        <ele>52.83</ele>
        <time>2025-02-08T10:45:54.692Z</time>
      </trkpt>
      <trkpt lat="58.48368893377483" lon="12.905635926872492">
        <ele>52.87</ele>
        <time>2025-02-08T10:46:29.079Z</time>
      </trkpt>
      <trkpt lat="58.483739979565144" lon="12.905732989311218">
        <ele>52.91</ele>
        <time>2025-02-08T10:47:03.467Z</time>
      </trkpt>
      <trkpt lat="58.48379295319319" lon="12.905829967930913">
        <ele>52.95</ele>
        <time>2025-02-08T10:47:37.856Z</time>
      </trkpt>
      <trkpt lat="58.48384793847799" lon="12.905923929065466">
        <ele>52.99</ele>
        <time>2025-02-08T10:48:12.246Z</time>
      </trkpt>
      <trkpt lat="58.48390493541956" lon="12.906018979847431">
        <ele>53.02</ele>
        <time>2025-02-08T10:48:46.637Z</time>
      </trkpt>
      <trkpt lat="58.48396394401789" lon="12.906114952638745">
        <ele>53.05</ele>
        <time>2025-02-08T10:49:21.030Z</time>
      </trkpt>
      <trkpt lat="58.484022952616215" lon="12.90621193125844">
        <ele>53.08</ele>
        <time>2025-02-08T10:49:55.424Z</time>
      </trkpt>
      <trkpt lat="58.484083972871304" lon="12.906307987868786">
        <ele>53.11</ele>
        <time>2025-02-08T10:50:29.819Z</time>
      </trkpt>
      <trkpt lat="58.48414599895477" lon="12.9064039606601">
        <ele>53.14</ele>
        <time>2025-02-08T10:51:04.215Z</time>
      </trkpt>
      <trkpt lat="58.48420894704759" lon="12.906498927623034">
        <ele>53.17</ele>
        <time>2025-02-08T10:51:38.613Z</time>
      </trkpt>
      <trkpt lat="58.48427197895944" lon="12.90659498423338">
        <ele>53.2</ele>
        <time>2025-02-08T10:52:13.012Z</time>
      </trkpt>
      <trkpt lat="58.4843379445374" lon="12.906689951196313">
        <ele>53.23</ele>
        <time>2025-02-08T10:52:47.412Z</time>
      </trkpt>
      <trkpt lat="58.48440499976277" lon="12.906783996149898">
        <ele>53.26</ele>
        <time>2025-02-08T10:53:21.814Z</time>
      </trkpt>
      <trkpt lat="58.484473982825875" lon="12.906873933970928">
        <ele>53.29</ele>
        <time>2025-02-08T10:53:56.217Z</time>
      </trkpt>
      <trkpt lat="58.4845419600606" lon="12.90696395561099">
        <ele>53.33</ele>
        <time>2025-02-08T10:54:30.621Z</time>
      </trkpt>
      <trkpt lat="58.48460893146694" lon="12.907050959765911">
        <ele>53.36</ele>
        <time>2025-02-08T10:55:05.027Z</time>
      </trkpt>
      <trkpt lat="58.48467598669231" lon="12.90713394060731">
        <ele>53.39</ele>
        <time>2025-02-08T10:55:39.434Z</time>
      </trkpt>
      <trkpt lat="58.48474295809865" lon="12.907213987782598">
        <ele>53.42</ele>
        <time>2025-02-08T10:56:13.842Z</time>
      </trkpt>
      <trkpt lat="58.48481093533337" lon="12.907291939482093">
        <ele>53.46</ele>
        <time>2025-02-08T10:56:48.251Z</time>
      </trkpt>
      <trkpt lat="58.484878996387124" lon="12.90736997500062">
        <ele>53.49</ele>
        <time>2025-02-08T10:57:22.662Z</time>
      </trkpt>
      <trkpt lat="58.484946973621845" lon="12.907445998862386">
        <ele>53.52</ele>
        <time>2025-02-08T10:57:57.074Z</time>
      </trkpt>
      <trkpt lat="58.485014950856566" lon="12.907518921419978">
        <ele>53.54</ele>
        <time>2025-02-08T10:58:31.487Z</time>
      </trkpt>
      <trkpt lat="58.48508393391967" lon="12.907589999958873">
        <ele>53.57</ele>
        <time>2025-02-08T10:59:05.901Z</time>
      </trkpt>
      <trkpt lat="58.48515098914504" lon="12.907663928344846">
        <ele>53.6</ele>
        <time>2025-02-08T10:59:40.317Z</time>
      </trkpt>
      <trkpt lat="58.48521896637976" lon="12.90773794054985">
        <ele>53.63</ele>
        <time>2025-02-08T11:00:14.734Z</time>
      </trkpt>
      <trkpt lat="58.48528493195772" lon="12.907810946926475">
        <ele>53.66</ele>
        <time>2025-02-08T11:00:49.152Z</time>
      </trkpt>
      <trkpt lat="58.48535098135471" lon="12.907881941646338">
        <ele>53.69</ele>
        <time>2025-02-08T11:01:23.571Z</time>
      </trkpt>
      <trkpt lat="58.48541594110429" lon="12.90795193053782">
        <ele>53.72</ele>
        <time>2025-02-08T11:01:57.992Z</time>
      </trkpt>
      <trkpt lat="58.48547997884452" lon="12.908021919429302">
        <ele>53.75</ele>
        <time>2025-02-08T11:02:32.414Z</time>
      </trkpt>
      <trkpt lat="58.48554292693734" lon="12.908089980483055">
        <ele>53.78</ele>
        <time>2025-02-08T11:03:06.837Z</time>
      </trkpt>
      <trkpt lat="58.48560595884919" lon="12.908158963546157">
        <ele>53.8</ele>
        <time>2025-02-08T11:03:41.261Z</time>
      </trkpt>
      <trkpt lat="58.48566798493266" lon="12.908225934952497">
        <ele>53.83</ele>
        <time>2025-02-08T11:04:15.686Z</time>
      </trkpt>
      <trkpt lat="58.48572799935937" lon="12.90829198434949">
        <ele>53.85</ele>
        <time>2025-02-08T11:04:50.112Z</time>
      </trkpt>
      <trkpt lat="58.485788935795426" lon="12.908355938270688">
        <ele>53.87</ele>
        <time>2025-02-08T11:05:24.539Z</time>
      </trkpt>
      <trkpt lat="58.485848950222135" lon="12.9084209818393">
        <ele>53.89</ele>
        <time>2025-02-08T11:05:58.968Z</time>
      </trkpt>
      <trkpt lat="58.48590795882046" lon="12.90848694741726">
        <ele>53.91</ele>
        <time>2025-02-08T11:06:33.398Z</time>
      </trkpt>
      <trkpt lat="58.48596495576203" lon="12.9085539188236">
        <ele>53.92</ele>
        <time>2025-02-08T11:07:07.829Z</time>
      </trkpt>
      <trkpt lat="58.48602497018874" lon="12.908620974048972">
        <ele>53.94</ele>
        <time>2025-02-08T11:07:42.261Z</time>
      </trkpt>
      <trkpt lat="58.486084984615445" lon="12.908688951283693">
        <ele>53.95</ele>
        <time>2025-02-08T11:08:16.694Z</time>
      </trkpt>
      <trkpt lat="58.48614399321377" lon="12.908757934346795">
        <ele>53.96</ele>
        <time>2025-02-08T11:08:51.128Z</time>
      </trkpt>
      <trkpt lat="58.48621096462011" lon="12.908827923238277">
        <ele>53.96</ele>
        <time>2025-02-08T11:09:25.563Z</time>
      </trkpt>
      <trkpt lat="58.48627592436969" lon="12.90889598429203">
        <ele>53.96</ele>
        <time>2025-02-08T11:09:59.999Z</time>
      </trkpt>
      <trkpt lat="58.48633895628154" lon="12.908963961526752">
        <ele>53.97</ele>
        <time>2025-02-08T11:10:34.437Z</time>
      </trkpt>
      <trkpt lat="58.486403999850154" lon="12.909032944589853">
        <ele>53.97</ele>
        <time>2025-02-08T11:11:08.876Z</time>
      </trkpt>
      <trkpt lat="58.486469965428114" lon="12.909101927652955">
        <ele>53.97</ele>
        <time>2025-02-08T11:11:43.316Z</time>
      </trkpt>
      <trkpt lat="58.48653391934931" lon="12.909172922372818">
        <ele>53.97</ele>
        <time>2025-02-08T11:12:17.757Z</time>
      </trkpt>
      <trkpt lat="58.486600974574685" lon="12.909244922921062">
        <ele>53.97</ele>
        <time>2025-02-08T11:12:52.199Z</time>
      </trkpt>
      <trkpt lat="58.486668951809406" lon="12.909318935126066">
        <ele>53.96</ele>
        <time>2025-02-08T11:13:26.643Z</time>
      </trkpt>
      <trkpt lat="58.48673894070089" lon="12.909392947331071">
        <ele>53.96</ele>
        <time>2025-02-08T11:14:01.088Z</time>
      </trkpt>
      <trkpt lat="58.48680792376399" lon="12.909465953707695">
        <ele>53.96</ele>
        <time>2025-02-08T11:14:35.534Z</time>
      </trkpt>
      <trkpt lat="58.486877996474504" lon="12.909537954255939">
        <ele>53.95</ele>
        <time>2025-02-08T11:15:09.982Z</time>
      </trkpt>
      <trkpt lat="58.486946979537606" lon="12.909609954804182">
        <ele>53.94</ele>
        <time>2025-02-08T11:15:44.431Z</time>
      </trkpt>
      <trkpt lat="58.48701495677233" lon="12.909683967009187">
        <ele>53.94</ele>
        <time>2025-02-08T11:16:18.881Z</time>
      </trkpt>
      <trkpt lat="58.48708494566381" lon="12.909760996699333">
        <ele>53.93</ele>
        <time>2025-02-08T11:16:53.332Z</time>
      </trkpt>
      <trkpt lat="58.48715594038367" lon="12.909837942570448">
        <ele>53.93</ele>
        <time>2025-02-08T11:17:27.785Z</time>
      </trkpt>
      <trkpt lat="58.48722995258868" lon="12.909911954775453">
        <ele>53.92</ele>
        <time>2025-02-08T11:18:02.239Z</time>
      </trkpt>
      <trkpt lat="58.48730396479368" lon="12.909987978637218">
        <ele>53.91</ele>
        <time>2025-02-08T11:18:36.694Z</time>
      </trkpt>
      <trkpt lat="58.487375965341926" lon="12.910062996670604">
        <ele>53.9</ele>
        <time>2025-02-08T11:19:11.151Z</time>
      </trkpt>
      <trkpt lat="58.48744796589017" lon="12.910135919228196">
        <ele>53.89</ele>
        <time>2025-02-08T11:19:45.609Z</time>
      </trkpt>
      <trkpt lat="58.48751694895327" lon="12.910210937261581">
        <ele>53.88</ele>
        <time>2025-02-08T11:20:20.068Z</time>
      </trkpt>
      <trkpt lat="58.48758593201637" lon="12.910285955294967">
        <ele>53.87</ele>
        <time>2025-02-08T11:20:54.528Z</time>
      </trkpt>
      <trkpt lat="58.487654998898506" lon="12.910360973328352">
        <ele>53.86</ele>
        <time>2025-02-08T11:21:28.990Z</time>
      </trkpt>
      <trkpt lat="58.48772498778999" lon="12.910436997190118">
        <ele>53.85</ele>
        <time>2025-02-08T11:22:03.453Z</time>
      </trkpt>
      <trkpt lat="58.48779397085309" lon="12.91051092557609">
        <ele>53.83</ele>
        <time>2025-02-08T11:22:37.917Z</time>
      </trkpt>
      <trkpt lat="58.48786194808781" lon="12.910584937781096">
        <ele>53.82</ele>
        <time>2025-02-08T11:23:12.383Z</time>
      </trkpt>
      <trkpt lat="58.48792992532253" lon="12.910660961642861">
        <ele>53.81</ele>
        <time>2025-02-08T11:23:46.850Z</time>
      </trkpt>
      <trkpt lat="58.487998992204666" lon="12.910736985504627">
        <ele>53.79</ele>
        <time>2025-02-08T11:24:21.318Z</time>
      </trkpt>
      <trkpt lat="58.48806898109615" lon="12.910814937204123">
        <ele>53.77</ele>
        <time>2025-02-08T11:24:55.787Z</time>
      </trkpt>
      <trkpt lat="58.48813896998763" lon="12.91089297272265">
        <ele>53.75</ele>
        <time>2025-02-08T11:25:30.258Z</time>
      </trkpt>
      <trkpt lat="58.488210970535874" lon="12.910974947735667">
        <ele>53.73</ele>
        <time>2025-02-08T11:26:04.730Z</time>
      </trkpt>
      <trkpt lat="58.48828095942736" lon="12.911059940233827">
        <ele>53.7</ele>
        <time>2025-02-08T11:26:39.203Z</time>
      </trkpt>
      <trkpt lat="58.48835195414722" lon="12.911145938560367">
        <ele>53.68</ele>
        <time>2025-02-08T11:27:13.678Z</time>
      </trkpt>
      <trkpt lat="58.48842294886708" lon="12.911232942715287">
        <ele>53.65</ele>
        <time>2025-02-08T11:27:48.154Z</time>
      </trkpt>
      <trkpt lat="58.488494949415326" lon="12.911317935213447">
        <ele>53.63</ele>
        <time>2025-02-08T11:28:22.631Z</time>
      </trkpt>
      <trkpt lat="58.48856594413519" lon="12.911404939368367">
        <ele>53.61</ele>
        <time>2025-02-08T11:28:57.110Z</time>
      </trkpt>
      <trkpt lat="58.48863593302667" lon="12.91149496100843">
        <ele>53.58</ele>
        <time>2025-02-08T11:29:31.590Z</time>
      </trkpt>
      <trkpt lat="58.488704999908805" lon="12.911585988476872">
        <ele>53.55</ele>
        <time>2025-02-08T11:30:06.072Z</time>
      </trkpt>
      <trkpt lat="58.488772977143526" lon="12.911676932126284">
        <ele>53.53</ele>
        <time>2025-02-08T11:30:40.555Z</time>
      </trkpt>
      <trkpt lat="58.48883994854987" lon="12.911769971251488">
        <ele>53.5</ele>
        <time>2025-02-08T11:31:15.039Z</time>
      </trkpt>
      <trkpt lat="58.48890599794686" lon="12.91186292655766">
        <ele>53.47</ele>
        <time>2025-02-08T11:31:49.524Z</time>
      </trkpt>
      <trkpt lat="58.48896995186806" lon="12.911954959854484">
        <ele>53.44</ele>
        <time>2025-02-08T11:32:24.011Z</time>
      </trkpt>
      <trkpt lat="58.48903298377991" lon="12.912047998979688">
        <ele>53.42</ele>
        <time>2025-02-08T11:32:58.499Z</time>
      </trkpt>
      <trkpt lat="58.489095931872725" lon="12.91214095428586">
        <ele>53.39</ele>
        <time>2025-02-08T11:33:32.988Z</time>
      </trkpt>
      <trkpt lat="58.48916097544134" lon="12.912235921248794">
        <ele>53.35</ele>
        <time>2025-02-08T11:34:07.479Z</time>
      </trkpt>
      <trkpt lat="58.489224929362535" lon="12.912334995344281">
        <ele>53.32</ele>
        <time>2025-02-08T11:34:41.971Z</time>
      </trkpt>
      <trkpt lat="58.489287961274385" lon="12.912434991449118">
        <ele>53.29</ele>
        <time>2025-02-08T11:35:16.464Z</time>
      </trkpt>
      <trkpt lat="58.489350993186235" lon="12.912531970068812">
        <ele>53.26</ele>
        <time>2025-02-08T11:35:50.959Z</time>
      </trkpt>
      <trkpt lat="58.489413941279054" lon="12.912627942860126">
        <ele>53.23</ele>
        <time>2025-02-08T11:36:25.455Z</time>
      </trkpt>
      <trkpt lat="58.48947596736252" lon="12.912724921479821">
        <ele>53.19</ele>
        <time>2025-02-08T11:36:59.952Z</time>
      </trkpt>
      <trkpt lat="58.48953799344599" lon="12.912821983918548">
        <ele>53.15</ele>
        <time>2025-02-08T11:37:34.450Z</time>
      </trkpt>
      <trkpt lat="58.48959792405367" lon="12.912920974195004">
        <ele>53.12</ele>
        <time>2025-02-08T11:38:08.950Z</time>
      </trkpt>
      <trkpt lat="58.48965793848038" lon="12.913018958643079">
        <ele>53.08</ele>
        <time>2025-02-08T11:38:43.451Z</time>
      </trkpt>
      <trkpt lat="58.489717952907085" lon="12.913114931434393">
        <ele>53.04</ele>
        <time>2025-02-08T11:39:17.953Z</time>
      </trkpt>
      <trkpt lat="58.489778973162174" lon="12.913209982216358">
        <ele>53.0</ele>
        <time>2025-02-08T11:39:52.456Z</time>
      </trkpt>
      <trkpt lat="58.489840999245644" lon="12.913306960836053">
        <ele>52.96</ele>
        <time>2025-02-08T11:40:26.961Z</time>
      </trkpt>
      <trkpt lat="58.48990294151008" lon="12.91340695694089">
        <ele>52.92</ele>
        <time>2025-02-08T11:41:01.467Z</time>
      </trkpt>
      <trkpt lat="58.48996697925031" lon="12.913505947217345">
        <ele>52.88</ele>
        <time>2025-02-08T11:41:35.974Z</time>
      </trkpt>
      <trkpt lat="58.49003193899989" lon="12.913604937493801">
        <ele>52.84</ele>
        <time>2025-02-08T11:42:10.483Z</time>
      </trkpt>
      <trkpt lat="58.49009798839688" lon="12.913703927770257">
        <ele>52.8</ele>
        <time>2025-02-08T11:42:44.993Z</time>
      </trkpt>
      <trkpt lat="58.49016194231808" lon="12.913807947188616">
        <ele>52.76</ele>
        <time>2025-02-08T11:43:19.504Z</time>
      </trkpt>
      <trkpt lat="58.49022698588669" lon="12.913912972435355">
        <ele>52.72</ele>
        <time>2025-02-08T11:43:54.017Z</time>
      </trkpt>
      <trkpt lat="58.49029295146465" lon="12.914018919691443">
        <ele>52.68</ele>
        <time>2025-02-08T11:44:28.531Z</time>
      </trkpt>
      <trkpt lat="58.490360928699374" lon="12.914125956594944">
        <ele>52.64</ele>
        <time>2025-02-08T11:45:03.047Z</time>
      </trkpt>
      <trkpt lat="58.49042999558151" lon="12.914232993498445">
        <ele>52.59</ele>
        <time>2025-02-08T11:45:37.564Z</time>
      </trkpt>
      <trkpt lat="58.49049897864461" lon="12.914340952411294">
        <ele>52.55</ele>
        <time>2025-02-08T11:46:12.082Z</time>
      </trkpt>
      <trkpt lat="58.49056896753609" lon="12.914448995143175">
        <ele>52.5</ele>
        <time>2025-02-08T11:46:46.602Z</time>
      </trkpt>
      <trkpt lat="58.490637950599194" lon="12.914557959884405">
        <ele>52.46</ele>
        <time>2025-02-08T11:47:21.123Z</time>
      </trkpt>
      <trkpt lat="58.490706933662295" lon="12.914666924625635">
        <ele>52.42</ele>
        <time>2025-02-08T11:47:55.646Z</time>
      </trkpt>
      <trkpt lat="58.4907759167254" lon="12.914772955700755">
        <ele>52.38</ele>
        <time>2025-02-08T11:48:30.170Z</time>
      </trkpt>
      <trkpt lat="58.49084498360753" lon="12.914877980947495">
        <ele>52.33</ele>
        <time>2025-02-08T11:49:04.696Z</time>
      </trkpt>
      <trkpt lat="58.49091296084225" lon="12.914983928203583">
        <ele>52.29</ele>
        <time>2025-02-08T11:49:39.223Z</time>
      </trkpt>
      <trkpt lat="58.49097892642021" lon="12.915090965107083">
        <ele>52.25</ele>
        <time>2025-02-08T11:50:13.751Z</time>
      </trkpt>
      <trkpt lat="58.49104396998882" lon="12.915198924019933">
        <ele>52.2</ele>
        <time>2025-02-08T11:50:48.281Z</time>
      </trkpt>
      <trkpt lat="58.49111094139516" lon="12.915304955095053">
        <ele>52.16</ele>
        <time>2025-02-08T11:51:22.812Z</time>
      </trkpt>
      <trkpt lat="58.491178918629885" lon="12.915411991998553">
        <ele>52.11</ele>
        <time>2025-02-08T11:51:57.345Z</time>
      </trkpt>
      <trkpt lat="58.49124697968364" lon="12.915520956739783">
        <ele>52.07</ele>
        <time>2025-02-08T11:52:31.879Z</time>
      </trkpt>
      <trkpt lat="58.49131696857512" lon="12.915629921481013">
        <ele>52.02</ele>
        <time>2025-02-08T11:53:06.414Z</time>
      </trkpt>
      <trkpt lat="58.49138293415308" lon="12.915740981698036">
        <ele>51.98</ele>
        <time>2025-02-08T11:53:40.951Z</time>
      </trkpt>
      <trkpt lat="58.49144596606493" lon="12.91585799306631">
        <ele>51.94</ele>
        <time>2025-02-08T11:54:15.489Z</time>
      </trkpt>
      <trkpt lat="58.49150991998613" lon="12.915971986949444">
        <ele>51.89</ele>
        <time>2025-02-08T11:54:50.029Z</time>
      </trkpt>
      <trkpt lat="58.49157295189798" lon="12.916087992489338">
        <ele>51.85</ele>
        <time>2025-02-08T11:55:24.570Z</time>
      </trkpt>
      <trkpt lat="58.49163698963821" lon="12.916204920038581">
        <ele>51.8</ele>
        <time>2025-02-08T11:55:59.113Z</time>
      </trkpt>
      <trkpt lat="58.49170094355941" lon="12.916322937235236">
        <ele>51.76</ele>
        <time>2025-02-08T11:56:33.657Z</time>
      </trkpt>
      <trkpt lat="58.49176498129964" lon="12.916444977745414">
        <ele>51.72</ele>
        <time>2025-02-08T11:57:08.202Z</time>
      </trkpt>
      <trkpt lat="58.49182792939246" lon="12.91656794026494">
        <ele>51.68</ele>
        <time>2025-02-08T11:57:42.749Z</time>
      </trkpt>
      <trkpt lat="58.49189096130431" lon="12.91669299826026">
        <ele>51.63</ele>
        <time>2025-02-08T11:58:17.297Z</time>
      </trkpt>
      <trkpt lat="58.49195399321616" lon="12.916819984093308">
        <ele>51.59</ele>
        <time>2025-02-08T11:58:51.847Z</time>
      </trkpt>
      <trkpt lat="58.492015935480595" lon="12.916949987411499">
        <ele>51.55</ele>
        <time>2025-02-08T11:59:26.398Z</time>
      </trkpt>
      <trkpt lat="58.49207695573568" lon="12.917078984901309">
        <ele>51.51</ele>
        <time>2025-02-08T12:00:00.951Z</time>
      </trkpt>
      <trkpt lat="58.49213998764753" lon="12.917207982391119">
        <ele>51.47</ele>
        <time>2025-02-08T12:00:35.505Z</time>
      </trkpt>
      <trkpt lat="58.49220192991197" lon="12.917336979880929">
        <ele>51.43</ele>
        <time>2025-02-08T12:01:10.061Z</time>
      </trkpt>
      <trkpt lat="58.49226295016706" lon="12.9174679890275">
        <ele>51.39</ele>
        <time>2025-02-08T12:01:44.618Z</time>
      </trkpt>
      <trkpt lat="58.49232497625053" lon="12.91759698651731">
        <ele>51.34</ele>
        <time>2025-02-08T12:02:19.177Z</time>
      </trkpt>
      <trkpt lat="58.49238691851497" lon="12.9177269898355">
        <ele>51.3</ele>
        <time>2025-02-08T12:02:53.737Z</time>
      </trkpt>
      <trkpt lat="58.492445927113295" lon="12.917857998982072">
        <ele>51.26</ele>
        <time>2025-02-08T12:03:28.299Z</time>
      </trkpt>
      <trkpt lat="58.49250493571162" lon="12.917988924309611">
        <ele>51.22</ele>
        <time>2025-02-08T12:04:02.862Z</time>
      </trkpt>
      <trkpt lat="58.49256394430995" lon="12.918119933456182">
        <ele>51.19</ele>
        <time>2025-02-08T12:04:37.426Z</time>
      </trkpt>
      <trkpt lat="58.49262295290828" lon="12.918249936774373">
        <ele>51.15</ele>
        <time>2025-02-08T12:05:11.992Z</time>
      </trkpt>
      <trkpt lat="58.492682967334986" lon="12.918378934264183">
        <ele>51.11</ele>
        <time>2025-02-08T12:05:46.559Z</time>
      </trkpt>
      <trkpt lat="58.492743987590075" lon="12.918504998087883">
        <ele>51.08</ele>
        <time>2025-02-08T12:06:21.128Z</time>
      </trkpt>
      <trkpt lat="58.4928029961884" lon="12.91862997226417">
        <ele>51.05</ele>
        <time>2025-02-08T12:06:55.698Z</time>
      </trkpt>
      <trkpt lat="58.4928619209677" lon="12.918753940612078">
        <ele>51.01</ele>
        <time>2025-02-08T12:07:30.270Z</time>
      </trkpt>
      <trkpt lat="58.492918917909265" lon="12.918876986950636">
        <ele>50.97</ele>
        <time>2025-02-08T12:08:04.843Z</time>
      </trkpt>
      <trkpt lat="58.49297599866986" lon="12.918999949470162">
        <ele>50.93</ele>
        <time>2025-02-08T12:08:39.417Z</time>
      </trkpt>
      <trkpt lat="58.49303299561143" lon="12.91912299580872">
        <ele>50.9</ele>
        <time>2025-02-08T12:09:13.993Z</time>
      </trkpt>
      <trkpt lat="58.493090998381376" lon="12.919242940843105">
        <ele>50.86</ele>
        <time>2025-02-08T12:09:48.570Z</time>
      </trkpt>
      <trkpt lat="58.49314992316067" lon="12.91935995221138">
        <ele>50.83</ele>
        <time>2025-02-08T12:10:23.148Z</time>
      </trkpt>
      <trkpt lat="58.493208931759" lon="12.919473946094513">
        <ele>50.79</ele>
        <time>2025-02-08T12:10:57.728Z</time>
      </trkpt>
      <trkpt lat="58.49326693452895" lon="12.919585928320885">
        <ele>50.76</ele>
        <time>2025-02-08T12:11:32.309Z</time>
      </trkpt>
      <trkpt lat="58.49332292564213" lon="12.919694976881146">
        <ele>50.73</ele>
        <time>2025-02-08T12:12:06.891Z</time>
      </trkpt>
      <trkpt lat="58.4933799225837" lon="12.919802935793996">
        <ele>50.69</ele>
        <time>2025-02-08T12:12:41.475Z</time>
      </trkpt>
      <trkpt lat="58.49343599751592" lon="12.919910978525877">
        <ele>50.66</ele>
        <time>2025-02-08T12:13:16.060Z</time>
      </trkpt>
      <trkpt lat="58.49349098280072" lon="12.920017931610346">
        <ele>50.62</ele>
        <time>2025-02-08T12:13:50.646Z</time>
      </trkpt>
      <trkpt lat="58.49354697391391" lon="12.920121951028705">
        <ele>50.58</ele>
        <time>2025-02-08T12:14:25.233Z</time>
      </trkpt>
      <trkpt lat="58.493604976683855" lon="12.920222952961922">
        <ele>50.55</ele>
        <time>2025-02-08T12:14:59.822Z</time>
      </trkpt>
      <trkpt lat="58.49366197362542" lon="12.920323954895139">
        <ele>50.52</ele>
        <time>2025-02-08T12:15:34.412Z</time>
      </trkpt>
      <trkpt lat="58.49371997639537" lon="12.920426968485117">
        <ele>50.49</ele>
        <time>2025-02-08T12:16:09.003Z</time>
      </trkpt>
      <trkpt lat="58.493778984993696" lon="12.920526964589953">
        <ele>50.46</ele>
        <time>2025-02-08T12:16:43.596Z</time>
      </trkpt>
      <trkpt lat="58.493838999420404" lon="12.92062595486641">
        <ele>50.43</ele>
        <time>2025-02-08T12:17:18.190Z</time>
      </trkpt>
      <trkpt lat="58.49389993585646" lon="12.920723939314485">
        <ele>50.4</ele>
        <time>2025-02-08T12:17:52.785Z</time>
      </trkpt>
      <trkpt lat="58.49396296776831" lon="12.92081999592483">
        <ele>50.37</ele>
        <time>2025-02-08T12:18:27.381Z</time>
      </trkpt>
      <trkpt lat="58.49402599968016" lon="12.920919992029667">
        <ele>50.34</ele>
        <time>2025-02-08T12:19:01.979Z</time>
      </trkpt>
      <trkpt lat="58.49408693611622" lon="12.921022921800613">
        <ele>50.31</ele>
        <time>2025-02-08T12:19:36.578Z</time>
      </trkpt>
      <trkpt lat="58.49414795637131" lon="12.92112392373383">
        <ele>50.29</ele>
        <time>2025-02-08T12:20:11.178Z</time>
      </trkpt>
      <trkpt lat="58.49421098828316" lon="12.921218974515796">
        <ele>50.26</ele>
        <time>2025-02-08T12:20:45.780Z</time>
      </trkpt>
      <trkpt lat="58.494272930547595" lon="12.921310923993587">
        <ele>50.23</ele>
        <time>2025-02-08T12:21:20.383Z</time>
      </trkpt>
      <trkpt lat="58.494333950802684" lon="12.92139993980527">
        <ele>50.2</ele>
        <time>2025-02-08T12:21:54.987Z</time>
      </trkpt>
      <trkpt lat="58.49439295940101" lon="12.92148593813181">
        <ele>50.18</ele>
        <time>2025-02-08T12:22:29.592Z</time>
      </trkpt>
      <trkpt lat="58.49445096217096" lon="12.921569924801588">
        <ele>50.15</ele>
        <time>2025-02-08T12:23:04.198Z</time>
      </trkpt>
      <trkpt lat="58.494507959112525" lon="12.921652989462018">
        <ele>50.12</ele>
        <time>2025-02-08T12:23:38.806Z</time>
      </trkpt>
      <trkpt lat="58.49456596188247" lon="12.921731946989894">
        <ele>50.09</ele>
        <time>2025-02-08T12:24:13.415Z</time>
      </trkpt>
      <trkpt lat="58.49462295882404" lon="12.92180797085166">
        <ele>50.06</ele>
        <time>2025-02-08T12:24:48.025Z</time>
      </trkpt>
      <trkpt lat="58.494679955765605" lon="12.921880977228284">
        <ele>50.03</ele>
        <time>2025-02-08T12:25:22.636Z</time>
      </trkpt>
      <trkpt lat="58.49473494105041" lon="12.921950966119766">
        <ele>50.0</ele>
        <time>2025-02-08T12:25:57.248Z</time>
      </trkpt>
      <trkpt lat="58.494789926335216" lon="12.922018943354487">
        <ele>49.97</ele>
        <time>2025-02-08T12:26:31.861Z</time>
      </trkpt>
      <trkpt lat="58.4948459174484" lon="12.92208792641759">
        <ele>49.94</ele>
        <time>2025-02-08T12:27:06.475Z</time>
      </trkpt>
      <trkpt lat="58.49490199238062" lon="12.922154981642962">
        <ele>49.91</ele>
        <time>2025-02-08T12:27:41.090Z</time>
      </trkpt>
      <trkpt lat="58.494956977665424" lon="12.922220947220922">
        <ele>49.88</ele>
        <time>2025-02-08T12:28:15.706Z</time>
      </trkpt>
      <trkpt lat="58.49501095712185" lon="12.922287918627262">
        <ele>49.85</ele>
        <time>2025-02-08T12:28:50.323Z</time>
      </trkpt>
      <trkpt lat="58.495065942406654" lon="12.922353968024254">
        <ele>49.82</ele>
        <time>2025-02-08T12:29:24.941Z</time>
      </trkpt>
      <trkpt lat="58.4951239451766" lon="12.922416999936104">
        <ele>49.79</ele>
        <time>2025-02-08T12:29:59.560Z</time>
      </trkpt>
      <trkpt lat="58.49518094211817" lon="12.922479948028922">
        <ele>49.76</ele>
        <time>2025-02-08T12:30:34.180Z</time>
      </trkpt>
      <trkpt lat="58.495237939059734" lon="12.922543985769153">
        <ele>49.73</ele>
        <time>2025-02-08T12:31:08.801Z</time>
      </trkpt>
      <trkpt lat="58.4952949360013" lon="12.922606933861971">
        <ele>49.7</ele>
        <time>2025-02-08T12:31:43.424Z</time>
      </trkpt>
      <trkpt lat="58.49535193294287" lon="12.92266694828868">
        <ele>49.67</ele>
        <time>2025-02-08T12:32:18.048Z</time>
      </trkpt>
      <trkpt lat="58.49540792405605" lon="12.922724951058626">
        <ele>49.64</ele>
        <time>2025-02-08T12:32:52.673Z</time>
      </trkpt>
      <trkpt lat="58.49546399898827" lon="12.922781948000193">
        <ele>49.6</ele>
        <time>2025-02-08T12:33:27.299Z</time>
      </trkpt>
      <trkpt lat="58.49552099592984" lon="12.92283995077014">
        <ele>49.57</ele>
        <time>2025-02-08T12:34:01.926Z</time>
      </trkpt>
      <trkpt lat="58.495578998699784" lon="12.922895941883326">
        <ele>49.54</ele>
        <time>2025-02-08T12:34:36.554Z</time>
      </trkpt>
      <trkpt lat="58.4956369176507" lon="12.922951932996511">
        <ele>49.5</ele>
        <time>2025-02-08T12:35:11.183Z</time>
      </trkpt>
      <trkpt lat="58.4956939984113" lon="12.923007924109697">
        <ele>49.46</ele>
        <time>2025-02-08T12:35:45.813Z</time>
      </trkpt>
      <trkpt lat="58.49575191736221" lon="12.923062993213534">
        <ele>49.42</ele>
        <time>2025-02-08T12:36:20.444Z</time>
      </trkpt>
      <trkpt lat="58.49580992013216" lon="12.92311797849834">
        <ele>49.39</ele>
        <time>2025-02-08T12:36:55.076Z</time>
      </trkpt>
      <trkpt lat="58.49586892873049" lon="12.923174975439906">
        <ele>49.35</ele>
        <time>2025-02-08T12:37:29.709Z</time>
      </trkpt>
      <trkpt lat="58.495927937328815" lon="12.923233984038234">
        <ele>49.31</ele>
        <time>2025-02-08T12:38:04.343Z</time>
      </trkpt>
      <trkpt lat="58.495988957583904" lon="12.923292992636561">
        <ele>49.27</ele>
        <time>2025-02-08T12:38:38.978Z</time>
      </trkpt>
      <trkpt lat="58.496050983667374" lon="12.923349989578128">
        <ele>49.23</ele>
        <time>2025-02-08T12:39:13.614Z</time>
      </trkpt>
      <trkpt lat="58.49611292593181" lon="12.923405980691314">
        <ele>49.19</ele>
        <time>2025-02-08T12:39:48.251Z</time>
      </trkpt>
      <trkpt lat="58.49617595784366" lon="12.92346297763288">
        <ele>49.14</ele>
        <time>2025-02-08T12:40:22.889Z</time>
      </trkpt>
      <trkpt lat="58.49624091759324" lon="12.923519974574447">
        <ele>49.1</ele>
        <time>2025-02-08T12:40:57.529Z</time>
      </trkpt>
      <trkpt lat="58.49630696699023" lon="12.923578983172774">
        <ele>49.05</ele>
        <time>2025-02-08T12:41:32.170Z</time>
      </trkpt>
      <trkpt lat="58.496375950053334" lon="12.923640925437212">
        <ele>49.0</ele>
        <time>2025-02-08T12:42:06.812Z</time>
      </trkpt>
      <trkpt lat="58.4964469447732" lon="12.923703957349062">
        <ele>48.96</ele>
        <time>2025-02-08T12:42:41.455Z</time>
      </trkpt>
      <trkpt lat="58.49651894532144" lon="12.92376296594739">
        <ele>48.91</ele>
        <time>2025-02-08T12:43:16.099Z</time>
      </trkpt>
      <trkpt lat="58.496589940041304" lon="12.92382599785924">
        <ele>48.86</ele>
        <time>2025-02-08T12:43:50.745Z</time>
      </trkpt>
      <trkpt lat="58.49666093476117" lon="12.9238919634372">
        <ele>48.81</ele>
        <time>2025-02-08T12:44:25.392Z</time>
      </trkpt>
      <trkpt lat="58.49673293530941" lon="12.923956923186779">
        <ele>48.76</ele>
        <time>2025-02-08T12:45:00.040Z</time>
      </trkpt>
      <trkpt lat="58.496804935857654" lon="12.924023978412151">
        <ele>48.71</ele>
        <time>2025-02-08T12:45:34.690Z</time>
      </trkpt>
      <trkpt lat="58.49687894806266" lon="12.924091955646873">
        <ele>48.67</ele>
        <time>2025-02-08T12:46:09.341Z</time>
      </trkpt>
      <trkpt lat="58.496954971924424" lon="12.924160938709974">
        <ele>48.62</ele>
        <time>2025-02-08T12:46:43.993Z</time>
      </trkpt>
      <trkpt lat="58.49703191779554" lon="12.924231933429837">
        <ele>48.58</ele>
        <time>2025-02-08T12:47:18.647Z</time>
      </trkpt>
      <trkpt lat="58.497109953314066" lon="12.924304939806461">
        <ele>48.53</ele>
        <time>2025-02-08T12:47:53.302Z</time>
      </trkpt>
      <trkpt lat="58.49718991667032" lon="12.924378952011466">
        <ele>48.48</ele>
        <time>2025-02-08T12:48:27.958Z</time>
      </trkpt>
      <trkpt lat="58.49727096967399" lon="12.92445296421647">
        <ele>48.43</ele>
        <time>2025-02-08T12:49:02.616Z</time>
      </trkpt>
      <trkpt lat="58.49735294468701" lon="12.924524964764714">
        <ele>48.38</ele>
        <time>2025-02-08T12:49:37.275Z</time>
      </trkpt>
      <trkpt lat="58.49743399769068" lon="12.924598976969719">
        <ele>48.33</ele>
        <time>2025-02-08T12:50:11.936Z</time>
      </trkpt>
      <trkpt lat="58.497513961046934" lon="12.924673995003104">
        <ele>48.28</ele>
        <time>2025-02-08T12:50:46.598Z</time>
      </trkpt>
      <trkpt lat="58.49759392440319" lon="12.924748929217458">
        <ele>48.23</ele>
        <time>2025-02-08T12:51:21.262Z</time>
      </trkpt>
      <trkpt lat="58.49767497740686" lon="12.924822941422462">
        <ele>48.19</ele>
        <time>2025-02-08T12:51:55.927Z</time>
      </trkpt>
      <trkpt lat="58.4977559465915" lon="12.924896953627467">
        <ele>48.14</ele>
        <time>2025-02-08T12:52:30.593Z</time>
      </trkpt>
      <trkpt lat="58.497834987938404" lon="12.924969960004091">
        <ele>48.09</ele>
        <time>2025-02-08T12:53:05.261Z</time>
      </trkpt>
      <trkpt lat="58.49791394546628" lon="12.925040954723954">
        <ele>48.05</ele>
        <time>2025-02-08T12:53:39.930Z</time>
      </trkpt>
      <trkpt lat="58.497990975156426" lon="12.925112955272198">
        <ele>48.0</ele>
        <time>2025-02-08T12:54:14.601Z</time>
      </trkpt>
      <trkpt lat="58.49806792102754" lon="12.925185961648822">
        <ele>47.95</ele>
        <time>2025-02-08T12:54:49.273Z</time>
      </trkpt>
      <trkpt lat="58.498142939060926" lon="12.925258968025446">
        <ele>47.91</ele>
        <time>2025-02-08T12:55:23.946Z</time>
      </trkpt>
      <trkpt lat="58.49821795709431" lon="12.92533298023045">
        <ele>47.86</ele>
        <time>2025-02-08T12:55:58.621Z</time>
      </trkpt>
      <trkpt lat="58.498291969299316" lon="12.925407998263836">
        <ele>47.81</ele>
        <time>2025-02-08T12:56:33.297Z</time>
      </trkpt>
      <trkpt lat="58.49836598150432" lon="12.925485949963331">
        <ele>47.77</ele>
        <time>2025-02-08T12:57:07.974Z</time>
      </trkpt>
      <trkpt lat="58.498438987880945" lon="12.925564991310239">
        <ele>47.72</ele>
        <time>2025-02-08T12:57:42.653Z</time>
      </trkpt>
      <trkpt lat="58.49851291626692" lon="12.925640931352973">
        <ele>47.67</ele>
        <time>2025-02-08T12:58:17.333Z</time>
      </trkpt>
      <trkpt lat="58.49858592264354" lon="12.925715949386358">
        <ele>47.63</ele>
        <time>2025-02-08T12:58:52.014Z</time>
      </trkpt>
      <trkpt lat="58.498655995354056" lon="12.925793984904885">
        <ele>47.58</ele>
        <time>2025-02-08T12:59:26.697Z</time>
      </trkpt>
      <trkpt lat="58.4987229667604" lon="12.925876965746284">
        <ele>47.54</ele>
        <time>2025-02-08T13:00:01.381Z</time>
      </trkpt>
      <trkpt lat="58.49878893233836" lon="12.925961958244443">
        <ele>47.5</ele>
        <time>2025-02-08T13:00:36.066Z</time>
      </trkpt>
      <trkpt lat="58.49885598756373" lon="12.926047956570983">
        <ele>47.45</ele>
        <time>2025-02-08T13:01:10.753Z</time>
      </trkpt>
      <trkpt lat="58.49892295897007" lon="12.926137978211045">
        <ele>47.41</ele>
        <time>2025-02-08T13:01:45.441Z</time>
      </trkpt>
      <trkpt lat="58.49899093620479" lon="12.926229927688837">
        <ele>47.37</ele>
        <time>2025-02-08T13:02:20.130Z</time>
      </trkpt>
      <trkpt lat="58.49905799143016" lon="12.926322966814041">
        <ele>47.33</ele>
        <time>2025-02-08T13:02:54.821Z</time>
      </trkpt>
      <trkpt lat="58.49912395700812" lon="12.926416927948594">
        <ele>47.28</ele>
        <time>2025-02-08T13:03:29.513Z</time>
      </trkpt>
      <trkpt lat="58.4991889167577" lon="12.92651298455894">
        <ele>47.24</ele>
        <time>2025-02-08T13:04:04.206Z</time>
      </trkpt>
      <trkpt lat="58.49925194866955" lon="12.926611974835396">
        <ele>47.2</ele>
        <time>2025-02-08T13:04:38.901Z</time>
      </trkpt>
      <trkpt lat="58.49931598640978" lon="12.926710965111852">
        <ele>47.16</ele>
        <time>2025-02-08T13:05:13.597Z</time>
      </trkpt>
      <trkpt lat="58.4993789345026" lon="12.926808949559927">
        <ele>47.11</ele>
        <time>2025-02-08T13:05:48.294Z</time>
      </trkpt>
      <trkpt lat="58.49943894892931" lon="12.926909951493144">
        <ele>47.08</ele>
        <time>2025-02-08T13:06:22.992Z</time>
      </trkpt>
      <trkpt lat="58.49949795752764" lon="12.927012965083122">
        <ele>47.04</ele>
        <time>2025-02-08T13:06:57.692Z</time>
      </trkpt>
      <trkpt lat="58.499554954469204" lon="12.927116984501481">
        <ele>47.01</ele>
        <time>2025-02-08T13:07:32.393Z</time>
      </trkpt>
      <trkpt lat="58.49961195141077" lon="12.92722293175757">
        <ele>46.98</ele>
        <time>2025-02-08T13:08:07.095Z</time>
      </trkpt>
      <trkpt lat="58.49966995418072" lon="12.92732896283269">
        <ele>46.95</ele>
        <time>2025-02-08T13:08:41.799Z</time>
      </trkpt>
      <trkpt lat="58.499726951122284" lon="12.92743792757392">
        <ele>46.92</ele>
        <time>2025-02-08T13:09:16.504Z</time>
      </trkpt>
      <trkpt lat="58.49978193640709" lon="12.927550999447703">
        <ele>46.88</ele>
        <time>2025-02-08T13:09:51.210Z</time>
      </trkpt>
      <trkpt lat="58.499836921691895" lon="12.927664993330836">
        <ele>46.85</ele>
        <time>2025-02-08T13:10:25.917Z</time>
      </trkpt>
      <trkpt lat="58.49989199079573" lon="12.92777999304235">
        <ele>46.82</ele>
        <time>2025-02-08T13:11:00.626Z</time>
      </trkpt>
      <trkpt lat="58.499945970252156" lon="12.927895998582244">
        <ele>46.8</ele>
        <time>2025-02-08T13:11:35.336Z</time>
      </trkpt>
      <trkpt lat="58.4999989438802" lon="12.928014937788248">
        <ele>46.76</ele>
        <time>2025-02-08T13:12:10.047Z</time>
      </trkpt>
      <trkpt lat="58.500049989670515" lon="12.928136978298426">
        <ele>46.73</ele>
        <time>2025-02-08T13:12:44.760Z</time>
      </trkpt>
      <trkpt lat="58.50009994581342" lon="12.928262958303094">
        <ele>46.71</ele>
        <time>2025-02-08T13:13:19.474Z</time>
      </trkpt>
      <trkpt lat="58.50014998577535" lon="12.928387932479382">
        <ele>46.68</ele>
        <time>2025-02-08T13:13:54.189Z</time>
      </trkpt>
      <trkpt lat="58.50019893608987" lon="12.928512990474701">
        <ele>46.66</ele>
        <time>2025-02-08T13:14:28.906Z</time>
      </trkpt>
      <trkpt lat="58.500246964395046" lon="12.928637964650989">
        <ele>46.64</ele>
        <time>2025-02-08T13:15:03.624Z</time>
      </trkpt>
      <trkpt lat="58.5002959985286" lon="12.928760927170515">
        <ele>46.62</ele>
        <time>2025-02-08T13:15:38.343Z</time>
      </trkpt>
      <trkpt lat="58.50034394301474" lon="12.928884979337454">
        <ele>46.6</ele>
        <time>2025-02-08T13:16:13.063Z</time>
      </trkpt>
      <trkpt lat="58.50039096549153" lon="12.929008947685361">
        <ele>46.58</ele>
        <time>2025-02-08T13:16:47.785Z</time>
      </trkpt>
      <trkpt lat="58.500437987968326" lon="12.929131994023919">
        <ele>46.56</ele>
        <time>2025-02-08T13:17:22.508Z</time>
      </trkpt>
      <trkpt lat="58.50048593245447" lon="12.929254956543446">
        <ele>46.55</ele>
        <time>2025-02-08T13:17:57.232Z</time>
      </trkpt>
      <trkpt lat="58.50053496658802" lon="12.929378924891353">
        <ele>46.53</ele>
        <time>2025-02-08T13:18:31.958Z</time>
      </trkpt>
      <trkpt lat="58.50058299489319" lon="12.929502977058291">
        <ele>46.52</ele>
        <time>2025-02-08T13:19:06.685Z</time>
      </trkpt>
      <trkpt lat="58.500631945207715" lon="12.929625939577818">
        <ele>46.52</ele>
        <time>2025-02-08T13:19:41.413Z</time>
      </trkpt>
      <trkpt lat="58.50068097934127" lon="12.929744962602854">
        <ele>46.51</ele>
        <time>2025-02-08T13:20:16.143Z</time>
      </trkpt>
      <trkpt lat="58.50072791799903" lon="12.929861973971128">
        <ele>46.51</ele>
        <time>2025-02-08T13:20:50.874Z</time>
      </trkpt>
      <trkpt lat="58.50077292881906" lon="12.929982924833894">
        <ele>46.51</ele>
        <time>2025-02-08T13:21:25.606Z</time>
      </trkpt>
      <trkpt lat="58.50081693381071" lon="12.930104965344071">
        <ele>46.51</ele>
        <time>2025-02-08T13:22:00.339Z</time>
      </trkpt>
      <trkpt lat="58.50086295045912" lon="12.930226922035217">
        <ele>46.52</ele>
        <time>2025-02-08T13:22:35.074Z</time>
      </trkpt>
      <trkpt lat="58.500910978764296" lon="12.930346950888634">
        <ele>46.52</ele>
        <time>2025-02-08T13:23:09.810Z</time>
      </trkpt>
      <trkpt lat="58.50095992907882" lon="12.93046798557043">
        <ele>46.52</ele>
        <time>2025-02-08T13:23:44.547Z</time>
      </trkpt>
      <trkpt lat="58.50100795738399" lon="12.930588936433196">
        <ele>46.53</ele>
        <time>2025-02-08T13:24:19.285Z</time>
      </trkpt>
      <trkpt lat="58.50105598568916" lon="12.930709971114993">
        <ele>46.54</ele>
        <time>2025-02-08T13:24:54.025Z</time>
      </trkpt>
      <trkpt lat="58.501103930175304" lon="12.930830921977758">
        <ele>46.55</ele>
        <time>2025-02-08T13:25:28.766Z</time>
      </trkpt>
      <trkpt lat="58.501149946823716" lon="12.930952962487936">
        <ele>46.56</ele>
        <time>2025-02-08T13:26:03.508Z</time>
      </trkpt>
      <trkpt lat="58.50119596347213" lon="12.931075925007463">
        <ele>46.58</ele>
        <time>2025-02-08T13:26:38.251Z</time>
      </trkpt>
      <trkpt lat="58.50124298594892" lon="12.93119695968926">
        <ele>46.59</ele>
        <time>2025-02-08T13:27:12.996Z</time>
      </trkpt>
      <trkpt lat="58.50129093043506" lon="12.931317994371057">
        <ele>46.61</ele>
        <time>2025-02-08T13:27:47.742Z</time>
      </trkpt>
      <trkpt lat="58.50133694708347" lon="12.931438945233822">
        <ele>46.63</ele>
        <time>2025-02-08T13:28:22.489Z</time>
      </trkpt>
      <trkpt lat="58.501383969560266" lon="12.931558974087238">
        <ele>46.66</ele>
        <time>2025-02-08T13:28:57.237Z</time>
      </trkpt>
      <trkpt lat="58.50143099203706" lon="12.931676991283894">
        <ele>46.68</ele>
        <time>2025-02-08T13:29:31.987Z</time>
      </trkpt>
      <trkpt lat="58.50147692486644" lon="12.931794924661517">
        <ele>46.71</ele>
        <time>2025-02-08T13:30:06.738Z</time>
      </trkpt>
      <trkpt lat="58.50152394734323" lon="12.931910930201411">
        <ele>46.74</ele>
        <time>2025-02-08T13:30:41.490Z</time>
      </trkpt>
      <trkpt lat="58.50156996399164" lon="12.932026935741305">
        <ele>46.77</ele>
        <time>2025-02-08T13:31:16.243Z</time>
      </trkpt>
      <trkpt lat="58.501616986468434" lon="12.9321429412812">
        <ele>46.8</ele>
        <time>2025-02-08T13:31:50.998Z</time>
      </trkpt>
      <trkpt lat="58.501662919297814" lon="12.932259952649474">
        <ele>46.84</ele>
        <time>2025-02-08T13:32:25.754Z</time>
      </trkpt>
      <trkpt lat="58.501708935946226" lon="12.93237796984613">
        <ele>46.88</ele>
        <time>2025-02-08T13:33:00.511Z</time>
      </trkpt>
      <trkpt lat="58.50175294093788" lon="12.932498920708895">
        <ele>46.92</ele>
        <time>2025-02-08T13:33:35.269Z</time>
      </trkpt>
      <trkpt lat="58.50179795175791" lon="12.93261794373393">
        <ele>46.97</ele>
        <time>2025-02-08T13:34:10.029Z</time>
      </trkpt>
      <trkpt lat="58.5018449742347" lon="12.932735960930586">
        <ele>47.01</ele>
        <time>2025-02-08T13:34:44.790Z</time>
      </trkpt>
      <trkpt lat="58.50189099088311" lon="12.93285297229886">
        <ele>47.06</ele>
        <time>2025-02-08T13:35:19.552Z</time>
      </trkpt>
      <trkpt lat="58.50193792954087" lon="12.932969983667135">
        <ele>47.12</ele>
        <time>2025-02-08T13:35:54.315Z</time>
      </trkpt>
      <trkpt lat="58.501982940360904" lon="12.93308892287314">
        <ele>47.17</ele>
        <time>2025-02-08T13:36:29.080Z</time>
      </trkpt>
      <trkpt lat="58.502029962837696" lon="12.933206940069795">
        <ele>47.22</ele>
        <time>2025-02-08T13:37:03.846Z</time>
      </trkpt>
      <trkpt lat="58.50207698531449" lon="12.93332596309483">
        <ele>47.28</ele>
        <time>2025-02-08T13:37:38.613Z</time>
      </trkpt>
      <trkpt lat="58.50212392397225" lon="12.933444986119866">
        <ele>47.34</ele>
        <time>2025-02-08T13:38:13.381Z</time>
      </trkpt>
      <trkpt lat="58.50217094644904" lon="12.93356392532587">
        <ele>47.4</ele>
        <time>2025-02-08T13:38:48.151Z</time>
      </trkpt>
      <trkpt lat="58.50221696309745" lon="12.933681942522526">
        <ele>47.46</ele>
        <time>2025-02-08T13:39:22.922Z</time>
      </trkpt>
      <trkpt lat="58.502262979745865" lon="12.933800965547562">
        <ele>47.53</ele>
        <time>2025-02-08T13:39:57.694Z</time>
      </trkpt>
      <trkpt lat="58.50230899639428" lon="12.933919988572598">
        <ele>47.6</ele>
        <time>2025-02-08T13:40:32.467Z</time>
      </trkpt>
      <trkpt lat="58.50235492922366" lon="12.934038927778602">
        <ele>47.68</ele>
        <time>2025-02-08T13:41:07.241Z</time>
      </trkpt>
      <trkpt lat="58.50240094587207" lon="12.934158956632018">
        <ele>47.75</ele>
        <time>2025-02-08T13:41:42.017Z</time>
      </trkpt>
      <trkpt lat="58.50244796834886" lon="12.934275968000293">
        <ele>47.83</ele>
        <time>2025-02-08T13:42:16.794Z</time>
      </trkpt>
      <trkpt lat="58.50249499082565" lon="12.934392979368567">
        <ele>47.91</ele>
        <time>2025-02-08T13:42:51.572Z</time>
      </trkpt>
      <trkpt lat="58.502541929483414" lon="12.934512924402952">
        <ele>47.99</ele>
        <time>2025-02-08T13:43:26.351Z</time>
      </trkpt>
      <trkpt lat="58.502588951960206" lon="12.93463496491313">
        <ele>48.08</ele>
        <time>2025-02-08T13:44:01.132Z</time>
      </trkpt>
      <trkpt lat="58.50263496860862" lon="12.934755999594927">
        <ele>48.17</ele>
        <time>2025-02-08T13:44:35.914Z</time>
      </trkpt>
      <trkpt lat="58.50268098525703" lon="12.934877956286073">
        <ele>48.26</ele>
        <time>2025-02-08T13:45:10.697Z</time>
      </trkpt>
      <trkpt lat="58.50272691808641" lon="12.93499999679625">
        <ele>48.35</ele>
        <time>2025-02-08T13:45:45.482Z</time>
      </trkpt>
      <trkpt lat="58.5027739405632" lon="12.935121953487396">
        <ele>48.45</ele>
        <time>2025-02-08T13:46:20.268Z</time>
      </trkpt>
      <trkpt lat="58.502819957211614" lon="12.935244999825954">
        <ele>48.54</ele>
        <time>2025-02-08T13:46:55.055Z</time>
      </trkpt>
      <trkpt lat="58.502863962203264" lon="12.935369974002242">
        <ele>48.64</ele>
        <time>2025-02-08T13:47:29.843Z</time>
      </trkpt>
      <trkpt lat="58.502905955538154" lon="12.935499977320433">
        <ele>48.74</ele>
        <time>2025-02-08T13:48:04.633Z</time>
      </trkpt>
      <trkpt lat="58.50294794887304" lon="12.935632998123765">
        <ele>48.84</ele>
        <time>2025-02-08T13:48:39.424Z</time>
      </trkpt>
      <trkpt lat="58.50298994220793" lon="12.935768952593207">
        <ele>48.94</ele>
        <time>2025-02-08T13:49:14.216Z</time>
      </trkpt>
      <trkpt lat="58.50302992388606" lon="12.935906918719411">
        <ele>49.05</ele>
        <time>2025-02-08T13:49:49.010Z</time>
      </trkpt>
      <trkpt lat="58.50306998938322" lon="12.936046980321407">
        <ele>49.16</ele>
        <time>2025-02-08T13:50:23.805Z</time>
      </trkpt>
      <trkpt lat="58.50310997106135" lon="12.936187963932753">
        <ele>49.28</ele>
        <time>2025-02-08T13:50:58.601Z</time>
      </trkpt>
      <trkpt lat="58.503146935254335" lon="12.936330959200859">
        <ele>49.39</ele>
        <time>2025-02-08T13:51:33.399Z</time>
      </trkpt>
      <trkpt lat="58.50318297743797" lon="12.936474960297346">
        <ele>49.5</ele>
        <time>2025-02-08T13:52:08.198Z</time>
      </trkpt>
      <trkpt lat="58.5032179299742" lon="12.936620973050594">
        <ele>49.62</ele>
        <time>2025-02-08T13:52:42.998Z</time>
      </trkpt>
      <trkpt lat="58.503250954672694" lon="12.936767991632223">
        <ele>49.74</ele>
        <time>2025-02-08T13:53:17.800Z</time>
      </trkpt>
      <trkpt lat="58.50328096188605" lon="12.936916938051581">
        <ele>49.87</ele>
        <time>2025-02-08T13:53:52.603Z</time>
      </trkpt>
      <trkpt lat="58.50330895744264" lon="12.937068985775113">
        <ele>50.0</ele>
        <time>2025-02-08T13:54:27.407Z</time>
      </trkpt>
      <trkpt lat="58.503336952999234" lon="12.937220949679613">
        <ele>50.13</ele>
        <time>2025-02-08T13:55:02.213Z</time>
      </trkpt>
      <trkpt lat="58.503362936899066" lon="12.937373919412494">
        <ele>50.26</ele>
        <time>2025-02-08T13:55:37.020Z</time>
      </trkpt>
      <trkpt lat="58.50338699296117" lon="12.937526972964406">
        <ele>50.38</ele>
        <time>2025-02-08T13:56:11.828Z</time>
      </trkpt>
      <trkpt lat="58.50340995937586" lon="12.937679942697287">
        <ele>50.52</ele>
        <time>2025-02-08T13:56:46.638Z</time>
      </trkpt>
      <trkpt lat="58.50343099795282" lon="12.937832996249199">
        <ele>50.66</ele>
        <time>2025-02-08T13:57:21.449Z</time>
      </trkpt>
      <trkpt lat="58.50344994105399" lon="12.937983954325318">
        <ele>50.8</ele>
        <time>2025-02-08T13:57:56.261Z</time>
      </trkpt>
      <trkpt lat="58.503467962145805" lon="12.93813499622047">
        <ele>50.95</ele>
        <time>2025-02-08T13:58:31.075Z</time>
      </trkpt>
      <trkpt lat="58.50348397158086" lon="12.938284948468208">
        <ele>51.09</ele>
        <time>2025-02-08T13:59:05.890Z</time>
      </trkpt>
      <trkpt lat="58.5035009868443" lon="12.938434984534979">
        <ele>51.24</ele>
        <time>2025-02-08T13:59:40.706Z</time>
      </trkpt>
      <trkpt lat="58.5035149846226" lon="12.938583930954337">
        <ele>51.39</ele>
        <time>2025-02-08T14:00:15.523Z</time>
      </trkpt>
      <trkpt lat="58.503527976572514" lon="12.938732961192727">
        <ele>51.54</ele>
        <time>2025-02-08T14:00:50.342Z</time>
      </trkpt>
      <trkpt lat="58.50353895686567" lon="12.938881991431117">
        <ele>51.7</ele>
        <time>2025-02-08T14:01:25.162Z</time>
      </trkpt>
      <trkpt lat="58.50354893133044" lon="12.939033955335617">
        <ele>51.85</ele>
        <time>2025-02-08T14:01:59.983Z</time>
      </trkpt>
      <trkpt lat="58.50355898961425" lon="12.939185919240117">
        <ele>52.01</ele>
        <time>2025-02-08T14:02:34.806Z</time>
      </trkpt>
      <trkpt lat="58.50356695242226" lon="12.939337966963649">
        <ele>52.17</ele>
        <time>2025-02-08T14:03:09.630Z</time>
      </trkpt>
      <trkpt lat="58.503572987392545" lon="12.93949093669653">
        <ele>52.33</ele>
        <time>2025-02-08T14:03:44.455Z</time>
      </trkpt>
      <trkpt lat="58.503577932715416" lon="12.939643990248442">
        <ele>52.5</ele>
        <time>2025-02-08T14:04:19.281Z</time>
      </trkpt>
      <trkpt lat="58.50357994437218" lon="12.939794948324561">
        <ele>52.67</ele>
        <time>2025-02-08T14:04:54.109Z</time>
      </trkpt>
      <trkpt lat="58.50358296185732" lon="12.939946996048093">
        <ele>52.85</ele>
        <time>2025-02-08T14:05:28.938Z</time>
      </trkpt>
      <trkpt lat="58.50358296185732" lon="12.940096948295832">
        <ele>53.02</ele>
        <time>2025-02-08T14:06:03.768Z</time>
      </trkpt>
      <trkpt lat="58.50358296185732" lon="12.940247990190983">
        <ele>53.2</ele>
        <time>2025-02-08T14:06:38.599Z</time>
      </trkpt>
      <trkpt lat="58.50358095020056" lon="12.940397942438722">
        <ele>53.38</ele>
        <time>2025-02-08T14:07:13.432Z</time>
      </trkpt>
      <trkpt lat="58.503576926887035" lon="12.940547978505492">
        <ele>53.55</ele>
        <time>2025-02-08T14:07:48.266Z</time>
      </trkpt>
      <trkpt lat="58.503570975735784" lon="12.94069591909647">
        <ele>53.73</ele>
        <time>2025-02-08T14:08:23.101Z</time>
      </trkpt>
      <trkpt lat="58.50356393493712" lon="12.94084394350648">
        <ele>53.9</ele>
        <time>2025-02-08T14:08:57.938Z</time>
      </trkpt>
      <trkpt lat="58.50355597212911" lon="12.94099297374487">
        <ele>54.08</ele>
        <time>2025-02-08T14:09:32.776Z</time>
      </trkpt>
      <trkpt lat="58.50354792550206" lon="12.941139992326498">
        <ele>54.26</ele>
        <time>2025-02-08T14:10:07.615Z</time>
      </trkpt>
      <trkpt lat="58.50353694520891" lon="12.941286927089095">
        <ele>54.44</ele>
        <time>2025-02-08T14:10:42.455Z</time>
      </trkpt>
      <trkpt lat="58.50352495908737" lon="12.941434951499104">
        <ele>54.62</ele>
        <time>2025-02-08T14:11:17.297Z</time>
      </trkpt>
      <trkpt lat="58.50351297296584" lon="12.941582975909114">
        <ele>54.8</ele>
        <time>2025-02-08T14:11:52.140Z</time>
      </trkpt>
      <trkpt lat="58.50349998101592" lon="12.941730916500092">
        <ele>54.99</ele>
        <time>2025-02-08T14:12:26.984Z</time>
      </trkpt>
      <trkpt lat="58.503486989066005" lon="12.941879946738482">
        <ele>55.17</ele>
        <time>2025-02-08T14:13:01.829Z</time>
      </trkpt>
      <trkpt lat="58.50347399711609" lon="12.942028976976871">
        <ele>55.36</ele>
        <time>2025-02-08T14:13:36.676Z</time>
      </trkpt>
      <trkpt lat="58.50345999933779" lon="12.94217792339623">
        <ele>55.54</ele>
        <time>2025-02-08T14:14:11.524Z</time>
      </trkpt>
      <trkpt lat="58.503446923568845" lon="12.94232695363462">
        <ele>55.73</ele>
        <time>2025-02-08T14:14:46.373Z</time>
      </trkpt>
      <trkpt lat="58.50343393161893" lon="12.94247598387301">
        <ele>55.93</ele>
        <time>2025-02-08T14:15:21.223Z</time>
      </trkpt>
      <trkpt lat="58.503421945497394" lon="12.942622918635607">
        <ele>56.12</ele>
        <time>2025-02-08T14:15:56.075Z</time>
      </trkpt>
      <trkpt lat="58.50340895354748" lon="12.942768931388855">
        <ele>56.31</ele>
        <time>2025-02-08T14:16:30.928Z</time>
      </trkpt>
      <trkpt lat="58.50339596159756" lon="12.942913938313723">
        <ele>56.51</ele>
        <time>2025-02-08T14:17:05.782Z</time>
      </trkpt>
      <trkpt lat="58.50338498130441" lon="12.94305894523859">
        <ele>56.71</ele>
        <time>2025-02-08T14:17:40.637Z</time>
      </trkpt>
      <trkpt lat="58.50337299518287" lon="12.943202946335077">
        <ele>56.91</ele>
        <time>2025-02-08T14:18:15.494Z</time>
      </trkpt>
      <trkpt lat="58.503360925242305" lon="12.943346947431564">
        <ele>57.11</ele>
        <time>2025-02-08T14:18:50.352Z</time>
      </trkpt>
      <trkpt lat="58.50334793329239" lon="12.943491954356432">
        <ele>57.31</ele>
        <time>2025-02-08T14:19:25.211Z</time>
      </trkpt>
      <trkpt lat="58.503335947170854" lon="12.94363897293806">
        <ele>57.51</ele>
        <time>2025-02-08T14:20:00.071Z</time>
      </trkpt>
      <trkpt lat="58.50332396104932" lon="12.943787919357419">
        <ele>57.71</ele>
        <time>2025-02-08T14:20:34.933Z</time>
      </trkpt>
      <trkpt lat="58.50331197492778" lon="12.94393795542419">
        <ele>57.92</ele>
        <time>2025-02-08T14:21:09.796Z</time>
      </trkpt>
      <trkpt lat="58.50329898297787" lon="12.94408991932869">
        <ele>58.12</ele>
        <time>2025-02-08T14:21:44.660Z</time>
      </trkpt>
      <trkpt lat="58.50328599102795" lon="12.944241967052221">
        <ele>58.32</ele>
        <time>2025-02-08T14:22:19.525Z</time>
      </trkpt>
      <trkpt lat="58.503272999078035" lon="12.944393930956721">
        <ele>58.52</ele>
        <time>2025-02-08T14:22:54.392Z</time>
      </trkpt>
      <trkpt lat="58.50325891748071" lon="12.944544972851872">
        <ele>58.72</ele>
        <time>2025-02-08T14:23:29.260Z</time>
      </trkpt>
      <trkpt lat="58.50324693135917" lon="12.944695930927992">
        <ele>58.93</ele>
        <time>2025-02-08T14:24:04.129Z</time>
      </trkpt>
      <trkpt lat="58.50323494523764" lon="12.944844961166382">
        <ele>59.13</ele>
        <time>2025-02-08T14:24:39.000Z</time>
      </trkpt>
      <trkpt lat="58.5032229591161" lon="12.944992985576391">
        <ele>59.34</ele>
        <time>2025-02-08T14:25:13.872Z</time>
      </trkpt>
      <trkpt lat="58.503209967166185" lon="12.945139920338988">
        <ele>59.54</ele>
        <time>2025-02-08T14:25:48.745Z</time>
      </trkpt>
      <trkpt lat="58.50319798104465" lon="12.945284927263856">
        <ele>59.74</ele>
        <time>2025-02-08T14:26:23.619Z</time>
      </trkpt>
      <trkpt lat="58.503184989094734" lon="12.945426916703582">
        <ele>59.94</ele>
        <time>2025-02-08T14:26:58.494Z</time>
      </trkpt>
      <trkpt lat="58.50317291915417" lon="12.945567984133959">
        <ele>60.14</ele>
        <time>2025-02-08T14:27:33.371Z</time>
      </trkpt>
      <trkpt lat="58.50315992720425" lon="12.945706956088543">
        <ele>60.35</ele>
        <time>2025-02-08T14:28:08.249Z</time>
      </trkpt>
      <trkpt lat="58.5031489469111" lon="12.945843916386366">
        <ele>60.55</ele>
        <time>2025-02-08T14:28:43.128Z</time>
      </trkpt>
      <trkpt lat="58.50313796661794" lon="12.945977943018079">
        <ele>60.76</ele>
        <time>2025-02-08T14:29:18.008Z</time>
      </trkpt>
      <trkpt lat="58.50312598049641" lon="12.94610895216465">
        <ele>60.96</ele>
        <time>2025-02-08T14:29:52.889Z</time>
      </trkpt>
      <trkpt lat="58.5031159222126" lon="12.94623694382608">
        <ele>61.17</ele>
        <time>2025-02-08T14:30:27.771Z</time>
      </trkpt>
      <trkpt lat="58.503103936091065" lon="12.946359990164638">
        <ele>61.38</ele>
        <time>2025-02-08T14:31:02.654Z</time>
      </trkpt>
      <trkpt lat="58.50309194996953" lon="12.946480941027403">
        <ele>61.58</ele>
        <time>2025-02-08T14:31:37.538Z</time>
      </trkpt>
      <trkpt lat="58.503080969676375" lon="12.946597952395678">
        <ele>61.78</ele>
        <time>2025-02-08T14:32:12.423Z</time>
      </trkpt>
      <trkpt lat="58.50306998938322" lon="12.946714963763952">
        <ele>61.97</ele>
        <time>2025-02-08T14:32:47.309Z</time>
      </trkpt>
      <trkpt lat="58.503059931099415" lon="12.946830969303846">
        <ele>62.17</ele>
        <time>2025-02-08T14:33:22.196Z</time>
      </trkpt>
      <trkpt lat="58.50304895080626" lon="12.94694596901536">
        <ele>62.36</ele>
        <time>2025-02-08T14:33:57.084Z</time>
      </trkpt>
      <trkpt lat="58.503038976341486" lon="12.947058957070112">
        <ele>62.55</ele>
        <time>2025-02-08T14:34:31.973Z</time>
      </trkpt>
      <trkpt lat="58.50302992388606" lon="12.947169933468103">
        <ele>62.74</ele>
        <time>2025-02-08T14:35:06.863Z</time>
      </trkpt>
      <trkpt lat="58.50301994942129" lon="12.947278982028365">
        <ele>62.92</ele>
        <time>2025-02-08T14:35:41.754Z</time>
      </trkpt>
      <trkpt lat="58.50300997495651" lon="12.947387946769595">
        <ele>63.11</ele>
        <time>2025-02-08T14:36:16.646Z</time>
      </trkpt>
      <trkpt lat="58.50300092250109" lon="12.947499928995967">
        <ele>63.29</ele>
        <time>2025-02-08T14:36:51.539Z</time>
      </trkpt>
      <trkpt lat="58.502991953864694" lon="12.94761492870748">
        <ele>63.47</ele>
        <time>2025-02-08T14:37:26.433Z</time>
      </trkpt>
      <trkpt lat="58.50298197939992" lon="12.947730934247375">
        <ele>63.66</ele>
        <time>2025-02-08T14:38:01.328Z</time>
      </trkpt>
      <trkpt lat="58.502971921116114" lon="12.94784895144403">
        <ele>63.83</ele>
        <time>2025-02-08T14:38:36.224Z</time>
      </trkpt>
      <trkpt lat="58.50296094082296" lon="12.947968980297446">
        <ele>64.01</ele>
        <time>2025-02-08T14:39:11.121Z</time>
      </trkpt>
      <trkpt lat="58.502949960529804" lon="12.948091942816973">
        <ele>64.18</ele>
        <time>2025-02-08T14:39:46.019Z</time>
      </trkpt>
      <trkpt lat="58.50293998606503" lon="12.94821398332715">
        <ele>64.35</ele>
        <time>2025-02-08T14:40:20.918Z</time>
      </trkpt>
      <trkpt lat="58.502928921952844" lon="12.948335940018296">
        <ele>64.51</ele>
        <time>2025-02-08T14:40:55.818Z</time>
      </trkpt>
      <trkpt lat="58.50291794165969" lon="12.948459992185235">
        <ele>64.67</ele>
        <time>2025-02-08T14:41:30.719Z</time>
      </trkpt>
      <trkpt lat="58.50290394388139" lon="12.948585972189903">
        <ele>64.82</ele>
        <time>2025-02-08T14:42:05.621Z</time>
      </trkpt>
      <trkpt lat="58.502889946103096" lon="12.948711952194571">
        <ele>64.97</ele>
        <time>2025-02-08T14:42:40.524Z</time>
      </trkpt>
      <trkpt lat="58.50287896580994" lon="12.94883692637086">
        <ele>65.12</ele>
        <time>2025-02-08T14:43:15.429Z</time>
      </trkpt>
      <trkpt lat="58.502866979688406" lon="12.948962990194559">
        <ele>65.26</ele>
        <time>2025-02-08T14:43:50.335Z</time>
      </trkpt>
      <trkpt lat="58.50285499356687" lon="12.94909299351275">
        <ele>65.4</ele>
        <time>2025-02-08T14:44:25.242Z</time>
      </trkpt>
      <trkpt lat="58.502842923626304" lon="12.94922299683094">
        <ele>65.52</ele>
        <time>2025-02-08T14:45:00.150Z</time>
      </trkpt>
      <trkpt lat="58.50283294916153" lon="12.949356939643621">
        <ele>65.65</ele>
        <time>2025-02-08T14:45:35.059Z</time>
      </trkpt>
      <trkpt lat="58.502821968868375" lon="12.949488954618573">
        <ele>65.77</ele>
        <time>2025-02-08T14:46:09.969Z</time>
      </trkpt>
      <trkpt lat="58.50281098857522" lon="12.949620969593525">
        <ele>65.89</ele>
        <time>2025-02-08T14:46:44.880Z</time>
      </trkpt>
      <trkpt lat="58.502797996625304" lon="12.949759941548109">
        <ele>66.01</ele>
        <time>2025-02-08T14:47:19.792Z</time>
      </trkpt>
      <trkpt lat="58.50278492085636" lon="12.949901930987835">
        <ele>66.12</ele>
        <time>2025-02-08T14:47:54.706Z</time>
      </trkpt>
      <trkpt lat="58.50277494639158" lon="12.950047943741083">
        <ele>66.23</ele>
        <time>2025-02-08T14:48:29.621Z</time>
      </trkpt>
      <trkpt lat="58.50276698358357" lon="12.950198985636234">
        <ele>66.33</ele>
        <time>2025-02-08T14:49:04.537Z</time>
      </trkpt>
      <trkpt lat="58.502758936956525" lon="12.950350949540734">
        <ele>66.42</ele>
        <time>2025-02-08T14:49:39.454Z</time>
      </trkpt>
      <trkpt lat="58.50274594500661" lon="12.950501991435885">
        <ele>66.51</ele>
        <time>2025-02-08T14:50:14.373Z</time>
      </trkpt>
      <trkpt lat="58.502733958885074" lon="12.950652949512005">
        <ele>66.6</ele>
        <time>2025-02-08T14:50:49.293Z</time>
      </trkpt>
      <trkpt lat="58.50272297859192" lon="12.950804997235537">
        <ele>66.69</ele>
        <time>2025-02-08T14:51:24.214Z</time>
      </trkpt>
      <trkpt lat="58.502709986642" lon="12.950957966968417">
        <ele>66.77</ele>
        <time>2025-02-08T14:51:59.137Z</time>
      </trkpt>
      <trkpt lat="58.50269699469209" lon="12.951110936701298">
        <ele>66.85</ele>
        <time>2025-02-08T14:52:34.061Z</time>
      </trkpt>
      <trkpt lat="58.50268391892314" lon="12.95126591809094">
        <ele>66.92</ele>
        <time>2025-02-08T14:53:08.986Z</time>
      </trkpt>
      <trkpt lat="58.502673944458365" lon="12.951422994956374">
        <ele>66.99</ele>
        <time>2025-02-08T14:53:43.912Z</time>
      </trkpt>
      <trkpt lat="58.50266296416521" lon="12.951580993831158">
        <ele>67.06</ele>
        <time>2025-02-08T14:54:18.840Z</time>
      </trkpt>
      <trkpt lat="58.502651983872056" lon="12.951741926372051">
        <ele>67.13</ele>
        <time>2025-02-08T14:54:53.769Z</time>
      </trkpt>
      <trkpt lat="58.50263999775052" lon="12.951902942731977">
        <ele>67.2</ele>
        <time>2025-02-08T14:55:28.700Z</time>
      </trkpt>
      <trkpt lat="58.502627927809954" lon="12.952064964920282">
        <ele>67.28</ele>
        <time>2025-02-08T14:56:03.632Z</time>
      </trkpt>
      <trkpt lat="58.50261594168842" lon="12.952224975451827">
        <ele>67.34</ele>
        <time>2025-02-08T14:56:38.565Z</time>
      </trkpt>
      <trkpt lat="58.50260395556688" lon="12.952383980154991">
        <ele>67.4</ele>
        <time>2025-02-08T14:57:13.500Z</time>
      </trkpt>
      <trkpt lat="58.50259096361697" lon="12.952541979029775">
        <ele>67.47</ele>
        <time>2025-02-08T14:57:48.436Z</time>
      </trkpt>
      <trkpt lat="58.50257696583867" lon="12.952699977904558">
        <ele>67.53</ele>
        <time>2025-02-08T14:58:23.373Z</time>
      </trkpt>
      <trkpt lat="58.502564979717135" lon="12.95285596512258">
        <ele>67.59</ele>
        <time>2025-02-08T14:58:58.312Z</time>
      </trkpt>
      <trkpt lat="58.5025529935956" lon="12.953010946512222">
        <ele>67.64</ele>
        <time>2025-02-08T14:59:33.252Z</time>
      </trkpt>
      <trkpt lat="58.50254092365503" lon="12.953164922073483">
        <ele>67.69</ele>
        <time>2025-02-08T15:00:08.193Z</time>
      </trkpt>
      <trkpt lat="58.5025289375335" lon="12.953318981453776">
        <ele>67.74</ele>
        <time>2025-02-08T15:00:43.136Z</time>
      </trkpt>
      <trkpt lat="58.50251594558358" lon="12.953472957015038">
        <ele>67.77</ele>
        <time>2025-02-08T15:01:18.080Z</time>
      </trkpt>
      <trkpt lat="58.502502953633666" lon="12.953626932576299">
        <ele>67.8</ele>
        <time>2025-02-08T15:01:53.025Z</time>
      </trkpt>
      <trkpt lat="58.50249096751213" lon="12.953780991956592">
        <ele>67.83</ele>
        <time>2025-02-08T15:02:27.971Z</time>
      </trkpt>
      <trkpt lat="58.502477975562215" lon="12.953934967517853">
        <ele>67.86</ele>
        <time>2025-02-08T15:03:02.919Z</time>
      </trkpt>
      <trkpt lat="58.50246791727841" lon="12.954086931422353">
        <ele>67.88</ele>
        <time>2025-02-08T15:03:37.868Z</time>
      </trkpt>
      <trkpt lat="58.50245391950011" lon="12.954239984974265">
        <ele>67.9</ele>
        <time>2025-02-08T15:04:12.818Z</time>
      </trkpt>
      <trkpt lat="58.5024409275502" lon="12.954393960535526">
        <ele>67.92</ele>
        <time>2025-02-08T15:04:47.770Z</time>
      </trkpt>
      <trkpt lat="58.5024269297719" lon="12.954547936096787">
        <ele>67.92</ele>
        <time>2025-02-08T15:05:22.723Z</time>
      </trkpt>
      <trkpt lat="58.502415949478745" lon="12.9547009896487">
        <ele>67.93</ele>
        <time>2025-02-08T15:05:57.677Z</time>
      </trkpt>
      <trkpt lat="58.50240195170045" lon="12.954854965209961">
        <ele>67.93</ele>
        <time>2025-02-08T15:06:32.633Z</time>
      </trkpt>
      <trkpt lat="58.502393988892436" lon="12.955010952427983">
        <ele>67.94</ele>
        <time>2025-02-08T15:07:07.590Z</time>
      </trkpt>
      <trkpt lat="58.50238393060863" lon="12.955166939646006">
        <ele>67.93</ele>
        <time>2025-02-08T15:07:42.548Z</time>
      </trkpt>
      <trkpt lat="58.50237496197224" lon="12.955322926864028">
        <ele>67.93</ele>
        <time>2025-02-08T15:08:17.508Z</time>
      </trkpt>
      <trkpt lat="58.502366999164224" lon="12.955477992072701">
        <ele>67.93</ele>
        <time>2025-02-08T15:08:52.469Z</time>
      </trkpt>
      <trkpt lat="58.5023579467088" lon="12.955629955977201">
        <ele>67.92</ele>
        <time>2025-02-08T15:09:27.431Z</time>
      </trkpt>
      <trkpt lat="58.50235199555755" lon="12.955782925710082">
        <ele>67.92</ele>
        <time>2025-02-08T15:10:02.394Z</time>
      </trkpt>
      <trkpt lat="58.50234596058726" lon="12.955934973433614">
        <ele>67.91</ele>
        <time>2025-02-08T15:10:37.359Z</time>
      </trkpt>
      <trkpt lat="58.50233992561698" lon="12.956087943166494">
        <ele>67.9</ele>
        <time>2025-02-08T15:11:12.325Z</time>
      </trkpt>
      <trkpt lat="58.50233598612249" lon="12.956240996718407">
        <ele>67.9</ele>
        <time>2025-02-08T15:11:47.292Z</time>
      </trkpt>
      <trkpt lat="58.50233196280897" lon="12.956392960622907">
        <ele>67.88</ele>
        <time>2025-02-08T15:12:22.261Z</time>
      </trkpt>
      <trkpt lat="58.502328945323825" lon="12.956544924527407">
        <ele>67.87</ele>
        <time>2025-02-08T15:12:57.231Z</time>
      </trkpt>
      <trkpt lat="58.50232592783868" lon="12.956695966422558">
        <ele>67.86</ele>
        <time>2025-02-08T15:13:32.202Z</time>
      </trkpt>
      <trkpt lat="58.50232391618192" lon="12.956847930327058">
        <ele>67.84</ele>
        <time>2025-02-08T15:14:07.174Z</time>
      </trkpt>
      <trkpt lat="58.50232198834419" lon="12.95700098387897">
        <ele>67.82</ele>
        <time>2025-02-08T15:14:42.148Z</time>
      </trkpt>
      <trkpt lat="58.50232198834419" lon="12.95715294778347">
        <ele>67.81</ele>
        <time>2025-02-08T15:15:17.123Z</time>
      </trkpt>
      <trkpt lat="58.50232198834419" lon="12.957304995507002">
        <ele>67.78</ele>
        <time>2025-02-08T15:15:52.099Z</time>
      </trkpt>
      <trkpt lat="58.50232198834419" lon="12.95745494775474">
        <ele>67.76</ele>
        <time>2025-02-08T15:16:27.077Z</time>
      </trkpt>
      <trkpt lat="58.50232299417257" lon="12.957605989649892">
        <ele>67.74</ele>
        <time>2025-02-08T15:17:02.056Z</time>
      </trkpt>
      <trkpt lat="58.50232592783868" lon="12.95775493606925">
        <ele>67.71</ele>
        <time>2025-02-08T15:17:37.036Z</time>
      </trkpt>
      <trkpt lat="58.502328945323825" lon="12.95790296047926">
        <ele>67.68</ele>
        <time>2025-02-08T15:18:12.017Z</time>
      </trkpt>
      <trkpt lat="58.502330956980586" lon="12.95805199071765">
        <ele>67.65</ele>
        <time>2025-02-08T15:18:47.000Z</time>
      </trkpt>
      <trkpt lat="58.50233397446573" lon="12.958199931308627">
        <ele>67.61</ele>
        <time>2025-02-08T15:19:21.984Z</time>
      </trkpt>
      <trkpt lat="58.50233699195087" lon="12.958348961547017">
        <ele>67.58</ele>
        <time>2025-02-08T15:19:56.969Z</time>
      </trkpt>
      <trkpt lat="58.50234193727374" lon="12.958495980128646">
        <ele>67.54</ele>
        <time>2025-02-08T15:20:31.955Z</time>
      </trkpt>
      <trkpt lat="58.502348978072405" lon="12.958641992881894">
        <ele>67.5</ele>
        <time>2025-02-08T15:21:06.942Z</time>
      </trkpt>
      <trkpt lat="58.50235694088042" lon="12.958786999806762">
        <ele>67.47</ele>
        <time>2025-02-08T15:21:41.931Z</time>
      </trkpt>
      <trkpt lat="58.50236498750746" lon="12.958929995074868">
        <ele>67.43</ele>
        <time>2025-02-08T15:22:16.921Z</time>
      </trkpt>
      <trkpt lat="58.502373956143856" lon="12.959073996171355">
        <ele>67.38</ele>
        <time>2025-02-08T15:22:51.912Z</time>
      </trkpt>
      <trkpt lat="58.50238191895187" lon="12.959217997267842">
        <ele>67.33</ele>
        <time>2025-02-08T15:23:26.904Z</time>
      </trkpt>
      <trkpt lat="58.502389965578914" lon="12.959360992535949">
        <ele>67.29</ele>
        <time>2025-02-08T15:24:01.898Z</time>
      </trkpt>
      <trkpt lat="58.50239994004369" lon="12.959506921470165">
        <ele>67.24</ele>
        <time>2025-02-08T15:24:36.893Z</time>
      </trkpt>
      <trkpt lat="58.502409998327494" lon="12.959652934223413">
        <ele>67.2</ele>
        <time>2025-02-08T15:25:11.889Z</time>
      </trkpt>
      <trkpt lat="58.50241997279227" lon="12.959800958633423">
        <ele>67.15</ele>
        <time>2025-02-08T15:25:46.886Z</time>
      </trkpt>
      <trkpt lat="58.50243095308542" lon="12.959948983043432">
        <ele>67.1</ele>
        <time>2025-02-08T15:26:21.885Z</time>
      </trkpt>
      <trkpt lat="58.50244193337858" lon="12.960098935291171">
        <ele>67.04</ele>
        <time>2025-02-08T15:26:56.885Z</time>
      </trkpt>
      <trkpt lat="58.502452997490764" lon="12.960249977186322">
        <ele>66.99</ele>
        <time>2025-02-08T15:27:31.886Z</time>
      </trkpt>
      <trkpt lat="58.5024649836123" lon="12.960401941090822">
        <ele>66.95</ele>
        <time>2025-02-08T15:28:06.888Z</time>
      </trkpt>
      <trkpt lat="58.502476969733834" lon="12.960555916652083">
        <ele>66.9</ele>
        <time>2025-02-08T15:28:41.892Z</time>
      </trkpt>
      <trkpt lat="58.50248895585537" lon="12.960711987689137">
        <ele>66.85</ele>
        <time>2025-02-08T15:29:16.897Z</time>
      </trkpt>
      <trkpt lat="58.502500941976905" lon="12.960865963250399">
        <ele>66.8</ele>
        <time>2025-02-08T15:29:51.903Z</time>
      </trkpt>
      <trkpt lat="58.50251192227006" lon="12.96101893298328">
        <ele>66.75</ele>
        <time>2025-02-08T15:30:26.911Z</time>
      </trkpt>
      <trkpt lat="58.502522986382246" lon="12.961173998191953">
        <ele>66.7</ele>
        <time>2025-02-08T15:31:01.920Z</time>
      </trkpt>
      <trkpt lat="58.50253597833216" lon="12.961327973753214">
        <ele>66.64</ele>
        <time>2025-02-08T15:31:36.930Z</time>
      </trkpt>
      <trkpt lat="58.50254997611046" lon="12.961481949314475">
        <ele>66.59</ele>
        <time>2025-02-08T15:32:11.942Z</time>
      </trkpt>
      <trkpt lat="58.502562968060374" lon="12.961634919047356">
        <ele>66.53</ele>
        <time>2025-02-08T15:32:46.955Z</time>
      </trkpt>
      <trkpt lat="58.50257495418191" lon="12.961788978427649">
        <ele>66.48</ele>
        <time>2025-02-08T15:33:21.969Z</time>
      </trkpt>
      <trkpt lat="58.502586940303445" lon="12.96194194816053">
        <ele>66.43</ele>
        <time>2025-02-08T15:33:56.984Z</time>
      </trkpt>
      <trkpt lat="58.50259892642498" lon="12.962096929550171">
        <ele>66.37</ele>
        <time>2025-02-08T15:34:32.001Z</time>
      </trkpt>
      <trkpt lat="58.50261099636555" lon="12.962252916768193">
        <ele>66.32</ele>
        <time>2025-02-08T15:35:07.019Z</time>
      </trkpt>
      <trkpt lat="58.50262398831546" lon="12.962409993633628">
        <ele>66.27</ele>
        <time>2025-02-08T15:35:42.038Z</time>
      </trkpt>
      <trkpt lat="58.50263496860862" lon="12.962567992508411">
        <ele>66.21</ele>
        <time>2025-02-08T15:36:17.059Z</time>
      </trkpt>
      <trkpt lat="58.50264594890177" lon="12.962727919220924">
        <ele>66.16</ele>
        <time>2025-02-08T15:36:52.081Z</time>
      </trkpt>
      <trkpt lat="58.50265793502331" lon="12.962884996086359">
        <ele>66.11</ele>
        <time>2025-02-08T15:37:27.104Z</time>
      </trkpt>
      <trkpt lat="58.502668999135494" lon="12.963042994961143">
        <ele>66.05</ele>
        <time>2025-02-08T15:38:02.129Z</time>
      </trkpt>
      <trkpt lat="58.50267997942865" lon="12.963200993835926">
        <ele>66.0</ele>
        <time>2025-02-08T15:38:37.155Z</time>
      </trkpt>
      <trkpt lat="58.502692971378565" lon="12.963356981053948">
        <ele>65.95</ele>
        <time>2025-02-08T15:39:12.182Z</time>
      </trkpt>
      <trkpt lat="58.5027049575001" lon="12.96351296827197">
        <ele>65.9</ele>
        <time>2025-02-08T15:39:47.211Z</time>
      </trkpt>
      <trkpt lat="58.502714931964874" lon="12.963669961318374">
        <ele>65.86</ele>
        <time>2025-02-08T15:40:22.241Z</time>
      </trkpt>
      <trkpt lat="58.50272691808641" lon="12.963827960193157">
        <ele>65.81</ele>
        <time>2025-02-08T15:40:57.272Z</time>
      </trkpt>
      <trkpt lat="58.50273898802698" lon="12.96398595906794">
        <ele>65.77</ele>
        <time>2025-02-08T15:41:32.305Z</time>
      </trkpt>
      <trkpt lat="58.50275197997689" lon="12.964143957942724">
        <ele>65.72</ele>
        <time>2025-02-08T15:42:07.339Z</time>
      </trkpt>
      <trkpt lat="58.50276597775519" lon="12.964299945160747">
        <ele>65.67</ele>
        <time>2025-02-08T15:42:42.374Z</time>
      </trkpt>
      <trkpt lat="58.502779975533485" lon="12.964453920722008">
        <ele>65.63</ele>
        <time>2025-02-08T15:43:17.411Z</time>
      </trkpt>
      <trkpt lat="58.50279196165502" lon="12.964608985930681">
        <ele>65.58</ele>
        <time>2025-02-08T15:43:52.449Z</time>
      </trkpt>
      <trkpt lat="58.502802941948175" lon="12.964762961491942">
        <ele>65.53</ele>
        <time>2025-02-08T15:44:27.488Z</time>
      </trkpt>
      <trkpt lat="58.50281392224133" lon="12.964916937053204">
        <ele>65.48</ele>
        <time>2025-02-08T15:45:02.529Z</time>
      </trkpt>
      <trkpt lat="58.5028259921819" lon="12.965069990605116">
        <ele>65.43</ele>
        <time>2025-02-08T15:45:37.571Z</time>
      </trkpt>
      <trkpt lat="58.50283797830343" lon="12.965221954509616">
        <ele>65.38</ele>
        <time>2025-02-08T15:46:12.614Z</time>
      </trkpt>
      <trkpt lat="58.50284996442497" lon="12.965373918414116">
        <ele>65.33</ele>
        <time>2025-02-08T15:46:47.659Z</time>
      </trkpt>
      <trkpt lat="58.50286094471812" lon="12.965524960309267">
        <ele>65.28</ele>
        <time>2025-02-08T15:47:22.705Z</time>
      </trkpt>
      <trkpt lat="58.50287393666804" lon="12.965673990547657">
        <ele>65.24</ele>
        <time>2025-02-08T15:47:57.752Z</time>
      </trkpt>
      <trkpt lat="58.502885922789574" lon="12.965822936967015">
        <ele>65.19</ele>
        <time>2025-02-08T15:48:32.800Z</time>
      </trkpt>
      <trkpt lat="58.50289698690176" lon="12.965968949720263">
        <ele>65.14</ele>
        <time>2025-02-08T15:49:07.850Z</time>
      </trkpt>
      <trkpt lat="58.502908973023295" lon="12.966114962473512">
        <ele>65.1</ele>
        <time>2025-02-08T15:49:42.901Z</time>
      </trkpt>
      <trkpt lat="58.50291995331645" lon="12.96626198105514">
        <ele>65.05</ele>
        <time>2025-02-08T15:50:17.953Z</time>
      </trkpt>
      <trkpt lat="58.502929927781224" lon="12.96640899963677">
        <ele>65.01</ele>
        <time>2025-02-08T15:50:53.006Z</time>
      </trkpt>
      <trkpt lat="58.50293998606503" lon="12.966554928570986">
        <ele>64.97</ele>
        <time>2025-02-08T15:51:28.061Z</time>
      </trkpt>
      <trkpt lat="58.502950966358185" lon="12.966700941324234">
        <ele>64.94</ele>
        <time>2025-02-08T15:52:03.117Z</time>
      </trkpt>
      <trkpt lat="58.50296194665134" lon="12.966844942420721">
        <ele>64.9</ele>
        <time>2025-02-08T15:52:38.174Z</time>
      </trkpt>
      <trkpt lat="58.502971921116114" lon="12.966989949345589">
        <ele>64.87</ele>
        <time>2025-02-08T15:53:13.232Z</time>
      </trkpt>
      <trkpt lat="58.50298197939992" lon="12.967132944613695">
        <ele>64.83</ele>
        <time>2025-02-08T15:53:48.291Z</time>
      </trkpt>
      <trkpt lat="58.502991953864694" lon="12.967276945710182">
        <ele>64.8</ele>
        <time>2025-02-08T15:54:23.352Z</time>
      </trkpt>
      <trkpt lat="58.50300192832947" lon="12.96742195263505">
        <ele>64.76</ele>
        <time>2025-02-08T15:54:58.414Z</time>
      </trkpt>
      <trkpt lat="58.503011986613274" lon="12.967565953731537">
        <ele>64.72</ele>
        <time>2025-02-08T15:55:33.477Z</time>
      </trkpt>
      <trkpt lat="58.50302196107805" lon="12.967712972313166">
        <ele>64.69</ele>
        <time>2025-02-08T15:56:08.541Z</time>
      </trkpt>
      <trkpt lat="58.50303092971444" lon="12.967858985066414">
        <ele>64.65</ele>
        <time>2025-02-08T15:56:43.607Z</time>
      </trkpt>
      <trkpt lat="58.503038976341486" lon="12.968004997819662">
        <ele>64.61</ele>
        <time>2025-02-08T15:57:18.674Z</time>
      </trkpt>
      <trkpt lat="58.50304794497788" lon="12.96815193258226">
        <ele>64.58</ele>
        <time>2025-02-08T15:57:53.742Z</time>
      </trkpt>
      <trkpt lat="58.503055991604924" lon="12.96830297447741">
        <ele>64.54</ele>
        <time>2025-02-08T15:58:28.811Z</time>
      </trkpt>
      <trkpt lat="58.50306294858456" lon="12.96845493838191">
        <ele>64.5</ele>
        <time>2025-02-08T15:59:03.882Z</time>
      </trkpt>
      <trkpt lat="58.50306797772646" lon="12.968611931428313">
        <ele>64.46</ele>
        <time>2025-02-08T15:59:38.954Z</time>
      </trkpt>
      <trkpt lat="58.5030709952116" lon="12.968771941959858">
        <ele>64.42</ele>
        <time>2025-02-08T16:00:14.027Z</time>
      </trkpt>
      <trkpt lat="58.50307493470609" lon="12.968938993290067">
        <ele>64.38</ele>
        <time>2025-02-08T16:00:49.102Z</time>
      </trkpt>
      <trkpt lat="58.503077952191234" lon="12.969102943316102">
        <ele>64.35</ele>
        <time>2025-02-08T16:01:24.178Z</time>
      </trkpt>
      <trkpt lat="58.503079963847995" lon="12.969266977161169">
        <ele>64.31</ele>
        <time>2025-02-08T16:01:59.255Z</time>
      </trkpt>
      <trkpt lat="58.50308298133314" lon="12.969432938843966">
        <ele>64.28</ele>
        <time>2025-02-08T16:02:34.334Z</time>
      </trkpt>
      <trkpt lat="58.50308398716152" lon="12.969599990174174">
        <ele>64.25</ele>
        <time>2025-02-08T16:03:09.414Z</time>
      </trkpt>
      <trkpt lat="58.5030849929899" lon="12.969768969342113">
        <ele>64.22</ele>
        <time>2025-02-08T16:03:44.496Z</time>
      </trkpt>
      <trkpt lat="58.5030849929899" lon="12.96993694268167">
        <ele>64.2</ele>
        <time>2025-02-08T16:04:19.579Z</time>
      </trkpt>
      <trkpt lat="58.50308398716152" lon="12.97010499984026">
        <ele>64.17</ele>
        <time>2025-02-08T16:04:54.664Z</time>
      </trkpt>
      <trkpt lat="58.50308398716152" lon="12.970272973179817">
        <ele>64.15</ele>
        <time>2025-02-08T16:05:29.750Z</time>
      </trkpt>
      <trkpt lat="58.50308298133314" lon="12.970439940690994">
        <ele>64.13</ele>
        <time>2025-02-08T16:06:04.837Z</time>
      </trkpt>
      <trkpt lat="58.50308298133314" lon="12.970606992021203">
        <ele>64.11</ele>
        <time>2025-02-08T16:06:39.926Z</time>
      </trkpt>
      <trkpt lat="58.50308298133314" lon="12.97077395953238">
        <ele>64.09</ele>
        <time>2025-02-08T16:07:15.016Z</time>
      </trkpt>
      <trkpt lat="58.503080969676375" lon="12.970939921215177">
        <ele>64.08</ele>
        <time>2025-02-08T16:07:50.108Z</time>
      </trkpt>
      <trkpt lat="58.503078958019614" lon="12.971105966717005">
        <ele>64.06</ele>
        <time>2025-02-08T16:08:25.201Z</time>
      </trkpt>
      <trkpt lat="58.50307694636285" lon="12.971272934228182">
        <ele>64.05</ele>
        <time>2025-02-08T16:09:00.295Z</time>
      </trkpt>
      <trkpt lat="58.50307594053447" lon="12.97143998555839">
        <ele>64.04</ele>
        <time>2025-02-08T16:09:35.391Z</time>
      </trkpt>
      <trkpt lat="58.50307392887771" lon="12.971607958897948">
        <ele>64.03</ele>
        <time>2025-02-08T16:10:10.488Z</time>
      </trkpt>
      <trkpt lat="58.50307292304933" lon="12.971776938065886">
        <ele>64.02</ele>
        <time>2025-02-08T16:10:45.587Z</time>
      </trkpt>
      <trkpt lat="58.50307191722095" lon="12.971946923062205">
        <ele>64.01</ele>
        <time>2025-02-08T16:11:20.687Z</time>
      </trkpt>
      <trkpt lat="58.50306998938322" lon="12.972116991877556">
        <ele>64.0</ele>
        <time>2025-02-08T16:11:55.788Z</time>
      </trkpt>
      <trkpt lat="58.50306797772646" lon="12.972286976873875">
        <ele>64.0</ele>
        <time>2025-02-08T16:12:30.891Z</time>
      </trkpt>
      <trkpt lat="58.5030659660697" lon="12.972456961870193">
        <ele>63.99</ele>
        <time>2025-02-08T16:13:05.995Z</time>
      </trkpt>
      <trkpt lat="58.50306496024132" lon="12.97262392938137">
        <ele>63.99</ele>
        <time>2025-02-08T16:13:41.101Z</time>
      </trkpt>
      <trkpt lat="58.503061942756176" lon="12.972789974883199">
        <ele>63.99</ele>
        <time>2025-02-08T16:14:16.208Z</time>
      </trkpt>
      <trkpt lat="58.503058925271034" lon="12.972956942394376">
        <ele>63.99</ele>
        <time>2025-02-08T16:14:51.316Z</time>
      </trkpt>
      <trkpt lat="58.503056997433305" lon="12.973123993724585">
        <ele>63.99</ele>
        <time>2025-02-08T16:15:26.426Z</time>
      </trkpt>
      <trkpt lat="58.503054985776544" lon="12.973291967064142">
        <ele>63.99</ele>
        <time>2025-02-08T16:16:01.537Z</time>
      </trkpt>
      <trkpt lat="58.5030519682914" lon="12.9734599404037">
        <ele>64.0</ele>
        <time>2025-02-08T16:16:36.650Z</time>
      </trkpt>
      <trkpt lat="58.50304995663464" lon="12.973626991733909">
        <ele>64.0</ele>
        <time>2025-02-08T16:17:11.764Z</time>
      </trkpt>
      <trkpt lat="58.50304794497788" lon="12.973792953416705">
        <ele>64.01</ele>
        <time>2025-02-08T16:17:46.879Z</time>
      </trkpt>
      <trkpt lat="58.5030469391495" lon="12.973957993090153">
        <ele>64.02</ele>
        <time>2025-02-08T16:18:21.996Z</time>
      </trkpt>
      <trkpt lat="58.50304492749274" lon="12.974121943116188">
        <ele>64.03</ele>
        <time>2025-02-08T16:18:57.114Z</time>
      </trkpt>
      <trkpt lat="58.50304299965501" lon="12.974286982789636">
        <ele>64.04</ele>
        <time>2025-02-08T16:19:32.234Z</time>
      </trkpt>
      <trkpt lat="58.50303998216987" lon="12.974450932815671">
        <ele>64.05</ele>
        <time>2025-02-08T16:20:07.355Z</time>
      </trkpt>
      <trkpt lat="58.503037970513105" lon="12.974613960832357">
        <ele>64.06</ele>
        <time>2025-02-08T16:20:42.477Z</time>
      </trkpt>
      <trkpt lat="58.503036964684725" lon="12.974775983020663">
        <ele>64.08</ele>
        <time>2025-02-08T16:21:17.601Z</time>
      </trkpt>
      <trkpt lat="58.503034953027964" lon="12.974937921389937">
        <ele>64.09</ele>
        <time>2025-02-08T16:21:52.726Z</time>
      </trkpt>
      <trkpt lat="58.50303394719958" lon="12.975099943578243">
        <ele>64.11</ele>
        <time>2025-02-08T16:22:27.852Z</time>
      </trkpt>
      <trkpt lat="58.50303193554282" lon="12.975260959938169">
        <ele>64.13</ele>
        <time>2025-02-08T16:23:02.980Z</time>
      </trkpt>
      <trkpt lat="58.50302891805768" lon="12.975422982126474">
        <ele>64.15</ele>
        <time>2025-02-08T16:23:38.109Z</time>
      </trkpt>
      <trkpt lat="58.50302699021995" lon="12.975584920495749">
        <ele>64.17</ele>
        <time>2025-02-08T16:24:13.240Z</time>
      </trkpt>
      <trkpt lat="58.50302497856319" lon="12.975745936855674">
        <ele>64.19</ele>
        <time>2025-02-08T16:24:48.372Z</time>
      </trkpt>
      <trkpt lat="58.50302296690643" lon="12.97590795904398">
        <ele>64.22</ele>
        <time>2025-02-08T16:25:23.505Z</time>
      </trkpt>
      <trkpt lat="58.50301994942129" lon="12.976068975403905">
        <ele>64.24</ele>
        <time>2025-02-08T16:25:58.640Z</time>
      </trkpt>
      <trkpt lat="58.503017937764525" lon="12.97623099759221">
        <ele>64.27</ele>
        <time>2025-02-08T16:26:33.776Z</time>
      </trkpt>
      <trkpt lat="58.503015926107764" lon="12.976392935961485">
        <ele>64.3</ele>
        <time>2025-02-08T16:27:08.913Z</time>
      </trkpt>
      <trkpt lat="58.503013998270035" lon="12.976555963978171">
        <ele>64.33</ele>
        <time>2025-02-08T16:27:44.052Z</time>
      </trkpt>
      <trkpt lat="58.503011986613274" lon="12.976718991994858">
        <ele>64.35</ele>
        <time>2025-02-08T16:28:19.192Z</time>
      </trkpt>
      <trkpt lat="58.50300997495651" lon="12.976881936192513">
        <ele>64.39</ele>
        <time>2025-02-08T16:28:54.333Z</time>
      </trkpt>
      <trkpt lat="58.50300695747137" lon="12.97704597003758">
        <ele>64.43</ele>
        <time>2025-02-08T16:29:29.476Z</time>
      </trkpt>
      <trkpt lat="58.50300293415785" lon="12.977208998054266">
        <ele>64.46</ele>
        <time>2025-02-08T16:30:04.620Z</time>
      </trkpt>
      <trkpt lat="58.50300192832947" lon="12.97737093642354">
        <ele>64.49</ele>
        <time>2025-02-08T16:30:39.766Z</time>
      </trkpt>
      <trkpt lat="58.50300092250109" lon="12.977531952783465">
        <ele>64.53</ele>
        <time>2025-02-08T16:31:14.913Z</time>
      </trkpt>
      <trkpt lat="58.50299991667271" lon="12.97769095748663">
        <ele>64.56</ele>
        <time>2025-02-08T16:31:50.061Z</time>
      </trkpt>
      <trkpt lat="58.50299798883498" lon="12.977849962189794">
        <ele>64.6</ele>
        <time>2025-02-08T16:32:25.211Z</time>
      </trkpt>
      <trkpt lat="58.5029969830066" lon="12.978008966892958">
        <ele>64.63</ele>
        <time>2025-02-08T16:33:00.362Z</time>
      </trkpt>
      <trkpt lat="58.502993965521455" lon="12.978166965767741">
        <ele>64.67</ele>
        <time>2025-02-08T16:33:35.514Z</time>
      </trkpt>
      <trkpt lat="58.502992959693074" lon="12.978324964642525">
        <ele>64.71</ele>
        <time>2025-02-08T16:34:10.668Z</time>
      </trkpt>
      <trkpt lat="58.50299094803631" lon="12.978481957688928">
        <ele>64.75</ele>
        <time>2025-02-08T16:34:45.823Z</time>
      </trkpt>
      <trkpt lat="58.50298793055117" lon="12.978639956563711">
        <ele>64.79</ele>
        <time>2025-02-08T16:35:20.979Z</time>
      </trkpt>
      <trkpt lat="58.50298591889441" lon="12.978796949610114">
        <ele>64.83</ele>
        <time>2025-02-08T16:35:56.137Z</time>
      </trkpt>
      <trkpt lat="58.50298399105668" lon="12.978951930999756">
        <ele>64.87</ele>
        <time>2025-02-08T16:36:31.296Z</time>
      </trkpt>
      <trkpt lat="58.50298197939992" lon="12.979107918217778">
        <ele>64.92</ele>
        <time>2025-02-08T16:37:06.456Z</time>
      </trkpt>
      <trkpt lat="58.50298097357154" lon="12.979262983426452">
        <ele>64.96</ele>
        <time>2025-02-08T16:37:41.617Z</time>
      </trkpt>
      <trkpt lat="58.50297996774316" lon="12.979416958987713">
        <ele>65.01</ele>
        <time>2025-02-08T16:38:16.780Z</time>
      </trkpt>
      <trkpt lat="58.50297896191478" lon="12.979568922892213">
        <ele>65.05</ele>
        <time>2025-02-08T16:38:51.944Z</time>
      </trkpt>
      <trkpt lat="58.5029779560864" lon="12.979719964787364">
        <ele>65.09</ele>
        <time>2025-02-08T16:39:27.109Z</time>
      </trkpt>
      <trkpt lat="58.5029779560864" lon="12.979871928691864">
        <ele>65.14</ele>
        <time>2025-02-08T16:40:02.276Z</time>
      </trkpt>
      <trkpt lat="58.50297996774316" lon="12.980022970587015">
        <ele>65.18</ele>
        <time>2025-02-08T16:40:37.444Z</time>
      </trkpt>
      <trkpt lat="58.50298097357154" lon="12.980173928663135">
        <ele>65.22</ele>
        <time>2025-02-08T16:41:12.613Z</time>
      </trkpt>
      <trkpt lat="58.5029829852283" lon="12.980325976386666">
        <ele>65.26</ele>
        <time>2025-02-08T16:41:47.783Z</time>
      </trkpt>
      <trkpt lat="58.50298793055117" lon="12.980477940291166">
        <ele>65.3</ele>
        <time>2025-02-08T16:42:22.955Z</time>
      </trkpt>
      <trkpt lat="58.502991953864694" lon="12.980628982186317">
        <ele>65.35</ele>
        <time>2025-02-08T16:42:58.128Z</time>
      </trkpt>
      <trkpt lat="58.50299899466336" lon="12.980777928605676">
        <ele>65.4</ele>
        <time>2025-02-08T16:43:33.302Z</time>
      </trkpt>
      <trkpt lat="58.50300695747137" lon="12.980926958844066">
        <ele>65.45</ele>
        <time>2025-02-08T16:44:08.477Z</time>
      </trkpt>
      <trkpt lat="58.503016931936145" lon="12.981073977425694">
        <ele>65.49</ele>
        <time>2025-02-08T16:44:43.654Z</time>
      </trkpt>
      <trkpt lat="58.50302799604833" lon="12.981219990178943">
        <ele>65.53</ele>
        <time>2025-02-08T16:45:18.832Z</time>
      </trkpt>
      <trkpt lat="58.503037970513105" lon="12.98136793076992">
        <ele>65.58</ele>
        <time>2025-02-08T16:45:54.011Z</time>
      </trkpt>
      <trkpt lat="58.50304895080626" lon="12.98151595517993">
        <ele>65.62</ele>
        <time>2025-02-08T16:46:29.191Z</time>
      </trkpt>
      <trkpt lat="58.50306294858456" lon="12.98166397958994">
        <ele>65.67</ele>
        <time>2025-02-08T16:47:04.373Z</time>
      </trkpt>
      <trkpt lat="58.503077952191234" lon="12.981810998171568">
        <ele>65.72</ele>
        <time>2025-02-08T16:47:39.556Z</time>
      </trkpt>
      <trkpt lat="58.50309396162629" lon="12.981956927105784">
        <ele>65.76</ele>
        <time>2025-02-08T16:48:14.740Z</time>
      </trkpt>
      <trkpt lat="58.50311097688973" lon="12.982101934030652">
        <ele>65.81</ele>
        <time>2025-02-08T16:48:49.925Z</time>
      </trkpt>
      <trkpt lat="58.50312899798155" lon="12.98224694095552">
        <ele>65.85</ele>
        <time>2025-02-08T16:49:25.112Z</time>
      </trkpt>
      <trkpt lat="58.503146935254335" lon="12.982389936223626">
        <ele>65.89</ele>
        <time>2025-02-08T16:50:00.300Z</time>
      </trkpt>
      <trkpt lat="58.503165962174535" lon="12.982533937320113">
        <ele>65.93</ele>
        <time>2025-02-08T16:50:35.489Z</time>
      </trkpt>
      <trkpt lat="58.503186916932464" lon="12.9826779384166">
        <ele>65.97</ele>
        <time>2025-02-08T16:51:10.679Z</time>
      </trkpt>
      <trkpt lat="58.503208961337805" lon="12.982822945341468">
        <ele>66.0</ele>
        <time>2025-02-08T16:51:45.871Z</time>
      </trkpt>
      <trkpt lat="58.503233939409256" lon="12.982966946437955">
        <ele>66.04</ele>
        <time>2025-02-08T16:52:21.064Z</time>
      </trkpt>
      <trkpt lat="58.50325992330909" lon="12.983110947534442">
        <ele>66.08</ele>
        <time>2025-02-08T16:52:56.258Z</time>
      </trkpt>
      <trkpt lat="58.50328599102795" lon="12.98325595445931">
        <ele>66.12</ele>
        <time>2025-02-08T16:53:31.454Z</time>
      </trkpt>
      <trkpt lat="58.503313986584544" lon="12.983401967212558">
        <ele>66.16</ele>
        <time>2025-02-08T16:54:06.651Z</time>
      </trkpt>
      <trkpt lat="58.5033439937979" lon="12.983547979965806">
        <ele>66.2</ele>
        <time>2025-02-08T16:54:41.849Z</time>
      </trkpt>
      <trkpt lat="58.5033749230206" lon="12.983694998547435">
        <ele>66.24</ele>
        <time>2025-02-08T16:55:17.048Z</time>
      </trkpt>
      <trkpt lat="58.5034079477191" lon="12.983841933310032">
        <ele>66.28</ele>
        <time>2025-02-08T16:55:52.249Z</time>
      </trkpt>
      <trkpt lat="58.503441978245974" lon="12.98398895189166">
        <ele>66.31</ele>
        <time>2025-02-08T16:56:27.451Z</time>
      </trkpt>
      <trkpt lat="58.50347592495382" lon="12.98413697630167">
        <ele>66.35</ele>
        <time>2025-02-08T16:57:02.655Z</time>
      </trkpt>
      <trkpt lat="58.50351297296584" lon="12.984283994883299">
        <ele>66.39</ele>
        <time>2025-02-08T16:57:37.860Z</time>
      </trkpt>
      <trkpt lat="58.50354993715882" lon="12.984428917989135">
        <ele>66.42</ele>
        <time>2025-02-08T16:58:13.066Z</time>
      </trkpt>
      <trkpt lat="58.50358597934246" lon="12.984575936570764">
        <ele>66.46</ele>
        <time>2025-02-08T16:58:48.274Z</time>
      </trkpt>
      <trkpt lat="58.50362294353545" lon="12.984722955152392">
        <ele>66.48</ele>
        <time>2025-02-08T16:59:23.483Z</time>
      </trkpt>
      <trkpt lat="58.503659991547465" lon="12.984873997047544">
        <ele>66.51</ele>
        <time>2025-02-08T16:59:58.693Z</time>
      </trkpt>
      <trkpt lat="58.50369796156883" lon="12.985022943466902">
        <ele>66.54</ele>
        <time>2025-02-08T17:00:33.905Z</time>
      </trkpt>
      <trkpt lat="58.5037359315902" lon="12.985173985362053">
        <ele>66.57</ele>
        <time>2025-02-08T17:01:09.118Z</time>
      </trkpt>
      <trkpt lat="58.50377297960222" lon="12.985326955094934">
        <ele>66.59</ele>
        <time>2025-02-08T17:01:44.333Z</time>
      </trkpt>
      <trkpt lat="58.503810949623585" lon="12.985478918999434">
        <ele>66.62</ele>
        <time>2025-02-08T17:02:19.549Z</time>
      </trkpt>
      <trkpt lat="58.50384891964495" lon="12.985631972551346">
        <ele>66.64</ele>
        <time>2025-02-08T17:02:54.766Z</time>
      </trkpt>
      <trkpt lat="58.50388697348535" lon="12.985785948112607">
        <ele>66.67</ele>
        <time>2025-02-08T17:03:29.985Z</time>
      </trkpt>
      <trkpt lat="58.50392494350672" lon="12.985939923673868">
        <ele>66.7</ele>
        <time>2025-02-08T17:04:05.205Z</time>
      </trkpt>
      <trkpt lat="58.50396299734712" lon="12.98609297722578">
        <ele>66.73</ele>
        <time>2025-02-08T17:04:40.427Z</time>
      </trkpt>
      <trkpt lat="58.504001973196864" lon="12.98624494113028">
        <ele>66.76</ele>
        <time>2025-02-08T17:05:15.650Z</time>
      </trkpt>
      <trkpt lat="58.50403994321823" lon="12.986396988853812">
        <ele>66.78</ele>
        <time>2025-02-08T17:05:50.875Z</time>
      </trkpt>
      <trkpt lat="58.50407799705863" lon="12.986548952758312">
        <ele>66.8</ele>
        <time>2025-02-08T17:06:26.101Z</time>
      </trkpt>
      <trkpt lat="58.50411596708" lon="12.986700916662812">
        <ele>66.82</ele>
        <time>2025-02-08T17:07:01.328Z</time>
      </trkpt>
      <trkpt lat="58.504153937101364" lon="12.986852964386344">
        <ele>66.84</ele>
        <time>2025-02-08T17:07:36.557Z</time>
      </trkpt>
      <trkpt lat="58.50419199094176" lon="12.987004928290844">
        <ele>66.86</ele>
        <time>2025-02-08T17:08:11.787Z</time>
      </trkpt>
      <trkpt lat="58.50422895513475" lon="12.987156976014376">
        <ele>66.88</ele>
        <time>2025-02-08T17:08:47.019Z</time>
      </trkpt>
      <trkpt lat="58.504265919327736" lon="12.987305922433734">
        <ele>66.9</ele>
        <time>2025-02-08T17:09:22.252Z</time>
      </trkpt>
      <trkpt lat="58.504302967339754" lon="12.987455958500504">
        <ele>66.92</ele>
        <time>2025-02-08T17:09:57.486Z</time>
      </trkpt>
      <trkpt lat="58.50433892570436" lon="12.987604988738894">
        <ele>66.93</ele>
        <time>2025-02-08T17:10:32.722Z</time>
      </trkpt>
      <trkpt lat="58.50437597371638" lon="12.987754940986633">
        <ele>66.95</ele>
        <time>2025-02-08T17:11:07.959Z</time>
      </trkpt>
      <trkpt lat="58.50441595539451" lon="12.987903971225023">
        <ele>66.96</ele>
        <time>2025-02-08T17:11:43.198Z</time>
      </trkpt>
      <trkpt lat="58.50445291958749" lon="12.988052917644382">
        <ele>66.98</ele>
        <time>2025-02-08T17:12:18.438Z</time>
      </trkpt>
      <trkpt lat="58.50449097342789" lon="12.988200942054391">
        <ele>67.0</ele>
        <time>2025-02-08T17:12:53.679Z</time>
      </trkpt>
      <trkpt lat="58.50452793762088" lon="12.98834796063602">
        <ele>67.01</ele>
        <time>2025-02-08T17:13:28.922Z</time>
      </trkpt>
      <trkpt lat="58.50456599146128" lon="12.988493973389268">
        <ele>67.02</ele>
        <time>2025-02-08T17:14:04.166Z</time>
      </trkpt>
      <trkpt lat="58.50460194982588" lon="12.988640991970897">
        <ele>67.03</ele>
        <time>2025-02-08T17:14:39.411Z</time>
      </trkpt>
      <trkpt lat="58.50463698618114" lon="12.988787926733494">
        <ele>67.05</ele>
        <time>2025-02-08T17:15:14.658Z</time>
      </trkpt>
      <trkpt lat="58.504672944545746" lon="12.988934945315123">
        <ele>67.06</ele>
        <time>2025-02-08T17:15:49.906Z</time>
      </trkpt>
      <trkpt lat="58.50470898672938" lon="12.98907995223999">
        <ele>67.07</ele>
        <time>2025-02-08T17:16:25.156Z</time>
      </trkpt>
      <trkpt lat="58.50474293343723" lon="12.989225964993238">
        <ele>67.09</ele>
        <time>2025-02-08T17:17:00.407Z</time>
      </trkpt>
      <trkpt lat="58.504775958135724" lon="12.989371977746487">
        <ele>67.1</ele>
        <time>2025-02-08T17:17:35.659Z</time>
      </trkpt>
      <trkpt lat="58.5048099886626" lon="12.989515978842974">
        <ele>67.11</ele>
        <time>2025-02-08T17:18:10.913Z</time>
      </trkpt>
      <trkpt lat="58.504842929542065" lon="12.98965897411108">
        <ele>67.12</ele>
        <time>2025-02-08T17:18:46.168Z</time>
      </trkpt>
      <trkpt lat="58.50487494841218" lon="12.989801969379187">
        <ele>67.12</ele>
        <time>2025-02-08T17:19:21.424Z</time>
      </trkpt>
      <trkpt lat="58.504904955625534" lon="12.989946976304054">
        <ele>67.13</ele>
        <time>2025-02-08T17:19:56.681Z</time>
      </trkpt>
      <trkpt lat="58.50493496283889" lon="12.990091983228922">
        <ele>67.13</ele>
        <time>2025-02-08T17:20:31.940Z</time>
      </trkpt>
      <trkpt lat="58.50496396422386" lon="12.99023699015379">
        <ele>67.14</ele>
        <time>2025-02-08T17:21:07.200Z</time>
      </trkpt>
      <trkpt lat="58.504991959780455" lon="12.990383924916387">
        <ele>67.15</ele>
        <time>2025-02-08T17:21:42.461Z</time>
      </trkpt>
      <trkpt lat="58.50501995533705" lon="12.990529937669635">
        <ele>67.16</ele>
        <time>2025-02-08T17:22:17.724Z</time>
      </trkpt>
      <trkpt lat="58.50504593923688" lon="12.990676956251264">
        <ele>67.16</ele>
        <time>2025-02-08T17:22:52.988Z</time>
      </trkpt>
      <trkpt lat="58.50507292896509" lon="12.990825986489654">
        <ele>67.17</ele>
        <time>2025-02-08T17:23:28.253Z</time>
      </trkpt>
      <trkpt lat="58.505097990855575" lon="12.990975938737392">
        <ele>67.17</ele>
        <time>2025-02-08T17:24:03.520Z</time>
      </trkpt>
      <trkpt lat="58.505123974755406" lon="12.991126980632544">
        <ele>67.17</ele>
        <time>2025-02-08T17:24:38.788Z</time>
      </trkpt>
      <trkpt lat="58.50514794699848" lon="12.991279950365424">
        <ele>67.18</ele>
        <time>2025-02-08T17:25:14.057Z</time>
      </trkpt>
      <trkpt lat="58.50517191924155" lon="12.991431998088956">
        <ele>67.17</ele>
        <time>2025-02-08T17:25:49.328Z</time>
      </trkpt>
      <trkpt lat="58.50519496947527" lon="12.991583961993456">
        <ele>67.17</ele>
        <time>2025-02-08T17:26:24.600Z</time>
      </trkpt>
      <trkpt lat="58.50521693006158" lon="12.991734920069575">
        <ele>67.17</ele>
        <time>2025-02-08T17:26:59.873Z</time>
      </trkpt>
      <trkpt lat="58.50523796863854" lon="12.991884956136346">
        <ele>67.17</ele>
        <time>2025-02-08T17:27:35.148Z</time>
      </trkpt>
      <trkpt lat="58.50525791756809" lon="12.992034992203116">
        <ele>67.17</ele>
        <time>2025-02-08T17:28:10.424Z</time>
      </trkpt>
      <trkpt lat="58.50527694448829" lon="12.992184944450855">
        <ele>67.17</ele>
        <time>2025-02-08T17:28:45.701Z</time>
      </trkpt>
      <trkpt lat="58.505295971408486" lon="12.992335986346006">
        <ele>67.17</ele>
        <time>2025-02-08T17:29:20.979Z</time>
      </trkpt>
      <trkpt lat="58.505312986671925" lon="12.992488956078887">
        <ele>67.17</ele>
        <time>2025-02-08T17:29:56.259Z</time>
      </trkpt>
      <trkpt lat="58.50532991811633" lon="12.992641925811768">
        <ele>67.17</ele>
        <time>2025-02-08T17:30:31.540Z</time>
      </trkpt>
      <trkpt lat="58.50534693337977" lon="12.9927939735353">
        <ele>67.17</ele>
        <time>2025-02-08T17:31:06.822Z</time>
      </trkpt>
      <trkpt lat="58.50536294281483" lon="12.99294794909656">
        <ele>67.17</ele>
        <time>2025-02-08T17:31:42.106Z</time>
      </trkpt>
      <trkpt lat="58.505378952249885" lon="12.993103936314583">
        <ele>67.17</ele>
        <time>2025-02-08T17:32:17.391Z</time>
      </trkpt>
      <trkpt lat="58.50539295002818" lon="12.993260929360986">
        <ele>67.16</ele>
        <time>2025-02-08T17:32:52.677Z</time>
      </trkpt>
      <trkpt lat="58.50540795363486" lon="12.99341892823577">
        <ele>67.16</ele>
        <time>2025-02-08T17:33:27.965Z</time>
      </trkpt>
      <trkpt lat="58.505420945584774" lon="12.993575921282172">
        <ele>67.15</ele>
        <time>2025-02-08T17:34:03.254Z</time>
      </trkpt>
      <trkpt lat="58.50543192587793" lon="12.993731992319226">
        <ele>67.14</ele>
        <time>2025-02-08T17:34:38.544Z</time>
      </trkpt>
      <trkpt lat="58.505442989990115" lon="12.993887979537249">
        <ele>67.13</ele>
        <time>2025-02-08T17:35:13.836Z</time>
      </trkpt>
      <trkpt lat="58.50545296445489" lon="12.994043966755271">
        <ele>67.12</ele>
        <time>2025-02-08T17:35:49.129Z</time>
      </trkpt>
      <trkpt lat="58.50546193309128" lon="12.994198948144913">
        <ele>67.11</ele>
        <time>2025-02-08T17:36:24.423Z</time>
      </trkpt>
      <trkpt lat="58.50547199137509" lon="12.994355941191316">
        <ele>67.1</ele>
        <time>2025-02-08T17:36:59.719Z</time>
      </trkpt>
      <trkpt lat="58.50548196583986" lon="12.994511928409338">
        <ele>67.09</ele>
        <time>2025-02-08T17:37:35.016Z</time>
      </trkpt>
      <trkpt lat="58.50549495778978" lon="12.994667999446392">
        <ele>67.08</ele>
        <time>2025-02-08T17:38:10.314Z</time>
      </trkpt>
      <trkpt lat="58.505508955568075" lon="12.994824992492795">
        <ele>67.06</ele>
        <time>2025-02-08T17:38:45.614Z</time>
      </trkpt>
      <trkpt lat="58.50552194751799" lon="12.994981985539198">
        <ele>67.05</ele>
        <time>2025-02-08T17:39:20.915Z</time>
      </trkpt>
      <trkpt lat="58.505533933639526" lon="12.995139984413981">
        <ele>67.04</ele>
        <time>2025-02-08T17:39:56.217Z</time>
      </trkpt>
      <trkpt lat="58.50554499775171" lon="12.995296977460384">
        <ele>67.02</ele>
        <time>2025-02-08T17:40:31.521Z</time>
      </trkpt>
      <trkpt lat="58.50555597804487" lon="12.995453970506787">
        <ele>67.01</ele>
        <time>2025-02-08T17:41:06.826Z</time>
      </trkpt>
      <trkpt lat="58.5055679641664" lon="12.995608951896429">
        <ele>66.99</ele>
        <time>2025-02-08T17:41:42.132Z</time>
      </trkpt>
      <trkpt lat="58.50557995028794" lon="12.99576393328607">
        <ele>66.97</ele>
        <time>2025-02-08T17:42:17.440Z</time>
      </trkpt>
      <trkpt lat="58.50559193640947" lon="12.995917992666364">
        <ele>66.95</ele>
        <time>2025-02-08T17:42:52.749Z</time>
      </trkpt>
      <trkpt lat="58.50560291670263" lon="12.996072974056005">
        <ele>66.94</ele>
        <time>2025-02-08T17:43:28.059Z</time>
      </trkpt>
      <trkpt lat="58.505612974986434" lon="12.996227955445647">
        <ele>66.92</ele>
        <time>2025-02-08T17:44:03.371Z</time>
      </trkpt>
      <trkpt lat="58.50562395527959" lon="12.996382936835289">
        <ele>66.9</ele>
        <time>2025-02-08T17:44:38.684Z</time>
      </trkpt>
      <trkpt lat="58.505635941401124" lon="12.996535990387201">
        <ele>66.89</ele>
        <time>2025-02-08T17:45:13.998Z</time>
      </trkpt>
      <trkpt lat="58.50564792752266" lon="12.996688960120082">
        <ele>66.87</ele>
        <time>2025-02-08T17:45:49.313Z</time>
      </trkpt>
      <trkpt lat="58.505660919472575" lon="12.996841929852962">
        <ele>66.85</ele>
        <time>2025-02-08T17:46:24.630Z</time>
      </trkpt>
      <trkpt lat="58.50567298941314" lon="12.996992971748114">
        <ele>66.83</ele>
        <time>2025-02-08T17:46:59.948Z</time>
      </trkpt>
      <trkpt lat="58.50568497553468" lon="12.997142923995852">
        <ele>66.81</ele>
        <time>2025-02-08T17:47:35.267Z</time>
      </trkpt>
      <trkpt lat="58.505698973312974" lon="12.997291954234242">
        <ele>66.8</ele>
        <time>2025-02-08T17:48:10.588Z</time>
      </trkpt>
      <trkpt lat="58.50571397691965" lon="12.997441990301013">
        <ele>66.78</ele>
        <time>2025-02-08T17:48:45.910Z</time>
      </trkpt>
      <trkpt lat="58.50573099218309" lon="12.997591942548752">
        <ele>66.76</ele>
        <time>2025-02-08T17:49:21.233Z</time>
      </trkpt>
      <trkpt lat="58.50574993528426" lon="12.997740972787142">
        <ele>66.75</ele>
        <time>2025-02-08T17:49:56.557Z</time>
      </trkpt>
      <trkpt lat="58.50576996803284" lon="12.99789092503488">
        <ele>66.73</ele>
        <time>2025-02-08T17:50:31.883Z</time>
      </trkpt>
      <trkpt lat="58.505790922790766" lon="12.99803995527327">
        <ele>66.71</ele>
        <time>2025-02-08T17:51:07.210Z</time>
      </trkpt>
      <trkpt lat="58.50581397302449" lon="12.998189991340041">
        <ele>66.69</ele>
        <time>2025-02-08T17:51:42.538Z</time>
      </trkpt>
      <trkpt lat="58.50583794526756" lon="12.99833994358778">
        <ele>66.67</ele>
        <time>2025-02-08T17:52:17.868Z</time>
      </trkpt>
      <trkpt lat="58.50586292333901" lon="12.99848997965455">
        <ele>66.65</ele>
        <time>2025-02-08T17:52:53.199Z</time>
      </trkpt>
      <trkpt lat="58.50588899105787" lon="12.99864093773067">
        <ele>66.62</ele>
        <time>2025-02-08T17:53:28.531Z</time>
      </trkpt>
      <trkpt lat="58.50591899827123" lon="12.998791979625821">
        <ele>66.6</ele>
        <time>2025-02-08T17:54:03.865Z</time>
      </trkpt>
      <trkpt lat="58.50594992749393" lon="12.99894293770194">
        <ele>66.57</ele>
        <time>2025-02-08T17:54:39.200Z</time>
      </trkpt>
      <trkpt lat="58.505982952192426" lon="12.999095991253853">
        <ele>66.55</ele>
        <time>2025-02-08T17:55:14.536Z</time>
      </trkpt>
      <trkpt lat="58.50601798854768" lon="12.999248960986733">
        <ele>66.53</ele>
        <time>2025-02-08T17:55:49.874Z</time>
      </trkpt>
      <trkpt lat="58.50605394691229" lon="12.999402936547995">
        <ele>66.5</ele>
        <time>2025-02-08T17:56:25.213Z</time>
      </trkpt>
      <trkpt lat="58.506091916933656" lon="12.999556995928288">
        <ele>66.47</ele>
        <time>2025-02-08T17:57:00.554Z</time>
      </trkpt>
      <trkpt lat="58.506130976602435" lon="12.999710971489549">
        <ele>66.45</ele>
        <time>2025-02-08T17:57:35.896Z</time>
      </trkpt>
      <trkpt lat="58.50617095828056" lon="12.999862935394049">
        <ele>66.42</ele>
        <time>2025-02-08T17:58:11.240Z</time>
      </trkpt>
      <trkpt lat="58.50621295161545" lon="13.0000139772892">
        <ele>66.4</ele>
        <time>2025-02-08T17:58:46.585Z</time>
      </trkpt>
      <trkpt lat="58.50625595077872" lon="13.000163929536939">
        <ele>66.38</ele>
        <time>2025-02-08T17:59:21.931Z</time>
      </trkpt>
      <trkpt lat="58.50629995577037" lon="13.000311953946948">
        <ele>66.35</ele>
        <time>2025-02-08T17:59:57.279Z</time>
      </trkpt>
      <trkpt lat="58.506344966590405" lon="13.000457966700196">
        <ele>66.33</ele>
        <time>2025-02-08T18:00:32.628Z</time>
      </trkpt>
      <trkpt lat="58.506389977410436" lon="13.000604985281825">
        <ele>66.3</ele>
        <time>2025-02-08T18:01:07.979Z</time>
      </trkpt>
      <trkpt lat="58.50643599405885" lon="13.000751920044422">
        <ele>66.28</ele>
        <time>2025-02-08T18:01:43.331Z</time>
      </trkpt>
      <trkpt lat="58.50648092105985" lon="13.00089793279767">
        <ele>66.25</ele>
        <time>2025-02-08T18:02:18.685Z</time>
      </trkpt>
      <trkpt lat="58.50652693770826" lon="13.001042939722538">
        <ele>66.23</ele>
        <time>2025-02-08T18:02:54.040Z</time>
      </trkpt>
      <trkpt lat="58.50657194852829" lon="13.001188952475786">
        <ele>66.2</ele>
        <time>2025-02-08T18:03:29.396Z</time>
      </trkpt>
      <trkpt lat="58.50661595351994" lon="13.001332953572273">
        <ele>66.18</ele>
        <time>2025-02-08T18:04:04.754Z</time>
      </trkpt>
      <trkpt lat="58.50666096433997" lon="13.00147695466876">
        <ele>66.15</ele>
        <time>2025-02-08T18:04:40.113Z</time>
      </trkpt>
      <trkpt lat="58.50670496933162" lon="13.001619949936867">
        <ele>66.13</ele>
        <time>2025-02-08T18:05:15.474Z</time>
      </trkpt>
      <trkpt lat="58.50674998015165" lon="13.001761939376593">
        <ele>66.11</ele>
        <time>2025-02-08T18:05:50.836Z</time>
      </trkpt>
      <trkpt lat="58.506793985143304" lon="13.001904934644699">
        <ele>66.09</ele>
        <time>2025-02-08T18:06:26.199Z</time>
      </trkpt>
      <trkpt lat="58.506836984306574" lon="13.002048935741186">
        <ele>66.07</ele>
        <time>2025-02-08T18:07:01.564Z</time>
      </trkpt>
      <trkpt lat="58.50687897764146" lon="13.002192936837673">
        <ele>66.04</ele>
        <time>2025-02-08T18:07:36.930Z</time>
      </trkpt>
      <trkpt lat="58.50692097097635" lon="13.002334926277399">
        <ele>66.02</ele>
        <time>2025-02-08T18:08:12.298Z</time>
      </trkpt>
      <trkpt lat="58.50696095265448" lon="13.002476999536157">
        <ele>65.99</ele>
        <time>2025-02-08T18:08:47.667Z</time>
      </trkpt>
      <trkpt lat="58.50700093433261" lon="13.002618988975883">
        <ele>65.97</ele>
        <time>2025-02-08T18:09:23.037Z</time>
      </trkpt>
      <trkpt lat="58.50703898817301" lon="13.002761984243989">
        <ele>65.95</ele>
        <time>2025-02-08T18:09:58.409Z</time>
      </trkpt>
      <trkpt lat="58.507076958194375" lon="13.002904979512095">
        <ele>65.91</ele>
        <time>2025-02-08T18:10:33.782Z</time>
      </trkpt>
      <trkpt lat="58.50711492821574" lon="13.003047974780202">
        <ele>65.88</ele>
        <time>2025-02-08T18:11:09.156Z</time>
      </trkpt>
      <trkpt lat="58.50715197622776" lon="13.003191975876689">
        <ele>65.85</ele>
        <time>2025-02-08T18:11:44.532Z</time>
      </trkpt>
      <trkpt lat="58.50718994624913" lon="13.003336982801557">
        <ele>65.83</ele>
        <time>2025-02-08T18:12:19.909Z</time>
      </trkpt>
      <trkpt lat="58.507227916270494" lon="13.003482995554805">
        <ele>65.8</ele>
        <time>2025-02-08T18:12:55.287Z</time>
      </trkpt>
      <trkpt lat="58.507267981767654" lon="13.003631941974163">
        <ele>65.77</ele>
        <time>2025-02-08T18:13:30.667Z</time>
      </trkpt>
      <trkpt lat="58.50730896927416" lon="13.003780972212553">
        <ele>65.74</ele>
        <time>2025-02-08T18:14:06.048Z</time>
      </trkpt>
      <trkpt lat="58.50734995678067" lon="13.003932936117053">
        <ele>65.72</ele>
        <time>2025-02-08T18:14:41.431Z</time>
      </trkpt>
      <trkpt lat="58.50739094428718" lon="13.004086995497346">
        <ele>65.69</ele>
        <time>2025-02-08T18:15:16.815Z</time>
      </trkpt>
      <trkpt lat="58.50743193179369" lon="13.00424499437213">
        <ele>65.66</ele>
        <time>2025-02-08T18:15:52.201Z</time>
      </trkpt>
      <trkpt lat="58.50747392512858" lon="13.004405926913023">
        <ele>65.63</ele>
        <time>2025-02-08T18:16:27.588Z</time>
      </trkpt>
      <trkpt lat="58.50751499645412" lon="13.00456895492971">
        <ele>65.61</ele>
        <time>2025-02-08T18:17:02.977Z</time>
      </trkpt>
      <trkpt lat="58.50755698978901" lon="13.004733994603157">
        <ele>65.58</ele>
        <time>2025-02-08T18:17:38.367Z</time>
      </trkpt>
      <trkpt lat="58.50760099478066" lon="13.004898950457573">
        <ele>65.56</ele>
        <time>2025-02-08T18:18:13.759Z</time>
      </trkpt>
      <trkpt lat="58.50764592178166" lon="13.005064995959401">
        <ele>65.54</ele>
        <time>2025-02-08T18:18:49.152Z</time>
      </trkpt>
      <trkpt lat="58.50768992677331" lon="13.00523397512734">
        <ele>65.52</ele>
        <time>2025-02-08T18:19:24.547Z</time>
      </trkpt>
      <trkpt lat="58.50773393176496" lon="13.005403960123658">
        <ele>65.5</ele>
        <time>2025-02-08T18:19:59.943Z</time>
      </trkpt>
      <trkpt lat="58.50777894258499" lon="13.005575956776738">
        <ele>65.48</ele>
        <time>2025-02-08T18:20:35.341Z</time>
      </trkpt>
      <trkpt lat="58.5078249592334" lon="13.005745941773057">
        <ele>65.46</ele>
        <time>2025-02-08T18:21:10.741Z</time>
      </trkpt>
      <trkpt lat="58.507869970053434" lon="13.005915926769376">
        <ele>65.43</ele>
        <time>2025-02-08T18:21:46.142Z</time>
      </trkpt>
      <trkpt lat="58.50791699253023" lon="13.006087923422456">
        <ele>65.41</ele>
        <time>2025-02-08T18:22:21.545Z</time>
      </trkpt>
      <trkpt lat="58.5079599916935" lon="13.006259920075536">
        <ele>65.39</ele>
        <time>2025-02-08T18:22:56.949Z</time>
      </trkpt>
      <trkpt lat="58.50800399668515" lon="13.006429988890886">
        <ele>65.38</ele>
        <time>2025-02-08T18:23:32.355Z</time>
      </trkpt>
      <trkpt lat="58.508047917857766" lon="13.006595950573683">
        <ele>65.36</ele>
        <time>2025-02-08T18:24:07.763Z</time>
      </trkpt>
      <trkpt lat="58.50808999501169" lon="13.006757972761989">
        <ele>65.34</ele>
        <time>2025-02-08T18:24:43.172Z</time>
      </trkpt>
      <trkpt lat="58.508130982518196" lon="13.006914965808392">
        <ele>65.32</ele>
        <time>2025-02-08T18:25:18.583Z</time>
      </trkpt>
      <trkpt lat="58.508169958367944" lon="13.007067935541272">
        <ele>65.31</ele>
        <time>2025-02-08T18:25:53.995Z</time>
      </trkpt>
      <trkpt lat="58.50820893421769" lon="13.007217971608043">
        <ele>65.29</ele>
        <time>2025-02-08T18:26:29.408Z</time>
      </trkpt>
      <trkpt lat="58.50824698805809" lon="13.00736297853291">
        <ele>65.28</ele>
        <time>2025-02-08T18:27:04.823Z</time>
      </trkpt>
      <trkpt lat="58.50828395225108" lon="13.007503962144256">
        <ele>65.26</ele>
        <time>2025-02-08T18:27:40.239Z</time>
      </trkpt>
      <trkpt lat="58.508319994434714" lon="13.00764393992722">
        <ele>65.25</ele>
        <time>2025-02-08T18:28:15.656Z</time>
      </trkpt>
      <trkpt lat="58.50835595279932" lon="13.007779978215694">
        <ele>65.24</ele>
        <time>2025-02-08T18:28:51.075Z</time>
      </trkpt>
      <trkpt lat="58.5083899833262" lon="13.007915932685137">
        <ele>65.23</ele>
        <time>2025-02-08T18:29:26.495Z</time>
      </trkpt>
      <trkpt lat="58.50842493586242" lon="13.00805197097361">
        <ele>65.21</ele>
        <time>2025-02-08T18:30:01.916Z</time>
      </trkpt>
      <trkpt lat="58.50845997221768" lon="13.008186919614673">
        <ele>65.19</ele>
        <time>2025-02-08T18:30:37.339Z</time>
      </trkpt>
      <trkpt lat="58.508495930582285" lon="13.008321952074766">
        <ele>65.18</ele>
        <time>2025-02-08T18:31:12.763Z</time>
      </trkpt>
      <trkpt lat="58.50853197276592" lon="13.00845698453486">
        <ele>65.16</ele>
        <time>2025-02-08T18:31:48.188Z</time>
      </trkpt>
      <trkpt lat="58.50856692530215" lon="13.008591933175921">
        <ele>65.15</ele>
        <time>2025-02-08T18:32:23.614Z</time>
      </trkpt>
      <trkpt lat="58.508603973314166" lon="13.008726965636015">
        <ele>65.13</ele>
        <time>2025-02-08T18:32:59.042Z</time>
      </trkpt>
      <trkpt lat="58.50863993167877" lon="13.008860992267728">
        <ele>65.12</ele>
        <time>2025-02-08T18:33:34.471Z</time>
      </trkpt>
      <trkpt lat="58.50867597386241" lon="13.00899594090879">
        <ele>65.1</ele>
        <time>2025-02-08T18:34:09.901Z</time>
      </trkpt>
      <trkpt lat="58.508711932227015" lon="13.009132985025644">
        <ele>65.09</ele>
        <time>2025-02-08T18:34:45.332Z</time>
      </trkpt>
      <trkpt lat="58.508748980239034" lon="13.009270951151848">
        <ele>65.08</ele>
        <time>2025-02-08T18:35:20.765Z</time>
      </trkpt>
      <trkpt lat="58.50878493860364" lon="13.009407995268703">
        <ele>65.07</ele>
        <time>2025-02-08T18:35:56.199Z</time>
      </trkpt>
      <trkpt lat="58.50882098078728" lon="13.009545961394906">
        <ele>65.05</ele>
        <time>2025-02-08T18:36:31.634Z</time>
      </trkpt>
      <trkpt lat="58.50885693915188" lon="13.00968493334949">
        <ele>65.04</ele>
        <time>2025-02-08T18:37:07.071Z</time>
      </trkpt>
      <trkpt lat="58.50889197550714" lon="13.009824994951487">
        <ele>65.03</ele>
        <time>2025-02-08T18:37:42.509Z</time>
      </trkpt>
      <trkpt lat="58.508926928043365" lon="13.009964972734451">
        <ele>65.02</ele>
        <time>2025-02-08T18:38:17.948Z</time>
      </trkpt>
      <trkpt lat="58.50896196439862" lon="13.010104950517416">
        <ele>65.01</ele>
        <time>2025-02-08T18:38:53.389Z</time>
      </trkpt>
      <trkpt lat="58.50899691693485" lon="13.010245934128761">
        <ele>65.0</ele>
        <time>2025-02-08T18:39:28.831Z</time>
      </trkpt>
      <trkpt lat="58.509030947461724" lon="13.010387923568487">
        <ele>64.99</ele>
        <time>2025-02-08T18:40:04.274Z</time>
      </trkpt>
      <trkpt lat="58.50906397216022" lon="13.010529996827245">
        <ele>64.99</ele>
        <time>2025-02-08T18:40:39.718Z</time>
      </trkpt>
      <trkpt lat="58.509095991030335" lon="13.010672992095351">
        <ele>64.99</ele>
        <time>2025-02-08T18:41:15.164Z</time>
      </trkpt>
      <trkpt lat="58.50912692025304" lon="13.010816993191838">
        <ele>64.98</ele>
        <time>2025-02-08T18:41:50.611Z</time>
      </trkpt>
      <trkpt lat="58.50915692746639" lon="13.010959988459945">
        <ele>64.97</ele>
        <time>2025-02-08T18:42:26.059Z</time>
      </trkpt>
      <trkpt lat="58.50918693467975" lon="13.011104995384812">
        <ele>64.96</ele>
        <time>2025-02-08T18:43:01.509Z</time>
      </trkpt>
      <trkpt lat="58.50921593606472" lon="13.011249918490648">
        <ele>64.96</ele>
        <time>2025-02-08T18:43:36.960Z</time>
      </trkpt>
      <trkpt lat="58.509244937449694" lon="13.011396937072277">
        <ele>64.95</ele>
        <time>2025-02-08T18:44:12.412Z</time>
      </trkpt>
      <trkpt lat="58.50927293300629" lon="13.011545967310667">
        <ele>64.94</ele>
        <time>2025-02-08T18:44:47.866Z</time>
      </trkpt>
      <trkpt lat="58.5092999227345" lon="13.011697931215167">
        <ele>64.93</ele>
        <time>2025-02-08T18:45:23.321Z</time>
      </trkpt>
      <trkpt lat="58.50932498462498" lon="13.01185199059546">
        <ele>64.93</ele>
        <time>2025-02-08T18:45:58.777Z</time>
      </trkpt>
      <trkpt lat="58.509350968524814" lon="13.012005966156721">
        <ele>64.92</ele>
        <time>2025-02-08T18:46:34.235Z</time>
      </trkpt>
      <trkpt lat="58.509375946596265" lon="13.012160947546363">
        <ele>64.91</ele>
        <time>2025-02-08T18:47:09.694Z</time>
      </trkpt>
      <trkpt lat="58.509399918839335" lon="13.012315928936005">
        <ele>64.9</ele>
        <time>2025-02-08T18:47:45.154Z</time>
      </trkpt>
      <trkpt lat="58.50942196324468" lon="13.012472921982408">
        <ele>64.89</ele>
        <time>2025-02-08T18:48:20.616Z</time>
      </trkpt>
      <trkpt lat="58.509443923830986" lon="13.012630920857191">
        <ele>64.88</ele>
        <time>2025-02-08T18:48:56.079Z</time>
      </trkpt>
      <trkpt lat="58.50946496240795" lon="13.012789925560355">
        <ele>64.87</ele>
        <time>2025-02-08T18:49:31.543Z</time>
      </trkpt>
      <trkpt lat="58.50948499515653" lon="13.01294893026352">
        <ele>64.86</ele>
        <time>2025-02-08T18:50:07.009Z</time>
      </trkpt>
      <trkpt lat="58.509503938257694" lon="13.013108940795064">
        <ele>64.86</ele>
        <time>2025-02-08T18:50:42.476Z</time>
      </trkpt>
      <trkpt lat="58.50952195934951" lon="13.01326995715499">
        <ele>64.85</ele>
        <time>2025-02-08T18:51:17.945Z</time>
      </trkpt>
      <trkpt lat="58.50953897461295" lon="13.013430973514915">
        <ele>64.85</ele>
        <time>2025-02-08T18:51:53.415Z</time>
      </trkpt>
      <trkpt lat="58.50955598987639" lon="13.013589978218079">
        <ele>64.85</ele>
        <time>2025-02-08T18:52:28.886Z</time>
      </trkpt>
      <trkpt lat="58.509569987654686" lon="13.013749988749623">
        <ele>64.84</ele>
        <time>2025-02-08T18:53:04.359Z</time>
      </trkpt>
      <trkpt lat="58.5095829796046" lon="13.013909999281168">
        <ele>64.83</ele>
        <time>2025-02-08T18:53:39.833Z</time>
      </trkpt>
      <trkpt lat="58.50959496572614" lon="13.014069925993681">
        <ele>64.83</ele>
        <time>2025-02-08T18:54:15.308Z</time>
      </trkpt>
      <trkpt lat="58.50960695184767" lon="13.014230942353606">
        <ele>64.83</ele>
        <time>2025-02-08T18:54:50.785Z</time>
      </trkpt>
      <trkpt lat="58.50961793214083" lon="13.014391958713531">
        <ele>64.82</ele>
        <time>2025-02-08T18:55:26.263Z</time>
      </trkpt>
      <trkpt lat="58.50962799042463" lon="13.014551969245076">
        <ele>64.82</ele>
        <time>2025-02-08T18:56:01.743Z</time>
      </trkpt>
      <trkpt lat="58.50963796488941" lon="13.01471097394824">
        <ele>64.81</ele>
        <time>2025-02-08T18:56:37.224Z</time>
      </trkpt>
      <trkpt lat="58.50964592769742" lon="13.014867966994643">
        <ele>64.81</ele>
        <time>2025-02-08T18:57:12.706Z</time>
      </trkpt>
      <trkpt lat="58.509652968496084" lon="13.015024960041046">
        <ele>64.8</ele>
        <time>2025-02-08T18:57:48.190Z</time>
      </trkpt>
      <trkpt lat="58.509658919647336" lon="13.015181953087449">
        <ele>64.79</ele>
        <time>2025-02-08T18:58:23.675Z</time>
      </trkpt>
      <trkpt lat="58.509665960446" lon="13.015337940305471">
        <ele>64.79</ele>
        <time>2025-02-08T18:58:59.161Z</time>
      </trkpt>
      <trkpt lat="58.50967392325401" lon="13.015494933351874">
        <ele>64.79</ele>
        <time>2025-02-08T18:59:34.648Z</time>
      </trkpt>
      <trkpt lat="58.50968096405268" lon="13.015652932226658">
        <ele>64.78</ele>
        <time>2025-02-08T19:00:10.137Z</time>
      </trkpt>
      <trkpt lat="58.50968599319458" lon="13.015811936929822">
        <ele>64.78</ele>
        <time>2025-02-08T19:00:45.627Z</time>
      </trkpt>
      <trkpt lat="58.50969093851745" lon="13.015970941632986">
        <ele>64.78</ele>
        <time>2025-02-08T19:01:21.118Z</time>
      </trkpt>
      <trkpt lat="58.509696973487735" lon="13.01612994633615">
        <ele>64.78</ele>
        <time>2025-02-08T19:01:56.611Z</time>
      </trkpt>
      <trkpt lat="58.50970393046737" lon="13.016288951039314">
        <ele>64.78</ele>
        <time>2025-02-08T19:02:32.105Z</time>
      </trkpt>
      <trkpt lat="58.50971097126603" lon="13.016444938257337">
        <ele>64.78</ele>
        <time>2025-02-08T19:03:07.600Z</time>
      </trkpt>
      <trkpt lat="58.509718934074044" lon="13.016600925475359">
        <ele>64.77</ele>
        <time>2025-02-08T19:03:43.097Z</time>
      </trkpt>
      <trkpt lat="58.50972698070109" lon="13.016756996512413">
        <ele>64.77</ele>
        <time>2025-02-08T19:04:18.595Z</time>
      </trkpt>
      <trkpt lat="58.50973695516586" lon="13.016912983730435">
        <ele>64.77</ele>
        <time>2025-02-08T19:04:54.094Z</time>
      </trkpt>
      <trkpt lat="58.50974692963064" lon="13.017068970948458">
        <ele>64.77</ele>
        <time>2025-02-08T19:05:29.595Z</time>
      </trkpt>
      <trkpt lat="58.509758999571204" lon="13.0172239523381">
        <ele>64.78</ele>
        <time>2025-02-08T19:06:05.097Z</time>
      </trkpt>
      <trkpt lat="58.50977098569274" lon="13.0173759162426">
        <ele>64.78</ele>
        <time>2025-02-08T19:06:40.600Z</time>
      </trkpt>
      <trkpt lat="58.509782971814275" lon="13.01752494648099">
        <ele>64.78</ele>
        <time>2025-02-08T19:07:16.105Z</time>
      </trkpt>
      <trkpt lat="58.50979395210743" lon="13.017671965062618">
        <ele>64.78</ele>
        <time>2025-02-08T19:07:51.611Z</time>
      </trkpt>
      <trkpt lat="58.509805938228965" lon="13.017816971987486">
        <ele>64.78</ele>
        <time>2025-02-08T19:08:27.118Z</time>
      </trkpt>
      <trkpt lat="58.50981993600726" lon="13.017960973083973">
        <ele>64.79</ele>
        <time>2025-02-08T19:09:02.626Z</time>
      </trkpt>
      <trkpt lat="58.50983393378556" lon="13.01810598000884">
        <ele>64.79</ele>
        <time>2025-02-08T19:09:38.136Z</time>
      </trkpt>
      <trkpt lat="58.509846925735474" lon="13.01825299859047">
        <ele>64.79</ele>
        <time>2025-02-08T19:10:13.647Z</time>
      </trkpt>
      <trkpt lat="58.50986092351377" lon="13.018401945009828">
        <ele>64.8</ele>
        <time>2025-02-08T19:10:49.159Z</time>
      </trkpt>
      <trkpt lat="58.50987399928272" lon="13.018551981076598">
        <ele>64.8</ele>
        <time>2025-02-08T19:11:24.672Z</time>
      </trkpt>
      <trkpt lat="58.509887997061014" lon="13.018700927495956">
        <ele>64.81</ele>
        <time>2025-02-08T19:12:00.187Z</time>
      </trkpt>
      <trkpt lat="58.50990199483931" lon="13.018849957734346">
        <ele>64.81</ele>
        <time>2025-02-08T19:12:35.703Z</time>
      </trkpt>
      <trkpt lat="58.50991498678923" lon="13.018997982144356">
        <ele>64.82</ele>
        <time>2025-02-08T19:13:11.220Z</time>
      </trkpt>
      <trkpt lat="58.50992898456752" lon="13.019145922735333">
        <ele>64.83</ele>
        <time>2025-02-08T19:13:46.738Z</time>
      </trkpt>
      <trkpt lat="58.50994197651744" lon="13.019292941316962">
        <ele>64.83</ele>
        <time>2025-02-08T19:14:22.258Z</time>
      </trkpt>
      <trkpt lat="58.509955974295735" lon="13.019440965726972">
        <ele>64.84</ele>
        <time>2025-02-08T19:14:57.779Z</time>
      </trkpt>
      <trkpt lat="58.50996896624565" lon="13.019589995965362">
        <ele>64.85</ele>
        <time>2025-02-08T19:15:33.301Z</time>
      </trkpt>
      <trkpt lat="58.50998296402395" lon="13.01973793655634">
        <ele>64.86</ele>
        <time>2025-02-08T19:16:08.824Z</time>
      </trkpt>
      <trkpt lat="58.509996961802244" lon="13.01988696679473">
        <ele>64.86</ele>
        <time>2025-02-08T19:16:44.349Z</time>
      </trkpt>
      <trkpt lat="58.51001196540892" lon="13.020033985376358">
        <ele>64.87</ele>
        <time>2025-02-08T19:17:19.875Z</time>
      </trkpt>
      <trkpt lat="58.51002797484398" lon="13.020180920138955">
        <ele>64.88</ele>
        <time>2025-02-08T19:17:55.402Z</time>
      </trkpt>
      <trkpt lat="58.510042978450656" lon="13.020326932892203">
        <ele>64.9</ele>
        <time>2025-02-08T19:18:30.930Z</time>
      </trkpt>
      <trkpt lat="58.51005798205733" lon="13.020471939817071">
        <ele>64.92</ele>
        <time>2025-02-08T19:19:06.460Z</time>
      </trkpt>
      <trkpt lat="58.51007499732077" lon="13.020614935085177">
        <ele>64.93</ele>
        <time>2025-02-08T19:19:41.991Z</time>
      </trkpt>
      <trkpt lat="58.51009293459356" lon="13.020754996687174">
        <ele>64.94</ele>
        <time>2025-02-08T19:20:17.523Z</time>
      </trkpt>
      <trkpt lat="58.51011296734214" lon="13.020894974470139">
        <ele>64.95</ele>
        <time>2025-02-08T19:20:53.056Z</time>
      </trkpt>
      <trkpt lat="58.51013492792845" lon="13.021033946424723">
        <ele>64.97</ele>
        <time>2025-02-08T19:21:28.591Z</time>
      </trkpt>
      <trkpt lat="58.51015697233379" lon="13.021171996369958">
        <ele>64.98</ele>
        <time>2025-02-08T19:22:04.127Z</time>
      </trkpt>
      <trkpt lat="58.51017993874848" lon="13.021309962496161">
        <ele>65.0</ele>
        <time>2025-02-08T19:22:39.664Z</time>
      </trkpt>
      <trkpt lat="58.51020198315382" lon="13.021446922793984">
        <ele>65.01</ele>
        <time>2025-02-08T19:23:15.202Z</time>
      </trkpt>
      <trkpt lat="58.51022394374013" lon="13.02158497273922">
        <ele>65.03</ele>
        <time>2025-02-08T19:23:50.741Z</time>
      </trkpt>
      <trkpt lat="58.51024498231709" lon="13.021722938865423">
        <ele>65.04</ele>
        <time>2025-02-08T19:24:26.282Z</time>
      </trkpt>
      <trkpt lat="58.51026593707502" lon="13.021861994639039">
        <ele>65.06</ele>
        <time>2025-02-08T19:25:01.824Z</time>
      </trkpt>
      <trkpt lat="58.51028697565198" lon="13.022001972422004">
        <ele>65.07</ele>
        <time>2025-02-08T19:25:37.367Z</time>
      </trkpt>
      <trkpt lat="58.51030591875315" lon="13.02214496769011">
        <ele>65.09</ele>
        <time>2025-02-08T19:26:12.911Z</time>
      </trkpt>
      <trkpt lat="58.510320922359824" lon="13.02229299210012">
        <ele>65.1</ele>
        <time>2025-02-08T19:26:48.457Z</time>
      </trkpt>
      <trkpt lat="58.51033299230039" lon="13.022443950176239">
        <ele>65.11</ele>
        <time>2025-02-08T19:27:24.004Z</time>
      </trkpt>
      <trkpt lat="58.510342966765165" lon="13.02259893156588">
        <ele>65.13</ele>
        <time>2025-02-08T19:27:59.552Z</time>
      </trkpt>
      <trkpt lat="58.51035294122994" lon="13.022755924612284">
        <ele>65.15</ele>
        <time>2025-02-08T19:28:35.102Z</time>
      </trkpt>
      <trkpt lat="58.510360987856984" lon="13.022913923487067">
        <ele>65.17</ele>
        <time>2025-02-08T19:29:10.653Z</time>
      </trkpt>
      <trkpt lat="58.510368950665" lon="13.023074939846992">
        <ele>65.18</ele>
        <time>2025-02-08T19:29:46.205Z</time>
      </trkpt>
      <trkpt lat="58.51037599146366" lon="13.023237967863679">
        <ele>65.2</ele>
        <time>2025-02-08T19:30:21.759Z</time>
      </trkpt>
      <trkpt lat="58.51038093678653" lon="13.023402923718095">
        <ele>65.23</ele>
        <time>2025-02-08T19:30:57.314Z</time>
      </trkpt>
      <trkpt lat="58.510384960100055" lon="13.023567963391542">
        <ele>65.25</ele>
        <time>2025-02-08T19:31:32.870Z</time>
      </trkpt>
      <trkpt lat="58.51038898341358" lon="13.023732919245958">
        <ele>65.27</ele>
        <time>2025-02-08T19:32:08.428Z</time>
      </trkpt>
      <trkpt lat="58.51039191707969" lon="13.023898964747787">
        <ele>65.29</ele>
        <time>2025-02-08T19:32:43.987Z</time>
      </trkpt>
      <trkpt lat="58.51039594039321" lon="13.024063920602202">
        <ele>65.31</ele>
        <time>2025-02-08T19:33:19.548Z</time>
      </trkpt>
      <trkpt lat="58.51039795204997" lon="13.024226948618889">
        <ele>65.34</ele>
        <time>2025-02-08T19:33:55.110Z</time>
      </trkpt>
      <trkpt lat="58.51039996370673" lon="13.024387964978814">
        <ele>65.36</ele>
        <time>2025-02-08T19:34:30.673Z</time>
      </trkpt>
      <trkpt lat="58.51040298119187" lon="13.024545963853598">
        <ele>65.39</ele>
        <time>2025-02-08T19:35:06.238Z</time>
      </trkpt>
      <trkpt lat="58.510404992848635" lon="13.024697927758098">
        <ele>65.41</ele>
        <time>2025-02-08T19:35:41.804Z</time>
      </trkpt>
      <trkpt lat="58.510404992848635" lon="13.024846957996488">
        <ele>65.44</ele>
        <time>2025-02-08T19:36:17.371Z</time>
      </trkpt>
      <trkpt lat="58.51040298119187" lon="13.024991964921355">
        <ele>65.46</ele>
        <time>2025-02-08T19:36:52.939Z</time>
      </trkpt>
      <trkpt lat="58.51039895787835" lon="13.0251329485327">
        <ele>65.49</ele>
        <time>2025-02-08T19:37:28.509Z</time>
      </trkpt>
      <trkpt lat="58.51039392873645" lon="13.025269992649555">
        <ele>65.51</ele>
        <time>2025-02-08T19:38:04.080Z</time>
      </trkpt>
      <trkpt lat="58.51039099507034" lon="13.025403935462236">
        <ele>65.54</ele>
        <time>2025-02-08T19:38:39.652Z</time>
      </trkpt>
      <trkpt lat="58.510386971756816" lon="13.025535950437188">
        <ele>65.56</ele>
        <time>2025-02-08T19:39:15.225Z</time>
      </trkpt>
      <trkpt lat="58.510382948443294" lon="13.02566695958376">
        <ele>65.59</ele>
        <time>2025-02-08T19:39:50.799Z</time>
      </trkpt>
      <trkpt lat="58.51037791930139" lon="13.02579696290195">
        <ele>65.63</ele>
        <time>2025-02-08T19:40:26.374Z</time>
      </trkpt>
      <trkpt lat="58.51037297397852" lon="13.02592495456338">
        <ele>65.66</ele>
        <time>2025-02-08T19:41:01.950Z</time>
      </trkpt>
      <trkpt lat="58.51036794483662" lon="13.02605395205319">
        <ele>65.69</ele>
        <time>2025-02-08T19:41:37.527Z</time>
      </trkpt>
      <trkpt lat="58.510362999513745" lon="13.026182949543">
        <ele>65.72</ele>
        <time>2025-02-08T19:42:13.105Z</time>
      </trkpt>
      <trkpt lat="58.51035897620022" lon="13.026309935376048">
        <ele>65.76</ele>
        <time>2025-02-08T19:42:48.684Z</time>
      </trkpt>
      <trkpt lat="58.51035394705832" lon="13.026435999199748">
        <ele>65.79</ele>
        <time>2025-02-08T19:43:24.264Z</time>
      </trkpt>
      <trkpt lat="58.51034699007869" lon="13.026560973376036">
        <ele>65.83</ele>
        <time>2025-02-08T19:43:59.846Z</time>
      </trkpt>
      <trkpt lat="58.510339949280024" lon="13.026686953380704">
        <ele>65.87</ele>
        <time>2025-02-08T19:44:35.429Z</time>
      </trkpt>
      <trkpt lat="58.51033492013812" lon="13.026812933385372">
        <ele>65.91</ele>
        <time>2025-02-08T19:45:11.013Z</time>
      </trkpt>
      <trkpt lat="58.51032997481525" lon="13.026939919218421">
        <ele>65.94</ele>
        <time>2025-02-08T19:45:46.598Z</time>
      </trkpt>
      <trkpt lat="58.51032595150173" lon="13.027065983042121">
        <ele>65.98</ele>
        <time>2025-02-08T19:46:22.184Z</time>
      </trkpt>
      <trkpt lat="58.510320922359824" lon="13.027189951390028">
        <ele>66.02</ele>
        <time>2025-02-08T19:46:57.771Z</time>
      </trkpt>
      <trkpt lat="58.51031396538019" lon="13.027312997728586">
        <ele>66.06</ele>
        <time>2025-02-08T19:47:33.359Z</time>
      </trkpt>
      <trkpt lat="58.51030793040991" lon="13.027434954419732">
        <ele>66.1</ele>
        <time>2025-02-08T19:48:08.948Z</time>
      </trkpt>
      <trkpt lat="58.510300973430276" lon="13.02755598910153">
        <ele>66.14</ele>
        <time>2025-02-08T19:48:44.538Z</time>
      </trkpt>
      <trkpt lat="58.51029594428837" lon="13.027677945792675">
        <ele>66.18</ele>
        <time>2025-02-08T19:49:20.129Z</time>
      </trkpt>
      <trkpt lat="58.51029192097485" lon="13.027799986302853">
        <ele>66.23</ele>
        <time>2025-02-08T19:49:55.721Z</time>
      </trkpt>
      <trkpt lat="58.51028898730874" lon="13.027921942993999">
        <ele>66.28</ele>
        <time>2025-02-08T19:50:31.314Z</time>
      </trkpt>
      <trkpt lat="58.5102859698236" lon="13.028042977675796">
        <ele>66.32</ele>
        <time>2025-02-08T19:51:06.908Z</time>
      </trkpt>
      <trkpt lat="58.510280940681696" lon="13.02816392853856">
        <ele>66.37</ele>
        <time>2025-02-08T19:51:42.503Z</time>
      </trkpt>
      <trkpt lat="58.510275995358825" lon="13.028283957391977">
        <ele>66.41</ele>
        <time>2025-02-08T19:52:18.099Z</time>
      </trkpt>
      <trkpt lat="58.51027096621692" lon="13.028403986245394">
        <ele>66.45</ele>
        <time>2025-02-08T19:52:53.696Z</time>
      </trkpt>
      <trkpt lat="58.5102669429034" lon="13.028522925451398">
        <ele>66.5</ele>
        <time>2025-02-08T19:53:29.294Z</time>
      </trkpt>
      <trkpt lat="58.51026291958988" lon="13.028641948476434">
        <ele>66.55</ele>
        <time>2025-02-08T19:54:04.893Z</time>
      </trkpt>
      <trkpt lat="58.51025998592377" lon="13.02876197732985">
        <ele>66.59</ele>
        <time>2025-02-08T19:54:40.493Z</time>
      </trkpt>
      <trkpt lat="58.510254956781864" lon="13.028878988698125">
        <ele>66.64</ele>
        <time>2025-02-08T19:55:16.094Z</time>
      </trkpt>
      <trkpt lat="58.51025093346834" lon="13.028992982581258">
        <ele>66.69</ele>
        <time>2025-02-08T19:55:51.696Z</time>
      </trkpt>
      <trkpt lat="58.51024799980223" lon="13.029102953150868">
        <ele>66.74</ele>
        <time>2025-02-08T19:56:27.299Z</time>
      </trkpt>
      <trkpt lat="58.51024397648871" lon="13.029207978397608">
        <ele>66.79</ele>
        <time>2025-02-08T19:57:02.903Z</time>
      </trkpt>
      <trkpt lat="58.51023995317519" lon="13.029313925653696">
        <ele>66.84</ele>
        <time>2025-02-08T19:57:38.508Z</time>
      </trkpt>
      <trkpt lat="58.510237941518426" lon="13.029421968385577">
        <ele>66.89</ele>
        <time>2025-02-08T19:58:14.114Z</time>
      </trkpt>
      <trkpt lat="58.510236935690045" lon="13.029530933126807">
        <ele>66.94</ele>
        <time>2025-02-08T19:58:49.721Z</time>
      </trkpt>
      <trkpt lat="58.510235929861665" lon="13.02964199334383">
        <ele>66.99</ele>
        <time>2025-02-08T19:59:25.328Z</time>
      </trkpt>
      <trkpt lat="58.510234924033284" lon="13.029753975570202">
        <ele>67.04</ele>
        <time>2025-02-08T20:00:00.936Z</time>
      </trkpt>
      <trkpt lat="58.510232996195555" lon="13.029863946139812">
        <ele>67.1</ele>
        <time>2025-02-08T20:00:36.545Z</time>
      </trkpt>
      <trkpt lat="58.510232996195555" lon="13.029969977214932">
        <ele>67.15</ele>
        <time>2025-02-08T20:01:12.155Z</time>
      </trkpt>
      <trkpt lat="58.510233918204904" lon="13.030073996633291">
        <ele>67.2</ele>
        <time>2025-02-08T20:01:47.766Z</time>
      </trkpt>
      <trkpt lat="58.510235929861665" lon="13.030173992738128">
        <ele>67.26</ele>
        <time>2025-02-08T20:02:23.378Z</time>
      </trkpt>
      <trkpt lat="58.510237941518426" lon="13.030273988842964">
        <ele>67.31</ele>
        <time>2025-02-08T20:02:58.991Z</time>
      </trkpt>
      <trkpt lat="58.51023995317519" lon="13.030375996604562">
        <ele>67.37</ele>
        <time>2025-02-08T20:03:34.605Z</time>
      </trkpt>
      <trkpt lat="58.51024196483195" lon="13.030477920547128">
        <ele>67.42</ele>
        <time>2025-02-08T20:04:10.219Z</time>
      </trkpt>
      <trkpt lat="58.51024397648871" lon="13.030578922480345">
        <ele>67.47</ele>
        <time>2025-02-08T20:04:45.834Z</time>
      </trkpt>
      <trkpt lat="58.51024498231709" lon="13.030679924413562">
        <ele>67.53</ele>
        <time>2025-02-08T20:05:21.450Z</time>
      </trkpt>
      <trkpt lat="58.51024699397385" lon="13.03078193217516">
        <ele>67.58</ele>
        <time>2025-02-08T20:05:57.067Z</time>
      </trkpt>
      <trkpt lat="58.51025093346834" lon="13.030885951593518">
        <ele>67.64</ele>
        <time>2025-02-08T20:06:32.685Z</time>
      </trkpt>
      <trkpt lat="58.510255962610245" lon="13.030991982668638">
        <ele>67.7</ele>
        <time>2025-02-08T20:07:08.304Z</time>
      </trkpt>
      <trkpt lat="58.51025998592377" lon="13.031097929924726">
        <ele>67.76</ele>
        <time>2025-02-08T20:07:43.924Z</time>
      </trkpt>
      <trkpt lat="58.51026493124664" lon="13.031202955171466">
        <ele>67.82</ele>
        <time>2025-02-08T20:08:19.545Z</time>
      </trkpt>
      <trkpt lat="58.51026895456016" lon="13.031304962933064">
        <ele>67.88</ele>
        <time>2025-02-08T20:08:55.166Z</time>
      </trkpt>
      <trkpt lat="58.510273983702064" lon="13.03140596486628">
        <ele>67.94</ele>
        <time>2025-02-08T20:09:30.788Z</time>
      </trkpt>
      <trkpt lat="58.510279934853315" lon="13.031507972627878">
        <ele>68.0</ele>
        <time>2025-02-08T20:10:06.411Z</time>
      </trkpt>
      <trkpt lat="58.51028496399522" lon="13.031609980389476">
        <ele>68.06</ele>
        <time>2025-02-08T20:10:42.035Z</time>
      </trkpt>
      <trkpt lat="58.51028999313712" lon="13.031712993979454">
        <ele>68.12</ele>
        <time>2025-02-08T20:11:17.660Z</time>
      </trkpt>
      <trkpt lat="58.51029493845999" lon="13.03181491792202">
        <ele>68.18</ele>
        <time>2025-02-08T20:11:53.286Z</time>
      </trkpt>
      <trkpt lat="58.510299967601895" lon="13.031914997845888">
        <ele>68.24</ele>
        <time>2025-02-08T20:12:28.913Z</time>
      </trkpt>
      <trkpt lat="58.5103049967438" lon="13.032014993950725">
        <ele>68.31</ele>
        <time>2025-02-08T20:13:04.540Z</time>
      </trkpt>
      <trkpt lat="58.51030893623829" lon="13.032115995883942">
        <ele>68.37</ele>
        <time>2025-02-08T20:13:40.168Z</time>
      </trkpt>
      <trkpt lat="58.51031295955181" lon="13.032216997817159">
        <ele>68.44</ele>
        <time>2025-02-08T20:14:15.797Z</time>
      </trkpt>
      <trkpt lat="58.510316982865334" lon="13.032318921759725">
        <ele>68.5</ele>
        <time>2025-02-08T20:14:51.427Z</time>
      </trkpt>
      <trkpt lat="58.510320922359824" lon="13.032419923692942">
        <ele>68.56</ele>
        <time>2025-02-08T20:15:27.058Z</time>
      </trkpt>
      <trkpt lat="58.51032595150173" lon="13.032516986131668">
        <ele>68.62</ele>
        <time>2025-02-08T20:16:02.690Z</time>
      </trkpt>
      <trkpt lat="58.51033098064363" lon="13.032612958922982">
        <ele>68.68</ele>
        <time>2025-02-08T20:16:38.322Z</time>
      </trkpt>
      <trkpt lat="58.5103359259665" lon="13.032710943371058">
        <ele>68.75</ele>
        <time>2025-02-08T20:17:13.955Z</time>
      </trkpt>
      <trkpt lat="58.510340955108404" lon="13.032809933647513">
        <ele>68.81</ele>
        <time>2025-02-08T20:17:49.589Z</time>
      </trkpt>
      <trkpt lat="58.51034699007869" lon="13.03291093558073">
        <ele>68.87</ele>
        <time>2025-02-08T20:18:25.224Z</time>
      </trkpt>
      <trkpt lat="58.51035193540156" lon="13.03301495499909">
        <ele>68.94</ele>
        <time>2025-02-08T20:19:00.860Z</time>
      </trkpt>
      <trkpt lat="58.51035595871508" lon="13.033118974417448">
        <ele>69.0</ele>
        <time>2025-02-08T20:19:36.497Z</time>
      </trkpt>
      <trkpt lat="58.510360987856984" lon="13.033224921673536">
        <ele>69.07</ele>
        <time>2025-02-08T20:20:12.135Z</time>
      </trkpt>
      <trkpt lat="58.510366939008236" lon="13.033331958577037">
        <ele>69.13</ele>
        <time>2025-02-08T20:20:47.774Z</time>
      </trkpt>
      <trkpt lat="58.51037196815014" lon="13.033441929146647">
        <ele>69.19</ele>
        <time>2025-02-08T20:21:23.413Z</time>
      </trkpt>
      <trkpt lat="58.51037791930139" lon="13.03355592302978">
        <ele>69.25</ele>
        <time>2025-02-08T20:21:59.053Z</time>
      </trkpt>
      <trkpt lat="58.510384960100055" lon="13.033672934398055">
        <ele>69.3</ele>
        <time>2025-02-08T20:22:34.694Z</time>
      </trkpt>
      <trkpt lat="58.51039292290807" lon="13.03379095159471">
        <ele>69.36</ele>
        <time>2025-02-08T20:23:10.336Z</time>
      </trkpt>
      <trkpt lat="58.51039996370673" lon="13.033910980448127">
        <ele>69.43</ele>
        <time>2025-02-08T20:23:45.979Z</time>
      </trkpt>
      <trkpt lat="58.510405998677015" lon="13.034027991816401">
        <ele>69.49</ele>
        <time>2025-02-08T20:24:21.623Z</time>
      </trkpt>
      <trkpt lat="58.51041396148503" lon="13.034142991527915">
        <ele>69.55</ele>
        <time>2025-02-08T20:24:57.268Z</time>
      </trkpt>
      <trkpt lat="58.51042091846466" lon="13.03426193073392">
        <ele>69.61</ele>
        <time>2025-02-08T20:25:32.914Z</time>
      </trkpt>
      <trkpt lat="58.510428965091705" lon="13.034382965415716">
        <ele>69.67</ele>
        <time>2025-02-08T20:26:08.561Z</time>
      </trkpt>
      <trkpt lat="58.51043893955648" lon="13.034503916278481">
        <ele>69.73</ele>
        <time>2025-02-08T20:26:44.209Z</time>
      </trkpt>
      <trkpt lat="58.510446986183524" lon="13.034622939303517">
        <ele>69.79</ele>
        <time>2025-02-08T20:27:19.858Z</time>
      </trkpt>
      <trkpt lat="58.51045494899154" lon="13.03473793901503">
        <ele>69.85</ele>
        <time>2025-02-08T20:27:55.508Z</time>
      </trkpt>
      <trkpt lat="58.5104619897902" lon="13.034853944554925">
        <ele>69.91</ele>
        <time>2025-02-08T20:28:31.159Z</time>
      </trkpt>
      <trkpt lat="58.510470958426595" lon="13.034973973408341">
        <ele>69.97</ele>
        <time>2025-02-08T20:29:06.811Z</time>
      </trkpt>
      <trkpt lat="58.51048093289137" lon="13.03509995341301">
        <ele>70.03</ele>
        <time>2025-02-08T20:29:42.464Z</time>
      </trkpt>
      <trkpt lat="58.510491997003555" lon="13.035227945074439">
        <ele>70.09</ele>
        <time>2025-02-08T20:30:18.119Z</time>
      </trkpt>
      <trkpt lat="58.51050096563995" lon="13.035348979756236">
        <ele>70.15</ele>
        <time>2025-02-08T20:30:53.775Z</time>
      </trkpt>
      <trkpt lat="58.51050792261958" lon="13.03546498529613">
        <ele>70.2</ele>
        <time>2025-02-08T20:31:29.432Z</time>
      </trkpt>
      <trkpt lat="58.510515969246626" lon="13.03557395003736">
        <ele>70.26</ele>
        <time>2025-02-08T20:32:05.089Z</time>
      </trkpt>
      <trkpt lat="58.51052192039788" lon="13.035677969455719">
        <ele>70.31</ele>
        <time>2025-02-08T20:32:40.747Z</time>
      </trkpt>
      <trkpt lat="58.51052795536816" lon="13.035781988874078">
        <ele>70.36</ele>
        <time>2025-02-08T20:33:16.406Z</time>
      </trkpt>
      <trkpt lat="58.51053197868168" lon="13.035879973322153">
        <ele>70.41</ele>
        <time>2025-02-08T20:33:52.066Z</time>
      </trkpt>
      <trkpt lat="58.510536924004555" lon="13.035970916971564">
        <ele>70.46</ele>
        <time>2025-02-08T20:34:27.727Z</time>
      </trkpt>
      <trkpt lat="58.51054295897484" lon="13.036058926954865">
        <ele>70.51</ele>
        <time>2025-02-08T20:35:03.389Z</time>
      </trkpt>
      <trkpt lat="58.51054899394512" lon="13.036142997443676">
        <ele>70.56</ele>
        <time>2025-02-08T20:35:39.051Z</time>
      </trkpt>
      <trkpt lat="58.51055393926799" lon="13.036224972456694">
        <ele>70.6</ele>
        <time>2025-02-08T20:36:14.714Z</time>
      </trkpt>
      <trkpt lat="58.510557962581515" lon="13.036306947469711">
        <ele>70.65</ele>
        <time>2025-02-08T20:36:50.378Z</time>
      </trkpt>
      <trkpt lat="58.51056299172342" lon="13.036384982988238">
        <ele>70.69</ele>
        <time>2025-02-08T20:37:26.042Z</time>
      </trkpt>
      <trkpt lat="58.51056693121791" lon="13.036459917202592">
        <ele>70.73</ele>
        <time>2025-02-08T20:38:01.707Z</time>
      </trkpt>
      <trkpt lat="58.51057095453143" lon="13.0365389585495">
        <ele>70.77</ele>
        <time>2025-02-08T20:38:37.373Z</time>
      </trkpt>
      <trkpt lat="58.510580928996205" lon="13.036629986017942">
        <ele>70.81</ele>
        <time>2025-02-08T20:39:13.039Z</time>
      </trkpt>
      <trkpt lat="58.51058897562325" lon="13.03671095520258">
        <ele>70.85</ele>
        <time>2025-02-08T20:39:48.706Z</time>
      </trkpt>
      <trkpt lat="58.5105949267745" lon="13.036794941872358">
        <ele>70.89</ele>
        <time>2025-02-08T20:40:24.374Z</time>
      </trkpt>
      <trkpt lat="58.510600961744785" lon="13.03688295185566">
        <ele>70.92</ele>
        <time>2025-02-08T20:41:00.043Z</time>
      </trkpt>
      <trkpt lat="58.51060791872442" lon="13.036974985152483">
        <ele>70.95</ele>
        <time>2025-02-08T20:41:35.712Z</time>
      </trkpt>
      <trkpt lat="58.51061596535146" lon="13.037071963772178">
        <ele>70.98</ele>
        <time>2025-02-08T20:42:11.382Z</time>
      </trkpt>
      <trkpt lat="58.51062694564462" lon="13.037169948220253">
        <ele>71.01</ele>
        <time>2025-02-08T20:42:47.053Z</time>
      </trkpt>
      <trkpt lat="58.510641949251294" lon="13.03726994432509">
        <ele>71.03</ele>
        <time>2025-02-08T20:43:22.725Z</time>
      </trkpt>
      <trkpt lat="58.51065494120121" lon="13.037370946258307">
        <ele>71.05</ele>
        <time>2025-02-08T20:43:58.398Z</time>
      </trkpt>
      <trkpt lat="58.510664999485016" lon="13.037476977333426">
        <ele>71.07</ele>
        <time>2025-02-08T20:44:34.072Z</time>
      </trkpt>
      <trkpt lat="58.51067396812141" lon="13.037586947903037">
        <ele>71.1</ele>
        <time>2025-02-08T20:45:09.747Z</time>
      </trkpt>
      <trkpt lat="58.51068193092942" lon="13.037702953442931">
        <ele>71.12</ele>
        <time>2025-02-08T20:45:45.423Z</time>
      </trkpt>
      <trkpt lat="58.51068997755647" lon="13.037826921790838">
        <ele>71.13</ele>
        <time>2025-02-08T20:46:21.100Z</time>
      </trkpt>
      <trkpt lat="58.51069592870772" lon="13.037953991442919">
        <ele>71.14</ele>
        <time>2025-02-08T20:46:56.778Z</time>
      </trkpt>
      <trkpt lat="58.510707998648286" lon="13.038093969225883">
        <ele>71.16</ele>
        <time>2025-02-08T20:47:32.457Z</time>
      </trkpt>
      <trkpt lat="58.51071998476982" lon="13.038229923695326">
        <ele>71.17</ele>
        <time>2025-02-08T20:48:08.137Z</time>
      </trkpt>
      <trkpt lat="58.51073398254812" lon="13.03836696781218">
        <ele>71.18</ele>
        <time>2025-02-08T20:48:43.818Z</time>
      </trkpt>
      <trkpt lat="58.51074697449803" lon="13.038507951423526">
        <ele>71.18</ele>
        <time>2025-02-08T20:49:19.500Z</time>
      </trkpt>
      <trkpt lat="58.51075996644795" lon="13.038650946691632">
        <ele>71.2</ele>
        <time>2025-02-08T20:49:55.184Z</time>
      </trkpt>
      <trkpt lat="58.510773964226246" lon="13.0387959536165">
        <ele>71.21</ele>
        <time>2025-02-08T20:50:30.869Z</time>
      </trkpt>
      <trkpt lat="58.51078695617616" lon="13.038942972198129">
        <ele>71.21</ele>
        <time>2025-02-08T20:51:06.555Z</time>
      </trkpt>
      <trkpt lat="58.51080195978284" lon="13.039092924445868">
        <ele>71.22</ele>
        <time>2025-02-08T20:51:42.242Z</time>
      </trkpt>
      <trkpt lat="58.5108179692179" lon="13.039247989654541">
        <ele>71.23</ele>
        <time>2025-02-08T20:52:17.931Z</time>
      </trkpt>
      <trkpt lat="58.510835990309715" lon="13.039402971044183">
        <ele>71.24</ele>
        <time>2025-02-08T20:52:53.621Z</time>
      </trkpt>
      <trkpt lat="58.5108539275825" lon="13.039559964090586">
        <ele>71.25</ele>
        <time>2025-02-08T20:53:29.312Z</time>
      </trkpt>
      <trkpt lat="58.51087094284594" lon="13.039715951308608">
        <ele>71.26</ele>
        <time>2025-02-08T20:54:05.005Z</time>
      </trkpt>
      <trkpt lat="58.510886952281" lon="13.039868921041489">
        <ele>71.27</ele>
        <time>2025-02-08T20:54:40.699Z</time>
      </trkpt>
      <trkpt lat="58.510901955887675" lon="13.04001895710826">
        <ele>71.27</ele>
        <time>2025-02-08T20:55:16.394Z</time>
      </trkpt>
      <trkpt lat="58.51091796532273" lon="13.04016899317503">
        <ele>71.28</ele>
        <time>2025-02-08T20:55:52.091Z</time>
      </trkpt>
      <trkpt lat="58.51093296892941" lon="13.040316933766007">
        <ele>71.28</ele>
        <time>2025-02-08T20:56:27.789Z</time>
      </trkpt>
      <trkpt lat="58.51094797253609" lon="13.040465964004397">
        <ele>71.29</ele>
        <time>2025-02-08T20:57:03.488Z</time>
      </trkpt>
      <trkpt lat="58.510963981971145" lon="13.040613988414407">
        <ele>71.29</ele>
        <time>2025-02-08T20:57:39.188Z</time>
      </trkpt>
      <trkpt lat="58.5109799914062" lon="13.040758995339274">
        <ele>71.29</ele>
        <time>2025-02-08T20:58:14.890Z</time>
      </trkpt>
      <trkpt lat="58.51099499501288" lon="13.04090199060738">
        <ele>71.29</ele>
        <time>2025-02-08T20:58:50.593Z</time>
      </trkpt>
      <trkpt lat="58.511010920628905" lon="13.041042974218726">
        <ele>71.29</ele>
        <time>2025-02-08T20:59:26.297Z</time>
      </trkpt>
      <trkpt lat="58.51102793589234" lon="13.04118094034493">
        <ele>71.29</ele>
        <time>2025-02-08T21:00:02.002Z</time>
      </trkpt>
      <trkpt lat="58.51104595698416" lon="13.041319996118546">
        <ele>71.29</ele>
        <time>2025-02-08T21:00:37.709Z</time>
      </trkpt>
      <trkpt lat="58.51106498390436" lon="13.04145896807313">
        <ele>71.29</ele>
        <time>2025-02-08T21:01:13.417Z</time>
      </trkpt>
      <trkpt lat="58.51108392700553" lon="13.041598945856094">
        <ele>71.29</ele>
        <time>2025-02-08T21:01:49.126Z</time>
      </trkpt>
      <trkpt lat="58.511097924783826" lon="13.0417419411242">
        <ele>71.29</ele>
        <time>2025-02-08T21:02:24.836Z</time>
      </trkpt>
      <trkpt lat="58.51111393421888" lon="13.041882924735546">
        <ele>71.29</ele>
        <time>2025-02-08T21:03:00.547Z</time>
      </trkpt>
      <trkpt lat="58.51112793199718" lon="13.042020974680781">
        <ele>71.29</ele>
        <time>2025-02-08T21:03:36.260Z</time>
      </trkpt>
      <trkpt lat="58.51140595972538" lon="13.045181958004832">
        <ele>71.29</ele>
        <time>2025-02-08T21:04:11.999Z</time>
      </trkpt>
      <trkpt lat="58.51141098886728" lon="13.04526099935174">
        <ele>71.29</ele>
        <time>2025-02-08T21:04:47.739Z</time>
      </trkpt>
      <trkpt lat="58.511415934190154" lon="13.045339956879616">
        <ele>71.29</ele>
        <time>2025-02-08T21:05:23.480Z</time>
      </trkpt>
      <trkpt lat="58.51142892614007" lon="13.04549896158278">
        <ele>71.29</ele>
        <time>2025-02-08T21:05:59.222Z</time>
      </trkpt>
      <trkpt lat="58.511441918089986" lon="13.045658972114325">
        <ele>71.29</ele>
        <time>2025-02-08T21:06:34.965Z</time>
      </trkpt>
      <trkpt lat="58.51145499385893" lon="13.045817976817489">
        <ele>71.29</ele>
        <time>2025-02-08T21:07:10.710Z</time>
      </trkpt>
      <trkpt lat="58.51146697998047" lon="13.045974969863892">
        <ele>71.29</ele>
        <time>2025-02-08T21:07:46.456Z</time>
      </trkpt>
      <trkpt lat="58.511478966102004" lon="13.046130957081914">
        <ele>71.29</ele>
        <time>2025-02-08T21:08:22.203Z</time>
      </trkpt>
      <trkpt lat="58.51149095222354" lon="13.046285938471556">
        <ele>71.29</ele>
        <time>2025-02-08T21:08:57.952Z</time>
      </trkpt>
      <trkpt lat="58.511503944173455" lon="13.046439997851849">
        <ele>71.29</ele>
        <time>2025-02-08T21:09:33.702Z</time>
      </trkpt>
      <trkpt lat="58.51151593029499" lon="13.04659397341311">
        <ele>71.29</ele>
        <time>2025-02-08T21:10:09.453Z</time>
      </trkpt>
      <trkpt lat="58.511527916416526" lon="13.04674593731761">
        <ele>71.29</ele>
        <time>2025-02-08T21:10:45.206Z</time>
      </trkpt>
      <trkpt lat="58.51154099218547" lon="13.046897985041142">
        <ele>71.3</ele>
        <time>2025-02-08T21:11:20.960Z</time>
      </trkpt>
      <trkpt lat="58.5115569178015" lon="13.047048943117261">
        <ele>71.3</ele>
        <time>2025-02-08T21:11:56.715Z</time>
      </trkpt>
      <trkpt lat="58.51157393306494" lon="13.047198979184031">
        <ele>71.3</ele>
        <time>2025-02-08T21:12:32.472Z</time>
      </trkpt>
      <trkpt lat="58.511590948328376" lon="13.047349937260151">
        <ele>71.3</ele>
        <time>2025-02-08T21:13:08.230Z</time>
      </trkpt>
      <trkpt lat="58.511610981076956" lon="13.04749896749854">
        <ele>71.31</ele>
        <time>2025-02-08T21:13:43.989Z</time>
      </trkpt>
      <trkpt lat="58.511631935834885" lon="13.04764799773693">
        <ele>71.31</ele>
        <time>2025-02-08T21:14:19.749Z</time>
      </trkpt>
      <trkpt lat="58.51165599189699" lon="13.047795938327909">
        <ele>71.32</ele>
        <time>2025-02-08T21:14:55.511Z</time>
      </trkpt>
      <trkpt lat="58.5116829816252" lon="13.047941951081157">
        <ele>71.32</ele>
        <time>2025-02-08T21:15:31.274Z</time>
      </trkpt>
      <trkpt lat="58.51171097718179" lon="13.048084946349263">
        <ele>71.33</ele>
        <time>2025-02-08T21:16:07.038Z</time>
      </trkpt>
      <trkpt lat="58.511738972738385" lon="13.048224924132228">
        <ele>71.34</ele>
        <time>2025-02-08T21:16:42.804Z</time>
      </trkpt>
      <trkpt lat="58.51176696829498" lon="13.048361968249083">
        <ele>71.35</ele>
        <time>2025-02-08T21:17:18.571Z</time>
      </trkpt>
      <trkpt lat="58.51179596967995" lon="13.048495994880795">
        <ele>71.36</ele>
        <time>2025-02-08T21:17:54.339Z</time>
      </trkpt>
      <trkpt lat="58.511824971064925" lon="13.048630943521857">
        <ele>71.37</ele>
        <time>2025-02-08T21:18:30.108Z</time>
      </trkpt>
      <trkpt lat="58.51185598410666" lon="13.048766981810331">
        <ele>71.38</ele>
        <time>2025-02-08T21:19:05.879Z</time>
      </trkpt>
      <trkpt lat="58.51188791915774" lon="13.048905953764915">
        <ele>71.39</ele>
        <time>2025-02-08T21:19:41.651Z</time>
      </trkpt>
      <trkpt lat="58.51191993802786" lon="13.04904593154788">
        <ele>71.4</ele>
        <time>2025-02-08T21:20:17.424Z</time>
      </trkpt>
      <trkpt lat="58.511951956897974" lon="13.049185993149877">
        <ele>71.41</ele>
        <time>2025-02-08T21:20:53.198Z</time>
      </trkpt>
      <trkpt lat="58.51198196411133" lon="13.049326976761222">
        <ele>71.42</ele>
        <time>2025-02-08T21:21:28.974Z</time>
      </trkpt>
      <trkpt lat="58.51201297715306" lon="13.049468966200948">
        <ele>71.44</ele>
        <time>2025-02-08T21:22:04.751Z</time>
      </trkpt>
      <trkpt lat="58.51204298436642" lon="13.049609949812293">
        <ele>71.45</ele>
        <time>2025-02-08T21:22:40.529Z</time>
      </trkpt>
      <trkpt lat="58.51207399740815" lon="13.049750933423638">
        <ele>71.47</ele>
        <time>2025-02-08T21:23:16.309Z</time>
      </trkpt>
      <trkpt lat="58.512103920802474" lon="13.049889989197254">
        <ele>71.48</ele>
        <time>2025-02-08T21:23:52.090Z</time>
      </trkpt>
      <trkpt lat="58.51213392801583" lon="13.050025943666697">
        <ele>71.5</ele>
        <time>2025-02-08T21:24:27.872Z</time>
      </trkpt>
      <trkpt lat="58.51216091774404" lon="13.05016097612679">
        <ele>71.52</ele>
        <time>2025-02-08T21:25:03.655Z</time>
      </trkpt>
      <trkpt lat="58.512186985462904" lon="13.050297936424613">
        <ele>71.54</ele>
        <time>2025-02-08T21:25:39.439Z</time>
      </trkpt>
      <trkpt lat="58.5122149810195" lon="13.050435986369848">
        <ele>71.56</ele>
        <time>2025-02-08T21:26:15.225Z</time>
      </trkpt>
      <trkpt lat="58.51224498823285" lon="13.05057093501091">
        <ele>71.58</ele>
        <time>2025-02-08T21:26:51.012Z</time>
      </trkpt>
      <trkpt lat="58.512273989617825" lon="13.050706973299384">
        <ele>71.6</ele>
        <time>2025-02-08T21:27:26.800Z</time>
      </trkpt>
      <trkpt lat="58.51230399683118" lon="13.050844939425588">
        <ele>71.62</ele>
        <time>2025-02-08T21:28:02.589Z</time>
      </trkpt>
      <trkpt lat="58.5123339202255" lon="13.050981983542442">
        <ele>71.65</ele>
        <time>2025-02-08T21:28:38.380Z</time>
      </trkpt>
      <trkpt lat="58.512364933267236" lon="13.051119949668646">
        <ele>71.67</ele>
        <time>2025-02-08T21:29:14.172Z</time>
      </trkpt>
      <trkpt lat="58.51239594630897" lon="13.05125992745161">
        <ele>71.69</ele>
        <time>2025-02-08T21:29:49.965Z</time>
      </trkpt>
      <trkpt lat="58.512425953522325" lon="13.051398983225226">
        <ele>71.72</ele>
        <time>2025-02-08T21:30:25.759Z</time>
      </trkpt>
      <trkpt lat="58.51245596073568" lon="13.051534937694669">
        <ele>71.75</ele>
        <time>2025-02-08T21:31:01.555Z</time>
      </trkpt>
      <trkpt lat="58.51248697377741" lon="13.05166695266962">
        <ele>71.77</ele>
        <time>2025-02-08T21:31:37.352Z</time>
      </trkpt>
      <trkpt lat="58.51251798681915" lon="13.05179595015943">
        <ele>71.8</ele>
        <time>2025-02-08T21:32:13.150Z</time>
      </trkpt>
      <trkpt lat="58.5125479940325" lon="13.05192394182086">
        <ele>71.82</ele>
        <time>2025-02-08T21:32:48.949Z</time>
      </trkpt>
      <trkpt lat="58.512579929083586" lon="13.052049921825528">
        <ele>71.85</ele>
        <time>2025-02-08T21:33:24.749Z</time>
      </trkpt>
      <trkpt lat="58.5126119479537" lon="13.052174979820848">
        <ele>71.88</ele>
        <time>2025-02-08T21:34:00.551Z</time>
      </trkpt>
      <trkpt lat="58.5126449726522" lon="13.052298948168755">
        <ele>71.91</ele>
        <time>2025-02-08T21:34:36.354Z</time>
      </trkpt>
      <trkpt lat="58.51267699152231" lon="13.052422916516662">
        <ele>71.94</ele>
        <time>2025-02-08T21:35:12.158Z</time>
      </trkpt>
      <trkpt lat="58.51271093823016" lon="13.05254495702684">
        <ele>71.98</ele>
        <time>2025-02-08T21:35:47.963Z</time>
      </trkpt>
      <trkpt lat="58.51274496875703" lon="13.052664985880256">
        <ele>72.01</ele>
        <time>2025-02-08T21:36:23.769Z</time>
      </trkpt>
      <trkpt lat="58.51277899928391" lon="13.052786942571402">
        <ele>72.05</ele>
        <time>2025-02-08T21:36:59.576Z</time>
      </trkpt>
      <trkpt lat="58.512814957648516" lon="13.05290898308158">
        <ele>72.09</ele>
        <time>2025-02-08T21:37:35.385Z</time>
      </trkpt>
      <trkpt lat="58.5128519218415" lon="13.053029933944345">
        <ele>72.12</ele>
        <time>2025-02-08T21:38:11.195Z</time>
      </trkpt>
      <trkpt lat="58.51288896985352" lon="13.053151974454522">
        <ele>72.16</ele>
        <time>2025-02-08T21:38:47.006Z</time>
      </trkpt>
      <trkpt lat="58.51292593404651" lon="13.053272925317287">
        <ele>72.2</ele>
        <time>2025-02-08T21:39:22.818Z</time>
      </trkpt>
      <trkpt lat="58.512963987886906" lon="13.053391948342323">
        <ele>72.24</ele>
        <time>2025-02-08T21:39:58.631Z</time>
      </trkpt>
      <trkpt lat="58.513004975393414" lon="13.053507953882217">
        <ele>72.29</ele>
        <time>2025-02-08T21:40:34.445Z</time>
      </trkpt>
      <trkpt lat="58.51304395124316" lon="13.053622953593731">
        <ele>72.33</ele>
        <time>2025-02-08T21:41:10.261Z</time>
      </trkpt>
      <trkpt lat="58.51308099925518" lon="13.053739964962006">
        <ele>72.38</ele>
        <time>2025-02-08T21:41:46.078Z</time>
      </trkpt>
      <trkpt lat="58.51311896927655" lon="13.0538559705019">
        <ele>72.42</ele>
        <time>2025-02-08T21:42:21.896Z</time>
      </trkpt>
      <trkpt lat="58.513158950954676" lon="13.053969964385033">
        <ele>72.47</ele>
        <time>2025-02-08T21:42:57.715Z</time>
      </trkpt>
      <trkpt lat="58.51319792680442" lon="13.054082952439785">
        <ele>72.52</ele>
        <time>2025-02-08T21:43:33.535Z</time>
      </trkpt>
      <trkpt lat="58.5132369864732" lon="13.054196946322918">
        <ele>72.57</ele>
        <time>2025-02-08T21:44:09.356Z</time>
      </trkpt>
      <trkpt lat="58.51327696815133" lon="13.054311946034431">
        <ele>72.62</ele>
        <time>2025-02-08T21:44:45.178Z</time>
      </trkpt>
      <trkpt lat="58.51331795565784" lon="13.054427951574326">
        <ele>72.67</ele>
        <time>2025-02-08T21:45:21.002Z</time>
      </trkpt>
      <trkpt lat="58.51335994899273" lon="13.054542951285839">
        <ele>72.72</ele>
        <time>2025-02-08T21:45:56.827Z</time>
      </trkpt>
      <trkpt lat="58.513402948156" lon="13.054657950997353">
        <ele>72.78</ele>
        <time>2025-02-08T21:46:32.653Z</time>
      </trkpt>
      <trkpt lat="58.51344695314765" lon="13.054769933223724">
        <ele>72.83</ele>
        <time>2025-02-08T21:47:08.480Z</time>
      </trkpt>
      <trkpt lat="58.51348995231092" lon="13.054878981783986">
        <ele>72.88</ele>
        <time>2025-02-08T21:47:44.308Z</time>
      </trkpt>
      <trkpt lat="58.51353295147419" lon="13.054987946525216">
        <ele>72.94</ele>
        <time>2025-02-08T21:48:20.137Z</time>
      </trkpt>
      <trkpt lat="58.51357595063746" lon="13.055096995085478">
        <ele>73.0</ele>
        <time>2025-02-08T21:48:55.968Z</time>
      </trkpt>
      <trkpt lat="58.51361894980073" lon="13.055203948169947">
        <ele>73.06</ele>
        <time>2025-02-08T21:49:31.800Z</time>
      </trkpt>
      <trkpt lat="58.513661948964" lon="13.055311990901828">
        <ele>73.11</ele>
        <time>2025-02-08T21:50:07.633Z</time>
      </trkpt>
      <trkpt lat="58.51370595395565" lon="13.055420955643058">
        <ele>73.17</ele>
        <time>2025-02-08T21:50:43.467Z</time>
      </trkpt>
      <trkpt lat="58.51375096477568" lon="13.055531932041049">
        <ele>73.23</ele>
        <time>2025-02-08T21:51:19.302Z</time>
      </trkpt>
      <trkpt lat="58.51379698142409" lon="13.055645925924182">
        <ele>73.29</ele>
        <time>2025-02-08T21:51:55.138Z</time>
      </trkpt>
      <trkpt lat="58.513841992244124" lon="13.055760925635695">
        <ele>73.35</ele>
        <time>2025-02-08T21:52:30.976Z</time>
      </trkpt>
      <trkpt lat="58.513884991407394" lon="13.055881960317492">
        <ele>73.41</ele>
        <time>2025-02-08T21:53:06.815Z</time>
      </trkpt>
      <trkpt lat="58.51392396725714" lon="13.056009951978922">
        <ele>73.47</ele>
        <time>2025-02-08T21:53:42.655Z</time>
      </trkpt>
      <trkpt lat="58.51395891979337" lon="13.056144984439015">
        <ele>73.53</ele>
        <time>2025-02-08T21:54:18.496Z</time>
      </trkpt>
      <trkpt lat="58.5139899328351" lon="13.056281944736838">
        <ele>73.59</ele>
        <time>2025-02-08T21:54:54.339Z</time>
      </trkpt>
      <trkpt lat="58.514017928391695" lon="13.056422928348184">
        <ele>73.65</ele>
        <time>2025-02-08T21:55:30.183Z</time>
      </trkpt>
      <trkpt lat="58.5140419844538" lon="13.05656491778791">
        <ele>73.71</ele>
        <time>2025-02-08T21:56:06.028Z</time>
      </trkpt>
      <trkpt lat="58.514062939211726" lon="13.056706991046667">
        <ele>73.78</ele>
        <time>2025-02-08T21:56:41.874Z</time>
      </trkpt>
      <trkpt lat="58.514079954475164" lon="13.056848980486393">
        <ele>73.83</ele>
        <time>2025-02-08T21:57:17.722Z</time>
      </trkpt>
      <trkpt lat="58.51409495808184" lon="13.056989964097738">
        <ele>73.9</ele>
        <time>2025-02-08T21:57:53.571Z</time>
      </trkpt>
      <trkpt lat="58.51410694420338" lon="13.057128936052322">
        <ele>73.96</ele>
        <time>2025-02-08T21:58:29.421Z</time>
      </trkpt>
      <trkpt lat="58.51411792449653" lon="13.057265980169177">
        <ele>74.03</ele>
        <time>2025-02-08T21:59:05.272Z</time>
      </trkpt>
      <trkpt lat="58.51412798278034" lon="13.057402940467">
        <ele>74.09</ele>
        <time>2025-02-08T21:59:41.124Z</time>
      </trkpt>
      <trkpt lat="58.51413695141673" lon="13.057542918249965">
        <ele>74.16</ele>
        <time>2025-02-08T22:00:16.978Z</time>
      </trkpt>
      <trkpt lat="58.514145920053124" lon="13.057684991508722">
        <ele>74.23</ele>
        <time>2025-02-08T22:00:52.833Z</time>
      </trkpt>
      <trkpt lat="58.51415597833693" lon="13.05782899260521">
        <ele>74.3</ele>
        <time>2025-02-08T22:01:28.689Z</time>
      </trkpt>
      <trkpt lat="58.51416394114494" lon="13.057974921539426">
        <ele>74.37</ele>
        <time>2025-02-08T22:02:04.546Z</time>
      </trkpt>
      <trkpt lat="58.51417299360037" lon="13.058122945949435">
        <ele>74.44</ele>
        <time>2025-02-08T22:02:40.404Z</time>
      </trkpt>
      <trkpt lat="58.51418196223676" lon="13.058271976187825">
        <ele>74.5</ele>
        <time>2025-02-08T22:03:16.264Z</time>
      </trkpt>
      <trkpt lat="58.514190930873156" lon="13.058423940092325">
        <ele>74.57</ele>
        <time>2025-02-08T22:03:52.125Z</time>
      </trkpt>
      <trkpt lat="58.51419998332858" lon="13.058575987815857">
        <ele>74.64</ele>
        <time>2025-02-08T22:04:27.987Z</time>
      </trkpt>
      <trkpt lat="58.514207946136594" lon="13.058728957548738">
        <ele>74.7</ele>
        <time>2025-02-08T22:05:03.851Z</time>
      </trkpt>
      <trkpt lat="58.51421599276364" lon="13.058879999443889">
        <ele>74.77</ele>
        <time>2025-02-08T22:05:39.716Z</time>
      </trkpt>
      <trkpt lat="58.51422395557165" lon="13.059028945863247">
        <ele>74.84</ele>
        <time>2025-02-08T22:06:15.582Z</time>
      </trkpt>
      <trkpt lat="58.514230996370316" lon="13.059176970273256">
        <ele>74.9</ele>
        <time>2025-02-08T22:06:51.449Z</time>
      </trkpt>
      <trkpt lat="58.51423694752157" lon="13.059324994683266">
        <ele>74.97</ele>
        <time>2025-02-08T22:07:27.318Z</time>
      </trkpt>
      <trkpt lat="58.51424398832023" lon="13.059470923617482">
        <ele>75.04</ele>
        <time>2025-02-08T22:08:03.188Z</time>
      </trkpt>
      <trkpt lat="58.51424993947148" lon="13.05961593054235">
        <ele>75.1</ele>
        <time>2025-02-08T22:08:39.059Z</time>
      </trkpt>
      <trkpt lat="58.51425597444177" lon="13.059760937467217">
        <ele>75.17</ele>
        <time>2025-02-08T22:09:14.931Z</time>
      </trkpt>
      <trkpt lat="58.51426192559302" lon="13.059906950220466">
        <ele>75.23</ele>
        <time>2025-02-08T22:09:50.804Z</time>
      </trkpt>
      <trkpt lat="58.5142679605633" lon="13.060051957145333">
        <ele>75.3</ele>
        <time>2025-02-08T22:10:26.679Z</time>
      </trkpt>
      <trkpt lat="58.514273995533586" lon="13.060197969898582">
        <ele>75.36</ele>
        <time>2025-02-08T22:11:02.555Z</time>
      </trkpt>
      <trkpt lat="58.51428095251322" lon="13.06034398265183">
        <ele>75.43</ele>
        <time>2025-02-08T22:11:38.432Z</time>
      </trkpt>
      <trkpt lat="58.51429193280637" lon="13.060488989576697">
        <ele>75.49</ele>
        <time>2025-02-08T22:12:14.310Z</time>
      </trkpt>
      <trkpt lat="58.51430492475629" lon="13.060632990673184">
        <ele>75.55</ele>
        <time>2025-02-08T22:12:50.190Z</time>
      </trkpt>
      <trkpt lat="58.51432294584811" lon="13.06077598594129">
        <ele>75.62</ele>
        <time>2025-02-08T22:13:26.071Z</time>
      </trkpt>
      <trkpt lat="58.51434499025345" lon="13.060918981209397">
        <ele>75.68</ele>
        <time>2025-02-08T22:14:01.953Z</time>
      </trkpt>
      <trkpt lat="58.51437097415328" lon="13.061061976477504">
        <ele>75.75</ele>
        <time>2025-02-08T22:14:37.836Z</time>
      </trkpt>
      <trkpt lat="58.514400981366634" lon="13.06120497174561">
        <ele>75.81</ele>
        <time>2025-02-08T22:15:13.721Z</time>
      </trkpt>
      <trkpt lat="58.5144339222461" lon="13.061344949528575">
        <ele>75.87</ele>
        <time>2025-02-08T22:15:49.607Z</time>
      </trkpt>
      <trkpt lat="58.514467952772975" lon="13.061479981988668">
        <ele>75.92</ele>
        <time>2025-02-08T22:16:25.494Z</time>
      </trkpt>
      <trkpt lat="58.51450399495661" lon="13.061609985306859">
        <ele>75.98</ele>
        <time>2025-02-08T22:17:01.382Z</time>
      </trkpt>
      <trkpt lat="58.51453995332122" lon="13.061735965311527">
        <ele>76.04</ele>
        <time>2025-02-08T22:17:37.272Z</time>
      </trkpt>
      <trkpt lat="58.514573983848095" lon="13.061862951144576">
        <ele>76.09</ele>
        <time>2025-02-08T22:18:13.163Z</time>
      </trkpt>
      <trkpt lat="58.51460692472756" lon="13.061994966119528">
        <ele>76.14</ele>
        <time>2025-02-08T22:18:49.055Z</time>
      </trkpt>
      <trkpt lat="58.51464397273958" lon="13.062125975266099">
        <ele>76.19</ele>
        <time>2025-02-08T22:19:24.948Z</time>
      </trkpt>
      <trkpt lat="58.514681942760944" lon="13.062250949442387">
        <ele>76.24</ele>
        <time>2025-02-08T22:20:00.843Z</time>
      </trkpt>
      <trkpt lat="58.51471999660134" lon="13.062376929447055">
        <ele>76.29</ele>
        <time>2025-02-08T22:20:36.739Z</time>
      </trkpt>
      <trkpt lat="58.51475897245109" lon="13.062505926936865">
        <ele>76.33</ele>
        <time>2025-02-08T22:21:12.636Z</time>
      </trkpt>
      <trkpt lat="58.51479895412922" lon="13.062633918598294">
        <ele>76.38</ele>
        <time>2025-02-08T22:21:48.534Z</time>
      </trkpt>
      <trkpt lat="58.51484094746411" lon="13.062756964936852">
        <ele>76.43</ele>
        <time>2025-02-08T22:22:24.433Z</time>
      </trkpt>
      <trkpt lat="58.514882940799" lon="13.062878921627998">
        <ele>76.48</ele>
        <time>2025-02-08T22:23:00.334Z</time>
      </trkpt>
      <trkpt lat="58.51492493413389" lon="13.063000962138176">
        <ele>76.52</ele>
        <time>2025-02-08T22:23:36.236Z</time>
      </trkpt>
      <trkpt lat="58.514965921640396" lon="13.063123924657702">
        <ele>76.56</ele>
        <time>2025-02-08T22:24:12.139Z</time>
      </trkpt>
      <trkpt lat="58.515008920803666" lon="13.06324596516788">
        <ele>76.61</ele>
        <time>2025-02-08T22:24:48.043Z</time>
      </trkpt>
      <trkpt lat="58.515051919966936" lon="13.063366999849677">
        <ele>76.64</ele>
        <time>2025-02-08T22:25:23.949Z</time>
      </trkpt>
      <trkpt lat="58.515094919130206" lon="13.0634849332273">
        <ele>76.68</ele>
        <time>2025-02-08T22:25:59.856Z</time>
      </trkpt>
      <trkpt lat="58.515137918293476" lon="13.063600938767195">
        <ele>76.72</ele>
        <time>2025-02-08T22:26:35.764Z</time>
      </trkpt>
      <trkpt lat="58.5151799954474" lon="13.063715938478708">
        <ele>76.75</ele>
        <time>2025-02-08T22:27:11.673Z</time>
      </trkpt>
      <trkpt lat="58.51522299461067" lon="13.063832949846983">
        <ele>76.78</ele>
        <time>2025-02-08T22:27:47.583Z</time>
      </trkpt>
      <trkpt lat="58.51526599377394" lon="13.063951972872019">
        <ele>76.8</ele>
        <time>2025-02-08T22:28:23.495Z</time>
      </trkpt>
      <trkpt lat="58.51530899293721" lon="13.064070995897055">
        <ele>76.82</ele>
        <time>2025-02-08T22:28:59.408Z</time>
      </trkpt>
      <trkpt lat="58.51535391993821" lon="13.06419194675982">
        <ele>76.85</ele>
        <time>2025-02-08T22:29:35.322Z</time>
      </trkpt>
      <trkpt lat="58.51539792492986" lon="13.064314993098378">
        <ele>76.87</ele>
        <time>2025-02-08T22:30:11.237Z</time>
      </trkpt>
      <trkpt lat="58.51544192992151" lon="13.064439967274666">
        <ele>76.89</ele>
        <time>2025-02-08T22:30:47.154Z</time>
      </trkpt>
      <trkpt lat="58.51548593491316" lon="13.064564941450953">
        <ele>76.9</ele>
        <time>2025-02-08T22:31:23.072Z</time>
      </trkpt>
      <trkpt lat="58.51552792824805" lon="13.064690921455622">
        <ele>76.92</ele>
        <time>2025-02-08T22:31:58.991Z</time>
      </trkpt>
      <trkpt lat="58.51556992158294" lon="13.064816985279322">
        <ele>76.93</ele>
        <time>2025-02-08T22:32:34.911Z</time>
      </trkpt>
      <trkpt lat="58.51561199873686" lon="13.06494397111237">
        <ele>76.94</ele>
        <time>2025-02-08T22:33:10.833Z</time>
      </trkpt>
      <trkpt lat="58.51565298624337" lon="13.065069951117039">
        <ele>76.95</ele>
        <time>2025-02-08T22:33:46.756Z</time>
      </trkpt>
      <trkpt lat="58.515692967921495" lon="13.065197942778468">
        <ele>76.95</ele>
        <time>2025-02-08T22:34:22.680Z</time>
      </trkpt>
      <trkpt lat="58.51573194377124" lon="13.065325934439898">
        <ele>76.96</ele>
        <time>2025-02-08T22:34:58.605Z</time>
      </trkpt>
      <trkpt lat="58.51576999761164" lon="13.065454931929708">
        <ele>76.96</ele>
        <time>2025-02-08T22:35:34.532Z</time>
      </trkpt>
      <trkpt lat="58.51580696180463" lon="13.065584935247898">
        <ele>76.95</ele>
        <time>2025-02-08T22:36:10.460Z</time>
      </trkpt>
      <trkpt lat="58.515841998159885" lon="13.065713932737708">
        <ele>76.95</ele>
        <time>2025-02-08T22:36:46.389Z</time>
      </trkpt>
      <trkpt lat="58.51587493903935" lon="13.065841924399137">
        <ele>76.94</ele>
        <time>2025-02-08T22:37:22.319Z</time>
      </trkpt>
      <trkpt lat="58.515904946252704" lon="13.065968994051218">
        <ele>76.94</ele>
        <time>2025-02-08T22:37:58.250Z</time>
      </trkpt>
      <trkpt lat="58.51593495346606" lon="13.066094974055886">
        <ele>76.92</ele>
        <time>2025-02-08T22:38:34.183Z</time>
      </trkpt>
      <trkpt lat="58.51596194319427" lon="13.066218942403793">
        <ele>76.9</ele>
        <time>2025-02-08T22:39:10.117Z</time>
      </trkpt>
      <trkpt lat="58.51598692126572" lon="13.06633997708559">
        <ele>76.89</ele>
        <time>2025-02-08T22:39:46.052Z</time>
      </trkpt>
      <trkpt lat="58.51600997149944" lon="13.066456988453865">
        <ele>76.87</ele>
        <time>2025-02-08T22:40:21.988Z</time>
      </trkpt>
      <trkpt lat="58.51603193208575" lon="13.066569976508617">
        <ele>76.84</ele>
        <time>2025-02-08T22:40:57.925Z</time>
      </trkpt>
      <trkpt lat="58.51605095900595" lon="13.066677935421467">
        <ele>76.82</ele>
        <time>2025-02-08T22:41:33.863Z</time>
      </trkpt>
      <trkpt lat="58.51606898009777" lon="13.066782960668206">
        <ele>76.79</ele>
        <time>2025-02-08T22:42:09.802Z</time>
      </trkpt>
      <trkpt lat="58.51608297787607" lon="13.066887985914946">
        <ele>76.75</ele>
        <time>2025-02-08T22:42:45.742Z</time>
      </trkpt>
      <trkpt lat="58.51609295234084" lon="13.066991921514273">
        <ele>76.72</ele>
        <time>2025-02-08T22:43:21.683Z</time>
      </trkpt>
      <trkpt lat="58.516100998967886" lon="13.067094935104251">
        <ele>76.67</ele>
        <time>2025-02-08T22:43:57.624Z</time>
      </trkpt>
      <trkpt lat="58.5161089617759" lon="13.06719794869423">
        <ele>76.63</ele>
        <time>2025-02-08T22:44:33.566Z</time>
      </trkpt>
      <trkpt lat="58.51611793041229" lon="13.067299956455827">
        <ele>76.58</ele>
        <time>2025-02-08T22:45:09.509Z</time>
      </trkpt>
      <trkpt lat="58.516123965382576" lon="13.067401964217424">
        <ele>76.53</ele>
        <time>2025-02-08T22:45:45.453Z</time>
      </trkpt>
      <trkpt lat="58.51612698286772" lon="13.067505983635783">
        <ele>76.47</ele>
        <time>2025-02-08T22:46:21.398Z</time>
      </trkpt>
      <trkpt lat="58.51613293401897" lon="13.067611930891871">
        <ele>76.41</ele>
        <time>2025-02-08T22:46:57.344Z</time>
      </trkpt>
      <trkpt lat="58.516142992302775" lon="13.067720979452133">
        <ele>76.34</ele>
        <time>2025-02-08T22:47:33.291Z</time>
      </trkpt>
      <trkpt lat="58.51615095511079" lon="13.067831955850124">
        <ele>76.27</ele>
        <time>2025-02-08T22:48:09.239Z</time>
      </trkpt>
      <trkpt lat="58.51616193540394" lon="13.067943938076496">
        <ele>76.2</ele>
        <time>2025-02-08T22:48:45.188Z</time>
      </trkpt>
      <trkpt lat="58.51617492735386" lon="13.068057931959629">
        <ele>76.12</ele>
        <time>2025-02-08T22:49:21.138Z</time>
      </trkpt>
      <trkpt lat="58.516186997294426" lon="13.068174943327904">
        <ele>76.04</ele>
        <time>2025-02-08T22:49:57.089Z</time>
      </trkpt>
      <trkpt lat="58.51619898341596" lon="13.06829497218132">
        <ele>75.95</ele>
        <time>2025-02-08T22:50:33.041Z</time>
      </trkpt>
      <trkpt lat="58.51621499285102" lon="13.068418940529227">
        <ele>75.86</ele>
        <time>2025-02-08T22:51:08.994Z</time>
      </trkpt>
      <trkpt lat="58.516231924295425" lon="13.068544920533895">
        <ele>75.76</ele>
        <time>2025-02-08T22:51:44.948Z</time>
      </trkpt>
      <trkpt lat="58.516249945387244" lon="13.068669978529215">
        <ele>75.66</ele>
        <time>2025-02-08T22:52:20.903Z</time>
      </trkpt>
      <trkpt lat="58.516270983964205" lon="13.06879193522036">
        <ele>75.56</ele>
        <time>2025-02-08T22:52:56.859Z</time>
      </trkpt>
      <trkpt lat="58.516293950378895" lon="13.068913975730538">
        <ele>75.46</ele>
        <time>2025-02-08T22:53:32.816Z</time>
      </trkpt>
      <trkpt lat="58.516318928450346" lon="13.069036938250065">
        <ele>75.35</ele>
        <time>2025-02-08T22:54:08.774Z</time>
      </trkpt>
      <trkpt lat="58.51634499616921" lon="13.069161996245384">
        <ele>75.24</ele>
        <time>2025-02-08T22:54:44.733Z</time>
      </trkpt>
      <trkpt lat="58.51637399755418" lon="13.069288982078433">
        <ele>75.12</ele>
        <time>2025-02-08T22:55:20.693Z</time>
      </trkpt>
      <trkpt lat="58.516403920948505" lon="13.069418985396624">
        <ele>75.01</ele>
        <time>2025-02-08T22:55:56.655Z</time>
      </trkpt>
      <trkpt lat="58.51643593981862" lon="13.069549994543195">
        <ele>74.89</ele>
        <time>2025-02-08T22:56:32.618Z</time>
      </trkpt>
      <trkpt lat="58.51647298783064" lon="13.069681925699115">
        <ele>74.76</ele>
        <time>2025-02-08T22:57:08.582Z</time>
      </trkpt>
      <trkpt lat="58.51651498116553" lon="13.069813940674067">
        <ele>74.63</ele>
        <time>2025-02-08T22:57:44.547Z</time>
      </trkpt>
      <trkpt lat="58.51656191982329" lon="13.069946961477399">
        <ele>74.5</ele>
        <time>2025-02-08T22:58:20.514Z</time>
      </trkpt>
      <trkpt lat="58.516612965613604" lon="13.07007897645235">
        <ele>74.36</ele>
        <time>2025-02-08T22:58:56.482Z</time>
      </trkpt>
      <trkpt lat="58.51666694507003" lon="13.070210991427302">
        <ele>74.22</ele>
        <time>2025-02-08T22:59:32.452Z</time>
      </trkpt>
      <trkpt lat="58.516725953668356" lon="13.070342922583222">
        <ele>74.08</ele>
        <time>2025-02-08T23:00:08.423Z</time>
      </trkpt>
      <trkpt lat="58.516785968095064" lon="13.070478960871696">
        <ele>73.93</ele>
        <time>2025-02-08T23:00:44.395Z</time>
      </trkpt>
      <trkpt lat="58.516847994178534" lon="13.070618938654661">
        <ele>73.78</ele>
        <time>2025-02-08T23:01:20.369Z</time>
      </trkpt>
      <trkpt lat="58.51691194809973" lon="13.07076495140791">
        <ele>73.62</ele>
        <time>2025-02-08T23:01:56.345Z</time>
      </trkpt>
      <trkpt lat="58.51697498001158" lon="13.07091792114079">
        <ele>73.47</ele>
        <time>2025-02-08T23:02:32.322Z</time>
      </trkpt>
      <trkpt lat="58.51703591644764" lon="13.071079943329096">
        <ele>73.31</ele>
        <time>2025-02-08T23:03:08.301Z</time>
      </trkpt>
      <trkpt lat="58.51709492504597" lon="13.071247916668653">
        <ele>73.16</ele>
        <time>2025-02-08T23:03:44.282Z</time>
      </trkpt>
      <trkpt lat="58.517150999978185" lon="13.071420919150114">
        <ele>73.01</ele>
        <time>2025-02-08T23:04:20.264Z</time>
      </trkpt>
      <trkpt lat="58.51720497943461" lon="13.071596939116716">
        <ele>72.86</ele>
        <time>2025-02-08T23:04:56.248Z</time>
      </trkpt>
      <trkpt lat="58.51725694723427" lon="13.07177597656846">
        <ele>72.7</ele>
        <time>2025-02-08T23:05:32.234Z</time>
      </trkpt>
      <trkpt lat="58.51730598136783" lon="13.071956941857934">
        <ele>72.54</ele>
        <time>2025-02-08T23:06:08.221Z</time>
      </trkpt>
      <trkpt lat="58.51735493168235" lon="13.072136985138059">
        <ele>72.38</ele>
        <time>2025-02-08T23:06:44.210Z</time>
      </trkpt>
      <trkpt lat="58.51740295998752" lon="13.07231493294239">
        <ele>72.22</ele>
        <time>2025-02-08T23:07:20.201Z</time>
      </trkpt>
      <trkpt lat="58.51744998246431" lon="13.072492964565754">
        <ele>72.06</ele>
        <time>2025-02-08T23:07:56.194Z</time>
      </trkpt>
      <trkpt lat="58.517494993284345" lon="13.072667978703976">
        <ele>71.9</ele>
        <time>2025-02-08T23:08:32.188Z</time>
      </trkpt>
      <trkpt lat="58.517538998275995" lon="13.072840981185436">
        <ele>71.74</ele>
        <time>2025-02-08T23:09:08.184Z</time>
      </trkpt>
      <trkpt lat="58.517579985782504" lon="13.073011972010136">
        <ele>71.57</ele>
        <time>2025-02-08T23:09:44.181Z</time>
      </trkpt>
      <trkpt lat="58.51761896163225" lon="13.073180951178074">
        <ele>71.41</ele>
        <time>2025-02-08T23:10:20.180Z</time>
      </trkpt>
      <trkpt lat="58.51765491999686" lon="13.073346996679902">
        <ele>71.24</ele>
        <time>2025-02-08T23:10:56.180Z</time>
      </trkpt>
      <trkpt lat="58.517688950523734" lon="13.07351497001946">
        <ele>71.07</ele>
        <time>2025-02-08T23:11:32.182Z</time>
      </trkpt>
      <trkpt lat="58.51772197522223" lon="13.073681937530637">
        <ele>70.9</ele>
        <time>2025-02-08T23:12:08.185Z</time>
      </trkpt>
      <trkpt lat="58.517753994092345" lon="13.073848988860846">
        <ele>70.72</ele>
        <time>2025-02-08T23:12:44.190Z</time>
      </trkpt>
      <trkpt lat="58.51778391748667" lon="13.074017968028784">
        <ele>70.54</ele>
        <time>2025-02-08T23:13:20.196Z</time>
      </trkpt>
      <trkpt lat="58.51781291887164" lon="13.074188958853483">
        <ele>70.37</ele>
        <time>2025-02-08T23:13:56.204Z</time>
      </trkpt>
      <trkpt lat="58.517840998247266" lon="13.074359949678183">
        <ele>70.19</ele>
        <time>2025-02-08T23:14:32.213Z</time>
      </trkpt>
      <trkpt lat="58.51786999963224" lon="13.074529934674501">
        <ele>70.02</ele>
        <time>2025-02-08T23:15:08.224Z</time>
      </trkpt>
      <trkpt lat="58.51789992302656" lon="13.074698997661471">
        <ele>69.84</ele>
        <time>2025-02-08T23:15:44.236Z</time>
      </trkpt>
      <trkpt lat="58.51793194189668" lon="13.074864959344268">
        <ele>69.66</ele>
        <time>2025-02-08T23:16:20.250Z</time>
      </trkpt>
      <trkpt lat="58.517967984080315" lon="13.075028993189335">
        <ele>69.48</ele>
        <time>2025-02-08T23:16:56.265Z</time>
      </trkpt>
      <trkpt lat="58.51800796575844" lon="13.075187997892499">
        <ele>69.3</ele>
        <time>2025-02-08T23:17:32.282Z</time>
      </trkpt>
      <trkpt lat="58.51804995909333" lon="13.075343985110521">
        <ele>69.12</ele>
        <time>2025-02-08T23:18:08.300Z</time>
      </trkpt>
      <trkpt lat="58.5180929582566" lon="13.075496954843402">
        <ele>68.95</ele>
        <time>2025-02-08T23:18:44.320Z</time>
      </trkpt>
      <trkpt lat="58.51813796907663" lon="13.075645985081792">
        <ele>68.78</ele>
        <time>2025-02-08T23:19:20.341Z</time>
      </trkpt>
      <trkpt lat="58.518184991553426" lon="13.07579099200666">
        <ele>68.6</ele>
        <time>2025-02-08T23:19:56.364Z</time>
      </trkpt>
      <trkpt lat="58.518231930211186" lon="13.075932981446385">
        <ele>68.41</ele>
        <time>2025-02-08T23:20:32.388Z</time>
      </trkpt>
      <trkpt lat="58.51827895268798" lon="13.07607396505773">
        <ele>68.23</ele>
        <time>2025-02-08T23:21:08.414Z</time>
      </trkpt>
      <trkpt lat="58.51832597516477" lon="13.076215954497457">
        <ele>68.05</ele>
        <time>2025-02-08T23:21:44.441Z</time>
      </trkpt>
      <trkpt lat="58.51837593130767" lon="13.07635392062366">
        <ele>67.87</ele>
        <time>2025-02-08T23:22:20.469Z</time>
      </trkpt>
      <trkpt lat="58.51842597126961" lon="13.076488953083754">
        <ele>67.69</ele>
        <time>2025-02-08T23:22:56.499Z</time>
      </trkpt>
      <trkpt lat="58.51847492158413" lon="13.076621973887086">
        <ele>67.52</ele>
        <time>2025-02-08T23:23:32.530Z</time>
      </trkpt>
      <trkpt lat="58.51852395571768" lon="13.076751977205276">
        <ele>67.34</ele>
        <time>2025-02-08T23:24:08.562Z</time>
      </trkpt>
      <trkpt lat="58.518570978194475" lon="13.076881980523467">
        <ele>67.16</ele>
        <time>2025-02-08T23:24:44.596Z</time>
      </trkpt>
      <trkpt lat="58.518615989014506" lon="13.077012989670038">
        <ele>66.98</ele>
        <time>2025-02-08T23:25:20.631Z</time>
      </trkpt>
      <trkpt lat="58.51866099983454" lon="13.07714693248272">
        <ele>66.8</ele>
        <time>2025-02-08T23:25:56.667Z</time>
      </trkpt>
      <trkpt lat="58.518704921007156" lon="13.077282970771194">
        <ele>66.62</ele>
        <time>2025-02-08T23:26:32.705Z</time>
      </trkpt>
      <trkpt lat="58.51874892599881" lon="13.077422948554158">
        <ele>66.44</ele>
        <time>2025-02-08T23:27:08.744Z</time>
      </trkpt>
      <trkpt lat="58.51879393681884" lon="13.077565943822265">
        <ele>66.26</ele>
        <time>2025-02-08T23:27:44.785Z</time>
      </trkpt>
      <trkpt lat="58.51884095929563" lon="13.077712962403893">
        <ele>66.08</ele>
        <time>2025-02-08T23:28:20.827Z</time>
      </trkpt>
      <trkpt lat="58.518889993429184" lon="13.077864926308393">
        <ele>65.9</ele>
        <time>2025-02-08T23:28:56.870Z</time>
      </trkpt>
      <trkpt lat="58.518938943743706" lon="13.078016974031925">
        <ele>65.72</ele>
        <time>2025-02-08T23:29:32.915Z</time>
      </trkpt>
      <trkpt lat="58.51898797787726" lon="13.078171955421567">
        <ele>65.54</ele>
        <time>2025-02-08T23:30:08.961Z</time>
      </trkpt>
      <trkpt lat="58.51903491653502" lon="13.078330960124731">
        <ele>65.36</ele>
        <time>2025-02-08T23:30:45.009Z</time>
      </trkpt>
      <trkpt lat="58.51908193901181" lon="13.078492982313037">
        <ele>65.19</ele>
        <time>2025-02-08T23:31:21.059Z</time>
      </trkpt>
      <trkpt lat="58.519129967316985" lon="13.078656932339072">
        <ele>65.02</ele>
        <time>2025-02-08T23:31:57.110Z</time>
      </trkpt>
      <trkpt lat="58.51917799562216" lon="13.0788229778409">
        <ele>64.85</ele>
        <time>2025-02-08T23:32:33.163Z</time>
      </trkpt>
      <trkpt lat="58.51922493427992" lon="13.078989945352077">
        <ele>64.67</ele>
        <time>2025-02-08T23:33:09.217Z</time>
      </trkpt>
      <trkpt lat="58.51927296258509" lon="13.079156996682286">
        <ele>64.5</ele>
        <time>2025-02-08T23:33:45.273Z</time>
      </trkpt>
      <trkpt lat="58.519320990890265" lon="13.079322958365083">
        <ele>64.34</ele>
        <time>2025-02-08T23:34:21.331Z</time>
      </trkpt>
      <trkpt lat="58.51937094703317" lon="13.07949093170464">
        <ele>64.17</ele>
        <time>2025-02-08T23:34:57.390Z</time>
      </trkpt>
      <trkpt lat="58.51941998116672" lon="13.07966091670096">
        <ele>64.01</ele>
        <time>2025-02-08T23:35:33.451Z</time>
      </trkpt>
      <trkpt lat="58.51946792565286" lon="13.07983098551631">
        <ele>63.84</ele>
        <time>2025-02-08T23:36:09.513Z</time>
      </trkpt>
      <trkpt lat="58.519515953958035" lon="13.080000970512629">
        <ele>63.68</ele>
        <time>2025-02-08T23:36:45.577Z</time>
      </trkpt>
      <trkpt lat="58.51956498809159" lon="13.080170955508947">
        <ele>63.52</ele>
        <time>2025-02-08T23:37:21.643Z</time>
      </trkpt>
      <trkpt lat="58.51961393840611" lon="13.080339934676886">
        <ele>63.36</ele>
        <time>2025-02-08T23:37:57.710Z</time>
      </trkpt>
      <trkpt lat="58.51966297253966" lon="13.080508997663856">
        <ele>63.2</ele>
        <time>2025-02-08T23:38:33.779Z</time>
      </trkpt>
      <trkpt lat="58.519711922854185" lon="13.080677976831794">
        <ele>63.04</ele>
        <time>2025-02-08T23:39:09.849Z</time>
      </trkpt>
      <trkpt lat="58.5197579395026" lon="13.080846955999732">
        <ele>62.89</ele>
        <time>2025-02-08T23:39:45.921Z</time>
      </trkpt>
      <trkpt lat="58.51980496197939" lon="13.08101492933929">
        <ele>62.74</ele>
        <time>2025-02-08T23:40:21.995Z</time>
      </trkpt>
      <trkpt lat="58.5198509786278" lon="13.08118399232626">
        <ele>62.59</ele>
        <time>2025-02-08T23:40:58.070Z</time>
      </trkpt>
      <trkpt lat="58.51989297196269" lon="13.08135598897934">
        <ele>62.45</ele>
        <time>2025-02-08T23:41:34.147Z</time>
      </trkpt>
      <trkpt lat="58.51993295364082" lon="13.08153192512691">
        <ele>62.3</ele>
        <time>2025-02-08T23:42:10.225Z</time>
      </trkpt>
      <trkpt lat="58.519967989996076" lon="13.081707945093513">
        <ele>62.15</ele>
        <time>2025-02-08T23:42:46.305Z</time>
      </trkpt>
      <trkpt lat="58.51999891921878" lon="13.081882959231734">
        <ele>62.01</ele>
        <time>2025-02-08T23:43:22.387Z</time>
      </trkpt>
      <trkpt lat="58.52002892643213" lon="13.082055961713195">
        <ele>61.87</ele>
        <time>2025-02-08T23:43:58.470Z</time>
      </trkpt>
      <trkpt lat="58.520057927817106" lon="13.082225946709514">
        <ele>61.73</ele>
        <time>2025-02-08T23:44:34.555Z</time>
      </trkpt>
      <trkpt lat="58.5200859233737" lon="13.082393920049071">
        <ele>61.59</ele>
        <time>2025-02-08T23:45:10.641Z</time>
      </trkpt>
      <trkpt lat="58.52011299692094" lon="13.08256197720766">
        <ele>61.46</ele>
        <time>2025-02-08T23:45:46.729Z</time>
      </trkpt>
      <trkpt lat="58.520137974992394" lon="13.082729950547218">
        <ele>61.32</ele>
        <time>2025-02-08T23:46:22.818Z</time>
      </trkpt>
      <trkpt lat="58.520160941407084" lon="13.082898929715157">
        <ele>61.19</ele>
        <time>2025-02-08T23:46:58.909Z</time>
      </trkpt>
      <trkpt lat="58.52018499746919" lon="13.083067992702127">
        <ele>61.06</ele>
        <time>2025-02-08T23:47:35.001Z</time>
      </trkpt>
      <trkpt lat="58.52021098136902" lon="13.083236971870065">
        <ele>60.93</ele>
        <time>2025-02-08T23:48:11.094Z</time>
      </trkpt>
      <trkpt lat="58.52023696526885" lon="13.083407962694764">
        <ele>60.8</ele>
        <time>2025-02-08T23:48:47.189Z</time>
      </trkpt>
      <trkpt lat="58.5202619433403" lon="13.083579959347844">
        <ele>60.67</ele>
        <time>2025-02-08T23:49:23.285Z</time>
      </trkpt>
      <trkpt lat="58.52028792724013" lon="13.083752961829305">
        <ele>60.55</ele>
        <time>2025-02-08T23:49:59.383Z</time>
      </trkpt>
      <trkpt lat="58.520312989130616" lon="13.083923952654004">
        <ele>60.43</ele>
        <time>2025-02-08T23:50:35.482Z</time>
      </trkpt>
      <trkpt lat="58.52033997885883" lon="13.084092931821942">
        <ele>60.31</ele>
        <time>2025-02-08T23:51:11.583Z</time>
      </trkpt>
      <trkpt lat="58.52036596275866" lon="13.084260988980532">
        <ele>60.19</ele>
        <time>2025-02-08T23:51:47.685Z</time>
      </trkpt>
      <trkpt lat="58.52038892917335" lon="13.084426950663328">
        <ele>60.07</ele>
        <time>2025-02-08T23:52:23.789Z</time>
      </trkpt>
      <trkpt lat="58.52041097357869" lon="13.084593918174505">
        <ele>59.96</ele>
        <time>2025-02-08T23:52:59.894Z</time>
      </trkpt>
      <trkpt lat="58.52043192833662" lon="13.084761975333095">
        <ele>59.85</ele>
        <time>2025-02-08T23:53:36.001Z</time>
      </trkpt>
      <trkpt lat="58.52045397274196" lon="13.084932966157794">
        <ele>59.73</ele>
        <time>2025-02-08T23:54:12.109Z</time>
      </trkpt>
      <trkpt lat="58.52047593332827" lon="13.085106974467635">
        <ele>59.63</ele>
        <time>2025-02-08T23:54:48.219Z</time>
      </trkpt>
      <trkpt lat="58.52049697190523" lon="13.085280982777476">
        <ele>59.52</ele>
        <time>2025-02-08T23:55:24.330Z</time>
      </trkpt>
      <trkpt lat="58.52051398716867" lon="13.085453985258937">
        <ele>59.41</ele>
        <time>2025-02-08T23:56:00.443Z</time>
      </trkpt>
      <trkpt lat="58.520527984946966" lon="13.085624976083636">
        <ele>59.31</ele>
        <time>2025-02-08T23:56:36.557Z</time>
      </trkpt>
      <trkpt lat="58.52053896524012" lon="13.085793955251575">
        <ele>59.2</ele>
        <time>2025-02-08T23:57:12.673Z</time>
      </trkpt>
      <trkpt lat="58.520548939704895" lon="13.085959916934371">
        <ele>59.1</ele>
        <time>2025-02-08T23:57:48.790Z</time>
      </trkpt>
      <trkpt lat="58.52055991999805" lon="13.086122944951057">
        <ele>59.0</ele>
        <time>2025-02-08T23:58:24.908Z</time>
      </trkpt>
      <trkpt lat="58.520570984110236" lon="13.086285972967744">
        <ele>58.9</ele>
        <time>2025-02-08T23:59:01.028Z</time>
      </trkpt>
      <trkpt lat="58.52058196440339" lon="13.086448917165399">
        <ele>58.81</ele>
        <time>2025-02-08T23:59:37.149Z</time>
      </trkpt>
      <trkpt lat="58.520592944696546" lon="13.086608927696943">
        <ele>58.71</ele>
        <time>2025-02-09T00:00:13.272Z</time>
      </trkpt>
      <trkpt lat="58.52060493081808" lon="13.086766926571727">
        <ele>58.62</ele>
        <time>2025-02-09T00:00:49.396Z</time>
      </trkpt>
      <trkpt lat="58.520616916939616" lon="13.08692299760878">
        <ele>58.52</ele>
        <time>2025-02-09T00:01:25.521Z</time>
      </trkpt>
      <trkpt lat="58.520630998536944" lon="13.087077978998423">
        <ele>58.42</ele>
        <time>2025-02-09T00:02:01.647Z</time>
      </trkpt>
      <trkpt lat="58.52064692415297" lon="13.087229942902923">
        <ele>58.33</ele>
        <time>2025-02-09T00:02:37.775Z</time>
      </trkpt>
      <trkpt lat="58.52066595107317" lon="13.087379978969693">
        <ele>58.25</ele>
        <time>2025-02-09T00:03:13.904Z</time>
      </trkpt>
      <trkpt lat="58.52068698965013" lon="13.087530937045813">
        <ele>58.16</ele>
        <time>2025-02-09T00:03:50.034Z</time>
      </trkpt>
      <trkpt lat="58.52070895023644" lon="13.087682984769344">
        <ele>58.07</ele>
        <time>2025-02-09T00:04:26.166Z</time>
      </trkpt>
      <trkpt lat="58.5207299888134" lon="13.087835954502225">
        <ele>57.99</ele>
        <time>2025-02-09T00:05:02.299Z</time>
      </trkpt>
      <trkpt lat="58.52075094357133" lon="13.087988924235106">
        <ele>57.9</ele>
        <time>2025-02-09T00:05:38.433Z</time>
      </trkpt>
      <trkpt lat="58.52077198214829" lon="13.088141977787018">
        <ele>57.83</ele>
        <time>2025-02-09T00:06:14.569Z</time>
      </trkpt>
      <trkpt lat="58.52079293690622" lon="13.088293941691518">
        <ele>57.75</ele>
        <time>2025-02-09T00:06:50.706Z</time>
      </trkpt>
      <trkpt lat="58.52081598713994" lon="13.08844598941505">
        <ele>57.67</ele>
        <time>2025-02-09T00:07:26.844Z</time>
      </trkpt>
      <trkpt lat="58.52083995938301" lon="13.088596947491169">
        <ele>57.59</ele>
        <time>2025-02-09T00:08:02.984Z</time>
      </trkpt>
      <trkpt lat="58.52086493745446" lon="13.0887489952147">
        <ele>57.51</ele>
        <time>2025-02-09T00:08:39.125Z</time>
      </trkpt>
      <trkpt lat="58.520890921354294" lon="13.08889995329082">
        <ele>57.43</ele>
        <time>2025-02-09T00:09:15.267Z</time>
      </trkpt>
      <trkpt lat="58.52091891691089" lon="13.089050995185971">
        <ele>57.35</ele>
        <time>2025-02-09T00:09:51.411Z</time>
      </trkpt>
      <trkpt lat="58.52094599045813" lon="13.08920094743371">
        <ele>57.27</ele>
        <time>2025-02-09T00:10:27.556Z</time>
      </trkpt>
      <trkpt lat="58.520974991843104" lon="13.08934897184372">
        <ele>57.19</ele>
        <time>2025-02-09T00:11:03.702Z</time>
      </trkpt>
      <trkpt lat="58.52100399322808" lon="13.089494984596968">
        <ele>57.12</ele>
        <time>2025-02-09T00:11:39.850Z</time>
      </trkpt>
      <trkpt lat="58.52103299461305" lon="13.089637979865074">
        <ele>57.05</ele>
        <time>2025-02-09T00:12:15.999Z</time>
      </trkpt>
      <trkpt lat="58.521061995998025" lon="13.0897799693048">
        <ele>56.98</ele>
        <time>2025-02-09T00:12:52.149Z</time>
      </trkpt>
      <trkpt lat="58.52109191939235" lon="13.089922964572906">
        <ele>56.91</ele>
        <time>2025-02-09T00:13:28.301Z</time>
      </trkpt>
      <trkpt lat="58.52112393826246" lon="13.090063948184252">
        <ele>56.83</ele>
        <time>2025-02-09T00:14:04.454Z</time>
      </trkpt>
      <trkpt lat="58.52115595713258" lon="13.090204931795597">
        <ele>56.76</ele>
        <time>2025-02-09T00:14:40.608Z</time>
      </trkpt>
      <trkpt lat="58.52118797600269" lon="13.090347927063704">
        <ele>56.7</ele>
        <time>2025-02-09T00:15:16.763Z</time>
      </trkpt>
      <trkpt lat="58.52121898904443" lon="13.09049192816019">
        <ele>56.63</ele>
        <time>2025-02-09T00:15:52.920Z</time>
      </trkpt>
      <trkpt lat="58.52125192992389" lon="13.090637940913439">
        <ele>56.56</ele>
        <time>2025-02-09T00:16:29.078Z</time>
      </trkpt>
      <trkpt lat="58.52128495462239" lon="13.090783953666687">
        <ele>56.5</ele>
        <time>2025-02-09T00:17:05.237Z</time>
      </trkpt>
      <trkpt lat="58.521317979320884" lon="13.090928960591555">
        <ele>56.43</ele>
        <time>2025-02-09T00:17:41.398Z</time>
      </trkpt>
      <trkpt lat="58.52135092020035" lon="13.091072961688042">
        <ele>56.36</ele>
        <time>2025-02-09T00:18:17.560Z</time>
      </trkpt>
      <trkpt lat="58.52138293907046" lon="13.091214951127768">
        <ele>56.29</ele>
        <time>2025-02-09T00:18:53.723Z</time>
      </trkpt>
      <trkpt lat="58.52141194045544" lon="13.091356940567493">
        <ele>56.22</ele>
        <time>2025-02-09T00:19:29.888Z</time>
      </trkpt>
      <trkpt lat="58.52144194766879" lon="13.09149893000722">
        <ele>56.16</ele>
        <time>2025-02-09T00:20:06.054Z</time>
      </trkpt>
      <trkpt lat="58.521471954882145" lon="13.091642931103706">
        <ele>56.09</ele>
        <time>2025-02-09T00:20:42.221Z</time>
      </trkpt>
      <trkpt lat="58.52149894461036" lon="13.091788943856955">
        <ele>56.02</ele>
        <time>2025-02-09T00:21:18.389Z</time>
      </trkpt>
      <trkpt lat="58.52152593433857" lon="13.091935962438583">
        <ele>55.94</ele>
        <time>2025-02-09T00:21:54.559Z</time>
      </trkpt>
      <trkpt lat="58.5215519182384" lon="13.092084992676973">
        <ele>55.88</ele>
        <time>2025-02-09T00:22:30.730Z</time>
      </trkpt>
      <trkpt lat="58.52157496847212" lon="13.092235950753093">
        <ele>55.81</ele>
        <time>2025-02-09T00:23:06.902Z</time>
      </trkpt>
      <trkpt lat="58.52159491740167" lon="13.092390932142735">
        <ele>55.74</ele>
        <time>2025-02-09T00:23:43.076Z</time>
      </trkpt>
      <trkpt lat="58.52160992100835" lon="13.092547925189137">
        <ele>55.68</ele>
        <time>2025-02-09T00:24:19.251Z</time>
      </trkpt>
      <trkpt lat="58.521619979292154" lon="13.092710953205824">
        <ele>55.61</ele>
        <time>2025-02-09T00:24:55.427Z</time>
      </trkpt>
      <trkpt lat="58.52162794210017" lon="13.092876998707652">
        <ele>55.54</ele>
        <time>2025-02-09T00:25:31.605Z</time>
      </trkpt>
      <trkpt lat="58.52163297124207" lon="13.093047989532351">
        <ele>55.47</ele>
        <time>2025-02-09T00:26:07.784Z</time>
      </trkpt>
      <trkpt lat="58.52163498289883" lon="13.093220992013812">
        <ele>55.39</ele>
        <time>2025-02-09T00:26:43.965Z</time>
      </trkpt>
      <trkpt lat="58.52163397707045" lon="13.093396928161383">
        <ele>55.33</ele>
        <time>2025-02-09T00:27:20.147Z</time>
      </trkpt>
      <trkpt lat="58.52163196541369" lon="13.093573953956366">
        <ele>55.26</ele>
        <time>2025-02-09T00:27:56.331Z</time>
      </trkpt>
      <trkpt lat="58.52162894792855" lon="13.09375299140811">
        <ele>55.2</ele>
        <time>2025-02-09T00:28:32.516Z</time>
      </trkpt>
      <trkpt lat="58.521622996777296" lon="13.093931945040822">
        <ele>55.13</ele>
        <time>2025-02-09T00:29:08.703Z</time>
      </trkpt>
      <trkpt lat="58.52161796763539" lon="13.094109976664186">
        <ele>55.07</ele>
        <time>2025-02-09T00:29:44.891Z</time>
      </trkpt>
      <trkpt lat="58.52161293849349" lon="13.094288930296898">
        <ele>55.01</ele>
        <time>2025-02-09T00:30:21.081Z</time>
      </trkpt>
      <trkpt lat="58.521608998999" lon="13.094467967748642">
        <ele>54.94</ele>
        <time>2025-02-09T00:30:57.272Z</time>
      </trkpt>
      <trkpt lat="58.52160497568548" lon="13.094647927209735">
        <ele>54.87</ele>
        <time>2025-02-09T00:31:33.465Z</time>
      </trkpt>
      <trkpt lat="58.521600952371955" lon="13.09482897631824">
        <ele>54.8</ele>
        <time>2025-02-09T00:32:09.659Z</time>
      </trkpt>
      <trkpt lat="58.52159692905843" lon="13.095011953264475">
        <ele>54.73</ele>
        <time>2025-02-09T00:32:45.855Z</time>
      </trkpt>
      <trkpt lat="58.52159399539232" lon="13.09519694186747">
        <ele>54.66</ele>
        <time>2025-02-09T00:33:22.052Z</time>
      </trkpt>
      <trkpt lat="58.5215899720788" lon="13.095381930470467">
        <ele>54.6</ele>
        <time>2025-02-09T00:33:58.251Z</time>
      </trkpt>
      <trkpt lat="58.52158695459366" lon="13.095564991235733">
        <ele>54.54</ele>
        <time>2025-02-09T00:34:34.451Z</time>
      </trkpt>
      <trkpt lat="58.52158594876528" lon="13.095745956525207">
        <ele>54.47</ele>
        <time>2025-02-09T00:35:10.653Z</time>
      </trkpt>
      <trkpt lat="58.5215849429369" lon="13.09592692181468">
        <ele>54.41</ele>
        <time>2025-02-09T00:35:46.856Z</time>
      </trkpt>
      <trkpt lat="58.5215849429369" lon="13.096107970923185">
        <ele>54.35</ele>
        <time>2025-02-09T00:36:23.061Z</time>
      </trkpt>
      <trkpt lat="58.52158695459366" lon="13.096287930384278">
        <ele>54.29</ele>
        <time>2025-02-09T00:36:59.268Z</time>
      </trkpt>
      <trkpt lat="58.5215899720788" lon="13.09646395035088">
        <ele>54.23</ele>
        <time>2025-02-09T00:37:35.476Z</time>
      </trkpt>
      <trkpt lat="58.52159491740167" lon="13.09663594700396">
        <ele>54.16</ele>
        <time>2025-02-09T00:38:11.685Z</time>
      </trkpt>
      <trkpt lat="58.52159793488681" lon="13.096801992505789">
        <ele>54.1</ele>
        <time>2025-02-09T00:38:47.896Z</time>
      </trkpt>
      <trkpt lat="58.521599946543574" lon="13.096964936703444">
        <ele>54.04</ele>
        <time>2025-02-09T00:39:24.108Z</time>
      </trkpt>
      <trkpt lat="58.521601958200336" lon="13.097122935578227">
        <ele>53.99</ele>
        <time>2025-02-09T00:40:00.322Z</time>
      </trkpt>
      <trkpt lat="58.521602964028716" lon="13.097274983301759">
        <ele>53.93</ele>
        <time>2025-02-09T00:40:36.537Z</time>
      </trkpt>
      <trkpt lat="58.521600952371955" lon="13.097425941377878">
        <ele>53.87</ele>
        <time>2025-02-09T00:41:12.753Z</time>
      </trkpt>
      <trkpt lat="58.521599946543574" lon="13.09757698327303">
        <ele>53.8</ele>
        <time>2025-02-09T00:41:48.970Z</time>
      </trkpt>
      <trkpt lat="58.521598940715194" lon="13.09772894717753">
        <ele>53.75</ele>
        <time>2025-02-09T00:42:25.189Z</time>
      </trkpt>
      <trkpt lat="58.52159793488681" lon="13.09788292273879">
        <ele>53.69</ele>
        <time>2025-02-09T00:43:01.409Z</time>
      </trkpt>
      <trkpt lat="58.52159692905843" lon="13.098037987947464">
        <ele>53.63</ele>
        <time>2025-02-09T00:43:37.630Z</time>
      </trkpt>
      <trkpt lat="58.52159491740167" lon="13.098194980993867">
        <ele>53.56</ele>
        <time>2025-02-09T00:44:13.853Z</time>
      </trkpt>
      <trkpt lat="58.52159399539232" lon="13.098353985697031">
        <ele>53.5</ele>
        <time>2025-02-09T00:44:50.077Z</time>
      </trkpt>
      <trkpt lat="58.52159298956394" lon="13.098512990400195">
        <ele>53.44</ele>
        <time>2025-02-09T00:45:26.302Z</time>
      </trkpt>
      <trkpt lat="58.52159198373556" lon="13.098672917112708">
        <ele>53.38</ele>
        <time>2025-02-09T00:46:02.529Z</time>
      </trkpt>
      <trkpt lat="58.52159097790718" lon="13.098830999806523">
        <ele>53.31</ele>
        <time>2025-02-09T00:46:38.757Z</time>
      </trkpt>
      <trkpt lat="58.5215899720788" lon="13.098989920690656">
        <ele>53.24</ele>
        <time>2025-02-09T00:47:14.986Z</time>
      </trkpt>
      <trkpt lat="58.52158695459366" lon="13.0991499312222">
        <ele>53.18</ele>
        <time>2025-02-09T00:47:51.217Z</time>
      </trkpt>
      <trkpt lat="58.52158393710852" lon="13.099309941753745">
        <ele>53.11</ele>
        <time>2025-02-09T00:48:27.449Z</time>
      </trkpt>
      <trkpt lat="58.521582931280136" lon="13.099472969770432">
        <ele>53.05</ele>
        <time>2025-02-09T00:49:03.682Z</time>
      </trkpt>
      <trkpt lat="58.521581925451756" lon="13.099637925624847">
        <ele>52.99</ele>
        <time>2025-02-09T00:49:39.917Z</time>
      </trkpt>
      <trkpt lat="58.521580919623375" lon="13.099802965298295">
        <ele>52.93</ele>
        <time>2025-02-09T00:50:16.153Z</time>
      </trkpt>
      <trkpt lat="58.521578991785645" lon="13.099968926981091">
        <ele>52.87</ele>
        <time>2025-02-09T00:50:52.390Z</time>
      </trkpt>
      <trkpt lat="58.521575974300504" lon="13.100132960826159">
        <ele>52.81</ele>
        <time>2025-02-09T00:51:28.629Z</time>
      </trkpt>
      <trkpt lat="58.52157396264374" lon="13.100297916680574">
        <ele>52.75</ele>
        <time>2025-02-09T00:52:04.869Z</time>
      </trkpt>
      <trkpt lat="58.5215709451586" lon="13.100466979667544">
        <ele>52.69</ele>
        <time>2025-02-09T00:52:41.111Z</time>
      </trkpt>
      <trkpt lat="58.52156792767346" lon="13.100636964663863">
        <ele>52.63</ele>
        <time>2025-02-09T00:53:17.354Z</time>
      </trkpt>
      <trkpt lat="58.52156499400735" lon="13.100807955488563">
        <ele>52.57</ele>
        <time>2025-02-09T00:53:53.598Z</time>
      </trkpt>
      <trkpt lat="58.52156298235059" lon="13.1009769346565">
        <ele>52.51</ele>
        <time>2025-02-09T00:54:29.844Z</time>
      </trkpt>
      <trkpt lat="58.52156097069383" lon="13.10114398598671">
        <ele>52.46</ele>
        <time>2025-02-09T00:55:06.091Z</time>
      </trkpt>
      <trkpt lat="58.521558959037066" lon="13.101310953497887">
        <ele>52.4</ele>
        <time>2025-02-09T00:55:42.340Z</time>
      </trkpt>
      <trkpt lat="58.521555941551924" lon="13.101478926837444">
        <ele>52.34</ele>
        <time>2025-02-09T00:56:18.590Z</time>
      </trkpt>
      <trkpt lat="58.5215519182384" lon="13.101646983996034">
        <ele>52.28</ele>
        <time>2025-02-09T00:56:54.842Z</time>
      </trkpt>
      <trkpt lat="58.52154999040067" lon="13.101816968992352">
        <ele>52.23</ele>
        <time>2025-02-09T00:57:31.095Z</time>
      </trkpt>
      <trkpt lat="58.52154999040067" lon="13.10198594816029">
        <ele>52.18</ele>
        <time>2025-02-09T00:58:07.349Z</time>
      </trkpt>
      <trkpt lat="58.5215519182384" lon="13.102154927328229">
        <ele>52.13</ele>
        <time>2025-02-09T00:58:43.605Z</time>
      </trkpt>
      <trkpt lat="58.52155292406678" lon="13.102486934512854">
        <ele>52.08</ele>
        <time>2025-02-09T00:59:19.864Z</time>
      </trkpt>
      <trkpt lat="58.52154596708715" lon="13.102809973061085">
        <ele>52.02</ele>
        <time>2025-02-09T00:59:56.125Z</time>
      </trkpt>
      <trkpt lat="58.52154496125877" lon="13.102889936417341">
        <ele>51.96</ele>
        <time>2025-02-09T01:00:32.387Z</time>
      </trkpt>
      <trkpt lat="58.52154294960201" lon="13.102968977764249">
        <ele>51.91</ele>
        <time>2025-02-09T01:01:08.650Z</time>
      </trkpt>
      <trkpt lat="58.521537920460105" lon="13.103131921961904">
        <ele>51.86</ele>
        <time>2025-02-09T01:01:44.914Z</time>
      </trkpt>
      <trkpt lat="58.521534986793995" lon="13.10329595580697">
        <ele>51.81</ele>
        <time>2025-02-09T01:02:21.179Z</time>
      </trkpt>
      <trkpt lat="58.52153196930885" lon="13.103459989652038">
        <ele>51.75</ele>
        <time>2025-02-09T01:02:57.446Z</time>
      </trkpt>
      <trkpt lat="58.52152694016695" lon="13.103621928021312">
        <ele>51.7</ele>
        <time>2025-02-09T01:03:33.714Z</time>
      </trkpt>
      <trkpt lat="58.52152199484408" lon="13.103782944381237">
        <ele>51.65</ele>
        <time>2025-02-09T01:04:09.983Z</time>
      </trkpt>
      <trkpt lat="58.521512942388654" lon="13.103942954912782">
        <ele>51.6</ele>
        <time>2025-02-09T01:04:46.254Z</time>
      </trkpt>
      <trkpt lat="58.52150397375226" lon="13.104102965444326">
        <ele>51.55</ele>
        <time>2025-02-09T01:05:22.526Z</time>
      </trkpt>
      <trkpt lat="58.521492993459105" lon="13.104263981804252">
        <ele>51.51</ele>
        <time>2025-02-09T01:05:58.800Z</time>
      </trkpt>
      <trkpt lat="58.52147899568081" lon="13.104425920173526">
        <ele>51.47</ele>
        <time>2025-02-09T01:06:35.075Z</time>
      </trkpt>
      <trkpt lat="58.52146298624575" lon="13.104590959846973">
        <ele>51.43</ele>
        <time>2025-02-09T01:07:11.351Z</time>
      </trkpt>
      <trkpt lat="58.52144496515393" lon="13.10475792735815">
        <ele>51.39</ele>
        <time>2025-02-09T01:07:47.629Z</time>
      </trkpt>
      <trkpt lat="58.52142493240535" lon="13.104921961203218">
        <ele>51.35</ele>
        <time>2025-02-09T01:08:23.908Z</time>
      </trkpt>
      <trkpt lat="58.52140297181904" lon="13.105084989219904">
        <ele>51.31</ele>
        <time>2025-02-09T01:09:00.189Z</time>
      </trkpt>
      <trkpt lat="58.52137899957597" lon="13.105245921760798">
        <ele>51.27</ele>
        <time>2025-02-09T01:09:36.471Z</time>
      </trkpt>
      <trkpt lat="58.52135293185711" lon="13.105405932292342">
        <ele>51.24</ele>
        <time>2025-02-09T01:10:12.754Z</time>
      </trkpt>
      <trkpt lat="58.521324936300516" lon="13.105563931167126">
        <ele>51.2</ele>
        <time>2025-02-09T01:10:49.039Z</time>
      </trkpt>
      <trkpt lat="58.52129492908716" lon="13.10572193004191">
        <ele>51.17</ele>
        <time>2025-02-09T01:11:25.325Z</time>
      </trkpt>
      <trkpt lat="58.52126299403608" lon="13.105876995250583">
        <ele>51.13</ele>
        <time>2025-02-09T01:12:01.613Z</time>
      </trkpt>
      <trkpt lat="58.52122996933758" lon="13.106029964983463">
        <ele>51.1</ele>
        <time>2025-02-09T01:12:37.902Z</time>
      </trkpt>
      <trkpt lat="58.521193927153945" lon="13.106180923059583">
        <ele>51.07</ele>
        <time>2025-02-09T01:13:14.192Z</time>
      </trkpt>
      <trkpt lat="58.52115595713258" lon="13.106328947469592">
        <ele>51.05</ele>
        <time>2025-02-09T01:13:50.484Z</time>
      </trkpt>
      <trkpt lat="58.52111698128283" lon="13.106476971879601">
        <ele>51.02</ele>
        <time>2025-02-09T01:14:26.777Z</time>
      </trkpt>
      <trkpt lat="58.52107498794794" lon="13.10662591829896">
        <ele>51.0</ele>
        <time>2025-02-09T01:15:03.072Z</time>
      </trkpt>
      <trkpt lat="58.52103098295629" lon="13.10677494853735">
        <ele>50.98</ele>
        <time>2025-02-09T01:15:39.368Z</time>
      </trkpt>
      <trkpt lat="58.52098597213626" lon="13.10692498460412">
        <ele>50.96</ele>
        <time>2025-02-09T01:16:15.665Z</time>
      </trkpt>
      <trkpt lat="58.520936938002706" lon="13.107073931023479">
        <ele>50.94</ele>
        <time>2025-02-09T01:16:51.964Z</time>
      </trkpt>
      <trkpt lat="58.520887987688184" lon="13.107223967090249">
        <ele>50.93</ele>
        <time>2025-02-09T01:17:28.264Z</time>
      </trkpt>
      <trkpt lat="58.52083794772625" lon="13.107373919337988">
        <ele>50.9</ele>
        <time>2025-02-09T01:18:04.566Z</time>
      </trkpt>
      <trkpt lat="58.52078799158335" lon="13.107521943747997">
        <ele>50.89</ele>
        <time>2025-02-09T01:18:40.869Z</time>
      </trkpt>
      <trkpt lat="58.52073694579303" lon="13.107668962329626">
        <ele>50.88</ele>
        <time>2025-02-09T01:19:17.174Z</time>
      </trkpt>
      <trkpt lat="58.52068497799337" lon="13.107813969254494">
        <ele>50.87</ele>
        <time>2025-02-09T01:19:53.480Z</time>
      </trkpt>
      <trkpt lat="58.52063192054629" lon="13.107958976179361">
        <ele>50.87</ele>
        <time>2025-02-09T01:20:29.788Z</time>
      </trkpt>
      <trkpt lat="58.52058196440339" lon="13.108103983104229">
        <ele>50.86</ele>
        <time>2025-02-09T01:21:06.097Z</time>
      </trkpt>
      <trkpt lat="58.520530918613076" lon="13.108248990029097">
        <ele>50.85</ele>
        <time>2025-02-09T01:21:42.408Z</time>
      </trkpt>
      <trkpt lat="58.52047794498503" lon="13.108390979468822">
        <ele>50.84</ele>
        <time>2025-02-09T01:22:18.720Z</time>
      </trkpt>
      <trkpt lat="58.52042295970023" lon="13.108529951423407">
        <ele>50.84</ele>
        <time>2025-02-09T01:22:55.034Z</time>
      </trkpt>
      <trkpt lat="58.52036797441542" lon="13.108670935034752">
        <ele>50.83</ele>
        <time>2025-02-09T01:23:31.349Z</time>
      </trkpt>
      <trkpt lat="58.520311983302236" lon="13.108810996636748">
        <ele>50.82</ele>
        <time>2025-02-09T01:24:07.666Z</time>
      </trkpt>
      <trkpt lat="58.52025599218905" lon="13.108950974419713">
        <ele>50.82</ele>
        <time>2025-02-09T01:24:43.984Z</time>
      </trkpt>
      <trkpt lat="58.52019991725683" lon="13.109090952202678">
        <ele>50.82</ele>
        <time>2025-02-09T01:25:20.304Z</time>
      </trkpt>
      <trkpt lat="58.520142920315266" lon="13.109227996319532">
        <ele>50.83</ele>
        <time>2025-02-09T01:25:56.625Z</time>
      </trkpt>
      <trkpt lat="58.5200859233737" lon="13.109365962445736">
        <ele>50.84</ele>
        <time>2025-02-09T01:26:32.948Z</time>
      </trkpt>
      <trkpt lat="58.52002892643213" lon="13.109502922743559">
        <ele>50.85</ele>
        <time>2025-02-09T01:27:09.272Z</time>
      </trkpt>
      <trkpt lat="58.51997293531895" lon="13.109636949375272">
        <ele>50.86</ele>
        <time>2025-02-09T01:27:45.597Z</time>
      </trkpt>
      <trkpt lat="58.51991694420576" lon="13.109769970178604">
        <ele>50.87</ele>
        <time>2025-02-09T01:28:21.924Z</time>
      </trkpt>
      <trkpt lat="58.519859947264194" lon="13.109899973496795">
        <ele>50.89</ele>
        <time>2025-02-09T01:28:58.252Z</time>
      </trkpt>
      <trkpt lat="58.51980194449425" lon="13.110027965158224">
        <ele>50.9</ele>
        <time>2025-02-09T01:29:34.582Z</time>
      </trkpt>
      <trkpt lat="58.51974494755268" lon="13.110157968476415">
        <ele>50.91</ele>
        <time>2025-02-09T01:30:10.913Z</time>
      </trkpt>
      <trkpt lat="58.519687950611115" lon="13.110285960137844">
        <ele>50.93</ele>
        <time>2025-02-09T01:30:47.246Z</time>
      </trkpt>
      <trkpt lat="58.51963095366955" lon="13.110410934314132">
        <ele>50.95</ele>
        <time>2025-02-09T01:31:23.580Z</time>
      </trkpt>
      <trkpt lat="58.5195729508996" lon="13.11053297482431">
        <ele>50.97</ele>
        <time>2025-02-09T01:31:59.915Z</time>
      </trkpt>
      <trkpt lat="58.519514948129654" lon="13.110650992020965">
        <ele>51.0</ele>
        <time>2025-02-09T01:32:36.252Z</time>
      </trkpt>
      <trkpt lat="58.51945694535971" lon="13.110767919570208">
        <ele>51.02</ele>
        <time>2025-02-09T01:33:12.590Z</time>
      </trkpt>
      <trkpt lat="58.51939894258976" lon="13.110885936766863">
        <ele>51.05</ele>
        <time>2025-02-09T01:33:48.929Z</time>
      </trkpt>
      <trkpt lat="58.51933993399143" lon="13.11100697144866">
        <ele>51.08</ele>
        <time>2025-02-09T01:34:25.270Z</time>
      </trkpt>
      <trkpt lat="58.519281931221485" lon="13.111128928139806">
        <ele>51.11</ele>
        <time>2025-02-09T01:35:01.612Z</time>
      </trkpt>
      <trkpt lat="58.51922392845154" lon="13.111248956993222">
        <ele>51.14</ele>
        <time>2025-02-09T01:35:37.956Z</time>
      </trkpt>
      <trkpt lat="58.51916693150997" lon="13.111367980018258">
        <ele>51.18</ele>
        <time>2025-02-09T01:36:14.301Z</time>
      </trkpt>
      <trkpt lat="58.519109934568405" lon="13.111487925052643">
        <ele>51.23</ele>
        <time>2025-02-09T01:36:50.647Z</time>
      </trkpt>
      <trkpt lat="58.5190549492836" lon="13.11160895973444">
        <ele>51.27</ele>
        <time>2025-02-09T01:37:26.995Z</time>
      </trkpt>
      <trkpt lat="58.519000969827175" lon="13.111727982759476">
        <ele>51.31</ele>
        <time>2025-02-09T01:38:03.344Z</time>
      </trkpt>
      <trkpt lat="58.51895092986524" lon="13.111849939450622">
        <ele>51.36</ele>
        <time>2025-02-09T01:38:39.694Z</time>
      </trkpt>
      <trkpt lat="58.51890591904521" lon="13.11197298578918">
        <ele>51.41</ele>
        <time>2025-02-09T01:39:16.045Z</time>
      </trkpt>
      <trkpt lat="58.51886694319546" lon="13.11210097745061">
        <ele>51.46</ele>
        <time>2025-02-09T01:39:52.398Z</time>
      </trkpt>
      <trkpt lat="58.518827967345715" lon="13.112237937748432">
        <ele>51.52</ele>
        <time>2025-02-09T01:40:28.752Z</time>
      </trkpt>
      <trkpt lat="58.51879796013236" lon="13.112367941066623">
        <ele>51.58</ele>
        <time>2025-02-09T01:41:05.107Z</time>
      </trkpt>
      <trkpt lat="58.51877097040415" lon="13.112494926899672">
        <ele>51.63</ele>
        <time>2025-02-09T01:41:41.463Z</time>
      </trkpt>
      <trkpt lat="58.518747920170426" lon="13.112619984894991">
        <ele>51.69</ele>
        <time>2025-02-09T01:42:17.820Z</time>
      </trkpt>
      <trkpt lat="58.518724953755736" lon="13.112741941586137">
        <ele>51.74</ele>
        <time>2025-02-09T01:42:54.179Z</time>
      </trkpt>
      <trkpt lat="58.518699975684285" lon="13.112860964611173">
        <ele>51.8</ele>
        <time>2025-02-09T01:43:30.539Z</time>
      </trkpt>
      <trkpt lat="58.51867097429931" lon="13.112976970151067">
        <ele>51.87</ele>
        <time>2025-02-09T01:44:06.900Z</time>
      </trkpt>
      <trkpt lat="58.518636943772435" lon="13.113088952377439">
        <ele>51.93</ele>
        <time>2025-02-09T01:44:43.262Z</time>
      </trkpt>
      <trkpt lat="58.51859796792269" lon="13.11319699510932">
        <ele>51.99</ele>
        <time>2025-02-09T01:45:19.625Z</time>
      </trkpt>
      <trkpt lat="58.51855396293104" lon="13.113301936537027">
        <ele>52.06</ele>
        <time>2025-02-09T01:45:55.989Z</time>
      </trkpt>
      <trkpt lat="58.518507946282625" lon="13.113408973440528">
        <ele>52.13</ele>
        <time>2025-02-09T01:46:32.354Z</time>
      </trkpt>
      <trkpt lat="58.518463941290975" lon="13.11352196149528">
        <ele>52.21</ele>
        <time>2025-02-09T01:47:08.720Z</time>
      </trkpt>
      <trkpt lat="58.51842496544123" lon="13.113643918186426">
        <ele>52.28</ele>
        <time>2025-02-09T01:47:45.088Z</time>
      </trkpt>
      <trkpt lat="58.518396969884634" lon="13.113775933161378">
        <ele>52.36</ele>
        <time>2025-02-09T01:48:21.457Z</time>
      </trkpt>
      <trkpt lat="58.51838397793472" lon="13.113918928429484">
        <ele>52.44</ele>
        <time>2025-02-09T01:48:57.827Z</time>
      </trkpt>
      <trkpt lat="58.51838791742921" lon="13.114064941182733">
        <ele>52.54</ele>
        <time>2025-02-09T01:49:34.198Z</time>
      </trkpt>
      <trkpt lat="58.51840694434941" lon="13.114202991127968">
        <ele>52.62</ele>
        <time>2025-02-09T01:50:10.570Z</time>
      </trkpt>
      <trkpt lat="58.51843896321952" lon="13.114331988617778">
        <ele>52.71</ele>
        <time>2025-02-09T01:50:46.944Z</time>
      </trkpt>
      <trkpt lat="58.51847693324089" lon="13.114454951137304">
        <ele>52.79</ele>
        <time>2025-02-09T01:51:23.319Z</time>
      </trkpt>
      <trkpt lat="58.5185179207474" lon="13.114575985819101">
        <ele>52.88</ele>
        <time>2025-02-09T01:51:59.695Z</time>
      </trkpt>
      <trkpt lat="58.51855798624456" lon="13.114699954167008">
        <ele>52.97</ele>
        <time>2025-02-09T01:52:36.072Z</time>
      </trkpt>
      <trkpt lat="58.518591932952404" lon="13.11483096331358">
        <ele>53.05</ele>
        <time>2025-02-09T01:53:12.450Z</time>
      </trkpt>
      <trkpt lat="58.51861699484289" lon="13.114970941096544">
        <ele>53.14</ele>
        <time>2025-02-09T01:53:48.830Z</time>
      </trkpt>
      <trkpt lat="58.51863099262118" lon="13.115117959678173">
        <ele>53.23</ele>
        <time>2025-02-09T01:54:25.211Z</time>
      </trkpt>
      <trkpt lat="58.518638955429196" lon="13.115267995744944">
        <ele>53.32</ele>
        <time>2025-02-09T01:55:01.593Z</time>
      </trkpt>
      <trkpt lat="58.51864096708596" lon="13.115416942164302">
        <ele>53.41</ele>
        <time>2025-02-09T01:55:37.976Z</time>
      </trkpt>
      <trkpt lat="58.51864197291434" lon="13.11556396074593">
        <ele>53.5</ele>
        <time>2025-02-09T01:56:14.361Z</time>
      </trkpt>
      <trkpt lat="58.51863392628729" lon="13.11571491882205">
        <ele>53.59</ele>
        <time>2025-02-09T01:56:50.747Z</time>
      </trkpt>
      <trkpt lat="58.5186249576509" lon="13.11586495488882">
        <ele>53.68</ele>
        <time>2025-02-09T01:57:27.134Z</time>
      </trkpt>
      <trkpt lat="58.518613977357745" lon="13.116009961813688">
        <ele>53.77</ele>
        <time>2025-02-09T01:58:03.522Z</time>
      </trkpt>
      <trkpt lat="58.51859997957945" lon="13.116154968738556">
        <ele>53.86</ele>
        <time>2025-02-09T01:58:39.912Z</time>
      </trkpt>
      <trkpt lat="58.51858195848763" lon="13.116298969835043">
        <ele>53.96</ele>
        <time>2025-02-09T01:59:16.303Z</time>
      </trkpt>
      <trkpt lat="58.51856293156743" lon="13.116440959274769">
        <ele>54.06</ele>
        <time>2025-02-09T01:59:52.695Z</time>
      </trkpt>
      <trkpt lat="58.5185419768095" lon="13.116585966199636">
        <ele>54.16</ele>
        <time>2025-02-09T02:00:29.088Z</time>
      </trkpt>
      <trkpt lat="58.51852093823254" lon="13.116733990609646">
        <ele>54.25</ele>
        <time>2025-02-09T02:01:05.483Z</time>
      </trkpt>
      <trkpt lat="58.51849998347461" lon="13.116884948685765">
        <ele>54.34</ele>
        <time>2025-02-09T02:01:41.879Z</time>
      </trkpt>
      <trkpt lat="58.51848095655441" lon="13.117035990580916">
        <ele>54.44</ele>
        <time>2025-02-09T02:02:18.276Z</time>
      </trkpt>
      <trkpt lat="58.51846192963421" lon="13.117186948657036">
        <ele>54.53</ele>
        <time>2025-02-09T02:02:54.675Z</time>
      </trkpt>
      <trkpt lat="58.518439969047904" lon="13.117336984723806">
        <ele>54.63</ele>
        <time>2025-02-09T02:03:31.075Z</time>
      </trkpt>
      <trkpt lat="58.518419936299324" lon="13.117486936971545">
        <ele>54.72</ele>
        <time>2025-02-09T02:04:07.476Z</time>
      </trkpt>
      <trkpt lat="58.518402921035886" lon="13.117636973038316">
        <ele>54.82</ele>
        <time>2025-02-09T02:04:43.879Z</time>
      </trkpt>
      <trkpt lat="58.51838791742921" lon="13.117786925286055">
        <ele>54.92</ele>
        <time>2025-02-09T02:05:20.283Z</time>
      </trkpt>
      <trkpt lat="58.51837299764156" lon="13.117934949696064">
        <ele>55.02</ele>
        <time>2025-02-09T02:05:56.688Z</time>
      </trkpt>
      <trkpt lat="58.518357994034886" lon="13.118084985762835">
        <ele>55.12</ele>
        <time>2025-02-09T02:06:33.094Z</time>
      </trkpt>
      <trkpt lat="58.51834299042821" lon="13.118231920525432">
        <ele>55.21</ele>
        <time>2025-02-09T02:07:09.502Z</time>
      </trkpt>
      <trkpt lat="58.51832698099315" lon="13.118383968248963">
        <ele>55.31</ele>
        <time>2025-02-09T02:07:45.911Z</time>
      </trkpt>
      <trkpt lat="58.518310971558094" lon="13.118539955466986">
        <ele>55.4</ele>
        <time>2025-02-09T02:08:22.321Z</time>
      </trkpt>
      <trkpt lat="58.51829898543656" lon="13.118695942685008">
        <ele>55.5</ele>
        <time>2025-02-09T02:08:58.733Z</time>
      </trkpt>
      <trkpt lat="58.51828699931502" lon="13.118855953216553">
        <ele>55.59</ele>
        <time>2025-02-09T02:09:35.146Z</time>
      </trkpt>
      <trkpt lat="58.51827694103122" lon="13.119015963748097">
        <ele>55.69</ele>
        <time>2025-02-09T02:10:11.560Z</time>
      </trkpt>
      <trkpt lat="58.518267972394824" lon="13.119174968451262">
        <ele>55.78</ele>
        <time>2025-02-09T02:10:47.976Z</time>
      </trkpt>
      <trkpt lat="58.51825699210167" lon="13.119334978982806">
        <ele>55.88</ele>
        <time>2025-02-09T02:11:24.393Z</time>
      </trkpt>
      <trkpt lat="58.51824592798948" lon="13.11949297785759">
        <ele>55.98</ele>
        <time>2025-02-09T02:12:00.811Z</time>
      </trkpt>
      <trkpt lat="58.51823796518147" lon="13.119648965075612">
        <ele>56.07</ele>
        <time>2025-02-09T02:12:37.231Z</time>
      </trkpt>
      <trkpt lat="58.518229918554425" lon="13.119805958122015">
        <ele>56.17</ele>
        <time>2025-02-09T02:13:13.652Z</time>
      </trkpt>
      <trkpt lat="58.51821893826127" lon="13.119962951168418">
        <ele>56.28</ele>
        <time>2025-02-09T02:13:50.074Z</time>
      </trkpt>
      <trkpt lat="58.51820996962488" lon="13.120124973356724">
        <ele>56.38</ele>
        <time>2025-02-09T02:14:26.498Z</time>
      </trkpt>
      <trkpt lat="58.51820192299783" lon="13.120284983888268">
        <ele>56.48</ele>
        <time>2025-02-09T02:15:02.923Z</time>
      </trkpt>
      <trkpt lat="58.51819597184658" lon="13.120449939742684">
        <ele>56.58</ele>
        <time>2025-02-09T02:15:39.349Z</time>
      </trkpt>
      <trkpt lat="58.51819094270468" lon="13.12061196193099">
        <ele>56.67</ele>
        <time>2025-02-09T02:16:15.777Z</time>
      </trkpt>
      <trkpt lat="58.518188931047916" lon="13.120772978290915">
        <ele>56.76</ele>
        <time>2025-02-09T02:16:52.206Z</time>
      </trkpt>
      <trkpt lat="58.518184991553426" lon="13.12093399465084">
        <ele>56.85</ele>
        <time>2025-02-09T02:17:28.636Z</time>
      </trkpt>
      <trkpt lat="58.518184991553426" lon="13.121094927191734">
        <ele>56.94</ele>
        <time>2025-02-09T02:18:05.068Z</time>
      </trkpt>
      <trkpt lat="58.518185997381806" lon="13.12125594355166">
        <ele>57.02</ele>
        <time>2025-02-09T02:18:41.501Z</time>
      </trkpt>
      <trkpt lat="58.518187925219536" lon="13.121415954083204">
        <ele>57.1</ele>
        <time>2025-02-09T02:19:17.936Z</time>
      </trkpt>
      <trkpt lat="58.51819194853306" lon="13.12157797627151">
        <ele>57.17</ele>
        <time>2025-02-09T02:19:54.372Z</time>
      </trkpt>
      <trkpt lat="58.51819396018982" lon="13.121739998459816">
        <ele>57.24</ele>
        <time>2025-02-09T02:20:30.809Z</time>
      </trkpt>
      <trkpt lat="58.51819697767496" lon="13.121899925172329">
        <ele>57.3</ele>
        <time>2025-02-09T02:21:07.248Z</time>
      </trkpt>
      <trkpt lat="58.51819898933172" lon="13.122058929875493">
        <ele>57.35</ele>
        <time>2025-02-09T02:21:43.688Z</time>
      </trkpt>
      <trkpt lat="58.51820091716945" lon="13.122216928750277">
        <ele>57.4</ele>
        <time>2025-02-09T02:22:20.129Z</time>
      </trkpt>
      <trkpt lat="58.518204940482974" lon="13.12237392179668">
        <ele>57.45</ele>
        <time>2025-02-09T02:22:56.572Z</time>
      </trkpt>
      <trkpt lat="58.518207957968116" lon="13.122528987005353">
        <ele>57.5</ele>
        <time>2025-02-09T02:23:33.016Z</time>
      </trkpt>
      <trkpt lat="58.51821097545326" lon="13.122683968394995">
        <ele>57.55</ele>
        <time>2025-02-09T02:24:09.461Z</time>
      </trkpt>
      <trkpt lat="58.51821499876678" lon="13.122840961441398">
        <ele>57.61</ele>
        <time>2025-02-09T02:24:45.907Z</time>
      </trkpt>
      <trkpt lat="58.51821893826127" lon="13.122998960316181">
        <ele>57.66</ele>
        <time>2025-02-09T02:25:22.355Z</time>
      </trkpt>
      <trkpt lat="58.518224973231554" lon="13.123157965019345">
        <ele>57.73</ele>
        <time>2025-02-09T02:25:58.804Z</time>
      </trkpt>
      <trkpt lat="58.518231930211186" lon="13.12331797555089">
        <ele>57.79</ele>
        <time>2025-02-09T02:26:35.254Z</time>
      </trkpt>
      <trkpt lat="58.51823796518147" lon="13.123478991910815">
        <ele>57.84</ele>
        <time>2025-02-09T02:27:11.706Z</time>
      </trkpt>
      <trkpt lat="58.51824198849499" lon="13.12364294193685">
        <ele>57.9</ele>
        <time>2025-02-09T02:27:48.159Z</time>
      </trkpt>
      <trkpt lat="58.518248945474625" lon="13.123807981610298">
        <ele>57.95</ele>
        <time>2025-02-09T02:28:24.614Z</time>
      </trkpt>
      <trkpt lat="58.51825598627329" lon="13.123971931636333">
        <ele>58.0</ele>
        <time>2025-02-09T02:29:01.070Z</time>
      </trkpt>
      <trkpt lat="58.51826696656644" lon="13.124131942167878">
        <ele>58.05</ele>
        <time>2025-02-09T02:29:37.527Z</time>
      </trkpt>
      <trkpt lat="58.51827593520284" lon="13.124289941042662">
        <ele>58.09</ele>
        <time>2025-02-09T02:30:13.986Z</time>
      </trkpt>
      <trkpt lat="58.51828498765826" lon="13.124442994594574">
        <ele>58.13</ele>
        <time>2025-02-09T02:30:50.446Z</time>
      </trkpt>
      <trkpt lat="58.51828993298113" lon="13.124594958499074">
        <ele>58.16</ele>
        <time>2025-02-09T02:31:26.907Z</time>
      </trkpt>
      <trkpt lat="58.518294962123036" lon="13.124743988737464">
        <ele>58.2</ele>
        <time>2025-02-09T02:32:03.370Z</time>
      </trkpt>
      <trkpt lat="58.51829898543656" lon="13.124892935156822">
        <ele>58.23</ele>
        <time>2025-02-09T02:32:39.834Z</time>
      </trkpt>
      <trkpt lat="58.51830594241619" lon="13.125040959566832">
        <ele>58.25</ele>
        <time>2025-02-09T02:33:16.299Z</time>
      </trkpt>
      <trkpt lat="58.518312983214855" lon="13.125189989805222">
        <ele>58.28</ele>
        <time>2025-02-09T02:33:52.765Z</time>
      </trkpt>
      <trkpt lat="58.51831893436611" lon="13.125342959538102">
        <ele>58.3</ele>
        <time>2025-02-09T02:34:29.233Z</time>
      </trkpt>
      <trkpt lat="58.51832396350801" lon="13.125498946756124">
        <ele>58.32</ele>
        <time>2025-02-09T02:35:05.702Z</time>
      </trkpt>
      <trkpt lat="58.51832798682153" lon="13.125655939802527">
        <ele>58.33</ele>
        <time>2025-02-09T02:35:42.172Z</time>
      </trkpt>
      <trkpt lat="58.5183329321444" lon="13.125815950334072">
        <ele>58.33</ele>
        <time>2025-02-09T02:36:18.644Z</time>
      </trkpt>
      <trkpt lat="58.518336955457926" lon="13.125974955037236">
        <ele>58.33</ele>
        <time>2025-02-09T02:36:55.117Z</time>
      </trkpt>
      <trkpt lat="58.51833997294307" lon="13.126135971397161">
        <ele>58.34</ele>
        <time>2025-02-09T02:37:31.591Z</time>
      </trkpt>
      <trkpt lat="58.51834399625659" lon="13.126297993585467">
        <ele>58.34</ele>
        <time>2025-02-09T02:38:08.067Z</time>
      </trkpt>
      <trkpt lat="58.51834994740784" lon="13.126461943611503">
        <ele>58.33</ele>
        <time>2025-02-09T02:38:44.544Z</time>
      </trkpt>
      <trkpt lat="58.518353970721364" lon="13.12662698328495">
        <ele>58.33</ele>
        <time>2025-02-09T02:39:21.022Z</time>
      </trkpt>
      <trkpt lat="58.518354976549745" lon="13.126790933310986">
        <ele>58.32</ele>
        <time>2025-02-09T02:39:57.502Z</time>
      </trkpt>
      <trkpt lat="58.518354976549745" lon="13.126954967156053">
        <ele>58.32</ele>
        <time>2025-02-09T02:40:33.983Z</time>
      </trkpt>
      <trkpt lat="58.518354976549745" lon="13.127118917182088">
        <ele>58.31</ele>
        <time>2025-02-09T02:41:10.465Z</time>
      </trkpt>
      <trkpt lat="58.518354976549745" lon="13.127280939370394">
        <ele>58.3</ele>
        <time>2025-02-09T02:41:46.949Z</time>
      </trkpt>
      <trkpt lat="58.518356988206506" lon="13.1274429615587">
        <ele>58.29</ele>
        <time>2025-02-09T02:42:23.434Z</time>
      </trkpt>
      <trkpt lat="58.518356988206506" lon="13.127605989575386">
        <ele>58.27</ele>
        <time>2025-02-09T02:42:59.921Z</time>
      </trkpt>
      <trkpt lat="58.518357994034886" lon="13.127769939601421">
        <ele>58.25</ele>
        <time>2025-02-09T02:43:36.409Z</time>
      </trkpt>
      <trkpt lat="58.518356988206506" lon="13.127934979274869">
        <ele>58.23</ele>
        <time>2025-02-09T02:44:12.898Z</time>
      </trkpt>
      <trkpt lat="58.518355982378125" lon="13.128101946786046">
        <ele>58.21</ele>
        <time>2025-02-09T02:44:49.389Z</time>
      </trkpt>
      <trkpt lat="58.51834994740784" lon="13.128270925953984">
        <ele>58.19</ele>
        <time>2025-02-09T02:45:25.881Z</time>
      </trkpt>
      <trkpt lat="58.51834198459983" lon="13.128439988940954">
        <ele>58.16</ele>
        <time>2025-02-09T02:46:02.375Z</time>
      </trkpt>
      <trkpt lat="58.51832698099315" lon="13.128606956452131">
        <ele>58.13</ele>
        <time>2025-02-09T02:46:38.870Z</time>
      </trkpt>
      <trkpt lat="58.51830694824457" lon="13.128768978640437">
        <ele>58.09</ele>
        <time>2025-02-09T02:47:15.366Z</time>
      </trkpt>
      <trkpt lat="58.51828096434474" lon="13.128928989171982">
        <ele>58.05</ele>
        <time>2025-02-09T02:47:51.864Z</time>
      </trkpt>
      <trkpt lat="58.518251962959766" lon="13.129083970561624">
        <ele>58.01</ele>
        <time>2025-02-09T02:48:28.363Z</time>
      </trkpt>
      <trkpt lat="58.51821994408965" lon="13.129236940294504">
        <ele>57.96</ele>
        <time>2025-02-09T02:49:04.864Z</time>
      </trkpt>
      <trkpt lat="58.518185997381806" lon="13.129387982189655">
        <ele>57.91</ele>
        <time>2025-02-09T02:49:41.366Z</time>
      </trkpt>
      <trkpt lat="58.51814794354141" lon="13.129535922780633">
        <ele>57.85</ele>
        <time>2025-02-09T02:50:17.869Z</time>
      </trkpt>
      <trkpt lat="58.5181069560349" lon="13.12967992387712">
        <ele>57.8</ele>
        <time>2025-02-09T02:50:54.374Z</time>
      </trkpt>
      <trkpt lat="58.518056999891996" lon="13.129817973822355">
        <ele>57.74</ele>
        <time>2025-02-09T02:51:30.880Z</time>
      </trkpt>
      <trkpt lat="58.51800394244492" lon="13.129950994625688">
        <ele>57.68</ele>
        <time>2025-02-09T02:52:07.387Z</time>
      </trkpt>
      <trkpt lat="58.517947951331735" lon="13.130080997943878">
        <ele>57.63</ele>
        <time>2025-02-09T02:52:43.896Z</time>
      </trkpt>
      <trkpt lat="58.517887936905026" lon="13.130207983776927">
        <ele>57.57</ele>
        <time>2025-02-09T02:53:20.406Z</time>
      </trkpt>
      <trkpt lat="58.51782691664994" lon="13.130329940468073">
        <ele>57.51</ele>
        <time>2025-02-09T02:53:56.918Z</time>
      </trkpt>
      <trkpt lat="58.51776296272874" lon="13.130447957664728">
        <ele>57.46</ele>
        <time>2025-02-09T02:54:33.431Z</time>
      </trkpt>
      <trkpt lat="58.51769699715078" lon="13.130557928234339">
        <ele>57.41</ele>
        <time>2025-02-09T02:55:09.946Z</time>
      </trkpt>
      <trkpt lat="58.517627930268645" lon="13.130656918510795">
        <ele>57.36</ele>
        <time>2025-02-09T02:55:46.462Z</time>
      </trkpt>
      <trkpt lat="58.51755794137716" lon="13.130745934322476">
        <ele>57.31</ele>
        <time>2025-02-09T02:56:22.979Z</time>
      </trkpt>
      <trkpt lat="58.51748392917216" lon="13.130826987326145">
        <ele>57.25</ele>
        <time>2025-02-09T02:56:59.498Z</time>
      </trkpt>
      <trkpt lat="58.517411928623915" lon="13.13089999370277">
        <ele>57.2</ele>
        <time>2025-02-09T02:57:36.018Z</time>
      </trkpt>
      <trkpt lat="58.51733892224729" lon="13.130971994251013">
        <ele>57.15</ele>
        <time>2025-02-09T02:58:12.539Z</time>
      </trkpt>
      <trkpt lat="58.5172659996897" lon="13.131041983142495">
        <ele>57.09</ele>
        <time>2025-02-09T02:58:49.062Z</time>
      </trkpt>
      <trkpt lat="58.517194921150804" lon="13.131109960377216">
        <ele>57.03</ele>
        <time>2025-02-09T02:59:25.586Z</time>
      </trkpt>
      <trkpt lat="58.51712292060256" lon="13.13118196092546">
        <ele>56.97</ele>
        <time>2025-02-09T03:00:02.111Z</time>
      </trkpt>
      <trkpt lat="58.5170519258827" lon="13.131258990615606">
        <ele>56.9</ele>
        <time>2025-02-09T03:00:38.638Z</time>
      </trkpt>
      <trkpt lat="58.516979925334454" lon="13.131342977285385">
        <ele>56.83</ele>
        <time>2025-02-09T03:01:15.166Z</time>
      </trkpt>
      <trkpt lat="58.51690893061459" lon="13.131426963955164">
        <ele>56.77</ele>
        <time>2025-02-09T03:01:51.695Z</time>
      </trkpt>
      <trkpt lat="58.51683693006635" lon="13.131510950624943">
        <ele>56.7</ele>
        <time>2025-02-09T03:02:28.226Z</time>
      </trkpt>
      <trkpt lat="58.51676291786134" lon="13.131597954779863">
        <ele>56.63</ele>
        <time>2025-02-09T03:03:04.758Z</time>
      </trkpt>
      <trkpt lat="58.51668999530375" lon="13.131687976419926">
        <ele>56.56</ele>
        <time>2025-02-09T03:03:41.291Z</time>
      </trkpt>
      <trkpt lat="58.51661799475551" lon="13.131777998059988">
        <ele>56.48</ele>
        <time>2025-02-09T03:04:17.826Z</time>
      </trkpt>
      <trkpt lat="58.51654599420726" lon="13.13187095336616">
        <ele>56.4</ele>
        <time>2025-02-09T03:04:54.362Z</time>
      </trkpt>
      <trkpt lat="58.51647692732513" lon="13.131963992491364">
        <ele>56.32</ele>
        <time>2025-02-09T03:05:30.899Z</time>
      </trkpt>
      <trkpt lat="58.51640794426203" lon="13.132058959454298">
        <ele>56.24</ele>
        <time>2025-02-09T03:06:07.438Z</time>
      </trkpt>
      <trkpt lat="58.51633996702731" lon="13.132157949730754">
        <ele>56.16</ele>
        <time>2025-02-09T03:06:43.978Z</time>
      </trkpt>
      <trkpt lat="58.516272995620966" lon="13.132260963320732">
        <ele>56.08</ele>
        <time>2025-02-09T03:07:20.520Z</time>
      </trkpt>
      <trkpt lat="58.516208957880735" lon="13.13236397691071">
        <ele>56.0</ele>
        <time>2025-02-09T03:07:57.063Z</time>
      </trkpt>
      <trkpt lat="58.516143998131156" lon="13.13246799632907">
        <ele>55.91</ele>
        <time>2025-02-09T03:08:33.607Z</time>
      </trkpt>
      <trkpt lat="58.516077948734164" lon="13.132565980777144">
        <ele>55.82</ele>
        <time>2025-02-09T03:09:10.153Z</time>
      </trkpt>
      <trkpt lat="58.516014916822314" lon="13.132660947740078">
        <ele>55.73</ele>
        <time>2025-02-09T03:09:46.700Z</time>
      </trkpt>
      <trkpt lat="58.515951968729496" lon="13.132765972986817">
        <ele>55.64</ele>
        <time>2025-02-09T03:10:23.248Z</time>
      </trkpt>
      <trkpt lat="58.515887930989265" lon="13.132873931899667">
        <ele>55.54</ele>
        <time>2025-02-09T03:10:59.798Z</time>
      </trkpt>
      <trkpt lat="58.51582397706807" lon="13.132978957146406">
        <ele>55.45</ele>
        <time>2025-02-09T03:11:36.349Z</time>
      </trkpt>
      <trkpt lat="58.5157619509846" lon="13.133082976564765">
        <ele>55.36</ele>
        <time>2025-02-09T03:12:12.901Z</time>
      </trkpt>
      <trkpt lat="58.5156979970634" lon="13.133187917992473">
        <ele>55.26</ele>
        <time>2025-02-09T03:12:49.455Z</time>
      </trkpt>
      <trkpt lat="58.51563295349479" lon="13.13328799791634">
        <ele>55.16</ele>
        <time>2025-02-09T03:13:26.010Z</time>
      </trkpt>
      <trkpt lat="58.51556799374521" lon="13.133387994021177">
        <ele>55.07</ele>
        <time>2025-02-09T03:14:02.566Z</time>
      </trkpt>
      <trkpt lat="58.515501944348216" lon="13.133497964590788">
        <ele>54.97</ele>
        <time>2025-02-09T03:14:39.124Z</time>
      </trkpt>
      <trkpt lat="58.515435978770256" lon="13.133608940988779">
        <ele>54.88</ele>
        <time>2025-02-09T03:15:15.683Z</time>
      </trkpt>
      <trkpt lat="58.515369929373264" lon="13.13371698372066">
        <ele>54.78</ele>
        <time>2025-02-09T03:15:52.244Z</time>
      </trkpt>
      <trkpt lat="58.515304969623685" lon="13.133828965947032">
        <ele>54.68</ele>
        <time>2025-02-09T03:16:28.806Z</time>
      </trkpt>
      <trkpt lat="58.515239926055074" lon="13.133941954001784">
        <ele>54.58</ele>
        <time>2025-02-09T03:17:05.369Z</time>
      </trkpt>
      <trkpt lat="58.515174966305494" lon="13.134053936228156">
        <ele>54.48</ele>
        <time>2025-02-09T03:17:41.934Z</time>
      </trkpt>
      <trkpt lat="58.5151089169085" lon="13.13416994176805">
        <ele>54.39</ele>
        <time>2025-02-09T03:18:18.500Z</time>
      </trkpt>
      <trkpt lat="58.51504295133054" lon="13.134284941479564">
        <ele>54.29</ele>
        <time>2025-02-09T03:18:55.068Z</time>
      </trkpt>
      <trkpt lat="58.51497698575258" lon="13.134396923705935">
        <ele>54.2</ele>
        <time>2025-02-09T03:19:31.637Z</time>
      </trkpt>
      <trkpt lat="58.51491093635559" lon="13.134502954781055">
        <ele>54.11</ele>
        <time>2025-02-09T03:20:08.207Z</time>
      </trkpt>
      <trkpt lat="58.51484497077763" lon="13.134607980027795">
        <ele>54.02</ele>
        <time>2025-02-09T03:20:44.779Z</time>
      </trkpt>
      <trkpt lat="58.5147809330374" lon="13.134717950597405">
        <ele>53.92</ele>
        <time>2025-02-09T03:21:21.352Z</time>
      </trkpt>
      <trkpt lat="58.51471798494458" lon="13.134827921167016">
        <ele>53.82</ele>
        <time>2025-02-09T03:21:57.927Z</time>
      </trkpt>
      <trkpt lat="58.51465092971921" lon="13.13493998721242">
        <ele>53.73</ele>
        <time>2025-02-09T03:22:34.503Z</time>
      </trkpt>
      <trkpt lat="58.51458395831287" lon="13.13505096361041">
        <ele>53.63</ele>
        <time>2025-02-09T03:23:11.080Z</time>
      </trkpt>
      <trkpt lat="58.51451799273491" lon="13.13515992835164">
        <ele>53.53</ele>
        <time>2025-02-09T03:23:47.659Z</time>
      </trkpt>
      <trkpt lat="58.51445093750954" lon="13.135270988568664">
        <ele>53.43</ele>
        <time>2025-02-09T03:24:24.239Z</time>
      </trkpt>
      <trkpt lat="58.51438597775996" lon="13.135382970795035">
        <ele>53.33</ele>
        <time>2025-02-09T03:25:00.821Z</time>
      </trkpt>
      <trkpt lat="58.514319928362966" lon="13.135496964678168">
        <ele>53.22</ele>
        <time>2025-02-09T03:25:37.404Z</time>
      </trkpt>
      <trkpt lat="58.514254968613386" lon="13.13560794107616">
        <ele>53.12</ele>
        <time>2025-02-09T03:26:13.988Z</time>
      </trkpt>
      <trkpt lat="58.514190930873156" lon="13.135716989636421">
        <ele>53.02</ele>
        <time>2025-02-09T03:26:50.574Z</time>
      </trkpt>
      <trkpt lat="58.51412697695196" lon="13.13582494854927">
        <ele>52.92</ele>
        <time>2025-02-09T03:27:27.161Z</time>
      </trkpt>
      <trkpt lat="58.51406394504011" lon="13.135934919118881">
        <ele>52.82</ele>
        <time>2025-02-09T03:28:03.750Z</time>
      </trkpt>
      <trkpt lat="58.51400099694729" lon="13.136044973507524">
        <ele>52.72</ele>
        <time>2025-02-09T03:28:40.340Z</time>
      </trkpt>
      <trkpt lat="58.51393796503544" lon="13.136151926591992">
        <ele>52.63</ele>
        <time>2025-02-09T03:29:16.931Z</time>
      </trkpt>
      <trkpt lat="58.51387392729521" lon="13.136258963495493">
        <ele>52.53</ele>
        <time>2025-02-09T03:29:53.524Z</time>
      </trkpt>
      <trkpt lat="58.51381097920239" lon="13.136364994570613">
        <ele>52.43</ele>
        <time>2025-02-09T03:30:30.118Z</time>
      </trkpt>
      <trkpt lat="58.51374794729054" lon="13.136472953483462">
        <ele>52.33</ele>
        <time>2025-02-09T03:31:06.713Z</time>
      </trkpt>
      <trkpt lat="58.51368499919772" lon="13.136578984558582">
        <ele>52.24</ele>
        <time>2025-02-09T03:31:43.310Z</time>
      </trkpt>
      <trkpt lat="58.51362196728587" lon="13.136686943471432">
        <ele>52.14</ele>
        <time>2025-02-09T03:32:19.908Z</time>
      </trkpt>
      <trkpt lat="58.51355893537402" lon="13.136795992031693">
        <ele>52.04</ele>
        <time>2025-02-09T03:32:56.507Z</time>
      </trkpt>
      <trkpt lat="58.513497998937964" lon="13.136902945116162">
        <ele>51.95</ele>
        <time>2025-02-09T03:33:33.108Z</time>
      </trkpt>
      <trkpt lat="58.51343899033964" lon="13.137008976191282">
        <ele>51.86</ele>
        <time>2025-02-09T03:34:09.710Z</time>
      </trkpt>
      <trkpt lat="58.51337797008455" lon="13.137115929275751">
        <ele>51.77</ele>
        <time>2025-02-09T03:34:46.313Z</time>
      </trkpt>
      <trkpt lat="58.51331795565784" lon="13.137224977836013">
        <ele>51.67</ele>
        <time>2025-02-09T03:35:22.918Z</time>
      </trkpt>
      <trkpt lat="58.51325693540275" lon="13.137333942577243">
        <ele>51.58</ele>
        <time>2025-02-09T03:35:59.524Z</time>
      </trkpt>
      <trkpt lat="58.513195998966694" lon="13.137440979480743">
        <ele>51.48</ele>
        <time>2025-02-09T03:36:36.131Z</time>
      </trkpt>
      <trkpt lat="58.513136990368366" lon="13.137549944221973">
        <ele>51.39</ele>
        <time>2025-02-09T03:37:12.740Z</time>
      </trkpt>
      <trkpt lat="58.5130799934268" lon="13.137658992782235">
        <ele>51.29</ele>
        <time>2025-02-09T03:37:49.350Z</time>
      </trkpt>
      <trkpt lat="58.51302299648523" lon="13.137768963351846">
        <ele>51.19</ele>
        <time>2025-02-09T03:38:25.961Z</time>
      </trkpt>
      <trkpt lat="58.512966921553016" lon="13.137878933921456">
        <ele>51.1</ele>
        <time>2025-02-09T03:39:02.574Z</time>
      </trkpt>
      <trkpt lat="58.51290891878307" lon="13.137991921976209">
        <ele>51.01</ele>
        <time>2025-02-09T03:39:39.188Z</time>
      </trkpt>
      <trkpt lat="58.51285099983215" lon="13.138105999678373">
        <ele>50.92</ele>
        <time>2025-02-09T03:40:15.803Z</time>
      </trkpt>
      <trkpt lat="58.512791991233826" lon="13.138216976076365">
        <ele>50.83</ele>
        <time>2025-02-09T03:40:52.420Z</time>
      </trkpt>
      <trkpt lat="58.5127329826355" lon="13.138327952474356">
        <ele>50.74</ele>
        <time>2025-02-09T03:41:29.038Z</time>
      </trkpt>
      <trkpt lat="58.51267598569393" lon="13.138438928872347">
        <ele>50.64</ele>
        <time>2025-02-09T03:42:05.657Z</time>
      </trkpt>
      <trkpt lat="58.512620916590095" lon="13.13855099491775">
        <ele>50.55</ele>
        <time>2025-02-09T03:42:42.277Z</time>
      </trkpt>
      <trkpt lat="58.51256894879043" lon="13.138665994629264">
        <ele>50.47</ele>
        <time>2025-02-09T03:43:18.899Z</time>
      </trkpt>
      <trkpt lat="58.51251597516239" lon="13.138781916350126">
        <ele>50.38</ele>
        <time>2025-02-09T03:43:55.522Z</time>
      </trkpt>
      <trkpt lat="58.51246291771531" lon="13.138899933546782">
        <ele>50.29</ele>
        <time>2025-02-09T03:44:32.146Z</time>
      </trkpt>
      <trkpt lat="58.512408938258886" lon="13.139015939086676">
        <ele>50.2</ele>
        <time>2025-02-09T03:45:08.772Z</time>
      </trkpt>
      <trkpt lat="58.51235495880246" lon="13.139129932969809">
        <ele>50.12</ele>
        <time>2025-02-09T03:45:45.399Z</time>
      </trkpt>
      <trkpt lat="58.512299973517656" lon="13.139242921024561">
        <ele>50.03</ele>
        <time>2025-02-09T03:46:22.027Z</time>
      </trkpt>
      <trkpt lat="58.51224599406123" lon="13.139354987069964">
        <ele>49.94</ele>
        <time>2025-02-09T03:46:58.657Z</time>
      </trkpt>
      <trkpt lat="58.512191930785775" lon="13.139465963467956">
        <ele>49.85</ele>
        <time>2025-02-09T03:47:35.288Z</time>
      </trkpt>
      <trkpt lat="58.51213895715773" lon="13.139577945694327">
        <ele>49.77</ele>
        <time>2025-02-09T03:48:11.920Z</time>
      </trkpt>
      <trkpt lat="58.5120889171958" lon="13.13969193957746">
        <ele>49.68</ele>
        <time>2025-02-09T03:48:48.553Z</time>
      </trkpt>
      <trkpt lat="58.512038961052895" lon="13.139805933460593">
        <ele>49.6</ele>
        <time>2025-02-09T03:49:25.188Z</time>
      </trkpt>
      <trkpt lat="58.51198799908161" lon="13.139918921515346">
        <ele>49.51</ele>
        <time>2025-02-09T03:50:01.824Z</time>
      </trkpt>
      <trkpt lat="58.5119369532913" lon="13.140033921226859">
        <ele>49.44</ele>
        <time>2025-02-09T03:50:38.461Z</time>
      </trkpt>
      <trkpt lat="58.511888924986124" lon="13.14014296978712">
        <ele>49.36</ele>
        <time>2025-02-09T03:51:15.099Z</time>
      </trkpt>
      <trkpt lat="58.5118399746716" lon="13.140257969498634">
        <ele>49.29</ele>
        <time>2025-02-09T03:51:51.739Z</time>
      </trkpt>
      <trkpt lat="58.51179094053805" lon="13.140371963381767">
        <ele>49.21</ele>
        <time>2025-02-09T03:52:28.380Z</time>
      </trkpt>
      <trkpt lat="58.511743918061256" lon="13.140482939779758">
        <ele>49.14</ele>
        <time>2025-02-09T03:53:05.022Z</time>
      </trkpt>
      <trkpt lat="58.511697985231876" lon="13.1405929941684">
        <ele>49.06</ele>
        <time>2025-02-09T03:53:41.665Z</time>
      </trkpt>
      <trkpt lat="58.511650962755084" lon="13.140705982223153">
        <ele>48.98</ele>
        <time>2025-02-09T03:54:18.309Z</time>
      </trkpt>
      <trkpt lat="58.51160192862153" lon="13.140816958621144">
        <ele>48.91</ele>
        <time>2025-02-09T03:54:54.955Z</time>
      </trkpt>
      <trkpt lat="58.51155498996377" lon="13.140927935019135">
        <ele>48.83</ele>
        <time>2025-02-09T03:55:31.602Z</time>
      </trkpt>
      <trkpt lat="58.5115119908005" lon="13.141035977751017">
        <ele>48.76</ele>
        <time>2025-02-09T03:56:08.250Z</time>
      </trkpt>
      <trkpt lat="58.51146496832371" lon="13.141143936663866">
        <ele>48.69</ele>
        <time>2025-02-09T03:56:44.899Z</time>
      </trkpt>
      <trkpt lat="58.511415934190154" lon="13.141254996880889">
        <ele>48.62</ele>
        <time>2025-02-09T03:57:21.549Z</time>
      </trkpt>
      <trkpt lat="58.51136698387563" lon="13.141363961622119">
        <ele>48.54</ele>
        <time>2025-02-09T03:57:58.201Z</time>
      </trkpt>
      <trkpt lat="58.5113169439137" lon="13.14147594384849">
        <ele>48.47</ele>
        <time>2025-02-09T03:58:34.854Z</time>
      </trkpt>
      <trkpt lat="58.511266987770796" lon="13.141591949388385">
        <ele>48.39</ele>
        <time>2025-02-09T03:59:11.508Z</time>
      </trkpt>
      <trkpt lat="58.5112149361521" lon="13.14170896075666">
        <ele>48.31</ele>
        <time>2025-02-09T03:59:48.163Z</time>
      </trkpt>
      <trkpt lat="58.51116397418082" lon="13.141827983781695">
        <ele>48.24</ele>
        <time>2025-02-09T04:00:24.820Z</time>
      </trkpt>
      <trkpt lat="58.51111192256212" lon="13.14194398932159">
        <ele>48.17</ele>
        <time>2025-02-09T04:01:01.478Z</time>
      </trkpt>
      <trkpt lat="58.51106096059084" lon="13.142059994861484">
        <ele>48.1</ele>
        <time>2025-02-09T04:01:38.137Z</time>
      </trkpt>
      <trkpt lat="58.511008992791176" lon="13.142179939895868">
        <ele>48.02</ele>
        <time>2025-02-09T04:02:14.797Z</time>
      </trkpt>
      <trkpt lat="58.51095694117248" lon="13.142297957092524">
        <ele>47.96</ele>
        <time>2025-02-09T04:02:51.459Z</time>
      </trkpt>
      <trkpt lat="58.51090497337282" lon="13.14241798594594">
        <ele>47.89</ele>
        <time>2025-02-09T04:03:28.122Z</time>
      </trkpt>
      <trkpt lat="58.5108539275825" lon="13.142538936808705">
        <ele>47.83</ele>
        <time>2025-02-09T04:04:04.786Z</time>
      </trkpt>
      <trkpt lat="58.51080296561122" lon="13.142657959833741">
        <ele>47.76</ele>
        <time>2025-02-09T04:04:41.452Z</time>
      </trkpt>
      <trkpt lat="58.510751919820905" lon="13.142775977030396">
        <ele>47.71</ele>
        <time>2025-02-09T04:05:18.119Z</time>
      </trkpt>
      <trkpt lat="58.51070095784962" lon="13.142893994227052">
        <ele>47.65</ele>
        <time>2025-02-09T04:05:54.787Z</time>
      </trkpt>
      <trkpt lat="58.51064999587834" lon="13.143009999766946">
        <ele>47.59</ele>
        <time>2025-02-09T04:06:31.456Z</time>
      </trkpt>
      <trkpt lat="58.510599955916405" lon="13.143123993650079">
        <ele>47.53</ele>
        <time>2025-02-09T04:07:08.127Z</time>
      </trkpt>
      <trkpt lat="58.51054798811674" lon="13.143239999189973">
        <ele>47.47</ele>
        <time>2025-02-09T04:07:44.799Z</time>
      </trkpt>
      <trkpt lat="58.510495936498046" lon="13.143351981416345">
        <ele>47.42</ele>
        <time>2025-02-09T04:08:21.472Z</time>
      </trkpt>
      <trkpt lat="58.51044396869838" lon="13.143461951985955">
        <ele>47.37</ele>
        <time>2025-02-09T04:08:58.147Z</time>
      </trkpt>
      <trkpt lat="58.51039694622159" lon="13.143568988889456">
        <ele>47.32</ele>
        <time>2025-02-09T04:09:34.823Z</time>
      </trkpt>
      <trkpt lat="58.51035193540156" lon="13.143672924488783">
        <ele>47.27</ele>
        <time>2025-02-09T04:10:11.500Z</time>
      </trkpt>
      <trkpt lat="58.51030793040991" lon="13.14377199858427">
        <ele>47.21</ele>
        <time>2025-02-09T04:10:48.178Z</time>
      </trkpt>
      <trkpt lat="58.51026794873178" lon="13.143867971375585">
        <ele>47.16</ele>
        <time>2025-02-09T04:11:24.857Z</time>
      </trkpt>
      <trkpt lat="58.510230984538794" lon="13.143953969702125">
        <ele>47.11</ele>
        <time>2025-02-09T04:12:01.537Z</time>
      </trkpt>
      <trkpt lat="58.5101979598403" lon="13.144030999392271">
        <ele>47.06</ele>
        <time>2025-02-09T04:12:38.218Z</time>
      </trkpt>
      <trkpt lat="58.51016694679856" lon="13.144100988283753">
        <ele>47.01</ele>
        <time>2025-02-09T04:13:14.899Z</time>
      </trkpt>
      <trkpt lat="58.51013794541359" lon="13.144169971346855">
        <ele>46.96</ele>
        <time>2025-02-09T04:13:51.581Z</time>
      </trkpt>
      <trkpt lat="58.51011095568538" lon="13.144237948581576">
        <ele>46.92</ele>
        <time>2025-02-09T04:14:28.264Z</time>
      </trkpt>
      <trkpt lat="58.510083965957165" lon="13.144305925816298">
        <ele>46.87</ele>
        <time>2025-02-09T04:15:04.948Z</time>
      </trkpt>
      <trkpt lat="58.51005697622895" lon="13.14437197521329">
        <ele>46.82</ele>
        <time>2025-02-09T04:15:41.632Z</time>
      </trkpt>
      <trkpt lat="58.51003099232912" lon="13.144434923306108">
        <ele>46.78</ele>
        <time>2025-02-09T04:16:18.317Z</time>
      </trkpt>
      <trkpt lat="58.51000492461026" lon="13.144495943561196">
        <ele>46.74</ele>
        <time>2025-02-09T04:16:55.003Z</time>
      </trkpt>
      <trkpt lat="58.509978940710425" lon="13.144549923017621">
        <ele>46.7</ele>
        <time>2025-02-09T04:17:31.689Z</time>
      </trkpt>
      <trkpt lat="58.509954968467355" lon="13.144595939666033">
        <ele>46.66</ele>
        <time>2025-02-09T04:18:08.376Z</time>
      </trkpt>
      <trkpt lat="58.509935941547155" lon="13.144633993506432">
        <ele>46.62</ele>
        <time>2025-02-09T04:18:45.063Z</time>
      </trkpt>
      <trkpt lat="58.50991792045534" lon="13.144660983234644">
        <ele>46.58</ele>
        <time>2025-02-09T04:19:21.751Z</time>
      </trkpt>
      <trkpt lat="58.50989495404065" lon="13.144685961306095">
        <ele>46.55</ele>
        <time>2025-02-09T04:19:58.439Z</time>
      </trkpt>
      <trkpt lat="58.509866958484054" lon="13.144714962691069">
        <ele>46.51</ele>
        <time>2025-02-09T04:20:35.128Z</time>
      </trkpt>
      <trkpt lat="58.50983493961394" lon="13.144746981561184">
        <ele>46.48</ele>
        <time>2025-02-09T04:21:11.817Z</time>
      </trkpt>
      <trkpt lat="58.509801998734474" lon="13.144789980724454">
        <ele>46.44</ele>
        <time>2025-02-09T04:21:48.507Z</time>
      </trkpt>
      <trkpt lat="58.50977894850075" lon="13.144851922988892">
        <ele>46.41</ele>
        <time>2025-02-09T04:22:25.197Z</time>
      </trkpt>
      <trkpt lat="58.50976897403598" lon="13.14493197016418">
        <ele>46.38</ele>
        <time>2025-02-09T04:23:01.888Z</time>
      </trkpt>
      <trkpt lat="58.50977492518723" lon="13.145019980147481">
        <ele>46.34</ele>
        <time>2025-02-09T04:23:38.580Z</time>
      </trkpt>
      <trkpt lat="58.50979998707771" lon="13.145097931846976">
        <ele>46.31</ele>
        <time>2025-02-09T04:24:15.273Z</time>
      </trkpt>
      <trkpt lat="58.50984097458422" lon="13.145149983465672">
        <ele>46.28</ele>
        <time>2025-02-09T04:24:51.966Z</time>
      </trkpt>
      <trkpt lat="58.509890930727124" lon="13.145179990679026">
        <ele>46.25</ele>
        <time>2025-02-09T04:25:28.660Z</time>
      </trkpt>
      <trkpt lat="58.5099439881742" lon="13.145201951265335">
        <ele>46.23</ele>
        <time>2025-02-09T04:26:05.355Z</time>
      </trkpt>
      <trkpt lat="58.509998973459005" lon="13.145230952650309">
        <ele>46.21</ele>
        <time>2025-02-09T04:26:42.051Z</time>
      </trkpt>
      <trkpt lat="58.51005395874381" lon="13.145267916843295">
        <ele>46.18</ele>
        <time>2025-02-09T04:27:18.748Z</time>
      </trkpt>
      <trkpt lat="58.510106932371855" lon="13.145311921834946">
        <ele>46.16</ele>
        <time>2025-02-09T04:27:55.446Z</time>
      </trkpt>
      <trkpt lat="58.51015797816217" lon="13.14536296762526">
        <ele>46.13</ele>
        <time>2025-02-09T04:28:32.145Z</time>
      </trkpt>
      <trkpt lat="58.51020793430507" lon="13.145418958738446">
        <ele>46.11</ele>
        <time>2025-02-09T04:29:08.845Z</time>
      </trkpt>
      <trkpt lat="58.510255962610245" lon="13.145464975386858">
        <ele>46.09</ele>
        <time>2025-02-09T04:29:45.546Z</time>
      </trkpt>
      <trkpt lat="58.5103049967438" lon="13.145483918488026">
        <ele>46.07</ele>
        <time>2025-02-09T04:30:22.247Z</time>
      </trkpt>
      <trkpt lat="58.51035394705832" lon="13.145457934588194">
        <ele>46.05</ele>
        <time>2025-02-09T04:30:58.949Z</time>
      </trkpt>
      <trkpt lat="58.510384960100055" lon="13.145399931818247">
        <ele>46.03</ele>
        <time>2025-02-09T04:31:35.652Z</time>
      </trkpt>
      <trkpt lat="58.510382948443294" lon="13.145329942926764">
        <ele>46.01</ele>
        <time>2025-02-09T04:32:12.356Z</time>
      </trkpt>
      <trkpt lat="58.510360987856984" lon="13.145268922671676">
        <ele>45.99</ele>
        <time>2025-02-09T04:32:49.060Z</time>
      </trkpt>
      <trkpt lat="58.51033198647201" lon="13.14521393738687">
        <ele>45.97</ele>
        <time>2025-02-09T04:33:25.765Z</time>
      </trkpt>
      <trkpt lat="58.510300973430276" lon="13.145164987072349">
        <ele>45.95</ele>
        <time>2025-02-09T04:34:02.470Z</time>
      </trkpt>
      <trkpt lat="58.51026895456016" lon="13.145116958767176">
        <ele>45.94</ele>
        <time>2025-02-09T04:34:39.176Z</time>
      </trkpt>
      <trkpt lat="58.51024095900357" lon="13.145065996795893">
        <ele>45.92</ele>
        <time>2025-02-09T04:35:15.883Z</time>
      </trkpt>
      <trkpt lat="58.51022092625499" lon="13.145008999854326">
        <ele>45.91</ele>
        <time>2025-02-09T04:35:52.590Z</time>
      </trkpt>
      <trkpt lat="58.51021598093212" lon="13.144958959892392">
        <ele>45.89</ele>
        <time>2025-02-09T04:36:29.298Z</time>
      </trkpt>
      <trkpt lat="58.51022997871041" lon="13.1449309643358">
        <ele>45.88</ele>
        <time>2025-02-09T04:37:06.006Z</time>
      </trkpt>
      <trkpt lat="58.51024892181158" lon="13.144924929365516">
        <ele>45.87</ele>
        <time>2025-02-09T04:37:42.714Z</time>
      </trkpt>
      <trkpt lat="58.51026099175215" lon="13.144918978214264">
        <ele>45.86</ele>
        <time>2025-02-09T04:38:19.423Z</time>
      </trkpt>
      <trkpt lat="58.51026794873178" lon="13.1449119374156">
        <ele>45.85</ele>
        <time>2025-02-09T04:38:56.132Z</time>
      </trkpt>
      <trkpt lat="58.510275995358825" lon="13.144898945465684">
        <ele>45.84</ele>
        <time>2025-02-09T04:39:32.841Z</time>
      </trkpt>
      <trkpt lat="58.51028496399522" lon="13.144880924373865">
        <ele>45.83</ele>
        <time>2025-02-09T04:40:09.550Z</time>
      </trkpt>
      <trkpt lat="58.51028999313712" lon="13.144865920767188">
        <ele>45.82</ele>
        <time>2025-02-09T04:40:46.259Z</time>
      </trkpt>
      <trkpt lat="58.51029393263161" lon="13.144854940474033">
        <ele>45.81</ele>
        <time>2025-02-09T04:41:22.968Z</time>
      </trkpt>
      <trkpt lat="58.510297955945134" lon="13.144847983494401">
        <ele>45.8</ele>
        <time>2025-02-09T04:41:59.677Z</time>
      </trkpt>
      <trkpt lat="58.51029393263161" lon="13.14484697766602">
        <ele>45.79</ele>
        <time>2025-02-09T04:42:36.387Z</time>
      </trkpt>
      <trkpt lat="58.51029393263161" lon="13.14484496600926">
        <ele>45.79</ele>
        <time>2025-02-09T04:43:13.097Z</time>
      </trkpt>
      <trkpt lat="58.51037498563528" lon="13.14462997019291">
        <ele>45.78</ele>
        <time>2025-02-09T04:43:49.809Z</time>
      </trkpt>
      <trkpt lat="58.510365933179855" lon="13.144607925787568">
        <ele>45.78</ele>
        <time>2025-02-09T04:44:26.521Z</time>
      </trkpt>
      <trkpt lat="58.5103549528867" lon="13.144585965201259">
        <ele>45.77</ele>
        <time>2025-02-09T04:45:03.233Z</time>
      </trkpt>
      <trkpt lat="58.510342966765165" lon="13.144560987129807">
        <ele>45.77</ele>
        <time>2025-02-09T04:45:39.946Z</time>
      </trkpt>
      <trkpt lat="58.51033098064363" lon="13.144537936896086">
        <ele>45.76</ele>
        <time>2025-02-09T04:46:16.659Z</time>
      </trkpt>
      <trkpt lat="58.510319916531444" lon="13.144512958824635">
        <ele>45.76</ele>
        <time>2025-02-09T04:46:53.372Z</time>
      </trkpt>
      <trkpt lat="58.51031396538019" lon="13.144489992409945">
        <ele>45.76</ele>
        <time>2025-02-09T04:47:30.085Z</time>
      </trkpt>
      <trkpt lat="58.51031497120857" lon="13.144464930519462">
        <ele>45.75</ele>
        <time>2025-02-09T04:48:06.798Z</time>
      </trkpt>
      <trkpt lat="58.510322934016585" lon="13.144435929134488">
        <ele>45.75</ele>
        <time>2025-02-09T04:48:43.512Z</time>
      </trkpt>
      <trkpt lat="58.51033299230039" lon="13.144404999911785">
        <ele>45.75</ele>
        <time>2025-02-09T04:49:20.226Z</time>
      </trkpt>
      <trkpt lat="58.51034699007869" lon="13.144374992698431">
        <ele>45.75</ele>
        <time>2025-02-09T04:49:56.940Z</time>
      </trkpt>
      <trkpt lat="58.510359982028604" lon="13.144346997141838">
        <ele>45.75</ele>
        <time>2025-02-09T04:50:33.655Z</time>
      </trkpt>
      <trkpt lat="58.51037297397852" lon="13.144320929422975">
        <ele>45.75</ele>
        <time>2025-02-09T04:51:10.370Z</time>
      </trkpt>
      <trkpt lat="58.510383954271674" lon="13.144292933866382">
        <ele>45.75</ele>
        <time>2025-02-09T04:51:47.085Z</time>
      </trkpt>
      <trkpt lat="58.51039191707969" lon="13.144277930259705">
        <ele>45.75</ele>
        <time>2025-02-09T04:52:23.801Z</time>
      </trkpt>
      <trkpt lat="58.51039392873645" lon="13.144269967451692">
        <ele>45.75</ele>
        <time>2025-02-09T04:53:00.517Z</time>
      </trkpt>
      <trkpt lat="58.51039795204997" lon="13.14426795579493">
        <ele>45.76</ele>
        <time>2025-02-09T04:53:37.233Z</time>
      </trkpt>
      <trkpt lat="58.51038194261491" lon="13.1442229449749">
        <ele>45.76</ele>
        <time>2025-02-09T04:54:13.949Z</time>
      </trkpt>
      <trkpt lat="58.51036995649338" lon="13.144240966066718">
        <ele>45.76</ele>
        <time>2025-02-09T04:54:50.665Z</time>
      </trkpt>
      <trkpt lat="58.51035897620022" lon="13.144250940531492">
        <ele>45.76</ele>
        <time>2025-02-09T04:55:27.382Z</time>
      </trkpt>
      <trkpt lat="58.51034598425031" lon="13.14424792304635">
        <ele>45.77</ele>
        <time>2025-02-09T04:56:04.099Z</time>
      </trkpt>
      <trkpt lat="58.51033198647201" lon="13.144231997430325">
        <ele>45.77</ele>
        <time>2025-02-09T04:56:40.816Z</time>
      </trkpt>
      <trkpt lat="58.51031597703695" lon="13.144216993823647">
        <ele>45.78</ele>
        <time>2025-02-09T04:57:17.533Z</time>
      </trkpt>
      <trkpt lat="58.51030793040991" lon="13.144210958853364">
        <ele>45.78</ele>
        <time>2025-02-09T04:57:54.250Z</time>
      </trkpt>
      <trkpt lat="58.51030591875315" lon="13.144208947196603">
        <ele>45.79</ele>
        <time>2025-02-09T04:58:30.967Z</time>
      </trkpt>
      <trkpt lat="58.51024992763996" lon="13.144177934154868">
        <ele>45.79</ele>
        <time>2025-02-09T04:59:07.685Z</time>
      </trkpt>
      <trkpt lat="58.51022494956851" lon="13.144198972731829">
        <ele>45.8</ele>
        <time>2025-02-09T04:59:44.404Z</time>
      </trkpt>
      <trkpt lat="58.51020097732544" lon="13.144236942753196">
        <ele>45.81</ele>
        <time>2025-02-09T05:00:21.123Z</time>
      </trkpt>
      <trkpt lat="58.51017692126334" lon="13.144280947744846">
        <ele>45.81</ele>
        <time>2025-02-09T05:00:57.843Z</time>
      </trkpt>
      <trkpt lat="58.51015294902027" lon="13.14432897605002">
        <ele>45.82</ele>
        <time>2025-02-09T05:01:34.563Z</time>
      </trkpt>
      <trkpt lat="58.51012998260558" lon="13.144378932192922">
        <ele>45.83</ele>
        <time>2025-02-09T05:02:11.284Z</time>
      </trkpt>
      <trkpt lat="58.510106932371855" lon="13.144428972154856">
        <ele>45.83</ele>
        <time>2025-02-09T05:02:48.006Z</time>
      </trkpt>
      <trkpt lat="58.510083965957165" lon="13.144477922469378">
        <ele>45.84</ele>
        <time>2025-02-09T05:03:24.728Z</time>
      </trkpt>
      <trkpt lat="58.510060999542475" lon="13.144527962431312">
        <ele>45.85</ele>
        <time>2025-02-09T05:04:01.451Z</time>
      </trkpt>
      <trkpt lat="58.51003493182361" lon="13.144580936059356">
        <ele>45.86</ele>
        <time>2025-02-09T05:04:38.174Z</time>
      </trkpt>
      <trkpt lat="58.51000894792378" lon="13.144634999334812">
        <ele>45.87</ele>
        <time>2025-02-09T05:05:14.898Z</time>
      </trkpt>
      <trkpt lat="58.509977934882045" lon="13.144682943820953">
        <ele>45.88</ele>
        <time>2025-02-09T05:05:51.623Z</time>
      </trkpt>
      <trkpt lat="58.50993996486068" lon="13.144725942984223">
        <ele>45.89</ele>
        <time>2025-02-09T05:06:28.348Z</time>
      </trkpt>
      <trkpt lat="58.50989998318255" lon="13.144779922440648">
        <ele>45.9</ele>
        <time>2025-02-09T05:07:05.074Z</time>
      </trkpt>
      <trkpt lat="58.509866958484054" lon="13.144850917160511">
        <ele>45.91</ele>
        <time>2025-02-09T05:07:41.801Z</time>
      </trkpt>
      <trkpt lat="58.50984097458422" lon="13.144937921315432">
        <ele>45.92</ele>
        <time>2025-02-09T05:08:18.529Z</time>
      </trkpt>
      <trkpt lat="58.50981893017888" lon="13.145031966269016">
        <ele>45.93</ele>
        <time>2025-02-09T05:08:55.258Z</time>
      </trkpt>
      <trkpt lat="58.50979797542095" lon="13.145128944888711">
        <ele>45.94</ele>
        <time>2025-02-09T05:09:31.987Z</time>
      </trkpt>
      <trkpt lat="58.50977391935885" lon="13.145225923508406">
        <ele>45.95</ele>
        <time>2025-02-09T05:10:08.717Z</time>
      </trkpt>
      <trkpt lat="58.509744917973876" lon="13.145321980118752">
        <ele>45.96</ele>
        <time>2025-02-09T05:10:45.448Z</time>
      </trkpt>
      <trkpt lat="58.50971097126603" lon="13.145416947081685">
        <ele>45.97</ele>
        <time>2025-02-09T05:11:22.180Z</time>
      </trkpt>
      <trkpt lat="58.509674929082394" lon="13.14550998620689">
        <ele>45.98</ele>
        <time>2025-02-09T05:11:58.913Z</time>
      </trkpt>
      <trkpt lat="58.509631929919124" lon="13.145604953169823">
        <ele>46.0</ele>
        <time>2025-02-09T05:12:35.647Z</time>
      </trkpt>
      <trkpt lat="58.509591948240995" lon="13.145697992295027">
        <ele>46.01</ele>
        <time>2025-02-09T05:13:12.382Z</time>
      </trkpt>
      <trkpt lat="58.50955096073449" lon="13.145787930116057">
        <ele>46.03</ele>
        <time>2025-02-09T05:13:49.118Z</time>
      </trkpt>
      <trkpt lat="58.50951097905636" lon="13.14587694592774">
        <ele>46.04</ele>
        <time>2025-02-09T05:14:25.855Z</time>
      </trkpt>
      <trkpt lat="58.50947099737823" lon="13.145965961739421">
        <ele>46.06</ele>
        <time>2025-02-09T05:15:02.593Z</time>
      </trkpt>
      <trkpt lat="58.50942992605269" lon="13.146054977551103">
        <ele>46.07</ele>
        <time>2025-02-09T05:15:39.332Z</time>
      </trkpt>
      <trkpt lat="58.5093879327178" lon="13.146145921200514">
        <ele>46.09</ele>
        <time>2025-02-09T05:16:16.072Z</time>
      </trkpt>
      <trkpt lat="58.50934493355453" lon="13.146238960325718">
        <ele>46.11</ele>
        <time>2025-02-09T05:16:52.813Z</time>
      </trkpt>
      <trkpt lat="58.50930092856288" lon="13.14632998779416">
        <ele>46.13</ele>
        <time>2025-02-09T05:17:29.555Z</time>
      </trkpt>
      <trkpt lat="58.50925398990512" lon="13.146419925615191">
        <ele>46.15</ele>
        <time>2025-02-09T05:18:06.298Z</time>
      </trkpt>
      <trkpt lat="58.50920797325671" lon="13.146511958912015">
        <ele>46.16</ele>
        <time>2025-02-09T05:18:43.042Z</time>
      </trkpt>
      <trkpt lat="58.509159944951534" lon="13.146602986380458">
        <ele>46.18</ele>
        <time>2025-02-09T05:19:19.788Z</time>
      </trkpt>
      <trkpt lat="58.50911292247474" lon="13.146691918373108">
        <ele>46.2</ele>
        <time>2025-02-09T05:19:56.535Z</time>
      </trkpt>
      <trkpt lat="58.50906397216022" lon="13.146776994690299">
        <ele>46.22</ele>
        <time>2025-02-09T05:20:33.283Z</time>
      </trkpt>
      <trkpt lat="58.50901594385505" lon="13.14686399884522">
        <ele>46.24</ele>
        <time>2025-02-09T05:21:10.032Z</time>
      </trkpt>
      <trkpt lat="58.508969927206635" lon="13.146951925009489">
        <ele>46.26</ele>
        <time>2025-02-09T05:21:46.782Z</time>
      </trkpt>
      <trkpt lat="58.508923994377255" lon="13.147037923336029">
        <ele>46.28</ele>
        <time>2025-02-09T05:22:23.533Z</time>
      </trkpt>
      <trkpt lat="58.508880995213985" lon="13.14712299965322">
        <ele>46.29</ele>
        <time>2025-02-09T05:23:00.285Z</time>
      </trkpt>
      <trkpt lat="58.508839923888445" lon="13.147209919989109">
        <ele>46.32</ele>
        <time>2025-02-09T05:23:37.038Z</time>
      </trkpt>
      <trkpt lat="58.508798936381936" lon="13.1472949963063">
        <ele>46.34</ele>
        <time>2025-02-09T05:24:13.792Z</time>
      </trkpt>
      <trkpt lat="58.50875794887543" lon="13.147377977147698">
        <ele>46.36</ele>
        <time>2025-02-09T05:24:50.547Z</time>
      </trkpt>
      <trkpt lat="58.5087179671973" lon="13.147460957989097">
        <ele>46.39</ele>
        <time>2025-02-09T05:25:27.303Z</time>
      </trkpt>
      <trkpt lat="58.50867899134755" lon="13.147545950487256">
        <ele>46.41</ele>
        <time>2025-02-09T05:26:04.060Z</time>
      </trkpt>
      <trkpt lat="58.50863792002201" lon="13.147629937157035">
        <ele>46.42</ele>
        <time>2025-02-09T05:26:40.818Z</time>
      </trkpt>
      <trkpt lat="58.50859592668712" lon="13.147709984332323">
        <ele>46.44</ele>
        <time>2025-02-09T05:27:17.576Z</time>
      </trkpt>
      <trkpt lat="58.50854898802936" lon="13.147776955738664">
        <ele>46.47</ele>
        <time>2025-02-09T05:27:54.335Z</time>
      </trkpt>
      <trkpt lat="58.50849894806743" lon="13.147823978215456">
        <ele>46.49</ele>
        <time>2025-02-09T05:28:31.095Z</time>
      </trkpt>
      <trkpt lat="58.50844396278262" lon="13.147865971550345">
        <ele>46.52</ele>
        <time>2025-02-09T05:29:07.856Z</time>
      </trkpt>
      <trkpt lat="58.50839694030583" lon="13.147926991805434">
        <ele>46.54</ele>
        <time>2025-02-09T05:29:44.618Z</time>
      </trkpt>
      <trkpt lat="58.508370956406" lon="13.148017935454845">
        <ele>46.56</ele>
        <time>2025-02-09T05:30:21.381Z</time>
      </trkpt>
      <trkpt lat="58.50836995057762" lon="13.148123966529965">
        <ele>46.58</ele>
        <time>2025-02-09T05:30:58.145Z</time>
      </trkpt>
      <trkpt lat="58.50838093087077" lon="13.148234942927957">
        <ele>46.61</ele>
        <time>2025-02-09T05:31:34.910Z</time>
      </trkpt>
      <trkpt lat="58.5083899833262" lon="13.148346925154328">
        <ele>46.63</ele>
        <time>2025-02-09T05:32:11.676Z</time>
      </trkpt>
      <trkpt lat="58.50839199498296" lon="13.148465948179364">
        <ele>46.66</ele>
        <time>2025-02-09T05:32:48.443Z</time>
      </trkpt>
      <trkpt lat="58.508387971669436" lon="13.148587988689542">
        <ele>46.68</ele>
        <time>2025-02-09T05:33:25.211Z</time>
      </trkpt>
      <trkpt lat="58.50837799720466" lon="13.148708939552307">
        <ele>46.71</ele>
        <time>2025-02-09T05:34:01.980Z</time>
      </trkpt>
      <trkpt lat="58.508365927264094" lon="13.148831985890865">
        <ele>46.73</ele>
        <time>2025-02-09T05:34:38.750Z</time>
      </trkpt>
      <trkpt lat="58.50835494697094" lon="13.148954948410392">
        <ele>46.76</ele>
        <time>2025-02-09T05:35:15.521Z</time>
      </trkpt>
      <trkpt lat="58.50834798999131" lon="13.14907799474895">
        <ele>46.8</ele>
        <time>2025-02-09T05:35:52.293Z</time>
      </trkpt>
      <trkpt lat="58.508345978334546" lon="13.149201963096857">
        <ele>46.82</ele>
        <time>2025-02-09T05:36:29.066Z</time>
      </trkpt>
      <trkpt lat="58.508345978334546" lon="13.149323919788003">
        <ele>46.85</ele>
        <time>2025-02-09T05:37:05.840Z</time>
      </trkpt>
      <trkpt lat="58.508344972506166" lon="13.14944596029818">
        <ele>46.87</ele>
        <time>2025-02-09T05:37:42.615Z</time>
      </trkpt>
      <trkpt lat="58.508342960849404" lon="13.149571940302849">
        <ele>46.9</ele>
        <time>2025-02-09T05:38:19.391Z</time>
      </trkpt>
      <trkpt lat="58.508342960849404" lon="13.149700937792659">
        <ele>46.93</ele>
        <time>2025-02-09T05:38:56.168Z</time>
      </trkpt>
      <trkpt lat="58.508342960849404" lon="13.149828929454088">
        <ele>46.95</ele>
        <time>2025-02-09T05:39:32.946Z</time>
      </trkpt>
      <trkpt lat="58.508345978334546" lon="13.149956921115518">
        <ele>46.98</ele>
        <time>2025-02-09T05:40:09.725Z</time>
      </trkpt>
      <trkpt lat="58.50834798999131" lon="13.150082984939218">
        <ele>47.01</ele>
        <time>2025-02-09T05:40:46.505Z</time>
      </trkpt>
      <trkpt lat="58.50834094919264" lon="13.150210976600647">
        <ele>47.03</ele>
        <time>2025-02-09T05:41:23.287Z</time>
      </trkpt>
      <trkpt lat="58.508319994434714" lon="13.150332933291793">
        <ele>47.06</ele>
        <time>2025-02-09T05:42:00.070Z</time>
      </trkpt>
      <trkpt lat="58.50828998722136" lon="13.150446927174926">
        <ele>47.09</ele>
        <time>2025-02-09T05:42:36.854Z</time>
      </trkpt>
      <trkpt lat="58.50826199166477" lon="13.15055899322033">
        <ele>47.12</ele>
        <time>2025-02-09T05:43:13.639Z</time>
      </trkpt>
      <trkpt lat="58.50824397057295" lon="13.150673992931843">
        <ele>47.15</ele>
        <time>2025-02-09T05:43:50.425Z</time>
      </trkpt>
      <trkpt lat="58.508239947259426" lon="13.150799972936511">
        <ele>47.18</ele>
        <time>2025-02-09T05:44:27.212Z</time>
      </trkpt>
      <trkpt lat="58.50824296474457" lon="13.15092695876956">
        <ele>47.21</ele>
        <time>2025-02-09T05:45:04.000Z</time>
      </trkpt>
      <trkpt lat="58.50824799388647" lon="13.151057967916131">
        <ele>47.23</ele>
        <time>2025-02-09T05:45:40.789Z</time>
      </trkpt>
      <trkpt lat="58.50824598222971" lon="13.151193922385573">
        <ele>47.26</ele>
        <time>2025-02-09T05:46:17.579Z</time>
      </trkpt>
      <trkpt lat="58.508232990279794" lon="13.151329960674047">
        <ele>47.29</ele>
        <time>2025-02-09T05:46:54.370Z</time>
      </trkpt>
      <trkpt lat="58.50821195170283" lon="13.151461975649">
        <ele>47.32</ele>
        <time>2025-02-09T05:47:31.162Z</time>
      </trkpt>
      <trkpt lat="58.508185967803" lon="13.151587955653667">
        <ele>47.34</ele>
        <time>2025-02-09T05:48:07.956Z</time>
      </trkpt>
      <trkpt lat="58.508152943104506" lon="13.151705972850323">
        <ele>47.36</ele>
        <time>2025-02-09T05:48:44.751Z</time>
      </trkpt>
      <trkpt lat="58.5081169847399" lon="13.151818960905075">
        <ele>47.39</ele>
        <time>2025-02-09T05:49:21.547Z</time>
      </trkpt>
      <trkpt lat="58.50807993672788" lon="13.151927925646305">
        <ele>47.42</ele>
        <time>2025-02-09T05:49:58.344Z</time>
      </trkpt>
      <trkpt lat="58.50803794339299" lon="13.152029933407903">
        <ele>47.44</ele>
        <time>2025-02-09T05:50:35.142Z</time>
      </trkpt>
      <trkpt lat="58.50799494422972" lon="13.15212699584663">
        <ele>47.46</ele>
        <time>2025-02-09T05:51:11.941Z</time>
      </trkpt>
      <trkpt lat="58.50794993340969" lon="13.15221592783928">
        <ele>47.49</ele>
        <time>2025-02-09T05:51:48.741Z</time>
      </trkpt>
      <trkpt lat="58.50790492258966" lon="13.152296980842948">
        <ele>47.52</ele>
        <time>2025-02-09T05:52:25.542Z</time>
      </trkpt>
      <trkpt lat="58.5078579839319" lon="13.152374932542443">
        <ele>47.54</ele>
        <time>2025-02-09T05:53:02.344Z</time>
      </trkpt>
      <trkpt lat="58.507807943969965" lon="13.152453973889351">
        <ele>47.56</ele>
        <time>2025-02-09T05:53:39.147Z</time>
      </trkpt>
      <trkpt lat="58.50775497034192" lon="13.152533937245607">
        <ele>47.59</ele>
        <time>2025-02-09T05:54:15.951Z</time>
      </trkpt>
      <trkpt lat="58.50770199671388" lon="13.152612978592515">
        <ele>47.62</ele>
        <time>2025-02-09T05:54:52.756Z</time>
      </trkpt>
      <trkpt lat="58.50764793343842" lon="13.152693947777152">
        <ele>47.65</ele>
        <time>2025-02-09T05:55:29.562Z</time>
      </trkpt>
      <trkpt lat="58.507591942325234" lon="13.15277298912406">
        <ele>47.68</ele>
        <time>2025-02-09T05:56:06.370Z</time>
      </trkpt>
      <trkpt lat="58.50753796286881" lon="13.152854964137077">
        <ele>47.7</ele>
        <time>2025-02-09T05:56:43.179Z</time>
      </trkpt>
      <trkpt lat="58.507482977584004" lon="13.152936939150095">
        <ele>47.73</ele>
        <time>2025-02-09T05:57:19.989Z</time>
      </trkpt>
      <trkpt lat="58.50743092596531" lon="13.153022937476635">
        <ele>47.75</ele>
        <time>2025-02-09T05:57:56.800Z</time>
      </trkpt>
      <trkpt lat="58.507379963994026" lon="13.153113964945078">
        <ele>47.78</ele>
        <time>2025-02-09T05:58:33.612Z</time>
      </trkpt>
      <trkpt lat="58.507332941517234" lon="13.15320792607963">
        <ele>47.8</ele>
        <time>2025-02-09T05:59:10.425Z</time>
      </trkpt>
      <trkpt lat="58.50728692486882" lon="13.153302976861596">
        <ele>47.83</ele>
        <time>2025-02-09T05:59:47.239Z</time>
      </trkpt>
      <trkpt lat="58.50724291987717" lon="13.153394926339388">
        <ele>47.85</ele>
        <time>2025-02-09T06:00:24.054Z</time>
      </trkpt>
      <trkpt lat="58.50719899870455" lon="13.153488971292973">
        <ele>47.87</ele>
        <time>2025-02-09T06:01:00.870Z</time>
      </trkpt>
      <trkpt lat="58.5071549937129" lon="13.153585949912667">
        <ele>47.9</ele>
        <time>2025-02-09T06:01:37.687Z</time>
      </trkpt>
      <trkpt lat="58.50711098872125" lon="13.153688963502645">
        <ele>47.92</ele>
        <time>2025-02-09T06:02:14.505Z</time>
      </trkpt>
      <trkpt lat="58.5070669837296" lon="13.153792982921004">
        <ele>47.94</ele>
        <time>2025-02-09T06:02:51.325Z</time>
      </trkpt>
      <trkpt lat="58.50702599622309" lon="13.153898930177093">
        <ele>47.97</ele>
        <time>2025-02-09T06:03:28.146Z</time>
      </trkpt>
      <trkpt lat="58.50698593072593" lon="13.154005967080593">
        <ele>47.99</ele>
        <time>2025-02-09T06:04:04.968Z</time>
      </trkpt>
      <trkpt lat="58.506946954876184" lon="13.154112920165062">
        <ele>48.01</ele>
        <time>2025-02-09T06:04:41.791Z</time>
      </trkpt>
      <trkpt lat="58.5069099906832" lon="13.154220962896943">
        <ele>48.03</ele>
        <time>2025-02-09T06:05:18.615Z</time>
      </trkpt>
      <trkpt lat="58.50687093101442" lon="13.154327999800444">
        <ele>48.06</ele>
        <time>2025-02-09T06:05:55.440Z</time>
      </trkpt>
      <trkpt lat="58.50683296099305" lon="13.154436964541674">
        <ele>48.08</ele>
        <time>2025-02-09T06:06:32.266Z</time>
      </trkpt>
      <trkpt lat="58.506793985143304" lon="13.154547940939665">
        <ele>48.1</ele>
        <time>2025-02-09T06:07:09.093Z</time>
      </trkpt>
      <trkpt lat="58.506752997636795" lon="13.154659923166037">
        <ele>48.11</ele>
        <time>2025-02-09T06:07:45.921Z</time>
      </trkpt>
      <trkpt lat="58.506710920482874" lon="13.15477198921144">
        <ele>48.13</ele>
        <time>2025-02-09T06:08:22.751Z</time>
      </trkpt>
      <trkpt lat="58.506669932976365" lon="13.154878942295909">
        <ele>48.15</ele>
        <time>2025-02-09T06:08:59.582Z</time>
      </trkpt>
      <trkpt lat="58.50662995129824" lon="13.15498698502779">
        <ele>48.17</ele>
        <time>2025-02-09T06:09:36.414Z</time>
      </trkpt>
      <trkpt lat="58.50658996962011" lon="13.155093938112259">
        <ele>48.19</ele>
        <time>2025-02-09T06:10:13.247Z</time>
      </trkpt>
      <trkpt lat="58.50655292160809" lon="13.15520097501576">
        <ele>48.21</ele>
        <time>2025-02-09T06:10:50.081Z</time>
      </trkpt>
      <trkpt lat="58.506516963243484" lon="13.15531094558537">
        <ele>48.22</ele>
        <time>2025-02-09T06:11:26.916Z</time>
      </trkpt>
      <trkpt lat="58.50647798739374" lon="13.155419994145632">
        <ele>48.24</ele>
        <time>2025-02-09T06:12:03.752Z</time>
      </trkpt>
      <trkpt lat="58.50644295103848" lon="13.155529964715242">
        <ele>48.25</ele>
        <time>2025-02-09T06:12:40.589Z</time>
      </trkpt>
      <trkpt lat="58.506409926339984" lon="13.155641946941614">
        <ele>48.27</ele>
        <time>2025-02-09T06:13:17.427Z</time>
      </trkpt>
      <trkpt lat="58.50637396797538" lon="13.155756946653128">
        <ele>48.29</ele>
        <time>2025-02-09T06:13:54.266Z</time>
      </trkpt>
      <trkpt lat="58.50633893162012" lon="13.155874963849783">
        <ele>48.3</ele>
        <time>2025-02-09T06:14:31.107Z</time>
      </trkpt>
      <trkpt lat="58.506302973255515" lon="13.155991975218058">
        <ele>48.31</ele>
        <time>2025-02-09T06:15:07.949Z</time>
      </trkpt>
      <trkpt lat="58.50626693107188" lon="13.156108986586332">
        <ele>48.33</ele>
        <time>2025-02-09T06:15:44.792Z</time>
      </trkpt>
      <trkpt lat="58.50623197853565" lon="13.156227925792336">
        <ele>48.34</ele>
        <time>2025-02-09T06:16:21.636Z</time>
      </trkpt>
      <trkpt lat="58.506196942180395" lon="13.156347954645753">
        <ele>48.35</ele>
        <time>2025-02-09T06:16:58.481Z</time>
      </trkpt>
      <trkpt lat="58.50616198964417" lon="13.156466977670789">
        <ele>48.37</ele>
        <time>2025-02-09T06:17:35.327Z</time>
      </trkpt>
      <trkpt lat="58.50612795911729" lon="13.156585916876793">
        <ele>48.39</ele>
        <time>2025-02-09T06:18:12.174Z</time>
      </trkpt>
      <trkpt lat="58.506089989095926" lon="13.156703934073448">
        <ele>48.41</ele>
        <time>2025-02-09T06:18:49.023Z</time>
      </trkpt>
      <trkpt lat="58.50605294108391" lon="13.156820945441723">
        <ele>48.43</ele>
        <time>2025-02-09T06:19:25.873Z</time>
      </trkpt>
      <trkpt lat="58.50601497106254" lon="13.156937956809998">
        <ele>48.44</ele>
        <time>2025-02-09T06:20:02.724Z</time>
      </trkpt>
      <trkpt lat="58.50597599521279" lon="13.157055974006653">
        <ele>48.46</ele>
        <time>2025-02-09T06:20:39.576Z</time>
      </trkpt>
      <trkpt lat="58.505939953029156" lon="13.157173991203308">
        <ele>48.47</ele>
        <time>2025-02-09T06:21:16.429Z</time>
      </trkpt>
      <trkpt lat="58.5059049166739" lon="13.157288990914822">
        <ele>48.48</ele>
        <time>2025-02-09T06:21:53.283Z</time>
      </trkpt>
      <trkpt lat="58.50586996413767" lon="13.157405918464065">
        <ele>48.5</ele>
        <time>2025-02-09T06:22:30.138Z</time>
      </trkpt>
      <trkpt lat="58.505834927782416" lon="13.157521924003959">
        <ele>48.51</ele>
        <time>2025-02-09T06:23:06.995Z</time>
      </trkpt>
      <trkpt lat="58.50579896941781" lon="13.157640947028995">
        <ele>48.51</ele>
        <time>2025-02-09T06:23:43.853Z</time>
      </trkpt>
      <trkpt lat="58.505765944719315" lon="13.157761981710792">
        <ele>48.52</ele>
        <time>2025-02-09T06:24:20.712Z</time>
      </trkpt>
      <trkpt lat="58.50573199801147" lon="13.157883938401937">
        <ele>48.53</ele>
        <time>2025-02-09T06:24:57.572Z</time>
      </trkpt>
      <trkpt lat="58.50569696165621" lon="13.158003967255354">
        <ele>48.54</ele>
        <time>2025-02-09T06:25:34.433Z</time>
      </trkpt>
      <trkpt lat="58.505660919472575" lon="13.15812198445201">
        <ele>48.55</ele>
        <time>2025-02-09T06:26:11.295Z</time>
      </trkpt>
      <trkpt lat="58.50562496110797" lon="13.158239917829633">
        <ele>48.55</ele>
        <time>2025-02-09T06:26:48.159Z</time>
      </trkpt>
      <trkpt lat="58.5055869910866" lon="13.15835994668305">
        <ele>48.56</ele>
        <time>2025-02-09T06:27:25.024Z</time>
      </trkpt>
      <trkpt lat="58.505549943074584" lon="13.158477963879704">
        <ele>48.57</ele>
        <time>2025-02-09T06:28:01.890Z</time>
      </trkpt>
      <trkpt lat="58.5055129788816" lon="13.15859497524798">
        <ele>48.58</ele>
        <time>2025-02-09T06:28:38.757Z</time>
      </trkpt>
      <trkpt lat="58.5054749250412" lon="13.158710980787873">
        <ele>48.59</ele>
        <time>2025-02-09T06:29:15.625Z</time>
      </trkpt>
      <trkpt lat="58.50543896667659" lon="13.158827992156148">
        <ele>48.59</ele>
        <time>2025-02-09T06:29:52.494Z</time>
      </trkpt>
      <trkpt lat="58.505398984998465" lon="13.15893997438252">
        <ele>48.6</ele>
        <time>2025-02-09T06:30:29.364Z</time>
      </trkpt>
      <trkpt lat="58.505359925329685" lon="13.159051956608891">
        <ele>48.61</ele>
        <time>2025-02-09T06:31:06.236Z</time>
      </trkpt>
      <trkpt lat="58.50531994365156" lon="13.159162933006883">
        <ele>48.62</ele>
        <time>2025-02-09T06:31:43.109Z</time>
      </trkpt>
      <trkpt lat="58.50528197363019" lon="13.159272987395525">
        <ele>48.63</ele>
        <time>2025-02-09T06:32:19.983Z</time>
      </trkpt>
      <trkpt lat="58.50524391978979" lon="13.159380946308374">
        <ele>48.64</ele>
        <time>2025-02-09T06:32:56.858Z</time>
      </trkpt>
      <trkpt lat="58.505208967253566" lon="13.159491922706366">
        <ele>48.65</ele>
        <time>2025-02-09T06:33:33.734Z</time>
      </trkpt>
      <trkpt lat="58.50517594255507" lon="13.159601977095008">
        <ele>48.65</ele>
        <time>2025-02-09T06:34:10.611Z</time>
      </trkpt>
      <trkpt lat="58.505145935341716" lon="13.159705996513367">
        <ele>48.66</ele>
        <time>2025-02-09T06:34:47.489Z</time>
      </trkpt>
      <trkpt lat="58.50511693395674" lon="13.15979995764792">
        <ele>48.65</ele>
        <time>2025-02-09T06:35:24.368Z</time>
      </trkpt>
      <trkpt lat="58.50509296171367" lon="13.159882938489318">
        <ele>48.65</ele>
        <time>2025-02-09T06:36:01.248Z</time>
      </trkpt>
      <trkpt lat="58.50507393479347" lon="13.15995099954307">
        <ele>48.64</ele>
        <time>2025-02-09T06:36:38.128Z</time>
      </trkpt>
      <trkpt lat="58.50506194867194" lon="13.159997938200831">
        <ele>48.63</ele>
        <time>2025-02-09T06:37:15.009Z</time>
      </trkpt>
      <trkpt lat="58.505058931186795" lon="13.160017970949411">
        <ele>48.63</ele>
        <time>2025-02-09T06:37:51.890Z</time>
      </trkpt>
      <trkpt lat="58.505056919530034" lon="13.160018976777792">
        <ele>48.62</ele>
        <time>2025-02-09T06:38:28.771Z</time>
      </trkpt>
      <trkpt lat="58.505054991692305" lon="13.16001696512103">
        <ele>48.62</ele>
        <time>2025-02-09T06:39:05.652Z</time>
      </trkpt>
      <trkpt lat="58.505034958943725" lon="13.160054935142398">
        <ele>48.61</ele>
        <time>2025-02-09T06:39:42.534Z</time>
      </trkpt>
      <trkpt lat="58.50502196699381" lon="13.160089971497655">
        <ele>48.6</ele>
        <time>2025-02-09T06:40:19.416Z</time>
      </trkpt>
      <trkpt lat="58.50500595755875" lon="13.160129953175783">
        <ele>48.59</ele>
        <time>2025-02-09T06:40:56.298Z</time>
      </trkpt>
      <trkpt lat="58.50498894229531" lon="13.160173958167434">
        <ele>48.58</ele>
        <time>2025-02-09T06:41:33.181Z</time>
      </trkpt>
      <trkpt lat="58.504970921203494" lon="13.160222992300987">
        <ele>48.56</ele>
        <time>2025-02-09T06:42:10.064Z</time>
      </trkpt>
      <trkpt lat="58.504951978102326" lon="13.16027496010065">
        <ele>48.55</ele>
        <time>2025-02-09T06:42:46.948Z</time>
      </trkpt>
      <trkpt lat="58.504931945353746" lon="13.160333968698978">
        <ele>48.53</ele>
        <time>2025-02-09T06:43:23.832Z</time>
      </trkpt>
      <trkpt lat="58.50491099059582" lon="13.160397922620177">
        <ele>48.51</ele>
        <time>2025-02-09T06:44:00.717Z</time>
      </trkpt>
      <trkpt lat="58.504887940362096" lon="13.16046598367393">
        <ele>48.5</ele>
        <time>2025-02-09T06:44:37.603Z</time>
      </trkpt>
      <trkpt lat="58.504865979775786" lon="13.160536978393793">
        <ele>48.48</ele>
        <time>2025-02-09T06:45:14.489Z</time>
      </trkpt>
      <trkpt lat="58.504842929542065" lon="13.160612918436527">
        <ele>48.46</ele>
        <time>2025-02-09T06:45:51.376Z</time>
      </trkpt>
      <trkpt lat="58.504818957298994" lon="13.160691959783435">
        <ele>48.45</ele>
        <time>2025-02-09T06:46:28.264Z</time>
      </trkpt>
      <trkpt lat="58.50479498505592" lon="13.160773934796453">
        <ele>48.43</ele>
        <time>2025-02-09T06:47:05.153Z</time>
      </trkpt>
      <trkpt lat="58.5047719348222" lon="13.160857921466231">
        <ele>48.41</ele>
        <time>2025-02-09T06:47:42.042Z</time>
      </trkpt>
      <trkpt lat="58.50474896840751" lon="13.160943919792771">
        <ele>48.4</ele>
        <time>2025-02-09T06:48:18.932Z</time>
      </trkpt>
      <trkpt lat="58.50472499616444" lon="13.161033941432834">
        <ele>48.38</ele>
        <time>2025-02-09T06:48:55.823Z</time>
      </trkpt>
      <trkpt lat="58.50469892844558" lon="13.161123963072896">
        <ele>48.36</ele>
        <time>2025-02-09T06:49:32.715Z</time>
      </trkpt>
      <trkpt lat="58.504672944545746" lon="13.161216918379068">
        <ele>48.34</ele>
        <time>2025-02-09T06:50:09.608Z</time>
      </trkpt>
      <trkpt lat="58.50464595481753" lon="13.161311969161034">
        <ele>48.32</ele>
        <time>2025-02-09T06:50:46.502Z</time>
      </trkpt>
      <trkpt lat="58.50461594760418" lon="13.161409953609109">
        <ele>48.31</ele>
        <time>2025-02-09T06:51:23.397Z</time>
      </trkpt>
      <trkpt lat="58.50457998923957" lon="13.161507938057184">
        <ele>48.29</ele>
        <time>2025-02-09T06:52:00.293Z</time>
      </trkpt>
      <trkpt lat="58.504537995904684" lon="13.161599971354008">
        <ele>48.28</ele>
        <time>2025-02-09T06:52:37.190Z</time>
      </trkpt>
      <trkpt lat="58.50448695011437" lon="13.161679934710264">
        <ele>48.26</ele>
        <time>2025-02-09T06:53:14.088Z</time>
      </trkpt>
      <trkpt lat="58.50443095900118" lon="13.161759981885552">
        <ele>48.24</ele>
        <time>2025-02-09T06:53:50.987Z</time>
      </trkpt>
      <trkpt lat="58.50438594818115" lon="13.161857966333628">
        <ele>48.22</ele>
        <time>2025-02-09T06:54:27.887Z</time>
      </trkpt>
      <trkpt lat="58.50435996428132" lon="13.161976989358664">
        <ele>48.19</ele>
        <time>2025-02-09T06:55:04.788Z</time>
      </trkpt>
      <trkpt lat="58.50434496067464" lon="13.162111937999725">
        <ele>48.17</ele>
        <time>2025-02-09T06:55:41.690Z</time>
      </trkpt>
      <trkpt lat="58.504327945411205" lon="13.162251999601722">
        <ele>48.15</ele>
        <time>2025-02-09T06:56:18.594Z</time>
      </trkpt>
      <trkpt lat="58.504305984824896" lon="13.162390971556306">
        <ele>48.13</ele>
        <time>2025-02-09T06:56:55.499Z</time>
      </trkpt>
      <trkpt lat="58.50427597761154" lon="13.16252893768251">
        <ele>48.1</ele>
        <time>2025-02-09T06:57:32.405Z</time>
      </trkpt>
      <trkpt lat="58.504241947084665" lon="13.162662964314222">
        <ele>48.07</ele>
        <time>2025-02-09T06:58:09.312Z</time>
      </trkpt>
      <trkpt lat="58.50420791655779" lon="13.162794979289174">
        <ele>48.05</ele>
        <time>2025-02-09T06:58:46.220Z</time>
      </trkpt>
      <trkpt lat="58.504174975678325" lon="13.162924982607365">
        <ele>48.02</ele>
        <time>2025-02-09T06:59:23.130Z</time>
      </trkpt>
      <trkpt lat="58.50414496846497" lon="13.163052974268794">
        <ele>48.0</ele>
        <time>2025-02-09T07:00:00.041Z</time>
      </trkpt>
      <trkpt lat="58.50411697290838" lon="13.163179960101843">
        <ele>47.97</ele>
        <time>2025-02-09T07:00:36.953Z</time>
      </trkpt>
      <trkpt lat="58.504090989008546" lon="13.16330292262137">
        <ele>47.95</ele>
        <time>2025-02-09T07:01:13.866Z</time>
      </trkpt>
      <trkpt lat="58.504068944603205" lon="13.163423957303166">
        <ele>47.92</ele>
        <time>2025-02-09T07:01:50.780Z</time>
      </trkpt>
      <trkpt lat="58.50404899567366" lon="13.163545997813344">
        <ele>47.89</ele>
        <time>2025-02-09T07:02:27.695Z</time>
      </trkpt>
      <trkpt lat="58.50403097458184" lon="13.16366795450449">
        <ele>47.86</ele>
        <time>2025-02-09T07:03:04.611Z</time>
      </trkpt>
      <trkpt lat="58.5040139593184" lon="13.163791922852397">
        <ele>47.83</ele>
        <time>2025-02-09T07:03:41.528Z</time>
      </trkpt>
      <trkpt lat="58.50399794988334" lon="13.163916980847716">
        <ele>47.81</ele>
        <time>2025-02-09T07:04:18.447Z</time>
      </trkpt>
      <trkpt lat="58.503983952105045" lon="13.164039943367243">
        <ele>47.77</ele>
        <time>2025-02-09T07:04:55.367Z</time>
      </trkpt>
      <trkpt lat="58.50397297181189" lon="13.164163995534182">
        <ele>47.74</ele>
        <time>2025-02-09T07:05:32.288Z</time>
      </trkpt>
      <trkpt lat="58.50396299734712" lon="13.164291987195611">
        <ele>47.71</ele>
        <time>2025-02-09T07:06:09.210Z</time>
      </trkpt>
      <trkpt lat="58.50395193323493" lon="13.164421990513802">
        <ele>47.69</ele>
        <time>2025-02-09T07:06:46.133Z</time>
      </trkpt>
      <trkpt lat="58.50394397042692" lon="13.164551993831992">
        <ele>47.66</ele>
        <time>2025-02-09T07:07:23.057Z</time>
      </trkpt>
      <trkpt lat="58.50393399596214" lon="13.164684930816293">
        <ele>47.63</ele>
        <time>2025-02-09T07:07:59.982Z</time>
      </trkpt>
      <trkpt lat="58.50392494350672" lon="13.164820969104767">
        <ele>47.6</ele>
        <time>2025-02-09T07:08:36.908Z</time>
      </trkpt>
      <trkpt lat="58.50391396321356" lon="13.164959941059351">
        <ele>47.57</ele>
        <time>2025-02-09T07:09:13.835Z</time>
      </trkpt>
      <trkpt lat="58.50390499457717" lon="13.165096985176206">
        <ele>47.54</ele>
        <time>2025-02-09T07:09:50.764Z</time>
      </trkpt>
      <trkpt lat="58.503895942121744" lon="13.16523696295917">
        <ele>47.51</ele>
        <time>2025-02-09T07:10:27.694Z</time>
      </trkpt>
      <trkpt lat="58.50388797931373" lon="13.165378952398896">
        <ele>47.48</ele>
        <time>2025-02-09T07:11:04.625Z</time>
      </trkpt>
      <trkpt lat="58.503877921029925" lon="13.165521947667003">
        <ele>47.45</ele>
        <time>2025-02-09T07:11:41.557Z</time>
      </trkpt>
      <trkpt lat="58.50386794656515" lon="13.165663937106729">
        <ele>47.41</ele>
        <time>2025-02-09T07:12:18.490Z</time>
      </trkpt>
      <trkpt lat="58.50385797210038" lon="13.165805926546454">
        <ele>47.38</ele>
        <time>2025-02-09T07:12:55.425Z</time>
      </trkpt>
      <trkpt lat="58.5038479976356" lon="13.165947999805212">
        <ele>47.34</ele>
        <time>2025-02-09T07:13:32.361Z</time>
      </trkpt>
      <trkpt lat="58.50383693352342" lon="13.166089989244938">
        <ele>47.31</ele>
        <time>2025-02-09T07:14:09.298Z</time>
      </trkpt>
      <trkpt lat="58.5038239415735" lon="13.166230972856283">
        <ele>47.27</ele>
        <time>2025-02-09T07:14:46.236Z</time>
      </trkpt>
      <trkpt lat="58.50380793213844" lon="13.166367933154106">
        <ele>47.24</ele>
        <time>2025-02-09T07:15:23.175Z</time>
      </trkpt>
      <trkpt lat="58.503792928531766" lon="13.166501959785819">
        <ele>47.21</ele>
        <time>2025-02-09T07:16:00.115Z</time>
      </trkpt>
      <trkpt lat="58.50377691909671" lon="13.166637998074293">
        <ele>47.18</ele>
        <time>2025-02-09T07:16:37.057Z</time>
      </trkpt>
      <trkpt lat="58.5037599876523" lon="13.166769929230213">
        <ele>47.15</ele>
        <time>2025-02-09T07:17:14.000Z</time>
      </trkpt>
      <trkpt lat="58.50373995490372" lon="13.166901944205165">
        <ele>47.12</ele>
        <time>2025-02-09T07:17:50.944Z</time>
      </trkpt>
      <trkpt lat="58.50371698848903" lon="13.167033959180117">
        <ele>47.09</ele>
        <time>2025-02-09T07:18:27.889Z</time>
      </trkpt>
      <trkpt lat="58.50369494408369" lon="13.167164968326688">
        <ele>47.06</ele>
        <time>2025-02-09T07:19:04.835Z</time>
      </trkpt>
      <trkpt lat="58.50367298349738" lon="13.167294971644878">
        <ele>47.03</ele>
        <time>2025-02-09T07:19:41.782Z</time>
      </trkpt>
      <trkpt lat="58.50364599376917" lon="13.167424974963069">
        <ele>47.0</ele>
        <time>2025-02-09T07:20:18.731Z</time>
      </trkpt>
      <trkpt lat="58.503617998212576" lon="13.167551960796118">
        <ele>46.97</ele>
        <time>2025-02-09T07:20:55.681Z</time>
      </trkpt>
      <trkpt lat="58.5035889968276" lon="13.167676934972405">
        <ele>46.94</ele>
        <time>2025-02-09T07:21:32.632Z</time>
      </trkpt>
      <trkpt lat="58.50355999544263" lon="13.167801992967725">
        <ele>46.92</ele>
        <time>2025-02-09T07:22:09.584Z</time>
      </trkpt>
      <trkpt lat="58.503531999886036" lon="13.167928978800774">
        <ele>46.89</ele>
        <time>2025-02-09T07:22:46.537Z</time>
      </trkpt>
      <trkpt lat="58.50350299850106" lon="13.168054958805442">
        <ele>46.86</ele>
        <time>2025-02-09T07:23:23.491Z</time>
      </trkpt>
      <trkpt lat="58.50347097963095" lon="13.168183956295252">
        <ele>46.83</ele>
        <time>2025-02-09T07:24:00.447Z</time>
      </trkpt>
      <trkpt lat="58.50344097241759" lon="13.1683109421283">
        <ele>46.81</ele>
        <time>2025-02-09T07:24:37.404Z</time>
      </trkpt>
      <trkpt lat="58.50341096520424" lon="13.16843792796135">
        <ele>46.79</ele>
        <time>2025-02-09T07:25:14.362Z</time>
      </trkpt>
      <trkpt lat="58.50337794050574" lon="13.168565919622779">
        <ele>46.76</ele>
        <time>2025-02-09T07:25:51.321Z</time>
      </trkpt>
      <trkpt lat="58.5033439937979" lon="13.16869399510324">
        <ele>46.73</ele>
        <time>2025-02-09T07:26:28.281Z</time>
      </trkpt>
      <trkpt lat="58.50330996327102" lon="13.16882198676467">
        <ele>46.7</ele>
        <time>2025-02-09T07:27:05.242Z</time>
      </trkpt>
      <trkpt lat="58.503273921087384" lon="13.168949978426099">
        <ele>46.67</ele>
        <time>2025-02-09T07:27:42.205Z</time>
      </trkpt>
      <trkpt lat="58.50323595106602" lon="13.169077970087528">
        <ele>46.65</ele>
        <time>2025-02-09T07:28:19.169Z</time>
      </trkpt>
      <trkpt lat="58.50319999270141" lon="13.169205961748958">
        <ele>46.62</ele>
        <time>2025-02-09T07:28:56.134Z</time>
      </trkpt>
      <trkpt lat="58.50316294468939" lon="13.169333953410387">
        <ele>46.59</ele>
        <time>2025-02-09T07:29:33.100Z</time>
      </trkpt>
      <trkpt lat="58.503124974668026" lon="13.169462950900197">
        <ele>46.57</ele>
        <time>2025-02-09T07:30:10.068Z</time>
      </trkpt>
      <trkpt lat="58.50308792665601" lon="13.169591948390007">
        <ele>46.55</ele>
        <time>2025-02-09T07:30:47.037Z</time>
      </trkpt>
      <trkpt lat="58.50305096246302" lon="13.169715916737914">
        <ele>46.52</ele>
        <time>2025-02-09T07:31:24.007Z</time>
      </trkpt>
      <trkpt lat="58.503013998270035" lon="13.16983493976295">
        <ele>46.5</ele>
        <time>2025-02-09T07:32:00.978Z</time>
      </trkpt>
      <trkpt lat="58.50297896191478" lon="13.169949939474463">
        <ele>46.48</ele>
        <time>2025-02-09T07:32:37.950Z</time>
      </trkpt>
      <trkpt lat="58.50294593721628" lon="13.170067956671119">
        <ele>46.45</ele>
        <time>2025-02-09T07:33:14.923Z</time>
      </trkpt>
      <trkpt lat="58.50291299633682" lon="13.170186979696155">
        <ele>46.42</ele>
        <time>2025-02-09T07:33:51.898Z</time>
      </trkpt>
      <trkpt lat="58.50288198329508" lon="13.170309942215681">
        <ele>46.4</ele>
        <time>2025-02-09T07:34:28.874Z</time>
      </trkpt>
      <trkpt lat="58.50284996442497" lon="13.170430976897478">
        <ele>46.37</ele>
        <time>2025-02-09T07:35:05.851Z</time>
      </trkpt>
      <trkpt lat="58.50281895138323" lon="13.170549999922514">
        <ele>46.35</ele>
        <time>2025-02-09T07:35:42.829Z</time>
      </trkpt>
      <trkpt lat="58.50279095582664" lon="13.170669944956899">
        <ele>46.33</ele>
        <time>2025-02-09T07:36:19.808Z</time>
      </trkpt>
      <trkpt lat="58.50276396609843" lon="13.170791985467076">
        <ele>46.31</ele>
        <time>2025-02-09T07:36:56.788Z</time>
      </trkpt>
      <trkpt lat="58.502735970541835" lon="13.170915953814983">
        <ele>46.28</ele>
        <time>2025-02-09T07:37:33.769Z</time>
      </trkpt>
      <trkpt lat="58.50270898081362" lon="13.171041933819652">
        <ele>46.25</ele>
        <time>2025-02-09T07:38:10.751Z</time>
      </trkpt>
      <trkpt lat="58.50268199108541" lon="13.17116598598659">
        <ele>46.24</ele>
        <time>2025-02-09T07:38:47.735Z</time>
      </trkpt>
      <trkpt lat="58.50265692919493" lon="13.171288948506117">
        <ele>46.22</ele>
        <time>2025-02-09T07:39:24.720Z</time>
      </trkpt>
      <trkpt lat="58.502628933638334" lon="13.171412916854024">
        <ele>46.2</ele>
        <time>2025-02-09T07:40:01.706Z</time>
      </trkpt>
      <trkpt lat="58.50260093808174" lon="13.171537974849343">
        <ele>46.19</ele>
        <time>2025-02-09T07:40:38.693Z</time>
      </trkpt>
      <trkpt lat="58.50257394835353" lon="13.171663954854012">
        <ele>46.18</ele>
        <time>2025-02-09T07:41:15.681Z</time>
      </trkpt>
      <trkpt lat="58.502545952796936" lon="13.17179094068706">
        <ele>46.16</ele>
        <time>2025-02-09T07:41:52.670Z</time>
      </trkpt>
      <trkpt lat="58.50251695141196" lon="13.17191893234849">
        <ele>46.14</ele>
        <time>2025-02-09T07:42:29.660Z</time>
      </trkpt>
      <trkpt lat="58.50248895585537" lon="13.17204399034381">
        <ele>46.12</ele>
        <time>2025-02-09T07:43:06.652Z</time>
      </trkpt>
      <trkpt lat="58.502458948642015" lon="13.172166952863336">
        <ele>46.1</ele>
        <time>2025-02-09T07:43:43.645Z</time>
      </trkpt>
      <trkpt lat="58.50242894142866" lon="13.172290921211243">
        <ele>46.09</ele>
        <time>2025-02-09T07:44:20.639Z</time>
      </trkpt>
      <trkpt lat="58.50239893421531" lon="13.17241296172142">
        <ele>46.07</ele>
        <time>2025-02-09T07:44:57.634Z</time>
      </trkpt>
      <trkpt lat="58.50236892700195" lon="13.172534918412566">
        <ele>46.06</ele>
        <time>2025-02-09T07:45:34.630Z</time>
      </trkpt>
      <trkpt lat="58.50233799777925" lon="13.172654947265983">
        <ele>46.05</ele>
        <time>2025-02-09T07:46:11.627Z</time>
      </trkpt>
      <trkpt lat="58.502305978909135" lon="13.172774976119399">
        <ele>46.04</ele>
        <time>2025-02-09T07:46:48.625Z</time>
      </trkpt>
      <trkpt lat="58.5022749658674" lon="13.172894921153784">
        <ele>46.03</ele>
        <time>2025-02-09T07:47:25.625Z</time>
      </trkpt>
      <trkpt lat="58.502242946997285" lon="13.17301595583558">
        <ele>46.02</ele>
        <time>2025-02-09T07:48:02.626Z</time>
      </trkpt>
      <trkpt lat="58.50220891647041" lon="13.173138918355107">
        <ele>46.01</ele>
        <time>2025-02-09T07:48:39.628Z</time>
      </trkpt>
      <trkpt lat="58.502175975590944" lon="13.173262970522046">
        <ele>46.0</ele>
        <time>2025-02-09T07:49:16.631Z</time>
      </trkpt>
      <trkpt lat="58.50214295089245" lon="13.173384927213192">
        <ele>45.99</ele>
        <time>2025-02-09T07:49:53.635Z</time>
      </trkpt>
      <trkpt lat="58.502112943679094" lon="13.17350797355175">
        <ele>45.98</ele>
        <time>2025-02-09T07:50:30.640Z</time>
      </trkpt>
      <trkpt lat="58.50207899697125" lon="13.173628924414515">
        <ele>45.97</ele>
        <time>2025-02-09T07:51:07.646Z</time>
      </trkpt>
      <trkpt lat="58.50204496644437" lon="13.173749959096313">
        <ele>45.96</ele>
        <time>2025-02-09T07:51:44.654Z</time>
      </trkpt>
      <trkpt lat="58.5020109359175" lon="13.17387099377811">
        <ele>45.95</ele>
        <time>2025-02-09T07:52:21.663Z</time>
      </trkpt>
      <trkpt lat="58.50197698920965" lon="13.173991944640875">
        <ele>45.94</ele>
        <time>2025-02-09T07:52:58.673Z</time>
      </trkpt>
      <trkpt lat="58.501940947026014" lon="13.174112979322672">
        <ele>45.93</ele>
        <time>2025-02-09T07:53:35.684Z</time>
      </trkpt>
      <trkpt lat="58.50190599448979" lon="13.174234936013818">
        <ele>45.93</ele>
        <time>2025-02-09T07:54:12.696Z</time>
      </trkpt>
      <trkpt lat="58.50186995230615" lon="13.174355970695615">
        <ele>45.92</ele>
        <time>2025-02-09T07:54:49.709Z</time>
      </trkpt>
      <trkpt lat="58.501833993941545" lon="13.17447792738676">
        <ele>45.92</ele>
        <time>2025-02-09T07:55:26.724Z</time>
      </trkpt>
      <trkpt lat="58.50179895758629" lon="13.1746019795537">
        <ele>45.91</ele>
        <time>2025-02-09T07:56:03.740Z</time>
      </trkpt>
      <trkpt lat="58.50176392123103" lon="13.174724942073226">
        <ele>45.91</ele>
        <time>2025-02-09T07:56:40.757Z</time>
      </trkpt>
      <trkpt lat="58.501726957038045" lon="13.174848994240165">
        <ele>45.91</ele>
        <time>2025-02-09T07:57:17.775Z</time>
      </trkpt>
      <trkpt lat="58.50169192068279" lon="13.174972962588072">
        <ele>45.91</ele>
        <time>2025-02-09T07:57:54.794Z</time>
      </trkpt>
      <trkpt lat="58.50165696814656" lon="13.17509793676436">
        <ele>45.9</ele>
        <time>2025-02-09T07:58:31.815Z</time>
      </trkpt>
      <trkpt lat="58.501622937619686" lon="13.175223916769028">
        <ele>45.9</ele>
        <time>2025-02-09T07:59:08.837Z</time>
      </trkpt>
      <trkpt lat="58.50158899091184" lon="13.175350986421108">
        <ele>45.9</ele>
        <time>2025-02-09T07:59:45.860Z</time>
      </trkpt>
      <trkpt lat="58.501554960384965" lon="13.175478978082538">
        <ele>45.9</ele>
        <time>2025-02-09T08:00:22.884Z</time>
      </trkpt>
      <trkpt lat="58.50152092985809" lon="13.175606969743967">
        <ele>45.9</ele>
        <time>2025-02-09T08:00:59.909Z</time>
      </trkpt>
      <trkpt lat="58.501488994807005" lon="13.175735967233777">
        <ele>45.9</ele>
        <time>2025-02-09T08:01:36.936Z</time>
      </trkpt>
      <trkpt lat="58.50145798176527" lon="13.175865970551968">
        <ele>45.9</ele>
        <time>2025-02-09T08:02:13.964Z</time>
      </trkpt>
      <trkpt lat="58.501425962895155" lon="13.17599798552692">
        <ele>45.9</ele>
        <time>2025-02-09T08:02:50.993Z</time>
      </trkpt>
      <trkpt lat="58.50139494985342" lon="13.17612991668284">
        <ele>45.89</ele>
        <time>2025-02-09T08:03:28.023Z</time>
      </trkpt>
      <trkpt lat="58.501363936811686" lon="13.176262937486172">
        <ele>45.89</ele>
        <time>2025-02-09T08:04:05.054Z</time>
      </trkpt>
      <trkpt lat="58.50133493542671" lon="13.176396964117885">
        <ele>45.89</ele>
        <time>2025-02-09T08:04:42.087Z</time>
      </trkpt>
      <trkpt lat="58.50130693987012" lon="13.176529984921217">
        <ele>45.89</ele>
        <time>2025-02-09T08:05:19.121Z</time>
      </trkpt>
      <trkpt lat="58.50127995014191" lon="13.176661999896169">
        <ele>45.89</ele>
        <time>2025-02-09T08:05:56.156Z</time>
      </trkpt>
      <trkpt lat="58.501253966242075" lon="13.17679493688047">
        <ele>45.88</ele>
        <time>2025-02-09T08:06:33.192Z</time>
      </trkpt>
      <trkpt lat="58.50122798234224" lon="13.176927957683802">
        <ele>45.88</ele>
        <time>2025-02-09T08:07:10.229Z</time>
      </trkpt>
      <trkpt lat="58.50119998678565" lon="13.177060978487134">
        <ele>45.88</ele>
        <time>2025-02-09T08:07:47.268Z</time>
      </trkpt>
      <trkpt lat="58.50117299705744" lon="13.177195927128196">
        <ele>45.89</ele>
        <time>2025-02-09T08:08:24.308Z</time>
      </trkpt>
      <trkpt lat="58.50114491768181" lon="13.17733095958829">
        <ele>45.88</ele>
        <time>2025-02-09T08:09:01.349Z</time>
      </trkpt>
      <trkpt lat="58.50111893378198" lon="13.177464986220002">
        <ele>45.88</ele>
        <time>2025-02-09T08:09:38.391Z</time>
      </trkpt>
      <trkpt lat="58.50109194405377" lon="13.177598929032683">
        <ele>45.89</ele>
        <time>2025-02-09T08:10:15.434Z</time>
      </trkpt>
      <trkpt lat="58.501063948497176" lon="13.177733961492777">
        <ele>45.89</ele>
        <time>2025-02-09T08:10:52.479Z</time>
      </trkpt>
      <trkpt lat="58.5010349471122" lon="13.17786899395287">
        <ele>45.89</ele>
        <time>2025-02-09T08:11:29.525Z</time>
      </trkpt>
      <trkpt lat="58.50100594572723" lon="13.17800092510879">
        <ele>45.89</ele>
        <time>2025-02-09T08:12:06.572Z</time>
      </trkpt>
      <trkpt lat="58.500975938513875" lon="13.178134951740503">
        <ele>45.89</ele>
        <time>2025-02-09T08:12:43.620Z</time>
      </trkpt>
      <trkpt lat="58.5009469371289" lon="13.178267972543836">
        <ele>45.9</ele>
        <time>2025-02-09T08:13:20.669Z</time>
      </trkpt>
      <trkpt lat="58.50092195905745" lon="13.178398981690407">
        <ele>45.91</ele>
        <time>2025-02-09T08:13:57.720Z</time>
      </trkpt>
      <trkpt lat="58.500896980986" lon="13.178528985008597">
        <ele>45.91</ele>
        <time>2025-02-09T08:14:34.772Z</time>
      </trkpt>
      <trkpt lat="58.50086999125779" lon="13.178657982498407">
        <ele>45.92</ele>
        <time>2025-02-09T08:15:11.825Z</time>
      </trkpt>
      <trkpt lat="58.50083998404443" lon="13.178786979988217">
        <ele>45.93</ele>
        <time>2025-02-09T08:15:48.879Z</time>
      </trkpt>
      <trkpt lat="58.5008089710027" lon="13.178909942507744">
        <ele>45.94</ele>
        <time>2025-02-09T08:16:25.934Z</time>
      </trkpt>
      <trkpt lat="58.50077695213258" lon="13.179031983017921">
        <ele>45.95</ele>
        <time>2025-02-09T08:17:02.990Z</time>
      </trkpt>
      <trkpt lat="58.50074493326247" lon="13.179148994386196">
        <ele>45.95</ele>
        <time>2025-02-09T08:17:40.048Z</time>
      </trkpt>
      <trkpt lat="58.500712998211384" lon="13.179258964955807">
        <ele>45.96</ele>
        <time>2025-02-09T08:18:17.107Z</time>
      </trkpt>
      <trkpt lat="58.50067896768451" lon="13.179363990202546">
        <ele>45.97</ele>
        <time>2025-02-09T08:18:54.167Z</time>
      </trkpt>
      <trkpt lat="58.50064191967249" lon="13.179462980479002">
        <ele>45.99</ele>
        <time>2025-02-09T08:19:31.228Z</time>
      </trkpt>
      <trkpt lat="58.50060294382274" lon="13.179553924128413">
        <ele>46.0</ele>
        <time>2025-02-09T08:20:08.290Z</time>
      </trkpt>
      <trkpt lat="58.50056296214461" lon="13.17963195964694">
        <ele>46.01</ele>
        <time>2025-02-09T08:20:45.353Z</time>
      </trkpt>
      <trkpt lat="58.5005169454962" lon="13.179689962416887">
        <ele>46.01</ele>
        <time>2025-02-09T08:21:22.416Z</time>
      </trkpt>
      <trkpt lat="58.50047092884779" lon="13.179721981287003">
        <ele>46.02</ele>
        <time>2025-02-09T08:21:59.480Z</time>
      </trkpt>
      <trkpt lat="58.50042399019003" lon="13.179729944095016">
        <ele>46.03</ele>
        <time>2025-02-09T08:22:36.545Z</time>
      </trkpt>
      <trkpt lat="58.500371938571334" lon="13.1797169521451">
        <ele>46.04</ele>
        <time>2025-02-09T08:23:13.611Z</time>
      </trkpt>
      <trkpt lat="58.50031896494329" lon="13.17969499155879">
        <ele>46.06</ele>
        <time>2025-02-09T08:23:50.678Z</time>
      </trkpt>
      <trkpt lat="58.500263979658484" lon="13.17967596463859">
        <ele>46.07</ele>
        <time>2025-02-09T08:24:27.746Z</time>
      </trkpt>
      <trkpt lat="58.5002079885453" lon="13.17967596463859">
        <ele>46.07</ele>
        <time>2025-02-09T08:25:04.815Z</time>
      </trkpt>
      <trkpt lat="58.500157948583364" lon="13.179702954366803">
        <ele>46.08</ele>
        <time>2025-02-09T08:25:41.884Z</time>
      </trkpt>
      <trkpt lat="58.50011897273362" lon="13.179758945479989">
        <ele>46.09</ele>
        <time>2025-02-09T08:26:18.954Z</time>
      </trkpt>
      <trkpt lat="58.500097934156656" lon="13.179838992655277">
        <ele>46.1</ele>
        <time>2025-02-09T08:26:56.025Z</time>
      </trkpt>
      <trkpt lat="58.50009893998504" lon="13.179935971274972">
        <ele>46.12</ele>
        <time>2025-02-09T08:27:33.097Z</time>
      </trkpt>
      <trkpt lat="58.500119978562" lon="13.180030938237906">
        <ele>46.13</ele>
        <time>2025-02-09T08:28:10.170Z</time>
      </trkpt>
      <trkpt lat="58.50015392526984" lon="13.180112997069955">
        <ele>46.15</ele>
        <time>2025-02-09T08:28:47.243Z</time>
      </trkpt>
      <trkpt lat="58.50019591860473" lon="13.180178962647915">
        <ele>46.16</ele>
        <time>2025-02-09T08:29:24.317Z</time>
      </trkpt>
      <trkpt lat="58.50024193525314" lon="13.180231936275959">
        <ele>46.18</ele>
        <time>2025-02-09T08:30:01.392Z</time>
      </trkpt>
      <trkpt lat="58.50029197521508" lon="13.18027795292437">
        <ele>46.19</ele>
        <time>2025-02-09T08:30:38.468Z</time>
      </trkpt>
      <trkpt lat="58.50034193135798" lon="13.18031994625926">
        <ele>46.21</ele>
        <time>2025-02-09T08:31:15.545Z</time>
      </trkpt>
      <trkpt lat="58.500393982976675" lon="13.18036294542253">
        <ele>46.22</ele>
        <time>2025-02-09T08:31:52.623Z</time>
      </trkpt>
      <trkpt lat="58.50044494494796" lon="13.18040493875742">
        <ele>46.24</ele>
        <time>2025-02-09T08:32:29.702Z</time>
      </trkpt>
      <trkpt lat="58.50049599073827" lon="13.18044894374907">
        <ele>46.25</ele>
        <time>2025-02-09T08:33:06.782Z</time>
      </trkpt>
      <trkpt lat="58.500544941052794" lon="13.180494960397482">
        <ele>46.27</ele>
        <time>2025-02-09T08:33:43.863Z</time>
      </trkpt>
      <trkpt lat="58.50059498101473" lon="13.180544916540384">
        <ele>46.28</ele>
        <time>2025-02-09T08:34:20.944Z</time>
      </trkpt>
      <trkpt lat="58.50064292550087" lon="13.18059797398746">
        <ele>46.3</ele>
        <time>2025-02-09T08:34:58.026Z</time>
      </trkpt>
      <trkpt lat="58.50069095380604" lon="13.180652959272265">
        <ele>46.31</ele>
        <time>2025-02-09T08:35:35.109Z</time>
      </trkpt>
      <trkpt lat="58.500737976282835" lon="13.180710962042212">
        <ele>46.33</ele>
        <time>2025-02-09T08:36:12.193Z</time>
      </trkpt>
      <trkpt lat="58.500785920768976" lon="13.18076896481216">
        <ele>46.35</ele>
        <time>2025-02-09T08:36:49.278Z</time>
      </trkpt>
      <trkpt lat="58.50083596073091" lon="13.180827973410487">
        <ele>46.37</ele>
        <time>2025-02-09T08:37:26.364Z</time>
      </trkpt>
      <trkpt lat="58.500888934358954" lon="13.180883964523673">
        <ele>46.38</ele>
        <time>2025-02-09T08:38:03.451Z</time>
      </trkpt>
      <trkpt lat="58.50094391964376" lon="13.180933920666575">
        <ele>46.4</ele>
        <time>2025-02-09T08:38:40.539Z</time>
      </trkpt>
      <trkpt lat="58.50099999457598" lon="13.180978931486607">
        <ele>46.42</ele>
        <time>2025-02-09T08:39:17.628Z</time>
      </trkpt>
      <trkpt lat="58.501056991517544" lon="13.181019918993115">
        <ele>46.44</ele>
        <time>2025-02-09T08:39:54.718Z</time>
      </trkpt>
      <trkpt lat="58.50111499428749" lon="13.181058978661895">
        <ele>46.46</ele>
        <time>2025-02-09T08:40:31.809Z</time>
      </trkpt>
      <trkpt lat="58.501169979572296" lon="13.181100971996784">
        <ele>46.47</ele>
        <time>2025-02-09T08:41:08.901Z</time>
      </trkpt>
      <trkpt lat="58.50122295320034" lon="13.181147994473577">
        <ele>46.49</ele>
        <time>2025-02-09T08:41:45.994Z</time>
      </trkpt>
      <trkpt lat="58.50126796402037" lon="13.181195938959718">
        <ele>46.51</ele>
        <time>2025-02-09T08:42:23.088Z</time>
      </trkpt>
      <trkpt lat="58.501298977062106" lon="13.181236926466227">
        <ele>46.53</ele>
        <time>2025-02-09T08:43:00.182Z</time>
      </trkpt>
      <trkpt lat="58.501316998153925" lon="13.18126492202282">
        <ele>46.55</ele>
        <time>2025-02-09T08:43:37.277Z</time>
      </trkpt>
      <trkpt lat="58.50132496096194" lon="13.181278919801116">
        <ele>46.57</ele>
        <time>2025-02-09T08:44:14.372Z</time>
      </trkpt>
      <trkpt lat="58.50132797844708" lon="13.181281937286258">
        <ele>46.59</ele>
        <time>2025-02-09T08:44:51.467Z</time>
      </trkpt>
      <trkpt lat="58.50132898427546" lon="13.181280931457877">
        <ele>46.61</ele>
        <time>2025-02-09T08:45:28.562Z</time>
      </trkpt>
      <trkpt lat="58.50126595236361" lon="13.18128696642816">
        <ele>46.64</ele>
        <time>2025-02-09T08:46:05.658Z</time>
      </trkpt>
      <trkpt lat="58.501235945150256" lon="13.181259976699948">
        <ele>46.66</ele>
        <time>2025-02-09T08:46:42.754Z</time>
      </trkpt>
      <trkpt lat="58.50120292045176" lon="13.18122393451631">
        <ele>46.68</ele>
        <time>2025-02-09T08:47:19.851Z</time>
      </trkpt>
      <trkpt lat="58.501167967915535" lon="13.181189987808466">
        <ele>46.7</ele>
        <time>2025-02-09T08:47:56.949Z</time>
      </trkpt>
      <trkpt lat="58.50113091990352" lon="13.18115696310997">
        <ele>46.72</ele>
        <time>2025-02-09T08:48:34.047Z</time>
      </trkpt>
      <trkpt lat="58.50109194405377" lon="13.181127961724997">
        <ele>46.75</ele>
        <time>2025-02-09T08:49:11.146Z</time>
      </trkpt>
      <trkpt lat="58.5010539740324" lon="13.181101977825165">
        <ele>46.77</ele>
        <time>2025-02-09T08:49:48.246Z</time>
      </trkpt>
      <trkpt lat="58.501016926020384" lon="13.181072976440191">
        <ele>46.79</ele>
        <time>2025-02-09T08:50:25.346Z</time>
      </trkpt>
      <trkpt lat="58.5009799618274" lon="13.181038945913315">
        <ele>46.82</ele>
        <time>2025-02-09T08:51:02.447Z</time>
      </trkpt>
      <trkpt lat="58.50094593130052" lon="13.180998964235187">
        <ele>46.84</ele>
        <time>2025-02-09T08:51:39.548Z</time>
      </trkpt>
      <trkpt lat="58.50091399624944" lon="13.180954959243536">
        <ele>46.86</ele>
        <time>2025-02-09T08:52:16.650Z</time>
      </trkpt>
      <trkpt lat="58.50087996572256" lon="13.180908942595124">
        <ele>46.89</ele>
        <time>2025-02-09T08:52:53.753Z</time>
      </trkpt>
      <trkpt lat="58.500845935195684" lon="13.180863931775093">
        <ele>46.91</ele>
        <time>2025-02-09T08:53:30.856Z</time>
      </trkpt>
      <trkpt lat="58.50080997683108" lon="13.180820932611823">
        <ele>46.94</ele>
        <time>2025-02-09T08:54:07.960Z</time>
      </trkpt>
      <trkpt lat="58.50077393464744" lon="13.180777933448553">
        <ele>46.96</ele>
        <time>2025-02-09T08:54:45.065Z</time>
      </trkpt>
      <trkpt lat="58.500737976282835" lon="13.180734934285283">
        <ele>46.99</ele>
        <time>2025-02-09T08:55:22.171Z</time>
      </trkpt>
      <trkpt lat="58.50070092827082" lon="13.180687995627522">
        <ele>47.02</ele>
        <time>2025-02-09T08:55:59.277Z</time>
      </trkpt>
      <trkpt lat="58.50066396407783" lon="13.18064097315073">
        <ele>47.04</ele>
        <time>2025-02-09T08:56:36.384Z</time>
      </trkpt>
      <trkpt lat="58.50062599405646" lon="13.18059696815908">
        <ele>47.07</ele>
        <time>2025-02-09T08:57:13.492Z</time>
      </trkpt>
      <trkpt lat="58.500586934387684" lon="13.18055497482419">
        <ele>47.09</ele>
        <time>2025-02-09T08:57:50.600Z</time>
      </trkpt>
      <trkpt lat="58.500543935224414" lon="13.180513987317681">
        <ele>47.12</ele>
        <time>2025-02-09T08:58:27.709Z</time>
      </trkpt>
      <trkpt lat="58.50049993023276" lon="13.180473921820521">
        <ele>47.15</ele>
        <time>2025-02-09T08:59:04.819Z</time>
      </trkpt>
      <trkpt lat="58.50045491941273" lon="13.180436957627535">
        <ele>47.18</ele>
        <time>2025-02-09T08:59:41.930Z</time>
      </trkpt>
      <trkpt lat="58.50040898658335" lon="13.180403932929039">
        <ele>47.2</ele>
        <time>2025-02-09T09:00:19.041Z</time>
      </trkpt>
      <trkpt lat="58.50036196410656" lon="13.180375937372446">
        <ele>47.23</ele>
        <time>2025-02-09T09:00:56.153Z</time>
      </trkpt>
      <trkpt lat="58.50031393580139" lon="13.180352970957756">
        <ele>47.26</ele>
        <time>2025-02-09T09:01:33.266Z</time>
      </trkpt>
      <trkpt lat="58.500263979658484" lon="13.180341990664601">
        <ele>47.29</ele>
        <time>2025-02-09T09:02:10.380Z</time>
      </trkpt>
      <trkpt lat="58.50021293386817" lon="13.180344924330711">
        <ele>47.32</ele>
        <time>2025-02-09T09:02:47.495Z</time>
      </trkpt>
      <trkpt lat="58.500160966068506" lon="13.18036193959415">
        <ele>47.34</ele>
        <time>2025-02-09T09:03:24.611Z</time>
      </trkpt>
      <trkpt lat="58.50010992027819" lon="13.180387923493981">
        <ele>47.37</ele>
        <time>2025-02-09T09:04:01.727Z</time>
      </trkpt>
      <trkpt lat="58.50005795247853" lon="13.180415919050574">
        <ele>47.41</ele>
        <time>2025-02-09T09:04:38.844Z</time>
      </trkpt>
      <trkpt lat="58.500004978850484" lon="13.180442992597818">
        <ele>47.44</ele>
        <time>2025-02-09T09:05:15.962Z</time>
      </trkpt>
      <trkpt lat="58.49995192140341" lon="13.180465959012508">
        <ele>47.47</ele>
        <time>2025-02-09T09:05:53.081Z</time>
      </trkpt>
      <trkpt lat="58.49989794194698" lon="13.180486997589469">
        <ele>47.5</ele>
        <time>2025-02-09T09:06:30.201Z</time>
      </trkpt>
      <trkpt lat="58.4998469799757" lon="13.180507952347398">
        <ele>47.53</ele>
        <time>2025-02-09T09:07:07.322Z</time>
      </trkpt>
      <trkpt lat="58.49979794584215" lon="13.180528990924358">
        <ele>47.56</ele>
        <time>2025-02-09T09:07:44.444Z</time>
      </trkpt>
      <trkpt lat="58.499749917536974" lon="13.180549945682287">
        <ele>47.59</ele>
        <time>2025-02-09T09:08:21.566Z</time>
      </trkpt>
      <trkpt lat="58.499707924202085" lon="13.180568972602487">
        <ele>47.62</ele>
        <time>2025-02-09T09:08:58.689Z</time>
      </trkpt>
      <trkpt lat="58.49967498332262" lon="13.180583976209164">
        <ele>47.66</ele>
        <time>2025-02-09T09:09:35.813Z</time>
      </trkpt>
      <trkpt lat="58.49964992143214" lon="13.180594956502318">
        <ele>47.69</ele>
        <time>2025-02-09T09:10:12.937Z</time>
      </trkpt>
      <trkpt lat="58.49962896667421" lon="13.180603925138712">
        <ele>47.72</ele>
        <time>2025-02-09T09:10:50.061Z</time>
      </trkpt>
      <trkpt lat="58.49961094558239" lon="13.180609960108995">
        <ele>47.76</ele>
        <time>2025-02-09T09:11:27.186Z</time>
      </trkpt>
      <trkpt lat="58.49959694780409" lon="13.180614989250898">
        <ele>47.79</ele>
        <time>2025-02-09T09:12:04.311Z</time>
      </trkpt>
      <trkpt lat="58.49958395585418" lon="13.180624963715672">
        <ele>47.82</ele>
        <time>2025-02-09T09:12:41.436Z</time>
      </trkpt>
      <trkpt lat="58.49956995807588" lon="13.180644996464252">
        <ele>47.86</ele>
        <time>2025-02-09T09:13:18.561Z</time>
      </trkpt>
      <trkpt lat="58.49956098943949" lon="13.180676931515336">
        <ele>47.89</ele>
        <time>2025-02-09T09:13:55.687Z</time>
      </trkpt>
      <trkpt lat="58.49955394864082" lon="13.180720936506987">
        <ele>47.92</ele>
        <time>2025-02-09T09:14:32.813Z</time>
      </trkpt>
      <trkpt lat="58.49954799748957" lon="13.180772988125682">
        <ele>47.96</ele>
        <time>2025-02-09T09:15:09.939Z</time>
      </trkpt>
      <trkpt lat="58.49953995086253" lon="13.180826967582107">
        <ele>47.99</ele>
        <time>2025-02-09T09:15:47.066Z</time>
      </trkpt>
      <trkpt lat="58.49952595308423" lon="13.180886982008815">
        <ele>48.02</ele>
        <time>2025-02-09T09:16:24.194Z</time>
      </trkpt>
      <trkpt lat="58.4995049983263" lon="13.180949930101633">
        <ele>48.06</ele>
        <time>2025-02-09T09:17:01.322Z</time>
      </trkpt>
      <trkpt lat="58.49948194809258" lon="13.181018996983767">
        <ele>48.09</ele>
        <time>2025-02-09T09:17:38.451Z</time>
      </trkpt>
      <trkpt lat="58.49946392700076" lon="13.181098960340023">
        <ele>48.13</ele>
        <time>2025-02-09T09:18:15.581Z</time>
      </trkpt>
      <trkpt lat="58.499450935050845" lon="13.181191999465227">
        <ele>48.16</ele>
        <time>2025-02-09T09:18:52.711Z</time>
      </trkpt>
      <trkpt lat="58.49944297224283" lon="13.181288978084922">
        <ele>48.19</ele>
        <time>2025-02-09T09:19:29.842Z</time>
      </trkpt>
      <trkpt lat="58.49943593144417" lon="13.181385956704617">
        <ele>48.23</ele>
        <time>2025-02-09T09:20:06.974Z</time>
      </trkpt>
      <trkpt lat="58.499428974464536" lon="13.181483941152692">
        <ele>48.26</ele>
        <time>2025-02-09T09:20:44.107Z</time>
      </trkpt>
      <trkpt lat="58.49942193366587" lon="13.181584943085909">
        <ele>48.29</ele>
        <time>2025-02-09T09:21:21.241Z</time>
      </trkpt>
      <trkpt lat="58.4994119592011" lon="13.181685945019126">
        <ele>48.33</ele>
        <time>2025-02-09T09:21:58.376Z</time>
      </trkpt>
      <trkpt lat="58.499402990564704" lon="13.181787952780724">
        <ele>48.36</ele>
        <time>2025-02-09T09:22:35.511Z</time>
      </trkpt>
      <trkpt lat="58.49939494393766" lon="13.181890966370702">
        <ele>48.4</ele>
        <time>2025-02-09T09:23:12.647Z</time>
      </trkpt>
      <trkpt lat="58.499385975301266" lon="13.18199498578906">
        <ele>48.43</ele>
        <time>2025-02-09T09:23:49.784Z</time>
      </trkpt>
      <trkpt lat="58.49937398917973" lon="13.182100933045149">
        <ele>48.46</ele>
        <time>2025-02-09T09:24:26.922Z</time>
      </trkpt>
      <trkpt lat="58.499359991401434" lon="13.18220998160541">
        <ele>48.49</ele>
        <time>2025-02-09T09:25:04.061Z</time>
      </trkpt>
      <trkpt lat="58.49934498779476" lon="13.182320958003402">
        <ele>48.52</ele>
        <time>2025-02-09T09:25:41.201Z</time>
      </trkpt>
      <trkpt lat="58.49933099001646" lon="13.182435957714915">
        <ele>48.55</ele>
        <time>2025-02-09T09:26:18.342Z</time>
      </trkpt>
      <trkpt lat="58.49931892007589" lon="13.18255296908319">
        <ele>48.59</ele>
        <time>2025-02-09T09:26:55.484Z</time>
      </trkpt>
      <trkpt lat="58.49930793978274" lon="13.182670986279845">
        <ele>48.62</ele>
        <time>2025-02-09T09:27:32.627Z</time>
      </trkpt>
      <trkpt lat="58.499296959489584" lon="13.182788919657469">
        <ele>48.65</ele>
        <time>2025-02-09T09:28:09.771Z</time>
      </trkpt>
      <trkpt lat="58.49928799085319" lon="13.182907942682505">
        <ele>48.69</ele>
        <time>2025-02-09T09:28:46.916Z</time>
      </trkpt>
      <trkpt lat="58.499276926741004" lon="13.18302595987916">
        <ele>48.72</ele>
        <time>2025-02-09T09:29:24.062Z</time>
      </trkpt>
      <trkpt lat="58.49926594644785" lon="13.183142971247435">
        <ele>48.76</ele>
        <time>2025-02-09T09:30:01.209Z</time>
      </trkpt>
      <trkpt lat="58.499253960326314" lon="13.183257970958948">
        <ele>48.79</ele>
        <time>2025-02-09T09:30:38.357Z</time>
      </trkpt>
      <trkpt lat="58.49923996254802" lon="13.183372970670462">
        <ele>48.82</ele>
        <time>2025-02-09T09:31:15.506Z</time>
      </trkpt>
      <trkpt lat="58.4992269705981" lon="13.183487970381975">
        <ele>48.85</ele>
        <time>2025-02-09T09:31:52.656Z</time>
      </trkpt>
      <trkpt lat="58.499212972819805" lon="13.183602970093489">
        <ele>48.88</ele>
        <time>2025-02-09T09:32:29.807Z</time>
      </trkpt>
      <trkpt lat="58.49920098669827" lon="13.183718975633383">
        <ele>48.92</ele>
        <time>2025-02-09T09:33:06.959Z</time>
      </trkpt>
      <trkpt lat="58.4991889167577" lon="13.183836992830038">
        <ele>48.95</ele>
        <time>2025-02-09T09:33:44.112Z</time>
      </trkpt>
      <trkpt lat="58.49917793646455" lon="13.183953920379281">
        <ele>48.98</ele>
        <time>2025-02-09T09:34:21.266Z</time>
      </trkpt>
      <trkpt lat="58.49916494451463" lon="13.184072943404317">
        <ele>49.01</ele>
        <time>2025-02-09T09:34:58.421Z</time>
      </trkpt>
      <trkpt lat="58.4991529583931" lon="13.184192972257733">
        <ele>49.04</ele>
        <time>2025-02-09T09:35:35.577Z</time>
      </trkpt>
      <trkpt lat="58.49913996644318" lon="13.184313923120499">
        <ele>49.07</ele>
        <time>2025-02-09T09:36:12.734Z</time>
      </trkpt>
      <trkpt lat="58.499126974493265" lon="13.184435963630676">
        <ele>49.1</ele>
        <time>2025-02-09T09:36:49.892Z</time>
      </trkpt>
      <trkpt lat="58.49911398254335" lon="13.184557920321822">
        <ele>49.13</ele>
        <time>2025-02-09T09:37:27.051Z</time>
      </trkpt>
      <trkpt lat="58.49910099059343" lon="13.184679960832">
        <ele>49.15</ele>
        <time>2025-02-09T09:38:04.211Z</time>
      </trkpt>
      <trkpt lat="58.499088920652866" lon="13.184803929179907">
        <ele>49.18</ele>
        <time>2025-02-09T09:38:41.372Z</time>
      </trkpt>
      <trkpt lat="58.49907592870295" lon="13.184929993003607">
        <ele>49.21</ele>
        <time>2025-02-09T09:39:18.534Z</time>
      </trkpt>
      <trkpt lat="58.499062936753035" lon="13.185054967179894">
        <ele>49.24</ele>
        <time>2025-02-09T09:39:55.697Z</time>
      </trkpt>
      <trkpt lat="58.49904692731798" lon="13.185179941356182">
        <ele>49.27</ele>
        <time>2025-02-09T09:40:32.861Z</time>
      </trkpt>
      <trkpt lat="58.49902999587357" lon="13.185304999351501">
        <ele>49.3</ele>
        <time>2025-02-09T09:41:10.027Z</time>
      </trkpt>
      <trkpt lat="58.49901298061013" lon="13.18543097935617">
        <ele>49.33</ele>
        <time>2025-02-09T09:41:47.194Z</time>
      </trkpt>
      <trkpt lat="58.498995965346694" lon="13.185556959360838">
        <ele>49.36</ele>
        <time>2025-02-09T09:42:24.362Z</time>
      </trkpt>
      <trkpt lat="58.498975932598114" lon="13.185681933537126">
        <ele>49.39</ele>
        <time>2025-02-09T09:43:01.531Z</time>
      </trkpt>
      <trkpt lat="58.498953972011805" lon="13.185806991532445">
        <ele>49.42</ele>
        <time>2025-02-09T09:43:38.701Z</time>
      </trkpt>
      <trkpt lat="58.49893192760646" lon="13.185933977365494">
        <ele>49.45</ele>
        <time>2025-02-09T09:44:15.872Z</time>
      </trkpt>
      <trkpt lat="58.498909967020154" lon="13.186060963198543">
        <ele>49.48</ele>
        <time>2025-02-09T09:44:53.044Z</time>
      </trkpt>
      <trkpt lat="58.49888792261481" lon="13.186189960688353">
        <ele>49.51</ele>
        <time>2025-02-09T09:45:30.217Z</time>
      </trkpt>
      <trkpt lat="58.498867973685265" lon="13.186317952349782">
        <ele>49.53</ele>
        <time>2025-02-09T09:46:07.391Z</time>
      </trkpt>
      <trkpt lat="58.49884492345154" lon="13.186445944011211">
        <ele>49.56</ele>
        <time>2025-02-09T09:46:44.567Z</time>
      </trkpt>
      <trkpt lat="58.49882195703685" lon="13.18657393567264">
        <ele>49.58</ele>
        <time>2025-02-09T09:47:21.744Z</time>
      </trkpt>
      <trkpt lat="58.49879999645054" lon="13.18669999949634">
        <ele>49.6</ele>
        <time>2025-02-09T09:47:58.922Z</time>
      </trkpt>
      <trkpt lat="58.4987779520452" lon="13.18682698532939">
        <ele>49.62</ele>
        <time>2025-02-09T09:48:36.101Z</time>
      </trkpt>
      <trkpt lat="58.49875599145889" lon="13.186954976990819">
        <ele>49.64</ele>
        <time>2025-02-09T09:49:13.281Z</time>
      </trkpt>
      <trkpt lat="58.49873294122517" lon="13.187081962823868">
        <ele>49.65</ele>
        <time>2025-02-09T09:49:50.462Z</time>
      </trkpt>
      <trkpt lat="58.4987089689821" lon="13.187208948656917">
        <ele>49.67</ele>
        <time>2025-02-09T09:50:27.644Z</time>
      </trkpt>
      <trkpt lat="58.49868499673903" lon="13.187335934489965">
        <ele>49.68</ele>
        <time>2025-02-09T09:51:04.827Z</time>
      </trkpt>
      <trkpt lat="58.49865993484855" lon="13.187462920323014">
        <ele>49.7</ele>
        <time>2025-02-09T09:51:42.012Z</time>
      </trkpt>
      <trkpt lat="58.49863093346357" lon="13.187586972489953">
        <ele>49.71</ele>
        <time>2025-02-09T09:52:19.198Z</time>
      </trkpt>
      <trkpt lat="58.4986019320786" lon="13.18771094083786">
        <ele>49.72</ele>
        <time>2025-02-09T09:52:56.385Z</time>
      </trkpt>
      <trkpt lat="58.498572930693626" lon="13.187834993004799">
        <ele>49.72</ele>
        <time>2025-02-09T09:53:33.573Z</time>
      </trkpt>
      <trkpt lat="58.49854493513703" lon="13.187959967181087">
        <ele>49.73</ele>
        <time>2025-02-09T09:54:10.762Z</time>
      </trkpt>
      <trkpt lat="58.49851593375206" lon="13.188084941357374">
        <ele>49.73</ele>
        <time>2025-02-09T09:54:47.952Z</time>
      </trkpt>
      <trkpt lat="58.49848793819547" lon="13.188208993524313">
        <ele>49.74</ele>
        <time>2025-02-09T09:55:25.143Z</time>
      </trkpt>
      <trkpt lat="58.498460948467255" lon="13.18833195604384">
        <ele>49.74</ele>
        <time>2025-02-09T09:56:02.336Z</time>
      </trkpt>
      <trkpt lat="58.49843295291066" lon="13.188453996554017">
        <ele>49.75</ele>
        <time>2025-02-09T09:56:39.530Z</time>
      </trkpt>
      <trkpt lat="58.49840696901083" lon="13.188575953245163">
        <ele>49.75</ele>
        <time>2025-02-09T09:57:16.725Z</time>
      </trkpt>
      <trkpt lat="58.49838199093938" lon="13.18869698792696">
        <ele>49.76</ele>
        <time>2025-02-09T09:57:53.921Z</time>
      </trkpt>
      <trkpt lat="58.498356929048896" lon="13.188818944618106">
        <ele>49.76</ele>
        <time>2025-02-09T09:58:31.118Z</time>
      </trkpt>
      <trkpt lat="58.498330945149064" lon="13.188940985128284">
        <ele>49.76</ele>
        <time>2025-02-09T09:59:08.316Z</time>
      </trkpt>
      <trkpt lat="58.49830496124923" lon="13.18906394764781">
        <ele>49.77</ele>
        <time>2025-02-09T09:59:45.515Z</time>
      </trkpt>
      <trkpt lat="58.49828098900616" lon="13.189188921824098">
        <ele>49.77</ele>
        <time>2025-02-09T10:00:22.715Z</time>
      </trkpt>
      <trkpt lat="58.49825592711568" lon="13.189314985647798">
        <ele>49.77</ele>
        <time>2025-02-09T10:00:59.916Z</time>
      </trkpt>
      <trkpt lat="58.49822994321585" lon="13.189439959824085">
        <ele>49.77</ele>
        <time>2025-02-09T10:01:37.119Z</time>
      </trkpt>
      <trkpt lat="58.498203959316015" lon="13.189565939828753">
        <ele>49.78</ele>
        <time>2025-02-09T10:02:14.323Z</time>
      </trkpt>
      <trkpt lat="58.498178981244564" lon="13.189694937318563">
        <ele>49.79</ele>
        <time>2025-02-09T10:02:51.528Z</time>
      </trkpt>
      <trkpt lat="58.49815391935408" lon="13.189823934808373">
        <ele>49.8</ele>
        <time>2025-02-09T10:03:28.734Z</time>
      </trkpt>
      <trkpt lat="58.49812793545425" lon="13.189950920641422">
        <ele>49.8</ele>
        <time>2025-02-09T10:04:05.941Z</time>
      </trkpt>
      <trkpt lat="58.4981029573828" lon="13.190079918131232">
        <ele>49.8</ele>
        <time>2025-02-09T10:04:43.149Z</time>
      </trkpt>
      <trkpt lat="58.49807898513973" lon="13.190206987783313">
        <ele>49.81</ele>
        <time>2025-02-09T10:05:20.358Z</time>
      </trkpt>
      <trkpt lat="58.498054929077625" lon="13.190334979444742">
        <ele>49.82</ele>
        <time>2025-02-09T10:05:57.569Z</time>
      </trkpt>
      <trkpt lat="58.498030956834555" lon="13.190463976934552">
        <ele>49.83</ele>
        <time>2025-02-09T10:06:34.781Z</time>
      </trkpt>
      <trkpt lat="58.4980059787631" lon="13.190590962767601">
        <ele>49.83</ele>
        <time>2025-02-09T10:07:11.994Z</time>
      </trkpt>
      <trkpt lat="58.49798292852938" lon="13.19071895442903">
        <ele>49.83</ele>
        <time>2025-02-09T10:07:49.208Z</time>
      </trkpt>
      <trkpt lat="58.49795996211469" lon="13.19084795191884">
        <ele>49.84</ele>
        <time>2025-02-09T10:08:26.423Z</time>
      </trkpt>
      <trkpt lat="58.4979369957" lon="13.19097594358027">
        <ele>49.84</ele>
        <time>2025-02-09T10:09:03.639Z</time>
      </trkpt>
      <trkpt lat="58.4979129396379" lon="13.191101923584938">
        <ele>49.84</ele>
        <time>2025-02-09T10:09:40.856Z</time>
      </trkpt>
      <trkpt lat="58.49788997322321" lon="13.191228993237019">
        <ele>49.85</ele>
        <time>2025-02-09T10:10:18.075Z</time>
      </trkpt>
      <trkpt lat="58.49786692298949" lon="13.191354973241687">
        <ele>49.86</ele>
        <time>2025-02-09T10:10:55.295Z</time>
      </trkpt>
      <trkpt lat="58.4978439565748" lon="13.191480953246355">
        <ele>49.86</ele>
        <time>2025-02-09T10:11:32.516Z</time>
      </trkpt>
      <trkpt lat="58.49781998433173" lon="13.191606933251023">
        <ele>49.86</ele>
        <time>2025-02-09T10:12:09.738Z</time>
      </trkpt>
      <trkpt lat="58.497794922441244" lon="13.191733919084072">
        <ele>49.87</ele>
        <time>2025-02-09T10:12:46.961Z</time>
      </trkpt>
      <trkpt lat="58.49777095019817" lon="13.191860988736153">
        <ele>49.87</ele>
        <time>2025-02-09T10:13:24.185Z</time>
      </trkpt>
      <trkpt lat="58.4977469779551" lon="13.191987974569201">
        <ele>49.87</ele>
        <time>2025-02-09T10:14:01.410Z</time>
      </trkpt>
      <trkpt lat="58.49772392772138" lon="13.19211496040225">
        <ele>49.87</ele>
        <time>2025-02-09T10:14:38.636Z</time>
      </trkpt>
      <trkpt lat="58.49770196713507" lon="13.192241946235299">
        <ele>49.87</ele>
        <time>2025-02-09T10:15:15.864Z</time>
      </trkpt>
      <trkpt lat="58.49768092855811" lon="13.192367926239967">
        <ele>49.88</ele>
        <time>2025-02-09T10:15:53.093Z</time>
      </trkpt>
      <trkpt lat="58.49765695631504" lon="13.192491978406906">
        <ele>49.88</ele>
        <time>2025-02-09T10:16:30.323Z</time>
      </trkpt>
      <trkpt lat="58.49763097241521" lon="13.192616952583194">
        <ele>49.89</ele>
        <time>2025-02-09T10:17:07.554Z</time>
      </trkpt>
      <trkpt lat="58.49760792218149" lon="13.192738993093371">
        <ele>49.89</ele>
        <time>2025-02-09T10:17:44.786Z</time>
      </trkpt>
      <trkpt lat="58.497581938281655" lon="13.192860949784517">
        <ele>49.89</ele>
        <time>2025-02-09T10:18:22.019Z</time>
      </trkpt>
      <trkpt lat="58.49754698574543" lon="13.192965975031257">
        <ele>49.89</ele>
        <time>2025-02-09T10:18:59.253Z</time>
      </trkpt>
      <trkpt lat="58.497516978532076" lon="13.19308097474277">
        <ele>49.89</ele>
        <time>2025-02-09T10:19:36.488Z</time>
      </trkpt>
      <trkpt lat="58.49749191664159" lon="13.193204943090677">
        <ele>49.89</ele>
        <time>2025-02-09T10:20:13.724Z</time>
      </trkpt>
      <trkpt lat="58.49746693857014" lon="13.193328995257616">
        <ele>49.89</ele>
        <time>2025-02-09T10:20:50.962Z</time>
      </trkpt>
      <trkpt lat="58.49743894301355" lon="13.193455981090665">
        <ele>49.89</ele>
        <time>2025-02-09T10:21:28.201Z</time>
      </trkpt>
      <trkpt lat="58.497408935800195" lon="13.193580955266953">
        <ele>49.89</ele>
        <time>2025-02-09T10:22:05.441Z</time>
      </trkpt>
      <trkpt lat="58.49737993441522" lon="13.19370693527162">
        <ele>49.89</ele>
        <time>2025-02-09T10:22:42.682Z</time>
      </trkpt>
      <trkpt lat="58.49734992720187" lon="13.19383199326694">
        <ele>49.89</ele>
        <time>2025-02-09T10:23:19.924Z</time>
      </trkpt>
      <trkpt lat="58.497321931645274" lon="13.19396099075675">
        <ele>49.89</ele>
        <time>2025-02-09T10:23:57.167Z</time>
      </trkpt>
      <trkpt lat="58.4972929302603" lon="13.194087976589799">
        <ele>49.89</ele>
        <time>2025-02-09T10:24:34.411Z</time>
      </trkpt>
      <trkpt lat="58.49726392887533" lon="13.19421797990799">
        <ele>49.89</ele>
        <time>2025-02-09T10:25:11.657Z</time>
      </trkpt>
      <trkpt lat="58.49723392166197" lon="13.1943469773978">
        <ele>49.9</ele>
        <time>2025-02-09T10:25:48.904Z</time>
      </trkpt>
      <trkpt lat="58.49720198661089" lon="13.194473963230848">
        <ele>49.9</ele>
        <time>2025-02-09T10:26:26.152Z</time>
      </trkpt>
      <trkpt lat="58.497171979397535" lon="13.194600949063897">
        <ele>49.9</ele>
        <time>2025-02-09T10:27:03.401Z</time>
      </trkpt>
      <trkpt lat="58.49714197218418" lon="13.194726929068565">
        <ele>49.9</ele>
        <time>2025-02-09T10:27:40.651Z</time>
      </trkpt>
      <trkpt lat="58.49711095914245" lon="13.194852992892265">
        <ele>49.91</ele>
        <time>2025-02-09T10:28:17.903Z</time>
      </trkpt>
      <trkpt lat="58.49707894027233" lon="13.194978972896934">
        <ele>49.92</ele>
        <time>2025-02-09T10:28:55.156Z</time>
      </trkpt>
      <trkpt lat="58.497043987736106" lon="13.19510294124484">
        <ele>49.92</ele>
        <time>2025-02-09T10:29:32.410Z</time>
      </trkpt>
      <trkpt lat="58.49700895138085" lon="13.19522699341178">
        <ele>49.93</ele>
        <time>2025-02-09T10:30:09.665Z</time>
      </trkpt>
      <trkpt lat="58.49697492085397" lon="13.195351967588067">
        <ele>49.94</ele>
        <time>2025-02-09T10:30:46.921Z</time>
      </trkpt>
      <trkpt lat="58.49694097414613" lon="13.195475935935974">
        <ele>49.95</ele>
        <time>2025-02-09T10:31:24.178Z</time>
      </trkpt>
      <trkpt lat="58.49690593779087" lon="13.195599988102913">
        <ele>49.96</ele>
        <time>2025-02-09T10:32:01.437Z</time>
      </trkpt>
      <trkpt lat="58.496868973597884" lon="13.19572295062244">
        <ele>49.96</ele>
        <time>2025-02-09T10:32:38.697Z</time>
      </trkpt>
      <trkpt lat="58.496831925585866" lon="13.195844991132617">
        <ele>49.98</ele>
        <time>2025-02-09T10:33:15.958Z</time>
      </trkpt>
      <trkpt lat="58.49679596722126" lon="13.195966947823763">
        <ele>50.0</ele>
        <time>2025-02-09T10:33:53.220Z</time>
      </trkpt>
      <trkpt lat="58.49675799719989" lon="13.19608697667718">
        <ele>50.01</ele>
        <time>2025-02-09T10:34:30.483Z</time>
      </trkpt>
      <trkpt lat="58.496722960844636" lon="13.196205999702215">
        <ele>50.03</ele>
        <time>2025-02-09T10:35:07.747Z</time>
      </trkpt>
      <trkpt lat="58.49668893031776" lon="13.196328962221742">
        <ele>50.04</ele>
        <time>2025-02-09T10:35:45.013Z</time>
      </trkpt>
      <trkpt lat="58.496655989438295" lon="13.196449996903539">
        <ele>50.06</ele>
        <time>2025-02-09T10:36:22.280Z</time>
      </trkpt>
      <trkpt lat="58.49662497639656" lon="13.196565918624401">
        <ele>50.08</ele>
        <time>2025-02-09T10:36:59.548Z</time>
      </trkpt>
      <trkpt lat="58.496590945869684" lon="13.196679996326566">
        <ele>50.09</ele>
        <time>2025-02-09T10:37:36.817Z</time>
      </trkpt>
      <trkpt lat="58.49655498750508" lon="13.196792984381318">
        <ele>50.1</ele>
        <time>2025-02-09T10:38:14.087Z</time>
      </trkpt>
      <trkpt lat="58.49652296863496" lon="13.196902954950929">
        <ele>50.11</ele>
        <time>2025-02-09T10:38:51.358Z</time>
      </trkpt>
      <trkpt lat="58.49649296142161" lon="13.197016948834062">
        <ele>50.12</ele>
        <time>2025-02-09T10:39:28.630Z</time>
      </trkpt>
      <trkpt lat="58.49645893089473" lon="13.197130942717195">
        <ele>50.13</ele>
        <time>2025-02-09T10:40:05.903Z</time>
      </trkpt>
      <trkpt lat="58.49642498418689" lon="13.197246948257089">
        <ele>50.14</ele>
        <time>2025-02-09T10:40:43.177Z</time>
      </trkpt>
      <trkpt lat="58.49638994783163" lon="13.197363959625363">
        <ele>50.15</ele>
        <time>2025-02-09T10:41:20.453Z</time>
      </trkpt>
      <trkpt lat="58.496354995295405" lon="13.197478959336877">
        <ele>50.16</ele>
        <time>2025-02-09T10:41:57.730Z</time>
      </trkpt>
      <trkpt lat="58.496332950890064" lon="13.197597982361913">
        <ele>50.16</ele>
        <time>2025-02-09T10:42:35.008Z</time>
      </trkpt>
      <trkpt lat="58.49630596116185" lon="13.197714993730187">
        <ele>50.17</ele>
        <time>2025-02-09T10:43:12.287Z</time>
      </trkpt>
      <trkpt lat="58.496269918978214" lon="13.197821946814656">
        <ele>50.18</ele>
        <time>2025-02-09T10:43:49.567Z</time>
      </trkpt>
      <trkpt lat="58.496226919814944" lon="13.197905933484435">
        <ele>50.19</ele>
        <time>2025-02-09T10:44:26.848Z</time>
      </trkpt>
      <trkpt lat="58.49617696367204" lon="13.197968965396285">
        <ele>50.19</ele>
        <time>2025-02-09T10:45:04.130Z</time>
      </trkpt>
      <trkpt lat="58.49612792953849" lon="13.198006935417652">
        <ele>50.2</ele>
        <time>2025-02-09T10:45:41.413Z</time>
      </trkpt>
      <trkpt lat="58.496076967567205" lon="13.198024956509471">
        <ele>50.22</ele>
        <time>2025-02-09T10:46:18.697Z</time>
      </trkpt>
      <trkpt lat="58.49602592177689" lon="13.198045995086432">
        <ele>50.22</ele>
        <time>2025-02-09T10:46:55.981Z</time>
      </trkpt>
      <trkpt lat="58.49597898311913" lon="13.19808597676456">
        <ele>50.23</ele>
        <time>2025-02-09T10:47:33.266Z</time>
      </trkpt>
      <trkpt lat="58.49594193510711" lon="13.198144985362887">
        <ele>50.25</ele>
        <time>2025-02-09T10:48:10.552Z</time>
      </trkpt>
      <trkpt lat="58.49591393955052" lon="13.198218997567892">
        <ele>50.26</ele>
        <time>2025-02-09T10:48:47.839Z</time>
      </trkpt>
      <trkpt lat="58.49589298479259" lon="13.198307929560542">
        <ele>50.27</ele>
        <time>2025-02-09T10:49:25.127Z</time>
      </trkpt>
      <trkpt lat="58.495878987014294" lon="13.198404991999269">
        <ele>50.29</ele>
        <time>2025-02-09T10:50:02.415Z</time>
      </trkpt>
      <trkpt lat="58.49586792290211" lon="13.198507921770215">
        <ele>50.3</ele>
        <time>2025-02-09T10:50:39.704Z</time>
      </trkpt>
      <trkpt lat="58.495858954265714" lon="13.198610935360193">
        <ele>50.31</ele>
        <time>2025-02-09T10:51:16.994Z</time>
      </trkpt>
      <trkpt lat="58.49585493095219" lon="13.198714954778552">
        <ele>50.32</ele>
        <time>2025-02-09T10:51:54.285Z</time>
      </trkpt>
      <trkpt lat="58.49584897980094" lon="13.198821991682053">
        <ele>50.34</ele>
        <time>2025-02-09T10:52:31.577Z</time>
      </trkpt>
      <trkpt lat="58.495841939002275" lon="13.19892693310976">
        <ele>50.35</ele>
        <time>2025-02-09T10:53:08.870Z</time>
      </trkpt>
      <trkpt lat="58.49583095870912" lon="13.19903296418488">
        <ele>50.37</ele>
        <time>2025-02-09T10:53:46.164Z</time>
      </trkpt>
      <trkpt lat="58.495818972587585" lon="13.199143940582871">
        <ele>50.39</ele>
        <time>2025-02-09T10:54:23.459Z</time>
      </trkpt>
      <trkpt lat="58.49580899812281" lon="13.199263969436288">
        <ele>50.41</ele>
        <time>2025-02-09T10:55:00.755Z</time>
      </trkpt>
      <trkpt lat="58.49579491652548" lon="13.199391961097717">
        <ele>50.43</ele>
        <time>2025-02-09T10:55:38.052Z</time>
      </trkpt>
      <trkpt lat="58.49578091874719" lon="13.199520958587527">
        <ele>50.45</ele>
        <time>2025-02-09T10:56:15.350Z</time>
      </trkpt>
      <trkpt lat="58.49576499313116" lon="13.199648950248957">
        <ele>50.47</ele>
        <time>2025-02-09T10:56:52.649Z</time>
      </trkpt>
      <trkpt lat="58.495749989524484" lon="13.199775936082006">
        <ele>50.49</ele>
        <time>2025-02-09T10:57:29.949Z</time>
      </trkpt>
      <trkpt lat="58.49573498591781" lon="13.199900994077325">
        <ele>50.51</ele>
        <time>2025-02-09T10:58:07.250Z</time>
      </trkpt>
      <trkpt lat="58.49572199396789" lon="13.200024962425232">
        <ele>50.53</ele>
        <time>2025-02-09T10:58:44.552Z</time>
      </trkpt>
      <trkpt lat="58.495709924027324" lon="13.200145997107029">
        <ele>50.55</ele>
        <time>2025-02-09T10:59:21.855Z</time>
      </trkpt>
      <trkpt lat="58.49569492042065" lon="13.200263930484653">
        <ele>50.57</ele>
        <time>2025-02-09T10:59:59.159Z</time>
      </trkpt>
      <trkpt lat="58.49568092264235" lon="13.200382953509688">
        <ele>50.59</ele>
        <time>2025-02-09T11:00:36.464Z</time>
      </trkpt>
      <trkpt lat="58.495666924864054" lon="13.200498959049582">
        <ele>50.61</ele>
        <time>2025-02-09T11:01:13.770Z</time>
      </trkpt>
      <trkpt lat="58.49565099924803" lon="13.200617982074618">
        <ele>50.63</ele>
        <time>2025-02-09T11:01:51.077Z</time>
      </trkpt>
      <trkpt lat="58.49563892930746" lon="13.200735999271274">
        <ele>50.65</ele>
        <time>2025-02-09T11:02:28.385Z</time>
      </trkpt>
      <trkpt lat="58.495627949014306" lon="13.200850998982787">
        <ele>50.67</ele>
        <time>2025-02-09T11:03:05.694Z</time>
      </trkpt>
      <trkpt lat="58.49561495706439" lon="13.20096692070365">
        <ele>50.69</ele>
        <time>2025-02-09T11:03:43.004Z</time>
      </trkpt>
      <trkpt lat="58.495601965114474" lon="13.201081920415163">
        <ele>50.71</ele>
        <time>2025-02-09T11:04:20.315Z</time>
      </trkpt>
      <trkpt lat="58.4955869615078" lon="13.201197925955057">
        <ele>50.74</ele>
        <time>2025-02-09T11:04:57.627Z</time>
      </trkpt>
      <trkpt lat="58.4955729637295" lon="13.201310997828841">
        <ele>50.76</ele>
        <time>2025-02-09T11:05:34.940Z</time>
      </trkpt>
      <trkpt lat="58.495559971779585" lon="13.201427925378084">
        <ele>50.79</ele>
        <time>2025-02-09T11:06:12.254Z</time>
      </trkpt>
      <trkpt lat="58.49554798565805" lon="13.201548960059881">
        <ele>50.81</ele>
        <time>2025-02-09T11:06:49.569Z</time>
      </trkpt>
      <trkpt lat="58.495535999536514" lon="13.201662953943014">
        <ele>50.84</ele>
        <time>2025-02-09T11:07:26.885Z</time>
      </trkpt>
      <trkpt lat="58.495518984273076" lon="13.201777953654528">
        <ele>50.86</ele>
        <time>2025-02-09T11:08:04.202Z</time>
      </trkpt>
      <trkpt lat="58.495498951524496" lon="13.201900999993086">
        <ele>50.89</ele>
        <time>2025-02-09T11:08:41.520Z</time>
      </trkpt>
      <trkpt lat="58.49548193626106" lon="13.202023962512612">
        <ele>50.92</ele>
        <time>2025-02-09T11:09:18.839Z</time>
      </trkpt>
      <trkpt lat="58.49546399898827" lon="13.202143991366029">
        <ele>50.95</ele>
        <time>2025-02-09T11:09:56.160Z</time>
      </trkpt>
      <trkpt lat="58.49544991739094" lon="13.202264942228794">
        <ele>50.97</ele>
        <time>2025-02-09T11:10:33.482Z</time>
      </trkpt>
      <trkpt lat="58.49543692544103" lon="13.202386982738972">
        <ele>51.0</ele>
        <time>2025-02-09T11:11:10.805Z</time>
      </trkpt>
      <trkpt lat="58.49541697651148" lon="13.202514974400401">
        <ele>51.03</ele>
        <time>2025-02-09T11:11:48.129Z</time>
      </trkpt>
      <trkpt lat="58.495392920449376" lon="13.20264296606183">
        <ele>51.05</ele>
        <time>2025-02-09T11:12:25.454Z</time>
      </trkpt>
      <trkpt lat="58.49537498317659" lon="13.202768946066499">
        <ele>51.09</ele>
        <time>2025-02-09T11:13:02.780Z</time>
      </trkpt>
      <trkpt lat="58.49535495042801" lon="13.20289995521307">
        <ele>51.12</ele>
        <time>2025-02-09T11:13:40.107Z</time>
      </trkpt>
      <trkpt lat="58.49533692933619" lon="13.2030279468745">
        <ele>51.15</ele>
        <time>2025-02-09T11:14:17.435Z</time>
      </trkpt>
      <trkpt lat="58.49531597457826" lon="13.203154932707548">
        <ele>51.18</ele>
        <time>2025-02-09T11:14:54.764Z</time>
      </trkpt>
      <trkpt lat="58.49529292434454" lon="13.203275967389345">
        <ele>51.21</ele>
        <time>2025-02-09T11:15:32.094Z</time>
      </trkpt>
      <trkpt lat="58.49526694044471" lon="13.203401947394013">
        <ele>51.24</ele>
        <time>2025-02-09T11:16:09.426Z</time>
      </trkpt>
      <trkpt lat="58.49523592740297" lon="13.203528933227062">
        <ele>51.27</ele>
        <time>2025-02-09T11:16:46.759Z</time>
      </trkpt>
      <trkpt lat="58.495206926018" lon="13.203653991222382">
        <ele>51.3</ele>
        <time>2025-02-09T11:17:24.093Z</time>
      </trkpt>
      <trkpt lat="58.4951759967953" lon="13.203776953741908">
        <ele>51.33</ele>
        <time>2025-02-09T11:18:01.428Z</time>
      </trkpt>
      <trkpt lat="58.49514096044004" lon="13.203896982595325">
        <ele>51.36</ele>
        <time>2025-02-09T11:18:38.764Z</time>
      </trkpt>
      <trkpt lat="58.49510592408478" lon="13.20401793345809">
        <ele>51.39</ele>
        <time>2025-02-09T11:19:16.101Z</time>
      </trkpt>
      <trkpt lat="58.49506292492151" lon="13.204132933169603">
        <ele>51.41</ele>
        <time>2025-02-09T11:19:53.440Z</time>
      </trkpt>
      <trkpt lat="58.49501598626375" lon="13.204242987558246">
        <ele>51.44</ele>
        <time>2025-02-09T11:20:30.780Z</time>
      </trkpt>
      <trkpt lat="58.49496795795858" lon="13.204347928985953">
        <ele>51.47</ele>
        <time>2025-02-09T11:21:08.121Z</time>
      </trkpt>
      <trkpt lat="58.494914984330535" lon="13.2044439855963">
        <ele>51.49</ele>
        <time>2025-02-09T11:21:45.463Z</time>
      </trkpt>
      <trkpt lat="58.49485899321735" lon="13.204526966437697">
        <ele>51.51</ele>
        <time>2025-02-09T11:22:22.806Z</time>
      </trkpt>
      <trkpt lat="58.4947959613055" lon="13.204590920358896">
        <ele>51.53</ele>
        <time>2025-02-09T11:23:00.150Z</time>
      </trkpt>
      <trkpt lat="58.49473292939365" lon="13.204641966149211">
        <ele>51.55</ele>
        <time>2025-02-09T11:23:37.495Z</time>
      </trkpt>
      <trkpt lat="58.49466897547245" lon="13.20468295365572">
        <ele>51.58</ele>
        <time>2025-02-09T11:24:14.842Z</time>
      </trkpt>
      <trkpt lat="58.4946059435606" lon="13.204714972525835">
        <ele>51.61</ele>
        <time>2025-02-09T11:24:52.190Z</time>
      </trkpt>
      <trkpt lat="58.49454299546778" lon="13.204739950597286">
        <ele>51.63</ele>
        <time>2025-02-09T11:25:29.539Z</time>
      </trkpt>
      <trkpt lat="58.494485998526216" lon="13.204763922840357">
        <ele>51.66</ele>
        <time>2025-02-09T11:26:06.889Z</time>
      </trkpt>
      <trkpt lat="58.49443394690752" lon="13.20479292422533">
        <ele>51.68</ele>
        <time>2025-02-09T11:26:44.239Z</time>
      </trkpt>
      <trkpt lat="58.49439195357263" lon="13.204845981672406">
        <ele>51.71</ele>
        <time>2025-02-09T11:27:21.590Z</time>
      </trkpt>
      <trkpt lat="58.49436697550118" lon="13.204933991655707">
        <ele>51.74</ele>
        <time>2025-02-09T11:27:58.942Z</time>
      </trkpt>
      <trkpt lat="58.494360940530896" lon="13.205042956396937">
        <ele>51.77</ele>
        <time>2025-02-09T11:28:36.295Z</time>
      </trkpt>
      <trkpt lat="58.49436395801604" lon="13.20515695028007">
        <ele>51.8</ele>
        <time>2025-02-09T11:29:13.649Z</time>
      </trkpt>
      <trkpt lat="58.49437192082405" lon="13.205271949991584">
        <ele>51.82</ele>
        <time>2025-02-09T11:29:51.004Z</time>
      </trkpt>
      <trkpt lat="58.494380973279476" lon="13.205389967188239">
        <ele>51.84</ele>
        <time>2025-02-09T11:30:28.360Z</time>
      </trkpt>
      <trkpt lat="58.49439094774425" lon="13.205511923879385">
        <ele>51.86</ele>
        <time>2025-02-09T11:31:05.717Z</time>
      </trkpt>
      <trkpt lat="58.494399916380644" lon="13.205635976046324">
        <ele>51.88</ele>
        <time>2025-02-09T11:31:43.075Z</time>
      </trkpt>
      <trkpt lat="58.49441098049283" lon="13.205762961879373">
        <ele>51.9</ele>
        <time>2025-02-09T11:32:20.434Z</time>
      </trkpt>
      <trkpt lat="58.494419949129224" lon="13.205893971025944">
        <ele>51.92</ele>
        <time>2025-02-09T11:32:57.794Z</time>
      </trkpt>
      <trkpt lat="58.494429923594" lon="13.206024980172515">
        <ele>51.94</ele>
        <time>2025-02-09T11:33:35.155Z</time>
      </trkpt>
      <trkpt lat="58.494440987706184" lon="13.206155989319086">
        <ele>51.96</ele>
        <time>2025-02-09T11:34:12.517Z</time>
      </trkpt>
      <trkpt lat="58.49445096217096" lon="13.206286998465657">
        <ele>51.98</ele>
        <time>2025-02-09T11:34:49.881Z</time>
      </trkpt>
      <trkpt lat="58.49445892497897" lon="13.206419935449958">
        <ele>52.0</ele>
        <time>2025-02-09T11:35:27.246Z</time>
      </trkpt>
      <trkpt lat="58.494465965777636" lon="13.20655396208167">
        <ele>52.03</ele>
        <time>2025-02-09T11:36:04.612Z</time>
      </trkpt>
      <trkpt lat="58.49447392858565" lon="13.206687988713384">
        <ele>52.05</ele>
        <time>2025-02-09T11:36:41.979Z</time>
      </trkpt>
      <trkpt lat="58.49447996355593" lon="13.206825954839587">
        <ele>52.06</ele>
        <time>2025-02-09T11:37:19.347Z</time>
      </trkpt>
      <trkpt lat="58.494483986869454" lon="13.206966938450933">
        <ele>52.08</ele>
        <time>2025-02-09T11:37:56.716Z</time>
      </trkpt>
      <trkpt lat="58.494487926363945" lon="13.207107922062278">
        <ele>52.1</ele>
        <time>2025-02-09T11:38:34.086Z</time>
      </trkpt>
      <trkpt lat="58.49449094384909" lon="13.207247983664274">
        <ele>52.12</ele>
        <time>2025-02-09T11:39:11.458Z</time>
      </trkpt>
      <trkpt lat="58.49449194967747" lon="13.20738896727562">
        <ele>52.13</ele>
        <time>2025-02-09T11:39:48.831Z</time>
      </trkpt>
      <trkpt lat="58.49449194967747" lon="13.207527939230204">
        <ele>52.14</ele>
        <time>2025-02-09T11:40:26.205Z</time>
      </trkpt>
      <trkpt lat="58.49449194967747" lon="13.207668922841549">
        <ele>52.15</ele>
        <time>2025-02-09T11:41:03.580Z</time>
      </trkpt>
      <trkpt lat="58.49449194967747" lon="13.207809990271926">
        <ele>52.16</ele>
        <time>2025-02-09T11:41:40.956Z</time>
      </trkpt>
      <trkpt lat="58.49449094384909" lon="13.207950973883271">
        <ele>52.18</ele>
        <time>2025-02-09T11:42:18.334Z</time>
      </trkpt>
      <trkpt lat="58.494487926363945" lon="13.208090951666236">
        <ele>52.19</ele>
        <time>2025-02-09T11:42:55.713Z</time>
      </trkpt>
      <trkpt lat="58.494484992697835" lon="13.2082309294492">
        <ele>52.2</ele>
        <time>2025-02-09T11:43:33.093Z</time>
      </trkpt>
      <trkpt lat="58.49448197521269" lon="13.208368979394436">
        <ele>52.21</ele>
        <time>2025-02-09T11:44:10.474Z</time>
      </trkpt>
      <trkpt lat="58.49447795189917" lon="13.20850694552064">
        <ele>52.22</ele>
        <time>2025-02-09T11:44:47.856Z</time>
      </trkpt>
      <trkpt lat="58.49447292275727" lon="13.208642983809114">
        <ele>52.23</ele>
        <time>2025-02-09T11:45:25.239Z</time>
      </trkpt>
      <trkpt lat="58.494466971606016" lon="13.208777932450175">
        <ele>52.24</ele>
        <time>2025-02-09T11:46:02.624Z</time>
      </trkpt>
      <trkpt lat="58.49446093663573" lon="13.208910953253508">
        <ele>52.25</ele>
        <time>2025-02-09T11:46:40.010Z</time>
      </trkpt>
      <trkpt lat="58.49445096217096" lon="13.20904296822846">
        <ele>52.25</ele>
        <time>2025-02-09T11:47:17.397Z</time>
      </trkpt>
      <trkpt lat="58.494439981877804" lon="13.209175989031792">
        <ele>52.26</ele>
        <time>2025-02-09T11:47:54.785Z</time>
      </trkpt>
      <trkpt lat="58.49442891776562" lon="13.209312949329615">
        <ele>52.27</ele>
        <time>2025-02-09T11:48:32.174Z</time>
      </trkpt>
      <trkpt lat="58.49441894330084" lon="13.209447981789708">
        <ele>52.27</ele>
        <time>2025-02-09T11:49:09.564Z</time>
      </trkpt>
      <trkpt lat="58.49440695717931" lon="13.20958192460239">
        <ele>52.28</ele>
        <time>2025-02-09T11:49:46.955Z</time>
      </trkpt>
      <trkpt lat="58.49439396522939" lon="13.209716957062483">
        <ele>52.28</ele>
        <time>2025-02-09T11:50:24.347Z</time>
      </trkpt>
      <trkpt lat="58.494380973279476" lon="13.209851989522576">
        <ele>52.28</ele>
        <time>2025-02-09T11:51:01.741Z</time>
      </trkpt>
      <trkpt lat="58.49436798132956" lon="13.209985932335258">
        <ele>52.28</ele>
        <time>2025-02-09T11:51:39.136Z</time>
      </trkpt>
      <trkpt lat="58.49435096606612" lon="13.210120964795351">
        <ele>52.27</ele>
        <time>2025-02-09T11:52:16.532Z</time>
      </trkpt>
      <trkpt lat="58.494334956631064" lon="13.210254991427064">
        <ele>52.28</ele>
        <time>2025-02-09T11:52:53.929Z</time>
      </trkpt>
      <trkpt lat="58.49431894719601" lon="13.210388934239745">
        <ele>52.28</ele>
        <time>2025-02-09T11:53:31.327Z</time>
      </trkpt>
      <trkpt lat="58.49430293776095" lon="13.210522960871458">
        <ele>52.28</ele>
        <time>2025-02-09T11:54:08.726Z</time>
      </trkpt>
      <trkpt lat="58.49428592249751" lon="13.210656987503171">
        <ele>52.28</ele>
        <time>2025-02-09T11:54:46.127Z</time>
      </trkpt>
      <trkpt lat="58.494268991053104" lon="13.210792941972613">
        <ele>52.28</ele>
        <time>2025-02-09T11:55:23.529Z</time>
      </trkpt>
      <trkpt lat="58.49425499327481" lon="13.210925962775946">
        <ele>52.28</ele>
        <time>2025-02-09T11:56:00.932Z</time>
      </trkpt>
      <trkpt lat="58.49423998966813" lon="13.211058983579278">
        <ele>52.29</ele>
        <time>2025-02-09T11:56:38.336Z</time>
      </trkpt>
      <trkpt lat="58.49422196857631" lon="13.21119292639196">
        <ele>52.29</ele>
        <time>2025-02-09T11:57:15.741Z</time>
      </trkpt>
      <trkpt lat="58.494204953312874" lon="13.211325947195292">
        <ele>52.29</ele>
        <time>2025-02-09T11:57:53.147Z</time>
      </trkpt>
      <trkpt lat="58.494187938049436" lon="13.211458967998624">
        <ele>52.29</ele>
        <time>2025-02-09T11:58:30.554Z</time>
      </trkpt>
      <trkpt lat="58.494170922786" lon="13.211592994630337">
        <ele>52.29</ele>
        <time>2025-02-09T11:59:07.963Z</time>
      </trkpt>
      <trkpt lat="58.49415298551321" lon="13.211727943271399">
        <ele>52.28</ele>
        <time>2025-02-09T11:59:45.373Z</time>
      </trkpt>
      <trkpt lat="58.49413597024977" lon="13.211861969903111">
        <ele>52.28</ele>
        <time>2025-02-09T12:00:22.784Z</time>
      </trkpt>
      <trkpt lat="58.494121972471476" lon="13.211994990706444">
        <ele>52.28</ele>
        <time>2025-02-09T12:01:00.196Z</time>
      </trkpt>
      <trkpt lat="58.4941069688648" lon="13.212129939347506">
        <ele>52.28</ele>
        <time>2025-02-09T12:01:37.609Z</time>
      </trkpt>
      <trkpt lat="58.49409196525812" lon="13.21226597763598">
        <ele>52.27</ele>
        <time>2025-02-09T12:02:15.023Z</time>
      </trkpt>
      <trkpt lat="58.4940739441663" lon="13.212402937933803">
        <ele>52.26</ele>
        <time>2025-02-09T12:02:52.439Z</time>
      </trkpt>
      <trkpt lat="58.494055923074484" lon="13.212540987879038">
        <ele>52.25</ele>
        <time>2025-02-09T12:03:29.856Z</time>
      </trkpt>
      <trkpt lat="58.4940379858017" lon="13.21267694234848">
        <ele>52.24</ele>
        <time>2025-02-09T12:04:07.274Z</time>
      </trkpt>
      <trkpt lat="58.49401996470988" lon="13.212811974808574">
        <ele>52.23</ele>
        <time>2025-02-09T12:04:44.693Z</time>
      </trkpt>
      <trkpt lat="58.49400194361806" lon="13.212945917621255">
        <ele>52.22</ele>
        <time>2025-02-09T12:05:22.113Z</time>
      </trkpt>
      <trkpt lat="58.49398492835462" lon="13.213080950081348">
        <ele>52.21</ele>
        <time>2025-02-09T12:05:59.534Z</time>
      </trkpt>
      <trkpt lat="58.493966991081834" lon="13.213215982541442">
        <ele>52.2</ele>
        <time>2025-02-09T12:06:36.957Z</time>
      </trkpt>
      <trkpt lat="58.49395198747516" lon="13.213348919525743">
        <ele>52.19</ele>
        <time>2025-02-09T12:07:14.381Z</time>
      </trkpt>
      <trkpt lat="58.49393698386848" lon="13.213482946157455">
        <ele>52.18</ele>
        <time>2025-02-09T12:07:51.806Z</time>
      </trkpt>
      <trkpt lat="58.49392097443342" lon="13.213617978617549">
        <ele>52.16</ele>
        <time>2025-02-09T12:08:29.232Z</time>
      </trkpt>
      <trkpt lat="58.49390194751322" lon="13.21375192143023">
        <ele>52.14</ele>
        <time>2025-02-09T12:09:06.659Z</time>
      </trkpt>
      <trkpt lat="58.49388292059302" lon="13.213886953890324">
        <ele>52.12</ele>
        <time>2025-02-09T12:09:44.087Z</time>
      </trkpt>
      <trkpt lat="58.493862971663475" lon="13.214021986350417">
        <ele>52.12</ele>
        <time>2025-02-09T12:10:21.517Z</time>
      </trkpt>
      <trkpt lat="58.493842938914895" lon="13.21415894664824">
        <ele>52.1</ele>
        <time>2025-02-09T12:10:58.948Z</time>
      </trkpt>
      <trkpt lat="58.49382399581373" lon="13.214294984936714">
        <ele>52.09</ele>
        <time>2025-02-09T12:11:36.380Z</time>
      </trkpt>
      <trkpt lat="58.49380597472191" lon="13.214431945234537">
        <ele>52.08</ele>
        <time>2025-02-09T12:12:13.813Z</time>
      </trkpt>
      <trkpt lat="58.49378795363009" lon="13.21456697769463">
        <ele>52.07</ele>
        <time>2025-02-09T12:12:51.247Z</time>
      </trkpt>
      <trkpt lat="58.49377093836665" lon="13.214702932164073">
        <ele>52.05</ele>
        <time>2025-02-09T12:13:28.683Z</time>
      </trkpt>
      <trkpt lat="58.49375392310321" lon="13.214836958795786">
        <ele>52.04</ele>
        <time>2025-02-09T12:14:06.120Z</time>
      </trkpt>
      <trkpt lat="58.493735985830426" lon="13.214969979599118">
        <ele>52.02</ele>
        <time>2025-02-09T12:14:43.558Z</time>
      </trkpt>
      <trkpt lat="58.49371695891023" lon="13.2151039224118">
        <ele>52.0</ele>
        <time>2025-02-09T12:15:20.997Z</time>
      </trkpt>
      <trkpt lat="58.49369893781841" lon="13.215235937386751">
        <ele>51.99</ele>
        <time>2025-02-09T12:15:58.437Z</time>
      </trkpt>
      <trkpt lat="58.49368192255497" lon="13.215368958190084">
        <ele>51.97</ele>
        <time>2025-02-09T12:16:35.878Z</time>
      </trkpt>
      <trkpt lat="58.49366499111056" lon="13.215499967336655">
        <ele>51.96</ele>
        <time>2025-02-09T12:17:13.320Z</time>
      </trkpt>
      <trkpt lat="58.493648981675506" lon="13.215631982311606">
        <ele>51.94</ele>
        <time>2025-02-09T12:17:50.764Z</time>
      </trkpt>
      <trkpt lat="58.49363196641207" lon="13.215763997286558">
        <ele>51.92</ele>
        <time>2025-02-09T12:18:28.209Z</time>
      </trkpt>
      <trkpt lat="58.49361595697701" lon="13.215894922614098">
        <ele>51.89</ele>
        <time>2025-02-09T12:19:05.655Z</time>
      </trkpt>
      <trkpt lat="58.49360195919871" lon="13.21602693758905">
        <ele>51.86</ele>
        <time>2025-02-09T12:19:43.102Z</time>
      </trkpt>
      <trkpt lat="58.4935889672488" lon="13.216158952564001">
        <ele>51.84</ele>
        <time>2025-02-09T12:20:20.550Z</time>
      </trkpt>
      <trkpt lat="58.4935749694705" lon="13.216291973367333">
        <ele>51.82</ele>
        <time>2025-02-09T12:20:57.999Z</time>
      </trkpt>
      <trkpt lat="58.493559965863824" lon="13.216425999999046">
        <ele>51.79</ele>
        <time>2025-02-09T12:21:35.449Z</time>
      </trkpt>
      <trkpt lat="58.49354697391391" lon="13.216559942811728">
        <ele>51.76</ele>
        <time>2025-02-09T12:22:12.901Z</time>
      </trkpt>
      <trkpt lat="58.49353398196399" lon="13.21669396944344">
        <ele>51.73</ele>
        <time>2025-02-09T12:22:50.354Z</time>
      </trkpt>
      <trkpt lat="58.493520990014076" lon="13.216825984418392">
        <ele>51.7</ele>
        <time>2025-02-09T12:23:27.808Z</time>
      </trkpt>
      <trkpt lat="58.49350992590189" lon="13.216958921402693">
        <ele>51.67</ele>
        <time>2025-02-09T12:24:05.263Z</time>
      </trkpt>
      <trkpt lat="58.493497939780354" lon="13.217090936377645">
        <ele>51.63</ele>
        <time>2025-02-09T12:24:42.719Z</time>
      </trkpt>
      <trkpt lat="58.49348595365882" lon="13.217223957180977">
        <ele>51.61</ele>
        <time>2025-02-09T12:25:20.176Z</time>
      </trkpt>
      <trkpt lat="58.493474973365664" lon="13.21735697798431">
        <ele>51.58</ele>
        <time>2025-02-09T12:25:57.634Z</time>
      </trkpt>
      <trkpt lat="58.49346298724413" lon="13.217489998787642">
        <ele>51.54</ele>
        <time>2025-02-09T12:26:35.093Z</time>
      </trkpt>
      <trkpt lat="58.49344999529421" lon="13.217624947428703">
        <ele>51.51</ele>
        <time>2025-02-09T12:27:12.554Z</time>
      </trkpt>
      <trkpt lat="58.493436919525266" lon="13.217759979888797">
        <ele>51.47</ele>
        <time>2025-02-09T12:27:50.016Z</time>
      </trkpt>
      <trkpt lat="58.49342392757535" lon="13.21789593435824">
        <ele>51.44</ele>
        <time>2025-02-09T12:28:27.479Z</time>
      </trkpt>
      <trkpt lat="58.493411941453815" lon="13.218031972646713">
        <ele>51.4</ele>
        <time>2025-02-09T12:29:04.943Z</time>
      </trkpt>
      <trkpt lat="58.49340196698904" lon="13.218168932944536">
        <ele>51.36</ele>
        <time>2025-02-09T12:29:42.408Z</time>
      </trkpt>
      <trkpt lat="58.493391992524266" lon="13.21830597706139">
        <ele>51.32</ele>
        <time>2025-02-09T12:30:19.874Z</time>
      </trkpt>
      <trkpt lat="58.49338294006884" lon="13.218442937359214">
        <ele>51.28</ele>
        <time>2025-02-09T12:30:57.342Z</time>
      </trkpt>
      <trkpt lat="58.493371959775686" lon="13.218580987304449">
        <ele>51.24</ele>
        <time>2025-02-09T12:31:34.811Z</time>
      </trkpt>
      <trkpt lat="58.49336198531091" lon="13.218718953430653">
        <ele>51.2</ele>
        <time>2025-02-09T12:32:12.281Z</time>
      </trkpt>
      <trkpt lat="58.49335393868387" lon="13.218855997547507">
        <ele>51.16</ele>
        <time>2025-02-09T12:32:49.752Z</time>
      </trkpt>
      <trkpt lat="58.49334396421909" lon="13.21899295784533">
        <ele>51.11</ele>
        <time>2025-02-09T12:33:27.224Z</time>
      </trkpt>
      <trkpt lat="58.49333298392594" lon="13.219129918143153">
        <ele>51.07</ele>
        <time>2025-02-09T12:34:04.697Z</time>
      </trkpt>
      <trkpt lat="58.49332191981375" lon="13.219265956431627">
        <ele>51.03</ele>
        <time>2025-02-09T12:34:42.172Z</time>
      </trkpt>
      <trkpt lat="58.49331194534898" lon="13.21940291672945">
        <ele>50.98</ele>
        <time>2025-02-09T12:35:19.648Z</time>
      </trkpt>
      <trkpt lat="58.49330096505582" lon="13.219539960846305">
        <ele>50.94</ele>
        <time>2025-02-09T12:35:57.125Z</time>
      </trkpt>
      <trkpt lat="58.49328897893429" lon="13.219677926972508">
        <ele>50.89</ele>
        <time>2025-02-09T12:36:34.603Z</time>
      </trkpt>
      <trkpt lat="58.49327397532761" lon="13.219815976917744">
        <ele>50.84</ele>
        <time>2025-02-09T12:37:12.082Z</time>
      </trkpt>
      <trkpt lat="58.493258971720934" lon="13.219954948872328">
        <ele>50.8</ele>
        <time>2025-02-09T12:37:49.562Z</time>
      </trkpt>
      <trkpt lat="58.49324396811426" lon="13.220095932483673">
        <ele>50.75</ele>
        <time>2025-02-09T12:38:27.044Z</time>
      </trkpt>
      <trkpt lat="58.4932279586792" lon="13.22023699991405">
        <ele>50.7</ele>
        <time>2025-02-09T12:39:04.527Z</time>
      </trkpt>
      <trkpt lat="58.49321194924414" lon="13.220378989353776">
        <ele>50.65</ele>
        <time>2025-02-09T12:39:42.011Z</time>
      </trkpt>
      <trkpt lat="58.493196945637465" lon="13.220519972965121">
        <ele>50.6</ele>
        <time>2025-02-09T12:40:19.496Z</time>
      </trkpt>
      <trkpt lat="58.49318194203079" lon="13.220662968233228">
        <ele>50.55</ele>
        <time>2025-02-09T12:40:56.983Z</time>
      </trkpt>
      <trkpt lat="58.49316895008087" lon="13.220803951844573">
        <ele>50.5</ele>
        <time>2025-02-09T12:41:34.471Z</time>
      </trkpt>
      <trkpt lat="58.493153946474195" lon="13.220945941284299">
        <ele>50.45</ele>
        <time>2025-02-09T12:42:11.960Z</time>
      </trkpt>
      <trkpt lat="58.49313894286752" lon="13.221090948209167">
        <ele>50.41</ele>
        <time>2025-02-09T12:42:49.450Z</time>
      </trkpt>
      <trkpt lat="58.49312293343246" lon="13.221233943477273">
        <ele>50.36</ele>
        <time>2025-02-09T12:43:26.941Z</time>
      </trkpt>
      <trkpt lat="58.49310499615967" lon="13.221375932916999">
        <ele>50.31</ele>
        <time>2025-02-09T12:44:04.434Z</time>
      </trkpt>
      <trkpt lat="58.493086975067854" lon="13.221517922356725">
        <ele>50.26</ele>
        <time>2025-02-09T12:44:41.928Z</time>
      </trkpt>
      <trkpt lat="58.493069959804416" lon="13.221659995615482">
        <ele>50.21</ele>
        <time>2025-02-09T12:45:19.423Z</time>
      </trkpt>
      <trkpt lat="58.4930519387126" lon="13.221800979226828">
        <ele>50.16</ele>
        <time>2025-02-09T12:45:56.919Z</time>
      </trkpt>
      <trkpt lat="58.49303492344916" lon="13.221940957009792">
        <ele>50.11</ele>
        <time>2025-02-09T12:46:34.416Z</time>
      </trkpt>
      <trkpt lat="58.49301899783313" lon="13.222082946449518">
        <ele>50.06</ele>
        <time>2025-02-09T12:47:11.915Z</time>
      </trkpt>
      <trkpt lat="58.493001982569695" lon="13.222226947546005">
        <ele>50.01</ele>
        <time>2025-02-09T12:47:49.415Z</time>
      </trkpt>
      <trkpt lat="58.492983961477876" lon="13.222370948642492">
        <ele>49.96</ele>
        <time>2025-02-09T12:48:26.916Z</time>
      </trkpt>
      <trkpt lat="58.49296795204282" lon="13.22251494973898">
        <ele>49.91</ele>
        <time>2025-02-09T12:49:04.418Z</time>
      </trkpt>
      <trkpt lat="58.492949930951" lon="13.222659956663847">
        <ele>49.86</ele>
        <time>2025-02-09T12:49:41.922Z</time>
      </trkpt>
      <trkpt lat="58.49293199367821" lon="13.222804963588715">
        <ele>49.81</ele>
        <time>2025-02-09T12:50:19.427Z</time>
      </trkpt>
      <trkpt lat="58.49291397258639" lon="13.222951982170343">
        <ele>49.76</ele>
        <time>2025-02-09T12:50:56.933Z</time>
      </trkpt>
      <trkpt lat="58.492895951494575" lon="13.22309891693294">
        <ele>49.71</ele>
        <time>2025-02-09T12:51:34.440Z</time>
      </trkpt>
      <trkpt lat="58.492877930402756" lon="13.22324593551457">
        <ele>49.66</ele>
        <time>2025-02-09T12:52:11.949Z</time>
      </trkpt>
      <trkpt lat="58.49285898730159" lon="13.223393959924579">
        <ele>49.61</ele>
        <time>2025-02-09T12:52:49.459Z</time>
      </trkpt>
      <trkpt lat="58.49284197203815" lon="13.223542990162969">
        <ele>49.56</ele>
        <time>2025-02-09T12:53:26.970Z</time>
      </trkpt>
      <trkpt lat="58.49282395094633" lon="13.223691936582327">
        <ele>49.51</ele>
        <time>2025-02-09T12:54:04.483Z</time>
      </trkpt>
      <trkpt lat="58.49280391819775" lon="13.223840966820717">
        <ele>49.46</ele>
        <time>2025-02-09T12:54:41.997Z</time>
      </trkpt>
      <trkpt lat="58.49278497509658" lon="13.223989997059107">
        <ele>49.41</ele>
        <time>2025-02-09T12:55:19.512Z</time>
      </trkpt>
      <trkpt lat="58.492766954004765" lon="13.224136931821704">
        <ele>49.36</ele>
        <time>2025-02-09T12:55:57.028Z</time>
      </trkpt>
      <trkpt lat="58.492748932912946" lon="13.224283950403333">
        <ele>49.31</ele>
        <time>2025-02-09T12:56:34.546Z</time>
      </trkpt>
      <trkpt lat="58.49273099564016" lon="13.224431974813342">
        <ele>49.27</ele>
        <time>2025-02-09T12:57:12.065Z</time>
      </trkpt>
      <trkpt lat="58.49271297454834" lon="13.22457798756659">
        <ele>49.23</ele>
        <time>2025-02-09T12:57:49.585Z</time>
      </trkpt>
      <trkpt lat="58.49269495345652" lon="13.224723916500807">
        <ele>49.18</ele>
        <time>2025-02-09T12:58:27.106Z</time>
      </trkpt>
      <trkpt lat="58.49267793819308" lon="13.224870935082436">
        <ele>49.14</ele>
        <time>2025-02-09T12:59:04.629Z</time>
      </trkpt>
      <trkpt lat="58.492660922929645" lon="13.225016947835684">
        <ele>49.1</ele>
        <time>2025-02-09T12:59:42.153Z</time>
      </trkpt>
      <trkpt lat="58.49264399148524" lon="13.225162960588932">
        <ele>49.06</ele>
        <time>2025-02-09T13:00:19.678Z</time>
      </trkpt>
      <trkpt lat="58.49262798205018" lon="13.22530897334218">
        <ele>49.01</ele>
        <time>2025-02-09T13:00:57.205Z</time>
      </trkpt>
      <trkpt lat="58.49261197261512" lon="13.225452974438667">
        <ele>48.97</ele>
        <time>2025-02-09T13:01:34.733Z</time>
      </trkpt>
      <trkpt lat="58.492594957351685" lon="13.225596975535154">
        <ele>48.93</ele>
        <time>2025-02-09T13:02:12.262Z</time>
      </trkpt>
      <trkpt lat="58.49257894791663" lon="13.225740976631641">
        <ele>48.88</ele>
        <time>2025-02-09T13:02:49.792Z</time>
      </trkpt>
      <trkpt lat="58.49256293848157" lon="13.225882966071367">
        <ele>48.84</ele>
        <time>2025-02-09T13:03:27.323Z</time>
      </trkpt>
      <trkpt lat="58.49254592321813" lon="13.226023949682713">
        <ele>48.79</ele>
        <time>2025-02-09T13:04:04.856Z</time>
      </trkpt>
      <trkpt lat="58.492529997602105" lon="13.226165939122438">
        <ele>48.75</ele>
        <time>2025-02-09T13:04:42.390Z</time>
      </trkpt>
      <trkpt lat="58.49251398816705" lon="13.226306922733784">
        <ele>48.7</ele>
        <time>2025-02-09T13:05:19.925Z</time>
      </trkpt>
      <trkpt lat="58.49249898456037" lon="13.226448995992541">
        <ele>48.65</ele>
        <time>2025-02-09T13:05:57.461Z</time>
      </trkpt>
      <trkpt lat="58.49248196929693" lon="13.226591991260648">
        <ele>48.61</ele>
        <time>2025-02-09T13:06:34.999Z</time>
      </trkpt>
      <trkpt lat="58.492464954033494" lon="13.226733980700374">
        <ele>48.57</ele>
        <time>2025-02-09T13:07:12.538Z</time>
      </trkpt>
      <trkpt lat="58.492447938770056" lon="13.2268759701401">
        <ele>48.53</ele>
        <time>2025-02-09T13:07:50.078Z</time>
      </trkpt>
      <trkpt lat="58.49243092350662" lon="13.227016953751445">
        <ele>48.49</ele>
        <time>2025-02-09T13:08:27.619Z</time>
      </trkpt>
      <trkpt lat="58.49241298623383" lon="13.22715894319117">
        <ele>48.46</ele>
        <time>2025-02-09T13:09:05.161Z</time>
      </trkpt>
      <trkpt lat="58.49239697679877" lon="13.227299926802516">
        <ele>48.42</ele>
        <time>2025-02-09T13:09:42.705Z</time>
      </trkpt>
      <trkpt lat="58.492381973192096" lon="13.227441916242242">
        <ele>48.39</ele>
        <time>2025-02-09T13:10:20.250Z</time>
      </trkpt>
      <trkpt lat="58.49236596375704" lon="13.227582983672619">
        <ele>48.35</ele>
        <time>2025-02-09T13:10:57.796Z</time>
      </trkpt>
      <trkpt lat="58.49235096015036" lon="13.227722961455584">
        <ele>48.32</ele>
        <time>2025-02-09T13:11:35.343Z</time>
      </trkpt>
      <trkpt lat="58.4923349507153" lon="13.227862939238548">
        <ele>48.29</ele>
        <time>2025-02-09T13:12:12.891Z</time>
      </trkpt>
      <trkpt lat="58.492318941280246" lon="13.228002917021513">
        <ele>48.26</ele>
        <time>2025-02-09T13:12:50.441Z</time>
      </trkpt>
      <trkpt lat="58.49230293184519" lon="13.22814398445189">
        <ele>48.22</ele>
        <time>2025-02-09T13:13:27.992Z</time>
      </trkpt>
      <trkpt lat="58.49228792823851" lon="13.228283962234855">
        <ele>48.19</ele>
        <time>2025-02-09T13:14:05.544Z</time>
      </trkpt>
      <trkpt lat="58.49227191880345" lon="13.228421928361058">
        <ele>48.16</ele>
        <time>2025-02-09T13:14:43.097Z</time>
      </trkpt>
      <trkpt lat="58.49225498735905" lon="13.228561989963055">
        <ele>48.13</ele>
        <time>2025-02-09T13:15:20.651Z</time>
      </trkpt>
      <trkpt lat="58.49223797209561" lon="13.228700961917639">
        <ele>48.1</ele>
        <time>2025-02-09T13:15:58.207Z</time>
      </trkpt>
      <trkpt lat="58.49222095683217" lon="13.228839933872223">
        <ele>48.07</ele>
        <time>2025-02-09T13:16:35.764Z</time>
      </trkpt>
      <trkpt lat="58.49220494739711" lon="13.228978989645839">
        <ele>48.04</ele>
        <time>2025-02-09T13:17:13.322Z</time>
      </trkpt>
      <trkpt lat="58.492188937962055" lon="13.229117961600423">
        <ele>48.01</ele>
        <time>2025-02-09T13:17:50.881Z</time>
      </trkpt>
      <trkpt lat="58.49217192269862" lon="13.229254921898246">
        <ele>47.99</ele>
        <time>2025-02-09T13:18:28.441Z</time>
      </trkpt>
      <trkpt lat="58.49215599708259" lon="13.2293919660151">
        <ele>47.97</ele>
        <time>2025-02-09T13:19:06.003Z</time>
      </trkpt>
      <trkpt lat="58.49213998764753" lon="13.229529932141304">
        <ele>47.95</ele>
        <time>2025-02-09T13:19:43.566Z</time>
      </trkpt>
      <trkpt lat="58.492123978212476" lon="13.22966898791492">
        <ele>47.92</ele>
        <time>2025-02-09T13:20:21.130Z</time>
      </trkpt>
      <trkpt lat="58.49210796877742" lon="13.229806954041123">
        <ele>47.91</ele>
        <time>2025-02-09T13:20:58.695Z</time>
      </trkpt>
      <trkpt lat="58.49209195934236" lon="13.229944920167327">
        <ele>47.88</ele>
        <time>2025-02-09T13:21:36.261Z</time>
      </trkpt>
      <trkpt lat="58.49207494407892" lon="13.230082970112562">
        <ele>47.86</ele>
        <time>2025-02-09T13:22:13.829Z</time>
      </trkpt>
      <trkpt lat="58.492058934643865" lon="13.230221942067146">
        <ele>47.84</ele>
        <time>2025-02-09T13:22:51.398Z</time>
      </trkpt>
      <trkpt lat="58.492041919380426" lon="13.230361919850111">
        <ele>47.82</ele>
        <time>2025-02-09T13:23:28.968Z</time>
      </trkpt>
      <trkpt lat="58.49202498793602" lon="13.230500975623727">
        <ele>47.8</ele>
        <time>2025-02-09T13:24:06.539Z</time>
      </trkpt>
      <trkpt lat="58.49200998432934" lon="13.230639947578311">
        <ele>47.78</ele>
        <time>2025-02-09T13:24:44.111Z</time>
      </trkpt>
      <trkpt lat="58.491992969065905" lon="13.230777997523546">
        <ele>47.76</ele>
        <time>2025-02-09T13:25:21.685Z</time>
      </trkpt>
      <trkpt lat="58.49197695963085" lon="13.23091596364975">
        <ele>47.74</ele>
        <time>2025-02-09T13:25:59.260Z</time>
      </trkpt>
      <trkpt lat="58.49195994436741" lon="13.231056947261095">
        <ele>47.73</ele>
        <time>2025-02-09T13:26:36.836Z</time>
      </trkpt>
      <trkpt lat="58.49194292910397" lon="13.23119793087244">
        <ele>47.72</ele>
        <time>2025-02-09T13:27:14.413Z</time>
      </trkpt>
      <trkpt lat="58.49192691966891" lon="13.231338998302817">
        <ele>47.71</ele>
        <time>2025-02-09T13:27:51.991Z</time>
      </trkpt>
      <trkpt lat="58.491909988224506" lon="13.231479981914163">
        <ele>47.69</ele>
        <time>2025-02-09T13:28:29.571Z</time>
      </trkpt>
      <trkpt lat="58.49189397878945" lon="13.231618953868747">
        <ele>47.68</ele>
        <time>2025-02-09T13:29:07.152Z</time>
      </trkpt>
      <trkpt lat="58.49187595769763" lon="13.231759937480092">
        <ele>47.67</ele>
        <time>2025-02-09T13:29:44.734Z</time>
      </trkpt>
      <trkpt lat="58.49185793660581" lon="13.231898993253708">
        <ele>47.65</ele>
        <time>2025-02-09T13:30:22.317Z</time>
      </trkpt>
      <trkpt lat="58.491839999333024" lon="13.232037965208292">
        <ele>47.64</ele>
        <time>2025-02-09T13:30:59.901Z</time>
      </trkpt>
      <trkpt lat="58.491821978241205" lon="13.232178948819637">
        <ele>47.63</ele>
        <time>2025-02-09T13:31:37.487Z</time>
      </trkpt>
      <trkpt lat="58.49180496297777" lon="13.232319932430983">
        <ele>47.62</ele>
        <time>2025-02-09T13:32:15.074Z</time>
      </trkpt>
      <trkpt lat="58.49178794771433" lon="13.232461921870708">
        <ele>47.62</ele>
        <time>2025-02-09T13:32:52.662Z</time>
      </trkpt>
      <trkpt lat="58.49177193827927" lon="13.232602989301085">
        <ele>47.61</ele>
        <time>2025-02-09T13:33:30.251Z</time>
      </trkpt>
      <trkpt lat="58.4917529951781" lon="13.232744978740811">
        <ele>47.61</ele>
        <time>2025-02-09T13:34:07.842Z</time>
      </trkpt>
      <trkpt lat="58.491734974086285" lon="13.232886968180537">
        <ele>47.61</ele>
        <time>2025-02-09T13:34:45.434Z</time>
      </trkpt>
      <trkpt lat="58.491715947166085" lon="13.233028957620263">
        <ele>47.61</ele>
        <time>2025-02-09T13:35:23.027Z</time>
      </trkpt>
      <trkpt lat="58.491697926074266" lon="13.233169941231608">
        <ele>47.6</ele>
        <time>2025-02-09T13:36:00.621Z</time>
      </trkpt>
      <trkpt lat="58.49167797714472" lon="13.233310924842954">
        <ele>47.6</ele>
        <time>2025-02-09T13:36:38.216Z</time>
      </trkpt>
      <trkpt lat="58.49165895022452" lon="13.23345098644495">
        <ele>47.6</ele>
        <time>2025-02-09T13:37:15.813Z</time>
      </trkpt>
      <trkpt lat="58.4916409291327" lon="13.233591970056295">
        <ele>47.6</ele>
        <time>2025-02-09T13:37:53.411Z</time>
      </trkpt>
      <trkpt lat="58.49162299185991" lon="13.23373194783926">
        <ele>47.6</ele>
        <time>2025-02-09T13:38:31.010Z</time>
      </trkpt>
      <trkpt lat="58.49160396493971" lon="13.233871925622225">
        <ele>47.6</ele>
        <time>2025-02-09T13:39:08.610Z</time>
      </trkpt>
      <trkpt lat="58.491585943847895" lon="13.234012993052602">
        <ele>47.6</ele>
        <time>2025-02-09T13:39:46.212Z</time>
      </trkpt>
      <trkpt lat="58.491566916927695" lon="13.234153976663947">
        <ele>47.61</ele>
        <time>2025-02-09T13:40:23.815Z</time>
      </trkpt>
      <trkpt lat="58.49154797382653" lon="13.234295966103673">
        <ele>47.61</ele>
        <time>2025-02-09T13:41:01.419Z</time>
      </trkpt>
      <trkpt lat="58.49152995273471" lon="13.234435943886638">
        <ele>47.62</ele>
        <time>2025-02-09T13:41:39.024Z</time>
      </trkpt>
      <trkpt lat="58.49151193164289" lon="13.234574999660254">
        <ele>47.62</ele>
        <time>2025-02-09T13:42:16.630Z</time>
      </trkpt>
      <trkpt lat="58.49149491637945" lon="13.234715983271599">
        <ele>47.63</ele>
        <time>2025-02-09T13:42:54.238Z</time>
      </trkpt>
      <trkpt lat="58.491477984935045" lon="13.234857972711325">
        <ele>47.64</ele>
        <time>2025-02-09T13:43:31.847Z</time>
      </trkpt>
      <trkpt lat="58.49146096967161" lon="13.23499895632267">
        <ele>47.65</ele>
        <time>2025-02-09T13:44:09.457Z</time>
      </trkpt>
      <trkpt lat="58.49144496023655" lon="13.235141951590776">
        <ele>47.66</ele>
        <time>2025-02-09T13:44:47.068Z</time>
      </trkpt>
      <trkpt lat="58.49143196828663" lon="13.235286958515644">
        <ele>47.67</ele>
        <time>2025-02-09T13:45:24.680Z</time>
      </trkpt>
      <trkpt lat="58.49141897633672" lon="13.235431965440512">
        <ele>47.68</ele>
        <time>2025-02-09T13:46:02.294Z</time>
      </trkpt>
      <trkpt lat="58.49140699021518" lon="13.23557697236538">
        <ele>47.69</ele>
        <time>2025-02-09T13:46:39.909Z</time>
      </trkpt>
      <trkpt lat="58.49139894358814" lon="13.235721979290247">
        <ele>47.71</ele>
        <time>2025-02-09T13:47:17.525Z</time>
      </trkpt>
      <trkpt lat="58.491392992436886" lon="13.235866986215115">
        <ele>47.72</ele>
        <time>2025-02-09T13:47:55.142Z</time>
      </trkpt>
      <trkpt lat="58.491391986608505" lon="13.236011993139982">
        <ele>47.74</ele>
        <time>2025-02-09T13:48:32.761Z</time>
      </trkpt>
      <trkpt lat="58.491394920274615" lon="13.23615599423647">
        <ele>47.75</ele>
        <time>2025-02-09T13:49:10.381Z</time>
      </trkpt>
      <trkpt lat="58.49139994941652" lon="13.236301923170686">
        <ele>47.77</ele>
        <time>2025-02-09T13:49:48.002Z</time>
      </trkpt>
      <trkpt lat="58.4914059843868" lon="13.236446930095553">
        <ele>47.79</ele>
        <time>2025-02-09T13:50:25.624Z</time>
      </trkpt>
      <trkpt lat="58.49141193553805" lon="13.236591937020421">
        <ele>47.81</ele>
        <time>2025-02-09T13:51:03.248Z</time>
      </trkpt>
      <trkpt lat="58.49141797050834" lon="13.23673996143043">
        <ele>47.83</ele>
        <time>2025-02-09T13:51:40.873Z</time>
      </trkpt>
      <trkpt lat="58.49142492748797" lon="13.236889997497201">
        <ele>47.85</ele>
        <time>2025-02-09T13:52:18.499Z</time>
      </trkpt>
      <trkpt lat="58.49143096245825" lon="13.23703994974494">
        <ele>47.88</ele>
        <time>2025-02-09T13:52:56.126Z</time>
      </trkpt>
      <trkpt lat="58.491438925266266" lon="13.23718897998333">
        <ele>47.9</ele>
        <time>2025-02-09T13:53:33.755Z</time>
      </trkpt>
      <trkpt lat="58.49144697189331" lon="13.237336920574307">
        <ele>47.92</ele>
        <time>2025-02-09T13:54:11.385Z</time>
      </trkpt>
      <trkpt lat="58.49145493470132" lon="13.237484944984317">
        <ele>47.95</ele>
        <time>2025-02-09T13:54:49.016Z</time>
      </trkpt>
      <trkpt lat="58.49146398715675" lon="13.237631963565946">
        <ele>47.97</ele>
        <time>2025-02-09T13:55:26.648Z</time>
      </trkpt>
      <trkpt lat="58.49147295579314" lon="13.237776970490813">
        <ele>48.0</ele>
        <time>2025-02-09T13:56:04.282Z</time>
      </trkpt>
      <trkpt lat="58.491478990763426" lon="13.23791996575892">
        <ele>48.02</ele>
        <time>2025-02-09T13:56:41.917Z</time>
      </trkpt>
      <trkpt lat="58.49148594774306" lon="13.238062961027026">
        <ele>48.05</ele>
        <time>2025-02-09T13:57:19.553Z</time>
      </trkpt>
      <trkpt lat="58.4914939943701" lon="13.238206962123513">
        <ele>48.07</ele>
        <time>2025-02-09T13:57:57.190Z</time>
      </trkpt>
      <trkpt lat="58.491501957178116" lon="13.23835196904838">
        <ele>48.09</ele>
        <time>2025-02-09T13:58:34.828Z</time>
      </trkpt>
      <trkpt lat="58.4915079921484" lon="13.238494964316487">
        <ele>48.11</ele>
        <time>2025-02-09T13:59:12.468Z</time>
      </trkpt>
      <trkpt lat="58.49151293747127" lon="13.238639971241355">
        <ele>48.14</ele>
        <time>2025-02-09T13:59:50.109Z</time>
      </trkpt>
      <trkpt lat="58.491519978269935" lon="13.238782966509461">
        <ele>48.17</ele>
        <time>2025-02-09T14:00:27.751Z</time>
      </trkpt>
      <trkpt lat="58.49152894690633" lon="13.238924955949187">
        <ele>48.2</ele>
        <time>2025-02-09T14:01:05.394Z</time>
      </trkpt>
      <trkpt lat="58.49153598770499" lon="13.239065939560533">
        <ele>48.22</ele>
        <time>2025-02-09T14:01:43.038Z</time>
      </trkpt>
      <trkpt lat="58.491541938856244" lon="13.239208934828639">
        <ele>48.25</ele>
        <time>2025-02-09T14:02:20.684Z</time>
      </trkpt>
      <trkpt lat="58.49154897965491" lon="13.239349918439984">
        <ele>48.28</ele>
        <time>2025-02-09T14:02:58.331Z</time>
      </trkpt>
      <trkpt lat="58.49155694246292" lon="13.239490985870361">
        <ele>48.31</ele>
        <time>2025-02-09T14:03:35.979Z</time>
      </trkpt>
      <trkpt lat="58.491564989089966" lon="13.239630963653326">
        <ele>48.34</ele>
        <time>2025-02-09T14:04:13.628Z</time>
      </trkpt>
      <trkpt lat="58.49157094024122" lon="13.23977094143629">
        <ele>48.37</ele>
        <time>2025-02-09T14:04:51.278Z</time>
      </trkpt>
      <trkpt lat="58.49157596938312" lon="13.239910919219255">
        <ele>48.41</ele>
        <time>2025-02-09T14:05:28.930Z</time>
      </trkpt>
      <trkpt lat="58.49158192053437" lon="13.240050980821252">
        <ele>48.44</ele>
        <time>2025-02-09T14:06:06.583Z</time>
      </trkpt>
      <trkpt lat="58.491588961333036" lon="13.240189952775836">
        <ele>48.47</ele>
        <time>2025-02-09T14:06:44.237Z</time>
      </trkpt>
      <trkpt lat="58.49159591831267" lon="13.240330936387181">
        <ele>48.51</ele>
        <time>2025-02-09T14:07:21.892Z</time>
      </trkpt>
      <trkpt lat="58.49160295911133" lon="13.240472925826907">
        <ele>48.54</ele>
        <time>2025-02-09T14:07:59.548Z</time>
      </trkpt>
      <trkpt lat="58.491610921919346" lon="13.240613993257284">
        <ele>48.58</ele>
        <time>2025-02-09T14:08:37.205Z</time>
      </trkpt>
      <trkpt lat="58.49161796271801" lon="13.24075598269701">
        <ele>48.62</ele>
        <time>2025-02-09T14:09:14.864Z</time>
      </trkpt>
      <trkpt lat="58.49162592552602" lon="13.240894954651594">
        <ele>48.65</ele>
        <time>2025-02-09T14:09:52.524Z</time>
      </trkpt>
      <trkpt lat="58.49163598380983" lon="13.241030992940068">
        <ele>48.68</ele>
        <time>2025-02-09T14:10:30.185Z</time>
      </trkpt>
      <trkpt lat="58.49164696410298" lon="13.241169964894652">
        <ele>48.72</ele>
        <time>2025-02-09T14:11:07.847Z</time>
      </trkpt>
      <trkpt lat="58.49165693856776" lon="13.241308936849236">
        <ele>48.76</ele>
        <time>2025-02-09T14:11:45.510Z</time>
      </trkpt>
      <trkpt lat="58.49166599102318" lon="13.241449920460582">
        <ele>48.79</ele>
        <time>2025-02-09T14:12:23.175Z</time>
      </trkpt>
      <trkpt lat="58.49167596548796" lon="13.24159199371934">
        <ele>48.82</ele>
        <time>2025-02-09T14:13:00.841Z</time>
      </trkpt>
      <trkpt lat="58.49168593995273" lon="13.241733983159065">
        <ele>48.85</ele>
        <time>2025-02-09T14:13:38.508Z</time>
      </trkpt>
      <trkpt lat="58.491694992408156" lon="13.241876978427172">
        <ele>48.88</ele>
        <time>2025-02-09T14:14:16.176Z</time>
      </trkpt>
      <trkpt lat="58.49170597270131" lon="13.242017962038517">
        <ele>48.92</ele>
        <time>2025-02-09T14:14:53.845Z</time>
      </trkpt>
      <trkpt lat="58.491713935509324" lon="13.242159951478243">
        <ele>48.96</ele>
        <time>2025-02-09T14:15:31.516Z</time>
      </trkpt>
      <trkpt lat="58.49172298796475" lon="13.242300935089588">
        <ele>48.99</ele>
        <time>2025-02-09T14:16:09.188Z</time>
      </trkpt>
      <trkpt lat="58.49173195660114" lon="13.242441918700933">
        <ele>49.02</ele>
        <time>2025-02-09T14:16:46.861Z</time>
      </trkpt>
      <trkpt lat="58.491740925237536" lon="13.24258298613131">
        <ele>49.05</ele>
        <time>2025-02-09T14:17:24.535Z</time>
      </trkpt>
      <trkpt lat="58.49174997769296" lon="13.242723969742656">
        <ele>49.09</ele>
        <time>2025-02-09T14:18:02.210Z</time>
      </trkpt>
      <trkpt lat="58.4917619638145" lon="13.242864953354001">
        <ele>49.11</ele>
        <time>2025-02-09T14:18:39.887Z</time>
      </trkpt>
      <trkpt lat="58.49177495576441" lon="13.243004931136966">
        <ele>49.14</ele>
        <time>2025-02-09T14:19:17.565Z</time>
      </trkpt>
      <trkpt lat="58.49178694188595" lon="13.24313996359706">
        <ele>49.17</ele>
        <time>2025-02-09T14:19:55.244Z</time>
      </trkpt>
      <trkpt lat="58.491801945492625" lon="13.243273990228772">
        <ele>49.2</ele>
        <time>2025-02-09T14:20:32.924Z</time>
      </trkpt>
      <trkpt lat="58.49181594327092" lon="13.243402987718582">
        <ele>49.22</ele>
        <time>2025-02-09T14:21:10.605Z</time>
      </trkpt>
      <trkpt lat="58.49182893522084" lon="13.243532991036773">
        <ele>49.24</ele>
        <time>2025-02-09T14:21:48.287Z</time>
      </trkpt>
      <trkpt lat="58.4918359760195" lon="13.243663916364312">
        <ele>49.27</ele>
        <time>2025-02-09T14:22:25.970Z</time>
      </trkpt>
      <trkpt lat="58.491843938827515" lon="13.243794925510883">
        <ele>49.29</ele>
        <time>2025-02-09T14:23:03.654Z</time>
      </trkpt>
      <trkpt lat="58.49185491912067" lon="13.243924928829074">
        <ele>49.32</ele>
        <time>2025-02-09T14:23:41.340Z</time>
      </trkpt>
      <trkpt lat="58.491869922727346" lon="13.244056943804026">
        <ele>49.34</ele>
        <time>2025-02-09T14:24:19.027Z</time>
      </trkpt>
      <trkpt lat="58.49188392050564" lon="13.244189964607358">
        <ele>49.36</ele>
        <time>2025-02-09T14:24:56.715Z</time>
      </trkpt>
      <trkpt lat="58.49189791828394" lon="13.244324997067451">
        <ele>49.39</ele>
        <time>2025-02-09T14:25:34.404Z</time>
      </trkpt>
      <trkpt lat="58.491913927719" lon="13.244460951536894">
        <ele>49.41</ele>
        <time>2025-02-09T14:26:12.094Z</time>
      </trkpt>
      <trkpt lat="58.491928931325674" lon="13.244598917663097">
        <ele>49.43</ele>
        <time>2025-02-09T14:26:49.785Z</time>
      </trkpt>
      <trkpt lat="58.49194393493235" lon="13.244734955951571">
        <ele>49.45</ele>
        <time>2025-02-09T14:27:27.477Z</time>
      </trkpt>
      <trkpt lat="58.49195893853903" lon="13.244875939562917">
        <ele>49.46</ele>
        <time>2025-02-09T14:28:05.171Z</time>
      </trkpt>
      <trkpt lat="58.491972936317325" lon="13.245014995336533">
        <ele>49.48</ele>
        <time>2025-02-09T14:28:42.866Z</time>
      </trkpt>
      <trkpt lat="58.49198492243886" lon="13.245151955634356">
        <ele>49.49</ele>
        <time>2025-02-09T14:29:20.562Z</time>
      </trkpt>
      <trkpt lat="58.491995986551046" lon="13.24529193341732">
        <ele>49.51</ele>
        <time>2025-02-09T14:29:58.259Z</time>
      </trkpt>
      <trkpt lat="58.49200797267258" lon="13.245429983362556">
        <ele>49.53</ele>
        <time>2025-02-09T14:30:35.957Z</time>
      </trkpt>
      <trkpt lat="58.492016941308975" lon="13.245567949488759">
        <ele>49.54</ele>
        <time>2025-02-09T14:31:13.657Z</time>
      </trkpt>
      <trkpt lat="58.49202297627926" lon="13.245704993605614">
        <ele>49.55</ele>
        <time>2025-02-09T14:31:51.358Z</time>
      </trkpt>
      <trkpt lat="58.49202892743051" lon="13.245845977216959">
        <ele>49.56</ele>
        <time>2025-02-09T14:32:29.060Z</time>
      </trkpt>
      <trkpt lat="58.492034962400794" lon="13.245984949171543">
        <ele>49.58</ele>
        <time>2025-02-09T14:33:06.763Z</time>
      </trkpt>
      <trkpt lat="58.492038985714316" lon="13.24612794443965">
        <ele>49.59</ele>
        <time>2025-02-09T14:33:44.467Z</time>
      </trkpt>
      <trkpt lat="58.492041919380426" lon="13.246272951364517">
        <ele>49.6</ele>
        <time>2025-02-09T14:34:22.173Z</time>
      </trkpt>
      <trkpt lat="58.49204694852233" lon="13.246419969946146">
        <ele>49.61</ele>
        <time>2025-02-09T14:34:59.880Z</time>
      </trkpt>
      <trkpt lat="58.49205197766423" lon="13.246565982699394">
        <ele>49.62</ele>
        <time>2025-02-09T14:35:37.588Z</time>
      </trkpt>
      <trkpt lat="58.492057928815484" lon="13.246711995452642">
        <ele>49.63</ele>
        <time>2025-02-09T14:36:15.297Z</time>
      </trkpt>
      <trkpt lat="58.492061952129006" lon="13.24685599654913">
        <ele>49.64</ele>
        <time>2025-02-09T14:36:53.007Z</time>
      </trkpt>
      <trkpt lat="58.49206396378577" lon="13.247001925483346">
        <ele>49.65</ele>
        <time>2025-02-09T14:37:30.719Z</time>
      </trkpt>
      <trkpt lat="58.49206798709929" lon="13.247149949893355">
        <ele>49.66</ele>
        <time>2025-02-09T14:38:08.432Z</time>
      </trkpt>
      <trkpt lat="58.49207192659378" lon="13.247295962646604">
        <ele>49.66</ele>
        <time>2025-02-09T14:38:46.146Z</time>
      </trkpt>
      <trkpt lat="58.492077961564064" lon="13.24743996374309">
        <ele>49.67</ele>
        <time>2025-02-09T14:39:23.861Z</time>
      </trkpt>
      <trkpt lat="58.49208299070597" lon="13.247580947354436">
        <ele>49.68</ele>
        <time>2025-02-09T14:40:01.578Z</time>
      </trkpt>
      <trkpt lat="58.49208793602884" lon="13.2477209251374">
        <ele>49.68</ele>
        <time>2025-02-09T14:40:39.296Z</time>
      </trkpt>
      <trkpt lat="58.49209195934236" lon="13.247862998396158">
        <ele>49.69</ele>
        <time>2025-02-09T14:41:17.015Z</time>
      </trkpt>
      <trkpt lat="58.49209698848426" lon="13.248000964522362">
        <ele>49.7</ele>
        <time>2025-02-09T14:41:54.735Z</time>
      </trkpt>
      <trkpt lat="58.49209992215037" lon="13.248141948133707">
        <ele>49.7</ele>
        <time>2025-02-09T14:42:32.456Z</time>
      </trkpt>
      <trkpt lat="58.492104951292276" lon="13.248285949230194">
        <ele>49.71</ele>
        <time>2025-02-09T14:43:10.178Z</time>
      </trkpt>
      <trkpt lat="58.49211098626256" lon="13.248431961983442">
        <ele>49.71</ele>
        <time>2025-02-09T14:43:47.902Z</time>
      </trkpt>
      <trkpt lat="58.49211894907057" lon="13.248578980565071">
        <ele>49.72</ele>
        <time>2025-02-09T14:44:25.627Z</time>
      </trkpt>
      <trkpt lat="58.492127917706966" lon="13.2487259991467">
        <ele>49.72</ele>
        <time>2025-02-09T14:45:03.353Z</time>
      </trkpt>
      <trkpt lat="58.49213697016239" lon="13.248871928080916">
        <ele>49.73</ele>
        <time>2025-02-09T14:45:41.080Z</time>
      </trkpt>
      <trkpt lat="58.492144932970405" lon="13.249015929177403">
        <ele>49.73</ele>
        <time>2025-02-09T14:46:18.809Z</time>
      </trkpt>
      <trkpt lat="58.49215096794069" lon="13.249162947759032">
        <ele>49.73</ele>
        <time>2025-02-09T14:46:56.539Z</time>
      </trkpt>
      <trkpt lat="58.49215792492032" lon="13.249310972169042">
        <ele>49.74</ele>
        <time>2025-02-09T14:47:34.270Z</time>
      </trkpt>
      <trkpt lat="58.492165971547365" lon="13.24945698492229">
        <ele>49.74</ele>
        <time>2025-02-09T14:48:12.002Z</time>
      </trkpt>
      <trkpt lat="58.49217192269862" lon="13.249601991847157">
        <ele>49.74</ele>
        <time>2025-02-09T14:48:49.736Z</time>
      </trkpt>
      <trkpt lat="58.4921779576689" lon="13.249743981286883">
        <ele>49.75</ele>
        <time>2025-02-09T14:49:27.471Z</time>
      </trkpt>
      <trkpt lat="58.492183992639184" lon="13.249882953241467">
        <ele>49.75</ele>
        <time>2025-02-09T14:50:05.207Z</time>
      </trkpt>
      <trkpt lat="58.492190949618816" lon="13.250021925196052">
        <ele>49.75</ele>
        <time>2025-02-09T14:50:42.944Z</time>
      </trkpt>
      <trkpt lat="58.49219799041748" lon="13.250160980969667">
        <ele>49.75</ele>
        <time>2025-02-09T14:51:20.682Z</time>
      </trkpt>
      <trkpt lat="58.49220595322549" lon="13.250298947095871">
        <ele>49.75</ele>
        <time>2025-02-09T14:51:58.421Z</time>
      </trkpt>
      <trkpt lat="58.49221299402416" lon="13.250437919050455">
        <ele>49.74</ele>
        <time>2025-02-09T14:52:36.162Z</time>
      </trkpt>
      <trkpt lat="58.49221894517541" lon="13.250577980652452">
        <ele>49.74</ele>
        <time>2025-02-09T14:53:13.904Z</time>
      </trkpt>
      <trkpt lat="58.49222598597407" lon="13.250716952607036">
        <ele>49.74</ele>
        <time>2025-02-09T14:53:51.647Z</time>
      </trkpt>
      <trkpt lat="58.492232942953706" lon="13.250857936218381">
        <ele>49.74</ele>
        <time>2025-02-09T14:54:29.391Z</time>
      </trkpt>
      <trkpt lat="58.49224098958075" lon="13.251000931486487">
        <ele>49.74</ele>
        <time>2025-02-09T14:55:07.136Z</time>
      </trkpt>
      <trkpt lat="58.492249958217144" lon="13.251141998916864">
        <ele>49.74</ele>
        <time>2025-02-09T14:55:44.883Z</time>
      </trkpt>
      <trkpt lat="58.49225892685354" lon="13.251279965043068">
        <ele>49.74</ele>
        <time>2025-02-09T14:56:22.631Z</time>
      </trkpt>
      <trkpt lat="58.49226898513734" lon="13.25141591951251">
        <ele>49.74</ele>
        <time>2025-02-09T14:57:00.380Z</time>
      </trkpt>
      <trkpt lat="58.49227795377374" lon="13.251554975286126">
        <ele>49.73</ele>
        <time>2025-02-09T14:57:38.130Z</time>
      </trkpt>
      <trkpt lat="58.49228893406689" lon="13.251696964725852">
        <ele>49.73</ele>
        <time>2025-02-09T14:58:15.881Z</time>
      </trkpt>
      <trkpt lat="58.49229798652232" lon="13.251839959993958">
        <ele>49.73</ele>
        <time>2025-02-09T14:58:53.633Z</time>
      </trkpt>
      <trkpt lat="58.49230796098709" lon="13.251981949433684">
        <ele>49.72</ele>
        <time>2025-02-09T14:59:31.387Z</time>
      </trkpt>
      <trkpt lat="58.492318941280246" lon="13.252121927216649">
        <ele>49.72</ele>
        <time>2025-02-09T15:00:09.142Z</time>
      </trkpt>
      <trkpt lat="58.49232899956405" lon="13.252262994647026">
        <ele>49.71</ele>
        <time>2025-02-09T15:00:46.898Z</time>
      </trkpt>
      <trkpt lat="58.49234098568559" lon="13.252403978258371">
        <ele>49.71</ele>
        <time>2025-02-09T15:01:24.655Z</time>
      </trkpt>
      <trkpt lat="58.49235297180712" lon="13.252544961869717">
        <ele>49.71</ele>
        <time>2025-02-09T15:02:02.413Z</time>
      </trkpt>
      <trkpt lat="58.49236495792866" lon="13.252686951309443">
        <ele>49.7</ele>
        <time>2025-02-09T15:02:40.173Z</time>
      </trkpt>
      <trkpt lat="58.49237593822181" lon="13.252829946577549">
        <ele>49.69</ele>
        <time>2025-02-09T15:03:17.934Z</time>
      </trkpt>
      <trkpt lat="58.492381973192096" lon="13.252970930188894">
        <ele>49.69</ele>
        <time>2025-02-09T15:03:55.696Z</time>
      </trkpt>
      <trkpt lat="58.49238993600011" lon="13.25311291962862">
        <ele>49.68</ele>
        <time>2025-02-09T15:04:33.459Z</time>
      </trkpt>
      <trkpt lat="58.492398988455534" lon="13.253257926553488">
        <ele>49.68</ele>
        <time>2025-02-09T15:05:11.223Z</time>
      </trkpt>
      <trkpt lat="58.49240795709193" lon="13.253401927649975">
        <ele>49.67</ele>
        <time>2025-02-09T15:05:48.989Z</time>
      </trkpt>
      <trkpt lat="58.49241692572832" lon="13.253545928746462">
        <ele>49.66</ele>
        <time>2025-02-09T15:06:26.756Z</time>
      </trkpt>
      <trkpt lat="58.49242698401213" lon="13.25369093567133">
        <ele>49.65</ele>
        <time>2025-02-09T15:07:04.524Z</time>
      </trkpt>
      <trkpt lat="58.4924369584769" lon="13.253834936767817">
        <ele>49.64</ele>
        <time>2025-02-09T15:07:42.293Z</time>
      </trkpt>
      <trkpt lat="58.492447938770056" lon="13.253980949521065">
        <ele>49.64</ele>
        <time>2025-02-09T15:08:20.064Z</time>
      </trkpt>
      <trkpt lat="58.49245891906321" lon="13.254128973931074">
        <ele>49.63</ele>
        <time>2025-02-09T15:08:57.836Z</time>
      </trkpt>
      <trkpt lat="58.49247098900378" lon="13.254275992512703">
        <ele>49.62</ele>
        <time>2025-02-09T15:09:35.609Z</time>
      </trkpt>
      <trkpt lat="58.492484986782074" lon="13.25442099943757">
        <ele>49.61</ele>
        <time>2025-02-09T15:10:13.383Z</time>
      </trkpt>
      <trkpt lat="58.49249898456037" lon="13.254561983048916">
        <ele>49.6</ele>
        <time>2025-02-09T15:10:51.159Z</time>
      </trkpt>
      <trkpt lat="58.49251298233867" lon="13.254705984145403">
        <ele>49.59</ele>
        <time>2025-02-09T15:11:28.936Z</time>
      </trkpt>
      <trkpt lat="58.492527985945344" lon="13.254852918908">
        <ele>49.59</ele>
        <time>2025-02-09T15:12:06.714Z</time>
      </trkpt>
      <trkpt lat="58.49254491738975" lon="13.254994992166758">
        <ele>49.58</ele>
        <time>2025-02-09T15:12:44.493Z</time>
      </trkpt>
      <trkpt lat="58.49255992099643" lon="13.255137987434864">
        <ele>49.57</ele>
        <time>2025-02-09T15:13:22.273Z</time>
      </trkpt>
      <trkpt lat="58.492577942088246" lon="13.255282994359732">
        <ele>49.56</ele>
        <time>2025-02-09T15:14:00.055Z</time>
      </trkpt>
      <trkpt lat="58.492595963180065" lon="13.255428923293948">
        <ele>49.56</ele>
        <time>2025-02-09T15:14:37.838Z</time>
      </trkpt>
      <trkpt lat="58.492615995928645" lon="13.2555799651891">
        <ele>49.55</ele>
        <time>2025-02-09T15:15:15.622Z</time>
      </trkpt>
      <trkpt lat="58.49263493902981" lon="13.2557319290936">
        <ele>49.54</ele>
        <time>2025-02-09T15:15:53.408Z</time>
      </trkpt>
      <trkpt lat="58.49265195429325" lon="13.255885988473892">
        <ele>49.53</ele>
        <time>2025-02-09T15:16:31.195Z</time>
      </trkpt>
      <trkpt lat="58.49266997538507" lon="13.256040969863534">
        <ele>49.52</ele>
        <time>2025-02-09T15:17:08.983Z</time>
      </trkpt>
      <trkpt lat="58.49268891848624" lon="13.256194945424795">
        <ele>49.5</ele>
        <time>2025-02-09T15:17:46.773Z</time>
      </trkpt>
      <trkpt lat="58.4927099570632" lon="13.256343975663185">
        <ele>49.48</ele>
        <time>2025-02-09T15:18:24.564Z</time>
      </trkpt>
      <trkpt lat="58.492724960669875" lon="13.256495939567685">
        <ele>49.46</ele>
        <time>2025-02-09T15:19:02.356Z</time>
      </trkpt>
      <trkpt lat="58.49273895844817" lon="13.256650920957327">
        <ele>49.45</ele>
        <time>2025-02-09T15:19:40.150Z</time>
      </trkpt>
      <trkpt lat="58.49275295622647" lon="13.25680498033762">
        <ele>49.43</ele>
        <time>2025-02-09T15:20:17.945Z</time>
      </trkpt>
      <trkpt lat="58.492766954004765" lon="13.256958955898881">
        <ele>49.41</ele>
        <time>2025-02-09T15:20:55.741Z</time>
      </trkpt>
      <trkpt lat="58.49278195761144" lon="13.257112931460142">
        <ele>49.4</ele>
        <time>2025-02-09T15:21:33.538Z</time>
      </trkpt>
      <trkpt lat="58.49279696121812" lon="13.257265985012054">
        <ele>49.39</ele>
        <time>2025-02-09T15:22:11.337Z</time>
      </trkpt>
      <trkpt lat="58.492810958996415" lon="13.257412919774652">
        <ele>49.38</ele>
        <time>2025-02-09T15:22:49.137Z</time>
      </trkpt>
      <trkpt lat="58.49282395094633" lon="13.257561950013041">
        <ele>49.37</ele>
        <time>2025-02-09T15:23:26.938Z</time>
      </trkpt>
      <trkpt lat="58.49283794872463" lon="13.257705951109529">
        <ele>49.37</ele>
        <time>2025-02-09T15:24:04.741Z</time>
      </trkpt>
      <trkpt lat="58.492851946502924" lon="13.257849952206016">
        <ele>49.36</ele>
        <time>2025-02-09T15:24:42.545Z</time>
      </trkpt>
      <trkpt lat="58.4928669501096" lon="13.257991941645741">
        <ele>49.36</ele>
        <time>2025-02-09T15:25:20.350Z</time>
      </trkpt>
      <trkpt lat="58.49288195371628" lon="13.258131919428706">
        <ele>49.35</ele>
        <time>2025-02-09T15:25:58.156Z</time>
      </trkpt>
      <trkpt lat="58.492895951494575" lon="13.258270975202322">
        <ele>49.34</ele>
        <time>2025-02-09T15:26:35.963Z</time>
      </trkpt>
      <trkpt lat="58.49290894344449" lon="13.258411958813667">
        <ele>49.34</ele>
        <time>2025-02-09T15:27:13.772Z</time>
      </trkpt>
      <trkpt lat="58.49292394705117" lon="13.258552942425013">
        <ele>49.34</ele>
        <time>2025-02-09T15:27:51.582Z</time>
      </trkpt>
      <trkpt lat="58.492938950657845" lon="13.258693926036358">
        <ele>49.33</ele>
        <time>2025-02-09T15:28:29.393Z</time>
      </trkpt>
      <trkpt lat="58.49295093677938" lon="13.258839938789606">
        <ele>49.32</ele>
        <time>2025-02-09T15:29:07.205Z</time>
      </trkpt>
      <trkpt lat="58.49296694621444" lon="13.258985951542854">
        <ele>49.32</ele>
        <time>2025-02-09T15:29:45.018Z</time>
      </trkpt>
      <trkpt lat="58.492982955649495" lon="13.259129952639341">
        <ele>49.32</ele>
        <time>2025-02-09T15:30:22.833Z</time>
      </trkpt>
      <trkpt lat="58.49299896508455" lon="13.259273953735828">
        <ele>49.31</ele>
        <time>2025-02-09T15:31:00.649Z</time>
      </trkpt>
      <trkpt lat="58.49301396869123" lon="13.259415943175554">
        <ele>49.31</ele>
        <time>2025-02-09T15:31:38.466Z</time>
      </trkpt>
      <trkpt lat="58.493027966469526" lon="13.259560950100422">
        <ele>49.31</ele>
        <time>2025-02-09T15:32:16.284Z</time>
      </trkpt>
      <trkpt lat="58.493043975904584" lon="13.259704951196909">
        <ele>49.31</ele>
        <time>2025-02-09T15:32:54.104Z</time>
      </trkpt>
      <trkpt lat="58.49305998533964" lon="13.259848952293396">
        <ele>49.31</ele>
        <time>2025-02-09T15:33:31.925Z</time>
      </trkpt>
      <trkpt lat="58.49307691678405" lon="13.259994965046644">
        <ele>49.32</ele>
        <time>2025-02-09T15:34:09.747Z</time>
      </trkpt>
      <trkpt lat="58.493093932047486" lon="13.260145923122764">
        <ele>49.32</ele>
        <time>2025-02-09T15:34:47.570Z</time>
      </trkpt>
      <trkpt lat="58.493110947310925" lon="13.260295959189534">
        <ele>49.32</ele>
        <time>2025-02-09T15:35:25.395Z</time>
      </trkpt>
      <trkpt lat="58.49312695674598" lon="13.260444989427924">
        <ele>49.33</ele>
        <time>2025-02-09T15:36:03.221Z</time>
      </trkpt>
      <trkpt lat="58.49314296618104" lon="13.260588990524411">
        <ele>49.34</ele>
        <time>2025-02-09T15:36:41.048Z</time>
      </trkpt>
      <trkpt lat="58.493156963959336" lon="13.260732991620898">
        <ele>49.34</ele>
        <time>2025-02-09T15:37:18.876Z</time>
      </trkpt>
      <trkpt lat="58.493172973394394" lon="13.260879926383495">
        <ele>49.35</ele>
        <time>2025-02-09T15:37:56.706Z</time>
      </trkpt>
      <trkpt lat="58.49318797700107" lon="13.261027950793505">
        <ele>49.37</ele>
        <time>2025-02-09T15:38:34.537Z</time>
      </trkpt>
      <trkpt lat="58.49320298060775" lon="13.261176981031895">
        <ele>49.38</ele>
        <time>2025-02-09T15:39:12.369Z</time>
      </trkpt>
      <trkpt lat="58.4932139609009" lon="13.261323999613523">
        <ele>49.39</ele>
        <time>2025-02-09T15:39:50.203Z</time>
      </trkpt>
      <trkpt lat="58.49322494119406" lon="13.261471940204501">
        <ele>49.4</ele>
        <time>2025-02-09T15:40:28.038Z</time>
      </trkpt>
      <trkpt lat="58.49323592148721" lon="13.26161996461451">
        <ele>49.41</ele>
        <time>2025-02-09T15:41:05.874Z</time>
      </trkpt>
      <trkpt lat="58.49324497394264" lon="13.26176991686225">
        <ele>49.42</ele>
        <time>2025-02-09T15:41:43.711Z</time>
      </trkpt>
      <trkpt lat="58.49325293675065" lon="13.261921964585781">
        <ele>49.44</ele>
        <time>2025-02-09T15:42:21.550Z</time>
      </trkpt>
      <trkpt lat="58.49325796589255" lon="13.262073928490281">
        <ele>49.46</ele>
        <time>2025-02-09T15:42:59.390Z</time>
      </trkpt>
      <trkpt lat="58.493264922872186" lon="13.262224970385432">
        <ele>49.48</ele>
        <time>2025-02-09T15:43:37.231Z</time>
      </trkpt>
      <trkpt lat="58.49327196367085" lon="13.262375928461552">
        <ele>49.49</ele>
        <time>2025-02-09T15:44:15.073Z</time>
      </trkpt>
      <trkpt lat="58.49327498115599" lon="13.26252294704318">
        <ele>49.51</ele>
        <time>2025-02-09T15:44:52.917Z</time>
      </trkpt>
      <trkpt lat="58.49327498115599" lon="13.26267097145319">
        <ele>49.53</ele>
        <time>2025-02-09T15:45:30.762Z</time>
      </trkpt>
      <trkpt lat="58.49327397532761" lon="13.262826958671212">
        <ele>49.54</ele>
        <time>2025-02-09T15:46:08.608Z</time>
      </trkpt>
      <trkpt lat="58.49327095784247" lon="13.262982945889235">
        <ele>49.55</ele>
        <time>2025-02-09T15:46:46.455Z</time>
      </trkpt>
      <trkpt lat="58.49326894618571" lon="13.263138933107257">
        <ele>49.56</ele>
        <time>2025-02-09T15:47:24.304Z</time>
      </trkpt>
      <trkpt lat="58.493263917043805" lon="13.26329399831593">
        <ele>49.58</ele>
        <time>2025-02-09T15:48:02.154Z</time>
      </trkpt>
      <trkpt lat="58.493258971720934" lon="13.263451997190714">
        <ele>49.59</ele>
        <time>2025-02-09T15:48:40.005Z</time>
      </trkpt>
      <trkpt lat="58.49325494840741" lon="13.263610918074846">
        <ele>49.6</ele>
        <time>2025-02-09T15:49:17.858Z</time>
      </trkpt>
      <trkpt lat="58.49324597977102" lon="13.26376992277801">
        <ele>49.62</ele>
        <time>2025-02-09T15:49:55.712Z</time>
      </trkpt>
      <trkpt lat="58.49323499947786" lon="13.263926999643445">
        <ele>49.64</ele>
        <time>2025-02-09T15:50:33.567Z</time>
      </trkpt>
      <trkpt lat="58.49322494119406" lon="13.264081981033087">
        <ele>49.66</ele>
        <time>2025-02-09T15:51:11.424Z</time>
      </trkpt>
      <trkpt lat="58.49321194924414" lon="13.264235956594348">
        <ele>49.68</ele>
        <time>2025-02-09T15:51:49.282Z</time>
      </trkpt>
      <trkpt lat="58.49319392815232" lon="13.264385992661119">
        <ele>49.7</ele>
        <time>2025-02-09T15:52:27.141Z</time>
      </trkpt>
      <trkpt lat="58.493177918717265" lon="13.264537956565619">
        <ele>49.72</ele>
        <time>2025-02-09T15:53:05.002Z</time>
      </trkpt>
      <trkpt lat="58.49315998144448" lon="13.264690926298499">
        <ele>49.75</ele>
        <time>2025-02-09T15:53:42.864Z</time>
      </trkpt>
      <trkpt lat="58.49313894286752" lon="13.26484196819365">
        <ele>49.78</ele>
        <time>2025-02-09T15:54:20.727Z</time>
      </trkpt>
      <trkpt lat="58.493110947310925" lon="13.26498999260366">
        <ele>49.81</ele>
        <time>2025-02-09T15:54:58.592Z</time>
      </trkpt>
      <trkpt lat="58.49308194592595" lon="13.265138939023018">
        <ele>49.84</ele>
        <time>2025-02-09T15:55:36.458Z</time>
      </trkpt>
      <trkpt lat="58.49305294454098" lon="13.265287969261408">
        <ele>49.87</ele>
        <time>2025-02-09T15:56:14.325Z</time>
      </trkpt>
      <trkpt lat="58.493024948984385" lon="13.265437921509147">
        <ele>49.9</ele>
        <time>2025-02-09T15:56:52.194Z</time>
      </trkpt>
      <trkpt lat="58.49299695342779" lon="13.265588963404298">
        <ele>49.94</ele>
        <time>2025-02-09T15:57:30.064Z</time>
      </trkpt>
      <trkpt lat="58.49297096952796" lon="13.265740927308798">
        <ele>49.98</ele>
        <time>2025-02-09T15:58:07.935Z</time>
      </trkpt>
      <trkpt lat="58.492939956486225" lon="13.265888951718807">
        <ele>50.01</ele>
        <time>2025-02-09T15:58:45.808Z</time>
      </trkpt>
      <trkpt lat="58.49290793761611" lon="13.266031946986914">
        <ele>50.04</ele>
        <time>2025-02-09T15:59:23.682Z</time>
      </trkpt>
      <trkpt lat="58.492875918745995" lon="13.2661759480834">
        <ele>50.08</ele>
        <time>2025-02-09T16:00:01.557Z</time>
      </trkpt>
      <trkpt lat="58.49284398369491" lon="13.266317937523127">
        <ele>50.12</ele>
        <time>2025-02-09T16:00:39.434Z</time>
      </trkpt>
      <trkpt lat="58.492810958996415" lon="13.266458921134472">
        <ele>50.16</ele>
        <time>2025-02-09T16:01:17.312Z</time>
      </trkpt>
      <trkpt lat="58.49277793429792" lon="13.266599988564849">
        <ele>50.2</ele>
        <time>2025-02-09T16:01:55.191Z</time>
      </trkpt>
      <trkpt lat="58.492743987590075" lon="13.266740972176194">
        <ele>50.23</ele>
        <time>2025-02-09T16:02:33.071Z</time>
      </trkpt>
      <trkpt lat="58.4927099570632" lon="13.266880949959159">
        <ele>50.28</ele>
        <time>2025-02-09T16:03:10.953Z</time>
      </trkpt>
      <trkpt lat="58.49267894402146" lon="13.267022939398885">
        <ele>50.32</ele>
        <time>2025-02-09T16:03:48.836Z</time>
      </trkpt>
      <trkpt lat="58.49264793097973" lon="13.26716492883861">
        <ele>50.36</ele>
        <time>2025-02-09T16:04:26.720Z</time>
      </trkpt>
      <trkpt lat="58.492618929594755" lon="13.267304990440607">
        <ele>50.4</ele>
        <time>2025-02-09T16:05:04.606Z</time>
      </trkpt>
      <trkpt lat="58.49258992820978" lon="13.267445974051952">
        <ele>50.43</ele>
        <time>2025-02-09T16:05:42.493Z</time>
      </trkpt>
      <trkpt lat="58.49255992099643" lon="13.267585951834917">
        <ele>50.47</ele>
        <time>2025-02-09T16:06:20.381Z</time>
      </trkpt>
      <trkpt lat="58.492527985945344" lon="13.267726935446262">
        <ele>50.51</ele>
        <time>2025-02-09T16:06:58.270Z</time>
      </trkpt>
      <trkpt lat="58.49249697290361" lon="13.267868924885988">
        <ele>50.56</ele>
        <time>2025-02-09T16:07:36.161Z</time>
      </trkpt>
      <trkpt lat="58.492464954033494" lon="13.268009992316365">
        <ele>50.6</ele>
        <time>2025-02-09T16:08:14.053Z</time>
      </trkpt>
      <trkpt lat="58.49243293516338" lon="13.26814997009933">
        <ele>50.65</ele>
        <time>2025-02-09T16:08:51.946Z</time>
      </trkpt>
      <trkpt lat="58.492401922121644" lon="13.268289947882295">
        <ele>50.7</ele>
        <time>2025-02-09T16:09:29.841Z</time>
      </trkpt>
      <trkpt lat="58.49237199872732" lon="13.26843093149364">
        <ele>50.75</ele>
        <time>2025-02-09T16:10:07.737Z</time>
      </trkpt>
      <trkpt lat="58.49234199151397" lon="13.268569987267256">
        <ele>50.79</ele>
        <time>2025-02-09T16:10:45.634Z</time>
      </trkpt>
      <trkpt lat="58.492313995957375" lon="13.268710970878601">
        <ele>50.84</ele>
        <time>2025-02-09T16:11:23.532Z</time>
      </trkpt>
      <trkpt lat="58.4922849945724" lon="13.268850948661566">
        <ele>50.9</ele>
        <time>2025-02-09T16:12:01.432Z</time>
      </trkpt>
      <trkpt lat="58.492252975702286" lon="13.268988998606801">
        <ele>50.95</ele>
        <time>2025-02-09T16:12:39.333Z</time>
      </trkpt>
      <trkpt lat="58.49222196266055" lon="13.269127970561385">
        <ele>50.99</ele>
        <time>2025-02-09T16:13:17.235Z</time>
      </trkpt>
      <trkpt lat="58.49219296127558" lon="13.269269960001111">
        <ele>51.05</ele>
        <time>2025-02-09T16:13:55.138Z</time>
      </trkpt>
      <trkpt lat="58.492164965718985" lon="13.269412955269217">
        <ele>51.1</ele>
        <time>2025-02-09T16:14:33.043Z</time>
      </trkpt>
      <trkpt lat="58.49213596433401" lon="13.269553938880563">
        <ele>51.14</ele>
        <time>2025-02-09T16:15:10.949Z</time>
      </trkpt>
      <trkpt lat="58.49210595712066" lon="13.269694922491908">
        <ele>51.19</ele>
        <time>2025-02-09T16:15:48.856Z</time>
      </trkpt>
      <trkpt lat="58.49207695573568" lon="13.269835989922285">
        <ele>51.24</ele>
        <time>2025-02-09T16:16:26.765Z</time>
      </trkpt>
      <trkpt lat="58.49204795435071" lon="13.26997596770525">
        <ele>51.29</ele>
        <time>2025-02-09T16:17:04.675Z</time>
      </trkpt>
      <trkpt lat="58.492018952965736" lon="13.270115945488214">
        <ele>51.34</ele>
        <time>2025-02-09T16:17:42.586Z</time>
      </trkpt>
      <trkpt lat="58.491991963237524" lon="13.27025692909956">
        <ele>51.39</ele>
        <time>2025-02-09T16:18:20.498Z</time>
      </trkpt>
      <trkpt lat="58.49196597933769" lon="13.270399924367666">
        <ele>51.44</ele>
        <time>2025-02-09T16:18:58.412Z</time>
      </trkpt>
      <trkpt lat="58.49193898960948" lon="13.270540991798043">
        <ele>51.49</ele>
        <time>2025-02-09T16:19:36.327Z</time>
      </trkpt>
      <trkpt lat="58.491912921890616" lon="13.270678957924247">
        <ele>51.54</ele>
        <time>2025-02-09T16:20:14.243Z</time>
      </trkpt>
      <trkpt lat="58.491886937990785" lon="13.27081692405045">
        <ele>51.59</ele>
        <time>2025-02-09T16:20:52.160Z</time>
      </trkpt>
      <trkpt lat="58.491863971576095" lon="13.270951956510544">
        <ele>51.65</ele>
        <time>2025-02-09T16:21:30.079Z</time>
      </trkpt>
      <trkpt lat="58.49184192717075" lon="13.271085983142257">
        <ele>51.7</ele>
        <time>2025-02-09T16:22:07.999Z</time>
      </trkpt>
      <trkpt lat="58.491819966584444" lon="13.27122294344008">
        <ele>51.75</ele>
        <time>2025-02-09T16:22:45.920Z</time>
      </trkpt>
      <trkpt lat="58.49179297685623" lon="13.271360993385315">
        <ele>51.8</ele>
        <time>2025-02-09T16:23:23.842Z</time>
      </trkpt>
      <trkpt lat="58.4917669929564" lon="13.271494936197996">
        <ele>51.85</ele>
        <time>2025-02-09T16:24:01.765Z</time>
      </trkpt>
      <trkpt lat="58.491740925237536" lon="13.27163198031485">
        <ele>51.89</ele>
        <time>2025-02-09T16:24:39.690Z</time>
      </trkpt>
      <trkpt lat="58.491717958822846" lon="13.271770952269435">
        <ele>51.94</ele>
        <time>2025-02-09T16:25:17.616Z</time>
      </trkpt>
      <trkpt lat="58.491693986579776" lon="13.271909924224019">
        <ele>51.99</ele>
        <time>2025-02-09T16:25:55.543Z</time>
      </trkpt>
      <trkpt lat="58.491672948002815" lon="13.272050991654396">
        <ele>52.04</ele>
        <time>2025-02-09T16:26:33.471Z</time>
      </trkpt>
      <trkpt lat="58.491649981588125" lon="13.272195998579264">
        <ele>52.09</ele>
        <time>2025-02-09T16:27:11.401Z</time>
      </trkpt>
      <trkpt lat="58.4916269313544" lon="13.27233899384737">
        <ele>52.13</ele>
        <time>2025-02-09T16:27:49.332Z</time>
      </trkpt>
      <trkpt lat="58.49160396493971" lon="13.272480983287096">
        <ele>52.17</ele>
        <time>2025-02-09T16:28:27.264Z</time>
      </trkpt>
      <trkpt lat="58.49158192053437" lon="13.272624984383583">
        <ele>52.22</ele>
        <time>2025-02-09T16:29:05.197Z</time>
      </trkpt>
      <trkpt lat="58.49155895411968" lon="13.27276898548007">
        <ele>52.26</ele>
        <time>2025-02-09T16:29:43.132Z</time>
      </trkpt>
      <trkpt lat="58.49153598770499" lon="13.272911980748177">
        <ele>52.3</ele>
        <time>2025-02-09T16:30:21.068Z</time>
      </trkpt>
      <trkpt lat="58.49151595495641" lon="13.273057993501425">
        <ele>52.35</ele>
        <time>2025-02-09T16:30:59.005Z</time>
      </trkpt>
      <trkpt lat="58.49149491637945" lon="13.273203922435641">
        <ele>52.39</ele>
        <time>2025-02-09T16:31:36.943Z</time>
      </trkpt>
      <trkpt lat="58.49147194996476" lon="13.273348929360509">
        <ele>52.43</ele>
        <time>2025-02-09T16:32:14.883Z</time>
      </trkpt>
      <trkpt lat="58.49145191721618" lon="13.273497959598899">
        <ele>52.46</ele>
        <time>2025-02-09T16:32:52.824Z</time>
      </trkpt>
      <trkpt lat="58.49143196828663" lon="13.273646989837289">
        <ele>52.5</ele>
        <time>2025-02-09T16:33:30.766Z</time>
      </trkpt>
      <trkpt lat="58.491412941366434" lon="13.273794930428267">
        <ele>52.53</ele>
        <time>2025-02-09T16:34:08.710Z</time>
      </trkpt>
      <trkpt lat="58.491395926102996" lon="13.273944966495037">
        <ele>52.57</ele>
        <time>2025-02-09T16:34:46.655Z</time>
      </trkpt>
      <trkpt lat="58.49137798883021" lon="13.274094918742776">
        <ele>52.6</ele>
        <time>2025-02-09T16:35:24.601Z</time>
      </trkpt>
      <trkpt lat="58.49136097356677" lon="13.274243948981166">
        <ele>52.63</ele>
        <time>2025-02-09T16:36:02.548Z</time>
      </trkpt>
      <trkpt lat="58.49134496413171" lon="13.274393985047936">
        <ele>52.66</ele>
        <time>2025-02-09T16:36:40.497Z</time>
      </trkpt>
      <trkpt lat="58.491328954696655" lon="13.274543937295675">
        <ele>52.69</ele>
        <time>2025-02-09T16:37:18.447Z</time>
      </trkpt>
      <trkpt lat="58.4913129452616" lon="13.274693973362446">
        <ele>52.71</ele>
        <time>2025-02-09T16:37:56.398Z</time>
      </trkpt>
      <trkpt lat="58.49129693582654" lon="13.274843925610185">
        <ele>52.74</ele>
        <time>2025-02-09T16:38:34.351Z</time>
      </trkpt>
      <trkpt lat="58.49128193221986" lon="13.274992955848575">
        <ele>52.76</ele>
        <time>2025-02-09T16:39:12.305Z</time>
      </trkpt>
      <trkpt lat="58.491264916956425" lon="13.275140980258584">
        <ele>52.78</ele>
        <time>2025-02-09T16:39:50.260Z</time>
      </trkpt>
      <trkpt lat="58.49124999716878" lon="13.275289926677942">
        <ele>52.8</ele>
        <time>2025-02-09T16:40:28.216Z</time>
      </trkpt>
      <trkpt lat="58.49123398773372" lon="13.275439962744713">
        <ele>52.81</ele>
        <time>2025-02-09T16:41:06.174Z</time>
      </trkpt>
      <trkpt lat="58.491219989955425" lon="13.275588992983103">
        <ele>52.83</ele>
        <time>2025-02-09T16:41:44.133Z</time>
      </trkpt>
      <trkpt lat="58.49120599217713" lon="13.27573693357408">
        <ele>52.84</ele>
        <time>2025-02-09T16:42:22.093Z</time>
      </trkpt>
      <trkpt lat="58.49119199439883" lon="13.27588395215571">
        <ele>52.85</ele>
        <time>2025-02-09T16:43:00.054Z</time>
      </trkpt>
      <trkpt lat="58.491176990792155" lon="13.276031976565719">
        <ele>52.86</ele>
        <time>2025-02-09T16:43:38.017Z</time>
      </trkpt>
      <trkpt lat="58.49116299301386" lon="13.276179917156696">
        <ele>52.87</ele>
        <time>2025-02-09T16:44:15.981Z</time>
      </trkpt>
      <trkpt lat="58.49114991724491" lon="13.276328947395086">
        <ele>52.88</ele>
        <time>2025-02-09T16:44:53.946Z</time>
      </trkpt>
      <trkpt lat="58.491136925294995" lon="13.276477977633476">
        <ele>52.89</ele>
        <time>2025-02-09T16:45:31.912Z</time>
      </trkpt>
      <trkpt lat="58.49112594500184" lon="13.276628935709596">
        <ele>52.91</ele>
        <time>2025-02-09T16:46:09.880Z</time>
      </trkpt>
      <trkpt lat="58.491112953051925" lon="13.276777965947986">
        <ele>52.91</ele>
        <time>2025-02-09T16:46:47.849Z</time>
      </trkpt>
      <trkpt lat="58.49110197275877" lon="13.276929929852486">
        <ele>52.92</ele>
        <time>2025-02-09T16:47:25.819Z</time>
      </trkpt>
      <trkpt lat="58.491091998293996" lon="13.277083989232779">
        <ele>52.92</ele>
        <time>2025-02-09T16:48:03.791Z</time>
      </trkpt>
      <trkpt lat="58.49108194001019" lon="13.277235953137279">
        <ele>52.93</ele>
        <time>2025-02-09T16:48:41.764Z</time>
      </trkpt>
      <trkpt lat="58.491071965545416" lon="13.277385989204049">
        <ele>52.93</ele>
        <time>2025-02-09T16:49:19.738Z</time>
      </trkpt>
      <trkpt lat="58.49106299690902" lon="13.27753795310855">
        <ele>52.93</ele>
        <time>2025-02-09T16:49:57.713Z</time>
      </trkpt>
      <trkpt lat="58.49105495028198" lon="13.2776889950037">
        <ele>52.93</ele>
        <time>2025-02-09T16:50:35.690Z</time>
      </trkpt>
      <trkpt lat="58.491046987473965" lon="13.27784196473658">
        <ele>52.92</ele>
        <time>2025-02-09T16:51:13.668Z</time>
      </trkpt>
      <trkpt lat="58.4910399466753" lon="13.277994934469461">
        <ele>52.92</ele>
        <time>2025-02-09T16:51:51.647Z</time>
      </trkpt>
      <trkpt lat="58.49103298969567" lon="13.278147988021374">
        <ele>52.9</ele>
        <time>2025-02-09T16:52:29.628Z</time>
      </trkpt>
      <trkpt lat="58.491026954725385" lon="13.278302969411016">
        <ele>52.89</ele>
        <time>2025-02-09T16:53:07.610Z</time>
      </trkpt>
      <trkpt lat="58.49101999774575" lon="13.278455939143896">
        <ele>52.86</ele>
        <time>2025-02-09T16:53:45.593Z</time>
      </trkpt>
      <trkpt lat="58.49101295694709" lon="13.278608992695808">
        <ele>52.85</ele>
        <time>2025-02-09T16:54:23.577Z</time>
      </trkpt>
      <trkpt lat="58.491006921976805" lon="13.27876397408545">
        <ele>52.82</ele>
        <time>2025-02-09T16:55:01.563Z</time>
      </trkpt>
      <trkpt lat="58.49100097082555" lon="13.278917949646711">
        <ele>52.8</ele>
        <time>2025-02-09T16:55:39.550Z</time>
      </trkpt>
      <trkpt lat="58.49099393002689" lon="13.279072931036353">
        <ele>52.77</ele>
        <time>2025-02-09T16:56:17.538Z</time>
      </trkpt>
      <trkpt lat="58.49098898470402" lon="13.279228918254375">
        <ele>52.75</ele>
        <time>2025-02-09T16:56:55.528Z</time>
      </trkpt>
      <trkpt lat="58.490982949733734" lon="13.279383983463049">
        <ele>52.72</ele>
        <time>2025-02-09T16:57:33.519Z</time>
      </trkpt>
      <trkpt lat="58.49097792059183" lon="13.279539970681071">
        <ele>52.7</ele>
        <time>2025-02-09T16:58:11.511Z</time>
      </trkpt>
      <trkpt lat="58.49097297526896" lon="13.279695957899094">
        <ele>52.68</ele>
        <time>2025-02-09T16:58:49.505Z</time>
      </trkpt>
      <trkpt lat="58.49096895195544" lon="13.279849933460355">
        <ele>52.66</ele>
        <time>2025-02-09T16:59:27.500Z</time>
      </trkpt>
      <trkpt lat="58.490965934470296" lon="13.280003992840648">
        <ele>52.65</ele>
        <time>2025-02-09T17:00:05.496Z</time>
      </trkpt>
      <trkpt lat="58.490961994975805" lon="13.280156962573528">
        <ele>52.64</ele>
        <time>2025-02-09T17:00:43.494Z</time>
      </trkpt>
      <trkpt lat="58.490960989147425" lon="13.28031093813479">
        <ele>52.63</ele>
        <time>2025-02-09T17:01:21.493Z</time>
      </trkpt>
      <trkpt lat="58.490959983319044" lon="13.280464997515082">
        <ele>52.61</ele>
        <time>2025-02-09T17:01:59.493Z</time>
      </trkpt>
      <trkpt lat="58.490959983319044" lon="13.280616961419582">
        <ele>52.6</ele>
        <time>2025-02-09T17:02:37.494Z</time>
      </trkpt>
      <trkpt lat="58.49095897749066" lon="13.280767919495702">
        <ele>52.59</ele>
        <time>2025-02-09T17:03:15.497Z</time>
      </trkpt>
      <trkpt lat="58.49095897749066" lon="13.280917955562472">
        <ele>52.58</ele>
        <time>2025-02-09T17:03:53.501Z</time>
      </trkpt>
      <trkpt lat="58.490960989147425" lon="13.281068997457623">
        <ele>52.57</ele>
        <time>2025-02-09T17:04:31.506Z</time>
      </trkpt>
      <trkpt lat="58.490963922813535" lon="13.281219955533743">
        <ele>52.56</ele>
        <time>2025-02-09T17:05:09.512Z</time>
      </trkpt>
      <trkpt lat="58.49096995778382" lon="13.281369991600513">
        <ele>52.55</ele>
        <time>2025-02-09T17:05:47.520Z</time>
      </trkpt>
      <trkpt lat="58.49097699858248" lon="13.281518938019872">
        <ele>52.55</ele>
        <time>2025-02-09T17:06:25.529Z</time>
      </trkpt>
      <trkpt lat="58.490983955562115" lon="13.281666962429881">
        <ele>52.54</ele>
        <time>2025-02-09T17:07:03.539Z</time>
      </trkpt>
      <trkpt lat="58.49099393002689" lon="13.281816998496652">
        <ele>52.53</ele>
        <time>2025-02-09T17:07:41.550Z</time>
      </trkpt>
      <trkpt lat="58.491005999967456" lon="13.28196695074439">
        <ele>52.52</ele>
        <time>2025-02-09T17:08:19.563Z</time>
      </trkpt>
      <trkpt lat="58.49101899191737" lon="13.282116986811161">
        <ele>52.51</ele>
        <time>2025-02-09T17:08:57.577Z</time>
      </trkpt>
      <trkpt lat="58.49103298969567" lon="13.2822669390589">
        <ele>52.5</ele>
        <time>2025-02-09T17:09:35.592Z</time>
      </trkpt>
      <trkpt lat="58.491045981645584" lon="13.282411945983768">
        <ele>52.49</ele>
        <time>2025-02-09T17:10:13.609Z</time>
      </trkpt>
      <trkpt lat="58.49106199108064" lon="13.282555947080255">
        <ele>52.48</ele>
        <time>2025-02-09T17:10:51.627Z</time>
      </trkpt>
      <trkpt lat="58.49107892252505" lon="13.282698942348361">
        <ele>52.47</ele>
        <time>2025-02-09T17:11:29.646Z</time>
      </trkpt>
      <trkpt lat="58.49109794944525" lon="13.282840931788087">
        <ele>52.46</ele>
        <time>2025-02-09T17:12:07.666Z</time>
      </trkpt>
      <trkpt lat="58.49111999385059" lon="13.282981999218464">
        <ele>52.45</ele>
        <time>2025-02-09T17:12:45.687Z</time>
      </trkpt>
      <trkpt lat="58.49114296026528" lon="13.28312298282981">
        <ele>52.44</ele>
        <time>2025-02-09T17:13:23.710Z</time>
      </trkpt>
      <trkpt lat="58.49116793833673" lon="13.283260948956013">
        <ele>52.44</ele>
        <time>2025-02-09T17:14:01.734Z</time>
      </trkpt>
      <trkpt lat="58.49119291640818" lon="13.283397993072867">
        <ele>52.43</ele>
        <time>2025-02-09T17:14:39.759Z</time>
      </trkpt>
      <trkpt lat="58.491219989955425" lon="13.283530930057168">
        <ele>52.43</ele>
        <time>2025-02-09T17:15:17.785Z</time>
      </trkpt>
      <trkpt lat="58.49124798551202" lon="13.28366294503212">
        <ele>52.43</ele>
        <time>2025-02-09T17:15:55.813Z</time>
      </trkpt>
      <trkpt lat="58.49127899855375" lon="13.283793954178691">
        <ele>52.43</ele>
        <time>2025-02-09T17:16:33.842Z</time>
      </trkpt>
      <trkpt lat="58.491309927776456" lon="13.283922951668501">
        <ele>52.44</ele>
        <time>2025-02-09T17:17:11.872Z</time>
      </trkpt>
      <trkpt lat="58.49134194664657" lon="13.28405094332993">
        <ele>52.44</ele>
        <time>2025-02-09T17:17:49.903Z</time>
      </trkpt>
      <trkpt lat="58.491373965516686" lon="13.28417893499136">
        <ele>52.45</ele>
        <time>2025-02-09T17:18:27.935Z</time>
      </trkpt>
      <trkpt lat="58.49140799604356" lon="13.28430499881506">
        <ele>52.46</ele>
        <time>2025-02-09T17:19:05.969Z</time>
      </trkpt>
      <trkpt lat="58.49144294857979" lon="13.284427961334586">
        <ele>52.47</ele>
        <time>2025-02-09T17:19:44.004Z</time>
      </trkpt>
      <trkpt lat="58.491479996591806" lon="13.284547990188003">
        <ele>52.48</ele>
        <time>2025-02-09T17:20:22.040Z</time>
      </trkpt>
      <trkpt lat="58.49151796661317" lon="13.284664917737246">
        <ele>52.49</ele>
        <time>2025-02-09T17:21:00.077Z</time>
      </trkpt>
      <trkpt lat="58.4915579482913" lon="13.28478092327714">
        <ele>52.5</ele>
        <time>2025-02-09T17:21:38.115Z</time>
      </trkpt>
      <trkpt lat="58.49159591831267" lon="13.284894917160273">
        <ele>52.52</ele>
        <time>2025-02-09T17:22:16.154Z</time>
      </trkpt>
      <trkpt lat="58.49163698963821" lon="13.285007989034057">
        <ele>52.54</ele>
        <time>2025-02-09T17:22:54.194Z</time>
      </trkpt>
      <trkpt lat="58.4916789829731" lon="13.285118965432048">
        <ele>52.56</ele>
        <time>2025-02-09T17:23:32.236Z</time>
      </trkpt>
      <trkpt lat="58.49172097630799" lon="13.285226924344897">
        <ele>52.59</ele>
        <time>2025-02-09T17:24:10.279Z</time>
      </trkpt>
      <trkpt lat="58.49176397547126" lon="13.285333961248398">
        <ele>52.62</ele>
        <time>2025-02-09T17:24:48.323Z</time>
      </trkpt>
      <trkpt lat="58.49180697463453" lon="13.285439992323518">
        <ele>52.64</ele>
        <time>2025-02-09T17:25:26.368Z</time>
      </trkpt>
      <trkpt lat="58.49185097962618" lon="13.285544933751225">
        <ele>52.67</ele>
        <time>2025-02-09T17:26:04.414Z</time>
      </trkpt>
      <trkpt lat="58.49189397878945" lon="13.285649958997965">
        <ele>52.71</ele>
        <time>2025-02-09T17:26:42.461Z</time>
      </trkpt>
      <trkpt lat="58.49193898960948" lon="13.285754984244704">
        <ele>52.74</ele>
        <time>2025-02-09T17:27:20.509Z</time>
      </trkpt>
      <trkpt lat="58.49198592826724" lon="13.285858919844031">
        <ele>52.78</ele>
        <time>2025-02-09T17:27:58.559Z</time>
      </trkpt>
      <trkpt lat="58.49203295074403" lon="13.28596293926239">
        <ele>52.81</ele>
        <time>2025-02-09T17:28:36.610Z</time>
      </trkpt>
      <trkpt lat="58.492079973220825" lon="13.286064947023988">
        <ele>52.85</ele>
        <time>2025-02-09T17:29:14.662Z</time>
      </trkpt>
      <trkpt lat="58.49212892353535" lon="13.286167960613966">
        <ele>52.9</ele>
        <time>2025-02-09T17:29:52.715Z</time>
      </trkpt>
      <trkpt lat="58.49217996932566" lon="13.286271980032325">
        <ele>52.94</ele>
        <time>2025-02-09T17:30:30.769Z</time>
      </trkpt>
      <trkpt lat="58.492230931296945" lon="13.286375999450684">
        <ele>52.99</ele>
        <time>2025-02-09T17:31:08.824Z</time>
      </trkpt>
      <trkpt lat="58.49228298291564" lon="13.286480940878391">
        <ele>53.03</ele>
        <time>2025-02-09T17:31:46.881Z</time>
      </trkpt>
      <trkpt lat="58.492335956543684" lon="13.28658395446837">
        <ele>53.08</ele>
        <time>2025-02-09T17:32:24.939Z</time>
      </trkpt>
      <trkpt lat="58.49238993600011" lon="13.28668998554349">
        <ele>53.13</ele>
        <time>2025-02-09T17:33:02.998Z</time>
      </trkpt>
      <trkpt lat="58.492444921284914" lon="13.286793921142817">
        <ele>53.18</ele>
        <time>2025-02-09T17:33:41.058Z</time>
      </trkpt>
      <trkpt lat="58.49249797873199" lon="13.286896934732795">
        <ele>53.23</ele>
        <time>2025-02-09T17:34:19.120Z</time>
      </trkpt>
      <trkpt lat="58.492553969845176" lon="13.287001959979534">
        <ele>53.28</ele>
        <time>2025-02-09T17:34:57.183Z</time>
      </trkpt>
      <trkpt lat="58.4926079493016" lon="13.287107991054654">
        <ele>53.33</ele>
        <time>2025-02-09T17:35:35.247Z</time>
      </trkpt>
      <trkpt lat="58.492662934586406" lon="13.287213938310742">
        <ele>53.39</ele>
        <time>2025-02-09T17:36:13.312Z</time>
      </trkpt>
      <trkpt lat="58.49271699786186" lon="13.287318963557482">
        <ele>53.45</ele>
        <time>2025-02-09T17:36:51.379Z</time>
      </trkpt>
      <trkpt lat="58.492768965661526" lon="13.287423988804221">
        <ele>53.51</ele>
        <time>2025-02-09T17:37:29.447Z</time>
      </trkpt>
      <trkpt lat="58.49282093346119" lon="13.28752993606031">
        <ele>53.57</ele>
        <time>2025-02-09T17:38:07.516Z</time>
      </trkpt>
      <trkpt lat="58.492876924574375" lon="13.287640996277332">
        <ele>53.63</ele>
        <time>2025-02-09T17:38:45.586Z</time>
      </trkpt>
      <trkpt lat="58.49293392151594" lon="13.287754990160465">
        <ele>53.7</ele>
        <time>2025-02-09T17:39:23.658Z</time>
      </trkpt>
      <trkpt lat="58.49299192428589" lon="13.287871917709708">
        <ele>53.76</ele>
        <time>2025-02-09T17:40:01.731Z</time>
      </trkpt>
      <trkpt lat="58.4930519387126" lon="13.287991946563125">
        <ele>53.83</ele>
        <time>2025-02-09T17:40:39.805Z</time>
      </trkpt>
      <trkpt lat="58.493111953139305" lon="13.288112981244922">
        <ele>53.9</ele>
        <time>2025-02-09T17:41:17.881Z</time>
      </trkpt>
      <trkpt lat="58.49316794425249" lon="13.288235943764448">
        <ele>53.97</ele>
        <time>2025-02-09T17:41:55.958Z</time>
      </trkpt>
      <trkpt lat="58.493221923708916" lon="13.288359995931387">
        <ele>54.05</ele>
        <time>2025-02-09T17:42:34.036Z</time>
      </trkpt>
      <trkpt lat="58.49327598698437" lon="13.288485975936055">
        <ele>54.13</ele>
        <time>2025-02-09T17:43:12.116Z</time>
      </trkpt>
      <trkpt lat="58.493328960612416" lon="13.288614973425865">
        <ele>54.21</ele>
        <time>2025-02-09T17:43:50.197Z</time>
      </trkpt>
      <trkpt lat="58.49338092841208" lon="13.288745982572436">
        <ele>54.3</ele>
        <time>2025-02-09T17:44:28.280Z</time>
      </trkpt>
      <trkpt lat="58.493431974202394" lon="13.288879925385118">
        <ele>54.39</ele>
        <time>2025-02-09T17:45:06.364Z</time>
      </trkpt>
      <trkpt lat="58.493477990850806" lon="13.289014957845211">
        <ele>54.48</ele>
        <time>2025-02-09T17:45:44.449Z</time>
      </trkpt>
      <trkpt lat="58.493520990014076" lon="13.289151918143034">
        <ele>54.58</ele>
        <time>2025-02-09T17:46:22.536Z</time>
      </trkpt>
      <trkpt lat="58.493559965863824" lon="13.28929097391665">
        <ele>54.67</ele>
        <time>2025-02-09T17:47:00.624Z</time>
      </trkpt>
      <trkpt lat="58.49359693005681" lon="13.289431957527995">
        <ele>54.77</ele>
        <time>2025-02-09T17:47:38.713Z</time>
      </trkpt>
      <trkpt lat="58.493629954755306" lon="13.289573946967721">
        <ele>54.87</ele>
        <time>2025-02-09T17:48:16.804Z</time>
      </trkpt>
      <trkpt lat="58.4936579503119" lon="13.289714930579066">
        <ele>54.97</ele>
        <time>2025-02-09T17:48:54.896Z</time>
      </trkpt>
      <trkpt lat="58.49368091672659" lon="13.289854992181063">
        <ele>55.08</ele>
        <time>2025-02-09T17:49:32.989Z</time>
      </trkpt>
      <trkpt lat="58.49370094947517" lon="13.289994969964027">
        <ele>55.19</ele>
        <time>2025-02-09T17:50:11.083Z</time>
      </trkpt>
      <trkpt lat="58.49371796473861" lon="13.290134947746992">
        <ele>55.3</ele>
        <time>2025-02-09T17:50:49.179Z</time>
      </trkpt>
      <trkpt lat="58.49372995086014" lon="13.290273919701576">
        <ele>55.41</ele>
        <time>2025-02-09T17:51:27.276Z</time>
      </trkpt>
      <trkpt lat="58.49373992532492" lon="13.290411969646811">
        <ele>55.53</ele>
        <time>2025-02-09T17:52:05.374Z</time>
      </trkpt>
      <trkpt lat="58.49374495446682" lon="13.290546918287873">
        <ele>55.65</ele>
        <time>2025-02-09T17:52:43.473Z</time>
      </trkpt>
      <trkpt lat="58.49374897778034" lon="13.290677927434444">
        <ele>55.78</ele>
        <time>2025-02-09T17:53:21.573Z</time>
      </trkpt>
      <trkpt lat="58.4937509894371" lon="13.290805919095874">
        <ele>55.9</ele>
        <time>2025-02-09T17:53:59.674Z</time>
      </trkpt>
      <trkpt lat="58.49374998360872" lon="13.290931982919574">
        <ele>56.03</ele>
        <time>2025-02-09T17:54:37.776Z</time>
      </trkpt>
      <trkpt lat="58.49374696612358" lon="13.291058968752623">
        <ele>56.16</ele>
        <time>2025-02-09T17:55:15.879Z</time>
      </trkpt>
      <trkpt lat="58.4937409311533" lon="13.291185954585671">
        <ele>56.29</ele>
        <time>2025-02-09T17:55:53.983Z</time>
      </trkpt>
      <trkpt lat="58.493732968345284" lon="13.291314952075481">
        <ele>56.42</ele>
        <time>2025-02-09T17:56:32.089Z</time>
      </trkpt>
      <trkpt lat="58.49372198805213" lon="13.291445961222053">
        <ele>56.55</ele>
        <time>2025-02-09T17:57:10.196Z</time>
      </trkpt>
      <trkpt lat="58.493708996102214" lon="13.291580993682146">
        <ele>56.69</ele>
        <time>2025-02-09T17:57:48.304Z</time>
      </trkpt>
      <trkpt lat="58.493690975010395" lon="13.29172097146511">
        <ele>56.83</ele>
        <time>2025-02-09T17:58:26.413Z</time>
      </trkpt>
      <trkpt lat="58.493668930605054" lon="13.291865978389978">
        <ele>56.97</ele>
        <time>2025-02-09T17:59:04.523Z</time>
      </trkpt>
      <trkpt lat="58.49363992922008" lon="13.292014924809337">
        <ele>57.11</ele>
        <time>2025-02-09T17:59:42.635Z</time>
      </trkpt>
      <trkpt lat="58.493607994169" lon="13.292167978361249">
        <ele>57.25</ele>
        <time>2025-02-09T18:00:20.748Z</time>
      </trkpt>
      <trkpt lat="58.49357195198536" lon="13.29232295975089">
        <ele>57.39</ele>
        <time>2025-02-09T18:00:58.862Z</time>
      </trkpt>
      <trkpt lat="58.49353297613561" lon="13.292477941140532">
        <ele>57.54</ele>
        <time>2025-02-09T18:01:36.978Z</time>
      </trkpt>
      <trkpt lat="58.4934919886291" lon="13.292630994692445">
        <ele>57.68</ele>
        <time>2025-02-09T18:02:15.095Z</time>
      </trkpt>
      <trkpt lat="58.49345192313194" lon="13.292781952768564">
        <ele>57.81</ele>
        <time>2025-02-09T18:02:53.214Z</time>
      </trkpt>
      <trkpt lat="58.493410935625434" lon="13.292926959693432">
        <ele>57.95</ele>
        <time>2025-02-09T18:03:31.334Z</time>
      </trkpt>
      <trkpt lat="58.4933659248054" lon="13.293063919991255">
        <ele>58.1</ele>
        <time>2025-02-09T18:04:09.455Z</time>
      </trkpt>
      <trkpt lat="58.4933209978044" lon="13.293199958279729">
        <ele>58.25</ele>
        <time>2025-02-09T18:04:47.578Z</time>
      </trkpt>
      <trkpt lat="58.49327699281275" lon="13.293334990739822">
        <ele>58.39</ele>
        <time>2025-02-09T18:05:25.702Z</time>
      </trkpt>
      <trkpt lat="58.49323793314397" lon="13.293463988229632">
        <ele>58.54</ele>
        <time>2025-02-09T18:06:03.827Z</time>
      </trkpt>
      <trkpt lat="58.493198957294226" lon="13.29358795657754">
        <ele>58.7</ele>
        <time>2025-02-09T18:06:41.954Z</time>
      </trkpt>
      <trkpt lat="58.49316098727286" lon="13.293708991259336">
        <ele>58.85</ele>
        <time>2025-02-09T18:07:20.082Z</time>
      </trkpt>
      <trkpt lat="58.49312494508922" lon="13.293829942122102">
        <ele>59.0</ele>
        <time>2025-02-09T18:07:58.211Z</time>
      </trkpt>
      <trkpt lat="58.493092926219106" lon="13.293947959318757">
        <ele>59.16</ele>
        <time>2025-02-09T18:08:36.341Z</time>
      </trkpt>
      <trkpt lat="58.49306392483413" lon="13.294063964858651">
        <ele>59.32</ele>
        <time>2025-02-09T18:09:14.472Z</time>
      </trkpt>
      <trkpt lat="58.49303693510592" lon="13.294174941256642">
        <ele>59.47</ele>
        <time>2025-02-09T18:09:52.604Z</time>
      </trkpt>
      <trkpt lat="58.49301095120609" lon="13.294281978160143">
        <ele>59.63</ele>
        <time>2025-02-09T18:10:30.737Z</time>
      </trkpt>
      <trkpt lat="58.4929879847914" lon="13.294385997578502">
        <ele>59.78</ele>
        <time>2025-02-09T18:11:08.871Z</time>
      </trkpt>
      <trkpt lat="58.49296795204282" lon="13.294483982026577">
        <ele>59.94</ele>
        <time>2025-02-09T18:11:47.006Z</time>
      </trkpt>
      <trkpt lat="58.492949930951" lon="13.29457794316113">
        <ele>60.1</ele>
        <time>2025-02-09T18:12:25.142Z</time>
      </trkpt>
      <trkpt lat="58.49293199367821" lon="13.294671988114715">
        <ele>60.26</ele>
        <time>2025-02-09T18:13:03.279Z</time>
      </trkpt>
      <trkpt lat="58.492915984243155" lon="13.294763937592506">
        <ele>60.41</ele>
        <time>2025-02-09T18:13:41.416Z</time>
      </trkpt>
      <trkpt lat="58.49290098063648" lon="13.294853959232569">
        <ele>60.57</ele>
        <time>2025-02-09T18:14:19.554Z</time>
      </trkpt>
      <trkpt lat="58.49288698285818" lon="13.294943980872631">
        <ele>60.72</ele>
        <time>2025-02-09T18:14:57.693Z</time>
      </trkpt>
      <trkpt lat="58.492873990908265" lon="13.295033918693662">
        <ele>60.88</ele>
        <time>2025-02-09T18:15:35.833Z</time>
      </trkpt>
      <trkpt lat="58.49286292679608" lon="13.295120922848582">
        <ele>61.04</ele>
        <time>2025-02-09T18:16:13.974Z</time>
      </trkpt>
      <trkpt lat="58.492852952331305" lon="13.295207927003503">
        <ele>61.19</ele>
        <time>2025-02-09T18:16:52.115Z</time>
      </trkpt>
      <trkpt lat="58.49284398369491" lon="13.295294931158423">
        <ele>61.35</ele>
        <time>2025-02-09T18:17:30.257Z</time>
      </trkpt>
      <trkpt lat="58.492834931239486" lon="13.295378917828202">
        <ele>61.5</ele>
        <time>2025-02-09T18:18:08.400Z</time>
      </trkpt>
      <trkpt lat="58.492828980088234" lon="13.295463994145393">
        <ele>61.66</ele>
        <time>2025-02-09T18:18:46.544Z</time>
      </trkpt>
      <trkpt lat="58.49282294511795" lon="13.295549992471933">
        <ele>61.81</ele>
        <time>2025-02-09T18:19:24.688Z</time>
      </trkpt>
      <trkpt lat="58.49281799979508" lon="13.295634984970093">
        <ele>61.97</ele>
        <time>2025-02-09T18:20:02.833Z</time>
      </trkpt>
      <trkpt lat="58.492812970653176" lon="13.295719977468252">
        <ele>62.13</ele>
        <time>2025-02-09T18:20:40.979Z</time>
      </trkpt>
      <trkpt lat="58.492809953168035" lon="13.295804969966412">
        <ele>62.28</ele>
        <time>2025-02-09T18:21:19.125Z</time>
      </trkpt>
      <trkpt lat="58.49280794151127" lon="13.29588795080781">
        <ele>62.43</ele>
        <time>2025-02-09T18:21:57.272Z</time>
      </trkpt>
      <trkpt lat="58.49280592985451" lon="13.295971937477589">
        <ele>62.59</ele>
        <time>2025-02-09T18:22:35.420Z</time>
      </trkpt>
      <trkpt lat="58.49280391819775" lon="13.296054918318987">
        <ele>62.74</ele>
        <time>2025-02-09T18:23:13.569Z</time>
      </trkpt>
      <trkpt lat="58.4928029961884" lon="13.296139994636178">
        <ele>62.89</ele>
        <time>2025-02-09T18:23:51.718Z</time>
      </trkpt>
      <trkpt lat="58.49280391819775" lon="13.296224987134337">
        <ele>63.04</ele>
        <time>2025-02-09T18:24:29.868Z</time>
      </trkpt>
      <trkpt lat="58.49280693568289" lon="13.296309979632497">
        <ele>63.19</ele>
        <time>2025-02-09T18:25:08.019Z</time>
      </trkpt>
      <trkpt lat="58.492808947339654" lon="13.296396983787417">
        <ele>63.33</ele>
        <time>2025-02-09T18:25:46.170Z</time>
      </trkpt>
      <trkpt lat="58.492811964824796" lon="13.296483987942338">
        <ele>63.48</ele>
        <time>2025-02-09T18:26:24.322Z</time>
      </trkpt>
      <trkpt lat="58.49281498230994" lon="13.296570992097259">
        <ele>63.63</ele>
        <time>2025-02-09T18:27:02.475Z</time>
      </trkpt>
      <trkpt lat="58.49281892180443" lon="13.296655984595418">
        <ele>63.77</ele>
        <time>2025-02-09T18:27:40.629Z</time>
      </trkpt>
      <trkpt lat="58.49282395094633" lon="13.296740977093577">
        <ele>63.91</ele>
        <time>2025-02-09T18:28:18.783Z</time>
      </trkpt>
      <trkpt lat="58.492829985916615" lon="13.296824963763356">
        <ele>64.06</ele>
        <time>2025-02-09T18:28:56.938Z</time>
      </trkpt>
      <trkpt lat="58.49283794872463" lon="13.296907944604754">
        <ele>64.2</ele>
        <time>2025-02-09T18:29:35.094Z</time>
      </trkpt>
      <trkpt lat="58.49284599535167" lon="13.296991931274533">
        <ele>64.34</ele>
        <time>2025-02-09T18:30:13.250Z</time>
      </trkpt>
      <trkpt lat="58.492854963988066" lon="13.297076923772693">
        <ele>64.48</ele>
        <time>2025-02-09T18:30:51.407Z</time>
      </trkpt>
      <trkpt lat="58.49286594428122" lon="13.297162922099233">
        <ele>64.62</ele>
        <time>2025-02-09T18:31:29.565Z</time>
      </trkpt>
      <trkpt lat="58.492877930402756" lon="13.297247998416424">
        <ele>64.76</ele>
        <time>2025-02-09T18:32:07.724Z</time>
      </trkpt>
      <trkpt lat="58.49289092235267" lon="13.297332990914583">
        <ele>64.9</ele>
        <time>2025-02-09T18:32:45.883Z</time>
      </trkpt>
      <trkpt lat="58.49290299229324" lon="13.297417983412743">
        <ele>65.03</ele>
        <time>2025-02-09T18:33:24.043Z</time>
      </trkpt>
      <trkpt lat="58.492915984243155" lon="13.297501970082521">
        <ele>65.16</ele>
        <time>2025-02-09T18:34:02.204Z</time>
      </trkpt>
      <trkpt lat="58.49292998202145" lon="13.2975859567523">
        <ele>65.29</ele>
        <time>2025-02-09T18:34:40.366Z</time>
      </trkpt>
      <trkpt lat="58.49294498562813" lon="13.29767094925046">
        <ele>65.42</ele>
        <time>2025-02-09T18:35:18.528Z</time>
      </trkpt>
      <trkpt lat="58.492959989234805" lon="13.297755941748619">
        <ele>65.54</ele>
        <time>2025-02-09T18:35:56.691Z</time>
      </trkpt>
      <trkpt lat="58.49297792650759" lon="13.297840934246778">
        <ele>65.67</ele>
        <time>2025-02-09T18:36:34.855Z</time>
      </trkpt>
      <trkpt lat="58.49299594759941" lon="13.297925926744938">
        <ele>65.8</ele>
        <time>2025-02-09T18:37:13.020Z</time>
      </trkpt>
      <trkpt lat="58.49301598034799" lon="13.298009997233748">
        <ele>65.92</ele>
        <time>2025-02-09T18:37:51.185Z</time>
      </trkpt>
      <trkpt lat="58.49303693510592" lon="13.298093983903527">
        <ele>66.05</ele>
        <time>2025-02-09T18:38:29.351Z</time>
      </trkpt>
      <trkpt lat="58.49305797368288" lon="13.298177970573306">
        <ele>66.17</ele>
        <time>2025-02-09T18:39:07.518Z</time>
      </trkpt>
      <trkpt lat="58.49308194592595" lon="13.298260951414704">
        <ele>66.29</ele>
        <time>2025-02-09T18:39:45.686Z</time>
      </trkpt>
      <trkpt lat="58.49310591816902" lon="13.298343932256103">
        <ele>66.4</ele>
        <time>2025-02-09T18:40:23.855Z</time>
      </trkpt>
      <trkpt lat="58.493130980059505" lon="13.298426996916533">
        <ele>66.52</ele>
        <time>2025-02-09T18:41:02.024Z</time>
      </trkpt>
      <trkpt lat="58.493154952302575" lon="13.29850997775793">
        <ele>66.63</ele>
        <time>2025-02-09T18:41:40.194Z</time>
      </trkpt>
      <trkpt lat="58.49318093620241" lon="13.298592958599329">
        <ele>66.74</ele>
        <time>2025-02-09T18:42:18.365Z</time>
      </trkpt>
      <trkpt lat="58.493208931759" lon="13.298675939440727">
        <ele>66.85</ele>
        <time>2025-02-09T18:42:56.537Z</time>
      </trkpt>
      <trkpt lat="58.49323793314397" lon="13.298757998272777">
        <ele>66.96</ele>
        <time>2025-02-09T18:43:34.710Z</time>
      </trkpt>
      <trkpt lat="58.49326794035733" lon="13.298839973285794">
        <ele>67.06</ele>
        <time>2025-02-09T18:44:12.883Z</time>
      </trkpt>
      <trkpt lat="58.49329895339906" lon="13.298921948298812">
        <ele>67.16</ele>
        <time>2025-02-09T18:44:51.057Z</time>
      </trkpt>
      <trkpt lat="58.49333097226918" lon="13.299002917483449">
        <ele>67.26</ele>
        <time>2025-02-09T18:45:29.232Z</time>
      </trkpt>
      <trkpt lat="58.4933659248054" lon="13.299082964658737">
        <ele>67.35</ele>
        <time>2025-02-09T18:46:07.408Z</time>
      </trkpt>
      <trkpt lat="58.49340196698904" lon="13.299161922186613">
        <ele>67.45</ele>
        <time>2025-02-09T18:46:45.585Z</time>
      </trkpt>
      <trkpt lat="58.493437925353646" lon="13.29924096353352">
        <ele>67.54</ele>
        <time>2025-02-09T18:47:23.763Z</time>
      </trkpt>
      <trkpt lat="58.493475979194045" lon="13.299317993223667">
        <ele>67.62</ele>
        <time>2025-02-09T18:48:01.942Z</time>
      </trkpt>
      <trkpt lat="58.49351394921541" lon="13.299394939094782">
        <ele>67.71</ele>
        <time>2025-02-09T18:48:40.122Z</time>
      </trkpt>
      <trkpt lat="58.4935559425503" lon="13.299470962956548">
        <ele>67.79</ele>
        <time>2025-02-09T18:49:18.303Z</time>
      </trkpt>
      <trkpt lat="58.49359592422843" lon="13.299547992646694">
        <ele>67.87</ele>
        <time>2025-02-09T18:49:56.484Z</time>
      </trkpt>
      <trkpt lat="58.49363791756332" lon="13.299623932689428">
        <ele>67.95</ele>
        <time>2025-02-09T18:50:34.666Z</time>
      </trkpt>
      <trkpt lat="58.49368192255497" lon="13.299697944894433">
        <ele>68.02</ele>
        <time>2025-02-09T18:51:12.849Z</time>
      </trkpt>
      <trkpt lat="58.49372793920338" lon="13.299771957099438">
        <ele>68.09</ele>
        <time>2025-02-09T18:51:51.033Z</time>
      </trkpt>
      <trkpt lat="58.493774961680174" lon="13.299845969304442">
        <ele>68.16</ele>
        <time>2025-02-09T18:52:29.218Z</time>
      </trkpt>
      <trkpt lat="58.49382399581373" lon="13.299918975681067">
        <ele>68.22</ele>
        <time>2025-02-09T18:53:07.404Z</time>
      </trkpt>
      <trkpt lat="58.49387395195663" lon="13.29999097622931">
        <ele>68.29</ele>
        <time>2025-02-09T18:53:45.591Z</time>
      </trkpt>
      <trkpt lat="58.493924997746944" lon="13.300061970949173">
        <ele>68.35</ele>
        <time>2025-02-09T18:54:23.779Z</time>
      </trkpt>
      <trkpt lat="58.49397696554661" lon="13.300132965669036">
        <ele>68.4</ele>
        <time>2025-02-09T18:55:01.968Z</time>
      </trkpt>
      <trkpt lat="58.49403094500303" lon="13.30020496621728">
        <ele>68.46</ele>
        <time>2025-02-09T18:55:40.158Z</time>
      </trkpt>
      <trkpt lat="58.49408492445946" lon="13.300277972593904">
        <ele>68.52</ele>
        <time>2025-02-09T18:56:18.349Z</time>
      </trkpt>
      <trkpt lat="58.494139993563294" lon="13.300350978970528">
        <ele>68.57</ele>
        <time>2025-02-09T18:56:56.541Z</time>
      </trkpt>
      <trkpt lat="58.49419598467648" lon="13.300423985347152">
        <ele>68.62</ele>
        <time>2025-02-09T18:57:34.735Z</time>
      </trkpt>
      <trkpt lat="58.49425298161805" lon="13.300496991723776">
        <ele>68.66</ele>
        <time>2025-02-09T18:58:12.930Z</time>
      </trkpt>
      <trkpt lat="58.49430997855961" lon="13.30057192593813">
        <ele>68.7</ele>
        <time>2025-02-09T18:58:51.126Z</time>
      </trkpt>
      <trkpt lat="58.49436798132956" lon="13.300648955628276">
        <ele>68.74</ele>
        <time>2025-02-09T18:59:29.323Z</time>
      </trkpt>
      <trkpt lat="58.49442698992789" lon="13.300725985318422">
        <ele>68.78</ele>
        <time>2025-02-09T19:00:07.521Z</time>
      </trkpt>
      <trkpt lat="58.494486920535564" lon="13.300803937017918">
        <ele>68.81</ele>
        <time>2025-02-09T19:00:45.720Z</time>
      </trkpt>
      <trkpt lat="58.49454693496227" lon="13.300881972536445">
        <ele>68.85</ele>
        <time>2025-02-09T19:01:23.920Z</time>
      </trkpt>
      <trkpt lat="58.49460795521736" lon="13.30095992423594">
        <ele>68.87</ele>
        <time>2025-02-09T19:02:02.122Z</time>
      </trkpt>
      <trkpt lat="58.49466897547245" lon="13.301039971411228">
        <ele>68.9</ele>
        <time>2025-02-09T19:02:40.325Z</time>
      </trkpt>
      <trkpt lat="58.49472999572754" lon="13.301119934767485">
        <ele>68.93</ele>
        <time>2025-02-09T19:03:18.529Z</time>
      </trkpt>
      <trkpt lat="58.49479294382036" lon="13.301199981942773">
        <ele>68.95</ele>
        <time>2025-02-09T19:03:56.734Z</time>
      </trkpt>
      <trkpt lat="58.49485698156059" lon="13.30128095112741">
        <ele>68.97</ele>
        <time>2025-02-09T19:04:34.940Z</time>
      </trkpt>
      <trkpt lat="58.49492093548179" lon="13.301363931968808">
        <ele>68.99</ele>
        <time>2025-02-09T19:05:13.148Z</time>
      </trkpt>
      <trkpt lat="58.49498698487878" lon="13.301448924466968">
        <ele>69.01</ele>
        <time>2025-02-09T19:05:51.357Z</time>
      </trkpt>
      <trkpt lat="58.49505295045674" lon="13.301532994955778">
        <ele>69.03</ele>
        <time>2025-02-09T19:06:29.567Z</time>
      </trkpt>
      <trkpt lat="58.49512092769146" lon="13.301618993282318">
        <ele>69.04</ele>
        <time>2025-02-09T19:07:07.778Z</time>
      </trkpt>
      <trkpt lat="58.49518898874521" lon="13.301704991608858">
        <ele>69.05</ele>
        <time>2025-02-09T19:07:45.991Z</time>
      </trkpt>
      <trkpt lat="58.495257971808314" lon="13.301790989935398">
        <ele>69.07</ele>
        <time>2025-02-09T19:08:24.205Z</time>
      </trkpt>
      <trkpt lat="58.4953279606998" lon="13.301875982433558">
        <ele>69.08</ele>
        <time>2025-02-09T19:09:02.420Z</time>
      </trkpt>
      <trkpt lat="58.49539794959128" lon="13.301962986588478">
        <ele>69.08</ele>
        <time>2025-02-09T19:09:40.637Z</time>
      </trkpt>
      <trkpt lat="58.49546894431114" lon="13.30205099657178">
        <ele>69.08</ele>
        <time>2025-02-09T19:10:18.855Z</time>
      </trkpt>
      <trkpt lat="58.495540944859385" lon="13.302138922736049">
        <ele>69.09</ele>
        <time>2025-02-09T19:10:57.075Z</time>
      </trkpt>
      <trkpt lat="58.49561395123601" lon="13.30222592689097">
        <ele>69.09</ele>
        <time>2025-02-09T19:11:35.296Z</time>
      </trkpt>
      <trkpt lat="58.495686957612634" lon="13.30231293104589">
        <ele>69.1</ele>
        <time>2025-02-09T19:12:13.518Z</time>
      </trkpt>
      <trkpt lat="58.49575996398926" lon="13.302400941029191">
        <ele>69.1</ele>
        <time>2025-02-09T19:12:51.742Z</time>
      </trkpt>
      <trkpt lat="58.49583397619426" lon="13.302490962669253">
        <ele>69.1</ele>
        <time>2025-02-09T19:13:29.967Z</time>
      </trkpt>
      <trkpt lat="58.49590698257089" lon="13.302581990137696">
        <ele>69.1</ele>
        <time>2025-02-09T19:14:08.193Z</time>
      </trkpt>
      <trkpt lat="58.49598191678524" lon="13.302671927958727">
        <ele>69.1</ele>
        <time>2025-02-09T19:14:46.421Z</time>
      </trkpt>
      <trkpt lat="58.496056934818625" lon="13.302760943770409">
        <ele>69.1</ele>
        <time>2025-02-09T19:15:24.650Z</time>
      </trkpt>
      <trkpt lat="58.49613295868039" lon="13.30284995958209">
        <ele>69.1</ele>
        <time>2025-02-09T19:16:02.881Z</time>
      </trkpt>
      <trkpt lat="58.49620998837054" lon="13.302938975393772">
        <ele>69.1</ele>
        <time>2025-02-09T19:16:41.113Z</time>
      </trkpt>
      <trkpt lat="58.49628693424165" lon="13.303028997033834">
        <ele>69.09</ele>
        <time>2025-02-09T19:17:19.347Z</time>
      </trkpt>
      <trkpt lat="58.49636295810342" lon="13.303119940683246">
        <ele>69.09</ele>
        <time>2025-02-09T19:17:57.582Z</time>
      </trkpt>
      <trkpt lat="58.496440993621945" lon="13.303210968151689">
        <ele>69.08</ele>
        <time>2025-02-09T19:18:35.819Z</time>
      </trkpt>
      <trkpt lat="58.49651894532144" lon="13.303301995620131">
        <ele>69.07</ele>
        <time>2025-02-09T19:19:14.057Z</time>
      </trkpt>
      <trkpt lat="58.49659698083997" lon="13.303392939269543">
        <ele>69.06</ele>
        <time>2025-02-09T19:19:52.296Z</time>
      </trkpt>
      <trkpt lat="58.49667493253946" lon="13.303483966737986">
        <ele>69.05</ele>
        <time>2025-02-09T19:20:30.537Z</time>
      </trkpt>
      <trkpt lat="58.49675497971475" lon="13.303574994206429">
        <ele>69.03</ele>
        <time>2025-02-09T19:21:08.779Z</time>
      </trkpt>
      <trkpt lat="58.49683494307101" lon="13.30366493202746">
        <ele>69.0</ele>
        <time>2025-02-09T19:21:47.023Z</time>
      </trkpt>
      <trkpt lat="58.49691599607468" lon="13.303756965324283">
        <ele>68.98</ele>
        <time>2025-02-09T19:22:25.268Z</time>
      </trkpt>
      <trkpt lat="58.49699595943093" lon="13.303847992792726">
        <ele>68.95</ele>
        <time>2025-02-09T19:23:03.515Z</time>
      </trkpt>
      <trkpt lat="58.49707692861557" lon="13.303938936442137">
        <ele>68.92</ele>
        <time>2025-02-09T19:23:41.763Z</time>
      </trkpt>
      <trkpt lat="58.49715798161924" lon="13.304028958082199">
        <ele>68.89</ele>
        <time>2025-02-09T19:24:20.013Z</time>
      </trkpt>
      <trkpt lat="58.497238950803876" lon="13.3041169680655">
        <ele>68.86</ele>
        <time>2025-02-09T19:24:58.264Z</time>
      </trkpt>
      <trkpt lat="58.497320925816894" lon="13.304207995533943">
        <ele>68.84</ele>
        <time>2025-02-09T19:25:36.517Z</time>
      </trkpt>
      <trkpt lat="58.49740298464894" lon="13.304299945011735">
        <ele>68.82</ele>
        <time>2025-02-09T19:26:14.771Z</time>
      </trkpt>
      <trkpt lat="58.49748395383358" lon="13.304390972480178">
        <ele>68.79</ele>
        <time>2025-02-09T19:26:53.027Z</time>
      </trkpt>
      <trkpt lat="58.4975659288466" lon="13.30447998829186">
        <ele>68.78</ele>
        <time>2025-02-09T19:27:31.284Z</time>
      </trkpt>
      <trkpt lat="58.49764798767865" lon="13.30456699244678">
        <ele>68.76</ele>
        <time>2025-02-09T19:28:09.543Z</time>
      </trkpt>
      <trkpt lat="58.497729962691665" lon="13.304650979116559">
        <ele>68.74</ele>
        <time>2025-02-09T19:28:47.803Z</time>
      </trkpt>
      <trkpt lat="58.49781294353306" lon="13.304731948301196">
        <ele>68.72</ele>
        <time>2025-02-09T19:29:26.065Z</time>
      </trkpt>
      <trkpt lat="58.49789693020284" lon="13.304806966334581">
        <ele>68.7</ele>
        <time>2025-02-09T19:30:04.328Z</time>
      </trkpt>
      <trkpt lat="58.497981922701" lon="13.304875949397683">
        <ele>68.68</ele>
        <time>2025-02-09T19:30:42.593Z</time>
      </trkpt>
      <trkpt lat="58.49806699901819" lon="13.304941998794675">
        <ele>68.67</ele>
        <time>2025-02-09T19:31:20.859Z</time>
      </trkpt>
      <trkpt lat="58.49815299734473" lon="13.30500092357397">
        <ele>68.65</ele>
        <time>2025-02-09T19:31:59.127Z</time>
      </trkpt>
      <trkpt lat="58.498240923509" lon="13.305050963535905">
        <ele>68.63</ele>
        <time>2025-02-09T19:32:37.396Z</time>
      </trkpt>
      <trkpt lat="58.4983289334923" lon="13.305088933557272">
        <ele>68.62</ele>
        <time>2025-02-09T19:33:15.667Z</time>
      </trkpt>
      <trkpt lat="58.498419960960746" lon="13.305121958255768">
        <ele>68.6</ele>
        <time>2025-02-09T19:33:53.939Z</time>
      </trkpt>
      <trkpt lat="58.49851199425757" lon="13.30514995381236">
        <ele>68.58</ele>
        <time>2025-02-09T19:34:32.213Z</time>
      </trkpt>
      <trkpt lat="58.49860394373536" lon="13.30517292022705">
        <ele>68.57</ele>
        <time>2025-02-09T19:35:10.488Z</time>
      </trkpt>
      <trkpt lat="58.498695977032185" lon="13.30519094131887">
        <ele>68.56</ele>
        <time>2025-02-09T19:35:48.765Z</time>
      </trkpt>
      <trkpt lat="58.49878893233836" lon="13.305199993774295">
        <ele>68.54</ele>
        <time>2025-02-09T19:36:27.043Z</time>
      </trkpt>
      <trkpt lat="58.49888197146356" lon="13.305202927440405">
        <ele>68.53</ele>
        <time>2025-02-09T19:37:05.323Z</time>
      </trkpt>
      <trkpt lat="58.498975932598114" lon="13.305197982117534">
        <ele>68.52</ele>
        <time>2025-02-09T19:37:43.604Z</time>
      </trkpt>
      <trkpt lat="58.49906796589494" lon="13.305184990167618">
        <ele>68.51</ele>
        <time>2025-02-09T19:38:21.887Z</time>
      </trkpt>
      <trkpt lat="58.49915899336338" lon="13.305163951590657">
        <ele>68.5</ele>
        <time>2025-02-09T19:39:00.171Z</time>
      </trkpt>
      <trkpt lat="58.49924993701279" lon="13.305134950205684">
        <ele>68.49</ele>
        <time>2025-02-09T19:39:38.457Z</time>
      </trkpt>
      <trkpt lat="58.499339958652854" lon="13.305098991841078">
        <ele>68.49</ele>
        <time>2025-02-09T19:40:16.744Z</time>
      </trkpt>
      <trkpt lat="58.499429980292916" lon="13.305057920515537">
        <ele>68.49</ele>
        <time>2025-02-09T19:40:55.033Z</time>
      </trkpt>
      <trkpt lat="58.49951799027622" lon="13.305009976029396">
        <ele>68.49</ele>
        <time>2025-02-09T19:41:33.323Z</time>
      </trkpt>
      <trkpt lat="58.49960298277438" lon="13.304950967431068">
        <ele>68.49</ele>
        <time>2025-02-09T19:42:11.615Z</time>
      </trkpt>
      <trkpt lat="58.499685963615775" lon="13.304886929690838">
        <ele>68.49</ele>
        <time>2025-02-09T19:42:49.908Z</time>
      </trkpt>
      <trkpt lat="58.49976793862879" lon="13.304819958284497">
        <ele>68.49</ele>
        <time>2025-02-09T19:43:28.202Z</time>
      </trkpt>
      <trkpt lat="58.49984597414732" lon="13.304744940251112">
        <ele>68.5</ele>
        <time>2025-02-09T19:44:06.498Z</time>
      </trkpt>
      <trkpt lat="58.499921998009086" lon="13.304664976894855">
        <ele>68.5</ele>
        <time>2025-02-09T19:44:44.795Z</time>
      </trkpt>
      <trkpt lat="58.49999592639506" lon="13.304580990225077">
        <ele>68.5</ele>
        <time>2025-02-09T19:45:23.094Z</time>
      </trkpt>
      <trkpt lat="58.50006893277168" lon="13.304498931393027">
        <ele>68.52</ele>
        <time>2025-02-09T19:46:01.394Z</time>
      </trkpt>
      <trkpt lat="58.50014294497669" lon="13.304424919188023">
        <ele>68.53</ele>
        <time>2025-02-09T19:46:39.695Z</time>
      </trkpt>
      <trkpt lat="58.500220980495214" lon="13.304363982751966">
        <ele>68.54</ele>
        <time>2025-02-09T19:47:17.998Z</time>
      </trkpt>
      <trkpt lat="58.50030295550823" lon="13.304322995245457">
        <ele>68.56</ele>
        <time>2025-02-09T19:47:56.302Z</time>
      </trkpt>
      <trkpt lat="58.50038794800639" lon="13.304314948618412">
        <ele>68.58</ele>
        <time>2025-02-09T19:48:34.607Z</time>
      </trkpt>
      <trkpt lat="58.50046992301941" lon="13.304344955831766">
        <ele>68.59</ele>
        <time>2025-02-09T19:49:12.914Z</time>
      </trkpt>
      <trkpt lat="58.500545946881175" lon="13.304410921409726">
        <ele>68.62</ele>
        <time>2025-02-09T19:49:51.222Z</time>
      </trkpt>
      <trkpt lat="58.50061694160104" lon="13.304491974413395">
        <ele>68.64</ele>
        <time>2025-02-09T19:50:29.531Z</time>
      </trkpt>
      <trkpt lat="58.50068399682641" lon="13.304574955254793">
        <ele>68.66</ele>
        <time>2025-02-09T19:51:07.842Z</time>
      </trkpt>
      <trkpt lat="58.50074996240437" lon="13.30465592443943">
        <ele>68.69</ele>
        <time>2025-02-09T19:51:46.154Z</time>
      </trkpt>
      <trkpt lat="58.50081492215395" lon="13.304733959957957">
        <ele>68.72</ele>
        <time>2025-02-09T19:52:24.467Z</time>
      </trkpt>
      <trkpt lat="58.5008779540658" lon="13.304809983819723">
        <ele>68.75</ele>
        <time>2025-02-09T19:53:02.781Z</time>
      </trkpt>
      <trkpt lat="58.50093897432089" lon="13.304885923862457">
        <ele>68.79</ele>
        <time>2025-02-09T19:53:41.097Z</time>
      </trkpt>
      <trkpt lat="58.500997982919216" lon="13.304960941895843">
        <ele>68.82</ele>
        <time>2025-02-09T19:54:19.414Z</time>
      </trkpt>
      <trkpt lat="58.50105497986078" lon="13.30503998324275">
        <ele>68.86</ele>
        <time>2025-02-09T19:54:57.732Z</time>
      </trkpt>
      <trkpt lat="58.50111097097397" lon="13.305120952427387">
        <ele>68.9</ele>
        <time>2025-02-09T19:55:36.051Z</time>
      </trkpt>
      <trkpt lat="58.501167967915535" lon="13.305199993774295">
        <ele>68.94</ele>
        <time>2025-02-09T19:56:14.371Z</time>
      </trkpt>
      <trkpt lat="58.50122395902872" lon="13.305280962958932">
        <ele>68.98</ele>
        <time>2025-02-09T19:56:52.692Z</time>
      </trkpt>
      <trkpt lat="58.501278944313526" lon="13.30536394380033">
        <ele>69.02</ele>
        <time>2025-02-09T19:57:31.014Z</time>
      </trkpt>
      <trkpt lat="58.50133191794157" lon="13.305451953783631">
        <ele>69.06</ele>
        <time>2025-02-09T19:58:09.337Z</time>
      </trkpt>
      <trkpt lat="58.501384975388646" lon="13.305540969595313">
        <ele>69.1</ele>
        <time>2025-02-09T19:58:47.662Z</time>
      </trkpt>
      <trkpt lat="58.50143694318831" lon="13.305630991235375">
        <ele>69.15</ele>
        <time>2025-02-09T19:59:25.988Z</time>
      </trkpt>
      <trkpt lat="58.501488994807005" lon="13.305718917399645">
        <ele>69.2</ele>
        <time>2025-02-09T20:00:04.315Z</time>
      </trkpt>
      <trkpt lat="58.50153995677829" lon="13.305808939039707">
        <ele>69.25</ele>
        <time>2025-02-09T20:00:42.643Z</time>
      </trkpt>
      <trkpt lat="58.50159091874957" lon="13.30589996650815">
        <ele>69.3</ele>
        <time>2025-02-09T20:01:20.972Z</time>
      </trkpt>
      <trkpt lat="58.501641964539886" lon="13.305988982319832">
        <ele>69.35</ele>
        <time>2025-02-09T20:01:59.302Z</time>
      </trkpt>
      <trkpt lat="58.50169393233955" lon="13.306076992303133">
        <ele>69.41</ele>
        <time>2025-02-09T20:02:37.633Z</time>
      </trkpt>
      <trkpt lat="58.501745983958244" lon="13.306164918467402">
        <ele>69.47</ele>
        <time>2025-02-09T20:03:15.965Z</time>
      </trkpt>
      <trkpt lat="58.50179895758629" lon="13.306249994784594">
        <ele>69.53</ele>
        <time>2025-02-09T20:03:54.298Z</time>
      </trkpt>
      <trkpt lat="58.50185092538595" lon="13.306336998939514">
        <ele>69.6</ele>
        <time>2025-02-09T20:04:32.633Z</time>
      </trkpt>
      <trkpt lat="58.50190197117627" lon="13.306425930932164">
        <ele>69.66</ele>
        <time>2025-02-09T20:05:10.969Z</time>
      </trkpt>
      <trkpt lat="58.50195293314755" lon="13.306516958400607">
        <ele>69.73</ele>
        <time>2025-02-09T20:05:49.306Z</time>
      </trkpt>
      <trkpt lat="58.502004984766245" lon="13.306604968383908">
        <ele>69.8</ele>
        <time>2025-02-09T20:06:27.644Z</time>
      </trkpt>
      <trkpt lat="58.50205594673753" lon="13.30669499002397">
        <ele>69.87</ele>
        <time>2025-02-09T20:07:05.983Z</time>
      </trkpt>
      <trkpt lat="58.50210699252784" lon="13.306786939501762">
        <ele>69.93</ele>
        <time>2025-02-09T20:07:44.323Z</time>
      </trkpt>
      <trkpt lat="58.502158960327506" lon="13.306877966970205">
        <ele>70.0</ele>
        <time>2025-02-09T20:08:22.664Z</time>
      </trkpt>
      <trkpt lat="58.50221193395555" lon="13.306968994438648">
        <ele>70.07</ele>
        <time>2025-02-09T20:09:01.006Z</time>
      </trkpt>
      <trkpt lat="58.502263985574245" lon="13.30705993808806">
        <ele>70.13</ele>
        <time>2025-02-09T20:09:39.350Z</time>
      </trkpt>
      <trkpt lat="58.50231595337391" lon="13.307148953899741">
        <ele>70.2</ele>
        <time>2025-02-09T20:10:17.695Z</time>
      </trkpt>
      <trkpt lat="58.50236599333584" lon="13.307235958054662">
        <ele>70.26</ele>
        <time>2025-02-09T20:10:56.041Z</time>
      </trkpt>
      <trkpt lat="58.502416955307126" lon="13.307321956381202">
        <ele>70.33</ele>
        <time>2025-02-09T20:11:34.388Z</time>
      </trkpt>
      <trkpt lat="58.50246699526906" lon="13.307408960536122">
        <ele>70.39</ele>
        <time>2025-02-09T20:12:12.736Z</time>
      </trkpt>
      <trkpt lat="58.50251795724034" lon="13.307495964691043">
        <ele>70.46</ele>
        <time>2025-02-09T20:12:51.085Z</time>
      </trkpt>
      <trkpt lat="58.502568919211626" lon="13.307580957189202">
        <ele>70.53</ele>
        <time>2025-02-09T20:13:29.435Z</time>
      </trkpt>
      <trkpt lat="58.50261996500194" lon="13.307665949687362">
        <ele>70.6</ele>
        <time>2025-02-09T20:14:07.786Z</time>
      </trkpt>
      <trkpt lat="58.50266992114484" lon="13.307751948013902">
        <ele>70.67</ele>
        <time>2025-02-09T20:14:46.138Z</time>
      </trkpt>
      <trkpt lat="58.50271996110678" lon="13.307840963825583">
        <ele>70.74</ele>
        <time>2025-02-09T20:15:24.491Z</time>
      </trkpt>
      <trkpt lat="58.50276899524033" lon="13.307930985465646">
        <ele>70.81</ele>
        <time>2025-02-09T20:16:02.845Z</time>
      </trkpt>
      <trkpt lat="58.50281895138323" lon="13.308020923286676">
        <ele>70.88</ele>
        <time>2025-02-09T20:16:41.201Z</time>
      </trkpt>
      <trkpt lat="58.50286899134517" lon="13.30811195075512">
        <ele>70.94</ele>
        <time>2025-02-09T20:17:19.558Z</time>
      </trkpt>
      <trkpt lat="58.50292095914483" lon="13.308200966566801">
        <ele>71.0</ele>
        <time>2025-02-09T20:17:57.916Z</time>
      </trkpt>
      <trkpt lat="58.502971921116114" lon="13.308289982378483">
        <ele>71.07</ele>
        <time>2025-02-09T20:18:36.275Z</time>
      </trkpt>
      <trkpt lat="58.50302196107805" lon="13.308379920199513">
        <ele>71.13</ele>
        <time>2025-02-09T20:19:14.635Z</time>
      </trkpt>
      <trkpt lat="58.50307191722095" lon="13.308472959324718">
        <ele>71.2</ele>
        <time>2025-02-09T20:19:52.996Z</time>
      </trkpt>
      <trkpt lat="58.503121957182884" lon="13.30856692045927">
        <ele>71.27</ele>
        <time>2025-02-09T20:20:31.358Z</time>
      </trkpt>
      <trkpt lat="58.50317099131644" lon="13.308663982897997">
        <ele>71.33</ele>
        <time>2025-02-09T20:21:09.721Z</time>
      </trkpt>
      <trkpt lat="58.50321893580258" lon="13.308762973174453">
        <ele>71.4</ele>
        <time>2025-02-09T20:21:48.086Z</time>
      </trkpt>
      <trkpt lat="58.50326696410775" lon="13.308858945965767">
        <ele>71.46</ele>
        <time>2025-02-09T20:22:26.452Z</time>
      </trkpt>
      <trkpt lat="58.503316920250654" lon="13.308952990919352">
        <ele>71.52</ele>
        <time>2025-02-09T20:23:04.819Z</time>
      </trkpt>
      <trkpt lat="58.50336796604097" lon="13.309047957882285">
        <ele>71.58</ele>
        <time>2025-02-09T20:23:43.187Z</time>
      </trkpt>
      <trkpt lat="58.50341892801225" lon="13.3091439306736">
        <ele>71.63</ele>
        <time>2025-02-09T20:24:21.556Z</time>
      </trkpt>
      <trkpt lat="58.50346997380257" lon="13.309241998940706">
        <ele>71.69</ele>
        <time>2025-02-09T20:24:59.926Z</time>
      </trkpt>
      <trkpt lat="58.50352194160223" lon="13.309338977560401">
        <ele>71.74</ele>
        <time>2025-02-09T20:25:38.297Z</time>
      </trkpt>
      <trkpt lat="58.503573993220925" lon="13.309438973665237">
        <ele>71.79</ele>
        <time>2025-02-09T20:26:16.670Z</time>
      </trkpt>
      <trkpt lat="58.50362394936383" lon="13.309541987255216">
        <ele>71.83</ele>
        <time>2025-02-09T20:26:55.044Z</time>
      </trkpt>
      <trkpt lat="58.50367398932576" lon="13.309646928682923">
        <ele>71.87</ele>
        <time>2025-02-09T20:27:33.419Z</time>
      </trkpt>
      <trkpt lat="58.503724951297045" lon="13.309751953929663">
        <ele>71.91</ele>
        <time>2025-02-09T20:28:11.795Z</time>
      </trkpt>
      <trkpt lat="58.50377599708736" lon="13.309855973348022">
        <ele>71.95</ele>
        <time>2025-02-09T20:28:50.172Z</time>
      </trkpt>
      <trkpt lat="58.503829976543784" lon="13.309952951967716">
        <ele>71.99</ele>
        <time>2025-02-09T20:29:28.551Z</time>
      </trkpt>
      <trkpt lat="58.50388093851507" lon="13.310050936415792">
        <ele>72.02</ele>
        <time>2025-02-09T20:30:06.931Z</time>
      </trkpt>
      <trkpt lat="58.50393198430538" lon="13.310151938349009">
        <ele>72.05</ele>
        <time>2025-02-09T20:30:45.312Z</time>
      </trkpt>
      <trkpt lat="58.503981940448284" lon="13.310254951938987">
        <ele>72.08</ele>
        <time>2025-02-09T20:31:23.694Z</time>
      </trkpt>
      <trkpt lat="58.50403097458184" lon="13.310357965528965">
        <ele>72.11</ele>
        <time>2025-02-09T20:32:02.077Z</time>
      </trkpt>
      <trkpt lat="58.50407891906798" lon="13.310463996604085">
        <ele>72.13</ele>
        <time>2025-02-09T20:32:40.461Z</time>
      </trkpt>
      <trkpt lat="58.50412594154477" lon="13.310568938031793">
        <ele>72.16</ele>
        <time>2025-02-09T20:33:18.847Z</time>
      </trkpt>
      <trkpt lat="58.504173969849944" lon="13.310674969106913">
        <ele>72.18</ele>
        <time>2025-02-09T20:33:57.234Z</time>
      </trkpt>
      <trkpt lat="58.50422099232674" lon="13.310781922191381">
        <ele>72.2</ele>
        <time>2025-02-09T20:34:35.622Z</time>
      </trkpt>
      <trkpt lat="58.5042679309845" lon="13.310890970751643">
        <ele>72.23</ele>
        <time>2025-02-09T20:35:14.011Z</time>
      </trkpt>
      <trkpt lat="58.50431696511805" lon="13.310997923836112">
        <ele>72.24</ele>
        <time>2025-02-09T20:35:52.401Z</time>
      </trkpt>
      <trkpt lat="58.50436499342322" lon="13.311105966567993">
        <ele>72.26</ele>
        <time>2025-02-09T20:36:30.792Z</time>
      </trkpt>
      <trkpt lat="58.504414949566126" lon="13.311213925480843">
        <ele>72.27</ele>
        <time>2025-02-09T20:37:09.185Z</time>
      </trkpt>
      <trkpt lat="58.50446792319417" lon="13.31131492741406">
        <ele>72.29</ele>
        <time>2025-02-09T20:37:47.579Z</time>
      </trkpt>
      <trkpt lat="58.50453095510602" lon="13.311390951275826">
        <ele>72.3</ele>
        <time>2025-02-09T20:38:25.974Z</time>
      </trkpt>
      <trkpt lat="58.50460194982588" lon="13.311424981802702">
        <ele>72.31</ele>
        <time>2025-02-09T20:39:04.370Z</time>
      </trkpt>
      <trkpt lat="58.504673950374126" lon="13.311413917690516">
        <ele>72.32</ele>
        <time>2025-02-09T20:39:42.767Z</time>
      </trkpt>
      <trkpt lat="58.50474494509399" lon="13.311371924355626">
        <ele>72.32</ele>
        <time>2025-02-09T20:40:21.166Z</time>
      </trkpt>
      <trkpt lat="58.50481392815709" lon="13.31131593324244">
        <ele>72.32</ele>
        <time>2025-02-09T20:40:59.566Z</time>
      </trkpt>
      <trkpt lat="58.50488391704857" lon="13.311256924644113">
        <ele>72.31</ele>
        <time>2025-02-09T20:41:37.967Z</time>
      </trkpt>
      <trkpt lat="58.50495298393071" lon="13.311198921874166">
        <ele>72.31</ele>
        <time>2025-02-09T20:42:16.369Z</time>
      </trkpt>
      <trkpt lat="58.50502397865057" lon="13.311148965731263">
        <ele>72.3</ele>
        <time>2025-02-09T20:42:54.772Z</time>
      </trkpt>
      <trkpt lat="58.50509597919881" lon="13.311104960739613">
        <ele>72.29</ele>
        <time>2025-02-09T20:43:33.177Z</time>
      </trkpt>
      <trkpt lat="58.5051709972322" lon="13.311063973233104">
        <ele>72.27</ele>
        <time>2025-02-09T20:44:11.583Z</time>
      </trkpt>
      <trkpt lat="58.505248948931694" lon="13.311021979898214">
        <ele>72.25</ele>
        <time>2025-02-09T20:44:49.990Z</time>
      </trkpt>
      <trkpt lat="58.50532899610698" lon="13.310982920229435">
        <ele>72.23</ele>
        <time>2025-02-09T20:45:28.399Z</time>
      </trkpt>
      <trkpt lat="58.50540895946324" lon="13.310942938551307">
        <ele>72.2</ele>
        <time>2025-02-09T20:46:06.809Z</time>
      </trkpt>
      <trkpt lat="58.505486994981766" lon="13.31090496852994">
        <ele>72.17</ele>
        <time>2025-02-09T20:46:45.220Z</time>
      </trkpt>
      <trkpt lat="58.5055679641664" lon="13.310868926346302">
        <ele>72.14</ele>
        <time>2025-02-09T20:47:23.632Z</time>
      </trkpt>
      <trkpt lat="58.50564792752266" lon="13.310836991295218">
        <ele>72.11</ele>
        <time>2025-02-09T20:48:02.046Z</time>
      </trkpt>
      <trkpt lat="58.505722945556045" lon="13.310810923576355">
        <ele>72.07</ele>
        <time>2025-02-09T20:48:40.461Z</time>
      </trkpt>
      <trkpt lat="58.505787989124656" lon="13.310810923576355">
        <ele>72.03</ele>
        <time>2025-02-09T20:49:18.877Z</time>
      </trkpt>
      <trkpt lat="58.505834927782416" lon="13.310853922739625">
        <ele>71.99</ele>
        <time>2025-02-09T20:49:57.294Z</time>
      </trkpt>
      <trkpt lat="58.50585898384452" lon="13.3109069801867">
        <ele>71.95</ele>
        <time>2025-02-09T20:50:35.711Z</time>
      </trkpt>
      <trkpt lat="58.505874993279576" lon="13.310938999056816">
        <ele>71.9</ele>
        <time>2025-02-09T20:51:14.129Z</time>
      </trkpt>
      <trkpt lat="58.50588597357273" lon="13.310946961864829">
        <ele>71.85</ele>
        <time>2025-02-09T20:51:52.547Z</time>
      </trkpt>
      <trkpt lat="58.50588999688625" lon="13.310935981571674">
        <ele>71.8</ele>
        <time>2025-02-09T20:52:30.965Z</time>
      </trkpt>
      <trkpt lat="58.50588899105787" lon="13.310903962701559">
        <ele>71.74</ele>
        <time>2025-02-09T20:53:09.383Z</time>
      </trkpt>
      <trkpt lat="58.50588597357273" lon="13.31086398102343">
        <ele>71.68</ele>
        <time>2025-02-09T20:53:47.802Z</time>
      </trkpt>
      <trkpt lat="58.50589192472398" lon="13.310816958546638">
        <ele>71.62</ele>
        <time>2025-02-09T20:54:26.221Z</time>
      </trkpt>
      <trkpt lat="58.505914974957705" lon="13.310771947726607">
        <ele>71.55</ele>
        <time>2025-02-09T20:55:04.641Z</time>
      </trkpt>
      <trkpt lat="58.50595193915069" lon="13.310741940513253">
        <ele>71.48</ele>
        <time>2025-02-09T20:55:43.061Z</time>
      </trkpt>
      <trkpt lat="58.50599694997072" lon="13.310728948563337">
        <ele>71.41</ele>
        <time>2025-02-09T20:56:21.482Z</time>
      </trkpt>
      <trkpt lat="58.506046989932656" lon="13.310721991583705">
        <ele>71.33</ele>
        <time>2025-02-09T20:56:59.904Z</time>
      </trkpt>
      <trkpt lat="58.50609895773232" lon="13.31071394495666">
        <ele>71.25</ele>
        <time>2025-02-09T20:57:38.327Z</time>
      </trkpt>
      <trkpt lat="58.50615897215903" lon="13.310705982148647">
        <ele>71.17</ele>
        <time>2025-02-09T20:58:16.751Z</time>
      </trkpt>
      <trkpt lat="58.50622594356537" lon="13.310698941349983">
        <ele>71.09</ele>
        <time>2025-02-09T20:58:55.176Z</time>
      </trkpt>
      <trkpt lat="58.506301967427135" lon="13.310692990198731">
        <ele>71.0</ele>
        <time>2025-02-09T20:59:33.602Z</time>
      </trkpt>
      <trkpt lat="58.50638293661177" lon="13.31069097854197">
        <ele>70.9</ele>
        <time>2025-02-09T21:00:12.029Z</time>
      </trkpt>
      <trkpt lat="58.50647094659507" lon="13.31069097854197">
        <ele>70.81</ele>
        <time>2025-02-09T21:00:50.458Z</time>
      </trkpt>
      <trkpt lat="58.50656499154866" lon="13.310693996027112">
        <ele>70.71</ele>
        <time>2025-02-09T21:01:28.888Z</time>
      </trkpt>
      <trkpt lat="58.50666197016835" lon="13.310702964663506">
        <ele>70.61</ele>
        <time>2025-02-09T21:02:07.320Z</time>
      </trkpt>
      <trkpt lat="58.50676096044481" lon="13.310715956613421">
        <ele>70.51</ele>
        <time>2025-02-09T21:02:45.753Z</time>
      </trkpt>
      <trkpt lat="58.506859950721264" lon="13.310731966048479">
        <ele>70.4</ele>
        <time>2025-02-09T21:03:24.188Z</time>
      </trkpt>
      <trkpt lat="58.5069599468261" lon="13.310751998797059">
        <ele>70.3</ele>
        <time>2025-02-09T21:04:02.625Z</time>
      </trkpt>
      <trkpt lat="58.5070619545877" lon="13.31077697686851">
        <ele>70.18</ele>
        <time>2025-02-09T21:04:41.063Z</time>
      </trkpt>
      <trkpt lat="58.507163962349296" lon="13.310806984081864">
        <ele>70.07</ele>
        <time>2025-02-09T21:05:19.503Z</time>
      </trkpt>
      <trkpt lat="58.507267981767654" lon="13.310840930789709">
        <ele>69.95</ele>
        <time>2025-02-09T21:05:57.945Z</time>
      </trkpt>
      <trkpt lat="58.50737099535763" lon="13.310876972973347">
        <ele>69.83</ele>
        <time>2025-02-09T21:06:36.388Z</time>
      </trkpt>
      <trkpt lat="58.50747392512858" lon="13.310920977964997">
        <ele>69.71</ele>
        <time>2025-02-09T21:07:14.833Z</time>
      </trkpt>
      <trkpt lat="58.50757593289018" lon="13.310965988785028">
        <ele>69.59</ele>
        <time>2025-02-09T21:07:53.280Z</time>
      </trkpt>
      <trkpt lat="58.50767592899501" lon="13.311011921614408">
        <ele>69.46</ele>
        <time>2025-02-09T21:08:31.728Z</time>
      </trkpt>
      <trkpt lat="58.50777399726212" lon="13.311064979061484">
        <ele>69.34</ele>
        <time>2025-02-09T21:09:10.178Z</time>
      </trkpt>
      <trkpt lat="58.50786795839667" lon="13.31112197600305">
        <ele>69.21</ele>
        <time>2025-02-09T21:09:48.629Z</time>
      </trkpt>
      <trkpt lat="58.50796099752188" lon="13.311183918267488">
        <ele>69.07</ele>
        <time>2025-02-09T21:10:27.082Z</time>
      </trkpt>
      <trkpt lat="58.50805294699967" lon="13.311247956007719">
        <ele>68.94</ele>
        <time>2025-02-09T21:11:05.537Z</time>
      </trkpt>
      <trkpt lat="58.50814598612487" lon="13.31131593324244">
        <ele>68.8</ele>
        <time>2025-02-09T21:11:43.993Z</time>
      </trkpt>
      <trkpt lat="58.508235923945904" lon="13.311382988467813">
        <ele>68.66</ele>
        <time>2025-02-09T21:12:22.451Z</time>
      </trkpt>
      <trkpt lat="58.508323933929205" lon="13.311454989016056">
        <ele>68.51</ele>
        <time>2025-02-09T21:13:00.910Z</time>
      </trkpt>
      <trkpt lat="58.508408926427364" lon="13.31153092905879">
        <ele>68.37</ele>
        <time>2025-02-09T21:13:39.371Z</time>
      </trkpt>
      <trkpt lat="58.508492996916175" lon="13.311610976234078">
        <ele>68.22</ele>
        <time>2025-02-09T21:14:17.833Z</time>
      </trkpt>
      <trkpt lat="58.50857497192919" lon="13.311695968732238">
        <ele>68.07</ele>
        <time>2025-02-09T21:14:56.297Z</time>
      </trkpt>
      <trkpt lat="58.50865493528545" lon="13.311783978715539">
        <ele>67.91</ele>
        <time>2025-02-09T21:15:34.762Z</time>
      </trkpt>
      <trkpt lat="58.50873498246074" lon="13.31187492236495">
        <ele>67.76</ele>
        <time>2025-02-09T21:16:13.229Z</time>
      </trkpt>
      <trkpt lat="58.50881293416023" lon="13.311967961490154">
        <ele>67.6</ele>
        <time>2025-02-09T21:16:51.697Z</time>
      </trkpt>
      <trkpt lat="58.508888958022" lon="13.312063934281468">
        <ele>67.44</ele>
        <time>2025-02-09T21:17:30.167Z</time>
      </trkpt>
      <trkpt lat="58.508962970227" lon="13.312161918729544">
        <ele>67.29</ele>
        <time>2025-02-09T21:18:08.638Z</time>
      </trkpt>
      <trkpt lat="58.50903497077525" lon="13.31225797533989">
        <ele>67.12</ele>
        <time>2025-02-09T21:18:47.111Z</time>
      </trkpt>
      <trkpt lat="58.50910596549511" lon="13.3123489189893">
        <ele>66.95</ele>
        <time>2025-02-09T21:19:25.585Z</time>
      </trkpt>
      <trkpt lat="58.50917394272983" lon="13.312441958114505">
        <ele>66.78</ele>
        <time>2025-02-09T21:20:04.060Z</time>
      </trkpt>
      <trkpt lat="58.5092409979552" lon="13.312536925077438">
        <ele>66.61</ele>
        <time>2025-02-09T21:20:42.537Z</time>
      </trkpt>
      <trkpt lat="58.50930394604802" lon="13.312631975859404">
        <ele>66.44</ele>
        <time>2025-02-09T21:21:21.015Z</time>
      </trkpt>
      <trkpt lat="58.50936697795987" lon="13.312726942822337">
        <ele>66.26</ele>
        <time>2025-02-09T21:21:59.494Z</time>
      </trkpt>
      <trkpt lat="58.50942992605269" lon="13.312820987775922">
        <ele>66.08</ele>
        <time>2025-02-09T21:22:37.974Z</time>
      </trkpt>
      <trkpt lat="58.5094949696213" lon="13.312919978052378">
        <ele>65.9</ele>
        <time>2025-02-09T21:23:16.456Z</time>
      </trkpt>
      <trkpt lat="58.50956194102764" lon="13.313017962500453">
        <ele>65.72</ele>
        <time>2025-02-09T21:23:54.939Z</time>
      </trkpt>
      <trkpt lat="58.50963092409074" lon="13.313115946948528">
        <ele>65.53</ele>
        <time>2025-02-09T21:24:33.424Z</time>
      </trkpt>
      <trkpt lat="58.509698985144496" lon="13.313211919739842">
        <ele>65.35</ele>
        <time>2025-02-09T21:25:11.910Z</time>
      </trkpt>
      <trkpt lat="58.50976696237922" lon="13.313307976350188">
        <ele>65.16</ele>
        <time>2025-02-09T21:25:50.397Z</time>
      </trkpt>
      <trkpt lat="58.50983493961394" lon="13.313402943313122">
        <ele>64.97</ele>
        <time>2025-02-09T21:26:28.886Z</time>
      </trkpt>
      <trkpt lat="58.50990291684866" lon="13.313497994095087">
        <ele>64.77</ele>
        <time>2025-02-09T21:27:07.376Z</time>
      </trkpt>
      <trkpt lat="58.50996997207403" lon="13.31359195522964">
        <ele>64.57</ele>
        <time>2025-02-09T21:27:45.867Z</time>
      </trkpt>
      <trkpt lat="58.51003593765199" lon="13.313686922192574">
        <ele>64.38</ele>
        <time>2025-02-09T21:28:24.360Z</time>
      </trkpt>
      <trkpt lat="58.5101009812206" lon="13.31378297880292">
        <ele>64.18</ele>
        <time>2025-02-09T21:29:02.854Z</time>
      </trkpt>
      <trkpt lat="58.510167952626944" lon="13.313880963250995">
        <ele>63.99</ele>
        <time>2025-02-09T21:29:41.349Z</time>
      </trkpt>
      <trkpt lat="58.510234924033284" lon="13.31397894769907">
        <ele>63.79</ele>
        <time>2025-02-09T21:30:19.846Z</time>
      </trkpt>
      <trkpt lat="58.51030298508704" lon="13.314077937975526">
        <ele>63.59</ele>
        <time>2025-02-09T21:30:58.344Z</time>
      </trkpt>
      <trkpt lat="58.5103739798069" lon="13.314180951565504">
        <ele>63.38</ele>
        <time>2025-02-09T21:31:36.843Z</time>
      </trkpt>
      <trkpt lat="58.510446986183524" lon="13.314288994297385">
        <ele>63.18</ele>
        <time>2025-02-09T21:32:15.344Z</time>
      </trkpt>
      <trkpt lat="58.51052292622626" lon="13.314399970695376">
        <ele>62.97</ele>
        <time>2025-02-09T21:32:53.846Z</time>
      </trkpt>
      <trkpt lat="58.510599955916405" lon="13.314510947093368">
        <ele>62.76</ele>
        <time>2025-02-09T21:33:32.350Z</time>
      </trkpt>
      <trkpt lat="58.51067799143493" lon="13.314625946804881">
        <ele>62.56</ele>
        <time>2025-02-09T21:34:10.856Z</time>
      </trkpt>
      <trkpt lat="58.51075896061957" lon="13.314742958173156">
        <ele>62.35</ele>
        <time>2025-02-09T21:34:49.363Z</time>
      </trkpt>
      <trkpt lat="58.51084093563259" lon="13.314861981198192">
        <ele>62.14</ele>
        <time>2025-02-09T21:35:27.872Z</time>
      </trkpt>
      <trkpt lat="58.510924922302365" lon="13.314980920404196">
        <ele>61.93</ele>
        <time>2025-02-09T21:36:06.383Z</time>
      </trkpt>
      <trkpt lat="58.511009998619556" lon="13.315101955085993">
        <ele>61.71</ele>
        <time>2025-02-09T21:36:44.895Z</time>
      </trkpt>
      <trkpt lat="58.511097924783826" lon="13.31522198393941">
        <ele>61.5</ele>
        <time>2025-02-09T21:37:23.409Z</time>
      </trkpt>
      <trkpt lat="58.51118694059551" lon="13.315344946458936">
        <ele>61.29</ele>
        <time>2025-02-09T21:38:01.925Z</time>
      </trkpt>
      <trkpt lat="58.51127193309367" lon="13.315467992797494">
        <ele>61.07</ele>
        <time>2025-02-09T21:38:40.442Z</time>
      </trkpt>
      <trkpt lat="58.51135893724859" lon="13.315591961145401">
        <ele>60.86</ele>
        <time>2025-02-09T21:39:18.961Z</time>
      </trkpt>
      <trkpt lat="58.51144895888865" lon="13.31571794115007">
        <ele>60.64</ele>
        <time>2025-02-09T21:39:57.482Z</time>
      </trkpt>
      <trkpt lat="58.51153797470033" lon="13.31584693863988">
        <ele>60.42</ele>
        <time>2025-02-09T21:40:36.005Z</time>
      </trkpt>
      <trkpt lat="58.51162992417812" lon="13.31597794778645">
        <ele>60.21</ele>
        <time>2025-02-09T21:41:14.530Z</time>
      </trkpt>
      <trkpt lat="58.51172195747495" lon="13.316109962761402">
        <ele>59.99</ele>
        <time>2025-02-09T21:41:53.056Z</time>
      </trkpt>
      <trkpt lat="58.51181893609464" lon="13.316240971907973">
        <ele>59.77</ele>
        <time>2025-02-09T21:42:31.584Z</time>
      </trkpt>
      <trkpt lat="58.51191893219948" lon="13.316369969397783">
        <ele>59.56</ele>
        <time>2025-02-09T21:43:10.114Z</time>
      </trkpt>
      <trkpt lat="58.51202295161784" lon="13.316496955230832">
        <ele>59.34</ele>
        <time>2025-02-09T21:43:48.646Z</time>
      </trkpt>
      <trkpt lat="58.512127976864576" lon="13.316616984084249">
        <ele>59.12</ele>
        <time>2025-02-09T21:44:27.180Z</time>
      </trkpt>
      <trkpt lat="58.512233924120665" lon="13.316729972139001">
        <ele>58.92</ele>
        <time>2025-02-09T21:45:05.716Z</time>
      </trkpt>
      <trkpt lat="58.512341966852546" lon="13.316839942708611">
        <ele>58.71</ele>
        <time>2025-02-09T21:45:44.254Z</time>
      </trkpt>
      <trkpt lat="58.512451937422156" lon="13.316940944641829">
        <ele>58.51</ele>
        <time>2025-02-09T21:46:22.794Z</time>
      </trkpt>
      <trkpt lat="58.51256299763918" lon="13.317035995423794">
        <ele>58.3</ele>
        <time>2025-02-09T21:47:01.336Z</time>
      </trkpt>
      <trkpt lat="58.51267397403717" lon="13.317126939073205">
        <ele>58.1</ele>
        <time>2025-02-09T21:47:39.880Z</time>
      </trkpt>
      <trkpt lat="58.51278495043516" lon="13.317210925742984">
        <ele>57.9</ele>
        <time>2025-02-09T21:48:18.426Z</time>
      </trkpt>
      <trkpt lat="58.51289399899542" lon="13.317283932119608">
        <ele>57.71</ele>
        <time>2025-02-09T21:48:56.974Z</time>
      </trkpt>
      <trkpt lat="58.51300195790827" lon="13.317355932667851">
        <ele>57.52</ele>
        <time>2025-02-09T21:49:35.524Z</time>
      </trkpt>
      <trkpt lat="58.51310899481177" lon="13.317425921559334">
        <ele>57.33</ele>
        <time>2025-02-09T21:50:14.075Z</time>
      </trkpt>
      <trkpt lat="58.51321494206786" lon="13.317491970956326">
        <ele>57.13</ele>
        <time>2025-02-09T21:50:52.628Z</time>
      </trkpt>
      <trkpt lat="58.5133199673146" lon="13.317551985383034">
        <ele>56.94</ele>
        <time>2025-02-09T21:51:31.183Z</time>
      </trkpt>
      <trkpt lat="58.51342398673296" lon="13.317610993981361">
        <ele>56.75</ele>
        <time>2025-02-09T21:52:09.740Z</time>
      </trkpt>
      <trkpt lat="58.51352498866618" lon="13.317671930417418">
        <ele>56.57</ele>
        <time>2025-02-09T21:52:48.298Z</time>
      </trkpt>
      <trkpt lat="58.51362498477101" lon="13.317729933187366">
        <ele>56.38</ele>
        <time>2025-02-09T21:53:26.858Z</time>
      </trkpt>
      <trkpt lat="58.51372498087585" lon="13.317786930128932">
        <ele>56.2</ele>
        <time>2025-02-09T21:54:05.420Z</time>
      </trkpt>
      <trkpt lat="58.513823971152306" lon="13.317840993404388">
        <ele>56.02</ele>
        <time>2025-02-09T21:54:43.983Z</time>
      </trkpt>
      <trkpt lat="58.51392195560038" lon="13.317895978689194">
        <ele>55.84</ele>
        <time>2025-02-09T21:55:22.548Z</time>
      </trkpt>
      <trkpt lat="58.51402195170522" lon="13.31795297563076">
        <ele>55.66</ele>
        <time>2025-02-09T21:56:01.115Z</time>
      </trkpt>
      <trkpt lat="58.51411993615329" lon="13.318008966743946">
        <ele>55.49</ele>
        <time>2025-02-09T21:56:39.683Z</time>
      </trkpt>
      <trkpt lat="58.51421892642975" lon="13.318065963685513">
        <ele>55.32</ele>
        <time>2025-02-09T21:57:18.253Z</time>
      </trkpt>
      <trkpt lat="58.514315988868475" lon="13.318121954798698">
        <ele>55.15</ele>
        <time>2025-02-09T21:57:56.825Z</time>
      </trkpt>
      <trkpt lat="58.51441296748817" lon="13.318179957568645">
        <ele>54.98</ele>
        <time>2025-02-09T21:58:35.398Z</time>
      </trkpt>
      <trkpt lat="58.51450692862272" lon="13.318235948681831">
        <ele>54.82</ele>
        <time>2025-02-09T21:59:13.973Z</time>
      </trkpt>
      <trkpt lat="58.51459996774793" lon="13.318291939795017">
        <ele>54.66</ele>
        <time>2025-02-09T21:59:52.549Z</time>
      </trkpt>
      <trkpt lat="58.51469099521637" lon="13.318344997242093">
        <ele>54.5</ele>
        <time>2025-02-09T22:00:31.127Z</time>
      </trkpt>
      <trkpt lat="58.5147809330374" lon="13.318396965041757">
        <ele>54.34</ele>
        <time>2025-02-09T22:01:09.706Z</time>
      </trkpt>
      <trkpt lat="58.51487095467746" lon="13.31844599917531">
        <ele>54.18</ele>
        <time>2025-02-09T22:01:48.287Z</time>
      </trkpt>
      <trkpt lat="58.514961982145905" lon="13.318495955318213">
        <ele>54.03</ele>
        <time>2025-02-09T22:02:26.869Z</time>
      </trkpt>
      <trkpt lat="58.51505292579532" lon="13.318547923117876">
        <ele>53.88</ele>
        <time>2025-02-09T22:03:05.453Z</time>
      </trkpt>
      <trkpt lat="58.51514495909214" lon="13.318600980564952">
        <ele>53.73</ele>
        <time>2025-02-09T22:03:44.039Z</time>
      </trkpt>
      <trkpt lat="58.515237998217344" lon="13.318655965849757">
        <ele>53.59</ele>
        <time>2025-02-09T22:04:22.626Z</time>
      </trkpt>
      <trkpt lat="58.51533296518028" lon="13.318711956962943">
        <ele>53.45</ele>
        <time>2025-02-09T22:05:01.215Z</time>
      </trkpt>
      <trkpt lat="58.51542692631483" lon="13.318765936419368">
        <ele>53.32</ele>
        <time>2025-02-09T22:05:39.805Z</time>
      </trkpt>
      <trkpt lat="58.515520971268415" lon="13.318820921704173">
        <ele>53.18</ele>
        <time>2025-02-09T22:06:18.397Z</time>
      </trkpt>
      <trkpt lat="58.51561493240297" lon="13.31887791864574">
        <ele>53.05</ele>
        <time>2025-02-09T22:06:56.990Z</time>
      </trkpt>
      <trkpt lat="58.51570696569979" lon="13.318933993577957">
        <ele>52.93</ele>
        <time>2025-02-09T22:07:35.585Z</time>
      </trkpt>
      <trkpt lat="58.515797993168235" lon="13.31898495554924">
        <ele>52.8</ele>
        <time>2025-02-09T22:08:14.181Z</time>
      </trkpt>
      <trkpt lat="58.515887930989265" lon="13.319037929177284">
        <ele>52.68</ele>
        <time>2025-02-09T22:08:52.779Z</time>
      </trkpt>
      <trkpt lat="58.51597594097257" lon="13.31909098662436">
        <ele>52.57</ele>
        <time>2025-02-09T22:09:31.378Z</time>
      </trkpt>
      <trkpt lat="58.51606193929911" lon="13.319141948595643">
        <ele>52.45</ele>
        <time>2025-02-09T22:10:09.979Z</time>
      </trkpt>
      <trkpt lat="58.516144920140505" lon="13.319191988557577">
        <ele>52.34</ele>
        <time>2025-02-09T22:10:48.581Z</time>
      </trkpt>
      <trkpt lat="58.516226978972554" lon="13.319240938872099">
        <ele>52.24</ele>
        <time>2025-02-09T22:11:27.185Z</time>
      </trkpt>
      <trkpt lat="58.51630895398557" lon="13.319288967177272">
        <ele>52.13</ele>
        <time>2025-02-09T22:12:05.790Z</time>
      </trkpt>
      <trkpt lat="58.51639193482697" lon="13.319335989654064">
        <ele>52.04</ele>
        <time>2025-02-09T22:12:44.396Z</time>
      </trkpt>
      <trkpt lat="58.51647592149675" lon="13.319381922483444">
        <ele>51.94</ele>
        <time>2025-02-09T22:13:23.004Z</time>
      </trkpt>
      <trkpt lat="58.51655999198556" lon="13.319425927475095">
        <ele>51.85</ele>
        <time>2025-02-09T22:14:01.613Z</time>
      </trkpt>
      <trkpt lat="58.51664397865534" lon="13.319469932466745">
        <ele>51.76</ele>
        <time>2025-02-09T22:14:40.224Z</time>
      </trkpt>
      <trkpt lat="58.51672796532512" lon="13.319507986307144">
        <ele>51.67</ele>
        <time>2025-02-09T22:15:18.836Z</time>
      </trkpt>
      <trkpt lat="58.51681396365166" lon="13.31954293884337">
        <ele>51.59</ele>
        <time>2025-02-09T22:15:57.449Z</time>
      </trkpt>
      <trkpt lat="58.51689895614982" lon="13.319572946056724">
        <ele>51.51</ele>
        <time>2025-02-09T22:16:36.064Z</time>
      </trkpt>
      <trkpt lat="58.51698495447636" lon="13.319597924128175">
        <ele>51.44</ele>
        <time>2025-02-09T22:17:14.680Z</time>
      </trkpt>
      <trkpt lat="58.51707195863128" lon="13.319621980190277">
        <ele>51.37</ele>
        <time>2025-02-09T22:17:53.298Z</time>
      </trkpt>
      <trkpt lat="58.51715795695782" lon="13.319646958261728">
        <ele>51.3</ele>
        <time>2025-02-09T22:18:31.917Z</time>
      </trkpt>
      <trkpt lat="58.51724395528436" lon="13.31967394798994">
        <ele>51.24</ele>
        <time>2025-02-09T22:19:10.537Z</time>
      </trkpt>
      <trkpt lat="58.51733095943928" lon="13.319704961031675">
        <ele>51.18</ele>
        <time>2025-02-09T22:19:49.159Z</time>
      </trkpt>
      <trkpt lat="58.51741595193744" lon="13.319738991558552">
        <ele>51.13</ele>
        <time>2025-02-09T22:20:27.782Z</time>
      </trkpt>
      <trkpt lat="58.51750295609236" lon="13.319771932438016">
        <ele>51.08</ele>
        <time>2025-02-09T22:21:06.407Z</time>
      </trkpt>
      <trkpt lat="58.51758794859052" lon="13.319803951308131">
        <ele>51.03</ele>
        <time>2025-02-09T22:21:45.033Z</time>
      </trkpt>
      <trkpt lat="58.51767595857382" lon="13.319838987663388">
        <ele>50.98</ele>
        <time>2025-02-09T22:22:23.660Z</time>
      </trkpt>
      <trkpt lat="58.51776396855712" lon="13.319875951856375">
        <ele>50.93</ele>
        <time>2025-02-09T22:23:02.289Z</time>
      </trkpt>
      <trkpt lat="58.5178529843688" lon="13.319916939362884">
        <ele>50.9</ele>
        <time>2025-02-09T22:23:40.919Z</time>
      </trkpt>
      <trkpt lat="58.5179409943521" lon="13.319961950182915">
        <ele>50.87</ele>
        <time>2025-02-09T22:24:19.551Z</time>
      </trkpt>
      <trkpt lat="58.51802892051637" lon="13.320010984316468">
        <ele>50.84</ele>
        <time>2025-02-09T22:24:58.184Z</time>
      </trkpt>
      <trkpt lat="58.51811399683356" lon="13.320061946287751">
        <ele>50.82</ele>
        <time>2025-02-09T22:25:36.819Z</time>
      </trkpt>
      <trkpt lat="58.51819898933172" lon="13.320112992078066">
        <ele>50.8</ele>
        <time>2025-02-09T22:26:15.455Z</time>
      </trkpt>
      <trkpt lat="58.5182829760015" lon="13.32016596570611">
        <ele>50.78</ele>
        <time>2025-02-09T22:26:54.093Z</time>
      </trkpt>
      <trkpt lat="58.51836696267128" lon="13.320216927677393">
        <ele>50.77</ele>
        <time>2025-02-09T22:27:32.732Z</time>
      </trkpt>
      <trkpt lat="58.5184489376843" lon="13.320268979296088">
        <ele>50.76</ele>
        <time>2025-02-09T22:28:11.372Z</time>
      </trkpt>
      <trkpt lat="58.518531918525696" lon="13.320323964580894">
        <ele>50.76</ele>
        <time>2025-02-09T22:28:50.014Z</time>
      </trkpt>
      <trkpt lat="58.518613977357745" lon="13.32037995569408">
        <ele>50.76</ele>
        <time>2025-02-09T22:29:28.657Z</time>
      </trkpt>
      <trkpt lat="58.51869494654238" lon="13.320434940978885">
        <ele>50.77</ele>
        <time>2025-02-09T22:30:07.302Z</time>
      </trkpt>
      <trkpt lat="58.51877499371767" lon="13.320491937920451">
        <ele>50.78</ele>
        <time>2025-02-09T22:30:45.948Z</time>
      </trkpt>
      <trkpt lat="58.51885495707393" lon="13.32055195234716">
        <ele>50.79</ele>
        <time>2025-02-09T22:31:24.595Z</time>
      </trkpt>
      <trkpt lat="58.51893492043018" lon="13.320609955117106">
        <ele>50.81</ele>
        <time>2025-02-09T22:32:03.244Z</time>
      </trkpt>
      <trkpt lat="58.51901496760547" lon="13.320667957887053">
        <ele>50.83</ele>
        <time>2025-02-09T22:32:41.894Z</time>
      </trkpt>
      <trkpt lat="58.51909593679011" lon="13.320725960657">
        <ele>50.86</ele>
        <time>2025-02-09T22:33:20.545Z</time>
      </trkpt>
      <trkpt lat="58.51917698979378" lon="13.320784969255328">
        <ele>50.89</ele>
        <time>2025-02-09T22:33:59.198Z</time>
      </trkpt>
      <trkpt lat="58.519256953150034" lon="13.320844983682036">
        <ele>50.92</ele>
        <time>2025-02-09T22:34:37.852Z</time>
      </trkpt>
      <trkpt lat="58.51933691650629" lon="13.320903992280364">
        <ele>50.95</ele>
        <time>2025-02-09T22:35:16.508Z</time>
      </trkpt>
      <trkpt lat="58.51941796950996" lon="13.32095998339355">
        <ele>50.99</ele>
        <time>2025-02-09T22:35:55.165Z</time>
      </trkpt>
      <trkpt lat="58.519498938694596" lon="13.321015974506736">
        <ele>51.04</ele>
        <time>2025-02-09T22:36:33.823Z</time>
      </trkpt>
      <trkpt lat="58.519580997526646" lon="13.32106995396316">
        <ele>51.09</ele>
        <time>2025-02-09T22:37:12.483Z</time>
      </trkpt>
      <trkpt lat="58.51966297253966" lon="13.321123933419585">
        <ele>51.15</ele>
        <time>2025-02-09T22:37:51.144Z</time>
      </trkpt>
      <trkpt lat="58.51974494755268" lon="13.321176990866661">
        <ele>51.21</ele>
        <time>2025-02-09T22:38:29.807Z</time>
      </trkpt>
      <trkpt lat="58.51982591673732" lon="13.321230970323086">
        <ele>51.28</ele>
        <time>2025-02-09T22:39:08.471Z</time>
      </trkpt>
      <trkpt lat="58.519905963912606" lon="13.32128394395113">
        <ele>51.35</ele>
        <time>2025-02-09T22:39:47.136Z</time>
      </trkpt>
      <trkpt lat="58.51998693309724" lon="13.321334989741445">
        <ele>51.42</ele>
        <time>2025-02-09T22:40:25.803Z</time>
      </trkpt>
      <trkpt lat="58.52006698027253" lon="13.321383940055966">
        <ele>51.5</ele>
        <time>2025-02-09T22:41:04.471Z</time>
      </trkpt>
      <trkpt lat="58.52014593780041" lon="13.32143196836114">
        <ele>51.58</ele>
        <time>2025-02-09T22:41:43.140Z</time>
      </trkpt>
      <trkpt lat="58.520222967490554" lon="13.321481924504042">
        <ele>51.67</ele>
        <time>2025-02-09T22:42:21.811Z</time>
      </trkpt>
      <trkpt lat="58.52029697969556" lon="13.321529952809215">
        <ele>51.76</ele>
        <time>2025-02-09T22:43:00.483Z</time>
      </trkpt>
      <trkpt lat="58.5203689802438" lon="13.321576975286007">
        <ele>51.85</ele>
        <time>2025-02-09T22:43:39.156Z</time>
      </trkpt>
      <trkpt lat="58.520440980792046" lon="13.321621986106038">
        <ele>51.95</ele>
        <time>2025-02-09T22:44:17.830Z</time>
      </trkpt>
      <trkpt lat="58.52051197551191" lon="13.321663979440928">
        <ele>52.05</ele>
        <time>2025-02-09T22:44:56.506Z</time>
      </trkpt>
      <trkpt lat="58.52058397606015" lon="13.321705972775817">
        <ele>52.15</ele>
        <time>2025-02-09T22:45:35.183Z</time>
      </trkpt>
      <trkpt lat="58.520655976608396" lon="13.321749977767467">
        <ele>52.26</ele>
        <time>2025-02-09T22:46:13.861Z</time>
      </trkpt>
      <trkpt lat="58.52072697132826" lon="13.321792976930737">
        <ele>52.37</ele>
        <time>2025-02-09T22:46:52.540Z</time>
      </trkpt>
      <trkpt lat="58.52079796604812" lon="13.321836981922388">
        <ele>52.48</ele>
        <time>2025-02-09T22:47:31.220Z</time>
      </trkpt>
      <trkpt lat="58.52086594328284" lon="13.321877969428897">
        <ele>52.6</ele>
        <time>2025-02-09T22:48:09.901Z</time>
      </trkpt>
      <trkpt lat="58.520932998508215" lon="13.321916945278645">
        <ele>52.73</ele>
        <time>2025-02-09T22:48:48.584Z</time>
      </trkpt>
      <trkpt lat="58.521000975742936" lon="13.321954999119043">
        <ele>52.86</ele>
        <time>2025-02-09T22:49:27.268Z</time>
      </trkpt>
      <trkpt lat="58.52107297629118" lon="13.32199095748365">
        <ele>52.99</ele>
        <time>2025-02-09T22:50:05.953Z</time>
      </trkpt>
      <trkpt lat="58.521146988496184" lon="13.322023982182145">
        <ele>53.13</ele>
        <time>2025-02-09T22:50:44.639Z</time>
      </trkpt>
      <trkpt lat="58.52122091688216" lon="13.322051977738738">
        <ele>53.27</ele>
        <time>2025-02-09T22:51:23.326Z</time>
      </trkpt>
      <trkpt lat="58.521297946572304" lon="13.322072932496667">
        <ele>53.41</ele>
        <time>2025-02-09T22:52:02.015Z</time>
      </trkpt>
      <trkpt lat="58.52137698791921" lon="13.322086930274963">
        <ele>53.56</ele>
        <time>2025-02-09T22:52:40.705Z</time>
      </trkpt>
      <trkpt lat="58.52145594544709" lon="13.322095982730389">
        <ele>53.71</ele>
        <time>2025-02-09T22:53:19.396Z</time>
      </trkpt>
      <trkpt lat="58.521535992622375" lon="13.322098916396499">
        <ele>53.86</ele>
        <time>2025-02-09T22:53:58.088Z</time>
      </trkpt>
      <trkpt lat="58.52161595597863" lon="13.32210092805326">
        <ele>54.01</ele>
        <time>2025-02-09T22:54:36.782Z</time>
      </trkpt>
      <trkpt lat="58.52169692516327" lon="13.32209799438715">
        <ele>54.17</ele>
        <time>2025-02-09T22:55:15.477Z</time>
      </trkpt>
      <trkpt lat="58.52177697233856" lon="13.322088941931725">
        <ele>54.34</ele>
        <time>2025-02-09T22:55:54.173Z</time>
      </trkpt>
      <trkpt lat="58.52185592986643" lon="13.32207695581019">
        <ele>54.51</ele>
        <time>2025-02-09T22:56:32.871Z</time>
      </trkpt>
      <trkpt lat="58.52193597704172" lon="13.322060946375132">
        <ele>54.68</ele>
        <time>2025-02-09T22:57:11.570Z</time>
      </trkpt>
      <trkpt lat="58.52201392874122" lon="13.322043931111693">
        <ele>54.85</ele>
        <time>2025-02-09T22:57:50.270Z</time>
      </trkpt>
      <trkpt lat="58.522091964259744" lon="13.322025993838906">
        <ele>55.03</ele>
        <time>2025-02-09T22:58:28.971Z</time>
      </trkpt>
      <trkpt lat="58.52216899394989" lon="13.322004955261946">
        <ele>55.21</ele>
        <time>2025-02-09T22:59:07.674Z</time>
      </trkpt>
      <trkpt lat="58.522246945649385" lon="13.321984922513366">
        <ele>55.39</ele>
        <time>2025-02-09T22:59:46.378Z</time>
      </trkpt>
      <trkpt lat="58.52232598699629" lon="13.321959944441915">
        <ele>55.57</ele>
        <time>2025-02-09T23:00:25.083Z</time>
      </trkpt>
      <trkpt lat="58.52240494452417" lon="13.321933960542083">
        <ele>55.76</ele>
        <time>2025-02-09T23:01:03.789Z</time>
      </trkpt>
      <trkpt lat="58.52248398587108" lon="13.321917951107025">
        <ele>55.95</ele>
        <time>2025-02-09T23:01:42.497Z</time>
      </trkpt>
      <trkpt lat="58.522564955055714" lon="13.321902947500348">
        <ele>56.15</ele>
        <time>2025-02-09T23:02:21.206Z</time>
      </trkpt>
      <trkpt lat="58.52264491841197" lon="13.321890961378813">
        <ele>56.34</ele>
        <time>2025-02-09T23:02:59.916Z</time>
      </trkpt>
      <trkpt lat="58.52272597141564" lon="13.321875957772136">
        <ele>56.54</ele>
        <time>2025-02-09T23:03:38.628Z</time>
      </trkpt>
      <trkpt lat="58.522803923115134" lon="13.321869922801852">
        <ele>56.75</ele>
        <time>2025-02-09T23:04:17.341Z</time>
      </trkpt>
      <trkpt lat="58.52288195863366" lon="13.321865983307362">
        <ele>56.95</ele>
        <time>2025-02-09T23:04:56.055Z</time>
      </trkpt>
      <trkpt lat="58.52295999415219" lon="13.32186296582222">
        <ele>57.16</ele>
        <time>2025-02-09T23:05:34.770Z</time>
      </trkpt>
      <trkpt lat="58.523038951680064" lon="13.321858942508698">
        <ele>57.38</ele>
        <time>2025-02-09T23:06:13.487Z</time>
      </trkpt>
      <trkpt lat="58.52311799302697" lon="13.321855925023556">
        <ele>57.59</ele>
        <time>2025-02-09T23:06:52.205Z</time>
      </trkpt>
      <trkpt lat="58.52319896221161" lon="13.321849973872304">
        <ele>57.82</ele>
        <time>2025-02-09T23:07:30.924Z</time>
      </trkpt>
      <trkpt lat="58.523278925567865" lon="13.32183999940753">
        <ele>58.04</ele>
        <time>2025-02-09T23:08:09.645Z</time>
      </trkpt>
      <trkpt lat="58.523360984399915" lon="13.321825917810202">
        <ele>58.27</ele>
        <time>2025-02-09T23:08:48.367Z</time>
      </trkpt>
      <trkpt lat="58.52344295941293" lon="13.321807980537415">
        <ele>58.5</ele>
        <time>2025-02-09T23:09:27.090Z</time>
      </trkpt>
      <trkpt lat="58.52352594025433" lon="13.321785936132073">
        <ele>58.74</ele>
        <time>2025-02-09T23:10:05.814Z</time>
      </trkpt>
      <trkpt lat="58.52360892109573" lon="13.321761963889003">
        <ele>58.97</ele>
        <time>2025-02-09T23:10:44.540Z</time>
      </trkpt>
      <trkpt lat="58.52369198575616" lon="13.321740925312042">
        <ele>59.2</ele>
        <time>2025-02-09T23:11:23.267Z</time>
      </trkpt>
      <trkpt lat="58.523772954940796" lon="13.321719970554113">
        <ele>59.44</ele>
        <time>2025-02-09T23:12:01.995Z</time>
      </trkpt>
      <trkpt lat="58.52385392412543" lon="13.321698931977153">
        <ele>59.68</ele>
        <time>2025-02-09T23:12:40.725Z</time>
      </trkpt>
      <trkpt lat="58.5239349771291" lon="13.321677977219224">
        <ele>59.92</ele>
        <time>2025-02-09T23:13:19.456Z</time>
      </trkpt>
      <trkpt lat="58.52401192300022" lon="13.321657944470644">
        <ele>60.16</ele>
        <time>2025-02-09T23:13:58.188Z</time>
      </trkpt>
      <trkpt lat="58.52408995851874" lon="13.321639923378825">
        <ele>60.41</ele>
        <time>2025-02-09T23:14:36.922Z</time>
      </trkpt>
      <trkpt lat="58.52416799403727" lon="13.321617962792516">
        <ele>60.66</ele>
        <time>2025-02-09T23:15:15.657Z</time>
      </trkpt>
      <trkpt lat="58.524245945736766" lon="13.321591978892684">
        <ele>60.91</ele>
        <time>2025-02-09T23:15:54.393Z</time>
      </trkpt>
      <trkpt lat="58.52432297542691" lon="13.32156096585095">
        <ele>61.17</ele>
        <time>2025-02-09T23:16:33.130Z</time>
      </trkpt>
      <trkpt lat="58.52440092712641" lon="13.321528946980834">
        <ele>61.43</ele>
        <time>2025-02-09T23:17:11.869Z</time>
      </trkpt>
      <trkpt lat="58.524479968473315" lon="13.321494916453958">
        <ele>61.68</ele>
        <time>2025-02-09T23:17:50.609Z</time>
      </trkpt>
      <trkpt lat="58.52455699816346" lon="13.32145694643259">
        <ele>61.93</ele>
        <time>2025-02-09T23:18:29.350Z</time>
      </trkpt>
      <trkpt lat="58.52463494986296" lon="13.321418976411223">
        <ele>62.19</ele>
        <time>2025-02-09T23:19:08.093Z</time>
      </trkpt>
      <trkpt lat="58.5247119795531" lon="13.321380922570825">
        <ele>62.46</ele>
        <time>2025-02-09T23:19:46.837Z</time>
      </trkpt>
      <trkpt lat="58.52478791959584" lon="13.321344964206219">
        <ele>62.72</ele>
        <time>2025-02-09T23:20:25.582Z</time>
      </trkpt>
      <trkpt lat="58.52485992014408" lon="13.321312945336103">
        <ele>62.99</ele>
        <time>2025-02-09T23:21:04.328Z</time>
      </trkpt>
      <trkpt lat="58.524930998682976" lon="13.321273969486356">
        <ele>63.26</ele>
        <time>2025-02-09T23:21:43.075Z</time>
      </trkpt>
      <trkpt lat="58.524994952604175" lon="13.321229964494705">
        <ele>63.53</ele>
        <time>2025-02-09T23:22:21.824Z</time>
      </trkpt>
      <trkpt lat="58.525059996172786" lon="13.321192916482687">
        <ele>63.8</ele>
        <time>2025-02-09T23:23:00.574Z</time>
      </trkpt>
      <trkpt lat="58.52512193843722" lon="13.321165926754475">
        <ele>64.07</ele>
        <time>2025-02-09T23:23:39.325Z</time>
      </trkpt>
      <trkpt lat="58.52518295869231" lon="13.321139942854643">
        <ele>64.34</ele>
        <time>2025-02-09T23:24:18.077Z</time>
      </trkpt>
      <trkpt lat="58.52524196729064" lon="13.321119993925095">
        <ele>64.62</ele>
        <time>2025-02-09T23:24:56.830Z</time>
      </trkpt>
      <trkpt lat="58.525296952575445" lon="13.321104990318418">
        <ele>64.9</ele>
        <time>2025-02-09T23:25:35.584Z</time>
      </trkpt>
      <trkpt lat="58.52534892037511" lon="13.321095937862992">
        <ele>65.18</ele>
        <time>2025-02-09T23:26:14.338Z</time>
      </trkpt>
      <trkpt lat="58.52539694868028" lon="13.321086969226599">
        <ele>65.47</ele>
        <time>2025-02-09T23:26:53.093Z</time>
      </trkpt>
      <trkpt lat="58.525443971157074" lon="13.321077916771173">
        <ele>65.75</ele>
        <time>2025-02-09T23:27:31.849Z</time>
      </trkpt>
      <trkpt lat="58.525487976148725" lon="13.321074983105063">
        <ele>66.04</ele>
        <time>2025-02-09T23:28:10.606Z</time>
      </trkpt>
      <trkpt lat="58.525531981140375" lon="13.321070959791541">
        <ele>66.32</ele>
        <time>2025-02-09T23:28:49.363Z</time>
      </trkpt>
      <trkpt lat="58.5255719628185" lon="13.3210679423064">
        <ele>66.61</ele>
        <time>2025-02-09T23:29:28.121Z</time>
      </trkpt>
      <trkpt lat="58.52560993283987" lon="13.321070959791541">
        <ele>66.89</ele>
        <time>2025-02-09T23:30:06.880Z</time>
      </trkpt>
      <trkpt lat="58.52564798668027" lon="13.32106894813478">
        <ele>67.18</ele>
        <time>2025-02-09T23:30:45.639Z</time>
      </trkpt>
      <trkpt lat="58.525685956701636" lon="13.32106894813478">
        <ele>67.47</ele>
        <time>2025-02-09T23:31:24.399Z</time>
      </trkpt>
      <trkpt lat="58.52572292089462" lon="13.321071965619922">
        <ele>67.75</ele>
        <time>2025-02-09T23:32:03.159Z</time>
      </trkpt>
      <trkpt lat="58.52575996890664" lon="13.321077916771173">
        <ele>68.04</ele>
        <time>2025-02-09T23:32:41.920Z</time>
      </trkpt>
      <trkpt lat="58.525794921442866" lon="13.321084957569838">
        <ele>68.33</ele>
        <time>2025-02-09T23:33:20.682Z</time>
      </trkpt>
      <trkpt lat="58.525831969454885" lon="13.321090992540121">
        <ele>68.62</ele>
        <time>2025-02-09T23:33:59.444Z</time>
      </trkpt>
      <trkpt lat="58.52586792781949" lon="13.321095937862992">
        <ele>68.91</ele>
        <time>2025-02-09T23:34:38.207Z</time>
      </trkpt>
      <trkpt lat="58.52590497583151" lon="13.321101972833276">
        <ele>69.19</ele>
        <time>2025-02-09T23:35:16.970Z</time>
      </trkpt>
      <trkpt lat="58.525941940024495" lon="13.321107923984528">
        <ele>69.48</ele>
        <time>2025-02-09T23:35:55.734Z</time>
      </trkpt>
      <trkpt lat="58.52597898803651" lon="13.321113958954811">
        <ele>69.76</ele>
        <time>2025-02-09T23:36:34.498Z</time>
      </trkpt>
      <trkpt lat="58.52601695805788" lon="13.321120999753475">
        <ele>70.05</ele>
        <time>2025-02-09T23:37:13.263Z</time>
      </trkpt>
      <trkpt lat="58.52605593390763" lon="13.321128962561488">
        <ele>70.33</ele>
        <time>2025-02-09T23:37:52.029Z</time>
      </trkpt>
      <trkpt lat="58.526092981919646" lon="13.32113591954112">
        <ele>70.62</ele>
        <time>2025-02-09T23:38:30.795Z</time>
      </trkpt>
      <trkpt lat="58.52612994611263" lon="13.321138937026262">
        <ele>70.9</ele>
        <time>2025-02-09T23:39:09.562Z</time>
      </trkpt>
      <trkpt lat="58.52616498246789" lon="13.321138937026262">
        <ele>71.18</ele>
        <time>2025-02-09T23:39:48.329Z</time>
      </trkpt>
      <trkpt lat="58.526195995509624" lon="13.321138937026262">
        <ele>71.46</ele>
        <time>2025-02-09T23:40:27.097Z</time>
      </trkpt>
      <trkpt lat="58.52622399106622" lon="13.321136925369501">
        <ele>71.74</ele>
        <time>2025-02-09T23:41:05.865Z</time>
      </trkpt>
      <trkpt lat="58.52625492028892" lon="13.32113097421825">
        <ele>72.02</ele>
        <time>2025-02-09T23:41:44.634Z</time>
      </trkpt>
      <trkpt lat="58.526281993836164" lon="13.321123933419585">
        <ele>72.3</ele>
        <time>2025-02-09T23:42:23.403Z</time>
      </trkpt>
      <trkpt lat="58.52631292305887" lon="13.321118988096714">
        <ele>72.58</ele>
        <time>2025-02-09T23:43:02.173Z</time>
      </trkpt>
      <trkpt lat="58.5263439361006" lon="13.32111295312643">
        <ele>72.85</ele>
        <time>2025-02-09T23:43:40.943Z</time>
      </trkpt>
      <trkpt lat="58.52637494914234" lon="13.321101972833276">
        <ele>73.12</ele>
        <time>2025-02-09T23:44:19.714Z</time>
      </trkpt>
      <trkpt lat="58.52640596218407" lon="13.321082945913076">
        <ele>73.39</ele>
        <time>2025-02-09T23:44:58.485Z</time>
      </trkpt>
      <trkpt lat="58.526436975225806" lon="13.3210679423064">
        <ele>73.66</ele>
        <time>2025-02-09T23:45:37.257Z</time>
      </trkpt>
      <trkpt lat="58.5264699999243" lon="13.321055956184864">
        <ele>73.93</ele>
        <time>2025-02-09T23:46:16.029Z</time>
      </trkpt>
      <trkpt lat="58.526498917490244" lon="13.321038940921426">
        <ele>74.2</ele>
        <time>2025-02-09T23:46:54.802Z</time>
      </trkpt>
      <trkpt lat="58.52652791887522" lon="13.321009939536452">
        <ele>74.46</ele>
        <time>2025-02-09T23:47:33.575Z</time>
      </trkpt>
      <trkpt lat="58.52655499242246" lon="13.320985967293382">
        <ele>74.72</ele>
        <time>2025-02-09T23:48:12.349Z</time>
      </trkpt>
      <trkpt lat="58.52658097632229" lon="13.32095998339355">
        <ele>74.97</ele>
        <time>2025-02-09T23:48:51.123Z</time>
      </trkpt>
      <trkpt lat="58.52661098353565" lon="13.320936933159828">
        <ele>75.23</ele>
        <time>2025-02-09T23:49:29.898Z</time>
      </trkpt>
      <trkpt lat="58.52663998492062" lon="13.320912960916758">
        <ele>75.49</ele>
        <time>2025-02-09T23:50:08.673Z</time>
      </trkpt>
      <trkpt lat="58.52666596882045" lon="13.320885971188545">
        <ele>75.74</ele>
        <time>2025-02-09T23:50:47.449Z</time>
      </trkpt>
      <trkpt lat="58.526692958548665" lon="13.320858981460333">
        <ele>75.99</ele>
        <time>2025-02-09T23:51:26.225Z</time>
      </trkpt>
      <trkpt lat="58.526717936620116" lon="13.32082998007536">
        <ele>76.23</ele>
        <time>2025-02-09T23:52:05.002Z</time>
      </trkpt>
      <trkpt lat="58.52674492634833" lon="13.320800978690386">
        <ele>76.48</ele>
        <time>2025-02-09T23:52:43.779Z</time>
      </trkpt>
      <trkpt lat="58.52677199989557" lon="13.320779940113425">
        <ele>76.72</ele>
        <time>2025-02-09T23:53:22.557Z</time>
      </trkpt>
      <trkpt lat="58.526799995452166" lon="13.320757979527116">
        <ele>76.96</ele>
        <time>2025-02-09T23:54:01.335Z</time>
      </trkpt>
      <trkpt lat="58.52683092467487" lon="13.320734929293394">
        <ele>77.2</ele>
        <time>2025-02-09T23:54:40.114Z</time>
      </trkpt>
      <trkpt lat="58.526862943544984" lon="13.320713974535465">
        <ele>77.43</ele>
        <time>2025-02-09T23:55:18.893Z</time>
      </trkpt>
      <trkpt lat="58.52689797990024" lon="13.320699976757169">
        <ele>77.66</ele>
        <time>2025-02-09T23:55:57.673Z</time>
      </trkpt>
      <trkpt lat="58.526929998770356" lon="13.320689918473363">
        <ele>77.89</ele>
        <time>2025-02-09T23:56:36.453Z</time>
      </trkpt>
      <trkpt lat="58.52696293964982" lon="13.320686984807253">
        <ele>78.12</ele>
        <time>2025-02-09T23:57:15.234Z</time>
      </trkpt>
      <trkpt lat="58.526993952691555" lon="13.320690924301744">
        <ele>78.34</ele>
        <time>2025-02-09T23:57:54.016Z</time>
      </trkpt>
      <trkpt lat="58.52702898904681" lon="13.320696959272027">
        <ele>78.56</ele>
        <time>2025-02-09T23:58:32.798Z</time>
      </trkpt>
      <trkpt lat="58.52706293575466" lon="13.320707939565182">
        <ele>78.78</ele>
        <time>2025-02-09T23:59:11.581Z</time>
      </trkpt>
      <trkpt lat="58.52709596045315" lon="13.320720931515098">
        <ele>79.0</ele>
        <time>2025-02-09T23:59:50.364Z</time>
      </trkpt>
      <trkpt lat="58.52712596766651" lon="13.320738952606916">
        <ele>79.21</ele>
        <time>2025-02-10T00:00:29.148Z</time>
      </trkpt>
      <trkpt lat="58.52715496905148" lon="13.320763930678368">
        <ele>79.42</ele>
        <time>2025-02-10T00:01:07.932Z</time>
      </trkpt>
      <trkpt lat="58.527184976264834" lon="13.320792932063341">
        <ele>79.63</ele>
        <time>2025-02-10T00:01:46.717Z</time>
      </trkpt>
      <trkpt lat="58.52721498347819" lon="13.320825956761837">
        <ele>79.83</ele>
        <time>2025-02-10T00:02:25.502Z</time>
      </trkpt>
      <trkpt lat="58.52724297903478" lon="13.320865938439965">
        <ele>80.02</ele>
        <time>2025-02-10T00:03:04.288Z</time>
      </trkpt>
      <trkpt lat="58.52726896293461" lon="13.320912960916758">
        <ele>80.22</ele>
        <time>2025-02-10T00:03:43.074Z</time>
      </trkpt>
      <trkpt lat="58.527294946834445" lon="13.320965934544802">
        <ele>80.4</ele>
        <time>2025-02-10T00:04:21.861Z</time>
      </trkpt>
      <trkpt lat="58.52732193656266" lon="13.32102494314313">
        <ele>80.59</ele>
        <time>2025-02-10T00:05:00.649Z</time>
      </trkpt>
      <trkpt lat="58.52735093794763" lon="13.32108998671174">
        <ele>80.77</ele>
        <time>2025-02-10T00:05:39.437Z</time>
      </trkpt>
      <trkpt lat="58.527378933504224" lon="13.321159975603223">
        <ele>80.95</ele>
        <time>2025-02-10T00:06:18.226Z</time>
      </trkpt>
      <trkpt lat="58.52740894071758" lon="13.321234993636608">
        <ele>81.12</ele>
        <time>2025-02-10T00:06:57.016Z</time>
      </trkpt>
      <trkpt lat="58.52743894793093" lon="13.321314956992865">
        <ele>81.3</ele>
        <time>2025-02-10T00:07:35.807Z</time>
      </trkpt>
      <trkpt lat="58.527466943487525" lon="13.321397937834263">
        <ele>81.46</ele>
        <time>2025-02-10T00:08:14.599Z</time>
      </trkpt>
      <trkpt lat="58.52749493904412" lon="13.321482930332422">
        <ele>81.62</ele>
        <time>2025-02-10T00:08:53.391Z</time>
      </trkpt>
      <trkpt lat="58.52752394042909" lon="13.321568928658962">
        <ele>81.77</ele>
        <time>2025-02-10T00:09:32.184Z</time>
      </trkpt>
      <trkpt lat="58.527553947642446" lon="13.321655932813883">
        <ele>81.92</ele>
        <time>2025-02-10T00:10:10.978Z</time>
      </trkpt>
      <trkpt lat="58.52758294902742" lon="13.321743942797184">
        <ele>82.07</ele>
        <time>2025-02-10T00:10:49.773Z</time>
      </trkpt>
      <trkpt lat="58.52760993875563" lon="13.321826923638582">
        <ele>82.22</ele>
        <time>2025-02-10T00:11:28.569Z</time>
      </trkpt>
      <trkpt lat="58.527637934312224" lon="13.32190596498549">
        <ele>82.36</ele>
        <time>2025-02-10T00:12:07.366Z</time>
      </trkpt>
      <trkpt lat="58.5276669356972" lon="13.321982994675636">
        <ele>82.49</ele>
        <time>2025-02-10T00:12:46.163Z</time>
      </trkpt>
      <trkpt lat="58.52769392542541" lon="13.322060946375132">
        <ele>82.62</ele>
        <time>2025-02-10T00:13:24.961Z</time>
      </trkpt>
      <trkpt lat="58.527719993144274" lon="13.322131941094995">
        <ele>82.75</ele>
        <time>2025-02-10T00:14:03.760Z</time>
      </trkpt>
      <trkpt lat="58.527745977044106" lon="13.322198996320367">
        <ele>82.87</ele>
        <time>2025-02-10T00:14:42.560Z</time>
      </trkpt>
      <trkpt lat="58.52777196094394" lon="13.322261944413185">
        <ele>82.99</ele>
        <time>2025-02-10T00:15:21.360Z</time>
      </trkpt>
      <trkpt lat="58.52779995650053" lon="13.322323970496655">
        <ele>83.1</ele>
        <time>2025-02-10T00:16:00.161Z</time>
      </trkpt>
      <trkpt lat="58.52783398702741" lon="13.322382979094982">
        <ele>83.21</ele>
        <time>2025-02-10T00:16:38.963Z</time>
      </trkpt>
      <trkpt lat="58.52786893956363" lon="13.322436958551407">
        <ele>83.31</ele>
        <time>2025-02-10T00:17:17.765Z</time>
      </trkpt>
      <trkpt lat="58.52790297009051" lon="13.32248792052269">
        <ele>83.41</ele>
        <time>2025-02-10T00:17:56.568Z</time>
      </trkpt>
      <trkpt lat="58.52793398313224" lon="13.322536954656243">
        <ele>83.51</ele>
        <time>2025-02-10T00:18:35.372Z</time>
      </trkpt>
      <trkpt lat="58.52796994149685" lon="13.322586994618177">
        <ele>83.6</ele>
        <time>2025-02-10T00:19:14.177Z</time>
      </trkpt>
      <trkpt lat="58.528003972023726" lon="13.32263695076108">
        <ele>83.69</ele>
        <time>2025-02-10T00:19:52.982Z</time>
      </trkpt>
      <trkpt lat="58.52803892455995" lon="13.322686990723014">
        <ele>83.78</ele>
        <time>2025-02-10T00:20:31.788Z</time>
      </trkpt>
      <trkpt lat="58.52807396091521" lon="13.322736946865916">
        <ele>83.86</ele>
        <time>2025-02-10T00:21:10.595Z</time>
      </trkpt>
      <trkpt lat="58.528111930936575" lon="13.322783969342709">
        <ele>83.94</ele>
        <time>2025-02-10T00:21:49.402Z</time>
      </trkpt>
      <trkpt lat="58.528149984776974" lon="13.32282898016274">
        <ele>84.01</ele>
        <time>2025-02-10T00:22:28.210Z</time>
      </trkpt>
      <trkpt lat="58.52818594314158" lon="13.322867956012487">
        <ele>84.08</ele>
        <time>2025-02-10T00:23:07.019Z</time>
      </trkpt>
      <trkpt lat="58.52822793647647" lon="13.322910955175757">
        <ele>84.15</ele>
        <time>2025-02-10T00:23:45.828Z</time>
      </trkpt>
      <trkpt lat="58.5282729472965" lon="13.32296191714704">
        <ele>84.21</ele>
        <time>2025-02-10T00:24:24.638Z</time>
      </trkpt>
      <trkpt lat="58.528323993086815" lon="13.323018997907639">
        <ele>84.27</ele>
        <time>2025-02-10T00:25:03.449Z</time>
      </trkpt>
      <trkpt lat="58.52838099002838" lon="13.323078928515315">
        <ele>84.32</ele>
        <time>2025-02-10T00:25:42.261Z</time>
      </trkpt>
      <trkpt lat="58.52843999862671" lon="13.323136931285262">
        <ele>84.37</ele>
        <time>2025-02-10T00:26:21.074Z</time>
      </trkpt>
      <trkpt lat="58.528497917577624" lon="13.32319493405521">
        <ele>84.41</ele>
        <time>2025-02-10T00:26:59.888Z</time>
      </trkpt>
      <trkpt lat="58.52855793200433" lon="13.32325796596706">
        <ele>84.45</ele>
        <time>2025-02-10T00:27:38.704Z</time>
      </trkpt>
      <trkpt lat="58.52861794643104" lon="13.323319992050529">
        <ele>84.49</ele>
        <time>2025-02-10T00:28:17.521Z</time>
      </trkpt>
      <trkpt lat="58.52867594920099" lon="13.323381934314966">
        <ele>84.53</ele>
        <time>2025-02-10T00:28:56.339Z</time>
      </trkpt>
      <trkpt lat="58.52873797528446" lon="13.323441948741674">
        <ele>84.56</ele>
        <time>2025-02-10T00:29:35.158Z</time>
      </trkpt>
      <trkpt lat="58.528799917548895" lon="13.323501963168383">
        <ele>84.59</ele>
        <time>2025-02-10T00:30:13.978Z</time>
      </trkpt>
      <trkpt lat="58.528862949460745" lon="13.323562983423471">
        <ele>84.62</ele>
        <time>2025-02-10T00:30:52.799Z</time>
      </trkpt>
      <trkpt lat="58.528926987200975" lon="13.32362693734467">
        <ele>84.65</ele>
        <time>2025-02-10T00:31:31.621Z</time>
      </trkpt>
      <trkpt lat="58.5289949644357" lon="13.323692986741662">
        <ele>84.67</ele>
        <time>2025-02-10T00:32:10.444Z</time>
      </trkpt>
      <trkpt lat="58.5290639474988" lon="13.323759958148003">
        <ele>84.68</ele>
        <time>2025-02-10T00:32:49.269Z</time>
      </trkpt>
      <trkpt lat="58.52913393639028" lon="13.323828941211104">
        <ele>84.7</ele>
        <time>2025-02-10T00:33:28.095Z</time>
      </trkpt>
      <trkpt lat="58.52920291945338" lon="13.323896918445826">
        <ele>84.71</ele>
        <time>2025-02-10T00:34:06.922Z</time>
      </trkpt>
      <trkpt lat="58.5292729921639" lon="13.323964979499578">
        <ele>84.72</ele>
        <time>2025-02-10T00:34:45.750Z</time>
      </trkpt>
      <trkpt lat="58.52934298105538" lon="13.324028933420777">
        <ele>84.72</ele>
        <time>2025-02-10T00:35:24.580Z</time>
      </trkpt>
      <trkpt lat="58.52941196411848" lon="13.32409598864615">
        <ele>84.72</ele>
        <time>2025-02-10T00:36:03.411Z</time>
      </trkpt>
      <trkpt lat="58.52948195300996" lon="13.32416195422411">
        <ele>84.72</ele>
        <time>2025-02-10T00:36:42.243Z</time>
      </trkpt>
      <trkpt lat="58.529550936073065" lon="13.32422599196434">
        <ele>84.72</ele>
        <time>2025-02-10T00:37:21.076Z</time>
      </trkpt>
      <trkpt lat="58.52961991913617" lon="13.324285922572017">
        <ele>84.71</ele>
        <time>2025-02-10T00:37:59.911Z</time>
      </trkpt>
      <trkpt lat="58.52968999184668" lon="13.324345936998725">
        <ele>84.71</ele>
        <time>2025-02-10T00:38:38.747Z</time>
      </trkpt>
      <trkpt lat="58.529761992394924" lon="13.324403939768672">
        <ele>84.7</ele>
        <time>2025-02-10T00:39:17.584Z</time>
      </trkpt>
      <trkpt lat="58.52983499877155" lon="13.324459930881858">
        <ele>84.69</ele>
        <time>2025-02-10T00:39:56.422Z</time>
      </trkpt>
      <trkpt lat="58.52990699931979" lon="13.324513994157314">
        <ele>84.68</ele>
        <time>2025-02-10T00:40:35.262Z</time>
      </trkpt>
      <trkpt lat="58.529978999868035" lon="13.324565961956978">
        <ele>84.67</ele>
        <time>2025-02-10T00:41:14.103Z</time>
      </trkpt>
      <trkpt lat="58.53005091659725" lon="13.324609966948628">
        <ele>84.66</ele>
        <time>2025-02-10T00:41:52.945Z</time>
      </trkpt>
      <trkpt lat="58.530127946287394" lon="13.324647936969995">
        <ele>84.64</ele>
        <time>2025-02-10T00:42:31.788Z</time>
      </trkpt>
      <trkpt lat="58.53020397014916" lon="13.324675932526588">
        <ele>84.61</ele>
        <time>2025-02-10T00:43:10.633Z</time>
      </trkpt>
      <trkpt lat="58.530278988182545" lon="13.324695965275168">
        <ele>84.59</ele>
        <time>2025-02-10T00:43:49.479Z</time>
      </trkpt>
      <trkpt lat="58.5303539223969" lon="13.324709963053465">
        <ele>84.57</ele>
        <time>2025-02-10T00:44:28.326Z</time>
      </trkpt>
      <trkpt lat="58.5304279346019" lon="13.324717925861478">
        <ele>84.54</ele>
        <time>2025-02-10T00:45:07.174Z</time>
      </trkpt>
      <trkpt lat="58.53050496429205" lon="13.324721949175">
        <ele>84.51</ele>
        <time>2025-02-10T00:45:46.023Z</time>
      </trkpt>
      <trkpt lat="58.530581993982196" lon="13.324721949175">
        <ele>84.49</ele>
        <time>2025-02-10T00:46:24.874Z</time>
      </trkpt>
      <trkpt lat="58.53065893985331" lon="13.324713986366987">
        <ele>84.45</ele>
        <time>2025-02-10T00:47:03.726Z</time>
      </trkpt>
      <trkpt lat="58.5307389870286" lon="13.3247029222548">
        <ele>84.42</ele>
        <time>2025-02-10T00:47:42.579Z</time>
      </trkpt>
      <trkpt lat="58.530818950384855" lon="13.324688924476504">
        <ele>84.38</ele>
        <time>2025-02-10T00:48:21.433Z</time>
      </trkpt>
      <trkpt lat="58.53089799173176" lon="13.324674926698208">
        <ele>84.35</ele>
        <time>2025-02-10T00:49:00.289Z</time>
      </trkpt>
      <trkpt lat="58.53097493760288" lon="13.324660928919911">
        <ele>84.31</ele>
        <time>2025-02-10T00:49:39.146Z</time>
      </trkpt>
      <trkpt lat="58.531053978949785" lon="13.324645925313234">
        <ele>84.28</ele>
        <time>2025-02-10T00:50:18.004Z</time>
      </trkpt>
      <trkpt lat="58.53113293647766" lon="13.324627988040447">
        <ele>84.24</ele>
        <time>2025-02-10T00:50:56.864Z</time>
      </trkpt>
      <trkpt lat="58.53121197782457" lon="13.324603931978345">
        <ele>84.21</ele>
        <time>2025-02-10T00:51:35.725Z</time>
      </trkpt>
      <trkpt lat="58.531289929524064" lon="13.324578953906894">
        <ele>84.17</ele>
        <time>2025-02-10T00:52:14.587Z</time>
      </trkpt>
      <trkpt lat="58.53136897087097" lon="13.32454894669354">
        <ele>84.13</ele>
        <time>2025-02-10T00:52:53.450Z</time>
      </trkpt>
      <trkpt lat="58.53144792839885" lon="13.324509970843792">
        <ele>84.09</ele>
        <time>2025-02-10T00:53:32.315Z</time>
      </trkpt>
      <trkpt lat="58.531525963917375" lon="13.32446395419538">
        <ele>84.05</ele>
        <time>2025-02-10T00:54:11.181Z</time>
      </trkpt>
      <trkpt lat="58.53160492144525" lon="13.324409974738955">
        <ele>84.01</ele>
        <time>2025-02-10T00:54:50.048Z</time>
      </trkpt>
      <trkpt lat="58.53168496862054" lon="13.324349960312247">
        <ele>83.97</ele>
        <time>2025-02-10T00:55:28.917Z</time>
      </trkpt>
      <trkpt lat="58.531765937805176" lon="13.324284916743636">
        <ele>83.93</ele>
        <time>2025-02-10T00:56:07.787Z</time>
      </trkpt>
      <trkpt lat="58.531846990808845" lon="13.324212916195393">
        <ele>83.89</ele>
        <time>2025-02-10T00:56:46.659Z</time>
      </trkpt>
      <trkpt lat="58.53192896582186" lon="13.324135970324278">
        <ele>83.85</ele>
        <time>2025-02-10T00:57:25.532Z</time>
      </trkpt>
      <trkpt lat="58.5320099350065" lon="13.324059946462512">
        <ele>83.8</ele>
        <time>2025-02-10T00:58:04.406Z</time>
      </trkpt>
      <trkpt lat="58.53209098801017" lon="13.323979983106256">
        <ele>83.76</ele>
        <time>2025-02-10T00:58:43.282Z</time>
      </trkpt>
      <trkpt lat="58.53216893970966" lon="13.323894990608096">
        <ele>83.71</ele>
        <time>2025-02-10T00:59:22.159Z</time>
      </trkpt>
      <trkpt lat="58.53224496357143" lon="13.323805974796414">
        <ele>83.66</ele>
        <time>2025-02-10T01:00:01.038Z</time>
      </trkpt>
      <trkpt lat="58.532319981604815" lon="13.32371293567121">
        <ele>83.63</ele>
        <time>2025-02-10T01:00:39.918Z</time>
      </trkpt>
      <trkpt lat="58.53239399380982" lon="13.323617968708277">
        <ele>83.59</ele>
        <time>2025-02-10T01:01:18.800Z</time>
      </trkpt>
      <trkpt lat="58.53246691636741" lon="13.323520990088582">
        <ele>83.55</ele>
        <time>2025-02-10T01:01:57.683Z</time>
      </trkpt>
      <trkpt lat="58.5325419344008" lon="13.323423927649856">
        <ele>83.51</ele>
        <time>2025-02-10T01:02:36.568Z</time>
      </trkpt>
      <trkpt lat="58.53261494077742" lon="13.323327954858541">
        <ele>83.47</ele>
        <time>2025-02-10T01:03:15.454Z</time>
      </trkpt>
      <trkpt lat="58.532687947154045" lon="13.323229970410466">
        <ele>83.44</ele>
        <time>2025-02-10T01:03:54.341Z</time>
      </trkpt>
      <trkpt lat="58.53276296518743" lon="13.32313098013401">
        <ele>83.4</ele>
        <time>2025-02-10T01:04:33.230Z</time>
      </trkpt>
      <trkpt lat="58.532836977392435" lon="13.323032995685935">
        <ele>83.36</ele>
        <time>2025-02-10T01:05:12.120Z</time>
      </trkpt>
      <trkpt lat="58.53291392326355" lon="13.32293794490397">
        <ele>83.32</ele>
        <time>2025-02-10T01:05:51.012Z</time>
      </trkpt>
      <trkpt lat="58.532990952953696" lon="13.322845995426178">
        <ele>83.28</ele>
        <time>2025-02-10T01:06:29.905Z</time>
      </trkpt>
      <trkpt lat="58.53306898847222" lon="13.322763936594129">
        <ele>83.24</ele>
        <time>2025-02-10T01:07:08.800Z</time>
      </trkpt>
      <trkpt lat="58.53314895182848" lon="13.322683973237872">
        <ele>83.2</ele>
        <time>2025-02-10T01:07:47.696Z</time>
      </trkpt>
      <trkpt lat="58.53322899900377" lon="13.322610966861248">
        <ele>83.17</ele>
        <time>2025-02-10T01:08:26.594Z</time>
      </trkpt>
      <trkpt lat="58.533311979845166" lon="13.322542989626527">
        <ele>83.13</ele>
        <time>2025-02-10T01:09:05.493Z</time>
      </trkpt>
      <trkpt lat="58.533394960686564" lon="13.322480963543057">
        <ele>83.09</ele>
        <time>2025-02-10T01:09:44.393Z</time>
      </trkpt>
      <trkpt lat="58.53347794152796" lon="13.322419943287969">
        <ele>83.06</ele>
        <time>2025-02-10T01:10:23.295Z</time>
      </trkpt>
      <trkpt lat="58.53355991654098" lon="13.32235699519515">
        <ele>83.03</ele>
        <time>2025-02-10T01:11:02.198Z</time>
      </trkpt>
      <trkpt lat="58.53363996371627" lon="13.322297986596823">
        <ele>82.99</ele>
        <time>2025-02-10T01:11:41.103Z</time>
      </trkpt>
      <trkpt lat="58.533717999234796" lon="13.322240989655256">
        <ele>82.95</ele>
        <time>2025-02-10T01:12:20.009Z</time>
      </trkpt>
      <trkpt lat="58.53379494510591" lon="13.322188938036561">
        <ele>82.92</ele>
        <time>2025-02-10T01:12:58.916Z</time>
      </trkpt>
      <trkpt lat="58.53387197479606" lon="13.32214099355042">
        <ele>82.89</ele>
        <time>2025-02-10T01:13:37.825Z</time>
      </trkpt>
      <trkpt lat="58.53395193815231" lon="13.32209698855877">
        <ele>82.86</ele>
        <time>2025-02-10T01:14:16.735Z</time>
      </trkpt>
      <trkpt lat="58.53403097949922" lon="13.32205893471837">
        <ele>82.83</ele>
        <time>2025-02-10T01:14:55.646Z</time>
      </trkpt>
      <trkpt lat="58.534108931198716" lon="13.322024988010526">
        <ele>82.81</ele>
        <time>2025-02-10T01:15:34.558Z</time>
      </trkpt>
      <trkpt lat="58.53418596088886" lon="13.321998920291662">
        <ele>82.79</ele>
        <time>2025-02-10T01:16:13.472Z</time>
      </trkpt>
      <trkpt lat="58.53426299057901" lon="13.321978971362114">
        <ele>82.77</ele>
        <time>2025-02-10T01:16:52.387Z</time>
      </trkpt>
      <trkpt lat="58.534340942278504" lon="13.321964973583817">
        <ele>82.75</ele>
        <time>2025-02-10T01:17:31.303Z</time>
      </trkpt>
      <trkpt lat="58.53441797196865" lon="13.321954999119043">
        <ele>82.73</ele>
        <time>2025-02-10T01:18:10.220Z</time>
      </trkpt>
      <trkpt lat="58.53449692949653" lon="13.321953993290663">
        <ele>82.71</ele>
        <time>2025-02-10T01:18:49.139Z</time>
      </trkpt>
      <trkpt lat="58.534575970843434" lon="13.321958938613534">
        <ele>82.69</ele>
        <time>2025-02-10T01:19:28.059Z</time>
      </trkpt>
      <trkpt lat="58.53465593419969" lon="13.321966985240579">
        <ele>82.67</ele>
        <time>2025-02-10T01:20:06.980Z</time>
      </trkpt>
      <trkpt lat="58.53473296388984" lon="13.321984922513366">
        <ele>82.65</ele>
        <time>2025-02-10T01:20:45.903Z</time>
      </trkpt>
      <trkpt lat="58.534809993579984" lon="13.321998920291662">
        <ele>82.63</ele>
        <time>2025-02-10T01:21:24.827Z</time>
      </trkpt>
      <trkpt lat="58.53488593362272" lon="13.3220159355551">
        <ele>82.61</ele>
        <time>2025-02-10T01:22:03.752Z</time>
      </trkpt>
      <trkpt lat="58.534961957484484" lon="13.322039991617203">
        <ele>82.59</ele>
        <time>2025-02-10T01:22:42.678Z</time>
      </trkpt>
      <trkpt lat="58.53503999300301" lon="13.322064969688654">
        <ele>82.57</ele>
        <time>2025-02-10T01:23:21.606Z</time>
      </trkpt>
      <trkpt lat="58.535116938874125" lon="13.322090953588486">
        <ele>82.56</ele>
        <time>2025-02-10T01:24:00.535Z</time>
      </trkpt>
      <trkpt lat="58.53519396856427" lon="13.322115931659937">
        <ele>82.55</ele>
        <time>2025-02-10T01:24:39.465Z</time>
      </trkpt>
      <trkpt lat="58.53527099825442" lon="13.32214292138815">
        <ele>82.53</ele>
        <time>2025-02-10T01:25:18.396Z</time>
      </trkpt>
      <trkpt lat="58.53534492664039" lon="13.322171922773123">
        <ele>82.53</ele>
        <time>2025-02-10T01:25:57.328Z</time>
      </trkpt>
      <trkpt lat="58.53541994467378" lon="13.322198996320367">
        <ele>82.52</ele>
        <time>2025-02-10T01:26:36.262Z</time>
      </trkpt>
      <trkpt lat="58.53549496270716" lon="13.322224980220199">
        <ele>82.51</ele>
        <time>2025-02-10T01:27:15.197Z</time>
      </trkpt>
      <trkpt lat="58.53556998074055" lon="13.322251969948411">
        <ele>82.51</ele>
        <time>2025-02-10T01:27:54.133Z</time>
      </trkpt>
      <trkpt lat="58.53564499877393" lon="13.322279965505004">
        <ele>82.51</ele>
        <time>2025-02-10T01:28:33.070Z</time>
      </trkpt>
      <trkpt lat="58.535718927159905" lon="13.322308966889977">
        <ele>82.51</ele>
        <time>2025-02-10T01:29:12.009Z</time>
      </trkpt>
      <trkpt lat="58.53579394519329" lon="13.322338974103332">
        <ele>82.51</ele>
        <time>2025-02-10T01:29:50.949Z</time>
      </trkpt>
      <trkpt lat="58.53587097488344" lon="13.322371998801827">
        <ele>82.51</ele>
        <time>2025-02-10T01:30:29.890Z</time>
      </trkpt>
      <trkpt lat="58.53594993241131" lon="13.32240292802453">
        <ele>82.51</ele>
        <time>2025-02-10T01:31:08.832Z</time>
      </trkpt>
      <trkpt lat="58.53603098541498" lon="13.322432935237885">
        <ele>82.52</ele>
        <time>2025-02-10T01:31:47.776Z</time>
      </trkpt>
      <trkpt lat="58.536112960428" lon="13.322460930794477">
        <ele>82.53</ele>
        <time>2025-02-10T01:32:26.721Z</time>
      </trkpt>
      <trkpt lat="58.53619694709778" lon="13.322490938007832">
        <ele>82.53</ele>
        <time>2025-02-10T01:33:05.667Z</time>
      </trkpt>
      <trkpt lat="58.53628193959594" lon="13.322519939392805">
        <ele>82.54</ele>
        <time>2025-02-10T01:33:44.615Z</time>
      </trkpt>
      <trkpt lat="58.53636592626572" lon="13.322548940777779">
        <ele>82.55</ele>
        <time>2025-02-10T01:34:23.564Z</time>
      </trkpt>
      <trkpt lat="58.53644899092615" lon="13.3225719910115">
        <ele>82.56</ele>
        <time>2025-02-10T01:35:02.515Z</time>
      </trkpt>
      <trkpt lat="58.536532977595925" lon="13.32259495742619">
        <ele>82.58</ele>
        <time>2025-02-10T01:35:41.467Z</time>
      </trkpt>
      <trkpt lat="58.536615958437324" lon="13.32261792384088">
        <ele>82.59</ele>
        <time>2025-02-10T01:36:20.420Z</time>
      </trkpt>
      <trkpt lat="58.5366999451071" lon="13.322643991559744">
        <ele>82.61</ele>
        <time>2025-02-10T01:36:59.375Z</time>
      </trkpt>
      <trkpt lat="58.53678393177688" lon="13.322670981287956">
        <ele>82.63</ele>
        <time>2025-02-10T01:37:38.331Z</time>
      </trkpt>
      <trkpt lat="58.53686892427504" lon="13.32269897684455">
        <ele>82.66</ele>
        <time>2025-02-10T01:38:17.288Z</time>
      </trkpt>
      <trkpt lat="58.53695299476385" lon="13.322727978229523">
        <ele>82.68</ele>
        <time>2025-02-10T01:38:56.247Z</time>
      </trkpt>
      <trkpt lat="58.53703798726201" lon="13.322759997099638">
        <ele>82.71</ele>
        <time>2025-02-10T01:39:35.207Z</time>
      </trkpt>
      <trkpt lat="58.53712096810341" lon="13.322792937979102">
        <ele>82.74</ele>
        <time>2025-02-10T01:40:14.168Z</time>
      </trkpt>
      <trkpt lat="58.53720294311643" lon="13.322831997647882">
        <ele>82.77</ele>
        <time>2025-02-10T01:40:53.131Z</time>
      </trkpt>
      <trkpt lat="58.537283996120095" lon="13.322879942134023">
        <ele>82.8</ele>
        <time>2025-02-10T01:41:32.095Z</time>
      </trkpt>
      <trkpt lat="58.53736194781959" lon="13.322934927418828">
        <ele>82.84</ele>
        <time>2025-02-10T01:42:11.061Z</time>
      </trkpt>
      <trkpt lat="58.537437971681356" lon="13.3230019826442">
        <ele>82.88</ele>
        <time>2025-02-10T01:42:50.028Z</time>
      </trkpt>
      <trkpt lat="58.53751097805798" lon="13.323075994849205">
        <ele>82.93</ele>
        <time>2025-02-10T01:43:28.996Z</time>
      </trkpt>
      <trkpt lat="58.53758096694946" lon="13.323156964033842">
        <ele>82.98</ele>
        <time>2025-02-10T01:44:07.965Z</time>
      </trkpt>
      <trkpt lat="58.537648944184184" lon="13.323243968188763">
        <ele>83.02</ele>
        <time>2025-02-10T01:44:46.936Z</time>
      </trkpt>
      <trkpt lat="58.537713987752795" lon="13.323336923494935">
        <ele>83.07</ele>
        <time>2025-02-10T01:45:25.908Z</time>
      </trkpt>
      <trkpt lat="58.537777941673994" lon="13.3234319742769">
        <ele>83.13</ele>
        <time>2025-02-10T01:46:04.881Z</time>
      </trkpt>
      <trkpt lat="58.537841979414225" lon="13.323527947068214">
        <ele>83.18</ele>
        <time>2025-02-10T01:46:43.856Z</time>
      </trkpt>
      <trkpt lat="58.53790593333542" lon="13.323621992021799">
        <ele>83.24</ele>
        <time>2025-02-10T01:47:22.832Z</time>
      </trkpt>
      <trkpt lat="58.537969971075654" lon="13.323715953156352">
        <ele>83.3</ele>
        <time>2025-02-10T01:48:01.809Z</time>
      </trkpt>
      <trkpt lat="58.53803493082523" lon="13.323805974796414">
        <ele>83.36</ele>
        <time>2025-02-10T01:48:40.788Z</time>
      </trkpt>
      <trkpt lat="58.538100980222225" lon="13.323889961466193">
        <ele>83.42</ele>
        <time>2025-02-10T01:49:19.768Z</time>
      </trkpt>
      <trkpt lat="58.538166945800185" lon="13.32397193647921">
        <ele>83.49</ele>
        <time>2025-02-10T01:49:58.749Z</time>
      </trkpt>
      <trkpt lat="58.538234923034906" lon="13.324051983654499">
        <ele>83.55</ele>
        <time>2025-02-10T01:50:37.731Z</time>
      </trkpt>
      <trkpt lat="58.5383009724319" lon="13.324128929525614">
        <ele>83.62</ele>
        <time>2025-02-10T01:51:16.715Z</time>
      </trkpt>
      <trkpt lat="58.53836693800986" lon="13.324203947558999">
        <ele>83.7</ele>
        <time>2025-02-10T01:51:55.700Z</time>
      </trkpt>
      <trkpt lat="58.53842996992171" lon="13.3242729306221">
        <ele>83.77</ele>
        <time>2025-02-10T01:52:34.686Z</time>
      </trkpt>
      <trkpt lat="58.538489984348416" lon="13.324337974190712">
        <ele>83.84</ele>
        <time>2025-02-10T01:53:13.673Z</time>
      </trkpt>
      <trkpt lat="58.5385459754616" lon="13.324395976960659">
        <ele>83.92</ele>
        <time>2025-02-10T01:53:52.661Z</time>
      </trkpt>
      <trkpt lat="58.53859995491803" lon="13.324457919225097">
        <ele>84.0</ele>
        <time>2025-02-10T01:54:31.650Z</time>
      </trkpt>
      <trkpt lat="58.53865292854607" lon="13.324515921995044">
        <ele>84.08</ele>
        <time>2025-02-10T01:55:10.640Z</time>
      </trkpt>
      <trkpt lat="58.538703974336386" lon="13.3245699852705">
        <ele>84.15</ele>
        <time>2025-02-10T01:55:49.631Z</time>
      </trkpt>
      <trkpt lat="58.53875292465091" lon="13.324620947241783">
        <ele>84.24</ele>
        <time>2025-02-10T01:56:28.623Z</time>
      </trkpt>
      <trkpt lat="58.53880296461284" lon="13.324670987203717">
        <ele>84.32</ele>
        <time>2025-02-10T01:57:07.616Z</time>
      </trkpt>
      <trkpt lat="58.538849987089634" lon="13.324718931689858">
        <ele>84.41</ele>
        <time>2025-02-10T01:57:46.610Z</time>
      </trkpt>
      <trkpt lat="58.538897931575775" lon="13.324762936681509">
        <ele>84.49</ele>
        <time>2025-02-10T01:58:25.605Z</time>
      </trkpt>
      <trkpt lat="58.53894696570933" lon="13.324805935844779">
        <ele>84.58</ele>
        <time>2025-02-10T01:59:04.600Z</time>
      </trkpt>
      <trkpt lat="58.5389949940145" lon="13.324846923351288">
        <ele>84.68</ele>
        <time>2025-02-10T01:59:43.596Z</time>
      </trkpt>
      <trkpt lat="58.53904293850064" lon="13.324884977191687">
        <ele>84.77</ele>
        <time>2025-02-10T02:00:22.593Z</time>
      </trkpt>
      <trkpt lat="58.53909297846258" lon="13.324921941384673">
        <ele>84.86</ele>
        <time>2025-02-10T02:01:01.591Z</time>
      </trkpt>
      <trkpt lat="58.53914394043386" lon="13.324958989396691">
        <ele>84.96</ele>
        <time>2025-02-10T02:01:40.590Z</time>
      </trkpt>
      <trkpt lat="58.539196997880936" lon="13.324993941932917">
        <ele>85.06</ele>
        <time>2025-02-10T02:02:19.590Z</time>
      </trkpt>
      <trkpt lat="58.53924997150898" lon="13.325027972459793">
        <ele>85.15</ele>
        <time>2025-02-10T02:02:58.591Z</time>
      </trkpt>
      <trkpt lat="58.539303950965405" lon="13.32506594248116">
        <ele>85.25</ele>
        <time>2025-02-10T02:03:37.593Z</time>
      </trkpt>
      <trkpt lat="58.53935994207859" lon="13.325101984664798">
        <ele>85.35</ele>
        <time>2025-02-10T02:04:16.596Z</time>
      </trkpt>
      <trkpt lat="58.53941794484854" lon="13.325136937201023">
        <ele>85.45</ele>
        <time>2025-02-10T02:04:55.600Z</time>
      </trkpt>
      <trkpt lat="58.539478965103626" lon="13.32517297938466">
        <ele>85.55</ele>
        <time>2025-02-10T02:05:34.605Z</time>
      </trkpt>
      <trkpt lat="58.539542919024825" lon="13.325209943577647">
        <ele>85.66</ele>
        <time>2025-02-10T02:06:13.611Z</time>
      </trkpt>
      <trkpt lat="58.53960896842182" lon="13.325251936912537">
        <ele>85.76</ele>
        <time>2025-02-10T02:06:52.618Z</time>
      </trkpt>
      <trkpt lat="58.53967795148492" lon="13.325296947732568">
        <ele>85.87</ele>
        <time>2025-02-10T02:07:31.626Z</time>
      </trkpt>
      <trkpt lat="58.5397479403764" lon="13.325340952724218">
        <ele>85.98</ele>
        <time>2025-02-10T02:08:10.635Z</time>
      </trkpt>
      <trkpt lat="58.539819940924644" lon="13.32538596354425">
        <ele>86.1</ele>
        <time>2025-02-10T02:08:49.645Z</time>
      </trkpt>
      <trkpt lat="58.53989395312965" lon="13.32543097436428">
        <ele>86.21</ele>
        <time>2025-02-10T02:09:28.657Z</time>
      </trkpt>
      <trkpt lat="58.539969976991415" lon="13.325475985184312">
        <ele>86.33</ele>
        <time>2025-02-10T02:10:07.670Z</time>
      </trkpt>
      <trkpt lat="58.5400449950248" lon="13.325520996004343">
        <ele>86.45</ele>
        <time>2025-02-10T02:10:46.684Z</time>
      </trkpt>
      <trkpt lat="58.540119929239154" lon="13.325564917176962">
        <ele>86.57</ele>
        <time>2025-02-10T02:11:25.699Z</time>
      </trkpt>
      <trkpt lat="58.54019394144416" lon="13.325608922168612">
        <ele>86.7</ele>
        <time>2025-02-10T02:12:04.716Z</time>
      </trkpt>
      <trkpt lat="58.540269965305924" lon="13.325653932988644">
        <ele>86.83</ele>
        <time>2025-02-10T02:12:43.734Z</time>
      </trkpt>
      <trkpt lat="58.54034397751093" lon="13.325699949637055">
        <ele>86.96</ele>
        <time>2025-02-10T02:13:22.753Z</time>
      </trkpt>
      <trkpt lat="58.54041698388755" lon="13.325742948800325">
        <ele>87.08</ele>
        <time>2025-02-10T02:14:01.773Z</time>
      </trkpt>
      <trkpt lat="58.54049099609256" lon="13.325783936306834">
        <ele>87.21</ele>
        <time>2025-02-10T02:14:40.795Z</time>
      </trkpt>
      <trkpt lat="58.54056593030691" lon="13.325822995975614">
        <ele>87.34</ele>
        <time>2025-02-10T02:15:19.818Z</time>
      </trkpt>
      <trkpt lat="58.540636925026774" lon="13.325867922976613">
        <ele>87.47</ele>
        <time>2025-02-10T02:15:58.842Z</time>
      </trkpt>
      <trkpt lat="58.54070699773729" lon="13.325916957110167">
        <ele>87.59</ele>
        <time>2025-02-10T02:16:37.867Z</time>
      </trkpt>
      <trkpt lat="58.54077598080039" lon="13.325971942394972">
        <ele>87.72</ele>
        <time>2025-02-10T02:17:16.893Z</time>
      </trkpt>
      <trkpt lat="58.54084395803511" lon="13.32603195682168">
        <ele>87.85</ele>
        <time>2025-02-10T02:17:55.921Z</time>
      </trkpt>
      <trkpt lat="58.540913946926594" lon="13.326099934056401">
        <ele>87.98</ele>
        <time>2025-02-10T02:18:34.950Z</time>
      </trkpt>
      <trkpt lat="58.540979996323586" lon="13.326171934604645">
        <ele>88.11</ele>
        <time>2025-02-10T02:19:13.980Z</time>
      </trkpt>
      <trkpt lat="58.541043950244784" lon="13.32624795846641">
        <ele>88.24</ele>
        <time>2025-02-10T02:19:53.011Z</time>
      </trkpt>
      <trkpt lat="58.541106982156634" lon="13.326330939307809">
        <ele>88.37</ele>
        <time>2025-02-10T02:20:32.044Z</time>
      </trkpt>
      <trkpt lat="58.54116892442107" lon="13.326422972604632">
        <ele>88.51</ele>
        <time>2025-02-10T02:21:11.078Z</time>
      </trkpt>
      <trkpt lat="58.54122592136264" lon="13.326521962881088">
        <ele>88.65</ele>
        <time>2025-02-10T02:21:50.113Z</time>
      </trkpt>
      <trkpt lat="58.541280990466475" lon="13.326629921793938">
        <ele>88.79</ele>
        <time>2025-02-10T02:22:29.149Z</time>
      </trkpt>
      <trkpt lat="58.54133295826614" lon="13.326745927333832">
        <ele>88.92</ele>
        <time>2025-02-10T02:23:08.187Z</time>
      </trkpt>
      <trkpt lat="58.54137796908617" lon="13.326862938702106">
        <ele>89.06</ele>
        <time>2025-02-10T02:23:47.226Z</time>
      </trkpt>
      <trkpt lat="58.54141895659268" lon="13.32697793841362">
        <ele>89.2</ele>
        <time>2025-02-10T02:24:26.266Z</time>
      </trkpt>
      <trkpt lat="58.54145793244243" lon="13.327096961438656">
        <ele>89.34</ele>
        <time>2025-02-10T02:25:05.307Z</time>
      </trkpt>
      <trkpt lat="58.541493974626064" lon="13.327215984463692">
        <ele>89.48</ele>
        <time>2025-02-10T02:25:44.349Z</time>
      </trkpt>
      <trkpt lat="58.54153093881905" lon="13.327332995831966">
        <ele>89.62</ele>
        <time>2025-02-10T02:26:23.392Z</time>
      </trkpt>
      <trkpt lat="58.54156798683107" lon="13.32745092920959">
        <ele>89.77</ele>
        <time>2025-02-10T02:27:02.437Z</time>
      </trkpt>
      <trkpt lat="58.541603945195675" lon="13.327569952234626">
        <ele>89.92</ele>
        <time>2025-02-10T02:27:41.483Z</time>
      </trkpt>
      <trkpt lat="58.54164099320769" lon="13.327690986916423">
        <ele>90.06</ele>
        <time>2025-02-10T02:28:20.530Z</time>
      </trkpt>
      <trkpt lat="58.5416769515723" lon="13.327811937779188">
        <ele>90.21</ele>
        <time>2025-02-10T02:28:59.578Z</time>
      </trkpt>
      <trkpt lat="58.54171592742205" lon="13.327932972460985">
        <ele>90.36</ele>
        <time>2025-02-10T02:29:38.627Z</time>
      </trkpt>
      <trkpt lat="58.541753981262445" lon="13.32805392332375">
        <ele>90.51</ele>
        <time>2025-02-10T02:30:17.677Z</time>
      </trkpt>
      <trkpt lat="58.541794968768954" lon="13.328173952177167">
        <ele>90.66</ele>
        <time>2025-02-10T02:30:56.729Z</time>
      </trkpt>
      <trkpt lat="58.541837967932224" lon="13.328290963545442">
        <ele>90.81</ele>
        <time>2025-02-10T02:31:35.782Z</time>
      </trkpt>
      <trkpt lat="58.541881972923875" lon="13.328403951600194">
        <ele>90.95</ele>
        <time>2025-02-10T02:32:14.836Z</time>
      </trkpt>
      <trkpt lat="58.541926983743906" lon="13.328508976846933">
        <ele>91.1</ele>
        <time>2025-02-10T02:32:53.891Z</time>
      </trkpt>
      <trkpt lat="58.54197098873556" lon="13.32860796712339">
        <ele>91.25</ele>
        <time>2025-02-10T02:33:32.947Z</time>
      </trkpt>
      <trkpt lat="58.54201499372721" lon="13.328701928257942">
        <ele>91.4</ele>
        <time>2025-02-10T02:34:12.004Z</time>
      </trkpt>
      <trkpt lat="58.54205992072821" lon="13.328792955726385">
        <ele>91.55</ele>
        <time>2025-02-10T02:34:51.062Z</time>
      </trkpt>
      <trkpt lat="58.54210593737662" lon="13.328882977366447">
        <ele>91.69</ele>
        <time>2025-02-10T02:35:30.121Z</time>
      </trkpt>
      <trkpt lat="58.54215094819665" lon="13.328973921015859">
        <ele>91.84</ele>
        <time>2025-02-10T02:36:09.181Z</time>
      </trkpt>
      <trkpt lat="58.54219797067344" lon="13.329063942655921">
        <ele>91.98</ele>
        <time>2025-02-10T02:36:48.243Z</time>
      </trkpt>
      <trkpt lat="58.542247926816344" lon="13.329152958467603">
        <ele>92.13</ele>
        <time>2025-02-10T02:37:27.306Z</time>
      </trkpt>
      <trkpt lat="58.54229796677828" lon="13.329241974279284">
        <ele>92.27</ele>
        <time>2025-02-10T02:38:06.370Z</time>
      </trkpt>
      <trkpt lat="58.54234993457794" lon="13.329329984262586">
        <ele>92.42</ele>
        <time>2025-02-10T02:38:45.435Z</time>
      </trkpt>
      <trkpt lat="58.54240491986275" lon="13.329414976760745">
        <ele>92.56</ele>
        <time>2025-02-10T02:39:24.501Z</time>
      </trkpt>
      <trkpt lat="58.542460994794965" lon="13.329495945945382">
        <ele>92.71</ele>
        <time>2025-02-10T02:40:03.568Z</time>
      </trkpt>
      <trkpt lat="58.54251799173653" lon="13.329571969807148">
        <ele>92.85</ele>
        <time>2025-02-10T02:40:42.636Z</time>
      </trkpt>
      <trkpt lat="58.54257691651583" lon="13.329644976183772">
        <ele>93.0</ele>
        <time>2025-02-10T02:41:21.705Z</time>
      </trkpt>
      <trkpt lat="58.542636930942535" lon="13.329711947590113">
        <ele>93.14</ele>
        <time>2025-02-10T02:42:00.775Z</time>
      </trkpt>
      <trkpt lat="58.542696945369244" lon="13.329772967845201">
        <ele>93.29</ele>
        <time>2025-02-10T02:42:39.847Z</time>
      </trkpt>
      <trkpt lat="58.54275897145271" lon="13.329829964786768">
        <ele>93.44</ele>
        <time>2025-02-10T02:43:18.920Z</time>
      </trkpt>
      <trkpt lat="58.54282099753618" lon="13.329881932586432">
        <ele>93.58</ele>
        <time>2025-02-10T02:43:57.994Z</time>
      </trkpt>
      <trkpt lat="58.542883945629" lon="13.329928955063224">
        <ele>93.73</ele>
        <time>2025-02-10T02:44:37.069Z</time>
      </trkpt>
      <trkpt lat="58.54294697754085" lon="13.329973965883255">
        <ele>93.88</ele>
        <time>2025-02-10T02:45:16.145Z</time>
      </trkpt>
      <trkpt lat="58.54301193729043" lon="13.330013947561383">
        <ele>94.02</ele>
        <time>2025-02-10T02:45:55.222Z</time>
      </trkpt>
      <trkpt lat="58.54307698085904" lon="13.33004697225988">
        <ele>94.17</ele>
        <time>2025-02-10T02:46:34.300Z</time>
      </trkpt>
      <trkpt lat="58.54314093478024" lon="13.330077985301614">
        <ele>94.32</ele>
        <time>2025-02-10T02:47:13.379Z</time>
      </trkpt>
      <trkpt lat="58.54320296086371" lon="13.330103969201446">
        <ele>94.46</ele>
        <time>2025-02-10T02:47:52.459Z</time>
      </trkpt>
      <trkpt lat="58.54326297529042" lon="13.330123918130994">
        <ele>94.6</ele>
        <time>2025-02-10T02:48:31.540Z</time>
      </trkpt>
      <trkpt lat="58.54332399554551" lon="13.330140933394432">
        <ele>94.74</ele>
        <time>2025-02-10T02:49:10.622Z</time>
      </trkpt>
      <trkpt lat="58.54338199831545" lon="13.330153925344348">
        <ele>94.88</ele>
        <time>2025-02-10T02:49:49.705Z</time>
      </trkpt>
      <trkpt lat="58.54343991726637" lon="13.330161971971393">
        <ele>95.02</ele>
        <time>2025-02-10T02:50:28.789Z</time>
      </trkpt>
      <trkpt lat="58.54350093752146" lon="13.330164989456534">
        <ele>95.16</ele>
        <time>2025-02-10T02:51:07.874Z</time>
      </trkpt>
      <trkpt lat="58.54356396943331" lon="13.330165995284915">
        <ele>95.29</ele>
        <time>2025-02-10T02:51:46.960Z</time>
      </trkpt>
      <trkpt lat="58.5436249896884" lon="13.330164989456534">
        <ele>95.43</ele>
        <time>2025-02-10T02:52:26.047Z</time>
      </trkpt>
      <trkpt lat="58.54368492029607" lon="13.330163983628154">
        <ele>95.56</ele>
        <time>2025-02-10T02:53:05.135Z</time>
      </trkpt>
      <trkpt lat="58.54374493472278" lon="13.330160966143012">
        <ele>95.69</ele>
        <time>2025-02-10T02:53:44.224Z</time>
      </trkpt>
      <trkpt lat="58.54380293749273" lon="13.33015895448625">
        <ele>95.81</ele>
        <time>2025-02-10T02:54:23.314Z</time>
      </trkpt>
      <trkpt lat="58.543860940262675" lon="13.330159960314631">
        <ele>95.94</ele>
        <time>2025-02-10T02:55:02.405Z</time>
      </trkpt>
      <trkpt lat="58.54391592554748" lon="13.330165995284915">
        <ele>96.06</ele>
        <time>2025-02-10T02:55:41.497Z</time>
      </trkpt>
      <trkpt lat="58.54397191666067" lon="13.330173958092928">
        <ele>96.19</ele>
        <time>2025-02-10T02:56:20.590Z</time>
      </trkpt>
      <trkpt lat="58.544027991592884" lon="13.330183932557702">
        <ele>96.31</ele>
        <time>2025-02-10T02:56:59.683Z</time>
      </trkpt>
      <trkpt lat="58.54408197104931" lon="13.330194996669888">
        <ele>96.42</ele>
        <time>2025-02-10T02:57:38.777Z</time>
      </trkpt>
      <trkpt lat="58.54413595050573" lon="13.330207988619804">
        <ele>96.54</ele>
        <time>2025-02-10T02:58:17.872Z</time>
      </trkpt>
      <trkpt lat="58.54419194161892" lon="13.3302219863981">
        <ele>96.66</ele>
        <time>2025-02-10T02:58:56.968Z</time>
      </trkpt>
      <trkpt lat="58.544247932732105" lon="13.330239923670888">
        <ele>96.77</ele>
        <time>2025-02-10T02:59:36.065Z</time>
      </trkpt>
      <trkpt lat="58.5442999843508" lon="13.330256938934326">
        <ele>96.87</ele>
        <time>2025-02-10T03:00:15.163Z</time>
      </trkpt>
      <trkpt lat="58.544351952150464" lon="13.330275965854526">
        <ele>96.98</ele>
        <time>2025-02-10T03:00:54.262Z</time>
      </trkpt>
      <trkpt lat="58.5444019921124" lon="13.330296920612454">
        <ele>97.08</ele>
        <time>2025-02-10T03:01:33.362Z</time>
      </trkpt>
      <trkpt lat="58.54444993659854" lon="13.330321982502937">
        <ele>97.19</ele>
        <time>2025-02-10T03:02:12.462Z</time>
      </trkpt>
      <trkpt lat="58.54449796490371" lon="13.330347966402769">
        <ele>97.29</ele>
        <time>2025-02-10T03:02:51.563Z</time>
      </trkpt>
      <trkpt lat="58.544543981552124" lon="13.330370932817459">
        <ele>97.39</ele>
        <time>2025-02-10T03:03:30.665Z</time>
      </trkpt>
      <trkpt lat="58.544590920209885" lon="13.33039691671729">
        <ele>97.49</ele>
        <time>2025-02-10T03:04:09.768Z</time>
      </trkpt>
      <trkpt lat="58.54463794268668" lon="13.330424996092916">
        <ele>97.59</ele>
        <time>2025-02-10T03:04:48.871Z</time>
      </trkpt>
      <trkpt lat="58.54468496516347" lon="13.330451985821128">
        <ele>97.69</ele>
        <time>2025-02-10T03:05:27.975Z</time>
      </trkpt>
      <trkpt lat="58.54473399929702" lon="13.330476963892579">
        <ele>97.78</ele>
        <time>2025-02-10T03:06:07.080Z</time>
      </trkpt>
      <trkpt lat="58.544783955439925" lon="13.330509988591075">
        <ele>97.88</ele>
        <time>2025-02-10T03:06:46.186Z</time>
      </trkpt>
      <trkpt lat="58.54483793489635" lon="13.330546952784061">
        <ele>97.97</ele>
        <time>2025-02-10T03:07:25.293Z</time>
      </trkpt>
      <trkpt lat="58.544894931837916" lon="13.330583916977048">
        <ele>98.06</ele>
        <time>2025-02-10T03:08:04.401Z</time>
      </trkpt>
      <trkpt lat="58.544953940436244" lon="13.330619959160686">
        <ele>98.15</ele>
        <time>2025-02-10T03:08:43.510Z</time>
      </trkpt>
      <trkpt lat="58.54501294903457" lon="13.330656923353672">
        <ele>98.24</ele>
        <time>2025-02-10T03:09:22.620Z</time>
      </trkpt>
      <trkpt lat="58.54507296346128" lon="13.330695983022451">
        <ele>98.33</ele>
        <time>2025-02-10T03:10:01.731Z</time>
      </trkpt>
      <trkpt lat="58.54513197205961" lon="13.33073596470058">
        <ele>98.42</ele>
        <time>2025-02-10T03:10:40.843Z</time>
      </trkpt>
      <trkpt lat="58.545188969001174" lon="13.330773934721947">
        <ele>98.51</ele>
        <time>2025-02-10T03:11:19.956Z</time>
      </trkpt>
      <trkpt lat="58.54524998925626" lon="13.330810982733965">
        <ele>98.6</ele>
        <time>2025-02-10T03:11:59.070Z</time>
      </trkpt>
      <trkpt lat="58.5453119315207" lon="13.330849958583713">
        <ele>98.68</ele>
        <time>2025-02-10T03:12:38.185Z</time>
      </trkpt>
      <trkpt lat="58.54537496343255" lon="13.330891951918602">
        <ele>98.76</ele>
        <time>2025-02-10T03:13:17.301Z</time>
      </trkpt>
      <trkpt lat="58.5454379953444" lon="13.33093293942511">
        <ele>98.84</ele>
        <time>2025-02-10T03:13:56.418Z</time>
      </trkpt>
      <trkpt lat="58.54550295509398" lon="13.330972921103239">
        <ele>98.92</ele>
        <time>2025-02-10T03:14:35.536Z</time>
      </trkpt>
      <trkpt lat="58.54556799866259" lon="13.331012986600399">
        <ele>99.0</ele>
        <time>2025-02-10T03:15:14.655Z</time>
      </trkpt>
      <trkpt lat="58.54563597589731" lon="13.331055985763669">
        <ele>99.07</ele>
        <time>2025-02-10T03:15:53.775Z</time>
      </trkpt>
      <trkpt lat="58.54570395313203" lon="13.331098984926939">
        <ele>99.15</ele>
        <time>2025-02-10T03:16:32.896Z</time>
      </trkpt>
      <trkpt lat="58.54576991870999" lon="13.331137960776687">
        <ele>99.22</ele>
        <time>2025-02-10T03:17:12.019Z</time>
      </trkpt>
      <trkpt lat="58.545833956450224" lon="13.331179954111576">
        <ele>99.29</ele>
        <time>2025-02-10T03:17:51.143Z</time>
      </trkpt>
      <trkpt lat="58.5458989161998" lon="13.331223959103227">
        <ele>99.36</ele>
        <time>2025-02-10T03:18:30.268Z</time>
      </trkpt>
      <trkpt lat="58.545962953940034" lon="13.331265952438116">
        <ele>99.43</ele>
        <time>2025-02-10T03:19:09.394Z</time>
      </trkpt>
      <trkpt lat="58.546026991680264" lon="13.331308951601386">
        <ele>99.49</ele>
        <time>2025-02-10T03:19:48.521Z</time>
      </trkpt>
      <trkpt lat="58.546092957258224" lon="13.331351950764656">
        <ele>99.55</ele>
        <time>2025-02-10T03:20:27.649Z</time>
      </trkpt>
      <trkpt lat="58.546154983341694" lon="13.331395955756307">
        <ele>99.61</ele>
        <time>2025-02-10T03:21:06.778Z</time>
      </trkpt>
      <trkpt lat="58.54621591977775" lon="13.331438954919577">
        <ele>99.67</ele>
        <time>2025-02-10T03:21:45.908Z</time>
      </trkpt>
      <trkpt lat="58.54628196917474" lon="13.33148798905313">
        <ele>99.73</ele>
        <time>2025-02-10T03:22:25.039Z</time>
      </trkpt>
      <trkpt lat="58.54634692892432" lon="13.33153492771089">
        <ele>99.79</ele>
        <time>2025-02-10T03:23:04.171Z</time>
      </trkpt>
      <trkpt lat="58.54641096666455" lon="13.331578932702541">
        <ele>99.85</ele>
        <time>2025-02-10T03:23:43.304Z</time>
      </trkpt>
      <trkpt lat="58.54647592641413" lon="13.331626961007714">
        <ele>99.91</ele>
        <time>2025-02-10T03:24:22.439Z</time>
      </trkpt>
      <trkpt lat="58.546541975811124" lon="13.331676917150617">
        <ele>99.97</ele>
        <time>2025-02-10T03:25:01.575Z</time>
      </trkpt>
      <trkpt lat="58.546608947217464" lon="13.331728968769312">
        <ele>100.02</ele>
        <time>2025-02-10T03:25:40.712Z</time>
      </trkpt>
      <trkpt lat="58.546676924452186" lon="13.331785965710878">
        <ele>100.08</ele>
        <time>2025-02-10T03:26:19.850Z</time>
      </trkpt>
      <trkpt lat="58.54674397967756" lon="13.331842962652445">
        <ele>100.13</ele>
        <time>2025-02-10T03:26:58.989Z</time>
      </trkpt>
      <trkpt lat="58.54681195691228" lon="13.331904988735914">
        <ele>100.18</ele>
        <time>2025-02-10T03:27:38.129Z</time>
      </trkpt>
      <trkpt lat="58.54687792249024" lon="13.331974977627397">
        <ele>100.23</ele>
        <time>2025-02-10T03:28:17.271Z</time>
      </trkpt>
      <trkpt lat="58.54694296605885" lon="13.33204697817564">
        <ele>100.29</ele>
        <time>2025-02-10T03:28:56.414Z</time>
      </trkpt>
      <trkpt lat="58.5470059979707" lon="13.332121996209025">
        <ele>100.34</ele>
        <time>2025-02-10T03:29:35.558Z</time>
      </trkpt>
      <trkpt lat="58.54706693440676" lon="13.332200953736901">
        <ele>100.39</ele>
        <time>2025-02-10T03:30:14.703Z</time>
      </trkpt>
      <trkpt lat="58.54713097214699" lon="13.332281922921538">
        <ele>100.44</ele>
        <time>2025-02-10T03:30:53.849Z</time>
      </trkpt>
      <trkpt lat="58.54719492606819" lon="13.332364987581968">
        <ele>100.48</ele>
        <time>2025-02-10T03:31:32.997Z</time>
      </trkpt>
      <trkpt lat="58.54725795798004" lon="13.332451991736889">
        <ele>100.53</ele>
        <time>2025-02-10T03:32:12.146Z</time>
      </trkpt>
      <trkpt lat="58.547322917729616" lon="13.33253899589181">
        <ele>100.58</ele>
        <time>2025-02-10T03:32:51.296Z</time>
      </trkpt>
      <trkpt lat="58.54738896712661" lon="13.332625916227698">
        <ele>100.63</ele>
        <time>2025-02-10T03:33:30.448Z</time>
      </trkpt>
      <trkpt lat="58.54745493270457" lon="13.33271593786776">
        <ele>100.67</ele>
        <time>2025-02-10T03:34:09.601Z</time>
      </trkpt>
      <trkpt lat="58.54752098210156" lon="13.332805959507823">
        <ele>100.72</ele>
        <time>2025-02-10T03:34:48.755Z</time>
      </trkpt>
      <trkpt lat="58.54758594185114" lon="13.332894975319505">
        <ele>100.77</ele>
        <time>2025-02-10T03:35:27.910Z</time>
      </trkpt>
      <trkpt lat="58.54764997959137" lon="13.332983991131186">
        <ele>100.82</ele>
        <time>2025-02-10T03:36:07.067Z</time>
      </trkpt>
      <trkpt lat="58.54771292768419" lon="13.333072923123837">
        <ele>100.87</ele>
        <time>2025-02-10T03:36:46.225Z</time>
      </trkpt>
      <trkpt lat="58.54777595959604" lon="13.333162944763899">
        <ele>100.92</ele>
        <time>2025-02-10T03:37:25.384Z</time>
      </trkpt>
      <trkpt lat="58.54783899150789" lon="13.33325196057558">
        <ele>100.96</ele>
        <time>2025-02-10T03:38:04.544Z</time>
      </trkpt>
      <trkpt lat="58.547900933772326" lon="13.33333695307374">
        <ele>101.0</ele>
        <time>2025-02-10T03:38:43.706Z</time>
      </trkpt>
      <trkpt lat="58.54795893654227" lon="13.333420939743519">
        <ele>101.04</ele>
        <time>2025-02-10T03:39:22.869Z</time>
      </trkpt>
      <trkpt lat="58.54801895096898" lon="13.333502998575568">
        <ele>101.08</ele>
        <time>2025-02-10T03:40:02.033Z</time>
      </trkpt>
      <trkpt lat="58.54807795956731" lon="13.333583967760205">
        <ele>101.13</ele>
        <time>2025-02-10T03:40:41.198Z</time>
      </trkpt>
      <trkpt lat="58.548135962337255" lon="13.333663931116462">
        <ele>101.16</ele>
        <time>2025-02-10T03:41:20.364Z</time>
      </trkpt>
      <trkpt lat="58.5481939651072" lon="13.333741966634989">
        <ele>101.2</ele>
        <time>2025-02-10T03:41:59.531Z</time>
      </trkpt>
      <trkpt lat="58.54825297370553" lon="13.333823941648006">
        <ele>101.24</ele>
        <time>2025-02-10T03:42:38.700Z</time>
      </trkpt>
      <trkpt lat="58.54831097647548" lon="13.333906922489405">
        <ele>101.28</ele>
        <time>2025-02-10T03:43:17.870Z</time>
      </trkpt>
      <trkpt lat="58.548371996730566" lon="13.333990992978215">
        <ele>101.32</ele>
        <time>2025-02-10T03:43:57.041Z</time>
      </trkpt>
      <trkpt lat="58.54843293316662" lon="13.334075985476375">
        <ele>101.36</ele>
        <time>2025-02-10T03:44:36.213Z</time>
      </trkpt>
      <trkpt lat="58.54849495925009" lon="13.334165923297405">
        <ele>101.4</ele>
        <time>2025-02-10T03:45:15.386Z</time>
      </trkpt>
      <trkpt lat="58.54855597950518" lon="13.334254939109087">
        <ele>101.44</ele>
        <time>2025-02-10T03:45:54.561Z</time>
      </trkpt>
      <trkpt lat="58.54861699976027" lon="13.334341943264008">
        <ele>101.48</ele>
        <time>2025-02-10T03:46:33.737Z</time>
      </trkpt>
      <trkpt lat="58.54867793619633" lon="13.334428947418928">
        <ele>101.52</ele>
        <time>2025-02-10T03:47:12.914Z</time>
      </trkpt>
      <trkpt lat="58.548737950623035" lon="13.334514945745468">
        <ele>101.57</ele>
        <time>2025-02-10T03:47:52.092Z</time>
      </trkpt>
      <trkpt lat="58.54879595339298" lon="13.33460295572877">
        <ele>101.61</ele>
        <time>2025-02-10T03:48:31.272Z</time>
      </trkpt>
      <trkpt lat="58.54885697364807" lon="13.334692977368832">
        <ele>101.65</ele>
        <time>2025-02-10T03:49:10.453Z</time>
      </trkpt>
      <trkpt lat="58.54891899973154" lon="13.334781993180513">
        <ele>101.7</ele>
        <time>2025-02-10T03:49:49.635Z</time>
      </trkpt>
      <trkpt lat="58.54898094199598" lon="13.334868997335434">
        <ele>101.75</ele>
        <time>2025-02-10T03:50:28.818Z</time>
      </trkpt>
      <trkpt lat="58.54904196225107" lon="13.334955917671323">
        <ele>101.8</ele>
        <time>2025-02-10T03:51:08.002Z</time>
      </trkpt>
      <trkpt lat="58.549098959192634" lon="13.335037976503372">
        <ele>101.85</ele>
        <time>2025-02-10T03:51:47.188Z</time>
      </trkpt>
      <trkpt lat="58.54915897361934" lon="13.335116934031248">
        <ele>101.9</ele>
        <time>2025-02-10T03:52:26.375Z</time>
      </trkpt>
      <trkpt lat="58.54921999387443" lon="13.335195975378156">
        <ele>101.95</ele>
        <time>2025-02-10T03:53:05.563Z</time>
      </trkpt>
      <trkpt lat="58.54928193613887" lon="13.335275938734412">
        <ele>102.0</ele>
        <time>2025-02-10T03:53:44.752Z</time>
      </trkpt>
      <trkpt lat="58.54934496805072" lon="13.3353559859097">
        <ele>102.06</ele>
        <time>2025-02-10T03:54:23.942Z</time>
      </trkpt>
      <trkpt lat="58.54940598830581" lon="13.335437960922718">
        <ele>102.11</ele>
        <time>2025-02-10T03:55:03.134Z</time>
      </trkpt>
      <trkpt lat="58.549465918913484" lon="13.335520941764116">
        <ele>102.17</ele>
        <time>2025-02-10T03:55:42.327Z</time>
      </trkpt>
      <trkpt lat="58.54952492751181" lon="13.335607945919037">
        <ele>102.23</ele>
        <time>2025-02-10T03:56:21.521Z</time>
      </trkpt>
      <trkpt lat="58.54958293028176" lon="13.33569997921586">
        <ele>102.29</ele>
        <time>2025-02-10T03:57:00.716Z</time>
      </trkpt>
      <trkpt lat="58.549634981900454" lon="13.335794946178794">
        <ele>102.36</ele>
        <time>2025-02-10T03:57:39.912Z</time>
      </trkpt>
      <trkpt lat="58.54968594387174" lon="13.33589293062687">
        <ele>102.42</ele>
        <time>2025-02-10T03:58:19.109Z</time>
      </trkpt>
      <trkpt lat="58.54973296634853" lon="13.335993932560086">
        <ele>102.49</ele>
        <time>2025-02-10T03:58:58.308Z</time>
      </trkpt>
      <trkpt lat="58.54977898299694" lon="13.336096946150064">
        <ele>102.56</ele>
        <time>2025-02-10T03:59:37.508Z</time>
      </trkpt>
      <trkpt lat="58.54982097633183" lon="13.336202977225184">
        <ele>102.63</ele>
        <time>2025-02-10T04:00:16.709Z</time>
      </trkpt>
      <trkpt lat="58.54986095800996" lon="13.336311941966414">
        <ele>102.7</ele>
        <time>2025-02-10T04:00:55.911Z</time>
      </trkpt>
      <trkpt lat="58.549899933859706" lon="13.336424930021167">
        <ele>102.77</ele>
        <time>2025-02-10T04:01:35.114Z</time>
      </trkpt>
      <trkpt lat="58.54993497021496" lon="13.33653992973268">
        <ele>102.85</ele>
        <time>2025-02-10T04:02:14.318Z</time>
      </trkpt>
      <trkpt lat="58.54996992275119" lon="13.336654929444194">
        <ele>102.92</ele>
        <time>2025-02-10T04:02:53.523Z</time>
      </trkpt>
      <trkpt lat="58.550002947449684" lon="13.33677495829761">
        <ele>102.99</ele>
        <time>2025-02-10T04:03:32.729Z</time>
      </trkpt>
      <trkpt lat="58.55003597214818" lon="13.336896998807788">
        <ele>103.07</ele>
        <time>2025-02-10T04:04:11.937Z</time>
      </trkpt>
      <trkpt lat="58.550069918856025" lon="13.337021972984076">
        <ele>103.15</ele>
        <time>2025-02-10T04:04:51.146Z</time>
      </trkpt>
      <trkpt lat="58.5501039493829" lon="13.337149964645505">
        <ele>103.24</ele>
        <time>2025-02-10T04:05:30.356Z</time>
      </trkpt>
      <trkpt lat="58.5501369740814" lon="13.337278962135315">
        <ele>103.32</ele>
        <time>2025-02-10T04:06:09.567Z</time>
      </trkpt>
      <trkpt lat="58.55016999877989" lon="13.337408965453506">
        <ele>103.41</ele>
        <time>2025-02-10T04:06:48.779Z</time>
      </trkpt>
      <trkpt lat="58.55020293965936" lon="13.337539974600077">
        <ele>103.5</ele>
        <time>2025-02-10T04:07:27.993Z</time>
      </trkpt>
      <trkpt lat="58.55023395270109" lon="13.337670983746648">
        <ele>103.6</ele>
        <time>2025-02-10T04:08:07.208Z</time>
      </trkpt>
      <trkpt lat="58.55026496574283" lon="13.3378029987216">
        <ele>103.69</ele>
        <time>2025-02-10T04:08:46.424Z</time>
      </trkpt>
      <trkpt lat="58.55029597878456" lon="13.337933924049139">
        <ele>103.79</ele>
        <time>2025-02-10T04:09:25.641Z</time>
      </trkpt>
      <trkpt lat="58.550325985997915" lon="13.33806392736733">
        <ele>103.88</ele>
        <time>2025-02-10T04:10:04.859Z</time>
      </trkpt>
      <trkpt lat="58.55035599321127" lon="13.33819292485714">
        <ele>103.98</ele>
        <time>2025-02-10T04:10:44.079Z</time>
      </trkpt>
      <trkpt lat="58.55038499459624" lon="13.33832292817533">
        <ele>104.08</ele>
        <time>2025-02-10T04:11:23.300Z</time>
      </trkpt>
      <trkpt lat="58.550415923818946" lon="13.33845192566514">
        <ele>104.19</ele>
        <time>2025-02-10T04:12:02.522Z</time>
      </trkpt>
      <trkpt lat="58.55044693686068" lon="13.33858092315495">
        <ele>104.29</ele>
        <time>2025-02-10T04:12:41.745Z</time>
      </trkpt>
      <trkpt lat="58.550476944074035" lon="13.33871092647314">
        <ele>104.41</ele>
        <time>2025-02-10T04:13:20.969Z</time>
      </trkpt>
      <trkpt lat="58.55050795711577" lon="13.33883891813457">
        <ele>104.52</ele>
        <time>2025-02-10T04:14:00.195Z</time>
      </trkpt>
      <trkpt lat="58.550538970157504" lon="13.338966993615031">
        <ele>104.63</ele>
        <time>2025-02-10T04:14:39.422Z</time>
      </trkpt>
      <trkpt lat="58.55056897737086" lon="13.339091967791319">
        <ele>104.75</ele>
        <time>2025-02-10T04:15:18.650Z</time>
      </trkpt>
      <trkpt lat="58.55059999041259" lon="13.339216941967607">
        <ele>104.87</ele>
        <time>2025-02-10T04:15:57.879Z</time>
      </trkpt>
      <trkpt lat="58.55062999762595" lon="13.339341999962926">
        <ele>104.99</ele>
        <time>2025-02-10T04:16:37.109Z</time>
      </trkpt>
      <trkpt lat="58.55066092684865" lon="13.339466974139214">
        <ele>105.12</ele>
        <time>2025-02-10T04:17:16.340Z</time>
      </trkpt>
      <trkpt lat="58.550690934062004" lon="13.33959094248712">
        <ele>105.24</ele>
        <time>2025-02-10T04:17:55.573Z</time>
      </trkpt>
      <trkpt lat="58.55072094127536" lon="13.33971499465406">
        <ele>105.37</ele>
        <time>2025-02-10T04:18:34.807Z</time>
      </trkpt>
      <trkpt lat="58.55075094848871" lon="13.339839968830347">
        <ele>105.49</ele>
        <time>2025-02-10T04:19:14.042Z</time>
      </trkpt>
      <trkpt lat="58.550780955702066" lon="13.339965948835015">
        <ele>105.62</ele>
        <time>2025-02-10T04:19:53.278Z</time>
      </trkpt>
      <trkpt lat="58.5508119687438" lon="13.340092934668064">
        <ele>105.75</ele>
        <time>2025-02-10T04:20:32.515Z</time>
      </trkpt>
      <trkpt lat="58.550842981785536" lon="13.340220926329494">
        <ele>105.89</ele>
        <time>2025-02-10T04:21:11.753Z</time>
      </trkpt>
      <trkpt lat="58.55087491683662" lon="13.340348917990923">
        <ele>106.03</ele>
        <time>2025-02-10T04:21:50.993Z</time>
      </trkpt>
      <trkpt lat="58.550906935706735" lon="13.340475987643003">
        <ele>106.17</ele>
        <time>2025-02-10T04:22:30.234Z</time>
      </trkpt>
      <trkpt lat="58.55093794874847" lon="13.340601967647672">
        <ele>106.31</ele>
        <time>2025-02-10T04:23:09.476Z</time>
      </trkpt>
      <trkpt lat="58.550968961790204" lon="13.34072794765234">
        <ele>106.46</ele>
        <time>2025-02-10T04:23:48.719Z</time>
      </trkpt>
      <trkpt lat="58.55099796317518" lon="13.340850993990898">
        <ele>106.6</ele>
        <time>2025-02-10T04:24:27.963Z</time>
      </trkpt>
      <trkpt lat="58.55102696456015" lon="13.340972950682044">
        <ele>106.75</ele>
        <time>2025-02-10T04:25:07.208Z</time>
      </trkpt>
      <trkpt lat="58.551056971773505" lon="13.341093985363841">
        <ele>106.9</ele>
        <time>2025-02-10T04:25:46.454Z</time>
      </trkpt>
      <trkpt lat="58.55108597315848" lon="13.341216947883368">
        <ele>107.05</ele>
        <time>2025-02-10T04:26:25.702Z</time>
      </trkpt>
      <trkpt lat="58.55111698620021" lon="13.341338988393545">
        <ele>107.2</ele>
        <time>2025-02-10T04:27:04.951Z</time>
      </trkpt>
      <trkpt lat="58.55114699341357" lon="13.341460945084691">
        <ele>107.36</ele>
        <time>2025-02-10T04:27:44.201Z</time>
      </trkpt>
      <trkpt lat="58.55117691680789" lon="13.341582985594869">
        <ele>107.52</ele>
        <time>2025-02-10T04:28:23.452Z</time>
      </trkpt>
      <trkpt lat="58.551206924021244" lon="13.341704942286015">
        <ele>107.68</ele>
        <time>2025-02-10T04:29:02.704Z</time>
      </trkpt>
      <trkpt lat="58.55123592540622" lon="13.341826982796192">
        <ele>107.85</ele>
        <time>2025-02-10T04:29:41.957Z</time>
      </trkpt>
      <trkpt lat="58.55126492679119" lon="13.341946927830577">
        <ele>108.01</ele>
        <time>2025-02-10T04:30:21.211Z</time>
      </trkpt>
      <trkpt lat="58.551293928176165" lon="13.342066956683993">
        <ele>108.18</ele>
        <time>2025-02-10T04:31:00.466Z</time>
      </trkpt>
      <trkpt lat="58.55132192373276" lon="13.342184973880649">
        <ele>108.35</ele>
        <time>2025-02-10T04:31:39.723Z</time>
      </trkpt>
      <trkpt lat="58.55134799145162" lon="13.342300979420543">
        <ele>108.52</ele>
        <time>2025-02-10T04:32:18.981Z</time>
      </trkpt>
      <trkpt lat="58.55137498117983" lon="13.342413967475295">
        <ele>108.69</ele>
        <time>2025-02-10T04:32:58.240Z</time>
      </trkpt>
      <trkpt lat="58.551401970908046" lon="13.342524943873286">
        <ele>108.86</ele>
        <time>2025-02-10T04:33:37.500Z</time>
      </trkpt>
      <trkpt lat="58.55142795480788" lon="13.342633992433548">
        <ele>109.04</ele>
        <time>2025-02-10T04:34:16.761Z</time>
      </trkpt>
      <trkpt lat="58.55145393870771" lon="13.342739939689636">
        <ele>109.22</ele>
        <time>2025-02-10T04:34:56.023Z</time>
      </trkpt>
      <trkpt lat="58.55147891677916" lon="13.342844964936376">
        <ele>109.39</ele>
        <time>2025-02-10T04:35:35.286Z</time>
      </trkpt>
      <trkpt lat="58.551504984498024" lon="13.342948984354734">
        <ele>109.57</ele>
        <time>2025-02-10T04:36:14.550Z</time>
      </trkpt>
      <trkpt lat="58.551529962569475" lon="13.343050992116332">
        <ele>109.76</ele>
        <time>2025-02-10T04:36:53.815Z</time>
      </trkpt>
      <trkpt lat="58.55155594646931" lon="13.343151994049549">
        <ele>109.94</ele>
        <time>2025-02-10T04:37:33.080Z</time>
      </trkpt>
      <trkpt lat="58.5515839420259" lon="13.343251990154386">
        <ele>110.13</ele>
        <time>2025-02-10T04:38:12.346Z</time>
      </trkpt>
      <trkpt lat="58.55161193758249" lon="13.343351986259222">
        <ele>110.32</ele>
        <time>2025-02-10T04:38:51.613Z</time>
      </trkpt>
      <trkpt lat="58.551639933139086" lon="13.343447959050536">
        <ele>110.5</ele>
        <time>2025-02-10T04:39:30.881Z</time>
      </trkpt>
      <trkpt lat="58.55166893452406" lon="13.34354292601347">
        <ele>110.69</ele>
        <time>2025-02-10T04:40:10.150Z</time>
      </trkpt>
      <trkpt lat="58.551699947565794" lon="13.343636970967054">
        <ele>110.88</ele>
        <time>2025-02-10T04:40:49.420Z</time>
      </trkpt>
      <trkpt lat="58.55173196643591" lon="13.343726992607117">
        <ele>111.07</ele>
        <time>2025-02-10T04:41:28.691Z</time>
      </trkpt>
      <trkpt lat="58.551763985306025" lon="13.343812990933657">
        <ele>111.26</ele>
        <time>2025-02-10T04:42:07.963Z</time>
      </trkpt>
      <trkpt lat="58.55180094949901" lon="13.343897983431816">
        <ele>111.45</ele>
        <time>2025-02-10T04:42:47.236Z</time>
      </trkpt>
      <trkpt lat="58.55184193700552" lon="13.343983981758356">
        <ele>111.64</ele>
        <time>2025-02-10T04:43:26.510Z</time>
      </trkpt>
      <trkpt lat="58.55188594199717" lon="13.344065956771374">
        <ele>111.83</ele>
        <time>2025-02-10T04:44:05.785Z</time>
      </trkpt>
      <trkpt lat="58.551934976130724" lon="13.344147931784391">
        <ele>112.03</ele>
        <time>2025-02-10T04:44:45.061Z</time>
      </trkpt>
      <trkpt lat="58.551983926445246" lon="13.344226973131299">
        <ele>112.22</ele>
        <time>2025-02-10T04:45:24.338Z</time>
      </trkpt>
      <trkpt lat="58.55203396640718" lon="13.344307942315936">
        <ele>112.41</ele>
        <time>2025-02-10T04:46:03.616Z</time>
      </trkpt>
      <trkpt lat="58.552086940035224" lon="13.344389917328954">
        <ele>112.61</ele>
        <time>2025-02-10T04:46:42.895Z</time>
      </trkpt>
      <trkpt lat="58.55214293114841" lon="13.344472981989384">
        <ele>112.81</ele>
        <time>2025-02-10T04:47:22.175Z</time>
      </trkpt>
      <trkpt lat="58.552199928089976" lon="13.34455294534564">
        <ele>113.01</ele>
        <time>2025-02-10T04:48:01.456Z</time>
      </trkpt>
      <trkpt lat="58.55225591920316" lon="13.344630980864167">
        <ele>113.22</ele>
        <time>2025-02-10T04:48:40.738Z</time>
      </trkpt>
      <trkpt lat="58.55231492780149" lon="13.344706920906901">
        <ele>113.42</ele>
        <time>2025-02-10T04:49:20.022Z</time>
      </trkpt>
      <trkpt lat="58.55237393639982" lon="13.344778921455145">
        <ele>113.61</ele>
        <time>2025-02-10T04:49:59.307Z</time>
      </trkpt>
      <trkpt lat="58.552430933341384" lon="13.344850922003388">
        <ele>113.81</ele>
        <time>2025-02-10T04:50:38.593Z</time>
      </trkpt>
      <trkpt lat="58.55248893611133" lon="13.344922922551632">
        <ele>114.0</ele>
        <time>2025-02-10T04:51:17.880Z</time>
      </trkpt>
      <trkpt lat="58.55254995636642" lon="13.344989977777004">
        <ele>114.2</ele>
        <time>2025-02-10T04:51:57.168Z</time>
      </trkpt>
      <trkpt lat="58.55261198244989" lon="13.345058960840106">
        <ele>114.39</ele>
        <time>2025-02-10T04:52:36.457Z</time>
      </trkpt>
      <trkpt lat="58.55267392471433" lon="13.345129955559969">
        <ele>114.59</ele>
        <time>2025-02-10T04:53:15.747Z</time>
      </trkpt>
      <trkpt lat="58.552734944969416" lon="13.345202961936593">
        <ele>114.79</ele>
        <time>2025-02-10T04:53:55.038Z</time>
      </trkpt>
      <trkpt lat="58.552795965224504" lon="13.34527999162674">
        <ele>114.99</ele>
        <time>2025-02-10T04:54:34.331Z</time>
      </trkpt>
      <trkpt lat="58.55285597965121" lon="13.345355931669474">
        <ele>115.19</ele>
        <time>2025-02-10T04:55:13.625Z</time>
      </trkpt>
      <trkpt lat="58.55291892774403" lon="13.34543296135962">
        <ele>115.4</ele>
        <time>2025-02-10T04:55:52.920Z</time>
      </trkpt>
      <trkpt lat="58.55298195965588" lon="13.345506973564625">
        <ele>115.6</ele>
        <time>2025-02-10T04:56:32.216Z</time>
      </trkpt>
      <trkpt lat="58.55304691940546" lon="13.34558391943574">
        <ele>115.81</ele>
        <time>2025-02-10T04:57:11.513Z</time>
      </trkpt>
      <trkpt lat="58.55311296880245" lon="13.345661954954267">
        <ele>116.02</ele>
        <time>2025-02-10T04:57:50.812Z</time>
      </trkpt>
      <trkpt lat="58.55317893438041" lon="13.34573395550251">
        <ele>116.22</ele>
        <time>2025-02-10T04:58:30.112Z</time>
      </trkpt>
      <trkpt lat="58.553245989605784" lon="13.34579698741436">
        <ele>116.42</ele>
        <time>2025-02-10T04:59:09.413Z</time>
      </trkpt>
      <trkpt lat="58.553313966840506" lon="13.345857923850417">
        <ele>116.63</ele>
        <time>2025-02-10T04:59:48.715Z</time>
      </trkpt>
      <trkpt lat="58.55338194407523" lon="13.345913998782635">
        <ele>116.83</ele>
        <time>2025-02-10T05:00:28.018Z</time>
      </trkpt>
      <trkpt lat="58.55345092713833" lon="13.345966972410679">
        <ele>117.04</ele>
        <time>2025-02-10T05:01:07.323Z</time>
      </trkpt>
      <trkpt lat="58.55352393351495" lon="13.34601491689682">
        <ele>117.24</ele>
        <time>2025-02-10T05:01:46.629Z</time>
      </trkpt>
      <trkpt lat="58.553592916578054" lon="13.346061939373612">
        <ele>117.44</ele>
        <time>2025-02-10T05:02:25.936Z</time>
      </trkpt>
      <trkpt lat="58.5536649171263" lon="13.346105944365263">
        <ele>117.64</ele>
        <time>2025-02-10T05:03:05.244Z</time>
      </trkpt>
      <trkpt lat="58.55373792350292" lon="13.346148943528533">
        <ele>117.84</ele>
        <time>2025-02-10T05:03:44.554Z</time>
      </trkpt>
      <trkpt lat="58.553808918222785" lon="13.346194960176945">
        <ele>118.04</ele>
        <time>2025-02-10T05:04:23.865Z</time>
      </trkpt>
      <trkpt lat="58.55387999676168" lon="13.346240976825356">
        <ele>118.24</ele>
        <time>2025-02-10T05:05:03.177Z</time>
      </trkpt>
      <trkpt lat="58.55395291931927" lon="13.346284981817007">
        <ele>118.44</ele>
        <time>2025-02-10T05:05:42.490Z</time>
      </trkpt>
      <trkpt lat="58.554024919867516" lon="13.346323957666755">
        <ele>118.64</ele>
        <time>2025-02-10T05:06:21.804Z</time>
      </trkpt>
      <trkpt lat="58.55409499257803" lon="13.346365951001644">
        <ele>118.83</ele>
        <time>2025-02-10T05:07:01.120Z</time>
      </trkpt>
      <trkpt lat="58.55416699312627" lon="13.346407944336534">
        <ele>119.03</ele>
        <time>2025-02-10T05:07:40.437Z</time>
      </trkpt>
      <trkpt lat="58.554237987846136" lon="13.346446920186281">
        <ele>119.23</ele>
        <time>2025-02-10T05:08:19.755Z</time>
      </trkpt>
      <trkpt lat="58.55430998839438" lon="13.346480950713158">
        <ele>119.43</ele>
        <time>2025-02-10T05:08:59.074Z</time>
      </trkpt>
      <trkpt lat="58.55438391678035" lon="13.346511963754892">
        <ele>119.63</ele>
        <time>2025-02-10T05:09:38.394Z</time>
      </trkpt>
      <trkpt lat="58.55445692315698" lon="13.346536941826344">
        <ele>119.82</ele>
        <time>2025-02-10T05:10:17.716Z</time>
      </trkpt>
      <trkpt lat="58.55453194119036" lon="13.346553957089782">
        <ele>120.02</ele>
        <time>2025-02-10T05:10:57.039Z</time>
      </trkpt>
      <trkpt lat="58.554604947566986" lon="13.346563931554556">
        <ele>120.22</ele>
        <time>2025-02-10T05:11:36.363Z</time>
      </trkpt>
      <trkpt lat="58.55467594228685" lon="13.346567954868078">
        <ele>120.42</ele>
        <time>2025-02-10T05:12:15.688Z</time>
      </trkpt>
      <trkpt lat="58.55474593117833" lon="13.346567954868078">
        <ele>120.62</ele>
        <time>2025-02-10T05:12:55.014Z</time>
      </trkpt>
      <trkpt lat="58.554815920069814" lon="13.346565943211317">
        <ele>120.82</ele>
        <time>2025-02-10T05:13:34.341Z</time>
      </trkpt>
      <trkpt lat="58.55488599278033" lon="13.346562925726175">
        <ele>121.02</ele>
        <time>2025-02-10T05:14:13.669Z</time>
      </trkpt>
      <trkpt lat="58.55495598167181" lon="13.346558986231685">
        <ele>121.23</ele>
        <time>2025-02-10T05:14:52.999Z</time>
      </trkpt>
      <trkpt lat="58.55502496473491" lon="13.346553957089782">
        <ele>121.43</ele>
        <time>2025-02-10T05:15:32.330Z</time>
      </trkpt>
      <trkpt lat="58.55509193614125" lon="13.34654993377626">
        <ele>121.63</ele>
        <time>2025-02-10T05:16:11.662Z</time>
      </trkpt>
      <trkpt lat="58.555157985538244" lon="13.34654993377626">
        <ele>121.82</ele>
        <time>2025-02-10T05:16:50.995Z</time>
      </trkpt>
      <trkpt lat="58.55521992780268" lon="13.346552951261401">
        <ele>122.02</ele>
        <time>2025-02-10T05:17:30.329Z</time>
      </trkpt>
      <trkpt lat="58.55528195388615" lon="13.34655194543302">
        <ele>122.22</ele>
        <time>2025-02-10T05:18:09.664Z</time>
      </trkpt>
      <trkpt lat="58.55534699745476" lon="13.346545994281769">
        <ele>122.42</ele>
        <time>2025-02-10T05:18:49.000Z</time>
      </trkpt>
      <trkpt lat="58.55541296303272" lon="13.346538953483105">
        <ele>122.61</ele>
        <time>2025-02-10T05:19:28.337Z</time>
      </trkpt>
      <trkpt lat="58.55547498911619" lon="13.346534930169582">
        <ele>122.81</ele>
        <time>2025-02-10T05:20:07.675Z</time>
      </trkpt>
      <trkpt lat="58.55553693138063" lon="13.346534930169582">
        <ele>123.0</ele>
        <time>2025-02-10T05:20:47.014Z</time>
      </trkpt>
      <trkpt lat="58.55560197494924" lon="13.346531996503472">
        <ele>123.19</ele>
        <time>2025-02-10T05:21:26.354Z</time>
      </trkpt>
      <trkpt lat="58.55566693469882" lon="13.346531996503472">
        <ele>123.37</ele>
        <time>2025-02-10T05:22:05.695Z</time>
      </trkpt>
      <trkpt lat="58.55573398992419" lon="13.346531996503472">
        <ele>123.55</ele>
        <time>2025-02-10T05:22:45.037Z</time>
      </trkpt>
      <trkpt lat="58.55579995550215" lon="13.346531996503472">
        <ele>123.73</ele>
        <time>2025-02-10T05:23:24.380Z</time>
      </trkpt>
      <trkpt lat="58.555867932736874" lon="13.346530990675092">
        <ele>123.91</ele>
        <time>2025-02-10T05:24:03.724Z</time>
      </trkpt>
      <trkpt lat="58.555931970477104" lon="13.346530990675092">
        <ele>124.09</ele>
        <time>2025-02-10T05:24:43.069Z</time>
      </trkpt>
      <trkpt lat="58.5559959243983" lon="13.346525961533189">
        <ele>124.27</ele>
        <time>2025-02-10T05:25:22.415Z</time>
      </trkpt>
      <trkpt lat="58.55605895631015" lon="13.346524955704808">
        <ele>124.45</ele>
        <time>2025-02-10T05:26:01.762Z</time>
      </trkpt>
      <trkpt lat="58.556123999878764" lon="13.346524955704808">
        <ele>124.63</ele>
        <time>2025-02-10T05:26:41.110Z</time>
      </trkpt>
      <trkpt lat="58.556189965456724" lon="13.346521938219666">
        <ele>124.81</ele>
        <time>2025-02-10T05:27:20.459Z</time>
      </trkpt>
      <trkpt lat="58.55625098571181" lon="13.346517998725176">
        <ele>124.99</ele>
        <time>2025-02-10T05:27:59.809Z</time>
      </trkpt>
      <trkpt lat="58.55630999431014" lon="13.346520932391286">
        <ele>125.17</ele>
        <time>2025-02-10T05:28:39.160Z</time>
      </trkpt>
      <trkpt lat="58.55636799708009" lon="13.34652797318995">
        <ele>125.34</ele>
        <time>2025-02-10T05:29:18.512Z</time>
      </trkpt>
      <trkpt lat="58.556425999850035" lon="13.346537947654724">
        <ele>125.52</ele>
        <time>2025-02-10T05:29:57.865Z</time>
      </trkpt>
      <trkpt lat="58.55647997930646" lon="13.34655093960464">
        <ele>125.69</ele>
        <time>2025-02-10T05:30:37.219Z</time>
      </trkpt>
      <trkpt lat="58.556532952934504" lon="13.34656996652484">
        <ele>125.87</ele>
        <time>2025-02-10T05:31:16.574Z</time>
      </trkpt>
      <trkpt lat="58.55658299289644" lon="13.346587987616658">
        <ele>126.04</ele>
        <time>2025-02-10T05:31:55.930Z</time>
      </trkpt>
      <trkpt lat="58.55663395486772" lon="13.346604919061065">
        <ele>126.21</ele>
        <time>2025-02-10T05:32:35.287Z</time>
      </trkpt>
      <trkpt lat="58.556685922667384" lon="13.346631992608309">
        <ele>126.38</ele>
        <time>2025-02-10T05:33:14.644Z</time>
      </trkpt>
      <trkpt lat="58.55673596262932" lon="13.346662921831012">
        <ele>126.54</ele>
        <time>2025-02-10T05:33:54.002Z</time>
      </trkpt>
      <trkpt lat="58.55677996762097" lon="13.34669996984303">
        <ele>126.71</ele>
        <time>2025-02-10T05:34:33.361Z</time>
      </trkpt>
      <trkpt lat="58.556816931813955" lon="13.346734922379255">
        <ele>126.87</ele>
        <time>2025-02-10T05:35:12.721Z</time>
      </trkpt>
      <trkpt lat="58.55684995651245" lon="13.346771970391273">
        <ele>127.03</ele>
        <time>2025-02-10T05:35:52.081Z</time>
      </trkpt>
      <trkpt lat="58.55688599869609" lon="13.34680994041264">
        <ele>127.18</ele>
        <time>2025-02-10T05:36:31.442Z</time>
      </trkpt>
      <trkpt lat="58.556921957060695" lon="13.34685092791915">
        <ele>127.34</ele>
        <time>2025-02-10T05:37:10.804Z</time>
      </trkpt>
      <trkpt lat="58.55695699341595" lon="13.346892921254039">
        <ele>127.49</ele>
        <time>2025-02-10T05:37:50.166Z</time>
      </trkpt>
      <trkpt lat="58.55699295178056" lon="13.346940949559212">
        <ele>127.64</ele>
        <time>2025-02-10T05:38:29.529Z</time>
      </trkpt>
      <trkpt lat="58.557027988135815" lon="13.346986966207623">
        <ele>127.79</ele>
        <time>2025-02-10T05:39:08.893Z</time>
      </trkpt>
      <trkpt lat="58.55706696398556" lon="13.34704295732081">
        <ele>127.94</ele>
        <time>2025-02-10T05:39:48.257Z</time>
      </trkpt>
      <trkpt lat="58.55710895732045" lon="13.34710598923266">
        <ele>128.09</ele>
        <time>2025-02-10T05:40:27.622Z</time>
      </trkpt>
      <trkpt lat="58.55715095065534" lon="13.347172960639">
        <ele>128.24</ele>
        <time>2025-02-10T05:41:06.988Z</time>
      </trkpt>
      <trkpt lat="58.55719495564699" lon="13.347240937873721">
        <ele>128.38</ele>
        <time>2025-02-10T05:41:46.355Z</time>
      </trkpt>
      <trkpt lat="58.5572359431535" lon="13.347310926765203">
        <ele>128.52</ele>
        <time>2025-02-10T05:42:25.723Z</time>
      </trkpt>
      <trkpt lat="58.55727299116552" lon="13.347379993647337">
        <ele>128.66</ele>
        <time>2025-02-10T05:43:05.092Z</time>
      </trkpt>
      <trkpt lat="58.557308949530125" lon="13.3474509883672">
        <ele>128.8</ele>
        <time>2025-02-10T05:43:44.462Z</time>
      </trkpt>
      <trkpt lat="58.55734993703663" lon="13.347528940066695">
        <ele>128.94</ele>
        <time>2025-02-10T05:44:23.833Z</time>
      </trkpt>
      <trkpt lat="58.55739092454314" lon="13.347608987241983">
        <ele>129.08</ele>
        <time>2025-02-10T05:45:03.204Z</time>
      </trkpt>
      <trkpt lat="58.55743291787803" lon="13.347686938941479">
        <ele>129.21</ele>
        <time>2025-02-10T05:45:42.576Z</time>
      </trkpt>
      <trkpt lat="58.55747298337519" lon="13.347758939489722">
        <ele>129.34</ele>
        <time>2025-02-10T05:46:21.949Z</time>
      </trkpt>
      <trkpt lat="58.55751195922494" lon="13.347826916724443">
        <ele>129.47</ele>
        <time>2025-02-10T05:47:01.323Z</time>
      </trkpt>
      <trkpt lat="58.557546995580196" lon="13.347891960293055">
        <ele>129.6</ele>
        <time>2025-02-10T05:47:40.698Z</time>
      </trkpt>
      <trkpt lat="58.557586977258325" lon="13.347959937527776">
        <ele>129.72</ele>
        <time>2025-02-10T05:48:20.074Z</time>
      </trkpt>
      <trkpt lat="58.55762595310807" lon="13.3480329439044">
        <ele>129.84</ele>
        <time>2025-02-10T05:48:59.451Z</time>
      </trkpt>
      <trkpt lat="58.55766794644296" lon="13.348107961937785">
        <ele>129.96</ele>
        <time>2025-02-10T05:49:38.829Z</time>
      </trkpt>
      <trkpt lat="58.55771094560623" lon="13.348184991627932">
        <ele>130.08</ele>
        <time>2025-02-10T05:50:18.208Z</time>
      </trkpt>
      <trkpt lat="58.55774992145598" lon="13.348264954984188">
        <ele>130.2</ele>
        <time>2025-02-10T05:50:57.587Z</time>
      </trkpt>
      <trkpt lat="58.557786969468" lon="13.348349947482347">
        <ele>130.31</ele>
        <time>2025-02-10T05:51:36.967Z</time>
      </trkpt>
      <trkpt lat="58.557825945317745" lon="13.34843896329403">
        <ele>130.42</ele>
        <time>2025-02-10T05:52:16.348Z</time>
      </trkpt>
      <trkpt lat="58.557867938652635" lon="13.34852596744895">
        <ele>130.53</ele>
        <time>2025-02-10T05:52:55.730Z</time>
      </trkpt>
      <trkpt lat="58.557909931987524" lon="13.348603919148445">
        <ele>130.63</ele>
        <time>2025-02-10T05:53:35.113Z</time>
      </trkpt>
      <trkpt lat="58.557955948635936" lon="13.34867793135345">
        <ele>130.74</ele>
        <time>2025-02-10T05:54:14.497Z</time>
      </trkpt>
      <trkpt lat="58.557997941970825" lon="13.348751943558455">
        <ele>130.84</ele>
        <time>2025-02-10T05:54:53.882Z</time>
      </trkpt>
      <trkpt lat="58.55803792364895" lon="13.348835930228233">
        <ele>130.95</ele>
        <time>2025-02-10T05:55:33.268Z</time>
      </trkpt>
      <trkpt lat="58.55807698331773" lon="13.348924946039915">
        <ele>131.04</ele>
        <time>2025-02-10T05:56:12.655Z</time>
      </trkpt>
      <trkpt lat="58.55811696499586" lon="13.349012956023216">
        <ele>131.14</ele>
        <time>2025-02-10T05:56:52.043Z</time>
      </trkpt>
      <trkpt lat="58.55815795250237" lon="13.349101971834898">
        <ele>131.23</ele>
        <time>2025-02-10T05:57:31.432Z</time>
      </trkpt>
      <trkpt lat="58.55820095166564" lon="13.34919098764658">
        <ele>131.33</ele>
        <time>2025-02-10T05:58:10.822Z</time>
      </trkpt>
      <trkpt lat="58.55824495665729" lon="13.3492779918015">
        <ele>131.42</ele>
        <time>2025-02-10T05:58:50.213Z</time>
      </trkpt>
      <trkpt lat="58.55828795582056" lon="13.34936591796577">
        <ele>131.51</ele>
        <time>2025-02-10T05:59:29.605Z</time>
      </trkpt>
      <trkpt lat="58.55833196081221" lon="13.349456945434213">
        <ele>131.6</ele>
        <time>2025-02-10T06:00:08.998Z</time>
      </trkpt>
      <trkpt lat="58.55837294831872" lon="13.349550990387797">
        <ele>131.69</ele>
        <time>2025-02-10T06:00:48.392Z</time>
      </trkpt>
      <trkpt lat="58.55842097662389" lon="13.349635982885957">
        <ele>131.78</ele>
        <time>2025-02-10T06:01:27.787Z</time>
      </trkpt>
      <trkpt lat="58.558468921110034" lon="13.349720975384116">
        <ele>131.86</ele>
        <time>2025-02-10T06:02:07.183Z</time>
      </trkpt>
      <trkpt lat="58.558515943586826" lon="13.349800938740373">
        <ele>131.94</ele>
        <time>2025-02-10T06:02:46.580Z</time>
      </trkpt>
      <trkpt lat="58.55856196023524" lon="13.3498789742589">
        <ele>132.02</ele>
        <time>2025-02-10T06:03:25.978Z</time>
      </trkpt>
      <trkpt lat="58.55860797688365" lon="13.349952986463904">
        <ele>132.1</ele>
        <time>2025-02-10T06:04:05.377Z</time>
      </trkpt>
      <trkpt lat="58.55865499936044" lon="13.350023981183767">
        <ele>132.17</ele>
        <time>2025-02-10T06:04:44.777Z</time>
      </trkpt>
      <trkpt lat="58.558705961331725" lon="13.350089946761727">
        <ele>132.25</ele>
        <time>2025-02-10T06:05:24.178Z</time>
      </trkpt>
      <trkpt lat="58.55875994078815" lon="13.350148955360055">
        <ele>132.32</ele>
        <time>2025-02-10T06:06:03.580Z</time>
      </trkpt>
      <trkpt lat="58.558816937729716" lon="13.350201928988099">
        <ele>132.39</ele>
        <time>2025-02-10T06:06:42.983Z</time>
      </trkpt>
      <trkpt lat="58.558875946328044" lon="13.350249957293272">
        <ele>132.46</ele>
        <time>2025-02-10T06:07:22.387Z</time>
      </trkpt>
      <trkpt lat="58.55893797241151" lon="13.350291950628161">
        <ele>132.53</ele>
        <time>2025-02-10T06:08:01.792Z</time>
      </trkpt>
      <trkpt lat="58.5589989926666" lon="13.350321957841516">
        <ele>132.59</ele>
        <time>2025-02-10T06:08:41.198Z</time>
      </trkpt>
      <trkpt lat="58.55905992910266" lon="13.350344924256206">
        <ele>132.66</ele>
        <time>2025-02-10T06:09:20.605Z</time>
      </trkpt>
      <trkpt lat="58.55912094935775" lon="13.350366968661547">
        <ele>132.72</ele>
        <time>2025-02-10T06:10:00.013Z</time>
      </trkpt>
      <trkpt lat="58.559180963784456" lon="13.35037694312632">
        <ele>132.78</ele>
        <time>2025-02-10T06:10:39.422Z</time>
      </trkpt>
      <trkpt lat="58.559239972382784" lon="13.35037493146956">
        <ele>132.84</ele>
        <time>2025-02-10T06:11:18.832Z</time>
      </trkpt>
      <trkpt lat="58.55929696932435" lon="13.350361939519644">
        <ele>132.91</ele>
        <time>2025-02-10T06:11:58.243Z</time>
      </trkpt>
      <trkpt lat="58.559352960437536" lon="13.350343918427825">
        <ele>132.97</ele>
        <time>2025-02-10T06:12:37.655Z</time>
      </trkpt>
      <trkpt lat="58.55940895155072" lon="13.350321957841516">
        <ele>133.02</ele>
        <time>2025-02-10T06:13:17.068Z</time>
      </trkpt>
      <trkpt lat="58.55946293100715" lon="13.350295973941684">
        <ele>133.08</ele>
        <time>2025-02-10T06:13:56.482Z</time>
      </trkpt>
      <trkpt lat="58.5595169942826" lon="13.350272923707962">
        <ele>133.14</ele>
        <time>2025-02-10T06:14:35.897Z</time>
      </trkpt>
      <trkpt lat="58.55957298539579" lon="13.350251968950033">
        <ele>133.19</ele>
        <time>2025-02-10T06:15:15.313Z</time>
      </trkpt>
      <trkpt lat="58.559630988165736" lon="13.350231936201453">
        <ele>133.24</ele>
        <time>2025-02-10T06:15:54.730Z</time>
      </trkpt>
      <trkpt lat="58.559689996764064" lon="13.350213998928666">
        <ele>133.29</ele>
        <time>2025-02-10T06:16:34.148Z</time>
      </trkpt>
      <trkpt lat="58.55974892154336" lon="13.350198995321989">
        <ele>133.34</ele>
        <time>2025-02-10T06:17:13.566Z</time>
      </trkpt>
      <trkpt lat="58.559805918484926" lon="13.350185919553041">
        <ele>133.39</ele>
        <time>2025-02-10T06:17:52.985Z</time>
      </trkpt>
      <trkpt lat="58.55985998176038" lon="13.350172927603126">
        <ele>133.44</ele>
        <time>2025-02-10T06:18:32.405Z</time>
      </trkpt>
      <trkpt lat="58.55991295538843" lon="13.35016094148159">
        <ele>133.49</ele>
        <time>2025-02-10T06:19:11.826Z</time>
      </trkpt>
      <trkpt lat="58.55996492318809" lon="13.350150967016816">
        <ele>133.53</ele>
        <time>2025-02-10T06:19:51.248Z</time>
      </trkpt>
      <trkpt lat="58.560016974806786" lon="13.350141998380423">
        <ele>133.58</ele>
        <time>2025-02-10T06:20:30.671Z</time>
      </trkpt>
      <trkpt lat="58.56006994843483" lon="13.350134957581758">
        <ele>133.62</ele>
        <time>2025-02-10T06:21:10.095Z</time>
      </trkpt>
      <trkpt lat="58.560123927891254" lon="13.350132945924997">
        <ele>133.67</ele>
        <time>2025-02-10T06:21:49.520Z</time>
      </trkpt>
      <trkpt lat="58.56017899699509" lon="13.350134957581758">
        <ele>133.71</ele>
        <time>2025-02-10T06:22:28.945Z</time>
      </trkpt>
      <trkpt lat="58.56023699976504" lon="13.350139986723661">
        <ele>133.75</ele>
        <time>2025-02-10T06:23:08.371Z</time>
      </trkpt>
      <trkpt lat="58.560297936201096" lon="13.350147949531674">
        <ele>133.79</ele>
        <time>2025-02-10T06:23:47.798Z</time>
      </trkpt>
      <trkpt lat="58.560360968112946" lon="13.350153984501958">
        <ele>133.83</ele>
        <time>2025-02-10T06:24:27.226Z</time>
      </trkpt>
      <trkpt lat="58.560421988368034" lon="13.350163958966732">
        <ele>133.87</ele>
        <time>2025-02-10T06:25:06.655Z</time>
      </trkpt>
      <trkpt lat="58.56047999113798" lon="13.35017996840179">
        <ele>133.91</ele>
        <time>2025-02-10T06:25:46.085Z</time>
      </trkpt>
      <trkpt lat="58.56053899973631" lon="13.350197989493608">
        <ele>133.94</ele>
        <time>2025-02-10T06:26:25.516Z</time>
      </trkpt>
      <trkpt lat="58.560597924515605" lon="13.350218944251537">
        <ele>133.98</ele>
        <time>2025-02-10T06:27:04.948Z</time>
      </trkpt>
      <trkpt lat="58.560658944770694" lon="13.350238977000117">
        <ele>134.02</ele>
        <time>2025-02-10T06:27:44.381Z</time>
      </trkpt>
      <trkpt lat="58.56071996502578" lon="13.350256998091936">
        <ele>134.05</ele>
        <time>2025-02-10T06:28:23.815Z</time>
      </trkpt>
      <trkpt lat="58.56077997945249" lon="13.350270995870233">
        <ele>134.09</ele>
        <time>2025-02-10T06:29:03.250Z</time>
      </trkpt>
      <trkpt lat="58.56083697639406" lon="13.35028893314302">
        <ele>134.12</ele>
        <time>2025-02-10T06:29:42.686Z</time>
      </trkpt>
      <trkpt lat="58.560893973335624" lon="13.3503089658916">
        <ele>134.16</ele>
        <time>2025-02-10T06:30:22.123Z</time>
      </trkpt>
      <trkpt lat="58.56095197610557" lon="13.350326986983418">
        <ele>134.2</ele>
        <time>2025-02-10T06:31:01.561Z</time>
      </trkpt>
      <trkpt lat="58.56100897304714" lon="13.350344924256206">
        <ele>134.24</ele>
        <time>2025-02-10T06:31:41.000Z</time>
      </trkpt>
      <trkpt lat="58.561068987473845" lon="13.350360933691263">
        <ele>134.27</ele>
        <time>2025-02-10T06:32:20.440Z</time>
      </trkpt>
      <trkpt lat="58.5611299239099" lon="13.35037593729794">
        <ele>134.31</ele>
        <time>2025-02-10T06:32:59.881Z</time>
      </trkpt>
      <trkpt lat="58.561194967478514" lon="13.350389935076237">
        <ele>134.35</ele>
        <time>2025-02-10T06:33:39.323Z</time>
      </trkpt>
      <trkpt lat="58.561261938884854" lon="13.350401921197772">
        <ele>134.39</ele>
        <time>2025-02-10T06:34:18.766Z</time>
      </trkpt>
      <trkpt lat="58.561326982453465" lon="13.35041893646121">
        <ele>134.42</ele>
        <time>2025-02-10T06:34:58.210Z</time>
      </trkpt>
      <trkpt lat="58.561392948031425" lon="13.350441986694932">
        <ele>134.46</ele>
        <time>2025-02-10T06:35:37.655Z</time>
      </trkpt>
      <trkpt lat="58.561459919437766" lon="13.350475933402777">
        <ele>134.5</ele>
        <time>2025-02-10T06:36:17.101Z</time>
      </trkpt>
      <trkpt lat="58.56152697466314" lon="13.350509963929653">
        <ele>134.54</ele>
        <time>2025-02-10T06:36:56.548Z</time>
      </trkpt>
      <trkpt lat="58.5615929402411" lon="13.350540976971388">
        <ele>134.57</ele>
        <time>2025-02-10T06:37:35.996Z</time>
      </trkpt>
      <trkpt lat="58.56165898963809" lon="13.35056696087122">
        <ele>134.61</ele>
        <time>2025-02-10T06:38:15.445Z</time>
      </trkpt>
      <trkpt lat="58.56172394938767" lon="13.350594956427813">
        <ele>134.64</ele>
        <time>2025-02-10T06:38:54.896Z</time>
      </trkpt>
      <trkpt lat="58.56178597547114" lon="13.35063099861145">
        <ele>134.68</ele>
        <time>2025-02-10T06:39:34.348Z</time>
      </trkpt>
      <trkpt lat="58.56184992939234" lon="13.350670980289578">
        <ele>134.72</ele>
        <time>2025-02-10T06:40:13.801Z</time>
      </trkpt>
      <trkpt lat="58.56191195547581" lon="13.35071599110961">
        <ele>134.76</ele>
        <time>2025-02-10T06:40:53.255Z</time>
      </trkpt>
      <trkpt lat="58.561972975730896" lon="13.350760918110609">
        <ele>134.8</ele>
        <time>2025-02-10T06:41:32.710Z</time>
      </trkpt>
      <trkpt lat="58.562034917995334" lon="13.350807940587401">
        <ele>134.84</ele>
        <time>2025-02-10T06:42:12.166Z</time>
      </trkpt>
      <trkpt lat="58.5620969440788" lon="13.350851945579052">
        <ele>134.88</ele>
        <time>2025-02-10T06:42:51.623Z</time>
      </trkpt>
      <trkpt lat="58.56215796433389" lon="13.350893938913941">
        <ele>134.92</ele>
        <time>2025-02-10T06:43:31.081Z</time>
      </trkpt>
      <trkpt lat="58.56222191825509" lon="13.350936938077211">
        <ele>134.96</ele>
        <time>2025-02-10T06:44:10.540Z</time>
      </trkpt>
      <trkpt lat="58.56228595599532" lon="13.350979937240481">
        <ele>135.0</ele>
        <time>2025-02-10T06:44:50.000Z</time>
      </trkpt>
      <trkpt lat="58.56234999373555" lon="13.35102193057537">
        <ele>135.04</ele>
        <time>2025-02-10T06:45:29.461Z</time>
      </trkpt>
      <trkpt lat="58.56241495348513" lon="13.35106392391026">
        <ele>135.09</ele>
        <time>2025-02-10T06:46:08.923Z</time>
      </trkpt>
      <trkpt lat="58.56247999705374" lon="13.351108934730291">
        <ele>135.13</ele>
        <time>2025-02-10T06:46:48.386Z</time>
      </trkpt>
      <trkpt lat="58.56254395097494" lon="13.351152939721942">
        <ele>135.18</ele>
        <time>2025-02-10T06:47:27.850Z</time>
      </trkpt>
      <trkpt lat="58.56260798871517" lon="13.351197950541973">
        <ele>135.23</ele>
        <time>2025-02-10T06:48:07.316Z</time>
      </trkpt>
      <trkpt lat="58.56266993097961" lon="13.351240949705243">
        <ele>135.28</ele>
        <time>2025-02-10T06:48:46.783Z</time>
      </trkpt>
      <trkpt lat="58.56273396871984" lon="13.351285960525274">
        <ele>135.33</ele>
        <time>2025-02-10T06:49:26.251Z</time>
      </trkpt>
      <trkpt lat="58.56279599480331" lon="13.351328959688544">
        <ele>135.38</ele>
        <time>2025-02-10T06:50:05.720Z</time>
      </trkpt>
      <trkpt lat="58.56286095455289" lon="13.351369947195053">
        <ele>135.43</ele>
        <time>2025-02-10T06:50:45.190Z</time>
      </trkpt>
      <trkpt lat="58.56292499229312" lon="13.351412946358323">
        <ele>135.48</ele>
        <time>2025-02-10T06:51:24.661Z</time>
      </trkpt>
      <trkpt lat="58.56298894621432" lon="13.351456951349974">
        <ele>135.54</ele>
        <time>2025-02-10T06:52:04.133Z</time>
      </trkpt>
      <trkpt lat="58.56305398978293" lon="13.351500956341624">
        <ele>135.59</ele>
        <time>2025-02-10T06:52:43.606Z</time>
      </trkpt>
      <trkpt lat="58.56311995536089" lon="13.351545967161655">
        <ele>135.64</ele>
        <time>2025-02-10T06:53:23.080Z</time>
      </trkpt>
      <trkpt lat="58.56318592093885" lon="13.351591983810067">
        <ele>135.69</ele>
        <time>2025-02-10T06:54:02.555Z</time>
      </trkpt>
      <trkpt lat="58.56325197033584" lon="13.351637916639447">
        <ele>135.74</ele>
        <time>2025-02-10T06:54:42.032Z</time>
      </trkpt>
      <trkpt lat="58.56331693008542" lon="13.351681921631098">
        <ele>135.8</ele>
        <time>2025-02-10T06:55:21.510Z</time>
      </trkpt>
      <trkpt lat="58.56338197365403" lon="13.351724920794368">
        <ele>135.85</ele>
        <time>2025-02-10T06:56:00.989Z</time>
      </trkpt>
      <trkpt lat="58.56344793923199" lon="13.351761968806386">
        <ele>135.9</ele>
        <time>2025-02-10T06:56:40.469Z</time>
      </trkpt>
      <trkpt lat="58.56351097114384" lon="13.351796921342611">
        <ele>135.95</ele>
        <time>2025-02-10T06:57:19.950Z</time>
      </trkpt>
      <trkpt lat="58.56357593089342" lon="13.351828940212727">
        <ele>136.01</ele>
        <time>2025-02-10T06:57:59.432Z</time>
      </trkpt>
      <trkpt lat="58.56364097446203" lon="13.351869927719235">
        <ele>136.06</ele>
        <time>2025-02-10T06:58:38.915Z</time>
      </trkpt>
      <trkpt lat="58.56370593421161" lon="13.35192097350955">
        <ele>136.12</ele>
        <time>2025-02-10T06:59:18.399Z</time>
      </trkpt>
      <trkpt lat="58.56376997195184" lon="13.351979982107878">
        <ele>136.18</ele>
        <time>2025-02-10T06:59:57.884Z</time>
      </trkpt>
      <trkpt lat="58.56383493170142" lon="13.352042930200696">
        <ele>136.23</ele>
        <time>2025-02-10T07:00:37.371Z</time>
      </trkpt>
      <trkpt lat="58.56389997527003" lon="13.352100932970643">
        <ele>136.29</ele>
        <time>2025-02-10T07:01:16.859Z</time>
      </trkpt>
      <trkpt lat="58.56396292336285" lon="13.352156924083829">
        <ele>136.36</ele>
        <time>2025-02-10T07:01:56.348Z</time>
      </trkpt>
      <trkpt lat="58.56402394361794" lon="13.352216938510537">
        <ele>136.42</ele>
        <time>2025-02-10T07:02:35.838Z</time>
      </trkpt>
      <trkpt lat="58.56408194638789" lon="13.352279970422387">
        <ele>136.48</ele>
        <time>2025-02-10T07:03:15.329Z</time>
      </trkpt>
      <trkpt lat="58.56413793750107" lon="13.352343924343586">
        <ele>136.55</ele>
        <time>2025-02-10T07:03:54.821Z</time>
      </trkpt>
      <trkpt lat="58.56419493444264" lon="13.352410979568958">
        <ele>136.61</ele>
        <time>2025-02-10T07:04:34.314Z</time>
      </trkpt>
      <trkpt lat="58.564248997718096" lon="13.352485997602344">
        <ele>136.67</ele>
        <time>2025-02-10T07:05:13.808Z</time>
      </trkpt>
      <trkpt lat="58.56430197134614" lon="13.352563949301839">
        <ele>136.73</ele>
        <time>2025-02-10T07:05:53.303Z</time>
      </trkpt>
      <trkpt lat="58.56435092166066" lon="13.352639973163605">
        <ele>136.79</ele>
        <time>2025-02-10T07:06:32.799Z</time>
      </trkpt>
      <trkpt lat="58.564398949965835" lon="13.35271691903472">
        <ele>136.85</ele>
        <time>2025-02-10T07:07:12.296Z</time>
      </trkpt>
      <trkpt lat="58.56444697827101" lon="13.352793948724866">
        <ele>136.91</ele>
        <time>2025-02-10T07:07:51.794Z</time>
      </trkpt>
      <trkpt lat="58.56449198909104" lon="13.352869972586632">
        <ele>136.97</ele>
        <time>2025-02-10T07:08:31.293Z</time>
      </trkpt>
      <trkpt lat="58.56453297659755" lon="13.352947924286127">
        <ele>137.04</ele>
        <time>2025-02-10T07:09:10.793Z</time>
      </trkpt>
      <trkpt lat="58.564573964104056" lon="13.353023948147893">
        <ele>137.1</ele>
        <time>2025-02-10T07:09:50.294Z</time>
      </trkpt>
      <trkpt lat="58.564612939953804" lon="13.35310198366642">
        <ele>137.17</ele>
        <time>2025-02-10T07:10:29.796Z</time>
      </trkpt>
      <trkpt lat="58.56465292163193" lon="13.353178929537535">
        <ele>137.23</ele>
        <time>2025-02-10T07:11:09.299Z</time>
      </trkpt>
      <trkpt lat="58.56469097547233" lon="13.353255959227681">
        <ele>137.29</ele>
        <time>2025-02-10T07:11:48.803Z</time>
      </trkpt>
      <trkpt lat="58.56472995132208" lon="13.353332988917828">
        <ele>137.36</ele>
        <time>2025-02-10T07:12:28.308Z</time>
      </trkpt>
      <trkpt lat="58.564767921343446" lon="13.353412952274084">
        <ele>137.42</ele>
        <time>2025-02-10T07:13:07.814Z</time>
      </trkpt>
      <trkpt lat="58.564807986840606" lon="13.353493921458721">
        <ele>137.49</ele>
        <time>2025-02-10T07:13:47.320Z</time>
      </trkpt>
      <trkpt lat="58.564847968518734" lon="13.353578997775912">
        <ele>137.56</ele>
        <time>2025-02-10T07:14:26.827Z</time>
      </trkpt>
      <trkpt lat="58.56488493271172" lon="13.35366097278893">
        <ele>137.62</ele>
        <time>2025-02-10T07:15:06.335Z</time>
      </trkpt>
      <trkpt lat="58.56492198072374" lon="13.35374596528709">
        <ele>137.68</ele>
        <time>2025-02-10T07:15:45.844Z</time>
      </trkpt>
      <trkpt lat="58.564959950745106" lon="13.353835986927152">
        <ele>137.74</ele>
        <time>2025-02-10T07:16:25.354Z</time>
      </trkpt>
      <trkpt lat="58.56499792076647" lon="13.353926930576563">
        <ele>137.81</ele>
        <time>2025-02-10T07:17:04.865Z</time>
      </trkpt>
      <trkpt lat="58.56503899209201" lon="13.354022987186909">
        <ele>137.88</ele>
        <time>2025-02-10T07:17:44.377Z</time>
      </trkpt>
      <trkpt lat="58.56508199125528" lon="13.354116948321462">
        <ele>137.94</ele>
        <time>2025-02-10T07:18:23.890Z</time>
      </trkpt>
      <trkpt lat="58.56512398459017" lon="13.354213926941156">
        <ele>138.01</ele>
        <time>2025-02-10T07:19:03.404Z</time>
      </trkpt>
      <trkpt lat="58.5651639662683" lon="13.354310989379883">
        <ele>138.07</ele>
        <time>2025-02-10T07:19:42.919Z</time>
      </trkpt>
      <trkpt lat="58.56520294211805" lon="13.354402938857675">
        <ele>138.13</ele>
        <time>2025-02-10T07:20:22.435Z</time>
      </trkpt>
      <trkpt lat="58.56524292379618" lon="13.354492960497737">
        <ele>138.19</ele>
        <time>2025-02-10T07:21:01.952Z</time>
      </trkpt>
      <trkpt lat="58.565281983464956" lon="13.354580970481038">
        <ele>138.25</ele>
        <time>2025-02-10T07:21:41.470Z</time>
      </trkpt>
      <trkpt lat="58.56531995348632" lon="13.35466898046434">
        <ele>138.31</ele>
        <time>2025-02-10T07:22:20.989Z</time>
      </trkpt>
      <trkpt lat="58.56535993516445" lon="13.354757996276021">
        <ele>138.37</ele>
        <time>2025-02-10T07:23:00.509Z</time>
      </trkpt>
      <trkpt lat="58.56540494598448" lon="13.354846928268671">
        <ele>138.43</ele>
        <time>2025-02-10T07:23:40.030Z</time>
      </trkpt>
      <trkpt lat="58.56544794514775" lon="13.354932926595211">
        <ele>138.49</ele>
        <time>2025-02-10T07:24:19.552Z</time>
      </trkpt>
      <trkpt lat="58.56549094431102" lon="13.355019930750132">
        <ele>138.54</ele>
        <time>2025-02-10T07:24:59.075Z</time>
      </trkpt>
      <trkpt lat="58.565535955131054" lon="13.355110958218575">
        <ele>138.6</ele>
        <time>2025-02-10T07:25:38.599Z</time>
      </trkpt>
      <trkpt lat="58.56558498926461" lon="13.355205925181508">
        <ele>138.66</ele>
        <time>2025-02-10T07:26:18.125Z</time>
      </trkpt>
      <trkpt lat="58.56563393957913" lon="13.355299970135093">
        <ele>138.71</ele>
        <time>2025-02-10T07:26:57.652Z</time>
      </trkpt>
      <trkpt lat="58.5656819678843" lon="13.355392925441265">
        <ele>138.77</ele>
        <time>2025-02-10T07:27:37.180Z</time>
      </trkpt>
      <trkpt lat="58.565731924027205" lon="13.35548797622323">
        <ele>138.82</ele>
        <time>2025-02-10T07:28:16.709Z</time>
      </trkpt>
      <trkpt lat="58.56578296981752" lon="13.355588978156447">
        <ele>138.88</ele>
        <time>2025-02-10T07:28:56.239Z</time>
      </trkpt>
      <trkpt lat="58.5658339317888" lon="13.355694925412536">
        <ele>138.94</ele>
        <time>2025-02-10T07:29:35.770Z</time>
      </trkpt>
      <trkpt lat="58.56588698923588" lon="13.355800956487656">
        <ele>138.99</ele>
        <time>2025-02-10T07:30:15.302Z</time>
      </trkpt>
      <trkpt lat="58.56593996286392" lon="13.355909921228886">
        <ele>139.05</ele>
        <time>2025-02-10T07:30:54.836Z</time>
      </trkpt>
      <trkpt lat="58.56599494814873" lon="13.356018969789147">
        <ele>139.1</ele>
        <time>2025-02-10T07:31:34.371Z</time>
      </trkpt>
      <trkpt lat="58.56604699976742" lon="13.356129946187139">
        <ele>139.16</ele>
        <time>2025-02-10T07:32:13.907Z</time>
      </trkpt>
      <trkpt lat="58.566098967567086" lon="13.35624092258513">
        <ele>139.22</ele>
        <time>2025-02-10T07:32:53.444Z</time>
      </trkpt>
      <trkpt lat="58.56615093536675" lon="13.356352988630533">
        <ele>139.28</ele>
        <time>2025-02-10T07:33:32.983Z</time>
      </trkpt>
      <trkpt lat="58.5661999695003" lon="13.356463965028524">
        <ele>139.34</ele>
        <time>2025-02-10T07:34:12.523Z</time>
      </trkpt>
      <trkpt lat="58.566248919814825" lon="13.356570918112993">
        <ele>139.4</ele>
        <time>2025-02-10T07:34:52.064Z</time>
      </trkpt>
      <trkpt lat="58.56629594229162" lon="13.356680972501636">
        <ele>139.46</ele>
        <time>2025-02-10T07:35:31.606Z</time>
      </trkpt>
      <trkpt lat="58.56634195894003" lon="13.356790943071246">
        <ele>139.51</ele>
        <time>2025-02-10T07:36:11.150Z</time>
      </trkpt>
      <trkpt lat="58.56638696976006" lon="13.356902925297618">
        <ele>139.57</ele>
        <time>2025-02-10T07:36:50.695Z</time>
      </trkpt>
      <trkpt lat="58.56643298640847" lon="13.35701691918075">
        <ele>139.63</ele>
        <time>2025-02-10T07:37:30.241Z</time>
      </trkpt>
      <trkpt lat="58.5664779972285" lon="13.357131918892264">
        <ele>139.69</ele>
        <time>2025-02-10T07:38:09.788Z</time>
      </trkpt>
      <trkpt lat="58.566524935886264" lon="13.35724993608892">
        <ele>139.75</ele>
        <time>2025-02-10T07:38:49.336Z</time>
      </trkpt>
      <trkpt lat="58.56657296419144" lon="13.357367953285575">
        <ele>139.81</ele>
        <time>2025-02-10T07:39:28.886Z</time>
      </trkpt>
      <trkpt lat="58.56662199832499" lon="13.357489993795753">
        <ele>139.88</ele>
        <time>2025-02-10T07:40:08.437Z</time>
      </trkpt>
      <trkpt lat="58.56666994281113" lon="13.35761396214366">
        <ele>139.94</ele>
        <time>2025-02-10T07:40:47.989Z</time>
      </trkpt>
      <trkpt lat="58.566719982773066" lon="13.357741953805089">
        <ele>140.0</ele>
        <time>2025-02-10T07:41:27.543Z</time>
      </trkpt>
      <trkpt lat="58.56676893308759" lon="13.357870951294899">
        <ele>140.07</ele>
        <time>2025-02-10T07:42:07.098Z</time>
      </trkpt>
      <trkpt lat="58.56681595556438" lon="13.357997937127948">
        <ele>140.14</ele>
        <time>2025-02-10T07:42:46.654Z</time>
      </trkpt>
      <trkpt lat="58.56685996055603" lon="13.358125928789377">
        <ele>140.2</ele>
        <time>2025-02-10T07:43:26.211Z</time>
      </trkpt>
      <trkpt lat="58.56690195389092" lon="13.358255932107568">
        <ele>140.27</ele>
        <time>2025-02-10T07:44:05.770Z</time>
      </trkpt>
      <trkpt lat="58.56694294139743" lon="13.358385935425758">
        <ele>140.33</ele>
        <time>2025-02-10T07:44:45.330Z</time>
      </trkpt>
      <trkpt lat="58.566981917247176" lon="13.35851694457233">
        <ele>140.4</ele>
        <time>2025-02-10T07:45:24.891Z</time>
      </trkpt>
      <trkpt lat="58.567017959430814" lon="13.3586479537189">
        <ele>140.46</ele>
        <time>2025-02-10T07:46:04.454Z</time>
      </trkpt>
      <trkpt lat="58.56705299578607" lon="13.358777957037091">
        <ele>140.54</ele>
        <time>2025-02-10T07:46:44.018Z</time>
      </trkpt>
      <trkpt lat="58.567086942493916" lon="13.35890594869852">
        <ele>140.61</ele>
        <time>2025-02-10T07:47:23.583Z</time>
      </trkpt>
      <trkpt lat="58.56712097302079" lon="13.35903394035995">
        <ele>140.68</ele>
        <time>2025-02-10T07:48:03.149Z</time>
      </trkpt>
      <trkpt lat="58.56715491972864" lon="13.359160926192999">
        <ele>140.75</ele>
        <time>2025-02-10T07:48:42.716Z</time>
      </trkpt>
      <trkpt lat="58.567189956083894" lon="13.359286990016699">
        <ele>140.82</ele>
        <time>2025-02-10T07:49:22.285Z</time>
      </trkpt>
      <trkpt lat="58.56722398661077" lon="13.359411964192986">
        <ele>140.89</ele>
        <time>2025-02-10T07:50:01.855Z</time>
      </trkpt>
      <trkpt lat="58.567257933318615" lon="13.359535932540894">
        <ele>140.96</ele>
        <time>2025-02-10T07:50:41.426Z</time>
      </trkpt>
      <trkpt lat="58.56729397550225" lon="13.35965696722269">
        <ele>141.04</ele>
        <time>2025-02-10T07:51:20.998Z</time>
      </trkpt>
      <trkpt lat="58.56732993386686" lon="13.359777918085456">
        <ele>141.11</ele>
        <time>2025-02-10T07:52:00.571Z</time>
      </trkpt>
      <trkpt lat="58.56736798770726" lon="13.359898952767253">
        <ele>141.19</ele>
        <time>2025-02-10T07:52:40.145Z</time>
      </trkpt>
      <trkpt lat="58.567408975213766" lon="13.36002099327743">
        <ele>141.27</ele>
        <time>2025-02-10T07:53:19.721Z</time>
      </trkpt>
      <trkpt lat="58.567450968548656" lon="13.360142949968576">
        <ele>141.34</ele>
        <time>2025-02-10T07:53:59.298Z</time>
      </trkpt>
      <trkpt lat="58.567494973540306" lon="13.360264990478754">
        <ele>141.42</ele>
        <time>2025-02-10T07:54:38.876Z</time>
      </trkpt>
      <trkpt lat="58.56754099018872" lon="13.36038594134152">
        <ele>141.5</ele>
        <time>2025-02-10T07:55:18.455Z</time>
      </trkpt>
      <trkpt lat="58.56758792884648" lon="13.360507981851697">
        <ele>141.58</ele>
        <time>2025-02-10T07:55:58.036Z</time>
      </trkpt>
      <trkpt lat="58.56763696298003" lon="13.360629938542843">
        <ele>141.66</ele>
        <time>2025-02-10T07:56:37.618Z</time>
      </trkpt>
      <trkpt lat="58.567687924951315" lon="13.36074996739626">
        <ele>141.74</ele>
        <time>2025-02-10T07:57:17.201Z</time>
      </trkpt>
      <trkpt lat="58.56773997657001" lon="13.360865972936153">
        <ele>141.83</ele>
        <time>2025-02-10T07:57:56.785Z</time>
      </trkpt>
      <trkpt lat="58.56779093854129" lon="13.360978960990906">
        <ele>141.91</ele>
        <time>2025-02-10T07:58:36.371Z</time>
      </trkpt>
      <trkpt lat="58.56784097850323" lon="13.361085997894406">
        <ele>142.0</ele>
        <time>2025-02-10T07:59:15.958Z</time>
      </trkpt>
      <trkpt lat="58.56788992881775" lon="13.361189933493733">
        <ele>142.08</ele>
        <time>2025-02-10T07:59:55.546Z</time>
      </trkpt>
      <trkpt lat="58.5679389629513" lon="13.361292947083712">
        <ele>142.16</ele>
        <time>2025-02-10T08:00:35.135Z</time>
      </trkpt>
      <trkpt lat="58.567989924922585" lon="13.36139596067369">
        <ele>142.25</ele>
        <time>2025-02-10T08:01:14.725Z</time>
      </trkpt>
      <trkpt lat="58.56803996488452" lon="13.361498974263668">
        <ele>142.34</ele>
        <time>2025-02-10T08:01:54.317Z</time>
      </trkpt>
      <trkpt lat="58.5680909268558" lon="13.361602993682027">
        <ele>142.43</ele>
        <time>2025-02-10T08:02:33.910Z</time>
      </trkpt>
      <trkpt lat="58.5681429784745" lon="13.361705923452973">
        <ele>142.51</ele>
        <time>2025-02-10T08:03:13.504Z</time>
      </trkpt>
      <trkpt lat="58.56819595210254" lon="13.36180692538619">
        <ele>142.59</ele>
        <time>2025-02-10T08:03:53.099Z</time>
      </trkpt>
      <trkpt lat="58.568247919902205" lon="13.361904993653297">
        <ele>142.68</ele>
        <time>2025-02-10T08:04:32.695Z</time>
      </trkpt>
      <trkpt lat="58.56830298900604" lon="13.362002978101373">
        <ele>142.77</ele>
        <time>2025-02-10T08:05:12.293Z</time>
      </trkpt>
      <trkpt lat="58.56835898011923" lon="13.36210398003459">
        <ele>142.86</ele>
        <time>2025-02-10T08:05:51.892Z</time>
      </trkpt>
      <trkpt lat="58.568415977060795" lon="13.362206993624568">
        <ele>142.95</ele>
        <time>2025-02-10T08:06:31.492Z</time>
      </trkpt>
      <trkpt lat="58.56847397983074" lon="13.362308917567134">
        <ele>143.04</ele>
        <time>2025-02-10T08:07:11.093Z</time>
      </trkpt>
      <trkpt lat="58.56853097677231" lon="13.362411931157112">
        <ele>143.13</ele>
        <time>2025-02-10T08:07:50.696Z</time>
      </trkpt>
      <trkpt lat="58.568586967885494" lon="13.362515950575471">
        <ele>143.22</ele>
        <time>2025-02-10T08:08:30.300Z</time>
      </trkpt>
      <trkpt lat="58.56863994151354" lon="13.362616952508688">
        <ele>143.31</ele>
        <time>2025-02-10T08:09:09.905Z</time>
      </trkpt>
      <trkpt lat="58.568692998960614" lon="13.362719966098666">
        <ele>143.41</ele>
        <time>2025-02-10T08:09:49.511Z</time>
      </trkpt>
      <trkpt lat="58.5687439609319" lon="13.362824991345406">
        <ele>143.5</ele>
        <time>2025-02-10T08:10:29.118Z</time>
      </trkpt>
      <trkpt lat="58.56879492290318" lon="13.362927921116352">
        <ele>143.6</ele>
        <time>2025-02-10T08:11:08.727Z</time>
      </trkpt>
      <trkpt lat="58.568843957036734" lon="13.36303194053471">
        <ele>143.7</ele>
        <time>2025-02-10T08:11:48.337Z</time>
      </trkpt>
      <trkpt lat="58.56889299117029" lon="13.36313696578145">
        <ele>143.79</ele>
        <time>2025-02-10T08:12:27.948Z</time>
      </trkpt>
      <trkpt lat="58.56894093565643" lon="13.36324199102819">
        <ele>143.89</ele>
        <time>2025-02-10T08:13:07.560Z</time>
      </trkpt>
      <trkpt lat="58.56898795813322" lon="13.363346932455897">
        <ele>143.99</ele>
        <time>2025-02-10T08:13:47.173Z</time>
      </trkpt>
      <trkpt lat="58.56903296895325" lon="13.363450951874256">
        <ele>144.09</ele>
        <time>2025-02-10T08:14:26.787Z</time>
      </trkpt>
      <trkpt lat="58.56907797977328" lon="13.363557988777757">
        <ele>144.2</ele>
        <time>2025-02-10T08:15:06.403Z</time>
      </trkpt>
      <trkpt lat="58.569122990593314" lon="13.363665947690606">
        <ele>144.3</ele>
        <time>2025-02-10T08:15:46.020Z</time>
      </trkpt>
      <trkpt lat="58.569168923422694" lon="13.363772984594107">
        <ele>144.4</ele>
        <time>2025-02-10T08:16:25.638Z</time>
      </trkpt>
      <trkpt lat="58.569214940071106" lon="13.363880943506956">
        <ele>144.5</ele>
        <time>2025-02-10T08:17:05.257Z</time>
      </trkpt>
      <trkpt lat="58.5692619625479" lon="13.363986974582076">
        <ele>144.6</ele>
        <time>2025-02-10T08:17:44.877Z</time>
      </trkpt>
      <trkpt lat="58.56930797919631" lon="13.364091999828815">
        <ele>144.71</ele>
        <time>2025-02-10T08:18:24.498Z</time>
      </trkpt>
      <trkpt lat="58.56935399584472" lon="13.364196941256523">
        <ele>144.81</ele>
        <time>2025-02-10T08:19:04.121Z</time>
      </trkpt>
      <trkpt lat="58.5693999286741" lon="13.364302972331643">
        <ele>144.92</ele>
        <time>2025-02-10T08:19:43.745Z</time>
      </trkpt>
      <trkpt lat="58.569445945322514" lon="13.364405985921621">
        <ele>145.02</ele>
        <time>2025-02-10T08:20:23.370Z</time>
      </trkpt>
      <trkpt lat="58.569492967799306" lon="13.364506987854838">
        <ele>145.13</ele>
        <time>2025-02-10T08:21:02.996Z</time>
      </trkpt>
      <trkpt lat="58.5695399902761" lon="13.364606983959675">
        <ele>145.23</ele>
        <time>2025-02-10T08:21:42.623Z</time>
      </trkpt>
      <trkpt lat="58.56958793476224" lon="13.364707985892892">
        <ele>145.34</ele>
        <time>2025-02-10T08:22:22.251Z</time>
      </trkpt>
      <trkpt lat="58.56963696889579" lon="13.364806976169348">
        <ele>145.46</ele>
        <time>2025-02-10T08:23:01.880Z</time>
      </trkpt>
      <trkpt lat="58.569686925038695" lon="13.364903954789042">
        <ele>145.57</ele>
        <time>2025-02-10T08:23:41.511Z</time>
      </trkpt>
      <trkpt lat="58.56973696500063" lon="13.364997999742627">
        <ele>145.68</ele>
        <time>2025-02-10T08:24:21.143Z</time>
      </trkpt>
      <trkpt lat="58.56978692114353" lon="13.365088943392038">
        <ele>145.79</ele>
        <time>2025-02-10T08:25:00.776Z</time>
      </trkpt>
      <trkpt lat="58.569835955277085" lon="13.3651789650321">
        <ele>145.91</ele>
        <time>2025-02-10T08:25:40.410Z</time>
      </trkpt>
      <trkpt lat="58.56988498941064" lon="13.365269992500544">
        <ele>146.02</ele>
        <time>2025-02-10T08:26:20.045Z</time>
      </trkpt>
      <trkpt lat="58.56993393972516" lon="13.365359930321574">
        <ele>146.14</ele>
        <time>2025-02-10T08:26:59.681Z</time>
      </trkpt>
      <trkpt lat="58.569982973858714" lon="13.365449951961637">
        <ele>146.25</ele>
        <time>2025-02-10T08:27:39.318Z</time>
      </trkpt>
      <trkpt lat="58.57003293000162" lon="13.365539973601699">
        <ele>146.37</ele>
        <time>2025-02-10T08:28:18.956Z</time>
      </trkpt>
      <trkpt lat="58.57008095830679" lon="13.36563192307949">
        <ele>146.48</ele>
        <time>2025-02-10T08:28:58.595Z</time>
      </trkpt>
      <trkpt lat="58.57012898661196" lon="13.365724962204695">
        <ele>146.6</ele>
        <time>2025-02-10T08:29:38.235Z</time>
      </trkpt>
      <trkpt lat="58.570177936926484" lon="13.365820934996009">
        <ele>146.72</ele>
        <time>2025-02-10T08:30:17.877Z</time>
      </trkpt>
      <trkpt lat="58.57022797688842" lon="13.365916991606355">
        <ele>146.84</ele>
        <time>2025-02-10T08:30:57.520Z</time>
      </trkpt>
      <trkpt lat="58.57027692720294" lon="13.36601397022605">
        <ele>146.96</ele>
        <time>2025-02-10T08:31:37.164Z</time>
      </trkpt>
      <trkpt lat="58.57032394967973" lon="13.366111954674125">
        <ele>147.07</ele>
        <time>2025-02-10T08:32:16.809Z</time>
      </trkpt>
      <trkpt lat="58.570370972156525" lon="13.3662099391222">
        <ele>147.19</ele>
        <time>2025-02-10T08:32:56.455Z</time>
      </trkpt>
      <trkpt lat="58.570415982976556" lon="13.366308929398656">
        <ele>147.32</ele>
        <time>2025-02-10T08:33:36.102Z</time>
      </trkpt>
      <trkpt lat="58.570459987968206" lon="13.366408925503492">
        <ele>147.44</ele>
        <time>2025-02-10T08:34:15.750Z</time>
      </trkpt>
      <trkpt lat="58.57050399295986" lon="13.3665069937706">
        <ele>147.56</ele>
        <time>2025-02-10T08:34:55.399Z</time>
      </trkpt>
      <trkpt lat="58.57054799795151" lon="13.366604978218675">
        <ele>147.68</ele>
        <time>2025-02-10T08:35:35.049Z</time>
      </trkpt>
      <trkpt lat="58.57059292495251" lon="13.36670296266675">
        <ele>147.8</ele>
        <time>2025-02-10T08:36:14.701Z</time>
      </trkpt>
      <trkpt lat="58.57063692994416" lon="13.366800947114825">
        <ele>147.92</ele>
        <time>2025-02-10T08:36:54.354Z</time>
      </trkpt>
      <trkpt lat="58.57068294659257" lon="13.366899937391281">
        <ele>148.05</ele>
        <time>2025-02-10T08:37:34.008Z</time>
      </trkpt>
      <trkpt lat="58.57073097489774" lon="13.366999933496118">
        <ele>148.17</ele>
        <time>2025-02-10T08:38:13.663Z</time>
      </trkpt>
      <trkpt lat="58.570779925212264" lon="13.367098923772573">
        <ele>148.29</ele>
        <time>2025-02-10T08:38:53.319Z</time>
      </trkpt>
      <trkpt lat="58.5708299651742" lon="13.367193974554539">
        <ele>148.41</ele>
        <time>2025-02-10T08:39:32.976Z</time>
      </trkpt>
      <trkpt lat="58.57088193297386" lon="13.36728491820395">
        <ele>148.54</ele>
        <time>2025-02-10T08:40:12.634Z</time>
      </trkpt>
      <trkpt lat="58.57093792408705" lon="13.367369994521141">
        <ele>148.66</ele>
        <time>2025-02-10T08:40:52.293Z</time>
      </trkpt>
      <trkpt lat="58.570997938513756" lon="13.367449957877398">
        <ele>148.79</ele>
        <time>2025-02-10T08:41:31.954Z</time>
      </trkpt>
      <trkpt lat="58.571060970425606" lon="13.367524975910783">
        <ele>148.91</ele>
        <time>2025-02-10T08:42:11.616Z</time>
      </trkpt>
      <trkpt lat="58.571126936003566" lon="13.367593958973885">
        <ele>149.04</ele>
        <time>2025-02-10T08:42:51.279Z</time>
      </trkpt>
      <trkpt lat="58.57119591906667" lon="13.367656990885735">
        <ele>149.16</ele>
        <time>2025-02-10T08:43:30.943Z</time>
      </trkpt>
      <trkpt lat="58.57126599177718" lon="13.36771197617054">
        <ele>149.29</ele>
        <time>2025-02-10T08:44:10.608Z</time>
      </trkpt>
      <trkpt lat="58.571335980668664" lon="13.367760926485062">
        <ele>149.42</ele>
        <time>2025-02-10T08:44:50.275Z</time>
      </trkpt>
      <trkpt lat="58.57140697538853" lon="13.367804931476712">
        <ele>149.55</ele>
        <time>2025-02-10T08:45:29.943Z</time>
      </trkpt>
      <trkpt lat="58.57147797010839" lon="13.367846924811602">
        <ele>149.68</ele>
        <time>2025-02-10T08:46:09.612Z</time>
      </trkpt>
      <trkpt lat="58.571550976485014" lon="13.367885984480381">
        <ele>149.8</ele>
        <time>2025-02-10T08:46:49.282Z</time>
      </trkpt>
      <trkpt lat="58.57162398286164" lon="13.367920937016606">
        <ele>149.93</ele>
        <time>2025-02-10T08:47:28.953Z</time>
      </trkpt>
      <trkpt lat="58.57169799506664" lon="13.367951950058341">
        <ele>150.06</ele>
        <time>2025-02-10T08:48:08.626Z</time>
      </trkpt>
      <trkpt lat="58.571771923452616" lon="13.367979945614934">
        <ele>150.2</ele>
        <time>2025-02-10T08:48:48.300Z</time>
      </trkpt>
      <trkpt lat="58.57184392400086" lon="13.368006935343146">
        <ele>150.33</ele>
        <time>2025-02-10T08:49:27.975Z</time>
      </trkpt>
      <trkpt lat="58.57191399671137" lon="13.368032919242978">
        <ele>150.46</ele>
        <time>2025-02-10T08:50:07.651Z</time>
      </trkpt>
      <trkpt lat="58.571982979774475" lon="13.3680559694767">
        <ele>150.59</ele>
        <time>2025-02-10T08:50:47.328Z</time>
      </trkpt>
      <trkpt lat="58.572048945352435" lon="13.368076924234629">
        <ele>150.72</ele>
        <time>2025-02-10T08:51:27.006Z</time>
      </trkpt>
      <trkpt lat="58.572113988921046" lon="13.36809796281159">
        <ele>150.85</ele>
        <time>2025-02-10T08:52:06.685Z</time>
      </trkpt>
      <trkpt lat="58.572176937013865" lon="13.368115983903408">
        <ele>150.99</ele>
        <time>2025-02-10T08:52:46.365Z</time>
      </trkpt>
      <trkpt lat="58.572238963097334" lon="13.368133921176195">
        <ele>151.12</ele>
        <time>2025-02-10T08:53:26.046Z</time>
      </trkpt>
      <trkpt lat="58.57229897752404" lon="13.368150936439633">
        <ele>151.25</ele>
        <time>2025-02-10T08:54:05.728Z</time>
      </trkpt>
      <trkpt lat="58.57235999777913" lon="13.368166945874691">
        <ele>151.39</ele>
        <time>2025-02-10T08:54:45.411Z</time>
      </trkpt>
      <trkpt lat="58.57242093421519" lon="13.368182955309749">
        <ele>151.52</ele>
        <time>2025-02-10T08:55:25.095Z</time>
      </trkpt>
      <trkpt lat="58.572479942813516" lon="13.368198964744806">
        <ele>151.65</ele>
        <time>2025-02-10T08:56:04.780Z</time>
      </trkpt>
      <trkpt lat="58.57253895141184" lon="13.368215980008245">
        <ele>151.79</ele>
        <time>2025-02-10T08:56:44.466Z</time>
      </trkpt>
      <trkpt lat="58.57259594835341" lon="13.368232995271683">
        <ele>151.92</ele>
        <time>2025-02-10T08:57:24.153Z</time>
      </trkpt>
      <trkpt lat="58.57265395112336" lon="13.36825093254447">
        <ele>152.06</ele>
        <time>2025-02-10T08:58:03.841Z</time>
      </trkpt>
      <trkpt lat="58.572711953893304" lon="13.36826995946467">
        <ele>152.19</ele>
        <time>2025-02-10T08:58:43.530Z</time>
      </trkpt>
      <trkpt lat="58.57277096249163" lon="13.36828999221325">
        <ele>152.33</ele>
        <time>2025-02-10T08:59:23.220Z</time>
      </trkpt>
      <trkpt lat="58.57282896526158" lon="13.368310946971178">
        <ele>152.46</ele>
        <time>2025-02-10T09:00:02.911Z</time>
      </trkpt>
      <trkpt lat="58.572885962203145" lon="13.368331985548139">
        <ele>152.6</ele>
        <time>2025-02-10T09:00:42.603Z</time>
      </trkpt>
      <trkpt lat="58.57294195331633" lon="13.368352940306067">
        <ele>152.74</ele>
        <time>2025-02-10T09:01:22.296Z</time>
      </trkpt>
      <trkpt lat="58.5729989502579" lon="13.368374984711409">
        <ele>152.87</ele>
        <time>2025-02-10T09:02:01.990Z</time>
      </trkpt>
      <trkpt lat="58.57305494137108" lon="13.368396945297718">
        <ele>153.01</ele>
        <time>2025-02-10T09:02:41.685Z</time>
      </trkpt>
      <trkpt lat="58.57310992665589" lon="13.36841999553144">
        <ele>153.14</ele>
        <time>2025-02-10T09:03:21.381Z</time>
      </trkpt>
      <trkpt lat="58.573164995759726" lon="13.36844396777451">
        <ele>153.28</ele>
        <time>2025-02-10T09:04:01.078Z</time>
      </trkpt>
      <trkpt lat="58.57321796938777" lon="13.36846592836082">
        <ele>153.41</ele>
        <time>2025-02-10T09:04:40.775Z</time>
      </trkpt>
      <trkpt lat="58.573272954672575" lon="13.368487972766161">
        <ele>153.55</ele>
        <time>2025-02-10T09:05:20.473Z</time>
      </trkpt>
      <trkpt lat="58.573326934129" lon="13.36850993335247">
        <ele>153.68</ele>
        <time>2025-02-10T09:06:00.172Z</time>
      </trkpt>
      <trkpt lat="58.573382925242186" lon="13.368533989414573">
        <ele>153.82</ele>
        <time>2025-02-10T09:06:39.872Z</time>
      </trkpt>
      <trkpt lat="58.57343799434602" lon="13.368557961657643">
        <ele>153.95</ele>
        <time>2025-02-10T09:07:19.573Z</time>
      </trkpt>
      <trkpt lat="58.57349297963083" lon="13.368581933900714">
        <ele>154.09</ele>
        <time>2025-02-10T09:07:59.275Z</time>
      </trkpt>
      <trkpt lat="58.57354796491563" lon="13.368606995791197">
        <ele>154.22</ele>
        <time>2025-02-10T09:08:38.978Z</time>
      </trkpt>
      <trkpt lat="58.57360295020044" lon="13.368631973862648">
        <ele>154.36</ele>
        <time>2025-02-10T09:09:18.682Z</time>
      </trkpt>
      <trkpt lat="58.573657935485244" lon="13.3686569519341">
        <ele>154.49</ele>
        <time>2025-02-10T09:09:58.387Z</time>
      </trkpt>
      <trkpt lat="58.57371292077005" lon="13.36868193000555">
        <ele>154.63</ele>
        <time>2025-02-10T09:10:38.093Z</time>
      </trkpt>
      <trkpt lat="58.573766984045506" lon="13.368705986067653">
        <ele>154.76</ele>
        <time>2025-02-10T09:11:17.799Z</time>
      </trkpt>
      <trkpt lat="58.57382196933031" lon="13.368729958310723">
        <ele>154.9</ele>
        <time>2025-02-10T09:11:57.506Z</time>
      </trkpt>
      <trkpt lat="58.5738779604435" lon="13.368753930553794">
        <ele>155.03</ele>
        <time>2025-02-10T09:12:37.214Z</time>
      </trkpt>
      <trkpt lat="58.5739329457283" lon="13.368776980787516">
        <ele>155.17</ele>
        <time>2025-02-10T09:13:16.923Z</time>
      </trkpt>
      <trkpt lat="58.57398994266987" lon="13.368800953030586">
        <ele>155.31</ele>
        <time>2025-02-10T09:13:56.633Z</time>
      </trkpt>
      <trkpt lat="58.574045933783054" lon="13.368823919445276">
        <ele>155.44</ele>
        <time>2025-02-10T09:14:36.344Z</time>
      </trkpt>
      <trkpt lat="58.57410192489624" lon="13.368847975507379">
        <ele>155.58</ele>
        <time>2025-02-10T09:15:16.056Z</time>
      </trkpt>
      <trkpt lat="58.57415892183781" lon="13.368870941922069">
        <ele>155.72</ele>
        <time>2025-02-10T09:15:55.769Z</time>
      </trkpt>
      <trkpt lat="58.57421591877937" lon="13.36889399215579">
        <ele>155.85</ele>
        <time>2025-02-10T09:16:35.483Z</time>
      </trkpt>
      <trkpt lat="58.57427299953997" lon="13.3689159527421">
        <ele>155.99</ele>
        <time>2025-02-10T09:17:15.198Z</time>
      </trkpt>
      <trkpt lat="58.57432999648154" lon="13.36893891915679">
        <ele>156.13</ele>
        <time>2025-02-10T09:17:54.914Z</time>
      </trkpt>
      <trkpt lat="58.574385987594724" lon="13.36895995773375">
        <ele>156.27</ele>
        <time>2025-02-10T09:18:34.631Z</time>
      </trkpt>
      <trkpt lat="58.57444197870791" lon="13.36898191832006">
        <ele>156.41</ele>
        <time>2025-02-10T09:19:14.349Z</time>
      </trkpt>
      <trkpt lat="58.574497969821095" lon="13.369004968553782">
        <ele>156.55</ele>
        <time>2025-02-10T09:19:54.067Z</time>
      </trkpt>
      <trkpt lat="58.5745529551059" lon="13.369027934968472">
        <ele>156.69</ele>
        <time>2025-02-10T09:20:33.786Z</time>
      </trkpt>
      <trkpt lat="58.57460894621909" lon="13.369051991030574">
        <ele>156.82</ele>
        <time>2025-02-10T09:21:13.506Z</time>
      </trkpt>
      <trkpt lat="58.57466393150389" lon="13.369074957445264">
        <ele>156.96</ele>
        <time>2025-02-10T09:21:53.227Z</time>
      </trkpt>
      <trkpt lat="58.5747189167887" lon="13.369097923859954">
        <ele>157.1</ele>
        <time>2025-02-10T09:22:32.949Z</time>
      </trkpt>
      <trkpt lat="58.574773985892534" lon="13.369119968265295">
        <ele>157.23</ele>
        <time>2025-02-10T09:23:12.672Z</time>
      </trkpt>
      <trkpt lat="58.57482897117734" lon="13.369141928851604">
        <ele>157.37</ele>
        <time>2025-02-10T09:23:52.396Z</time>
      </trkpt>
      <trkpt lat="58.574882950633764" lon="13.369165984913707">
        <ele>157.5</ele>
        <time>2025-02-10T09:24:32.121Z</time>
      </trkpt>
      <trkpt lat="58.57493793591857" lon="13.369191968813539">
        <ele>157.64</ele>
        <time>2025-02-10T09:25:11.847Z</time>
      </trkpt>
      <trkpt lat="58.574992921203375" lon="13.369218958541751">
        <ele>157.77</ele>
        <time>2025-02-10T09:25:51.574Z</time>
      </trkpt>
      <trkpt lat="58.57504799030721" lon="13.369245948269963">
        <ele>157.91</ele>
        <time>2025-02-10T09:26:31.301Z</time>
      </trkpt>
      <trkpt lat="58.57510297559202" lon="13.369273943826556">
        <ele>158.04</ele>
        <time>2025-02-10T09:27:11.029Z</time>
      </trkpt>
      <trkpt lat="58.57515796087682" lon="13.36930193938315">
        <ele>158.18</ele>
        <time>2025-02-10T09:27:50.758Z</time>
      </trkpt>
      <trkpt lat="58.57521395199001" lon="13.369330940768123">
        <ele>158.31</ele>
        <time>2025-02-10T09:28:30.488Z</time>
      </trkpt>
      <trkpt lat="58.575269943103194" lon="13.369361953809857">
        <ele>158.45</ele>
        <time>2025-02-10T09:29:10.219Z</time>
      </trkpt>
      <trkpt lat="58.57532593421638" lon="13.369395984336734">
        <ele>158.58</ele>
        <time>2025-02-10T09:29:49.951Z</time>
      </trkpt>
      <trkpt lat="58.57538393698633" lon="13.36943194270134">
        <ele>158.71</ele>
        <time>2025-02-10T09:30:29.684Z</time>
      </trkpt>
      <trkpt lat="58.575440933927894" lon="13.369468990713358">
        <ele>158.84</ele>
        <time>2025-02-10T09:31:09.418Z</time>
      </trkpt>
      <trkpt lat="58.57549893669784" lon="13.369509978219867">
        <ele>158.98</ele>
        <time>2025-02-10T09:31:49.153Z</time>
      </trkpt>
      <trkpt lat="58.575553921982646" lon="13.369550965726376">
        <ele>159.11</ele>
        <time>2025-02-10T09:32:28.889Z</time>
      </trkpt>
      <trkpt lat="58.5756079852581" lon="13.369592959061265">
        <ele>159.24</ele>
        <time>2025-02-10T09:33:08.626Z</time>
      </trkpt>
      <trkpt lat="58.57566095888615" lon="13.369638975709677">
        <ele>159.37</ele>
        <time>2025-02-10T09:33:48.364Z</time>
      </trkpt>
      <trkpt lat="58.57571292668581" lon="13.369687926024199">
        <ele>159.49</ele>
        <time>2025-02-10T09:34:28.103Z</time>
      </trkpt>
      <trkpt lat="58.575764978304505" lon="13.369739977642894">
        <ele>159.62</ele>
        <time>2025-02-10T09:35:07.843Z</time>
      </trkpt>
      <trkpt lat="58.57581795193255" lon="13.36979596875608">
        <ele>159.75</ele>
        <time>2025-02-10T09:35:47.584Z</time>
      </trkpt>
      <trkpt lat="58.57586991973221" lon="13.369853971526027">
        <ele>159.88</ele>
        <time>2025-02-10T09:36:27.326Z</time>
      </trkpt>
      <trkpt lat="58.57592197135091" lon="13.369915997609496">
        <ele>160.01</ele>
        <time>2025-02-10T09:37:07.069Z</time>
      </trkpt>
      <trkpt lat="58.57597393915057" lon="13.369980957359076">
        <ele>160.13</ele>
        <time>2025-02-10T09:37:46.813Z</time>
      </trkpt>
      <trkpt lat="58.57602599076927" lon="13.370047928765416">
        <ele>160.26</ele>
        <time>2025-02-10T09:38:26.558Z</time>
      </trkpt>
      <trkpt lat="58.57607795856893" lon="13.370115989819169">
        <ele>160.39</ele>
        <time>2025-02-10T09:39:06.304Z</time>
      </trkpt>
      <trkpt lat="58.576129926368594" lon="13.37018396705389">
        <ele>160.51</ele>
        <time>2025-02-10T09:39:46.051Z</time>
      </trkpt>
      <trkpt lat="58.57618197798729" lon="13.37025093846023">
        <ele>160.64</ele>
        <time>2025-02-10T09:40:25.799Z</time>
      </trkpt>
      <trkpt lat="58.57623394578695" lon="13.370317993685603">
        <ele>160.76</ele>
        <time>2025-02-10T09:41:05.548Z</time>
      </trkpt>
      <trkpt lat="58.57628398574889" lon="13.370382953435183">
        <ele>160.88</ele>
        <time>2025-02-10T09:41:45.298Z</time>
      </trkpt>
      <trkpt lat="58.57633494772017" lon="13.370446991175413">
        <ele>161.0</ele>
        <time>2025-02-10T09:42:25.049Z</time>
      </trkpt>
      <trkpt lat="58.576386999338865" lon="13.37050893343985">
        <ele>161.12</ele>
        <time>2025-02-10T09:43:04.801Z</time>
      </trkpt>
      <trkpt lat="58.57643896713853" lon="13.37057095952332">
        <ele>161.24</ele>
        <time>2025-02-10T09:43:44.554Z</time>
      </trkpt>
      <trkpt lat="58.57649093493819" lon="13.370630973950028">
        <ele>161.36</ele>
        <time>2025-02-10T09:44:24.308Z</time>
      </trkpt>
      <trkpt lat="58.57654399238527" lon="13.370686965063214">
        <ele>161.48</ele>
        <time>2025-02-10T09:45:04.063Z</time>
      </trkpt>
      <trkpt lat="58.57659797184169" lon="13.37074396200478">
        <ele>161.6</ele>
        <time>2025-02-10T09:45:43.819Z</time>
      </trkpt>
      <trkpt lat="58.5766529571265" lon="13.370796935632825">
        <ele>161.72</ele>
        <time>2025-02-10T09:46:23.576Z</time>
      </trkpt>
      <trkpt lat="58.576708948239684" lon="13.370846975594759">
        <ele>161.83</ele>
        <time>2025-02-10T09:47:03.334Z</time>
      </trkpt>
      <trkpt lat="58.57676493935287" lon="13.370896931737661">
        <ele>161.95</ele>
        <time>2025-02-10T09:47:43.092Z</time>
      </trkpt>
      <trkpt lat="58.576820930466056" lon="13.370944960042834">
        <ele>162.06</ele>
        <time>2025-02-10T09:48:22.851Z</time>
      </trkpt>
      <trkpt lat="58.57687792740762" lon="13.370989970862865">
        <ele>162.17</ele>
        <time>2025-02-10T09:49:02.611Z</time>
      </trkpt>
      <trkpt lat="58.57693593017757" lon="13.371031964197755">
        <ele>162.28</ele>
        <time>2025-02-10T09:49:42.372Z</time>
      </trkpt>
      <trkpt lat="58.576993932947516" lon="13.371071945875883">
        <ele>162.39</ele>
        <time>2025-02-10T09:50:22.134Z</time>
      </trkpt>
      <trkpt lat="58.57704891823232" lon="13.371108993887901">
        <ele>162.5</ele>
        <time>2025-02-10T09:51:01.897Z</time>
      </trkpt>
      <trkpt lat="58.57710398733616" lon="13.371151993051171">
        <ele>162.61</ele>
        <time>2025-02-10T09:51:41.661Z</time>
      </trkpt>
      <trkpt lat="58.57715595513582" lon="13.3711919747293">
        <ele>162.72</ele>
        <time>2025-02-10T09:52:21.426Z</time>
      </trkpt>
      <trkpt lat="58.577207922935486" lon="13.371224999427795">
        <ele>162.83</ele>
        <time>2025-02-10T09:53:01.192Z</time>
      </trkpt>
      <trkpt lat="58.57725796289742" lon="13.371255928650498">
        <ele>162.93</ele>
        <time>2025-02-10T09:53:40.959Z</time>
      </trkpt>
      <trkpt lat="58.57730699703097" lon="13.371289959177375">
        <ele>163.03</ele>
        <time>2025-02-10T09:54:20.727Z</time>
      </trkpt>
      <trkpt lat="58.577354941517115" lon="13.371332958340645">
        <ele>163.13</ele>
        <time>2025-02-10T09:55:00.496Z</time>
      </trkpt>
      <trkpt lat="58.57740397565067" lon="13.371384926140308">
        <ele>163.23</ele>
        <time>2025-02-10T09:55:40.266Z</time>
      </trkpt>
      <trkpt lat="58.57745099812746" lon="13.371438989415765">
        <ele>163.33</ele>
        <time>2025-02-10T09:56:20.036Z</time>
      </trkpt>
      <trkpt lat="58.57749399729073" lon="13.371499925851822">
        <ele>163.43</ele>
        <time>2025-02-10T09:56:59.807Z</time>
      </trkpt>
      <trkpt lat="58.57753297314048" lon="13.371563963592052">
        <ele>163.53</ele>
        <time>2025-02-10T09:57:39.579Z</time>
      </trkpt>
      <trkpt lat="58.577570943161845" lon="13.371629929170012">
        <ele>163.62</ele>
        <time>2025-02-10T09:58:19.352Z</time>
      </trkpt>
      <trkpt lat="58.57760991901159" lon="13.371699918061495">
        <ele>163.71</ele>
        <time>2025-02-10T09:58:59.126Z</time>
      </trkpt>
      <trkpt lat="58.57764596119523" lon="13.37177099660039">
        <ele>163.8</ele>
        <time>2025-02-10T09:59:38.901Z</time>
      </trkpt>
      <trkpt lat="58.577681919559836" lon="13.371843919157982">
        <ele>163.89</ele>
        <time>2025-02-10T10:00:18.676Z</time>
      </trkpt>
      <trkpt lat="58.577718967571855" lon="13.37192396633327">
        <ele>163.97</ele>
        <time>2025-02-10T10:00:58.452Z</time>
      </trkpt>
      <trkpt lat="58.57775995507836" lon="13.372003929689527">
        <ele>164.05</ele>
        <time>2025-02-10T10:01:38.229Z</time>
      </trkpt>
      <trkpt lat="58.57780295424163" lon="13.372083976864815">
        <ele>164.13</ele>
        <time>2025-02-10T10:02:18.007Z</time>
      </trkpt>
      <trkpt lat="58.577847965061665" lon="13.372151954099536">
        <ele>164.21</ele>
        <time>2025-02-10T10:02:57.786Z</time>
      </trkpt>
      <trkpt lat="58.57789993286133" lon="13.372214986011386">
        <ele>164.28</ele>
        <time>2025-02-10T10:03:37.566Z</time>
      </trkpt>
      <trkpt lat="58.577955923974514" lon="13.372265947982669">
        <ele>164.35</ele>
        <time>2025-02-10T10:04:17.347Z</time>
      </trkpt>
      <trkpt lat="58.57800998724997" lon="13.372297966852784">
        <ele>164.41</ele>
        <time>2025-02-10T10:04:57.129Z</time>
      </trkpt>
      <trkpt lat="58.578062960878015" lon="13.372316993772984">
        <ele>164.48</ele>
        <time>2025-02-10T10:05:36.912Z</time>
      </trkpt>
      <trkpt lat="58.57811593450606" lon="13.372322944924235">
        <ele>164.54</ele>
        <time>2025-02-10T10:06:16.696Z</time>
      </trkpt>
      <trkpt lat="58.578169997781515" lon="13.372317999601364">
        <ele>164.6</ele>
        <time>2025-02-10T10:06:56.481Z</time>
      </trkpt>
      <trkpt lat="58.57822498306632" lon="13.372302995994687">
        <ele>164.66</ele>
        <time>2025-02-10T10:07:36.267Z</time>
      </trkpt>
      <trkpt lat="58.578278962522745" lon="13.372274916619062">
        <ele>164.72</ele>
        <time>2025-02-10T10:08:16.053Z</time>
      </trkpt>
      <trkpt lat="58.57833193615079" lon="13.372231917455792">
        <ele>164.77</ele>
        <time>2025-02-10T10:08:55.840Z</time>
      </trkpt>
      <trkpt lat="58.578384993597865" lon="13.372185984626412">
        <ele>164.82</ele>
        <time>2025-02-10T10:09:35.628Z</time>
      </trkpt>
      <trkpt lat="58.57843997888267" lon="13.372148936614394">
        <ele>164.86</ele>
        <time>2025-02-10T10:10:15.417Z</time>
      </trkpt>
      <trkpt lat="58.578498987481" lon="13.372112978249788">
        <ele>164.91</ele>
        <time>2025-02-10T10:10:55.207Z</time>
      </trkpt>
      <trkpt lat="58.5785679705441" lon="13.372083976864815">
        <ele>164.95</ele>
        <time>2025-02-10T10:11:34.998Z</time>
      </trkpt>
      <trkpt lat="58.578643994405866" lon="13.372065955772996">
        <ele>164.99</ele>
        <time>2025-02-10T10:12:14.791Z</time>
      </trkpt>
      <trkpt lat="58.5787199344486" lon="13.372060926631093">
        <ele>165.03</ele>
        <time>2025-02-10T10:12:54.585Z</time>
      </trkpt>
      <trkpt lat="58.57879897579551" lon="13.372061932459474">
        <ele>165.07</ele>
        <time>2025-02-10T10:13:34.380Z</time>
      </trkpt>
      <trkpt lat="58.578882962465286" lon="13.37207299657166">
        <ele>165.1</ele>
        <time>2025-02-10T10:14:14.176Z</time>
      </trkpt>
      <trkpt lat="58.578966949135065" lon="13.372097974643111">
        <ele>165.13</ele>
        <time>2025-02-10T10:14:53.974Z</time>
      </trkpt>
      <trkpt lat="58.57905596494675" lon="13.372136950492859">
        <ele>165.16</ele>
        <time>2025-02-10T10:15:33.773Z</time>
      </trkpt>
      <trkpt lat="58.57914598658681" lon="13.372171986848116">
        <ele>165.19</ele>
        <time>2025-02-10T10:16:13.574Z</time>
      </trkpt>
      <trkpt lat="58.57923994772136" lon="13.37220098823309">
        <ele>165.22</ele>
        <time>2025-02-10T10:16:53.376Z</time>
      </trkpt>
      <trkpt lat="58.57933399267495" lon="13.372237952426076">
        <ele>165.24</ele>
        <time>2025-02-10T10:17:33.180Z</time>
      </trkpt>
      <trkpt lat="58.57943097129464" lon="13.372270977124572">
        <ele>165.26</ele>
        <time>2025-02-10T10:18:12.985Z</time>
      </trkpt>
      <trkpt lat="58.57952895574272" lon="13.372302995994687">
        <ele>165.28</ele>
        <time>2025-02-10T10:18:52.792Z</time>
      </trkpt>
      <trkpt lat="58.57962895184755" lon="13.372337948530912">
        <ele>165.31</ele>
        <time>2025-02-10T10:19:32.601Z</time>
      </trkpt>
      <trkpt lat="58.57972593046725" lon="13.372365944087505">
        <ele>165.33</ele>
        <time>2025-02-10T10:20:12.411Z</time>
      </trkpt>
      <trkpt lat="58.579822992905974" lon="13.372398968786001">
        <ele>165.34</ele>
        <time>2025-02-10T10:20:52.223Z</time>
      </trkpt>
      <trkpt lat="58.57992097735405" lon="13.372431993484497">
        <ele>165.36</ele>
        <time>2025-02-10T10:21:32.036Z</time>
      </trkpt>
      <trkpt lat="58.58001594431698" lon="13.37246392853558">
        <ele>165.37</ele>
        <time>2025-02-10T10:22:11.851Z</time>
      </trkpt>
      <trkpt lat="58.58010898344219" lon="13.372490918263793">
        <ele>165.4</ele>
        <time>2025-02-10T10:22:51.667Z</time>
      </trkpt>
      <trkpt lat="58.58020093291998" lon="13.372515980154276">
        <ele>165.42</ele>
        <time>2025-02-10T10:23:31.485Z</time>
      </trkpt>
      <trkpt lat="58.58028994873166" lon="13.372542969882488">
        <ele>165.44</ele>
        <time>2025-02-10T10:24:11.304Z</time>
      </trkpt>
      <trkpt lat="58.5803759470582" lon="13.372576916590333">
        <ele>165.46</ele>
        <time>2025-02-10T10:24:51.125Z</time>
      </trkpt>
      <trkpt lat="58.58045792207122" lon="13.372608935460448">
        <ele>165.48</ele>
        <time>2025-02-10T10:25:30.947Z</time>
      </trkpt>
      <trkpt lat="58.58054098673165" lon="13.372640954330564">
        <ele>165.49</ele>
        <time>2025-02-10T10:26:10.770Z</time>
      </trkpt>
      <trkpt lat="58.580622961744666" lon="13.37267599068582">
        <ele>165.51</ele>
        <time>2025-02-10T10:26:50.595Z</time>
      </trkpt>
      <trkpt lat="58.580705942586064" lon="13.372713960707188">
        <ele>165.53</ele>
        <time>2025-02-10T10:27:30.421Z</time>
      </trkpt>
      <trkpt lat="58.58078992925584" lon="13.372752936556935">
        <ele>165.55</ele>
        <time>2025-02-10T10:28:10.249Z</time>
      </trkpt>
      <trkpt lat="58.580876933410764" lon="13.372792918235064">
        <ele>165.57</ele>
        <time>2025-02-10T10:28:50.078Z</time>
      </trkpt>
      <trkpt lat="58.58096092008054" lon="13.372833989560604">
        <ele>165.58</ele>
        <time>2025-02-10T10:29:29.908Z</time>
      </trkpt>
      <trkpt lat="58.58104499056935" lon="13.372873971238732">
        <ele>165.59</ele>
        <time>2025-02-10T10:30:09.740Z</time>
      </trkpt>
      <trkpt lat="58.58112595975399" lon="13.372909929603338">
        <ele>165.6</ele>
        <time>2025-02-10T10:30:49.573Z</time>
      </trkpt>
      <trkpt lat="58.58120298944414" lon="13.372939936816692">
        <ele>165.61</ele>
        <time>2025-02-10T10:31:29.407Z</time>
      </trkpt>
      <trkpt lat="58.58128295280039" lon="13.372973967343569">
        <ele>165.63</ele>
        <time>2025-02-10T10:32:09.243Z</time>
      </trkpt>
      <trkpt lat="58.5813619941473" lon="13.373013949021697">
        <ele>165.64</ele>
        <time>2025-02-10T10:32:49.080Z</time>
      </trkpt>
      <trkpt lat="58.58144195750356" lon="13.373053930699825">
        <ele>165.65</ele>
        <time>2025-02-10T10:33:28.918Z</time>
      </trkpt>
      <trkpt lat="58.581523932516575" lon="13.373090978711843">
        <ele>165.65</ele>
        <time>2025-02-10T10:34:08.758Z</time>
      </trkpt>
      <trkpt lat="58.58159995637834" lon="13.373120985925198">
        <ele>165.66</ele>
        <time>2025-02-10T10:34:48.599Z</time>
      </trkpt>
      <trkpt lat="58.58167598024011" lon="13.373153926804662">
        <ele>165.67</ele>
        <time>2025-02-10T10:35:28.441Z</time>
      </trkpt>
      <trkpt lat="58.58175493776798" lon="13.373188963159919">
        <ele>165.67</ele>
        <time>2025-02-10T10:36:08.284Z</time>
      </trkpt>
      <trkpt lat="58.58183397911489" lon="13.373221987858415">
        <ele>165.68</ele>
        <time>2025-02-10T10:36:48.129Z</time>
      </trkpt>
      <trkpt lat="58.58191394247115" lon="13.373254928737879">
        <ele>165.69</ele>
        <time>2025-02-10T10:37:27.975Z</time>
      </trkpt>
      <trkpt lat="58.581993989646435" lon="13.373285941779613">
        <ele>165.7</ele>
        <time>2025-02-10T10:38:07.822Z</time>
      </trkpt>
      <trkpt lat="58.58207395300269" lon="13.373313937336206">
        <ele>165.71</ele>
        <time>2025-02-10T10:38:47.671Z</time>
      </trkpt>
      <trkpt lat="58.58214997686446" lon="13.37333899922669">
        <ele>165.72</ele>
        <time>2025-02-10T10:39:27.521Z</time>
      </trkpt>
      <trkpt lat="58.58222398906946" lon="13.37336196564138">
        <ele>165.72</ele>
        <time>2025-02-10T10:40:07.372Z</time>
      </trkpt>
      <trkpt lat="58.582297917455435" lon="13.373380992561579">
        <ele>165.73</ele>
        <time>2025-02-10T10:40:47.224Z</time>
      </trkpt>
      <trkpt lat="58.58236799016595" lon="13.373398929834366">
        <ele>165.74</ele>
        <time>2025-02-10T10:41:27.077Z</time>
      </trkpt>
      <trkpt lat="58.58243395574391" lon="13.373415945097804">
        <ele>165.75</ele>
        <time>2025-02-10T10:42:06.932Z</time>
      </trkpt>
      <trkpt lat="58.58249992132187" lon="13.37342793121934">
        <ele>165.76</ele>
        <time>2025-02-10T10:42:46.788Z</time>
      </trkpt>
      <trkpt lat="58.58256597071886" lon="13.373440923169255">
        <ele>165.76</ele>
        <time>2025-02-10T10:43:26.645Z</time>
      </trkpt>
      <trkpt lat="58.58263193629682" lon="13.373459950089455">
        <ele>165.77</ele>
        <time>2025-02-10T10:44:06.503Z</time>
      </trkpt>
      <trkpt lat="58.58269094489515" lon="13.373487945646048">
        <ele>165.78</ele>
        <time>2025-02-10T10:44:46.362Z</time>
      </trkpt>
      <trkpt lat="58.582747941836715" lon="13.373518958687782">
        <ele>165.79</ele>
        <time>2025-02-10T10:45:26.222Z</time>
      </trkpt>
      <trkpt lat="58.58280192129314" lon="13.373550977557898">
        <ele>165.79</ele>
        <time>2025-02-10T10:46:06.083Z</time>
      </trkpt>
      <trkpt lat="58.582855984568596" lon="13.373588947579265">
        <ele>165.8</ele>
        <time>2025-02-10T10:46:45.944Z</time>
      </trkpt>
      <trkpt lat="58.58291197568178" lon="13.373627923429012">
        <ele>165.81</ele>
        <time>2025-02-10T10:47:25.806Z</time>
      </trkpt>
      <trkpt lat="58.58296897262335" lon="13.373668994754553">
        <ele>165.82</ele>
        <time>2025-02-10T10:48:05.669Z</time>
      </trkpt>
      <trkpt lat="58.583026975393295" lon="13.373714927583933">
        <ele>165.84</ele>
        <time>2025-02-10T10:48:45.533Z</time>
      </trkpt>
      <trkpt lat="58.58308397233486" lon="13.373761950060725">
        <ele>165.85</ele>
        <time>2025-02-10T10:49:25.398Z</time>
      </trkpt>
      <trkpt lat="58.58314197510481" lon="13.373802937567234">
        <ele>165.86</ele>
        <time>2025-02-10T10:50:05.264Z</time>
      </trkpt>
      <trkpt lat="58.58320198953152" lon="13.373844930902123">
        <ele>165.88</ele>
        <time>2025-02-10T10:50:45.131Z</time>
      </trkpt>
      <trkpt lat="58.583260998129845" lon="13.373878961429">
        <ele>165.9</ele>
        <time>2025-02-10T10:51:24.999Z</time>
      </trkpt>
      <trkpt lat="58.58332092873752" lon="13.373914919793606">
        <ele>165.92</ele>
        <time>2025-02-10T10:52:04.868Z</time>
      </trkpt>
      <trkpt lat="58.58338094316423" lon="13.373949956148863">
        <ele>165.94</ele>
        <time>2025-02-10T10:52:44.738Z</time>
      </trkpt>
      <trkpt lat="58.5834429692477" lon="13.373978957533836">
        <ele>165.96</ele>
        <time>2025-02-10T10:53:24.609Z</time>
      </trkpt>
      <trkpt lat="58.58350499533117" lon="13.374001923948526">
        <ele>165.98</ele>
        <time>2025-02-10T10:54:04.481Z</time>
      </trkpt>
      <trkpt lat="58.583567943423986" lon="13.374024974182248">
        <ele>166.01</ele>
        <time>2025-02-10T10:54:44.354Z</time>
      </trkpt>
      <trkpt lat="58.583630975335836" lon="13.374047940596938">
        <ele>166.04</ele>
        <time>2025-02-10T10:55:24.229Z</time>
      </trkpt>
      <trkpt lat="58.583693923428655" lon="13.37407099083066">
        <ele>166.06</ele>
        <time>2025-02-10T10:56:04.105Z</time>
      </trkpt>
      <trkpt lat="58.583756955340505" lon="13.374099992215633">
        <ele>166.09</ele>
        <time>2025-02-10T10:56:43.982Z</time>
      </trkpt>
      <trkpt lat="58.583819987252355" lon="13.374134944751859">
        <ele>166.12</ele>
        <time>2025-02-10T10:57:23.860Z</time>
      </trkpt>
      <trkpt lat="58.58388192951679" lon="13.374176938086748">
        <ele>166.15</ele>
        <time>2025-02-10T10:58:03.739Z</time>
      </trkpt>
      <trkpt lat="58.58394294977188" lon="13.374225972220302">
        <ele>166.18</ele>
        <time>2025-02-10T10:58:43.619Z</time>
      </trkpt>
      <trkpt lat="58.58400095254183" lon="13.374279951676726">
        <ele>166.21</ele>
        <time>2025-02-10T10:59:23.500Z</time>
      </trkpt>
      <trkpt lat="58.584056943655014" lon="13.374335942789912">
        <ele>166.25</ele>
        <time>2025-02-10T11:00:03.382Z</time>
      </trkpt>
      <trkpt lat="58.58410798944533" lon="13.374396963045001">
        <ele>166.29</ele>
        <time>2025-02-10T11:00:43.265Z</time>
      </trkpt>
      <trkpt lat="58.58415693975985" lon="13.374463934451342">
        <ele>166.32</ele>
        <time>2025-02-10T11:01:23.149Z</time>
      </trkpt>
      <trkpt lat="58.58420396223664" lon="13.374534929171205">
        <ele>166.36</ele>
        <time>2025-02-10T11:02:03.034Z</time>
      </trkpt>
      <trkpt lat="58.584248973056674" lon="13.37460894137621">
        <ele>166.4</ele>
        <time>2025-02-10T11:02:42.920Z</time>
      </trkpt>
      <trkpt lat="58.584292978048325" lon="13.374687982723117">
        <ele>166.44</ele>
        <time>2025-02-10T11:03:22.807Z</time>
      </trkpt>
      <trkpt lat="58.584337988868356" lon="13.374766940250993">
        <ele>166.48</ele>
        <time>2025-02-10T11:04:02.695Z</time>
      </trkpt>
      <trkpt lat="58.584381993860006" lon="13.374849921092391">
        <ele>166.52</ele>
        <time>2025-02-10T11:04:42.584Z</time>
      </trkpt>
      <trkpt lat="58.58442599885166" lon="13.37493097409606">
        <ele>166.57</ele>
        <time>2025-02-10T11:05:22.474Z</time>
      </trkpt>
      <trkpt lat="58.584470925852656" lon="13.375013954937458">
        <ele>166.61</ele>
        <time>2025-02-10T11:06:02.365Z</time>
      </trkpt>
      <trkpt lat="58.58451694250107" lon="13.375094924122095">
        <ele>166.66</ele>
        <time>2025-02-10T11:06:42.257Z</time>
      </trkpt>
      <trkpt lat="58.58456295914948" lon="13.375175977125764">
        <ele>166.71</ele>
        <time>2025-02-10T11:07:22.150Z</time>
      </trkpt>
      <trkpt lat="58.58460998162627" lon="13.37525392882526">
        <ele>166.76</ele>
        <time>2025-02-10T11:08:02.044Z</time>
      </trkpt>
      <trkpt lat="58.584658931940794" lon="13.375328946858644">
        <ele>166.81</ele>
        <time>2025-02-10T11:08:41.939Z</time>
      </trkpt>
      <trkpt lat="58.58470796607435" lon="13.375399941578507">
        <ele>166.86</ele>
        <time>2025-02-10T11:09:21.835Z</time>
      </trkpt>
      <trkpt lat="58.58475792221725" lon="13.375467918813229">
        <ele>166.92</ele>
        <time>2025-02-10T11:10:01.732Z</time>
      </trkpt>
      <trkpt lat="58.584810979664326" lon="13.37553296238184">
        <ele>166.98</ele>
        <time>2025-02-10T11:10:41.630Z</time>
      </trkpt>
      <trkpt lat="58.58486697077751" lon="13.375593982636929">
        <ele>167.04</ele>
        <time>2025-02-10T11:11:21.529Z</time>
      </trkpt>
      <trkpt lat="58.58492195606232" lon="13.375654919072986">
        <ele>167.1</ele>
        <time>2025-02-10T11:12:01.429Z</time>
      </trkpt>
      <trkpt lat="58.58497895300388" lon="13.375714933499694">
        <ele>167.16</ele>
        <time>2025-02-10T11:12:41.330Z</time>
      </trkpt>
      <trkpt lat="58.58503594994545" lon="13.375772936269641">
        <ele>167.23</ele>
        <time>2025-02-10T11:13:21.232Z</time>
      </trkpt>
      <trkpt lat="58.5850939527154" lon="13.375829933211207">
        <ele>167.3</ele>
        <time>2025-02-10T11:14:01.135Z</time>
      </trkpt>
      <trkpt lat="58.585151955485344" lon="13.375887935981154">
        <ele>167.37</ele>
        <time>2025-02-10T11:14:41.039Z</time>
      </trkpt>
      <trkpt lat="58.58520995825529" lon="13.375944932922721">
        <ele>167.44</ele>
        <time>2025-02-10T11:15:20.944Z</time>
      </trkpt>
      <trkpt lat="58.58526796102524" lon="13.376003941521049">
        <ele>167.52</ele>
        <time>2025-02-10T11:16:00.850Z</time>
      </trkpt>
      <trkpt lat="58.585325963795185" lon="13.376062950119376">
        <ele>167.59</ele>
        <time>2025-02-10T11:16:40.757Z</time>
      </trkpt>
      <trkpt lat="58.58538396656513" lon="13.376120952889323">
        <ele>167.66</ele>
        <time>2025-02-10T11:17:20.665Z</time>
      </trkpt>
      <trkpt lat="58.5854409635067" lon="13.37617794983089">
        <ele>167.74</ele>
        <time>2025-02-10T11:18:00.574Z</time>
      </trkpt>
      <trkpt lat="58.585497960448265" lon="13.376233940944076">
        <ele>167.82</ele>
        <time>2025-02-10T11:18:40.484Z</time>
      </trkpt>
      <trkpt lat="58.58555495738983" lon="13.376289932057261">
        <ele>167.9</ele>
        <time>2025-02-10T11:19:20.395Z</time>
      </trkpt>
      <trkpt lat="58.5856119543314" lon="13.376346928998828">
        <ele>167.98</ele>
        <time>2025-02-10T11:20:00.307Z</time>
      </trkpt>
      <trkpt lat="58.585670962929726" lon="13.376404931768775">
        <ele>168.05</ele>
        <time>2025-02-10T11:20:40.220Z</time>
      </trkpt>
      <trkpt lat="58.58572896569967" lon="13.376463940367103">
        <ele>168.14</ele>
        <time>2025-02-10T11:21:20.134Z</time>
      </trkpt>
      <trkpt lat="58.58578696846962" lon="13.37652194313705">
        <ele>168.22</ele>
        <time>2025-02-10T11:22:00.049Z</time>
      </trkpt>
      <trkpt lat="58.58584597706795" lon="13.376578940078616">
        <ele>168.3</ele>
        <time>2025-02-10T11:22:39.965Z</time>
      </trkpt>
      <trkpt lat="58.585904985666275" lon="13.376634931191802">
        <ele>168.39</ele>
        <time>2025-02-10T11:23:19.882Z</time>
      </trkpt>
      <trkpt lat="58.58596491627395" lon="13.376691928133368">
        <ele>168.47</ele>
        <time>2025-02-10T11:23:59.800Z</time>
      </trkpt>
      <trkpt lat="58.58602694235742" lon="13.376749930903316">
        <ele>168.56</ele>
        <time>2025-02-10T11:24:39.720Z</time>
      </trkpt>
      <trkpt lat="58.58608997426927" lon="13.376806927844882">
        <ele>168.65</ele>
        <time>2025-02-10T11:25:19.641Z</time>
      </trkpt>
      <trkpt lat="58.58615292236209" lon="13.376860991120338">
        <ele>168.74</ele>
        <time>2025-02-10T11:25:59.563Z</time>
      </trkpt>
      <trkpt lat="58.58621696010232" lon="13.376916982233524">
        <ele>168.83</ele>
        <time>2025-02-10T11:26:39.486Z</time>
      </trkpt>
      <trkpt lat="58.58628099784255" lon="13.37697397917509">
        <ele>168.92</ele>
        <time>2025-02-10T11:27:19.410Z</time>
      </trkpt>
      <trkpt lat="58.58634394593537" lon="13.377033993601799">
        <ele>169.02</ele>
        <time>2025-02-10T11:27:59.335Z</time>
      </trkpt>
      <trkpt lat="58.5864079836756" lon="13.377089984714985">
        <ele>169.12</ele>
        <time>2025-02-10T11:28:39.261Z</time>
      </trkpt>
      <trkpt lat="58.58647093176842" lon="13.37714396417141">
        <ele>169.22</ele>
        <time>2025-02-10T11:29:19.188Z</time>
      </trkpt>
      <trkpt lat="58.58653396368027" lon="13.377194926142693">
        <ele>169.32</ele>
        <time>2025-02-10T11:29:59.116Z</time>
      </trkpt>
      <trkpt lat="58.586594983935356" lon="13.377243960276246">
        <ele>169.42</ele>
        <time>2025-02-10T11:30:39.046Z</time>
      </trkpt>
      <trkpt lat="58.586656926199794" lon="13.377294922247529">
        <ele>169.52</ele>
        <time>2025-02-10T11:31:18.977Z</time>
      </trkpt>
      <trkpt lat="58.5867169406265" lon="13.377343956381083">
        <ele>169.63</ele>
        <time>2025-02-10T11:31:58.909Z</time>
      </trkpt>
      <trkpt lat="58.58677695505321" lon="13.377391984686255">
        <ele>169.73</ele>
        <time>2025-02-10T11:32:38.842Z</time>
      </trkpt>
      <trkpt lat="58.5868379753083" lon="13.377437917515635">
        <ele>169.84</ele>
        <time>2025-02-10T11:33:18.776Z</time>
      </trkpt>
      <trkpt lat="58.58690092340112" lon="13.37748795747757">
        <ele>169.94</ele>
        <time>2025-02-10T11:33:58.711Z</time>
      </trkpt>
      <trkpt lat="58.58696395531297" lon="13.377545960247517">
        <ele>170.05</ele>
        <time>2025-02-10T11:34:38.647Z</time>
      </trkpt>
      <trkpt lat="58.58702598139644" lon="13.377602957189083">
        <ele>170.16</ele>
        <time>2025-02-10T11:35:18.584Z</time>
      </trkpt>
      <trkpt lat="58.587086917832494" lon="13.377654924988747">
        <ele>170.27</ele>
        <time>2025-02-10T11:35:58.522Z</time>
      </trkpt>
      <trkpt lat="58.58714793808758" lon="13.377706976607442">
        <ele>170.38</ele>
        <time>2025-02-10T11:36:38.461Z</time>
      </trkpt>
      <trkpt lat="58.58721096999943" lon="13.377758944407105">
        <ele>170.49</ele>
        <time>2025-02-10T11:37:18.401Z</time>
      </trkpt>
      <trkpt lat="58.5872729960829" lon="13.37781191803515">
        <ele>170.6</ele>
        <time>2025-02-10T11:37:58.342Z</time>
      </trkpt>
      <trkpt lat="58.58733493834734" lon="13.377864975482225">
        <ele>170.71</ele>
        <time>2025-02-10T11:38:38.285Z</time>
      </trkpt>
      <trkpt lat="58.58739394694567" lon="13.377915937453508">
        <ele>170.83</ele>
        <time>2025-02-10T11:39:18.229Z</time>
      </trkpt>
      <trkpt lat="58.587453961372375" lon="13.377967989072204">
        <ele>170.95</ele>
        <time>2025-02-10T11:39:58.174Z</time>
      </trkpt>
      <trkpt lat="58.587514981627464" lon="13.378020962700248">
        <ele>171.07</ele>
        <time>2025-02-10T11:40:38.120Z</time>
      </trkpt>
      <trkpt lat="58.58757499605417" lon="13.378072930499911">
        <ele>171.19</ele>
        <time>2025-02-10T11:41:18.067Z</time>
      </trkpt>
      <trkpt lat="58.58763492666185" lon="13.378123976290226">
        <ele>171.31</ele>
        <time>2025-02-10T11:41:58.015Z</time>
      </trkpt>
      <trkpt lat="58.58769494108856" lon="13.37817694991827">
        <ele>171.43</ele>
        <time>2025-02-10T11:42:37.964Z</time>
      </trkpt>
      <trkpt lat="58.587753949686885" lon="13.378225984051824">
        <ele>171.56</ele>
        <time>2025-02-10T11:43:17.914Z</time>
      </trkpt>
      <trkpt lat="58.587814969941974" lon="13.378275940194726">
        <ele>171.69</ele>
        <time>2025-02-10T11:43:57.865Z</time>
      </trkpt>
      <trkpt lat="58.58787599019706" lon="13.37832698598504">
        <ele>171.81</ele>
        <time>2025-02-10T11:44:37.817Z</time>
      </trkpt>
      <trkpt lat="58.58793592080474" lon="13.378377947956324">
        <ele>171.94</ele>
        <time>2025-02-10T11:45:17.770Z</time>
      </trkpt>
      <trkpt lat="58.58799694105983" lon="13.378427987918258">
        <ele>172.07</ele>
        <time>2025-02-10T11:45:57.724Z</time>
      </trkpt>
      <trkpt lat="58.58805796131492" lon="13.37847693823278">
        <ele>172.2</ele>
        <time>2025-02-10T11:46:37.679Z</time>
      </trkpt>
      <trkpt lat="58.588118981570005" lon="13.378526978194714">
        <ele>172.33</ele>
        <time>2025-02-10T11:47:17.635Z</time>
      </trkpt>
      <trkpt lat="58.58817799016833" lon="13.378575928509235">
        <ele>172.46</ele>
        <time>2025-02-10T11:47:57.592Z</time>
      </trkpt>
      <trkpt lat="58.58823792077601" lon="13.378622950986028">
        <ele>172.59</ele>
        <time>2025-02-10T11:48:37.550Z</time>
      </trkpt>
      <trkpt lat="58.58829692937434" lon="13.378672990947962">
        <ele>172.73</ele>
        <time>2025-02-10T11:49:17.509Z</time>
      </trkpt>
      <trkpt lat="58.588354932144284" lon="13.378722947090864">
        <ele>172.86</ele>
        <time>2025-02-10T11:49:57.469Z</time>
      </trkpt>
      <trkpt lat="58.58841192908585" lon="13.378772987052798">
        <ele>173.0</ele>
        <time>2025-02-10T11:50:37.430Z</time>
      </trkpt>
      <trkpt lat="58.58846892602742" lon="13.378819925710559">
        <ele>173.13</ele>
        <time>2025-02-10T11:51:17.392Z</time>
      </trkpt>
      <trkpt lat="58.588525922968984" lon="13.378866948187351">
        <ele>173.27</ele>
        <time>2025-02-10T11:51:57.355Z</time>
      </trkpt>
      <trkpt lat="58.58858291991055" lon="13.378916988149285">
        <ele>173.4</ele>
        <time>2025-02-10T11:52:37.319Z</time>
      </trkpt>
      <trkpt lat="58.5886409226805" lon="13.378964932635427">
        <ele>173.53</ele>
        <time>2025-02-10T11:53:17.284Z</time>
      </trkpt>
      <trkpt lat="58.588698925450444" lon="13.379011955112219">
        <ele>173.67</ele>
        <time>2025-02-10T11:53:57.250Z</time>
      </trkpt>
      <trkpt lat="58.58875692822039" lon="13.379062917083502">
        <ele>173.81</ele>
        <time>2025-02-10T11:54:37.217Z</time>
      </trkpt>
      <trkpt lat="58.58881392516196" lon="13.379117986187339">
        <ele>173.94</ele>
        <time>2025-02-10T11:55:17.185Z</time>
      </trkpt>
      <trkpt lat="58.588872933760285" lon="13.379169953987002">
        <ele>174.08</ele>
        <time>2025-02-10T11:55:57.155Z</time>
      </trkpt>
      <trkpt lat="58.58893093653023" lon="13.379221921786666">
        <ele>174.22</ele>
        <time>2025-02-10T11:56:37.126Z</time>
      </trkpt>
      <trkpt lat="58.58898994512856" lon="13.379275985062122">
        <ele>174.36</ele>
        <time>2025-02-10T11:57:17.098Z</time>
      </trkpt>
      <trkpt lat="58.58904794789851" lon="13.379329964518547">
        <ele>174.5</ele>
        <time>2025-02-10T11:57:57.071Z</time>
      </trkpt>
      <trkpt lat="58.589107962325215" lon="13.37938092648983">
        <ele>174.64</ele>
        <time>2025-02-10T11:58:37.045Z</time>
      </trkpt>
      <trkpt lat="58.589167976751924" lon="13.379432978108525">
        <ele>174.78</ele>
        <time>2025-02-10T11:59:17.020Z</time>
      </trkpt>
      <trkpt lat="58.58922899700701" lon="13.379483940079808">
        <ele>174.92</ele>
        <time>2025-02-10T11:59:56.996Z</time>
      </trkpt>
      <trkpt lat="58.58928699977696" lon="13.379536997526884">
        <ele>175.07</ele>
        <time>2025-02-10T12:00:36.973Z</time>
      </trkpt>
      <trkpt lat="58.589345924556255" lon="13.379588965326548">
        <ele>175.21</ele>
        <time>2025-02-10T12:01:16.951Z</time>
      </trkpt>
      <trkpt lat="58.5894039273262" lon="13.379640933126211">
        <ele>175.35</ele>
        <time>2025-02-10T12:01:56.930Z</time>
      </trkpt>
      <trkpt lat="58.58946092426777" lon="13.379687955603004">
        <ele>175.5</ele>
        <time>2025-02-10T12:02:36.910Z</time>
      </trkpt>
      <trkpt lat="58.58951699919999" lon="13.379738917574286">
        <ele>175.64</ele>
        <time>2025-02-10T12:03:16.891Z</time>
      </trkpt>
      <trkpt lat="58.58957592397928" lon="13.379792980849743">
        <ele>175.78</ele>
        <time>2025-02-10T12:03:56.873Z</time>
      </trkpt>
      <trkpt lat="58.58963292092085" lon="13.379844948649406">
        <ele>175.92</ele>
        <time>2025-02-10T12:04:36.856Z</time>
      </trkpt>
      <trkpt lat="58.589689917862415" lon="13.37989691644907">
        <ele>176.06</ele>
        <time>2025-02-10T12:05:16.840Z</time>
      </trkpt>
      <trkpt lat="58.58974892646074" lon="13.379946956411004">
        <ele>176.2</ele>
        <time>2025-02-10T12:05:56.825Z</time>
      </trkpt>
      <trkpt lat="58.58980894088745" lon="13.379995990544558">
        <ele>176.34</ele>
        <time>2025-02-10T12:06:36.811Z</time>
      </trkpt>
      <trkpt lat="58.5898669436574" lon="13.380042929202318">
        <ele>176.48</ele>
        <time>2025-02-10T12:07:16.798Z</time>
      </trkpt>
      <trkpt lat="58.589923940598965" lon="13.38008794002235">
        <ele>176.62</ele>
        <time>2025-02-10T12:07:56.786Z</time>
      </trkpt>
      <trkpt lat="58.58997892588377" lon="13.380134962499142">
        <ele>176.75</ele>
        <time>2025-02-10T12:08:36.775Z</time>
      </trkpt>
      <trkpt lat="58.590034916996956" lon="13.380180979147553">
        <ele>176.89</ele>
        <time>2025-02-10T12:09:16.765Z</time>
      </trkpt>
      <trkpt lat="58.590091997757554" lon="13.380226995795965">
        <ele>177.02</ele>
        <time>2025-02-10T12:09:56.756Z</time>
      </trkpt>
      <trkpt lat="58.59014899469912" lon="13.380270916968584">
        <ele>177.16</ele>
        <time>2025-02-10T12:10:36.748Z</time>
      </trkpt>
      <trkpt lat="58.590204985812306" lon="13.380316933616996">
        <ele>177.3</ele>
        <time>2025-02-10T12:11:16.741Z</time>
      </trkpt>
      <trkpt lat="58.59026298858225" lon="13.380364961922169">
        <ele>177.44</ele>
        <time>2025-02-10T12:11:56.735Z</time>
      </trkpt>
      <trkpt lat="58.59031998552382" lon="13.3804099727422">
        <ele>177.57</ele>
        <time>2025-02-10T12:12:36.730Z</time>
      </trkpt>
      <trkpt lat="58.590375976637006" lon="13.38045397773385">
        <ele>177.71</ele>
        <time>2025-02-10T12:13:16.726Z</time>
      </trkpt>
      <trkpt lat="58.59043096192181" lon="13.380500916391611">
        <ele>177.84</ele>
        <time>2025-02-10T12:13:56.723Z</time>
      </trkpt>
      <trkpt lat="58.59048896469176" lon="13.380551962181926">
        <ele>177.97</ele>
        <time>2025-02-10T12:14:36.721Z</time>
      </trkpt>
      <trkpt lat="58.590545961633325" lon="13.38060392998159">
        <ele>178.11</ele>
        <time>2025-02-10T12:15:16.720Z</time>
      </trkpt>
      <trkpt lat="58.59060094691813" lon="13.380654975771904">
        <ele>178.24</ele>
        <time>2025-02-10T12:15:56.720Z</time>
      </trkpt>
      <trkpt lat="58.590656938031316" lon="13.380707949399948">
        <ele>178.38</ele>
        <time>2025-02-10T12:16:36.721Z</time>
      </trkpt>
      <trkpt lat="58.59071494080126" lon="13.380758995190263">
        <ele>178.51</ele>
        <time>2025-02-10T12:17:16.723Z</time>
      </trkpt>
      <trkpt lat="58.59077193774283" lon="13.380810962989926">
        <ele>178.64</ele>
        <time>2025-02-10T12:17:56.726Z</time>
      </trkpt>
      <trkpt lat="58.59083094634116" lon="13.38086293078959">
        <ele>178.77</ele>
        <time>2025-02-10T12:18:36.730Z</time>
      </trkpt>
      <trkpt lat="58.590890960767865" lon="13.380912970751524">
        <ele>178.9</ele>
        <time>2025-02-10T12:19:16.735Z</time>
      </trkpt>
      <trkpt lat="58.59094996936619" lon="13.380962926894426">
        <ele>179.03</ele>
        <time>2025-02-10T12:19:56.741Z</time>
      </trkpt>
      <trkpt lat="58.5910099837929" lon="13.3810109551996">
        <ele>179.16</ele>
        <time>2025-02-10T12:20:36.748Z</time>
      </trkpt>
      <trkpt lat="58.59106999821961" lon="13.381058983504772">
        <ele>179.28</ele>
        <time>2025-02-10T12:21:16.756Z</time>
      </trkpt>
      <trkpt lat="58.591130934655666" lon="13.381108939647675">
        <ele>179.41</ele>
        <time>2025-02-10T12:21:56.765Z</time>
      </trkpt>
      <trkpt lat="58.591190949082375" lon="13.381155962124467">
        <ele>179.53</ele>
        <time>2025-02-10T12:22:36.775Z</time>
      </trkpt>
      <trkpt lat="58.59125096350908" lon="13.38120399042964">
        <ele>179.64</ele>
        <time>2025-02-10T12:23:16.786Z</time>
      </trkpt>
      <trkpt lat="58.59130896627903" lon="13.38124992325902">
        <ele>179.76</ele>
        <time>2025-02-10T12:23:56.798Z</time>
      </trkpt>
      <trkpt lat="58.591365963220596" lon="13.38129392825067">
        <ele>179.88</ele>
        <time>2025-02-10T12:24:36.811Z</time>
      </trkpt>
      <trkpt lat="58.59142195433378" lon="13.381337933242321">
        <ele>179.99</ele>
        <time>2025-02-10T12:25:16.825Z</time>
      </trkpt>
      <trkpt lat="58.59147895127535" lon="13.381382944062352">
        <ele>180.11</ele>
        <time>2025-02-10T12:25:56.840Z</time>
      </trkpt>
      <trkpt lat="58.591537959873676" lon="13.381430972367525">
        <ele>180.22</ele>
        <time>2025-02-10T12:26:36.856Z</time>
      </trkpt>
      <trkpt lat="58.59159596264362" lon="13.381482940167189">
        <ele>180.33</ele>
        <time>2025-02-10T12:27:16.873Z</time>
      </trkpt>
      <trkpt lat="58.59165497124195" lon="13.381534991785884">
        <ele>180.44</ele>
        <time>2025-02-10T12:27:56.891Z</time>
      </trkpt>
      <trkpt lat="58.59171397984028" lon="13.381585953757167">
        <ele>180.55</ele>
        <time>2025-02-10T12:28:36.910Z</time>
      </trkpt>
      <trkpt lat="58.591772988438606" lon="13.381635993719101">
        <ele>180.66</ele>
        <time>2025-02-10T12:29:16.930Z</time>
      </trkpt>
      <trkpt lat="58.591831997036934" lon="13.381684944033623">
        <ele>180.76</ele>
        <time>2025-02-10T12:29:56.951Z</time>
      </trkpt>
      <trkpt lat="58.59188999980688" lon="13.381736995652318">
        <ele>180.86</ele>
        <time>2025-02-10T12:30:36.973Z</time>
      </trkpt>
      <trkpt lat="58.59194599092007" lon="13.381787957623601">
        <ele>180.97</ele>
        <time>2025-02-10T12:31:16.996Z</time>
      </trkpt>
      <trkpt lat="58.59200198203325" lon="13.381838919594884">
        <ele>181.07</ele>
        <time>2025-02-10T12:31:57.020Z</time>
      </trkpt>
      <trkpt lat="58.59205797314644" lon="13.381889965385199">
        <ele>181.17</ele>
        <time>2025-02-10T12:32:37.045Z</time>
      </trkpt>
      <trkpt lat="58.592112958431244" lon="13.381940927356482">
        <ele>181.27</ele>
        <time>2025-02-10T12:33:17.071Z</time>
      </trkpt>
      <trkpt lat="58.59216894954443" lon="13.381991973146796">
        <ele>181.37</ele>
        <time>2025-02-10T12:33:57.098Z</time>
      </trkpt>
      <trkpt lat="58.592225946485996" lon="13.382040923461318">
        <ele>181.47</ele>
        <time>2025-02-10T12:34:37.126Z</time>
      </trkpt>
      <trkpt lat="58.592284955084324" lon="13.382090963423252">
        <ele>181.56</ele>
        <time>2025-02-10T12:35:17.155Z</time>
      </trkpt>
      <trkpt lat="58.59234396368265" lon="13.382141925394535">
        <ele>181.66</ele>
        <time>2025-02-10T12:35:57.186Z</time>
      </trkpt>
      <trkpt lat="58.59240498393774" lon="13.382196994498372">
        <ele>181.75</ele>
        <time>2025-02-10T12:36:37.218Z</time>
      </trkpt>
      <trkpt lat="58.59246499836445" lon="13.382252985611558">
        <ele>181.85</ele>
        <time>2025-02-10T12:37:17.251Z</time>
      </trkpt>
      <trkpt lat="58.592526940628886" lon="13.382305959239602">
        <ele>181.94</ele>
        <time>2025-02-10T12:37:57.285Z</time>
      </trkpt>
      <trkpt lat="58.592587960883975" lon="13.382356921210885">
        <ele>182.04</ele>
        <time>2025-02-10T12:38:37.320Z</time>
      </trkpt>
      <trkpt lat="58.592648981139064" lon="13.3824079670012">
        <ele>182.13</ele>
        <time>2025-02-10T12:39:17.356Z</time>
      </trkpt>
      <trkpt lat="58.59270991757512" lon="13.382459934800863">
        <ele>182.22</ele>
        <time>2025-02-10T12:39:57.393Z</time>
      </trkpt>
      <trkpt lat="58.59276993200183" lon="13.382509974762797">
        <ele>182.31</ele>
        <time>2025-02-10T12:40:37.431Z</time>
      </trkpt>
      <trkpt lat="58.59282894060016" lon="13.38256093673408">
        <ele>182.4</ele>
        <time>2025-02-10T12:41:17.470Z</time>
      </trkpt>
      <trkpt lat="58.592887949198484" lon="13.382609970867634">
        <ele>182.48</ele>
        <time>2025-02-10T12:41:57.510Z</time>
      </trkpt>
      <trkpt lat="58.59294695779681" lon="13.382659927010536">
        <ele>182.56</ele>
        <time>2025-02-10T12:42:37.551Z</time>
      </trkpt>
      <trkpt lat="58.59300496056676" lon="13.38270996697247">
        <ele>182.64</ele>
        <time>2025-02-10T12:43:17.593Z</time>
      </trkpt>
      <trkpt lat="58.59306497499347" lon="13.382759923115373">
        <ele>182.72</ele>
        <time>2025-02-10T12:43:57.636Z</time>
      </trkpt>
      <trkpt lat="58.593123983591795" lon="13.382809963077307">
        <ele>182.8</ele>
        <time>2025-02-10T12:44:37.680Z</time>
      </trkpt>
      <trkpt lat="58.59318299219012" lon="13.38286092504859">
        <ele>182.87</ele>
        <time>2025-02-10T12:45:17.725Z</time>
      </trkpt>
      <trkpt lat="58.59324191696942" lon="13.382910965010524">
        <ele>182.95</ele>
        <time>2025-02-10T12:45:57.771Z</time>
      </trkpt>
      <trkpt lat="58.593300925567746" lon="13.382959999144077">
        <ele>183.02</ele>
        <time>2025-02-10T12:46:37.818Z</time>
      </trkpt>
      <trkpt lat="58.59335892833769" lon="13.38300995528698">
        <ele>183.1</ele>
        <time>2025-02-10T12:47:17.866Z</time>
      </trkpt>
      <trkpt lat="58.59341793693602" lon="13.383058989420533">
        <ele>183.17</ele>
        <time>2025-02-10T12:47:57.915Z</time>
      </trkpt>
      <trkpt lat="58.59347493387759" lon="13.383106933906674">
        <ele>183.24</ele>
        <time>2025-02-10T12:48:37.965Z</time>
      </trkpt>
      <trkpt lat="58.593533942475915" lon="13.383155968040228">
        <ele>183.31</ele>
        <time>2025-02-10T12:49:18.016Z</time>
      </trkpt>
      <trkpt lat="58.59359093941748" lon="13.38320592418313">
        <ele>183.37</ele>
        <time>2025-02-10T12:49:58.068Z</time>
      </trkpt>
      <trkpt lat="58.59364793635905" lon="13.383255964145064">
        <ele>183.44</ele>
        <time>2025-02-10T12:50:38.121Z</time>
      </trkpt>
      <trkpt lat="58.593704933300614" lon="13.383305920287967">
        <ele>183.5</ele>
        <time>2025-02-10T12:51:18.175Z</time>
      </trkpt>
      <trkpt lat="58.59376193024218" lon="13.383356966078281">
        <ele>183.56</ele>
        <time>2025-02-10T12:51:58.230Z</time>
      </trkpt>
      <trkpt lat="58.59381892718375" lon="13.383409939706326">
        <ele>183.62</ele>
        <time>2025-02-10T12:52:38.286Z</time>
      </trkpt>
      <trkpt lat="58.593875924125314" lon="13.38346199132502">
        <ele>183.68</ele>
        <time>2025-02-10T12:53:18.343Z</time>
      </trkpt>
      <trkpt lat="58.59393099322915" lon="13.383512953296304">
        <ele>183.73</ele>
        <time>2025-02-10T12:53:58.401Z</time>
      </trkpt>
      <trkpt lat="58.593985978513956" lon="13.383564921095967">
        <ele>183.79</ele>
        <time>2025-02-10T12:54:38.460Z</time>
      </trkpt>
      <trkpt lat="58.59403995797038" lon="13.383616972714663">
        <ele>183.85</ele>
        <time>2025-02-10T12:55:18.520Z</time>
      </trkpt>
      <trkpt lat="58.594093937426805" lon="13.383668940514326">
        <ele>183.9</ele>
        <time>2025-02-10T12:55:58.581Z</time>
      </trkpt>
      <trkpt lat="58.59414992853999" lon="13.38372291997075">
        <ele>183.96</ele>
        <time>2025-02-10T12:56:38.643Z</time>
      </trkpt>
      <trkpt lat="58.59420591965318" lon="13.383774971589446">
        <ele>184.01</ele>
        <time>2025-02-10T12:57:18.706Z</time>
      </trkpt>
      <trkpt lat="58.594259982928634" lon="13.38382895104587">
        <ele>184.06</ele>
        <time>2025-02-10T12:57:58.770Z</time>
      </trkpt>
      <trkpt lat="58.59431396238506" lon="13.383884942159057">
        <ele>184.1</ele>
        <time>2025-02-10T12:58:38.835Z</time>
      </trkpt>
      <trkpt lat="58.59436794184148" lon="13.383940933272243">
        <ele>184.15</ele>
        <time>2025-02-10T12:59:18.901Z</time>
      </trkpt>
      <trkpt lat="58.59442192129791" lon="13.383994996547699">
        <ele>184.19</ele>
        <time>2025-02-10T12:59:58.968Z</time>
      </trkpt>
      <trkpt lat="58.594474978744984" lon="13.384049981832504">
        <ele>184.23</ele>
        <time>2025-02-10T13:00:39.036Z</time>
      </trkpt>
      <trkpt lat="58.594524934887886" lon="13.38410597294569">
        <ele>184.27</ele>
        <time>2025-02-10T13:01:19.105Z</time>
      </trkpt>
      <trkpt lat="58.59457296319306" lon="13.384160958230495">
        <ele>184.31</ele>
        <time>2025-02-10T13:01:59.175Z</time>
      </trkpt>
      <trkpt lat="58.59462099149823" lon="13.38421493768692">
        <ele>184.35</ele>
        <time>2025-02-10T13:02:39.246Z</time>
      </trkpt>
      <trkpt lat="58.594670947641134" lon="13.384270928800106">
        <ele>184.39</ele>
        <time>2025-02-10T13:03:19.318Z</time>
      </trkpt>
      <trkpt lat="58.59472392126918" lon="13.384332954883575">
        <ele>184.42</ele>
        <time>2025-02-10T13:03:59.391Z</time>
      </trkpt>
      <trkpt lat="58.594776978716254" lon="13.384393975138664">
        <ele>184.46</ele>
        <time>2025-02-10T13:04:39.465Z</time>
      </trkpt>
      <trkpt lat="58.5948299523443" lon="13.384455917403102">
        <ele>184.49</ele>
        <time>2025-02-10T13:05:19.540Z</time>
      </trkpt>
      <trkpt lat="58.59488292597234" lon="13.384522972628474">
        <ele>184.52</ele>
        <time>2025-02-10T13:05:59.616Z</time>
      </trkpt>
      <trkpt lat="58.59493598341942" lon="13.384589944034815">
        <ele>184.55</ele>
        <time>2025-02-10T13:06:39.693Z</time>
      </trkpt>
      <trkpt lat="58.594991974532604" lon="13.384660938754678">
        <ele>184.58</ele>
        <time>2025-02-10T13:07:19.771Z</time>
      </trkpt>
      <trkpt lat="58.59504695981741" lon="13.38473193347454">
        <ele>184.6</ele>
        <time>2025-02-10T13:07:59.850Z</time>
      </trkpt>
      <trkpt lat="58.595101945102215" lon="13.384802928194404">
        <ele>184.62</ele>
        <time>2025-02-10T13:08:39.930Z</time>
      </trkpt>
      <trkpt lat="58.59515592455864" lon="13.384873922914267">
        <ele>184.65</ele>
        <time>2025-02-10T13:09:20.011Z</time>
      </trkpt>
      <trkpt lat="58.59521099366248" lon="13.38494692929089">
        <ele>184.67</ele>
        <time>2025-02-10T13:10:00.093Z</time>
      </trkpt>
      <trkpt lat="58.5952649731189" lon="13.385020941495895">
        <ele>184.69</ele>
        <time>2025-02-10T13:10:40.176Z</time>
      </trkpt>
      <trkpt lat="58.595317946746945" lon="13.38509394787252">
        <ele>184.71</ele>
        <time>2025-02-10T13:11:20.260Z</time>
      </trkpt>
      <trkpt lat="58.59536899253726" lon="13.385165948420763">
        <ele>184.72</ele>
        <time>2025-02-10T13:12:00.345Z</time>
      </trkpt>
      <trkpt lat="58.59541995450854" lon="13.385234931483865">
        <ele>184.74</ele>
        <time>2025-02-10T13:12:40.431Z</time>
      </trkpt>
      <trkpt lat="58.59547192230821" lon="13.385305926203728">
        <ele>184.75</ele>
        <time>2025-02-10T13:13:20.518Z</time>
      </trkpt>
      <trkpt lat="58.59552497975528" lon="13.385380944237113">
        <ele>184.76</ele>
        <time>2025-02-10T13:14:00.606Z</time>
      </trkpt>
      <trkpt lat="58.59557996504009" lon="13.385456968098879">
        <ele>184.77</ele>
        <time>2025-02-10T13:14:40.696Z</time>
      </trkpt>
      <trkpt lat="58.59563193283975" lon="13.385531986132264">
        <ele>184.78</ele>
        <time>2025-02-10T13:15:20.787Z</time>
      </trkpt>
      <trkpt lat="58.59568599611521" lon="13.385608932003379">
        <ele>184.8</ele>
        <time>2025-02-10T13:16:00.879Z</time>
      </trkpt>
      <trkpt lat="58.59573896974325" lon="13.385686967521906">
        <ele>184.81</ele>
        <time>2025-02-10T13:16:40.972Z</time>
      </trkpt>
      <trkpt lat="58.595789931714535" lon="13.385764919221401">
        <ele>184.81</ele>
        <time>2025-02-10T13:17:21.066Z</time>
      </trkpt>
      <trkpt lat="58.59584399498999" lon="13.38584597222507">
        <ele>184.82</ele>
        <time>2025-02-10T13:18:01.161Z</time>
      </trkpt>
      <trkpt lat="58.595897974446416" lon="13.385925935581326">
        <ele>184.83</ele>
        <time>2025-02-10T13:18:41.257Z</time>
      </trkpt>
      <trkpt lat="58.5959539655596" lon="13.386006988584995">
        <ele>184.83</ele>
        <time>2025-02-10T13:19:21.354Z</time>
      </trkpt>
      <trkpt lat="58.596006939187646" lon="13.386088963598013">
        <ele>184.84</ele>
        <time>2025-02-10T13:20:01.452Z</time>
      </trkpt>
      <trkpt lat="58.59606192447245" lon="13.386172950267792">
        <ele>184.84</ele>
        <time>2025-02-10T13:20:41.551Z</time>
      </trkpt>
      <trkpt lat="58.596112970262766" lon="13.38625492528081">
        <ele>184.85</ele>
        <time>2025-02-10T13:21:21.651Z</time>
      </trkpt>
      <trkpt lat="58.59616594389081" lon="13.386334972456098">
        <ele>184.85</ele>
        <time>2025-02-10T13:22:01.752Z</time>
      </trkpt>
      <trkpt lat="58.596219923347235" lon="13.386416947469115">
        <ele>184.86</ele>
        <time>2025-02-10T13:22:41.855Z</time>
      </trkpt>
      <trkpt lat="58.59627499245107" lon="13.386501939967275">
        <ele>184.87</ele>
        <time>2025-02-10T13:23:21.959Z</time>
      </trkpt>
      <trkpt lat="58.59632997773588" lon="13.386587938293815">
        <ele>184.87</ele>
        <time>2025-02-10T13:24:02.064Z</time>
      </trkpt>
      <trkpt lat="58.59638496302068" lon="13.386674942448735">
        <ele>184.88</ele>
        <time>2025-02-10T13:24:42.170Z</time>
      </trkpt>
      <trkpt lat="58.59644195996225" lon="13.386760940775275">
        <ele>184.88</ele>
        <time>2025-02-10T13:25:22.277Z</time>
      </trkpt>
      <trkpt lat="58.59649392776191" lon="13.386849956586957">
        <ele>184.89</ele>
        <time>2025-02-10T13:26:02.385Z</time>
      </trkpt>
      <trkpt lat="58.59654597938061" lon="13.386934949085116">
        <ele>184.89</ele>
        <time>2025-02-10T13:26:42.494Z</time>
      </trkpt>
      <trkpt lat="58.59659794718027" lon="13.387014996260405">
        <ele>184.88</ele>
        <time>2025-02-10T13:27:22.604Z</time>
      </trkpt>
      <trkpt lat="58.596646981313825" lon="13.387090936303139">
        <ele>184.88</ele>
        <time>2025-02-10T13:28:02.715Z</time>
      </trkpt>
      <trkpt lat="58.596694925799966" lon="13.387165954336524">
        <ele>184.88</ele>
        <time>2025-02-10T13:28:42.827Z</time>
      </trkpt>
      <trkpt lat="58.59674295410514" lon="13.387244995683432">
        <ele>184.87</ele>
        <time>2025-02-10T13:29:22.940Z</time>
      </trkpt>
      <trkpt lat="58.59678897075355" lon="13.387322947382927">
        <ele>184.87</ele>
        <time>2025-02-10T13:30:03.054Z</time>
      </trkpt>
      <trkpt lat="58.59683498740196" lon="13.387401988729835">
        <ele>184.87</ele>
        <time>2025-02-10T13:30:43.169Z</time>
      </trkpt>
      <trkpt lat="58.596884943544865" lon="13.387483963742852">
        <ele>184.86</ele>
        <time>2025-02-10T13:31:23.286Z</time>
      </trkpt>
      <trkpt lat="58.59693598933518" lon="13.387570967897773">
        <ele>184.85</ele>
        <time>2025-02-10T13:32:03.404Z</time>
      </trkpt>
      <trkpt lat="58.59698695130646" lon="13.387654954567552">
        <ele>184.84</ele>
        <time>2025-02-10T13:32:43.523Z</time>
      </trkpt>
      <trkpt lat="58.597035985440016" lon="13.387740952894092">
        <ele>184.83</ele>
        <time>2025-02-10T13:33:23.643Z</time>
      </trkpt>
      <trkpt lat="58.59708594158292" lon="13.387828962877393">
        <ele>184.83</ele>
        <time>2025-02-10T13:34:03.764Z</time>
      </trkpt>
      <trkpt lat="58.59713698737323" lon="13.387913955375552">
        <ele>184.82</ele>
        <time>2025-02-10T13:34:43.886Z</time>
      </trkpt>
      <trkpt lat="58.597186943516135" lon="13.387993918731809">
        <ele>184.81</ele>
        <time>2025-02-10T13:35:24.009Z</time>
      </trkpt>
      <trkpt lat="58.59723597764969" lon="13.388069942593575">
        <ele>184.8</ele>
        <time>2025-02-10T13:36:04.133Z</time>
      </trkpt>
      <trkpt lat="58.59728492796421" lon="13.388148983940482">
        <ele>184.8</ele>
        <time>2025-02-10T13:36:44.258Z</time>
      </trkpt>
      <trkpt lat="58.59732993878424" lon="13.388228947296739">
        <ele>184.79</ele>
        <time>2025-02-10T13:37:24.384Z</time>
      </trkpt>
      <trkpt lat="58.59737293794751" lon="13.388308994472027">
        <ele>184.78</ele>
        <time>2025-02-10T13:38:04.511Z</time>
      </trkpt>
      <trkpt lat="58.597419960424304" lon="13.388391975313425">
        <ele>184.78</ele>
        <time>2025-02-10T13:38:44.639Z</time>
      </trkpt>
      <trkpt lat="58.597464971244335" lon="13.388471938669682">
        <ele>184.77</ele>
        <time>2025-02-10T13:39:24.768Z</time>
      </trkpt>
      <trkpt lat="58.59751199372113" lon="13.38855098001659">
        <ele>184.77</ele>
        <time>2025-02-10T13:40:04.898Z</time>
      </trkpt>
      <trkpt lat="58.59756094403565" lon="13.388631949201226">
        <ele>184.76</ele>
        <time>2025-02-10T13:40:45.029Z</time>
      </trkpt>
      <trkpt lat="58.59760796651244" lon="13.388714930042624">
        <ele>184.75</ele>
        <time>2025-02-10T13:41:25.161Z</time>
      </trkpt>
      <trkpt lat="58.59765691682696" lon="13.388800928369164">
        <ele>184.75</ele>
        <time>2025-02-10T13:42:05.294Z</time>
      </trkpt>
      <trkpt lat="58.59770896844566" lon="13.388889944180846">
        <ele>184.74</ele>
        <time>2025-02-10T13:42:45.428Z</time>
      </trkpt>
      <trkpt lat="58.59775993041694" lon="13.388978959992528">
        <ele>184.74</ele>
        <time>2025-02-10T13:43:25.563Z</time>
      </trkpt>
      <trkpt lat="58.59781198203564" lon="13.38906797580421">
        <ele>184.73</ele>
        <time>2025-02-10T13:44:05.699Z</time>
      </trkpt>
      <trkpt lat="58.59786495566368" lon="13.38915397413075">
        <ele>184.73</ele>
        <time>2025-02-10T13:44:45.837Z</time>
      </trkpt>
      <trkpt lat="58.597917929291725" lon="13.389242989942431">
        <ele>184.73</ele>
        <time>2025-02-10T13:45:25.976Z</time>
      </trkpt>
      <trkpt lat="58.59797299839556" lon="13.389331921935081">
        <ele>184.73</ele>
        <time>2025-02-10T13:46:06.116Z</time>
      </trkpt>
      <trkpt lat="58.598024966195226" lon="13.389417920261621">
        <ele>184.73</ele>
        <time>2025-02-10T13:46:46.257Z</time>
      </trkpt>
      <trkpt lat="58.59807592816651" lon="13.38949997909367">
        <ele>184.73</ele>
        <time>2025-02-10T13:47:26.399Z</time>
      </trkpt>
      <trkpt lat="58.598127979785204" lon="13.389580948278308">
        <ele>184.73</ele>
        <time>2025-02-10T13:48:06.542Z</time>
      </trkpt>
      <trkpt lat="58.59817894175649" lon="13.389662923291326">
        <ele>184.74</ele>
        <time>2025-02-10T13:48:46.686Z</time>
      </trkpt>
      <trkpt lat="58.59822898171842" lon="13.389746993780136">
        <ele>184.75</ele>
        <time>2025-02-10T13:49:26.831Z</time>
      </trkpt>
      <trkpt lat="58.59827893786132" lon="13.389831986278296">
        <ele>184.76</ele>
        <time>2025-02-10T13:50:06.977Z</time>
      </trkpt>
      <trkpt lat="58.598325960338116" lon="13.389912955462933">
        <ele>184.76</ele>
        <time>2025-02-10T13:50:47.124Z</time>
      </trkpt>
      <trkpt lat="58.59837398864329" lon="13.38999392464757">
        <ele>184.77</ele>
        <time>2025-02-10T13:51:27.272Z</time>
      </trkpt>
      <trkpt lat="58.59842394478619" lon="13.39007799513638">
        <ele>184.78</ele>
        <time>2025-02-10T13:52:07.421Z</time>
      </trkpt>
      <trkpt lat="58.598476918414235" lon="13.39016298763454">
        <ele>184.79</ele>
        <time>2025-02-10T13:52:47.571Z</time>
      </trkpt>
      <trkpt lat="58.59852997586131" lon="13.390246974304318">
        <ele>184.8</ele>
        <time>2025-02-10T13:53:27.723Z</time>
      </trkpt>
      <trkpt lat="58.598582949489355" lon="13.390331966802478">
        <ele>184.81</ele>
        <time>2025-02-10T13:54:07.876Z</time>
      </trkpt>
      <trkpt lat="58.59863692894578" lon="13.390419976785779">
        <ele>184.83</ele>
        <time>2025-02-10T13:54:48.030Z</time>
      </trkpt>
      <trkpt lat="58.598690992221236" lon="13.390504969283938">
        <ele>184.84</ele>
        <time>2025-02-10T13:55:28.185Z</time>
      </trkpt>
      <trkpt lat="58.59874497167766" lon="13.390585938468575">
        <ele>184.86</ele>
        <time>2025-02-10T13:56:08.341Z</time>
      </trkpt>
      <trkpt lat="58.598799956962466" lon="13.390668919309974">
        <ele>184.88</ele>
        <time>2025-02-10T13:56:48.498Z</time>
      </trkpt>
      <trkpt lat="58.59885293059051" lon="13.390750978142023">
        <ele>184.9</ele>
        <time>2025-02-10T13:57:28.656Z</time>
      </trkpt>
      <trkpt lat="58.598905988037586" lon="13.39083295315504">
        <ele>184.92</ele>
        <time>2025-02-10T13:58:08.815Z</time>
      </trkpt>
      <trkpt lat="58.59895996749401" lon="13.3909179456532">
        <ele>184.94</ele>
        <time>2025-02-10T13:58:48.975Z</time>
      </trkpt>
      <trkpt lat="58.599012941122055" lon="13.391000926494598">
        <ele>184.97</ele>
        <time>2025-02-10T13:59:29.137Z</time>
      </trkpt>
      <trkpt lat="58.59906599856913" lon="13.391085918992758">
        <ele>184.99</ele>
        <time>2025-02-10T14:00:09.300Z</time>
      </trkpt>
      <trkpt lat="58.599118972197175" lon="13.391168983653188">
        <ele>185.02</ele>
        <time>2025-02-10T14:00:49.464Z</time>
      </trkpt>
      <trkpt lat="58.59917194582522" lon="13.391253976151347">
        <ele>185.05</ele>
        <time>2025-02-10T14:01:29.629Z</time>
      </trkpt>
      <trkpt lat="58.599225925281644" lon="13.391334945335984">
        <ele>185.08</ele>
        <time>2025-02-10T14:02:09.795Z</time>
      </trkpt>
      <trkpt lat="58.59928099438548" lon="13.391413986682892">
        <ele>185.12</ele>
        <time>2025-02-10T14:02:49.962Z</time>
      </trkpt>
      <trkpt lat="58.599335979670286" lon="13.391493950039148">
        <ele>185.16</ele>
        <time>2025-02-10T14:03:30.130Z</time>
      </trkpt>
      <trkpt lat="58.59939297661185" lon="13.391577936708927">
        <ele>185.19</ele>
        <time>2025-02-10T14:04:10.299Z</time>
      </trkpt>
      <trkpt lat="58.5994509793818" lon="13.391662929207087">
        <ele>185.23</ele>
        <time>2025-02-10T14:04:50.470Z</time>
      </trkpt>
      <trkpt lat="58.59951099380851" lon="13.391747921705246">
        <ele>185.28</ele>
        <time>2025-02-10T14:05:30.642Z</time>
      </trkpt>
      <trkpt lat="58.599568996578455" lon="13.391830986365676">
        <ele>185.32</ele>
        <time>2025-02-10T14:06:10.815Z</time>
      </trkpt>
      <trkpt lat="58.59962792135775" lon="13.391912961378694">
        <ele>185.37</ele>
        <time>2025-02-10T14:06:50.989Z</time>
      </trkpt>
      <trkpt lat="58.59968491829932" lon="13.391995942220092">
        <ele>185.42</ele>
        <time>2025-02-10T14:07:31.164Z</time>
      </trkpt>
      <trkpt lat="58.599741999059916" lon="13.39207598939538">
        <ele>185.47</ele>
        <time>2025-02-10T14:08:11.340Z</time>
      </trkpt>
      <trkpt lat="58.5997979901731" lon="13.392154946923256">
        <ele>185.52</ele>
        <time>2025-02-10T14:08:51.517Z</time>
      </trkpt>
      <trkpt lat="58.59985599294305" lon="13.392230970785022">
        <ele>185.58</ele>
        <time>2025-02-10T14:09:31.696Z</time>
      </trkpt>
      <trkpt lat="58.599912989884615" lon="13.392304982990026">
        <ele>185.64</ele>
        <time>2025-02-10T14:10:11.876Z</time>
      </trkpt>
      <trkpt lat="58.59996797516942" lon="13.392381928861141">
        <ele>185.71</ele>
        <time>2025-02-10T14:10:52.057Z</time>
      </trkpt>
      <trkpt lat="58.600022960454226" lon="13.392460970208049">
        <ele>185.77</ele>
        <time>2025-02-10T14:11:32.239Z</time>
      </trkpt>
      <trkpt lat="58.60007895156741" lon="13.392535988241434">
        <ele>185.84</ele>
        <time>2025-02-10T14:12:12.422Z</time>
      </trkpt>
      <trkpt lat="58.6001349426806" lon="13.392612934112549">
        <ele>185.9</ele>
        <time>2025-02-10T14:12:52.606Z</time>
      </trkpt>
      <trkpt lat="58.600191939622164" lon="13.392688957974315">
        <ele>185.97</ele>
        <time>2025-02-10T14:13:32.791Z</time>
      </trkpt>
      <trkpt lat="58.60024893656373" lon="13.392766993492842">
        <ele>186.04</ele>
        <time>2025-02-10T14:14:12.977Z</time>
      </trkpt>
      <trkpt lat="58.60030693933368" lon="13.392842933535576">
        <ele>186.11</ele>
        <time>2025-02-10T14:14:53.164Z</time>
      </trkpt>
      <trkpt lat="58.600363936275244" lon="13.392919963225722">
        <ele>186.19</ele>
        <time>2025-02-10T14:15:33.353Z</time>
      </trkpt>
      <trkpt lat="58.60042193904519" lon="13.392994981259108">
        <ele>186.27</ele>
        <time>2025-02-10T14:16:13.543Z</time>
      </trkpt>
      <trkpt lat="58.60047893598676" lon="13.393067987635732">
        <ele>186.35</ele>
        <time>2025-02-10T14:16:53.734Z</time>
      </trkpt>
      <trkpt lat="58.60053492709994" lon="13.393138982355595">
        <ele>186.44</ele>
        <time>2025-02-10T14:17:33.926Z</time>
      </trkpt>
      <trkpt lat="58.60059091821313" lon="13.393209977075458">
        <ele>186.53</ele>
        <time>2025-02-10T14:18:14.119Z</time>
      </trkpt>
      <trkpt lat="58.60064799897373" lon="13.393281977623701">
        <ele>186.62</ele>
        <time>2025-02-10T14:18:54.313Z</time>
      </trkpt>
      <trkpt lat="58.600704995915294" lon="13.393355989828706">
        <ele>186.72</ele>
        <time>2025-02-10T14:19:34.508Z</time>
      </trkpt>
      <trkpt lat="58.60076299868524" lon="13.393426984548569">
        <ele>186.82</ele>
        <time>2025-02-10T14:20:14.704Z</time>
      </trkpt>
      <trkpt lat="58.60081999562681" lon="13.393498985096812">
        <ele>186.92</ele>
        <time>2025-02-10T14:20:54.901Z</time>
      </trkpt>
      <trkpt lat="58.60087598673999" lon="13.393568973988295">
        <ele>187.02</ele>
        <time>2025-02-10T14:21:35.099Z</time>
      </trkpt>
      <trkpt lat="58.60092996619642" lon="13.393635945394635">
        <ele>187.12</ele>
        <time>2025-02-10T14:22:15.298Z</time>
      </trkpt>
      <trkpt lat="58.60098193399608" lon="13.393705934286118">
        <ele>187.23</ele>
        <time>2025-02-10T14:22:55.498Z</time>
      </trkpt>
      <trkpt lat="58.60103499144316" lon="13.39377198368311">
        <ele>187.33</ele>
        <time>2025-02-10T14:23:35.699Z</time>
      </trkpt>
      <trkpt lat="58.6010879650712" lon="13.393842978402972">
        <ele>187.44</ele>
        <time>2025-02-10T14:24:15.902Z</time>
      </trkpt>
      <trkpt lat="58.601139932870865" lon="13.393908943980932">
        <ele>187.55</ele>
        <time>2025-02-10T14:24:56.106Z</time>
      </trkpt>
      <trkpt lat="58.60119299031794" lon="13.393975999206305">
        <ele>187.66</ele>
        <time>2025-02-10T14:25:36.311Z</time>
      </trkpt>
      <trkpt lat="58.601246969774365" lon="13.394044982269406">
        <ele>187.77</ele>
        <time>2025-02-10T14:26:16.517Z</time>
      </trkpt>
      <trkpt lat="58.60129692591727" lon="13.394110947847366">
        <ele>187.89</ele>
        <time>2025-02-10T14:26:56.724Z</time>
      </trkpt>
      <trkpt lat="58.60134596005082" lon="13.394174985587597">
        <ele>188.0</ele>
        <time>2025-02-10T14:27:36.932Z</time>
      </trkpt>
      <trkpt lat="58.601393988355994" lon="13.394237933680415">
        <ele>188.12</ele>
        <time>2025-02-10T14:28:17.140Z</time>
      </trkpt>
      <trkpt lat="58.6014439444989" lon="13.394297948107123">
        <ele>188.24</ele>
        <time>2025-02-10T14:28:57.349Z</time>
      </trkpt>
      <trkpt lat="58.60149599611759" lon="13.394364919513464">
        <ele>188.35</ele>
        <time>2025-02-10T14:29:37.559Z</time>
      </trkpt>
      <trkpt lat="58.601546958088875" lon="13.394420994445682">
        <ele>188.47</ele>
        <time>2025-02-10T14:30:17.770Z</time>
      </trkpt>
      <trkpt lat="58.60159993171692" lon="13.394485954195261">
        <ele>188.59</ele>
        <time>2025-02-10T14:30:57.982Z</time>
      </trkpt>
      <trkpt lat="58.601650977507234" lon="13.394554937258363">
        <ele>188.71</ele>
        <time>2025-02-10T14:31:38.195Z</time>
      </trkpt>
      <trkpt lat="58.601698921993375" lon="13.394618974998593">
        <ele>188.83</ele>
        <time>2025-02-10T14:32:18.409Z</time>
      </trkpt>
      <trkpt lat="58.60174795612693" lon="13.394682928919792">
        <ele>188.96</ele>
        <time>2025-02-10T14:32:58.624Z</time>
      </trkpt>
      <trkpt lat="58.60179799608886" lon="13.394745960831642">
        <ele>189.08</ele>
        <time>2025-02-10T14:33:38.840Z</time>
      </trkpt>
      <trkpt lat="58.60185197554529" lon="13.394806981086731">
        <ele>189.21</ele>
        <time>2025-02-10T14:34:19.057Z</time>
      </trkpt>
      <trkpt lat="58.60189992003143" lon="13.394867917522788">
        <ele>189.34</ele>
        <time>2025-02-10T14:34:59.275Z</time>
      </trkpt>
      <trkpt lat="58.60194895416498" lon="13.394931955263019">
        <ele>189.47</ele>
        <time>2025-02-10T14:35:39.494Z</time>
      </trkpt>
      <trkpt lat="58.6019999999553" lon="13.39499993249774">
        <ele>189.6</ele>
        <time>2025-02-10T14:36:19.714Z</time>
      </trkpt>
      <trkpt lat="58.60205397941172" lon="13.39506397023797">
        <ele>189.73</ele>
        <time>2025-02-10T14:36:59.935Z</time>
      </trkpt>
      <trkpt lat="58.60210896469653" lon="13.39512499049306">
        <ele>189.87</ele>
        <time>2025-02-10T14:37:40.157Z</time>
      </trkpt>
      <trkpt lat="58.60215992666781" lon="13.39519095607102">
        <ele>190.0</ele>
        <time>2025-02-10T14:38:20.380Z</time>
      </trkpt>
      <trkpt lat="58.602215917780995" lon="13.395262956619263">
        <ele>190.14</ele>
        <time>2025-02-10T14:39:00.604Z</time>
      </trkpt>
      <trkpt lat="58.602275932207704" lon="13.395331939682364">
        <ele>190.27</ele>
        <time>2025-02-10T14:39:40.829Z</time>
      </trkpt>
      <trkpt lat="58.60233594663441" lon="13.395398994907737">
        <ele>190.4</ele>
        <time>2025-02-10T14:40:21.055Z</time>
      </trkpt>
      <trkpt lat="58.60239394940436" lon="13.395463954657316">
        <ele>190.54</ele>
        <time>2025-02-10T14:41:01.283Z</time>
      </trkpt>
      <trkpt lat="58.60245698131621" lon="13.395533943548799">
        <ele>190.67</ele>
        <time>2025-02-10T14:41:41.512Z</time>
      </trkpt>
      <trkpt lat="58.60251892358065" lon="13.395604938268661">
        <ele>190.81</ele>
        <time>2025-02-10T14:42:21.742Z</time>
      </trkpt>
      <trkpt lat="58.602578938007355" lon="13.395676938816905">
        <ele>190.94</ele>
        <time>2025-02-10T14:43:01.973Z</time>
      </trkpt>
      <trkpt lat="58.60263593494892" lon="13.395743994042277">
        <ele>191.08</ele>
        <time>2025-02-10T14:43:42.205Z</time>
      </trkpt>
      <trkpt lat="58.60268999822438" lon="13.395804930478334">
        <ele>191.22</ele>
        <time>2025-02-10T14:44:22.438Z</time>
      </trkpt>
      <trkpt lat="58.602746995165944" lon="13.395864944905043">
        <ele>191.36</ele>
        <time>2025-02-10T14:45:02.672Z</time>
      </trkpt>
      <trkpt lat="58.60280399210751" lon="13.395919930189848">
        <ele>191.5</ele>
        <time>2025-02-10T14:45:42.907Z</time>
      </trkpt>
      <trkpt lat="58.60286199487746" lon="13.395979944616556">
        <ele>191.64</ele>
        <time>2025-02-10T14:46:23.143Z</time>
      </trkpt>
      <trkpt lat="58.602921925485134" lon="13.396040964871645">
        <ele>191.78</ele>
        <time>2025-02-10T14:47:03.380Z</time>
      </trkpt>
      <trkpt lat="58.60298193991184" lon="13.396100979298353">
        <ele>191.92</ele>
        <time>2025-02-10T14:47:43.618Z</time>
      </trkpt>
      <trkpt lat="58.60304296016693" lon="13.396161999553442">
        <ele>192.06</ele>
        <time>2025-02-10T14:48:23.857Z</time>
      </trkpt>
      <trkpt lat="58.60310196876526" lon="13.396220924332738">
        <ele>192.2</ele>
        <time>2025-02-10T14:49:04.098Z</time>
      </trkpt>
      <trkpt lat="58.60316198319197" lon="13.396276999264956">
        <ele>192.34</ele>
        <time>2025-02-10T14:49:44.340Z</time>
      </trkpt>
      <trkpt lat="58.603220991790295" lon="13.396329972893">
        <ele>192.48</ele>
        <time>2025-02-10T14:50:24.583Z</time>
      </trkpt>
      <trkpt lat="58.60327991656959" lon="13.396387975662947">
        <ele>192.62</ele>
        <time>2025-02-10T14:51:04.827Z</time>
      </trkpt>
      <trkpt lat="58.60333599150181" lon="13.396437931805849">
        <ele>192.76</ele>
        <time>2025-02-10T14:51:45.072Z</time>
      </trkpt>
      <trkpt lat="58.603392988443375" lon="13.396486965939403">
        <ele>192.89</ele>
        <time>2025-02-10T14:52:25.318Z</time>
      </trkpt>
      <trkpt lat="58.60344897955656" lon="13.396537927910686">
        <ele>193.03</ele>
        <time>2025-02-10T14:53:05.565Z</time>
      </trkpt>
      <trkpt lat="58.60350798815489" lon="13.396588973701">
        <ele>193.16</ele>
        <time>2025-02-10T14:53:45.813Z</time>
      </trkpt>
      <trkpt lat="58.603564985096455" lon="13.396640941500664">
        <ele>193.29</ele>
        <time>2025-02-10T14:54:26.062Z</time>
      </trkpt>
      <trkpt lat="58.60362097620964" lon="13.396691987290978">
        <ele>193.42</ele>
        <time>2025-02-10T14:55:06.312Z</time>
      </trkpt>
      <trkpt lat="58.60367897897959" lon="13.396749990060925">
        <ele>193.55</ele>
        <time>2025-02-10T14:55:46.563Z</time>
      </trkpt>
      <trkpt lat="58.603736981749535" lon="13.39680396951735">
        <ele>193.67</ele>
        <time>2025-02-10T14:56:26.815Z</time>
      </trkpt>
      <trkpt lat="58.60379498451948" lon="13.396857948973775">
        <ele>193.8</ele>
        <time>2025-02-10T14:57:07.068Z</time>
      </trkpt>
      <trkpt lat="58.60385499894619" lon="13.396918969228864">
        <ele>193.92</ele>
        <time>2025-02-10T14:57:47.322Z</time>
      </trkpt>
      <trkpt lat="58.60391995869577" lon="13.396973954513669">
        <ele>194.04</ele>
        <time>2025-02-10T14:58:27.577Z</time>
      </trkpt>
      <trkpt lat="58.60398299060762" lon="13.397032963111997">
        <ele>194.16</ele>
        <time>2025-02-10T14:59:07.833Z</time>
      </trkpt>
      <trkpt lat="58.604043927043676" lon="13.397088954225183">
        <ele>194.27</ele>
        <time>2025-02-10T14:59:48.090Z</time>
      </trkpt>
      <trkpt lat="58.60410796478391" lon="13.397149974480271">
        <ele>194.38</ele>
        <time>2025-02-10T15:00:28.348Z</time>
      </trkpt>
      <trkpt lat="58.60417099669576" lon="13.397205965593457">
        <ele>194.49</ele>
        <time>2025-02-10T15:01:08.608Z</time>
      </trkpt>
      <trkpt lat="58.60423092730343" lon="13.397268997505307">
        <ele>194.61</ele>
        <time>2025-02-10T15:01:48.869Z</time>
      </trkpt>
      <trkpt lat="58.60428993590176" lon="13.397331945598125">
        <ele>194.72</ele>
        <time>2025-02-10T15:02:29.131Z</time>
      </trkpt>
      <trkpt lat="58.60435095615685" lon="13.397388942539692">
        <ele>194.82</ele>
        <time>2025-02-10T15:03:09.394Z</time>
      </trkpt>
      <trkpt lat="58.60440996475518" lon="13.397446945309639">
        <ele>194.93</ele>
        <time>2025-02-10T15:03:49.658Z</time>
      </trkpt>
      <trkpt lat="58.60447299666703" lon="13.397505953907967">
        <ele>195.03</ele>
        <time>2025-02-10T15:04:29.923Z</time>
      </trkpt>
      <trkpt lat="58.604532927274704" lon="13.397565968334675">
        <ele>195.13</ele>
        <time>2025-02-10T15:05:10.189Z</time>
      </trkpt>
      <trkpt lat="58.60458992421627" lon="13.397627994418144">
        <ele>195.23</ele>
        <time>2025-02-10T15:05:50.456Z</time>
      </trkpt>
      <trkpt lat="58.60464993864298" lon="13.397688930854201">
        <ele>195.32</ele>
        <time>2025-02-10T15:06:30.724Z</time>
      </trkpt>
      <trkpt lat="58.604704923927784" lon="13.397739976644516">
        <ele>195.41</ele>
        <time>2025-02-10T15:07:10.993Z</time>
      </trkpt>
      <trkpt lat="58.60476393252611" lon="13.397788926959038">
        <ele>195.5</ele>
        <time>2025-02-10T15:07:51.263Z</time>
      </trkpt>
      <trkpt lat="58.60481698997319" lon="13.397847935557365">
        <ele>195.58</ele>
        <time>2025-02-10T15:08:31.534Z</time>
      </trkpt>
      <trkpt lat="58.604876920580864" lon="13.397914990782738">
        <ele>195.66</ele>
        <time>2025-02-10T15:09:11.806Z</time>
      </trkpt>
      <trkpt lat="58.60493693500757" lon="13.397974921390414">
        <ele>195.73</ele>
        <time>2025-02-10T15:09:52.079Z</time>
      </trkpt>
      <trkpt lat="58.60499896109104" lon="13.398032924160361">
        <ele>195.8</ele>
        <time>2025-02-10T15:10:32.354Z</time>
      </trkpt>
      <trkpt lat="58.60506199300289" lon="13.398084975779057">
        <ele>195.87</ele>
        <time>2025-02-10T15:11:12.630Z</time>
      </trkpt>
      <trkpt lat="58.60512896440923" lon="13.398143984377384">
        <ele>195.93</ele>
        <time>2025-02-10T15:11:52.907Z</time>
      </trkpt>
      <trkpt lat="58.60519199632108" lon="13.39819997549057">
        <ele>196.0</ele>
        <time>2025-02-10T15:12:33.185Z</time>
      </trkpt>
      <trkpt lat="58.6052599735558" lon="13.398251943290234">
        <ele>196.06</ele>
        <time>2025-02-10T15:13:13.464Z</time>
      </trkpt>
      <trkpt lat="58.605328956618905" lon="13.398306928575039">
        <ele>196.11</ele>
        <time>2025-02-10T15:13:53.744Z</time>
      </trkpt>
      <trkpt lat="58.605394922196865" lon="13.398360991850495">
        <ele>196.16</ele>
        <time>2025-02-10T15:14:34.025Z</time>
      </trkpt>
      <trkpt lat="58.60546197742224" lon="13.39841497130692">
        <ele>196.21</ele>
        <time>2025-02-10T15:15:14.308Z</time>
      </trkpt>
      <trkpt lat="58.60552894882858" lon="13.398468950763345">
        <ele>196.25</ele>
        <time>2025-02-10T15:15:54.592Z</time>
      </trkpt>
      <trkpt lat="58.60559298656881" lon="13.39852293021977">
        <ele>196.29</ele>
        <time>2025-02-10T15:16:34.877Z</time>
      </trkpt>
      <trkpt lat="58.60565694049001" lon="13.398572970181704">
        <ele>196.33</ele>
        <time>2025-02-10T15:17:15.163Z</time>
      </trkpt>
      <trkpt lat="58.60572097823024" lon="13.398624937981367">
        <ele>196.37</ele>
        <time>2025-02-10T15:17:55.450Z</time>
      </trkpt>
      <trkpt lat="58.60578199848533" lon="13.39867196045816">
        <ele>196.4</ele>
        <time>2025-02-10T15:18:35.738Z</time>
      </trkpt>
      <trkpt lat="58.605843940749764" lon="13.39871697127819">
        <ele>196.42</ele>
        <time>2025-02-10T15:19:16.027Z</time>
      </trkpt>
      <trkpt lat="58.60591392964125" lon="13.398768939077854">
        <ele>196.44</ele>
        <time>2025-02-10T15:19:56.317Z</time>
      </trkpt>
      <trkpt lat="58.60598391853273" lon="13.398819984868169">
        <ele>196.46</ele>
        <time>2025-02-10T15:20:36.609Z</time>
      </trkpt>
      <trkpt lat="58.606054997071624" lon="13.39886893518269">
        <ele>196.47</ele>
        <time>2025-02-10T15:21:16.902Z</time>
      </trkpt>
      <trkpt lat="58.60612599179149" lon="13.398914951831102">
        <ele>196.47</ele>
        <time>2025-02-10T15:21:57.196Z</time>
      </trkpt>
      <trkpt lat="58.60619296319783" lon="13.398963985964656">
        <ele>196.47</ele>
        <time>2025-02-10T15:22:37.491Z</time>
      </trkpt>
      <trkpt lat="58.606269992887974" lon="13.399014947935939">
        <ele>196.47</ele>
        <time>2025-02-10T15:23:17.788Z</time>
      </trkpt>
      <trkpt lat="58.60634492710233" lon="13.399061970412731">
        <ele>196.46</ele>
        <time>2025-02-10T15:23:58.086Z</time>
      </trkpt>
      <trkpt lat="58.60641793347895" lon="13.399107987061143">
        <ele>196.44</ele>
        <time>2025-02-10T15:24:38.385Z</time>
      </trkpt>
      <trkpt lat="58.60649395734072" lon="13.399161966517568">
        <ele>196.43</ele>
        <time>2025-02-10T15:25:18.685Z</time>
      </trkpt>
      <trkpt lat="58.60656796954572" lon="13.39920898899436">
        <ele>196.4</ele>
        <time>2025-02-10T15:25:58.987Z</time>
      </trkpt>
      <trkpt lat="58.60664994455874" lon="13.399262968450785">
        <ele>196.38</ele>
        <time>2025-02-10T15:26:39.290Z</time>
      </trkpt>
      <trkpt lat="58.606725968420506" lon="13.399320971220732">
        <ele>196.34</ele>
        <time>2025-02-10T15:27:19.594Z</time>
      </trkpt>
      <trkpt lat="58.60680392012" lon="13.399365982040763">
        <ele>196.3</ele>
        <time>2025-02-10T15:27:59.900Z</time>
      </trkpt>
      <trkpt lat="58.60688296146691" lon="13.399414932355285">
        <ele>196.26</ele>
        <time>2025-02-10T15:28:40.207Z</time>
      </trkpt>
      <trkpt lat="58.606959991157055" lon="13.39946798980236">
        <ele>196.21</ele>
        <time>2025-02-10T15:29:20.515Z</time>
      </trkpt>
      <trkpt lat="58.60703492537141" lon="13.399516940116882">
        <ele>196.15</ele>
        <time>2025-02-10T15:30:00.824Z</time>
      </trkpt>
      <trkpt lat="58.607109943404794" lon="13.399567985907197">
        <ele>196.08</ele>
        <time>2025-02-10T15:30:41.135Z</time>
      </trkpt>
      <trkpt lat="58.60718496143818" lon="13.399612996727228">
        <ele>196.01</ele>
        <time>2025-02-10T15:31:21.447Z</time>
      </trkpt>
      <trkpt lat="58.607259979471564" lon="13.399658929556608">
        <ele>195.93</ele>
        <time>2025-02-10T15:32:01.760Z</time>
      </trkpt>
      <trkpt lat="58.6073359195143" lon="13.399706957861781">
        <ele>195.84</ele>
        <time>2025-02-10T15:32:42.075Z</time>
      </trkpt>
      <trkpt lat="58.607412949204445" lon="13.399752974510193">
        <ele>195.75</ele>
        <time>2025-02-10T15:33:22.391Z</time>
      </trkpt>
      <trkpt lat="58.60749098472297" lon="13.39978993870318">
        <ele>195.65</ele>
        <time>2025-02-10T15:34:02.708Z</time>
      </trkpt>
      <trkpt lat="58.607565918937325" lon="13.399829920381308">
        <ele>195.54</ele>
        <time>2025-02-10T15:34:43.026Z</time>
      </trkpt>
      <trkpt lat="58.60763993114233" lon="13.399872919544578">
        <ele>195.43</ele>
        <time>2025-02-10T15:35:23.346Z</time>
      </trkpt>
      <trkpt lat="58.607714949175715" lon="13.399916924536228">
        <ele>195.3</ele>
        <time>2025-02-10T15:36:03.667Z</time>
      </trkpt>
      <trkpt lat="58.60778795555234" lon="13.399960929527879">
        <ele>195.17</ele>
        <time>2025-02-10T15:36:43.989Z</time>
      </trkpt>
      <trkpt lat="58.607862973585725" lon="13.400007952004671">
        <ele>195.03</ele>
        <time>2025-02-10T15:37:24.312Z</time>
      </trkpt>
      <trkpt lat="58.60793899744749" lon="13.400052962824702">
        <ele>194.88</ele>
        <time>2025-02-10T15:38:04.637Z</time>
      </trkpt>
      <trkpt lat="58.608014937490225" lon="13.400098979473114">
        <ele>194.72</ele>
        <time>2025-02-10T15:38:44.963Z</time>
      </trkpt>
      <trkpt lat="58.60809196718037" lon="13.400142984464765">
        <ele>194.55</ele>
        <time>2025-02-10T15:39:25.290Z</time>
      </trkpt>
      <trkpt lat="58.60816698521376" lon="13.400183971971273">
        <ele>194.37</ele>
        <time>2025-02-10T15:40:05.618Z</time>
      </trkpt>
      <trkpt lat="58.60824191942811" lon="13.400224959477782">
        <ele>194.19</ele>
        <time>2025-02-10T15:40:45.948Z</time>
      </trkpt>
      <trkpt lat="58.60831894911826" lon="13.400268964469433">
        <ele>193.99</ele>
        <time>2025-02-10T15:41:26.279Z</time>
      </trkpt>
      <trkpt lat="58.608397990465164" lon="13.400314981117845">
        <ele>193.78</ele>
        <time>2025-02-10T15:42:06.611Z</time>
      </trkpt>
      <trkpt lat="58.60847795382142" lon="13.400360997766256">
        <ele>193.57</ele>
        <time>2025-02-10T15:42:46.945Z</time>
      </trkpt>
      <trkpt lat="58.60855791717768" lon="13.400404918938875">
        <ele>193.35</ele>
        <time>2025-02-10T15:43:27.280Z</time>
      </trkpt>
      <trkpt lat="58.608635952696204" lon="13.400449929758906">
        <ele>193.11</ele>
        <time>2025-02-10T15:44:07.616Z</time>
      </trkpt>
      <trkpt lat="58.60871298238635" lon="13.400486977770925">
        <ele>192.87</ele>
        <time>2025-02-10T15:44:47.954Z</time>
      </trkpt>
      <trkpt lat="58.608790934085846" lon="13.40052193030715">
        <ele>192.62</ele>
        <time>2025-02-10T15:45:28.293Z</time>
      </trkpt>
      <trkpt lat="58.60886796377599" lon="13.400558978319168">
        <ele>192.36</ele>
        <time>2025-02-10T15:46:08.633Z</time>
      </trkpt>
      <trkpt lat="58.60894398763776" lon="13.400599965825677">
        <ele>192.09</ele>
        <time>2025-02-10T15:46:48.974Z</time>
      </trkpt>
      <trkpt lat="58.609021939337254" lon="13.400643970817327">
        <ele>191.82</ele>
        <time>2025-02-10T15:47:29.317Z</time>
      </trkpt>
      <trkpt lat="58.6091039981693" lon="13.400686969980597">
        <ele>191.53</ele>
        <time>2025-02-10T15:48:09.661Z</time>
      </trkpt>
      <trkpt lat="58.60918999649584" lon="13.400726951658726">
        <ele>191.25</ele>
        <time>2025-02-10T15:48:50.007Z</time>
      </trkpt>
      <trkpt lat="58.60927599482238" lon="13.400763999670744">
        <ele>190.95</ele>
        <time>2025-02-10T15:49:30.354Z</time>
      </trkpt>
      <trkpt lat="58.60936492681503" lon="13.400804987177253">
        <ele>190.64</ele>
        <time>2025-02-10T15:50:10.702Z</time>
      </trkpt>
      <trkpt lat="58.609452936798334" lon="13.400849997997284">
        <ele>190.32</ele>
        <time>2025-02-10T15:50:51.052Z</time>
      </trkpt>
      <trkpt lat="58.60954396426678" lon="13.400894924998283">
        <ele>190.0</ele>
        <time>2025-02-10T15:51:31.403Z</time>
      </trkpt>
      <trkpt lat="58.6096359975636" lon="13.400939935818315">
        <ele>189.66</ele>
        <time>2025-02-10T15:52:11.756Z</time>
      </trkpt>
      <trkpt lat="58.60972895286977" lon="13.400980923324823">
        <ele>189.32</ele>
        <time>2025-02-10T15:52:52.110Z</time>
      </trkpt>
      <trkpt lat="58.609820986166596" lon="13.401020988821983">
        <ele>188.97</ele>
        <time>2025-02-10T15:53:32.466Z</time>
      </trkpt>
      <trkpt lat="58.60991595312953" lon="13.401061976328492">
        <ele>188.61</ele>
        <time>2025-02-10T15:54:12.824Z</time>
      </trkpt>
      <trkpt lat="58.610014943405986" lon="13.401103969663382">
        <ele>188.24</ele>
        <time>2025-02-10T15:54:53.183Z</time>
      </trkpt>
      <trkpt lat="58.61011493951082" lon="13.40114495716989">
        <ele>187.85</ele>
        <time>2025-02-10T15:55:33.544Z</time>
      </trkpt>
      <trkpt lat="58.61021594144404" lon="13.40118695050478">
        <ele>187.46</ele>
        <time>2025-02-10T15:56:13.906Z</time>
      </trkpt>
      <trkpt lat="58.61031794920564" lon="13.401224920526147">
        <ele>187.05</ele>
        <time>2025-02-10T15:56:54.270Z</time>
      </trkpt>
      <trkpt lat="58.610418951138854" lon="13.401261968538165">
        <ele>186.65</ele>
        <time>2025-02-10T15:57:34.636Z</time>
      </trkpt>
      <trkpt lat="58.61051894724369" lon="13.401297926902771">
        <ele>186.24</ele>
        <time>2025-02-10T15:58:15.003Z</time>
      </trkpt>
      <trkpt lat="58.61061994917691" lon="13.401332963258028">
        <ele>185.82</ele>
        <time>2025-02-10T15:58:55.372Z</time>
      </trkpt>
      <trkpt lat="58.610722962766886" lon="13.401361964643002">
        <ele>185.4</ele>
        <time>2025-02-10T15:59:35.743Z</time>
      </trkpt>
      <trkpt lat="58.610829999670386" lon="13.401391971856356">
        <ele>184.97</ele>
        <time>2025-02-10T16:00:16.115Z</time>
      </trkpt>
      <trkpt lat="58.61093292944133" lon="13.401427930220962">
        <ele>184.53</ele>
        <time>2025-02-10T16:00:56.489Z</time>
      </trkpt>
      <trkpt lat="58.61103795468807" lon="13.40146598406136">
        <ele>184.08</ele>
        <time>2025-02-10T16:01:36.865Z</time>
      </trkpt>
      <trkpt lat="58.61114398576319" lon="13.401505965739489">
        <ele>183.63</ele>
        <time>2025-02-10T16:02:17.243Z</time>
      </trkpt>
      <trkpt lat="58.61125194467604" lon="13.401543935760856">
        <ele>183.16</ele>
        <time>2025-02-10T16:02:57.622Z</time>
      </trkpt>
      <trkpt lat="58.61135998740792" lon="13.401583917438984">
        <ele>182.68</ele>
        <time>2025-02-10T16:03:38.003Z</time>
      </trkpt>
      <trkpt lat="58.611472975462675" lon="13.40161694213748">
        <ele>182.19</ele>
        <time>2025-02-10T16:04:18.386Z</time>
      </trkpt>
      <trkpt lat="58.611583951860666" lon="13.401651978492737">
        <ele>181.7</ele>
        <time>2025-02-10T16:04:58.771Z</time>
      </trkpt>
      <trkpt lat="58.61169392243028" lon="13.401687936857343">
        <ele>181.2</ele>
        <time>2025-02-10T16:05:39.158Z</time>
      </trkpt>
      <trkpt lat="58.6118049826473" lon="13.4017229732126">
        <ele>180.7</ele>
        <time>2025-02-10T16:06:19.546Z</time>
      </trkpt>
      <trkpt lat="58.61191595904529" lon="13.401757925748825">
        <ele>180.2</ele>
        <time>2025-02-10T16:06:59.936Z</time>
      </trkpt>
      <trkpt lat="58.61202894710004" lon="13.40178793296218">
        <ele>179.69</ele>
        <time>2025-02-10T16:07:40.328Z</time>
      </trkpt>
      <trkpt lat="58.61214495263994" lon="13.401812994852662">
        <ele>179.18</ele>
        <time>2025-02-10T16:08:20.722Z</time>
      </trkpt>
      <trkpt lat="58.61226095817983" lon="13.401837972924113">
        <ele>178.66</ele>
        <time>2025-02-10T16:09:01.118Z</time>
      </trkpt>
      <trkpt lat="58.61237897537649" lon="13.401863956823945">
        <ele>178.13</ele>
        <time>2025-02-10T16:09:41.516Z</time>
      </trkpt>
      <trkpt lat="58.61249699257314" lon="13.401888934895396">
        <ele>177.6</ele>
        <time>2025-02-10T16:10:21.916Z</time>
      </trkpt>
      <trkpt lat="58.61261693760753" lon="13.401915924623609">
        <ele>177.06</ele>
        <time>2025-02-10T16:11:02.317Z</time>
      </trkpt>
      <trkpt lat="58.612737972289324" lon="13.401943920180202">
        <ele>176.51</ele>
        <time>2025-02-10T16:11:42.720Z</time>
      </trkpt>
      <trkpt lat="58.61286093480885" lon="13.401973927393556">
        <ele>175.95</ele>
        <time>2025-02-10T16:12:23.125Z</time>
      </trkpt>
      <trkpt lat="58.61298398114741" lon="13.40200292877853">
        <ele>175.39</ele>
        <time>2025-02-10T16:13:03.532Z</time>
      </trkpt>
      <trkpt lat="58.613106943666935" lon="13.402031930163503">
        <ele>174.82</ele>
        <time>2025-02-10T16:13:43.941Z</time>
      </trkpt>
      <trkpt lat="58.61323191784322" lon="13.402060931548476">
        <ele>174.25</ele>
        <time>2025-02-10T16:14:24.352Z</time>
      </trkpt>
      <trkpt lat="58.6133589874953" lon="13.40208993293345">
        <ele>173.68</ele>
        <time>2025-02-10T16:15:04.765Z</time>
      </trkpt>
      <trkpt lat="58.61348697915673" lon="13.402116922661662">
        <ele>173.1</ele>
        <time>2025-02-10T16:15:45.180Z</time>
      </trkpt>
      <trkpt lat="58.61361497081816" lon="13.402144918218255">
        <ele>172.51</ele>
        <time>2025-02-10T16:16:25.598Z</time>
      </trkpt>
      <trkpt lat="58.61374296247959" lon="13.402173919603229">
        <ele>171.93</ele>
        <time>2025-02-10T16:17:06.018Z</time>
      </trkpt>
      <trkpt lat="58.61387296579778" lon="13.402198981493711">
        <ele>171.34</ele>
        <time>2025-02-10T16:17:46.440Z</time>
      </trkpt>
      <trkpt lat="58.61400196328759" lon="13.402224965393543">
        <ele>170.75</ele>
        <time>2025-02-10T16:18:26.864Z</time>
      </trkpt>
      <trkpt lat="58.6141309607774" lon="13.402252960950136">
        <ele>170.17</ele>
        <time>2025-02-10T16:19:07.290Z</time>
      </trkpt>
      <trkpt lat="58.61425794661045" lon="13.40228196233511">
        <ele>169.58</ele>
        <time>2025-02-10T16:19:47.718Z</time>
      </trkpt>
      <trkpt lat="58.61438593827188" lon="13.402309957891703">
        <ele>168.99</ele>
        <time>2025-02-10T16:20:28.148Z</time>
      </trkpt>
      <trkpt lat="58.61451292410493" lon="13.402337953448296">
        <ele>168.4</ele>
        <time>2025-02-10T16:21:08.580Z</time>
      </trkpt>
      <trkpt lat="58.61464099958539" lon="13.40236896649003">
        <ele>167.8</ele>
        <time>2025-02-10T16:21:49.014Z</time>
      </trkpt>
      <trkpt lat="58.61476798541844" lon="13.402399979531765">
        <ele>167.21</ele>
        <time>2025-02-10T16:22:29.450Z</time>
      </trkpt>
      <trkpt lat="58.61489396542311" lon="13.402427975088358">
        <ele>166.62</ele>
        <time>2025-02-10T16:23:09.888Z</time>
      </trkpt>
      <trkpt lat="58.615017933771014" lon="13.40245597064495">
        <ele>166.03</ele>
        <time>2025-02-10T16:23:50.328Z</time>
      </trkpt>
      <trkpt lat="58.61514198593795" lon="13.402483966201544">
        <ele>165.44</ele>
        <time>2025-02-10T16:24:30.770Z</time>
      </trkpt>
      <trkpt lat="58.61526595428586" lon="13.402509950101376">
        <ele>164.85</ele>
        <time>2025-02-10T16:25:11.214Z</time>
      </trkpt>
      <trkpt lat="58.61539092846215" lon="13.402535934001207">
        <ele>164.25</ele>
        <time>2025-02-10T16:25:51.660Z</time>
      </trkpt>
      <trkpt lat="58.61551598645747" lon="13.40256292372942">
        <ele>163.65</ele>
        <time>2025-02-10T16:26:32.108Z</time>
      </trkpt>
      <trkpt lat="58.615640960633755" lon="13.402588991448283">
        <ele>163.05</ele>
        <time>2025-02-10T16:27:12.558Z</time>
      </trkpt>
      <trkpt lat="58.6157679464668" lon="13.402613969519734">
        <ele>162.45</ele>
        <time>2025-02-10T16:27:53.010Z</time>
      </trkpt>
      <trkpt lat="58.61589392647147" lon="13.402636935934424">
        <ele>161.85</ele>
        <time>2025-02-10T16:28:33.464Z</time>
      </trkpt>
      <trkpt lat="58.61601797863841" lon="13.402660991996527">
        <ele>161.25</ele>
        <time>2025-02-10T16:29:13.920Z</time>
      </trkpt>
      <trkpt lat="58.6161429528147" lon="13.402686975896358">
        <ele>160.66</ele>
        <time>2025-02-10T16:29:54.378Z</time>
      </trkpt>
      <trkpt lat="58.616267926990986" lon="13.40271295979619">
        <ele>160.06</ele>
        <time>2025-02-10T16:30:34.838Z</time>
      </trkpt>
      <trkpt lat="58.616392984986305" lon="13.40273693203926">
        <ele>159.46</ele>
        <time>2025-02-10T16:31:15.300Z</time>
      </trkpt>
      <trkpt lat="58.61651695333421" lon="13.402760988101363">
        <ele>158.86</ele>
        <time>2025-02-10T16:31:55.764Z</time>
      </trkpt>
      <trkpt lat="58.61663999967277" lon="13.402783954516053">
        <ele>158.27</ele>
        <time>2025-02-10T16:32:36.230Z</time>
      </trkpt>
      <trkpt lat="58.6167629621923" lon="13.402807926759124">
        <ele>157.68</ele>
        <time>2025-02-10T16:33:16.698Z</time>
      </trkpt>
      <trkpt lat="58.616886930540204" lon="13.402835922315717">
        <ele>157.1</ele>
        <time>2025-02-10T16:33:57.168Z</time>
      </trkpt>
      <trkpt lat="58.61700997687876" lon="13.402869952842593">
        <ele>156.52</ele>
        <time>2025-02-10T16:34:37.640Z</time>
      </trkpt>
      <trkpt lat="58.61713394522667" lon="13.40290792286396">
        <ele>155.93</ele>
        <time>2025-02-10T16:35:18.114Z</time>
      </trkpt>
      <trkpt lat="58.61725891940296" lon="13.4029489941895">
        <ele>155.35</ele>
        <time>2025-02-10T16:35:58.590Z</time>
      </trkpt>
      <trkpt lat="58.617383977398276" lon="13.4029939211905">
        <ele>154.78</ele>
        <time>2025-02-10T16:36:39.068Z</time>
      </trkpt>
      <trkpt lat="58.617509957402945" lon="13.403039937838912">
        <ele>154.21</ele>
        <time>2025-02-10T16:37:19.549Z</time>
      </trkpt>
      <trkpt lat="58.61763694323599" lon="13.403090983629227">
        <ele>153.64</ele>
        <time>2025-02-10T16:38:00.032Z</time>
      </trkpt>
      <trkpt lat="58.6177659407258" lon="13.403140939772129">
        <ele>153.07</ele>
        <time>2025-02-10T16:38:40.517Z</time>
      </trkpt>
      <trkpt lat="58.617895944043994" lon="13.403195925056934">
        <ele>152.51</ele>
        <time>2025-02-10T16:39:21.004Z</time>
      </trkpt>
      <trkpt lat="58.61802393570542" lon="13.4032529219985">
        <ele>151.95</ele>
        <time>2025-02-10T16:40:01.493Z</time>
      </trkpt>
      <trkpt lat="58.61815192736685" lon="13.403316959738731">
        <ele>151.4</ele>
        <time>2025-02-10T16:40:41.984Z</time>
      </trkpt>
      <trkpt lat="58.61827991902828" lon="13.403383931145072">
        <ele>150.84</ele>
        <time>2025-02-10T16:41:22.477Z</time>
      </trkpt>
      <trkpt lat="58.61840891651809" lon="13.403456937521696">
        <ele>150.29</ele>
        <time>2025-02-10T16:42:02.972Z</time>
      </trkpt>
      <trkpt lat="58.61853296868503" lon="13.403533967211843">
        <ele>149.74</ele>
        <time>2025-02-10T16:42:43.469Z</time>
      </trkpt>
      <trkpt lat="58.61865693703294" lon="13.403612924739718">
        <ele>149.21</ele>
        <time>2025-02-10T16:43:23.969Z</time>
      </trkpt>
      <trkpt lat="58.61878098919988" lon="13.403694983571768">
        <ele>148.68</ele>
        <time>2025-02-10T16:44:04.471Z</time>
      </trkpt>
      <trkpt lat="58.61890294589102" lon="13.403779976069927">
        <ele>148.16</ele>
        <time>2025-02-10T16:44:44.975Z</time>
      </trkpt>
      <trkpt lat="58.61902297474444" lon="13.4038729313761">
        <ele>147.64</ele>
        <time>2025-02-10T16:45:25.481Z</time>
      </trkpt>
      <trkpt lat="58.619143925607204" lon="13.403965970501304">
        <ele>147.12</ele>
        <time>2025-02-10T16:46:05.989Z</time>
      </trkpt>
      <trkpt lat="58.61926294863224" lon="13.40406496077776">
        <ele>146.61</ele>
        <time>2025-02-10T16:46:46.499Z</time>
      </trkpt>
      <trkpt lat="58.619379960000515" lon="13.404166968539357">
        <ele>146.1</ele>
        <time>2025-02-10T16:47:27.011Z</time>
      </trkpt>
      <trkpt lat="58.61949495971203" lon="13.404262941330671">
        <ele>145.6</ele>
        <time>2025-02-10T16:48:07.525Z</time>
      </trkpt>
      <trkpt lat="58.61961096525192" lon="13.40436595492065">
        <ele>145.1</ele>
        <time>2025-02-10T16:48:48.041Z</time>
      </trkpt>
      <trkpt lat="58.61972898244858" lon="13.40447491966188">
        <ele>144.61</ele>
        <time>2025-02-10T16:49:28.559Z</time>
      </trkpt>
      <trkpt lat="58.61984792165458" lon="13.404589919373393">
        <ele>144.13</ele>
        <time>2025-02-10T16:50:09.079Z</time>
      </trkpt>
      <trkpt lat="58.61996694467962" lon="13.404708942398429">
        <ele>143.65</ele>
        <time>2025-02-10T16:50:49.601Z</time>
      </trkpt>
      <trkpt lat="58.62008194439113" lon="13.40483894571662">
        <ele>143.18</ele>
        <time>2025-02-10T16:51:30.126Z</time>
      </trkpt>
      <trkpt lat="58.620197949931026" lon="13.404970960691571">
        <ele>142.72</ele>
        <time>2025-02-10T16:52:10.653Z</time>
      </trkpt>
      <trkpt lat="58.62031194381416" lon="13.405103981494904">
        <ele>142.26</ele>
        <time>2025-02-10T16:52:51.182Z</time>
      </trkpt>
      <trkpt lat="58.62042794935405" lon="13.405238930135965">
        <ele>141.81</ele>
        <time>2025-02-10T16:53:31.713Z</time>
      </trkpt>
      <trkpt lat="58.62054596655071" lon="13.405381925404072">
        <ele>141.37</ele>
        <time>2025-02-10T16:54:12.246Z</time>
      </trkpt>
      <trkpt lat="58.62066096626222" lon="13.4055289439857">
        <ele>140.93</ele>
        <time>2025-02-10T16:54:52.782Z</time>
      </trkpt>
      <trkpt lat="58.620775965973735" lon="13.40567596256733">
        <ele>140.5</ele>
        <time>2025-02-10T16:55:33.320Z</time>
      </trkpt>
      <trkpt lat="58.62088995985687" lon="13.405819963663816">
        <ele>140.07</ele>
        <time>2025-02-10T16:56:13.860Z</time>
      </trkpt>
      <trkpt lat="58.62100395374" lon="13.405966982245445">
        <ele>139.64</ele>
        <time>2025-02-10T16:56:54.402Z</time>
      </trkpt>
      <trkpt lat="58.62111694179475" lon="13.406117940321565">
        <ele>139.22</ele>
        <time>2025-02-10T16:57:34.946Z</time>
      </trkpt>
      <trkpt lat="58.621226996183395" lon="13.406271999701858">
        <ele>138.79</ele>
        <time>2025-02-10T16:58:15.493Z</time>
      </trkpt>
      <trkpt lat="58.621334955096245" lon="13.40643092058599">
        <ele>138.37</ele>
        <time>2025-02-10T16:58:56.042Z</time>
      </trkpt>
      <trkpt lat="58.621441991999745" lon="13.406587997451425">
        <ele>137.96</ele>
        <time>2025-02-10T16:59:36.593Z</time>
      </trkpt>
      <trkpt lat="58.62154492177069" lon="13.406745996326208">
        <ele>137.56</ele>
        <time>2025-02-10T17:00:17.146Z</time>
      </trkpt>
      <trkpt lat="58.62164399586618" lon="13.406906928867102">
        <ele>137.18</ele>
        <time>2025-02-10T17:00:57.701Z</time>
      </trkpt>
      <trkpt lat="58.62173896282911" lon="13.407062999904156">
        <ele>136.8</ele>
        <time>2025-02-10T17:01:38.258Z</time>
      </trkpt>
      <trkpt lat="58.621829990297556" lon="13.407219992950559">
        <ele>136.44</ele>
        <time>2025-02-10T17:02:18.817Z</time>
      </trkpt>
      <trkpt lat="58.621911965310574" lon="13.407375980168581">
        <ele>136.08</ele>
        <time>2025-02-10T17:02:59.378Z</time>
      </trkpt>
      <trkpt lat="58.62198698334396" lon="13.407531967386603">
        <ele>135.74</ele>
        <time>2025-02-10T17:03:39.941Z</time>
      </trkpt>
      <trkpt lat="58.6220539547503" lon="13.407691977918148">
        <ele>135.39</ele>
        <time>2025-02-10T17:04:20.505Z</time>
      </trkpt>
      <trkpt lat="58.62211396917701" lon="13.407848970964551">
        <ele>135.05</ele>
        <time>2025-02-10T17:05:01.071Z</time>
      </trkpt>
      <trkpt lat="58.62217599526048" lon="13.40799892321229">
        <ele>134.72</ele>
        <time>2025-02-10T17:05:41.639Z</time>
      </trkpt>
      <trkpt lat="58.62223492003977" lon="13.40814895927906">
        <ele>134.4</ele>
        <time>2025-02-10T17:06:22.208Z</time>
      </trkpt>
      <trkpt lat="58.62229099497199" lon="13.408298995345831">
        <ele>134.08</ele>
        <time>2025-02-10T17:07:02.779Z</time>
      </trkpt>
      <trkpt lat="58.622345980256796" lon="13.40844794176519">
        <ele>133.77</ele>
        <time>2025-02-10T17:07:43.351Z</time>
      </trkpt>
      <trkpt lat="58.62239694222808" lon="13.408591942861676">
        <ele>133.46</ele>
        <time>2025-02-10T17:08:23.925Z</time>
      </trkpt>
      <trkpt lat="58.62244597636163" lon="13.408730998635292">
        <ele>133.16</ele>
        <time>2025-02-10T17:09:04.500Z</time>
      </trkpt>
      <trkpt lat="58.62248696386814" lon="13.408869970589876">
        <ele>132.87</ele>
        <time>2025-02-10T17:09:45.076Z</time>
      </trkpt>
      <trkpt lat="58.62252493388951" lon="13.409001985564828">
        <ele>132.58</ele>
        <time>2025-02-10T17:10:25.654Z</time>
      </trkpt>
      <trkpt lat="58.62256198190153" lon="13.409134922549129">
        <ele>132.3</ele>
        <time>2025-02-10T17:11:06.233Z</time>
      </trkpt>
      <trkpt lat="58.62259794026613" lon="13.409270960837603">
        <ele>132.03</ele>
        <time>2025-02-10T17:11:46.813Z</time>
      </trkpt>
      <trkpt lat="58.62263398244977" lon="13.409408926963806">
        <ele>131.76</ele>
        <time>2025-02-10T17:12:27.395Z</time>
      </trkpt>
      <trkpt lat="58.622668934985995" lon="13.409547982737422">
        <ele>131.49</ele>
        <time>2025-02-10T17:13:07.978Z</time>
      </trkpt>
      <trkpt lat="58.62269994802773" lon="13.409687960520387">
        <ele>131.23</ele>
        <time>2025-02-10T17:13:48.562Z</time>
      </trkpt>
      <trkpt lat="58.6227289494127" lon="13.409831961616874">
        <ele>130.97</ele>
        <time>2025-02-10T17:14:29.147Z</time>
      </trkpt>
      <trkpt lat="58.62275795079768" lon="13.409976968541741">
        <ele>130.72</ele>
        <time>2025-02-10T17:15:09.734Z</time>
      </trkpt>
      <trkpt lat="58.62278192304075" lon="13.410119963809848">
        <ele>130.48</ele>
        <time>2025-02-10T17:15:50.322Z</time>
      </trkpt>
      <trkpt lat="58.62280094996095" lon="13.410260947421193">
        <ele>130.24</ele>
        <time>2025-02-10T17:16:30.911Z</time>
      </trkpt>
      <trkpt lat="58.622816959396005" lon="13.4104039426893">
        <ele>130.01</ele>
        <time>2025-02-10T17:17:11.501Z</time>
      </trkpt>
      <trkpt lat="58.62283498048782" lon="13.410543920472264">
        <ele>129.78</ele>
        <time>2025-02-10T17:17:52.093Z</time>
      </trkpt>
      <trkpt lat="58.6228499840945" lon="13.4106819704175">
        <ele>129.55</ele>
        <time>2025-02-10T17:18:32.686Z</time>
      </trkpt>
      <trkpt lat="58.62286498770118" lon="13.410823959857225">
        <ele>129.33</ele>
        <time>2025-02-10T17:19:13.280Z</time>
      </trkpt>
      <trkpt lat="58.62287395633757" lon="13.410966955125332">
        <ele>129.11</ele>
        <time>2025-02-10T17:19:53.875Z</time>
      </trkpt>
      <trkpt lat="58.622880997136235" lon="13.411110956221819">
        <ele>128.9</ele>
        <time>2025-02-10T17:20:34.471Z</time>
      </trkpt>
      <trkpt lat="58.62288694828749" lon="13.411252945661545">
        <ele>128.69</ele>
        <time>2025-02-10T17:21:15.069Z</time>
      </trkpt>
      <trkpt lat="58.62288996577263" lon="13.41139292344451">
        <ele>128.48</ele>
        <time>2025-02-10T17:21:55.668Z</time>
      </trkpt>
      <trkpt lat="58.62289097160101" lon="13.411530973389745">
        <ele>128.29</ele>
        <time>2025-02-10T17:22:36.268Z</time>
      </trkpt>
      <trkpt lat="58.62289298325777" lon="13.411660976707935">
        <ele>128.09</ele>
        <time>2025-02-10T17:23:16.869Z</time>
      </trkpt>
      <trkpt lat="58.62289398908615" lon="13.411787962540984">
        <ele>127.9</ele>
        <time>2025-02-10T17:23:57.471Z</time>
      </trkpt>
      <trkpt lat="58.62289097160101" lon="13.411914948374033">
        <ele>127.71</ele>
        <time>2025-02-10T17:24:38.074Z</time>
      </trkpt>
      <trkpt lat="58.622880997136235" lon="13.41203698888421">
        <ele>127.53</ele>
        <time>2025-02-10T17:25:18.678Z</time>
      </trkpt>
      <trkpt lat="58.62287093885243" lon="13.412162968888879">
        <ele>127.35</ele>
        <time>2025-02-10T17:25:59.283Z</time>
      </trkpt>
      <trkpt lat="58.622862976044416" lon="13.412282997742295">
        <ele>127.16</ele>
        <time>2025-02-10T17:26:39.889Z</time>
      </trkpt>
      <trkpt lat="58.62285291776061" lon="13.412395985797048">
        <ele>126.98</ele>
        <time>2025-02-10T17:27:20.496Z</time>
      </trkpt>
      <trkpt lat="58.62284294329584" lon="13.412502938881516">
        <ele>126.8</ele>
        <time>2025-02-10T17:28:01.104Z</time>
      </trkpt>
      <trkpt lat="58.62283397465944" lon="13.412610981613398">
        <ele>126.62</ele>
        <time>2025-02-10T17:28:41.713Z</time>
      </trkpt>
      <trkpt lat="58.62282793968916" lon="13.412718940526247">
        <ele>126.44</ele>
        <time>2025-02-10T17:29:22.323Z</time>
      </trkpt>
      <trkpt lat="58.622817965224385" lon="13.41283293440938">
        <ele>126.26</ele>
        <time>2025-02-10T17:30:02.934Z</time>
      </trkpt>
      <trkpt lat="58.62280396744609" lon="13.412945922464132">
        <ele>126.08</ele>
        <time>2025-02-10T17:30:43.546Z</time>
      </trkpt>
      <trkpt lat="58.62278996966779" lon="13.413064945489168">
        <ele>125.9</ele>
        <time>2025-02-10T17:31:24.159Z</time>
      </trkpt>
      <trkpt lat="58.622775971889496" lon="13.413187991827726">
        <ele>125.73</ele>
        <time>2025-02-10T17:32:04.773Z</time>
      </trkpt>
      <trkpt lat="58.62275795079768" lon="13.413314977660775">
        <ele>125.55</ele>
        <time>2025-02-10T17:32:45.388Z</time>
      </trkpt>
      <trkpt lat="58.62274093553424" lon="13.413445986807346">
        <ele>125.37</ele>
        <time>2025-02-10T17:33:26.004Z</time>
      </trkpt>
      <trkpt lat="58.6227239202708" lon="13.413578923791647">
        <ele>125.19</ele>
        <time>2025-02-10T17:34:06.621Z</time>
      </trkpt>
      <trkpt lat="58.622707994654775" lon="13.413714962080121">
        <ele>125.01</ele>
        <time>2025-02-10T17:34:47.240Z</time>
      </trkpt>
      <trkpt lat="58.6226929910481" lon="13.413853934034705">
        <ele>124.83</ele>
        <time>2025-02-10T17:35:27.860Z</time>
      </trkpt>
      <trkpt lat="58.62267698161304" lon="13.413995923474431">
        <ele>124.65</ele>
        <time>2025-02-10T17:36:08.481Z</time>
      </trkpt>
      <trkpt lat="58.622663989663124" lon="13.41414394788444">
        <ele>124.48</ele>
        <time>2025-02-10T17:36:49.103Z</time>
      </trkpt>
      <trkpt lat="58.622647980228066" lon="13.414297923445702">
        <ele>124.29</ele>
        <time>2025-02-10T17:37:29.727Z</time>
      </trkpt>
      <trkpt lat="58.62263096496463" lon="13.414454916492105">
        <ele>124.11</ele>
        <time>2025-02-10T17:38:10.352Z</time>
      </trkpt>
      <trkpt lat="58.62261193804443" lon="13.41461299918592">
        <ele>123.93</ele>
        <time>2025-02-10T17:38:50.978Z</time>
      </trkpt>
      <trkpt lat="58.62259391695261" lon="13.414769992232323">
        <ele>123.75</ele>
        <time>2025-02-10T17:39:31.606Z</time>
      </trkpt>
      <trkpt lat="58.62257396802306" lon="13.41493595391512">
        <ele>123.57</ele>
        <time>2025-02-10T17:40:12.235Z</time>
      </trkpt>
      <trkpt lat="58.62255594693124" lon="13.415111973881721">
        <ele>123.39</ele>
        <time>2025-02-10T17:40:52.865Z</time>
      </trkpt>
      <trkpt lat="58.622537925839424" lon="13.415285982191563">
        <ele>123.2</ele>
        <time>2025-02-10T17:41:33.497Z</time>
      </trkpt>
      <trkpt lat="58.622515965253115" lon="13.415460996329784">
        <ele>123.02</ele>
        <time>2025-02-10T17:42:14.130Z</time>
      </trkpt>
      <trkpt lat="58.622497944161296" lon="13.415634920820594">
        <ele>122.83</ele>
        <time>2025-02-10T17:42:54.765Z</time>
      </trkpt>
      <trkpt lat="58.6224789172411" lon="13.415806917473674">
        <ele>122.64</ele>
        <time>2025-02-10T17:43:35.401Z</time>
      </trkpt>
      <trkpt lat="58.62245796248317" lon="13.415983943268657">
        <ele>122.45</ele>
        <time>2025-02-10T17:44:16.039Z</time>
      </trkpt>
      <trkpt lat="58.62243692390621" lon="13.416155939921737">
        <ele>122.25</ele>
        <time>2025-02-10T17:44:56.678Z</time>
      </trkpt>
      <trkpt lat="58.62241596914828" lon="13.416329948231578">
        <ele>122.05</ele>
        <time>2025-02-10T17:45:37.319Z</time>
      </trkpt>
      <trkpt lat="58.6223959363997" lon="13.416510997340083">
        <ele>121.86</ele>
        <time>2025-02-10T17:46:17.961Z</time>
      </trkpt>
      <trkpt lat="58.62237892113626" lon="13.416694980114698">
        <ele>121.64</ele>
        <time>2025-02-10T17:46:58.605Z</time>
      </trkpt>
      <trkpt lat="58.62236098386347" lon="13.416867982596159">
        <ele>121.43</ele>
        <time>2025-02-10T17:47:39.251Z</time>
      </trkpt>
      <trkpt lat="58.622344974428415" lon="13.41704391874373">
        <ele>121.22</ele>
        <time>2025-02-10T17:48:19.898Z</time>
      </trkpt>
      <trkpt lat="58.62232997082174" lon="13.41721499338746">
        <ele>121.0</ele>
        <time>2025-02-10T17:49:00.546Z</time>
      </trkpt>
      <trkpt lat="58.62230893224478" lon="13.417382966727018">
        <ele>120.78</ele>
        <time>2025-02-10T17:49:41.196Z</time>
      </trkpt>
      <trkpt lat="58.62228898331523" lon="13.417553957551718">
        <ele>120.56</ele>
        <time>2025-02-10T17:50:21.847Z</time>
      </trkpt>
      <trkpt lat="58.62226895056665" lon="13.417724948376417">
        <ele>120.33</ele>
        <time>2025-02-10T17:51:02.500Z</time>
      </trkpt>
      <trkpt lat="58.62224698998034" lon="13.417889988049865">
        <ele>120.1</ele>
        <time>2025-02-10T17:51:43.154Z</time>
      </trkpt>
      <trkpt lat="58.62222796306014" lon="13.41804999858141">
        <ele>119.87</ele>
        <time>2025-02-10T17:52:23.810Z</time>
      </trkpt>
      <trkpt lat="58.6222109477967" lon="13.418217971920967">
        <ele>119.63</ele>
        <time>2025-02-10T17:53:04.467Z</time>
      </trkpt>
      <trkpt lat="58.6221919208765" lon="13.418385945260525">
        <ele>119.39</ele>
        <time>2025-02-10T17:53:45.125Z</time>
      </trkpt>
      <trkpt lat="58.62217599526048" lon="13.418560959398746">
        <ele>119.15</ele>
        <time>2025-02-10T17:54:25.785Z</time>
      </trkpt>
      <trkpt lat="58.62215495668352" lon="13.41873798519373">
        <ele>118.9</ele>
        <time>2025-02-10T17:55:06.447Z</time>
      </trkpt>
      <trkpt lat="58.6221369355917" lon="13.418916938826442">
        <ele>118.64</ele>
        <time>2025-02-10T17:55:47.110Z</time>
      </trkpt>
      <trkpt lat="58.62211899831891" lon="13.419103939086199">
        <ele>118.38</ele>
        <time>2025-02-10T17:56:27.775Z</time>
      </trkpt>
      <trkpt lat="58.62210097722709" lon="13.419288927689195">
        <ele>118.11</ele>
        <time>2025-02-10T17:57:08.441Z</time>
      </trkpt>
      <trkpt lat="58.62208195030689" lon="13.41947098262608">
        <ele>117.83</ele>
        <time>2025-02-10T17:57:49.109Z</time>
      </trkpt>
      <trkpt lat="58.62206292338669" lon="13.419647924602032">
        <ele>117.56</ele>
        <time>2025-02-10T17:58:29.778Z</time>
      </trkpt>
      <trkpt lat="58.622044986113906" lon="13.419822938740253">
        <ele>117.28</ele>
        <time>2025-02-10T17:59:10.449Z</time>
      </trkpt>
      <trkpt lat="58.62202595919371" lon="13.419994935393333">
        <ele>117.0</ele>
        <time>2025-02-10T17:59:51.121Z</time>
      </trkpt>
      <trkpt lat="58.62200693227351" lon="13.420161986723542">
        <ele>116.72</ele>
        <time>2025-02-10T18:00:31.795Z</time>
      </trkpt>
      <trkpt lat="58.6219849716872" lon="13.420323925092816">
        <ele>116.44</ele>
        <time>2025-02-10T18:01:12.470Z</time>
      </trkpt>
      <trkpt lat="58.621961921453476" lon="13.420475972816348">
        <ele>116.15</ele>
        <time>2025-02-10T18:01:53.146Z</time>
      </trkpt>
      <trkpt lat="58.62194197252393" lon="13.420624919235706">
        <ele>115.86</ele>
        <time>2025-02-10T18:02:33.824Z</time>
      </trkpt>
      <trkpt lat="58.621917916461825" lon="13.420777972787619">
        <ele>115.56</ele>
        <time>2025-02-10T18:03:14.503Z</time>
      </trkpt>
      <trkpt lat="58.62188698723912" lon="13.420929936692119">
        <ele>115.26</ele>
        <time>2025-02-10T18:03:55.183Z</time>
      </trkpt>
      <trkpt lat="58.62185396254063" lon="13.421075949445367">
        <ele>114.96</ele>
        <time>2025-02-10T18:04:35.865Z</time>
      </trkpt>
      <trkpt lat="58.62182194367051" lon="13.421212993562222">
        <ele>114.65</ele>
        <time>2025-02-10T18:05:16.548Z</time>
      </trkpt>
      <trkpt lat="58.621789924800396" lon="13.421350959688425">
        <ele>114.34</ele>
        <time>2025-02-10T18:05:57.232Z</time>
      </trkpt>
      <trkpt lat="58.62175597809255" lon="13.421488925814629">
        <ele>114.03</ele>
        <time>2025-02-10T18:06:37.917Z</time>
      </trkpt>
      <trkpt lat="58.62172496505082" lon="13.4216199349612">
        <ele>113.71</ele>
        <time>2025-02-10T18:07:18.604Z</time>
      </trkpt>
      <trkpt lat="58.62169495783746" lon="13.42174893245101">
        <ele>113.39</ele>
        <time>2025-02-10T18:07:59.292Z</time>
      </trkpt>
      <trkpt lat="58.62166796810925" lon="13.42187692411244">
        <ele>113.06</ele>
        <time>2025-02-10T18:08:39.981Z</time>
      </trkpt>
      <trkpt lat="58.62164894118905" lon="13.422008939087391">
        <ele>112.73</ele>
        <time>2025-02-10T18:09:20.671Z</time>
      </trkpt>
      <trkpt lat="58.62164198420942" lon="13.422142965719104">
        <ele>112.39</ele>
        <time>2025-02-10T18:10:01.362Z</time>
      </trkpt>
      <trkpt lat="58.621654976159334" lon="13.42226299457252">
        <ele>112.05</ele>
        <time>2025-02-10T18:10:42.054Z</time>
      </trkpt>
      <trkpt lat="58.62169093452394" lon="13.422360979020596">
        <ele>111.69</ele>
        <time>2025-02-10T18:11:22.747Z</time>
      </trkpt>
      <trkpt lat="58.62173896282911" lon="13.422452928498387">
        <ele>111.34</ele>
        <time>2025-02-10T18:12:03.441Z</time>
      </trkpt>
      <trkpt lat="58.62179897725582" lon="13.42252199538052">
        <ele>110.99</ele>
        <time>2025-02-10T18:12:44.137Z</time>
      </trkpt>
      <trkpt lat="58.621869971975684" lon="13.422591984272003">
        <ele>110.62</ele>
        <time>2025-02-10T18:13:24.834Z</time>
      </trkpt>
      <trkpt lat="58.62194398418069" lon="13.422657949849963">
        <ele>110.26</ele>
        <time>2025-02-10T18:14:05.532Z</time>
      </trkpt>
      <trkpt lat="58.622020930051804" lon="13.422733973711729">
        <ele>109.89</ele>
        <time>2025-02-10T18:14:46.232Z</time>
      </trkpt>
      <trkpt lat="58.62210298888385" lon="13.422814942896366">
        <ele>109.52</ele>
        <time>2025-02-10T18:15:26.933Z</time>
      </trkpt>
      <trkpt lat="58.62218697555363" lon="13.422893984243274">
        <ele>109.15</ele>
        <time>2025-02-10T18:16:07.636Z</time>
      </trkpt>
      <trkpt lat="58.62227498553693" lon="13.422978976741433">
        <ele>108.78</ele>
        <time>2025-02-10T18:16:48.340Z</time>
      </trkpt>
      <trkpt lat="58.62237196415663" lon="13.423071932047606">
        <ele>108.41</ele>
        <time>2025-02-10T18:17:29.046Z</time>
      </trkpt>
      <trkpt lat="58.622474977746606" lon="13.423168994486332">
        <ele>108.04</ele>
        <time>2025-02-10T18:18:09.754Z</time>
      </trkpt>
      <trkpt lat="58.62258494831622" lon="13.423268990591168">
        <ele>107.66</ele>
        <time>2025-02-10T18:18:50.464Z</time>
      </trkpt>
      <trkpt lat="58.62269994802773" lon="13.423375943675637">
        <ele>107.29</ele>
        <time>2025-02-10T18:19:31.176Z</time>
      </trkpt>
      <trkpt lat="58.62281394191086" lon="13.423476945608854">
        <ele>106.92</ele>
        <time>2025-02-10T18:20:11.890Z</time>
      </trkpt>
      <trkpt lat="58.622925924137235" lon="13.423568978905678">
        <ele>106.55</ele>
        <time>2025-02-10T18:20:52.606Z</time>
      </trkpt>
      <trkpt lat="58.62304092384875" lon="13.423672998324037">
        <ele>106.17</ele>
        <time>2025-02-10T18:21:33.324Z</time>
      </trkpt>
      <trkpt lat="58.62315198406577" lon="13.423794955015182">
        <ele>105.79</ele>
        <time>2025-02-10T18:22:14.044Z</time>
      </trkpt>
      <trkpt lat="58.62325399182737" lon="13.423937950283289">
        <ele>105.41</ele>
        <time>2025-02-10T18:22:54.766Z</time>
      </trkpt>
      <trkpt lat="58.62334594130516" lon="13.424101984128356">
        <ele>105.03</ele>
        <time>2025-02-10T18:23:35.490Z</time>
      </trkpt>
      <trkpt lat="58.623438980430365" lon="13.424280937761068">
        <ele>104.65</ele>
        <time>2025-02-10T18:24:16.216Z</time>
      </trkpt>
      <trkpt lat="58.62353193573654" lon="13.424467938020825">
        <ele>104.27</ele>
        <time>2025-02-10T18:24:56.944Z</time>
      </trkpt>
      <trkpt lat="58.62361893989146" lon="13.424642952159047">
        <ele>103.9</ele>
        <time>2025-02-10T18:25:37.674Z</time>
      </trkpt>
      <trkpt lat="58.62370099872351" lon="13.424811931326985">
        <ele>103.53</ele>
        <time>2025-02-10T18:26:18.406Z</time>
      </trkpt>
      <trkpt lat="58.623778950423" lon="13.42497294768691">
        <ele>103.15</ele>
        <time>2025-02-10T18:26:59.140Z</time>
      </trkpt>
      <trkpt lat="58.62385497428477" lon="13.425128934904933">
        <ele>102.77</ele>
        <time>2025-02-10T18:27:39.876Z</time>
      </trkpt>
      <trkpt lat="58.62392798066139" lon="13.425277965143323">
        <ele>102.4</ele>
        <time>2025-02-10T18:28:20.613Z</time>
      </trkpt>
      <trkpt lat="58.6240019928664" lon="13.42542196623981">
        <ele>102.02</ele>
        <time>2025-02-10T18:29:01.352Z</time>
      </trkpt>
      <trkpt lat="58.62407198175788" lon="13.425555992871523">
        <ele>101.64</ele>
        <time>2025-02-10T18:29:42.093Z</time>
      </trkpt>
      <trkpt lat="58.62414096482098" lon="13.425674932077527">
        <ele>101.26</ele>
        <time>2025-02-10T18:30:22.835Z</time>
      </trkpt>
      <trkpt lat="58.62420592457056" lon="13.425783980637789">
        <ele>100.88</ele>
        <time>2025-02-10T18:31:03.578Z</time>
      </trkpt>
      <trkpt lat="58.62427297979593" lon="13.425883976742625">
        <ele>100.51</ele>
        <time>2025-02-10T18:31:44.323Z</time>
      </trkpt>
      <trkpt lat="58.624343974515796" lon="13.425973998382688">
        <ele>100.13</ele>
        <time>2025-02-10T18:32:25.069Z</time>
      </trkpt>
      <trkpt lat="58.62441698089242" lon="13.426048932597041">
        <ele>99.76</ele>
        <time>2025-02-10T18:33:05.817Z</time>
      </trkpt>
      <trkpt lat="58.624490993097425" lon="13.426122944802046">
        <ele>99.39</ele>
        <time>2025-02-10T18:33:46.566Z</time>
      </trkpt>
      <trkpt lat="58.62456098198891" lon="13.42619595117867">
        <ele>99.03</ele>
        <time>2025-02-10T18:34:27.316Z</time>
      </trkpt>
      <trkpt lat="58.62462795339525" lon="13.426264934241772">
        <ele>98.66</ele>
        <time>2025-02-10T18:35:08.067Z</time>
      </trkpt>
      <trkpt lat="58.62469299696386" lon="13.426327966153622">
        <ele>98.3</ele>
        <time>2025-02-10T18:35:48.820Z</time>
      </trkpt>
      <trkpt lat="58.624751921743155" lon="13.42638697475195">
        <ele>97.94</ele>
        <time>2025-02-10T18:36:29.574Z</time>
      </trkpt>
      <trkpt lat="58.62481193616986" lon="13.426443971693516">
        <ele>97.58</ele>
        <time>2025-02-10T18:37:10.329Z</time>
      </trkpt>
      <trkpt lat="58.62487396225333" lon="13.426498956978321">
        <ele>97.22</ele>
        <time>2025-02-10T18:37:51.085Z</time>
      </trkpt>
      <trkpt lat="58.62493397668004" lon="13.426548996940255">
        <ele>96.86</ele>
        <time>2025-02-10T18:38:31.842Z</time>
      </trkpt>
      <trkpt lat="58.624989967793226" lon="13.426593923941255">
        <ele>96.5</ele>
        <time>2025-02-10T18:39:12.600Z</time>
      </trkpt>
      <trkpt lat="58.6250379960984" lon="13.426631977781653">
        <ele>96.15</ele>
        <time>2025-02-10T18:39:53.359Z</time>
      </trkpt>
      <trkpt lat="58.6250829230994" lon="13.426666930317879">
        <ele>95.79</ele>
        <time>2025-02-10T18:40:34.118Z</time>
      </trkpt>
      <trkpt lat="58.62512399442494" lon="13.426698949187994">
        <ele>95.44</ele>
        <time>2025-02-10T18:41:14.878Z</time>
      </trkpt>
      <trkpt lat="58.625160958617926" lon="13.42673096805811">
        <ele>95.09</ele>
        <time>2025-02-10T18:41:55.639Z</time>
      </trkpt>
      <trkpt lat="58.62519398331642" lon="13.426760975271463">
        <ele>94.74</ele>
        <time>2025-02-10T18:42:36.400Z</time>
      </trkpt>
      <trkpt lat="58.625226924195886" lon="13.426786959171295">
        <ele>94.39</ele>
        <time>2025-02-10T18:43:17.162Z</time>
      </trkpt>
      <trkpt lat="58.625258943066" lon="13.426807997748256">
        <ele>94.04</ele>
        <time>2025-02-10T18:43:57.924Z</time>
      </trkpt>
      <trkpt lat="58.625287944450974" lon="13.426826940849423">
        <ele>93.7</ele>
        <time>2025-02-10T18:44:38.687Z</time>
      </trkpt>
      <trkpt lat="58.62532096914947" lon="13.426848985254765">
        <ele>93.36</ele>
        <time>2025-02-10T18:45:19.451Z</time>
      </trkpt>
      <trkpt lat="58.625356927514076" lon="13.426876980811357">
        <ele>93.02</ele>
        <time>2025-02-10T18:46:00.215Z</time>
      </trkpt>
      <trkpt lat="58.625399926677346" lon="13.426907993853092">
        <ele>92.68</ele>
        <time>2025-02-10T18:46:40.980Z</time>
      </trkpt>
      <trkpt lat="58.625443931669" lon="13.426937917247415">
        <ele>92.34</ele>
        <time>2025-02-10T18:47:21.746Z</time>
      </trkpt>
      <trkpt lat="58.62548994831741" lon="13.42696993611753">
        <ele>92.01</ele>
        <time>2025-02-10T18:48:02.512Z</time>
      </trkpt>
      <trkpt lat="58.62553495913744" lon="13.427000949159265">
        <ele>91.68</ele>
        <time>2025-02-10T18:48:43.279Z</time>
      </trkpt>
      <trkpt lat="58.62558198161423" lon="13.427021987736225">
        <ele>91.35</ele>
        <time>2025-02-10T18:49:24.047Z</time>
      </trkpt>
      <trkpt lat="58.62562992610037" lon="13.427035985514522">
        <ele>91.03</ele>
        <time>2025-02-10T18:50:04.816Z</time>
      </trkpt>
      <trkpt lat="58.625677954405546" lon="13.427046965807676">
        <ele>90.71</ele>
        <time>2025-02-10T18:50:45.586Z</time>
      </trkpt>
      <trkpt lat="58.62572397105396" lon="13.427057946100831">
        <ele>90.39</ele>
        <time>2025-02-10T18:51:26.356Z</time>
      </trkpt>
      <trkpt lat="58.62577099353075" lon="13.427063981071115">
        <ele>90.08</ele>
        <time>2025-02-10T18:52:07.127Z</time>
      </trkpt>
      <trkpt lat="58.62581793218851" lon="13.427069932222366">
        <ele>89.77</ele>
        <time>2025-02-10T18:52:47.899Z</time>
      </trkpt>
      <trkpt lat="58.625867972150445" lon="13.427077978849411">
        <ele>89.46</ele>
        <time>2025-02-10T18:53:28.672Z</time>
      </trkpt>
      <trkpt lat="58.62591893412173" lon="13.427085941657424">
        <ele>89.15</ele>
        <time>2025-02-10T18:54:09.445Z</time>
      </trkpt>
      <trkpt lat="58.62596796825528" lon="13.42709893360734">
        <ele>88.85</ele>
        <time>2025-02-10T18:54:50.219Z</time>
      </trkpt>
      <trkpt lat="58.6260169185698" lon="13.427112931385636">
        <ele>88.56</ele>
        <time>2025-02-10T18:55:30.994Z</time>
      </trkpt>
      <trkpt lat="58.626064946874976" lon="13.427125923335552">
        <ele>88.26</ele>
        <time>2025-02-10T18:56:11.770Z</time>
      </trkpt>
      <trkpt lat="58.62610995769501" lon="13.427134975790977">
        <ele>87.97</ele>
        <time>2025-02-10T18:56:52.546Z</time>
      </trkpt>
      <trkpt lat="58.6261519510299" lon="13.42714293859899">
        <ele>87.68</ele>
        <time>2025-02-10T18:57:33.323Z</time>
      </trkpt>
      <trkpt lat="58.626187993213534" lon="13.427149979397655">
        <ele>87.4</ele>
        <time>2025-02-10T18:58:14.101Z</time>
      </trkpt>
      <trkpt lat="58.62621992826462" lon="13.427152996882796">
        <ele>87.12</ele>
        <time>2025-02-10T18:58:54.879Z</time>
      </trkpt>
      <trkpt lat="58.62625194713473" lon="13.427151991054416">
        <ele>86.84</ele>
        <time>2025-02-10T18:59:35.658Z</time>
      </trkpt>
      <trkpt lat="58.62628094851971" lon="13.427156936377287">
        <ele>86.57</ele>
        <time>2025-02-10T19:00:16.437Z</time>
      </trkpt>
      <trkpt lat="58.62631497904658" lon="13.42716196551919">
        <ele>86.29</ele>
        <time>2025-02-10T19:00:57.217Z</time>
      </trkpt>
      <trkpt lat="58.62635194323957" lon="13.427166994661093">
        <ele>86.03</ele>
        <time>2025-02-10T19:01:37.997Z</time>
      </trkpt>
      <trkpt lat="58.6263919249177" lon="13.427176969125867">
        <ele>85.76</ele>
        <time>2025-02-10T19:02:18.778Z</time>
      </trkpt>
      <trkpt lat="58.62643492408097" lon="13.427182920277119">
        <ele>85.5</ele>
        <time>2025-02-10T19:02:59.560Z</time>
      </trkpt>
      <trkpt lat="58.62648194655776" lon="13.427191972732544">
        <ele>85.24</ele>
        <time>2025-02-10T19:03:40.342Z</time>
      </trkpt>
      <trkpt lat="58.62652997486293" lon="13.427197923883796">
        <ele>84.99</ele>
        <time>2025-02-10T19:04:21.125Z</time>
      </trkpt>
      <trkpt lat="58.626577919349074" lon="13.42720597051084">
        <ele>84.74</ele>
        <time>2025-02-10T19:05:01.909Z</time>
      </trkpt>
      <trkpt lat="58.62662695348263" lon="13.427216950803995">
        <ele>84.49</ele>
        <time>2025-02-10T19:05:42.694Z</time>
      </trkpt>
      <trkpt lat="58.62667699344456" lon="13.427219968289137">
        <ele>84.25</ele>
        <time>2025-02-10T19:06:23.480Z</time>
      </trkpt>
      <trkpt lat="58.626727955415845" lon="13.427229942753911">
        <ele>84.01</ele>
        <time>2025-02-10T19:07:04.266Z</time>
      </trkpt>
      <trkpt lat="58.62677497789264" lon="13.427239917218685">
        <ele>83.77</ele>
        <time>2025-02-10T19:07:45.053Z</time>
      </trkpt>
      <trkpt lat="58.6268219165504" lon="13.42724896967411">
        <ele>83.53</ele>
        <time>2025-02-10T19:08:25.841Z</time>
      </trkpt>
      <trkpt lat="58.62687095068395" lon="13.427265984937549">
        <ele>83.3</ele>
        <time>2025-02-10T19:09:06.630Z</time>
      </trkpt>
      <trkpt lat="58.626921996474266" lon="13.42729196883738">
        <ele>83.07</ele>
        <time>2025-02-10T19:09:47.420Z</time>
      </trkpt>
      <trkpt lat="58.62697195261717" lon="13.427324993535876">
        <ele>82.84</ele>
        <time>2025-02-10T19:10:28.210Z</time>
      </trkpt>
      <trkpt lat="58.62702098675072" lon="13.427364975214005">
        <ele>82.62</ele>
        <time>2025-02-10T19:11:09.001Z</time>
      </trkpt>
      <trkpt lat="58.62706499174237" lon="13.427410991862416">
        <ele>82.39</ele>
        <time>2025-02-10T19:11:49.793Z</time>
      </trkpt>
      <trkpt lat="58.62710296176374" lon="13.427465977147222">
        <ele>82.17</ele>
        <time>2025-02-10T19:12:30.586Z</time>
      </trkpt>
      <trkpt lat="58.627137998119" lon="13.42752599157393">
        <ele>81.96</ele>
        <time>2025-02-10T19:13:11.380Z</time>
      </trkpt>
      <trkpt lat="58.62716792151332" lon="13.42759296298027">
        <ele>81.74</ele>
        <time>2025-02-10T19:13:52.174Z</time>
      </trkpt>
      <trkpt lat="58.62719591706991" lon="13.427665969356894">
        <ele>81.53</ele>
        <time>2025-02-10T19:14:32.969Z</time>
      </trkpt>
      <trkpt lat="58.627221984788775" lon="13.427745932713151">
        <ele>81.32</ele>
        <time>2025-02-10T19:15:13.765Z</time>
      </trkpt>
      <trkpt lat="58.62724796868861" lon="13.42782698571682">
        <ele>81.11</ele>
        <time>2025-02-10T19:15:54.562Z</time>
      </trkpt>
      <trkpt lat="58.62727294676006" lon="13.42791197821498">
        <ele>80.91</ele>
        <time>2025-02-10T19:16:35.360Z</time>
      </trkpt>
      <trkpt lat="58.62729792483151" lon="13.427995964884758">
        <ele>80.71</ele>
        <time>2025-02-10T19:17:16.158Z</time>
      </trkpt>
      <trkpt lat="58.62732097506523" lon="13.42808498069644">
        <ele>80.51</ele>
        <time>2025-02-10T19:17:56.957Z</time>
      </trkpt>
      <trkpt lat="58.62734695896506" lon="13.428175924345851">
        <ele>80.31</ele>
        <time>2025-02-10T19:18:37.757Z</time>
      </trkpt>
      <trkpt lat="58.627373948693275" lon="13.428265945985913">
        <ele>80.11</ele>
        <time>2025-02-10T19:19:18.558Z</time>
      </trkpt>
      <trkpt lat="58.62739892676473" lon="13.428357979282737">
        <ele>79.92</ele>
        <time>2025-02-10T19:19:59.360Z</time>
      </trkpt>
      <trkpt lat="58.62742398865521" lon="13.428456969559193">
        <ele>79.73</ele>
        <time>2025-02-10T19:20:40.163Z</time>
      </trkpt>
      <trkpt lat="58.62744796089828" lon="13.428560988977551">
        <ele>79.54</ele>
        <time>2025-02-10T19:21:20.967Z</time>
      </trkpt>
      <trkpt lat="58.62746992148459" lon="13.428663918748498">
        <ele>79.35</ele>
        <time>2025-02-10T19:22:01.772Z</time>
      </trkpt>
      <trkpt lat="58.62749297171831" lon="13.428768943995237">
        <ele>79.17</ele>
        <time>2025-02-10T19:22:42.578Z</time>
      </trkpt>
      <trkpt lat="58.62751794978976" lon="13.428875980898738">
        <ele>78.99</ele>
        <time>2025-02-10T19:23:23.385Z</time>
      </trkpt>
      <trkpt lat="58.627543933689594" lon="13.428982933983207">
        <ele>78.81</ele>
        <time>2025-02-10T19:24:04.192Z</time>
      </trkpt>
      <trkpt lat="58.627569917589426" lon="13.429089970886707">
        <ele>78.63</ele>
        <time>2025-02-10T19:24:45.000Z</time>
      </trkpt>
      <trkpt lat="58.62759497947991" lon="13.429196923971176">
        <ele>78.45</ele>
        <time>2025-02-10T19:25:25.809Z</time>
      </trkpt>
      <trkpt lat="58.62762096337974" lon="13.429303960874677">
        <ele>78.27</ele>
        <time>2025-02-10T19:26:06.619Z</time>
      </trkpt>
      <trkpt lat="58.62764392979443" lon="13.429405968636274">
        <ele>78.09</ele>
        <time>2025-02-10T19:26:47.430Z</time>
      </trkpt>
      <trkpt lat="58.62766396254301" lon="13.42950395308435">
        <ele>77.92</ele>
        <time>2025-02-10T19:27:28.242Z</time>
      </trkpt>
      <trkpt lat="58.62768399529159" lon="13.429592968896031">
        <ele>77.74</ele>
        <time>2025-02-10T19:28:09.055Z</time>
      </trkpt>
      <trkpt lat="58.62769992090762" lon="13.429680978879333">
        <ele>77.58</ele>
        <time>2025-02-10T19:28:49.869Z</time>
      </trkpt>
      <trkpt lat="58.627717941999435" lon="13.42976395972073">
        <ele>77.41</ele>
        <time>2025-02-10T19:29:30.684Z</time>
      </trkpt>
      <trkpt lat="58.62773294560611" lon="13.429839983582497">
        <ele>77.24</ele>
        <time>2025-02-10T19:30:11.499Z</time>
      </trkpt>
      <trkpt lat="58.62774593755603" lon="13.429906954988837">
        <ele>77.07</ele>
        <time>2025-02-10T19:30:52.315Z</time>
      </trkpt>
      <trkpt lat="58.627755995839834" lon="13.429964957758784">
        <ele>76.9</ele>
        <time>2025-02-10T19:31:33.131Z</time>
      </trkpt>
      <trkpt lat="58.62776395864785" lon="13.430014997720718">
        <ele>76.74</ele>
        <time>2025-02-10T19:32:13.948Z</time>
      </trkpt>
      <trkpt lat="58.62776999361813" lon="13.430057996883988">
        <ele>76.57</ele>
        <time>2025-02-10T19:32:54.765Z</time>
      </trkpt>
      <trkpt lat="58.62777292728424" lon="13.430098984390497">
        <ele>76.41</ele>
        <time>2025-02-10T19:33:35.583Z</time>
      </trkpt>
      <trkpt lat="58.62777695059776" lon="13.430139971897006">
        <ele>76.24</ele>
        <time>2025-02-10T19:34:16.401Z</time>
      </trkpt>
      <trkpt lat="58.62778298556805" lon="13.430182971060276">
        <ele>76.08</ele>
        <time>2025-02-10T19:34:57.219Z</time>
      </trkpt>
      <trkpt lat="58.62779195420444" lon="13.430224964395165">
        <ele>75.92</ele>
        <time>2025-02-10T19:35:38.038Z</time>
      </trkpt>
      <trkpt lat="58.62780695781112" lon="13.430271986871958">
        <ele>75.76</ele>
        <time>2025-02-10T19:36:18.857Z</time>
      </trkpt>
      <trkpt lat="58.627822967246175" lon="13.43032194301486">
        <ele>75.59</ele>
        <time>2025-02-10T19:36:59.677Z</time>
      </trkpt>
      <trkpt lat="58.627840988337994" lon="13.430374916642904">
        <ele>75.43</ele>
        <time>2025-02-10T19:37:40.497Z</time>
      </trkpt>
      <trkpt lat="58.62785599194467" lon="13.4304269682616">
        <ele>75.27</ele>
        <time>2025-02-10T19:38:21.318Z</time>
      </trkpt>
      <trkpt lat="58.62786998972297" lon="13.430478936061263">
        <ele>75.11</ele>
        <time>2025-02-10T19:39:02.139Z</time>
      </trkpt>
      <trkpt lat="58.6278819758445" lon="13.430530987679958">
        <ele>74.94</ele>
        <time>2025-02-10T19:39:42.961Z</time>
      </trkpt>
      <trkpt lat="58.62789195030928" lon="13.430584967136383">
        <ele>74.78</ele>
        <time>2025-02-10T19:40:23.783Z</time>
      </trkpt>
      <trkpt lat="58.62789899110794" lon="13.430640958249569">
        <ele>74.62</ele>
        <time>2025-02-10T19:41:04.606Z</time>
      </trkpt>
      <trkpt lat="58.62790091894567" lon="13.430692926049232">
        <ele>74.46</ele>
        <time>2025-02-10T19:41:45.429Z</time>
      </trkpt>
      <trkpt lat="58.62790494225919" lon="13.430737936869264">
        <ele>74.29</ele>
        <time>2025-02-10T19:42:26.252Z</time>
      </trkpt>
      <trkpt lat="58.627909971401095" lon="13.430779930204153">
        <ele>74.13</ele>
        <time>2025-02-10T19:43:07.076Z</time>
      </trkpt>
      <trkpt lat="58.62791793420911" lon="13.430821923539042">
        <ele>73.97</ele>
        <time>2025-02-10T19:43:47.900Z</time>
      </trkpt>
      <trkpt lat="58.627932937815785" lon="13.430862994864583">
        <ele>73.81</ele>
        <time>2025-02-10T19:44:28.725Z</time>
      </trkpt>
      <trkpt lat="58.627953976392746" lon="13.43090197071433">
        <ele>73.64</ele>
        <time>2025-02-10T19:45:09.550Z</time>
      </trkpt>
      <trkpt lat="58.62798197194934" lon="13.430935917422175">
        <ele>73.48</ele>
        <time>2025-02-10T19:45:50.376Z</time>
      </trkpt>
      <trkpt lat="58.62800695002079" lon="13.43096299096942">
        <ele>73.31</ele>
        <time>2025-02-10T19:46:31.202Z</time>
      </trkpt>
      <trkpt lat="58.62803494557738" lon="13.430993920192122">
        <ele>73.14</ele>
        <time>2025-02-10T19:47:12.029Z</time>
      </trkpt>
      <trkpt lat="58.628058917820454" lon="13.431027950718999">
        <ele>72.98</ele>
        <time>2025-02-10T19:47:52.856Z</time>
      </trkpt>
      <trkpt lat="58.62808791920543" lon="13.431078996509314">
        <ele>72.81</ele>
        <time>2025-02-10T19:48:33.684Z</time>
      </trkpt>
      <trkpt lat="58.628123961389065" lon="13.43113599345088">
        <ele>72.64</ele>
        <time>2025-02-10T19:49:14.512Z</time>
      </trkpt>
      <trkpt lat="58.62816092558205" lon="13.431192990392447">
        <ele>72.47</ele>
        <time>2025-02-10T19:49:55.341Z</time>
      </trkpt>
      <trkpt lat="58.62820392474532" lon="13.431260967627168">
        <ele>72.3</ele>
        <time>2025-02-10T19:50:36.171Z</time>
      </trkpt>
      <trkpt lat="58.628250947222114" lon="13.431334979832172">
        <ele>72.13</ele>
        <time>2025-02-10T19:51:17.002Z</time>
      </trkpt>
      <trkpt lat="58.62829998135567" lon="13.431407986208797">
        <ele>71.95</ele>
        <time>2025-02-10T19:51:57.834Z</time>
      </trkpt>
      <trkpt lat="58.62835194915533" lon="13.431476969271898">
        <ele>71.78</ele>
        <time>2025-02-10T19:52:38.667Z</time>
      </trkpt>
      <trkpt lat="58.628404922783375" lon="13.431547963991761">
        <ele>71.61</ele>
        <time>2025-02-10T19:53:19.501Z</time>
      </trkpt>
      <trkpt lat="58.62845697440207" lon="13.431617952883244">
        <ele>71.43</ele>
        <time>2025-02-10T19:54:00.336Z</time>
      </trkpt>
      <trkpt lat="58.62850793637335" lon="13.431689953431487">
        <ele>71.26</ele>
        <time>2025-02-10T19:54:41.172Z</time>
      </trkpt>
      <trkpt lat="58.628555964678526" lon="13.431763965636492">
        <ele>71.09</ele>
        <time>2025-02-10T19:55:22.009Z</time>
      </trkpt>
      <trkpt lat="58.62860298715532" lon="13.431836972013116">
        <ele>70.92</ele>
        <time>2025-02-10T19:56:02.847Z</time>
      </trkpt>
      <trkpt lat="58.62865294329822" lon="13.43190897256136">
        <ele>70.74</ele>
        <time>2025-02-10T19:56:43.686Z</time>
      </trkpt>
      <trkpt lat="58.628705916926265" lon="13.4319759439677">
        <ele>70.57</ele>
        <time>2025-02-10T19:57:24.526Z</time>
      </trkpt>
      <trkpt lat="58.62876492552459" lon="13.432025983929634">
        <ele>70.4</ele>
        <time>2025-02-10T19:58:05.367Z</time>
      </trkpt>
      <trkpt lat="58.62882695160806" lon="13.43206194229424">
        <ele>70.23</ele>
        <time>2025-02-10T19:58:46.209Z</time>
      </trkpt>
      <trkpt lat="58.62888797186315" lon="13.43210594728589">
        <ele>70.05</ele>
        <time>2025-02-10T19:59:27.052Z</time>
      </trkpt>
      <trkpt lat="58.62894496880472" lon="13.432162944227457">
        <ele>69.88</ele>
        <time>2025-02-10T20:00:07.896Z</time>
      </trkpt>
      <trkpt lat="58.62899794243276" lon="13.432226981967688">
        <ele>69.69</ele>
        <time>2025-02-10T20:00:48.741Z</time>
      </trkpt>
      <trkpt lat="58.62905099987984" lon="13.43229797668755">
        <ele>69.51</ele>
        <time>2025-02-10T20:01:29.587Z</time>
      </trkpt>
      <trkpt lat="58.62910497933626" lon="13.432370983064175">
        <ele>69.33</ele>
        <time>2025-02-10T20:02:10.434Z</time>
      </trkpt>
      <trkpt lat="58.62915895879269" lon="13.43244893476367">
        <ele>69.14</ele>
        <time>2025-02-10T20:02:51.282Z</time>
      </trkpt>
      <trkpt lat="58.62921092659235" lon="13.432529987767339">
        <ele>68.95</ele>
        <time>2025-02-10T20:03:32.131Z</time>
      </trkpt>
      <trkpt lat="58.629260966554284" lon="13.432614980265498">
        <ele>68.77</ele>
        <time>2025-02-10T20:04:12.982Z</time>
      </trkpt>
      <trkpt lat="58.629307989031076" lon="13.432700978592038">
        <ele>68.59</ele>
        <time>2025-02-10T20:04:53.834Z</time>
      </trkpt>
      <trkpt lat="58.62936498597264" lon="13.43279292806983">
        <ele>68.4</ele>
        <time>2025-02-10T20:05:34.687Z</time>
      </trkpt>
      <trkpt lat="58.62942793406546" lon="13.432889990508556">
        <ele>68.21</ele>
        <time>2025-02-10T20:06:15.541Z</time>
      </trkpt>
      <trkpt lat="58.62949297763407" lon="13.432986969128251">
        <ele>68.02</ele>
        <time>2025-02-10T20:06:56.396Z</time>
      </trkpt>
      <trkpt lat="58.62955894321203" lon="13.433083947747946">
        <ele>67.83</ele>
        <time>2025-02-10T20:07:37.253Z</time>
      </trkpt>
      <trkpt lat="58.62962398678064" lon="13.433178998529911">
        <ele>67.64</ele>
        <time>2025-02-10T20:08:18.111Z</time>
      </trkpt>
      <trkpt lat="58.62968693487346" lon="13.433274971321225">
        <ele>67.45</ele>
        <time>2025-02-10T20:08:58.970Z</time>
      </trkpt>
      <trkpt lat="58.62974996678531" lon="13.433369938284159">
        <ele>67.25</ele>
        <time>2025-02-10T20:09:39.831Z</time>
      </trkpt>
      <trkpt lat="58.62980998121202" lon="13.433460965752602">
        <ele>67.06</ele>
        <time>2025-02-10T20:10:20.693Z</time>
      </trkpt>
      <trkpt lat="58.62987192347646" lon="13.433545958250761">
        <ele>66.87</ele>
        <time>2025-02-10T20:11:01.556Z</time>
      </trkpt>
      <trkpt lat="58.62993394955993" lon="13.433622987940907">
        <ele>66.68</ele>
        <time>2025-02-10T20:11:42.420Z</time>
      </trkpt>
      <trkpt lat="58.629994969815016" lon="13.43369197100401">
        <ele>66.48</ele>
        <time>2025-02-10T20:12:23.285Z</time>
      </trkpt>
      <trkpt lat="58.630054984241724" lon="13.433756930753589">
        <ele>66.29</ele>
        <time>2025-02-10T20:13:04.151Z</time>
      </trkpt>
      <trkpt lat="58.63011499866843" lon="13.433819962665439">
        <ele>66.09</ele>
        <time>2025-02-10T20:13:45.019Z</time>
      </trkpt>
      <trkpt lat="58.63017794676125" lon="13.433885928243399">
        <ele>65.9</ele>
        <time>2025-02-10T20:14:25.888Z</time>
      </trkpt>
      <trkpt lat="58.63024198450148" lon="13.433953989297152">
        <ele>65.7</ele>
        <time>2025-02-10T20:15:06.758Z</time>
      </trkpt>
      <trkpt lat="58.63030895590782" lon="13.434019954875112">
        <ele>65.51</ele>
        <time>2025-02-10T20:15:47.629Z</time>
      </trkpt>
      <trkpt lat="58.630380956456065" lon="13.43407896347344">
        <ele>65.31</ele>
        <time>2025-02-10T20:16:28.501Z</time>
      </trkpt>
      <trkpt lat="58.63045899197459" lon="13.434125985950232">
        <ele>65.12</ele>
        <time>2025-02-10T20:17:09.375Z</time>
      </trkpt>
      <trkpt lat="58.63054096698761" lon="13.43416697345674">
        <ele>64.92</ele>
        <time>2025-02-10T20:17:50.250Z</time>
      </trkpt>
      <trkpt lat="58.63062696531415" lon="13.434201925992966">
        <ele>64.73</ele>
        <time>2025-02-10T20:18:31.126Z</time>
      </trkpt>
      <trkpt lat="58.63071899861097" lon="13.43422899954021">
        <ele>64.53</ele>
        <time>2025-02-10T20:19:12.004Z</time>
      </trkpt>
      <trkpt lat="58.63081396557391" lon="13.434256995096803">
        <ele>64.34</ele>
        <time>2025-02-10T20:19:52.883Z</time>
      </trkpt>
      <trkpt lat="58.63091195002198" lon="13.434291947633028">
        <ele>64.14</ele>
        <time>2025-02-10T20:20:33.764Z</time>
      </trkpt>
      <trkpt lat="58.63101194612682" lon="13.434331929311156">
        <ele>63.95</ele>
        <time>2025-02-10T20:21:14.647Z</time>
      </trkpt>
      <trkpt lat="58.631113953888416" lon="13.434377945959568">
        <ele>63.75</ele>
        <time>2025-02-10T20:21:55.531Z</time>
      </trkpt>
      <trkpt lat="58.631215961650014" lon="13.434433937072754">
        <ele>63.55</ele>
        <time>2025-02-10T20:22:36.417Z</time>
      </trkpt>
      <trkpt lat="58.63131595775485" lon="13.434502920135856">
        <ele>63.36</ele>
        <time>2025-02-10T20:23:17.305Z</time>
      </trkpt>
      <trkpt lat="58.631411930546165" lon="13.434587996453047">
        <ele>63.16</ele>
        <time>2025-02-10T20:23:58.195Z</time>
      </trkpt>
      <trkpt lat="58.63150496967137" lon="13.434689920395613">
        <ele>62.98</ele>
        <time>2025-02-10T20:24:39.086Z</time>
      </trkpt>
      <trkpt lat="58.63159096799791" lon="13.43480994924903">
        <ele>62.79</ele>
        <time>2025-02-10T20:25:19.979Z</time>
      </trkpt>
      <trkpt lat="58.631671937182546" lon="13.43493894673884">
        <ele>62.6</ele>
        <time>2025-02-10T20:26:00.874Z</time>
      </trkpt>
      <trkpt lat="58.63174695521593" lon="13.435073979198933">
        <ele>62.41</ele>
        <time>2025-02-10T20:26:41.770Z</time>
      </trkpt>
      <trkpt lat="58.63181694410741" lon="13.43521999195218">
        <ele>62.22</ele>
        <time>2025-02-10T20:27:22.668Z</time>
      </trkpt>
      <trkpt lat="58.631881987676024" lon="13.43537195585668">
        <ele>62.03</ele>
        <time>2025-02-10T20:28:03.568Z</time>
      </trkpt>
      <trkpt lat="58.63194292411208" lon="13.435526937246323">
        <ele>61.85</ele>
        <time>2025-02-10T20:28:44.469Z</time>
      </trkpt>
      <trkpt lat="58.63200092688203" lon="13.435686947777867">
        <ele>61.66</ele>
        <time>2025-02-10T20:29:25.372Z</time>
      </trkpt>
      <trkpt lat="58.632054990157485" lon="13.435851987451315">
        <ele>61.48</ele>
        <time>2025-02-10T20:30:06.276Z</time>
      </trkpt>
      <trkpt lat="58.632101928815246" lon="13.436018954962492">
        <ele>61.3</ele>
        <time>2025-02-10T20:30:47.182Z</time>
      </trkpt>
      <trkpt lat="58.632145933806896" lon="13.43618893995881">
        <ele>61.12</ele>
        <time>2025-02-10T20:31:28.090Z</time>
      </trkpt>
      <trkpt lat="58.632185999304056" lon="13.436362948268652">
        <ele>60.94</ele>
        <time>2025-02-10T20:32:08.999Z</time>
      </trkpt>
      <trkpt lat="58.63221692852676" lon="13.436540979892015">
        <ele>60.75</ele>
        <time>2025-02-10T20:32:49.910Z</time>
      </trkpt>
      <trkpt lat="58.63224199041724" lon="13.436721945181489">
        <ele>60.56</ele>
        <time>2025-02-10T20:33:30.822Z</time>
      </trkpt>
      <trkpt lat="58.63226093351841" lon="13.436905927956104">
        <ele>60.36</ele>
        <time>2025-02-10T20:34:11.736Z</time>
      </trkpt>
      <trkpt lat="58.632273925468326" lon="13.437093934044242">
        <ele>60.18</ele>
        <time>2025-02-10T20:34:52.652Z</time>
      </trkpt>
      <trkpt lat="58.63227794878185" lon="13.43728194013238">
        <ele>59.99</ele>
        <time>2025-02-10T20:35:33.569Z</time>
      </trkpt>
      <trkpt lat="58.632273925468326" lon="13.43747396953404">
        <ele>59.81</ele>
        <time>2025-02-10T20:36:14.488Z</time>
      </trkpt>
      <trkpt lat="58.63226294517517" lon="13.4376659989357">
        <ele>59.62</ele>
        <time>2025-02-10T20:36:55.408Z</time>
      </trkpt>
      <trkpt lat="58.63224592991173" lon="13.437854927033186">
        <ele>59.45</ele>
        <time>2025-02-10T20:37:36.330Z</time>
      </trkpt>
      <trkpt lat="58.63222195766866" lon="13.438040921464562">
        <ele>59.28</ele>
        <time>2025-02-10T20:38:17.254Z</time>
      </trkpt>
      <trkpt lat="58.63219195045531" lon="13.438219958916306">
        <ele>59.1</ele>
        <time>2025-02-10T20:38:58.179Z</time>
      </trkpt>
      <trkpt lat="58.63215398043394" lon="13.43839698471129">
        <ele>58.93</ele>
        <time>2025-02-10T20:39:39.106Z</time>
      </trkpt>
      <trkpt lat="58.63210896961391" lon="13.43856998719275">
        <ele>58.76</ele>
        <time>2025-02-10T20:40:20.034Z</time>
      </trkpt>
      <trkpt lat="58.63206094130874" lon="13.438738966360688">
        <ele>58.59</ele>
        <time>2025-02-10T20:41:00.964Z</time>
      </trkpt>
      <trkpt lat="58.63200796768069" lon="13.438900988548994">
        <ele>58.42</ele>
        <time>2025-02-10T20:41:41.896Z</time>
      </trkpt>
      <trkpt lat="58.631949964910746" lon="13.439052952453494">
        <ele>58.26</ele>
        <time>2025-02-10T20:42:22.829Z</time>
      </trkpt>
      <trkpt lat="58.63189095631242" lon="13.439201982691884">
        <ele>58.09</ele>
        <time>2025-02-10T20:43:03.764Z</time>
      </trkpt>
      <trkpt lat="58.63183295354247" lon="13.43934497795999">
        <ele>57.93</ele>
        <time>2025-02-10T20:43:44.700Z</time>
      </trkpt>
      <trkpt lat="58.63177293911576" lon="13.439487973228097">
        <ele>57.77</ele>
        <time>2025-02-10T20:44:25.638Z</time>
      </trkpt>
      <trkpt lat="58.631713930517435" lon="13.439630968496203">
        <ele>57.61</ele>
        <time>2025-02-10T20:45:06.577Z</time>
      </trkpt>
      <trkpt lat="58.63165399990976" lon="13.439769940450788">
        <ele>57.45</ele>
        <time>2025-02-10T20:45:47.518Z</time>
      </trkpt>
      <trkpt lat="58.63159599713981" lon="13.439907990396023">
        <ele>57.3</ele>
        <time>2025-02-10T20:46:28.460Z</time>
      </trkpt>
      <trkpt lat="58.631537994369864" lon="13.440046962350607">
        <ele>57.15</ele>
        <time>2025-02-10T20:47:09.404Z</time>
      </trkpt>
      <trkpt lat="58.631476974114776" lon="13.44018392264843">
        <ele>57.0</ele>
        <time>2025-02-10T20:47:50.349Z</time>
      </trkpt>
      <trkpt lat="58.63141796551645" lon="13.440319960936904">
        <ele>56.85</ele>
        <time>2025-02-10T20:48:31.296Z</time>
      </trkpt>
      <trkpt lat="58.63136096857488" lon="13.440455999225378">
        <ele>56.71</ele>
        <time>2025-02-10T20:49:12.244Z</time>
      </trkpt>
      <trkpt lat="58.631303971633315" lon="13.440587930381298">
        <ele>56.57</ele>
        <time>2025-02-10T20:49:53.194Z</time>
      </trkpt>
      <trkpt lat="58.63124798052013" lon="13.44071893952787">
        <ele>56.43</ele>
        <time>2025-02-10T20:50:34.145Z</time>
      </trkpt>
      <trkpt lat="58.631192995235324" lon="13.44084894284606">
        <ele>56.29</ele>
        <time>2025-02-10T20:51:15.097Z</time>
      </trkpt>
      <trkpt lat="58.63113993778825" lon="13.44097794033587">
        <ele>56.16</ele>
        <time>2025-02-10T20:51:56.051Z</time>
      </trkpt>
      <trkpt lat="58.631086964160204" lon="13.441101992502809">
        <ele>56.02</ele>
        <time>2025-02-10T20:52:37.006Z</time>
      </trkpt>
      <trkpt lat="58.63103893585503" lon="13.441226966679096">
        <ele>55.89</ele>
        <time>2025-02-10T20:53:17.962Z</time>
      </trkpt>
      <trkpt lat="58.630993925035" lon="13.441352946683764">
        <ele>55.75</ele>
        <time>2025-02-10T20:53:58.920Z</time>
      </trkpt>
      <trkpt lat="58.63095293752849" lon="13.441475993022323">
        <ele>55.62</ele>
        <time>2025-02-10T20:54:39.879Z</time>
      </trkpt>
      <trkpt lat="58.63091295585036" lon="13.441597949713469">
        <ele>55.5</ele>
        <time>2025-02-10T20:55:20.839Z</time>
      </trkpt>
      <trkpt lat="58.630875991657376" lon="13.441719990223646">
        <ele>55.37</ele>
        <time>2025-02-10T20:56:01.800Z</time>
      </trkpt>
      <trkpt lat="58.63084095530212" lon="13.441841946914792">
        <ele>55.24</ele>
        <time>2025-02-10T20:56:42.762Z</time>
      </trkpt>
      <trkpt lat="58.63080692477524" lon="13.441960969939828">
        <ele>55.12</ele>
        <time>2025-02-10T20:57:23.726Z</time>
      </trkpt>
      <trkpt lat="58.63077498972416" lon="13.442076975479722">
        <ele>55.0</ele>
        <time>2025-02-10T20:58:04.691Z</time>
      </trkpt>
      <trkpt lat="58.630743976682425" lon="13.442193986847997">
        <ele>54.88</ele>
        <time>2025-02-10T20:58:45.657Z</time>
      </trkpt>
      <trkpt lat="58.63071095198393" lon="13.44230999238789">
        <ele>54.77</ele>
        <time>2025-02-10T20:59:26.624Z</time>
      </trkpt>
      <trkpt lat="58.63067893311381" lon="13.442426919937134">
        <ele>54.65</ele>
        <time>2025-02-10T21:00:07.592Z</time>
      </trkpt>
      <trkpt lat="58.63064699806273" lon="13.442539991810918">
        <ele>54.54</ele>
        <time>2025-02-10T21:00:48.561Z</time>
      </trkpt>
      <trkpt lat="58.630615985020995" lon="13.44265297986567">
        <ele>54.43</ele>
        <time>2025-02-10T21:01:29.531Z</time>
      </trkpt>
      <trkpt lat="58.63058396615088" lon="13.442766973748803">
        <ele>54.32</ele>
        <time>2025-02-10T21:02:10.502Z</time>
      </trkpt>
      <trkpt lat="58.630551947280765" lon="13.442879961803555">
        <ele>54.21</ele>
        <time>2025-02-10T21:02:51.474Z</time>
      </trkpt>
      <trkpt lat="58.63051992841065" lon="13.442994961515069">
        <ele>54.1</ele>
        <time>2025-02-10T21:03:32.447Z</time>
      </trkpt>
      <trkpt lat="58.630486987531185" lon="13.443112978711724">
        <ele>53.99</ele>
        <time>2025-02-10T21:04:13.422Z</time>
      </trkpt>
      <trkpt lat="58.63045496866107" lon="13.44323392957449">
        <ele>53.89</ele>
        <time>2025-02-10T21:04:54.398Z</time>
      </trkpt>
      <trkpt lat="58.63042093813419" lon="13.443355970084667">
        <ele>53.79</ele>
        <time>2025-02-10T21:05:35.375Z</time>
      </trkpt>
      <trkpt lat="58.63038497976959" lon="13.443479938432574">
        <ele>53.68</ele>
        <time>2025-02-10T21:06:16.353Z</time>
      </trkpt>
      <trkpt lat="58.63034893758595" lon="13.443604996427894">
        <ele>53.58</ele>
        <time>2025-02-10T21:06:57.332Z</time>
      </trkpt>
      <trkpt lat="58.630313985049725" lon="13.443730976432562">
        <ele>53.49</ele>
        <time>2025-02-10T21:07:38.312Z</time>
      </trkpt>
      <trkpt lat="58.63027894869447" lon="13.44385796226561">
        <ele>53.39</ele>
        <time>2025-02-10T21:08:19.294Z</time>
      </trkpt>
      <trkpt lat="58.63024491816759" lon="13.44398494809866">
        <ele>53.3</ele>
        <time>2025-02-10T21:09:00.277Z</time>
      </trkpt>
      <trkpt lat="58.63021197728813" lon="13.444111933931708">
        <ele>53.22</ele>
        <time>2025-02-10T21:09:41.261Z</time>
      </trkpt>
      <trkpt lat="58.63017794676125" lon="13.444233974441886">
        <ele>53.13</ele>
        <time>2025-02-10T21:10:22.246Z</time>
      </trkpt>
      <trkpt lat="58.630142994225025" lon="13.44435391947627">
        <ele>53.05</ele>
        <time>2025-02-10T21:11:03.232Z</time>
      </trkpt>
      <trkpt lat="58.63010896369815" lon="13.444472942501307">
        <ele>52.97</ele>
        <time>2025-02-10T21:11:44.219Z</time>
      </trkpt>
      <trkpt lat="58.63007392734289" lon="13.44458794221282">
        <ele>52.89</ele>
        <time>2025-02-10T21:12:25.208Z</time>
      </trkpt>
      <trkpt lat="58.630038974806666" lon="13.444703947752714">
        <ele>52.8</ele>
        <time>2025-02-10T21:13:06.198Z</time>
      </trkpt>
      <trkpt lat="58.63000595010817" lon="13.444819953292608">
        <ele>52.73</ele>
        <time>2025-02-10T21:13:47.189Z</time>
      </trkpt>
      <trkpt lat="58.629971919581294" lon="13.444936964660883">
        <ele>52.65</ele>
        <time>2025-02-10T21:14:28.181Z</time>
      </trkpt>
      <trkpt lat="58.62993897870183" lon="13.445052970200777">
        <ele>52.58</ele>
        <time>2025-02-10T21:15:09.174Z</time>
      </trkpt>
      <trkpt lat="58.629906959831715" lon="13.445168975740671">
        <ele>52.51</ele>
        <time>2025-02-10T21:15:50.168Z</time>
      </trkpt>
      <trkpt lat="58.62987292930484" lon="13.445282969623804">
        <ele>52.45</ele>
        <time>2025-02-10T21:16:31.163Z</time>
      </trkpt>
      <trkpt lat="58.629839988425374" lon="13.445397969335318">
        <ele>52.38</ele>
        <time>2025-02-10T21:17:12.159Z</time>
      </trkpt>
      <trkpt lat="58.62980696372688" lon="13.445515986531973">
        <ele>52.31</ele>
        <time>2025-02-10T21:17:53.156Z</time>
      </trkpt>
      <trkpt lat="58.62977393902838" lon="13.445632997900248">
        <ele>52.24</ele>
        <time>2025-02-10T21:18:34.155Z</time>
      </trkpt>
      <trkpt lat="58.62974099814892" lon="13.445750931277871">
        <ele>52.18</ele>
        <time>2025-02-10T21:19:15.155Z</time>
      </trkpt>
      <trkpt lat="58.62970797345042" lon="13.445865930989385">
        <ele>52.11</ele>
        <time>2025-02-10T21:19:56.156Z</time>
      </trkpt>
      <trkpt lat="58.62967595458031" lon="13.445979924872518">
        <ele>52.05</ele>
        <time>2025-02-10T21:20:37.158Z</time>
      </trkpt>
      <trkpt lat="58.62964393571019" lon="13.44609391875565">
        <ele>51.98</ele>
        <time>2025-02-10T21:21:18.161Z</time>
      </trkpt>
      <trkpt lat="58.62961292266846" lon="13.446207996457815">
        <ele>51.92</ele>
        <time>2025-02-10T21:21:59.165Z</time>
      </trkpt>
      <trkpt lat="58.62958098761737" lon="13.446322996169329">
        <ele>51.86</ele>
        <time>2025-02-10T21:22:40.170Z</time>
      </trkpt>
      <trkpt lat="58.62954796291888" lon="13.446438917890191">
        <ele>51.8</ele>
        <time>2025-02-10T21:23:21.176Z</time>
      </trkpt>
      <trkpt lat="58.62951594404876" lon="13.446556935086846">
        <ele>51.74</ele>
        <time>2025-02-10T21:24:02.183Z</time>
      </trkpt>
      <trkpt lat="58.62948291935027" lon="13.446674952283502">
        <ele>51.68</ele>
        <time>2025-02-10T21:24:43.191Z</time>
      </trkpt>
      <trkpt lat="58.62944897264242" lon="13.446790957823396">
        <ele>51.62</ele>
        <time>2025-02-10T21:25:24.201Z</time>
      </trkpt>
      <trkpt lat="58.629413936287165" lon="13.446910986676812">
        <ele>51.56</ele>
        <time>2025-02-10T21:26:05.212Z</time>
      </trkpt>
      <trkpt lat="58.62937697209418" lon="13.44703696668148">
        <ele>51.51</ele>
        <time>2025-02-10T21:26:46.224Z</time>
      </trkpt>
      <trkpt lat="58.62933799624443" lon="13.447171999141574">
        <ele>51.45</ele>
        <time>2025-02-10T21:27:27.237Z</time>
      </trkpt>
      <trkpt lat="58.62929793074727" lon="13.4473139885813">
        <ele>51.4</ele>
        <time>2025-02-10T21:28:08.252Z</time>
      </trkpt>
      <trkpt lat="58.62925694324076" lon="13.447458995506167">
        <ele>51.36</ele>
        <time>2025-02-10T21:28:49.268Z</time>
      </trkpt>
      <trkpt lat="58.62921494990587" lon="13.447608947753906">
        <ele>51.31</ele>
        <time>2025-02-10T21:29:30.285Z</time>
      </trkpt>
      <trkpt lat="58.62917295657098" lon="13.447762923315167">
        <ele>51.26</ele>
        <time>2025-02-10T21:30:11.304Z</time>
      </trkpt>
      <trkpt lat="58.62913096323609" lon="13.44791991636157">
        <ele>51.22</ele>
        <time>2025-02-10T21:30:52.324Z</time>
      </trkpt>
      <trkpt lat="58.62908695824444" lon="13.448074981570244">
        <ele>51.18</ele>
        <time>2025-02-10T21:31:33.346Z</time>
      </trkpt>
      <trkpt lat="58.62904295325279" lon="13.448227951303124">
        <ele>51.14</ele>
        <time>2025-02-10T21:32:14.369Z</time>
      </trkpt>
      <trkpt lat="58.62899894826114" lon="13.448381926864386">
        <ele>51.09</ele>
        <time>2025-02-10T21:32:55.394Z</time>
      </trkpt>
      <trkpt lat="58.62895594909787" lon="13.448533974587917">
        <ele>51.06</ele>
        <time>2025-02-10T21:33:36.420Z</time>
      </trkpt>
      <trkpt lat="58.62891395576298" lon="13.448683926835656">
        <ele>51.02</ele>
        <time>2025-02-10T21:34:17.448Z</time>
      </trkpt>
      <trkpt lat="58.62887095659971" lon="13.448833962902427">
        <ele>50.99</ele>
        <time>2025-02-10T21:34:58.477Z</time>
      </trkpt>
      <trkpt lat="58.62882896326482" lon="13.448983998969197">
        <ele>50.96</ele>
        <time>2025-02-10T21:35:39.507Z</time>
      </trkpt>
      <trkpt lat="58.628787975758314" lon="13.449130933731794">
        <ele>50.94</ele>
        <time>2025-02-10T21:36:20.539Z</time>
      </trkpt>
      <trkpt lat="58.628745982423425" lon="13.449276946485043">
        <ele>50.91</ele>
        <time>2025-02-10T21:37:01.572Z</time>
      </trkpt>
      <trkpt lat="58.628704994916916" lon="13.44942094758153">
        <ele>50.89</ele>
        <time>2025-02-10T21:37:42.607Z</time>
      </trkpt>
      <trkpt lat="58.628664929419756" lon="13.449564948678017">
        <ele>50.86</ele>
        <time>2025-02-10T21:38:23.643Z</time>
      </trkpt>
      <trkpt lat="58.62862595357001" lon="13.449707943946123">
        <ele>50.83</ele>
        <time>2025-02-10T21:39:04.680Z</time>
      </trkpt>
      <trkpt lat="58.62858697772026" lon="13.449849933385849">
        <ele>50.81</ele>
        <time>2025-02-10T21:39:45.719Z</time>
      </trkpt>
      <trkpt lat="58.62854599021375" lon="13.449988989159465">
        <ele>50.79</ele>
        <time>2025-02-10T21:40:26.759Z</time>
      </trkpt>
      <trkpt lat="58.62850592471659" lon="13.45012896694243">
        <ele>50.76</ele>
        <time>2025-02-10T21:41:07.800Z</time>
      </trkpt>
      <trkpt lat="58.628465943038464" lon="13.450267938897014">
        <ele>50.75</ele>
        <time>2025-02-10T21:41:48.843Z</time>
      </trkpt>
      <trkpt lat="58.628426967188716" lon="13.450407916679978">
        <ele>50.73</ele>
        <time>2025-02-10T21:42:29.887Z</time>
      </trkpt>
      <trkpt lat="58.62838698551059" lon="13.450545966625214">
        <ele>50.71</ele>
        <time>2025-02-10T21:43:10.932Z</time>
      </trkpt>
      <trkpt lat="58.62834893167019" lon="13.450681921094656">
        <ele>50.7</ele>
        <time>2025-02-10T21:43:51.979Z</time>
      </trkpt>
      <trkpt lat="58.62830995582044" lon="13.45081795938313">
        <ele>50.69</ele>
        <time>2025-02-10T21:44:33.027Z</time>
      </trkpt>
      <trkpt lat="58.628271985799074" lon="13.450952991843224">
        <ele>50.67</ele>
        <time>2025-02-10T21:45:14.076Z</time>
      </trkpt>
      <trkpt lat="58.628234937787056" lon="13.451089952141047">
        <ele>50.65</ele>
        <time>2025-02-10T21:45:55.126Z</time>
      </trkpt>
      <trkpt lat="58.62819797359407" lon="13.45122397877276">
        <ele>50.65</ele>
        <time>2025-02-10T21:46:36.178Z</time>
      </trkpt>
      <trkpt lat="58.62816092558205" lon="13.45135498791933">
        <ele>50.64</ele>
        <time>2025-02-10T21:47:17.231Z</time>
      </trkpt>
      <trkpt lat="58.628122955560684" lon="13.45148297958076">
        <ele>50.63</ele>
        <time>2025-02-10T21:47:58.285Z</time>
      </trkpt>
      <trkpt lat="58.6280859913677" lon="13.45161298289895">
        <ele>50.63</ele>
        <time>2025-02-10T21:48:39.340Z</time>
      </trkpt>
      <trkpt lat="58.62804894335568" lon="13.45174097456038">
        <ele>50.63</ele>
        <time>2025-02-10T21:49:20.397Z</time>
      </trkpt>
      <trkpt lat="58.628012984991074" lon="13.45186896622181">
        <ele>50.63</ele>
        <time>2025-02-10T21:50:01.455Z</time>
      </trkpt>
      <trkpt lat="58.627974931150675" lon="13.451994946226478">
        <ele>50.62</ele>
        <time>2025-02-10T21:50:42.514Z</time>
      </trkpt>
      <trkpt lat="58.62793796695769" lon="13.452120926231146">
        <ele>50.62</ele>
        <time>2025-02-10T21:51:23.574Z</time>
      </trkpt>
      <trkpt lat="58.62790192477405" lon="13.452247995883226">
        <ele>50.62</ele>
        <time>2025-02-10T21:52:04.635Z</time>
      </trkpt>
      <trkpt lat="58.627866972237825" lon="13.452373975887895">
        <ele>50.62</ele>
        <time>2025-02-10T21:52:45.698Z</time>
      </trkpt>
      <trkpt lat="58.62783093005419" lon="13.452496938407421">
        <ele>50.62</ele>
        <time>2025-02-10T21:53:26.762Z</time>
      </trkpt>
      <trkpt lat="58.62779597751796" lon="13.45261998474598">
        <ele>50.62</ele>
        <time>2025-02-10T21:54:07.827Z</time>
      </trkpt>
      <trkpt lat="58.62776295281947" lon="13.452741941437125">
        <ele>50.62</ele>
        <time>2025-02-10T21:54:48.893Z</time>
      </trkpt>
      <trkpt lat="58.62773193977773" lon="13.452866999432445">
        <ele>50.62</ele>
        <time>2025-02-10T21:55:29.960Z</time>
      </trkpt>
      <trkpt lat="58.627700926736" lon="13.45298895612359">
        <ele>50.63</ele>
        <time>2025-02-10T21:56:11.028Z</time>
      </trkpt>
      <trkpt lat="58.627669997513294" lon="13.453107979148626">
        <ele>50.63</ele>
        <time>2025-02-10T21:56:52.098Z</time>
      </trkpt>
      <trkpt lat="58.62763898447156" lon="13.45322398468852">
        <ele>50.64</ele>
        <time>2025-02-10T21:57:33.169Z</time>
      </trkpt>
      <trkpt lat="58.627605959773064" lon="13.453336972743273">
        <ele>50.65</ele>
        <time>2025-02-10T21:58:14.241Z</time>
      </trkpt>
      <trkpt lat="58.62757595255971" lon="13.453452978283167">
        <ele>50.66</ele>
        <time>2025-02-10T21:58:55.314Z</time>
      </trkpt>
      <trkpt lat="58.6275489628315" lon="13.45356596633792">
        <ele>50.68</ele>
        <time>2025-02-10T21:59:36.388Z</time>
      </trkpt>
      <trkpt lat="58.627522978931665" lon="13.453680966049433">
        <ele>50.69</ele>
        <time>2025-02-10T22:00:17.463Z</time>
      </trkpt>
      <trkpt lat="58.62749397754669" lon="13.453796971589327">
        <ele>50.7</ele>
        <time>2025-02-10T22:00:58.539Z</time>
      </trkpt>
      <trkpt lat="58.62746296450496" lon="13.453907947987318">
        <ele>50.71</ele>
        <time>2025-02-10T22:01:39.616Z</time>
      </trkpt>
      <trkpt lat="58.6274329572916" lon="13.4540159907192">
        <ele>50.72</ele>
        <time>2025-02-10T22:02:20.694Z</time>
      </trkpt>
      <trkpt lat="58.62740395590663" lon="13.45412596128881">
        <ele>50.73</ele>
        <time>2025-02-10T22:03:01.773Z</time>
      </trkpt>
      <trkpt lat="58.627374954521656" lon="13.45423492603004">
        <ele>50.74</ele>
        <time>2025-02-10T22:03:42.853Z</time>
      </trkpt>
      <trkpt lat="58.62734695896506" lon="13.454345986247063">
        <ele>50.76</ele>
        <time>2025-02-10T22:04:23.934Z</time>
      </trkpt>
      <trkpt lat="58.62731996923685" lon="13.454462997615337">
        <ele>50.77</ele>
        <time>2025-02-10T22:05:05.016Z</time>
      </trkpt>
      <trkpt lat="58.6272949911654" lon="13.454581936821342">
        <ele>50.78</ele>
        <time>2025-02-10T22:05:46.099Z</time>
      </trkpt>
      <trkpt lat="58.62726992927492" lon="13.454700959846377">
        <ele>50.79</ele>
        <time>2025-02-10T22:06:27.183Z</time>
      </trkpt>
      <trkpt lat="58.627243945375085" lon="13.454819982871413">
        <ele>50.8</ele>
        <time>2025-02-10T22:07:08.268Z</time>
      </trkpt>
      <trkpt lat="58.627218967303634" lon="13.45494294539094">
        <ele>50.82</ele>
        <time>2025-02-10T22:07:49.355Z</time>
      </trkpt>
      <trkpt lat="58.62719591706991" lon="13.455068925395608">
        <ele>50.84</ele>
        <time>2025-02-10T22:08:30.443Z</time>
      </trkpt>
      <trkpt lat="58.62717295065522" lon="13.455194989219308">
        <ele>50.86</ele>
        <time>2025-02-10T22:09:11.532Z</time>
      </trkpt>
      <trkpt lat="58.62714998424053" lon="13.455319963395596">
        <ele>50.88</ele>
        <time>2025-02-10T22:09:52.622Z</time>
      </trkpt>
      <trkpt lat="58.62712793983519" lon="13.455446949228644">
        <ele>50.9</ele>
        <time>2025-02-10T22:10:33.713Z</time>
      </trkpt>
      <trkpt lat="58.62710597924888" lon="13.455575946718454">
        <ele>50.91</ele>
        <time>2025-02-10T22:11:14.805Z</time>
      </trkpt>
      <trkpt lat="58.62708494067192" lon="13.455704944208264">
        <ele>50.93</ele>
        <time>2025-02-10T22:11:55.898Z</time>
      </trkpt>
      <trkpt lat="58.62706096842885" lon="13.455834947526455">
        <ele>50.96</ele>
        <time>2025-02-10T22:12:36.992Z</time>
      </trkpt>
      <trkpt lat="58.62703791819513" lon="13.455964950844646">
        <ele>50.98</ele>
        <time>2025-02-10T22:13:18.088Z</time>
      </trkpt>
      <trkpt lat="58.62701294012368" lon="13.456093948334455">
        <ele>51.0</ele>
        <time>2025-02-10T22:13:59.185Z</time>
      </trkpt>
      <trkpt lat="58.62698896788061" lon="13.456225963309407">
        <ele>51.02</ele>
        <time>2025-02-10T22:14:40.283Z</time>
      </trkpt>
      <trkpt lat="58.626964995637536" lon="13.456355966627598">
        <ele>51.05</ele>
        <time>2025-02-10T22:15:21.382Z</time>
      </trkpt>
      <trkpt lat="58.626940939575434" lon="13.456485969945788">
        <ele>51.06</ele>
        <time>2025-02-10T22:16:02.482Z</time>
      </trkpt>
      <trkpt lat="58.626917973160744" lon="13.45661697909236">
        <ele>51.08</ele>
        <time>2025-02-10T22:16:43.583Z</time>
      </trkpt>
      <trkpt lat="58.62689492292702" lon="13.45674798823893">
        <ele>51.1</ele>
        <time>2025-02-10T22:17:24.686Z</time>
      </trkpt>
      <trkpt lat="58.62687195651233" lon="13.456877991557121">
        <ele>51.12</ele>
        <time>2025-02-10T22:18:05.790Z</time>
      </trkpt>
      <trkpt lat="58.62684798426926" lon="13.45700891688466">
        <ele>51.14</ele>
        <time>2025-02-10T22:18:46.895Z</time>
      </trkpt>
      <trkpt lat="58.62682493403554" lon="13.457140931859612">
        <ele>51.15</ele>
        <time>2025-02-10T22:19:28.001Z</time>
      </trkpt>
      <trkpt lat="58.62680196762085" lon="13.457272946834564">
        <ele>51.17</ele>
        <time>2025-02-10T22:20:09.108Z</time>
      </trkpt>
      <trkpt lat="58.62677799537778" lon="13.457404961809516">
        <ele>51.19</ele>
        <time>2025-02-10T22:20:50.216Z</time>
      </trkpt>
      <trkpt lat="58.62675393931568" lon="13.457536976784468">
        <ele>51.21</ele>
        <time>2025-02-10T22:21:31.326Z</time>
      </trkpt>
      <trkpt lat="58.626727955415845" lon="13.45766899175942">
        <ele>51.22</ele>
        <time>2025-02-10T22:22:12.437Z</time>
      </trkpt>
      <trkpt lat="58.626702977344394" lon="13.4578029345721">
        <ele>51.24</ele>
        <time>2025-02-10T22:22:53.549Z</time>
      </trkpt>
      <trkpt lat="58.62667892128229" lon="13.457936961203814">
        <ele>51.26</ele>
        <time>2025-02-10T22:23:34.662Z</time>
      </trkpt>
      <trkpt lat="58.62665494903922" lon="13.458071993663907">
        <ele>51.28</ele>
        <time>2025-02-10T22:24:15.776Z</time>
      </trkpt>
      <trkpt lat="58.62663097679615" lon="13.458206942304969">
        <ele>51.31</ele>
        <time>2025-02-10T22:24:56.891Z</time>
      </trkpt>
      <trkpt lat="58.6266059987247" lon="13.458340968936682">
        <ele>51.33</ele>
        <time>2025-02-10T22:25:38.008Z</time>
      </trkpt>
      <trkpt lat="58.6265819426626" lon="13.458477929234505">
        <ele>51.35</ele>
        <time>2025-02-10T22:26:19.126Z</time>
      </trkpt>
      <trkpt lat="58.626555958762765" lon="13.45861597917974">
        <ele>51.37</ele>
        <time>2025-02-10T22:27:00.245Z</time>
      </trkpt>
      <trkpt lat="58.626530980691314" lon="13.458752939477563">
        <ele>51.39</ele>
        <time>2025-02-10T22:27:41.365Z</time>
      </trkpt>
      <trkpt lat="58.62650591880083" lon="13.458889983594418">
        <ele>51.42</ele>
        <time>2025-02-10T22:28:22.487Z</time>
      </trkpt>
      <trkpt lat="58.626479934901" lon="13.45902493223548">
        <ele>51.44</ele>
        <time>2025-02-10T22:29:03.610Z</time>
      </trkpt>
      <trkpt lat="58.62645395100117" lon="13.459161976352334">
        <ele>51.45</ele>
        <time>2025-02-10T22:29:44.734Z</time>
      </trkpt>
      <trkpt lat="58.626428972929716" lon="13.459298936650157">
        <ele>51.47</ele>
        <time>2025-02-10T22:30:25.859Z</time>
      </trkpt>
      <trkpt lat="58.626403994858265" lon="13.459435980767012">
        <ele>51.49</ele>
        <time>2025-02-10T22:31:06.985Z</time>
      </trkpt>
      <trkpt lat="58.62637893296778" lon="13.459572941064835">
        <ele>51.5</ele>
        <time>2025-02-10T22:31:48.113Z</time>
      </trkpt>
      <trkpt lat="58.62635496072471" lon="13.45970998518169">
        <ele>51.52</ele>
        <time>2025-02-10T22:32:29.242Z</time>
      </trkpt>
      <trkpt lat="58.62632998265326" lon="13.459844933822751">
        <ele>51.53</ele>
        <time>2025-02-10T22:33:10.372Z</time>
      </trkpt>
      <trkpt lat="58.62630492076278" lon="13.459979966282845">
        <ele>51.55</ele>
        <time>2025-02-10T22:33:51.503Z</time>
      </trkpt>
      <trkpt lat="58.62628094851971" lon="13.460114998742938">
        <ele>51.56</ele>
        <time>2025-02-10T22:34:32.635Z</time>
      </trkpt>
      <trkpt lat="58.626256976276636" lon="13.460249947384">
        <ele>51.58</ele>
        <time>2025-02-10T22:35:13.769Z</time>
      </trkpt>
      <trkpt lat="58.626233926042914" lon="13.460385985672474">
        <ele>51.59</ele>
        <time>2025-02-10T22:35:54.904Z</time>
      </trkpt>
      <trkpt lat="58.626210959628224" lon="13.460522945970297">
        <ele>51.61</ele>
        <time>2025-02-10T22:36:36.040Z</time>
      </trkpt>
      <trkpt lat="58.626187993213534" lon="13.460659990087152">
        <ele>51.62</ele>
        <time>2025-02-10T22:37:17.177Z</time>
      </trkpt>
      <trkpt lat="58.62616393715143" lon="13.460795944556594">
        <ele>51.64</ele>
        <time>2025-02-10T22:37:58.315Z</time>
      </trkpt>
      <trkpt lat="58.62613895907998" lon="13.460931982845068">
        <ele>51.66</ele>
        <time>2025-02-10T22:38:39.455Z</time>
      </trkpt>
      <trkpt lat="58.62611297518015" lon="13.46106793731451">
        <ele>51.68</ele>
        <time>2025-02-10T22:39:20.596Z</time>
      </trkpt>
      <trkpt lat="58.6260879971087" lon="13.461204981431365">
        <ele>51.7</ele>
        <time>2025-02-10T22:40:01.738Z</time>
      </trkpt>
      <trkpt lat="58.626062935218215" lon="13.461341941729188">
        <ele>51.72</ele>
        <time>2025-02-10T22:40:42.881Z</time>
      </trkpt>
      <trkpt lat="58.62603695131838" lon="13.461477980017662">
        <ele>51.73</ele>
        <time>2025-02-10T22:41:24.025Z</time>
      </trkpt>
      <trkpt lat="58.62601197324693" lon="13.461617957800627">
        <ele>51.75</ele>
        <time>2025-02-10T22:42:05.171Z</time>
      </trkpt>
      <trkpt lat="58.62598699517548" lon="13.46175592392683">
        <ele>51.77</ele>
        <time>2025-02-10T22:42:46.318Z</time>
      </trkpt>
      <trkpt lat="58.62596092745662" lon="13.461895985528827">
        <ele>51.79</ele>
        <time>2025-02-10T22:43:27.466Z</time>
      </trkpt>
      <trkpt lat="58.625935949385166" lon="13.46203395165503">
        <ele>51.8</ele>
        <time>2025-02-10T22:44:08.615Z</time>
      </trkpt>
      <trkpt lat="58.625909965485334" lon="13.462172923609614">
        <ele>51.82</ele>
        <time>2025-02-10T22:44:49.766Z</time>
      </trkpt>
      <trkpt lat="58.6258839815855" lon="13.46231097355485">
        <ele>51.84</ele>
        <time>2025-02-10T22:45:30.918Z</time>
      </trkpt>
      <trkpt lat="58.6258599255234" lon="13.462450951337814">
        <ele>51.86</ele>
        <time>2025-02-10T22:46:12.071Z</time>
      </trkpt>
      <trkpt lat="58.62583494745195" lon="13.462590929120779">
        <ele>51.88</ele>
        <time>2025-02-10T22:46:53.225Z</time>
      </trkpt>
      <trkpt lat="58.6258099693805" lon="13.462729984894395">
        <ele>51.9</ele>
        <time>2025-02-10T22:47:34.381Z</time>
      </trkpt>
      <trkpt lat="58.625783985480666" lon="13.462868956848979">
        <ele>51.92</ele>
        <time>2025-02-10T22:48:15.538Z</time>
      </trkpt>
      <trkpt lat="58.625756995752454" lon="13.463007928803563">
        <ele>51.94</ele>
        <time>2025-02-10T22:48:56.696Z</time>
      </trkpt>
      <trkpt lat="58.62573193386197" lon="13.463146984577179">
        <ele>51.97</ele>
        <time>2025-02-10T22:49:37.855Z</time>
      </trkpt>
      <trkpt lat="58.62570695579052" lon="13.463283944875002">
        <ele>51.99</ele>
        <time>2025-02-10T22:50:19.015Z</time>
      </trkpt>
      <trkpt lat="58.62568197771907" lon="13.463422916829586">
        <ele>52.02</ele>
        <time>2025-02-10T22:51:00.177Z</time>
      </trkpt>
      <trkpt lat="58.62565599381924" lon="13.463561972603202">
        <ele>52.04</ele>
        <time>2025-02-10T22:51:41.340Z</time>
      </trkpt>
      <trkpt lat="58.625627998262644" lon="13.463700944557786">
        <ele>52.06</ele>
        <time>2025-02-10T22:52:22.504Z</time>
      </trkpt>
      <trkpt lat="58.6256009247154" lon="13.463838994503021">
        <ele>52.08</ele>
        <time>2025-02-10T22:53:03.669Z</time>
      </trkpt>
      <trkpt lat="58.62557494081557" lon="13.463976960629225">
        <ele>52.1</ele>
        <time>2025-02-10T22:53:44.836Z</time>
      </trkpt>
      <trkpt lat="58.625548956915736" lon="13.464113920927048">
        <ele>52.13</ele>
        <time>2025-02-10T22:54:26.004Z</time>
      </trkpt>
      <trkpt lat="58.62552096135914" lon="13.464249959215522">
        <ele>52.15</ele>
        <time>2025-02-10T22:55:07.173Z</time>
      </trkpt>
      <trkpt lat="58.62549397163093" lon="13.464385997503996">
        <ele>52.17</ele>
        <time>2025-02-10T22:55:48.343Z</time>
      </trkpt>
      <trkpt lat="58.6254679877311" lon="13.464522957801819">
        <ele>52.2</ele>
        <time>2025-02-10T22:56:29.515Z</time>
      </trkpt>
      <trkpt lat="58.625442925840616" lon="13.464658996090293">
        <ele>52.23</ele>
        <time>2025-02-10T22:57:10.688Z</time>
      </trkpt>
      <trkpt lat="58.625416941940784" lon="13.464794950559735">
        <ele>52.26</ele>
        <time>2025-02-10T22:57:51.862Z</time>
      </trkpt>
      <trkpt lat="58.62539095804095" lon="13.46493199467659">
        <ele>52.28</ele>
        <time>2025-02-10T22:58:33.037Z</time>
      </trkpt>
      <trkpt lat="58.6253659799695" lon="13.465068954974413">
        <ele>52.31</ele>
        <time>2025-02-10T22:59:14.213Z</time>
      </trkpt>
      <trkpt lat="58.62534292973578" lon="13.465207926928997">
        <ele>52.33</ele>
        <time>2025-02-10T22:59:55.391Z</time>
      </trkpt>
      <trkpt lat="58.62531795166433" lon="13.465346982702613">
        <ele>52.36</ele>
        <time>2025-02-10T23:00:36.570Z</time>
      </trkpt>
      <trkpt lat="58.6252919677645" lon="13.465485954657197">
        <ele>52.38</ele>
        <time>2025-02-10T23:01:17.750Z</time>
      </trkpt>
      <trkpt lat="58.625266989693046" lon="13.465624926611781">
        <ele>52.41</ele>
        <time>2025-02-10T23:01:58.931Z</time>
      </trkpt>
      <trkpt lat="58.62524092197418" lon="13.465764988213778">
        <ele>52.45</ele>
        <time>2025-02-10T23:02:40.114Z</time>
      </trkpt>
      <trkpt lat="58.62521493807435" lon="13.465903960168362">
        <ele>52.49</ele>
        <time>2025-02-10T23:03:21.298Z</time>
      </trkpt>
      <trkpt lat="58.62518895417452" lon="13.466043937951326">
        <ele>52.53</ele>
        <time>2025-02-10T23:04:02.483Z</time>
      </trkpt>
      <trkpt lat="58.625161964446306" lon="13.466183999553323">
        <ele>52.57</ele>
        <time>2025-02-10T23:04:43.669Z</time>
      </trkpt>
      <trkpt lat="58.625135980546474" lon="13.466323977336287">
        <ele>52.61</ele>
        <time>2025-02-10T23:05:24.856Z</time>
      </trkpt>
      <trkpt lat="58.62510999664664" lon="13.466464960947633">
        <ele>52.65</ele>
        <time>2025-02-10T23:06:06.045Z</time>
      </trkpt>
      <trkpt lat="58.62508493475616" lon="13.466605944558978">
        <ele>52.7</ele>
        <time>2025-02-10T23:06:47.235Z</time>
      </trkpt>
      <trkpt lat="58.62505895085633" lon="13.466745922341943">
        <ele>52.75</ele>
        <time>2025-02-10T23:07:28.426Z</time>
      </trkpt>
      <trkpt lat="58.625032966956496" lon="13.466883972287178">
        <ele>52.78</ele>
        <time>2025-02-10T23:08:09.618Z</time>
      </trkpt>
      <trkpt lat="58.625006983056664" lon="13.467020932585001">
        <ele>52.83</ele>
        <time>2025-02-10T23:08:50.812Z</time>
      </trkpt>
      <trkpt lat="58.62497898750007" lon="13.467156970873475">
        <ele>52.89</ele>
        <time>2025-02-10T23:09:32.007Z</time>
      </trkpt>
      <trkpt lat="58.62495199777186" lon="13.467293931171298">
        <ele>52.94</ele>
        <time>2025-02-10T23:10:13.203Z</time>
      </trkpt>
      <trkpt lat="58.624924924224615" lon="13.467430975288153">
        <ele>52.99</ele>
        <time>2025-02-10T23:10:54.400Z</time>
      </trkpt>
      <trkpt lat="58.6248979344964" lon="13.467567935585976">
        <ele>53.04</ele>
        <time>2025-02-10T23:11:35.599Z</time>
      </trkpt>
      <trkpt lat="58.62487094476819" lon="13.46770397387445">
        <ele>53.09</ele>
        <time>2025-02-10T23:12:16.799Z</time>
      </trkpt>
      <trkpt lat="58.62484395503998" lon="13.467839928343892">
        <ele>53.14</ele>
        <time>2025-02-10T23:12:58.000Z</time>
      </trkpt>
      <trkpt lat="58.624815959483385" lon="13.467973954975605">
        <ele>53.19</ele>
        <time>2025-02-10T23:13:39.202Z</time>
      </trkpt>
      <trkpt lat="58.62478997558355" lon="13.468108987435699">
        <ele>53.25</ele>
        <time>2025-02-10T23:14:20.405Z</time>
      </trkpt>
      <trkpt lat="58.62476198002696" lon="13.46824293024838">
        <ele>53.31</ele>
        <time>2025-02-10T23:15:01.610Z</time>
      </trkpt>
      <trkpt lat="58.62473297864199" lon="13.46837293356657">
        <ele>53.37</ele>
        <time>2025-02-10T23:15:42.816Z</time>
      </trkpt>
      <trkpt lat="58.62470297142863" lon="13.46850193105638">
        <ele>53.43</ele>
        <time>2025-02-10T23:16:24.023Z</time>
      </trkpt>
      <trkpt lat="58.62467397004366" lon="13.46863092854619">
        <ele>53.5</ele>
        <time>2025-02-10T23:17:05.231Z</time>
      </trkpt>
      <trkpt lat="58.624644968658686" lon="13.46875892020762">
        <ele>53.57</ele>
        <time>2025-02-10T23:17:46.440Z</time>
      </trkpt>
      <trkpt lat="58.62461697310209" lon="13.46888699568808">
        <ele>53.63</ele>
        <time>2025-02-10T23:18:27.650Z</time>
      </trkpt>
      <trkpt lat="58.6245889775455" lon="13.46901398152113">
        <ele>53.71</ele>
        <time>2025-02-10T23:19:08.862Z</time>
      </trkpt>
      <trkpt lat="58.624559976160526" lon="13.469138955697417">
        <ele>53.77</ele>
        <time>2025-02-10T23:19:50.075Z</time>
      </trkpt>
      <trkpt lat="58.62453198060393" lon="13.469263929873705">
        <ele>53.84</ele>
        <time>2025-02-10T23:20:31.289Z</time>
      </trkpt>
      <trkpt lat="58.62450398504734" lon="13.469387982040644">
        <ele>53.9</ele>
        <time>2025-02-10T23:21:12.504Z</time>
      </trkpt>
      <trkpt lat="58.62447598949075" lon="13.46951195038855">
        <ele>53.97</ele>
        <time>2025-02-10T23:21:53.720Z</time>
      </trkpt>
      <trkpt lat="58.624448999762535" lon="13.469633990898728">
        <ele>54.04</ele>
        <time>2025-02-10T23:22:34.937Z</time>
      </trkpt>
      <trkpt lat="58.62442092038691" lon="13.469755947589874">
        <ele>54.12</ele>
        <time>2025-02-10T23:23:16.155Z</time>
      </trkpt>
      <trkpt lat="58.62439099699259" lon="13.469877988100052">
        <ele>54.19</ele>
        <time>2025-02-10T23:23:57.375Z</time>
      </trkpt>
      <trkpt lat="58.624360989779234" lon="13.469997933134437">
        <ele>54.27</ele>
        <time>2025-02-10T23:24:38.596Z</time>
      </trkpt>
      <trkpt lat="58.62433198839426" lon="13.470120979472995">
        <ele>54.35</ele>
        <time>2025-02-10T23:25:19.818Z</time>
      </trkpt>
      <trkpt lat="58.62430298700929" lon="13.470243941992521">
        <ele>54.43</ele>
        <time>2025-02-10T23:26:01.041Z</time>
      </trkpt>
      <trkpt lat="58.624274991452694" lon="13.470364976674318">
        <ele>54.52</ele>
        <time>2025-02-10T23:26:42.265Z</time>
      </trkpt>
      <trkpt lat="58.6242469958961" lon="13.470486933365464">
        <ele>54.6</ele>
        <time>2025-02-10T23:27:23.490Z</time>
      </trkpt>
      <trkpt lat="58.62421698868275" lon="13.470608973875642">
        <ele>54.68</ele>
        <time>2025-02-10T23:28:04.716Z</time>
      </trkpt>
      <trkpt lat="58.62418698146939" lon="13.470729924738407">
        <ele>54.77</ele>
        <time>2025-02-10T23:28:45.943Z</time>
      </trkpt>
      <trkpt lat="58.62415798008442" lon="13.470849953591824">
        <ele>54.86</ele>
        <time>2025-02-10T23:29:27.171Z</time>
      </trkpt>
      <trkpt lat="58.624127972871065" lon="13.47096998244524">
        <ele>54.95</ele>
        <time>2025-02-10T23:30:08.401Z</time>
      </trkpt>
      <trkpt lat="58.62409695982933" lon="13.471086993813515">
        <ele>55.04</ele>
        <time>2025-02-10T23:30:49.632Z</time>
      </trkpt>
      <trkpt lat="58.624063935130835" lon="13.471202999353409">
        <ele>55.13</ele>
        <time>2025-02-10T23:31:30.864Z</time>
      </trkpt>
      <trkpt lat="58.6240329220891" lon="13.471320932731032">
        <ele>55.22</ele>
        <time>2025-02-10T23:32:12.097Z</time>
      </trkpt>
      <trkpt lat="58.6240019928664" lon="13.471437944099307">
        <ele>55.31</ele>
        <time>2025-02-10T23:32:53.331Z</time>
      </trkpt>
      <trkpt lat="58.6239689681679" lon="13.471553949639201">
        <ele>55.41</ele>
        <time>2025-02-10T23:33:34.566Z</time>
      </trkpt>
      <trkpt lat="58.623936949297786" lon="13.471667943522334">
        <ele>55.52</ele>
        <time>2025-02-10T23:34:15.802Z</time>
      </trkpt>
      <trkpt lat="58.62390593625605" lon="13.471780931577086">
        <ele>55.61</ele>
        <time>2025-02-10T23:34:57.039Z</time>
      </trkpt>
      <trkpt lat="58.623874923214316" lon="13.471893919631839">
        <ele>55.71</ele>
        <time>2025-02-10T23:35:38.277Z</time>
      </trkpt>
      <trkpt lat="58.62384399399161" lon="13.472004979848862">
        <ele>55.82</ele>
        <time>2025-02-10T23:36:19.516Z</time>
      </trkpt>
      <trkpt lat="58.62381298094988" lon="13.472118973731995">
        <ele>55.92</ele>
        <time>2025-02-10T23:37:00.756Z</time>
      </trkpt>
      <trkpt lat="58.623781967908144" lon="13.472232967615128">
        <ele>56.03</ele>
        <time>2025-02-10T23:37:41.998Z</time>
      </trkpt>
      <trkpt lat="58.62375095486641" lon="13.47234595566988">
        <ele>56.14</ele>
        <time>2025-02-10T23:38:23.241Z</time>
      </trkpt>
      <trkpt lat="58.62371793016791" lon="13.472457937896252">
        <ele>56.25</ele>
        <time>2025-02-10T23:39:04.485Z</time>
      </trkpt>
      <trkpt lat="58.62368398346007" lon="13.472570925951004">
        <ele>56.36</ele>
        <time>2025-02-10T23:39:45.730Z</time>
      </trkpt>
      <trkpt lat="58.62365095876157" lon="13.472681986168027">
        <ele>56.47</ele>
        <time>2025-02-10T23:40:26.976Z</time>
      </trkpt>
      <trkpt lat="58.623615922406316" lon="13.472792962566018">
        <ele>56.58</ele>
        <time>2025-02-10T23:41:08.223Z</time>
      </trkpt>
      <trkpt lat="58.62358096987009" lon="13.472902933135629">
        <ele>56.7</ele>
        <time>2025-02-10T23:41:49.471Z</time>
      </trkpt>
      <trkpt lat="58.623547945171595" lon="13.473014999181032">
        <ele>56.81</ele>
        <time>2025-02-10T23:42:30.720Z</time>
      </trkpt>
      <trkpt lat="58.62351399846375" lon="13.473127987235785">
        <ele>56.93</ele>
        <time>2025-02-10T23:43:11.970Z</time>
      </trkpt>
      <trkpt lat="58.62347996793687" lon="13.473238963633776">
        <ele>57.05</ele>
        <time>2025-02-10T23:43:53.221Z</time>
      </trkpt>
      <trkpt lat="58.62344593741" lon="13.473347928375006">
        <ele>57.16</ele>
        <time>2025-02-10T23:44:34.473Z</time>
      </trkpt>
      <trkpt lat="58.62341199070215" lon="13.473457982763648">
        <ele>57.28</ele>
        <time>2025-02-10T23:45:15.726Z</time>
      </trkpt>
      <trkpt lat="58.623378966003656" lon="13.473566947504878">
        <ele>57.4</ele>
        <time>2025-02-10T23:45:56.980Z</time>
      </trkpt>
      <trkpt lat="58.62334594130516" lon="13.473673984408379">
        <ele>57.51</ele>
        <time>2025-02-10T23:46:38.235Z</time>
      </trkpt>
      <trkpt lat="58.623310988768935" lon="13.473780937492847">
        <ele>57.62</ele>
        <time>2025-02-10T23:47:19.492Z</time>
      </trkpt>
      <trkpt lat="58.62327595241368" lon="13.473888980224729">
        <ele>57.74</ele>
        <time>2025-02-10T23:48:00.750Z</time>
      </trkpt>
      <trkpt lat="58.62323999404907" lon="13.47399895079434">
        <ele>57.86</ele>
        <time>2025-02-10T23:48:42.009Z</time>
      </trkpt>
      <trkpt lat="58.623204957693815" lon="13.474107999354601">
        <ele>57.98</ele>
        <time>2025-02-10T23:49:23.269Z</time>
      </trkpt>
      <trkpt lat="58.62317092716694" lon="13.474216964095831">
        <ele>58.1</ele>
        <time>2025-02-10T23:50:04.530Z</time>
      </trkpt>
      <trkpt lat="58.623138992115855" lon="13.474328946322203">
        <ele>58.22</ele>
        <time>2025-02-10T23:50:45.792Z</time>
      </trkpt>
      <trkpt lat="58.62310596741736" lon="13.474441934376955">
        <ele>58.34</ele>
        <time>2025-02-10T23:51:27.055Z</time>
      </trkpt>
      <trkpt lat="58.62306992523372" lon="13.474551988765597">
        <ele>58.47</ele>
        <time>2025-02-10T23:52:08.319Z</time>
      </trkpt>
      <trkpt lat="58.623031955212355" lon="13.474662965163589">
        <ele>58.59</ele>
        <time>2025-02-10T23:52:49.584Z</time>
      </trkpt>
      <trkpt lat="58.62299297936261" lon="13.474770924076438">
        <ele>58.71</ele>
        <time>2025-02-10T23:53:30.850Z</time>
      </trkpt>
      <trkpt lat="58.62295391969383" lon="13.4748799726367">
        <ele>58.83</ele>
        <time>2025-02-10T23:54:12.117Z</time>
      </trkpt>
      <trkpt lat="58.62291494384408" lon="13.47498893737793">
        <ele>58.95</ele>
        <time>2025-02-10T23:54:53.385Z</time>
      </trkpt>
      <trkpt lat="58.62287596799433" lon="13.475097985938191">
        <ele>59.08</ele>
        <time>2025-02-10T23:55:34.655Z</time>
      </trkpt>
      <trkpt lat="58.622839925810695" lon="13.475214997306466">
        <ele>59.21</ele>
        <time>2025-02-10T23:56:15.926Z</time>
      </trkpt>
      <trkpt lat="58.62280094996095" lon="13.475319938734174">
        <ele>59.33</ele>
        <time>2025-02-10T23:56:57.198Z</time>
      </trkpt>
      <trkpt lat="58.62276297993958" lon="13.475430998951197">
        <ele>59.46</ele>
        <time>2025-02-10T23:57:38.471Z</time>
      </trkpt>
      <trkpt lat="58.62272492609918" lon="13.475538957864046">
        <ele>59.59</ele>
        <time>2025-02-10T23:58:19.745Z</time>
      </trkpt>
      <trkpt lat="58.62268595024943" lon="13.475645994767547">
        <ele>59.72</ele>
        <time>2025-02-10T23:59:01.020Z</time>
      </trkpt>
      <trkpt lat="58.622647980228066" lon="13.475752947852015">
        <ele>59.85</ele>
        <time>2025-02-10T23:59:42.296Z</time>
      </trkpt>
      <trkpt lat="58.62260992638767" lon="13.475861996412277">
        <ele>59.99</ele>
        <time>2025-02-11T00:00:23.573Z</time>
      </trkpt>
      <trkpt lat="58.62257095053792" lon="13.475968949496746">
        <ele>60.11</ele>
        <time>2025-02-11T00:01:04.851Z</time>
      </trkpt>
      <trkpt lat="58.62253197468817" lon="13.476075986400247">
        <ele>60.24</ele>
        <time>2025-02-11T00:01:46.130Z</time>
      </trkpt>
      <trkpt lat="58.622492998838425" lon="13.476184951141477">
        <ele>60.37</ele>
        <time>2025-02-11T00:02:27.411Z</time>
      </trkpt>
      <trkpt lat="58.622454944998026" lon="13.476292993873358">
        <ele>60.51</ele>
        <time>2025-02-11T00:03:08.693Z</time>
      </trkpt>
      <trkpt lat="58.6224149633199" lon="13.476399946957827">
        <ele>60.65</ele>
        <time>2025-02-11T00:03:49.976Z</time>
      </trkpt>
      <trkpt lat="58.62237699329853" lon="13.476506983861327">
        <ele>60.79</ele>
        <time>2025-02-11T00:04:31.260Z</time>
      </trkpt>
      <trkpt lat="58.62233793362975" lon="13.476612931117415">
        <ele>60.92</ele>
        <time>2025-02-11T00:05:12.545Z</time>
      </trkpt>
      <trkpt lat="58.62229895778" lon="13.476720973849297">
        <ele>61.06</ele>
        <time>2025-02-11T00:05:53.831Z</time>
      </trkpt>
      <trkpt lat="58.622258976101875" lon="13.476826921105385">
        <ele>61.2</ele>
        <time>2025-02-11T00:06:35.118Z</time>
      </trkpt>
      <trkpt lat="58.62221899442375" lon="13.476931946352124">
        <ele>61.33</ele>
        <time>2025-02-11T00:07:16.406Z</time>
      </trkpt>
      <trkpt lat="58.62217892892659" lon="13.477037977427244">
        <ele>61.46</ele>
        <time>2025-02-11T00:07:57.695Z</time>
      </trkpt>
      <trkpt lat="58.62213894724846" lon="13.477144930511713">
        <ele>61.59</ele>
        <time>2025-02-11T00:08:38.985Z</time>
      </trkpt>
      <trkpt lat="58.62209896557033" lon="13.477250961586833">
        <ele>61.73</ele>
        <time>2025-02-11T00:09:20.276Z</time>
      </trkpt>
      <trkpt lat="58.62205797806382" lon="13.477356992661953">
        <ele>61.86</ele>
        <time>2025-02-11T00:10:01.569Z</time>
      </trkpt>
      <trkpt lat="58.62201598472893" lon="13.477462939918041">
        <ele>61.98</ele>
        <time>2025-02-11T00:10:42.863Z</time>
      </trkpt>
      <trkpt lat="58.62197399139404" lon="13.477569976821542">
        <ele>62.11</ele>
        <time>2025-02-11T00:11:24.158Z</time>
      </trkpt>
      <trkpt lat="58.62193099223077" lon="13.47767491824925">
        <ele>62.25</ele>
        <time>2025-02-11T00:12:05.454Z</time>
      </trkpt>
      <trkpt lat="58.62188698723912" lon="13.477778937667608">
        <ele>62.37</ele>
        <time>2025-02-11T00:12:46.751Z</time>
      </trkpt>
      <trkpt lat="58.62184499390423" lon="13.477882957085967">
        <ele>62.5</ele>
        <time>2025-02-11T00:13:28.049Z</time>
      </trkpt>
      <trkpt lat="58.62180291675031" lon="13.477986976504326">
        <ele>62.62</ele>
        <time>2025-02-11T00:14:09.348Z</time>
      </trkpt>
      <trkpt lat="58.62176092341542" lon="13.478090995922685">
        <ele>62.74</ele>
        <time>2025-02-11T00:14:50.648Z</time>
      </trkpt>
      <trkpt lat="58.62171893008053" lon="13.478195937350392">
        <ele>62.85</ele>
        <time>2025-02-11T00:15:31.949Z</time>
      </trkpt>
      <trkpt lat="58.6216739192605" lon="13.478300962597132">
        <ele>62.97</ele>
        <time>2025-02-11T00:16:13.252Z</time>
      </trkpt>
      <trkpt lat="58.62162999808788" lon="13.478405987843871">
        <ele>63.09</ele>
        <time>2025-02-11T00:16:54.556Z</time>
      </trkpt>
      <trkpt lat="58.62158498726785" lon="13.478510929271579">
        <ele>63.21</ele>
        <time>2025-02-11T00:17:35.861Z</time>
      </trkpt>
      <trkpt lat="58.62153897061944" lon="13.478615954518318">
        <ele>63.32</ele>
        <time>2025-02-11T00:18:17.167Z</time>
      </trkpt>
      <trkpt lat="58.62149194814265" lon="13.478720979765058">
        <ele>63.43</ele>
        <time>2025-02-11T00:18:58.474Z</time>
      </trkpt>
      <trkpt lat="58.62144693732262" lon="13.478827932849526">
        <ele>63.53</ele>
        <time>2025-02-11T00:19:39.782Z</time>
      </trkpt>
      <trkpt lat="58.62140393815935" lon="13.478935975581408">
        <ele>63.64</ele>
        <time>2025-02-11T00:20:21.091Z</time>
      </trkpt>
      <trkpt lat="58.62136194482446" lon="13.479045946151018">
        <ele>63.75</ele>
        <time>2025-02-11T00:21:02.402Z</time>
      </trkpt>
      <trkpt lat="58.62131793983281" lon="13.479152983054519">
        <ele>63.85</ele>
        <time>2025-02-11T00:21:43.714Z</time>
      </trkpt>
      <trkpt lat="58.621271923184395" lon="13.479258930310607">
        <ele>63.95</ele>
        <time>2025-02-11T00:22:25.027Z</time>
      </trkpt>
      <trkpt lat="58.621223978698254" lon="13.479363955557346">
        <ele>64.05</ele>
        <time>2025-02-11T00:23:06.341Z</time>
      </trkpt>
      <trkpt lat="58.62117595039308" lon="13.479468980804086">
        <ele>64.14</ele>
        <time>2025-02-11T00:23:47.656Z</time>
      </trkpt>
      <trkpt lat="58.62112993374467" lon="13.479574928060174">
        <ele>64.23</ele>
        <time>2025-02-11T00:24:28.972Z</time>
      </trkpt>
      <trkpt lat="58.62108299508691" lon="13.479680959135294">
        <ele>64.32</ele>
        <time>2025-02-11T00:25:10.290Z</time>
      </trkpt>
      <trkpt lat="58.62103798426688" lon="13.479786990210414">
        <ele>64.41</ele>
        <time>2025-02-11T00:25:51.609Z</time>
      </trkpt>
      <trkpt lat="58.620989955961704" lon="13.479892937466502">
        <ele>64.5</ele>
        <time>2025-02-11T00:26:32.929Z</time>
      </trkpt>
      <trkpt lat="58.62094092182815" lon="13.479996956884861">
        <ele>64.58</ele>
        <time>2025-02-11T00:27:14.250Z</time>
      </trkpt>
      <trkpt lat="58.62089197151363" lon="13.48010097630322">
        <ele>64.66</ele>
        <time>2025-02-11T00:27:55.572Z</time>
      </trkpt>
      <trkpt lat="58.620841931551695" lon="13.480204995721579">
        <ele>64.74</ele>
        <time>2025-02-11T00:28:36.895Z</time>
      </trkpt>
      <trkpt lat="58.62079298123717" lon="13.480309937149286">
        <ele>64.81</ele>
        <time>2025-02-11T00:29:18.220Z</time>
      </trkpt>
      <trkpt lat="58.620744952932" lon="13.480416974052787">
        <ele>64.89</ele>
        <time>2025-02-11T00:29:59.546Z</time>
      </trkpt>
      <trkpt lat="58.62069399096072" lon="13.480521999299526">
        <ele>64.96</ele>
        <time>2025-02-11T00:30:40.873Z</time>
      </trkpt>
      <trkpt lat="58.6206429451704" lon="13.480624929070473">
        <ele>65.04</ele>
        <time>2025-02-11T00:31:22.201Z</time>
      </trkpt>
      <trkpt lat="58.62059198319912" lon="13.480727942660451">
        <ele>65.1</ele>
        <time>2025-02-11T00:32:03.530Z</time>
      </trkpt>
      <trkpt lat="58.620539931580424" lon="13.48083095625043">
        <ele>65.16</ele>
        <time>2025-02-11T00:32:44.861Z</time>
      </trkpt>
      <trkpt lat="58.6204909812659" lon="13.480934975668788">
        <ele>65.22</ele>
        <time>2025-02-11T00:33:26.193Z</time>
      </trkpt>
      <trkpt lat="58.62044094130397" lon="13.481037989258766">
        <ele>65.28</ele>
        <time>2025-02-11T00:34:07.526Z</time>
      </trkpt>
      <trkpt lat="58.62039299681783" lon="13.481140919029713">
        <ele>65.33</ele>
        <time>2025-02-11T00:34:48.860Z</time>
      </trkpt>
      <trkpt lat="58.620343962684274" lon="13.48124192096293">
        <ele>65.39</ele>
        <time>2025-02-11T00:35:30.195Z</time>
      </trkpt>
      <trkpt lat="58.62029492855072" lon="13.481339989230037">
        <ele>65.44</ele>
        <time>2025-02-11T00:36:11.531Z</time>
      </trkpt>
      <trkpt lat="58.62024698406458" lon="13.48143596202135">
        <ele>65.48</ele>
        <time>2025-02-11T00:36:52.868Z</time>
      </trkpt>
      <trkpt lat="58.62019996158779" lon="13.481529923155904">
        <ele>65.53</ele>
        <time>2025-02-11T00:37:34.207Z</time>
      </trkpt>
      <trkpt lat="58.620152939110994" lon="13.481622962281108">
        <ele>65.56</ele>
        <time>2025-02-11T00:38:15.547Z</time>
      </trkpt>
      <trkpt lat="58.62010298296809" lon="13.48171398974955">
        <ele>65.6</ele>
        <time>2025-02-11T00:38:56.888Z</time>
      </trkpt>
      <trkpt lat="58.62005495466292" lon="13.481804933398962">
        <ele>65.63</ele>
        <time>2025-02-11T00:39:38.230Z</time>
      </trkpt>
      <trkpt lat="58.620003992691636" lon="13.481893949210644">
        <ele>65.66</ele>
        <time>2025-02-11T00:40:19.573Z</time>
      </trkpt>
      <trkpt lat="58.61995596438646" lon="13.481984976679087">
        <ele>65.69</ele>
        <time>2025-02-11T00:41:00.917Z</time>
      </trkpt>
      <trkpt lat="58.61990592442453" lon="13.482070975005627">
        <ele>65.72</ele>
        <time>2025-02-11T00:41:42.262Z</time>
      </trkpt>
      <trkpt lat="58.61985797993839" lon="13.482156973332167">
        <ele>65.74</ele>
        <time>2025-02-11T00:42:23.608Z</time>
      </trkpt>
      <trkpt lat="58.61981296911836" lon="13.482239954173565">
        <ele>65.77</ele>
        <time>2025-02-11T00:43:04.955Z</time>
      </trkpt>
      <trkpt lat="58.619766952469945" lon="13.482324946671724">
        <ele>65.79</ele>
        <time>2025-02-11T00:43:46.303Z</time>
      </trkpt>
      <trkpt lat="58.61972093582153" lon="13.482408933341503">
        <ele>65.81</ele>
        <time>2025-02-11T00:44:27.652Z</time>
      </trkpt>
      <trkpt lat="58.61967693082988" lon="13.482498954981565">
        <ele>65.83</ele>
        <time>2025-02-11T00:45:09.002Z</time>
      </trkpt>
      <trkpt lat="58.619639966636896" lon="13.482597945258021">
        <ele>65.85</ele>
        <time>2025-02-11T00:45:50.353Z</time>
      </trkpt>
      <trkpt lat="58.619613982737064" lon="13.482708921656013">
        <ele>65.87</ele>
        <time>2025-02-11T00:46:31.705Z</time>
      </trkpt>
      <trkpt lat="58.61960794776678" lon="13.482833979651332">
        <ele>65.89</ele>
        <time>2025-02-11T00:47:13.058Z</time>
      </trkpt>
      <trkpt lat="58.6196209397167" lon="13.482959959656">
        <ele>65.92</ele>
        <time>2025-02-11T00:47:54.412Z</time>
      </trkpt>
      <trkpt lat="58.6196449957788" lon="13.483079988509417">
        <ele>65.94</ele>
        <time>2025-02-11T00:48:35.767Z</time>
      </trkpt>
      <trkpt lat="58.6196759250015" lon="13.483196999877691">
        <ele>65.96</ele>
        <time>2025-02-11T00:49:17.124Z</time>
      </trkpt>
      <trkpt lat="58.61971096135676" lon="13.483310993760824">
        <ele>65.99</ele>
        <time>2025-02-11T00:49:58.482Z</time>
      </trkpt>
      <trkpt lat="58.619748931378126" lon="13.483424987643957">
        <ele>66.01</ele>
        <time>2025-02-11T00:50:39.841Z</time>
      </trkpt>
      <trkpt lat="58.619786985218525" lon="13.483536969870329">
        <ele>66.03</ele>
        <time>2025-02-11T00:51:21.201Z</time>
      </trkpt>
      <trkpt lat="58.61982394941151" lon="13.483644928783178">
        <ele>66.05</ele>
        <time>2025-02-11T00:52:02.562Z</time>
      </trkpt>
      <trkpt lat="58.619854962453246" lon="13.483751965686679">
        <ele>66.06</ele>
        <time>2025-02-11T00:52:43.924Z</time>
      </trkpt>
      <trkpt lat="58.61988899298012" lon="13.483854979276657">
        <ele>66.08</ele>
        <time>2025-02-11T00:53:25.287Z</time>
      </trkpt>
      <trkpt lat="58.619919922202826" lon="13.483956987038255">
        <ele>66.09</ele>
        <time>2025-02-11T00:54:06.651Z</time>
      </trkpt>
      <trkpt lat="58.6199489235878" lon="13.48405497148633">
        <ele>66.1</ele>
        <time>2025-02-11T00:54:48.016Z</time>
      </trkpt>
      <trkpt lat="58.61997691914439" lon="13.484152955934405">
        <ele>66.12</ele>
        <time>2025-02-11T00:55:29.382Z</time>
      </trkpt>
      <trkpt lat="58.620002986863256" lon="13.484252952039242">
        <ele>66.13</ele>
        <time>2025-02-11T00:56:10.749Z</time>
      </trkpt>
      <trkpt lat="58.62002997659147" lon="13.48435596562922">
        <ele>66.14</ele>
        <time>2025-02-11T00:56:52.117Z</time>
      </trkpt>
      <trkpt lat="58.62005897797644" lon="13.484459985047579">
        <ele>66.15</ele>
        <time>2025-02-11T00:57:33.486Z</time>
      </trkpt>
      <trkpt lat="58.620085967704654" lon="13.484568949788809">
        <ele>66.15</ele>
        <time>2025-02-11T00:58:14.856Z</time>
      </trkpt>
      <trkpt lat="58.620110945776105" lon="13.48467892035842">
        <ele>66.16</ele>
        <time>2025-02-11T00:58:56.227Z</time>
      </trkpt>
      <trkpt lat="58.6201389413327" lon="13.484789980575442">
        <ele>66.16</ele>
        <time>2025-02-11T00:59:37.599Z</time>
      </trkpt>
      <trkpt lat="58.62016593106091" lon="13.484902968630195">
        <ele>66.17</ele>
        <time>2025-02-11T01:00:18.972Z</time>
      </trkpt>
      <trkpt lat="58.620194932445884" lon="13.485016962513328">
        <ele>66.17</ele>
        <time>2025-02-11T01:01:00.346Z</time>
      </trkpt>
      <trkpt lat="58.62022292800248" lon="13.485131962224841">
        <ele>66.18</ele>
        <time>2025-02-11T01:01:41.721Z</time>
      </trkpt>
      <trkpt lat="58.62024991773069" lon="13.485247967764735">
        <ele>66.19</ele>
        <time>2025-02-11T01:02:23.097Z</time>
      </trkpt>
      <trkpt lat="58.62027891911566" lon="13.48536598496139">
        <ele>66.2</ele>
        <time>2025-02-11T01:03:04.474Z</time>
      </trkpt>
      <trkpt lat="58.620307920500636" lon="13.485485929995775">
        <ele>66.2</ele>
        <time>2025-02-11T01:03:45.852Z</time>
      </trkpt>
      <trkpt lat="58.62033599987626" lon="13.485606964677572">
        <ele>66.2</ele>
        <time>2025-02-11T01:04:27.231Z</time>
      </trkpt>
      <trkpt lat="58.6203649174422" lon="13.485729927197099">
        <ele>66.2</ele>
        <time>2025-02-11T01:05:08.611Z</time>
      </trkpt>
      <trkpt lat="58.62039299681783" lon="13.485854985192418">
        <ele>66.2</ele>
        <time>2025-02-11T01:05:49.993Z</time>
      </trkpt>
      <trkpt lat="58.62041898071766" lon="13.485979959368706">
        <ele>66.2</ele>
        <time>2025-02-11T01:06:31.376Z</time>
      </trkpt>
      <trkpt lat="58.62044395878911" lon="13.486105939373374">
        <ele>66.2</ele>
        <time>2025-02-11T01:07:12.760Z</time>
      </trkpt>
      <trkpt lat="58.62046793103218" lon="13.486234936863184">
        <ele>66.19</ele>
        <time>2025-02-11T01:07:54.145Z</time>
      </trkpt>
      <trkpt lat="58.62048796378076" lon="13.486365946009755">
        <ele>66.18</ele>
        <time>2025-02-11T01:08:35.531Z</time>
      </trkpt>
      <trkpt lat="58.62050598487258" lon="13.486497960984707">
        <ele>66.18</ele>
        <time>2025-02-11T01:09:16.918Z</time>
      </trkpt>
      <trkpt lat="58.620516965165734" lon="13.48663098178804">
        <ele>66.18</ele>
        <time>2025-02-11T01:09:58.306Z</time>
      </trkpt>
      <trkpt lat="58.62052098847926" lon="13.48676391877234">
        <ele>66.17</ele>
        <time>2025-02-11T01:10:39.696Z</time>
      </trkpt>
      <trkpt lat="58.620517970994115" lon="13.48688998259604">
        <ele>66.17</ele>
        <time>2025-02-11T01:11:21.087Z</time>
      </trkpt>
      <trkpt lat="58.62050799652934" lon="13.487009927630424">
        <ele>66.16</ele>
        <time>2025-02-11T01:12:02.479Z</time>
      </trkpt>
      <trkpt lat="58.620493998751044" lon="13.487120987847447">
        <ele>66.16</ele>
        <time>2025-02-11T01:12:43.872Z</time>
      </trkpt>
      <trkpt lat="58.620475977659225" lon="13.487225929275155">
        <ele>66.16</ele>
        <time>2025-02-11T01:13:25.266Z</time>
      </trkpt>
      <trkpt lat="58.620455944910645" lon="13.487330954521894">
        <ele>66.15</ele>
        <time>2025-02-11T01:14:06.660Z</time>
      </trkpt>
      <trkpt lat="58.620433984324336" lon="13.487432962283492">
        <ele>66.14</ele>
        <time>2025-02-11T01:14:48.055Z</time>
      </trkpt>
      <trkpt lat="58.620410934090614" lon="13.487537987530231">
        <ele>66.14</ele>
        <time>2025-02-11T01:15:29.451Z</time>
      </trkpt>
      <trkpt lat="58.620386961847544" lon="13.4876449406147">
        <ele>66.13</ele>
        <time>2025-02-11T01:16:10.848Z</time>
      </trkpt>
      <trkpt lat="58.62036298960447" lon="13.487754995003343">
        <ele>66.12</ele>
        <time>2025-02-11T01:16:52.246Z</time>
      </trkpt>
      <trkpt lat="58.62033792771399" lon="13.487866977229714">
        <ele>66.11</ele>
        <time>2025-02-11T01:17:33.645Z</time>
      </trkpt>
      <trkpt lat="58.62031294964254" lon="13.487982982769608">
        <ele>66.1</ele>
        <time>2025-02-11T01:18:15.045Z</time>
      </trkpt>
      <trkpt lat="58.62028998322785" lon="13.488101921975613">
        <ele>66.08</ele>
        <time>2025-02-11T01:18:56.446Z</time>
      </trkpt>
      <trkpt lat="58.62026693299413" lon="13.488219939172268">
        <ele>66.07</ele>
        <time>2025-02-11T01:19:37.848Z</time>
      </trkpt>
      <trkpt lat="58.62024899572134" lon="13.488343991339207">
        <ele>66.06</ele>
        <time>2025-02-11T01:20:19.252Z</time>
      </trkpt>
      <trkpt lat="58.6202319804579" lon="13.488466953858733">
        <ele>66.05</ele>
        <time>2025-02-11T01:21:00.657Z</time>
      </trkpt>
      <trkpt lat="58.620216976851225" lon="13.48859192803502">
        <ele>66.04</ele>
        <time>2025-02-11T01:21:42.063Z</time>
      </trkpt>
      <trkpt lat="58.62020398490131" lon="13.48871799185872">
        <ele>66.02</ele>
        <time>2025-02-11T01:22:23.470Z</time>
      </trkpt>
      <trkpt lat="58.6201939266175" lon="13.48884698934853">
        <ele>66.0</ele>
        <time>2025-02-11T01:23:04.878Z</time>
      </trkpt>
      <trkpt lat="58.62018294632435" lon="13.488972969353199">
        <ele>65.99</ele>
        <time>2025-02-11T01:23:46.287Z</time>
      </trkpt>
      <trkpt lat="58.620174983516335" lon="13.489101966843009">
        <ele>65.98</ele>
        <time>2025-02-11T01:24:27.697Z</time>
      </trkpt>
      <trkpt lat="58.62016995437443" lon="13.4892319701612">
        <ele>65.96</ele>
        <time>2025-02-11T01:25:09.108Z</time>
      </trkpt>
      <trkpt lat="58.62016894854605" lon="13.489363985136151">
        <ele>65.94</ele>
        <time>2025-02-11T01:25:50.520Z</time>
      </trkpt>
      <trkpt lat="58.62016995437443" lon="13.489496922120452">
        <ele>65.93</ele>
        <time>2025-02-11T01:26:31.933Z</time>
      </trkpt>
      <trkpt lat="58.620171966031194" lon="13.489630948752165">
        <ele>65.91</ele>
        <time>2025-02-11T01:27:13.347Z</time>
      </trkpt>
      <trkpt lat="58.620175989344716" lon="13.489765981212258">
        <ele>65.9</ele>
        <time>2025-02-11T01:27:54.763Z</time>
      </trkpt>
      <trkpt lat="58.62018093466759" lon="13.489902941510081">
        <ele>65.88</ele>
        <time>2025-02-11T01:28:36.180Z</time>
      </trkpt>
      <trkpt lat="58.62018696963787" lon="13.490038979798555">
        <ele>65.86</ele>
        <time>2025-02-11T01:29:17.598Z</time>
      </trkpt>
      <trkpt lat="58.6201939266175" lon="13.490174934267998">
        <ele>65.83</ele>
        <time>2025-02-11T01:29:59.017Z</time>
      </trkpt>
      <trkpt lat="58.62020297907293" lon="13.49030896089971">
        <ele>65.8</ele>
        <time>2025-02-11T01:30:40.437Z</time>
      </trkpt>
      <trkpt lat="58.6202129535377" lon="13.490443993359804">
        <ele>65.77</ele>
        <time>2025-02-11T01:31:21.858Z</time>
      </trkpt>
      <trkpt lat="58.620220916345716" lon="13.490576930344105">
        <ele>65.73</ele>
        <time>2025-02-11T01:32:03.280Z</time>
      </trkpt>
      <trkpt lat="58.62022896297276" lon="13.490709951147437">
        <ele>65.7</ele>
        <time>2025-02-11T01:32:44.704Z</time>
      </trkpt>
      <trkpt lat="58.620237931609154" lon="13.490845989435911">
        <ele>65.67</ele>
        <time>2025-02-11T01:33:26.129Z</time>
      </trkpt>
      <trkpt lat="58.62024698406458" lon="13.490983955562115">
        <ele>65.63</ele>
        <time>2025-02-11T01:34:07.555Z</time>
      </trkpt>
      <trkpt lat="58.62025494687259" lon="13.49112393334508">
        <ele>65.59</ele>
        <time>2025-02-11T01:34:48.982Z</time>
      </trkpt>
      <trkpt lat="58.62026299349964" lon="13.491260977461934">
        <ele>65.55</ele>
        <time>2025-02-11T01:35:30.410Z</time>
      </trkpt>
      <trkpt lat="58.62026995047927" lon="13.49140296690166">
        <ele>65.51</ele>
        <time>2025-02-11T01:36:11.839Z</time>
      </trkpt>
      <trkpt lat="58.62027296796441" lon="13.491548979654908">
        <ele>65.47</ele>
        <time>2025-02-11T01:36:53.270Z</time>
      </trkpt>
      <trkpt lat="58.62027196213603" lon="13.491696920245886">
        <ele>65.44</ele>
        <time>2025-02-11T01:37:34.702Z</time>
      </trkpt>
      <trkpt lat="58.62026793882251" lon="13.491843938827515">
        <ele>65.4</ele>
        <time>2025-02-11T01:38:16.135Z</time>
      </trkpt>
      <trkpt lat="58.620260981842875" lon="13.491989951580763">
        <ele>65.36</ele>
        <time>2025-02-11T01:38:57.569Z</time>
      </trkpt>
      <trkpt lat="58.62025293521583" lon="13.492136970162392">
        <ele>65.32</ele>
        <time>2025-02-11T01:39:39.005Z</time>
      </trkpt>
      <trkpt lat="58.62024396657944" lon="13.49228298291564">
        <ele>65.27</ele>
        <time>2025-02-11T01:40:20.442Z</time>
      </trkpt>
      <trkpt lat="58.620240949094296" lon="13.492426984012127">
        <ele>65.23</ele>
        <time>2025-02-11T01:41:01.880Z</time>
      </trkpt>
      <trkpt lat="58.62024991773069" lon="13.49256293848157">
        <ele>65.18</ele>
        <time>2025-02-11T01:41:43.319Z</time>
      </trkpt>
      <trkpt lat="58.62026995047927" lon="13.49269193597138">
        <ele>65.14</ele>
        <time>2025-02-11T01:42:24.759Z</time>
      </trkpt>
      <trkpt lat="58.6202959343791" lon="13.492813976481557">
        <ele>65.09</ele>
        <time>2025-02-11T01:43:06.200Z</time>
      </trkpt>
      <trkpt lat="58.620323929935694" lon="13.49292797036469">
        <ele>65.04</ele>
        <time>2025-02-11T01:43:47.642Z</time>
      </trkpt>
      <trkpt lat="58.62035393714905" lon="13.493034923449159">
        <ele>64.99</ele>
        <time>2025-02-11T01:44:29.085Z</time>
      </trkpt>
      <trkpt lat="58.62038495019078" lon="13.493133997544646">
        <ele>64.95</ele>
        <time>2025-02-11T01:45:10.529Z</time>
      </trkpt>
      <trkpt lat="58.62041797488928" lon="13.493225947022438">
        <ele>64.9</ele>
        <time>2025-02-11T01:45:51.974Z</time>
      </trkpt>
      <trkpt lat="58.620454939082265" lon="13.493318986147642">
        <ele>64.85</ele>
        <time>2025-02-11T01:46:33.420Z</time>
      </trkpt>
      <trkpt lat="58.6204909812659" lon="13.493405990302563">
        <ele>64.79</ele>
        <time>2025-02-11T01:47:14.867Z</time>
      </trkpt>
      <trkpt lat="58.62053196877241" lon="13.493484947830439">
        <ele>64.74</ele>
        <time>2025-02-11T01:47:56.315Z</time>
      </trkpt>
      <trkpt lat="58.6205739621073" lon="13.493557954207063">
        <ele>64.68</ele>
        <time>2025-02-11T01:48:37.764Z</time>
      </trkpt>
      <trkpt lat="58.62061696127057" lon="13.493632972240448">
        <ele>64.62</ele>
        <time>2025-02-11T01:49:19.214Z</time>
      </trkpt>
      <trkpt lat="58.62065996043384" lon="13.493709918111563">
        <ele>64.57</ele>
        <time>2025-02-11T01:50:00.665Z</time>
      </trkpt>
      <trkpt lat="58.62070295959711" lon="13.493783930316567">
        <ele>64.51</ele>
        <time>2025-02-11T01:50:42.117Z</time>
      </trkpt>
      <trkpt lat="58.62074595876038" lon="13.493863977491856">
        <ele>64.45</ele>
        <time>2025-02-11T01:51:23.570Z</time>
      </trkpt>
      <trkpt lat="58.62079096958041" lon="13.493944946676493">
        <ele>64.39</ele>
        <time>2025-02-11T01:52:05.024Z</time>
      </trkpt>
      <trkpt lat="58.620836986228824" lon="13.49402692168951">
        <ele>64.32</ele>
        <time>2025-02-11T01:52:46.479Z</time>
      </trkpt>
      <trkpt lat="58.62088794820011" lon="13.49410898052156">
        <ele>64.26</ele>
        <time>2025-02-11T01:53:27.935Z</time>
      </trkpt>
      <trkpt lat="58.62094192765653" lon="13.494190955534577">
        <ele>64.19</ele>
        <time>2025-02-11T01:54:09.392Z</time>
      </trkpt>
      <trkpt lat="58.62099791876972" lon="13.494270918890834">
        <ele>64.11</ele>
        <time>2025-02-11T01:54:50.850Z</time>
      </trkpt>
      <trkpt lat="58.62105994485319" lon="13.494341997429729">
        <ele>64.04</ele>
        <time>2025-02-11T01:55:32.309Z</time>
      </trkpt>
      <trkpt lat="58.62112993374467" lon="13.494399916380644">
        <ele>63.97</ele>
        <time>2025-02-11T01:56:13.769Z</time>
      </trkpt>
      <trkpt lat="58.621203945949674" lon="13.494445933029056">
        <ele>63.89</ele>
        <time>2025-02-11T01:56:55.231Z</time>
      </trkpt>
      <trkpt lat="58.62128097563982" lon="13.494484992697835">
        <ele>63.82</ele>
        <time>2025-02-11T01:57:36.694Z</time>
      </trkpt>
      <trkpt lat="58.621359933167696" lon="13.494510976597667">
        <ele>63.74</ele>
        <time>2025-02-11T01:58:18.158Z</time>
      </trkpt>
      <trkpt lat="58.621441991999745" lon="13.494528997689486">
        <ele>63.66</ele>
        <time>2025-02-11T01:58:59.624Z</time>
      </trkpt>
      <trkpt lat="58.621527990326285" lon="13.494545929133892">
        <ele>63.59</ele>
        <time>2025-02-11T01:59:41.091Z</time>
      </trkpt>
      <trkpt lat="58.6216189339757" lon="13.494564956054091">
        <ele>63.5</ele>
        <time>2025-02-11T02:00:22.559Z</time>
      </trkpt>
      <trkpt lat="58.62171398475766" lon="13.494585994631052">
        <ele>63.42</ele>
        <time>2025-02-11T02:01:04.029Z</time>
      </trkpt>
      <trkpt lat="58.62181297503412" lon="13.494615918025374">
        <ele>63.34</ele>
        <time>2025-02-11T02:01:45.501Z</time>
      </trkpt>
      <trkpt lat="58.621912971138954" lon="13.494653971865773">
        <ele>63.25</ele>
        <time>2025-02-11T02:02:26.974Z</time>
      </trkpt>
      <trkpt lat="58.62201497890055" lon="13.494699988514185">
        <ele>63.16</ele>
        <time>2025-02-11T02:03:08.449Z</time>
      </trkpt>
      <trkpt lat="58.62211698666215" lon="13.494758997112513">
        <ele>63.07</ele>
        <time>2025-02-11T02:03:49.926Z</time>
      </trkpt>
      <trkpt lat="58.62221798859537" lon="13.494831919670105">
        <ele>62.98</ele>
        <time>2025-02-11T02:04:31.404Z</time>
      </trkpt>
      <trkpt lat="58.62231597304344" lon="13.494914984330535">
        <ele>62.89</ele>
        <time>2025-02-11T02:05:12.884Z</time>
      </trkpt>
      <trkpt lat="58.622410940006375" lon="13.495010957121849">
        <ele>62.79</ele>
        <time>2025-02-11T02:05:54.366Z</time>
      </trkpt>
      <trkpt lat="58.62250096164644" lon="13.49511799402535">
        <ele>62.7</ele>
        <time>2025-02-11T02:06:35.850Z</time>
      </trkpt>
      <trkpt lat="58.62258695997298" lon="13.495232993736863">
        <ele>62.61</ele>
        <time>2025-02-11T02:07:17.335Z</time>
      </trkpt>
      <trkpt lat="58.622669940814376" lon="13.49535696208477">
        <ele>62.51</ele>
        <time>2025-02-11T02:07:58.822Z</time>
      </trkpt>
      <trkpt lat="58.62274697050452" lon="13.495489982888103">
        <ele>62.42</ele>
        <time>2025-02-11T02:08:40.311Z</time>
      </trkpt>
      <trkpt lat="58.622818971052766" lon="13.495631972327828">
        <ele>62.33</ele>
        <time>2025-02-11T02:09:21.801Z</time>
      </trkpt>
      <trkpt lat="58.62288694828749" lon="13.495778990909457">
        <ele>62.24</ele>
        <time>2025-02-11T02:10:03.293Z</time>
      </trkpt>
      <trkpt lat="58.62294998019934" lon="13.495926931500435">
        <ele>62.14</ele>
        <time>2025-02-11T02:10:44.786Z</time>
      </trkpt>
      <trkpt lat="58.623007982969284" lon="13.496075961738825">
        <ele>62.05</ele>
        <time>2025-02-11T02:11:26.281Z</time>
      </trkpt>
      <trkpt lat="58.62306296825409" lon="13.496226919814944">
        <ele>61.96</ele>
        <time>2025-02-11T02:12:07.778Z</time>
      </trkpt>
      <trkpt lat="58.62311594188213" lon="13.496380979195237">
        <ele>61.87</ele>
        <time>2025-02-11T02:12:49.276Z</time>
      </trkpt>
      <trkpt lat="58.62316799350083" lon="13.496531937271357">
        <ele>61.78</ele>
        <time>2025-02-11T02:13:30.776Z</time>
      </trkpt>
      <trkpt lat="58.623222978785634" lon="13.496677950024605">
        <ele>61.68</ele>
        <time>2025-02-11T02:14:12.277Z</time>
      </trkpt>
      <trkpt lat="58.62328098155558" lon="13.49681993946433">
        <ele>61.59</ele>
        <time>2025-02-11T02:14:53.780Z</time>
      </trkpt>
      <trkpt lat="58.62334292382002" lon="13.496955977752805">
        <ele>61.49</ele>
        <time>2025-02-11T02:15:35.284Z</time>
      </trkpt>
      <trkpt lat="58.62340595573187" lon="13.497084975242615">
        <ele>61.39</ele>
        <time>2025-02-11T02:16:16.790Z</time>
      </trkpt>
      <trkpt lat="58.62347099930048" lon="13.497204920277">
        <ele>61.3</ele>
        <time>2025-02-11T02:16:58.297Z</time>
      </trkpt>
      <trkpt lat="58.62353595905006" lon="13.497316986322403">
        <ele>61.2</ele>
        <time>2025-02-11T02:17:39.805Z</time>
      </trkpt>
      <trkpt lat="58.62360192462802" lon="13.497422933578491">
        <ele>61.1</ele>
        <time>2025-02-11T02:18:21.315Z</time>
      </trkpt>
      <trkpt lat="58.62366897985339" lon="13.497519996017218">
        <ele>61.01</ele>
        <time>2025-02-11T02:19:02.826Z</time>
      </trkpt>
      <trkpt lat="58.62373695708811" lon="13.497610939666629">
        <ele>60.91</ele>
        <time>2025-02-11T02:19:44.339Z</time>
      </trkpt>
      <trkpt lat="58.623806945979595" lon="13.49769794382155">
        <ele>60.8</ele>
        <time>2025-02-11T02:20:25.853Z</time>
      </trkpt>
      <trkpt lat="58.62387995235622" lon="13.497778996825218">
        <ele>60.7</ele>
        <time>2025-02-11T02:21:07.368Z</time>
      </trkpt>
      <trkpt lat="58.623956982046366" lon="13.497855942696333">
        <ele>60.6</ele>
        <time>2025-02-11T02:21:48.885Z</time>
      </trkpt>
      <trkpt lat="58.62403593957424" lon="13.497925931587815">
        <ele>60.49</ele>
        <time>2025-02-11T02:22:30.403Z</time>
      </trkpt>
      <trkpt lat="58.62411992624402" lon="13.497988963499665">
        <ele>60.38</ele>
        <time>2025-02-11T02:23:11.922Z</time>
      </trkpt>
      <trkpt lat="58.62420491874218" lon="13.498047972097993">
        <ele>60.28</ele>
        <time>2025-02-11T02:23:53.443Z</time>
      </trkpt>
      <trkpt lat="58.62429292872548" lon="13.498100945726037">
        <ele>60.17</ele>
        <time>2025-02-11T02:24:34.965Z</time>
      </trkpt>
      <trkpt lat="58.62438093870878" lon="13.498153919354081">
        <ele>60.07</ele>
        <time>2025-02-11T02:25:16.489Z</time>
      </trkpt>
      <trkpt lat="58.62446894869208" lon="13.498207982629538">
        <ele>59.96</ele>
        <time>2025-02-11T02:25:58.014Z</time>
      </trkpt>
      <trkpt lat="58.624556958675385" lon="13.498267997056246">
        <ele>59.86</ele>
        <time>2025-02-11T02:26:39.541Z</time>
      </trkpt>
      <trkpt lat="58.624644968658686" lon="13.498333962634206">
        <ele>59.76</ele>
        <time>2025-02-11T02:27:21.069Z</time>
      </trkpt>
      <trkpt lat="58.62473297864199" lon="13.498404957354069">
        <ele>59.65</ele>
        <time>2025-02-11T02:28:02.599Z</time>
      </trkpt>
      <trkpt lat="58.624817971140146" lon="13.498482992872596">
        <ele>59.54</ele>
        <time>2025-02-11T02:28:44.130Z</time>
      </trkpt>
      <trkpt lat="58.624901957809925" lon="13.498568991199136">
        <ele>59.43</ele>
        <time>2025-02-11T02:29:25.663Z</time>
      </trkpt>
      <trkpt lat="58.62498192116618" lon="13.49866395816207">
        <ele>59.32</ele>
        <time>2025-02-11T02:30:07.197Z</time>
      </trkpt>
      <trkpt lat="58.62505995668471" lon="13.498760936781764">
        <ele>59.21</ele>
        <time>2025-02-11T02:30:48.733Z</time>
      </trkpt>
      <trkpt lat="58.625134974718094" lon="13.49885992705822">
        <ele>59.1</ele>
        <time>2025-02-11T02:31:30.270Z</time>
      </trkpt>
      <trkpt lat="58.62520798109472" lon="13.498960928991437">
        <ele>58.99</ele>
        <time>2025-02-11T02:32:11.809Z</time>
      </trkpt>
      <trkpt lat="58.62527897581458" lon="13.499063942581415">
        <ele>58.88</ele>
        <time>2025-02-11T02:32:53.349Z</time>
      </trkpt>
      <trkpt lat="58.625352988019586" lon="13.499172991141677">
        <ele>58.78</ele>
        <time>2025-02-11T02:33:34.891Z</time>
      </trkpt>
      <trkpt lat="58.62542691640556" lon="13.499280950054526">
        <ele>58.67</ele>
        <time>2025-02-11T02:34:16.434Z</time>
      </trkpt>
      <trkpt lat="58.62550092861056" lon="13.499390920624137">
        <ele>58.56</ele>
        <time>2025-02-11T02:34:57.979Z</time>
      </trkpt>
      <trkpt lat="58.62557594664395" lon="13.499497957527637">
        <ele>58.45</ele>
        <time>2025-02-11T02:35:39.525Z</time>
      </trkpt>
      <trkpt lat="58.625650964677334" lon="13.499603988602757">
        <ele>58.33</ele>
        <time>2025-02-11T02:36:21.073Z</time>
      </trkpt>
      <trkpt lat="58.62572598271072" lon="13.499708930030465">
        <ele>58.22</ele>
        <time>2025-02-11T02:37:02.622Z</time>
      </trkpt>
      <trkpt lat="58.62580091692507" lon="13.499815966933966">
        <ele>58.11</ele>
        <time>2025-02-11T02:37:44.173Z</time>
      </trkpt>
      <trkpt lat="58.6258739233017" lon="13.499917974695563">
        <ele>58.0</ele>
        <time>2025-02-11T02:38:25.725Z</time>
      </trkpt>
      <trkpt lat="58.62594692967832" lon="13.5000179708004">
        <ele>57.89</ele>
        <time>2025-02-11T02:39:07.279Z</time>
      </trkpt>
      <trkpt lat="58.626017924398184" lon="13.500113943591714">
        <ele>57.77</ele>
        <time>2025-02-11T02:39:48.834Z</time>
      </trkpt>
      <trkpt lat="58.62608699128032" lon="13.50021192803979">
        <ele>57.66</ele>
        <time>2025-02-11T02:40:30.390Z</time>
      </trkpt>
      <trkpt lat="58.62615496851504" lon="13.500310918316245">
        <ele>57.54</ele>
        <time>2025-02-11T02:41:11.948Z</time>
      </trkpt>
      <trkpt lat="58.626220934093" lon="13.500410998240113">
        <ele>57.44</ele>
        <time>2025-02-11T02:41:53.507Z</time>
      </trkpt>
      <trkpt lat="58.62628698348999" lon="13.50051292218268">
        <ele>57.33</ele>
        <time>2025-02-11T02:42:35.067Z</time>
      </trkpt>
      <trkpt lat="58.62635093741119" lon="13.500617947429419">
        <ele>57.22</ele>
        <time>2025-02-11T02:43:16.629Z</time>
      </trkpt>
      <trkpt lat="58.6264159809798" lon="13.500723978504539">
        <ele>57.11</ele>
        <time>2025-02-11T02:43:58.192Z</time>
      </trkpt>
      <trkpt lat="58.62647892907262" lon="13.500829925760627">
        <ele>57.0</ele>
        <time>2025-02-11T02:44:39.757Z</time>
      </trkpt>
      <trkpt lat="58.62653894349933" lon="13.500934951007366">
        <ele>56.89</ele>
        <time>2025-02-11T02:45:21.323Z</time>
      </trkpt>
      <trkpt lat="58.626596946269274" lon="13.501039976254106">
        <ele>56.78</ele>
        <time>2025-02-11T02:46:02.890Z</time>
      </trkpt>
      <trkpt lat="58.62665494903922" lon="13.501139972358942">
        <ele>56.67</ele>
        <time>2025-02-11T02:46:44.458Z</time>
      </trkpt>
      <trkpt lat="58.626709934324026" lon="13.501236950978637">
        <ele>56.57</ele>
        <time>2025-02-11T02:47:26.028Z</time>
      </trkpt>
      <trkpt lat="58.62676491960883" lon="13.50132898427546">
        <ele>56.46</ele>
        <time>2025-02-11T02:48:07.599Z</time>
      </trkpt>
      <trkpt lat="58.62681898288429" lon="13.50141791626811">
        <ele>56.35</ele>
        <time>2025-02-11T02:48:49.171Z</time>
      </trkpt>
      <trkpt lat="58.62687296234071" lon="13.50150198675692">
        <ele>56.24</ele>
        <time>2025-02-11T02:49:30.744Z</time>
      </trkpt>
      <trkpt lat="58.62692593596876" lon="13.501579938456416">
        <ele>56.13</ele>
        <time>2025-02-11T02:50:12.318Z</time>
      </trkpt>
      <trkpt lat="58.62698092125356" lon="13.501649927347898">
        <ele>56.03</ele>
        <time>2025-02-11T02:50:53.893Z</time>
      </trkpt>
      <trkpt lat="58.62703699618578" lon="13.501713965088129">
        <ele>55.92</ele>
        <time>2025-02-11T02:51:35.469Z</time>
      </trkpt>
      <trkpt lat="58.627092987298965" lon="13.501772973686457">
        <ele>55.82</ele>
        <time>2025-02-11T02:52:17.046Z</time>
      </trkpt>
      <trkpt lat="58.62715099006891" lon="13.501828964799643">
        <ele>55.71</ele>
        <time>2025-02-11T02:52:58.624Z</time>
      </trkpt>
      <trkpt lat="58.62720899283886" lon="13.501882944256067">
        <ele>55.61</ele>
        <time>2025-02-11T02:53:40.203Z</time>
      </trkpt>
      <trkpt lat="58.6272709351033" lon="13.501937929540873">
        <ele>55.51</ele>
        <time>2025-02-11T02:54:21.783Z</time>
      </trkpt>
      <trkpt lat="58.62733497284353" lon="13.501994926482439">
        <ele>55.41</ele>
        <time>2025-02-11T02:55:03.364Z</time>
      </trkpt>
      <trkpt lat="58.62740194424987" lon="13.50205997005105">
        <ele>55.31</ele>
        <time>2025-02-11T02:55:44.947Z</time>
      </trkpt>
      <trkpt lat="58.62747092731297" lon="13.502130964770913">
        <ele>55.21</ele>
        <time>2025-02-11T02:56:26.531Z</time>
      </trkpt>
      <trkpt lat="58.62754091620445" lon="13.502204976975918">
        <ele>55.11</ele>
        <time>2025-02-11T02:57:08.116Z</time>
      </trkpt>
      <trkpt lat="58.627609983086586" lon="13.502283934503794">
        <ele>55.01</ele>
        <time>2025-02-11T02:57:49.703Z</time>
      </trkpt>
      <trkpt lat="58.62768097780645" lon="13.502371944487095">
        <ele>54.92</ele>
        <time>2025-02-11T02:58:31.291Z</time>
      </trkpt>
      <trkpt lat="58.62775197252631" lon="13.502463977783918">
        <ele>54.82</ele>
        <time>2025-02-11T02:59:12.880Z</time>
      </trkpt>
      <trkpt lat="58.627823973074555" lon="13.502560956403613">
        <ele>54.72</ele>
        <time>2025-02-11T02:59:54.471Z</time>
      </trkpt>
      <trkpt lat="58.62789396196604" lon="13.50266095250845">
        <ele>54.63</ele>
        <time>2025-02-11T03:00:36.063Z</time>
      </trkpt>
      <trkpt lat="58.62796596251428" lon="13.502765977755189">
        <ele>54.53</ele>
        <time>2025-02-11T03:01:17.657Z</time>
      </trkpt>
      <trkpt lat="58.628037963062525" lon="13.502866979688406">
        <ele>54.44</ele>
        <time>2025-02-11T03:01:59.252Z</time>
      </trkpt>
      <trkpt lat="58.62810895778239" lon="13.502971921116114">
        <ele>54.35</ele>
        <time>2025-02-11T03:02:40.848Z</time>
      </trkpt>
      <trkpt lat="58.62817894667387" lon="13.503077952191234">
        <ele>54.26</ele>
        <time>2025-02-11T03:03:22.446Z</time>
      </trkpt>
      <trkpt lat="58.62824792973697" lon="13.503182977437973">
        <ele>54.17</ele>
        <time>2025-02-11T03:04:04.045Z</time>
      </trkpt>
      <trkpt lat="58.628317918628454" lon="13.503285991027951">
        <ele>54.08</ele>
        <time>2025-02-11T03:04:45.646Z</time>
      </trkpt>
      <trkpt lat="58.6283899191767" lon="13.503384981304407">
        <ele>53.99</ele>
        <time>2025-02-11T03:05:27.248Z</time>
      </trkpt>
      <trkpt lat="58.62846191972494" lon="13.503482965752482">
        <ele>53.91</ele>
        <time>2025-02-11T03:06:08.851Z</time>
      </trkpt>
      <trkpt lat="58.628534926101565" lon="13.503576926887035">
        <ele>53.83</ele>
        <time>2025-02-11T03:06:50.456Z</time>
      </trkpt>
      <trkpt lat="58.62860893830657" lon="13.503667954355478">
        <ele>53.75</ele>
        <time>2025-02-11T03:07:32.062Z</time>
      </trkpt>
      <trkpt lat="58.628683956339955" lon="13.50375797599554">
        <ele>53.67</ele>
        <time>2025-02-11T03:08:13.670Z</time>
      </trkpt>
      <trkpt lat="58.62875998020172" lon="13.50384397432208">
        <ele>53.59</ele>
        <time>2025-02-11T03:08:55.279Z</time>
      </trkpt>
      <trkpt lat="58.628835920244455" lon="13.503933995962143">
        <ele>53.51</ele>
        <time>2025-02-11T03:09:36.890Z</time>
      </trkpt>
      <trkpt lat="58.62891093827784" lon="13.504024939611554">
        <ele>53.43</ele>
        <time>2025-02-11T03:10:18.502Z</time>
      </trkpt>
      <trkpt lat="58.628985956311226" lon="13.504121918231249">
        <ele>53.35</ele>
        <time>2025-02-11T03:11:00.115Z</time>
      </trkpt>
      <trkpt lat="58.62905795685947" lon="13.504227949306369">
        <ele>53.28</ele>
        <time>2025-02-11T03:11:41.730Z</time>
      </trkpt>
      <trkpt lat="58.62912794575095" lon="13.504340937361121">
        <ele>53.2</ele>
        <time>2025-02-11T03:12:23.346Z</time>
      </trkpt>
      <trkpt lat="58.62919592298567" lon="13.504457948729396">
        <ele>53.13</ele>
        <time>2025-02-11T03:13:04.964Z</time>
      </trkpt>
      <trkpt lat="58.629261972382665" lon="13.504580995067954">
        <ele>53.05</ele>
        <time>2025-02-11T03:13:46.583Z</time>
      </trkpt>
      <trkpt lat="58.629326932132244" lon="13.504704963415861">
        <ele>52.98</ele>
        <time>2025-02-11T03:14:28.204Z</time>
      </trkpt>
      <trkpt lat="58.62938895821571" lon="13.50483194924891">
        <ele>52.92</ele>
        <time>2025-02-11T03:15:09.826Z</time>
      </trkpt>
      <trkpt lat="58.6294499784708" lon="13.50495994091034">
        <ele>52.86</ele>
        <time>2025-02-11T03:15:51.450Z</time>
      </trkpt>
      <trkpt lat="58.62950898706913" lon="13.50508994422853">
        <ele>52.8</ele>
        <time>2025-02-11T03:16:33.075Z</time>
      </trkpt>
      <trkpt lat="58.62956698983908" lon="13.505221959203482">
        <ele>52.73</ele>
        <time>2025-02-11T03:17:14.702Z</time>
      </trkpt>
      <trkpt lat="58.62962298095226" lon="13.505354980006814">
        <ele>52.67</ele>
        <time>2025-02-11T03:17:56.330Z</time>
      </trkpt>
      <trkpt lat="58.62967796623707" lon="13.505489928647876">
        <ele>52.61</ele>
        <time>2025-02-11T03:18:37.959Z</time>
      </trkpt>
      <trkpt lat="58.62973194569349" lon="13.50562496110797">
        <ele>52.56</ele>
        <time>2025-02-11T03:19:19.590Z</time>
      </trkpt>
      <trkpt lat="58.62978399731219" lon="13.505761921405792">
        <ele>52.51</ele>
        <time>2025-02-11T03:20:01.222Z</time>
      </trkpt>
      <trkpt lat="58.62983395345509" lon="13.505898965522647">
        <ele>52.46</ele>
        <time>2025-02-11T03:20:42.856Z</time>
      </trkpt>
      <trkpt lat="58.62988198176026" lon="13.506037937477231">
        <ele>52.42</ele>
        <time>2025-02-11T03:21:24.491Z</time>
      </trkpt>
      <trkpt lat="58.629926992580295" lon="13.506176993250847">
        <ele>52.38</ele>
        <time>2025-02-11T03:22:06.127Z</time>
      </trkpt>
      <trkpt lat="58.629970997571945" lon="13.506315965205431">
        <ele>52.34</ele>
        <time>2025-02-11T03:22:47.765Z</time>
      </trkpt>
      <trkpt lat="58.630012990906835" lon="13.506454937160015">
        <ele>52.31</ele>
        <time>2025-02-11T03:23:29.404Z</time>
      </trkpt>
      <trkpt lat="58.63005397841334" lon="13.506594998762012">
        <ele>52.27</ele>
        <time>2025-02-11T03:24:11.044Z</time>
      </trkpt>
      <trkpt lat="58.63009194843471" lon="13.506736988201737">
        <ele>52.23</ele>
        <time>2025-02-11T03:24:52.686Z</time>
      </trkpt>
      <trkpt lat="58.63012799061835" lon="13.506879983469844">
        <ele>52.2</ele>
        <time>2025-02-11T03:25:34.329Z</time>
      </trkpt>
      <trkpt lat="58.63016193732619" lon="13.50702197290957">
        <ele>52.18</ele>
        <time>2025-02-11T03:26:15.973Z</time>
      </trkpt>
      <trkpt lat="58.63019496202469" lon="13.507162956520915">
        <ele>52.15</ele>
        <time>2025-02-11T03:26:57.619Z</time>
      </trkpt>
      <trkpt lat="58.630227986723185" lon="13.50730293430388">
        <ele>52.13</ele>
        <time>2025-02-11T03:27:39.266Z</time>
      </trkpt>
      <trkpt lat="58.63025899976492" lon="13.507442995905876">
        <ele>52.11</ele>
        <time>2025-02-11T03:28:20.914Z</time>
      </trkpt>
      <trkpt lat="58.63028791733086" lon="13.507583979517221">
        <ele>52.09</ele>
        <time>2025-02-11T03:29:02.564Z</time>
      </trkpt>
      <trkpt lat="58.630314990878105" lon="13.507725968956947">
        <ele>52.07</ele>
        <time>2025-02-11T03:29:44.215Z</time>
      </trkpt>
      <trkpt lat="58.63034198060632" lon="13.507869970053434">
        <ele>52.05</ele>
        <time>2025-02-11T03:30:25.867Z</time>
      </trkpt>
      <trkpt lat="58.63036695867777" lon="13.50801296532154">
        <ele>52.04</ele>
        <time>2025-02-11T03:31:07.520Z</time>
      </trkpt>
      <trkpt lat="58.63039093092084" lon="13.508156966418028">
        <ele>52.02</ele>
        <time>2025-02-11T03:31:49.175Z</time>
      </trkpt>
      <trkpt lat="58.6304119694978" lon="13.508301973342896">
        <ele>52.01</ele>
        <time>2025-02-11T03:32:30.831Z</time>
      </trkpt>
      <trkpt lat="58.63043292425573" lon="13.508446980267763">
        <ele>52.0</ele>
        <time>2025-02-11T03:33:12.488Z</time>
      </trkpt>
      <trkpt lat="58.63045295700431" lon="13.50859198719263">
        <ele>52.0</ele>
        <time>2025-02-11T03:33:54.146Z</time>
      </trkpt>
      <trkpt lat="58.63047097809613" lon="13.508736994117498">
        <ele>51.99</ele>
        <time>2025-02-11T03:34:35.806Z</time>
      </trkpt>
      <trkpt lat="58.630488999187946" lon="13.508879989385605">
        <ele>51.99</ele>
        <time>2025-02-11T03:35:17.467Z</time>
      </trkpt>
      <trkpt lat="58.63050492480397" lon="13.509023990482092">
        <ele>51.99</ele>
        <time>2025-02-11T03:35:59.129Z</time>
      </trkpt>
      <trkpt lat="58.63051992841065" lon="13.509165979921818">
        <ele>52.0</ele>
        <time>2025-02-11T03:36:40.792Z</time>
      </trkpt>
      <trkpt lat="58.630533926188946" lon="13.509307969361544">
        <ele>52.01</ele>
        <time>2025-02-11T03:37:22.457Z</time>
      </trkpt>
      <trkpt lat="58.63054691813886" lon="13.509448952972889">
        <ele>52.02</ele>
        <time>2025-02-11T03:38:04.123Z</time>
      </trkpt>
      <trkpt lat="58.63055898807943" lon="13.509589936584234">
        <ele>52.03</ele>
        <time>2025-02-11T03:38:45.790Z</time>
      </trkpt>
      <trkpt lat="58.630571980029345" lon="13.50972899235785">
        <ele>52.04</ele>
        <time>2025-02-11T03:39:27.458Z</time>
      </trkpt>
      <trkpt lat="58.63058396615088" lon="13.509864946827292">
        <ele>52.06</ele>
        <time>2025-02-11T03:40:09.127Z</time>
      </trkpt>
      <trkpt lat="58.630595952272415" lon="13.509999979287386">
        <ele>52.07</ele>
        <time>2025-02-11T03:40:50.797Z</time>
      </trkpt>
      <trkpt lat="58.63060693256557" lon="13.510135933756828">
        <ele>52.09</ele>
        <time>2025-02-11T03:41:32.469Z</time>
      </trkpt>
      <trkpt lat="58.630617996677756" lon="13.510270966216922">
        <ele>52.11</ele>
        <time>2025-02-11T03:42:14.142Z</time>
      </trkpt>
      <trkpt lat="58.63062797114253" lon="13.510406920686364">
        <ele>52.14</ele>
        <time>2025-02-11T03:42:55.816Z</time>
      </trkpt>
      <trkpt lat="58.630638951435685" lon="13.51054597645998">
        <ele>52.17</ele>
        <time>2025-02-11T03:43:37.491Z</time>
      </trkpt>
      <trkpt lat="58.63064993172884" lon="13.510682936757803">
        <ele>52.19</ele>
        <time>2025-02-11T03:44:19.167Z</time>
      </trkpt>
      <trkpt lat="58.630662923678756" lon="13.510818975046277">
        <ele>52.22</ele>
        <time>2025-02-11T03:45:00.844Z</time>
      </trkpt>
      <trkpt lat="58.6306759994477" lon="13.510953923687339">
        <ele>52.25</ele>
        <time>2025-02-11T03:45:42.522Z</time>
      </trkpt>
      <trkpt lat="58.63068697974086" lon="13.511089961975813">
        <ele>52.29</ele>
        <time>2025-02-11T03:46:24.202Z</time>
      </trkpt>
      <trkpt lat="58.63069695420563" lon="13.511227928102016">
        <ele>52.32</ele>
        <time>2025-02-11T03:47:05.883Z</time>
      </trkpt>
      <trkpt lat="58.630706928670406" lon="13.511367989704013">
        <ele>52.36</ele>
        <time>2025-02-11T03:47:47.565Z</time>
      </trkpt>
      <trkpt lat="58.63071799278259" lon="13.511507967486978">
        <ele>52.4</ele>
        <time>2025-02-11T03:48:29.248Z</time>
      </trkpt>
      <trkpt lat="58.63072997890413" lon="13.511648951098323">
        <ele>52.45</ele>
        <time>2025-02-11T03:49:10.932Z</time>
      </trkpt>
      <trkpt lat="58.63074095919728" lon="13.511789934709668">
        <ele>52.49</ele>
        <time>2025-02-11T03:49:52.618Z</time>
      </trkpt>
      <trkpt lat="58.63075294531882" lon="13.511932929977775">
        <ele>52.53</ele>
        <time>2025-02-11T03:50:34.305Z</time>
      </trkpt>
      <trkpt lat="58.630765937268734" lon="13.5120749194175">
        <ele>52.58</ele>
        <time>2025-02-11T03:51:15.993Z</time>
      </trkpt>
      <trkpt lat="58.63077892921865" lon="13.512218920513988">
        <ele>52.63</ele>
        <time>2025-02-11T03:51:57.682Z</time>
      </trkpt>
      <trkpt lat="58.630792926996946" lon="13.512362921610475">
        <ele>52.67</ele>
        <time>2025-02-11T03:52:39.372Z</time>
      </trkpt>
      <trkpt lat="58.63080591894686" lon="13.512506922706962">
        <ele>52.72</ele>
        <time>2025-02-11T03:53:21.064Z</time>
      </trkpt>
      <trkpt lat="58.63081698305905" lon="13.512649917975068">
        <ele>52.78</ele>
        <time>2025-02-11T03:54:02.757Z</time>
      </trkpt>
      <trkpt lat="58.6308279633522" lon="13.512790985405445">
        <ele>52.83</ele>
        <time>2025-02-11T03:54:44.451Z</time>
      </trkpt>
      <trkpt lat="58.63083894364536" lon="13.51293196901679">
        <ele>52.89</ele>
        <time>2025-02-11T03:55:26.146Z</time>
      </trkpt>
      <trkpt lat="58.63085092976689" lon="13.513073958456516">
        <ele>52.96</ele>
        <time>2025-02-11T03:56:07.842Z</time>
      </trkpt>
      <trkpt lat="58.63086299970746" lon="13.513215947896242">
        <ele>53.02</ele>
        <time>2025-02-11T03:56:49.540Z</time>
      </trkpt>
      <trkpt lat="58.630873980000615" lon="13.513355925679207">
        <ele>53.08</ele>
        <time>2025-02-11T03:57:31.239Z</time>
      </trkpt>
      <trkpt lat="58.63088496029377" lon="13.513497998937964">
        <ele>53.14</ele>
        <time>2025-02-11T03:58:12.939Z</time>
      </trkpt>
      <trkpt lat="58.630895940586925" lon="13.513636970892549">
        <ele>53.21</ele>
        <time>2025-02-11T03:58:54.640Z</time>
      </trkpt>
      <trkpt lat="58.63090692088008" lon="13.513770997524261">
        <ele>53.28</ele>
        <time>2025-02-11T03:59:36.342Z</time>
      </trkpt>
      <trkpt lat="58.630918990820646" lon="13.513906951993704">
        <ele>53.36</ele>
        <time>2025-02-11T04:00:18.046Z</time>
      </trkpt>
      <trkpt lat="58.6309299711138" lon="13.514042990282178">
        <ele>53.43</ele>
        <time>2025-02-11T04:00:59.751Z</time>
      </trkpt>
      <trkpt lat="58.630938939750195" lon="13.514175927266479">
        <ele>53.5</ele>
        <time>2025-02-11T04:01:41.457Z</time>
      </trkpt>
      <trkpt lat="58.63095193170011" lon="13.514313977211714">
        <ele>53.57</ele>
        <time>2025-02-11T04:02:23.164Z</time>
      </trkpt>
      <trkpt lat="58.63096693530679" lon="13.514448925852776">
        <ele>53.64</ele>
        <time>2025-02-11T04:03:04.872Z</time>
      </trkpt>
      <trkpt lat="58.6309799272567" lon="13.514581946656108">
        <ele>53.71</ele>
        <time>2025-02-11T04:03:46.581Z</time>
      </trkpt>
      <trkpt lat="58.63099291920662" lon="13.51471496745944">
        <ele>53.79</ele>
        <time>2025-02-11T04:04:28.291Z</time>
      </trkpt>
      <trkpt lat="58.631007922813296" lon="13.514851927757263">
        <ele>53.87</ele>
        <time>2025-02-11T04:05:10.003Z</time>
      </trkpt>
      <trkpt lat="58.63102192059159" lon="13.51499299518764">
        <ele>53.95</ele>
        <time>2025-02-11T04:05:51.716Z</time>
      </trkpt>
      <trkpt lat="58.63103692419827" lon="13.515130961313844">
        <ele>54.02</ele>
        <time>2025-02-11T04:06:33.430Z</time>
      </trkpt>
      <trkpt lat="58.63104999996722" lon="13.51527295075357">
        <ele>54.1</ele>
        <time>2025-02-11T04:07:15.145Z</time>
      </trkpt>
      <trkpt lat="58.63106299191713" lon="13.515412928536534">
        <ele>54.18</ele>
        <time>2025-02-11T04:07:56.861Z</time>
      </trkpt>
      <trkpt lat="58.63107698969543" lon="13.515553995966911">
        <ele>54.26</ele>
        <time>2025-02-11T04:08:38.579Z</time>
      </trkpt>
      <trkpt lat="58.631087969988585" lon="13.515696991235018">
        <ele>54.35</ele>
        <time>2025-02-11T04:09:20.298Z</time>
      </trkpt>
      <trkpt lat="58.6310959327966" lon="13.51583395153284">
        <ele>54.43</ele>
        <time>2025-02-11T04:10:02.018Z</time>
      </trkpt>
      <trkpt lat="58.6311059910804" lon="13.515971917659044">
        <ele>54.51</ele>
        <time>2025-02-11T04:10:43.739Z</time>
      </trkpt>
      <trkpt lat="58.63111797720194" lon="13.51611097343266">
        <ele>54.59</ele>
        <time>2025-02-11T04:11:25.461Z</time>
      </trkpt>
      <trkpt lat="58.631130969151855" lon="13.516251957044005">
        <ele>54.68</ele>
        <time>2025-02-11T04:12:07.184Z</time>
      </trkpt>
      <trkpt lat="58.63114396110177" lon="13.516396963968873">
        <ele>54.77</ele>
        <time>2025-02-11T04:12:48.909Z</time>
      </trkpt>
      <trkpt lat="58.631156953051686" lon="13.51653995923698">
        <ele>54.86</ele>
        <time>2025-02-11T04:13:30.635Z</time>
      </trkpt>
      <trkpt lat="58.63116893917322" lon="13.516682954505086">
        <ele>54.95</ele>
        <time>2025-02-11T04:14:12.362Z</time>
      </trkpt>
      <trkpt lat="58.63118092529476" lon="13.516824943944812">
        <ele>55.04</ele>
        <time>2025-02-11T04:14:54.090Z</time>
      </trkpt>
      <trkpt lat="58.63119391724467" lon="13.516967939212918">
        <ele>55.14</ele>
        <time>2025-02-11T04:15:35.819Z</time>
      </trkpt>
      <trkpt lat="58.63120598718524" lon="13.517109928652644">
        <ele>55.23</ele>
        <time>2025-02-11T04:16:17.550Z</time>
      </trkpt>
      <trkpt lat="58.631217973306775" lon="13.51724999025464">
        <ele>55.33</ele>
        <time>2025-02-11T04:16:59.282Z</time>
      </trkpt>
      <trkpt lat="58.63123096525669" lon="13.517391979694366">
        <ele>55.42</ele>
        <time>2025-02-11T04:17:41.015Z</time>
      </trkpt>
      <trkpt lat="58.631240939721465" lon="13.517532963305712">
        <ele>55.52</ele>
        <time>2025-02-11T04:18:22.749Z</time>
      </trkpt>
      <trkpt lat="58.631252925843" lon="13.517673946917057">
        <ele>55.62</ele>
        <time>2025-02-11T04:19:04.484Z</time>
      </trkpt>
      <trkpt lat="58.63126499578357" lon="13.517813924700022">
        <ele>55.72</ele>
        <time>2025-02-11T04:19:46.221Z</time>
      </trkpt>
      <trkpt lat="58.63127798773348" lon="13.517952980473638">
        <ele>55.82</ele>
        <time>2025-02-11T04:20:27.959Z</time>
      </trkpt>
      <trkpt lat="58.63128997385502" lon="13.518092958256602">
        <ele>55.92</ele>
        <time>2025-02-11T04:21:09.698Z</time>
      </trkpt>
      <trkpt lat="58.631302965804935" lon="13.518233941867948">
        <ele>56.02</ele>
        <time>2025-02-11T04:21:51.438Z</time>
      </trkpt>
      <trkpt lat="58.63131495192647" lon="13.518373919650912">
        <ele>56.13</ele>
        <time>2025-02-11T04:22:33.179Z</time>
      </trkpt>
      <trkpt lat="58.631328949704766" lon="13.51851599290967">
        <ele>56.23</ele>
        <time>2025-02-11T04:23:14.922Z</time>
      </trkpt>
      <trkpt lat="58.63133992999792" lon="13.518655970692635">
        <ele>56.33</ele>
        <time>2025-02-11T04:23:56.666Z</time>
      </trkpt>
      <trkpt lat="58.63135392777622" lon="13.51879695430398">
        <ele>56.44</ele>
        <time>2025-02-11T04:24:38.411Z</time>
      </trkpt>
      <trkpt lat="58.63136298023164" lon="13.518931986764073">
        <ele>56.55</ele>
        <time>2025-02-11T04:25:20.157Z</time>
      </trkpt>
      <trkpt lat="58.63137295469642" lon="13.519064923748374">
        <ele>56.66</ele>
        <time>2025-02-11T04:26:01.904Z</time>
      </trkpt>
      <trkpt lat="58.63137999549508" lon="13.519195932894945">
        <ele>56.77</ele>
        <time>2025-02-11T04:26:43.652Z</time>
      </trkpt>
      <trkpt lat="58.63138695247471" lon="13.519327947869897">
        <ele>56.88</ele>
        <time>2025-02-11T04:27:25.401Z</time>
      </trkpt>
      <trkpt lat="58.63139399327338" lon="13.51946197450161">
        <ele>56.98</ele>
        <time>2025-02-11T04:28:07.152Z</time>
      </trkpt>
      <trkpt lat="58.63140095025301" lon="13.519599940627813">
        <ele>57.09</ele>
        <time>2025-02-11T04:28:48.904Z</time>
      </trkpt>
      <trkpt lat="58.631410924717784" lon="13.519737990573049">
        <ele>57.19</ele>
        <time>2025-02-11T04:29:30.657Z</time>
      </trkpt>
      <trkpt lat="58.63141997717321" lon="13.519878974184394">
        <ele>57.3</ele>
        <time>2025-02-11T04:30:12.411Z</time>
      </trkpt>
      <trkpt lat="58.631431963294744" lon="13.52002096362412">
        <ele>57.4</ele>
        <time>2025-02-11T04:30:54.166Z</time>
      </trkpt>
      <trkpt lat="58.6314429435879" lon="13.520161947235465">
        <ele>57.5</ele>
        <time>2025-02-11T04:31:35.923Z</time>
      </trkpt>
      <trkpt lat="58.631450990214944" lon="13.52030192501843">
        <ele>57.6</ele>
        <time>2025-02-11T04:32:17.681Z</time>
      </trkpt>
      <trkpt lat="58.63145995885134" lon="13.520441986620426">
        <ele>57.71</ele>
        <time>2025-02-11T04:32:59.440Z</time>
      </trkpt>
      <trkpt lat="58.63146699965" lon="13.52057995274663">
        <ele>57.81</ele>
        <time>2025-02-11T04:33:41.200Z</time>
      </trkpt>
      <trkpt lat="58.631477979943156" lon="13.520718924701214">
        <ele>57.91</ele>
        <time>2025-02-11T04:34:22.961Z</time>
      </trkpt>
      <trkpt lat="58.63149097189307" lon="13.52085798047483">
        <ele>58.01</ele>
        <time>2025-02-11T04:35:04.723Z</time>
      </trkpt>
      <trkpt lat="58.63150496967137" lon="13.520993934944272">
        <ele>58.11</ele>
        <time>2025-02-11T04:35:46.487Z</time>
      </trkpt>
      <trkpt lat="58.63152399659157" lon="13.521126955747604">
        <ele>58.22</ele>
        <time>2025-02-11T04:36:28.252Z</time>
      </trkpt>
      <trkpt lat="58.63154595717788" lon="13.521256959065795">
        <ele>58.33</ele>
        <time>2025-02-11T04:37:10.018Z</time>
      </trkpt>
      <trkpt lat="58.63156992942095" lon="13.521379921585321">
        <ele>58.43</ele>
        <time>2025-02-11T04:37:51.785Z</time>
      </trkpt>
      <trkpt lat="58.63159691914916" lon="13.521500956267118">
        <ele>58.54</ele>
        <time>2025-02-11T04:38:33.553Z</time>
      </trkpt>
      <trkpt lat="58.631622986868024" lon="13.521618973463774">
        <ele>58.64</ele>
        <time>2025-02-11T04:39:15.322Z</time>
      </trkpt>
      <trkpt lat="58.63165299408138" lon="13.521736990660429">
        <ele>58.75</ele>
        <time>2025-02-11T04:39:57.092Z</time>
      </trkpt>
      <trkpt lat="58.63168492913246" lon="13.521851990371943">
        <ele>58.86</ele>
        <time>2025-02-11T04:40:38.863Z</time>
      </trkpt>
      <trkpt lat="58.63171795383096" lon="13.521961960941553">
        <ele>58.97</ele>
        <time>2025-02-11T04:41:20.635Z</time>
      </trkpt>
      <trkpt lat="58.631755923852324" lon="13.522075954824686">
        <ele>59.07</ele>
        <time>2025-02-11T04:42:02.409Z</time>
      </trkpt>
      <trkpt lat="58.631796995177865" lon="13.5221909545362">
        <ele>59.18</ele>
        <time>2025-02-11T04:42:44.184Z</time>
      </trkpt>
      <trkpt lat="58.631838988512754" lon="13.522309977561235">
        <ele>59.29</ele>
        <time>2025-02-11T04:43:25.960Z</time>
      </trkpt>
      <trkpt lat="58.631880981847644" lon="13.52242698892951">
        <ele>59.39</ele>
        <time>2025-02-11T04:44:07.737Z</time>
      </trkpt>
      <trkpt lat="58.631923981010914" lon="13.522540982812643">
        <ele>59.5</ele>
        <time>2025-02-11T04:44:49.515Z</time>
      </trkpt>
      <trkpt lat="58.63196396268904" lon="13.522655982524157">
        <ele>59.6</ele>
        <time>2025-02-11T04:45:31.294Z</time>
      </trkpt>
      <trkpt lat="58.63200092688203" lon="13.522773999720812">
        <ele>59.7</ele>
        <time>2025-02-11T04:46:13.075Z</time>
      </trkpt>
      <trkpt lat="58.63203797489405" lon="13.522888999432325">
        <ele>59.8</ele>
        <time>2025-02-11T04:46:54.857Z</time>
      </trkpt>
      <trkpt lat="58.632075944915414" lon="13.523003999143839">
        <ele>59.9</ele>
        <time>2025-02-11T04:47:36.640Z</time>
      </trkpt>
      <trkpt lat="58.63211399875581" lon="13.523116987198591">
        <ele>60.01</ele>
        <time>2025-02-11T04:48:18.424Z</time>
      </trkpt>
      <trkpt lat="58.6321559920907" lon="13.523232992738485">
        <ele>60.11</ele>
        <time>2025-02-11T04:49:00.209Z</time>
      </trkpt>
      <trkpt lat="58.63219396211207" lon="13.52334899827838">
        <ele>60.21</ele>
        <time>2025-02-11T04:49:41.995Z</time>
      </trkpt>
      <trkpt lat="58.6322339437902" lon="13.523467937484384">
        <ele>60.31</ele>
        <time>2025-02-11T04:50:23.782Z</time>
      </trkpt>
      <trkpt lat="58.63227794878185" lon="13.523585954681039">
        <ele>60.41</ele>
        <time>2025-02-11T04:51:05.571Z</time>
      </trkpt>
      <trkpt lat="58.63232094794512" lon="13.523705983534455">
        <ele>60.51</ele>
        <time>2025-02-11T04:51:47.361Z</time>
      </trkpt>
      <trkpt lat="58.63236394710839" lon="13.523828946053982">
        <ele>60.6</ele>
        <time>2025-02-11T04:52:29.152Z</time>
      </trkpt>
      <trkpt lat="58.632400995120406" lon="13.52395199239254">
        <ele>60.69</ele>
        <time>2025-02-11T04:53:10.944Z</time>
      </trkpt>
      <trkpt lat="58.63243695348501" lon="13.524074954912066">
        <ele>60.78</ele>
        <time>2025-02-11T04:53:52.737Z</time>
      </trkpt>
      <trkpt lat="58.63247198984027" lon="13.524198923259974">
        <ele>60.87</ele>
        <time>2025-02-11T04:54:34.532Z</time>
      </trkpt>
      <trkpt lat="58.632505936548114" lon="13.524320963770151">
        <ele>60.96</ele>
        <time>2025-02-11T04:55:16.328Z</time>
      </trkpt>
      <trkpt lat="58.63254499621689" lon="13.524443926289678">
        <ele>61.05</ele>
        <time>2025-02-11T04:55:58.125Z</time>
      </trkpt>
      <trkpt lat="58.63258497789502" lon="13.524568984284997">
        <ele>61.15</ele>
        <time>2025-02-11T04:56:39.923Z</time>
      </trkpt>
      <trkpt lat="58.63262998871505" lon="13.524694964289665">
        <ele>61.24</ele>
        <time>2025-02-11T04:57:21.723Z</time>
      </trkpt>
      <trkpt lat="58.63267298787832" lon="13.524825973436236">
        <ele>61.33</ele>
        <time>2025-02-11T04:58:03.524Z</time>
      </trkpt>
      <trkpt lat="58.632717998698354" lon="13.524955976754427">
        <ele>61.42</ele>
        <time>2025-02-11T04:58:45.326Z</time>
      </trkpt>
      <trkpt lat="58.63276191987097" lon="13.525086985900998">
        <ele>61.51</ele>
        <time>2025-02-11T04:59:27.129Z</time>
      </trkpt>
      <trkpt lat="58.63280592486262" lon="13.525216989219189">
        <ele>61.59</ele>
        <time>2025-02-11T05:00:08.934Z</time>
      </trkpt>
      <trkpt lat="58.63284791819751" lon="13.525348920375109">
        <ele>61.67</ele>
        <time>2025-02-11T05:00:50.740Z</time>
      </trkpt>
      <trkpt lat="58.63288597203791" lon="13.525481941178441">
        <ele>61.75</ele>
        <time>2025-02-11T05:01:32.547Z</time>
      </trkpt>
      <trkpt lat="58.63292494788766" lon="13.525611944496632">
        <ele>61.83</ele>
        <time>2025-02-11T05:02:14.356Z</time>
      </trkpt>
      <trkpt lat="58.63296492956579" lon="13.525739936158061">
        <ele>61.91</ele>
        <time>2025-02-11T05:02:56.166Z</time>
      </trkpt>
      <trkpt lat="58.632999965921044" lon="13.525872956961393">
        <ele>61.99</ele>
        <time>2025-02-11T05:03:37.977Z</time>
      </trkpt>
      <trkpt lat="58.63303693011403" lon="13.526003966107965">
        <ele>62.07</ele>
        <time>2025-02-11T05:04:19.789Z</time>
      </trkpt>
      <trkpt lat="58.63307096064091" lon="13.526140926405787">
        <ele>62.14</ele>
        <time>2025-02-11T05:05:01.603Z</time>
      </trkpt>
      <trkpt lat="58.63310197368264" lon="13.526276964694262">
        <ele>62.21</ele>
        <time>2025-02-11T05:05:43.418Z</time>
      </trkpt>
      <trkpt lat="58.63313499838114" lon="13.526409985497594">
        <ele>62.29</ele>
        <time>2025-02-11T05:06:25.234Z</time>
      </trkpt>
      <trkpt lat="58.63316492177546" lon="13.526545939967036">
        <ele>62.36</ele>
        <time>2025-02-11T05:07:07.051Z</time>
      </trkpt>
      <trkpt lat="58.633193923160434" lon="13.52668097242713">
        <ele>62.43</ele>
        <time>2025-02-11T05:07:48.869Z</time>
      </trkpt>
      <trkpt lat="58.63321898505092" lon="13.526813993230462">
        <ele>62.5</ele>
        <time>2025-02-11T05:08:30.689Z</time>
      </trkpt>
      <trkpt lat="58.63324698060751" lon="13.526949947699904">
        <ele>62.56</ele>
        <time>2025-02-11T05:09:12.510Z</time>
      </trkpt>
      <trkpt lat="58.63327397033572" lon="13.527081962674856">
        <ele>62.63</ele>
        <time>2025-02-11T05:09:54.332Z</time>
      </trkpt>
      <trkpt lat="58.63329894840717" lon="13.527214983478189">
        <ele>62.69</ele>
        <time>2025-02-11T05:10:36.155Z</time>
      </trkpt>
      <trkpt lat="58.633323926478624" lon="13.52734699845314">
        <ele>62.76</ele>
        <time>2025-02-11T05:11:17.979Z</time>
      </trkpt>
      <trkpt lat="58.633346976712346" lon="13.5274769179523">
        <ele>62.82</ele>
        <time>2025-02-11T05:11:59.805Z</time>
      </trkpt>
      <trkpt lat="58.633368937298656" lon="13.527613962069154">
        <ele>62.88</ele>
        <time>2025-02-11T05:12:41.632Z</time>
      </trkpt>
      <trkpt lat="58.63339399918914" lon="13.527748994529247">
        <ele>62.94</ele>
        <time>2025-02-11T05:13:23.460Z</time>
      </trkpt>
      <trkpt lat="58.63341797143221" lon="13.527881931513548">
        <ele>63.0</ele>
        <time>2025-02-11T05:14:05.289Z</time>
      </trkpt>
      <trkpt lat="58.63344194367528" lon="13.5280139464885">
        <ele>63.06</ele>
        <time>2025-02-11T05:14:47.119Z</time>
      </trkpt>
      <trkpt lat="58.633471950888634" lon="13.528146967291832">
        <ele>63.11</ele>
        <time>2025-02-11T05:15:28.951Z</time>
      </trkpt>
      <trkpt lat="58.63350296393037" lon="13.528279988095164">
        <ele>63.16</ele>
        <time>2025-02-11T05:16:10.784Z</time>
      </trkpt>
      <trkpt lat="58.63353297114372" lon="13.528411919251084">
        <ele>63.21</ele>
        <time>2025-02-11T05:16:52.618Z</time>
      </trkpt>
      <trkpt lat="58.63356398418546" lon="13.528542928397655">
        <ele>63.27</ele>
        <time>2025-02-11T05:17:34.453Z</time>
      </trkpt>
      <trkpt lat="58.63359499722719" lon="13.528676955029368">
        <ele>63.32</ele>
        <time>2025-02-11T05:18:16.289Z</time>
      </trkpt>
      <trkpt lat="58.633623998612165" lon="13.528803940862417">
        <ele>63.36</ele>
        <time>2025-02-11T05:18:58.127Z</time>
      </trkpt>
      <trkpt lat="58.63365299999714" lon="13.528934950008988">
        <ele>63.41</ele>
        <time>2025-02-11T05:19:39.966Z</time>
      </trkpt>
      <trkpt lat="58.63367998972535" lon="13.52906797081232">
        <ele>63.46</ele>
        <time>2025-02-11T05:20:21.806Z</time>
      </trkpt>
      <trkpt lat="58.63370597362518" lon="13.529201997444034">
        <ele>63.5</ele>
        <time>2025-02-11T05:21:03.647Z</time>
      </trkpt>
      <trkpt lat="58.633731957525015" lon="13.529339963570237">
        <ele>63.54</ele>
        <time>2025-02-11T05:21:45.489Z</time>
      </trkpt>
      <trkpt lat="58.633756935596466" lon="13.529478935524821">
        <ele>63.58</ele>
        <time>2025-02-11T05:22:27.333Z</time>
      </trkpt>
      <trkpt lat="58.633776968345046" lon="13.529618997126818">
        <ele>63.61</ele>
        <time>2025-02-11T05:23:09.178Z</time>
      </trkpt>
      <trkpt lat="58.633794989436865" lon="13.529761992394924">
        <ele>63.65</ele>
        <time>2025-02-11T05:23:51.024Z</time>
      </trkpt>
      <trkpt lat="58.63380596973002" lon="13.52990792132914">
        <ele>63.68</ele>
        <time>2025-02-11T05:24:32.871Z</time>
      </trkpt>
      <trkpt lat="58.63381493836641" lon="13.530053934082389">
        <ele>63.7</ele>
        <time>2025-02-11T05:25:14.719Z</time>
      </trkpt>
      <trkpt lat="58.6338209733367" lon="13.530200952664018">
        <ele>63.72</ele>
        <time>2025-02-11T05:25:56.569Z</time>
      </trkpt>
      <trkpt lat="58.63382499665022" lon="13.530346965417266">
        <ele>63.74</ele>
        <time>2025-02-11T05:26:38.420Z</time>
      </trkpt>
      <trkpt lat="58.63382399082184" lon="13.530489960685372">
        <ele>63.76</ele>
        <time>2025-02-11T05:27:20.272Z</time>
      </trkpt>
      <trkpt lat="58.63382298499346" lon="13.53063396178186">
        <ele>63.78</ele>
        <time>2025-02-11T05:28:02.125Z</time>
      </trkpt>
      <trkpt lat="58.633818961679935" lon="13.530777962878346">
        <ele>63.79</ele>
        <time>2025-02-11T05:28:43.980Z</time>
      </trkpt>
      <trkpt lat="58.63381493836641" lon="13.530919952318072">
        <ele>63.81</ele>
        <time>2025-02-11T05:29:25.836Z</time>
      </trkpt>
      <trkpt lat="58.63381393253803" lon="13.53106596507132">
        <ele>63.82</ele>
        <time>2025-02-11T05:30:07.693Z</time>
      </trkpt>
      <trkpt lat="58.63380999304354" lon="13.53121792897582">
        <ele>63.83</ele>
        <time>2025-02-11T05:30:49.551Z</time>
      </trkpt>
      <trkpt lat="58.63380798138678" lon="13.531370982527733">
        <ele>63.84</ele>
        <time>2025-02-11T05:31:31.411Z</time>
      </trkpt>
      <trkpt lat="58.6338069755584" lon="13.531525963917375">
        <ele>63.85</ele>
        <time>2025-02-11T05:32:13.272Z</time>
      </trkpt>
      <trkpt lat="58.63380898721516" lon="13.531681951135397">
        <ele>63.86</ele>
        <time>2025-02-11T05:32:55.134Z</time>
      </trkpt>
      <trkpt lat="58.63381393253803" lon="13.531835926696658">
        <ele>63.86</ele>
        <time>2025-02-11T05:33:36.997Z</time>
      </trkpt>
      <trkpt lat="58.633817955851555" lon="13.53198797442019">
        <ele>63.87</ele>
        <time>2025-02-11T05:34:18.862Z</time>
      </trkpt>
      <trkpt lat="58.6338209733367" lon="13.53213993832469">
        <ele>63.87</ele>
        <time>2025-02-11T05:35:00.728Z</time>
      </trkpt>
      <trkpt lat="58.63382399082184" lon="13.532290980219841">
        <ele>63.87</ele>
        <time>2025-02-11T05:35:42.595Z</time>
      </trkpt>
      <trkpt lat="58.63382893614471" lon="13.5324399266392">
        <ele>63.88</ele>
        <time>2025-02-11T05:36:24.463Z</time>
      </trkpt>
      <trkpt lat="58.63383396528661" lon="13.532587951049209">
        <ele>63.88</ele>
        <time>2025-02-11T05:37:06.333Z</time>
      </trkpt>
      <trkpt lat="58.633837988600135" lon="13.532733963802457">
        <ele>63.88</ele>
        <time>2025-02-11T05:37:48.204Z</time>
      </trkpt>
      <trkpt lat="58.633842933923006" lon="13.532883999869227">
        <ele>63.88</ele>
        <time>2025-02-11T05:38:30.076Z</time>
      </trkpt>
      <trkpt lat="58.63384695723653" lon="13.533033952116966">
        <ele>63.87</ele>
        <time>2025-02-11T05:39:11.949Z</time>
      </trkpt>
      <trkpt lat="58.63384997472167" lon="13.533183988183737">
        <ele>63.87</ele>
        <time>2025-02-11T05:39:53.824Z</time>
      </trkpt>
      <trkpt lat="58.63385492004454" lon="13.533336957916617">
        <ele>63.87</ele>
        <time>2025-02-11T05:40:35.700Z</time>
      </trkpt>
      <trkpt lat="58.633859949186444" lon="13.533488921821117">
        <ele>63.86</ele>
        <time>2025-02-11T05:41:17.577Z</time>
      </trkpt>
      <trkpt lat="58.633861960843205" lon="13.533638957887888">
        <ele>63.84</ele>
        <time>2025-02-11T05:41:59.456Z</time>
      </trkpt>
      <trkpt lat="58.633861960843205" lon="13.533786982297897">
        <ele>63.83</ele>
        <time>2025-02-11T05:42:41.336Z</time>
      </trkpt>
      <trkpt lat="58.633862966671586" lon="13.533934922888875">
        <ele>63.81</ele>
        <time>2025-02-11T05:43:23.217Z</time>
      </trkpt>
      <trkpt lat="58.633861960843205" lon="13.534080935642123">
        <ele>63.79</ele>
        <time>2025-02-11T05:44:05.099Z</time>
      </trkpt>
      <trkpt lat="58.633858943358064" lon="13.534226948395371">
        <ele>63.77</ele>
        <time>2025-02-11T05:44:46.982Z</time>
      </trkpt>
      <trkpt lat="58.63385399803519" lon="13.534370949491858">
        <ele>63.75</ele>
        <time>2025-02-11T05:45:28.867Z</time>
      </trkpt>
      <trkpt lat="58.63384796306491" lon="13.534515956416726">
        <ele>63.72</ele>
        <time>2025-02-11T05:46:10.753Z</time>
      </trkpt>
      <trkpt lat="58.633842933923006" lon="13.534663980826735">
        <ele>63.7</ele>
        <time>2025-02-11T05:46:52.640Z</time>
      </trkpt>
      <trkpt lat="58.633836982771754" lon="13.534809993579984">
        <ele>63.67</ele>
        <time>2025-02-11T05:47:34.528Z</time>
      </trkpt>
      <trkpt lat="58.63382692448795" lon="13.5349559225142">
        <ele>63.64</ele>
        <time>2025-02-11T05:48:16.418Z</time>
      </trkpt>
      <trkpt lat="58.63381393253803" lon="13.535099923610687">
        <ele>63.6</ele>
        <time>2025-02-11T05:48:58.309Z</time>
      </trkpt>
      <trkpt lat="58.63380295224488" lon="13.535243924707174">
        <ele>63.57</ele>
        <time>2025-02-11T05:49:40.201Z</time>
      </trkpt>
      <trkpt lat="58.63379096612334" lon="13.535385997965932">
        <ele>63.54</ele>
        <time>2025-02-11T05:50:22.094Z</time>
      </trkpt>
      <trkpt lat="58.63377998583019" lon="13.53553393855691">
        <ele>63.5</ele>
        <time>2025-02-11T05:51:03.988Z</time>
      </trkpt>
      <trkpt lat="58.63377093337476" lon="13.535681962966919">
        <ele>63.47</ele>
        <time>2025-02-11T05:51:45.884Z</time>
      </trkpt>
      <trkpt lat="58.63376397639513" lon="13.535829987376928">
        <ele>63.43</ele>
        <time>2025-02-11T05:52:27.781Z</time>
      </trkpt>
      <trkpt lat="58.63376095890999" lon="13.535973988473415">
        <ele>63.39</ele>
        <time>2025-02-11T05:53:09.679Z</time>
      </trkpt>
      <trkpt lat="58.63376498222351" lon="13.536119917407632">
        <ele>63.35</ele>
        <time>2025-02-11T05:53:51.578Z</time>
      </trkpt>
      <trkpt lat="58.633774956688285" lon="13.53626693598926">
        <ele>63.32</ele>
        <time>2025-02-11T05:54:33.479Z</time>
      </trkpt>
      <trkpt lat="58.63378996029496" lon="13.536410937085748">
        <ele>63.27</ele>
        <time>2025-02-11T05:55:15.381Z</time>
      </trkpt>
      <trkpt lat="58.63381192088127" lon="13.536546975374222">
        <ele>63.23</ele>
        <time>2025-02-11T05:55:57.284Z</time>
      </trkpt>
      <trkpt lat="58.633837988600135" lon="13.536679996177554">
        <ele>63.19</ele>
        <time>2025-02-11T05:56:39.188Z</time>
      </trkpt>
      <trkpt lat="58.63387193530798" lon="13.536804970353842">
        <ele>63.13</ele>
        <time>2025-02-11T05:57:21.093Z</time>
      </trkpt>
      <trkpt lat="58.63390998914838" lon="13.536922987550497">
        <ele>63.08</ele>
        <time>2025-02-11T05:58:03.000Z</time>
      </trkpt>
      <trkpt lat="58.633946953341365" lon="13.537031952291727">
        <ele>63.03</ele>
        <time>2025-02-11T05:58:44.908Z</time>
      </trkpt>
      <trkpt lat="58.63399296998978" lon="13.537141922861338">
        <ele>62.98</ele>
        <time>2025-02-11T05:59:26.817Z</time>
      </trkpt>
      <trkpt lat="58.63404099829495" lon="13.537247953936458">
        <ele>62.93</ele>
        <time>2025-02-11T06:00:08.727Z</time>
      </trkpt>
      <trkpt lat="58.63409296609461" lon="13.537350967526436">
        <ele>62.87</ele>
        <time>2025-02-11T06:00:50.638Z</time>
      </trkpt>
      <trkpt lat="58.63414694555104" lon="13.537454986944795">
        <ele>62.82</ele>
        <time>2025-02-11T06:01:32.550Z</time>
      </trkpt>
      <trkpt lat="58.634203942492604" lon="13.537558922544122">
        <ele>62.77</ele>
        <time>2025-02-11T06:02:14.464Z</time>
      </trkpt>
      <trkpt lat="58.63426295109093" lon="13.537665959447622">
        <ele>62.71</ele>
        <time>2025-02-11T06:02:56.379Z</time>
      </trkpt>
      <trkpt lat="58.63432195968926" lon="13.537776935845613">
        <ele>62.65</ele>
        <time>2025-02-11T06:03:38.295Z</time>
      </trkpt>
      <trkpt lat="58.63438197411597" lon="13.537884978577495">
        <ele>62.6</ele>
        <time>2025-02-11T06:04:20.213Z</time>
      </trkpt>
      <trkpt lat="58.63444299437106" lon="13.537991931661963">
        <ele>62.54</ele>
        <time>2025-02-11T06:05:02.132Z</time>
      </trkpt>
      <trkpt lat="58.634503930807114" lon="13.538101986050606">
        <ele>62.47</ele>
        <time>2025-02-11T06:05:44.052Z</time>
      </trkpt>
      <trkpt lat="58.6345649510622" lon="13.538211956620216">
        <ele>62.41</ele>
        <time>2025-02-11T06:06:25.974Z</time>
      </trkpt>
      <trkpt lat="58.63462496548891" lon="13.538322933018208">
        <ele>62.34</ele>
        <time>2025-02-11T06:07:07.897Z</time>
      </trkpt>
      <trkpt lat="58.63468799740076" lon="13.53843399323523">
        <ele>62.27</ele>
        <time>2025-02-11T06:07:49.821Z</time>
      </trkpt>
      <trkpt lat="58.63474792800844" lon="13.538547987118363">
        <ele>62.2</ele>
        <time>2025-02-11T06:08:31.747Z</time>
      </trkpt>
      <trkpt lat="58.63481297157705" lon="13.538667932152748">
        <ele>62.14</ele>
        <time>2025-02-11T06:09:13.674Z</time>
      </trkpt>
      <trkpt lat="58.63487793132663" lon="13.538788966834545">
        <ele>62.07</ele>
        <time>2025-02-11T06:09:55.603Z</time>
      </trkpt>
      <trkpt lat="58.6349399574101" lon="13.538911929354072">
        <ele>62.0</ele>
        <time>2025-02-11T06:10:37.533Z</time>
      </trkpt>
      <trkpt lat="58.63500399515033" lon="13.539040926843882">
        <ele>61.92</ele>
        <time>2025-02-11T06:11:19.465Z</time>
      </trkpt>
      <trkpt lat="58.63507197238505" lon="13.539170930162072">
        <ele>61.85</ele>
        <time>2025-02-11T06:12:01.398Z</time>
      </trkpt>
      <trkpt lat="58.63514196127653" lon="13.539297999814153">
        <ele>61.77</ele>
        <time>2025-02-11T06:12:43.333Z</time>
      </trkpt>
      <trkpt lat="58.63520893268287" lon="13.539427919313312">
        <ele>61.7</ele>
        <time>2025-02-11T06:13:25.269Z</time>
      </trkpt>
      <trkpt lat="58.63527498207986" lon="13.539553983137012">
        <ele>61.62</ele>
        <time>2025-02-11T06:14:07.207Z</time>
      </trkpt>
      <trkpt lat="58.63533499650657" lon="13.5396789573133">
        <ele>61.55</ele>
        <time>2025-02-11T06:14:49.146Z</time>
      </trkpt>
      <trkpt lat="58.63539098761976" lon="13.53980795480311">
        <ele>61.48</ele>
        <time>2025-02-11T06:15:31.086Z</time>
      </trkpt>
      <trkpt lat="58.635448990389705" lon="13.5399379581213">
        <ele>61.41</ele>
        <time>2025-02-11T06:16:13.028Z</time>
      </trkpt>
      <trkpt lat="58.63551093265414" lon="13.540071984753013">
        <ele>61.35</ele>
        <time>2025-02-11T06:16:54.971Z</time>
      </trkpt>
      <trkpt lat="58.63557195290923" lon="13.540212968364358">
        <ele>61.28</ele>
        <time>2025-02-11T06:17:36.916Z</time>
      </trkpt>
      <trkpt lat="58.63563196733594" lon="13.540360992774367">
        <ele>61.21</ele>
        <time>2025-02-11T06:18:18.862Z</time>
      </trkpt>
      <trkpt lat="58.63568997010589" lon="13.540514968335629">
        <ele>61.14</ele>
        <time>2025-02-11T06:19:00.810Z</time>
      </trkpt>
      <trkpt lat="58.63574394956231" lon="13.540672967210412">
        <ele>61.07</ele>
        <time>2025-02-11T06:19:42.760Z</time>
      </trkpt>
      <trkpt lat="58.635792983695865" lon="13.540839934721589">
        <ele>61.0</ele>
        <time>2025-02-11T06:20:24.711Z</time>
      </trkpt>
      <trkpt lat="58.635834977030754" lon="13.541011931374669">
        <ele>60.92</ele>
        <time>2025-02-11T06:21:06.664Z</time>
      </trkpt>
      <trkpt lat="58.63587194122374" lon="13.54118493385613">
        <ele>60.85</ele>
        <time>2025-02-11T06:21:48.618Z</time>
      </trkpt>
      <trkpt lat="58.635900942608714" lon="13.54135894216597">
        <ele>60.77</ele>
        <time>2025-02-11T06:22:30.574Z</time>
      </trkpt>
      <trkpt lat="58.635921981185675" lon="13.54152993299067">
        <ele>60.69</ele>
        <time>2025-02-11T06:23:12.531Z</time>
      </trkpt>
      <trkpt lat="58.63593899644911" lon="13.54169899597764">
        <ele>60.61</ele>
        <time>2025-02-11T06:23:54.490Z</time>
      </trkpt>
      <trkpt lat="58.63595098257065" lon="13.541867975145578">
        <ele>60.54</ele>
        <time>2025-02-11T06:24:36.450Z</time>
      </trkpt>
      <trkpt lat="58.63595995120704" lon="13.5420429892838">
        <ele>60.46</ele>
        <time>2025-02-11T06:25:18.412Z</time>
      </trkpt>
      <trkpt lat="58.635969925671816" lon="13.542224960401654">
        <ele>60.39</ele>
        <time>2025-02-11T06:26:00.375Z</time>
      </trkpt>
      <trkpt lat="58.63597797229886" lon="13.542412966489792">
        <ele>60.31</ele>
        <time>2025-02-11T06:26:42.340Z</time>
      </trkpt>
      <trkpt lat="58.635987946763635" lon="13.542604995891452">
        <ele>60.23</ele>
        <time>2025-02-11T06:27:24.306Z</time>
      </trkpt>
      <trkpt lat="58.63600093871355" lon="13.542800964787602">
        <ele>60.15</ele>
        <time>2025-02-11T06:28:06.274Z</time>
      </trkpt>
      <trkpt lat="58.636011919006705" lon="13.542995927855372">
        <ele>60.09</ele>
        <time>2025-02-11T06:28:48.244Z</time>
      </trkpt>
      <trkpt lat="58.63602197729051" lon="13.543187957257032">
        <ele>60.01</ele>
        <time>2025-02-11T06:29:30.215Z</time>
      </trkpt>
      <trkpt lat="58.636031951755285" lon="13.54337696917355">
        <ele>59.94</ele>
        <time>2025-02-11T06:30:12.188Z</time>
      </trkpt>
      <trkpt lat="58.63604192622006" lon="13.543562963604927">
        <ele>59.87</ele>
        <time>2025-02-11T06:30:54.163Z</time>
      </trkpt>
      <trkpt lat="58.636049972847104" lon="13.5437439288944">
        <ele>59.81</ele>
        <time>2025-02-11T06:31:36.139Z</time>
      </trkpt>
      <trkpt lat="58.63605994731188" lon="13.543920954689384">
        <ele>59.74</ele>
        <time>2025-02-11T06:32:18.117Z</time>
      </trkpt>
      <trkpt lat="58.63606799393892" lon="13.544093957170844">
        <ele>59.68</ele>
        <time>2025-02-11T06:33:00.096Z</time>
      </trkpt>
      <trkpt lat="58.636073945090175" lon="13.544263942167163">
        <ele>59.62</ele>
        <time>2025-02-11T06:33:42.076Z</time>
      </trkpt>
      <trkpt lat="58.63607998006046" lon="13.544436944648623">
        <ele>59.56</ele>
        <time>2025-02-11T06:34:24.058Z</time>
      </trkpt>
      <trkpt lat="58.63608492538333" lon="13.544605923816562">
        <ele>59.51</ele>
        <time>2025-02-11T06:35:06.041Z</time>
      </trkpt>
      <trkpt lat="58.63608995452523" lon="13.544773980975151">
        <ele>59.45</ele>
        <time>2025-02-11T06:35:48.026Z</time>
      </trkpt>
      <trkpt lat="58.636093977838755" lon="13.544938936829567">
        <ele>59.4</ele>
        <time>2025-02-11T06:36:30.012Z</time>
      </trkpt>
      <trkpt lat="58.636097917333245" lon="13.545102970674634">
        <ele>59.35</ele>
        <time>2025-02-11T06:37:11.999Z</time>
      </trkpt>
      <trkpt lat="58.63610495813191" lon="13.54526499286294">
        <ele>59.3</ele>
        <time>2025-02-11T06:37:53.988Z</time>
      </trkpt>
      <trkpt lat="58.6361139267683" lon="13.545425925403833">
        <ele>59.26</ele>
        <time>2025-02-11T06:38:35.978Z</time>
      </trkpt>
      <trkpt lat="58.63612096756697" lon="13.54558794759214">
        <ele>59.22</ele>
        <time>2025-02-11T06:39:17.970Z</time>
      </trkpt>
      <trkpt lat="58.63612893037498" lon="13.545746952295303">
        <ele>59.18</ele>
        <time>2025-02-11T06:39:59.963Z</time>
      </trkpt>
      <trkpt lat="58.63613496534526" lon="13.545899922028184">
        <ele>59.13</ele>
        <time>2025-02-11T06:40:41.957Z</time>
      </trkpt>
      <trkpt lat="58.6361469514668" lon="13.546054987236857">
        <ele>59.09</ele>
        <time>2025-02-11T06:41:23.952Z</time>
      </trkpt>
      <trkpt lat="58.636161955073476" lon="13.546205945312977">
        <ele>59.05</ele>
        <time>2025-02-11T06:42:05.949Z</time>
      </trkpt>
      <trkpt lat="58.636178970336914" lon="13.546357993036509">
        <ele>59.02</ele>
        <time>2025-02-11T06:42:47.947Z</time>
      </trkpt>
      <trkpt lat="58.63618995063007" lon="13.546497970819473">
        <ele>58.98</ele>
        <time>2025-02-11T06:43:29.946Z</time>
      </trkpt>
      <trkpt lat="58.63620093092322" lon="13.546644989401102">
        <ele>58.95</ele>
        <time>2025-02-11T06:44:11.946Z</time>
      </trkpt>
      <trkpt lat="58.63621199503541" lon="13.5467919241637">
        <ele>58.91</ele>
        <time>2025-02-11T06:44:53.948Z</time>
      </trkpt>
      <trkpt lat="58.63621995784342" lon="13.54694095440209">
        <ele>58.88</ele>
        <time>2025-02-11T06:45:35.951Z</time>
      </trkpt>
      <trkpt lat="58.63622699864209" lon="13.54709291830659">
        <ele>58.84</ele>
        <time>2025-02-11T06:46:17.955Z</time>
      </trkpt>
      <trkpt lat="58.63623194396496" lon="13.547248989343643">
        <ele>58.81</ele>
        <time>2025-02-11T06:46:59.961Z</time>
      </trkpt>
      <trkpt lat="58.63623697310686" lon="13.547406988218427">
        <ele>58.78</ele>
        <time>2025-02-11T06:47:41.968Z</time>
      </trkpt>
      <trkpt lat="58.63624099642038" lon="13.54756599292159">
        <ele>58.75</ele>
        <time>2025-02-11T06:48:23.976Z</time>
      </trkpt>
      <trkpt lat="58.63624292425811" lon="13.547725919634104">
        <ele>58.73</ele>
        <time>2025-02-11T06:49:05.986Z</time>
      </trkpt>
      <trkpt lat="58.63624292425811" lon="13.547884924337268">
        <ele>58.71</ele>
        <time>2025-02-11T06:49:47.997Z</time>
      </trkpt>
      <trkpt lat="58.63624393008649" lon="13.548043929040432">
        <ele>58.7</ele>
        <time>2025-02-11T06:50:30.009Z</time>
      </trkpt>
      <trkpt lat="58.636247953400016" lon="13.548202933743596">
        <ele>58.68</ele>
        <time>2025-02-11T06:51:12.023Z</time>
      </trkpt>
      <trkpt lat="58.63625197671354" lon="13.54836294427514">
        <ele>58.67</ele>
        <time>2025-02-11T06:51:54.038Z</time>
      </trkpt>
      <trkpt lat="58.63625993952155" lon="13.548524966463447">
        <ele>58.66</ele>
        <time>2025-02-11T06:52:36.054Z</time>
      </trkpt>
      <trkpt lat="58.636270919814706" lon="13.548686988651752">
        <ele>58.66</ele>
        <time>2025-02-11T06:53:18.072Z</time>
      </trkpt>
      <trkpt lat="58.636284917593" lon="13.548847921192646">
        <ele>58.66</ele>
        <time>2025-02-11T06:54:00.091Z</time>
      </trkpt>
      <trkpt lat="58.63630293868482" lon="13.54900592006743">
        <ele>58.66</ele>
        <time>2025-02-11T06:54:42.111Z</time>
      </trkpt>
      <trkpt lat="58.6363229714334" lon="13.549158973619342">
        <ele>58.67</ele>
        <time>2025-02-11T06:55:24.133Z</time>
      </trkpt>
      <trkpt lat="58.63634292036295" lon="13.54930599220097">
        <ele>58.67</ele>
        <time>2025-02-11T06:56:06.156Z</time>
      </trkpt>
      <trkpt lat="58.63636194728315" lon="13.549449993297458">
        <ele>58.68</ele>
        <time>2025-02-11T06:56:48.180Z</time>
      </trkpt>
      <trkpt lat="58.63637896254659" lon="13.549592988565564">
        <ele>58.7</ele>
        <time>2025-02-11T06:57:30.205Z</time>
      </trkpt>
      <trkpt lat="58.636393966153264" lon="13.54973497800529">
        <ele>58.72</ele>
        <time>2025-02-11T06:58:12.232Z</time>
      </trkpt>
      <trkpt lat="58.6364059522748" lon="13.549876967445016">
        <ele>58.74</ele>
        <time>2025-02-11T06:58:54.260Z</time>
      </trkpt>
      <trkpt lat="58.636416932567954" lon="13.550019962713122">
        <ele>58.75</ele>
        <time>2025-02-11T06:59:36.289Z</time>
      </trkpt>
      <trkpt lat="58.63642699085176" lon="13.55016396380961">
        <ele>58.78</ele>
        <time>2025-02-11T07:00:18.319Z</time>
      </trkpt>
      <trkpt lat="58.63643495365977" lon="13.550305953249335">
        <ele>58.81</ele>
        <time>2025-02-11T07:01:00.350Z</time>
      </trkpt>
      <trkpt lat="58.636440988630056" lon="13.550448948517442">
        <ele>58.83</ele>
        <time>2025-02-11T07:01:42.383Z</time>
      </trkpt>
      <trkpt lat="58.63644895143807" lon="13.550592949613929">
        <ele>58.86</ele>
        <time>2025-02-11T07:02:24.417Z</time>
      </trkpt>
      <trkpt lat="58.63645498640835" lon="13.550738962367177">
        <ele>58.89</ele>
        <time>2025-02-11T07:03:06.452Z</time>
      </trkpt>
      <trkpt lat="58.63645599223673" lon="13.550886986777186">
        <ele>58.93</ele>
        <time>2025-02-11T07:03:48.488Z</time>
      </trkpt>
      <trkpt lat="58.63645892590284" lon="13.551040962338448">
        <ele>58.96</ele>
        <time>2025-02-11T07:04:30.526Z</time>
      </trkpt>
      <trkpt lat="58.636461943387985" lon="13.551194937899709">
        <ele>58.99</ele>
        <time>2025-02-11T07:05:12.565Z</time>
      </trkpt>
      <trkpt lat="58.636463955044746" lon="13.551348997280002">
        <ele>59.04</ele>
        <time>2025-02-11T07:05:54.605Z</time>
      </trkpt>
      <trkpt lat="58.63646496087313" lon="13.551502972841263">
        <ele>59.08</ele>
        <time>2025-02-11T07:06:36.646Z</time>
      </trkpt>
      <trkpt lat="58.63646697252989" lon="13.551657954230905">
        <ele>59.12</ele>
        <time>2025-02-11T07:07:18.689Z</time>
      </trkpt>
      <trkpt lat="58.63647099584341" lon="13.551807990297675">
        <ele>59.17</ele>
        <time>2025-02-11T07:08:00.733Z</time>
      </trkpt>
      <trkpt lat="58.63647392950952" lon="13.551956936717033">
        <ele>59.22</ele>
        <time>2025-02-11T07:08:42.778Z</time>
      </trkpt>
      <trkpt lat="58.63647795282304" lon="13.552105966955423">
        <ele>59.26</ele>
        <time>2025-02-11T07:09:24.824Z</time>
      </trkpt>
      <trkpt lat="58.63647795282304" lon="13.552251979708672">
        <ele>59.31</ele>
        <time>2025-02-11T07:10:06.872Z</time>
      </trkpt>
      <trkpt lat="58.63647895865142" lon="13.55239799246192">
        <ele>59.36</ele>
        <time>2025-02-11T07:10:48.921Z</time>
      </trkpt>
      <trkpt lat="58.63647694699466" lon="13.552541993558407">
        <ele>59.41</ele>
        <time>2025-02-11T07:11:30.971Z</time>
      </trkpt>
      <trkpt lat="58.63647895865142" lon="13.552689934149384">
        <ele>59.46</ele>
        <time>2025-02-11T07:12:13.022Z</time>
      </trkpt>
      <trkpt lat="58.636480970308185" lon="13.552839970216155">
        <ele>59.51</ele>
        <time>2025-02-11T07:12:55.075Z</time>
      </trkpt>
      <trkpt lat="58.636481976136565" lon="13.552992939949036">
        <ele>59.56</ele>
        <time>2025-02-11T07:13:37.129Z</time>
      </trkpt>
      <trkpt lat="58.636482981964946" lon="13.553142976015806">
        <ele>59.62</ele>
        <time>2025-02-11T07:14:19.184Z</time>
      </trkpt>
      <trkpt lat="58.636480970308185" lon="13.553285971283913">
        <ele>59.68</ele>
        <time>2025-02-11T07:15:01.240Z</time>
      </trkpt>
      <trkpt lat="58.636480970308185" lon="13.553425949066877">
        <ele>59.74</ele>
        <time>2025-02-11T07:15:43.298Z</time>
      </trkpt>
      <trkpt lat="58.636482981964946" lon="13.55356098152697">
        <ele>59.8</ele>
        <time>2025-02-11T07:16:25.357Z</time>
      </trkpt>
      <trkpt lat="58.636483987793326" lon="13.553693918511271">
        <ele>59.87</ele>
        <time>2025-02-11T07:17:07.417Z</time>
      </trkpt>
      <trkpt lat="58.636486921459436" lon="13.553828950971365">
        <ele>59.93</ele>
        <time>2025-02-11T07:17:49.478Z</time>
      </trkpt>
      <trkpt lat="58.6364889331162" lon="13.553962977603078">
        <ele>59.99</ele>
        <time>2025-02-11T07:18:31.540Z</time>
      </trkpt>
      <trkpt lat="58.63649295642972" lon="13.554103961214423">
        <ele>60.06</ele>
        <time>2025-02-11T07:19:13.603Z</time>
      </trkpt>
      <trkpt lat="58.63649697974324" lon="13.554240921512246">
        <ele>60.13</ele>
        <time>2025-02-11T07:19:55.667Z</time>
      </trkpt>
      <trkpt lat="58.6364989914" lon="13.554366985335946">
        <ele>60.2</ele>
        <time>2025-02-11T07:20:37.732Z</time>
      </trkpt>
      <trkpt lat="58.63649697974324" lon="13.55448693037033">
        <ele>60.27</ele>
        <time>2025-02-11T07:21:19.798Z</time>
      </trkpt>
      <trkpt lat="58.63649496808648" lon="13.554597990587354">
        <ele>60.34</ele>
        <time>2025-02-11T07:22:01.865Z</time>
      </trkpt>
      <trkpt lat="58.63649195060134" lon="13.554711984470487">
        <ele>60.41</ele>
        <time>2025-02-11T07:22:43.933Z</time>
      </trkpt>
      <trkpt lat="58.63648599945009" lon="13.554828995838761">
        <ele>60.48</ele>
        <time>2025-02-11T07:23:26.002Z</time>
      </trkpt>
      <trkpt lat="58.636481976136565" lon="13.554948940873146">
        <ele>60.54</ele>
        <time>2025-02-11T07:24:08.072Z</time>
      </trkpt>
      <trkpt lat="58.636479964479804" lon="13.555066958069801">
        <ele>60.61</ele>
        <time>2025-02-11T07:24:50.143Z</time>
      </trkpt>
      <trkpt lat="58.63647795282304" lon="13.555177934467793">
        <ele>60.69</ele>
        <time>2025-02-11T07:25:32.215Z</time>
      </trkpt>
      <trkpt lat="58.6364749353379" lon="13.555292934179306">
        <ele>60.76</ele>
        <time>2025-02-11T07:26:14.288Z</time>
      </trkpt>
      <trkpt lat="58.63647795282304" lon="13.555424949154258">
        <ele>60.83</ele>
        <time>2025-02-11T07:26:56.362Z</time>
      </trkpt>
      <trkpt lat="58.6364749353379" lon="13.555547995492816">
        <ele>60.9</ele>
        <time>2025-02-11T07:27:38.437Z</time>
      </trkpt>
      <trkpt lat="58.63647099584341" lon="13.555679926648736">
        <ele>60.97</ele>
        <time>2025-02-11T07:28:20.513Z</time>
      </trkpt>
      <trkpt lat="58.63646697252989" lon="13.555810935795307">
        <ele>61.03</ele>
        <time>2025-02-11T07:29:02.590Z</time>
      </trkpt>
      <trkpt lat="58.63646496087313" lon="13.555935993790627">
        <ele>61.1</ele>
        <time>2025-02-11T07:29:44.669Z</time>
      </trkpt>
      <trkpt lat="58.63646496087313" lon="13.556058956310153">
        <ele>61.17</ele>
        <time>2025-02-11T07:30:26.749Z</time>
      </trkpt>
      <trkpt lat="58.636463955044746" lon="13.55617898516357">
        <ele>61.24</ele>
        <time>2025-02-11T07:31:08.830Z</time>
      </trkpt>
      <trkpt lat="58.636462949216366" lon="13.556301947683096">
        <ele>61.31</ele>
        <time>2025-02-11T07:31:50.912Z</time>
      </trkpt>
      <trkpt lat="58.636460937559605" lon="13.55641795322299">
        <ele>61.38</ele>
        <time>2025-02-11T07:32:32.995Z</time>
      </trkpt>
      <trkpt lat="58.63645892590284" lon="13.556539993733168">
        <ele>61.44</ele>
        <time>2025-02-11T07:33:15.079Z</time>
      </trkpt>
      <trkpt lat="58.63645792007446" lon="13.556667985394597">
        <ele>61.51</ele>
        <time>2025-02-11T07:33:57.164Z</time>
      </trkpt>
      <trkpt lat="58.63645792007446" lon="13.556791953742504">
        <ele>61.58</ele>
        <time>2025-02-11T07:34:39.250Z</time>
      </trkpt>
      <trkpt lat="58.63645892590284" lon="13.556951964274049">
        <ele>61.64</ele>
        <time>2025-02-11T07:35:21.337Z</time>
      </trkpt>
      <trkpt lat="58.636459931731224" lon="13.55712496675551">
        <ele>61.71</ele>
        <time>2025-02-11T07:36:03.425Z</time>
      </trkpt>
      <trkpt lat="58.63647099584341" lon="13.557313978672028">
        <ele>61.77</ele>
        <time>2025-02-11T07:36:45.515Z</time>
      </trkpt>
      <trkpt lat="58.63647694699466" lon="13.557477928698063">
        <ele>61.83</ele>
        <time>2025-02-11T07:37:27.606Z</time>
      </trkpt>
      <trkpt lat="58.63647895865142" lon="13.557627964764833">
        <ele>61.9</ele>
        <time>2025-02-11T07:38:09.699Z</time>
      </trkpt>
      <trkpt lat="58.636479964479804" lon="13.557779928669333">
        <ele>61.97</ele>
        <time>2025-02-11T07:38:51.793Z</time>
      </trkpt>
      <trkpt lat="58.636486921459436" lon="13.557950919494033">
        <ele>62.03</ele>
        <time>2025-02-11T07:39:33.888Z</time>
      </trkpt>
      <trkpt lat="58.63649295642972" lon="13.558109924197197">
        <ele>62.1</ele>
        <time>2025-02-11T07:40:15.985Z</time>
      </trkpt>
      <trkpt lat="58.63649697974324" lon="13.558259960263968">
        <ele>62.17</ele>
        <time>2025-02-11T07:40:58.083Z</time>
      </trkpt>
      <trkpt lat="58.63649697974324" lon="13.558410918340087">
        <ele>62.24</ele>
        <time>2025-02-11T07:41:40.182Z</time>
      </trkpt>
      <trkpt lat="58.63649697974324" lon="13.558554919436574">
        <ele>62.32</ele>
        <time>2025-02-11T07:42:22.282Z</time>
      </trkpt>
      <trkpt lat="58.63649597391486" lon="13.55869296938181">
        <ele>62.39</ele>
        <time>2025-02-11T07:43:04.384Z</time>
      </trkpt>
      <trkpt lat="58.63650091923773" lon="13.558832947164774">
        <ele>62.46</ele>
        <time>2025-02-11T07:43:46.487Z</time>
      </trkpt>
      <trkpt lat="58.63650997169316" lon="13.55899496935308">
        <ele>62.53</ele>
        <time>2025-02-11T07:44:28.591Z</time>
      </trkpt>
      <trkpt lat="58.63651399500668" lon="13.55914399959147">
        <ele>62.6</ele>
        <time>2025-02-11T07:45:10.696Z</time>
      </trkpt>
      <trkpt lat="58.63651793450117" lon="13.559291940182447">
        <ele>62.66</ele>
        <time>2025-02-11T07:45:52.803Z</time>
      </trkpt>
      <trkpt lat="58.636523969471455" lon="13.559439964592457">
        <ele>62.73</ele>
        <time>2025-02-11T07:46:34.911Z</time>
      </trkpt>
      <trkpt lat="58.63652899861336" lon="13.559580948203802">
        <ele>62.79</ele>
        <time>2025-02-11T07:47:17.020Z</time>
      </trkpt>
      <trkpt lat="58.63653092645109" lon="13.559718998149037">
        <ele>62.85</ele>
        <time>2025-02-11T07:47:59.130Z</time>
      </trkpt>
      <trkpt lat="58.63653394393623" lon="13.559856964275241">
        <ele>62.91</ele>
        <time>2025-02-11T07:48:41.241Z</time>
      </trkpt>
      <trkpt lat="58.63653193227947" lon="13.559992918744683">
        <ele>62.97</ele>
        <time>2025-02-11T07:49:23.354Z</time>
      </trkpt>
      <trkpt lat="58.63653293810785" lon="13.560126945376396">
        <ele>63.03</ele>
        <time>2025-02-11T07:50:05.468Z</time>
      </trkpt>
      <trkpt lat="58.63653796724975" lon="13.56026298366487">
        <ele>63.08</ele>
        <time>2025-02-11T07:50:47.583Z</time>
      </trkpt>
      <trkpt lat="58.63655196502805" lon="13.560398938134313">
        <ele>63.15</ele>
        <time>2025-02-11T07:51:29.699Z</time>
      </trkpt>
      <trkpt lat="58.63657593727112" lon="13.560526929795742">
        <ele>63.21</ele>
        <time>2025-02-11T07:52:11.816Z</time>
      </trkpt>
      <trkpt lat="58.636612985283136" lon="13.560646958649158">
        <ele>63.27</ele>
        <time>2025-02-11T07:52:53.934Z</time>
      </trkpt>
      <trkpt lat="58.63665799610317" lon="13.56075793504715">
        <ele>63.34</ele>
        <time>2025-02-11T07:53:36.053Z</time>
      </trkpt>
      <trkpt lat="58.63670594058931" lon="13.560858936980367">
        <ele>63.4</ele>
        <time>2025-02-11T07:54:18.174Z</time>
      </trkpt>
      <trkpt lat="58.636760925874114" lon="13.560952981933951">
        <ele>63.46</ele>
        <time>2025-02-11T07:55:00.296Z</time>
      </trkpt>
      <trkpt lat="58.63682094030082" lon="13.561038980260491">
        <ele>63.52</ele>
        <time>2025-02-11T07:55:42.419Z</time>
      </trkpt>
      <trkpt lat="58.63688196055591" lon="13.561120955273509">
        <ele>63.59</ele>
        <time>2025-02-11T07:56:24.543Z</time>
      </trkpt>
      <trkpt lat="58.63694599829614" lon="13.561195973306894">
        <ele>63.65</ele>
        <time>2025-02-11T07:57:06.668Z</time>
      </trkpt>
      <trkpt lat="58.6370069347322" lon="13.561267973855138">
        <ele>63.71</ele>
        <time>2025-02-11T07:57:48.794Z</time>
      </trkpt>
      <trkpt lat="58.637065943330526" lon="13.561339974403381">
        <ele>63.77</ele>
        <time>2025-02-11T07:58:30.922Z</time>
      </trkpt>
      <trkpt lat="58.637126963585615" lon="13.561410969123244">
        <ele>63.82</ele>
        <time>2025-02-11T07:59:13.051Z</time>
      </trkpt>
      <trkpt lat="58.63718697801232" lon="13.561484981328249">
        <ele>63.89</ele>
        <time>2025-02-11T07:59:55.181Z</time>
      </trkpt>
      <trkpt lat="58.63724699243903" lon="13.561554970219731">
        <ele>63.95</ele>
        <time>2025-02-11T08:00:37.312Z</time>
      </trkpt>
      <trkpt lat="58.63730792887509" lon="13.561626970767975">
        <ele>64.01</ele>
        <time>2025-02-11T08:01:19.444Z</time>
      </trkpt>
      <trkpt lat="58.63737096078694" lon="13.561695953831077">
        <ele>64.08</ele>
        <time>2025-02-11T08:02:01.577Z</time>
      </trkpt>
      <trkpt lat="58.63743499852717" lon="13.5617689602077">
        <ele>64.14</ele>
        <time>2025-02-11T08:02:43.712Z</time>
      </trkpt>
      <trkpt lat="58.63749694079161" lon="13.561846995726228">
        <ele>64.21</ele>
        <time>2025-02-11T08:03:25.848Z</time>
      </trkpt>
      <trkpt lat="58.637556955218315" lon="13.561924947425723">
        <ele>64.27</ele>
        <time>2025-02-11T08:04:07.985Z</time>
      </trkpt>
      <trkpt lat="58.63761495798826" lon="13.562000971287489">
        <ele>64.34</ele>
        <time>2025-02-11T08:04:50.123Z</time>
      </trkpt>
      <trkpt lat="58.63767094910145" lon="13.562082946300507">
        <ele>64.41</ele>
        <time>2025-02-11T08:05:32.262Z</time>
      </trkpt>
      <trkpt lat="58.63772291690111" lon="13.56217397376895">
        <ele>64.48</ele>
        <time>2025-02-11T08:06:14.402Z</time>
      </trkpt>
      <trkpt lat="58.63777496851981" lon="13.562262989580631">
        <ele>64.55</ele>
        <time>2025-02-11T08:06:56.543Z</time>
      </trkpt>
      <trkpt lat="58.63782693631947" lon="13.562353933230042">
        <ele>64.61</ele>
        <time>2025-02-11T08:07:38.686Z</time>
      </trkpt>
      <trkpt lat="58.637878987938166" lon="13.562447978183627">
        <ele>64.67</ele>
        <time>2025-02-11T08:08:20.830Z</time>
      </trkpt>
      <trkpt lat="58.63792894408107" lon="13.562547974288464">
        <ele>64.73</ele>
        <time>2025-02-11T08:09:02.975Z</time>
      </trkpt>
      <trkpt lat="58.63797697238624" lon="13.562645958736539">
        <ele>64.78</ele>
        <time>2025-02-11T08:09:45.121Z</time>
      </trkpt>
      <trkpt lat="58.638027934357524" lon="13.562739919871092">
        <ele>64.84</ele>
        <time>2025-02-11T08:10:27.268Z</time>
      </trkpt>
      <trkpt lat="58.63807898014784" lon="13.562832958996296">
        <ele>64.89</ele>
        <time>2025-02-11T08:11:09.416Z</time>
      </trkpt>
      <trkpt lat="58.63812893629074" lon="13.562921974807978">
        <ele>64.94</ele>
        <time>2025-02-11T08:11:51.565Z</time>
      </trkpt>
      <trkpt lat="58.638179982081056" lon="13.563005961477757">
        <ele>64.99</ele>
        <time>2025-02-11T08:12:33.715Z</time>
      </trkpt>
      <trkpt lat="58.638226920738816" lon="13.563090953975916">
        <ele>65.04</ele>
        <time>2025-02-11T08:13:15.866Z</time>
      </trkpt>
      <trkpt lat="58.63827494904399" lon="13.563178963959217">
        <ele>65.08</ele>
        <time>2025-02-11T08:13:58.018Z</time>
      </trkpt>
      <trkpt lat="58.6383209656924" lon="13.563265968114138">
        <ele>65.13</ele>
        <time>2025-02-11T08:14:40.172Z</time>
      </trkpt>
      <trkpt lat="58.63836295902729" lon="13.563352972269058">
        <ele>65.18</ele>
        <time>2025-02-11T08:15:22.327Z</time>
      </trkpt>
      <trkpt lat="58.63840193487704" lon="13.563431929796934">
        <ele>65.23</ele>
        <time>2025-02-11T08:16:04.482Z</time>
      </trkpt>
      <trkpt lat="58.63844292238355" lon="13.563505942001939">
        <ele>65.28</ele>
        <time>2025-02-11T08:16:46.638Z</time>
      </trkpt>
      <trkpt lat="58.638481982052326" lon="13.563582971692085">
        <ele>65.33</ele>
        <time>2025-02-11T08:17:28.795Z</time>
      </trkpt>
      <trkpt lat="58.638522969558835" lon="13.563663940876722">
        <ele>65.37</ele>
        <time>2025-02-11T08:18:10.953Z</time>
      </trkpt>
      <trkpt lat="58.638565968722105" lon="13.563745999708772">
        <ele>65.42</ele>
        <time>2025-02-11T08:18:53.112Z</time>
      </trkpt>
      <trkpt lat="58.638609973713756" lon="13.563825963065028">
        <ele>65.47</ele>
        <time>2025-02-11T08:19:35.272Z</time>
      </trkpt>
      <trkpt lat="58.63865498453379" lon="13.563911961391568">
        <ele>65.52</ele>
        <time>2025-02-11T08:20:17.433Z</time>
      </trkpt>
      <trkpt lat="58.638696977868676" lon="13.56399997137487">
        <ele>65.57</ele>
        <time>2025-02-11T08:20:59.595Z</time>
      </trkpt>
      <trkpt lat="58.63874098286033" lon="13.56408798135817">
        <ele>65.62</ele>
        <time>2025-02-11T08:21:41.758Z</time>
      </trkpt>
      <trkpt lat="58.63878892734647" lon="13.564180936664343">
        <ele>65.67</ele>
        <time>2025-02-11T08:22:23.922Z</time>
      </trkpt>
      <trkpt lat="58.63884097896516" lon="13.564279926940799">
        <ele>65.73</ele>
        <time>2025-02-11T08:23:06.087Z</time>
      </trkpt>
      <trkpt lat="58.63889495842159" lon="13.564377995207906">
        <ele>65.78</ele>
        <time>2025-02-11T08:23:48.254Z</time>
      </trkpt>
      <trkpt lat="58.638950949534774" lon="13.56447396799922">
        <ele>65.83</ele>
        <time>2025-02-11T08:24:30.422Z</time>
      </trkpt>
      <trkpt lat="58.63900895230472" lon="13.564575975760818">
        <ele>65.87</ele>
        <time>2025-02-11T08:25:12.591Z</time>
      </trkpt>
      <trkpt lat="58.63906594924629" lon="13.564683934673667">
        <ele>65.91</ele>
        <time>2025-02-11T08:25:54.761Z</time>
      </trkpt>
      <trkpt lat="58.639124957844615" lon="13.56479398906231">
        <ele>65.95</ele>
        <time>2025-02-11T08:26:36.933Z</time>
      </trkpt>
      <trkpt lat="58.639189917594194" lon="13.564907982945442">
        <ele>66.0</ele>
        <time>2025-02-11T08:27:19.106Z</time>
      </trkpt>
      <trkpt lat="58.63925697281957" lon="13.565027927979827">
        <ele>66.04</ele>
        <time>2025-02-11T08:28:01.281Z</time>
      </trkpt>
      <trkpt lat="58.639321932569146" lon="13.565147956833243">
        <ele>66.08</ele>
        <time>2025-02-11T08:28:43.457Z</time>
      </trkpt>
      <trkpt lat="58.63939192146063" lon="13.565272931009531">
        <ele>66.12</ele>
        <time>2025-02-11T08:29:25.635Z</time>
      </trkpt>
      <trkpt lat="58.63946392200887" lon="13.56539798900485">
        <ele>66.16</ele>
        <time>2025-02-11T08:30:07.814Z</time>
      </trkpt>
      <trkpt lat="58.639535922557116" lon="13.565521957352757">
        <ele>66.2</ele>
        <time>2025-02-11T08:30:49.995Z</time>
      </trkpt>
      <trkpt lat="58.6396109405905" lon="13.565645925700665">
        <ele>66.25</ele>
        <time>2025-02-11T08:31:32.177Z</time>
      </trkpt>
      <trkpt lat="58.63968092948198" lon="13.565769977867603">
        <ele>66.3</ele>
        <time>2025-02-11T08:32:14.361Z</time>
      </trkpt>
      <trkpt lat="58.639748990535736" lon="13.565894952043891">
        <ele>66.35</ele>
        <time>2025-02-11T08:32:56.546Z</time>
      </trkpt>
      <trkpt lat="58.6398199852556" lon="13.56602193787694">
        <ele>66.4</ele>
        <time>2025-02-11T08:33:38.733Z</time>
      </trkpt>
      <trkpt lat="58.63988695666194" lon="13.566145990043879">
        <ele>66.45</ele>
        <time>2025-02-11T08:34:20.921Z</time>
      </trkpt>
      <trkpt lat="58.63995392806828" lon="13.566266940906644">
        <ele>66.49</ele>
        <time>2025-02-11T08:35:03.111Z</time>
      </trkpt>
      <trkpt lat="58.640022994950414" lon="13.566379928961396">
        <ele>66.54</ele>
        <time>2025-02-11T08:35:45.302Z</time>
      </trkpt>
      <trkpt lat="58.64009398967028" lon="13.566488977521658">
        <ele>66.59</ele>
        <time>2025-02-11T08:36:27.495Z</time>
      </trkpt>
      <trkpt lat="58.64016297273338" lon="13.566587967798114">
        <ele>66.64</ele>
        <time>2025-02-11T08:37:09.689Z</time>
      </trkpt>
      <trkpt lat="58.64023396745324" lon="13.566679917275906">
        <ele>66.69</ele>
        <time>2025-02-11T08:37:51.884Z</time>
      </trkpt>
      <trkpt lat="58.640304962173104" lon="13.566769938915968">
        <ele>66.73</ele>
        <time>2025-02-11T08:38:34.081Z</time>
      </trkpt>
      <trkpt lat="58.64037495106459" lon="13.566853925585747">
        <ele>66.78</ele>
        <time>2025-02-11T08:39:16.279Z</time>
      </trkpt>
      <trkpt lat="58.64044493995607" lon="13.566931961104274">
        <ele>66.83</ele>
        <time>2025-02-11T08:39:58.478Z</time>
      </trkpt>
      <trkpt lat="58.640519957989454" lon="13.567006979137659">
        <ele>66.87</ele>
        <time>2025-02-11T08:40:40.679Z</time>
      </trkpt>
      <trkpt lat="58.6405919585377" lon="13.56707596220076">
        <ele>66.92</ele>
        <time>2025-02-11T08:41:22.881Z</time>
      </trkpt>
      <trkpt lat="58.64066395908594" lon="13.56713899411261">
        <ele>66.97</ele>
        <time>2025-02-11T08:42:05.084Z</time>
      </trkpt>
      <trkpt lat="58.640734953805804" lon="13.567200936377048">
        <ele>67.02</ele>
        <time>2025-02-11T08:42:47.289Z</time>
      </trkpt>
      <trkpt lat="58.64080796018243" lon="13.567263968288898">
        <ele>67.08</ele>
        <time>2025-02-11T08:43:29.495Z</time>
      </trkpt>
      <trkpt lat="58.64088096655905" lon="13.567322976887226">
        <ele>67.13</ele>
        <time>2025-02-11T08:44:11.702Z</time>
      </trkpt>
      <trkpt lat="58.64096092991531" lon="13.567384919151664">
        <ele>67.18</ele>
        <time>2025-02-11T08:44:53.911Z</time>
      </trkpt>
      <trkpt lat="58.641038965433836" lon="13.567447951063514">
        <ele>67.23</ele>
        <time>2025-02-11T08:45:36.121Z</time>
      </trkpt>
      <trkpt lat="58.64111892879009" lon="13.567506959661841">
        <ele>67.28</ele>
        <time>2025-02-11T08:46:18.332Z</time>
      </trkpt>
      <trkpt lat="58.6412029992789" lon="13.567564962431788">
        <ele>67.33</ele>
        <time>2025-02-11T08:47:00.545Z</time>
      </trkpt>
      <trkpt lat="58.64129092544317" lon="13.567613996565342">
        <ele>67.39</ele>
        <time>2025-02-11T08:47:42.759Z</time>
      </trkpt>
      <trkpt lat="58.641378935426474" lon="13.567665964365005">
        <ele>67.44</ele>
        <time>2025-02-11T08:48:24.975Z</time>
      </trkpt>
      <trkpt lat="58.641466945409775" lon="13.567715920507908">
        <ele>67.5</ele>
        <time>2025-02-11T08:49:07.192Z</time>
      </trkpt>
      <trkpt lat="58.641553949564695" lon="13.567765960469842">
        <ele>67.56</ele>
        <time>2025-02-11T08:49:49.411Z</time>
      </trkpt>
      <trkpt lat="58.641639947891235" lon="13.567814994603395">
        <ele>67.63</ele>
        <time>2025-02-11T08:50:31.631Z</time>
      </trkpt>
      <trkpt lat="58.641724940389395" lon="13.567864950746298">
        <ele>67.69</ele>
        <time>2025-02-11T08:51:13.852Z</time>
      </trkpt>
      <trkpt lat="58.64180599339306" lon="13.567920941859484">
        <ele>67.76</ele>
        <time>2025-02-11T08:51:56.075Z</time>
      </trkpt>
      <trkpt lat="58.64188495092094" lon="13.56797399930656">
        <ele>67.84</ele>
        <time>2025-02-11T08:52:38.299Z</time>
      </trkpt>
      <trkpt lat="58.641960974782705" lon="13.568027978762984">
        <ele>67.91</ele>
        <time>2025-02-11T08:53:20.524Z</time>
      </trkpt>
      <trkpt lat="58.64203498698771" lon="13.56808497570455">
        <ele>67.98</ele>
        <time>2025-02-11T08:54:02.751Z</time>
      </trkpt>
      <trkpt lat="58.64210598170757" lon="13.56814599595964">
        <ele>68.05</ele>
        <time>2025-02-11T08:54:44.979Z</time>
      </trkpt>
      <trkpt lat="58.642175970599055" lon="13.568205926567316">
        <ele>68.13</ele>
        <time>2025-02-11T08:55:27.208Z</time>
      </trkpt>
      <trkpt lat="58.642242942005396" lon="13.568265940994024">
        <ele>68.2</ele>
        <time>2025-02-11T08:56:09.438Z</time>
      </trkpt>
      <trkpt lat="58.64230798557401" lon="13.568323943763971">
        <ele>68.28</ele>
        <time>2025-02-11T08:56:51.670Z</time>
      </trkpt>
      <trkpt lat="58.642371939495206" lon="13.568382952362299">
        <ele>68.35</ele>
        <time>2025-02-11T08:57:33.903Z</time>
      </trkpt>
      <trkpt lat="58.642433965578675" lon="13.568443972617388">
        <ele>68.43</ele>
        <time>2025-02-11T08:58:16.137Z</time>
      </trkpt>
      <trkpt lat="58.64249398000538" lon="13.568503987044096">
        <ele>68.5</ele>
        <time>2025-02-11T08:58:58.372Z</time>
      </trkpt>
      <trkpt lat="58.64255097694695" lon="13.568568946793675">
        <ele>68.58</ele>
        <time>2025-02-11T08:59:40.608Z</time>
      </trkpt>
      <trkpt lat="58.642604956403375" lon="13.568634996190667">
        <ele>68.66</ele>
        <time>2025-02-11T09:00:22.845Z</time>
      </trkpt>
      <trkpt lat="58.64265994168818" lon="13.568698950111866">
        <ele>68.74</ele>
        <time>2025-02-11T09:01:05.083Z</time>
      </trkpt>
      <trkpt lat="58.642714926972985" lon="13.568763993680477">
        <ele>68.81</ele>
        <time>2025-02-11T09:01:47.322Z</time>
      </trkpt>
      <trkpt lat="58.64276798442006" lon="13.568827947601676">
        <ele>68.89</ele>
        <time>2025-02-11T09:02:29.562Z</time>
      </trkpt>
      <trkpt lat="58.642819952219725" lon="13.568891985341907">
        <ele>68.97</ele>
        <time>2025-02-11T09:03:11.803Z</time>
      </trkpt>
      <trkpt lat="58.64287192001939" lon="13.568957950919867">
        <ele>69.05</ele>
        <time>2025-02-11T09:03:54.045Z</time>
      </trkpt>
      <trkpt lat="58.64292397163808" lon="13.569022994488478">
        <ele>69.13</ele>
        <time>2025-02-11T09:04:36.288Z</time>
      </trkpt>
      <trkpt lat="58.642974933609366" lon="13.569083930924535">
        <ele>69.21</ele>
        <time>2025-02-11T09:05:18.532Z</time>
      </trkpt>
      <trkpt lat="58.64302698522806" lon="13.569144951179624">
        <ele>69.29</ele>
        <time>2025-02-11T09:06:00.777Z</time>
      </trkpt>
      <trkpt lat="58.643078953027725" lon="13.569205971434712">
        <ele>69.36</ele>
        <time>2025-02-11T09:06:43.023Z</time>
      </trkpt>
      <trkpt lat="58.64313293248415" lon="13.56926891952753">
        <ele>69.44</ele>
        <time>2025-02-11T09:07:25.270Z</time>
      </trkpt>
      <trkpt lat="58.643182972446084" lon="13.569330945611">
        <ele>69.52</ele>
        <time>2025-02-11T09:08:07.518Z</time>
      </trkpt>
      <trkpt lat="58.64323494024575" lon="13.56939297169447">
        <ele>69.59</ele>
        <time>2025-02-11T09:08:49.767Z</time>
      </trkpt>
      <trkpt lat="58.64328992553055" lon="13.569454997777939">
        <ele>69.67</ele>
        <time>2025-02-11T09:09:32.017Z</time>
      </trkpt>
      <trkpt lat="58.64334499463439" lon="13.569516940042377">
        <ele>69.75</ele>
        <time>2025-02-11T09:10:14.268Z</time>
      </trkpt>
      <trkpt lat="58.643400985747576" lon="13.569580977782607">
        <ele>69.82</ele>
        <time>2025-02-11T09:10:56.520Z</time>
      </trkpt>
      <trkpt lat="58.64345697686076" lon="13.569645937532187">
        <ele>69.89</ele>
        <time>2025-02-11T09:11:38.773Z</time>
      </trkpt>
      <trkpt lat="58.643510956317186" lon="13.569710981100798">
        <ele>69.96</ele>
        <time>2025-02-11T09:12:21.027Z</time>
      </trkpt>
      <trkpt lat="58.64356493577361" lon="13.56978096999228">
        <ele>70.02</ele>
        <time>2025-02-11T09:13:03.282Z</time>
      </trkpt>
      <trkpt lat="58.6436209268868" lon="13.569849953055382">
        <ele>70.09</ele>
        <time>2025-02-11T09:13:45.538Z</time>
      </trkpt>
      <trkpt lat="58.643679935485125" lon="13.569917930290103">
        <ele>70.16</ele>
        <time>2025-02-11T09:14:27.795Z</time>
      </trkpt>
      <trkpt lat="58.643742967396975" lon="13.569993954151869">
        <ele>70.23</ele>
        <time>2025-02-11T09:15:10.054Z</time>
      </trkpt>
      <trkpt lat="58.643809938803315" lon="13.570073917508125">
        <ele>70.29</ele>
        <time>2025-02-11T09:15:52.314Z</time>
      </trkpt>
      <trkpt lat="58.64387799985707" lon="13.570154970511794">
        <ele>70.36</ele>
        <time>2025-02-11T09:16:34.575Z</time>
      </trkpt>
      <trkpt lat="58.64394698292017" lon="13.570241974666715">
        <ele>70.42</ele>
        <time>2025-02-11T09:17:16.837Z</time>
      </trkpt>
      <trkpt lat="58.64401697181165" lon="13.570333924144506">
        <ele>70.49</ele>
        <time>2025-02-11T09:17:59.101Z</time>
      </trkpt>
      <trkpt lat="58.644088972359896" lon="13.570431992411613">
        <ele>70.56</ele>
        <time>2025-02-11T09:18:41.366Z</time>
      </trkpt>
      <trkpt lat="58.64416097290814" lon="13.57053098268807">
        <ele>70.63</ele>
        <time>2025-02-11T09:19:23.633Z</time>
      </trkpt>
      <trkpt lat="58.64422995597124" lon="13.570633996278048">
        <ele>70.7</ele>
        <time>2025-02-11T09:20:05.901Z</time>
      </trkpt>
      <trkpt lat="58.64429893903434" lon="13.570740949362516">
        <ele>70.77</ele>
        <time>2025-02-11T09:20:48.170Z</time>
      </trkpt>
      <trkpt lat="58.644366916269064" lon="13.570846980437636">
        <ele>70.83</ele>
        <time>2025-02-11T09:21:30.441Z</time>
      </trkpt>
      <trkpt lat="58.64442793652415" lon="13.570954939350486">
        <ele>70.9</ele>
        <time>2025-02-11T09:22:12.713Z</time>
      </trkpt>
      <trkpt lat="58.64448795095086" lon="13.571065999567509">
        <ele>70.96</ele>
        <time>2025-02-11T09:22:54.986Z</time>
      </trkpt>
      <trkpt lat="58.644542936235666" lon="13.571179993450642">
        <ele>71.03</ele>
        <time>2025-02-11T09:23:37.261Z</time>
      </trkpt>
      <trkpt lat="58.64459699951112" lon="13.571297926828265">
        <ele>71.09</ele>
        <time>2025-02-11T09:24:19.537Z</time>
      </trkpt>
      <trkpt lat="58.64465491846204" lon="13.571416949853301">
        <ele>71.16</ele>
        <time>2025-02-11T09:25:01.814Z</time>
      </trkpt>
      <trkpt lat="58.644712921231985" lon="13.571534967049956">
        <ele>71.23</ele>
        <time>2025-02-11T09:25:44.093Z</time>
      </trkpt>
      <trkpt lat="58.64477092400193" lon="13.57165097258985">
        <ele>71.29</ele>
        <time>2025-02-11T09:26:26.373Z</time>
      </trkpt>
      <trkpt lat="58.64482699893415" lon="13.571762954816222">
        <ele>71.36</ele>
        <time>2025-02-11T09:27:08.654Z</time>
      </trkpt>
      <trkpt lat="58.644882990047336" lon="13.571870997548103">
        <ele>71.43</ele>
        <time>2025-02-11T09:27:50.937Z</time>
      </trkpt>
      <trkpt lat="58.64493596367538" lon="13.571975938975811">
        <ele>71.49</ele>
        <time>2025-02-11T09:28:33.221Z</time>
      </trkpt>
      <trkpt lat="58.64498793147504" lon="13.572075935080647">
        <ele>71.56</ele>
        <time>2025-02-11T09:29:15.506Z</time>
      </trkpt>
      <trkpt lat="58.6450369656086" lon="13.572172997519374">
        <ele>71.62</ele>
        <time>2025-02-11T09:29:57.792Z</time>
      </trkpt>
      <trkpt lat="58.64508499391377" lon="13.572267964482307">
        <ele>71.68</ele>
        <time>2025-02-11T09:30:40.079Z</time>
      </trkpt>
      <trkpt lat="58.64513293839991" lon="13.572364943102002">
        <ele>71.74</ele>
        <time>2025-02-11T09:31:22.368Z</time>
      </trkpt>
      <trkpt lat="58.645180966705084" lon="13.572458988055587">
        <ele>71.79</ele>
        <time>2025-02-11T09:32:04.658Z</time>
      </trkpt>
      <trkpt lat="58.64523192867637" lon="13.57255395501852">
        <ele>71.85</ele>
        <time>2025-02-11T09:32:46.949Z</time>
      </trkpt>
      <trkpt lat="58.64528398029506" lon="13.572647999972105">
        <ele>71.9</ele>
        <time>2025-02-11T09:33:29.241Z</time>
      </trkpt>
      <trkpt lat="58.645332930609584" lon="13.572739949449897">
        <ele>71.96</ele>
        <time>2025-02-11T09:34:11.534Z</time>
      </trkpt>
      <trkpt lat="58.645379953086376" lon="13.57282997108996">
        <ele>72.01</ele>
        <time>2025-02-11T09:34:53.828Z</time>
      </trkpt>
      <trkpt lat="58.64543594419956" lon="13.572926949709654">
        <ele>72.05</ele>
        <time>2025-02-11T09:35:36.123Z</time>
      </trkpt>
      <trkpt lat="58.64549897611141" lon="13.57302593998611">
        <ele>72.1</ele>
        <time>2025-02-11T09:36:18.420Z</time>
      </trkpt>
      <trkpt lat="58.6455599963665" lon="13.573123924434185">
        <ele>72.14</ele>
        <time>2025-02-11T09:37:00.718Z</time>
      </trkpt>
      <trkpt lat="58.64562596194446" lon="13.573228949680924">
        <ele>72.19</ele>
        <time>2025-02-11T09:37:43.017Z</time>
      </trkpt>
      <trkpt lat="58.64568999968469" lon="13.573340931907296">
        <ele>72.23</ele>
        <time>2025-02-11T09:38:25.318Z</time>
      </trkpt>
      <trkpt lat="58.64575898274779" lon="13.573459954932332">
        <ele>72.27</ele>
        <time>2025-02-11T09:39:07.620Z</time>
      </trkpt>
      <trkpt lat="58.645828971639276" lon="13.573575960472226">
        <ele>72.3</ele>
        <time>2025-02-11T09:39:49.924Z</time>
      </trkpt>
      <trkpt lat="58.64589996635914" lon="13.573686936870217">
        <ele>72.34</ele>
        <time>2025-02-11T09:40:32.229Z</time>
      </trkpt>
      <trkpt lat="58.64597196690738" lon="13.573798919096589">
        <ele>72.36</ele>
        <time>2025-02-11T09:41:14.536Z</time>
      </trkpt>
      <trkpt lat="58.646043967455626" lon="13.573910985141993">
        <ele>72.39</ele>
        <time>2025-02-11T09:41:56.844Z</time>
      </trkpt>
      <trkpt lat="58.64611496217549" lon="13.574025984853506">
        <ele>72.41</ele>
        <time>2025-02-11T09:42:39.154Z</time>
      </trkpt>
      <trkpt lat="58.64618495106697" lon="13.57414299622178">
        <ele>72.44</ele>
        <time>2025-02-11T09:43:21.465Z</time>
      </trkpt>
      <trkpt lat="58.64625393413007" lon="13.574256990104914">
        <ele>72.45</ele>
        <time>2025-02-11T09:44:03.777Z</time>
      </trkpt>
      <trkpt lat="58.646321995183825" lon="13.574367966502905">
        <ele>72.47</ele>
        <time>2025-02-11T09:44:46.091Z</time>
      </trkpt>
      <trkpt lat="58.64639097824693" lon="13.574481960386038">
        <ele>72.48</ele>
        <time>2025-02-11T09:45:28.406Z</time>
      </trkpt>
      <trkpt lat="58.64646297879517" lon="13.57459595426917">
        <ele>72.5</ele>
        <time>2025-02-11T09:46:10.723Z</time>
      </trkpt>
      <trkpt lat="58.64653296768665" lon="13.574708942323923">
        <ele>72.51</ele>
        <time>2025-02-11T09:46:53.041Z</time>
      </trkpt>
      <trkpt lat="58.646601950749755" lon="13.574820924550295">
        <ele>72.52</ele>
        <time>2025-02-11T09:47:35.361Z</time>
      </trkpt>
      <trkpt lat="58.646668922156096" lon="13.574933996424079">
        <ele>72.53</ele>
        <time>2025-02-11T09:48:17.682Z</time>
      </trkpt>
      <trkpt lat="58.64673899486661" lon="13.575047990307212">
        <ele>72.54</ele>
        <time>2025-02-11T09:49:00.005Z</time>
      </trkpt>
      <trkpt lat="58.64680797792971" lon="13.575160978361964">
        <ele>72.55</ele>
        <time>2025-02-11T09:49:42.329Z</time>
      </trkpt>
      <trkpt lat="58.64687696099281" lon="13.575270948931575">
        <ele>72.56</ele>
        <time>2025-02-11T09:50:24.655Z</time>
      </trkpt>
      <trkpt lat="58.646943932399154" lon="13.575378991663456">
        <ele>72.57</ele>
        <time>2025-02-11T09:51:06.982Z</time>
      </trkpt>
      <trkpt lat="58.647008975967765" lon="13.575484938919544">
        <ele>72.58</ele>
        <time>2025-02-11T09:51:49.310Z</time>
      </trkpt>
      <trkpt lat="58.647075947374105" lon="13.575587952509522">
        <ele>72.58</ele>
        <time>2025-02-11T09:52:31.640Z</time>
      </trkpt>
      <trkpt lat="58.647142918780446" lon="13.5756909660995">
        <ele>72.58</ele>
        <time>2025-02-11T09:53:13.971Z</time>
      </trkpt>
      <trkpt lat="58.64720997400582" lon="13.575789956375957">
        <ele>72.57</ele>
        <time>2025-02-11T09:53:56.303Z</time>
      </trkpt>
      <trkpt lat="58.64727795124054" lon="13.575886934995651">
        <ele>72.56</ele>
        <time>2025-02-11T09:54:38.637Z</time>
      </trkpt>
      <trkpt lat="58.64734995178878" lon="13.575976956635714">
        <ele>72.55</ele>
        <time>2025-02-11T09:55:20.972Z</time>
      </trkpt>
      <trkpt lat="58.64742295816541" lon="13.576064966619015">
        <ele>72.53</ele>
        <time>2025-02-11T09:56:03.309Z</time>
      </trkpt>
      <trkpt lat="58.64749395288527" lon="13.576145935803652">
        <ele>72.52</ele>
        <time>2025-02-11T09:56:45.647Z</time>
      </trkpt>
      <trkpt lat="58.64756193011999" lon="13.576227994635701">
        <ele>72.5</ele>
        <time>2025-02-11T09:57:27.986Z</time>
      </trkpt>
      <trkpt lat="58.647633930668235" lon="13.576307957991958">
        <ele>72.49</ele>
        <time>2025-02-11T09:58:10.327Z</time>
      </trkpt>
      <trkpt lat="58.64771096035838" lon="13.576386999338865">
        <ele>72.48</ele>
        <time>2025-02-11T09:58:52.669Z</time>
      </trkpt>
      <trkpt lat="58.64779192954302" lon="13.576458999887109">
        <ele>72.46</ele>
        <time>2025-02-11T09:59:35.012Z</time>
      </trkpt>
      <trkpt lat="58.64787499420345" lon="13.576529994606972">
        <ele>72.44</ele>
        <time>2025-02-11T10:00:17.357Z</time>
      </trkpt>
      <trkpt lat="58.64795797504485" lon="13.576602917164564">
        <ele>72.41</ele>
        <time>2025-02-11T10:00:59.703Z</time>
      </trkpt>
      <trkpt lat="58.648040955886245" lon="13.576668966561556">
        <ele>72.39</ele>
        <time>2025-02-11T10:01:42.051Z</time>
      </trkpt>
      <trkpt lat="58.648126954212785" lon="13.576732920482755">
        <ele>72.36</ele>
        <time>2025-02-11T10:02:24.400Z</time>
      </trkpt>
      <trkpt lat="58.64820498973131" lon="13.576797964051366">
        <ele>72.33</ele>
        <time>2025-02-11T10:03:06.751Z</time>
      </trkpt>
      <trkpt lat="58.64828294143081" lon="13.576856972649693">
        <ele>72.3</ele>
        <time>2025-02-11T10:03:49.103Z</time>
      </trkpt>
      <trkpt lat="58.648364916443825" lon="13.576911957934499">
        <ele>72.27</ele>
        <time>2025-02-11T10:04:31.456Z</time>
      </trkpt>
      <trkpt lat="58.64844295196235" lon="13.576962919905782">
        <ele>72.22</ele>
        <time>2025-02-11T10:05:13.811Z</time>
      </trkpt>
      <trkpt lat="58.64852199330926" lon="13.577016983181238">
        <ele>72.17</ele>
        <time>2025-02-11T10:05:56.167Z</time>
      </trkpt>
      <trkpt lat="58.64860396832228" lon="13.577068950980902">
        <ele>72.12</ele>
        <time>2025-02-11T10:06:38.524Z</time>
      </trkpt>
      <trkpt lat="58.648686949163675" lon="13.577113961800933">
        <ele>72.06</ele>
        <time>2025-02-11T10:07:20.883Z</time>
      </trkpt>
      <trkpt lat="58.648772947490215" lon="13.577157966792583">
        <ele>71.99</ele>
        <time>2025-02-11T10:08:03.243Z</time>
      </trkpt>
      <trkpt lat="58.648856934159994" lon="13.577196942642331">
        <ele>71.92</ele>
        <time>2025-02-11T10:08:45.605Z</time>
      </trkpt>
      <trkpt lat="58.648942932486534" lon="13.577230973169208">
        <ele>71.85</ele>
        <time>2025-02-11T10:09:27.968Z</time>
      </trkpt>
      <trkpt lat="58.649028930813074" lon="13.5772589687258">
        <ele>71.79</ele>
        <time>2025-02-11T10:10:10.332Z</time>
      </trkpt>
      <trkpt lat="58.649114929139614" lon="13.57728193514049">
        <ele>71.72</ele>
        <time>2025-02-11T10:10:52.698Z</time>
      </trkpt>
      <trkpt lat="58.649200927466154" lon="13.577302973717451">
        <ele>71.65</ele>
        <time>2025-02-11T10:11:35.065Z</time>
      </trkpt>
      <trkpt lat="58.649288937449455" lon="13.577318983152509">
        <ele>71.58</ele>
        <time>2025-02-11T10:12:17.434Z</time>
      </trkpt>
      <trkpt lat="58.649376947432756" lon="13.577336920425296">
        <ele>71.5</ele>
        <time>2025-02-11T10:12:59.804Z</time>
      </trkpt>
      <trkpt lat="58.64946898072958" lon="13.577349996194243">
        <ele>71.43</ele>
        <time>2025-02-11T10:13:42.175Z</time>
      </trkpt>
      <trkpt lat="58.64955992437899" lon="13.577361982315779">
        <ele>71.35</ele>
        <time>2025-02-11T10:14:24.548Z</time>
      </trkpt>
      <trkpt lat="58.64965698681772" lon="13.57736793346703">
        <ele>71.27</ele>
        <time>2025-02-11T10:15:06.922Z</time>
      </trkpt>
      <trkpt lat="58.64975396543741" lon="13.577370950952172">
        <ele>71.19</ele>
        <time>2025-02-11T10:15:49.298Z</time>
      </trkpt>
      <trkpt lat="58.64985094405711" lon="13.577373968437314">
        <ele>71.1</ele>
        <time>2025-02-11T10:16:31.676Z</time>
      </trkpt>
      <trkpt lat="58.64995094016194" lon="13.577372962608933">
        <ele>71.01</ele>
        <time>2025-02-11T10:17:14.055Z</time>
      </trkpt>
      <trkpt lat="58.6500499304384" lon="13.57736793346703">
        <ele>70.92</ele>
        <time>2025-02-11T10:17:56.436Z</time>
      </trkpt>
      <trkpt lat="58.650145987048745" lon="13.57736399397254">
        <ele>70.83</ele>
        <time>2025-02-11T10:18:38.818Z</time>
      </trkpt>
      <trkpt lat="58.65024095401168" lon="13.57736298814416">
        <ele>70.72</ele>
        <time>2025-02-11T10:19:21.202Z</time>
      </trkpt>
      <trkpt lat="58.65033499896526" lon="13.577361982315779">
        <ele>70.62</ele>
        <time>2025-02-11T10:20:03.587Z</time>
      </trkpt>
      <trkpt lat="58.65042393095791" lon="13.577359970659018">
        <ele>70.52</ele>
        <time>2025-02-11T10:20:45.974Z</time>
      </trkpt>
      <trkpt lat="58.650511940941215" lon="13.577360976487398">
        <ele>70.41</ele>
        <time>2025-02-11T10:21:28.362Z</time>
      </trkpt>
      <trkpt lat="58.650597939267755" lon="13.577357959002256">
        <ele>70.3</ele>
        <time>2025-02-11T10:22:10.752Z</time>
      </trkpt>
      <trkpt lat="58.650684943422675" lon="13.577355947345495">
        <ele>70.19</ele>
        <time>2025-02-11T10:22:53.143Z</time>
      </trkpt>
      <trkpt lat="58.650770941749215" lon="13.577351924031973">
        <ele>70.08</ele>
        <time>2025-02-11T10:23:35.535Z</time>
      </trkpt>
      <trkpt lat="58.650854928418994" lon="13.577347984537482">
        <ele>69.96</ele>
        <time>2025-02-11T10:24:17.929Z</time>
      </trkpt>
      <trkpt lat="58.650940926745534" lon="13.57734396122396">
        <ele>69.84</ele>
        <time>2025-02-11T10:25:00.324Z</time>
      </trkpt>
      <trkpt lat="58.65102591924369" lon="13.577337926253676">
        <ele>69.71</ele>
        <time>2025-02-11T10:25:42.720Z</time>
      </trkpt>
      <trkpt lat="58.651110995560884" lon="13.577331975102425">
        <ele>69.58</ele>
        <time>2025-02-11T10:26:25.118Z</time>
      </trkpt>
      <trkpt lat="58.6511929705739" lon="13.577329963445663">
        <ele>69.45</ele>
        <time>2025-02-11T10:27:07.517Z</time>
      </trkpt>
      <trkpt lat="58.65127393975854" lon="13.577326945960522">
        <ele>69.32</ele>
        <time>2025-02-11T10:27:49.917Z</time>
      </trkpt>
      <trkpt lat="58.65135599859059" lon="13.577329963445663">
        <ele>69.18</ele>
        <time>2025-02-11T10:28:32.319Z</time>
      </trkpt>
      <trkpt lat="58.65144099108875" lon="13.577328957617283">
        <ele>69.04</ele>
        <time>2025-02-11T10:29:14.722Z</time>
      </trkpt>
      <trkpt lat="58.65152598358691" lon="13.577327951788902">
        <ele>68.89</ele>
        <time>2025-02-11T10:29:57.126Z</time>
      </trkpt>
      <trkpt lat="58.65161399357021" lon="13.57732392847538">
        <ele>68.75</ele>
        <time>2025-02-11T10:30:39.532Z</time>
      </trkpt>
      <trkpt lat="58.65170292556286" lon="13.57732493430376">
        <ele>68.6</ele>
        <time>2025-02-11T10:31:21.939Z</time>
      </trkpt>
      <trkpt lat="58.65179093554616" lon="13.577325940132141">
        <ele>68.44</ele>
        <time>2025-02-11T10:32:04.348Z</time>
      </trkpt>
      <trkpt lat="58.65187793970108" lon="13.577327951788902">
        <ele>68.28</ele>
        <time>2025-02-11T10:32:46.758Z</time>
      </trkpt>
      <trkpt lat="58.65196796134114" lon="13.57732493430376">
        <ele>68.12</ele>
        <time>2025-02-11T10:33:29.170Z</time>
      </trkpt>
      <trkpt lat="58.652058988809586" lon="13.57731998898089">
        <ele>67.96</ele>
        <time>2025-02-11T10:34:11.583Z</time>
      </trkpt>
      <trkpt lat="58.652149932459" lon="13.577317977324128">
        <ele>67.8</ele>
        <time>2025-02-11T10:34:53.997Z</time>
      </trkpt>
      <trkpt lat="58.6522429715842" lon="13.577316971495748">
        <ele>67.64</ele>
        <time>2025-02-11T10:35:36.413Z</time>
      </trkpt>
      <trkpt lat="58.652333999052644" lon="13.577318983152509">
        <ele>67.48</ele>
        <time>2025-02-11T10:36:18.830Z</time>
      </trkpt>
      <trkpt lat="58.652425948530436" lon="13.577315965667367">
        <ele>67.31</ele>
        <time>2025-02-11T10:37:01.249Z</time>
      </trkpt>
      <trkpt lat="58.65251798182726" lon="13.577310936525464">
        <ele>67.14</ele>
        <time>2025-02-11T10:37:43.669Z</time>
      </trkpt>
      <trkpt lat="58.65260993130505" lon="13.57730096206069">
        <ele>66.97</ele>
        <time>2025-02-11T10:38:26.091Z</time>
      </trkpt>
      <trkpt lat="58.652701964601874" lon="13.577291993424296">
        <ele>66.8</ele>
        <time>2025-02-11T10:39:08.514Z</time>
      </trkpt>
      <trkpt lat="58.65279491990805" lon="13.57728193514049">
        <ele>66.63</ele>
        <time>2025-02-11T10:39:50.939Z</time>
      </trkpt>
      <trkpt lat="58.65288594737649" lon="13.57727698981762">
        <ele>66.45</ele>
        <time>2025-02-11T10:40:33.365Z</time>
      </trkpt>
      <trkpt lat="58.652979992330074" lon="13.577271960675716">
        <ele>66.27</ele>
        <time>2025-02-11T10:41:15.793Z</time>
      </trkpt>
      <trkpt lat="58.65307294763625" lon="13.577268943190575">
        <ele>66.09</ele>
        <time>2025-02-11T10:41:58.222Z</time>
      </trkpt>
      <trkpt lat="58.65316498093307" lon="13.577265925705433">
        <ele>65.9</ele>
        <time>2025-02-11T10:42:40.653Z</time>
      </trkpt>
      <trkpt lat="58.65325693041086" lon="13.577262992039323">
        <ele>65.72</ele>
        <time>2025-02-11T10:43:23.085Z</time>
      </trkpt>
      <trkpt lat="58.65335097536445" lon="13.57725695706904">
        <ele>65.53</ele>
        <time>2025-02-11T10:44:05.519Z</time>
      </trkpt>
      <trkpt lat="58.65344594232738" lon="13.577251927927136">
        <ele>65.33</ele>
        <time>2025-02-11T10:44:47.954Z</time>
      </trkpt>
      <trkpt lat="58.653539987280965" lon="13.577246982604265">
        <ele>65.12</ele>
        <time>2025-02-11T10:45:30.391Z</time>
      </trkpt>
      <trkpt lat="58.65363394841552" lon="13.577244970947504">
        <ele>64.92</ele>
        <time>2025-02-11T10:46:12.829Z</time>
      </trkpt>
      <trkpt lat="58.6537279933691" lon="13.577240947633982">
        <ele>64.71</ele>
        <time>2025-02-11T10:46:55.269Z</time>
      </trkpt>
      <trkpt lat="58.653820948675275" lon="13.577243965119123">
        <ele>64.51</ele>
        <time>2025-02-11T10:47:37.710Z</time>
      </trkpt>
      <trkpt lat="58.65391197614372" lon="13.577249916270375">
        <ele>64.3</ele>
        <time>2025-02-11T10:48:20.153Z</time>
      </trkpt>
      <trkpt lat="58.65400493144989" lon="13.577251927927136">
        <ele>64.11</ele>
        <time>2025-02-11T10:49:02.597Z</time>
      </trkpt>
      <trkpt lat="58.65409495308995" lon="13.577253939583898">
        <ele>63.91</ele>
        <time>2025-02-11T10:49:45.043Z</time>
      </trkpt>
      <trkpt lat="58.654183968901634" lon="13.57725695706904">
        <ele>63.72</ele>
        <time>2025-02-11T10:50:27.490Z</time>
      </trkpt>
      <trkpt lat="58.654272984713316" lon="13.577266931533813">
        <ele>63.53</ele>
        <time>2025-02-11T10:51:09.939Z</time>
      </trkpt>
      <trkpt lat="58.65436392836273" lon="13.577270954847336">
        <ele>63.34</ele>
        <time>2025-02-11T10:51:52.389Z</time>
      </trkpt>
      <trkpt lat="58.65445294417441" lon="13.577272966504097">
        <ele>63.15</ele>
        <time>2025-02-11T10:52:34.840Z</time>
      </trkpt>
      <trkpt lat="58.65454497747123" lon="13.577273972332478">
        <ele>62.97</ele>
        <time>2025-02-11T10:53:17.293Z</time>
      </trkpt>
      <trkpt lat="58.654638938605785" lon="13.577266931533813">
        <ele>62.78</ele>
        <time>2025-02-11T10:53:59.747Z</time>
      </trkpt>
      <trkpt lat="58.65473097190261" lon="13.577260980382562">
        <ele>62.6</ele>
        <time>2025-02-11T10:54:42.203Z</time>
      </trkpt>
      <trkpt lat="58.65482694469392" lon="13.577248994261026">
        <ele>62.41</ele>
        <time>2025-02-11T10:55:24.660Z</time>
      </trkpt>
      <trkpt lat="58.65492098964751" lon="13.57723893597722">
        <ele>62.23</ele>
        <time>2025-02-11T10:56:07.119Z</time>
      </trkpt>
      <trkpt lat="58.65501495078206" lon="13.577232984825969">
        <ele>62.04</ele>
        <time>2025-02-11T10:56:49.579Z</time>
      </trkpt>
      <trkpt lat="58.65510396659374" lon="13.577240947633982">
        <ele>61.86</ele>
        <time>2025-02-11T10:57:32.041Z</time>
      </trkpt>
      <trkpt lat="58.655195999890566" lon="13.57723499648273">
        <ele>61.68</ele>
        <time>2025-02-11T10:58:14.504Z</time>
      </trkpt>
      <trkpt lat="58.65528996102512" lon="13.577227955684066">
        <ele>61.5</ele>
        <time>2025-02-11T10:58:56.969Z</time>
      </trkpt>
      <trkpt lat="58.65538392215967" lon="13.577217981219292">
        <ele>61.33</ele>
        <time>2025-02-11T10:59:39.435Z</time>
      </trkpt>
      <trkpt lat="58.65547796711326" lon="13.577209934592247">
        <ele>61.15</ele>
        <time>2025-02-11T11:00:21.903Z</time>
      </trkpt>
      <trkpt lat="58.65557595156133" lon="13.577201971784234">
        <ele>60.98</ele>
        <time>2025-02-11T11:01:04.372Z</time>
      </trkpt>
      <trkpt lat="58.655670918524265" lon="13.57719593681395">
        <ele>60.81</ele>
        <time>2025-02-11T11:01:46.843Z</time>
      </trkpt>
      <trkpt lat="58.65576596930623" lon="13.577185962349176">
        <ele>60.65</ele>
        <time>2025-02-11T11:02:29.316Z</time>
      </trkpt>
      <trkpt lat="58.6558589246124" lon="13.577176993712783">
        <ele>60.48</ele>
        <time>2025-02-11T11:03:11.790Z</time>
      </trkpt>
      <trkpt lat="58.65595196373761" lon="13.5771709587425">
        <ele>60.31</ele>
        <time>2025-02-11T11:03:54.265Z</time>
      </trkpt>
      <trkpt lat="58.65604198537767" lon="13.577161990106106">
        <ele>60.14</ele>
        <time>2025-02-11T11:04:36.742Z</time>
      </trkpt>
      <trkpt lat="58.65612999536097" lon="13.577159978449345">
        <ele>59.98</ele>
        <time>2025-02-11T11:05:19.220Z</time>
      </trkpt>
      <trkpt lat="58.65621792152524" lon="13.577166935428977">
        <ele>59.81</ele>
        <time>2025-02-11T11:06:01.700Z</time>
      </trkpt>
      <trkpt lat="58.65630593150854" lon="13.577163917943835">
        <ele>59.64</ele>
        <time>2025-02-11T11:06:44.181Z</time>
      </trkpt>
      <trkpt lat="58.656398970633745" lon="13.57715293765068">
        <ele>59.48</ele>
        <time>2025-02-11T11:07:26.664Z</time>
      </trkpt>
      <trkpt lat="58.65649494342506" lon="13.577140951529145">
        <ele>59.31</ele>
        <time>2025-02-11T11:08:09.148Z</time>
      </trkpt>
      <trkpt lat="58.65659091621637" lon="13.57712896540761">
        <ele>59.15</ele>
        <time>2025-02-11T11:08:51.634Z</time>
      </trkpt>
      <trkpt lat="58.65668697282672" lon="13.577117985114455">
        <ele>58.99</ele>
        <time>2025-02-11T11:09:34.121Z</time>
      </trkpt>
      <trkpt lat="58.65678294561803" lon="13.577121924608946">
        <ele>58.83</ele>
        <time>2025-02-11T11:10:16.610Z</time>
      </trkpt>
      <trkpt lat="58.65687992423773" lon="13.577114967629313">
        <ele>58.66</ele>
        <time>2025-02-11T11:10:59.100Z</time>
      </trkpt>
      <trkpt lat="58.65697497501969" lon="13.57710893265903">
        <ele>58.51</ele>
        <time>2025-02-11T11:11:41.592Z</time>
      </trkpt>
      <trkpt lat="58.657068936154246" lon="13.577102981507778">
        <ele>58.35</ele>
        <time>2025-02-11T11:12:24.085Z</time>
      </trkpt>
      <trkpt lat="58.65716197527945" lon="13.577097952365875">
        <ele>58.2</ele>
        <time>2025-02-11T11:13:06.580Z</time>
      </trkpt>
      <trkpt lat="58.65725493058562" lon="13.577090995386243">
        <ele>58.04</ele>
        <time>2025-02-11T11:13:49.076Z</time>
      </trkpt>
      <trkpt lat="58.657345958054066" lon="13.577083954587579">
        <ele>57.89</ele>
        <time>2025-02-11T11:14:31.574Z</time>
      </trkpt>
      <trkpt lat="58.65743497386575" lon="13.577076997607946">
        <ele>57.73</ele>
        <time>2025-02-11T11:15:14.073Z</time>
      </trkpt>
      <trkpt lat="58.65752298384905" lon="13.577070962637663">
        <ele>57.59</ele>
        <time>2025-02-11T11:15:56.574Z</time>
      </trkpt>
      <trkpt lat="58.65760998800397" lon="13.57706299982965">
        <ele>57.44</ele>
        <time>2025-02-11T11:16:39.076Z</time>
      </trkpt>
      <trkpt lat="58.65769699215889" lon="13.577054953202605">
        <ele>57.29</ele>
        <time>2025-02-11T11:17:21.580Z</time>
      </trkpt>
      <trkpt lat="58.65778399631381" lon="13.577046990394592">
        <ele>57.14</ele>
        <time>2025-02-11T11:18:04.085Z</time>
      </trkpt>
      <trkpt lat="58.65786999464035" lon="13.57704296708107">
        <ele>56.99</ele>
        <time>2025-02-11T11:18:46.591Z</time>
      </trkpt>
      <trkpt lat="58.65795699879527" lon="13.577039949595928">
        <ele>56.85</ele>
        <time>2025-02-11T11:19:29.099Z</time>
      </trkpt>
      <trkpt lat="58.65804299712181" lon="13.577039949595928">
        <ele>56.7</ele>
        <time>2025-02-11T11:20:11.608Z</time>
      </trkpt>
      <trkpt lat="58.6581299174577" lon="13.577044978737831">
        <ele>56.56</ele>
        <time>2025-02-11T11:20:54.118Z</time>
      </trkpt>
      <trkpt lat="58.658217927441" lon="13.577051935717463">
        <ele>56.42</ele>
        <time>2025-02-11T11:21:36.630Z</time>
      </trkpt>
      <trkpt lat="58.65830694325268" lon="13.577060988172889">
        <ele>56.29</ele>
        <time>2025-02-11T11:22:19.143Z</time>
      </trkpt>
      <trkpt lat="58.658395959064364" lon="13.577073980122805">
        <ele>56.15</ele>
        <time>2025-02-11T11:23:01.658Z</time>
      </trkpt>
      <trkpt lat="58.65848598070443" lon="13.577090995386243">
        <ele>56.02</ele>
        <time>2025-02-11T11:23:44.174Z</time>
      </trkpt>
      <trkpt lat="58.65857591852546" lon="13.577110944315791">
        <ele>55.88</ele>
        <time>2025-02-11T11:24:26.692Z</time>
      </trkpt>
      <trkpt lat="58.6586669459939" lon="13.577132988721132">
        <ele>55.75</ele>
        <time>2025-02-11T11:25:09.211Z</time>
      </trkpt>
      <trkpt lat="58.65875797346234" lon="13.577157966792583">
        <ele>55.62</ele>
        <time>2025-02-11T11:25:51.732Z</time>
      </trkpt>
      <trkpt lat="58.658846989274025" lon="13.577181939035654">
        <ele>55.49</ele>
        <time>2025-02-11T11:26:34.254Z</time>
      </trkpt>
      <trkpt lat="58.658932987600565" lon="13.577208928763866">
        <ele>55.37</ele>
        <time>2025-02-11T11:27:16.777Z</time>
      </trkpt>
      <trkpt lat="58.659017980098724" lon="13.577241953462362">
        <ele>55.24</ele>
        <time>2025-02-11T11:27:59.302Z</time>
      </trkpt>
      <trkpt lat="58.659102972596884" lon="13.577275983989239">
        <ele>55.11</ele>
        <time>2025-02-11T11:28:41.828Z</time>
      </trkpt>
      <trkpt lat="58.65918695926666" lon="13.577321916818619">
        <ele>54.99</ele>
        <time>2025-02-11T11:29:24.356Z</time>
      </trkpt>
      <trkpt lat="58.659275975078344" lon="13.577369945123792">
        <ele>54.86</ele>
        <time>2025-02-11T11:30:06.885Z</time>
      </trkpt>
      <trkpt lat="58.659363985061646" lon="13.577419985085726">
        <ele>54.73</ele>
        <time>2025-02-11T11:30:49.416Z</time>
      </trkpt>
      <trkpt lat="58.659447971731424" lon="13.57747396454215">
        <ele>54.61</ele>
        <time>2025-02-11T11:31:31.948Z</time>
      </trkpt>
      <trkpt lat="58.6595319584012" lon="13.577526938170195">
        <ele>54.49</ele>
        <time>2025-02-11T11:32:14.481Z</time>
      </trkpt>
      <trkpt lat="58.6596149392426" lon="13.577587958425283">
        <ele>54.37</ele>
        <time>2025-02-11T11:32:57.016Z</time>
      </trkpt>
      <trkpt lat="58.65969599224627" lon="13.577654929831624">
        <ele>54.25</ele>
        <time>2025-02-11T11:33:39.552Z</time>
      </trkpt>
      <trkpt lat="58.65978098474443" lon="13.577720979228616">
        <ele>54.13</ele>
        <time>2025-02-11T11:34:22.090Z</time>
      </trkpt>
      <trkpt lat="58.659860948100686" lon="13.577791973948479">
        <ele>54.01</ele>
        <time>2025-02-11T11:35:04.629Z</time>
      </trkpt>
      <trkpt lat="58.65994191728532" lon="13.577863974496722">
        <ele>53.9</ele>
        <time>2025-02-11T11:35:47.170Z</time>
      </trkpt>
      <trkpt lat="58.660025987774134" lon="13.577934969216585">
        <ele>53.78</ele>
        <time>2025-02-11T11:36:29.712Z</time>
      </trkpt>
      <trkpt lat="58.66011098027229" lon="13.578003952279687">
        <ele>53.67</ele>
        <time>2025-02-11T11:37:12.256Z</time>
      </trkpt>
      <trkpt lat="58.66019597277045" lon="13.578077964484692">
        <ele>53.56</ele>
        <time>2025-02-11T11:37:54.801Z</time>
      </trkpt>
      <trkpt lat="58.66028197109699" lon="13.578151976689696">
        <ele>53.44</ele>
        <time>2025-02-11T11:38:37.348Z</time>
      </trkpt>
      <trkpt lat="58.660369981080294" lon="13.578225988894701">
        <ele>53.33</ele>
        <time>2025-02-11T11:39:19.896Z</time>
      </trkpt>
      <trkpt lat="58.660456985235214" lon="13.578300923109055">
        <ele>53.22</ele>
        <time>2025-02-11T11:40:02.446Z</time>
      </trkpt>
      <trkpt lat="58.660545917227864" lon="13.57837694697082">
        <ele>53.12</ele>
        <time>2025-02-11T11:40:44.997Z</time>
      </trkpt>
      <trkpt lat="58.660634933039546" lon="13.578451965004206">
        <ele>53.01</ele>
        <time>2025-02-11T11:41:27.550Z</time>
      </trkpt>
      <trkpt lat="58.66072294302285" lon="13.57852597720921">
        <ele>52.9</ele>
        <time>2025-02-11T11:42:10.104Z</time>
      </trkpt>
      <trkpt lat="58.66081095300615" lon="13.578600995242596">
        <ele>52.79</ele>
        <time>2025-02-11T11:42:52.660Z</time>
      </trkpt>
      <trkpt lat="58.66090097464621" lon="13.578674923628569">
        <ele>52.68</ele>
        <time>2025-02-11T11:43:35.217Z</time>
      </trkpt>
      <trkpt lat="58.66098999045789" lon="13.578741978853941">
        <ele>52.58</ele>
        <time>2025-02-11T11:44:17.776Z</time>
      </trkpt>
      <trkpt lat="58.66107892245054" lon="13.578808950260282">
        <ele>52.48</ele>
        <time>2025-02-11T11:45:00.336Z</time>
      </trkpt>
      <trkpt lat="58.66116492077708" lon="13.578876927495003">
        <ele>52.38</ele>
        <time>2025-02-11T11:45:42.898Z</time>
      </trkpt>
      <trkpt lat="58.66124697960913" lon="13.578942976891994">
        <ele>52.29</ele>
        <time>2025-02-11T11:46:25.461Z</time>
      </trkpt>
      <trkpt lat="58.66132794879377" lon="13.579004919156432">
        <ele>52.2</ele>
        <time>2025-02-11T11:47:08.026Z</time>
      </trkpt>
      <trkpt lat="58.66140799596906" lon="13.579069962725043">
        <ele>52.11</ele>
        <time>2025-02-11T11:47:50.592Z</time>
      </trkpt>
      <trkpt lat="58.66148594766855" lon="13.579140957444906">
        <ele>52.03</ele>
        <time>2025-02-11T11:48:33.160Z</time>
      </trkpt>
      <trkpt lat="58.6615629773587" lon="13.57921396382153">
        <ele>51.95</ele>
        <time>2025-02-11T11:49:15.729Z</time>
      </trkpt>
      <trkpt lat="58.66163891740143" lon="13.579281941056252">
        <ele>51.87</ele>
        <time>2025-02-11T11:49:58.299Z</time>
      </trkpt>
      <trkpt lat="58.66171292960644" lon="13.579347990453243">
        <ele>51.78</ele>
        <time>2025-02-11T11:50:40.871Z</time>
      </trkpt>
      <trkpt lat="58.66178694181144" lon="13.579410938546062">
        <ele>51.7</ele>
        <time>2025-02-11T11:51:23.444Z</time>
      </trkpt>
      <trkpt lat="58.66186095401645" lon="13.57947195880115">
        <ele>51.61</ele>
        <time>2025-02-11T11:52:06.018Z</time>
      </trkpt>
      <trkpt lat="58.66193496622145" lon="13.57953599654138">
        <ele>51.52</ele>
        <time>2025-02-11T11:52:48.593Z</time>
      </trkpt>
      <trkpt lat="58.66200998425484" lon="13.579601962119341">
        <ele>51.44</ele>
        <time>2025-02-11T11:53:31.170Z</time>
      </trkpt>
      <trkpt lat="58.66208592429757" lon="13.579667927697301">
        <ele>51.35</ele>
        <time>2025-02-11T11:54:13.748Z</time>
      </trkpt>
      <trkpt lat="58.662159936502576" lon="13.579733977094293">
        <ele>51.27</ele>
        <time>2025-02-11T11:54:56.327Z</time>
      </trkpt>
      <trkpt lat="58.66223394870758" lon="13.579799942672253">
        <ele>51.18</ele>
        <time>2025-02-11T11:55:38.908Z</time>
      </trkpt>
      <trkpt lat="58.662305949255824" lon="13.579862974584103">
        <ele>51.09</ele>
        <time>2025-02-11T11:56:21.490Z</time>
      </trkpt>
      <trkpt lat="58.66238096728921" lon="13.57992491684854">
        <ele>51.01</ele>
        <time>2025-02-11T11:57:04.073Z</time>
      </trkpt>
      <trkpt lat="58.662455985322595" lon="13.57998895458877">
        <ele>50.92</ele>
        <time>2025-02-11T11:57:46.658Z</time>
      </trkpt>
      <trkpt lat="58.66253494285047" lon="13.580053998157382">
        <ele>50.84</ele>
        <time>2025-02-11T11:58:29.244Z</time>
      </trkpt>
      <trkpt lat="58.66261691786349" lon="13.580120969563723">
        <ele>50.76</ele>
        <time>2025-02-11T11:59:11.831Z</time>
      </trkpt>
      <trkpt lat="58.66269897669554" lon="13.580188946798444">
        <ele>50.67</ele>
        <time>2025-02-11T11:59:54.420Z</time>
      </trkpt>
      <trkpt lat="58.6627839691937" lon="13.580256924033165">
        <ele>50.59</ele>
        <time>2025-02-11T12:00:37.010Z</time>
      </trkpt>
      <trkpt lat="58.662866950035095" lon="13.580326996743679">
        <ele>50.51</ele>
        <time>2025-02-11T12:01:19.602Z</time>
      </trkpt>
      <trkpt lat="58.66294993087649" lon="13.580397991463542">
        <ele>50.43</ele>
        <time>2025-02-11T12:02:02.195Z</time>
      </trkpt>
      <trkpt lat="58.663036935031414" lon="13.580468986183405">
        <ele>50.35</ele>
        <time>2025-02-11T12:02:44.790Z</time>
      </trkpt>
      <trkpt lat="58.663123939186335" lon="13.580539980903268">
        <ele>50.27</ele>
        <time>2025-02-11T12:03:27.386Z</time>
      </trkpt>
      <trkpt lat="58.66320792585611" lon="13.58061097562313">
        <ele>50.2</ele>
        <time>2025-02-11T12:04:09.984Z</time>
      </trkpt>
      <trkpt lat="58.663294930011034" lon="13.580682976171374">
        <ele>50.12</ele>
        <time>2025-02-11T12:04:52.583Z</time>
      </trkpt>
      <trkpt lat="58.663381934165955" lon="13.580754976719618">
        <ele>50.05</ele>
        <time>2025-02-11T12:05:35.184Z</time>
      </trkpt>
      <trkpt lat="58.663467932492495" lon="13.58082597143948">
        <ele>49.98</ele>
        <time>2025-02-11T12:06:17.786Z</time>
      </trkpt>
      <trkpt lat="58.66355191916227" lon="13.580895960330963">
        <ele>49.91</ele>
        <time>2025-02-11T12:07:00.390Z</time>
      </trkpt>
      <trkpt lat="58.66363791748881" lon="13.580970978364348">
        <ele>49.83</ele>
        <time>2025-02-11T12:07:42.995Z</time>
      </trkpt>
      <trkpt lat="58.663724921643734" lon="13.581050941720605">
        <ele>49.76</ele>
        <time>2025-02-11T12:08:25.602Z</time>
      </trkpt>
      <trkpt lat="58.663813937455416" lon="13.581129983067513">
        <ele>49.69</ele>
        <time>2025-02-11T12:09:08.210Z</time>
      </trkpt>
      <trkpt lat="58.66390194743872" lon="13.581207934767008">
        <ele>49.61</ele>
        <time>2025-02-11T12:09:50.820Z</time>
      </trkpt>
      <trkpt lat="58.6639909632504" lon="13.581292927265167">
        <ele>49.54</ele>
        <time>2025-02-11T12:10:33.432Z</time>
      </trkpt>
      <trkpt lat="58.6640789732337" lon="13.581387978047132">
        <ele>49.47</ele>
        <time>2025-02-11T12:11:16.045Z</time>
      </trkpt>
      <trkpt lat="58.664166983217" lon="13.58148998580873">
        <ele>49.4</ele>
        <time>2025-02-11T12:11:58.660Z</time>
      </trkpt>
      <trkpt lat="58.6642499640584" lon="13.581593921408057">
        <ele>49.34</ele>
        <time>2025-02-11T12:12:41.276Z</time>
      </trkpt>
      <trkpt lat="58.66433193907142" lon="13.58170498162508">
        <ele>49.27</ele>
        <time>2025-02-11T12:13:23.894Z</time>
      </trkpt>
      <trkpt lat="58.664410980418324" lon="13.58181495219469">
        <ele>49.21</ele>
        <time>2025-02-11T12:14:06.514Z</time>
      </trkpt>
      <trkpt lat="58.66448893211782" lon="13.581924922764301">
        <ele>49.16</ele>
        <time>2025-02-11T12:14:49.135Z</time>
      </trkpt>
      <trkpt lat="58.664562944322824" lon="13.582036988809705">
        <ele>49.09</ele>
        <time>2025-02-11T12:15:31.758Z</time>
      </trkpt>
      <trkpt lat="58.66463494487107" lon="13.582150982692838">
        <ele>49.03</ele>
        <time>2025-02-11T12:16:14.382Z</time>
      </trkpt>
      <trkpt lat="58.66470593959093" lon="13.582261959090829">
        <ele>48.97</ele>
        <time>2025-02-11T12:16:57.008Z</time>
      </trkpt>
      <trkpt lat="58.66477492265403" lon="13.5823739413172">
        <ele>48.91</ele>
        <time>2025-02-11T12:17:39.635Z</time>
      </trkpt>
      <trkpt lat="58.664840972051024" lon="13.582486929371953">
        <ele>48.85</ele>
        <time>2025-02-11T12:18:22.263Z</time>
      </trkpt>
      <trkpt lat="58.664907943457365" lon="13.582599917426705">
        <ele>48.8</ele>
        <time>2025-02-11T12:19:04.893Z</time>
      </trkpt>
      <trkpt lat="58.66497499868274" lon="13.58271298930049">
        <ele>48.75</ele>
        <time>2025-02-11T12:19:47.524Z</time>
      </trkpt>
      <trkpt lat="58.66504197008908" lon="13.582824971526861">
        <ele>48.69</ele>
        <time>2025-02-11T12:20:30.157Z</time>
      </trkpt>
      <trkpt lat="58.66510894149542" lon="13.582936953753233">
        <ele>48.64</ele>
        <time>2025-02-11T12:21:12.791Z</time>
      </trkpt>
      <trkpt lat="58.66517792455852" lon="13.583045918494463">
        <ele>48.6</ele>
        <time>2025-02-11T12:21:55.427Z</time>
      </trkpt>
      <trkpt lat="58.665246991440654" lon="13.583151949569583">
        <ele>48.55</ele>
        <time>2025-02-11T12:22:38.064Z</time>
      </trkpt>
      <trkpt lat="58.665315974503756" lon="13.583256974816322">
        <ele>48.5</ele>
        <time>2025-02-11T12:23:20.702Z</time>
      </trkpt>
      <trkpt lat="58.665382945910096" lon="13.58336191624403">
        <ele>48.45</ele>
        <time>2025-02-11T12:24:03.342Z</time>
      </trkpt>
      <trkpt lat="58.66544991731644" lon="13.58346794731915">
        <ele>48.41</ele>
        <time>2025-02-11T12:24:45.983Z</time>
      </trkpt>
      <trkpt lat="58.66551596671343" lon="13.58357397839427">
        <ele>48.36</ele>
        <time>2025-02-11T12:25:28.626Z</time>
      </trkpt>
      <trkpt lat="58.66558092646301" lon="13.583679925650358">
        <ele>48.31</ele>
        <time>2025-02-11T12:26:11.270Z</time>
      </trkpt>
      <trkpt lat="58.66564798168838" lon="13.583783945068717">
        <ele>48.27</ele>
        <time>2025-02-11T12:26:53.915Z</time>
      </trkpt>
      <trkpt lat="58.66571797057986" lon="13.583883941173553">
        <ele>48.22</ele>
        <time>2025-02-11T12:27:36.562Z</time>
      </trkpt>
      <trkpt lat="58.665787959471345" lon="13.583981925621629">
        <ele>48.18</ele>
        <time>2025-02-11T12:28:19.210Z</time>
      </trkpt>
      <trkpt lat="58.66585996001959" lon="13.584078988060355">
        <ele>48.14</ele>
        <time>2025-02-11T12:29:01.860Z</time>
      </trkpt>
      <trkpt lat="58.66593296639621" lon="13.584173955023289">
        <ele>48.1</ele>
        <time>2025-02-11T12:29:44.511Z</time>
      </trkpt>
      <trkpt lat="58.66600697860122" lon="13.584266994148493">
        <ele>48.06</ele>
        <time>2025-02-11T12:30:27.163Z</time>
      </trkpt>
      <trkpt lat="58.66608291864395" lon="13.584360955283046">
        <ele>48.03</ele>
        <time>2025-02-11T12:31:09.817Z</time>
      </trkpt>
      <trkpt lat="58.66616095416248" lon="13.58445298857987">
        <ele>47.99</ele>
        <time>2025-02-11T12:31:52.472Z</time>
      </trkpt>
      <trkpt lat="58.666240917518735" lon="13.58454393222928">
        <ele>47.96</ele>
        <time>2025-02-11T12:32:35.129Z</time>
      </trkpt>
      <trkpt lat="58.66631995886564" lon="13.584637977182865">
        <ele>47.92</ele>
        <time>2025-02-11T12:33:17.787Z</time>
      </trkpt>
      <trkpt lat="58.66639891639352" lon="13.58473394997418">
        <ele>47.89</ele>
        <time>2025-02-11T12:34:00.447Z</time>
      </trkpt>
      <trkpt lat="58.66647896356881" lon="13.584830928593874">
        <ele>47.86</ele>
        <time>2025-02-11T12:34:43.108Z</time>
      </trkpt>
      <trkpt lat="58.66655892692506" lon="13.58492698520422">
        <ele>47.84</ele>
        <time>2025-02-11T12:35:25.771Z</time>
      </trkpt>
      <trkpt lat="58.66663897410035" lon="13.585021952167153">
        <ele>47.81</ele>
        <time>2025-02-11T12:36:08.435Z</time>
      </trkpt>
      <trkpt lat="58.66672094911337" lon="13.585118930786848">
        <ele>47.79</ele>
        <time>2025-02-11T12:36:51.101Z</time>
      </trkpt>
      <trkpt lat="58.66680392995477" lon="13.585216999053955">
        <ele>47.77</ele>
        <time>2025-02-11T12:37:33.768Z</time>
      </trkpt>
      <trkpt lat="58.666884982958436" lon="13.585315989330411">
        <ele>47.74</ele>
        <time>2025-02-11T12:38:16.437Z</time>
      </trkpt>
      <trkpt lat="58.66696595214307" lon="13.585414979606867">
        <ele>47.72</ele>
        <time>2025-02-11T12:38:59.108Z</time>
      </trkpt>
      <trkpt lat="58.66704692132771" lon="13.585514975711703">
        <ele>47.71</ele>
        <time>2025-02-11T12:39:41.780Z</time>
      </trkpt>
      <trkpt lat="58.66712898015976" lon="13.58561597764492">
        <ele>47.69</ele>
        <time>2025-02-11T12:40:24.454Z</time>
      </trkpt>
      <trkpt lat="58.6672099493444" lon="13.585715973749757">
        <ele>47.67</ele>
        <time>2025-02-11T12:41:07.129Z</time>
      </trkpt>
      <trkpt lat="58.667292930185795" lon="13.585817981511354">
        <ele>47.66</ele>
        <time>2025-02-11T12:41:49.806Z</time>
      </trkpt>
      <trkpt lat="58.667376916855574" lon="13.585919989272952">
        <ele>47.65</ele>
        <time>2025-02-11T12:42:32.484Z</time>
      </trkpt>
      <trkpt lat="58.667461993172765" lon="13.586022919043899">
        <ele>47.64</ele>
        <time>2025-02-11T12:43:15.164Z</time>
      </trkpt>
      <trkpt lat="58.667549919337034" lon="13.586123920977116">
        <ele>47.64</ele>
        <time>2025-02-11T12:43:57.846Z</time>
      </trkpt>
      <trkpt lat="58.667635917663574" lon="13.586222995072603">
        <ele>47.63</ele>
        <time>2025-02-11T12:44:40.529Z</time>
      </trkpt>
      <trkpt lat="58.667720993980765" lon="13.58632399700582">
        <ele>47.63</ele>
        <time>2025-02-11T12:45:23.214Z</time>
      </trkpt>
      <trkpt lat="58.66780296899378" lon="13.586424998939037">
        <ele>47.63</ele>
        <time>2025-02-11T12:46:05.900Z</time>
      </trkpt>
      <trkpt lat="58.66788393817842" lon="13.586527928709984">
        <ele>47.63</ele>
        <time>2025-02-11T12:46:48.588Z</time>
      </trkpt>
      <trkpt lat="58.66796398535371" lon="13.5866289306432">
        <ele>47.64</ele>
        <time>2025-02-11T12:47:31.277Z</time>
      </trkpt>
      <trkpt lat="58.668042942881584" lon="13.586728926748037">
        <ele>47.65</ele>
        <time>2025-02-11T12:48:13.968Z</time>
      </trkpt>
      <trkpt lat="58.66812198422849" lon="13.586828922852874">
        <ele>47.66</ele>
        <time>2025-02-11T12:48:56.661Z</time>
      </trkpt>
      <trkpt lat="58.66820395924151" lon="13.58692699111998">
        <ele>47.67</ele>
        <time>2025-02-11T12:49:39.355Z</time>
      </trkpt>
      <trkpt lat="58.66828694008291" lon="13.587023969739676">
        <ele>47.68</ele>
        <time>2025-02-11T12:50:22.051Z</time>
      </trkpt>
      <trkpt lat="58.66836799308658" lon="13.58712094835937">
        <ele>47.7</ele>
        <time>2025-02-11T12:51:04.748Z</time>
      </trkpt>
      <trkpt lat="58.66844896227121" lon="13.587214993312955">
        <ele>47.72</ele>
        <time>2025-02-11T12:51:47.447Z</time>
      </trkpt>
      <trkpt lat="58.66852699778974" lon="13.587309960275888">
        <ele>47.75</ele>
        <time>2025-02-11T12:52:30.147Z</time>
      </trkpt>
      <trkpt lat="58.668606961146" lon="13.587403921410441">
        <ele>47.78</ele>
        <time>2025-02-11T12:53:12.849Z</time>
      </trkpt>
      <trkpt lat="58.66868591867387" lon="13.587495954707265">
        <ele>47.81</ele>
        <time>2025-02-11T12:53:55.552Z</time>
      </trkpt>
      <trkpt lat="58.66876496002078" lon="13.587585976347327">
        <ele>47.84</ele>
        <time>2025-02-11T12:54:38.257Z</time>
      </trkpt>
      <trkpt lat="58.66884299553931" lon="13.587673986330628">
        <ele>47.88</ele>
        <time>2025-02-11T12:55:20.963Z</time>
      </trkpt>
      <trkpt lat="58.66891893558204" lon="13.58776199631393">
        <ele>47.92</ele>
        <time>2025-02-11T12:56:03.671Z</time>
      </trkpt>
      <trkpt lat="58.66899495944381" lon="13.58784799464047">
        <ele>47.97</ele>
        <time>2025-02-11T12:56:46.380Z</time>
      </trkpt>
      <trkpt lat="58.66906796582043" lon="13.58793499879539">
        <ele>48.02</ele>
        <time>2025-02-11T12:57:29.090Z</time>
      </trkpt>
      <trkpt lat="58.669140972197056" lon="13.58802393078804">
        <ele>48.07</ele>
        <time>2025-02-11T12:58:11.802Z</time>
      </trkpt>
      <trkpt lat="58.6692129727453" lon="13.588114958256483">
        <ele>48.13</ele>
        <time>2025-02-11T12:58:54.515Z</time>
      </trkpt>
      <trkpt lat="58.66928497329354" lon="13.588205985724926">
        <ele>48.19</ele>
        <time>2025-02-11T12:59:37.229Z</time>
      </trkpt>
      <trkpt lat="58.669356973841786" lon="13.588296929374337">
        <ele>48.25</ele>
        <time>2025-02-11T13:00:19.945Z</time>
      </trkpt>
      <trkpt lat="58.66942897439003" lon="13.5883869510144">
        <ele>48.31</ele>
        <time>2025-02-11T13:01:02.662Z</time>
      </trkpt>
      <trkpt lat="58.66949896328151" lon="13.5884749609977">
        <ele>48.37</ele>
        <time>2025-02-11T13:01:45.381Z</time>
      </trkpt>
      <trkpt lat="58.669569958001375" lon="13.58856095932424">
        <ele>48.44</ele>
        <time>2025-02-11T13:02:28.101Z</time>
      </trkpt>
      <trkpt lat="58.66964095272124" lon="13.58864494599402">
        <ele>48.5</ele>
        <time>2025-02-11T13:03:10.822Z</time>
      </trkpt>
      <trkpt lat="58.66971395909786" lon="13.588728932663798">
        <ele>48.57</ele>
        <time>2025-02-11T13:03:53.545Z</time>
      </trkpt>
      <trkpt lat="58.669784953817725" lon="13.588815936818719">
        <ele>48.64</ele>
        <time>2025-02-11T13:04:36.269Z</time>
      </trkpt>
      <trkpt lat="58.66985796019435" lon="13.58890394680202">
        <ele>48.71</ele>
        <time>2025-02-11T13:05:18.994Z</time>
      </trkpt>
      <trkpt lat="58.66992794908583" lon="13.58898994512856">
        <ele>48.78</ele>
        <time>2025-02-11T13:06:01.721Z</time>
      </trkpt>
      <trkpt lat="58.669999949634075" lon="13.589072925969958">
        <ele>48.85</ele>
        <time>2025-02-11T13:06:44.449Z</time>
      </trkpt>
      <trkpt lat="58.67007195018232" lon="13.589157918468118">
        <ele>48.93</ele>
        <time>2025-02-11T13:07:27.178Z</time>
      </trkpt>
      <trkpt lat="58.67014294490218" lon="13.589243916794658">
        <ele>49.0</ele>
        <time>2025-02-11T13:08:09.909Z</time>
      </trkpt>
      <trkpt lat="58.67021192796528" lon="13.589327987283468">
        <ele>49.08</ele>
        <time>2025-02-11T13:08:52.641Z</time>
      </trkpt>
      <trkpt lat="58.67028099484742" lon="13.58941599726677">
        <ele>49.16</ele>
        <time>2025-02-11T13:09:35.374Z</time>
      </trkpt>
      <trkpt lat="58.67035198956728" lon="13.58950492925942">
        <ele>49.24</ele>
        <time>2025-02-11T13:10:18.109Z</time>
      </trkpt>
      <trkpt lat="58.67042197845876" lon="13.58959092758596">
        <ele>49.32</ele>
        <time>2025-02-11T13:11:00.845Z</time>
      </trkpt>
      <trkpt lat="58.670491967350245" lon="13.5896769259125">
        <ele>49.41</ele>
        <time>2025-02-11T13:11:43.582Z</time>
      </trkpt>
      <trkpt lat="58.67056195624173" lon="13.589761918410659">
        <ele>49.5</ele>
        <time>2025-02-11T13:12:26.321Z</time>
      </trkpt>
      <trkpt lat="58.67063093930483" lon="13.58984992839396">
        <ele>49.59</ele>
        <time>2025-02-11T13:13:09.061Z</time>
      </trkpt>
      <trkpt lat="58.67070092819631" lon="13.589938944205642">
        <ele>49.68</ele>
        <time>2025-02-11T13:13:51.802Z</time>
      </trkpt>
      <trkpt lat="58.670772928744555" lon="13.590030977502465">
        <ele>49.78</ele>
        <time>2025-02-11T13:14:34.545Z</time>
      </trkpt>
      <trkpt lat="58.67084199562669" lon="13.590125944465399">
        <ele>49.88</ele>
        <time>2025-02-11T13:15:17.289Z</time>
      </trkpt>
      <trkpt lat="58.67090997286141" lon="13.590224934741855">
        <ele>49.98</ele>
        <time>2025-02-11T13:16:00.035Z</time>
      </trkpt>
      <trkpt lat="58.67097795009613" lon="13.59032392501831">
        <ele>50.08</ele>
        <time>2025-02-11T13:16:42.782Z</time>
      </trkpt>
      <trkpt lat="58.67104592733085" lon="13.590423921123147">
        <ele>50.19</ele>
        <time>2025-02-11T13:17:25.530Z</time>
      </trkpt>
      <trkpt lat="58.67111097089946" lon="13.590530958026648">
        <ele>50.3</ele>
        <time>2025-02-11T13:18:08.280Z</time>
      </trkpt>
      <trkpt lat="58.67117492482066" lon="13.590645957738161">
        <ele>50.41</ele>
        <time>2025-02-11T13:18:51.031Z</time>
      </trkpt>
      <trkpt lat="58.67123896256089" lon="13.590759951621294">
        <ele>50.52</ele>
        <time>2025-02-11T13:19:33.783Z</time>
      </trkpt>
      <trkpt lat="58.67130291648209" lon="13.590874951332808">
        <ele>50.64</ele>
        <time>2025-02-11T13:20:16.537Z</time>
      </trkpt>
      <trkpt lat="58.67136695422232" lon="13.59098793938756">
        <ele>50.76</ele>
        <time>2025-02-11T13:20:59.292Z</time>
      </trkpt>
      <trkpt lat="58.67143291980028" lon="13.591103944927454">
        <ele>50.88</ele>
        <time>2025-02-11T13:21:42.049Z</time>
      </trkpt>
      <trkpt lat="58.67149595171213" lon="13.591233948245645">
        <ele>50.99</ele>
        <time>2025-02-11T13:22:24.807Z</time>
      </trkpt>
      <trkpt lat="58.6715579777956" lon="13.591354982927442">
        <ele>51.11</ele>
        <time>2025-02-11T13:23:07.567Z</time>
      </trkpt>
      <trkpt lat="58.67161396890879" lon="13.591467970982194">
        <ele>51.23</ele>
        <time>2025-02-11T13:23:50.328Z</time>
      </trkpt>
      <trkpt lat="58.67166794836521" lon="13.59158598817885">
        <ele>51.35</ele>
        <time>2025-02-11T13:24:33.090Z</time>
      </trkpt>
      <trkpt lat="58.671721927821636" lon="13.591703921556473">
        <ele>51.47</ele>
        <time>2025-02-11T13:25:15.853Z</time>
      </trkpt>
      <trkpt lat="58.67177397944033" lon="13.59182495623827">
        <ele>51.6</ele>
        <time>2025-02-11T13:25:58.618Z</time>
      </trkpt>
      <trkpt lat="58.67182896472514" lon="13.591945990920067">
        <ele>51.72</ele>
        <time>2025-02-11T13:26:41.384Z</time>
      </trkpt>
      <trkpt lat="58.671887973323464" lon="13.59206392429769">
        <ele>51.84</ele>
        <time>2025-02-11T13:27:24.152Z</time>
      </trkpt>
      <trkpt lat="58.67194899357855" lon="13.592176996171474">
        <ele>51.97</ele>
        <time>2025-02-11T13:28:06.921Z</time>
      </trkpt>
      <trkpt lat="58.67200498469174" lon="13.592291995882988">
        <ele>52.09</ele>
        <time>2025-02-11T13:28:49.691Z</time>
      </trkpt>
      <trkpt lat="58.672060975804925" lon="13.59240791760385">
        <ele>52.22</ele>
        <time>2025-02-11T13:29:32.463Z</time>
      </trkpt>
      <trkpt lat="58.67211394943297" lon="13.592524928972125">
        <ele>52.35</ele>
        <time>2025-02-11T13:30:15.236Z</time>
      </trkpt>
      <trkpt lat="58.67216591723263" lon="13.592644957825541">
        <ele>52.48</ele>
        <time>2025-02-11T13:30:58.010Z</time>
      </trkpt>
      <trkpt lat="58.672214951366186" lon="13.592767920345068">
        <ele>52.61</ele>
        <time>2025-02-11T13:31:40.785Z</time>
      </trkpt>
      <trkpt lat="58.672250993549824" lon="13.592903958633542">
        <ele>52.74</ele>
        <time>2025-02-11T13:32:23.562Z</time>
      </trkpt>
      <trkpt lat="58.672293992713094" lon="13.593039996922016">
        <ele>52.88</ele>
        <time>2025-02-11T13:33:06.340Z</time>
      </trkpt>
      <trkpt lat="58.672337997704744" lon="13.59315793029964">
        <ele>53.01</ele>
        <time>2025-02-11T13:33:49.119Z</time>
      </trkpt>
      <trkpt lat="58.672380996868014" lon="13.593276953324676">
        <ele>53.14</ele>
        <time>2025-02-11T13:34:31.899Z</time>
      </trkpt>
      <trkpt lat="58.672422990202904" lon="13.593400921672583">
        <ele>53.27</ele>
        <time>2025-02-11T13:35:14.681Z</time>
      </trkpt>
      <trkpt lat="58.67246297188103" lon="13.593533942475915">
        <ele>53.41</ele>
        <time>2025-02-11T13:35:57.464Z</time>
      </trkpt>
      <trkpt lat="58.67250395938754" lon="13.593664951622486">
        <ele>53.54</ele>
        <time>2025-02-11T13:36:40.248Z</time>
      </trkpt>
      <trkpt lat="58.67254695855081" lon="13.593796966597438">
        <ele>53.68</ele>
        <time>2025-02-11T13:37:23.034Z</time>
      </trkpt>
      <trkpt lat="58.67258794605732" lon="13.593931999057531">
        <ele>53.81</ele>
        <time>2025-02-11T13:38:05.821Z</time>
      </trkpt>
      <trkpt lat="58.67262499406934" lon="13.594067953526974">
        <ele>53.94</ele>
        <time>2025-02-11T13:38:48.609Z</time>
      </trkpt>
      <trkpt lat="58.67265994660556" lon="13.594202985987067">
        <ele>54.08</ele>
        <time>2025-02-11T13:39:31.398Z</time>
      </trkpt>
      <trkpt lat="58.67268894799054" lon="13.594334917142987">
        <ele>54.22</ele>
        <time>2025-02-11T13:40:14.189Z</time>
      </trkpt>
      <trkpt lat="58.67271694354713" lon="13.59446793794632">
        <ele>54.36</ele>
        <time>2025-02-11T13:40:56.981Z</time>
      </trkpt>
      <trkpt lat="58.67274292744696" lon="13.594593917950988">
        <ele>54.49</ele>
        <time>2025-02-11T13:41:39.774Z</time>
      </trkpt>
      <trkpt lat="58.67276396602392" lon="13.594719981774688">
        <ele>54.63</ele>
        <time>2025-02-11T13:42:22.568Z</time>
      </trkpt>
      <trkpt lat="58.67278198711574" lon="13.594838920980692">
        <ele>54.77</ele>
        <time>2025-02-11T13:43:05.363Z</time>
      </trkpt>
      <trkpt lat="58.67280294187367" lon="13.594954926520586">
        <ele>54.91</ele>
        <time>2025-02-11T13:43:48.159Z</time>
      </trkpt>
      <trkpt lat="58.67282498627901" lon="13.5950699262321">
        <ele>55.05</ele>
        <time>2025-02-11T13:44:30.956Z</time>
      </trkpt>
      <trkpt lat="58.67285097017884" lon="13.595179980620742">
        <ele>55.19</ele>
        <time>2025-02-11T13:45:13.754Z</time>
      </trkpt>
      <trkpt lat="58.67287494242191" lon="13.595290957018733">
        <ele>55.33</ele>
        <time>2025-02-11T13:45:56.553Z</time>
      </trkpt>
      <trkpt lat="58.672895980998874" lon="13.595404950901866">
        <ele>55.47</ele>
        <time>2025-02-11T13:46:39.353Z</time>
      </trkpt>
      <trkpt lat="58.67291492410004" lon="13.595516933128238">
        <ele>55.61</ele>
        <time>2025-02-11T13:47:22.154Z</time>
      </trkpt>
      <trkpt lat="58.67293395102024" lon="13.595631932839751">
        <ele>55.75</ele>
        <time>2025-02-11T13:48:04.956Z</time>
      </trkpt>
      <trkpt lat="58.6729549895972" lon="13.595740981400013">
        <ele>55.89</ele>
        <time>2025-02-11T13:48:47.759Z</time>
      </trkpt>
      <trkpt lat="58.67298097349703" lon="13.595855981111526">
        <ele>56.03</ele>
        <time>2025-02-11T13:49:30.563Z</time>
      </trkpt>
      <trkpt lat="58.673004945740104" lon="13.595961928367615">
        <ele>56.17</ele>
        <time>2025-02-11T13:50:13.368Z</time>
      </trkpt>
      <trkpt lat="58.67304098792374" lon="13.59605798497796">
        <ele>56.31</ele>
        <time>2025-02-11T13:50:56.174Z</time>
      </trkpt>
      <trkpt lat="58.673073928803205" lon="13.596144989132881">
        <ele>56.46</ele>
        <time>2025-02-11T13:51:38.981Z</time>
      </trkpt>
      <trkpt lat="58.67309798486531" lon="13.596237944439054">
        <ele>56.6</ele>
        <time>2025-02-11T13:52:21.789Z</time>
      </trkpt>
      <trkpt lat="58.673114916309714" lon="13.59633693471551">
        <ele>56.74</ele>
        <time>2025-02-11T13:53:04.598Z</time>
      </trkpt>
      <trkpt lat="58.673133943229914" lon="13.596431985497475">
        <ele>56.88</ele>
        <time>2025-02-11T13:53:47.408Z</time>
      </trkpt>
      <trkpt lat="58.673153975978494" lon="13.596531981602311">
        <ele>57.02</ele>
        <time>2025-02-11T13:54:30.218Z</time>
      </trkpt>
      <trkpt lat="58.67317392490804" lon="13.596635917201638">
        <ele>57.16</ele>
        <time>2025-02-11T13:55:13.029Z</time>
      </trkpt>
      <trkpt lat="58.673198986798525" lon="13.596748989075422">
        <ele>57.3</ele>
        <time>2025-02-11T13:55:55.841Z</time>
      </trkpt>
      <trkpt lat="58.673222959041595" lon="13.596859965473413">
        <ele>57.44</ele>
        <time>2025-02-11T13:56:38.654Z</time>
      </trkpt>
      <trkpt lat="58.673246931284666" lon="13.596973959356546">
        <ele>57.59</ele>
        <time>2025-02-11T13:57:21.468Z</time>
      </trkpt>
      <trkpt lat="58.67326897569001" lon="13.597095999866724">
        <ele>57.72</ele>
        <time>2025-02-11T13:58:04.284Z</time>
      </trkpt>
      <trkpt lat="58.6732919421047" lon="13.597221979871392">
        <ele>57.86</ele>
        <time>2025-02-11T13:58:47.101Z</time>
      </trkpt>
      <trkpt lat="58.67331499233842" lon="13.59734695404768">
        <ele>57.99</ele>
        <time>2025-02-11T13:59:29.919Z</time>
      </trkpt>
      <trkpt lat="58.67334097623825" lon="13.59747695736587">
        <ele>58.13</ele>
        <time>2025-02-11T14:00:12.738Z</time>
      </trkpt>
      <trkpt lat="58.67336293682456" lon="13.59760595485568">
        <ele>58.26</ele>
        <time>2025-02-11T14:00:55.558Z</time>
      </trkpt>
      <trkpt lat="58.67338699288666" lon="13.597736964002252">
        <ele>58.39</ele>
        <time>2025-02-11T14:01:38.379Z</time>
      </trkpt>
      <trkpt lat="58.67340895347297" lon="13.597866967320442">
        <ele>58.52</ele>
        <time>2025-02-11T14:02:21.201Z</time>
      </trkpt>
      <trkpt lat="58.67343099787831" lon="13.597997976467013">
        <ele>58.65</ele>
        <time>2025-02-11T14:03:04.024Z</time>
      </trkpt>
      <trkpt lat="58.673455975949764" lon="13.598130997270346">
        <ele>58.79</ele>
        <time>2025-02-11T14:03:46.849Z</time>
      </trkpt>
      <trkpt lat="58.673481959849596" lon="13.598261922597885">
        <ele>58.92</ele>
        <time>2025-02-11T14:04:29.675Z</time>
      </trkpt>
      <trkpt lat="58.67350995540619" lon="13.598401984199882">
        <ele>59.05</ele>
        <time>2025-02-11T14:05:12.502Z</time>
      </trkpt>
      <trkpt lat="58.673540968447924" lon="13.598532993346453">
        <ele>59.19</ele>
        <time>2025-02-11T14:05:55.330Z</time>
      </trkpt>
      <trkpt lat="58.67357097566128" lon="13.598661990836263">
        <ele>59.32</ele>
        <time>2025-02-11T14:06:38.159Z</time>
      </trkpt>
      <trkpt lat="58.67359897121787" lon="13.598790988326073">
        <ele>59.45</ele>
        <time>2025-02-11T14:07:20.990Z</time>
      </trkpt>
      <trkpt lat="58.673627972602844" lon="13.598916968330741">
        <ele>59.58</ele>
        <time>2025-02-11T14:08:03.822Z</time>
      </trkpt>
      <trkpt lat="58.6736579798162" lon="13.599040936678648">
        <ele>59.72</ele>
        <time>2025-02-11T14:08:46.655Z</time>
      </trkpt>
      <trkpt lat="58.67368698120117" lon="13.599166916683316">
        <ele>59.86</ele>
        <time>2025-02-11T14:09:29.489Z</time>
      </trkpt>
      <trkpt lat="58.673718916252255" lon="13.599293986335397">
        <ele>59.99</ele>
        <time>2025-02-11T14:10:12.324Z</time>
      </trkpt>
      <trkpt lat="58.67374791763723" lon="13.599422983825207">
        <ele>60.12</ele>
        <time>2025-02-11T14:10:55.160Z</time>
      </trkpt>
      <trkpt lat="58.67377792485058" lon="13.599551981315017">
        <ele>60.25</ele>
        <time>2025-02-11T14:11:37.998Z</time>
      </trkpt>
      <trkpt lat="58.67380692623556" lon="13.599682990461588">
        <ele>60.39</ele>
        <time>2025-02-11T14:12:20.837Z</time>
      </trkpt>
      <trkpt lat="58.67383693344891" lon="13.599813999608159">
        <ele>60.52</ele>
        <time>2025-02-11T14:13:03.677Z</time>
      </trkpt>
      <trkpt lat="58.67386392317712" lon="13.599940985441208">
        <ele>60.66</ele>
        <time>2025-02-11T14:13:46.518Z</time>
      </trkpt>
      <trkpt lat="58.67388999089599" lon="13.600066965445876">
        <ele>60.79</ele>
        <time>2025-02-11T14:14:29.360Z</time>
      </trkpt>
      <trkpt lat="58.6739169806242" lon="13.600191939622164">
        <ele>60.92</ele>
        <time>2025-02-11T14:15:12.203Z</time>
      </trkpt>
      <trkpt lat="58.67394497618079" lon="13.600314985960722">
        <ele>61.06</ele>
        <time>2025-02-11T14:15:55.048Z</time>
      </trkpt>
      <trkpt lat="58.673971965909004" lon="13.600435936823487">
        <ele>61.19</ele>
        <time>2025-02-11T14:16:37.894Z</time>
      </trkpt>
      <trkpt lat="58.673997949808836" lon="13.600553954020143">
        <ele>61.32</ele>
        <time>2025-02-11T14:17:20.741Z</time>
      </trkpt>
      <trkpt lat="58.67402393370867" lon="13.600667947903275">
        <ele>61.44</ele>
        <time>2025-02-11T14:18:03.589Z</time>
      </trkpt>
      <trkpt lat="58.6740499176085" lon="13.600776996463537">
        <ele>61.57</ele>
        <time>2025-02-11T14:18:46.438Z</time>
      </trkpt>
      <trkpt lat="58.67407497949898" lon="13.600881937891245">
        <ele>61.69</ele>
        <time>2025-02-11T14:19:29.288Z</time>
      </trkpt>
      <trkpt lat="58.674102975055575" lon="13.600987968966365">
        <ele>61.82</ele>
        <time>2025-02-11T14:20:12.139Z</time>
      </trkpt>
      <trkpt lat="58.67412895895541" lon="13.601095927879214">
        <ele>61.94</ele>
        <time>2025-02-11T14:20:54.991Z</time>
      </trkpt>
      <trkpt lat="58.674156954512" lon="13.601206988096237">
        <ele>62.07</ele>
        <time>2025-02-11T14:21:37.844Z</time>
      </trkpt>
      <trkpt lat="58.67418193258345" lon="13.601315952837467">
        <ele>62.19</ele>
        <time>2025-02-11T14:22:20.698Z</time>
      </trkpt>
      <trkpt lat="58.674209928140044" lon="13.601426929235458">
        <ele>62.31</ele>
        <time>2025-02-11T14:23:03.553Z</time>
      </trkpt>
      <trkpt lat="58.6742399353534" lon="13.60153991729021">
        <ele>62.43</ele>
        <time>2025-02-11T14:23:46.409Z</time>
      </trkpt>
      <trkpt lat="58.67426591925323" lon="13.601656928658485">
        <ele>62.56</ele>
        <time>2025-02-11T14:24:29.266Z</time>
      </trkpt>
      <trkpt lat="58.67428695783019" lon="13.60177394002676">
        <ele>62.68</ele>
        <time>2025-02-11T14:25:12.124Z</time>
      </trkpt>
      <trkpt lat="58.6743139475584" lon="13.601889945566654">
        <ele>62.8</ele>
        <time>2025-02-11T14:25:54.983Z</time>
      </trkpt>
      <trkpt lat="58.674340937286615" lon="13.602004945278168">
        <ele>62.92</ele>
        <time>2025-02-11T14:26:37.843Z</time>
      </trkpt>
      <trkpt lat="58.6743659991771" lon="13.6021189391613">
        <ele>63.03</ele>
        <time>2025-02-11T14:27:20.704Z</time>
      </trkpt>
      <trkpt lat="58.67439097724855" lon="13.602229999378324">
        <ele>63.14</ele>
        <time>2025-02-11T14:28:03.566Z</time>
      </trkpt>
      <trkpt lat="58.67441796697676" lon="13.602340975776315">
        <ele>63.26</ele>
        <time>2025-02-11T14:28:46.429Z</time>
      </trkpt>
      <trkpt lat="58.67444193921983" lon="13.602450946345925">
        <ele>63.37</ele>
        <time>2025-02-11T14:29:29.293Z</time>
      </trkpt>
      <trkpt lat="58.674467923119664" lon="13.602561922743917">
        <ele>63.49</ele>
        <time>2025-02-11T14:30:12.158Z</time>
      </trkpt>
      <trkpt lat="58.67449692450464" lon="13.6026749946177">
        <ele>63.6</ele>
        <time>2025-02-11T14:30:55.024Z</time>
      </trkpt>
      <trkpt lat="58.67452592588961" lon="13.602789994329214">
        <ele>63.72</ele>
        <time>2025-02-11T14:31:37.891Z</time>
      </trkpt>
      <trkpt lat="58.674556938931346" lon="13.602906921878457">
        <ele>63.82</ele>
        <time>2025-02-11T14:32:20.759Z</time>
      </trkpt>
      <trkpt lat="58.67458594031632" lon="13.603026950731874">
        <ele>63.93</ele>
        <time>2025-02-11T14:33:03.628Z</time>
      </trkpt>
      <trkpt lat="58.67461494170129" lon="13.603148991242051">
        <ele>64.04</ele>
        <time>2025-02-11T14:33:46.499Z</time>
      </trkpt>
      <trkpt lat="58.67464494891465" lon="13.603270947933197">
        <ele>64.15</ele>
        <time>2025-02-11T14:34:29.371Z</time>
      </trkpt>
      <trkpt lat="58.674674956128" lon="13.603392988443375">
        <ele>64.25</ele>
        <time>2025-02-11T14:35:12.244Z</time>
      </trkpt>
      <trkpt lat="58.674704963341355" lon="13.60351494513452">
        <ele>64.35</ele>
        <time>2025-02-11T14:35:55.118Z</time>
      </trkpt>
      <trkpt lat="58.67473597638309" lon="13.603639919310808">
        <ele>64.46</ele>
        <time>2025-02-11T14:36:37.993Z</time>
      </trkpt>
      <trkpt lat="58.674767995253205" lon="13.603765983134508">
        <ele>64.56</ele>
        <time>2025-02-11T14:37:20.869Z</time>
      </trkpt>
      <trkpt lat="58.67480194196105" lon="13.603891963139176">
        <ele>64.66</ele>
        <time>2025-02-11T14:38:03.746Z</time>
      </trkpt>
      <trkpt lat="58.674834966659546" lon="13.604018948972225">
        <ele>64.75</ele>
        <time>2025-02-11T14:38:46.625Z</time>
      </trkpt>
      <trkpt lat="58.67486991919577" lon="13.604146940633655">
        <ele>64.85</ele>
        <time>2025-02-11T14:39:29.505Z</time>
      </trkpt>
      <trkpt lat="58.67490294389427" lon="13.604272920638323">
        <ele>64.95</ele>
        <time>2025-02-11T14:40:12.386Z</time>
      </trkpt>
      <trkpt lat="58.674933956936" lon="13.604398984462023">
        <ele>65.04</ele>
        <time>2025-02-11T14:40:55.268Z</time>
      </trkpt>
      <trkpt lat="58.6749529838562" lon="13.604526976123452">
        <ele>65.14</ele>
        <time>2025-02-11T14:41:38.151Z</time>
      </trkpt>
      <trkpt lat="58.67497595027089" lon="13.604655973613262">
        <ele>65.23</ele>
        <time>2025-02-11T14:42:21.035Z</time>
      </trkpt>
      <trkpt lat="58.675003945827484" lon="13.604784971103072">
        <ele>65.32</ele>
        <time>2025-02-11T14:43:03.921Z</time>
      </trkpt>
      <trkpt lat="58.67503697052598" lon="13.604914974421263">
        <ele>65.42</ele>
        <time>2025-02-11T14:43:46.808Z</time>
      </trkpt>
      <trkpt lat="58.675069995224476" lon="13.605045983567834">
        <ele>65.51</ele>
        <time>2025-02-11T14:44:29.696Z</time>
      </trkpt>
      <trkpt lat="58.67510092444718" lon="13.605177998542786">
        <ele>65.6</ele>
        <time>2025-02-11T14:45:12.585Z</time>
      </trkpt>
      <trkpt lat="58.675133949145675" lon="13.605311941355467">
        <ele>65.69</ele>
        <time>2025-02-11T14:45:55.475Z</time>
      </trkpt>
      <trkpt lat="58.67516697384417" lon="13.605443956330419">
        <ele>65.77</ele>
        <time>2025-02-11T14:46:38.367Z</time>
      </trkpt>
      <trkpt lat="58.675197986885905" lon="13.60557597130537">
        <ele>65.86</ele>
        <time>2025-02-11T14:47:21.260Z</time>
      </trkpt>
      <trkpt lat="58.67522799409926" lon="13.605707986280322">
        <ele>65.94</ele>
        <time>2025-02-11T14:48:04.154Z</time>
      </trkpt>
      <trkpt lat="58.67525598965585" lon="13.605840923264623">
        <ele>66.01</ele>
        <time>2025-02-11T14:48:47.049Z</time>
      </trkpt>
      <trkpt lat="58.675285996869206" lon="13.605974949896336">
        <ele>66.09</ele>
        <time>2025-02-11T14:49:29.946Z</time>
      </trkpt>
      <trkpt lat="58.67531499825418" lon="13.606108976528049">
        <ele>66.17</ele>
        <time>2025-02-11T14:50:12.844Z</time>
      </trkpt>
      <trkpt lat="58.67534399963915" lon="13.60624291934073">
        <ele>66.25</ele>
        <time>2025-02-11T14:50:55.743Z</time>
      </trkpt>
      <trkpt lat="58.675371995195746" lon="13.606374934315681">
        <ele>66.32</ele>
        <time>2025-02-11T14:51:38.643Z</time>
      </trkpt>
      <trkpt lat="58.67540393024683" lon="13.606507955119014">
        <ele>66.39</ele>
        <time>2025-02-11T14:52:21.544Z</time>
      </trkpt>
      <trkpt lat="58.675436954945326" lon="13.606638964265585">
        <ele>66.46</ele>
        <time>2025-02-11T14:53:04.447Z</time>
      </trkpt>
      <trkpt lat="58.67546997964382" lon="13.606766955927014">
        <ele>66.53</ele>
        <time>2025-02-11T14:53:47.351Z</time>
      </trkpt>
      <trkpt lat="58.675502920523286" lon="13.606893941760063">
        <ele>66.6</ele>
        <time>2025-02-11T14:54:30.256Z</time>
      </trkpt>
      <trkpt lat="58.67553393356502" lon="13.607018999755383">
        <ele>66.66</ele>
        <time>2025-02-11T14:55:13.162Z</time>
      </trkpt>
      <trkpt lat="58.675565952435136" lon="13.60714296810329">
        <ele>66.72</ele>
        <time>2025-02-11T14:55:56.069Z</time>
      </trkpt>
      <trkpt lat="58.67559797130525" lon="13.607264924794436">
        <ele>66.78</ele>
        <time>2025-02-11T14:56:38.977Z</time>
      </trkpt>
      <trkpt lat="58.675626972690225" lon="13.60738294199109">
        <ele>66.84</ele>
        <time>2025-02-11T14:57:21.887Z</time>
      </trkpt>
      <trkpt lat="58.675651950761676" lon="13.607500959187746">
        <ele>66.9</ele>
        <time>2025-02-11T14:58:04.798Z</time>
      </trkpt>
      <trkpt lat="58.67567692883313" lon="13.60761595889926">
        <ele>66.95</ele>
        <time>2025-02-11T14:58:47.710Z</time>
      </trkpt>
      <trkpt lat="58.67570199072361" lon="13.607728946954012">
        <ele>67.01</ele>
        <time>2025-02-11T14:59:30.623Z</time>
      </trkpt>
      <trkpt lat="58.67572696879506" lon="13.607838917523623">
        <ele>67.07</ele>
        <time>2025-02-11T15:00:13.537Z</time>
      </trkpt>
      <trkpt lat="58.67575395852327" lon="13.607944948598742">
        <ele>67.13</ele>
        <time>2025-02-11T15:00:56.452Z</time>
      </trkpt>
      <trkpt lat="58.675780948251486" lon="13.608044944703579">
        <ele>67.18</ele>
        <time>2025-02-11T15:01:39.368Z</time>
      </trkpt>
      <trkpt lat="58.675804920494556" lon="13.608148964121938">
        <ele>67.23</ele>
        <time>2025-02-11T15:02:22.285Z</time>
      </trkpt>
      <trkpt lat="58.6758269648999" lon="13.608254995197058">
        <ele>67.28</ele>
        <time>2025-02-11T15:03:05.202Z</time>
      </trkpt>
      <trkpt lat="58.67584892548621" lon="13.608361948281527">
        <ele>67.33</ele>
        <time>2025-02-11T15:03:48.120Z</time>
      </trkpt>
      <trkpt lat="58.67586996406317" lon="13.608469991013408">
        <ele>67.38</ele>
        <time>2025-02-11T15:04:31.039Z</time>
      </trkpt>
      <trkpt lat="58.67588999681175" lon="13.608576944097877">
        <ele>67.42</ele>
        <time>2025-02-11T15:05:13.959Z</time>
      </trkpt>
      <trkpt lat="58.67591296322644" lon="13.608679957687855">
        <ele>67.46</ele>
        <time>2025-02-11T15:05:56.880Z</time>
      </trkpt>
      <trkpt lat="58.67593592964113" lon="13.608785988762975">
        <ele>67.5</ele>
        <time>2025-02-11T15:06:39.802Z</time>
      </trkpt>
      <trkpt lat="58.67596099153161" lon="13.608895959332585">
        <ele>67.54</ele>
        <time>2025-02-11T15:07:22.725Z</time>
      </trkpt>
      <trkpt lat="58.67598596960306" lon="13.60901196487248">
        <ele>67.57</ele>
        <time>2025-02-11T15:08:05.649Z</time>
      </trkpt>
      <trkpt lat="58.676013965159655" lon="13.609131993725896">
        <ele>67.6</ele>
        <time>2025-02-11T15:08:48.574Z</time>
      </trkpt>
      <trkpt lat="58.67604095488787" lon="13.609254956245422">
        <ele>67.63</ele>
        <time>2025-02-11T15:09:31.501Z</time>
      </trkpt>
      <trkpt lat="58.67606995627284" lon="13.60937993042171">
        <ele>67.66</ele>
        <time>2025-02-11T15:10:14.429Z</time>
      </trkpt>
      <trkpt lat="58.67609594017267" lon="13.60950599424541">
        <ele>67.68</ele>
        <time>2025-02-11T15:10:57.358Z</time>
      </trkpt>
      <trkpt lat="58.676122929900885" lon="13.609631974250078">
        <ele>67.7</ele>
        <time>2025-02-11T15:11:40.288Z</time>
      </trkpt>
      <trkpt lat="58.67615394294262" lon="13.609757954254746">
        <ele>67.72</ele>
        <time>2025-02-11T15:12:23.219Z</time>
      </trkpt>
      <trkpt lat="58.67618093267083" lon="13.609886951744556">
        <ele>67.75</ele>
        <time>2025-02-11T15:13:06.151Z</time>
      </trkpt>
      <trkpt lat="58.676208928227425" lon="13.610017960891128">
        <ele>67.77</ele>
        <time>2025-02-11T15:13:49.084Z</time>
      </trkpt>
      <trkpt lat="58.67623298428953" lon="13.61014997586608">
        <ele>67.79</ele>
        <time>2025-02-11T15:14:32.019Z</time>
      </trkpt>
      <trkpt lat="58.67625796236098" lon="13.61028098501265">
        <ele>67.81</ele>
        <time>2025-02-11T15:15:14.955Z</time>
      </trkpt>
      <trkpt lat="58.67628495208919" lon="13.610412999987602">
        <ele>67.83</ele>
        <time>2025-02-11T15:15:57.892Z</time>
      </trkpt>
      <trkpt lat="58.676314959302545" lon="13.610543925315142">
        <ele>67.84</ele>
        <time>2025-02-11T15:16:40.830Z</time>
      </trkpt>
      <trkpt lat="58.6763449665159" lon="13.610676946118474">
        <ele>67.84</ele>
        <time>2025-02-11T15:17:23.769Z</time>
      </trkpt>
      <trkpt lat="58.67637296207249" lon="13.610807955265045">
        <ele>67.85</ele>
        <time>2025-02-11T15:18:06.710Z</time>
      </trkpt>
      <trkpt lat="58.676402969285846" lon="13.610934941098094">
        <ele>67.85</ele>
        <time>2025-02-11T15:18:49.652Z</time>
      </trkpt>
      <trkpt lat="58.67643197067082" lon="13.611056981608272">
        <ele>67.85</ele>
        <time>2025-02-11T15:19:32.595Z</time>
      </trkpt>
      <trkpt lat="58.67645896039903" lon="13.611179944127798">
        <ele>67.84</ele>
        <time>2025-02-11T15:20:15.539Z</time>
      </trkpt>
      <trkpt lat="58.676487961784005" lon="13.611302990466356">
        <ele>67.84</ele>
        <time>2025-02-11T15:20:58.484Z</time>
      </trkpt>
      <trkpt lat="58.67651495151222" lon="13.611425952985883">
        <ele>67.84</ele>
        <time>2025-02-11T15:21:41.430Z</time>
      </trkpt>
      <trkpt lat="58.67653892375529" lon="13.611553944647312">
        <ele>67.83</ele>
        <time>2025-02-11T15:22:24.377Z</time>
      </trkpt>
      <trkpt lat="58.67656197398901" lon="13.611686965450644">
        <ele>67.82</ele>
        <time>2025-02-11T15:23:07.325Z</time>
      </trkpt>
      <trkpt lat="58.67658795788884" lon="13.611820992082357">
        <ele>67.81</ele>
        <time>2025-02-11T15:23:50.275Z</time>
      </trkpt>
      <trkpt lat="58.676615953445435" lon="13.611953929066658">
        <ele>67.8</ele>
        <time>2025-02-11T15:24:33.226Z</time>
      </trkpt>
      <trkpt lat="58.67664696648717" lon="13.612089967355132">
        <ele>67.79</ele>
        <time>2025-02-11T15:25:16.178Z</time>
      </trkpt>
      <trkpt lat="58.67667496204376" lon="13.612224999815226">
        <ele>67.78</ele>
        <time>2025-02-11T15:25:59.131Z</time>
      </trkpt>
      <trkpt lat="58.676704969257116" lon="13.612357936799526">
        <ele>67.76</ele>
        <time>2025-02-11T15:26:42.086Z</time>
      </trkpt>
      <trkpt lat="58.67673195898533" lon="13.612489951774478">
        <ele>67.75</ele>
        <time>2025-02-11T15:27:25.042Z</time>
      </trkpt>
      <trkpt lat="58.67675794288516" lon="13.61262196674943">
        <ele>67.73</ele>
        <time>2025-02-11T15:28:07.999Z</time>
      </trkpt>
      <trkpt lat="58.67677797563374" lon="13.612752975896">
        <ele>67.72</ele>
        <time>2025-02-11T15:28:50.957Z</time>
      </trkpt>
      <trkpt lat="58.67680295370519" lon="13.612884990870953">
        <ele>67.7</ele>
        <time>2025-02-11T15:29:33.916Z</time>
      </trkpt>
      <trkpt lat="58.67682793177664" lon="13.613016922026873">
        <ele>67.68</ele>
        <time>2025-02-11T15:30:16.876Z</time>
      </trkpt>
      <trkpt lat="58.676855927333236" lon="13.613147931173444">
        <ele>67.65</ele>
        <time>2025-02-11T15:30:59.838Z</time>
      </trkpt>
      <trkpt lat="58.67688492871821" lon="13.613275922834873">
        <ele>67.62</ele>
        <time>2025-02-11T15:31:42.801Z</time>
      </trkpt>
      <trkpt lat="58.676918959245086" lon="13.613404920324683">
        <ele>67.59</ele>
        <time>2025-02-11T15:32:25.765Z</time>
      </trkpt>
      <trkpt lat="58.67694695480168" lon="13.613538946956396">
        <ele>67.56</ele>
        <time>2025-02-11T15:33:08.730Z</time>
      </trkpt>
      <trkpt lat="58.67697495035827" lon="13.613672973588109">
        <ele>67.52</ele>
        <time>2025-02-11T15:33:51.696Z</time>
      </trkpt>
      <trkpt lat="58.67699992842972" lon="13.613805994391441">
        <ele>67.49</ele>
        <time>2025-02-11T15:34:34.664Z</time>
      </trkpt>
      <trkpt lat="58.677028929814696" lon="13.613934991881251">
        <ele>67.45</ele>
        <time>2025-02-11T15:35:17.633Z</time>
      </trkpt>
      <trkpt lat="58.67705994285643" lon="13.614059966057539">
        <ele>67.42</ele>
        <time>2025-02-11T15:36:00.603Z</time>
      </trkpt>
      <trkpt lat="58.677091961726546" lon="13.614181922748685">
        <ele>67.38</ele>
        <time>2025-02-11T15:36:43.574Z</time>
      </trkpt>
      <trkpt lat="58.6771219689399" lon="13.614303963258862">
        <ele>67.35</ele>
        <time>2025-02-11T15:37:26.546Z</time>
      </trkpt>
      <trkpt lat="58.677151976153255" lon="13.614433966577053">
        <ele>67.31</ele>
        <time>2025-02-11T15:38:09.519Z</time>
      </trkpt>
      <trkpt lat="58.67718298919499" lon="13.614563969895244">
        <ele>67.27</ele>
        <time>2025-02-11T15:38:52.494Z</time>
      </trkpt>
      <trkpt lat="58.67721098475158" lon="13.614690955728292">
        <ele>67.23</ele>
        <time>2025-02-11T15:39:35.470Z</time>
      </trkpt>
      <trkpt lat="58.677243925631046" lon="13.61481693573296">
        <ele>67.18</ele>
        <time>2025-02-11T15:40:18.447Z</time>
      </trkpt>
      <trkpt lat="58.67727795615792" lon="13.6149409878999">
        <ele>67.14</ele>
        <time>2025-02-11T15:41:01.425Z</time>
      </trkpt>
      <trkpt lat="58.67731098085642" lon="13.615064956247807">
        <ele>67.08</ele>
        <time>2025-02-11T15:41:44.404Z</time>
      </trkpt>
      <trkpt lat="58.67734098806977" lon="13.615186996757984">
        <ele>67.03</ele>
        <time>2025-02-11T15:42:27.384Z</time>
      </trkpt>
      <trkpt lat="58.677371917292476" lon="13.61530895344913">
        <ele>66.97</ele>
        <time>2025-02-11T15:43:10.365Z</time>
      </trkpt>
      <trkpt lat="58.67740192450583" lon="13.615427976474166">
        <ele>66.91</ele>
        <time>2025-02-11T15:43:53.348Z</time>
      </trkpt>
      <trkpt lat="58.677428998053074" lon="13.615549933165312">
        <ele>66.86</ele>
        <time>2025-02-11T15:44:36.332Z</time>
      </trkpt>
      <trkpt lat="58.67746093310416" lon="13.61567398533225">
        <ele>66.8</ele>
        <time>2025-02-11T15:45:19.317Z</time>
      </trkpt>
      <trkpt lat="58.67749295197427" lon="13.615799965336919">
        <ele>66.75</ele>
        <time>2025-02-11T15:46:02.303Z</time>
      </trkpt>
      <trkpt lat="58.67752597667277" lon="13.615926951169968">
        <ele>66.69</ele>
        <time>2025-02-11T15:46:45.290Z</time>
      </trkpt>
      <trkpt lat="58.67755992338061" lon="13.616053937003016">
        <ele>66.63</ele>
        <time>2025-02-11T15:47:28.278Z</time>
      </trkpt>
      <trkpt lat="58.67759294807911" lon="13.616181928664446">
        <ele>66.57</ele>
        <time>2025-02-11T15:48:11.268Z</time>
      </trkpt>
      <trkpt lat="58.677626978605986" lon="13.616310926154256">
        <ele>66.51</ele>
        <time>2025-02-11T15:48:54.259Z</time>
      </trkpt>
      <trkpt lat="58.67766092531383" lon="13.616440929472446">
        <ele>66.44</ele>
        <time>2025-02-11T15:49:37.251Z</time>
      </trkpt>
      <trkpt lat="58.677692944183946" lon="13.616572944447398">
        <ele>66.37</ele>
        <time>2025-02-11T15:50:20.244Z</time>
      </trkpt>
      <trkpt lat="58.67772596888244" lon="13.616707976907492">
        <ele>66.31</ele>
        <time>2025-02-11T15:51:03.238Z</time>
      </trkpt>
      <trkpt lat="58.67775999940932" lon="13.616844937205315">
        <ele>66.23</ele>
        <time>2025-02-11T15:51:46.234Z</time>
      </trkpt>
      <trkpt lat="58.67779394611716" lon="13.61698399297893">
        <ele>66.16</ele>
        <time>2025-02-11T15:52:29.231Z</time>
      </trkpt>
      <trkpt lat="58.67782797664404" lon="13.617124976590276">
        <ele>66.07</ele>
        <time>2025-02-11T15:53:12.229Z</time>
      </trkpt>
      <trkpt lat="58.677862929180264" lon="13.617265960201621">
        <ele>65.99</ele>
        <time>2025-02-11T15:53:55.229Z</time>
      </trkpt>
      <trkpt lat="58.6778989713639" lon="13.617409961298108">
        <ele>65.91</ele>
        <time>2025-02-11T15:54:38.230Z</time>
      </trkpt>
      <trkpt lat="58.67793492972851" lon="13.617556979879737">
        <ele>65.82</ele>
        <time>2025-02-11T15:55:21.232Z</time>
      </trkpt>
      <trkpt lat="58.67797298356891" lon="13.617705926299095">
        <ele>65.73</ele>
        <time>2025-02-11T15:56:04.236Z</time>
      </trkpt>
      <trkpt lat="58.67800894193351" lon="13.617853950709105">
        <ele>65.64</ele>
        <time>2025-02-11T15:56:47.241Z</time>
      </trkpt>
      <trkpt lat="58.67804498411715" lon="13.618001975119114">
        <ele>65.55</ele>
        <time>2025-02-11T15:57:30.247Z</time>
      </trkpt>
      <trkpt lat="58.67808194831014" lon="13.618149999529123">
        <ele>65.45</ele>
        <time>2025-02-11T15:58:13.255Z</time>
      </trkpt>
      <trkpt lat="58.678117990493774" lon="13.618299951776862">
        <ele>65.36</ele>
        <time>2025-02-11T15:58:56.264Z</time>
      </trkpt>
      <trkpt lat="58.67815495468676" lon="13.618450993672013">
        <ele>65.28</ele>
        <time>2025-02-11T15:59:39.275Z</time>
      </trkpt>
      <trkpt lat="58.6781909968704" lon="13.618601951748133">
        <ele>65.19</ele>
        <time>2025-02-11T16:00:22.287Z</time>
      </trkpt>
      <trkpt lat="58.678228966891766" lon="13.618749976158142">
        <ele>65.11</ele>
        <time>2025-02-11T16:01:05.300Z</time>
      </trkpt>
      <trkpt lat="58.67826391942799" lon="13.618896994739771">
        <ele>65.02</ele>
        <time>2025-02-11T16:01:48.315Z</time>
      </trkpt>
      <trkpt lat="58.67829794995487" lon="13.619042923673987">
        <ele>64.94</ele>
        <time>2025-02-11T16:02:31.331Z</time>
      </trkpt>
      <trkpt lat="58.67833097465336" lon="13.619182985275984">
        <ele>64.86</ele>
        <time>2025-02-11T16:03:14.348Z</time>
      </trkpt>
      <trkpt lat="58.67836492136121" lon="13.619320951402187">
        <ele>64.77</ele>
        <time>2025-02-11T16:03:57.367Z</time>
      </trkpt>
      <trkpt lat="58.67839694023132" lon="13.619459923356771">
        <ele>64.69</ele>
        <time>2025-02-11T16:04:40.387Z</time>
      </trkpt>
      <trkpt lat="58.67842895910144" lon="13.619600990787148">
        <ele>64.61</ele>
        <time>2025-02-11T16:05:23.408Z</time>
      </trkpt>
      <trkpt lat="58.67845997214317" lon="13.619743986055255">
        <ele>64.53</ele>
        <time>2025-02-11T16:06:06.430Z</time>
      </trkpt>
      <trkpt lat="58.67849299684167" lon="13.6198849696666">
        <ele>64.44</ele>
        <time>2025-02-11T16:06:49.454Z</time>
      </trkpt>
      <trkpt lat="58.678527949377894" lon="13.620023941621184">
        <ele>64.35</ele>
        <time>2025-02-11T16:07:32.479Z</time>
      </trkpt>
      <trkpt lat="58.67855896241963" lon="13.62016199156642">
        <ele>64.26</ele>
        <time>2025-02-11T16:08:15.505Z</time>
      </trkpt>
      <trkpt lat="58.678589975461364" lon="13.620300963521004">
        <ele>64.17</ele>
        <time>2025-02-11T16:08:58.533Z</time>
      </trkpt>
      <trkpt lat="58.67862199433148" lon="13.620437923818827">
        <ele>64.08</ele>
        <time>2025-02-11T16:09:41.562Z</time>
      </trkpt>
      <trkpt lat="58.67865099571645" lon="13.620574967935681">
        <ele>64.0</ele>
        <time>2025-02-11T16:10:24.592Z</time>
      </trkpt>
      <trkpt lat="58.678677985444665" lon="13.620711928233504">
        <ele>63.91</ele>
        <time>2025-02-11T16:11:07.623Z</time>
      </trkpt>
      <trkpt lat="58.678702963516116" lon="13.620848972350359">
        <ele>63.81</ele>
        <time>2025-02-11T16:11:50.655Z</time>
      </trkpt>
      <trkpt lat="58.67872794158757" lon="13.62098392099142">
        <ele>63.71</ele>
        <time>2025-02-11T16:12:33.689Z</time>
      </trkpt>
      <trkpt lat="58.67874898016453" lon="13.621118953451514">
        <ele>63.61</ele>
        <time>2025-02-11T16:13:16.724Z</time>
      </trkpt>
      <trkpt lat="58.678766917437315" lon="13.621253985911608">
        <ele>63.52</ele>
        <time>2025-02-11T16:13:59.760Z</time>
      </trkpt>
      <trkpt lat="58.67878292687237" lon="13.621387928724289">
        <ele>63.42</ele>
        <time>2025-02-11T16:14:42.797Z</time>
      </trkpt>
      <trkpt lat="58.67879591882229" lon="13.621522961184382">
        <ele>63.32</ele>
        <time>2025-02-11T16:15:25.835Z</time>
      </trkpt>
      <trkpt lat="58.678805977106094" lon="13.621656987816095">
        <ele>63.21</ele>
        <time>2025-02-11T16:16:08.874Z</time>
      </trkpt>
      <trkpt lat="58.678811928257346" lon="13.621791936457157">
        <ele>63.11</ele>
        <time>2025-02-11T16:16:51.915Z</time>
      </trkpt>
      <trkpt lat="58.67881695739925" lon="13.62192495726049">
        <ele>63.0</ele>
        <time>2025-02-11T16:17:34.957Z</time>
      </trkpt>
      <trkpt lat="58.67882399819791" lon="13.622057978063822">
        <ele>62.9</ele>
        <time>2025-02-11T16:18:18.000Z</time>
      </trkpt>
      <trkpt lat="58.678829949349165" lon="13.622192926704884">
        <ele>62.8</ele>
        <time>2025-02-11T16:19:01.044Z</time>
      </trkpt>
      <trkpt lat="58.67883397266269" lon="13.622330976650119">
        <ele>62.7</ele>
        <time>2025-02-11T16:19:44.089Z</time>
      </trkpt>
      <trkpt lat="58.67883598431945" lon="13.622470954433084">
        <ele>62.59</ele>
        <time>2025-02-11T16:20:27.135Z</time>
      </trkpt>
      <trkpt lat="58.67883598431945" lon="13.622611938044429">
        <ele>62.49</ele>
        <time>2025-02-11T16:21:10.182Z</time>
      </trkpt>
      <trkpt lat="58.67883397266269" lon="13.622752921655774">
        <ele>62.39</ele>
        <time>2025-02-11T16:21:53.231Z</time>
      </trkpt>
      <trkpt lat="58.678829949349165" lon="13.62289298325777">
        <ele>62.29</ele>
        <time>2025-02-11T16:22:36.281Z</time>
      </trkpt>
      <trkpt lat="58.67882492020726" lon="13.623032961040735">
        <ele>62.19</ele>
        <time>2025-02-11T16:23:19.332Z</time>
      </trkpt>
      <trkpt lat="58.67881595157087" lon="13.62316899932921">
        <ele>62.08</ele>
        <time>2025-02-11T16:24:02.384Z</time>
      </trkpt>
      <trkpt lat="58.678805977106094" lon="13.62330294214189">
        <ele>61.98</ele>
        <time>2025-02-11T16:24:45.437Z</time>
      </trkpt>
      <trkpt lat="58.67879399098456" lon="13.623435962945223">
        <ele>61.88</ele>
        <time>2025-02-11T16:25:28.491Z</time>
      </trkpt>
      <trkpt lat="58.67878292687237" lon="13.623566972091794">
        <ele>61.78</ele>
        <time>2025-02-11T16:26:11.546Z</time>
      </trkpt>
      <trkpt lat="58.678768929094076" lon="13.623697981238365">
        <ele>61.68</ele>
        <time>2025-02-11T16:26:54.603Z</time>
      </trkpt>
      <trkpt lat="58.6787539254874" lon="13.623827984556556">
        <ele>61.59</ele>
        <time>2025-02-11T16:27:37.661Z</time>
      </trkpt>
      <trkpt lat="58.67873799987137" lon="13.623956982046366">
        <ele>61.49</ele>
        <time>2025-02-11T16:28:20.720Z</time>
      </trkpt>
      <trkpt lat="58.678720984607935" lon="13.624082962051034">
        <ele>61.4</ele>
        <time>2025-02-11T16:29:03.780Z</time>
      </trkpt>
      <trkpt lat="58.678702963516116" lon="13.62420592457056">
        <ele>61.3</ele>
        <time>2025-02-11T16:29:46.841Z</time>
      </trkpt>
      <trkpt lat="58.67868695408106" lon="13.624327965080738">
        <ele>61.2</ele>
        <time>2025-02-11T16:30:29.903Z</time>
      </trkpt>
      <trkpt lat="58.67867295630276" lon="13.624446988105774">
        <ele>61.11</ele>
        <time>2025-02-11T16:31:12.966Z</time>
      </trkpt>
      <trkpt lat="58.678655941039324" lon="13.624565927311778">
        <ele>61.01</ele>
        <time>2025-02-11T16:31:56.030Z</time>
      </trkpt>
      <trkpt lat="58.678633980453014" lon="13.624681932851672">
        <ele>60.91</ele>
        <time>2025-02-11T16:32:39.095Z</time>
      </trkpt>
      <trkpt lat="58.67861193604767" lon="13.624796932563186">
        <ele>60.82</ele>
        <time>2025-02-11T16:33:22.161Z</time>
      </trkpt>
      <trkpt lat="58.6785879638046" lon="13.624901957809925">
        <ele>60.73</ele>
        <time>2025-02-11T16:34:05.228Z</time>
      </trkpt>
      <trkpt lat="58.67856097407639" lon="13.625002959743142">
        <ele>60.63</ele>
        <time>2025-02-11T16:34:48.296Z</time>
      </trkpt>
      <trkpt lat="58.6785329785198" lon="13.62510597333312">
        <ele>60.53</ele>
        <time>2025-02-11T16:35:31.365Z</time>
      </trkpt>
      <trkpt lat="58.678503977134824" lon="13.625202951952815">
        <ele>60.44</ele>
        <time>2025-02-11T16:36:14.435Z</time>
      </trkpt>
      <trkpt lat="58.67847598157823" lon="13.625307977199554">
        <ele>60.35</ele>
        <time>2025-02-11T16:36:57.506Z</time>
      </trkpt>
      <trkpt lat="58.67845091968775" lon="13.625415936112404">
        <ele>60.26</ele>
        <time>2025-02-11T16:37:40.578Z</time>
      </trkpt>
      <trkpt lat="58.6784259416163" lon="13.625527918338776">
        <ele>60.16</ele>
        <time>2025-02-11T16:38:23.651Z</time>
      </trkpt>
      <trkpt lat="58.678400963544846" lon="13.62563998438418">
        <ele>60.07</ele>
        <time>2025-02-11T16:39:06.725Z</time>
      </trkpt>
      <trkpt lat="58.678374979645014" lon="13.62574995495379">
        <ele>59.98</ele>
        <time>2025-02-11T16:39:49.800Z</time>
      </trkpt>
      <trkpt lat="58.67834899574518" lon="13.625863948836923">
        <ele>59.89</ele>
        <time>2025-02-11T16:40:32.876Z</time>
      </trkpt>
      <trkpt lat="58.67832493968308" lon="13.625977942720056">
        <ele>59.8</ele>
        <time>2025-02-11T16:41:15.953Z</time>
      </trkpt>
      <trkpt lat="58.67830398492515" lon="13.62609495408833">
        <ele>59.7</ele>
        <time>2025-02-11T16:41:59.031Z</time>
      </trkpt>
      <trkpt lat="58.67828696966171" lon="13.626216994598508">
        <ele>59.62</ele>
        <time>2025-02-11T16:42:42.110Z</time>
      </trkpt>
      <trkpt lat="58.6782739777118" lon="13.626347919926047">
        <ele>59.53</ele>
        <time>2025-02-11T16:43:25.190Z</time>
      </trkpt>
      <trkpt lat="58.67826492525637" lon="13.626478929072618">
        <ele>59.45</ele>
        <time>2025-02-11T16:44:08.271Z</time>
      </trkpt>
      <trkpt lat="58.67826098576188" lon="13.626616979017854">
        <ele>59.36</ele>
        <time>2025-02-11T16:44:51.353Z</time>
      </trkpt>
      <trkpt lat="58.67826391942799" lon="13.626763997599483">
        <ele>59.28</ele>
        <time>2025-02-11T16:45:34.437Z</time>
      </trkpt>
      <trkpt lat="58.678270960226655" lon="13.62691093236208">
        <ele>59.21</ele>
        <time>2025-02-11T16:46:17.522Z</time>
      </trkpt>
      <trkpt lat="58.67827791720629" lon="13.62706096842885">
        <ele>59.13</ele>
        <time>2025-02-11T16:47:00.608Z</time>
      </trkpt>
      <trkpt lat="58.67828395217657" lon="13.62721393816173">
        <ele>59.06</ele>
        <time>2025-02-11T16:47:43.695Z</time>
      </trkpt>
      <trkpt lat="58.67828797549009" lon="13.627366991713643">
        <ele>58.98</ele>
        <time>2025-02-11T16:48:26.784Z</time>
      </trkpt>
      <trkpt lat="58.67828797549009" lon="13.627521973103285">
        <ele>58.91</ele>
        <time>2025-02-11T16:49:09.874Z</time>
      </trkpt>
      <trkpt lat="58.67828596383333" lon="13.627672931179404">
        <ele>58.84</ele>
        <time>2025-02-11T16:49:52.965Z</time>
      </trkpt>
      <trkpt lat="58.67828093469143" lon="13.627821961417794">
        <ele>58.78</ele>
        <time>2025-02-11T16:50:36.058Z</time>
      </trkpt>
      <trkpt lat="58.678269954398274" lon="13.627971997484565">
        <ele>58.71</ele>
        <time>2025-02-11T16:51:19.152Z</time>
      </trkpt>
      <trkpt lat="58.67825595661998" lon="13.628119938075542">
        <ele>58.65</ele>
        <time>2025-02-11T16:52:02.247Z</time>
      </trkpt>
      <trkpt lat="58.67823994718492" lon="13.628269974142313">
        <ele>58.59</ele>
        <time>2025-02-11T16:52:45.343Z</time>
      </trkpt>
      <trkpt lat="58.6782219260931" lon="13.628419926390052">
        <ele>58.53</ele>
        <time>2025-02-11T16:53:28.441Z</time>
      </trkpt>
      <trkpt lat="58.67820197716355" lon="13.628568956628442">
        <ele>58.47</ele>
        <time>2025-02-11T16:54:11.540Z</time>
      </trkpt>
      <trkpt lat="58.67818194441497" lon="13.628717986866832">
        <ele>58.41</ele>
        <time>2025-02-11T16:54:54.640Z</time>
      </trkpt>
      <trkpt lat="58.678160989657044" lon="13.628864921629429">
        <ele>58.36</ele>
        <time>2025-02-11T16:55:37.741Z</time>
      </trkpt>
      <trkpt lat="58.678142968565226" lon="13.62901596352458">
        <ele>58.3</ele>
        <time>2025-02-11T16:56:20.844Z</time>
      </trkpt>
      <trkpt lat="58.67812695913017" lon="13.629169939085841">
        <ele>58.25</ele>
        <time>2025-02-11T16:57:03.948Z</time>
      </trkpt>
      <trkpt lat="58.67811094969511" lon="13.629324920475483">
        <ele>58.2</ele>
        <time>2025-02-11T16:57:47.053Z</time>
      </trkpt>
      <trkpt lat="58.67809594608843" lon="13.629482919350266">
        <ele>58.16</ele>
        <time>2025-02-11T16:58:30.160Z</time>
      </trkpt>
      <trkpt lat="58.678079936653376" lon="13.62964192405343">
        <ele>58.12</ele>
        <time>2025-02-11T16:59:13.268Z</time>
      </trkpt>
      <trkpt lat="58.67806199938059" lon="13.629797995090485">
        <ele>58.08</ele>
        <time>2025-02-11T16:59:56.377Z</time>
      </trkpt>
      <trkpt lat="58.67804096080363" lon="13.629950964823365">
        <ele>58.04</ele>
        <time>2025-02-11T17:00:39.488Z</time>
      </trkpt>
      <trkpt lat="58.67801799438894" lon="13.630101922899485">
        <ele>58.01</ele>
        <time>2025-02-11T17:01:22.600Z</time>
      </trkpt>
      <trkpt lat="58.6779959499836" lon="13.630251958966255">
        <ele>57.99</ele>
        <time>2025-02-11T17:02:05.713Z</time>
      </trkpt>
      <trkpt lat="58.67797298356891" lon="13.630401995033026">
        <ele>57.96</ele>
        <time>2025-02-11T17:02:48.828Z</time>
      </trkpt>
      <trkpt lat="58.677950939163566" lon="13.630552953109145">
        <ele>57.93</ele>
        <time>2025-02-11T17:03:31.944Z</time>
      </trkpt>
      <trkpt lat="58.67793291807175" lon="13.630702989175916">
        <ele>57.91</ele>
        <time>2025-02-11T17:04:15.061Z</time>
      </trkpt>
      <trkpt lat="58.6779179982841" lon="13.630850929766893">
        <ele>57.89</ele>
        <time>2025-02-11T17:04:58.180Z</time>
      </trkpt>
      <trkpt lat="58.677906934171915" lon="13.630995936691761">
        <ele>57.87</ele>
        <time>2025-02-11T17:05:41.300Z</time>
      </trkpt>
      <trkpt lat="58.67789595387876" lon="13.631139937788248">
        <ele>57.86</ele>
        <time>2025-02-11T17:06:24.421Z</time>
      </trkpt>
      <trkpt lat="58.677884973585606" lon="13.631285950541496">
        <ele>57.85</ele>
        <time>2025-02-11T17:07:07.543Z</time>
      </trkpt>
      <trkpt lat="58.67787499912083" lon="13.631429951637983">
        <ele>57.84</ele>
        <time>2025-02-11T17:07:50.666Z</time>
      </trkpt>
      <trkpt lat="58.677862929180264" lon="13.631577976047993">
        <ele>57.84</ele>
        <time>2025-02-11T17:08:33.791Z</time>
      </trkpt>
      <trkpt lat="58.67784893140197" lon="13.63172591663897">
        <ele>57.84</ele>
        <time>2025-02-11T17:09:16.917Z</time>
      </trkpt>
      <trkpt lat="58.67783493362367" lon="13.63187494687736">
        <ele>57.84</ele>
        <time>2025-02-11T17:10:00.044Z</time>
      </trkpt>
      <trkpt lat="58.677821941673756" lon="13.63202397711575">
        <ele>57.84</ele>
        <time>2025-02-11T17:10:43.172Z</time>
      </trkpt>
      <trkpt lat="58.6778109613806" lon="13.63217392936349">
        <ele>57.85</ele>
        <time>2025-02-11T17:11:26.302Z</time>
      </trkpt>
      <trkpt lat="58.67780098691583" lon="13.632321953773499">
        <ele>57.86</ele>
        <time>2025-02-11T17:12:09.433Z</time>
      </trkpt>
      <trkpt lat="58.67778992280364" lon="13.632468972355127">
        <ele>57.87</ele>
        <time>2025-02-11T17:12:52.565Z</time>
      </trkpt>
      <trkpt lat="58.677776930853724" lon="13.632617918774486">
        <ele>57.88</ele>
        <time>2025-02-11T17:13:35.698Z</time>
      </trkpt>
      <trkpt lat="58.67776393890381" lon="13.632770972326398">
        <ele>57.9</ele>
        <time>2025-02-11T17:14:18.833Z</time>
      </trkpt>
      <trkpt lat="58.67775094695389" lon="13.632924947887659">
        <ele>57.92</ele>
        <time>2025-02-11T17:15:01.969Z</time>
      </trkpt>
      <trkpt lat="58.67773795500398" lon="13.633081940934062">
        <ele>57.94</ele>
        <time>2025-02-11T17:15:45.106Z</time>
      </trkpt>
      <trkpt lat="58.67772395722568" lon="13.633238933980465">
        <ele>57.96</ele>
        <time>2025-02-11T17:16:28.245Z</time>
      </trkpt>
      <trkpt lat="58.677708953619" lon="13.633394921198487">
        <ele>57.98</ele>
        <time>2025-02-11T17:17:11.385Z</time>
      </trkpt>
      <trkpt lat="58.677690932527184" lon="13.6335479747504">
        <ele>58.01</ele>
        <time>2025-02-11T17:17:54.526Z</time>
      </trkpt>
      <trkpt lat="58.67767198942602" lon="13.6336999386549">
        <ele>58.04</ele>
        <time>2025-02-11T17:18:37.669Z</time>
      </trkpt>
      <trkpt lat="58.67765195667744" lon="13.633847963064909">
        <ele>58.07</ele>
        <time>2025-02-11T17:19:20.813Z</time>
      </trkpt>
      <trkpt lat="58.67763292975724" lon="13.633993975818157">
        <ele>58.1</ele>
        <time>2025-02-11T17:20:03.958Z</time>
      </trkpt>
      <trkpt lat="58.67761298082769" lon="13.634137976914644">
        <ele>58.13</ele>
        <time>2025-02-11T17:20:47.104Z</time>
      </trkpt>
      <trkpt lat="58.67759093642235" lon="13.63427896052599">
        <ele>58.17</ele>
        <time>2025-02-11T17:21:30.252Z</time>
      </trkpt>
      <trkpt lat="58.677564952522516" lon="13.634424973279238">
        <ele>58.21</ele>
        <time>2025-02-11T17:22:13.401Z</time>
      </trkpt>
      <trkpt lat="58.677540980279446" lon="13.634567968547344">
        <ele>58.25</ele>
        <time>2025-02-11T17:22:56.551Z</time>
      </trkpt>
      <trkpt lat="58.677518935874104" lon="13.63470895215869">
        <ele>58.3</ele>
        <time>2025-02-11T17:23:39.702Z</time>
      </trkpt>
      <trkpt lat="58.67749395780265" lon="13.634851947426796">
        <ele>58.35</ele>
        <time>2025-02-11T17:24:22.855Z</time>
      </trkpt>
      <trkpt lat="58.67747099138796" lon="13.634996954351664">
        <ele>58.4</ele>
        <time>2025-02-11T17:25:06.009Z</time>
      </trkpt>
      <trkpt lat="58.67745095863938" lon="13.635144978761673">
        <ele>58.45</ele>
        <time>2025-02-11T17:25:49.164Z</time>
      </trkpt>
      <trkpt lat="58.677435955032706" lon="13.635294931009412">
        <ele>58.51</ele>
        <time>2025-02-11T17:26:32.320Z</time>
      </trkpt>
      <trkpt lat="58.67742598056793" lon="13.635445972904563">
        <ele>58.57</ele>
        <time>2025-02-11T17:27:15.478Z</time>
      </trkpt>
      <trkpt lat="58.67741893976927" lon="13.635596930980682">
        <ele>58.64</ele>
        <time>2025-02-11T17:27:58.637Z</time>
      </trkpt>
      <trkpt lat="58.677414916455746" lon="13.635748978704214">
        <ele>58.71</ele>
        <time>2025-02-11T17:28:41.797Z</time>
      </trkpt>
      <trkpt lat="58.677412988618016" lon="13.635901948437095">
        <ele>58.77</ele>
        <time>2025-02-11T17:29:24.959Z</time>
      </trkpt>
      <trkpt lat="58.677414916455746" lon="13.636052990332246">
        <ele>58.84</ele>
        <time>2025-02-11T17:30:08.122Z</time>
      </trkpt>
      <trkpt lat="58.67741793394089" lon="13.636201936751604">
        <ele>58.92</ele>
        <time>2025-02-11T17:30:51.286Z</time>
      </trkpt>
      <trkpt lat="58.67742497473955" lon="13.636345937848091">
        <ele>58.99</ele>
        <time>2025-02-11T17:31:34.451Z</time>
      </trkpt>
      <trkpt lat="58.677435955032706" lon="13.636482981964946">
        <ele>59.07</ele>
        <time>2025-02-11T17:32:17.617Z</time>
      </trkpt>
      <trkpt lat="58.67744794115424" lon="13.636612985283136">
        <ele>59.15</ele>
        <time>2025-02-11T17:33:00.785Z</time>
      </trkpt>
      <trkpt lat="58.67746093310416" lon="13.636735947802663">
        <ele>59.23</ele>
        <time>2025-02-11T17:33:43.954Z</time>
      </trkpt>
      <trkpt lat="58.677474930882454" lon="13.63685798831284">
        <ele>59.31</ele>
        <time>2025-02-11T17:34:27.124Z</time>
      </trkpt>
      <trkpt lat="58.67748892866075" lon="13.636976927518845">
        <ele>59.39</ele>
        <time>2025-02-11T17:35:10.295Z</time>
      </trkpt>
      <trkpt lat="58.67750393226743" lon="13.637096956372261">
        <ele>59.48</ele>
        <time>2025-02-11T17:35:53.467Z</time>
      </trkpt>
      <trkpt lat="58.677519941702485" lon="13.637219918891788">
        <ele>59.57</ele>
        <time>2025-02-11T17:36:36.640Z</time>
      </trkpt>
      <trkpt lat="58.67753595113754" lon="13.637342965230346">
        <ele>59.66</ele>
        <time>2025-02-11T17:37:19.814Z</time>
      </trkpt>
      <trkpt lat="58.6775519605726" lon="13.637462994083762">
        <ele>59.75</ele>
        <time>2025-02-11T17:38:02.989Z</time>
      </trkpt>
      <trkpt lat="58.6775659583509" lon="13.637581933289766">
        <ele>59.84</ele>
        <time>2025-02-11T17:38:46.165Z</time>
      </trkpt>
      <trkpt lat="58.67757794447243" lon="13.63769693300128">
        <ele>59.94</ele>
        <time>2025-02-11T17:39:29.342Z</time>
      </trkpt>
      <trkpt lat="58.67758892476559" lon="13.637811932712793">
        <ele>60.04</ele>
        <time>2025-02-11T17:40:12.520Z</time>
      </trkpt>
      <trkpt lat="58.67759898304939" lon="13.637929949909449">
        <ele>60.14</ele>
        <time>2025-02-11T17:40:55.699Z</time>
      </trkpt>
      <trkpt lat="58.67760895751417" lon="13.638049978762865">
        <ele>60.24</ele>
        <time>2025-02-11T17:41:38.879Z</time>
      </trkpt>
      <trkpt lat="58.67761893197894" lon="13.638174952939153">
        <ele>60.34</ele>
        <time>2025-02-11T17:42:22.060Z</time>
      </trkpt>
      <trkpt lat="58.67762899026275" lon="13.63829892128706">
        <ele>60.45</ele>
        <time>2025-02-11T17:43:05.242Z</time>
      </trkpt>
      <trkpt lat="58.67763695307076" lon="13.638418950140476">
        <ele>60.56</ele>
        <time>2025-02-11T17:43:48.425Z</time>
      </trkpt>
      <trkpt lat="58.67764592170715" lon="13.638540990650654">
        <ele>60.67</ele>
        <time>2025-02-11T17:44:31.609Z</time>
      </trkpt>
      <trkpt lat="58.67765597999096" lon="13.6386629473418">
        <ele>60.77</ele>
        <time>2025-02-11T17:45:14.794Z</time>
      </trkpt>
      <trkpt lat="58.67766595445573" lon="13.638784987851977">
        <ele>60.88</ele>
        <time>2025-02-11T17:45:57.980Z</time>
      </trkpt>
      <trkpt lat="58.67767492309213" lon="13.638905938714743">
        <ele>60.99</ele>
        <time>2025-02-11T17:46:41.167Z</time>
      </trkpt>
      <trkpt lat="58.67768397554755" lon="13.6390289850533">
        <ele>61.1</ele>
        <time>2025-02-11T17:47:24.355Z</time>
      </trkpt>
      <trkpt lat="58.677691938355565" lon="13.639151947572827">
        <ele>61.21</ele>
        <time>2025-02-11T17:48:07.544Z</time>
      </trkpt>
      <trkpt lat="58.67770099081099" lon="13.639276921749115">
        <ele>61.32</ele>
        <time>2025-02-11T17:48:50.734Z</time>
      </trkpt>
      <trkpt lat="58.677709959447384" lon="13.639402985572815">
        <ele>61.42</ele>
        <time>2025-02-11T17:49:33.925Z</time>
      </trkpt>
      <trkpt lat="58.67771993391216" lon="13.639528965577483">
        <ele>61.53</ele>
        <time>2025-02-11T17:50:17.117Z</time>
      </trkpt>
      <trkpt lat="58.677732925862074" lon="13.639654945582151">
        <ele>61.64</ele>
        <time>2025-02-11T17:51:00.310Z</time>
      </trkpt>
      <trkpt lat="58.67774692364037" lon="13.63978092558682">
        <ele>61.75</ele>
        <time>2025-02-11T17:51:43.504Z</time>
      </trkpt>
      <trkpt lat="58.67776092141867" lon="13.639905983582139">
        <ele>61.85</ele>
        <time>2025-02-11T17:52:26.700Z</time>
      </trkpt>
      <trkpt lat="58.67777491919696" lon="13.640032969415188">
        <ele>61.96</ele>
        <time>2025-02-11T17:53:09.897Z</time>
      </trkpt>
      <trkpt lat="58.67778891697526" lon="13.640162972733378">
        <ele>62.06</ele>
        <time>2025-02-11T17:53:53.095Z</time>
      </trkpt>
      <trkpt lat="58.67780492641032" lon="13.64029599353671">
        <ele>62.17</ele>
        <time>2025-02-11T17:54:36.294Z</time>
      </trkpt>
      <trkpt lat="58.677822947502136" lon="13.64042792469263">
        <ele>62.27</ele>
        <time>2025-02-11T17:55:19.494Z</time>
      </trkpt>
      <trkpt lat="58.677838956937194" lon="13.640558933839202">
        <ele>62.37</ele>
        <time>2025-02-11T17:56:02.695Z</time>
      </trkpt>
      <trkpt lat="58.67785396054387" lon="13.640691954642534">
        <ele>62.47</ele>
        <time>2025-02-11T17:56:45.897Z</time>
      </trkpt>
      <trkpt lat="58.67786896415055" lon="13.640827992931008">
        <ele>62.58</ele>
        <time>2025-02-11T17:57:29.100Z</time>
      </trkpt>
      <trkpt lat="58.677885979413986" lon="13.640967970713973">
        <ele>62.68</ele>
        <time>2025-02-11T17:58:12.305Z</time>
      </trkpt>
      <trkpt lat="58.677901988849044" lon="13.641109960153699">
        <ele>62.78</ele>
        <time>2025-02-11T17:58:55.511Z</time>
      </trkpt>
      <trkpt lat="58.6779179982841" lon="13.641251949593425">
        <ele>62.88</ele>
        <time>2025-02-11T17:59:38.718Z</time>
      </trkpt>
      <trkpt lat="58.67793099023402" lon="13.641395950689912">
        <ele>62.98</ele>
        <time>2025-02-11T18:00:21.926Z</time>
      </trkpt>
      <trkpt lat="58.67794297635555" lon="13.64154095761478">
        <ele>63.08</ele>
        <time>2025-02-11T18:01:05.136Z</time>
      </trkpt>
      <trkpt lat="58.677951944991946" lon="13.641683952882886">
        <ele>63.18</ele>
        <time>2025-02-11T18:01:48.347Z</time>
      </trkpt>
      <trkpt lat="58.67796099744737" lon="13.641829965636134">
        <ele>63.29</ele>
        <time>2025-02-11T18:02:31.559Z</time>
      </trkpt>
      <trkpt lat="58.677968960255384" lon="13.641981929540634">
        <ele>63.39</ele>
        <time>2025-02-11T18:03:14.772Z</time>
      </trkpt>
      <trkpt lat="58.6779769230634" lon="13.642135988920927">
        <ele>63.49</ele>
        <time>2025-02-11T18:03:57.987Z</time>
      </trkpt>
      <trkpt lat="58.67798396386206" lon="13.64229197613895">
        <ele>63.58</ele>
        <time>2025-02-11T18:04:41.203Z</time>
      </trkpt>
      <trkpt lat="58.677987987175584" lon="13.642450980842113">
        <ele>63.68</ele>
        <time>2025-02-11T18:05:24.420Z</time>
      </trkpt>
      <trkpt lat="58.677989998832345" lon="13.642607973888516">
        <ele>63.77</ele>
        <time>2025-02-11T18:06:07.638Z</time>
      </trkpt>
      <trkpt lat="58.677991926670074" lon="13.642763961106539">
        <ele>63.87</ele>
        <time>2025-02-11T18:06:50.858Z</time>
      </trkpt>
      <trkpt lat="58.677994944155216" lon="13.642915925011039">
        <ele>63.95</ele>
        <time>2025-02-11T18:07:34.079Z</time>
      </trkpt>
      <trkpt lat="58.67799796164036" lon="13.643063949421048">
        <ele>64.04</ele>
        <time>2025-02-11T18:08:17.301Z</time>
      </trkpt>
      <trkpt lat="58.67800198495388" lon="13.643209962174296">
        <ele>64.13</ele>
        <time>2025-02-11T18:09:00.525Z</time>
      </trkpt>
      <trkpt lat="58.67800693027675" lon="13.643355974927545">
        <ele>64.22</ele>
        <time>2025-02-11T18:09:43.750Z</time>
      </trkpt>
      <trkpt lat="58.678010953590274" lon="13.643501987680793">
        <ele>64.31</ele>
        <time>2025-02-11T18:10:26.976Z</time>
      </trkpt>
      <trkpt lat="58.67801598273218" lon="13.64364699460566">
        <ele>64.39</ele>
        <time>2025-02-11T18:11:10.203Z</time>
      </trkpt>
      <trkpt lat="58.67802394554019" lon="13.643791917711496">
        <ele>64.47</ele>
        <time>2025-02-11T18:11:53.431Z</time>
      </trkpt>
      <trkpt lat="58.678030986338854" lon="13.643932985141873">
        <ele>64.56</ele>
        <time>2025-02-11T18:12:36.661Z</time>
      </trkpt>
      <trkpt lat="58.67804297246039" lon="13.6440749745816">
        <ele>64.63</ele>
        <time>2025-02-11T18:13:19.892Z</time>
      </trkpt>
      <trkpt lat="58.678056970238686" lon="13.644213946536183">
        <ele>64.71</ele>
        <time>2025-02-11T18:14:03.124Z</time>
      </trkpt>
      <trkpt lat="58.678074991330504" lon="13.644350990653038">
        <ele>64.79</ele>
        <time>2025-02-11T18:14:46.357Z</time>
      </trkpt>
      <trkpt lat="58.678096951916814" lon="13.6444859392941">
        <ele>64.87</ele>
        <time>2025-02-11T18:15:29.591Z</time>
      </trkpt>
      <trkpt lat="58.678121929988265" lon="13.644616948440671">
        <ele>64.95</ele>
        <time>2025-02-11T18:16:12.826Z</time>
      </trkpt>
      <trkpt lat="58.67814992554486" lon="13.64474393427372">
        <ele>65.03</ele>
        <time>2025-02-11T18:16:56.063Z</time>
      </trkpt>
      <trkpt lat="58.67818093858659" lon="13.64486899226904">
        <ele>65.1</ele>
        <time>2025-02-11T18:17:39.301Z</time>
      </trkpt>
      <trkpt lat="58.67821396328509" lon="13.644991954788566">
        <ele>65.17</ele>
        <time>2025-02-11T18:18:22.540Z</time>
      </trkpt>
      <trkpt lat="58.678248999640346" lon="13.645115923136473">
        <ele>65.24</ele>
        <time>2025-02-11T18:19:05.780Z</time>
      </trkpt>
      <trkpt lat="58.67828194051981" lon="13.645240981131792">
        <ele>65.31</ele>
        <time>2025-02-11T18:19:49.021Z</time>
      </trkpt>
      <trkpt lat="58.678314965218306" lon="13.645368972793221">
        <ele>65.38</ele>
        <time>2025-02-11T18:20:32.263Z</time>
      </trkpt>
      <trkpt lat="58.6783479899168" lon="13.64549696445465">
        <ele>65.44</ele>
        <time>2025-02-11T18:21:15.507Z</time>
      </trkpt>
      <trkpt lat="58.678380930796266" lon="13.64562596194446">
        <ele>65.5</ele>
        <time>2025-02-11T18:21:58.752Z</time>
      </trkpt>
      <trkpt lat="58.67840993218124" lon="13.645757976919413">
        <ele>65.57</ele>
        <time>2025-02-11T18:22:41.998Z</time>
      </trkpt>
      <trkpt lat="58.67843792773783" lon="13.645888986065984">
        <ele>65.62</ele>
        <time>2025-02-11T18:23:25.245Z</time>
      </trkpt>
      <trkpt lat="58.678464917466044" lon="13.646018989384174">
        <ele>65.68</ele>
        <time>2025-02-11T18:24:08.493Z</time>
      </trkpt>
      <trkpt lat="58.678487967699766" lon="13.646149998530746">
        <ele>65.73</ele>
        <time>2025-02-11T18:24:51.743Z</time>
      </trkpt>
      <trkpt lat="58.678506994619966" lon="13.646283941343427">
        <ele>65.78</ele>
        <time>2025-02-11T18:25:34.994Z</time>
      </trkpt>
      <trkpt lat="58.67852292023599" lon="13.646421991288662">
        <ele>65.83</ele>
        <time>2025-02-11T18:26:18.246Z</time>
      </trkpt>
      <trkpt lat="58.67853499017656" lon="13.646560963243246">
        <ele>65.87</ele>
        <time>2025-02-11T18:27:01.499Z</time>
      </trkpt>
      <trkpt lat="58.67854395881295" lon="13.64669993519783">
        <ele>65.91</ele>
        <time>2025-02-11T18:27:44.753Z</time>
      </trkpt>
      <trkpt lat="58.678547982126474" lon="13.646836979314685">
        <ele>65.95</ele>
        <time>2025-02-11T18:28:28.008Z</time>
      </trkpt>
      <trkpt lat="58.678546976298094" lon="13.646971927955747">
        <ele>65.98</ele>
        <time>2025-02-11T18:29:11.265Z</time>
      </trkpt>
      <trkpt lat="58.67854194715619" lon="13.647104948759079">
        <ele>66.02</ele>
        <time>2025-02-11T18:29:54.523Z</time>
      </trkpt>
      <trkpt lat="58.67853398434818" lon="13.64723595790565">
        <ele>66.05</ele>
        <time>2025-02-11T18:30:37.782Z</time>
      </trkpt>
      <trkpt lat="58.67852493189275" lon="13.647367972880602">
        <ele>66.07</ele>
        <time>2025-02-11T18:31:21.042Z</time>
      </trkpt>
      <trkpt lat="58.67851495742798" lon="13.647501999512315">
        <ele>66.1</ele>
        <time>2025-02-11T18:32:04.303Z</time>
      </trkpt>
      <trkpt lat="58.678505988791585" lon="13.647633930668235">
        <ele>66.12</ele>
        <time>2025-02-11T18:32:47.565Z</time>
      </trkpt>
      <trkpt lat="58.67849794216454" lon="13.647764939814806">
        <ele>66.14</ele>
        <time>2025-02-11T18:33:30.828Z</time>
      </trkpt>
      <trkpt lat="58.67849199101329" lon="13.647894943132997">
        <ele>66.16</ele>
        <time>2025-02-11T18:34:14.092Z</time>
      </trkpt>
      <trkpt lat="58.67848997935653" lon="13.648024946451187">
        <ele>66.18</ele>
        <time>2025-02-11T18:34:57.357Z</time>
      </trkpt>
      <trkpt lat="58.67849199101329" lon="13.648153943940997">
        <ele>66.2</ele>
        <time>2025-02-11T18:35:40.623Z</time>
      </trkpt>
      <trkpt lat="58.67849693633616" lon="13.648283947259188">
        <ele>66.21</ele>
        <time>2025-02-11T18:36:23.891Z</time>
      </trkpt>
      <trkpt lat="58.678504982963204" lon="13.648409927263856">
        <ele>66.22</ele>
        <time>2025-02-11T18:37:07.160Z</time>
      </trkpt>
      <trkpt lat="58.67851495742798" lon="13.648528950288892">
        <ele>66.23</ele>
        <time>2025-02-11T18:37:50.430Z</time>
      </trkpt>
      <trkpt lat="58.67852292023599" lon="13.648643950000405">
        <ele>66.24</ele>
        <time>2025-02-11T18:38:33.701Z</time>
      </trkpt>
      <trkpt lat="58.678529961034656" lon="13.648752998560667">
        <ele>66.25</ele>
        <time>2025-02-11T18:39:16.973Z</time>
      </trkpt>
      <trkpt lat="58.67853599600494" lon="13.648858945816755">
        <ele>66.25</ele>
        <time>2025-02-11T18:40:00.245Z</time>
      </trkpt>
      <trkpt lat="58.67853993549943" lon="13.648967994377017">
        <ele>66.25</ele>
        <time>2025-02-11T18:40:43.518Z</time>
      </trkpt>
      <trkpt lat="58.67854295298457" lon="13.649070924147964">
        <ele>66.24</ele>
        <time>2025-02-11T18:41:26.792Z</time>
      </trkpt>
      <trkpt lat="58.678546976298094" lon="13.649173937737942">
        <ele>66.23</ele>
        <time>2025-02-11T18:42:10.067Z</time>
      </trkpt>
      <trkpt lat="58.678549993783236" lon="13.649279968813062">
        <ele>66.21</ele>
        <time>2025-02-11T18:42:53.343Z</time>
      </trkpt>
      <trkpt lat="58.678553933277726" lon="13.649390945211053">
        <ele>66.2</ele>
        <time>2025-02-11T18:43:36.620Z</time>
      </trkpt>
      <trkpt lat="58.67855795659125" lon="13.649505944922566">
        <ele>66.18</ele>
        <time>2025-02-11T18:44:19.898Z</time>
      </trkpt>
      <trkpt lat="58.67856499738991" lon="13.649624967947602">
        <ele>66.15</ele>
        <time>2025-02-11T18:45:03.177Z</time>
      </trkpt>
      <trkpt lat="58.6785689368844" lon="13.649743990972638">
        <ele>66.12</ele>
        <time>2025-02-11T18:45:46.457Z</time>
      </trkpt>
      <trkpt lat="58.678569942712784" lon="13.649864941835403">
        <ele>66.1</ele>
        <time>2025-02-11T18:46:29.738Z</time>
      </trkpt>
      <trkpt lat="58.678569942712784" lon="13.649989999830723">
        <ele>66.07</ele>
        <time>2025-02-11T18:47:13.020Z</time>
      </trkpt>
      <trkpt lat="58.678569942712784" lon="13.650118997320533">
        <ele>66.03</ele>
        <time>2025-02-11T18:47:56.303Z</time>
      </trkpt>
      <trkpt lat="58.678570948541164" lon="13.650249922648072">
        <ele>65.99</ele>
        <time>2025-02-11T18:48:39.587Z</time>
      </trkpt>
      <trkpt lat="58.678572960197926" lon="13.650383949279785">
        <ele>65.95</ele>
        <time>2025-02-11T18:49:22.872Z</time>
      </trkpt>
      <trkpt lat="58.67857497185469" lon="13.650518981739879">
        <ele>65.91</ele>
        <time>2025-02-11T18:50:06.158Z</time>
      </trkpt>
      <trkpt lat="58.67857899516821" lon="13.65065393038094">
        <ele>65.87</ele>
        <time>2025-02-11T18:50:49.445Z</time>
      </trkpt>
      <trkpt lat="58.67858394049108" lon="13.650787957012653">
        <ele>65.82</ele>
        <time>2025-02-11T18:51:32.734Z</time>
      </trkpt>
      <trkpt lat="58.67858695797622" lon="13.650920977815986">
        <ele>65.77</ele>
        <time>2025-02-11T18:52:16.024Z</time>
      </trkpt>
      <trkpt lat="58.6785879638046" lon="13.651055926457047">
        <ele>65.71</ele>
        <time>2025-02-11T18:52:59.315Z</time>
      </trkpt>
      <trkpt lat="58.67858695797622" lon="13.651196993887424">
        <ele>65.66</ele>
        <time>2025-02-11T18:53:42.607Z</time>
      </trkpt>
      <trkpt lat="58.67858595214784" lon="13.651339989155531">
        <ele>65.59</ele>
        <time>2025-02-11T18:54:25.900Z</time>
      </trkpt>
      <trkpt lat="58.67858092300594" lon="13.651487929746509">
        <ele>65.53</ele>
        <time>2025-02-11T18:55:09.194Z</time>
      </trkpt>
      <trkpt lat="58.678569942712784" lon="13.651636959984899">
        <ele>65.46</ele>
        <time>2025-02-11T18:55:52.490Z</time>
      </trkpt>
      <trkpt lat="58.678552927449346" lon="13.651784984394908">
        <ele>65.39</ele>
        <time>2025-02-11T18:56:35.787Z</time>
      </trkpt>
      <trkpt lat="58.678530966863036" lon="13.651931919157505">
        <ele>65.33</ele>
        <time>2025-02-11T18:57:19.085Z</time>
      </trkpt>
      <trkpt lat="58.678506994619966" lon="13.652076926082373">
        <ele>65.25</ele>
        <time>2025-02-11T18:58:02.384Z</time>
      </trkpt>
      <trkpt lat="58.67847899906337" lon="13.652213970199227">
        <ele>65.18</ele>
        <time>2025-02-11T18:58:45.685Z</time>
      </trkpt>
      <trkpt lat="58.67844899185002" lon="13.652345985174179">
        <ele>65.11</ele>
        <time>2025-02-11T18:59:28.987Z</time>
      </trkpt>
      <trkpt lat="58.678419990465045" lon="13.65247992798686">
        <ele>65.04</ele>
        <time>2025-02-11T19:00:12.290Z</time>
      </trkpt>
      <trkpt lat="58.67839694023132" lon="13.652618983760476">
        <ele>64.97</ele>
        <time>2025-02-11T19:00:55.594Z</time>
      </trkpt>
      <trkpt lat="58.678378919139504" lon="13.652762984856963">
        <ele>64.9</ele>
        <time>2025-02-11T19:01:38.900Z</time>
      </trkpt>
      <trkpt lat="58.67836399935186" lon="13.652913942933083">
        <ele>64.82</ele>
        <time>2025-02-11T19:02:22.207Z</time>
      </trkpt>
      <trkpt lat="58.678354946896434" lon="13.653069930151105">
        <ele>64.75</ele>
        <time>2025-02-11T19:03:05.515Z</time>
      </trkpt>
      <trkpt lat="58.67834991775453" lon="13.65323094651103">
        <ele>64.67</ele>
        <time>2025-02-11T19:03:48.825Z</time>
      </trkpt>
      <trkpt lat="58.67834899574518" lon="13.653393974527717">
        <ele>64.58</ele>
        <time>2025-02-11T19:04:32.136Z</time>
      </trkpt>
      <trkpt lat="58.67834899574518" lon="13.653557924553752">
        <ele>64.49</ele>
        <time>2025-02-11T19:05:15.448Z</time>
      </trkpt>
      <trkpt lat="58.67835092358291" lon="13.653720952570438">
        <ele>64.4</ele>
        <time>2025-02-11T19:05:58.762Z</time>
      </trkpt>
      <trkpt lat="58.678355952724814" lon="13.653881968930364">
        <ele>64.31</ele>
        <time>2025-02-11T19:06:42.077Z</time>
      </trkpt>
      <trkpt lat="58.678357964381576" lon="13.654041979461908">
        <ele>64.22</ele>
        <time>2025-02-11T19:07:25.393Z</time>
      </trkpt>
      <trkpt lat="58.67835997603834" lon="13.654199978336692">
        <ele>64.12</ele>
        <time>2025-02-11T19:08:08.711Z</time>
      </trkpt>
      <trkpt lat="58.6783619876951" lon="13.654353953897953">
        <ele>64.02</ele>
        <time>2025-02-11T19:08:52.030Z</time>
      </trkpt>
      <trkpt lat="58.67836693301797" lon="13.654504995793104">
        <ele>63.91</ele>
        <time>2025-02-11T19:09:35.350Z</time>
      </trkpt>
      <trkpt lat="58.67837095633149" lon="13.654654948040843">
        <ele>63.81</ele>
        <time>2025-02-11T19:10:18.671Z</time>
      </trkpt>
      <trkpt lat="58.67837397381663" lon="13.65479894913733">
        <ele>63.71</ele>
        <time>2025-02-11T19:11:01.994Z</time>
      </trkpt>
      <trkpt lat="58.678375985473394" lon="13.654935993254185">
        <ele>63.6</ele>
        <time>2025-02-11T19:11:45.318Z</time>
      </trkpt>
      <trkpt lat="58.678377997130156" lon="13.655073959380388">
        <ele>63.49</ele>
        <time>2025-02-11T19:12:28.643Z</time>
      </trkpt>
      <trkpt lat="58.67838294245303" lon="13.655213937163353">
        <ele>63.38</ele>
        <time>2025-02-11T19:13:11.969Z</time>
      </trkpt>
      <trkpt lat="58.67838797159493" lon="13.65535793825984">
        <ele>63.27</ele>
        <time>2025-02-11T19:13:55.296Z</time>
      </trkpt>
      <trkpt lat="58.67838998325169" lon="13.655503951013088">
        <ele>63.15</ele>
        <time>2025-02-11T19:14:38.625Z</time>
      </trkpt>
      <trkpt lat="58.67839098908007" lon="13.655649963766336">
        <ele>63.03</ele>
        <time>2025-02-11T19:15:21.955Z</time>
      </trkpt>
      <trkpt lat="58.67839392274618" lon="13.655800921842456">
        <ele>62.91</ele>
        <time>2025-02-11T19:16:05.286Z</time>
      </trkpt>
      <trkpt lat="58.678397946059704" lon="13.655951963737607">
        <ele>62.79</ele>
        <time>2025-02-11T19:16:48.618Z</time>
      </trkpt>
      <trkpt lat="58.67840498685837" lon="13.656105939298868">
        <ele>62.66</ele>
        <time>2025-02-11T19:17:31.952Z</time>
      </trkpt>
      <trkpt lat="58.67841093800962" lon="13.656259998679161">
        <ele>62.54</ele>
        <time>2025-02-11T19:18:15.287Z</time>
      </trkpt>
      <trkpt lat="58.6784169729799" lon="13.656416991725564">
        <ele>62.42</ele>
        <time>2025-02-11T19:18:58.623Z</time>
      </trkpt>
      <trkpt lat="58.678422924131155" lon="13.656571973115206">
        <ele>62.29</ele>
        <time>2025-02-11T19:19:41.960Z</time>
      </trkpt>
      <trkpt lat="58.67842795327306" lon="13.656727960333228">
        <ele>62.16</ele>
        <time>2025-02-11T19:20:25.299Z</time>
      </trkpt>
      <trkpt lat="58.67843197658658" lon="13.65688394755125">
        <ele>62.04</ele>
        <time>2025-02-11T19:21:08.639Z</time>
      </trkpt>
      <trkpt lat="58.67843398824334" lon="13.657037923112512">
        <ele>61.92</ele>
        <time>2025-02-11T19:21:51.980Z</time>
      </trkpt>
      <trkpt lat="58.67843298241496" lon="13.657190976664424">
        <ele>61.79</ele>
        <time>2025-02-11T19:22:35.323Z</time>
      </trkpt>
      <trkpt lat="58.678424935787916" lon="13.657344952225685">
        <ele>61.65</ele>
        <time>2025-02-11T19:23:18.667Z</time>
      </trkpt>
      <trkpt lat="58.67840297520161" lon="13.657492976635695">
        <ele>61.53</ele>
        <time>2025-02-11T19:24:02.012Z</time>
      </trkpt>
      <trkpt lat="58.67836793884635" lon="13.657627925276756">
        <ele>61.39</ele>
        <time>2025-02-11T19:24:45.358Z</time>
      </trkpt>
      <trkpt lat="58.67832493968308" lon="13.657747954130173">
        <ele>61.25</ele>
        <time>2025-02-11T19:25:28.706Z</time>
      </trkpt>
      <trkpt lat="58.67826299741864" lon="13.65784895606339">
        <ele>61.11</ele>
        <time>2025-02-11T19:26:12.055Z</time>
      </trkpt>
      <trkpt lat="58.678185967728496" lon="13.65791492164135">
        <ele>60.97</ele>
        <time>2025-02-11T19:26:55.405Z</time>
      </trkpt>
      <trkpt lat="58.67810499854386" lon="13.65795498713851">
        <ele>60.82</ele>
        <time>2025-02-11T19:27:38.757Z</time>
      </trkpt>
      <trkpt lat="58.67801799438894" lon="13.657975941896439">
        <ele>60.67</ele>
        <time>2025-02-11T19:28:22.110Z</time>
      </trkpt>
      <trkpt lat="58.67792998440564" lon="13.657989939674735">
        <ele>60.51</ele>
        <time>2025-02-11T19:29:05.464Z</time>
      </trkpt>
      <trkpt lat="58.6778439860791" lon="13.6579969804734">
        <ele>60.36</ele>
        <time>2025-02-11T19:29:48.820Z</time>
      </trkpt>
      <trkpt lat="58.677755976095796" lon="13.658017935231328">
        <ele>60.21</ele>
        <time>2025-02-11T19:30:32.177Z</time>
      </trkpt>
      <trkpt lat="58.677667966112494" lon="13.65804199129343">
        <ele>60.06</ele>
        <time>2025-02-11T19:31:15.536Z</time>
      </trkpt>
      <trkpt lat="58.677580961957574" lon="13.658076943829656">
        <ele>59.91</ele>
        <time>2025-02-11T19:31:58.896Z</time>
      </trkpt>
      <trkpt lat="58.677496975287795" lon="13.658124972134829">
        <ele>59.76</ele>
        <time>2025-02-11T19:32:42.258Z</time>
      </trkpt>
      <trkpt lat="58.6774139944464" lon="13.658188926056027">
        <ele>59.6</ele>
        <time>2025-02-11T19:33:25.621Z</time>
      </trkpt>
      <trkpt lat="58.67733294144273" lon="13.658269979059696">
        <ele>59.45</ele>
        <time>2025-02-11T19:34:08.985Z</time>
      </trkpt>
      <trkpt lat="58.67725297808647" lon="13.658368969336152">
        <ele>59.29</ele>
        <time>2025-02-11T19:34:52.351Z</time>
      </trkpt>
      <trkpt lat="58.67717997170985" lon="13.658489920198917">
        <ele>59.13</ele>
        <time>2025-02-11T19:35:35.719Z</time>
      </trkpt>
      <trkpt lat="58.677114928141236" lon="13.65862495265901">
        <ele>58.97</ele>
        <time>2025-02-11T19:36:19.088Z</time>
      </trkpt>
      <trkpt lat="58.67705591954291" lon="13.658758979290724">
        <ele>58.82</ele>
        <time>2025-02-11T19:37:02.459Z</time>
      </trkpt>
      <trkpt lat="58.67699397727847" lon="13.658897951245308">
        <ele>58.66</ele>
        <time>2025-02-11T19:37:45.831Z</time>
      </trkpt>
      <trkpt lat="58.67693295702338" lon="13.65903197787702">
        <ele>58.5</ele>
        <time>2025-02-11T19:38:29.205Z</time>
      </trkpt>
      <trkpt lat="58.67687193676829" lon="13.65915996953845">
        <ele>58.34</ele>
        <time>2025-02-11T19:39:12.580Z</time>
      </trkpt>
      <trkpt lat="58.676812928169966" lon="13.659277986735106">
        <ele>58.17</ele>
        <time>2025-02-11T19:39:55.956Z</time>
      </trkpt>
      <trkpt lat="58.6767559312284" lon="13.659386951476336">
        <ele>58.01</ele>
        <time>2025-02-11T19:40:39.334Z</time>
      </trkpt>
      <trkpt lat="58.67669994011521" lon="13.659492982551455">
        <ele>57.85</ele>
        <time>2025-02-11T19:41:22.713Z</time>
      </trkpt>
      <trkpt lat="58.67664596065879" lon="13.659597923979163">
        <ele>57.68</ele>
        <time>2025-02-11T19:42:06.093Z</time>
      </trkpt>
      <trkpt lat="58.67658896371722" lon="13.659702949225903">
        <ele>57.51</ele>
        <time>2025-02-11T19:42:49.474Z</time>
      </trkpt>
      <trkpt lat="58.67653397843242" lon="13.659809986129403">
        <ele>57.34</ele>
        <time>2025-02-11T19:43:32.857Z</time>
      </trkpt>
      <trkpt lat="58.67647999897599" lon="13.659916939213872">
        <ele>57.17</ele>
        <time>2025-02-11T19:44:16.241Z</time>
      </trkpt>
      <trkpt lat="58.676425935700536" lon="13.660025987774134">
        <ele>56.99</ele>
        <time>2025-02-11T19:44:59.626Z</time>
      </trkpt>
      <trkpt lat="58.67636994458735" lon="13.660132940858603">
        <ele>56.82</ele>
        <time>2025-02-11T19:45:43.012Z</time>
      </trkpt>
      <trkpt lat="58.676314959302545" lon="13.66023394279182">
        <ele>56.65</ele>
        <time>2025-02-11T19:46:26.400Z</time>
      </trkpt>
      <trkpt lat="58.67625896818936" lon="13.660331927239895">
        <ele>56.47</ele>
        <time>2025-02-11T19:47:09.789Z</time>
      </trkpt>
      <trkpt lat="58.676204988732934" lon="13.66042798385024">
        <ele>56.3</ele>
        <time>2025-02-11T19:47:53.179Z</time>
      </trkpt>
      <trkpt lat="58.6761499196291" lon="13.660529991611838">
        <ele>56.12</ele>
        <time>2025-02-11T19:48:36.570Z</time>
      </trkpt>
      <trkpt lat="58.67609493434429" lon="13.660629987716675">
        <ele>55.95</ele>
        <time>2025-02-11T19:49:19.963Z</time>
      </trkpt>
      <trkpt lat="58.676038943231106" lon="13.660730989649892">
        <ele>55.78</ele>
        <time>2025-02-11T19:50:03.357Z</time>
      </trkpt>
      <trkpt lat="58.67598295211792" lon="13.66083794273436">
        <ele>55.6</ele>
        <time>2025-02-11T19:50:46.752Z</time>
      </trkpt>
      <trkpt lat="58.67592595517635" lon="13.660944979637861">
        <ele>55.43</ele>
        <time>2025-02-11T19:51:30.148Z</time>
      </trkpt>
      <trkpt lat="58.67586895823479" lon="13.66105092689395">
        <ele>55.25</ele>
        <time>2025-02-11T19:52:13.546Z</time>
      </trkpt>
      <trkpt lat="58.67580894380808" lon="13.661155952140689">
        <ele>55.08</ele>
        <time>2025-02-11T19:52:56.945Z</time>
      </trkpt>
      <trkpt lat="58.67574993520975" lon="13.661258965730667">
        <ele>54.9</ele>
        <time>2025-02-11T19:53:40.345Z</time>
      </trkpt>
      <trkpt lat="58.67569092661142" lon="13.661363990977407">
        <ele>54.73</ele>
        <time>2025-02-11T19:54:23.746Z</time>
      </trkpt>
      <trkpt lat="58.67563099600375" lon="13.661472955718637">
        <ele>54.55</ele>
        <time>2025-02-11T19:55:07.149Z</time>
      </trkpt>
      <trkpt lat="58.67557198740542" lon="13.661578986793756">
        <ele>54.38</ele>
        <time>2025-02-11T19:55:50.553Z</time>
      </trkpt>
      <trkpt lat="58.67551197297871" lon="13.661682922393084">
        <ele>54.2</ele>
        <time>2025-02-11T19:56:33.958Z</time>
      </trkpt>
      <trkpt lat="58.67545296438038" lon="13.661788953468204">
        <ele>54.02</ele>
        <time>2025-02-11T19:57:17.365Z</time>
      </trkpt>
      <trkpt lat="58.675394961610436" lon="13.661894984543324">
        <ele>53.85</ele>
        <time>2025-02-11T19:58:00.773Z</time>
      </trkpt>
      <trkpt lat="58.67533494718373" lon="13.662002943456173">
        <ele>53.67</ele>
        <time>2025-02-11T19:58:44.182Z</time>
      </trkpt>
      <trkpt lat="58.67527392692864" lon="13.662109980359674">
        <ele>53.49</ele>
        <time>2025-02-11T19:59:27.593Z</time>
      </trkpt>
      <trkpt lat="58.67521299049258" lon="13.662218945100904">
        <ele>53.3</ele>
        <time>2025-02-11T20:00:11.005Z</time>
      </trkpt>
      <trkpt lat="58.67515096440911" lon="13.662330927327275">
        <ele>53.12</ele>
        <time>2025-02-11T20:00:54.418Z</time>
      </trkpt>
      <trkpt lat="58.675089944154024" lon="13.662445927038789">
        <ele>52.93</ele>
        <time>2025-02-11T20:01:37.833Z</time>
      </trkpt>
      <trkpt lat="58.675025990232825" lon="13.662566961720586">
        <ele>52.75</ele>
        <time>2025-02-11T20:02:21.249Z</time>
      </trkpt>
      <trkpt lat="58.674960946664214" lon="13.662690930068493">
        <ele>52.57</ele>
        <time>2025-02-11T20:03:04.667Z</time>
      </trkpt>
      <trkpt lat="58.67489196360111" lon="13.662814982235432">
        <ele>52.38</ele>
        <time>2025-02-11T20:03:48.086Z</time>
      </trkpt>
      <trkpt lat="58.67482096888125" lon="13.662937944754958">
        <ele>52.2</ele>
        <time>2025-02-11T20:04:31.507Z</time>
      </trkpt>
      <trkpt lat="58.67474997416139" lon="13.663066942244768">
        <ele>52.01</ele>
        <time>2025-02-11T20:05:14.929Z</time>
      </trkpt>
      <trkpt lat="58.67467897944152" lon="13.663200968876481">
        <ele>51.83</ele>
        <time>2025-02-11T20:05:58.353Z</time>
      </trkpt>
      <trkpt lat="58.67460697889328" lon="13.663337929174304">
        <ele>51.65</ele>
        <time>2025-02-11T20:06:41.778Z</time>
      </trkpt>
      <trkpt lat="58.67453497834504" lon="13.663472961634398">
        <ele>51.46</ele>
        <time>2025-02-11T20:07:25.205Z</time>
      </trkpt>
      <trkpt lat="58.67445895448327" lon="13.663608999922872">
        <ele>51.27</ele>
        <time>2025-02-11T20:08:08.634Z</time>
      </trkpt>
      <trkpt lat="58.674379996955395" lon="13.66373891942203">
        <ele>51.08</ele>
        <time>2025-02-11T20:08:52.064Z</time>
      </trkpt>
      <trkpt lat="58.674298943951726" lon="13.66386791691184">
        <ele>50.89</ele>
        <time>2025-02-11T20:09:35.496Z</time>
      </trkpt>
      <trkpt lat="58.67421495728195" lon="13.66399297490716">
        <ele>50.7</ele>
        <time>2025-02-11T20:10:18.930Z</time>
      </trkpt>
      <trkpt lat="58.674124935641885" lon="13.664113925769925">
        <ele>50.52</ele>
        <time>2025-02-11T20:11:02.365Z</time>
      </trkpt>
      <trkpt lat="58.67403298616409" lon="13.66422699764371">
        <ele>50.35</ele>
        <time>2025-02-11T20:11:45.802Z</time>
      </trkpt>
      <trkpt lat="58.67393894121051" lon="13.664332944899797">
        <ele>50.18</ele>
        <time>2025-02-11T20:12:29.241Z</time>
      </trkpt>
      <trkpt lat="58.673845985904336" lon="13.664427995681763">
        <ele>50.01</ele>
        <time>2025-02-11T20:13:12.682Z</time>
      </trkpt>
      <trkpt lat="58.67375194095075" lon="13.664514999836683">
        <ele>49.84</ele>
        <time>2025-02-11T20:13:56.124Z</time>
      </trkpt>
      <trkpt lat="58.67365898564458" lon="13.664600998163223">
        <ele>49.69</ele>
        <time>2025-02-11T20:14:39.568Z</time>
      </trkpt>
      <trkpt lat="58.673564940690994" lon="13.664685990661383">
        <ele>49.53</ele>
        <time>2025-02-11T20:15:23.014Z</time>
      </trkpt>
      <trkpt lat="58.67347097955644" lon="13.664769977331161">
        <ele>49.37</ele>
        <time>2025-02-11T20:16:06.461Z</time>
      </trkpt>
      <trkpt lat="58.67337693460286" lon="13.664854969829321">
        <ele>49.22</ele>
        <time>2025-02-11T20:16:49.910Z</time>
      </trkpt>
      <trkpt lat="58.673284985125065" lon="13.66493996232748">
        <ele>49.07</ele>
        <time>2025-02-11T20:17:33.361Z</time>
      </trkpt>
      <trkpt lat="58.67319295182824" lon="13.66502495482564">
        <ele>48.92</ele>
        <time>2025-02-11T20:18:16.813Z</time>
      </trkpt>
      <trkpt lat="58.6731019243598" lon="13.66511296480894">
        <ele>48.77</ele>
        <time>2025-02-11T20:19:00.267Z</time>
      </trkpt>
      <trkpt lat="58.67301198653877" lon="13.665204998105764">
        <ele>48.63</ele>
        <time>2025-02-11T20:19:43.723Z</time>
      </trkpt>
      <trkpt lat="58.672920959070325" lon="13.665301976725459">
        <ele>48.48</ele>
        <time>2025-02-11T20:20:27.180Z</time>
      </trkpt>
      <trkpt lat="58.6728289257735" lon="13.665402978658676">
        <ele>48.34</ele>
        <time>2025-02-11T20:21:10.639Z</time>
      </trkpt>
      <trkpt lat="58.67273496463895" lon="13.665507920086384">
        <ele>48.21</ele>
        <time>2025-02-11T20:21:54.100Z</time>
      </trkpt>
      <trkpt lat="58.672639997676015" lon="13.665610933676362">
        <ele>48.07</ele>
        <time>2025-02-11T20:22:37.562Z</time>
      </trkpt>
      <trkpt lat="58.67254293523729" lon="13.66571495309472">
        <ele>47.94</ele>
        <time>2025-02-11T20:23:21.026Z</time>
      </trkpt>
      <trkpt lat="58.67244495078921" lon="13.665822995826602">
        <ele>47.81</ele>
        <time>2025-02-11T20:24:04.492Z</time>
      </trkpt>
      <trkpt lat="58.6723489779979" lon="13.665934978052974">
        <ele>47.68</ele>
        <time>2025-02-11T20:24:47.960Z</time>
      </trkpt>
      <trkpt lat="58.67225292138755" lon="13.666048971936107">
        <ele>47.55</ele>
        <time>2025-02-11T20:25:31.430Z</time>
      </trkpt>
      <trkpt lat="58.67215996608138" lon="13.66616397164762">
        <ele>47.43</ele>
        <time>2025-02-11T20:26:14.901Z</time>
      </trkpt>
      <trkpt lat="58.67207296192646" lon="13.666278971359134">
        <ele>47.31</ele>
        <time>2025-02-11T20:26:58.374Z</time>
      </trkpt>
      <trkpt lat="58.67198998108506" lon="13.666395982727408">
        <ele>47.19</ele>
        <time>2025-02-11T20:27:41.849Z</time>
      </trkpt>
      <trkpt lat="58.671909933909774" lon="13.666510982438922">
        <ele>47.08</ele>
        <time>2025-02-11T20:28:25.325Z</time>
      </trkpt>
      <trkpt lat="58.67183198221028" lon="13.66661793552339">
        <ele>46.96</ele>
        <time>2025-02-11T20:29:08.803Z</time>
      </trkpt>
      <trkpt lat="58.67175696417689" lon="13.666720949113369">
        <ele>46.85</ele>
        <time>2025-02-11T20:29:52.282Z</time>
      </trkpt>
      <trkpt lat="58.67168496362865" lon="13.666820945218205">
        <ele>46.74</ele>
        <time>2025-02-11T20:30:35.763Z</time>
      </trkpt>
      <trkpt lat="58.67161396890879" lon="13.6669179238379">
        <ele>46.64</ele>
        <time>2025-02-11T20:31:19.245Z</time>
      </trkpt>
      <trkpt lat="58.671543980017304" lon="13.667011968791485">
        <ele>46.54</ele>
        <time>2025-02-11T20:32:02.729Z</time>
      </trkpt>
      <trkpt lat="58.67147399112582" lon="13.667104924097657">
        <ele>46.44</ele>
        <time>2025-02-11T20:32:46.214Z</time>
      </trkpt>
      <trkpt lat="58.67140299640596" lon="13.667197963222861">
        <ele>46.34</ele>
        <time>2025-02-11T20:33:29.700Z</time>
      </trkpt>
      <trkpt lat="58.671330995857716" lon="13.66728194989264">
        <ele>46.25</ele>
        <time>2025-02-11T20:34:13.188Z</time>
      </trkpt>
      <trkpt lat="58.67125597782433" lon="13.667358979582787">
        <ele>46.16</ele>
        <time>2025-02-11T20:34:56.677Z</time>
      </trkpt>
      <trkpt lat="58.671181965619326" lon="13.667441960424185">
        <ele>46.07</ele>
        <time>2025-02-11T20:35:40.167Z</time>
      </trkpt>
      <trkpt lat="58.67111097089946" lon="13.667531982064247">
        <ele>45.99</ele>
        <time>2025-02-11T20:36:23.659Z</time>
      </trkpt>
      <trkpt lat="58.67104299366474" lon="13.667621919885278">
        <ele>45.9</ele>
        <time>2025-02-11T20:37:07.152Z</time>
      </trkpt>
      <trkpt lat="58.67097493261099" lon="13.667709929868579">
        <ele>45.82</ele>
        <time>2025-02-11T20:37:50.646Z</time>
      </trkpt>
      <trkpt lat="58.67090796120465" lon="13.66779793985188">
        <ele>45.73</ele>
        <time>2025-02-11T20:38:34.142Z</time>
      </trkpt>
      <trkpt lat="58.67084098979831" lon="13.66788293235004">
        <ele>45.65</ele>
        <time>2025-02-11T20:39:17.639Z</time>
      </trkpt>
      <trkpt lat="58.670774940401316" lon="13.667963985353708">
        <ele>45.58</ele>
        <time>2025-02-11T20:40:01.137Z</time>
      </trkpt>
      <trkpt lat="58.670709980651736" lon="13.668043948709965">
        <ele>45.51</ele>
        <time>2025-02-11T20:40:44.636Z</time>
      </trkpt>
      <trkpt lat="58.670645942911506" lon="13.668128941208124">
        <ele>45.44</ele>
        <time>2025-02-11T20:41:28.137Z</time>
      </trkpt>
      <trkpt lat="58.67058299481869" lon="13.668214939534664">
        <ele>45.38</ele>
        <time>2025-02-11T20:42:11.639Z</time>
      </trkpt>
      <trkpt lat="58.67051996290684" lon="13.668302949517965">
        <ele>45.32</ele>
        <time>2025-02-11T20:42:55.142Z</time>
      </trkpt>
      <trkpt lat="58.67045592516661" lon="13.668389953672886">
        <ele>45.26</ele>
        <time>2025-02-11T20:43:38.646Z</time>
      </trkpt>
      <trkpt lat="58.67039096541703" lon="13.668473940342665">
        <ele>45.19</ele>
        <time>2025-02-11T20:44:22.152Z</time>
      </trkpt>
      <trkpt lat="58.670325921848416" lon="13.668556921184063">
        <ele>45.14</ele>
        <time>2025-02-11T20:45:05.659Z</time>
      </trkpt>
      <trkpt lat="58.67026096209884" lon="13.668637974187732">
        <ele>45.08</ele>
        <time>2025-02-11T20:45:49.167Z</time>
      </trkpt>
      <trkpt lat="58.670193990692496" lon="13.668718943372369">
        <ele>45.03</ele>
        <time>2025-02-11T20:46:32.677Z</time>
      </trkpt>
      <trkpt lat="58.67012592963874" lon="13.668801924213767">
        <ele>44.98</ele>
        <time>2025-02-11T20:47:16.188Z</time>
      </trkpt>
      <trkpt lat="58.67005795240402" lon="13.668886916711926">
        <ele>44.93</ele>
        <time>2025-02-11T20:47:59.700Z</time>
      </trkpt>
      <trkpt lat="58.66999198682606" lon="13.66897794418037">
        <ele>44.88</ele>
        <time>2025-02-11T20:48:43.213Z</time>
      </trkpt>
      <trkpt lat="58.66992694325745" lon="13.669072994962335">
        <ele>44.83</ele>
        <time>2025-02-11T20:49:26.728Z</time>
      </trkpt>
      <trkpt lat="58.66986097767949" lon="13.669172991067171">
        <ele>44.79</ele>
        <time>2025-02-11T20:50:10.244Z</time>
      </trkpt>
      <trkpt lat="58.66979593411088" lon="13.66927893832326">
        <ele>44.75</ele>
        <time>2025-02-11T20:50:53.761Z</time>
      </trkpt>
      <trkpt lat="58.66973499767482" lon="13.669389998540282">
        <ele>44.7</ele>
        <time>2025-02-11T20:51:37.280Z</time>
      </trkpt>
      <trkpt lat="58.669675989076495" lon="13.669500974938273">
        <ele>44.67</ele>
        <time>2025-02-11T20:52:20.800Z</time>
      </trkpt>
      <trkpt lat="58.66962091997266" lon="13.669614968821406">
        <ele>44.63</ele>
        <time>2025-02-11T20:53:04.321Z</time>
      </trkpt>
      <trkpt lat="58.66956694051623" lon="13.66972896270454">
        <ele>44.6</ele>
        <time>2025-02-11T20:53:47.844Z</time>
      </trkpt>
      <trkpt lat="58.66951195523143" lon="13.669836921617389">
        <ele>44.56</ele>
        <time>2025-02-11T20:54:31.368Z</time>
      </trkpt>
      <trkpt lat="58.66945395246148" lon="13.669942952692509">
        <ele>44.53</ele>
        <time>2025-02-11T20:55:14.893Z</time>
      </trkpt>
      <trkpt lat="58.66939393803477" lon="13.670047977939248">
        <ele>44.5</ele>
        <time>2025-02-11T20:55:58.420Z</time>
      </trkpt>
      <trkpt lat="58.669334929436445" lon="13.670152919366956">
        <ele>44.48</ele>
        <time>2025-02-11T20:56:41.948Z</time>
      </trkpt>
      <trkpt lat="58.6692769266665" lon="13.670259956270456">
        <ele>44.45</ele>
        <time>2025-02-11T20:57:25.477Z</time>
      </trkpt>
      <trkpt lat="58.66922093555331" lon="13.670368921011686">
        <ele>44.43</ele>
        <time>2025-02-11T20:58:09.007Z</time>
      </trkpt>
      <trkpt lat="58.669163938611746" lon="13.670475957915187">
        <ele>44.41</ele>
        <time>2025-02-11T20:58:52.539Z</time>
      </trkpt>
      <trkpt lat="58.6691059358418" lon="13.670581988990307">
        <ele>44.39</ele>
        <time>2025-02-11T20:59:36.072Z</time>
      </trkpt>
      <trkpt lat="58.66904994472861" lon="13.670689947903156">
        <ele>44.37</ele>
        <time>2025-02-11T21:00:19.606Z</time>
      </trkpt>
      <trkpt lat="58.66899395361543" lon="13.670800924301147">
        <ele>44.36</ele>
        <time>2025-02-11T21:01:03.142Z</time>
      </trkpt>
      <trkpt lat="58.668939974159" lon="13.670915924012661">
        <ele>44.35</ele>
        <time>2025-02-11T21:01:46.679Z</time>
      </trkpt>
      <trkpt lat="58.66888599470258" lon="13.671029917895794">
        <ele>44.33</ele>
        <time>2025-02-11T21:02:30.217Z</time>
      </trkpt>
      <trkpt lat="58.66882991977036" lon="13.671142989769578">
        <ele>44.32</ele>
        <time>2025-02-11T21:03:13.756Z</time>
      </trkpt>
      <trkpt lat="58.668774934485555" lon="13.67125497199595">
        <ele>44.3</ele>
        <time>2025-02-11T21:03:57.297Z</time>
      </trkpt>
      <trkpt lat="58.66872296668589" lon="13.671365948393941">
        <ele>44.29</ele>
        <time>2025-02-11T21:04:40.839Z</time>
      </trkpt>
      <trkpt lat="58.66867192089558" lon="13.671472985297441">
        <ele>44.28</ele>
        <time>2025-02-11T21:05:24.382Z</time>
      </trkpt>
      <trkpt lat="58.668621964752674" lon="13.671581950038671">
        <ele>44.27</ele>
        <time>2025-02-11T21:06:07.926Z</time>
      </trkpt>
      <trkpt lat="58.66857091896236" lon="13.671692926436663">
        <ele>44.27</ele>
        <time>2025-02-11T21:06:51.472Z</time>
      </trkpt>
      <trkpt lat="58.668518951162696" lon="13.671804992482066">
        <ele>44.26</ele>
        <time>2025-02-11T21:07:35.019Z</time>
      </trkpt>
      <trkpt lat="58.66846798919141" lon="13.671918986365199">
        <ele>44.25</ele>
        <time>2025-02-11T21:08:18.567Z</time>
      </trkpt>
      <trkpt lat="58.66841895505786" lon="13.672037925571203">
        <ele>44.24</ele>
        <time>2025-02-11T21:09:02.116Z</time>
      </trkpt>
      <trkpt lat="58.668369920924306" lon="13.672160971909761">
        <ele>44.24</ele>
        <time>2025-02-11T21:09:45.667Z</time>
      </trkpt>
      <trkpt lat="58.6683199647814" lon="13.672284940257668">
        <ele>44.23</ele>
        <time>2025-02-11T21:10:29.219Z</time>
      </trkpt>
      <trkpt lat="58.66827294230461" lon="13.672408992424607">
        <ele>44.23</ele>
        <time>2025-02-11T21:11:12.772Z</time>
      </trkpt>
      <trkpt lat="58.6682269256562" lon="13.672531954944134">
        <ele>44.22</ele>
        <time>2025-02-11T21:11:56.327Z</time>
      </trkpt>
      <trkpt lat="58.66818099282682" lon="13.672653995454311">
        <ele>44.22</ele>
        <time>2025-02-11T21:12:39.883Z</time>
      </trkpt>
      <trkpt lat="58.66813598200679" lon="13.672777963802218">
        <ele>44.22</ele>
        <time>2025-02-11T21:13:23.440Z</time>
      </trkpt>
      <trkpt lat="58.66809097118676" lon="13.672904949635267">
        <ele>44.22</ele>
        <time>2025-02-11T21:14:06.998Z</time>
      </trkpt>
      <trkpt lat="58.668044954538345" lon="13.673033947125077">
        <ele>44.22</ele>
        <time>2025-02-11T21:14:50.558Z</time>
      </trkpt>
      <trkpt lat="58.667998937889934" lon="13.673165962100029">
        <ele>44.23</ele>
        <time>2025-02-11T21:15:34.119Z</time>
      </trkpt>
      <trkpt lat="58.66795292124152" lon="13.673298982903361">
        <ele>44.23</ele>
        <time>2025-02-11T21:16:17.681Z</time>
      </trkpt>
      <trkpt lat="58.66790497675538" lon="13.673431919887662">
        <ele>44.22</ele>
        <time>2025-02-11T21:17:01.245Z</time>
      </trkpt>
      <trkpt lat="58.66785694845021" lon="13.673563934862614">
        <ele>44.22</ele>
        <time>2025-02-11T21:17:44.810Z</time>
      </trkpt>
      <trkpt lat="58.667807998135686" lon="13.673692932352424">
        <ele>44.22</ele>
        <time>2025-02-11T21:18:28.376Z</time>
      </trkpt>
      <trkpt lat="58.66775996983051" lon="13.673822935670614">
        <ele>44.23</ele>
        <time>2025-02-11T21:19:11.944Z</time>
      </trkpt>
      <trkpt lat="58.66771194152534" lon="13.673953944817185">
        <ele>44.23</ele>
        <time>2025-02-11T21:19:55.513Z</time>
      </trkpt>
      <trkpt lat="58.6676639970392" lon="13.674084953963757">
        <ele>44.23</ele>
        <time>2025-02-11T21:20:39.083Z</time>
      </trkpt>
      <trkpt lat="58.667614962905645" lon="13.674215963110328">
        <ele>44.23</ele>
        <time>2025-02-11T21:21:22.655Z</time>
      </trkpt>
      <trkpt lat="58.66756794042885" lon="13.674344960600138">
        <ele>44.23</ele>
        <time>2025-02-11T21:22:06.228Z</time>
      </trkpt>
      <trkpt lat="58.66752292960882" lon="13.674474963918328">
        <ele>44.23</ele>
        <time>2025-02-11T21:22:49.802Z</time>
      </trkpt>
      <trkpt lat="58.66747699677944" lon="13.674600943922997">
        <ele>44.23</ele>
        <time>2025-02-11T21:23:33.378Z</time>
      </trkpt>
      <trkpt lat="58.66742997430265" lon="13.674722984433174">
        <ele>44.23</ele>
        <time>2025-02-11T21:24:16.955Z</time>
      </trkpt>
      <trkpt lat="58.66738395765424" lon="13.67484494112432">
        <ele>44.23</ele>
        <time>2025-02-11T21:25:00.533Z</time>
      </trkpt>
      <trkpt lat="58.66733894683421" lon="13.674967987462878">
        <ele>44.23</ele>
        <time>2025-02-11T21:25:44.112Z</time>
      </trkpt>
      <trkpt lat="58.667293936014175" lon="13.675090949982405">
        <ele>44.23</ele>
        <time>2025-02-11T21:26:27.693Z</time>
      </trkpt>
      <trkpt lat="58.667247919365764" lon="13.675210978835821">
        <ele>44.23</ele>
        <time>2025-02-11T21:27:11.275Z</time>
      </trkpt>
      <trkpt lat="58.667201986536384" lon="13.675329918041825">
        <ele>44.23</ele>
        <time>2025-02-11T21:27:54.858Z</time>
      </trkpt>
      <trkpt lat="58.66715596988797" lon="13.675449946895242">
        <ele>44.21</ele>
        <time>2025-02-11T21:28:38.442Z</time>
      </trkpt>
      <trkpt lat="58.66710894741118" lon="13.675569975748658">
        <ele>44.21</ele>
        <time>2025-02-11T21:29:22.028Z</time>
      </trkpt>
      <trkpt lat="58.66706293076277" lon="13.675687992945313">
        <ele>44.2</ele>
        <time>2025-02-11T21:30:05.615Z</time>
      </trkpt>
      <trkpt lat="58.66701791994274" lon="13.675802992656827">
        <ele>44.2</ele>
        <time>2025-02-11T21:30:49.203Z</time>
      </trkpt>
      <trkpt lat="58.66697399877012" lon="13.67591698653996">
        <ele>44.2</ele>
        <time>2025-02-11T21:31:32.792Z</time>
      </trkpt>
      <trkpt lat="58.66693099960685" lon="13.676032992079854">
        <ele>44.19</ele>
        <time>2025-02-11T21:32:16.382Z</time>
      </trkpt>
      <trkpt lat="58.6668869946152" lon="13.676147991791368">
        <ele>44.19</ele>
        <time>2025-02-11T21:32:59.974Z</time>
      </trkpt>
      <trkpt lat="58.66684298962355" lon="13.676265925168991">
        <ele>44.19</ele>
        <time>2025-02-11T21:33:43.567Z</time>
      </trkpt>
      <trkpt lat="58.66680099628866" lon="13.676381930708885">
        <ele>44.18</ele>
        <time>2025-02-11T21:34:27.161Z</time>
      </trkpt>
      <trkpt lat="58.66675799712539" lon="13.67649994790554">
        <ele>44.18</ele>
        <time>2025-02-11T21:35:10.756Z</time>
      </trkpt>
      <trkpt lat="58.666712986305356" lon="13.676618970930576">
        <ele>44.17</ele>
        <time>2025-02-11T21:35:54.352Z</time>
      </trkpt>
      <trkpt lat="58.666668981313705" lon="13.676740927621722">
        <ele>44.17</ele>
        <time>2025-02-11T21:36:37.950Z</time>
      </trkpt>
      <trkpt lat="58.666623970493674" lon="13.67686397396028">
        <ele>44.16</ele>
        <time>2025-02-11T21:37:21.549Z</time>
      </trkpt>
      <trkpt lat="58.666580971330404" lon="13.676984924823046">
        <ele>44.15</ele>
        <time>2025-02-11T21:38:05.149Z</time>
      </trkpt>
      <trkpt lat="58.666539983823895" lon="13.677105959504843">
        <ele>44.14</ele>
        <time>2025-02-11T21:38:48.750Z</time>
      </trkpt>
      <trkpt lat="58.666499918326735" lon="13.67722699418664">
        <ele>44.14</ele>
        <time>2025-02-11T21:39:32.353Z</time>
      </trkpt>
      <trkpt lat="58.66646094247699" lon="13.677348950877786">
        <ele>44.13</ele>
        <time>2025-02-11T21:40:15.957Z</time>
      </trkpt>
      <trkpt lat="58.66642196662724" lon="13.677471997216344">
        <ele>44.12</ele>
        <time>2025-02-11T21:40:59.562Z</time>
      </trkpt>
      <trkpt lat="58.66638399660587" lon="13.67759495973587">
        <ele>44.11</ele>
        <time>2025-02-11T21:41:43.168Z</time>
      </trkpt>
      <trkpt lat="58.666346948593855" lon="13.677718928083777">
        <ele>44.1</ele>
        <time>2025-02-11T21:42:26.775Z</time>
      </trkpt>
      <trkpt lat="58.66631099022925" lon="13.677845997735858">
        <ele>44.1</ele>
        <time>2025-02-11T21:43:10.384Z</time>
      </trkpt>
      <trkpt lat="58.66627796553075" lon="13.677975917235017">
        <ele>44.09</ele>
        <time>2025-02-11T21:43:53.994Z</time>
      </trkpt>
      <trkpt lat="58.66624594666064" lon="13.678106926381588">
        <ele>44.08</ele>
        <time>2025-02-11T21:44:37.605Z</time>
      </trkpt>
      <trkpt lat="58.66621292196214" lon="13.67823894135654">
        <ele>44.07</ele>
        <time>2025-02-11T21:45:21.217Z</time>
      </trkpt>
      <trkpt lat="58.66618199273944" lon="13.678370956331491">
        <ele>44.07</ele>
        <time>2025-02-11T21:46:04.830Z</time>
      </trkpt>
      <trkpt lat="58.666151985526085" lon="13.678506994619966">
        <ele>44.06</ele>
        <time>2025-02-11T21:46:48.445Z</time>
      </trkpt>
      <trkpt lat="58.66612398996949" lon="13.678643954917789">
        <ele>44.06</ele>
        <time>2025-02-11T21:47:32.061Z</time>
      </trkpt>
      <trkpt lat="58.66609691642225" lon="13.678784938529134">
        <ele>44.05</ele>
        <time>2025-02-11T21:48:15.678Z</time>
      </trkpt>
      <trkpt lat="58.66607294417918" lon="13.67892399430275">
        <ele>44.04</ele>
        <time>2025-02-11T21:48:59.296Z</time>
      </trkpt>
      <trkpt lat="58.66604997776449" lon="13.679065983742476">
        <ele>44.03</ele>
        <time>2025-02-11T21:49:42.916Z</time>
      </trkpt>
      <trkpt lat="58.666025921702385" lon="13.679207973182201">
        <ele>44.01</ele>
        <time>2025-02-11T21:50:26.537Z</time>
      </trkpt>
      <trkpt lat="58.666002955287695" lon="13.679350968450308">
        <ele>43.99</ele>
        <time>2025-02-11T21:51:10.159Z</time>
      </trkpt>
      <trkpt lat="58.66597697138786" lon="13.679497987031937">
        <ele>43.97</ele>
        <time>2025-02-11T21:51:53.782Z</time>
      </trkpt>
      <trkpt lat="58.66595199331641" lon="13.679644921794534">
        <ele>43.96</ele>
        <time>2025-02-11T21:52:37.407Z</time>
      </trkpt>
      <trkpt lat="58.66592994891107" lon="13.679791940376163">
        <ele>43.94</ele>
        <time>2025-02-11T21:53:21.033Z</time>
      </trkpt>
      <trkpt lat="58.66591092199087" lon="13.679942982271314">
        <ele>43.91</ele>
        <time>2025-02-11T21:54:04.660Z</time>
      </trkpt>
      <trkpt lat="58.665892984718084" lon="13.680096957832575">
        <ele>43.89</ele>
        <time>2025-02-11T21:54:48.289Z</time>
      </trkpt>
      <trkpt lat="58.665874963626266" lon="13.680248921737075">
        <ele>43.87</ele>
        <time>2025-02-11T21:55:31.919Z</time>
      </trkpt>
      <trkpt lat="58.66585694253445" lon="13.680401975288987">
        <ele>43.85</ele>
        <time>2025-02-11T21:56:15.550Z</time>
      </trkpt>
      <trkpt lat="58.66583892144263" lon="13.680553939193487">
        <ele>43.83</ele>
        <time>2025-02-11T21:56:59.182Z</time>
      </trkpt>
      <trkpt lat="58.66582391783595" lon="13.680708920583129">
        <ele>43.82</ele>
        <time>2025-02-11T21:57:42.816Z</time>
      </trkpt>
      <trkpt lat="58.665809920057654" lon="13.680867925286293">
        <ele>43.8</ele>
        <time>2025-02-11T21:58:26.451Z</time>
      </trkpt>
      <trkpt lat="58.66579692810774" lon="13.681029947474599">
        <ele>43.78</ele>
        <time>2025-02-11T21:59:10.088Z</time>
      </trkpt>
      <trkpt lat="58.665785947814584" lon="13.681192975491285">
        <ele>43.76</ele>
        <time>2025-02-11T21:59:53.726Z</time>
      </trkpt>
      <trkpt lat="58.66577195003629" lon="13.681347956880927">
        <ele>43.75</ele>
        <time>2025-02-11T22:00:37.365Z</time>
      </trkpt>
      <trkpt lat="58.66575795225799" lon="13.681501932442188">
        <ele>43.74</ele>
        <time>2025-02-11T22:01:21.006Z</time>
      </trkpt>
      <trkpt lat="58.665745966136456" lon="13.68165297433734">
        <ele>43.72</ele>
        <time>2025-02-11T22:02:04.648Z</time>
      </trkpt>
      <trkpt lat="58.66573297418654" lon="13.68180493824184">
        <ele>43.7</ele>
        <time>2025-02-11T22:02:48.291Z</time>
      </trkpt>
      <trkpt lat="58.665719982236624" lon="13.68195497430861">
        <ele>43.69</ele>
        <time>2025-02-11T22:03:31.935Z</time>
      </trkpt>
      <trkpt lat="58.66570497862995" lon="13.68210299871862">
        <ele>43.67</ele>
        <time>2025-02-11T22:04:15.581Z</time>
      </trkpt>
      <trkpt lat="58.66569098085165" lon="13.682251945137978">
        <ele>43.66</ele>
        <time>2025-02-11T22:04:59.228Z</time>
      </trkpt>
      <trkpt lat="58.665677988901734" lon="13.682398963719606">
        <ele>43.64</ele>
        <time>2025-02-11T22:05:42.876Z</time>
      </trkpt>
      <trkpt lat="58.66566499695182" lon="13.682543970644474">
        <ele>43.63</ele>
        <time>2025-02-11T22:06:26.525Z</time>
      </trkpt>
      <trkpt lat="58.66565192118287" lon="13.682688977569342">
        <ele>43.61</ele>
        <time>2025-02-11T22:07:10.176Z</time>
      </trkpt>
      <trkpt lat="58.665639935061336" lon="13.68283599615097">
        <ele>43.6</ele>
        <time>2025-02-11T22:07:53.828Z</time>
      </trkpt>
      <trkpt lat="58.66562593728304" lon="13.682974968105555">
        <ele>43.58</ele>
        <time>2025-02-11T22:08:37.481Z</time>
      </trkpt>
      <trkpt lat="58.66561193950474" lon="13.683118969202042">
        <ele>43.57</ele>
        <time>2025-02-11T22:09:21.135Z</time>
      </trkpt>
      <trkpt lat="58.66559894755483" lon="13.68326498195529">
        <ele>43.56</ele>
        <time>2025-02-11T22:10:04.790Z</time>
      </trkpt>
      <trkpt lat="58.66558595560491" lon="13.683411916717887">
        <ele>43.55</ele>
        <time>2025-02-11T22:10:48.447Z</time>
      </trkpt>
      <trkpt lat="58.665571957826614" lon="13.683558935299516">
        <ele>43.53</ele>
        <time>2025-02-11T22:11:32.105Z</time>
      </trkpt>
      <trkpt lat="58.665554942563176" lon="13.683707965537906">
        <ele>43.52</ele>
        <time>2025-02-11T22:12:15.764Z</time>
      </trkpt>
      <trkpt lat="58.66553692147136" lon="13.683853978291154">
        <ele>43.51</ele>
        <time>2025-02-11T22:12:59.425Z</time>
      </trkpt>
      <trkpt lat="58.66551797837019" lon="13.684001918882132">
        <ele>43.5</ele>
        <time>2025-02-11T22:13:43.087Z</time>
      </trkpt>
      <trkpt lat="58.66549995727837" lon="13.684149943292141">
        <ele>43.48</ele>
        <time>2025-02-11T22:14:26.750Z</time>
      </trkpt>
      <trkpt lat="58.66548193618655" lon="13.684294950217009">
        <ele>43.48</ele>
        <time>2025-02-11T22:15:10.414Z</time>
      </trkpt>
      <trkpt lat="58.665462993085384" lon="13.684437945485115">
        <ele>43.47</ele>
        <time>2025-02-11T22:15:54.080Z</time>
      </trkpt>
      <trkpt lat="58.665442960336804" lon="13.68457892909646">
        <ele>43.46</ele>
        <time>2025-02-11T22:16:37.747Z</time>
      </trkpt>
      <trkpt lat="58.665420999750495" lon="13.684721924364567">
        <ele>43.45</ele>
        <time>2025-02-11T22:17:21.415Z</time>
      </trkpt>
      <trkpt lat="58.665398955345154" lon="13.684862991794944">
        <ele>43.45</ele>
        <time>2025-02-11T22:18:05.084Z</time>
      </trkpt>
      <trkpt lat="58.66537498310208" lon="13.68500598706305">
        <ele>43.44</ele>
        <time>2025-02-11T22:18:48.754Z</time>
      </trkpt>
      <trkpt lat="58.66534899920225" lon="13.685149988159537">
        <ele>43.44</ele>
        <time>2025-02-11T22:19:32.426Z</time>
      </trkpt>
      <trkpt lat="58.66532293148339" lon="13.685294995084405">
        <ele>43.44</ele>
        <time>2025-02-11T22:20:16.099Z</time>
      </trkpt>
      <trkpt lat="58.665295941755176" lon="13.685440924018621">
        <ele>43.44</ele>
        <time>2025-02-11T22:20:59.773Z</time>
      </trkpt>
      <trkpt lat="58.66526794619858" lon="13.685585930943489">
        <ele>43.44</ele>
        <time>2025-02-11T22:21:43.449Z</time>
      </trkpt>
      <trkpt lat="58.66523793898523" lon="13.685727920383215">
        <ele>43.44</ele>
        <time>2025-02-11T22:22:27.126Z</time>
      </trkpt>
      <trkpt lat="58.66520592011511" lon="13.68586496450007">
        <ele>43.44</ele>
        <time>2025-02-11T22:23:10.804Z</time>
      </trkpt>
      <trkpt lat="58.66517398506403" lon="13.685999996960163">
        <ele>43.45</ele>
        <time>2025-02-11T22:23:54.483Z</time>
      </trkpt>
      <trkpt lat="58.665140960365534" lon="13.686132933944464">
        <ele>43.46</ele>
        <time>2025-02-11T22:24:38.164Z</time>
      </trkpt>
      <trkpt lat="58.66510592401028" lon="13.686263943091035">
        <ele>43.46</ele>
        <time>2025-02-11T22:25:21.846Z</time>
      </trkpt>
      <trkpt lat="58.66506895981729" lon="13.686396963894367">
        <ele>43.47</ele>
        <time>2025-02-11T22:26:05.529Z</time>
      </trkpt>
      <trkpt lat="58.66503098979592" lon="13.68653392419219">
        <ele>43.48</ele>
        <time>2025-02-11T22:26:49.213Z</time>
      </trkpt>
      <trkpt lat="58.664992935955524" lon="13.686668956652284">
        <ele>43.49</ele>
        <time>2025-02-11T22:27:32.899Z</time>
      </trkpt>
      <trkpt lat="58.664952954277396" lon="13.686802983283997">
        <ele>43.51</ele>
        <time>2025-02-11T22:28:16.586Z</time>
      </trkpt>
      <trkpt lat="58.66491297259927" lon="13.686935920268297">
        <ele>43.52</ele>
        <time>2025-02-11T22:29:00.274Z</time>
      </trkpt>
      <trkpt lat="58.66487198509276" lon="13.68706994690001">
        <ele>43.53</ele>
        <time>2025-02-11T22:29:43.964Z</time>
      </trkpt>
      <trkpt lat="58.66483099758625" lon="13.68719894438982">
        <ele>43.55</ele>
        <time>2025-02-11T22:30:27.655Z</time>
      </trkpt>
      <trkpt lat="58.66479093208909" lon="13.687330959364772">
        <ele>43.57</ele>
        <time>2025-02-11T22:31:11.347Z</time>
      </trkpt>
      <trkpt lat="58.66475095041096" lon="13.687465991824865">
        <ele>43.59</ele>
        <time>2025-02-11T22:31:55.040Z</time>
      </trkpt>
      <trkpt lat="58.664710968732834" lon="13.687602952122688">
        <ele>43.61</ele>
        <time>2025-02-11T22:32:38.735Z</time>
      </trkpt>
      <trkpt lat="58.664670987054706" lon="13.687739996239543">
        <ele>43.63</ele>
        <time>2025-02-11T22:33:22.431Z</time>
      </trkpt>
      <trkpt lat="58.664630921557546" lon="13.687875950708985">
        <ele>43.65</ele>
        <time>2025-02-11T22:34:06.128Z</time>
      </trkpt>
      <trkpt lat="58.66458993405104" lon="13.688010983169079">
        <ele>43.68</ele>
        <time>2025-02-11T22:34:49.827Z</time>
      </trkpt>
      <trkpt lat="58.66454995237291" lon="13.68814392015338">
        <ele>43.71</ele>
        <time>2025-02-11T22:35:33.527Z</time>
      </trkpt>
      <trkpt lat="58.66450795903802" lon="13.688277946785092">
        <ele>43.74</ele>
        <time>2025-02-11T22:36:17.228Z</time>
      </trkpt>
      <trkpt lat="58.66446596570313" lon="13.688409961760044">
        <ele>43.77</ele>
        <time>2025-02-11T22:37:00.931Z</time>
      </trkpt>
      <trkpt lat="58.66442296653986" lon="13.688539965078235">
        <ele>43.8</ele>
        <time>2025-02-11T22:37:44.635Z</time>
      </trkpt>
      <trkpt lat="58.66437795571983" lon="13.688667956739664">
        <ele>43.83</ele>
        <time>2025-02-11T22:38:28.340Z</time>
      </trkpt>
      <trkpt lat="58.66433395072818" lon="13.688794942572713">
        <ele>43.87</ele>
        <time>2025-02-11T22:39:12.046Z</time>
      </trkpt>
      <trkpt lat="58.664287934079766" lon="13.688919916749">
        <ele>43.91</ele>
        <time>2025-02-11T22:39:55.754Z</time>
      </trkpt>
      <trkpt lat="58.664240995422006" lon="13.689041957259178">
        <ele>43.95</ele>
        <time>2025-02-11T22:40:39.463Z</time>
      </trkpt>
      <trkpt lat="58.664195984601974" lon="13.689160980284214">
        <ele>43.99</ele>
        <time>2025-02-11T22:41:23.173Z</time>
      </trkpt>
      <trkpt lat="58.66415097378194" lon="13.68927899748087">
        <ele>44.04</ele>
        <time>2025-02-11T22:42:06.884Z</time>
      </trkpt>
      <trkpt lat="58.66410495713353" lon="13.689396930858493">
        <ele>44.08</ele>
        <time>2025-02-11T22:42:50.597Z</time>
      </trkpt>
      <trkpt lat="58.66405793465674" lon="13.689513942226768">
        <ele>44.13</ele>
        <time>2025-02-11T22:43:34.311Z</time>
      </trkpt>
      <trkpt lat="58.66400898434222" lon="13.689630953595042">
        <ele>44.18</ele>
        <time>2025-02-11T22:44:18.026Z</time>
      </trkpt>
      <trkpt lat="58.663960956037045" lon="13.6897539999336">
        <ele>44.24</ele>
        <time>2025-02-11T22:45:01.742Z</time>
      </trkpt>
      <trkpt lat="58.66391292773187" lon="13.689876962453127">
        <ele>44.29</ele>
        <time>2025-02-11T22:45:45.460Z</time>
      </trkpt>
      <trkpt lat="58.66386498324573" lon="13.689999924972653">
        <ele>44.35</ele>
        <time>2025-02-11T22:46:29.179Z</time>
      </trkpt>
      <trkpt lat="58.66381695494056" lon="13.690123977139592">
        <ele>44.41</ele>
        <time>2025-02-11T22:47:12.899Z</time>
      </trkpt>
      <trkpt lat="58.663767920807004" lon="13.690245933830738">
        <ele>44.47</ele>
        <time>2025-02-11T22:47:56.621Z</time>
      </trkpt>
      <trkpt lat="58.6637179646641" lon="13.690366968512535">
        <ele>44.53</ele>
        <time>2025-02-11T22:48:40.344Z</time>
      </trkpt>
      <trkpt lat="58.66366792470217" lon="13.6904879193753">
        <ele>44.6</ele>
        <time>2025-02-11T22:49:24.068Z</time>
      </trkpt>
      <trkpt lat="58.663618974387646" lon="13.690609959885478">
        <ele>44.67</ele>
        <time>2025-02-11T22:50:07.793Z</time>
      </trkpt>
      <trkpt lat="58.66356994025409" lon="13.690727977082133">
        <ele>44.74</ele>
        <time>2025-02-11T22:50:51.520Z</time>
      </trkpt>
      <trkpt lat="58.66351998411119" lon="13.690845994278789">
        <ele>44.81</ele>
        <time>2025-02-11T22:51:35.248Z</time>
      </trkpt>
      <trkpt lat="58.663469944149256" lon="13.690961999818683">
        <ele>44.88</ele>
        <time>2025-02-11T22:52:18.977Z</time>
      </trkpt>
      <trkpt lat="58.663420993834734" lon="13.691077921539545">
        <ele>44.96</ele>
        <time>2025-02-11T22:53:02.707Z</time>
      </trkpt>
      <trkpt lat="58.66337397135794" lon="13.691192921251059">
        <ele>45.04</ele>
        <time>2025-02-11T22:53:46.439Z</time>
      </trkpt>
      <trkpt lat="58.66332594305277" lon="13.691309932619333">
        <ele>45.12</ele>
        <time>2025-02-11T22:54:30.172Z</time>
      </trkpt>
      <trkpt lat="58.66327699273825" lon="13.691425938159227">
        <ele>45.2</ele>
        <time>2025-02-11T22:55:13.906Z</time>
      </trkpt>
      <trkpt lat="58.66322695277631" lon="13.691542949527502">
        <ele>45.29</ele>
        <time>2025-02-11T22:55:57.641Z</time>
      </trkpt>
      <trkpt lat="58.66317791864276" lon="13.691659960895777">
        <ele>45.38</ele>
        <time>2025-02-11T22:56:41.378Z</time>
      </trkpt>
      <trkpt lat="58.66312896832824" lon="13.69177496060729">
        <ele>45.47</ele>
        <time>2025-02-11T22:57:25.116Z</time>
      </trkpt>
      <trkpt lat="58.663080940023065" lon="13.691890966147184">
        <ele>45.56</ele>
        <time>2025-02-11T22:58:08.855Z</time>
      </trkpt>
      <trkpt lat="58.66303299553692" lon="13.692004960030317">
        <ele>45.66</ele>
        <time>2025-02-11T22:58:52.595Z</time>
      </trkpt>
      <trkpt lat="58.66298597306013" lon="13.69211995974183">
        <ele>45.76</ele>
        <time>2025-02-11T22:59:36.337Z</time>
      </trkpt>
      <trkpt lat="58.66293794475496" lon="13.692236971110106">
        <ele>45.86</ele>
        <time>2025-02-11T23:00:20.080Z</time>
      </trkpt>
      <trkpt lat="58.662890922278166" lon="13.69235498830676">
        <ele>45.96</ele>
        <time>2025-02-11T23:01:03.824Z</time>
      </trkpt>
      <trkpt lat="58.662841971963644" lon="13.692473927512765">
        <ele>46.07</ele>
        <time>2025-02-11T23:01:47.569Z</time>
      </trkpt>
      <trkpt lat="58.66279193200171" lon="13.692594962194562">
        <ele>46.17</ele>
        <time>2025-02-11T23:02:31.316Z</time>
      </trkpt>
      <trkpt lat="58.66274097003043" lon="13.692717924714088">
        <ele>46.27</ele>
        <time>2025-02-11T23:03:15.064Z</time>
      </trkpt>
      <trkpt lat="58.66268992424011" lon="13.692839965224266">
        <ele>46.38</ele>
        <time>2025-02-11T23:03:58.813Z</time>
      </trkpt>
      <trkpt lat="58.66263996809721" lon="13.692960999906063">
        <ele>46.49</ele>
        <time>2025-02-11T23:04:42.564Z</time>
      </trkpt>
      <trkpt lat="58.662590933963656" lon="13.693080944940448">
        <ele>46.61</ele>
        <time>2025-02-11T23:05:26.316Z</time>
      </trkpt>
      <trkpt lat="58.662542989477515" lon="13.693198962137103">
        <ele>46.72</ele>
        <time>2025-02-11T23:06:10.069Z</time>
      </trkpt>
      <trkpt lat="58.66249496117234" lon="13.693315973505378">
        <ele>46.84</ele>
        <time>2025-02-11T23:06:53.823Z</time>
      </trkpt>
      <trkpt lat="58.66244693286717" lon="13.693434996530414">
        <ele>46.96</ele>
        <time>2025-02-11T23:07:37.579Z</time>
      </trkpt>
      <trkpt lat="58.66239798255265" lon="13.693551924079657">
        <ele>47.09</ele>
        <time>2025-02-11T23:08:21.336Z</time>
      </trkpt>
      <trkpt lat="58.66234794259071" lon="13.693668935447931">
        <ele>47.22</ele>
        <time>2025-02-11T23:09:05.094Z</time>
      </trkpt>
      <trkpt lat="58.66229698061943" lon="13.693787958472967">
        <ele>47.35</ele>
        <time>2025-02-11T23:09:48.853Z</time>
      </trkpt>
      <trkpt lat="58.6622469406575" lon="13.693906981498003">
        <ele>47.48</ele>
        <time>2025-02-11T23:10:32.614Z</time>
      </trkpt>
      <trkpt lat="58.662198996171355" lon="13.694021981209517">
        <ele>47.6</ele>
        <time>2025-02-11T23:11:16.376Z</time>
      </trkpt>
      <trkpt lat="58.66215096786618" lon="13.694133963435888">
        <ele>47.74</ele>
        <time>2025-02-11T23:12:00.139Z</time>
      </trkpt>
      <trkpt lat="58.66210394538939" lon="13.69424493983388">
        <ele>47.87</ele>
        <time>2025-02-11T23:12:43.903Z</time>
      </trkpt>
      <trkpt lat="58.66205792874098" lon="13.694353988394141">
        <ele>48.01</ele>
        <time>2025-02-11T23:13:27.668Z</time>
      </trkpt>
      <trkpt lat="58.66201291792095" lon="13.694465970620513">
        <ele>48.15</ele>
        <time>2025-02-11T23:14:11.435Z</time>
      </trkpt>
      <trkpt lat="58.66196698509157" lon="13.694578958675265">
        <ele>48.29</ele>
        <time>2025-02-11T23:14:55.203Z</time>
      </trkpt>
      <trkpt lat="58.661918956786394" lon="13.694690940901637">
        <ele>48.43</ele>
        <time>2025-02-11T23:15:38.972Z</time>
      </trkpt>
      <trkpt lat="58.66187092848122" lon="13.694802923128009">
        <ele>48.58</ele>
        <time>2025-02-11T23:16:22.742Z</time>
      </trkpt>
      <trkpt lat="58.6618219781667" lon="13.694912977516651">
        <ele>48.72</ele>
        <time>2025-02-11T23:17:06.513Z</time>
      </trkpt>
      <trkpt lat="58.66177495568991" lon="13.695021942257881">
        <ele>48.87</ele>
        <time>2025-02-11T23:17:50.286Z</time>
      </trkpt>
      <trkpt lat="58.661727933213115" lon="13.695132918655872">
        <ele>49.02</ele>
        <time>2025-02-11T23:18:34.060Z</time>
      </trkpt>
      <trkpt lat="58.6616819165647" lon="13.695245990529656">
        <ele>49.17</ele>
        <time>2025-02-11T23:19:17.835Z</time>
      </trkpt>
      <trkpt lat="58.66163598373532" lon="13.695358978584409">
        <ele>49.32</ele>
        <time>2025-02-11T23:20:01.611Z</time>
      </trkpt>
      <trkpt lat="58.66158996708691" lon="13.69547096081078">
        <ele>49.47</ele>
        <time>2025-02-11T23:20:45.388Z</time>
      </trkpt>
      <trkpt lat="58.66154495626688" lon="13.69557992555201">
        <ele>49.62</ele>
        <time>2025-02-11T23:21:29.167Z</time>
      </trkpt>
      <trkpt lat="58.66150195710361" lon="13.695690985769033">
        <ele>49.78</ele>
        <time>2025-02-11T23:22:12.947Z</time>
      </trkpt>
      <trkpt lat="58.66145895794034" lon="13.695804979652166">
        <ele>49.93</ele>
        <time>2025-02-11T23:22:56.728Z</time>
      </trkpt>
      <trkpt lat="58.66141595877707" lon="13.69592098519206">
        <ele>50.09</ele>
        <time>2025-02-11T23:23:40.510Z</time>
      </trkpt>
      <trkpt lat="58.66137094795704" lon="13.696036990731955">
        <ele>50.25</ele>
        <time>2025-02-11T23:24:24.293Z</time>
      </trkpt>
      <trkpt lat="58.66132694296539" lon="13.696154924109578">
        <ele>50.41</ele>
        <time>2025-02-11T23:25:08.078Z</time>
      </trkpt>
      <trkpt lat="58.66128293797374" lon="13.696273947134614">
        <ele>50.57</ele>
        <time>2025-02-11T23:25:51.864Z</time>
      </trkpt>
      <trkpt lat="58.66123993881047" lon="13.69639196433127">
        <ele>50.73</ele>
        <time>2025-02-11T23:26:35.651Z</time>
      </trkpt>
      <trkpt lat="58.66119794547558" lon="13.696506964042783">
        <ele>50.89</ele>
        <time>2025-02-11T23:27:19.439Z</time>
      </trkpt>
      <trkpt lat="58.66115595214069" lon="13.696621963754296">
        <ele>51.05</ele>
        <time>2025-02-11T23:28:03.228Z</time>
      </trkpt>
      <trkpt lat="58.66111597046256" lon="13.696740986779332">
        <ele>51.21</ele>
        <time>2025-02-11T23:28:47.019Z</time>
      </trkpt>
      <trkpt lat="58.66107992827892" lon="13.696859925985336">
        <ele>51.38</ele>
        <time>2025-02-11T23:29:30.811Z</time>
      </trkpt>
      <trkpt lat="58.66104799322784" lon="13.696978949010372">
        <ele>51.54</ele>
        <time>2025-02-11T23:30:14.604Z</time>
      </trkpt>
      <trkpt lat="58.661017986014485" lon="13.697092942893505">
        <ele>51.7</ele>
        <time>2025-02-11T23:30:58.398Z</time>
      </trkpt>
      <trkpt lat="58.660992924124" lon="13.697207942605019">
        <ele>51.86</ele>
        <time>2025-02-11T23:31:42.193Z</time>
      </trkpt>
      <trkpt lat="58.66097096353769" lon="13.697320930659771">
        <ele>52.03</ele>
        <time>2025-02-11T23:32:25.989Z</time>
      </trkpt>
      <trkpt lat="58.66095093078911" lon="13.697434924542904">
        <ele>52.2</ele>
        <time>2025-02-11T23:33:09.786Z</time>
      </trkpt>
      <trkpt lat="58.660934921354055" lon="13.697542967274785">
        <ele>52.36</ele>
        <time>2025-02-11T23:33:53.584Z</time>
      </trkpt>
      <trkpt lat="58.66092092357576" lon="13.697645980864763">
        <ele>52.53</ele>
        <time>2025-02-11T23:34:37.383Z</time>
      </trkpt>
      <trkpt lat="58.660908937454224" lon="13.697747988626361">
        <ele>52.7</ele>
        <time>2025-02-11T23:35:21.183Z</time>
      </trkpt>
      <trkpt lat="58.66089795716107" lon="13.697844967246056">
        <ele>52.86</ele>
        <time>2025-02-11T23:36:04.983Z</time>
      </trkpt>
      <trkpt lat="58.660886976867914" lon="13.697942951694131">
        <ele>53.03</ele>
        <time>2025-02-11T23:36:48.784Z</time>
      </trkpt>
      <trkpt lat="58.66087792441249" lon="13.698032973334193">
        <ele>53.19</ele>
        <time>2025-02-11T23:37:32.586Z</time>
      </trkpt>
      <trkpt lat="58.660867949947715" lon="13.698123916983604">
        <ele>53.35</ele>
        <time>2025-02-11T23:38:16.389Z</time>
      </trkpt>
      <trkpt lat="58.66085696965456" lon="13.698210921138525">
        <ele>53.51</ele>
        <time>2025-02-11T23:39:00.193Z</time>
      </trkpt>
      <trkpt lat="58.660844983533025" lon="13.698290968313813">
        <ele>53.67</ele>
        <time>2025-02-11T23:39:43.997Z</time>
      </trkpt>
      <trkpt lat="58.66083299741149" lon="13.698368920013309">
        <ele>53.83</ele>
        <time>2025-02-11T23:40:27.802Z</time>
      </trkpt>
      <trkpt lat="58.66081992164254" lon="13.698443938046694">
        <ele>53.99</ele>
        <time>2025-02-11T23:41:11.608Z</time>
      </trkpt>
      <trkpt lat="58.660803996026516" lon="13.698514932766557">
        <ele>54.15</ele>
        <time>2025-02-11T23:41:55.414Z</time>
      </trkpt>
      <trkpt lat="58.66078798659146" lon="13.69858399964869">
        <ele>54.3</ele>
        <time>2025-02-11T23:42:39.221Z</time>
      </trkpt>
      <trkpt lat="58.6607719771564" lon="13.698651976883411">
        <ele>54.46</ele>
        <time>2025-02-11T23:43:23.028Z</time>
      </trkpt>
      <trkpt lat="58.66075496189296" lon="13.698721965774894">
        <ele>54.61</ele>
        <time>2025-02-11T23:44:06.836Z</time>
      </trkpt>
      <trkpt lat="58.66073492914438" lon="13.698789943009615">
        <ele>54.76</ele>
        <time>2025-02-11T23:44:50.645Z</time>
      </trkpt>
      <trkpt lat="58.660714980214834" lon="13.698854986578226">
        <ele>54.91</ele>
        <time>2025-02-11T23:45:34.454Z</time>
      </trkpt>
      <trkpt lat="58.660694947466254" lon="13.698922963812947">
        <ele>55.06</ele>
        <time>2025-02-11T23:46:18.264Z</time>
      </trkpt>
      <trkpt lat="58.660672986879945" lon="13.69899295270443">
        <ele>55.2</ele>
        <time>2025-02-11T23:47:02.075Z</time>
      </trkpt>
      <trkpt lat="58.66064893081784" lon="13.699062941595912">
        <ele>55.35</ele>
        <time>2025-02-11T23:47:45.886Z</time>
      </trkpt>
      <trkpt lat="58.66062294691801" lon="13.699136953800917">
        <ele>55.49</ele>
        <time>2025-02-11T23:48:29.698Z</time>
      </trkpt>
      <trkpt lat="58.66059293970466" lon="13.699210966005921">
        <ele>55.63</ele>
        <time>2025-02-11T23:49:13.511Z</time>
      </trkpt>
      <trkpt lat="58.660564944148064" lon="13.699277937412262">
        <ele>55.76</ele>
        <time>2025-02-11T23:49:57.325Z</time>
      </trkpt>
      <trkpt lat="58.66053594276309" lon="13.699341975152493">
        <ele>55.9</ele>
        <time>2025-02-11T23:50:41.139Z</time>
      </trkpt>
      <trkpt lat="58.6605079472065" lon="13.699405929073691">
        <ele>56.03</ele>
        <time>2025-02-11T23:51:24.954Z</time>
      </trkpt>
      <trkpt lat="58.660480957478285" lon="13.699469966813922">
        <ele>56.16</ele>
        <time>2025-02-11T23:52:08.770Z</time>
      </trkpt>
      <trkpt lat="58.660456985235214" lon="13.699532998725772">
        <ele>56.28</ele>
        <time>2025-02-11T23:52:52.586Z</time>
      </trkpt>
      <trkpt lat="58.66043292917311" lon="13.699593935161829">
        <ele>56.41</ele>
        <time>2025-02-11T23:53:36.403Z</time>
      </trkpt>
      <trkpt lat="58.66040996275842" lon="13.699652943760157">
        <ele>56.53</ele>
        <time>2025-02-11T23:54:20.221Z</time>
      </trkpt>
      <trkpt lat="58.66038397885859" lon="13.699711952358484">
        <ele>56.65</ele>
        <time>2025-02-11T23:55:04.039Z</time>
      </trkpt>
      <trkpt lat="58.66035799495876" lon="13.69976794347167">
        <ele>56.76</ele>
        <time>2025-02-11T23:55:47.858Z</time>
      </trkpt>
      <trkpt lat="58.660332933068275" lon="13.699824940413237">
        <ele>56.87</ele>
        <time>2025-02-11T23:56:31.678Z</time>
      </trkpt>
      <trkpt lat="58.660306949168444" lon="13.699882943183184">
        <ele>56.98</ele>
        <time>2025-02-11T23:57:15.498Z</time>
      </trkpt>
      <trkpt lat="58.66027895361185" lon="13.699937928467989">
        <ele>57.09</ele>
        <time>2025-02-11T23:57:59.319Z</time>
      </trkpt>
      <trkpt lat="58.66024995222688" lon="13.699990985915065">
        <ele>57.19</ele>
        <time>2025-02-11T23:58:43.141Z</time>
      </trkpt>
      <trkpt lat="58.66021994501352" lon="13.700047982856631">
        <ele>57.29</ele>
        <time>2025-02-11T23:59:26.963Z</time>
      </trkpt>
      <trkpt lat="58.66018599830568" lon="13.700105985626578">
        <ele>57.39</ele>
        <time>2025-02-12T00:00:10.786Z</time>
      </trkpt>
      <trkpt lat="58.6601519677788" lon="13.700160970911384">
        <ele>57.48</ele>
        <time>2025-02-12T00:00:54.610Z</time>
      </trkpt>
      <trkpt lat="58.660117937251925" lon="13.700212938711047">
        <ele>57.57</ele>
        <time>2025-02-12T00:01:38.434Z</time>
      </trkpt>
      <trkpt lat="58.6600829847157" lon="13.700265996158123">
        <ele>57.66</ele>
        <time>2025-02-12T00:02:22.259Z</time>
      </trkpt>
      <trkpt lat="58.66004794836044" lon="13.700318969786167">
        <ele>57.74</ele>
        <time>2025-02-12T00:03:06.085Z</time>
      </trkpt>
      <trkpt lat="58.66001299582422" lon="13.700374960899353">
        <ele>57.82</ele>
        <time>2025-02-12T00:03:49.912Z</time>
      </trkpt>
      <trkpt lat="58.65997494198382" lon="13.70043396949768">
        <ele>57.9</ele>
        <time>2025-02-12T00:04:33.739Z</time>
      </trkpt>
      <trkpt lat="58.65993596613407" lon="13.700493983924389">
        <ele>57.97</ele>
        <time>2025-02-12T00:05:17.567Z</time>
      </trkpt>
      <trkpt lat="58.65989497862756" lon="13.700554920360446">
        <ele>58.04</ele>
        <time>2025-02-12T00:06:01.396Z</time>
      </trkpt>
      <trkpt lat="58.65984896197915" lon="13.700613928958774">
        <ele>58.11</ele>
        <time>2025-02-12T00:06:45.226Z</time>
      </trkpt>
      <trkpt lat="58.65980093367398" lon="13.700665980577469">
        <ele>58.17</ele>
        <time>2025-02-12T00:07:29.057Z</time>
      </trkpt>
      <trkpt lat="58.659749971702695" lon="13.70071493089199">
        <ele>58.23</ele>
        <time>2025-02-12T00:08:12.889Z</time>
      </trkpt>
      <trkpt lat="58.65969498641789" lon="13.7007559183985">
        <ele>58.28</ele>
        <time>2025-02-12T00:08:56.722Z</time>
      </trkpt>
      <trkpt lat="58.65963597781956" lon="13.700788943096995">
        <ele>58.33</ele>
        <time>2025-02-12T00:09:40.556Z</time>
      </trkpt>
      <trkpt lat="58.65957294590771" lon="13.700817944481969">
        <ele>58.38</ele>
        <time>2025-02-12T00:10:24.391Z</time>
      </trkpt>
      <trkpt lat="58.659512931481004" lon="13.700837977230549">
        <ele>58.42</ele>
        <time>2025-02-12T00:11:08.227Z</time>
      </trkpt>
      <trkpt lat="58.659453922882676" lon="13.700853986665606">
        <ele>58.46</ele>
        <time>2025-02-12T00:11:52.064Z</time>
      </trkpt>
      <trkpt lat="58.659393992275" lon="13.700866978615522">
        <ele>58.49</ele>
        <time>2025-02-12T00:12:35.901Z</time>
      </trkpt>
      <trkpt lat="58.65933598950505" lon="13.700875947251916">
        <ele>58.52</ele>
        <time>2025-02-12T00:13:19.739Z</time>
      </trkpt>
      <trkpt lat="58.65927999839187" lon="13.700884999707341">
        <ele>58.55</ele>
        <time>2025-02-12T00:14:03.578Z</time>
      </trkpt>
      <trkpt lat="58.65922492928803" lon="13.700891956686974">
        <ele>58.57</ele>
        <time>2025-02-12T00:14:47.418Z</time>
      </trkpt>
      <trkpt lat="58.659171955659986" lon="13.700898997485638">
        <ele>58.59</ele>
        <time>2025-02-12T00:15:31.259Z</time>
      </trkpt>
      <trkpt lat="58.65911898203194" lon="13.70090494863689">
        <ele>58.6</ele>
        <time>2025-02-12T00:16:15.101Z</time>
      </trkpt>
      <trkpt lat="58.65906894207001" lon="13.700908971950412">
        <ele>58.61</ele>
        <time>2025-02-12T00:16:58.944Z</time>
      </trkpt>
      <trkpt lat="58.659019991755486" lon="13.700910983607173">
        <ele>58.62</ele>
        <time>2025-02-12T00:17:42.787Z</time>
      </trkpt>
      <trkpt lat="58.65897296927869" lon="13.700910983607173">
        <ele>58.62</ele>
        <time>2025-02-12T00:18:26.631Z</time>
      </trkpt>
      <trkpt lat="58.65892795845866" lon="13.700909977778792">
        <ele>58.62</ele>
        <time>2025-02-12T00:19:10.476Z</time>
      </trkpt>
      <trkpt lat="58.65888194181025" lon="13.700910983607173">
        <ele>58.62</ele>
        <time>2025-02-12T00:19:54.322Z</time>
      </trkpt>
      <trkpt lat="58.65883491933346" lon="13.700918946415186">
        <ele>58.61</ele>
        <time>2025-02-12T00:20:38.168Z</time>
      </trkpt>
      <trkpt lat="58.65878999233246" lon="13.700946941971779">
        <ele>58.6</ele>
        <time>2025-02-12T00:21:22.015Z</time>
      </trkpt>
      <trkpt lat="58.65875294432044" lon="13.701004944741726">
        <ele>58.58</ele>
        <time>2025-02-12T00:22:05.863Z</time>
      </trkpt>
      <trkpt lat="58.65872796624899" lon="13.701088931411505">
        <ele>58.57</ele>
        <time>2025-02-12T00:22:49.712Z</time>
      </trkpt>
      <trkpt lat="58.65872394293547" lon="13.70118792168796">
        <ele>58.54</ele>
        <time>2025-02-12T00:23:33.562Z</time>
      </trkpt>
      <trkpt lat="58.658735929057" lon="13.701284984126687">
        <ele>58.51</ele>
        <time>2025-02-12T00:24:17.412Z</time>
      </trkpt>
      <trkpt lat="58.658759985119104" lon="13.70135991834104">
        <ele>58.48</ele>
        <time>2025-02-12T00:25:01.263Z</time>
      </trkpt>
      <trkpt lat="58.65879996679723" lon="13.701415993273258">
        <ele>58.44</ele>
        <time>2025-02-12T00:25:45.115Z</time>
      </trkpt>
      <trkpt lat="58.658847995102406" lon="13.701452957466245">
        <ele>58.4</ele>
        <time>2025-02-12T00:26:28.968Z</time>
      </trkpt>
      <trkpt lat="58.65889996290207" lon="13.701457986608148">
        <ele>58.36</ele>
        <time>2025-02-12T00:27:12.822Z</time>
      </trkpt>
      <trkpt lat="58.65896098315716" lon="13.701451951637864">
        <ele>58.31</ele>
        <time>2025-02-12T00:27:56.677Z</time>
      </trkpt>
      <trkpt lat="58.659022925421596" lon="13.701439965516329">
        <ele>58.27</ele>
        <time>2025-02-12T00:28:40.533Z</time>
      </trkpt>
      <trkpt lat="58.65908897481859" lon="13.701430996879935">
        <ele>58.21</ele>
        <time>2025-02-12T00:29:24.390Z</time>
      </trkpt>
      <trkpt lat="58.65915795788169" lon="13.701431918889284">
        <ele>58.16</ele>
        <time>2025-02-12T00:30:08.248Z</time>
      </trkpt>
      <trkpt lat="58.659231970086694" lon="13.701444994658232">
        <ele>58.1</ele>
        <time>2025-02-12T00:30:52.107Z</time>
      </trkpt>
      <trkpt lat="58.65930698812008" lon="13.701470978558064">
        <ele>58.04</ele>
        <time>2025-02-12T00:31:35.967Z</time>
      </trkpt>
      <trkpt lat="58.65938292816281" lon="13.701505931094289">
        <ele>57.98</ele>
        <time>2025-02-12T00:32:19.828Z</time>
      </trkpt>
      <trkpt lat="58.65945895202458" lon="13.701547924429178">
        <ele>57.91</ele>
        <time>2025-02-12T00:33:03.691Z</time>
      </trkpt>
      <trkpt lat="58.659534975886345" lon="13.70159494690597">
        <ele>57.84</ele>
        <time>2025-02-12T00:33:47.555Z</time>
      </trkpt>
      <trkpt lat="58.65960697643459" lon="13.701647920534015">
        <ele>57.77</ele>
        <time>2025-02-12T00:34:31.420Z</time>
      </trkpt>
      <trkpt lat="58.65967797115445" lon="13.70169997215271">
        <ele>57.69</ele>
        <time>2025-02-12T00:35:15.286Z</time>
      </trkpt>
      <trkpt lat="58.659751983359456" lon="13.701760992407799">
        <ele>57.61</ele>
        <time>2025-02-12T00:35:59.154Z</time>
      </trkpt>
      <trkpt lat="58.65982599556446" lon="13.701823940500617">
        <ele>57.52</ele>
        <time>2025-02-12T00:36:43.023Z</time>
      </trkpt>
      <trkpt lat="58.65989891812205" lon="13.701886972412467">
        <ele>57.44</ele>
        <time>2025-02-12T00:37:26.893Z</time>
      </trkpt>
      <trkpt lat="58.65996798500419" lon="13.70195897296071">
        <ele>57.34</ele>
        <time>2025-02-12T00:38:10.765Z</time>
      </trkpt>
      <trkpt lat="58.660029927268624" lon="13.702029967680573">
        <ele>57.25</ele>
        <time>2025-02-12T00:38:54.638Z</time>
      </trkpt>
      <trkpt lat="58.66009798832238" lon="13.70210892520845">
        <ele>57.15</ele>
        <time>2025-02-12T00:39:38.512Z</time>
      </trkpt>
      <trkpt lat="58.66016797721386" lon="13.702186960726976">
        <ele>57.06</ele>
        <time>2025-02-12T00:40:22.387Z</time>
      </trkpt>
      <trkpt lat="58.660240983590484" lon="13.702265918254852">
        <ele>56.96</ele>
        <time>2025-02-12T00:41:06.264Z</time>
      </trkpt>
      <trkpt lat="58.66031398996711" lon="13.70234596543014">
        <ele>56.85</ele>
        <time>2025-02-12T00:41:50.142Z</time>
      </trkpt>
      <trkpt lat="58.66038892418146" lon="13.702427940443158">
        <ele>56.74</ele>
        <time>2025-02-12T00:42:34.021Z</time>
      </trkpt>
      <trkpt lat="58.66046796552837" lon="13.70251595042646">
        <ele>56.63</ele>
        <time>2025-02-12T00:43:17.902Z</time>
      </trkpt>
      <trkpt lat="58.66055698134005" lon="13.70260396040976">
        <ele>56.51</ele>
        <time>2025-02-12T00:44:01.784Z</time>
      </trkpt>
      <trkpt lat="58.660653959959745" lon="13.70268794707954">
        <ele>56.39</ele>
        <time>2025-02-12T00:44:45.668Z</time>
      </trkpt>
      <trkpt lat="58.660759991034865" lon="13.702764976769686">
        <ele>56.26</ele>
        <time>2025-02-12T00:45:29.554Z</time>
      </trkpt>
      <trkpt lat="58.660868955776095" lon="13.702835971489549">
        <ele>56.14</ele>
        <time>2025-02-12T00:46:13.442Z</time>
      </trkpt>
      <trkpt lat="58.66098093800247" lon="13.702900931239128">
        <ele>56.02</ele>
        <time>2025-02-12T00:46:57.332Z</time>
      </trkpt>
      <trkpt lat="58.66108998656273" lon="13.702960945665836">
        <ele>55.89</ele>
        <time>2025-02-12T00:47:41.224Z</time>
      </trkpt>
      <trkpt lat="58.66120398044586" lon="13.703018948435783">
        <ele>55.77</ele>
        <time>2025-02-12T00:48:25.117Z</time>
      </trkpt>
      <trkpt lat="58.66131495684385" lon="13.703079968690872">
        <ele>55.65</ele>
        <time>2025-02-12T00:49:09.012Z</time>
      </trkpt>
      <trkpt lat="58.66142392158508" lon="13.703141994774342">
        <ele>55.53</ele>
        <time>2025-02-12T00:49:52.909Z</time>
      </trkpt>
      <trkpt lat="58.661533975973725" lon="13.703199997544289">
        <ele>55.41</ele>
        <time>2025-02-12T00:50:36.808Z</time>
      </trkpt>
      <trkpt lat="58.661643946543336" lon="13.703260933980346">
        <ele>55.29</ele>
        <time>2025-02-12T00:51:20.709Z</time>
      </trkpt>
      <trkpt lat="58.6617529951036" lon="13.703326983377337">
        <ele>55.16</ele>
        <time>2025-02-12T00:52:04.612Z</time>
      </trkpt>
      <trkpt lat="58.66186195984483" lon="13.703392948955297">
        <ele>55.03</ele>
        <time>2025-02-12T00:52:48.516Z</time>
      </trkpt>
      <trkpt lat="58.66196991875768" lon="13.703465955331922">
        <ele>54.91</ele>
        <time>2025-02-12T00:53:32.422Z</time>
      </trkpt>
      <trkpt lat="58.662073938176036" lon="13.703552959486842">
        <ele>54.78</ele>
        <time>2025-02-12T00:54:16.330Z</time>
      </trkpt>
      <trkpt lat="58.66217091679573" lon="13.703658990561962">
        <ele>54.65</ele>
        <time>2025-02-12T00:55:00.240Z</time>
      </trkpt>
      <trkpt lat="58.662263955920935" lon="13.703777929767966">
        <ele>54.52</ele>
        <time>2025-02-12T00:55:44.152Z</time>
      </trkpt>
      <trkpt lat="58.662350960075855" lon="13.703906927257776">
        <ele>54.39</ele>
        <time>2025-02-12T00:56:28.065Z</time>
      </trkpt>
      <trkpt lat="58.662435952574015" lon="13.70404195971787">
        <ele>54.25</ele>
        <time>2025-02-12T00:57:11.980Z</time>
      </trkpt>
      <trkpt lat="58.66251993924379" lon="13.704179925844073">
        <ele>54.11</ele>
        <time>2025-02-12T00:57:55.897Z</time>
      </trkpt>
      <trkpt lat="58.66260392591357" lon="13.704314958304167">
        <ele>53.98</ele>
        <time>2025-02-12T00:58:39.816Z</time>
      </trkpt>
      <trkpt lat="58.66268891841173" lon="13.7044479791075">
        <ele>53.84</ele>
        <time>2025-02-12T00:59:23.737Z</time>
      </trkpt>
      <trkpt lat="58.66277399472892" lon="13.70457999408245">
        <ele>53.7</ele>
        <time>2025-02-12T01:00:07.659Z</time>
      </trkpt>
      <trkpt lat="58.66285697557032" lon="13.70470899157226">
        <ele>53.56</ele>
        <time>2025-02-12T01:00:51.583Z</time>
      </trkpt>
      <trkpt lat="58.66294297389686" lon="13.704830948263407">
        <ele>53.43</ele>
        <time>2025-02-12T01:01:35.509Z</time>
      </trkpt>
      <trkpt lat="58.66303299553692" lon="13.704938990995288">
        <ele>53.29</ele>
        <time>2025-02-12T01:02:19.436Z</time>
      </trkpt>
      <trkpt lat="58.66312796249986" lon="13.705027922987938">
        <ele>53.15</ele>
        <time>2025-02-12T01:03:03.365Z</time>
      </trkpt>
      <trkpt lat="58.66322795860469" lon="13.705090954899788">
        <ele>53.01</ele>
        <time>2025-02-12T01:03:47.296Z</time>
      </trkpt>
      <trkpt lat="58.66332996636629" lon="13.705133954063058">
        <ele>52.86</ele>
        <time>2025-02-12T01:04:31.228Z</time>
      </trkpt>
      <trkpt lat="58.66343297995627" lon="13.70516194961965">
        <ele>52.71</ele>
        <time>2025-02-12T01:05:15.162Z</time>
      </trkpt>
      <trkpt lat="58.66353699937463" lon="13.705186927691102">
        <ele>52.57</ele>
        <time>2025-02-12T01:05:59.098Z</time>
      </trkpt>
      <trkpt lat="58.663639929145575" lon="13.705209977924824">
        <ele>52.43</ele>
        <time>2025-02-12T01:06:43.035Z</time>
      </trkpt>
      <trkpt lat="58.66374294273555" lon="13.705228921025991">
        <ele>52.3</ele>
        <time>2025-02-12T01:07:26.974Z</time>
      </trkpt>
      <trkpt lat="58.66384495049715" lon="13.705250965431333">
        <ele>52.18</ele>
        <time>2025-02-12T01:08:10.915Z</time>
      </trkpt>
      <trkpt lat="58.66394695825875" lon="13.705271920189261">
        <ele>52.05</ele>
        <time>2025-02-12T01:08:54.857Z</time>
      </trkpt>
      <trkpt lat="58.664047960191965" lon="13.705291952937841">
        <ele>51.93</ele>
        <time>2025-02-12T01:09:38.801Z</time>
      </trkpt>
      <trkpt lat="58.6641479562968" lon="13.70531097985804">
        <ele>51.8</ele>
        <time>2025-02-12T01:10:22.747Z</time>
      </trkpt>
      <trkpt lat="58.66424594074488" lon="13.705330928787589">
        <ele>51.68</ele>
        <time>2025-02-12T01:11:06.694Z</time>
      </trkpt>
      <trkpt lat="58.66434099152684" lon="13.705349955707788">
        <ele>51.56</ele>
        <time>2025-02-12T01:11:50.643Z</time>
      </trkpt>
      <trkpt lat="58.664433946833014" lon="13.705369988456368">
        <ele>51.43</ele>
        <time>2025-02-12T01:12:34.593Z</time>
      </trkpt>
      <trkpt lat="58.66452698595822" lon="13.705389937385917">
        <ele>51.31</ele>
        <time>2025-02-12T01:13:18.545Z</time>
      </trkpt>
      <trkpt lat="58.66461893543601" lon="13.705407958477736">
        <ele>51.19</ele>
        <time>2025-02-12T01:14:02.498Z</time>
      </trkpt>
      <trkpt lat="58.66470895707607" lon="13.705426985397935">
        <ele>51.06</ele>
        <time>2025-02-12T01:14:46.453Z</time>
      </trkpt>
      <trkpt lat="58.66479596123099" lon="13.705444922670722">
        <ele>50.94</ele>
        <time>2025-02-12T01:15:30.409Z</time>
      </trkpt>
      <trkpt lat="58.66488095372915" lon="13.705463949590921">
        <ele>50.82</ele>
        <time>2025-02-12T01:16:14.367Z</time>
      </trkpt>
      <trkpt lat="58.66496292874217" lon="13.70548197068274">
        <ele>50.71</ele>
        <time>2025-02-12T01:16:58.326Z</time>
      </trkpt>
      <trkpt lat="58.6650409642607" lon="13.705501919612288">
        <ele>50.59</ele>
        <time>2025-02-12T01:17:42.286Z</time>
      </trkpt>
      <trkpt lat="58.66511598229408" lon="13.705522958189249">
        <ele>50.47</ele>
        <time>2025-02-12T01:18:26.247Z</time>
      </trkpt>
      <trkpt lat="58.665187982842326" lon="13.705540979281068">
        <ele>50.35</ele>
        <time>2025-02-12T01:19:10.209Z</time>
      </trkpt>
      <trkpt lat="58.66525797173381" lon="13.705554977059364">
        <ele>50.24</ele>
        <time>2025-02-12T01:19:54.173Z</time>
      </trkpt>
      <trkpt lat="58.66532896645367" lon="13.70556897483766">
        <ele>50.12</ele>
        <time>2025-02-12T01:20:38.138Z</time>
      </trkpt>
      <trkpt lat="58.665398955345154" lon="13.705587917938828">
        <ele>50.01</ele>
        <time>2025-02-12T01:21:22.104Z</time>
      </trkpt>
      <trkpt lat="58.66546995006502" lon="13.705606944859028">
        <ele>49.9</ele>
        <time>2025-02-12T01:22:06.071Z</time>
      </trkpt>
      <trkpt lat="58.6655399389565" lon="13.705628989264369">
        <ele>49.79</ele>
        <time>2025-02-12T01:22:50.039Z</time>
      </trkpt>
      <trkpt lat="58.665615962818265" lon="13.705647932365537">
        <ele>49.67</ele>
        <time>2025-02-12T01:23:34.008Z</time>
      </trkpt>
      <trkpt lat="58.66569894365966" lon="13.705661930143833">
        <ele>49.57</ele>
        <time>2025-02-12T01:24:17.979Z</time>
      </trkpt>
      <trkpt lat="58.66578192450106" lon="13.70567793957889">
        <ele>49.46</ele>
        <time>2025-02-12T01:25:01.951Z</time>
      </trkpt>
      <trkpt lat="58.66586498916149" lon="13.705692943185568">
        <ele>49.35</ele>
        <time>2025-02-12T01:25:45.924Z</time>
      </trkpt>
      <trkpt lat="58.66594595834613" lon="13.705714987590909">
        <ele>49.24</ele>
        <time>2025-02-12T01:26:29.899Z</time>
      </trkpt>
      <trkpt lat="58.666023993864655" lon="13.705733930692077">
        <ele>49.14</ele>
        <time>2025-02-12T01:27:13.875Z</time>
      </trkpt>
      <trkpt lat="58.66610194556415" lon="13.705751951783895">
        <ele>49.04</ele>
        <time>2025-02-12T01:27:57.852Z</time>
      </trkpt>
      <trkpt lat="58.66618299856782" lon="13.705772990360856">
        <ele>48.93</ele>
        <time>2025-02-12T01:28:41.831Z</time>
      </trkpt>
      <trkpt lat="58.66626396775246" lon="13.705795956775546">
        <ele>48.83</ele>
        <time>2025-02-12T01:29:25.811Z</time>
      </trkpt>
      <trkpt lat="58.66634191945195" lon="13.705812972038984">
        <ele>48.73</ele>
        <time>2025-02-12T01:30:09.792Z</time>
      </trkpt>
      <trkpt lat="58.66641794331372" lon="13.705838955938816">
        <ele>48.62</ele>
        <time>2025-02-12T01:30:53.774Z</time>
      </trkpt>
      <trkpt lat="58.666496984660625" lon="13.705857982859015">
        <ele>48.53</ele>
        <time>2025-02-12T01:31:37.758Z</time>
      </trkpt>
      <trkpt lat="58.66657795384526" lon="13.705870974808931">
        <ele>48.43</ele>
        <time>2025-02-12T01:32:21.743Z</time>
      </trkpt>
      <trkpt lat="58.6666589230299" lon="13.705885978415608">
        <ele>48.34</ele>
        <time>2025-02-12T01:33:05.729Z</time>
      </trkpt>
      <trkpt lat="58.66673997603357" lon="13.705899976193905">
        <ele>48.24</ele>
        <time>2025-02-12T01:33:49.717Z</time>
      </trkpt>
      <trkpt lat="58.666821951046586" lon="13.705915985628963">
        <ele>48.15</ele>
        <time>2025-02-12T01:34:33.706Z</time>
      </trkpt>
      <trkpt lat="58.666901998221874" lon="13.70593392290175">
        <ele>48.05</ele>
        <time>2025-02-12T01:35:17.696Z</time>
      </trkpt>
      <trkpt lat="58.66698095574975" lon="13.70595496147871">
        <ele>47.96</ele>
        <time>2025-02-12T01:36:01.687Z</time>
      </trkpt>
      <trkpt lat="58.667054967954755" lon="13.705972982570529">
        <ele>47.87</ele>
        <time>2025-02-12T01:36:45.680Z</time>
      </trkpt>
      <trkpt lat="58.66712596267462" lon="13.705991925671697">
        <ele>47.79</ele>
        <time>2025-02-12T01:37:29.674Z</time>
      </trkpt>
      <trkpt lat="58.6671909224242" lon="13.706010952591896">
        <ele>47.7</ele>
        <time>2025-02-12T01:38:13.669Z</time>
      </trkpt>
      <trkpt lat="58.66725294850767" lon="13.706028973683715">
        <ele>47.62</ele>
        <time>2025-02-12T01:38:57.665Z</time>
      </trkpt>
      <trkpt lat="58.667313968762755" lon="13.706042971462011">
        <ele>47.54</ele>
        <time>2025-02-12T01:39:41.662Z</time>
      </trkpt>
      <trkpt lat="58.667373983189464" lon="13.706056969240308">
        <ele>47.46</ele>
        <time>2025-02-12T01:40:25.660Z</time>
      </trkpt>
      <trkpt lat="58.66743491962552" lon="13.706069961190224">
        <ele>47.38</ele>
        <time>2025-02-12T01:41:09.659Z</time>
      </trkpt>
      <trkpt lat="58.66749392822385" lon="13.7060849647969">
        <ele>47.3</ele>
        <time>2025-02-12T01:41:53.659Z</time>
      </trkpt>
      <trkpt lat="58.667552936822176" lon="13.706097956746817">
        <ele>47.22</ele>
        <time>2025-02-12T01:42:37.660Z</time>
      </trkpt>
      <trkpt lat="58.66760892793536" lon="13.706112960353494">
        <ele>47.14</ele>
        <time>2025-02-12T01:43:21.662Z</time>
      </trkpt>
      <trkpt lat="58.66766491904855" lon="13.70612796396017">
        <ele>47.07</ele>
        <time>2025-02-12T01:44:05.665Z</time>
      </trkpt>
      <trkpt lat="58.667719988152385" lon="13.706141961738467">
        <ele>47.0</ele>
        <time>2025-02-12T01:44:49.668Z</time>
      </trkpt>
      <trkpt lat="58.66777296178043" lon="13.706153947860003">
        <ele>46.93</ele>
        <time>2025-02-12T01:45:33.672Z</time>
      </trkpt>
      <trkpt lat="58.667827947065234" lon="13.706167945638299">
        <ele>46.86</ele>
        <time>2025-02-12T01:46:17.677Z</time>
      </trkpt>
      <trkpt lat="58.66788092069328" lon="13.706181943416595">
        <ele>46.78</ele>
        <time>2025-02-12T01:47:01.683Z</time>
      </trkpt>
      <trkpt lat="58.667935989797115" lon="13.706194935366511">
        <ele>46.71</ele>
        <time>2025-02-12T01:47:45.690Z</time>
      </trkpt>
      <trkpt lat="58.6679919809103" lon="13.706207927316427">
        <ele>46.65</ele>
        <time>2025-02-12T01:48:29.698Z</time>
      </trkpt>
      <trkpt lat="58.66804998368025" lon="13.706221925094724">
        <ele>46.58</ele>
        <time>2025-02-12T01:49:13.707Z</time>
      </trkpt>
      <trkpt lat="58.668107986450195" lon="13.7062369287014">
        <ele>46.51</ele>
        <time>2025-02-12T01:49:57.717Z</time>
      </trkpt>
      <trkpt lat="58.66816397756338" lon="13.706249920651317">
        <ele>46.45</ele>
        <time>2025-02-12T01:50:41.728Z</time>
      </trkpt>
      <trkpt lat="58.66822097450495" lon="13.706261990591884">
        <ele>46.39</ele>
        <time>2025-02-12T01:51:25.739Z</time>
      </trkpt>
      <trkpt lat="58.66827696561813" lon="13.706272970885038">
        <ele>46.33</ele>
        <time>2025-02-12T01:52:09.751Z</time>
      </trkpt>
      <trkpt lat="58.6683339625597" lon="13.706284957006574">
        <ele>46.27</ele>
        <time>2025-02-12T01:52:53.764Z</time>
      </trkpt>
      <trkpt lat="58.668387942016125" lon="13.706295937299728">
        <ele>46.21</ele>
        <time>2025-02-12T01:53:37.778Z</time>
      </trkpt>
      <trkpt lat="58.66843898780644" lon="13.706309935078025">
        <ele>46.15</ele>
        <time>2025-02-12T01:54:21.793Z</time>
      </trkpt>
      <trkpt lat="58.66848994977772" lon="13.706325944513083">
        <ele>46.09</ele>
        <time>2025-02-12T01:55:05.809Z</time>
      </trkpt>
      <trkpt lat="58.668537978082895" lon="13.706337930634618">
        <ele>46.03</ele>
        <time>2025-02-12T01:55:49.826Z</time>
      </trkpt>
      <trkpt lat="58.668580977246165" lon="13.706349916756153">
        <ele>45.97</ele>
        <time>2025-02-12T01:56:33.843Z</time>
      </trkpt>
      <trkpt lat="58.668622970581055" lon="13.706368943676353">
        <ele>45.92</ele>
        <time>2025-02-12T01:57:17.861Z</time>
      </trkpt>
      <trkpt lat="58.668664963915944" lon="13.706395933404565">
        <ele>45.86</ele>
        <time>2025-02-12T01:58:01.880Z</time>
      </trkpt>
      <trkpt lat="58.668709974735975" lon="13.706432981416583">
        <ele>45.81</ele>
        <time>2025-02-12T01:58:45.900Z</time>
      </trkpt>
      <trkpt lat="58.668753979727626" lon="13.706479920074344">
        <ele>45.76</ele>
        <time>2025-02-12T01:59:29.920Z</time>
      </trkpt>
      <trkpt lat="58.66879194974899" lon="13.706538928672671">
        <ele>45.7</ele>
        <time>2025-02-12T02:00:13.941Z</time>
      </trkpt>
      <trkpt lat="58.66882195696235" lon="13.70661998167634">
        <ele>45.65</ele>
        <time>2025-02-12T02:00:57.963Z</time>
      </trkpt>
      <trkpt lat="58.668840983882546" lon="13.706714948639274">
        <ele>45.6</ele>
        <time>2025-02-12T02:01:41.986Z</time>
      </trkpt>
      <trkpt lat="58.66885498166084" lon="13.706810921430588">
        <ele>45.55</ele>
        <time>2025-02-12T02:02:26.010Z</time>
      </trkpt>
      <trkpt lat="58.668862944468856" lon="13.706906978040934">
        <ele>45.5</ele>
        <time>2025-02-12T02:03:10.034Z</time>
      </trkpt>
      <trkpt lat="58.66886495612562" lon="13.706995993852615">
        <ele>45.45</ele>
        <time>2025-02-12T02:03:54.059Z</time>
      </trkpt>
      <trkpt lat="58.668863950297236" lon="13.707083920016885">
        <ele>45.4</ele>
        <time>2025-02-12T02:04:38.085Z</time>
      </trkpt>
      <trkpt lat="58.668861938640475" lon="13.707172935828567">
        <ele>45.35</ele>
        <time>2025-02-12T02:05:22.112Z</time>
      </trkpt>
      <trkpt lat="58.66885397583246" lon="13.707259939983487">
        <ele>45.29</ele>
        <time>2025-02-12T02:06:06.139Z</time>
      </trkpt>
      <trkpt lat="58.66884592920542" lon="13.70734996162355">
        <ele>45.24</ele>
        <time>2025-02-12T02:06:50.167Z</time>
      </trkpt>
      <trkpt lat="58.668837966397405" lon="13.707439983263612">
        <ele>45.19</ele>
        <time>2025-02-12T02:07:34.196Z</time>
      </trkpt>
      <trkpt lat="58.66882991977036" lon="13.707529921084642">
        <ele>45.15</ele>
        <time>2025-02-12T02:08:18.226Z</time>
      </trkpt>
      <trkpt lat="58.66882396861911" lon="13.707621954381466">
        <ele>45.11</ele>
        <time>2025-02-12T02:09:02.256Z</time>
      </trkpt>
      <trkpt lat="58.668817933648825" lon="13.70771398767829">
        <ele>45.06</ele>
        <time>2025-02-12T02:09:46.287Z</time>
      </trkpt>
      <trkpt lat="58.66880997084081" lon="13.7078049313277">
        <ele>45.02</ele>
        <time>2025-02-12T02:10:30.319Z</time>
      </trkpt>
      <trkpt lat="58.66880192421377" lon="13.707895958796144">
        <ele>44.97</ele>
        <time>2025-02-12T02:11:14.352Z</time>
      </trkpt>
      <trkpt lat="58.668794967234135" lon="13.707986986264586">
        <ele>44.93</ele>
        <time>2025-02-12T02:11:58.386Z</time>
      </trkpt>
      <trkpt lat="58.66878692060709" lon="13.708079941570759">
        <ele>44.89</ele>
        <time>2025-02-12T02:12:42.420Z</time>
      </trkpt>
      <trkpt lat="58.66877895779908" lon="13.708172980695963">
        <ele>44.85</ele>
        <time>2025-02-12T02:13:26.455Z</time>
      </trkpt>
      <trkpt lat="58.66876998916268" lon="13.708271970972419">
        <ele>44.82</ele>
        <time>2025-02-12T02:14:10.491Z</time>
      </trkpt>
      <trkpt lat="58.66876093670726" lon="13.708374984562397">
        <ele>44.78</ele>
        <time>2025-02-12T02:14:54.528Z</time>
      </trkpt>
      <trkpt lat="58.668752973899245" lon="13.708480931818485">
        <ele>44.74</ele>
        <time>2025-02-12T02:15:38.566Z</time>
      </trkpt>
      <trkpt lat="58.6687449272722" lon="13.708586962893605">
        <ele>44.71</ele>
        <time>2025-02-12T02:16:22.605Z</time>
      </trkpt>
      <trkpt lat="58.66873595863581" lon="13.708691988140345">
        <ele>44.68</ele>
        <time>2025-02-12T02:17:06.645Z</time>
      </trkpt>
      <trkpt lat="58.66872891783714" lon="13.708796929568052">
        <ele>44.64</ele>
        <time>2025-02-12T02:17:50.685Z</time>
      </trkpt>
      <trkpt lat="58.66872296668589" lon="13.70889893732965">
        <ele>44.61</ele>
        <time>2025-02-12T02:18:34.726Z</time>
      </trkpt>
      <trkpt lat="58.66871592588723" lon="13.708996921777725">
        <ele>44.58</ele>
        <time>2025-02-12T02:19:18.768Z</time>
      </trkpt>
      <trkpt lat="58.668708968907595" lon="13.70909197255969">
        <ele>44.55</ele>
        <time>2025-02-12T02:20:02.811Z</time>
      </trkpt>
      <trkpt lat="58.66870192810893" lon="13.709179982542992">
        <ele>44.52</ele>
        <time>2025-02-12T02:20:46.855Z</time>
      </trkpt>
      <trkpt lat="58.66869295947254" lon="13.709264975041151">
        <ele>44.5</ele>
        <time>2025-02-12T02:21:30.899Z</time>
      </trkpt>
      <trkpt lat="58.66868591867387" lon="13.709345944225788">
        <ele>44.47</ele>
        <time>2025-02-12T02:22:14.944Z</time>
      </trkpt>
      <trkpt lat="58.66867896169424" lon="13.709423979744315">
        <ele>44.44</ele>
        <time>2025-02-12T02:22:58.990Z</time>
      </trkpt>
      <trkpt lat="58.66867292672396" lon="13.70950092561543">
        <ele>44.41</ele>
        <time>2025-02-12T02:23:43.036Z</time>
      </trkpt>
      <trkpt lat="58.668665969744325" lon="13.709573931992054">
        <ele>44.39</ele>
        <time>2025-02-12T02:24:27.083Z</time>
      </trkpt>
      <trkpt lat="58.6686569172889" lon="13.709646938368678">
        <ele>44.37</ele>
        <time>2025-02-12T02:25:11.131Z</time>
      </trkpt>
      <trkpt lat="58.66864996030927" lon="13.709721956402063">
        <ele>44.35</ele>
        <time>2025-02-12T02:25:55.179Z</time>
      </trkpt>
      <trkpt lat="58.66864392533898" lon="13.70980191975832">
        <ele>44.33</ele>
        <time>2025-02-12T02:26:39.228Z</time>
      </trkpt>
      <trkpt lat="58.66863596253097" lon="13.70988599024713">
        <ele>44.31</ele>
        <time>2025-02-12T02:27:23.278Z</time>
      </trkpt>
      <trkpt lat="58.66862799972296" lon="13.709972994402051">
        <ele>44.29</ele>
        <time>2025-02-12T02:28:07.328Z</time>
      </trkpt>
      <trkpt lat="58.66861995309591" lon="13.710059998556972">
        <ele>44.28</ele>
        <time>2025-02-12T02:28:51.379Z</time>
      </trkpt>
      <trkpt lat="58.6686119902879" lon="13.710145996883512">
        <ele>44.26</ele>
        <time>2025-02-12T02:29:35.431Z</time>
      </trkpt>
      <trkpt lat="58.66860092617571" lon="13.71022897772491">
        <ele>44.25</ele>
        <time>2025-02-12T02:30:19.484Z</time>
      </trkpt>
      <trkpt lat="58.6685879342258" lon="13.710312964394689">
        <ele>44.24</ele>
        <time>2025-02-12T02:31:03.537Z</time>
      </trkpt>
      <trkpt lat="58.66857293061912" lon="13.710396951064467">
        <ele>44.22</ele>
        <time>2025-02-12T02:31:47.591Z</time>
      </trkpt>
      <trkpt lat="58.66855792701244" lon="13.710481943562627">
        <ele>44.21</ele>
        <time>2025-02-12T02:32:31.646Z</time>
      </trkpt>
      <trkpt lat="58.66854292340577" lon="13.710569953545928">
        <ele>44.2</ele>
        <time>2025-02-12T02:33:15.702Z</time>
      </trkpt>
      <trkpt lat="58.66852791979909" lon="13.71065796352923">
        <ele>44.19</ele>
        <time>2025-02-12T02:33:59.758Z</time>
      </trkpt>
      <trkpt lat="58.66851291619241" lon="13.71074496768415">
        <ele>44.18</ele>
        <time>2025-02-12T02:34:43.815Z</time>
      </trkpt>
      <trkpt lat="58.6684999242425" lon="13.710823925212026">
        <ele>44.17</ele>
        <time>2025-02-12T02:35:27.873Z</time>
      </trkpt>
      <trkpt lat="58.66848894394934" lon="13.71089793741703">
        <ele>44.16</ele>
        <time>2025-02-12T02:36:11.931Z</time>
      </trkpt>
      <trkpt lat="58.66847796365619" lon="13.710966920480132">
        <ele>44.16</ele>
        <time>2025-02-12T02:36:55.990Z</time>
      </trkpt>
      <trkpt lat="58.66846497170627" lon="13.711032969877124">
        <ele>44.16</ele>
        <time>2025-02-12T02:37:40.050Z</time>
      </trkpt>
      <trkpt lat="58.668451979756355" lon="13.711098935455084">
        <ele>44.16</ele>
        <time>2025-02-12T02:38:24.110Z</time>
      </trkpt>
      <trkpt lat="58.6684409994632" lon="13.711161967366934">
        <ele>44.16</ele>
        <time>2025-02-12T02:39:08.171Z</time>
      </trkpt>
      <trkpt lat="58.668431947007775" lon="13.711222987622023">
        <ele>44.16</ele>
        <time>2025-02-12T02:39:52.232Z</time>
      </trkpt>
      <trkpt lat="58.66841996088624" lon="13.711286941543221">
        <ele>44.17</ele>
        <time>2025-02-12T02:40:36.294Z</time>
      </trkpt>
      <trkpt lat="58.668406968936324" lon="13.711354918777943">
        <ele>44.17</ele>
        <time>2025-02-12T02:41:20.356Z</time>
      </trkpt>
      <trkpt lat="58.66839699447155" lon="13.711424991488457">
        <ele>44.17</ele>
        <time>2025-02-12T02:42:04.419Z</time>
      </trkpt>
      <trkpt lat="58.668385930359364" lon="13.711491962894797">
        <ele>44.18</ele>
        <time>2025-02-12T02:42:48.483Z</time>
      </trkpt>
      <trkpt lat="58.66837595589459" lon="13.711560945957899">
        <ele>44.18</ele>
        <time>2025-02-12T02:43:32.547Z</time>
      </trkpt>
      <trkpt lat="58.668364975601435" lon="13.711631940677762">
        <ele>44.19</ele>
        <time>2025-02-12T02:44:16.612Z</time>
      </trkpt>
      <trkpt lat="58.66835399530828" lon="13.711702935397625">
        <ele>44.19</ele>
        <time>2025-02-12T02:45:00.677Z</time>
      </trkpt>
      <trkpt lat="58.66834192536771" lon="13.711768984794617">
        <ele>44.2</ele>
        <time>2025-02-12T02:45:44.743Z</time>
      </trkpt>
      <trkpt lat="58.6683289334178" lon="13.711834950372577">
        <ele>44.21</ele>
        <time>2025-02-12T02:46:28.810Z</time>
      </trkpt>
      <trkpt lat="58.66831795312464" lon="13.711900999769568">
        <ele>44.22</ele>
        <time>2025-02-12T02:47:12.877Z</time>
      </trkpt>
      <trkpt lat="58.66830596700311" lon="13.71196897700429">
        <ele>44.23</ele>
        <time>2025-02-12T02:47:56.945Z</time>
      </trkpt>
      <trkpt lat="58.66829498670995" lon="13.71203594841063">
        <ele>44.25</ele>
        <time>2025-02-12T02:48:41.013Z</time>
      </trkpt>
      <trkpt lat="58.668282916769385" lon="13.71209898032248">
        <ele>44.26</ele>
        <time>2025-02-12T02:49:25.082Z</time>
      </trkpt>
      <trkpt lat="58.66827294230461" lon="13.712158994749188">
        <ele>44.28</ele>
        <time>2025-02-12T02:50:09.152Z</time>
      </trkpt>
      <trkpt lat="58.66826296783984" lon="13.712216997519135">
        <ele>44.29</ele>
        <time>2025-02-12T02:50:53.222Z</time>
      </trkpt>
      <trkpt lat="58.66825399920344" lon="13.71227097697556">
        <ele>44.31</ele>
        <time>2025-02-12T02:51:37.292Z</time>
      </trkpt>
      <trkpt lat="58.66824394091964" lon="13.712324956431985">
        <ele>44.32</ele>
        <time>2025-02-12T02:52:21.363Z</time>
      </trkpt>
      <trkpt lat="58.668235978111625" lon="13.71237994171679">
        <ele>44.34</ele>
        <time>2025-02-12T02:53:05.434Z</time>
      </trkpt>
      <trkpt lat="58.66822591982782" lon="13.712434927001595">
        <ele>44.36</ele>
        <time>2025-02-12T02:53:49.506Z</time>
      </trkpt>
      <trkpt lat="58.668214939534664" lon="13.71248597279191">
        <ele>44.38</ele>
        <time>2025-02-12T02:54:33.578Z</time>
      </trkpt>
      <trkpt lat="58.66820597089827" lon="13.712535928934813">
        <ele>44.4</ele>
        <time>2025-02-12T02:55:17.651Z</time>
      </trkpt>
      <trkpt lat="58.668197924271226" lon="13.712589992210269">
        <ele>44.43</ele>
        <time>2025-02-12T02:56:01.724Z</time>
      </trkpt>
      <trkpt lat="58.66818794980645" lon="13.712648916989565">
        <ele>44.45</ele>
        <time>2025-02-12T02:56:45.798Z</time>
      </trkpt>
      <trkpt lat="58.66817797534168" lon="13.712708931416273">
        <ele>44.47</ele>
        <time>2025-02-12T02:57:29.872Z</time>
      </trkpt>
      <trkpt lat="58.66816992871463" lon="13.71276592835784">
        <ele>44.5</ele>
        <time>2025-02-12T02:58:13.947Z</time>
      </trkpt>
      <trkpt lat="58.66816196590662" lon="13.712820997461677">
        <ele>44.52</ele>
        <time>2025-02-12T02:58:58.022Z</time>
      </trkpt>
      <trkpt lat="58.66815299727023" lon="13.71287296526134">
        <ele>44.55</ele>
        <time>2025-02-12T02:59:42.098Z</time>
      </trkpt>
      <trkpt lat="58.6681439448148" lon="13.712922921404243">
        <ele>44.58</ele>
        <time>2025-02-12T03:00:26.174Z</time>
      </trkpt>
      <trkpt lat="58.66813397035003" lon="13.712974973022938">
        <ele>44.61</ele>
        <time>2025-02-12T03:01:10.251Z</time>
      </trkpt>
      <trkpt lat="58.66812399588525" lon="13.713031969964504">
        <ele>44.64</ele>
        <time>2025-02-12T03:01:54.328Z</time>
      </trkpt>
      <trkpt lat="58.66811393760145" lon="13.71308796107769">
        <ele>44.66</ele>
        <time>2025-02-12T03:02:38.406Z</time>
      </trkpt>
      <trkpt lat="58.668104968965054" lon="13.713145963847637">
        <ele>44.7</ele>
        <time>2025-02-12T03:03:22.484Z</time>
      </trkpt>
      <trkpt lat="58.66809499450028" lon="13.713202960789204">
        <ele>44.73</ele>
        <time>2025-02-12T03:04:06.563Z</time>
      </trkpt>
      <trkpt lat="58.668085942044854" lon="13.71325995773077">
        <ele>44.76</ele>
        <time>2025-02-12T03:04:50.642Z</time>
      </trkpt>
      <trkpt lat="58.66807596758008" lon="13.713318966329098">
        <ele>44.79</ele>
        <time>2025-02-12T03:05:34.722Z</time>
      </trkpt>
      <trkpt lat="58.668064987286925" lon="13.713375963270664">
        <ele>44.83</ele>
        <time>2025-02-12T03:06:18.802Z</time>
      </trkpt>
      <trkpt lat="58.66805492900312" lon="13.713433966040611">
        <ele>44.86</ele>
        <time>2025-02-12T03:07:02.883Z</time>
      </trkpt>
      <trkpt lat="58.668045960366726" lon="13.713490962982178">
        <ele>44.9</ele>
        <time>2025-02-12T03:07:46.964Z</time>
      </trkpt>
      <trkpt lat="58.66803598590195" lon="13.713546954095364">
        <ele>44.93</ele>
        <time>2025-02-12T03:08:31.046Z</time>
      </trkpt>
      <trkpt lat="58.668025927618146" lon="13.713601939380169">
        <ele>44.97</ele>
        <time>2025-02-12T03:09:15.128Z</time>
      </trkpt>
      <trkpt lat="58.66801796481013" lon="13.713655918836594">
        <ele>45.0</ele>
        <time>2025-02-12T03:09:59.211Z</time>
      </trkpt>
      <trkpt lat="58.66801092401147" lon="13.71370897628367">
        <ele>45.04</ele>
        <time>2025-02-12T03:10:43.294Z</time>
      </trkpt>
      <trkpt lat="58.668001955375075" lon="13.713758932426572">
        <ele>45.08</ele>
        <time>2025-02-12T03:11:27.378Z</time>
      </trkpt>
      <trkpt lat="58.66799399256706" lon="13.713807966560125">
        <ele>45.12</ele>
        <time>2025-02-12T03:12:11.462Z</time>
      </trkpt>
      <trkpt lat="58.6679869517684" lon="13.713854989036918">
        <ele>45.16</ele>
        <time>2025-02-12T03:12:55.546Z</time>
      </trkpt>
      <trkpt lat="58.667976977303624" lon="13.713902933523059">
        <ele>45.2</ele>
        <time>2025-02-12T03:13:39.631Z</time>
      </trkpt>
      <trkpt lat="58.66796599701047" lon="13.713955990970135">
        <ele>45.24</ele>
        <time>2025-02-12T03:14:23.716Z</time>
      </trkpt>
      <trkpt lat="58.667955938726664" lon="13.714016927406192">
        <ele>45.28</ele>
        <time>2025-02-12T03:15:07.802Z</time>
      </trkpt>
      <trkpt lat="58.66794395260513" lon="13.714080965146422">
        <ele>45.33</ele>
        <time>2025-02-12T03:15:51.888Z</time>
      </trkpt>
      <trkpt lat="58.66792995482683" lon="13.714146930724382">
        <ele>45.37</ele>
        <time>2025-02-12T03:16:35.975Z</time>
      </trkpt>
      <trkpt lat="58.667916962876916" lon="13.714216919615865">
        <ele>45.41</ele>
        <time>2025-02-12T03:17:20.063Z</time>
      </trkpt>
      <trkpt lat="58.66790598258376" lon="13.71429093182087">
        <ele>45.45</ele>
        <time>2025-02-12T03:18:04.151Z</time>
      </trkpt>
      <trkpt lat="58.667893996462226" lon="13.714367961511016">
        <ele>45.5</ele>
        <time>2025-02-12T03:18:48.240Z</time>
      </trkpt>
      <trkpt lat="58.66788092069328" lon="13.714444991201162">
        <ele>45.54</ele>
        <time>2025-02-12T03:19:32.330Z</time>
      </trkpt>
      <trkpt lat="58.66786499507725" lon="13.714522942900658">
        <ele>45.58</ele>
        <time>2025-02-12T03:20:16.420Z</time>
      </trkpt>
      <trkpt lat="58.667850997298956" lon="13.714601984247565">
        <ele>45.63</ele>
        <time>2025-02-12T03:21:00.511Z</time>
      </trkpt>
      <trkpt lat="58.66783792153001" lon="13.714681947603822">
        <ele>45.67</ele>
        <time>2025-02-12T03:21:44.603Z</time>
      </trkpt>
      <trkpt lat="58.66782593540847" lon="13.714759983122349">
        <ele>45.71</ele>
        <time>2025-02-12T03:22:28.695Z</time>
      </trkpt>
      <trkpt lat="58.66781294345856" lon="13.714835923165083">
        <ele>45.76</ele>
        <time>2025-02-12T03:23:12.788Z</time>
      </trkpt>
      <trkpt lat="58.66779995150864" lon="13.714907923713326">
        <ele>45.81</ele>
        <time>2025-02-12T03:23:56.882Z</time>
      </trkpt>
      <trkpt lat="58.667786959558725" lon="13.714981935918331">
        <ele>45.86</ele>
        <time>2025-02-12T03:24:40.976Z</time>
      </trkpt>
      <trkpt lat="58.66777296178043" lon="13.715059971436858">
        <ele>45.91</ele>
        <time>2025-02-12T03:25:25.071Z</time>
      </trkpt>
      <trkpt lat="58.66775594651699" lon="13.715140940621495">
        <ele>45.96</ele>
        <time>2025-02-12T03:26:09.167Z</time>
      </trkpt>
      <trkpt lat="58.66773792542517" lon="13.715225933119655">
        <ele>46.0</ele>
        <time>2025-02-12T03:26:53.264Z</time>
      </trkpt>
      <trkpt lat="58.667720993980765" lon="13.715316960588098">
        <ele>46.05</ele>
        <time>2025-02-12T03:27:37.361Z</time>
      </trkpt>
      <trkpt lat="58.66770297288895" lon="13.715409999713302">
        <ele>46.09</ele>
        <time>2025-02-12T03:28:21.459Z</time>
      </trkpt>
      <trkpt lat="58.66768696345389" lon="13.715501949191093">
        <ele>46.14</ele>
        <time>2025-02-12T03:29:05.558Z</time>
      </trkpt>
      <trkpt lat="58.66767296567559" lon="13.715594988316298">
        <ele>46.19</ele>
        <time>2025-02-12T03:29:49.658Z</time>
      </trkpt>
      <trkpt lat="58.66766299121082" lon="13.715689955279231">
        <ele>46.24</ele>
        <time>2025-02-12T03:30:33.759Z</time>
      </trkpt>
      <trkpt lat="58.667657962068915" lon="13.715783916413784">
        <ele>46.29</ele>
        <time>2025-02-12T03:31:17.860Z</time>
      </trkpt>
      <trkpt lat="58.66766097955406" lon="13.71587896719575">
        <ele>46.34</ele>
        <time>2025-02-12T03:32:01.962Z</time>
      </trkpt>
      <trkpt lat="58.667675983160734" lon="13.715968988835812">
        <ele>46.39</ele>
        <time>2025-02-12T03:32:46.065Z</time>
      </trkpt>
      <trkpt lat="58.66770297288895" lon="13.716047946363688">
        <ele>46.43</ele>
        <time>2025-02-12T03:33:30.169Z</time>
      </trkpt>
      <trkpt lat="58.667743960395455" lon="13.716107960790396">
        <ele>46.48</ele>
        <time>2025-02-12T03:34:14.274Z</time>
      </trkpt>
      <trkpt lat="58.66779492236674" lon="13.716146936640143">
        <ele>46.52</ele>
        <time>2025-02-12T03:34:58.379Z</time>
      </trkpt>
      <trkpt lat="58.667849991470575" lon="13.716167975217104">
        <ele>46.57</ele>
        <time>2025-02-12T03:35:42.485Z</time>
      </trkpt>
      <trkpt lat="58.66790497675538" lon="13.71618096716702">
        <ele>46.62</ele>
        <time>2025-02-12T03:36:26.592Z</time>
      </trkpt>
      <trkpt lat="58.66796197369695" lon="13.716184990480542">
        <ele>46.67</ele>
        <time>2025-02-12T03:37:10.700Z</time>
      </trkpt>
      <trkpt lat="58.668019976466894" lon="13.716183984652162">
        <ele>46.71</ele>
        <time>2025-02-12T03:37:54.809Z</time>
      </trkpt>
      <trkpt lat="58.6680799908936" lon="13.71617996133864">
        <ele>46.76</ele>
        <time>2025-02-12T03:38:38.919Z</time>
      </trkpt>
      <trkpt lat="58.66813799366355" lon="13.716170992702246">
        <ele>46.81</ele>
        <time>2025-02-12T03:39:23.030Z</time>
      </trkpt>
      <trkpt lat="58.6681959964335" lon="13.71616093441844">
        <ele>46.85</ele>
        <time>2025-02-12T03:40:07.142Z</time>
      </trkpt>
      <trkpt lat="58.66825198754668" lon="13.716151965782046">
        <ele>46.89</ele>
        <time>2025-02-12T03:40:51.255Z</time>
      </trkpt>
      <trkpt lat="58.66830697283149" lon="13.716143919155002">
        <ele>46.94</ele>
        <time>2025-02-12T03:41:35.369Z</time>
      </trkpt>
      <trkpt lat="58.66836296394467" lon="13.716135956346989">
        <ele>46.98</ele>
        <time>2025-02-12T03:42:19.484Z</time>
      </trkpt>
      <trkpt lat="58.66842096671462" lon="13.716127993538976">
        <ele>47.02</ele>
        <time>2025-02-12T03:43:03.600Z</time>
      </trkpt>
      <trkpt lat="58.66847896948457" lon="13.716114917770028">
        <ele>47.07</ele>
        <time>2025-02-12T03:43:47.717Z</time>
      </trkpt>
      <trkpt lat="58.668536972254515" lon="13.716099997982383">
        <ele>47.11</ele>
        <time>2025-02-12T03:44:31.834Z</time>
      </trkpt>
      <trkpt lat="58.66859497502446" lon="13.716084994375706">
        <ele>47.15</ele>
        <time>2025-02-12T03:45:15.952Z</time>
      </trkpt>
      <trkpt lat="58.66865297779441" lon="13.7160749360919">
        <ele>47.19</ele>
        <time>2025-02-12T03:46:00.071Z</time>
      </trkpt>
      <trkpt lat="58.668711986392736" lon="13.716068984940648">
        <ele>47.22</ele>
        <time>2025-02-12T03:46:44.191Z</time>
      </trkpt>
      <trkpt lat="58.66877191700041" lon="13.716061944141984">
        <ele>47.26</ele>
        <time>2025-02-12T03:47:28.312Z</time>
      </trkpt>
      <trkpt lat="58.66883394308388" lon="13.716058926656842">
        <ele>47.3</ele>
        <time>2025-02-12T03:48:12.434Z</time>
      </trkpt>
      <trkpt lat="58.66889596916735" lon="13.716056998819113">
        <ele>47.34</ele>
        <time>2025-02-12T03:48:56.557Z</time>
      </trkpt>
      <trkpt lat="58.66895992308855" lon="13.71605096384883">
        <ele>47.37</ele>
        <time>2025-02-12T03:49:40.681Z</time>
      </trkpt>
      <trkpt lat="58.66902396082878" lon="13.716046940535307">
        <ele>47.41</ele>
        <time>2025-02-12T03:50:24.806Z</time>
      </trkpt>
      <trkpt lat="58.66908699274063" lon="13.716040989384055">
        <ele>47.45</ele>
        <time>2025-02-12T03:51:08.932Z</time>
      </trkpt>
      <trkpt lat="58.66914893500507" lon="13.716033948585391">
        <ele>47.48</ele>
        <time>2025-02-12T03:51:53.059Z</time>
      </trkpt>
      <trkpt lat="58.66921096108854" lon="13.71602799743414">
        <ele>47.52</ele>
        <time>2025-02-12T03:52:37.187Z</time>
      </trkpt>
      <trkpt lat="58.66927298717201" lon="13.716022968292236">
        <ele>47.56</ele>
        <time>2025-02-12T03:53:21.316Z</time>
      </trkpt>
      <trkpt lat="58.669334929436445" lon="13.716017939150333">
        <ele>47.59</ele>
        <time>2025-02-12T03:54:05.446Z</time>
      </trkpt>
      <trkpt lat="58.669395949691534" lon="13.716011987999082">
        <ele>47.62</ele>
        <time>2025-02-12T03:54:49.577Z</time>
      </trkpt>
      <trkpt lat="58.66945596411824" lon="13.716006958857179">
        <ele>47.66</ele>
        <time>2025-02-12T03:55:33.709Z</time>
      </trkpt>
      <trkpt lat="58.66951396688819" lon="13.715998996049166">
        <ele>47.69</ele>
        <time>2025-02-12T03:56:17.842Z</time>
      </trkpt>
      <trkpt lat="58.669570963829756" lon="13.715990949422121">
        <ele>47.73</ele>
        <time>2025-02-12T03:57:01.976Z</time>
      </trkpt>
      <trkpt lat="58.6696289665997" lon="13.715985920280218">
        <ele>47.76</ele>
        <time>2025-02-12T03:57:46.111Z</time>
      </trkpt>
      <trkpt lat="58.66968696936965" lon="13.715981980785728">
        <ele>47.79</ele>
        <time>2025-02-12T03:58:30.247Z</time>
      </trkpt>
      <trkpt lat="58.66974597796798" lon="13.715975945815444">
        <ele>47.83</ele>
        <time>2025-02-12T03:59:14.384Z</time>
      </trkpt>
      <trkpt lat="58.669804986566305" lon="13.715967983007431">
        <ele>47.86</ele>
        <time>2025-02-12T03:59:58.522Z</time>
      </trkpt>
      <trkpt lat="58.66986592300236" lon="13.715958930552006">
        <ele>47.89</ele>
        <time>2025-02-12T04:00:42.661Z</time>
      </trkpt>
      <trkpt lat="58.66992794908583" lon="13.715951973572373">
        <ele>47.92</ele>
        <time>2025-02-12T04:01:26.801Z</time>
      </trkpt>
      <trkpt lat="58.66999198682606" lon="13.715948956087232">
        <ele>47.95</ele>
        <time>2025-02-12T04:02:10.942Z</time>
      </trkpt>
      <trkpt lat="58.67005694657564" lon="13.71594493277371">
        <ele>47.98</ele>
        <time>2025-02-12T04:02:55.084Z</time>
      </trkpt>
      <trkpt lat="58.67012299597263" lon="13.715934958308935">
        <ele>48.0</ele>
        <time>2025-02-12T04:03:39.227Z</time>
      </trkpt>
      <trkpt lat="58.670190973207355" lon="13.71592397801578">
        <ele>48.03</ele>
        <time>2025-02-12T04:04:23.371Z</time>
      </trkpt>
      <trkpt lat="58.670257944613695" lon="13.715909980237484">
        <ele>48.05</ele>
        <time>2025-02-12T04:05:07.516Z</time>
      </trkpt>
      <trkpt lat="58.67032499983907" lon="13.715895982459188">
        <ele>48.08</ele>
        <time>2025-02-12T04:05:51.662Z</time>
      </trkpt>
      <trkpt lat="58.67039197124541" lon="13.71587896719575">
        <ele>48.1</ele>
        <time>2025-02-12T04:06:35.809Z</time>
      </trkpt>
      <trkpt lat="58.67045894265175" lon="13.715863963589072">
        <ele>48.12</ele>
        <time>2025-02-12T04:07:19.957Z</time>
      </trkpt>
      <trkpt lat="58.67052398622036" lon="13.715849965810776">
        <ele>48.14</ele>
        <time>2025-02-12T04:08:04.106Z</time>
      </trkpt>
      <trkpt lat="58.67059196345508" lon="13.71583697386086">
        <ele>48.16</ele>
        <time>2025-02-12T04:08:48.256Z</time>
      </trkpt>
      <trkpt lat="58.6706599406898" lon="13.715826999396086">
        <ele>48.18</ele>
        <time>2025-02-12T04:09:32.408Z</time>
      </trkpt>
      <trkpt lat="58.670728923752904" lon="13.71581694111228">
        <ele>48.2</ele>
        <time>2025-02-12T04:10:16.561Z</time>
      </trkpt>
      <trkpt lat="58.67080092430115" lon="13.715804954990745">
        <ele>48.21</ele>
        <time>2025-02-12T04:11:00.715Z</time>
      </trkpt>
      <trkpt lat="58.67087292484939" lon="13.71579397469759">
        <ele>48.23</ele>
        <time>2025-02-12T04:11:44.870Z</time>
      </trkpt>
      <trkpt lat="58.670943919569254" lon="13.715777965262532">
        <ele>48.25</ele>
        <time>2025-02-12T04:12:29.026Z</time>
      </trkpt>
      <trkpt lat="58.67101399227977" lon="13.715758938342333">
        <ele>48.26</ele>
        <time>2025-02-12T04:13:13.183Z</time>
      </trkpt>
      <trkpt lat="58.67108196951449" lon="13.715741923078895">
        <ele>48.28</ele>
        <time>2025-02-12T04:13:57.341Z</time>
      </trkpt>
      <trkpt lat="58.67114692926407" lon="13.715732954442501">
        <ele>48.3</ele>
        <time>2025-02-12T04:14:41.500Z</time>
      </trkpt>
      <trkpt lat="58.67121197283268" lon="13.715726919472218">
        <ele>48.31</ele>
        <time>2025-02-12T04:15:25.660Z</time>
      </trkpt>
      <trkpt lat="58.67127793841064" lon="13.715720968320966">
        <ele>48.33</ele>
        <time>2025-02-12T04:16:09.822Z</time>
      </trkpt>
      <trkpt lat="58.67134398780763" lon="13.715718956664205">
        <ele>48.34</ele>
        <time>2025-02-12T04:16:53.985Z</time>
      </trkpt>
      <trkpt lat="58.67140995338559" lon="13.715726919472218">
        <ele>48.35</ele>
        <time>2025-02-12T04:17:38.149Z</time>
      </trkpt>
      <trkpt lat="58.67147591896355" lon="13.71575097553432">
        <ele>48.36</ele>
        <time>2025-02-12T04:18:22.314Z</time>
      </trkpt>
      <trkpt lat="58.671542974188924" lon="13.715786933898926">
        <ele>48.37</ele>
        <time>2025-02-12T04:19:06.480Z</time>
      </trkpt>
      <trkpt lat="58.671610951423645" lon="13.71583596803248">
        <ele>48.38</ele>
        <time>2025-02-12T04:19:50.647Z</time>
      </trkpt>
      <trkpt lat="58.671676917001605" lon="13.715905956923962">
        <ele>48.39</ele>
        <time>2025-02-12T04:20:34.815Z</time>
      </trkpt>
      <trkpt lat="58.67174397222698" lon="13.715997990220785">
        <ele>48.39</ele>
        <time>2025-02-12T04:21:18.985Z</time>
      </trkpt>
      <trkpt lat="58.671806920319796" lon="13.716111984103918">
        <ele>48.39</ele>
        <time>2025-02-12T04:22:03.156Z</time>
      </trkpt>
      <trkpt lat="58.67186492308974" lon="13.71624793857336">
        <ele>48.39</ele>
        <time>2025-02-12T04:22:47.328Z</time>
      </trkpt>
      <trkpt lat="58.67191697470844" lon="13.716399986296892">
        <ele>48.39</ele>
        <time>2025-02-12T04:23:31.502Z</time>
      </trkpt>
      <trkpt lat="58.67196097970009" lon="13.71656795963645">
        <ele>48.38</ele>
        <time>2025-02-12T04:24:15.678Z</time>
      </trkpt>
      <trkpt lat="58.671995932236314" lon="13.716748924925923">
        <ele>48.37</ele>
        <time>2025-02-12T04:24:59.855Z</time>
      </trkpt>
      <trkpt lat="58.672019988298416" lon="13.716936931014061">
        <ele>48.36</ele>
        <time>2025-02-12T04:25:44.034Z</time>
      </trkpt>
      <trkpt lat="58.67203298024833" lon="13.717124937102199">
        <ele>48.36</ele>
        <time>2025-02-12T04:26:28.214Z</time>
      </trkpt>
      <trkpt lat="58.672038931399584" lon="13.717312943190336">
        <ele>48.36</ele>
        <time>2025-02-12T04:27:12.396Z</time>
      </trkpt>
      <trkpt lat="58.67204396054149" lon="13.717497931793332">
        <ele>48.36</ele>
        <time>2025-02-12T04:27:56.579Z</time>
      </trkpt>
      <trkpt lat="58.67204798385501" lon="13.717677975073457">
        <ele>48.36</ele>
        <time>2025-02-12T04:28:40.764Z</time>
      </trkpt>
      <trkpt lat="58.67205091752112" lon="13.717853995040059">
        <ele>48.35</ele>
        <time>2025-02-12T04:29:24.950Z</time>
      </trkpt>
      <trkpt lat="58.6720519233495" lon="13.718024985864758">
        <ele>48.35</ele>
        <time>2025-02-12T04:30:09.138Z</time>
      </trkpt>
      <trkpt lat="58.6720519233495" lon="13.718192959204316">
        <ele>48.35</ele>
        <time>2025-02-12T04:30:53.327Z</time>
      </trkpt>
      <trkpt lat="58.67205292917788" lon="13.718356993049383">
        <ele>48.35</ele>
        <time>2025-02-12T04:31:37.518Z</time>
      </trkpt>
      <trkpt lat="58.67205393500626" lon="13.718517925590277">
        <ele>48.35</ele>
        <time>2025-02-12T04:32:21.710Z</time>
      </trkpt>
      <trkpt lat="58.67205393500626" lon="13.718679947778583">
        <ele>48.35</ele>
        <time>2025-02-12T04:33:05.903Z</time>
      </trkpt>
      <trkpt lat="58.67205393500626" lon="13.718842975795269">
        <ele>48.34</ele>
        <time>2025-02-12T04:33:50.098Z</time>
      </trkpt>
      <trkpt lat="58.67205292917788" lon="13.719006925821304">
        <ele>48.34</ele>
        <time>2025-02-12T04:34:34.294Z</time>
      </trkpt>
      <trkpt lat="58.67205393500626" lon="13.71916794218123">
        <ele>48.33</ele>
        <time>2025-02-12T04:35:18.491Z</time>
      </trkpt>
      <trkpt lat="58.67205494083464" lon="13.719327952712774">
        <ele>48.32</ele>
        <time>2025-02-12T04:36:02.690Z</time>
      </trkpt>
      <trkpt lat="58.67205594666302" lon="13.71948997490108">
        <ele>48.32</ele>
        <time>2025-02-12T04:36:46.890Z</time>
      </trkpt>
      <trkpt lat="58.67205795831978" lon="13.719650991261005">
        <ele>48.32</ele>
        <time>2025-02-12T04:37:31.091Z</time>
      </trkpt>
      <trkpt lat="58.672060975804925" lon="13.719810917973518">
        <ele>48.31</ele>
        <time>2025-02-12T04:38:15.294Z</time>
      </trkpt>
      <trkpt lat="58.672062987461686" lon="13.719971934333444">
        <ele>48.31</ele>
        <time>2025-02-12T04:38:59.498Z</time>
      </trkpt>
      <trkpt lat="58.67206499911845" lon="13.720132950693369">
        <ele>48.31</ele>
        <time>2025-02-12T04:39:43.703Z</time>
      </trkpt>
      <trkpt lat="58.67206793278456" lon="13.720295978710055">
        <ele>48.3</ele>
        <time>2025-02-12T04:40:27.910Z</time>
      </trkpt>
      <trkpt lat="58.67207195609808" lon="13.72045699506998">
        <ele>48.3</ele>
        <time>2025-02-12T04:41:12.118Z</time>
      </trkpt>
      <trkpt lat="58.67207396775484" lon="13.720615999773145">
        <ele>48.29</ele>
        <time>2025-02-12T04:41:56.328Z</time>
      </trkpt>
      <trkpt lat="58.67207497358322" lon="13.720772992819548">
        <ele>48.28</ele>
        <time>2025-02-12T04:42:40.539Z</time>
      </trkpt>
      <trkpt lat="58.67207698523998" lon="13.720926968380809">
        <ele>48.28</ele>
        <time>2025-02-12T04:43:24.751Z</time>
      </trkpt>
      <trkpt lat="58.672078996896744" lon="13.721078932285309">
        <ele>48.27</ele>
        <time>2025-02-12T04:44:08.964Z</time>
      </trkpt>
      <trkpt lat="58.67207991890609" lon="13.721226956695318">
        <ele>48.27</ele>
        <time>2025-02-12T04:44:53.179Z</time>
      </trkpt>
      <trkpt lat="58.67208092473447" lon="13.721372969448566">
        <ele>48.27</ele>
        <time>2025-02-12T04:45:37.395Z</time>
      </trkpt>
      <trkpt lat="58.672082936391234" lon="13.721518982201815">
        <ele>48.26</ele>
        <time>2025-02-12T04:46:21.612Z</time>
      </trkpt>
      <trkpt lat="58.672085953876376" lon="13.721664994955063">
        <ele>48.26</ele>
        <time>2025-02-12T04:47:05.830Z</time>
      </trkpt>
      <trkpt lat="58.67209098301828" lon="13.72181192971766">
        <ele>48.25</ele>
        <time>2025-02-12T04:47:50.049Z</time>
      </trkpt>
      <trkpt lat="58.67209391668439" lon="13.72195995412767">
        <ele>48.24</ele>
        <time>2025-02-12T04:48:34.270Z</time>
      </trkpt>
      <trkpt lat="58.67209793999791" lon="13.72210999019444">
        <ele>48.24</ele>
        <time>2025-02-12T04:49:18.492Z</time>
      </trkpt>
      <trkpt lat="58.67210095748305" lon="13.722258936613798">
        <ele>48.24</ele>
        <time>2025-02-12T04:50:02.715Z</time>
      </trkpt>
      <trkpt lat="58.672105986624956" lon="13.722405955195427">
        <ele>48.24</ele>
        <time>2025-02-12T04:50:46.939Z</time>
      </trkpt>
      <trkpt lat="58.67210992611945" lon="13.722549956291914">
        <ele>48.24</ele>
        <time>2025-02-12T04:51:31.165Z</time>
      </trkpt>
      <trkpt lat="58.67211294360459" lon="13.722693957388401">
        <ele>48.25</ele>
        <time>2025-02-12T04:52:15.392Z</time>
      </trkpt>
      <trkpt lat="58.67211696691811" lon="13.722834940999746">
        <ele>48.25</ele>
        <time>2025-02-12T04:52:59.620Z</time>
      </trkpt>
      <trkpt lat="58.67212392389774" lon="13.722977936267853">
        <ele>48.24</ele>
        <time>2025-02-12T04:53:43.849Z</time>
      </trkpt>
      <trkpt lat="58.67213398218155" lon="13.72311799786985">
        <ele>48.24</ele>
        <time>2025-02-12T04:54:28.079Z</time>
      </trkpt>
      <trkpt lat="58.67214295081794" lon="13.723256969824433">
        <ele>48.24</ele>
        <time>2025-02-12T04:55:12.311Z</time>
      </trkpt>
      <trkpt lat="58.67215099744499" lon="13.723392924293876">
        <ele>48.23</ele>
        <time>2025-02-12T04:55:56.544Z</time>
      </trkpt>
      <trkpt lat="58.67216097190976" lon="13.723524939268827">
        <ele>48.22</ele>
        <time>2025-02-12T04:56:40.778Z</time>
      </trkpt>
      <trkpt lat="58.672171952202916" lon="13.723655948415399">
        <ele>48.2</ele>
        <time>2025-02-12T04:57:25.013Z</time>
      </trkpt>
      <trkpt lat="58.67218293249607" lon="13.72378796339035">
        <ele>48.19</ele>
        <time>2025-02-12T04:58:09.249Z</time>
      </trkpt>
      <trkpt lat="58.67219592444599" lon="13.723921990022063">
        <ele>48.17</ele>
        <time>2025-02-12T04:58:53.486Z</time>
      </trkpt>
      <trkpt lat="58.67220992222428" lon="13.724057944491506">
        <ele>48.15</ele>
        <time>2025-02-12T04:59:37.724Z</time>
      </trkpt>
      <trkpt lat="58.67222392000258" lon="13.7241929769516">
        <ele>48.12</ele>
        <time>2025-02-12T05:00:21.964Z</time>
      </trkpt>
      <trkpt lat="58.672237917780876" lon="13.724327925592661">
        <ele>48.1</ele>
        <time>2025-02-12T05:01:06.205Z</time>
      </trkpt>
      <trkpt lat="58.672254933044314" lon="13.724462958052754">
        <ele>48.08</ele>
        <time>2025-02-12T05:01:50.447Z</time>
      </trkpt>
      <trkpt lat="58.6722799949348" lon="13.724601930007339">
        <ele>48.06</ele>
        <time>2025-02-12T05:02:34.690Z</time>
      </trkpt>
      <trkpt lat="58.67230991832912" lon="13.724740985780954">
        <ele>48.03</ele>
        <time>2025-02-12T05:03:18.934Z</time>
      </trkpt>
      <trkpt lat="58.672342943027616" lon="13.724877946078777">
        <ele>48.01</ele>
        <time>2025-02-12T05:04:03.180Z</time>
      </trkpt>
      <trkpt lat="58.672380996868014" lon="13.725014990195632">
        <ele>47.98</ele>
        <time>2025-02-12T05:04:47.427Z</time>
      </trkpt>
      <trkpt lat="58.67241997271776" lon="13.725149938836694">
        <ele>47.95</ele>
        <time>2025-02-12T05:05:31.675Z</time>
      </trkpt>
      <trkpt lat="58.67246096022427" lon="13.725284971296787">
        <ele>47.93</ele>
        <time>2025-02-12T05:06:15.924Z</time>
      </trkpt>
      <trkpt lat="58.67250395938754" lon="13.72542293742299">
        <ele>47.91</ele>
        <time>2025-02-12T05:07:00.175Z</time>
      </trkpt>
      <trkpt lat="58.67254796437919" lon="13.725561993196607">
        <ele>47.89</ele>
        <time>2025-02-12T05:07:44.427Z</time>
      </trkpt>
      <trkpt lat="58.67258995771408" lon="13.72570096515119">
        <ele>47.87</ele>
        <time>2025-02-12T05:08:28.681Z</time>
      </trkpt>
      <trkpt lat="58.67263295687735" lon="13.725840942934155">
        <ele>47.84</ele>
        <time>2025-02-12T05:09:12.936Z</time>
      </trkpt>
      <trkpt lat="58.67267495021224" lon="13.725979998707771">
        <ele>47.82</ele>
        <time>2025-02-12T05:09:57.192Z</time>
      </trkpt>
      <trkpt lat="58.67271794937551" lon="13.726119976490736">
        <ele>47.79</ele>
        <time>2025-02-12T05:10:41.450Z</time>
      </trkpt>
      <trkpt lat="58.67276094853878" lon="13.726260960102081">
        <ele>47.76</ele>
        <time>2025-02-12T05:11:25.709Z</time>
      </trkpt>
      <trkpt lat="58.67280495353043" lon="13.726404961198568">
        <ele>47.74</ele>
        <time>2025-02-12T05:12:09.969Z</time>
      </trkpt>
      <trkpt lat="58.67284895852208" lon="13.726546950638294">
        <ele>47.71</ele>
        <time>2025-02-12T05:12:54.231Z</time>
      </trkpt>
      <trkpt lat="58.67289296351373" lon="13.72668793424964">
        <ele>47.68</ele>
        <time>2025-02-12T05:13:38.494Z</time>
      </trkpt>
      <trkpt lat="58.672941997647285" lon="13.726830929517746">
        <ele>47.65</ele>
        <time>2025-02-12T05:14:22.759Z</time>
      </trkpt>
      <trkpt lat="58.672987930476665" lon="13.726972918957472">
        <ele>47.62</ele>
        <time>2025-02-12T05:15:07.025Z</time>
      </trkpt>
      <trkpt lat="58.6730329412967" lon="13.72711499221623">
        <ele>47.59</ele>
        <time>2025-02-12T05:15:51.292Z</time>
      </trkpt>
      <trkpt lat="58.67307594045997" lon="13.727255975827575">
        <ele>47.56</ele>
        <time>2025-02-12T05:16:35.561Z</time>
      </trkpt>
      <trkpt lat="58.67312095128" lon="13.727394947782159">
        <ele>47.53</ele>
        <time>2025-02-12T05:17:19.831Z</time>
      </trkpt>
      <trkpt lat="58.67316696792841" lon="13.72752595692873">
        <ele>47.5</ele>
        <time>2025-02-12T05:18:04.102Z</time>
      </trkpt>
      <trkpt lat="58.67320996709168" lon="13.72765596024692">
        <ele>47.47</ele>
        <time>2025-02-12T05:18:48.375Z</time>
      </trkpt>
      <trkpt lat="58.67325296625495" lon="13.727785963565111">
        <ele>47.44</ele>
        <time>2025-02-12T05:19:32.649Z</time>
      </trkpt>
      <trkpt lat="58.67329294793308" lon="13.72791395522654">
        <ele>47.4</ele>
        <time>2025-02-12T05:20:16.924Z</time>
      </trkpt>
      <trkpt lat="58.673328990116715" lon="13.728039935231209">
        <ele>47.36</ele>
        <time>2025-02-12T05:21:01.200Z</time>
      </trkpt>
      <trkpt lat="58.67336796596646" lon="13.728165999054909">
        <ele>47.33</ele>
        <time>2025-02-12T05:21:45.478Z</time>
      </trkpt>
      <trkpt lat="58.67340895347297" lon="13.728295918554068">
        <ele>47.29</ele>
        <time>2025-02-12T05:22:29.757Z</time>
      </trkpt>
      <trkpt lat="58.67345295846462" lon="13.7284289393574">
        <ele>47.25</ele>
        <time>2025-02-12T05:23:14.037Z</time>
      </trkpt>
      <trkpt lat="58.673498975113034" lon="13.728562965989113">
        <ele>47.21</ele>
        <time>2025-02-12T05:23:58.319Z</time>
      </trkpt>
      <trkpt lat="58.673544991761446" lon="13.728695986792445">
        <ele>47.17</ele>
        <time>2025-02-12T05:24:42.602Z</time>
      </trkpt>
      <trkpt lat="58.673589918762445" lon="13.728828923776746">
        <ele>47.13</ele>
        <time>2025-02-12T05:25:26.886Z</time>
      </trkpt>
      <trkpt lat="58.67363593541086" lon="13.728962950408459">
        <ele>47.09</ele>
        <time>2025-02-12T05:26:11.172Z</time>
      </trkpt>
      <trkpt lat="58.67368195205927" lon="13.729098988696933">
        <ele>47.06</ele>
        <time>2025-02-12T05:26:55.459Z</time>
      </trkpt>
      <trkpt lat="58.67372595705092" lon="13.729235948994756">
        <ele>47.03</ele>
        <time>2025-02-12T05:27:39.747Z</time>
      </trkpt>
      <trkpt lat="58.67376996204257" lon="13.72937299311161">
        <ele>47.0</ele>
        <time>2025-02-12T05:28:24.037Z</time>
      </trkpt>
      <trkpt lat="58.67381195537746" lon="13.729508947581053">
        <ele>46.98</ele>
        <time>2025-02-12T05:29:08.328Z</time>
      </trkpt>
      <trkpt lat="58.67385394871235" lon="13.729642974212766">
        <ele>46.96</ele>
        <time>2025-02-12T05:29:52.620Z</time>
      </trkpt>
      <trkpt lat="58.67389493621886" lon="13.729774989187717">
        <ele>46.94</ele>
        <time>2025-02-12T05:30:36.913Z</time>
      </trkpt>
      <trkpt lat="58.673934917896986" lon="13.729903986677527">
        <ele>46.92</ele>
        <time>2025-02-12T05:31:21.208Z</time>
      </trkpt>
      <trkpt lat="58.67397598922253" lon="13.730030972510576">
        <ele>46.89</ele>
        <time>2025-02-12T05:32:05.504Z</time>
      </trkpt>
      <trkpt lat="58.6740189883858" lon="13.730153935030103">
        <ele>46.87</ele>
        <time>2025-02-12T05:32:49.801Z</time>
      </trkpt>
      <trkpt lat="58.67406198754907" lon="13.730278993025422">
        <ele>46.85</ele>
        <time>2025-02-12T05:33:34.099Z</time>
      </trkpt>
      <trkpt lat="58.674102975055575" lon="13.730405978858471">
        <ele>46.84</ele>
        <time>2025-02-12T05:34:18.399Z</time>
      </trkpt>
      <trkpt lat="58.674142956733704" lon="13.7305339705199">
        <ele>46.82</ele>
        <time>2025-02-12T05:35:02.700Z</time>
      </trkpt>
      <trkpt lat="58.67418394424021" lon="13.73066095635295">
        <ele>46.8</ele>
        <time>2025-02-12T05:35:47.002Z</time>
      </trkpt>
      <trkpt lat="58.6742259375751" lon="13.730788948014379">
        <ele>46.8</ele>
        <time>2025-02-12T05:36:31.305Z</time>
      </trkpt>
      <trkpt lat="58.67426893673837" lon="13.730910988524556">
        <ele>46.79</ele>
        <time>2025-02-12T05:37:15.610Z</time>
      </trkpt>
      <trkpt lat="58.6743139475584" lon="13.73102598823607">
        <ele>46.78</ele>
        <time>2025-02-12T05:37:59.916Z</time>
      </trkpt>
      <trkpt lat="58.674361975863576" lon="13.73113696463406">
        <ele>46.78</ele>
        <time>2025-02-12T05:38:44.223Z</time>
      </trkpt>
      <trkpt lat="58.67441193200648" lon="13.73124592937529">
        <ele>46.78</ele>
        <time>2025-02-12T05:39:28.531Z</time>
      </trkpt>
      <trkpt lat="58.67446096614003" lon="13.731348942965269">
        <ele>46.78</ele>
        <time>2025-02-12T05:40:12.841Z</time>
      </trkpt>
      <trkpt lat="58.674510922282934" lon="13.731446927413344">
        <ele>46.78</ele>
        <time>2025-02-12T05:40:57.152Z</time>
      </trkpt>
      <trkpt lat="58.67456096224487" lon="13.73154298402369">
        <ele>46.78</ele>
        <time>2025-02-12T05:41:41.464Z</time>
      </trkpt>
      <trkpt lat="58.67460899055004" lon="13.731638956815004">
        <ele>46.78</ele>
        <time>2025-02-12T05:42:25.777Z</time>
      </trkpt>
      <trkpt lat="58.674658946692944" lon="13.731739958748221">
        <ele>46.78</ele>
        <time>2025-02-12T05:43:10.091Z</time>
      </trkpt>
      <trkpt lat="58.67471192032099" lon="13.7318429723382">
        <ele>46.78</ele>
        <time>2025-02-12T05:43:54.406Z</time>
      </trkpt>
      <trkpt lat="58.67476497776806" lon="13.73195193707943">
        <ele>46.78</ele>
        <time>2025-02-12T05:44:38.723Z</time>
      </trkpt>
      <trkpt lat="58.674811916425824" lon="13.732068948447704">
        <ele>46.79</ele>
        <time>2025-02-12T05:45:23.041Z</time>
      </trkpt>
      <trkpt lat="58.674855921417475" lon="13.732192916795611">
        <ele>46.79</ele>
        <time>2025-02-12T05:46:07.360Z</time>
      </trkpt>
      <trkpt lat="58.674896992743015" lon="13.732318980619311">
        <ele>46.8</ele>
        <time>2025-02-12T05:46:51.680Z</time>
      </trkpt>
      <trkpt lat="58.674937980249524" lon="13.732447978109121">
        <ele>46.82</ele>
        <time>2025-02-12T05:47:36.002Z</time>
      </trkpt>
      <trkpt lat="58.67497796192765" lon="13.732580998912454">
        <ele>46.83</ele>
        <time>2025-02-12T05:48:20.325Z</time>
      </trkpt>
      <trkpt lat="58.6750169377774" lon="13.732719970867038">
        <ele>46.85</ele>
        <time>2025-02-12T05:49:04.649Z</time>
      </trkpt>
      <trkpt lat="58.67505691945553" lon="13.732861960306764">
        <ele>46.86</ele>
        <time>2025-02-12T05:49:48.974Z</time>
      </trkpt>
      <trkpt lat="58.67509899660945" lon="13.73300596140325">
        <ele>46.88</ele>
        <time>2025-02-12T05:50:33.301Z</time>
      </trkpt>
      <trkpt lat="58.67513897828758" lon="13.733149962499738">
        <ele>46.9</ele>
        <time>2025-02-12T05:51:17.629Z</time>
      </trkpt>
      <trkpt lat="58.675178959965706" lon="13.733291951939464">
        <ele>46.92</ele>
        <time>2025-02-12T05:52:01.959Z</time>
      </trkpt>
      <trkpt lat="58.675218941643834" lon="13.733431929722428">
        <ele>46.94</ele>
        <time>2025-02-12T05:52:46.290Z</time>
      </trkpt>
      <trkpt lat="58.67525892332196" lon="13.733569979667664">
        <ele>46.96</ele>
        <time>2025-02-12T05:53:30.622Z</time>
      </trkpt>
      <trkpt lat="58.67529798299074" lon="13.733702916651964">
        <ele>46.98</ele>
        <time>2025-02-12T05:54:14.955Z</time>
      </trkpt>
      <trkpt lat="58.67533796466887" lon="13.733834931626916">
        <ele>47.01</ele>
        <time>2025-02-12T05:54:59.290Z</time>
      </trkpt>
      <trkpt lat="58.675377946347" lon="13.733965940773487">
        <ele>47.03</ele>
        <time>2025-02-12T05:55:43.626Z</time>
      </trkpt>
      <trkpt lat="58.67541792802513" lon="13.73409896157682">
        <ele>47.07</ele>
        <time>2025-02-12T05:56:27.963Z</time>
      </trkpt>
      <trkpt lat="58.67545899935067" lon="13.734232988208532">
        <ele>47.1</ele>
        <time>2025-02-12T05:57:12.302Z</time>
      </trkpt>
      <trkpt lat="58.675499986857176" lon="13.734367936849594">
        <ele>47.13</ele>
        <time>2025-02-12T05:57:56.642Z</time>
      </trkpt>
      <trkpt lat="58.67553795687854" lon="13.734503975138068">
        <ele>47.17</ele>
        <time>2025-02-12T05:58:40.983Z</time>
      </trkpt>
      <trkpt lat="58.67557693272829" lon="13.734640935435891">
        <ele>47.2</ele>
        <time>2025-02-12T05:59:25.326Z</time>
      </trkpt>
      <trkpt lat="58.67561699822545" lon="13.734777979552746">
        <ele>47.25</ele>
        <time>2025-02-12T06:00:09.670Z</time>
      </trkpt>
      <trkpt lat="58.6756559740752" lon="13.734912928193808">
        <ele>47.29</ele>
        <time>2025-02-12T06:00:54.015Z</time>
      </trkpt>
      <trkpt lat="58.675694949924946" lon="13.73504695482552">
        <ele>47.34</ele>
        <time>2025-02-12T06:01:38.361Z</time>
      </trkpt>
      <trkpt lat="58.675737949088216" lon="13.735178969800472">
        <ele>47.39</ele>
        <time>2025-02-12T06:02:22.709Z</time>
      </trkpt>
      <trkpt lat="58.67578396573663" lon="13.735300926491618">
        <ele>47.44</ele>
        <time>2025-02-12T06:03:07.058Z</time>
      </trkpt>
      <trkpt lat="58.67583098821342" lon="13.735412992537022">
        <ele>47.49</ele>
        <time>2025-02-12T06:03:51.408Z</time>
      </trkpt>
      <trkpt lat="58.67587893269956" lon="13.73551994562149">
        <ele>47.53</ele>
        <time>2025-02-12T06:04:35.759Z</time>
      </trkpt>
      <trkpt lat="58.67592494934797" lon="13.735618935897946">
        <ele>47.58</ele>
        <time>2025-02-12T06:05:20.111Z</time>
      </trkpt>
      <trkpt lat="58.67598496377468" lon="13.735698983073235">
        <ele>47.63</ele>
        <time>2025-02-12T06:06:04.465Z</time>
      </trkpt>
      <trkpt lat="58.67605193518102" lon="13.735766960307956">
        <ele>47.69</ele>
        <time>2025-02-12T06:06:48.820Z</time>
      </trkpt>
      <trkpt lat="58.676119996234775" lon="13.735831920057535">
        <ele>47.75</ele>
        <time>2025-02-12T06:07:33.176Z</time>
      </trkpt>
      <trkpt lat="58.67619099095464" lon="13.735894951969385">
        <ele>47.8</ele>
        <time>2025-02-12T06:08:17.533Z</time>
      </trkpt>
      <trkpt lat="58.6762619856745" lon="13.735955972224474">
        <ele>47.86</ele>
        <time>2025-02-12T06:09:01.892Z</time>
      </trkpt>
      <trkpt lat="58.67632795125246" lon="13.736015986651182">
        <ele>47.92</ele>
        <time>2025-02-12T06:09:46.252Z</time>
      </trkpt>
      <trkpt lat="58.67639198899269" lon="13.736072983592749">
        <ele>47.98</ele>
        <time>2025-02-12T06:10:30.613Z</time>
      </trkpt>
      <trkpt lat="58.67645996622741" lon="13.736131992191076">
        <ele>48.04</ele>
        <time>2025-02-12T06:11:14.975Z</time>
      </trkpt>
      <trkpt lat="58.67652492597699" lon="13.736192928627133">
        <ele>48.1</ele>
        <time>2025-02-12T06:11:59.338Z</time>
      </trkpt>
      <trkpt lat="58.67659097537398" lon="13.736255960538983">
        <ele>48.16</ele>
        <time>2025-02-12T06:12:43.702Z</time>
      </trkpt>
      <trkpt lat="58.67665694095194" lon="13.736314969137311">
        <ele>48.23</ele>
        <time>2025-02-12T06:13:28.068Z</time>
      </trkpt>
      <trkpt lat="58.676722990348935" lon="13.736371966078877">
        <ele>48.29</ele>
        <time>2025-02-12T06:14:12.435Z</time>
      </trkpt>
      <trkpt lat="58.676790967583656" lon="13.736429968848825">
        <ele>48.36</ele>
        <time>2025-02-12T06:14:56.803Z</time>
      </trkpt>
      <trkpt lat="58.67685894481838" lon="13.736488977447152">
        <ele>48.43</ele>
        <time>2025-02-12T06:15:41.172Z</time>
      </trkpt>
      <trkpt lat="58.67692591622472" lon="13.736545974388719">
        <ele>48.49</ele>
        <time>2025-02-12T06:16:25.542Z</time>
      </trkpt>
      <trkpt lat="58.67699196562171" lon="13.736600959673524">
        <ele>48.56</ele>
        <time>2025-02-12T06:17:09.913Z</time>
      </trkpt>
      <trkpt lat="58.67705893702805" lon="13.73665795661509">
        <ele>48.63</ele>
        <time>2025-02-12T06:17:54.286Z</time>
      </trkpt>
      <trkpt lat="58.67712498642504" lon="13.736713947728276">
        <ele>48.7</ele>
        <time>2025-02-12T06:18:38.660Z</time>
      </trkpt>
      <trkpt lat="58.67718994617462" lon="13.736770944669843">
        <ele>48.77</ele>
        <time>2025-02-12T06:19:23.035Z</time>
      </trkpt>
      <trkpt lat="58.67725297808647" lon="13.73682794161141">
        <ele>48.84</ele>
        <time>2025-02-12T06:20:07.411Z</time>
      </trkpt>
      <trkpt lat="58.67731693200767" lon="13.736882926896214">
        <ele>48.91</ele>
        <time>2025-02-12T06:20:51.788Z</time>
      </trkpt>
      <trkpt lat="58.67737895809114" lon="13.736936990171671">
        <ele>48.97</ele>
        <time>2025-02-12T06:21:36.166Z</time>
      </trkpt>
      <trkpt lat="58.67744098417461" lon="13.736991975456476">
        <ele>49.04</ele>
        <time>2025-02-12T06:22:20.545Z</time>
      </trkpt>
      <trkpt lat="58.677501920610666" lon="13.73704494908452">
        <ele>49.12</ele>
        <time>2025-02-12T06:23:04.925Z</time>
      </trkpt>
      <trkpt lat="58.677561935037374" lon="13.737094989046454">
        <ele>49.19</ele>
        <time>2025-02-12T06:23:49.306Z</time>
      </trkpt>
      <trkpt lat="58.67761993780732" lon="13.737143939360976">
        <ele>49.28</ele>
        <time>2025-02-12T06:24:33.688Z</time>
      </trkpt>
      <trkpt lat="58.67768095806241" lon="13.737194985151291">
        <ele>49.36</ele>
        <time>2025-02-12T06:25:18.072Z</time>
      </trkpt>
      <trkpt lat="58.67773996666074" lon="13.737250976264477">
        <ele>49.45</ele>
        <time>2025-02-12T06:26:02.457Z</time>
      </trkpt>
      <trkpt lat="58.677799981087446" lon="13.737308979034424">
        <ele>49.53</ele>
        <time>2025-02-12T06:26:46.843Z</time>
      </trkpt>
      <trkpt lat="58.677861923351884" lon="13.73736698180437">
        <ele>49.62</ele>
        <time>2025-02-12T06:27:31.230Z</time>
      </trkpt>
      <trkpt lat="58.677924955263734" lon="13.737425990402699">
        <ele>49.71</ele>
        <time>2025-02-12T06:28:15.618Z</time>
      </trkpt>
      <trkpt lat="58.677989998832345" lon="13.737487932667136">
        <ele>49.8</ele>
        <time>2025-02-12T06:29:00.007Z</time>
      </trkpt>
      <trkpt lat="58.678054958581924" lon="13.737550964578986">
        <ele>49.89</ele>
        <time>2025-02-12T06:29:44.397Z</time>
      </trkpt>
      <trkpt lat="58.678119918331504" lon="13.737612990662456">
        <ele>49.98</ele>
        <time>2025-02-12T06:30:28.788Z</time>
      </trkpt>
      <trkpt lat="58.678183956071734" lon="13.737671999260783">
        <ele>50.08</ele>
        <time>2025-02-12T06:31:13.181Z</time>
      </trkpt>
      <trkpt lat="58.678245982155204" lon="13.73772899620235">
        <ele>50.18</ele>
        <time>2025-02-12T06:31:57.575Z</time>
      </trkpt>
      <trkpt lat="58.67830499075353" lon="13.737787920981646">
        <ele>50.27</ele>
        <time>2025-02-12T06:32:41.970Z</time>
      </trkpt>
      <trkpt lat="58.6783619876951" lon="13.737844917923212">
        <ele>50.37</ele>
        <time>2025-02-12T06:33:26.366Z</time>
      </trkpt>
      <trkpt lat="58.6784169729799" lon="13.737899987027049">
        <ele>50.47</ele>
        <time>2025-02-12T06:34:10.763Z</time>
      </trkpt>
      <trkpt lat="58.67847195826471" lon="13.737953966483474">
        <ele>50.57</ele>
        <time>2025-02-12T06:34:55.161Z</time>
      </trkpt>
      <trkpt lat="58.67852593772113" lon="13.73800995759666">
        <ele>50.67</ele>
        <time>2025-02-12T06:35:39.560Z</time>
      </trkpt>
      <trkpt lat="58.67858092300594" lon="13.738066954538226">
        <ele>50.77</ele>
        <time>2025-02-12T06:36:23.960Z</time>
      </trkpt>
      <trkpt lat="58.678632974624634" lon="13.738126968964934">
        <ele>50.88</ele>
        <time>2025-02-12T06:37:08.361Z</time>
      </trkpt>
      <trkpt lat="58.67868393659592" lon="13.738189917057753">
        <ele>50.98</ele>
        <time>2025-02-12T06:37:52.763Z</time>
      </trkpt>
      <trkpt lat="58.67873095907271" lon="13.738256972283125">
        <ele>51.08</ele>
        <time>2025-02-12T06:38:37.166Z</time>
      </trkpt>
      <trkpt lat="58.67877496406436" lon="13.738328972831368">
        <ele>51.18</ele>
        <time>2025-02-12T06:39:21.570Z</time>
      </trkpt>
      <trkpt lat="58.67882098071277" lon="13.73839795589447">
        <ele>51.28</ele>
        <time>2025-02-12T06:40:05.974Z</time>
      </trkpt>
      <trkpt lat="58.67886397987604" lon="13.738466938957572">
        <ele>51.38</ele>
        <time>2025-02-12T06:40:50.379Z</time>
      </trkpt>
      <trkpt lat="58.67890194989741" lon="13.738540951162577">
        <ele>51.49</ele>
        <time>2025-02-12T06:41:34.785Z</time>
      </trkpt>
      <trkpt lat="58.678936986252666" lon="13.738621920347214">
        <ele>51.59</ele>
        <time>2025-02-12T06:42:19.192Z</time>
      </trkpt>
      <trkpt lat="58.6789679992944" lon="13.738711941987276">
        <ele>51.69</ele>
        <time>2025-02-12T06:43:03.600Z</time>
      </trkpt>
      <trkpt lat="58.6789989285171" lon="13.738800957798958">
        <ele>51.78</ele>
        <time>2025-02-12T06:43:48.009Z</time>
      </trkpt>
      <trkpt lat="58.67903094738722" lon="13.738882932811975">
        <ele>51.88</ele>
        <time>2025-02-12T06:44:32.419Z</time>
      </trkpt>
      <trkpt lat="58.679065983742476" lon="13.738966919481754">
        <ele>51.97</ele>
        <time>2025-02-12T06:45:16.830Z</time>
      </trkpt>
      <trkpt lat="58.67909892462194" lon="13.739050989970565">
        <ele>52.07</ele>
        <time>2025-02-12T06:46:01.242Z</time>
      </trkpt>
      <trkpt lat="58.679132955148816" lon="13.739135982468724">
        <ele>52.16</ele>
        <time>2025-02-12T06:46:45.654Z</time>
      </trkpt>
      <trkpt lat="58.67916597984731" lon="13.739224998280406">
        <ele>52.26</ele>
        <time>2025-02-12T06:47:30.067Z</time>
      </trkpt>
      <trkpt lat="58.67919992655516" lon="13.739316947758198">
        <ele>52.35</ele>
        <time>2025-02-12T06:48:14.481Z</time>
      </trkpt>
      <trkpt lat="58.679234962910414" lon="13.739413926377892">
        <ele>52.44</ele>
        <time>2025-02-12T06:48:58.896Z</time>
      </trkpt>
      <trkpt lat="58.67926597595215" lon="13.739504953846335">
        <ele>52.53</ele>
        <time>2025-02-12T06:49:43.312Z</time>
      </trkpt>
      <trkpt lat="58.67929992265999" lon="13.739593969658017">
        <ele>52.62</ele>
        <time>2025-02-12T06:50:27.729Z</time>
      </trkpt>
      <trkpt lat="58.67933596484363" lon="13.739679967984557">
        <ele>52.72</ele>
        <time>2025-02-12T06:51:12.147Z</time>
      </trkpt>
      <trkpt lat="58.679370917379856" lon="13.73977292329073">
        <ele>52.81</ele>
        <time>2025-02-12T06:51:56.566Z</time>
      </trkpt>
      <trkpt lat="58.679406959563494" lon="13.739862944930792">
        <ele>52.9</ele>
        <time>2025-02-12T06:52:40.986Z</time>
      </trkpt>
      <trkpt lat="58.67944593541324" lon="13.73994299210608">
        <ele>52.99</ele>
        <time>2025-02-12T06:53:25.407Z</time>
      </trkpt>
      <trkpt lat="58.67948893457651" lon="13.740020943805575">
        <ele>53.08</ele>
        <time>2025-02-12T06:54:09.829Z</time>
      </trkpt>
      <trkpt lat="58.679535957053304" lon="13.740097973495722">
        <ele>53.16</ele>
        <time>2025-02-12T06:54:54.252Z</time>
      </trkpt>
      <trkpt lat="58.679582979530096" lon="13.740170979872346">
        <ele>53.25</ele>
        <time>2025-02-12T06:55:38.676Z</time>
      </trkpt>
      <trkpt lat="58.67962799035013" lon="13.74024298042059">
        <ele>53.33</ele>
        <time>2025-02-12T06:56:23.101Z</time>
      </trkpt>
      <trkpt lat="58.67967199534178" lon="13.740311963483691">
        <ele>53.41</ele>
        <time>2025-02-12T06:57:07.527Z</time>
      </trkpt>
      <trkpt lat="58.679711977019906" lon="13.740380946546793">
        <ele>53.49</ele>
        <time>2025-02-12T06:57:51.953Z</time>
      </trkpt>
      <trkpt lat="58.679751958698034" lon="13.740450935438275">
        <ele>53.57</ele>
        <time>2025-02-12T06:58:36.380Z</time>
      </trkpt>
      <trkpt lat="58.679796969518065" lon="13.740520924329758">
        <ele>53.65</ele>
        <time>2025-02-12T06:59:20.808Z</time>
      </trkpt>
      <trkpt lat="58.67984298616648" lon="13.740590997040272">
        <ele>53.73</ele>
        <time>2025-02-12T07:00:05.237Z</time>
      </trkpt>
      <trkpt lat="58.679891936481" lon="13.740663919597864">
        <ele>53.8</ele>
        <time>2025-02-12T07:00:49.667Z</time>
      </trkpt>
      <trkpt lat="58.67994097061455" lon="13.740736925974488">
        <ele>53.87</ele>
        <time>2025-02-12T07:01:34.098Z</time>
      </trkpt>
      <trkpt lat="58.679986987262964" lon="13.740807920694351">
        <ele>53.94</ele>
        <time>2025-02-12T07:02:18.530Z</time>
      </trkpt>
      <trkpt lat="58.68003895506263" lon="13.740876987576485">
        <ele>54.01</ele>
        <time>2025-02-12T07:03:02.963Z</time>
      </trkpt>
      <trkpt lat="58.68008991703391" lon="13.740941947326064">
        <ele>54.08</ele>
        <time>2025-02-12T07:03:47.397Z</time>
      </trkpt>
      <trkpt lat="58.68014398030937" lon="13.741006990894675">
        <ele>54.14</ele>
        <time>2025-02-12T07:04:31.832Z</time>
      </trkpt>
      <trkpt lat="58.680203994736075" lon="13.741067927330732">
        <ele>54.2</ele>
        <time>2025-02-12T07:05:16.268Z</time>
      </trkpt>
      <trkpt lat="58.680270966142416" lon="13.74112693592906">
        <ele>54.26</ele>
        <time>2025-02-12T07:06:00.705Z</time>
      </trkpt>
      <trkpt lat="58.68034196086228" lon="13.741178987547755">
        <ele>54.32</ele>
        <time>2025-02-12T07:06:45.144Z</time>
      </trkpt>
      <trkpt lat="58.680416978895664" lon="13.741217963397503">
        <ele>54.37</ele>
        <time>2025-02-12T07:07:29.584Z</time>
      </trkpt>
      <trkpt lat="58.68049593642354" lon="13.741248976439238">
        <ele>54.42</ele>
        <time>2025-02-12T07:08:14.025Z</time>
      </trkpt>
      <trkpt lat="58.68057698942721" lon="13.741273954510689">
        <ele>54.47</ele>
        <time>2025-02-12T07:08:58.468Z</time>
      </trkpt>
      <trkpt lat="58.680655946955085" lon="13.74129792675376">
        <ele>54.51</ele>
        <time>2025-02-12T07:09:42.912Z</time>
      </trkpt>
      <trkpt lat="58.680736999958754" lon="13.741326928138733">
        <ele>54.56</ele>
        <time>2025-02-12T07:10:27.357Z</time>
      </trkpt>
      <trkpt lat="58.68081696331501" lon="13.741359952837229">
        <ele>54.6</ele>
        <time>2025-02-12T07:11:11.803Z</time>
      </trkpt>
      <trkpt lat="58.68089499883354" lon="13.741395995020866">
        <ele>54.64</ele>
        <time>2025-02-12T07:11:56.251Z</time>
      </trkpt>
      <trkpt lat="58.68097395636141" lon="13.741436982527375">
        <ele>54.68</ele>
        <time>2025-02-12T07:12:40.700Z</time>
      </trkpt>
      <trkpt lat="58.68105098605156" lon="13.741477970033884">
        <ele>54.71</ele>
        <time>2025-02-12T07:13:25.150Z</time>
      </trkpt>
      <trkpt lat="58.681127931922674" lon="13.741522980853915">
        <ele>54.75</ele>
        <time>2025-02-12T07:14:09.602Z</time>
      </trkpt>
      <trkpt lat="58.68120395578444" lon="13.741573942825198">
        <ele>54.78</ele>
        <time>2025-02-12T07:14:54.055Z</time>
      </trkpt>
      <trkpt lat="58.681279979646206" lon="13.741624988615513">
        <ele>54.8</ele>
        <time>2025-02-12T07:15:38.509Z</time>
      </trkpt>
      <trkpt lat="58.68135591968894" lon="13.741672933101654">
        <ele>54.83</ele>
        <time>2025-02-12T07:16:22.964Z</time>
      </trkpt>
      <trkpt lat="58.681430937722325" lon="13.741722973063588">
        <ele>54.85</ele>
        <time>2025-02-12T07:17:07.421Z</time>
      </trkpt>
      <trkpt lat="58.68150696158409" lon="13.741774940863252">
        <ele>54.87</ele>
        <time>2025-02-12T07:17:51.879Z</time>
      </trkpt>
      <trkpt lat="58.68158499710262" lon="13.741825986653566">
        <ele>54.89</ele>
        <time>2025-02-12T07:18:36.338Z</time>
      </trkpt>
      <trkpt lat="58.681663954630494" lon="13.741883989423513">
        <ele>54.9</ele>
        <time>2025-02-12T07:19:20.799Z</time>
      </trkpt>
      <trkpt lat="58.68174199014902" lon="13.741950960829854">
        <ele>54.91</ele>
        <time>2025-02-12T07:20:05.261Z</time>
      </trkpt>
      <trkpt lat="58.681817930191755" lon="13.74202698469162">
        <ele>54.92</ele>
        <time>2025-02-12T07:20:49.724Z</time>
      </trkpt>
      <trkpt lat="58.68189093656838" lon="13.742117928341031">
        <ele>54.93</ele>
        <time>2025-02-12T07:21:34.189Z</time>
      </trkpt>
      <trkpt lat="58.68195497430861" lon="13.742225971072912">
        <ele>54.93</ele>
        <time>2025-02-12T07:22:18.655Z</time>
      </trkpt>
      <trkpt lat="58.68201297707856" lon="13.742345999926329">
        <ele>54.93</ele>
        <time>2025-02-12T07:23:03.123Z</time>
      </trkpt>
      <trkpt lat="58.6820659507066" lon="13.742474997416139">
        <ele>54.94</ele>
        <time>2025-02-12T07:23:47.592Z</time>
      </trkpt>
      <trkpt lat="58.68211297318339" lon="13.7426099460572">
        <ele>54.94</ele>
        <time>2025-02-12T07:24:32.062Z</time>
      </trkpt>
      <trkpt lat="58.6821539606899" lon="13.742748918011785">
        <ele>54.94</ele>
        <time>2025-02-12T07:25:16.534Z</time>
      </trkpt>
      <trkpt lat="58.68218497373164" lon="13.742892919108272">
        <ele>54.93</ele>
        <time>2025-02-12T07:26:01.007Z</time>
      </trkpt>
      <trkpt lat="58.68221095763147" lon="13.743040943518281">
        <ele>54.92</ele>
        <time>2025-02-12T07:26:45.481Z</time>
      </trkpt>
      <trkpt lat="58.6822369415313" lon="13.743193997070193">
        <ele>54.91</ele>
        <time>2025-02-12T07:27:29.957Z</time>
      </trkpt>
      <trkpt lat="58.682269966229796" lon="13.743349984288216">
        <ele>54.91</ele>
        <time>2025-02-12T07:28:14.434Z</time>
      </trkpt>
      <trkpt lat="58.68230491876602" lon="13.743506977334619">
        <ele>54.9</ele>
        <time>2025-02-12T07:28:58.912Z</time>
      </trkpt>
      <trkpt lat="58.6823389492929" lon="13.743663970381021">
        <ele>54.89</ele>
        <time>2025-02-12T07:29:43.392Z</time>
      </trkpt>
      <trkpt lat="58.682376919314265" lon="13.743815934285522">
        <ele>54.88</ele>
        <time>2025-02-12T07:30:27.873Z</time>
      </trkpt>
      <trkpt lat="58.682415978983045" lon="13.743964964523911">
        <ele>54.87</ele>
        <time>2025-02-12T07:31:12.356Z</time>
      </trkpt>
      <trkpt lat="58.682457972317934" lon="13.744108965620399">
        <ele>54.86</ele>
        <time>2025-02-12T07:31:56.840Z</time>
      </trkpt>
      <trkpt lat="58.68249996565282" lon="13.744249949231744">
        <ele>54.84</ele>
        <time>2025-02-12T07:32:41.325Z</time>
      </trkpt>
      <trkpt lat="58.68254095315933" lon="13.744383975863457">
        <ele>54.83</ele>
        <time>2025-02-12T07:33:25.812Z</time>
      </trkpt>
      <trkpt lat="58.68258294649422" lon="13.744514985010028">
        <ele>54.82</ele>
        <time>2025-02-12T07:34:10.300Z</time>
      </trkpt>
      <trkpt lat="58.682629968971014" lon="13.744639959186316">
        <ele>54.8</ele>
        <time>2025-02-12T07:34:54.789Z</time>
      </trkpt>
      <trkpt lat="58.682679925113916" lon="13.744763927534223">
        <ele>54.78</ele>
        <time>2025-02-12T07:35:39.280Z</time>
      </trkpt>
      <trkpt lat="58.68273097090423" lon="13.744883956387639">
        <ele>54.76</ele>
        <time>2025-02-12T07:36:23.772Z</time>
      </trkpt>
      <trkpt lat="58.682781932875514" lon="13.745003985241055">
        <ele>54.74</ele>
        <time>2025-02-12T07:37:08.265Z</time>
      </trkpt>
      <trkpt lat="58.68282996118069" lon="13.74512493610382">
        <ele>54.72</ele>
        <time>2025-02-12T07:37:52.759Z</time>
      </trkpt>
      <trkpt lat="58.68287798948586" lon="13.74524898827076">
        <ele>54.69</ele>
        <time>2025-02-12T07:38:37.255Z</time>
      </trkpt>
      <trkpt lat="58.68292199447751" lon="13.745375974103808">
        <ele>54.66</ele>
        <time>2025-02-12T07:39:21.752Z</time>
      </trkpt>
      <trkpt lat="58.68296298198402" lon="13.74551092274487">
        <ele>54.63</ele>
        <time>2025-02-12T07:40:06.250Z</time>
      </trkpt>
      <trkpt lat="58.68300296366215" lon="13.745650984346867">
        <ele>54.59</ele>
        <time>2025-02-12T07:40:50.750Z</time>
      </trkpt>
      <trkpt lat="58.683036994189024" lon="13.745795991271734">
        <ele>54.55</ele>
        <time>2025-02-12T07:41:35.251Z</time>
      </trkpt>
      <trkpt lat="58.68305694311857" lon="13.745949966832995">
        <ele>54.52</ele>
        <time>2025-02-12T07:42:19.753Z</time>
      </trkpt>
      <trkpt lat="58.683066917583346" lon="13.746106959879398">
        <ele>54.49</ele>
        <time>2025-02-12T07:43:04.257Z</time>
      </trkpt>
      <trkpt lat="58.68307094089687" lon="13.746265964582562">
        <ele>54.45</ele>
        <time>2025-02-12T07:43:48.762Z</time>
      </trkpt>
      <trkpt lat="58.68307395838201" lon="13.746418934315443">
        <ele>54.41</ele>
        <time>2025-02-12T07:44:33.268Z</time>
      </trkpt>
      <trkpt lat="58.68307697586715" lon="13.746567964553833">
        <ele>54.37</ele>
        <time>2025-02-12T07:45:17.775Z</time>
      </trkpt>
      <trkpt lat="58.683080999180675" lon="13.746719928458333">
        <ele>54.33</ele>
        <time>2025-02-12T07:46:02.284Z</time>
      </trkpt>
      <trkpt lat="58.683085944503546" lon="13.746871976181865">
        <ele>54.29</ele>
        <time>2025-02-12T07:46:46.794Z</time>
      </trkpt>
      <trkpt lat="58.68309097364545" lon="13.747024945914745">
        <ele>54.25</ele>
        <time>2025-02-12T07:47:31.305Z</time>
      </trkpt>
      <trkpt lat="58.68309499695897" lon="13.747176993638277">
        <ele>54.2</ele>
        <time>2025-02-12T07:48:15.818Z</time>
      </trkpt>
      <trkpt lat="58.68309994228184" lon="13.747327951714396">
        <ele>54.16</ele>
        <time>2025-02-12T07:49:00.332Z</time>
      </trkpt>
      <trkpt lat="58.683106983080506" lon="13.747480921447277">
        <ele>54.11</ele>
        <time>2025-02-12T07:49:44.847Z</time>
      </trkpt>
      <trkpt lat="58.68311394006014" lon="13.747630957514048">
        <ele>54.06</ele>
        <time>2025-02-12T07:50:29.363Z</time>
      </trkpt>
      <trkpt lat="58.68311796337366" lon="13.747781999409199">
        <ele>54.02</ele>
        <time>2025-02-12T07:51:13.881Z</time>
      </trkpt>
      <trkpt lat="58.68311896920204" lon="13.747929940000176">
        <ele>53.97</ele>
        <time>2025-02-12T07:51:58.400Z</time>
      </trkpt>
      <trkpt lat="58.68311997503042" lon="13.748076958581805">
        <ele>53.92</ele>
        <time>2025-02-12T07:52:42.920Z</time>
      </trkpt>
      <trkpt lat="58.6831209808588" lon="13.748226994648576">
        <ele>53.87</ele>
        <time>2025-02-12T07:53:27.441Z</time>
      </trkpt>
      <trkpt lat="58.683122992515564" lon="13.748375941067934">
        <ele>53.82</ele>
        <time>2025-02-12T07:54:11.964Z</time>
      </trkpt>
      <trkpt lat="58.683125926181674" lon="13.748525977134705">
        <ele>53.77</ele>
        <time>2025-02-12T07:54:56.488Z</time>
      </trkpt>
      <trkpt lat="58.683127937838435" lon="13.748673917725682">
        <ele>53.72</ele>
        <time>2025-02-12T07:55:41.013Z</time>
      </trkpt>
      <trkpt lat="58.683127937838435" lon="13.74881791882217">
        <ele>53.67</ele>
        <time>2025-02-12T07:56:25.539Z</time>
      </trkpt>
      <trkpt lat="58.683126932010055" lon="13.748963931575418">
        <ele>53.61</ele>
        <time>2025-02-12T07:57:10.067Z</time>
      </trkpt>
      <trkpt lat="58.683122992515564" lon="13.749106926843524">
        <ele>53.56</ele>
        <time>2025-02-12T07:57:54.596Z</time>
      </trkpt>
      <trkpt lat="58.68312198668718" lon="13.749247994273901">
        <ele>53.51</ele>
        <time>2025-02-12T07:58:39.126Z</time>
      </trkpt>
      <trkpt lat="58.6831209808588" lon="13.749384954571724">
        <ele>53.46</ele>
        <time>2025-02-12T07:59:23.657Z</time>
      </trkpt>
      <trkpt lat="58.68311896920204" lon="13.749522920697927">
        <ele>53.4</ele>
        <time>2025-02-12T08:00:08.189Z</time>
      </trkpt>
      <trkpt lat="58.6831159517169" lon="13.749661976471543">
        <ele>53.34</ele>
        <time>2025-02-12T08:00:52.722Z</time>
      </trkpt>
      <trkpt lat="58.68311494588852" lon="13.74980497173965">
        <ele>53.29</ele>
        <time>2025-02-12T08:01:37.257Z</time>
      </trkpt>
      <trkpt lat="58.6831209808588" lon="13.749954923987389">
        <ele>53.23</ele>
        <time>2025-02-12T08:02:21.793Z</time>
      </trkpt>
      <trkpt lat="58.683128943666816" lon="13.750101942569017">
        <ele>53.18</ele>
        <time>2025-02-12T08:03:06.330Z</time>
      </trkpt>
      <trkpt lat="58.68314193561673" lon="13.750249966979027">
        <ele>53.12</ele>
        <time>2025-02-12T08:03:50.868Z</time>
      </trkpt>
      <trkpt lat="58.683166997507215" lon="13.750394973903894">
        <ele>53.06</ele>
        <time>2025-02-12T08:04:35.408Z</time>
      </trkpt>
      <trkpt lat="58.68320496752858" lon="13.750529922544956">
        <ele>53.01</ele>
        <time>2025-02-12T08:05:19.949Z</time>
      </trkpt>
      <trkpt lat="58.68324897252023" lon="13.750653974711895">
        <ele>52.96</ele>
        <time>2025-02-12T08:06:04.491Z</time>
      </trkpt>
      <trkpt lat="58.68329691700637" lon="13.750765956938267">
        <ele>52.91</ele>
        <time>2025-02-12T08:06:49.034Z</time>
      </trkpt>
      <trkpt lat="58.68335399776697" lon="13.750865953043103">
        <ele>52.86</ele>
        <time>2025-02-12T08:07:33.579Z</time>
      </trkpt>
      <trkpt lat="58.68341795168817" lon="13.750956980511546">
        <ele>52.81</ele>
        <time>2025-02-12T08:08:18.125Z</time>
      </trkpt>
      <trkpt lat="58.683489952236414" lon="13.751044990494847">
        <ele>52.76</ele>
        <time>2025-02-12T08:09:02.672Z</time>
      </trkpt>
      <trkpt lat="58.68356094695628" lon="13.751135934144258">
        <ele>52.71</ele>
        <time>2025-02-12T08:09:47.221Z</time>
      </trkpt>
      <trkpt lat="58.68363495916128" lon="13.751228973269463">
        <ele>52.66</ele>
        <time>2025-02-12T08:10:31.771Z</time>
      </trkpt>
      <trkpt lat="58.683706959709525" lon="13.751322934404016">
        <ele>52.62</ele>
        <time>2025-02-12T08:11:16.322Z</time>
      </trkpt>
      <trkpt lat="58.683768985792994" lon="13.751421924680471">
        <ele>52.57</ele>
        <time>2025-02-12T08:12:00.875Z</time>
      </trkpt>
      <trkpt lat="58.68382296524942" lon="13.751527955755591">
        <ele>52.53</ele>
        <time>2025-02-12T08:12:45.429Z</time>
      </trkpt>
      <trkpt lat="58.68387593887746" lon="13.751637926325202">
        <ele>52.49</ele>
        <time>2025-02-12T08:13:29.984Z</time>
      </trkpt>
      <trkpt lat="58.68392497301102" lon="13.751748986542225">
        <ele>52.44</ele>
        <time>2025-02-12T08:14:14.540Z</time>
      </trkpt>
      <trkpt lat="58.68396797217429" lon="13.751863986253738">
        <ele>52.4</ele>
        <time>2025-02-12T08:14:59.098Z</time>
      </trkpt>
      <trkpt lat="58.68400493636727" lon="13.751990972086787">
        <ele>52.37</ele>
        <time>2025-02-12T08:15:43.657Z</time>
      </trkpt>
      <trkpt lat="58.68403896689415" lon="13.752118963748217">
        <ele>52.33</ele>
        <time>2025-02-12T08:16:28.217Z</time>
      </trkpt>
      <trkpt lat="58.684070985764265" lon="13.752242932096124">
        <ele>52.29</ele>
        <time>2025-02-12T08:17:12.778Z</time>
      </trkpt>
      <trkpt lat="58.68410996161401" lon="13.752357931807637">
        <ele>52.25</ele>
        <time>2025-02-12T08:17:57.340Z</time>
      </trkpt>
      <trkpt lat="58.68414399214089" lon="13.752482989802957">
        <ele>52.21</ele>
        <time>2025-02-12T08:18:41.903Z</time>
      </trkpt>
      <trkpt lat="58.6841709818691" lon="13.752616932615638">
        <ele>52.17</ele>
        <time>2025-02-12T08:19:26.468Z</time>
      </trkpt>
      <trkpt lat="58.68419193662703" lon="13.752762945368886">
        <ele>52.12</ele>
        <time>2025-02-12T08:20:11.034Z</time>
      </trkpt>
      <trkpt lat="58.68420895189047" lon="13.752918932586908">
        <ele>52.07</ele>
        <time>2025-02-12T08:20:55.601Z</time>
      </trkpt>
      <trkpt lat="58.684224961325526" lon="13.753081960603595">
        <ele>52.03</ele>
        <time>2025-02-12T08:21:40.170Z</time>
      </trkpt>
      <trkpt lat="58.6842399649322" lon="13.753252951428294">
        <ele>51.99</ele>
        <time>2025-02-12T08:22:24.740Z</time>
      </trkpt>
      <trkpt lat="58.68424993939698" lon="13.753430983051658">
        <ele>51.96</ele>
        <time>2025-02-12T08:23:09.312Z</time>
      </trkpt>
      <trkpt lat="58.68425597436726" lon="13.75361094251275">
        <ele>51.92</ele>
        <time>2025-02-12T08:23:53.885Z</time>
      </trkpt>
      <trkpt lat="58.68426293134689" lon="13.753788974136114">
        <ele>51.89</ele>
        <time>2025-02-12T08:24:38.460Z</time>
      </trkpt>
      <trkpt lat="58.68426997214556" lon="13.753964994102716">
        <ele>51.86</ele>
        <time>2025-02-12T08:25:23.036Z</time>
      </trkpt>
      <trkpt lat="58.68427793495357" lon="13.754142941907048">
        <ele>51.83</ele>
        <time>2025-02-12T08:26:07.614Z</time>
      </trkpt>
      <trkpt lat="58.684285981580615" lon="13.754322985187173">
        <ele>51.81</ele>
        <time>2025-02-12T08:26:52.193Z</time>
      </trkpt>
      <trkpt lat="58.68429193273187" lon="13.754501938819885">
        <ele>51.79</ele>
        <time>2025-02-12T08:27:36.774Z</time>
      </trkpt>
      <trkpt lat="58.68429495021701" lon="13.754673935472965">
        <ele>51.77</ele>
        <time>2025-02-12T08:28:21.356Z</time>
      </trkpt>
      <trkpt lat="58.68429696187377" lon="13.754844926297665">
        <ele>51.76</ele>
        <time>2025-02-12T08:29:05.939Z</time>
      </trkpt>
      <trkpt lat="58.68429897353053" lon="13.755009965971112">
        <ele>51.75</ele>
        <time>2025-02-12T08:29:50.524Z</time>
      </trkpt>
      <trkpt lat="58.68430299684405" lon="13.755167964845896">
        <ele>51.75</ele>
        <time>2025-02-12T08:30:35.110Z</time>
      </trkpt>
      <trkpt lat="58.684307942166924" lon="13.755320934578776">
        <ele>51.75</ele>
        <time>2025-02-12T08:31:19.697Z</time>
      </trkpt>
      <trkpt lat="58.684310959652066" lon="13.75547599978745">
        <ele>51.76</ele>
        <time>2025-02-12T08:32:04.286Z</time>
      </trkpt>
      <trkpt lat="58.684310959652066" lon="13.75562695786357">
        <ele>51.76</ele>
        <time>2025-02-12T08:32:48.876Z</time>
      </trkpt>
      <trkpt lat="58.68431196548045" lon="13.75577699393034">
        <ele>51.76</ele>
        <time>2025-02-12T08:33:33.467Z</time>
      </trkpt>
      <trkpt lat="58.68431196548045" lon="13.75592795200646">
        <ele>51.77</ele>
        <time>2025-02-12T08:34:18.059Z</time>
      </trkpt>
      <trkpt lat="58.684307942166924" lon="13.756075976416469">
        <ele>51.78</ele>
        <time>2025-02-12T08:35:02.653Z</time>
      </trkpt>
      <trkpt lat="58.684306936338544" lon="13.756225928664207">
        <ele>51.79</ele>
        <time>2025-02-12T08:35:47.248Z</time>
      </trkpt>
      <trkpt lat="58.684306936338544" lon="13.756367918103933">
        <ele>51.8</ele>
        <time>2025-02-12T08:36:31.844Z</time>
      </trkpt>
      <trkpt lat="58.68430492468178" lon="13.756504962220788">
        <ele>51.82</ele>
        <time>2025-02-12T08:37:16.441Z</time>
      </trkpt>
      <trkpt lat="58.68430098518729" lon="13.756641922518611">
        <ele>51.83</ele>
        <time>2025-02-12T08:38:01.039Z</time>
      </trkpt>
      <trkpt lat="58.68429897353053" lon="13.756779972463846">
        <ele>51.85</ele>
        <time>2025-02-12T08:38:45.639Z</time>
      </trkpt>
      <trkpt lat="58.68429997935891" lon="13.756921961903572">
        <ele>51.88</ele>
        <time>2025-02-12T08:39:30.240Z</time>
      </trkpt>
      <trkpt lat="58.684309953823686" lon="13.757062945514917">
        <ele>51.9</ele>
        <time>2025-02-12T08:40:14.842Z</time>
      </trkpt>
      <trkpt lat="58.68431892246008" lon="13.757207952439785">
        <ele>51.92</ele>
        <time>2025-02-12T08:40:59.445Z</time>
      </trkpt>
      <trkpt lat="58.68433996103704" lon="13.757341979071498">
        <ele>51.95</ele>
        <time>2025-02-12T08:41:44.049Z</time>
      </trkpt>
      <trkpt lat="58.68436896242201" lon="13.757463935762644">
        <ele>51.98</ele>
        <time>2025-02-12T08:42:28.654Z</time>
      </trkpt>
      <trkpt lat="58.68440299294889" lon="13.757580947130919">
        <ele>52.01</ele>
        <time>2025-02-12T08:43:13.261Z</time>
      </trkpt>
      <trkpt lat="58.684439957141876" lon="13.7576889898628">
        <ele>52.04</ele>
        <time>2025-02-12T08:43:57.869Z</time>
      </trkpt>
      <trkpt lat="58.68448496796191" lon="13.757786974310875">
        <ele>52.07</ele>
        <time>2025-02-12T08:44:42.478Z</time>
      </trkpt>
      <trkpt lat="58.68453098461032" lon="13.757876995950937">
        <ele>52.11</ele>
        <time>2025-02-12T08:45:27.088Z</time>
      </trkpt>
      <trkpt lat="58.68458295240998" lon="13.757953941822052">
        <ele>52.15</ele>
        <time>2025-02-12T08:46:11.699Z</time>
      </trkpt>
      <trkpt lat="58.68464397266507" lon="13.758024936541915">
        <ele>52.19</ele>
        <time>2025-02-12T08:46:56.311Z</time>
      </trkpt>
      <trkpt lat="58.68470893241465" lon="13.75807598233223">
        <ele>52.23</ele>
        <time>2025-02-12T08:47:40.924Z</time>
      </trkpt>
      <trkpt lat="58.68477498181164" lon="13.758131973445415">
        <ele>52.27</ele>
        <time>2025-02-12T08:48:25.538Z</time>
      </trkpt>
      <trkpt lat="58.6848409473896" lon="13.758180923759937">
        <ele>52.32</ele>
        <time>2025-02-12T08:49:10.153Z</time>
      </trkpt>
      <trkpt lat="58.68490498512983" lon="13.758232975378633">
        <ele>52.37</ele>
        <time>2025-02-12T08:49:54.770Z</time>
      </trkpt>
      <trkpt lat="58.68496592156589" lon="13.758285949006677">
        <ele>52.42</ele>
        <time>2025-02-12T08:50:39.388Z</time>
      </trkpt>
      <trkpt lat="58.68502895347774" lon="13.758345963433385">
        <ele>52.47</ele>
        <time>2025-02-12T08:51:24.007Z</time>
      </trkpt>
      <trkpt lat="58.68508896790445" lon="13.758416958153248">
        <ele>52.53</ele>
        <time>2025-02-12T08:52:08.627Z</time>
      </trkpt>
      <trkpt lat="58.68514294736087" lon="13.758504968136549">
        <ele>52.58</ele>
        <time>2025-02-12T08:52:53.248Z</time>
      </trkpt>
      <trkpt lat="58.68519198149443" lon="13.758598929271102">
        <ele>52.63</ele>
        <time>2025-02-12T08:53:37.870Z</time>
      </trkpt>
      <trkpt lat="58.68524093180895" lon="13.758696997538209">
        <ele>52.69</ele>
        <time>2025-02-12T08:54:22.493Z</time>
      </trkpt>
      <trkpt lat="58.68528694845736" lon="13.758796993643045">
        <ele>52.75</ele>
        <time>2025-02-12T08:55:07.117Z</time>
      </trkpt>
      <trkpt lat="58.68533095344901" lon="13.75889497809112">
        <ele>52.81</ele>
        <time>2025-02-12T08:55:51.742Z</time>
      </trkpt>
      <trkpt lat="58.68537697009742" lon="13.758993968367577">
        <ele>52.86</ele>
        <time>2025-02-12T08:56:36.369Z</time>
      </trkpt>
      <trkpt lat="58.685423992574215" lon="13.759090946987271">
        <ele>52.92</ele>
        <time>2025-02-12T08:57:20.997Z</time>
      </trkpt>
      <trkpt lat="58.685470931231976" lon="13.759185997769237">
        <ele>52.97</ele>
        <time>2025-02-12T08:58:05.626Z</time>
      </trkpt>
      <trkpt lat="58.68551795370877" lon="13.75928197056055">
        <ele>53.03</ele>
        <time>2025-02-12T08:58:50.256Z</time>
      </trkpt>
      <trkpt lat="58.685573944821954" lon="13.759376937523484">
        <ele>53.09</ele>
        <time>2025-02-12T08:59:34.887Z</time>
      </trkpt>
      <trkpt lat="58.685620967298746" lon="13.759469976648688">
        <ele>53.15</ele>
        <time>2025-02-12T09:00:19.519Z</time>
      </trkpt>
      <trkpt lat="58.68566899560392" lon="13.75955798663199">
        <ele>53.22</ele>
        <time>2025-02-12T09:01:04.152Z</time>
      </trkpt>
      <trkpt lat="58.68572096340358" lon="13.75964398495853">
        <ele>53.28</ele>
        <time>2025-02-12T09:01:48.786Z</time>
      </trkpt>
      <trkpt lat="58.68578097783029" lon="13.759726965799928">
        <ele>53.35</ele>
        <time>2025-02-12T09:02:33.421Z</time>
      </trkpt>
      <trkpt lat="58.68583998642862" lon="13.759802989661694">
        <ele>53.41</ele>
        <time>2025-02-12T09:03:18.058Z</time>
      </trkpt>
      <trkpt lat="58.685898995026946" lon="13.759871972724795">
        <ele>53.47</ele>
        <time>2025-02-12T09:04:02.696Z</time>
      </trkpt>
      <trkpt lat="58.685962948948145" lon="13.759934920817614">
        <ele>53.54</ele>
        <time>2025-02-12T09:04:47.335Z</time>
      </trkpt>
      <trkpt lat="58.686030926182866" lon="13.759993929415941">
        <ele>53.6</ele>
        <time>2025-02-12T09:05:31.975Z</time>
      </trkpt>
      <trkpt lat="58.68610393255949" lon="13.760042963549495">
        <ele>53.67</ele>
        <time>2025-02-12T09:06:16.616Z</time>
      </trkpt>
      <trkpt lat="58.686172999441624" lon="13.760081939399242">
        <ele>53.74</ele>
        <time>2025-02-12T09:07:01.258Z</time>
      </trkpt>
      <trkpt lat="58.686241982504725" lon="13.760112952440977">
        <ele>53.81</ele>
        <time>2025-02-12T09:07:45.902Z</time>
      </trkpt>
      <trkpt lat="58.68631197139621" lon="13.760134996846318">
        <ele>53.88</ele>
        <time>2025-02-12T09:08:30.547Z</time>
      </trkpt>
      <trkpt lat="58.68638397194445" lon="13.760149916633964">
        <ele>53.95</ele>
        <time>2025-02-12T09:09:15.193Z</time>
      </trkpt>
      <trkpt lat="58.686454966664314" lon="13.760172966867685">
        <ele>54.02</ele>
        <time>2025-02-12T09:09:59.840Z</time>
      </trkpt>
      <trkpt lat="58.686523949727416" lon="13.760201968252659">
        <ele>54.09</ele>
        <time>2025-02-12T09:10:44.488Z</time>
      </trkpt>
      <trkpt lat="58.68659695610404" lon="13.76022694632411">
        <ele>54.16</ele>
        <time>2025-02-12T09:11:29.137Z</time>
      </trkpt>
      <trkpt lat="58.68666694499552" lon="13.760249996557832">
        <ele>54.23</ele>
        <time>2025-02-12T09:12:13.788Z</time>
      </trkpt>
      <trkpt lat="58.686735928058624" lon="13.760275980457664">
        <ele>54.3</ele>
        <time>2025-02-12T09:12:58.440Z</time>
      </trkpt>
      <trkpt lat="58.686797954142094" lon="13.760303976014256">
        <ele>54.37</ele>
        <time>2025-02-12T09:13:43.093Z</time>
      </trkpt>
      <trkpt lat="58.686863919720054" lon="13.760342951864004">
        <ele>54.44</ele>
        <time>2025-02-12T09:14:27.747Z</time>
      </trkpt>
      <trkpt lat="58.68693692609668" lon="13.760393997654319">
        <ele>54.51</ele>
        <time>2025-02-12T09:15:12.402Z</time>
      </trkpt>
      <trkpt lat="58.68700599297881" lon="13.760443953797221">
        <ele>54.58</ele>
        <time>2025-02-12T09:15:57.058Z</time>
      </trkpt>
      <trkpt lat="58.687078999355435" lon="13.760498939082026">
        <ele>54.65</ele>
        <time>2025-02-12T09:16:41.715Z</time>
      </trkpt>
      <trkpt lat="58.68715192191303" lon="13.760561970993876">
        <ele>54.71</ele>
        <time>2025-02-12T09:17:26.374Z</time>
      </trkpt>
      <trkpt lat="58.68722199462354" lon="13.760628942400217">
        <ele>54.78</ele>
        <time>2025-02-12T09:18:11.034Z</time>
      </trkpt>
      <trkpt lat="58.68728896602988" lon="13.760688956826925">
        <ele>54.85</ele>
        <time>2025-02-12T09:18:55.695Z</time>
      </trkpt>
      <trkpt lat="58.687358954921365" lon="13.76074193045497">
        <ele>54.91</ele>
        <time>2025-02-12T09:19:40.357Z</time>
      </trkpt>
      <trkpt lat="58.68743196129799" lon="13.760799933224916">
        <ele>54.98</ele>
        <time>2025-02-12T09:20:25.021Z</time>
      </trkpt>
      <trkpt lat="58.68750295601785" lon="13.760858941823244">
        <ele>55.04</ele>
        <time>2025-02-12T09:21:09.686Z</time>
      </trkpt>
      <trkpt lat="58.687573950737715" lon="13.760919962078333">
        <ele>55.11</ele>
        <time>2025-02-12T09:21:54.352Z</time>
      </trkpt>
      <trkpt lat="58.68765198625624" lon="13.760985927656293">
        <ele>55.18</ele>
        <time>2025-02-12T09:22:39.020Z</time>
      </trkpt>
      <trkpt lat="58.687726920470595" lon="13.761057928204536">
        <ele>55.24</ele>
        <time>2025-02-12T09:23:23.689Z</time>
      </trkpt>
      <trkpt lat="58.68780294433236" lon="13.761132946237922">
        <ele>55.31</ele>
        <time>2025-02-12T09:24:08.359Z</time>
      </trkpt>
      <trkpt lat="58.68788299150765" lon="13.761210981756449">
        <ele>55.38</ele>
        <time>2025-02-12T09:24:53.031Z</time>
      </trkpt>
      <trkpt lat="58.68796697817743" lon="13.761289939284325">
        <ele>55.46</ele>
        <time>2025-02-12T09:25:37.704Z</time>
      </trkpt>
      <trkpt lat="58.68805297650397" lon="13.761367974802852">
        <ele>55.53</ele>
        <time>2025-02-12T09:26:22.379Z</time>
      </trkpt>
      <trkpt lat="58.68814098648727" lon="13.761446932330728">
        <ele>55.61</ele>
        <time>2025-02-12T09:27:07.055Z</time>
      </trkpt>
      <trkpt lat="58.68822597898543" lon="13.761520944535732">
        <ele>55.68</ele>
        <time>2025-02-12T09:27:51.733Z</time>
      </trkpt>
      <trkpt lat="58.68831197731197" lon="13.761601997539401">
        <ele>55.76</ele>
        <time>2025-02-12T09:28:36.412Z</time>
      </trkpt>
      <trkpt lat="58.68839395232499" lon="13.761676931753755">
        <ele>55.83</ele>
        <time>2025-02-12T09:29:21.093Z</time>
      </trkpt>
      <trkpt lat="58.688472993671894" lon="13.76175194978714">
        <ele>55.9</ele>
        <time>2025-02-12T09:30:05.775Z</time>
      </trkpt>
      <trkpt lat="58.68855094537139" lon="13.761829985305667">
        <ele>55.98</ele>
        <time>2025-02-12T09:30:50.459Z</time>
      </trkpt>
      <trkpt lat="58.688625963404775" lon="13.761911960318685">
        <ele>56.06</ele>
        <time>2025-02-12T09:31:35.144Z</time>
      </trkpt>
      <trkpt lat="58.688688995316625" lon="13.762011956423521">
        <ele>56.13</ele>
        <time>2025-02-12T09:32:19.830Z</time>
      </trkpt>
      <trkpt lat="58.68874993175268" lon="13.762128967791796">
        <ele>56.21</ele>
        <time>2025-02-12T09:33:04.518Z</time>
      </trkpt>
      <trkpt lat="58.68880793452263" lon="13.762256959453225">
        <ele>56.29</ele>
        <time>2025-02-12T09:33:49.207Z</time>
      </trkpt>
      <trkpt lat="58.68885797448456" lon="13.762390986084938">
        <ele>56.36</ele>
        <time>2025-02-12T09:34:33.897Z</time>
      </trkpt>
      <trkpt lat="58.68889896199107" lon="13.762532975524664">
        <ele>56.43</ele>
        <time>2025-02-12T09:35:18.589Z</time>
      </trkpt>
      <trkpt lat="58.68893198668957" lon="13.762680999934673">
        <ele>56.51</ele>
        <time>2025-02-12T09:36:03.282Z</time>
      </trkpt>
      <trkpt lat="58.68895495310426" lon="13.762832963839173">
        <ele>56.59</ele>
        <time>2025-02-12T09:36:47.976Z</time>
      </trkpt>
      <trkpt lat="58.688970962539315" lon="13.762987945228815">
        <ele>56.67</ele>
        <time>2025-02-12T09:37:32.672Z</time>
      </trkpt>
      <trkpt lat="58.68898697197437" lon="13.76314694993198">
        <ele>56.74</ele>
        <time>2025-02-12T09:38:17.369Z</time>
      </trkpt>
      <trkpt lat="58.68899996392429" lon="13.763306960463524">
        <ele>56.82</ele>
        <time>2025-02-12T09:39:02.068Z</time>
      </trkpt>
      <trkpt lat="58.689011950045824" lon="13.763463953509927">
        <ele>56.9</ele>
        <time>2025-02-12T09:39:46.768Z</time>
      </trkpt>
      <trkpt lat="58.68902293033898" lon="13.763623964041471">
        <ele>56.98</ele>
        <time>2025-02-12T09:40:31.469Z</time>
      </trkpt>
      <trkpt lat="58.689033994451165" lon="13.763777939602733">
        <ele>57.05</ele>
        <time>2025-02-12T09:41:16.171Z</time>
      </trkpt>
      <trkpt lat="58.68904396891594" lon="13.763934932649136">
        <ele>57.12</ele>
        <time>2025-02-12T09:42:00.875Z</time>
      </trkpt>
      <trkpt lat="58.68904698640108" lon="13.764090919867158">
        <ele>57.19</ele>
        <time>2025-02-12T09:42:45.580Z</time>
      </trkpt>
      <trkpt lat="58.68905193172395" lon="13.764245985075831">
        <ele>57.26</ele>
        <time>2025-02-12T09:43:30.286Z</time>
      </trkpt>
      <trkpt lat="58.689056960865855" lon="13.76439493149519">
        <ele>57.32</ele>
        <time>2025-02-12T09:44:14.994Z</time>
      </trkpt>
      <trkpt lat="58.68906492367387" lon="13.764536920934916">
        <ele>57.39</ele>
        <time>2025-02-12T09:44:59.703Z</time>
      </trkpt>
      <trkpt lat="58.68907397612929" lon="13.764680922031403">
        <ele>57.45</ele>
        <time>2025-02-12T09:45:44.413Z</time>
      </trkpt>
      <trkpt lat="58.68908797390759" lon="13.76482492312789">
        <ele>57.51</ele>
        <time>2025-02-12T09:46:29.124Z</time>
      </trkpt>
      <trkpt lat="58.68909694254398" lon="13.764965990558267">
        <ele>57.57</ele>
        <time>2025-02-12T09:47:13.836Z</time>
      </trkpt>
      <trkpt lat="58.68910691700876" lon="13.765108985826373">
        <ele>57.64</ele>
        <time>2025-02-12T09:47:58.550Z</time>
      </trkpt>
      <trkpt lat="58.689117981120944" lon="13.76525198109448">
        <ele>57.7</ele>
        <time>2025-02-12T09:48:43.265Z</time>
      </trkpt>
      <trkpt lat="58.689120998606086" lon="13.765397993847728">
        <ele>57.77</ele>
        <time>2025-02-12T09:49:27.981Z</time>
      </trkpt>
      <trkpt lat="58.689119992777705" lon="13.765540989115834">
        <ele>57.83</ele>
        <time>2025-02-12T09:50:12.698Z</time>
      </trkpt>
      <trkpt lat="58.6891149636358" lon="13.765680966898799">
        <ele>57.89</ele>
        <time>2025-02-12T09:50:57.416Z</time>
      </trkpt>
      <trkpt lat="58.68910297751427" lon="13.765820944681764">
        <ele>57.96</ele>
        <time>2025-02-12T09:51:42.136Z</time>
      </trkpt>
      <trkpt lat="58.68908998556435" lon="13.765955977141857">
        <ele>58.02</ele>
        <time>2025-02-12T09:52:26.857Z</time>
      </trkpt>
      <trkpt lat="58.68907397612929" lon="13.766090925782919">
        <ele>58.09</ele>
        <time>2025-02-12T09:53:11.579Z</time>
      </trkpt>
      <trkpt lat="58.689056960865855" lon="13.76622092910111">
        <ele>58.16</ele>
        <time>2025-02-12T09:53:56.302Z</time>
      </trkpt>
      <trkpt lat="58.689038939774036" lon="13.766344981268048">
        <ele>58.22</ele>
        <time>2025-02-12T09:54:41.026Z</time>
      </trkpt>
      <trkpt lat="58.68901697918773" lon="13.766461992636323">
        <ele>58.28</ele>
        <time>2025-02-12T09:55:25.751Z</time>
      </trkpt>
      <trkpt lat="58.68900096975267" lon="13.766576992347836">
        <ele>58.34</ele>
        <time>2025-02-12T09:56:10.477Z</time>
      </trkpt>
      <trkpt lat="58.688989989459515" lon="13.766682939603925">
        <ele>58.41</ele>
        <time>2025-02-12T09:56:55.204Z</time>
      </trkpt>
      <trkpt lat="58.68898194283247" lon="13.766797939315438">
        <ele>58.47</ele>
        <time>2025-02-12T09:57:39.932Z</time>
      </trkpt>
      <trkpt lat="58.68897892534733" lon="13.7669069878757">
        <ele>58.53</ele>
        <time>2025-02-12T09:58:24.661Z</time>
      </trkpt>
      <trkpt lat="58.68897993117571" lon="13.767013940960169">
        <ele>58.59</ele>
        <time>2025-02-12T09:59:09.391Z</time>
      </trkpt>
      <trkpt lat="58.68898093700409" lon="13.76712298952043">
        <ele>58.64</ele>
        <time>2025-02-12T09:59:54.122Z</time>
      </trkpt>
      <trkpt lat="58.688988983631134" lon="13.76723094843328">
        <ele>58.7</ele>
        <time>2025-02-12T10:00:38.854Z</time>
      </trkpt>
      <trkpt lat="58.68900096975267" lon="13.76733798533678">
        <ele>58.75</ele>
        <time>2025-02-12T10:01:23.587Z</time>
      </trkpt>
      <trkpt lat="58.689011950045824" lon="13.76744493842125">
        <ele>58.81</ele>
        <time>2025-02-12T10:02:08.320Z</time>
      </trkpt>
      <trkpt lat="58.68902091868222" lon="13.767553986981511">
        <ele>58.87</ele>
        <time>2025-02-12T10:02:53.054Z</time>
      </trkpt>
      <trkpt lat="58.689032988622785" lon="13.767664963379502">
        <ele>58.93</ele>
        <time>2025-02-12T10:03:37.789Z</time>
      </trkpt>
      <trkpt lat="58.68904799222946" lon="13.767777951434255">
        <ele>58.98</ele>
        <time>2025-02-12T10:04:22.525Z</time>
      </trkpt>
      <trkpt lat="58.68906592950225" lon="13.767900997772813">
        <ele>59.04</ele>
        <time>2025-02-12T10:05:07.262Z</time>
      </trkpt>
      <trkpt lat="58.689081938937306" lon="13.768028989434242">
        <ele>59.09</ele>
        <time>2025-02-12T10:05:52.001Z</time>
      </trkpt>
      <trkpt lat="58.68909392505884" lon="13.768159998580813">
        <ele>59.15</ele>
        <time>2025-02-12T10:06:36.741Z</time>
      </trkpt>
      <trkpt lat="58.68910892866552" lon="13.768286984413862">
        <ele>59.2</ele>
        <time>2025-02-12T10:07:21.482Z</time>
      </trkpt>
      <trkpt lat="58.689122926443815" lon="13.768419921398163">
        <ele>59.25</ele>
        <time>2025-02-12T10:08:06.224Z</time>
      </trkpt>
      <trkpt lat="58.689133990556" lon="13.768548918887973">
        <ele>59.31</ele>
        <time>2025-02-12T10:08:50.967Z</time>
      </trkpt>
      <trkpt lat="58.689140947535634" lon="13.768677916377783">
        <ele>59.36</ele>
        <time>2025-02-12T10:09:35.711Z</time>
      </trkpt>
      <trkpt lat="58.68915192782879" lon="13.768805991858244">
        <ele>59.41</ele>
        <time>2025-02-12T10:10:20.456Z</time>
      </trkpt>
      <trkpt lat="58.689164919778705" lon="13.768933983519673">
        <ele>59.46</ele>
        <time>2025-02-12T10:11:05.202Z</time>
      </trkpt>
      <trkpt lat="58.68917095474899" lon="13.769062981009483">
        <ele>59.51</ele>
        <time>2025-02-12T10:11:49.949Z</time>
      </trkpt>
      <trkpt lat="58.68917196057737" lon="13.769194995984435">
        <ele>59.56</ele>
        <time>2025-02-12T10:12:34.697Z</time>
      </trkpt>
      <trkpt lat="58.68917698971927" lon="13.769330950453877">
        <ele>59.61</ele>
        <time>2025-02-12T10:13:19.447Z</time>
      </trkpt>
      <trkpt lat="58.689184952527285" lon="13.769470928236842">
        <ele>59.67</ele>
        <time>2025-02-12T10:14:04.198Z</time>
      </trkpt>
      <trkpt lat="58.68919593282044" lon="13.769617946818471">
        <ele>59.72</ele>
        <time>2025-02-12T10:14:48.950Z</time>
      </trkpt>
      <trkpt lat="58.689205991104245" lon="13.769773934036493">
        <ele>59.77</ele>
        <time>2025-02-12T10:15:33.703Z</time>
      </trkpt>
      <trkpt lat="58.68921395391226" lon="13.769933944568038">
        <ele>59.82</ele>
        <time>2025-02-12T10:16:18.458Z</time>
      </trkpt>
      <trkpt lat="58.68922191672027" lon="13.770093955099583">
        <ele>59.86</ele>
        <time>2025-02-12T10:17:03.214Z</time>
      </trkpt>
      <trkpt lat="58.68923499248922" lon="13.770252959802747">
        <ele>59.91</ele>
        <time>2025-02-12T10:17:47.971Z</time>
      </trkpt>
      <trkpt lat="58.689252929762006" lon="13.770406935364008">
        <ele>59.95</ele>
        <time>2025-02-12T10:18:32.730Z</time>
      </trkpt>
      <trkpt lat="58.689273968338966" lon="13.770555965602398">
        <ele>59.99</ele>
        <time>2025-02-12T10:19:17.490Z</time>
      </trkpt>
      <trkpt lat="58.689294923096895" lon="13.770703990012407">
        <ele>60.03</ele>
        <time>2025-02-12T10:20:02.251Z</time>
      </trkpt>
      <trkpt lat="58.68932392448187" lon="13.77084095031023">
        <ele>60.06</ele>
        <time>2025-02-12T10:20:47.013Z</time>
      </trkpt>
      <trkpt lat="58.689358960837126" lon="13.77096894197166">
        <ele>60.1</ele>
        <time>2025-02-12T10:21:31.777Z</time>
      </trkpt>
      <trkpt lat="58.68939592503011" lon="13.771096933633089">
        <ele>60.13</ele>
        <time>2025-02-12T10:22:16.542Z</time>
      </trkpt>
      <trkpt lat="58.68943892419338" lon="13.771221991628408">
        <ele>60.16</ele>
        <time>2025-02-12T10:23:01.308Z</time>
      </trkpt>
      <trkpt lat="58.68948192335665" lon="13.771351994946599">
        <ele>60.21</ele>
        <time>2025-02-12T10:23:46.075Z</time>
      </trkpt>
      <trkpt lat="58.68952098302543" lon="13.771490966901183">
        <ele>60.25</ele>
        <time>2025-02-12T10:24:30.844Z</time>
      </trkpt>
      <trkpt lat="58.68955995887518" lon="13.771624993532896">
        <ele>60.28</ele>
        <time>2025-02-12T10:25:15.614Z</time>
      </trkpt>
      <trkpt lat="58.689593989402056" lon="13.77176497131586">
        <ele>60.32</ele>
        <time>2025-02-12T10:26:00.385Z</time>
      </trkpt>
      <trkpt lat="58.68961192667484" lon="13.77191299572587">
        <ele>60.35</ele>
        <time>2025-02-12T10:26:45.158Z</time>
      </trkpt>
      <trkpt lat="58.68962693028152" lon="13.772071916610003">
        <ele>60.38</ele>
        <time>2025-02-12T10:27:29.932Z</time>
      </trkpt>
      <trkpt lat="58.689639922231436" lon="13.772232932969928">
        <ele>60.41</ele>
        <time>2025-02-12T10:28:14.707Z</time>
      </trkpt>
      <trkpt lat="58.68965299800038" lon="13.77238992601633">
        <ele>60.44</ele>
        <time>2025-02-12T10:28:59.484Z</time>
      </trkpt>
      <trkpt lat="58.68967294692993" lon="13.772545997053385">
        <ele>60.47</ele>
        <time>2025-02-12T10:29:44.262Z</time>
      </trkpt>
      <trkpt lat="58.68969499133527" lon="13.772695949301124">
        <ele>60.49</ele>
        <time>2025-02-12T10:30:29.041Z</time>
      </trkpt>
      <trkpt lat="58.68971192277968" lon="13.772847997024655">
        <ele>60.52</ele>
        <time>2025-02-12T10:31:13.821Z</time>
      </trkpt>
      <trkpt lat="58.68973195552826" lon="13.772999960929155">
        <ele>60.54</ele>
        <time>2025-02-12T10:31:58.603Z</time>
      </trkpt>
      <trkpt lat="58.68975098244846" lon="13.773155948147178">
        <ele>60.57</ele>
        <time>2025-02-12T10:32:43.386Z</time>
      </trkpt>
      <trkpt lat="58.689764980226755" lon="13.773306990042329">
        <ele>60.6</ele>
        <time>2025-02-12T10:33:28.170Z</time>
      </trkpt>
      <trkpt lat="58.6897849291563" lon="13.77346096560359">
        <ele>60.62</ele>
        <time>2025-02-12T10:34:12.956Z</time>
      </trkpt>
      <trkpt lat="58.6897989269346" lon="13.773618964478374">
        <ele>60.64</ele>
        <time>2025-02-12T10:34:57.743Z</time>
      </trkpt>
      <trkpt lat="58.68981393054128" lon="13.773773945868015">
        <ele>60.66</ele>
        <time>2025-02-12T10:35:42.531Z</time>
      </trkpt>
      <trkpt lat="58.68982692249119" lon="13.773924987763166">
        <ele>60.69</ele>
        <time>2025-02-12T10:36:27.321Z</time>
      </trkpt>
      <trkpt lat="58.689832957461476" lon="13.774073934182525">
        <ele>60.71</ele>
        <time>2025-02-12T10:37:12.112Z</time>
      </trkpt>
      <trkpt lat="58.68983999826014" lon="13.774224976077676">
        <ele>60.73</ele>
        <time>2025-02-12T10:37:56.904Z</time>
      </trkpt>
      <trkpt lat="58.689849972724915" lon="13.774376939982176">
        <ele>60.76</ele>
        <time>2025-02-12T10:38:41.697Z</time>
      </trkpt>
      <trkpt lat="58.68986497633159" lon="13.774531921371818">
        <ele>60.78</ele>
        <time>2025-02-12T10:39:26.492Z</time>
      </trkpt>
      <trkpt lat="58.68987696245313" lon="13.77468497492373">
        <ele>60.8</ele>
        <time>2025-02-12T10:40:11.288Z</time>
      </trkpt>
      <trkpt lat="58.68987796828151" lon="13.77483693882823">
        <ele>60.81</ele>
        <time>2025-02-12T10:40:56.085Z</time>
      </trkpt>
      <trkpt lat="58.68988794274628" lon="13.774982951581478">
        <ele>60.83</ele>
        <time>2025-02-12T10:41:40.884Z</time>
      </trkpt>
      <trkpt lat="58.6899059638381" lon="13.775132987648249">
        <ele>60.85</ele>
        <time>2025-02-12T10:42:25.684Z</time>
      </trkpt>
      <trkpt lat="58.68992993608117" lon="13.775282939895988">
        <ele>60.86</ele>
        <time>2025-02-12T10:43:10.485Z</time>
      </trkpt>
      <trkpt lat="58.689960949122906" lon="13.775426940992475">
        <ele>60.86</ele>
        <time>2025-02-12T10:43:55.287Z</time>
      </trkpt>
      <trkpt lat="58.689997997134924" lon="13.775561973452568">
        <ele>60.87</ele>
        <time>2025-02-12T10:44:40.091Z</time>
      </trkpt>
      <trkpt lat="58.69003194384277" lon="13.7756949942559">
        <ele>60.88</ele>
        <time>2025-02-12T10:45:24.896Z</time>
      </trkpt>
      <trkpt lat="58.690070919692516" lon="13.77582399174571">
        <ele>60.88</ele>
        <time>2025-02-12T10:46:09.702Z</time>
      </trkpt>
      <trkpt lat="58.69011492468417" lon="13.775948965921998">
        <ele>60.89</ele>
        <time>2025-02-12T10:46:54.509Z</time>
      </trkpt>
      <trkpt lat="58.69016094133258" lon="13.77607997506857">
        <ele>60.89</ele>
        <time>2025-02-12T10:47:39.318Z</time>
      </trkpt>
      <trkpt lat="58.69020896963775" lon="13.77620997838676">
        <ele>60.89</ele>
        <time>2025-02-12T10:48:24.128Z</time>
      </trkpt>
      <trkpt lat="58.69025398045778" lon="13.776341993361712">
        <ele>60.9</ele>
        <time>2025-02-12T10:49:08.939Z</time>
      </trkpt>
      <trkpt lat="58.69029496796429" lon="13.776477947831154">
        <ele>60.89</ele>
        <time>2025-02-12T10:49:53.752Z</time>
      </trkpt>
      <trkpt lat="58.69033293798566" lon="13.77661599777639">
        <ele>60.89</ele>
        <time>2025-02-12T10:50:38.566Z</time>
      </trkpt>
      <trkpt lat="58.690365962684155" lon="13.776758993044496">
        <ele>60.88</ele>
        <time>2025-02-12T10:51:23.381Z</time>
      </trkpt>
      <trkpt lat="58.69039295241237" lon="13.776902994140983">
        <ele>60.88</ele>
        <time>2025-02-12T10:52:08.198Z</time>
      </trkpt>
      <trkpt lat="58.69041994214058" lon="13.7770489230752">
        <ele>60.87</ele>
        <time>2025-02-12T10:52:53.016Z</time>
      </trkpt>
      <trkpt lat="58.690453972667456" lon="13.777190996333957">
        <ele>60.86</ele>
        <time>2025-02-12T10:53:37.835Z</time>
      </trkpt>
      <trkpt lat="58.69048096239567" lon="13.777343966066837">
        <ele>60.85</ele>
        <time>2025-02-12T10:54:22.656Z</time>
      </trkpt>
      <trkpt lat="58.69050392881036" lon="13.777502970770001">
        <ele>60.84</ele>
        <time>2025-02-12T10:55:07.478Z</time>
      </trkpt>
      <trkpt lat="58.6905259732157" lon="13.777662981301546">
        <ele>60.83</ele>
        <time>2025-02-12T10:55:52.301Z</time>
      </trkpt>
      <trkpt lat="58.69055095128715" lon="13.77782299183309">
        <ele>60.81</ele>
        <time>2025-02-12T10:56:37.126Z</time>
      </trkpt>
      <trkpt lat="58.69057693518698" lon="13.777979984879494">
        <ele>60.8</ele>
        <time>2025-02-12T10:57:21.952Z</time>
      </trkpt>
      <trkpt lat="58.690603924915195" lon="13.778131948783994">
        <ele>60.78</ele>
        <time>2025-02-12T10:58:06.779Z</time>
      </trkpt>
      <trkpt lat="58.69062898680568" lon="13.778284918516874">
        <ele>60.77</ele>
        <time>2025-02-12T10:58:51.608Z</time>
      </trkpt>
      <trkpt lat="58.69065295904875" lon="13.778429925441742">
        <ele>60.76</ele>
        <time>2025-02-12T10:59:36.438Z</time>
      </trkpt>
      <trkpt lat="58.6906779371202" lon="13.778565963730216">
        <ele>60.74</ele>
        <time>2025-02-12T11:00:21.269Z</time>
      </trkpt>
      <trkpt lat="58.69069998152554" lon="13.778706947341561">
        <ele>60.73</ele>
        <time>2025-02-12T11:01:06.102Z</time>
      </trkpt>
      <trkpt lat="58.69071791879833" lon="13.778849942609668">
        <ele>60.71</ele>
        <time>2025-02-12T11:01:50.936Z</time>
      </trkpt>
      <trkpt lat="58.69073795154691" lon="13.778984975069761">
        <ele>60.69</ele>
        <time>2025-02-12T11:02:35.771Z</time>
      </trkpt>
      <trkpt lat="58.69075798429549" lon="13.779108943417668">
        <ele>60.67</ele>
        <time>2025-02-12T11:03:20.607Z</time>
      </trkpt>
      <trkpt lat="58.6907799448818" lon="13.779222937300801">
        <ele>60.64</ele>
        <time>2025-02-12T11:04:05.444Z</time>
      </trkpt>
      <trkpt lat="58.69080198928714" lon="13.779321927577257">
        <ele>60.62</ele>
        <time>2025-02-12T11:04:50.282Z</time>
      </trkpt>
      <trkpt lat="58.69083099067211" lon="13.779408931732178">
        <ele>60.58</ele>
        <time>2025-02-12T11:05:35.121Z</time>
      </trkpt>
      <trkpt lat="58.69086594320834" lon="13.779472969472408">
        <ele>60.55</ele>
        <time>2025-02-12T11:06:19.961Z</time>
      </trkpt>
      <trkpt lat="58.690907936543226" lon="13.77949995920062">
        <ele>60.52</ele>
        <time>2025-02-12T11:07:04.801Z</time>
      </trkpt>
      <trkpt lat="58.69095998816192" lon="13.77947892062366">
        <ele>60.48</ele>
        <time>2025-02-12T11:07:49.642Z</time>
      </trkpt>
      <trkpt lat="58.69101899676025" lon="13.779437933117151">
        <ele>60.44</ele>
        <time>2025-02-12T11:08:34.484Z</time>
      </trkpt>
      <trkpt lat="58.69107096455991" lon="13.779375990852714">
        <ele>60.4</ele>
        <time>2025-02-12T11:09:19.327Z</time>
      </trkpt>
      <trkpt lat="58.69112494401634" lon="13.779312958940864">
        <ele>60.36</ele>
        <time>2025-02-12T11:10:04.171Z</time>
      </trkpt>
      <trkpt lat="58.69118093512952" lon="13.779249927029014">
        <ele>60.32</ele>
        <time>2025-02-12T11:10:49.016Z</time>
      </trkpt>
      <trkpt lat="58.69123692624271" lon="13.779187984764576">
        <ele>60.28</ele>
        <time>2025-02-12T11:11:33.862Z</time>
      </trkpt>
      <trkpt lat="58.691289983689785" lon="13.779126964509487">
        <ele>60.24</ele>
        <time>2025-02-12T11:12:18.709Z</time>
      </trkpt>
      <trkpt lat="58.69134094566107" lon="13.77906896173954">
        <ele>60.2</ele>
        <time>2025-02-12T11:13:03.557Z</time>
      </trkpt>
      <trkpt lat="58.69139199145138" lon="13.779014982283115">
        <ele>60.15</ele>
        <time>2025-02-12T11:13:48.406Z</time>
      </trkpt>
      <trkpt lat="58.691442953422666" lon="13.7789639364928">
        <ele>60.11</ele>
        <time>2025-02-12T11:14:33.256Z</time>
      </trkpt>
      <trkpt lat="58.69149198755622" lon="13.778913980349898">
        <ele>60.06</ele>
        <time>2025-02-12T11:15:18.107Z</time>
      </trkpt>
      <trkpt lat="58.69154194369912" lon="13.778864946216345">
        <ele>60.01</ele>
        <time>2025-02-12T11:16:02.959Z</time>
      </trkpt>
      <trkpt lat="58.691590977832675" lon="13.778818929567933">
        <ele>59.96</ele>
        <time>2025-02-12T11:16:47.812Z</time>
      </trkpt>
      <trkpt lat="58.6916399281472" lon="13.778772996738553">
        <ele>59.91</ele>
        <time>2025-02-12T11:17:32.666Z</time>
      </trkpt>
      <trkpt lat="58.69169097393751" lon="13.778728991746902">
        <ele>59.85</ele>
        <time>2025-02-12T11:18:17.520Z</time>
      </trkpt>
      <trkpt lat="58.69174595922232" lon="13.77868096344173">
        <ele>59.79</ele>
        <time>2025-02-12T11:19:02.375Z</time>
      </trkpt>
      <trkpt lat="58.691806979477406" lon="13.778627989813685">
        <ele>59.73</ele>
        <time>2025-02-12T11:19:47.231Z</time>
      </trkpt>
      <trkpt lat="58.69186892174184" lon="13.778573926538229">
        <ele>59.67</ele>
        <time>2025-02-12T11:20:32.089Z</time>
      </trkpt>
      <trkpt lat="58.691932959482074" lon="13.778520952910185">
        <ele>59.61</ele>
        <time>2025-02-12T11:21:16.948Z</time>
      </trkpt>
      <trkpt lat="58.69199791923165" lon="13.778472924605012">
        <ele>59.55</ele>
        <time>2025-02-12T11:22:01.808Z</time>
      </trkpt>
      <trkpt lat="58.69206698611379" lon="13.778431937098503">
        <ele>59.5</ele>
        <time>2025-02-12T11:22:46.669Z</time>
      </trkpt>
      <trkpt lat="58.69213596917689" lon="13.778396984562278">
        <ele>59.43</ele>
        <time>2025-02-12T11:23:31.531Z</time>
      </trkpt>
      <trkpt lat="58.69220696389675" lon="13.778369994834065">
        <ele>59.37</ele>
        <time>2025-02-12T11:24:16.394Z</time>
      </trkpt>
      <trkpt lat="58.692279970273376" lon="13.778354991227388">
        <ele>59.3</ele>
        <time>2025-02-12T11:25:01.258Z</time>
      </trkpt>
      <trkpt lat="58.69235297665" lon="13.778347950428724">
        <ele>59.24</ele>
        <time>2025-02-12T11:25:46.124Z</time>
      </trkpt>
      <trkpt lat="58.69242497719824" lon="13.778351973742247">
        <ele>59.17</ele>
        <time>2025-02-12T11:26:30.991Z</time>
      </trkpt>
      <trkpt lat="58.69249999523163" lon="13.77836194820702">
        <ele>59.1</ele>
        <time>2025-02-12T11:27:15.859Z</time>
      </trkpt>
      <trkpt lat="58.6925739236176" lon="13.778372928500175">
        <ele>59.03</ele>
        <time>2025-02-12T11:28:00.728Z</time>
      </trkpt>
      <trkpt lat="58.692645924165845" lon="13.778391955420375">
        <ele>58.96</ele>
        <time>2025-02-12T11:28:45.598Z</time>
      </trkpt>
      <trkpt lat="58.69271893054247" lon="13.77842498011887">
        <ele>58.88</ele>
        <time>2025-02-12T11:29:30.470Z</time>
      </trkpt>
      <trkpt lat="58.692792942747474" lon="13.778471918776631">
        <ele>58.81</ele>
        <time>2025-02-12T11:30:15.343Z</time>
      </trkpt>
      <trkpt lat="58.6928659491241" lon="13.778530927374959">
        <ele>58.72</ele>
        <time>2025-02-12T11:31:00.217Z</time>
      </trkpt>
      <trkpt lat="58.69293794967234" lon="13.778599994257092">
        <ele>58.64</ele>
        <time>2025-02-12T11:31:45.092Z</time>
      </trkpt>
      <trkpt lat="58.693009950220585" lon="13.778671994805336">
        <ele>58.55</ele>
        <time>2025-02-12T11:32:29.969Z</time>
      </trkpt>
      <trkpt lat="58.69308597408235" lon="13.77874399535358">
        <ele>58.46</ele>
        <time>2025-02-12T11:33:14.847Z</time>
      </trkpt>
      <trkpt lat="58.69316694326699" lon="13.77881096675992">
        <ele>58.37</ele>
        <time>2025-02-12T11:33:59.726Z</time>
      </trkpt>
      <trkpt lat="58.69325092993677" lon="13.778869975358248">
        <ele>58.28</ele>
        <time>2025-02-12T11:34:44.607Z</time>
      </trkpt>
      <trkpt lat="58.693335922434926" lon="13.77891993150115">
        <ele>58.18</ele>
        <time>2025-02-12T11:35:29.489Z</time>
      </trkpt>
      <trkpt lat="58.69342393241823" lon="13.778946921229362">
        <ele>58.09</ele>
        <time>2025-02-12T11:36:14.373Z</time>
      </trkpt>
      <trkpt lat="58.69351495988667" lon="13.778952956199646">
        <ele>57.98</ele>
        <time>2025-02-12T11:36:59.258Z</time>
      </trkpt>
      <trkpt lat="58.69360598735511" lon="13.778936946764588">
        <ele>57.88</ele>
        <time>2025-02-12T11:37:44.145Z</time>
      </trkpt>
      <trkpt lat="58.693696931004524" lon="13.778899982571602">
        <ele>57.78</ele>
        <time>2025-02-12T11:38:29.033Z</time>
      </trkpt>
      <trkpt lat="58.693785946816206" lon="13.778847930952907">
        <ele>57.67</ele>
        <time>2025-02-12T11:39:13.923Z</time>
      </trkpt>
      <trkpt lat="58.69387295097113" lon="13.77878992818296">
        <ele>57.56</ele>
        <time>2025-02-12T11:39:58.814Z</time>
      </trkpt>
      <trkpt lat="58.69396196678281" lon="13.778741983696818">
        <ele>57.46</ele>
        <time>2025-02-12T11:40:43.707Z</time>
      </trkpt>
      <trkpt lat="58.6940539162606" lon="13.778711976483464">
        <ele>57.35</ele>
        <time>2025-02-12T11:41:28.601Z</time>
      </trkpt>
      <trkpt lat="58.69414494372904" lon="13.778694961220026">
        <ele>57.24</ele>
        <time>2025-02-12T11:42:13.497Z</time>
      </trkpt>
      <trkpt lat="58.694232953712344" lon="13.778685992583632">
        <ele>57.13</ele>
        <time>2025-02-12T11:42:58.394Z</time>
      </trkpt>
      <trkpt lat="58.694319957867265" lon="13.77868096344173">
        <ele>57.04</ele>
        <time>2025-02-12T11:43:43.292Z</time>
      </trkpt>
      <trkpt lat="58.694404950365424" lon="13.778672916814685">
        <ele>56.94</ele>
        <time>2025-02-12T11:44:28.192Z</time>
      </trkpt>
      <trkpt lat="58.6944889370352" lon="13.778666965663433">
        <ele>56.84</ele>
        <time>2025-02-12T11:45:13.093Z</time>
      </trkpt>
      <trkpt lat="58.69457099586725" lon="13.77865799702704">
        <ele>56.74</ele>
        <time>2025-02-12T11:45:57.995Z</time>
      </trkpt>
      <trkpt lat="58.69465196505189" lon="13.77863897010684">
        <ele>56.63</ele>
        <time>2025-02-12T11:46:42.899Z</time>
      </trkpt>
      <trkpt lat="58.69473293423653" lon="13.77861994318664">
        <ele>56.52</ele>
        <time>2025-02-12T11:47:27.804Z</time>
      </trkpt>
      <trkpt lat="58.69481096975505" lon="13.778604939579964">
        <ele>56.41</ele>
        <time>2025-02-12T11:48:12.710Z</time>
      </trkpt>
      <trkpt lat="58.69488892145455" lon="13.77859496511519">
        <ele>56.3</ele>
        <time>2025-02-12T11:48:57.618Z</time>
      </trkpt>
      <trkpt lat="58.694965951144695" lon="13.77859597094357">
        <ele>56.18</ele>
        <time>2025-02-12T11:49:42.527Z</time>
      </trkpt>
      <trkpt lat="58.69504197500646" lon="13.778606951236725">
        <ele>56.06</ele>
        <time>2025-02-12T11:50:27.437Z</time>
      </trkpt>
      <trkpt lat="58.695118920877576" lon="13.778622960671782">
        <ele>55.94</ele>
        <time>2025-02-12T11:51:12.348Z</time>
      </trkpt>
      <trkpt lat="58.69519595056772" lon="13.778641987591982">
        <ele>55.82</ele>
        <time>2025-02-12T11:51:57.260Z</time>
      </trkpt>
      <trkpt lat="58.69527197442949" lon="13.778668977320194">
        <ele>55.69</ele>
        <time>2025-02-12T11:52:42.174Z</time>
      </trkpt>
      <trkpt lat="58.695351937785745" lon="13.778707953169942">
        <ele>55.57</ele>
        <time>2025-02-12T11:53:27.089Z</time>
      </trkpt>
      <trkpt lat="58.69543299078941" lon="13.778752963989973">
        <ele>55.44</ele>
        <time>2025-02-12T11:54:12.005Z</time>
      </trkpt>
      <trkpt lat="58.69551597163081" lon="13.778802920132875">
        <ele>55.31</ele>
        <time>2025-02-12T11:54:56.923Z</time>
      </trkpt>
      <trkpt lat="58.69559895247221" lon="13.778857989236712">
        <ele>55.19</ele>
        <time>2025-02-12T11:55:41.842Z</time>
      </trkpt>
      <trkpt lat="58.69568092748523" lon="13.778913980349898">
        <ele>55.06</ele>
        <time>2025-02-12T11:56:26.763Z</time>
      </trkpt>
      <trkpt lat="58.69576399214566" lon="13.7789639364928">
        <ele>54.94</ele>
        <time>2025-02-12T11:57:11.685Z</time>
      </trkpt>
      <trkpt lat="58.695845967158675" lon="13.77900492399931">
        <ele>54.81</ele>
        <time>2025-02-12T11:57:56.608Z</time>
      </trkpt>
      <trkpt lat="58.69592894800007" lon="13.779032919555902">
        <ele>54.69</ele>
        <time>2025-02-12T11:58:41.533Z</time>
      </trkpt>
      <trkpt lat="58.696017963811755" lon="13.779050940647721">
        <ele>54.56</ele>
        <time>2025-02-12T11:59:26.459Z</time>
      </trkpt>
      <trkpt lat="58.696101950481534" lon="13.779053958132863">
        <ele>54.44</ele>
        <time>2025-02-12T12:00:11.386Z</time>
      </trkpt>
      <trkpt lat="58.69618291966617" lon="13.779052952304482">
        <ele>54.31</ele>
        <time>2025-02-12T12:00:56.315Z</time>
      </trkpt>
      <trkpt lat="58.69626397266984" lon="13.779055969789624">
        <ele>54.19</ele>
        <time>2025-02-12T12:01:41.245Z</time>
      </trkpt>
      <trkpt lat="58.69634594768286" lon="13.779075918719172">
        <ele>54.06</ele>
        <time>2025-02-12T12:02:26.176Z</time>
      </trkpt>
      <trkpt lat="58.696426916867495" lon="13.779122941195965">
        <ele>53.93</ele>
        <time>2025-02-12T12:03:11.109Z</time>
      </trkpt>
      <trkpt lat="58.69649799540639" lon="13.779208939522505">
        <ele>53.8</ele>
        <time>2025-02-12T12:03:56.043Z</time>
      </trkpt>
      <trkpt lat="58.69656094349921" lon="13.77932796254754">
        <ele>53.67</ele>
        <time>2025-02-12T12:04:40.979Z</time>
      </trkpt>
      <trkpt lat="58.69661693461239" lon="13.779472969472408">
        <ele>53.53</ele>
        <time>2025-02-12T12:05:25.916Z</time>
      </trkpt>
      <trkpt lat="58.69667099788785" lon="13.779625939205289">
        <ele>53.4</ele>
        <time>2025-02-12T12:06:10.855Z</time>
      </trkpt>
      <trkpt lat="58.696725983172655" lon="13.779783938080072">
        <ele>53.26</ele>
        <time>2025-02-12T12:06:55.795Z</time>
      </trkpt>
      <trkpt lat="58.69678197428584" lon="13.779936991631985">
        <ele>53.13</ele>
        <time>2025-02-12T12:07:40.737Z</time>
      </trkpt>
      <trkpt lat="58.69683796539903" lon="13.780087949708104">
        <ele>53.01</ele>
        <time>2025-02-12T12:08:25.680Z</time>
      </trkpt>
      <trkpt lat="58.69689295068383" lon="13.780234968289733">
        <ele>52.88</ele>
        <time>2025-02-12T12:09:10.625Z</time>
      </trkpt>
      <trkpt lat="58.696945924311876" lon="13.78037796355784">
        <ele>52.76</ele>
        <time>2025-02-12T12:09:55.571Z</time>
      </trkpt>
      <trkpt lat="58.69699898175895" lon="13.780515929684043">
        <ele>52.64</ele>
        <time>2025-02-12T12:10:40.519Z</time>
      </trkpt>
      <trkpt lat="58.697051955386996" lon="13.780648950487375">
        <ele>52.52</ele>
        <time>2025-02-12T12:11:25.468Z</time>
      </trkpt>
      <trkpt lat="58.69710199534893" lon="13.780780965462327">
        <ele>52.4</ele>
        <time>2025-02-12T12:12:10.418Z</time>
      </trkpt>
      <trkpt lat="58.69715295732021" lon="13.78091691993177">
        <ele>52.28</ele>
        <time>2025-02-12T12:12:55.370Z</time>
      </trkpt>
      <trkpt lat="58.69720299728215" lon="13.781055975705385">
        <ele>52.17</ele>
        <time>2025-02-12T12:13:40.323Z</time>
      </trkpt>
      <trkpt lat="58.69725798256695" lon="13.78119494765997">
        <ele>52.06</ele>
        <time>2025-02-12T12:14:25.278Z</time>
      </trkpt>
      <trkpt lat="58.69731497950852" lon="13.781329980120063">
        <ele>51.95</ele>
        <time>2025-02-12T12:15:10.234Z</time>
      </trkpt>
      <trkpt lat="58.697372982278466" lon="13.781462917104363">
        <ele>51.84</ele>
        <time>2025-02-12T12:15:55.192Z</time>
      </trkpt>
      <trkpt lat="58.69743391871452" lon="13.781588980928063">
        <ele>51.74</ele>
        <time>2025-02-12T12:16:40.151Z</time>
      </trkpt>
      <trkpt lat="58.697499968111515" lon="13.781705992296338">
        <ele>51.63</ele>
        <time>2025-02-12T12:17:25.111Z</time>
      </trkpt>
      <trkpt lat="58.697569957003" lon="13.781815962865949">
        <ele>51.52</ele>
        <time>2025-02-12T12:18:10.073Z</time>
      </trkpt>
      <trkpt lat="58.69764296337962" lon="13.781918976455927">
        <ele>51.42</ele>
        <time>2025-02-12T12:18:55.036Z</time>
      </trkpt>
      <trkpt lat="58.697716975584626" lon="13.782016960904002">
        <ele>51.32</ele>
        <time>2025-02-12T12:19:40.001Z</time>
      </trkpt>
      <trkpt lat="58.69779098778963" lon="13.782108994200826">
        <ele>51.22</ele>
        <time>2025-02-12T12:20:24.967Z</time>
      </trkpt>
      <trkpt lat="58.697863994166255" lon="13.782196920365095">
        <ele>51.13</ele>
        <time>2025-02-12T12:21:09.935Z</time>
      </trkpt>
      <trkpt lat="58.69793792255223" lon="13.782282918691635">
        <ele>51.04</ele>
        <time>2025-02-12T12:21:54.904Z</time>
      </trkpt>
      <trkpt lat="58.69800891727209" lon="13.782367995008826">
        <ele>50.95</ele>
        <time>2025-02-12T12:22:39.874Z</time>
      </trkpt>
      <trkpt lat="58.698078989982605" lon="13.782456927001476">
        <ele>50.86</ele>
        <time>2025-02-12T12:23:24.846Z</time>
      </trkpt>
      <trkpt lat="58.69814998470247" lon="13.782543931156397">
        <ele>50.78</ele>
        <time>2025-02-12T12:24:09.819Z</time>
      </trkpt>
      <trkpt lat="58.69822198525071" lon="13.78263395279646">
        <ele>50.7</ele>
        <time>2025-02-12T12:24:54.793Z</time>
      </trkpt>
      <trkpt lat="58.698295997455716" lon="13.782725986093283">
        <ele>50.61</ele>
        <time>2025-02-12T12:25:39.769Z</time>
      </trkpt>
      <trkpt lat="58.69837193749845" lon="13.782816929742694">
        <ele>50.53</ele>
        <time>2025-02-12T12:26:24.746Z</time>
      </trkpt>
      <trkpt lat="58.698446955531836" lon="13.782901922240853">
        <ele>50.45</ele>
        <time>2025-02-12T12:27:09.725Z</time>
      </trkpt>
      <trkpt lat="58.6985229793936" lon="13.782984986901283">
        <ele>50.36</ele>
        <time>2025-02-12T12:27:54.705Z</time>
      </trkpt>
      <trkpt lat="58.698595985770226" lon="13.783071991056204">
        <ele>50.28</ele>
        <time>2025-02-12T12:28:39.686Z</time>
      </trkpt>
      <trkpt lat="58.69866999797523" lon="13.783160923048854">
        <ele>50.19</ele>
        <time>2025-02-12T12:29:24.669Z</time>
      </trkpt>
      <trkpt lat="58.69874292053282" lon="13.783248933032155">
        <ele>50.11</ele>
        <time>2025-02-12T12:30:09.653Z</time>
      </trkpt>
      <trkpt lat="58.69881592690945" lon="13.783334931358695">
        <ele>50.04</ele>
        <time>2025-02-12T12:30:54.639Z</time>
      </trkpt>
      <trkpt lat="58.69888792745769" lon="13.783421935513616">
        <ele>49.96</ele>
        <time>2025-02-12T12:31:39.626Z</time>
      </trkpt>
      <trkpt lat="58.698959928005934" lon="13.783508939668536">
        <ele>49.89</ele>
        <time>2025-02-12T12:32:24.614Z</time>
      </trkpt>
      <trkpt lat="58.6990309227258" lon="13.783597955480218">
        <ele>49.82</ele>
        <time>2025-02-12T12:33:09.604Z</time>
      </trkpt>
      <trkpt lat="58.69910099543631" lon="13.783684959635139">
        <ele>49.76</ele>
        <time>2025-02-12T12:33:54.595Z</time>
      </trkpt>
      <trkpt lat="58.69917098432779" lon="13.783766934648156">
        <ele>49.7</ele>
        <time>2025-02-12T12:34:39.587Z</time>
      </trkpt>
      <trkpt lat="58.699241979047656" lon="13.783843964338303">
        <ele>49.64</ele>
        <time>2025-02-12T12:35:24.581Z</time>
      </trkpt>
      <trkpt lat="58.69931599125266" lon="13.783914959058166">
        <ele>49.58</ele>
        <time>2025-02-12T12:36:09.576Z</time>
      </trkpt>
      <trkpt lat="58.699392937123775" lon="13.783983942121267">
        <ele>49.52</ele>
        <time>2025-02-12T12:36:54.572Z</time>
      </trkpt>
      <trkpt lat="58.699473990127444" lon="13.784048985689878">
        <ele>49.47</ele>
        <time>2025-02-12T12:37:39.570Z</time>
      </trkpt>
      <trkpt lat="58.699558982625604" lon="13.784109922125936">
        <ele>49.43</ele>
        <time>2025-02-12T12:38:24.569Z</time>
      </trkpt>
      <trkpt lat="58.699646992608905" lon="13.784168930724263">
        <ele>49.38</ele>
        <time>2025-02-12T12:39:09.570Z</time>
      </trkpt>
      <trkpt lat="58.699736930429935" lon="13.78422299399972">
        <ele>49.34</ele>
        <time>2025-02-12T12:39:54.572Z</time>
      </trkpt>
      <trkpt lat="58.69982594624162" lon="13.784273955971003">
        <ele>49.3</ele>
        <time>2025-02-12T12:40:39.576Z</time>
      </trkpt>
      <trkpt lat="58.69991395622492" lon="13.784321984276175">
        <ele>49.26</ele>
        <time>2025-02-12T12:41:24.581Z</time>
      </trkpt>
      <trkpt lat="58.70000096037984" lon="13.784362971782684">
        <ele>49.23</ele>
        <time>2025-02-12T12:42:09.588Z</time>
      </trkpt>
      <trkpt lat="58.70008695870638" lon="13.784401947632432">
        <ele>49.2</ele>
        <time>2025-02-12T12:42:54.596Z</time>
      </trkpt>
      <trkpt lat="58.70016993954778" lon="13.784444946795702">
        <ele>49.17</ele>
        <time>2025-02-12T12:43:39.605Z</time>
      </trkpt>
      <trkpt lat="58.70025199837983" lon="13.784491969272494">
        <ele>49.14</ele>
        <time>2025-02-12T12:44:24.616Z</time>
      </trkpt>
      <trkpt lat="58.700332967564464" lon="13.78454796038568">
        <ele>49.12</ele>
        <time>2025-02-12T12:45:09.628Z</time>
      </trkpt>
      <trkpt lat="58.7004139367491" lon="13.78461099229753">
        <ele>49.1</ele>
        <time>2025-02-12T12:45:54.642Z</time>
      </trkpt>
      <trkpt lat="58.70049297809601" lon="13.784684920683503">
        <ele>49.09</ele>
        <time>2025-02-12T12:46:39.657Z</time>
      </trkpt>
      <trkpt lat="58.700567996129394" lon="13.784764967858791">
        <ele>49.08</ele>
        <time>2025-02-12T12:47:24.673Z</time>
      </trkpt>
      <trkpt lat="58.70063999667764" lon="13.784852977842093">
        <ele>49.07</ele>
        <time>2025-02-12T12:48:09.691Z</time>
      </trkpt>
      <trkpt lat="58.7007059622556" lon="13.784944927319884">
        <ele>49.07</ele>
        <time>2025-02-12T12:48:54.710Z</time>
      </trkpt>
      <trkpt lat="58.700766982510686" lon="13.78504098393023">
        <ele>49.07</ele>
        <time>2025-02-12T12:49:39.730Z</time>
      </trkpt>
      <trkpt lat="58.70082397945225" lon="13.785137962549925">
        <ele>49.07</ele>
        <time>2025-02-12T12:50:24.752Z</time>
      </trkpt>
      <trkpt lat="58.70087997056544" lon="13.785237958654761">
        <ele>49.07</ele>
        <time>2025-02-12T12:51:09.775Z</time>
      </trkpt>
      <trkpt lat="58.70093395002186" lon="13.78534097224474">
        <ele>49.07</ele>
        <time>2025-02-12T12:51:54.799Z</time>
      </trkpt>
      <trkpt lat="58.70098499581218" lon="13.78545094281435">
        <ele>49.07</ele>
        <time>2025-02-12T12:52:39.824Z</time>
      </trkpt>
      <trkpt lat="58.70103595778346" lon="13.785567954182625">
        <ele>49.08</ele>
        <time>2025-02-12T12:53:24.850Z</time>
      </trkpt>
      <trkpt lat="58.701088931411505" lon="13.785681948065758">
        <ele>49.1</ele>
        <time>2025-02-12T12:54:09.878Z</time>
      </trkpt>
      <trkpt lat="58.70114995166659" lon="13.785783955827355">
        <ele>49.11</ele>
        <time>2025-02-12T12:54:54.907Z</time>
      </trkpt>
      <trkpt lat="58.70122094638646" lon="13.785864925011992">
        <ele>49.13</ele>
        <time>2025-02-12T12:55:39.937Z</time>
      </trkpt>
      <trkpt lat="58.701301999390125" lon="13.785916976630688">
        <ele>49.14</ele>
        <time>2025-02-12T12:56:24.969Z</time>
      </trkpt>
      <trkpt lat="58.701388919726014" lon="13.785947989672422">
        <ele>49.16</ele>
        <time>2025-02-12T12:57:10.002Z</time>
      </trkpt>
      <trkpt lat="58.701476929709315" lon="13.78596399910748">
        <ele>49.18</ele>
        <time>2025-02-12T12:57:55.037Z</time>
      </trkpt>
      <trkpt lat="58.70156695134938" lon="13.785968944430351">
        <ele>49.2</ele>
        <time>2025-02-12T12:58:40.073Z</time>
      </trkpt>
      <trkpt lat="58.70165496133268" lon="13.785970956087112">
        <ele>49.23</ele>
        <time>2025-02-12T12:59:25.110Z</time>
      </trkpt>
      <trkpt lat="58.70174095965922" lon="13.785974979400635">
        <ele>49.27</ele>
        <time>2025-02-12T13:00:10.149Z</time>
      </trkpt>
      <trkpt lat="58.701824946329" lon="13.78598595969379">
        <ele>49.3</ele>
        <time>2025-02-12T13:00:55.189Z</time>
      </trkpt>
      <trkpt lat="58.701908932998776" lon="13.786003980785608">
        <ele>49.33</ele>
        <time>2025-02-12T13:01:40.231Z</time>
      </trkpt>
      <trkpt lat="58.701992919668555" lon="13.786035999655724">
        <ele>49.37</ele>
        <time>2025-02-12T13:02:25.274Z</time>
      </trkpt>
      <trkpt lat="58.702075984328985" lon="13.786078998818994">
        <ele>49.41</ele>
        <time>2025-02-12T13:03:10.318Z</time>
      </trkpt>
      <trkpt lat="58.70215594768524" lon="13.786127949133515">
        <ele>49.45</ele>
        <time>2025-02-12T13:03:55.364Z</time>
      </trkpt>
      <trkpt lat="58.70223599486053" lon="13.786183940246701">
        <ele>49.5</ele>
        <time>2025-02-12T13:04:40.411Z</time>
      </trkpt>
      <trkpt lat="58.702314952388406" lon="13.786242948845029">
        <ele>49.55</ele>
        <time>2025-02-12T13:05:25.459Z</time>
      </trkpt>
      <trkpt lat="58.70239399373531" lon="13.786298939958215">
        <ele>49.59</ele>
        <time>2025-02-12T13:06:10.509Z</time>
      </trkpt>
      <trkpt lat="58.70247093960643" lon="13.78634998574853">
        <ele>49.64</ele>
        <time>2025-02-12T13:06:55.560Z</time>
      </trkpt>
      <trkpt lat="58.702546963468194" lon="13.786400947719812">
        <ele>49.69</ele>
        <time>2025-02-12T13:07:40.612Z</time>
      </trkpt>
      <trkpt lat="58.70261795818806" lon="13.786453921347857">
        <ele>49.75</ele>
        <time>2025-02-12T13:08:25.666Z</time>
      </trkpt>
      <trkpt lat="58.70268199592829" lon="13.786510918289423">
        <ele>49.82</ele>
        <time>2025-02-12T13:09:10.721Z</time>
      </trkpt>
      <trkpt lat="58.70273698121309" lon="13.786580990999937">
        <ele>49.88</ele>
        <time>2025-02-12T13:09:55.777Z</time>
      </trkpt>
      <trkpt lat="58.70277193374932" lon="13.78667495213449">
        <ele>49.95</ele>
        <time>2025-02-12T13:10:40.834Z</time>
      </trkpt>
      <trkpt lat="58.702782997861505" lon="13.7867849227041">
        <ele>50.02</ele>
        <time>2025-02-12T13:11:25.892Z</time>
      </trkpt>
      <trkpt lat="58.70277998037636" lon="13.786891959607601">
        <ele>50.1</ele>
        <time>2025-02-12T13:12:10.950Z</time>
      </trkpt>
      <trkpt lat="58.702763970941305" lon="13.786987932398915">
        <ele>50.17</ele>
        <time>2025-02-12T13:12:56.009Z</time>
      </trkpt>
      <trkpt lat="58.70273798704147" lon="13.787073930725455">
        <ele>50.25</ele>
        <time>2025-02-12T13:13:41.069Z</time>
      </trkpt>
      <trkpt lat="58.70270999148488" lon="13.787157917395234">
        <ele>50.33</ele>
        <time>2025-02-12T13:14:26.130Z</time>
      </trkpt>
      <trkpt lat="58.702682917937636" lon="13.787245927378535">
        <ele>50.42</ele>
        <time>2025-02-12T13:15:11.192Z</time>
      </trkpt>
      <trkpt lat="58.702658945694566" lon="13.787337960675359">
        <ele>50.51</ele>
        <time>2025-02-12T13:15:56.255Z</time>
      </trkpt>
      <trkpt lat="58.702634973451495" lon="13.787433933466673">
        <ele>50.6</ele>
        <time>2025-02-12T13:16:41.319Z</time>
      </trkpt>
      <trkpt lat="58.702609995380044" lon="13.787531917914748">
        <ele>50.69</ele>
        <time>2025-02-12T13:17:26.384Z</time>
      </trkpt>
      <trkpt lat="58.70258694514632" lon="13.787626968696713">
        <ele>50.78</ele>
        <time>2025-02-12T13:18:11.449Z</time>
      </trkpt>
      <trkpt lat="58.70256498456001" lon="13.787720929831266">
        <ele>50.88</ele>
        <time>2025-02-12T13:18:56.515Z</time>
      </trkpt>
      <trkpt lat="58.70254092849791" lon="13.787818998098373">
        <ele>50.98</ele>
        <time>2025-02-12T13:19:41.582Z</time>
      </trkpt>
      <trkpt lat="58.70251595042646" lon="13.787919916212559">
        <ele>51.08</ele>
        <time>2025-02-12T13:20:26.650Z</time>
      </trkpt>
      <trkpt lat="58.70249298401177" lon="13.788015972822905">
        <ele>51.18</ele>
        <time>2025-02-12T13:21:11.719Z</time>
      </trkpt>
      <trkpt lat="58.70246993377805" lon="13.78811496309936">
        <ele>51.29</ele>
        <time>2025-02-12T13:21:56.789Z</time>
      </trkpt>
      <trkpt lat="58.70244696736336" lon="13.788215965032578">
        <ele>51.39</ele>
        <time>2025-02-12T13:22:41.860Z</time>
      </trkpt>
      <trkpt lat="58.70242299512029" lon="13.788318978622556">
        <ele>51.5</ele>
        <time>2025-02-12T13:23:26.932Z</time>
      </trkpt>
      <trkpt lat="58.70239592157304" lon="13.788422998040915">
        <ele>51.61</ele>
        <time>2025-02-12T13:24:12.005Z</time>
      </trkpt>
      <trkpt lat="58.70236792601645" lon="13.788523999974132">
        <ele>51.72</ele>
        <time>2025-02-12T13:24:57.079Z</time>
      </trkpt>
      <trkpt lat="58.70234093628824" lon="13.78862894140184">
        <ele>51.83</ele>
        <time>2025-02-12T13:25:42.154Z</time>
      </trkpt>
      <trkpt lat="58.702314952388406" lon="13.788738995790482">
        <ele>51.95</ele>
        <time>2025-02-12T13:26:27.230Z</time>
      </trkpt>
      <trkpt lat="58.702289974316955" lon="13.788848966360092">
        <ele>52.06</ele>
        <time>2025-02-12T13:27:12.307Z</time>
      </trkpt>
      <trkpt lat="58.7022649962455" lon="13.788955919444561">
        <ele>52.17</ele>
        <time>2025-02-12T13:27:57.385Z</time>
      </trkpt>
      <trkpt lat="58.70223892852664" lon="13.789068991318345">
        <ele>52.29</ele>
        <time>2025-02-12T13:28:42.464Z</time>
      </trkpt>
      <trkpt lat="58.70221395045519" lon="13.789178961887956">
        <ele>52.41</ele>
        <time>2025-02-12T13:29:27.544Z</time>
      </trkpt>
      <trkpt lat="58.70218997821212" lon="13.789287926629186">
        <ele>52.53</ele>
        <time>2025-02-12T13:30:12.625Z</time>
      </trkpt>
      <trkpt lat="58.70216793380678" lon="13.789398986846209">
        <ele>52.65</ele>
        <time>2025-02-12T13:30:57.707Z</time>
      </trkpt>
      <trkpt lat="58.70214697904885" lon="13.789512980729342">
        <ele>52.77</ele>
        <time>2025-02-12T13:31:42.790Z</time>
      </trkpt>
      <trkpt lat="58.70212694630027" lon="13.789622951298952">
        <ele>52.9</ele>
        <time>2025-02-12T13:32:27.874Z</time>
      </trkpt>
      <trkpt lat="58.70211093686521" lon="13.789732921868563">
        <ele>53.02</ele>
        <time>2025-02-12T13:33:12.959Z</time>
      </trkpt>
      <trkpt lat="58.70209593325853" lon="13.789850939065218">
        <ele>53.14</ele>
        <time>2025-02-12T13:33:58.045Z</time>
      </trkpt>
      <trkpt lat="58.70208294130862" lon="13.789969962090254">
        <ele>53.26</ele>
        <time>2025-02-12T13:34:43.132Z</time>
      </trkpt>
      <trkpt lat="58.70207095518708" lon="13.790083955973387">
        <ele>53.38</ele>
        <time>2025-02-12T13:35:28.220Z</time>
      </trkpt>
      <trkpt lat="58.70206198655069" lon="13.790195938199759">
        <ele>53.5</ele>
        <time>2025-02-12T13:36:13.309Z</time>
      </trkpt>
      <trkpt lat="58.70205192826688" lon="13.79030498676002">
        <ele>53.62</ele>
        <time>2025-02-12T13:36:58.398Z</time>
      </trkpt>
      <trkpt lat="58.70204195380211" lon="13.790411939844489">
        <ele>53.74</ele>
        <time>2025-02-12T13:37:43.488Z</time>
      </trkpt>
      <trkpt lat="58.702034996822476" lon="13.790516965091228">
        <ele>53.86</ele>
        <time>2025-02-12T13:38:28.579Z</time>
      </trkpt>
      <trkpt lat="58.702032985165715" lon="13.790623918175697">
        <ele>53.98</ele>
        <time>2025-02-12T13:39:13.671Z</time>
      </trkpt>
      <trkpt lat="58.702037930488586" lon="13.79073397256434">
        <ele>54.1</ele>
        <time>2025-02-12T13:39:58.764Z</time>
      </trkpt>
      <trkpt lat="58.70204396545887" lon="13.79084394313395">
        <ele>54.23</ele>
        <time>2025-02-12T13:40:43.858Z</time>
      </trkpt>
      <trkpt lat="58.70204899460077" lon="13.790956931188703">
        <ele>54.35</ele>
        <time>2025-02-12T13:41:28.953Z</time>
      </trkpt>
      <trkpt lat="58.702055951580405" lon="13.791074948385358">
        <ele>54.47</ele>
        <time>2025-02-12T13:42:14.049Z</time>
      </trkpt>
      <trkpt lat="58.70206399820745" lon="13.791194977238774">
        <ele>54.59</ele>
        <time>2025-02-12T13:42:59.146Z</time>
      </trkpt>
      <trkpt lat="58.702075984328985" lon="13.79131693392992">
        <ele>54.71</ele>
        <time>2025-02-12T13:43:44.244Z</time>
      </trkpt>
      <trkpt lat="58.70209098793566" lon="13.791440986096859">
        <ele>54.84</ele>
        <time>2025-02-12T13:44:29.343Z</time>
      </trkpt>
      <trkpt lat="58.70210699737072" lon="13.791563948616385">
        <ele>54.96</ele>
        <time>2025-02-12T13:45:14.443Z</time>
      </trkpt>
      <trkpt lat="58.70212594047189" lon="13.791687916964293">
        <ele>55.08</ele>
        <time>2025-02-12T13:45:59.544Z</time>
      </trkpt>
      <trkpt lat="58.702143961563706" lon="13.79181096330285">
        <ele>55.2</ele>
        <time>2025-02-12T13:46:44.646Z</time>
      </trkpt>
      <trkpt lat="58.702160976827145" lon="13.791932919993997">
        <ele>55.31</ele>
        <time>2025-02-12T13:47:29.749Z</time>
      </trkpt>
      <trkpt lat="58.70218092575669" lon="13.792055966332555">
        <ele>55.43</ele>
        <time>2025-02-12T13:48:14.853Z</time>
      </trkpt>
      <trkpt lat="58.702203975990415" lon="13.792179934680462">
        <ele>55.55</ele>
        <time>2025-02-12T13:48:59.958Z</time>
      </trkpt>
      <trkpt lat="58.702225936576724" lon="13.7923039868474">
        <ele>55.66</ele>
        <time>2025-02-12T13:49:45.065Z</time>
      </trkpt>
      <trkpt lat="58.702246975153685" lon="13.792428961023688">
        <ele>55.78</ele>
        <time>2025-02-12T13:50:30.173Z</time>
      </trkpt>
      <trkpt lat="58.70226792991161" lon="13.792551923543215">
        <ele>55.89</ele>
        <time>2025-02-12T13:51:15.282Z</time>
      </trkpt>
      <trkpt lat="58.702288968488574" lon="13.792673964053392">
        <ele>56.01</ele>
        <time>2025-02-12T13:52:00.392Z</time>
      </trkpt>
      <trkpt lat="58.702311934903264" lon="13.792792987078428">
        <ele>56.12</ele>
        <time>2025-02-12T13:52:45.503Z</time>
      </trkpt>
      <trkpt lat="58.702338924631476" lon="13.792908992618322">
        <ele>56.24</ele>
        <time>2025-02-12T13:53:30.615Z</time>
      </trkpt>
      <trkpt lat="58.70237295515835" lon="13.793021980673075">
        <ele>56.35</ele>
        <time>2025-02-12T13:54:15.728Z</time>
      </trkpt>
      <trkpt lat="58.702399944886565" lon="13.793134968727827">
        <ele>56.46</ele>
        <time>2025-02-12T13:55:00.842Z</time>
      </trkpt>
      <trkpt lat="58.70242693461478" lon="13.793246950954199">
        <ele>56.58</ele>
        <time>2025-02-12T13:55:45.957Z</time>
      </trkpt>
      <trkpt lat="58.7024499848485" lon="13.79335599951446">
        <ele>56.69</ele>
        <time>2025-02-12T13:56:31.073Z</time>
      </trkpt>
      <trkpt lat="58.70246993377805" lon="13.793461946770549">
        <ele>56.8</ele>
        <time>2025-02-12T13:57:16.190Z</time>
      </trkpt>
      <trkpt lat="58.702485943213105" lon="13.793561942875385">
        <ele>56.91</ele>
        <time>2025-02-12T13:58:01.308Z</time>
      </trkpt>
      <trkpt lat="58.7024999409914" lon="13.793653976172209">
        <ele>57.03</ele>
        <time>2025-02-12T13:58:46.427Z</time>
      </trkpt>
      <trkpt lat="58.70250999927521" lon="13.793736957013607">
        <ele>57.13</ele>
        <time>2025-02-12T13:59:31.546Z</time>
      </trkpt>
      <trkpt lat="58.70251796208322" lon="13.79380795173347">
        <ele>57.24</ele>
        <time>2025-02-12T14:00:16.666Z</time>
      </trkpt>
      <trkpt lat="58.702527936547995" lon="13.793866960331798">
        <ele>57.34</ele>
        <time>2025-02-12T14:01:01.787Z</time>
      </trkpt>
      <trkpt lat="58.70254294015467" lon="13.793926974758506">
        <ele>57.44</ele>
        <time>2025-02-12T14:01:46.908Z</time>
      </trkpt>
      <trkpt lat="58.70255894958973" lon="13.793988917022943">
        <ele>57.54</ele>
        <time>2025-02-12T14:02:32.030Z</time>
      </trkpt>
      <trkpt lat="58.702572947368026" lon="13.794052954763174">
        <ele>57.65</ele>
        <time>2025-02-12T14:03:17.152Z</time>
      </trkpt>
      <trkpt lat="58.70258895680308" lon="13.794118920341134">
        <ele>57.75</ele>
        <time>2025-02-12T14:04:02.275Z</time>
      </trkpt>
      <trkpt lat="58.70260496623814" lon="13.794183963909745">
        <ele>57.84</ele>
        <time>2025-02-12T14:04:47.398Z</time>
      </trkpt>
      <trkpt lat="58.70261996984482" lon="13.794248923659325">
        <ele>57.94</ele>
        <time>2025-02-12T14:05:32.522Z</time>
      </trkpt>
      <trkpt lat="58.70263195596635" lon="13.794313967227936">
        <ele>58.04</ele>
        <time>2025-02-12T14:06:17.647Z</time>
      </trkpt>
      <trkpt lat="58.70264494791627" lon="13.794376999139786">
        <ele>58.13</ele>
        <time>2025-02-12T14:07:02.772Z</time>
      </trkpt>
      <trkpt lat="58.702657939866185" lon="13.794435923919082">
        <ele>58.22</ele>
        <time>2025-02-12T14:07:47.898Z</time>
      </trkpt>
      <trkpt lat="58.70266699232161" lon="13.7944919988513">
        <ele>58.32</ele>
        <time>2025-02-12T14:08:33.024Z</time>
      </trkpt>
      <trkpt lat="58.70267394930124" lon="13.794547989964485">
        <ele>58.41</ele>
        <time>2025-02-12T14:09:18.151Z</time>
      </trkpt>
      <trkpt lat="58.70267495512962" lon="13.794597946107388">
        <ele>58.5</ele>
        <time>2025-02-12T14:10:03.278Z</time>
      </trkpt>
      <trkpt lat="58.702679984271526" lon="13.794641951099038">
        <ele>58.58</ele>
        <time>2025-02-12T14:10:48.405Z</time>
      </trkpt>
      <trkpt lat="58.70268694125116" lon="13.794678999111056">
        <ele>58.67</ele>
        <time>2025-02-12T14:11:33.533Z</time>
      </trkpt>
      <trkpt lat="58.70269297622144" lon="13.79471093416214">
        <ele>58.75</ele>
        <time>2025-02-12T14:12:18.661Z</time>
      </trkpt>
      <trkpt lat="58.70269792154431" lon="13.794737923890352">
        <ele>58.83</ele>
        <time>2025-02-12T14:13:03.789Z</time>
      </trkpt>
      <trkpt lat="58.702699933201075" lon="13.794757956638932">
        <ele>58.91</ele>
        <time>2025-02-12T14:13:48.917Z</time>
      </trkpt>
      <trkpt lat="58.702700939029455" lon="13.794769942760468">
        <ele>58.99</ele>
        <time>2025-02-12T14:14:34.046Z</time>
      </trkpt>
      <trkpt lat="58.702702950686216" lon="13.79477296024561">
        <ele>59.07</ele>
        <time>2025-02-12T14:15:19.175Z</time>
      </trkpt>
      <trkpt lat="58.7027039565146" lon="13.79477296024561">
        <ele>59.15</ele>
        <time>2025-02-12T14:16:04.304Z</time>
      </trkpt>
      <trkpt lat="58.70270797982812" lon="13.794675981625915">
        <ele>59.22</ele>
        <time>2025-02-12T14:16:49.433Z</time>
      </trkpt>
      <trkpt lat="58.702700939029455" lon="13.794635999947786">
        <ele>59.29</ele>
        <time>2025-02-12T14:17:34.563Z</time>
      </trkpt>
      <trkpt lat="58.70269197039306" lon="13.794586965814233">
        <ele>59.36</ele>
        <time>2025-02-12T14:18:19.693Z</time>
      </trkpt>
      <trkpt lat="58.702679984271526" lon="13.794530974701047">
        <ele>59.43</ele>
        <time>2025-02-12T14:19:04.824Z</time>
      </trkpt>
      <trkpt lat="58.70266598649323" lon="13.794469954445958">
        <ele>59.5</ele>
        <time>2025-02-12T14:19:49.955Z</time>
      </trkpt>
      <trkpt lat="58.70264997705817" lon="13.794406922534108">
        <ele>59.57</ele>
        <time>2025-02-12T14:20:35.087Z</time>
      </trkpt>
      <trkpt lat="58.702632961794734" lon="13.794337939471006">
        <ele>59.63</ele>
        <time>2025-02-12T14:21:20.220Z</time>
      </trkpt>
      <trkpt lat="58.702614940702915" lon="13.794261999428272">
        <ele>59.7</ele>
        <time>2025-02-12T14:22:05.353Z</time>
      </trkpt>
      <trkpt lat="58.702596919611096" lon="13.794181952252984">
        <ele>59.76</ele>
        <time>2025-02-12T14:22:50.487Z</time>
      </trkpt>
      <trkpt lat="58.70257898233831" lon="13.794105928391218">
        <ele>59.82</ele>
        <time>2025-02-12T14:23:35.622Z</time>
      </trkpt>
      <trkpt lat="58.70255995541811" lon="13.794024959206581">
        <ele>59.88</ele>
        <time>2025-02-12T14:24:20.757Z</time>
      </trkpt>
      <trkpt lat="58.70253992266953" lon="13.793943990021944">
        <ele>59.94</ele>
        <time>2025-02-12T14:25:05.893Z</time>
      </trkpt>
      <trkpt lat="58.70252097956836" lon="13.793860925361514">
        <ele>60.0</ele>
        <time>2025-02-12T14:25:51.030Z</time>
      </trkpt>
      <trkpt lat="58.70250195264816" lon="13.793776938691735">
        <ele>60.05</ele>
        <time>2025-02-12T14:26:36.168Z</time>
      </trkpt>
      <trkpt lat="58.70248292572796" lon="13.793693957850337">
        <ele>60.11</ele>
        <time>2025-02-12T14:27:21.306Z</time>
      </trkpt>
      <trkpt lat="58.702463982626796" lon="13.793605947867036">
        <ele>60.16</ele>
        <time>2025-02-12T14:28:06.445Z</time>
      </trkpt>
      <trkpt lat="58.702444955706596" lon="13.793522967025638">
        <ele>60.21</ele>
        <time>2025-02-12T14:28:51.585Z</time>
      </trkpt>
      <trkpt lat="58.70242693461478" lon="13.793448954820633">
        <ele>60.26</ele>
        <time>2025-02-12T14:29:36.726Z</time>
      </trkpt>
      <trkpt lat="58.7024119310081" lon="13.793381983414292">
        <ele>60.31</ele>
        <time>2025-02-12T14:30:21.867Z</time>
      </trkpt>
      <trkpt lat="58.702399944886565" lon="13.793330937623978">
        <ele>60.36</ele>
        <time>2025-02-12T14:31:07.009Z</time>
      </trkpt>
      <trkpt lat="58.70239198207855" lon="13.793303947895765">
        <ele>60.41</ele>
        <time>2025-02-12T14:31:52.151Z</time>
      </trkpt>
      <trkpt lat="58.70238896459341" lon="13.793288944289088">
        <ele>60.46</ele>
        <time>2025-02-12T14:32:37.293Z</time>
      </trkpt>
      <trkpt lat="58.70238795876503" lon="13.793282993137836">
        <ele>60.51</ele>
        <time>2025-02-12T14:33:22.435Z</time>
      </trkpt>
      <trkpt lat="58.70238795876503" lon="13.793276958167553">
        <ele>60.55</ele>
        <time>2025-02-12T14:34:07.577Z</time>
      </trkpt>
      <trkpt lat="58.70238494127989" lon="13.79327092319727">
        <ele>60.6</ele>
        <time>2025-02-12T14:34:52.719Z</time>
      </trkpt>
      <trkpt lat="58.70238393545151" lon="13.79326899535954">
        <ele>60.64</ele>
        <time>2025-02-12T14:35:37.861Z</time>
      </trkpt>
      <trkpt lat="58.70245392434299" lon="13.79335599951446">
        <ele>60.69</ele>
        <time>2025-02-12T14:36:23.005Z</time>
      </trkpt>
      <trkpt lat="58.702464988455176" lon="13.793384917080402">
        <ele>60.73</ele>
        <time>2025-02-12T14:37:08.149Z</time>
      </trkpt>
      <trkpt lat="58.70247496291995" lon="13.793417941778898">
        <ele>60.78</ele>
        <time>2025-02-12T14:37:53.293Z</time>
      </trkpt>
      <trkpt lat="58.702484937384725" lon="13.793459935113788">
        <ele>60.82</ele>
        <time>2025-02-12T14:38:38.438Z</time>
      </trkpt>
      <trkpt lat="58.70249499566853" lon="13.793512992560863">
        <ele>60.86</ele>
        <time>2025-02-12T14:39:23.583Z</time>
      </trkpt>
      <trkpt lat="58.702504970133305" lon="13.793567977845669">
        <ele>60.91</ele>
        <time>2025-02-12T14:40:08.729Z</time>
      </trkpt>
      <trkpt lat="58.7025139387697" lon="13.793625980615616">
        <ele>60.95</ele>
        <time>2025-02-12T14:40:53.875Z</time>
      </trkpt>
      <trkpt lat="58.70251997373998" lon="13.793683983385563">
        <ele>60.99</ele>
        <time>2025-02-12T14:41:39.022Z</time>
      </trkpt>
      <trkpt lat="58.702527936547995" lon="13.79374491982162">
        <ele>61.02</ele>
        <time>2025-02-12T14:42:24.169Z</time>
      </trkpt>
      <trkpt lat="58.70253497734666" lon="13.793809963390231">
        <ele>61.06</ele>
        <time>2025-02-12T14:43:09.317Z</time>
      </trkpt>
      <trkpt lat="58.70254092849791" lon="13.7938719894737">
        <ele>61.1</ele>
        <time>2025-02-12T14:43:54.465Z</time>
      </trkpt>
      <trkpt lat="58.7025519926101" lon="13.793933931738138">
        <ele>61.13</ele>
        <time>2025-02-12T14:44:39.614Z</time>
      </trkpt>
      <trkpt lat="58.70256498456001" lon="13.793995957821608">
        <ele>61.16</ele>
        <time>2025-02-12T14:45:24.763Z</time>
      </trkpt>
      <trkpt lat="58.70257697068155" lon="13.794060917571187">
        <ele>61.2</ele>
        <time>2025-02-12T14:46:09.913Z</time>
      </trkpt>
      <trkpt lat="58.7025879509747" lon="13.794126966968179">
        <ele>61.23</ele>
        <time>2025-02-12T14:46:55.063Z</time>
      </trkpt>
      <trkpt lat="58.70259792543948" lon="13.7941949442029">
        <ele>61.27</ele>
        <time>2025-02-12T14:47:40.214Z</time>
      </trkpt>
      <trkpt lat="58.70261091738939" lon="13.794260993599892">
        <ele>61.3</ele>
        <time>2025-02-12T14:48:25.366Z</time>
      </trkpt>
      <trkpt lat="58.70262198150158" lon="13.794329976662993">
        <ele>61.33</ele>
        <time>2025-02-12T14:49:10.518Z</time>
      </trkpt>
      <trkpt lat="58.70263195596635" lon="13.794400971382856">
        <ele>61.36</ele>
        <time>2025-02-12T14:49:55.671Z</time>
      </trkpt>
      <trkpt lat="58.70264494791627" lon="13.794469954445958">
        <ele>61.39</ele>
        <time>2025-02-12T14:50:40.824Z</time>
      </trkpt>
      <trkpt lat="58.702657939866185" lon="13.79453793168068">
        <ele>61.42</ele>
        <time>2025-02-12T14:51:25.978Z</time>
      </trkpt>
      <trkpt lat="58.7026709318161" lon="13.794604986906052">
        <ele>61.44</ele>
        <time>2025-02-12T14:52:11.133Z</time>
      </trkpt>
      <trkpt lat="58.70268593542278" lon="13.79466894082725">
        <ele>61.47</ele>
        <time>2025-02-12T14:52:56.288Z</time>
      </trkpt>
      <trkpt lat="58.702699933201075" lon="13.794728955253959">
        <ele>61.49</ele>
        <time>2025-02-12T14:53:41.444Z</time>
      </trkpt>
      <trkpt lat="58.70271594263613" lon="13.794794920831919">
        <ele>61.52</ele>
        <time>2025-02-12T14:54:26.600Z</time>
      </trkpt>
      <trkpt lat="58.70273295789957" lon="13.794864993542433">
        <ele>61.54</ele>
        <time>2025-02-12T14:55:11.757Z</time>
      </trkpt>
      <trkpt lat="58.70275097899139" lon="13.794936994090676">
        <ele>61.56</ele>
        <time>2025-02-12T14:55:56.915Z</time>
      </trkpt>
      <trkpt lat="58.70276992209256" lon="13.79501293413341">
        <ele>61.58</ele>
        <time>2025-02-12T14:56:42.073Z</time>
      </trkpt>
      <trkpt lat="58.702786937355995" lon="13.79509692080319">
        <ele>61.6</ele>
        <time>2025-02-12T14:57:27.232Z</time>
      </trkpt>
      <trkpt lat="58.70281199924648" lon="13.795187948271632">
        <ele>61.62</ele>
        <time>2025-02-12T14:58:12.392Z</time>
      </trkpt>
      <trkpt lat="58.70283597148955" lon="13.795280987396836">
        <ele>61.64</ele>
        <time>2025-02-12T14:58:57.553Z</time>
      </trkpt>
      <trkpt lat="58.70285893790424" lon="13.795371931046247">
        <ele>61.66</ele>
        <time>2025-02-12T14:59:42.715Z</time>
      </trkpt>
      <trkpt lat="58.70288098230958" lon="13.79546195268631">
        <ele>61.67</ele>
        <time>2025-02-12T15:00:27.878Z</time>
      </trkpt>
      <trkpt lat="58.702894980087876" lon="13.795555997639894">
        <ele>61.69</ele>
        <time>2025-02-12T15:01:13.041Z</time>
      </trkpt>
      <trkpt lat="58.70288995094597" lon="13.795648952946067">
        <ele>61.71</ele>
        <time>2025-02-12T15:01:58.205Z</time>
      </trkpt>
      <trkpt lat="58.70286396704614" lon="13.795712990686297">
        <ele>61.72</ele>
        <time>2025-02-12T15:02:43.370Z</time>
      </trkpt>
      <trkpt lat="58.702824991196394" lon="13.795751966536045">
        <ele>61.74</ele>
        <time>2025-02-12T15:03:28.536Z</time>
      </trkpt>
      <trkpt lat="58.702782997861505" lon="13.795780967921019">
        <ele>61.75</ele>
        <time>2025-02-12T15:04:13.702Z</time>
      </trkpt>
      <trkpt lat="58.702738992869854" lon="13.79580695182085">
        <ele>61.77</ele>
        <time>2025-02-12T15:04:58.869Z</time>
      </trkpt>
      <trkpt lat="58.70269398204982" lon="13.795831929892302">
        <ele>61.78</ele>
        <time>2025-02-12T15:05:44.037Z</time>
      </trkpt>
      <trkpt lat="58.70264997705817" lon="13.795856991782784">
        <ele>61.79</ele>
        <time>2025-02-12T15:06:29.206Z</time>
      </trkpt>
      <trkpt lat="58.70260094292462" lon="13.795884987339377">
        <ele>61.8</ele>
        <time>2025-02-12T15:07:14.375Z</time>
      </trkpt>
      <trkpt lat="58.702550986781716" lon="13.795904936268926">
        <ele>61.81</ele>
        <time>2025-02-12T15:07:59.545Z</time>
      </trkpt>
      <trkpt lat="58.702503964304924" lon="13.795926980674267">
        <ele>61.83</ele>
        <time>2025-02-12T15:08:44.716Z</time>
      </trkpt>
      <trkpt lat="58.702462976798415" lon="13.795961933210492">
        <ele>61.83</ele>
        <time>2025-02-12T15:09:29.888Z</time>
      </trkpt>
      <trkpt lat="58.70242794044316" lon="13.7960219476372">
        <ele>61.84</ele>
        <time>2025-02-12T15:10:15.060Z</time>
      </trkpt>
      <trkpt lat="58.70240799151361" lon="13.796100988984108">
        <ele>61.85</ele>
        <time>2025-02-12T15:11:00.233Z</time>
      </trkpt>
      <trkpt lat="58.70240396820009" lon="13.79618899896741">
        <ele>61.86</ele>
        <time>2025-02-12T15:11:45.407Z</time>
      </trkpt>
      <trkpt lat="58.70241494849324" lon="13.796264939010143">
        <ele>61.87</ele>
        <time>2025-02-12T15:12:30.582Z</time>
      </trkpt>
      <trkpt lat="58.702441938221455" lon="13.796328976750374">
        <ele>61.87</ele>
        <time>2025-02-12T15:13:15.757Z</time>
      </trkpt>
      <trkpt lat="58.702480997890234" lon="13.796382956206799">
        <ele>61.88</ele>
        <time>2025-02-12T15:14:00.933Z</time>
      </trkpt>
      <trkpt lat="58.702523997053504" lon="13.796423943713307">
        <ele>61.88</ele>
        <time>2025-02-12T15:14:46.110Z</time>
      </trkpt>
      <trkpt lat="58.70256599038839" lon="13.796453950926661">
        <ele>61.89</ele>
        <time>2025-02-12T15:15:31.287Z</time>
      </trkpt>
      <trkpt lat="58.702609995380044" lon="13.796482952311635">
        <ele>61.89</ele>
        <time>2025-02-12T15:16:16.465Z</time>
      </trkpt>
      <trkpt lat="58.70264595374465" lon="13.796507930383086">
        <ele>61.89</ele>
        <time>2025-02-12T15:17:01.644Z</time>
      </trkpt>
      <trkpt lat="58.7026709318161" lon="13.796525951474905">
        <ele>61.9</ele>
        <time>2025-02-12T15:17:46.823Z</time>
      </trkpt>
      <trkpt lat="58.70268593542278" lon="13.796534920111299">
        <ele>61.9</ele>
        <time>2025-02-12T15:18:32.003Z</time>
      </trkpt>
      <trkpt lat="58.70269297622144" lon="13.796539949253201">
        <ele>61.9</ele>
        <time>2025-02-12T15:19:17.183Z</time>
      </trkpt>
      <trkpt lat="58.70269197039306" lon="13.796545984223485">
        <ele>61.9</ele>
        <time>2025-02-12T15:20:02.363Z</time>
      </trkpt>
      <trkpt lat="58.702701944857836" lon="13.79649493843317">
        <ele>61.9</ele>
        <time>2025-02-12T15:20:47.543Z</time>
      </trkpt>
      <trkpt lat="58.70270496234298" lon="13.796465937048197">
        <ele>61.9</ele>
        <time>2025-02-12T15:21:32.723Z</time>
      </trkpt>
      <trkpt lat="58.70271493680775" lon="13.796441964805126">
        <ele>61.9</ele>
        <time>2025-02-12T15:22:17.904Z</time>
      </trkpt>
      <trkpt lat="58.70272499509156" lon="13.796419920399785">
        <ele>61.89</ele>
        <time>2025-02-12T15:23:03.085Z</time>
      </trkpt>
      <trkpt lat="58.70272398926318" lon="13.796386979520321">
        <ele>61.89</ele>
        <time>2025-02-12T15:23:48.266Z</time>
      </trkpt>
      <trkpt lat="58.70271694846451" lon="13.796345992013812">
        <ele>61.89</ele>
        <time>2025-02-12T15:24:33.448Z</time>
      </trkpt>
      <trkpt lat="58.70271099731326" lon="13.7962999753654">
        <ele>61.88</ele>
        <time>2025-02-12T15:25:18.630Z</time>
      </trkpt>
      <trkpt lat="58.70270797982812" lon="13.79625597037375">
        <ele>61.88</ele>
        <time>2025-02-12T15:26:03.812Z</time>
      </trkpt>
      <trkpt lat="58.70271292515099" lon="13.796216994524002">
        <ele>61.87</ele>
        <time>2025-02-12T15:26:48.995Z</time>
      </trkpt>
      <trkpt lat="58.70272398926318" lon="13.796176929026842">
        <ele>61.86</ele>
        <time>2025-02-12T15:27:34.178Z</time>
      </trkpt>
      <trkpt lat="58.70273798704147" lon="13.796132924035192">
        <ele>61.85</ele>
        <time>2025-02-12T15:28:19.361Z</time>
      </trkpt>
      <trkpt lat="58.70275491848588" lon="13.796099983155727">
        <ele>61.85</ele>
        <time>2025-02-12T15:29:04.545Z</time>
      </trkpt>
      <trkpt lat="58.70277595706284" lon="13.796066958457232">
        <ele>61.84</ele>
        <time>2025-02-12T15:29:49.729Z</time>
      </trkpt>
      <trkpt lat="58.70279498398304" lon="13.796032927930355">
        <ele>61.83</ele>
        <time>2025-02-12T15:30:34.914Z</time>
      </trkpt>
      <trkpt lat="58.70281199924648" lon="13.796002920717001">
        <ele>61.82</ele>
        <time>2025-02-12T15:31:20.099Z</time>
      </trkpt>
      <trkpt lat="58.70283295400441" lon="13.795975930988789">
        <ele>61.8</ele>
        <time>2025-02-12T15:32:05.284Z</time>
      </trkpt>
      <trkpt lat="58.70285692624748" lon="13.795949947088957">
        <ele>61.79</ele>
        <time>2025-02-12T15:32:50.470Z</time>
      </trkpt>
      <trkpt lat="58.7028799764812" lon="13.795927986502647">
        <ele>61.78</ele>
        <time>2025-02-12T15:33:35.656Z</time>
      </trkpt>
      <trkpt lat="58.70290394872427" lon="13.795907953754067">
        <ele>61.76</ele>
        <time>2025-02-12T15:34:20.843Z</time>
      </trkpt>
      <trkpt lat="58.70293194428086" lon="13.795894961804152">
        <ele>61.75</ele>
        <time>2025-02-12T15:35:06.030Z</time>
      </trkpt>
      <trkpt lat="58.7029629573226" lon="13.795900996774435">
        <ele>61.73</ele>
        <time>2025-02-12T15:35:51.218Z</time>
      </trkpt>
      <trkpt lat="58.70299598202109" lon="13.795928992331028">
        <ele>61.71</ele>
        <time>2025-02-12T15:36:36.406Z</time>
      </trkpt>
      <trkpt lat="58.70301593095064" lon="13.795980960130692">
        <ele>61.69</ele>
        <time>2025-02-12T15:37:21.595Z</time>
      </trkpt>
      <trkpt lat="58.70302791707218" lon="13.796048937365413">
        <ele>61.67</ele>
        <time>2025-02-12T15:38:06.784Z</time>
      </trkpt>
      <trkpt lat="58.70303294621408" lon="13.79612697288394">
        <ele>61.65</ele>
        <time>2025-02-12T15:38:51.974Z</time>
      </trkpt>
      <trkpt lat="58.70303797535598" lon="13.7962119653821">
        <ele>61.63</ele>
        <time>2025-02-12T15:39:37.165Z</time>
      </trkpt>
      <trkpt lat="58.703045938163996" lon="13.796304920688272">
        <ele>61.61</ele>
        <time>2025-02-12T15:40:22.357Z</time>
      </trkpt>
      <trkpt lat="58.7030509673059" lon="13.796402988955379">
        <ele>61.59</ele>
        <time>2025-02-12T15:41:07.549Z</time>
      </trkpt>
      <trkpt lat="58.70305691845715" lon="13.796506924554706">
        <ele>61.57</ele>
        <time>2025-02-12T15:41:52.742Z</time>
      </trkpt>
      <trkpt lat="58.703063959255815" lon="13.796605998650193">
        <ele>61.55</ele>
        <time>2025-02-12T15:42:37.936Z</time>
      </trkpt>
      <trkpt lat="58.70306898839772" lon="13.796699959784746">
        <ele>61.53</ele>
        <time>2025-02-12T15:43:23.131Z</time>
      </trkpt>
      <trkpt lat="58.70307493954897" lon="13.79679199308157">
        <ele>61.5</ele>
        <time>2025-02-12T15:44:08.327Z</time>
      </trkpt>
      <trkpt lat="58.70307896286249" lon="13.79688293673098">
        <ele>61.48</ele>
        <time>2025-02-12T15:44:53.523Z</time>
      </trkpt>
      <trkpt lat="58.70307996869087" lon="13.796972958371043">
        <ele>61.45</ele>
        <time>2025-02-12T15:45:38.720Z</time>
      </trkpt>
      <trkpt lat="58.703083992004395" lon="13.797064991667867">
        <ele>61.42</ele>
        <time>2025-02-12T15:46:23.918Z</time>
      </trkpt>
      <trkpt lat="58.703086925670505" lon="13.797154929488897">
        <ele>61.39</ele>
        <time>2025-02-12T15:47:09.117Z</time>
      </trkpt>
      <trkpt lat="58.703088937327266" lon="13.79724495112896">
        <ele>61.36</ele>
        <time>2025-02-12T15:47:54.316Z</time>
      </trkpt>
      <trkpt lat="58.703089943155646" lon="13.79733195528388">
        <ele>61.33</ele>
        <time>2025-02-12T15:48:39.516Z</time>
      </trkpt>
      <trkpt lat="58.70309195481241" lon="13.79741694778204">
        <ele>61.29</ele>
        <time>2025-02-12T15:49:24.717Z</time>
      </trkpt>
      <trkpt lat="58.703089943155646" lon="13.79750294610858">
        <ele>61.26</ele>
        <time>2025-02-12T15:50:09.919Z</time>
      </trkpt>
      <trkpt lat="58.70309094898403" lon="13.7975899502635">
        <ele>61.22</ele>
        <time>2025-02-12T15:50:55.121Z</time>
      </trkpt>
      <trkpt lat="58.70309195481241" lon="13.797672931104898">
        <ele>61.18</ele>
        <time>2025-02-12T15:51:40.324Z</time>
      </trkpt>
      <trkpt lat="58.70309597812593" lon="13.797751972451806">
        <ele>61.14</ele>
        <time>2025-02-12T15:52:25.528Z</time>
      </trkpt>
      <trkpt lat="58.70311198756099" lon="13.797822967171669">
        <ele>61.1</ele>
        <time>2025-02-12T15:53:10.732Z</time>
      </trkpt>
      <trkpt lat="58.70313998311758" lon="13.797878958284855">
        <ele>61.06</ele>
        <time>2025-02-12T15:53:55.937Z</time>
      </trkpt>
      <trkpt lat="58.703169990330935" lon="13.797924974933267">
        <ele>61.02</ele>
        <time>2025-02-12T15:54:41.143Z</time>
      </trkpt>
      <trkpt lat="58.7032029312104" lon="13.797962944954634">
        <ele>60.97</ele>
        <time>2025-02-12T15:55:26.349Z</time>
      </trkpt>
      <trkpt lat="58.703238973394036" lon="13.797994963824749">
        <ele>60.93</ele>
        <time>2025-02-12T15:56:11.556Z</time>
      </trkpt>
      <trkpt lat="58.70327099226415" lon="13.7980199418962">
        <ele>60.89</ele>
        <time>2025-02-12T15:56:56.763Z</time>
      </trkpt>
      <trkpt lat="58.703301921486855" lon="13.798044919967651">
        <ele>60.84</ele>
        <time>2025-02-12T15:57:41.971Z</time>
      </trkpt>
      <trkpt lat="58.70333595201373" lon="13.798071993514895">
        <ele>60.8</ele>
        <time>2025-02-12T15:58:27.180Z</time>
      </trkpt>
      <trkpt lat="58.70337199419737" lon="13.798098983243108">
        <ele>60.75</ele>
        <time>2025-02-12T15:59:12.389Z</time>
      </trkpt>
      <trkpt lat="58.703409964218736" lon="13.798129996284842">
        <ele>60.7</ele>
        <time>2025-02-12T15:59:57.599Z</time>
      </trkpt>
      <trkpt lat="58.703451957553625" lon="13.798161931335926">
        <ele>60.65</ele>
        <time>2025-02-12T16:00:42.810Z</time>
      </trkpt>
      <trkpt lat="58.703495962545276" lon="13.798195961862803">
        <ele>60.6</ele>
        <time>2025-02-12T16:01:28.021Z</time>
      </trkpt>
      <trkpt lat="58.70354399085045" lon="13.798227980732918">
        <ele>60.55</ele>
        <time>2025-02-12T16:02:13.233Z</time>
      </trkpt>
      <trkpt lat="58.70359394699335" lon="13.798256982117891">
        <ele>60.5</ele>
        <time>2025-02-12T16:02:58.446Z</time>
      </trkpt>
      <trkpt lat="58.703644992783666" lon="13.798286989331245">
        <ele>60.45</ele>
        <time>2025-02-12T16:03:43.660Z</time>
      </trkpt>
      <trkpt lat="58.70369595475495" lon="13.798318924382329">
        <ele>60.4</ele>
        <time>2025-02-12T16:04:28.875Z</time>
      </trkpt>
      <trkpt lat="58.70374792255461" lon="13.798352954909205">
        <ele>60.34</ele>
        <time>2025-02-12T16:05:14.091Z</time>
      </trkpt>
      <trkpt lat="58.70380491949618" lon="13.798381956294179">
        <ele>60.28</ele>
        <time>2025-02-12T16:05:59.307Z</time>
      </trkpt>
      <trkpt lat="58.703860994428396" lon="13.798404922708869">
        <ele>60.23</ele>
        <time>2025-02-12T16:06:44.524Z</time>
      </trkpt>
      <trkpt lat="58.7039159797132" lon="13.798422943800688">
        <ele>60.17</ele>
        <time>2025-02-12T16:07:29.742Z</time>
      </trkpt>
      <trkpt lat="58.70397297665477" lon="13.798439959064126">
        <ele>60.1</ele>
        <time>2025-02-12T16:08:14.961Z</time>
      </trkpt>
      <trkpt lat="58.704028967767954" lon="13.798455968499184">
        <ele>60.03</ele>
        <time>2025-02-12T16:09:00.181Z</time>
      </trkpt>
      <trkpt lat="58.7040869705379" lon="13.798467954620719">
        <ele>59.96</ele>
        <time>2025-02-12T16:09:45.402Z</time>
      </trkpt>
      <trkpt lat="58.70414597913623" lon="13.798476923257113">
        <ele>59.89</ele>
        <time>2025-02-12T16:10:30.624Z</time>
      </trkpt>
      <trkpt lat="58.70420699939132" lon="13.798481952399015">
        <ele>59.81</ele>
        <time>2025-02-12T16:11:15.847Z</time>
      </trkpt>
      <trkpt lat="58.704269947484136" lon="13.798482958227396">
        <ele>59.73</ele>
        <time>2025-02-12T16:12:01.071Z</time>
      </trkpt>
      <trkpt lat="58.704331973567605" lon="13.798476923257113">
        <ele>59.65</ele>
        <time>2025-02-12T16:12:46.296Z</time>
      </trkpt>
      <trkpt lat="58.704395927488804" lon="13.798466948792338">
        <ele>59.57</ele>
        <time>2025-02-12T16:13:31.522Z</time>
      </trkpt>
      <trkpt lat="58.704458959400654" lon="13.798452951014042">
        <ele>59.48</ele>
        <time>2025-02-12T16:14:16.749Z</time>
      </trkpt>
      <trkpt lat="58.704522997140884" lon="13.798434929922223">
        <ele>59.4</ele>
        <time>2025-02-12T16:15:01.977Z</time>
      </trkpt>
      <trkpt lat="58.70458695106208" lon="13.798410957679152">
        <ele>59.31</ele>
        <time>2025-02-12T16:15:47.206Z</time>
      </trkpt>
      <trkpt lat="58.704651994630694" lon="13.798386985436082">
        <ele>59.23</ele>
        <time>2025-02-12T16:16:32.436Z</time>
      </trkpt>
      <trkpt lat="58.70471393689513" lon="13.798361923545599">
        <ele>59.14</ele>
        <time>2025-02-12T16:17:17.667Z</time>
      </trkpt>
      <trkpt lat="58.7047759629786" lon="13.798334933817387">
        <ele>59.05</ele>
        <time>2025-02-12T16:18:02.899Z</time>
      </trkpt>
      <trkpt lat="58.70483597740531" lon="13.798306938260794">
        <ele>58.96</ele>
        <time>2025-02-12T16:18:48.132Z</time>
      </trkpt>
      <trkpt lat="58.7048969976604" lon="13.7982789427042">
        <ele>58.88</ele>
        <time>2025-02-12T16:19:33.366Z</time>
      </trkpt>
      <trkpt lat="58.704958939924836" lon="13.79825597628951">
        <ele>58.79</ele>
        <time>2025-02-12T16:20:18.601Z</time>
      </trkpt>
      <trkpt lat="58.705019960179925" lon="13.798237955197692">
        <ele>58.71</ele>
        <time>2025-02-12T16:21:03.837Z</time>
      </trkpt>
      <trkpt lat="58.705080980435014" lon="13.798217922449112">
        <ele>58.62</ele>
        <time>2025-02-12T16:21:49.074Z</time>
      </trkpt>
      <trkpt lat="58.70514191687107" lon="13.798193950206041">
        <ele>58.53</ele>
        <time>2025-02-12T16:22:34.312Z</time>
      </trkpt>
      <trkpt lat="58.70520394295454" lon="13.79816997796297">
        <ele>58.44</ele>
        <time>2025-02-12T16:23:19.551Z</time>
      </trkpt>
      <trkpt lat="58.70526596903801" lon="13.798150951042771">
        <ele>58.35</ele>
        <time>2025-02-12T16:24:04.791Z</time>
      </trkpt>
      <trkpt lat="58.70532992295921" lon="13.798128990456462">
        <ele>58.25</ele>
        <time>2025-02-12T16:24:50.032Z</time>
      </trkpt>
      <trkpt lat="58.70539194904268" lon="13.79810694605112">
        <ele>58.16</ele>
        <time>2025-02-12T16:25:35.274Z</time>
      </trkpt>
      <trkpt lat="58.70545699261129" lon="13.798084985464811">
        <ele>58.06</ele>
        <time>2025-02-12T16:26:20.517Z</time>
      </trkpt>
      <trkpt lat="58.70552195236087" lon="13.79806394688785">
        <ele>57.96</ele>
        <time>2025-02-12T16:27:05.761Z</time>
      </trkpt>
      <trkpt lat="58.70558699592948" lon="13.798043997958302">
        <ele>57.86</ele>
        <time>2025-02-12T16:27:51.006Z</time>
      </trkpt>
      <trkpt lat="58.70565296150744" lon="13.798024971038103">
        <ele>57.77</ele>
        <time>2025-02-12T16:28:36.253Z</time>
      </trkpt>
      <trkpt lat="58.7057189270854" lon="13.798001920804381">
        <ele>57.67</ele>
        <time>2025-02-12T16:29:21.501Z</time>
      </trkpt>
      <trkpt lat="58.70578497648239" lon="13.79797794856131">
        <ele>57.57</ele>
        <time>2025-02-12T16:30:06.750Z</time>
      </trkpt>
      <trkpt lat="58.70584993623197" lon="13.797955987975001">
        <ele>57.47</ele>
        <time>2025-02-12T16:30:52.000Z</time>
      </trkpt>
      <trkpt lat="58.70591296814382" lon="13.797931931912899">
        <ele>57.37</ele>
        <time>2025-02-12T16:31:37.251Z</time>
      </trkpt>
      <trkpt lat="58.70597591623664" lon="13.797905948013067">
        <ele>57.27</ele>
        <time>2025-02-12T16:32:22.503Z</time>
      </trkpt>
      <trkpt lat="58.70603894814849" lon="13.797880969941616">
        <ele>57.18</ele>
        <time>2025-02-12T16:33:07.756Z</time>
      </trkpt>
      <trkpt lat="58.70609996840358" lon="13.797854986041784">
        <ele>57.08</ele>
        <time>2025-02-12T16:33:53.010Z</time>
      </trkpt>
      <trkpt lat="58.70616098865867" lon="13.79782397300005">
        <ele>56.98</ele>
        <time>2025-02-12T16:34:38.265Z</time>
      </trkpt>
      <trkpt lat="58.706219997256994" lon="13.797792959958315">
        <ele>56.88</ele>
        <time>2025-02-12T16:35:23.521Z</time>
      </trkpt>
      <trkpt lat="58.70627892203629" lon="13.797764964401722">
        <ele>56.78</ele>
        <time>2025-02-12T16:36:08.778Z</time>
      </trkpt>
      <trkpt lat="58.706338936463" lon="13.79773898050189">
        <ele>56.68</ele>
        <time>2025-02-12T16:36:54.036Z</time>
      </trkpt>
      <trkpt lat="58.70639895088971" lon="13.79771894775331">
        <ele>56.58</ele>
        <time>2025-02-12T16:37:39.295Z</time>
      </trkpt>
      <trkpt lat="58.70646298862994" lon="13.797701932489872">
        <ele>56.47</ele>
        <time>2025-02-12T16:38:24.555Z</time>
      </trkpt>
      <trkpt lat="58.706526942551136" lon="13.797686928883195">
        <ele>56.37</ele>
        <time>2025-02-12T16:39:09.816Z</time>
      </trkpt>
      <trkpt lat="58.70659198611975" lon="13.797669997438788">
        <ele>56.27</ele>
        <time>2025-02-12T16:39:55.078Z</time>
      </trkpt>
      <trkpt lat="58.70665795169771" lon="13.79765197634697">
        <ele>56.16</ele>
        <time>2025-02-12T16:40:40.341Z</time>
      </trkpt>
      <trkpt lat="58.70672492310405" lon="13.79763294942677">
        <ele>56.06</ele>
        <time>2025-02-12T16:41:25.605Z</time>
      </trkpt>
      <trkpt lat="58.70679097250104" lon="13.797616939991713">
        <ele>55.95</ele>
        <time>2025-02-12T16:42:10.870Z</time>
      </trkpt>
      <trkpt lat="58.70685593225062" lon="13.797598918899894">
        <ele>55.85</ele>
        <time>2025-02-12T16:42:56.136Z</time>
      </trkpt>
      <trkpt lat="58.70691795833409" lon="13.797582993283868">
        <ele>55.74</ele>
        <time>2025-02-12T16:43:41.403Z</time>
      </trkpt>
      <trkpt lat="58.70697897858918" lon="13.797568995505571">
        <ele>55.64</ele>
        <time>2025-02-12T16:44:26.671Z</time>
      </trkpt>
      <trkpt lat="58.707036981359124" lon="13.797554997727275">
        <ele>55.53</ele>
        <time>2025-02-12T16:45:11.940Z</time>
      </trkpt>
      <trkpt lat="58.70709297247231" lon="13.797541921958327">
        <ele>55.43</ele>
        <time>2025-02-12T16:45:57.210Z</time>
      </trkpt>
      <trkpt lat="58.707147957757115" lon="13.797529935836792">
        <ele>55.32</ele>
        <time>2025-02-12T16:46:42.481Z</time>
      </trkpt>
      <trkpt lat="58.70719992555678" lon="13.797517949715257">
        <ele>55.21</ele>
        <time>2025-02-12T16:47:27.753Z</time>
      </trkpt>
      <trkpt lat="58.707251977175474" lon="13.79750294610858">
        <ele>55.11</ele>
        <time>2025-02-12T16:48:13.026Z</time>
      </trkpt>
      <trkpt lat="58.70730394497514" lon="13.797486936673522">
        <ele>55.0</ele>
        <time>2025-02-12T16:48:58.299Z</time>
      </trkpt>
      <trkpt lat="58.70735792443156" lon="13.797472938895226">
        <ele>54.89</ele>
        <time>2025-02-12T16:49:43.573Z</time>
      </trkpt>
      <trkpt lat="58.70741399936378" lon="13.797463970258832">
        <ele>54.78</ele>
        <time>2025-02-12T16:50:28.848Z</time>
      </trkpt>
      <trkpt lat="58.70747099630535" lon="13.797454917803407">
        <ele>54.67</ele>
        <time>2025-02-12T16:51:14.124Z</time>
      </trkpt>
      <trkpt lat="58.707531932741404" lon="13.797447960823774">
        <ele>54.56</ele>
        <time>2025-02-12T16:51:59.401Z</time>
      </trkpt>
      <trkpt lat="58.70759295299649" lon="13.797437986359">
        <ele>54.45</ele>
        <time>2025-02-12T16:52:44.679Z</time>
      </trkpt>
      <trkpt lat="58.70765196159482" lon="13.797426922246814">
        <ele>54.34</ele>
        <time>2025-02-12T16:53:29.958Z</time>
      </trkpt>
      <trkpt lat="58.707705941051245" lon="13.79741795361042">
        <ele>54.24</ele>
        <time>2025-02-12T16:54:15.238Z</time>
      </trkpt>
      <trkpt lat="58.70775698684156" lon="13.797413930296898">
        <ele>54.13</ele>
        <time>2025-02-12T16:55:00.519Z</time>
      </trkpt>
      <trkpt lat="58.70780199766159" lon="13.797424994409084">
        <ele>54.03</ele>
        <time>2025-02-12T16:55:45.800Z</time>
      </trkpt>
      <trkpt lat="58.70783996768296" lon="13.797455923631787">
        <ele>53.93</ele>
        <time>2025-02-12T16:56:31.082Z</time>
      </trkpt>
      <trkpt lat="58.70786393992603" lon="13.797506969422102">
        <ele>53.83</ele>
        <time>2025-02-12T16:57:16.365Z</time>
      </trkpt>
      <trkpt lat="58.707879949361086" lon="13.797573940828443">
        <ele>53.72</ele>
        <time>2025-02-12T16:58:01.648Z</time>
      </trkpt>
      <trkpt lat="58.70789092965424" lon="13.79765398800373">
        <ele>53.62</ele>
        <time>2025-02-12T16:58:46.932Z</time>
      </trkpt>
      <trkpt lat="58.70790098793805" lon="13.797743925824761">
        <ele>53.53</ele>
        <time>2025-02-12T16:59:32.217Z</time>
      </trkpt>
      <trkpt lat="58.70791498571634" lon="13.797842999920249">
        <ele>53.43</ele>
        <time>2025-02-12T17:00:17.503Z</time>
      </trkpt>
      <trkpt lat="58.7079309951514" lon="13.79795297048986">
        <ele>53.33</ele>
        <time>2025-02-12T17:01:02.790Z</time>
      </trkpt>
      <trkpt lat="58.70794692076743" lon="13.798073921352625">
        <ele>53.23</ele>
        <time>2025-02-12T17:01:48.078Z</time>
      </trkpt>
      <trkpt lat="58.707962930202484" lon="13.798205936327577">
        <ele>53.13</ele>
        <time>2025-02-12T17:02:33.367Z</time>
      </trkpt>
      <trkpt lat="58.7079809512943" lon="13.798344992101192">
        <ele>53.03</ele>
        <time>2025-02-12T17:03:18.657Z</time>
      </trkpt>
      <trkpt lat="58.70799897238612" lon="13.798487987369299">
        <ele>52.94</ele>
        <time>2025-02-12T17:04:03.948Z</time>
      </trkpt>
      <trkpt lat="58.70801799930632" lon="13.798631988465786">
        <ele>52.86</ele>
        <time>2025-02-12T17:04:49.240Z</time>
      </trkpt>
      <trkpt lat="58.70803694240749" lon="13.798772972077131">
        <ele>52.77</ele>
        <time>2025-02-12T17:05:34.534Z</time>
      </trkpt>
      <trkpt lat="58.70805496349931" lon="13.798911944031715">
        <ele>52.68</ele>
        <time>2025-02-12T17:06:19.829Z</time>
      </trkpt>
      <trkpt lat="58.708072984591126" lon="13.799045970663428">
        <ele>52.6</ele>
        <time>2025-02-12T17:07:05.125Z</time>
      </trkpt>
      <trkpt lat="58.708089999854565" lon="13.799175973981619">
        <ele>52.51</ele>
        <time>2025-02-12T17:07:50.422Z</time>
      </trkpt>
      <trkpt lat="58.70810592547059" lon="13.799300948157907">
        <ele>52.43</ele>
        <time>2025-02-12T17:08:35.720Z</time>
      </trkpt>
      <trkpt lat="58.70812294073403" lon="13.799420977011323">
        <ele>52.36</ele>
        <time>2025-02-12T17:09:21.019Z</time>
      </trkpt>
      <trkpt lat="58.708136938512325" lon="13.799538994207978">
        <ele>52.28</ele>
        <time>2025-02-12T17:10:06.319Z</time>
      </trkpt>
      <trkpt lat="58.708151942119" lon="13.799654999747872">
        <ele>52.21</ele>
        <time>2025-02-12T17:10:51.620Z</time>
      </trkpt>
      <trkpt lat="58.7081659398973" lon="13.799769999459386">
        <ele>52.14</ele>
        <time>2025-02-12T17:11:36.922Z</time>
      </trkpt>
      <trkpt lat="58.708179937675595" lon="13.799883993342519">
        <ele>52.08</ele>
        <time>2025-02-12T17:12:22.225Z</time>
      </trkpt>
      <trkpt lat="58.70819292962551" lon="13.799997987225652">
        <ele>52.02</ele>
        <time>2025-02-12T17:13:07.529Z</time>
      </trkpt>
      <trkpt lat="58.70820499956608" lon="13.800105946138501">
        <ele>51.96</ele>
        <time>2025-02-12T17:13:52.834Z</time>
      </trkpt>
      <trkpt lat="58.70821396820247" lon="13.800204936414957">
        <ele>51.9</ele>
        <time>2025-02-12T17:14:38.140Z</time>
      </trkpt>
      <trkpt lat="58.708220925182104" lon="13.8002959638834">
        <ele>51.85</ele>
        <time>2025-02-12T17:15:23.447Z</time>
      </trkpt>
      <trkpt lat="58.70822595432401" lon="13.800378944724798">
        <ele>51.79</ele>
        <time>2025-02-12T17:16:08.754Z</time>
      </trkpt>
      <trkpt lat="58.70822997763753" lon="13.800457986071706">
        <ele>51.74</ele>
        <time>2025-02-12T17:16:54.062Z</time>
      </trkpt>
      <trkpt lat="58.7082349229604" lon="13.800535937771201">
        <ele>51.69</ele>
        <time>2025-02-12T17:17:39.371Z</time>
      </trkpt>
      <trkpt lat="58.708242969587445" lon="13.800611961632967">
        <ele>51.64</ele>
        <time>2025-02-12T17:18:24.680Z</time>
      </trkpt>
      <trkpt lat="58.7082589790225" lon="13.800677927210927">
        <ele>51.59</ele>
        <time>2025-02-12T17:19:09.990Z</time>
      </trkpt>
      <trkpt lat="58.708284962922335" lon="13.800717992708087">
        <ele>51.55</ele>
        <time>2025-02-12T17:19:55.300Z</time>
      </trkpt>
      <trkpt lat="58.70831597596407" lon="13.800716986879706">
        <ele>51.5</ele>
        <time>2025-02-12T17:20:40.611Z</time>
      </trkpt>
      <trkpt lat="58.708352940157056" lon="13.800695948302746">
        <ele>51.46</ele>
        <time>2025-02-12T17:21:25.923Z</time>
      </trkpt>
      <trkpt lat="58.70838898234069" lon="13.800666946917772">
        <ele>51.41</ele>
        <time>2025-02-12T17:22:11.235Z</time>
      </trkpt>
      <trkpt lat="58.7084249407053" lon="13.800634928047657">
        <ele>51.37</ele>
        <time>2025-02-12T17:22:56.548Z</time>
      </trkpt>
      <trkpt lat="58.70846391655505" lon="13.800604920834303">
        <ele>51.33</ele>
        <time>2025-02-12T17:23:41.862Z</time>
      </trkpt>
      <trkpt lat="58.70850398205221" lon="13.800567956641316">
        <ele>51.3</ele>
        <time>2025-02-12T17:24:27.176Z</time>
      </trkpt>
      <trkpt lat="58.708543963730335" lon="13.800525963306427">
        <ele>51.26</ele>
        <time>2025-02-12T17:25:12.491Z</time>
      </trkpt>
      <trkpt lat="58.708586962893605" lon="13.80048698745668">
        <ele>51.23</ele>
        <time>2025-02-12T17:25:57.807Z</time>
      </trkpt>
      <trkpt lat="58.708629962056875" lon="13.80044893361628">
        <ele>51.2</ele>
        <time>2025-02-12T17:26:43.124Z</time>
      </trkpt>
      <trkpt lat="58.708674972876906" lon="13.800407946109772">
        <ele>51.17</ele>
        <time>2025-02-12T17:27:28.441Z</time>
      </trkpt>
      <trkpt lat="58.70872098952532" lon="13.800363941118121">
        <ele>51.15</ele>
        <time>2025-02-12T17:28:13.759Z</time>
      </trkpt>
      <trkpt lat="58.70876792818308" lon="13.80031792446971">
        <ele>51.12</ele>
        <time>2025-02-12T17:28:59.078Z</time>
      </trkpt>
      <trkpt lat="58.70881696231663" lon="13.800273919478059">
        <ele>51.1</ele>
        <time>2025-02-12T17:29:44.398Z</time>
      </trkpt>
      <trkpt lat="58.708865996450186" lon="13.80023393779993">
        <ele>51.08</ele>
        <time>2025-02-12T17:30:29.719Z</time>
      </trkpt>
      <trkpt lat="58.70891796424985" lon="13.800196973606944">
        <ele>51.07</ele>
        <time>2025-02-12T17:31:15.041Z</time>
      </trkpt>
      <trkpt lat="58.708973955363035" lon="13.800157997757196">
        <ele>51.05</ele>
        <time>2025-02-12T17:32:00.364Z</time>
      </trkpt>
      <trkpt lat="58.70902994647622" lon="13.800119943916798">
        <ele>51.04</ele>
        <time>2025-02-12T17:32:45.687Z</time>
      </trkpt>
      <trkpt lat="58.70908794924617" lon="13.800084991380572">
        <ele>51.03</ele>
        <time>2025-02-12T17:33:31.011Z</time>
      </trkpt>
      <trkpt lat="58.709144946187735" lon="13.800057917833328">
        <ele>51.02</ele>
        <time>2025-02-12T17:34:16.336Z</time>
      </trkpt>
      <trkpt lat="58.70920395478606" lon="13.800030928105116">
        <ele>51.01</ele>
        <time>2025-02-12T17:35:01.662Z</time>
      </trkpt>
      <trkpt lat="58.70926799252629" lon="13.800001926720142">
        <ele>51.01</ele>
        <time>2025-02-12T17:35:46.989Z</time>
      </trkpt>
      <trkpt lat="58.70932993479073" lon="13.799979966133833">
        <ele>51.0</ele>
        <time>2025-02-12T17:36:32.317Z</time>
      </trkpt>
      <trkpt lat="58.70939095504582" lon="13.799962950870395">
        <ele>51.0</ele>
        <time>2025-02-12T17:37:17.646Z</time>
      </trkpt>
      <trkpt lat="58.70945298112929" lon="13.799948953092098">
        <ele>50.99</ele>
        <time>2025-02-12T17:38:02.976Z</time>
      </trkpt>
      <trkpt lat="58.709513917565346" lon="13.799944929778576">
        <ele>50.99</ele>
        <time>2025-02-12T17:38:48.307Z</time>
      </trkpt>
      <trkpt lat="58.70956697501242" lon="13.79995197057724">
        <ele>50.98</ele>
        <time>2025-02-12T17:39:33.639Z</time>
      </trkpt>
      <trkpt lat="58.70961592532694" lon="13.799959933385253">
        <ele>50.98</ele>
        <time>2025-02-12T17:40:18.972Z</time>
      </trkpt>
      <trkpt lat="58.709661941975355" lon="13.799969991669059">
        <ele>50.98</ele>
        <time>2025-02-12T17:41:04.306Z</time>
      </trkpt>
      <trkpt lat="58.70971097610891" lon="13.799980971962214">
        <ele>50.98</ele>
        <time>2025-02-12T17:41:49.641Z</time>
      </trkpt>
      <trkpt lat="58.7097579985857" lon="13.799997987225652">
        <ele>50.98</ele>
        <time>2025-02-12T17:42:34.976Z</time>
      </trkpt>
      <trkpt lat="58.7098079547286" lon="13.800015924498439">
        <ele>50.99</ele>
        <time>2025-02-12T17:43:20.312Z</time>
      </trkpt>
      <trkpt lat="58.70985698886216" lon="13.80003796890378">
        <ele>50.99</ele>
        <time>2025-02-12T17:44:05.649Z</time>
      </trkpt>
      <trkpt lat="58.70990895666182" lon="13.800065964460373">
        <ele>51.0</ele>
        <time>2025-02-12T17:44:50.987Z</time>
      </trkpt>
      <trkpt lat="58.70996897108853" lon="13.800095971673727">
        <ele>51.01</ele>
        <time>2025-02-12T17:45:36.326Z</time>
      </trkpt>
      <trkpt lat="58.710030997172" lon="13.800131930038333">
        <ele>51.01</ele>
        <time>2025-02-12T17:46:21.666Z</time>
      </trkpt>
      <trkpt lat="58.710092939436436" lon="13.800170989707112">
        <ele>51.02</ele>
        <time>2025-02-12T17:47:07.007Z</time>
      </trkpt>
      <trkpt lat="58.71015194803476" lon="13.800213988870382">
        <ele>51.04</ele>
        <time>2025-02-12T17:47:52.349Z</time>
      </trkpt>
      <trkpt lat="58.71020894497633" lon="13.800262939184904">
        <ele>51.05</ele>
        <time>2025-02-12T17:48:37.692Z</time>
      </trkpt>
      <trkpt lat="58.710264936089516" lon="13.800310967490077">
        <ele>51.07</ele>
        <time>2025-02-12T17:49:23.036Z</time>
      </trkpt>
      <trkpt lat="58.71032394468784" lon="13.800355978310108">
        <ele>51.08</ele>
        <time>2025-02-12T17:50:08.381Z</time>
      </trkpt>
      <trkpt lat="58.71037792414427" lon="13.800396965816617">
        <ele>51.1</ele>
        <time>2025-02-12T17:50:53.727Z</time>
      </trkpt>
      <trkpt lat="58.710430981591344" lon="13.800430996343493">
        <ele>51.12</ele>
        <time>2025-02-12T17:51:39.074Z</time>
      </trkpt>
      <trkpt lat="58.71048194356263" lon="13.800465948879719">
        <ele>51.13</ele>
        <time>2025-02-12T17:52:24.422Z</time>
      </trkpt>
      <trkpt lat="58.71052796021104" lon="13.800505930557847">
        <ele>51.15</ele>
        <time>2025-02-12T17:53:09.770Z</time>
      </trkpt>
      <trkpt lat="58.710565930232406" lon="13.800563933327794">
        <ele>51.18</ele>
        <time>2025-02-12T17:53:55.119Z</time>
      </trkpt>
      <trkpt lat="58.71058898046613" lon="13.800642974674702">
        <ele>51.2</ele>
        <time>2025-02-12T17:54:40.469Z</time>
      </trkpt>
      <trkpt lat="58.710604989901185" lon="13.800728973001242">
        <ele>51.23</ele>
        <time>2025-02-12T17:55:25.820Z</time>
      </trkpt>
      <trkpt lat="58.71062493883073" lon="13.800814971327782">
        <ele>51.25</ele>
        <time>2025-02-12T17:56:11.172Z</time>
      </trkpt>
      <trkpt lat="58.710649916902184" lon="13.800892923027277">
        <ele>51.28</ele>
        <time>2025-02-12T17:56:56.524Z</time>
      </trkpt>
      <trkpt lat="58.7106819357723" lon="13.800948997959495">
        <ele>51.3</ele>
        <time>2025-02-12T17:57:41.877Z</time>
      </trkpt>
      <trkpt lat="58.71071898378432" lon="13.800976993516088">
        <ele>51.33</ele>
        <time>2025-02-12T17:58:27.231Z</time>
      </trkpt>
      <trkpt lat="58.71075293049216" lon="13.800995936617255">
        <ele>51.36</ele>
        <time>2025-02-12T17:59:12.585Z</time>
      </trkpt>
      <trkpt lat="58.710776986554265" lon="13.80102694965899">
        <ele>51.38</ele>
        <time>2025-02-12T17:59:57.940Z</time>
      </trkpt>
      <trkpt lat="58.71078796684742" lon="13.801071960479021">
        <ele>51.41</ele>
        <time>2025-02-12T18:00:43.295Z</time>
      </trkpt>
      <trkpt lat="58.710777992382646" lon="13.801121916621923">
        <ele>51.45</ele>
        <time>2025-02-12T18:01:28.651Z</time>
      </trkpt>
      <trkpt lat="58.71076198294759" lon="13.801173968240619">
        <ele>51.49</ele>
        <time>2025-02-12T18:02:14.007Z</time>
      </trkpt>
      <trkpt lat="58.71074999682605" lon="13.801228953525424">
        <ele>51.52</ele>
        <time>2025-02-12T18:02:59.364Z</time>
      </trkpt>
      <trkpt lat="58.71072996407747" lon="13.801282932981849">
        <ele>51.56</ele>
        <time>2025-02-12T18:03:44.721Z</time>
      </trkpt>
      <trkpt lat="58.71070398017764" lon="13.801330961287022">
        <ele>51.6</ele>
        <time>2025-02-12T18:04:30.079Z</time>
      </trkpt>
      <trkpt lat="58.71067799627781" lon="13.801381923258305">
        <ele>51.64</ele>
        <time>2025-02-12T18:05:15.437Z</time>
      </trkpt>
      <trkpt lat="58.71065394021571" lon="13.801433974877">
        <ele>51.69</ele>
        <time>2025-02-12T18:06:00.796Z</time>
      </trkpt>
      <trkpt lat="58.710627956315875" lon="13.801481919363141">
        <ele>51.73</ele>
        <time>2025-02-12T18:06:46.155Z</time>
      </trkpt>
      <trkpt lat="58.7105989549309" lon="13.801526930183172">
        <ele>51.77</ele>
        <time>2025-02-12T18:07:31.515Z</time>
      </trkpt>
      <trkpt lat="58.71056894771755" lon="13.801566995680332">
        <ele>51.81</ele>
        <time>2025-02-12T18:08:16.876Z</time>
      </trkpt>
      <trkpt lat="58.710540952160954" lon="13.801602954044938">
        <ele>51.86</ele>
        <time>2025-02-12T18:09:02.237Z</time>
      </trkpt>
      <trkpt lat="58.71051396243274" lon="13.801640924066305">
        <ele>51.9</ele>
        <time>2025-02-12T18:09:47.599Z</time>
      </trkpt>
      <trkpt lat="58.71048496104777" lon="13.801678977906704">
        <ele>51.95</ele>
        <time>2025-02-12T18:10:32.961Z</time>
      </trkpt>
      <trkpt lat="58.710455959662795" lon="13.801709990948439">
        <ele>51.99</ele>
        <time>2025-02-12T18:11:18.324Z</time>
      </trkpt>
      <trkpt lat="58.7104229349643" lon="13.801746955141425">
        <ele>52.04</ele>
        <time>2025-02-12T18:12:03.687Z</time>
      </trkpt>
      <trkpt lat="58.71038395911455" lon="13.801790960133076">
        <ele>52.08</ele>
        <time>2025-02-12T18:12:49.051Z</time>
      </trkpt>
      <trkpt lat="58.71034397743642" lon="13.801835970953107">
        <ele>52.12</ele>
        <time>2025-02-12T18:13:34.416Z</time>
      </trkpt>
      <trkpt lat="58.710303995758295" lon="13.801881987601519">
        <ele>52.17</ele>
        <time>2025-02-12T18:14:19.782Z</time>
      </trkpt>
      <trkpt lat="58.710262924432755" lon="13.80192599259317">
        <ele>52.21</ele>
        <time>2025-02-12T18:15:05.148Z</time>
      </trkpt>
      <trkpt lat="58.710219925269485" lon="13.801975948736072">
        <ele>52.25</ele>
        <time>2025-02-12T18:15:50.515Z</time>
      </trkpt>
      <trkpt lat="58.710176926106215" lon="13.802024982869625">
        <ele>52.29</ele>
        <time>2025-02-12T18:16:35.883Z</time>
      </trkpt>
      <trkpt lat="58.710132921114564" lon="13.802073933184147">
        <ele>52.34</ele>
        <time>2025-02-12T18:17:21.252Z</time>
      </trkpt>
      <trkpt lat="58.710086988285184" lon="13.80212196148932">
        <ele>52.38</ele>
        <time>2025-02-12T18:18:06.622Z</time>
      </trkpt>
      <trkpt lat="58.71004197746515" lon="13.802176946774125">
        <ele>52.42</ele>
        <time>2025-02-12T18:18:51.992Z</time>
      </trkpt>
      <trkpt lat="58.70999495498836" lon="13.802233943715692">
        <ele>52.47</ele>
        <time>2025-02-12T18:19:37.363Z</time>
      </trkpt>
      <trkpt lat="58.70994592085481" lon="13.80229496397078">
        <ele>52.51</ele>
        <time>2025-02-12T18:20:22.735Z</time>
      </trkpt>
      <trkpt lat="58.709896970540285" lon="13.80236092954874">
        <ele>52.56</ele>
        <time>2025-02-12T18:21:08.108Z</time>
      </trkpt>
      <trkpt lat="58.70984693057835" lon="13.802433935925364">
        <ele>52.6</ele>
        <time>2025-02-12T18:21:53.482Z</time>
      </trkpt>
      <trkpt lat="58.70979798026383" lon="13.802511971443892">
        <ele>52.64</ele>
        <time>2025-02-12T18:22:38.857Z</time>
      </trkpt>
      <trkpt lat="58.709748946130276" lon="13.80259495228529">
        <ele>52.68</ele>
        <time>2025-02-12T18:23:24.233Z</time>
      </trkpt>
      <trkpt lat="58.70970192365348" lon="13.80267994478345">
        <ele>52.73</ele>
        <time>2025-02-12T18:24:09.610Z</time>
      </trkpt>
      <trkpt lat="58.709656996652484" lon="13.80276694893837">
        <ele>52.77</ele>
        <time>2025-02-12T18:24:54.988Z</time>
      </trkpt>
      <trkpt lat="58.70961198583245" lon="13.802857976406813">
        <ele>52.81</ele>
        <time>2025-02-12T18:25:40.367Z</time>
      </trkpt>
      <trkpt lat="58.70956898666918" lon="13.802949925884604">
        <ele>52.85</ele>
        <time>2025-02-12T18:26:25.747Z</time>
      </trkpt>
      <trkpt lat="58.709527999162674" lon="13.803038941696286">
        <ele>52.89</ele>
        <time>2025-02-12T18:27:11.128Z</time>
      </trkpt>
      <trkpt lat="58.70948592200875" lon="13.803126951679587">
        <ele>52.93</ele>
        <time>2025-02-12T18:27:56.510Z</time>
      </trkpt>
      <trkpt lat="58.709444934502244" lon="13.803213955834508">
        <ele>52.97</ele>
        <time>2025-02-12T18:28:41.893Z</time>
      </trkpt>
      <trkpt lat="58.709404952824116" lon="13.803301965817809">
        <ele>53.01</ele>
        <time>2025-02-12T18:29:27.277Z</time>
      </trkpt>
      <trkpt lat="58.709360947832465" lon="13.803398944437504">
        <ele>53.05</ele>
        <time>2025-02-12T18:30:12.662Z</time>
      </trkpt>
      <trkpt lat="58.709315937012434" lon="13.803494917228818">
        <ele>53.08</ele>
        <time>2025-02-12T18:30:58.049Z</time>
      </trkpt>
      <trkpt lat="58.70926992036402" lon="13.803592985495925">
        <ele>53.11</ele>
        <time>2025-02-12T18:31:43.437Z</time>
      </trkpt>
      <trkpt lat="58.7092259991914" lon="13.803688958287239">
        <ele>53.14</ele>
        <time>2025-02-12T18:32:28.826Z</time>
      </trkpt>
      <trkpt lat="58.7091829162091" lon="13.803788954392076">
        <ele>53.18</ele>
        <time>2025-02-12T18:33:14.216Z</time>
      </trkpt>
      <trkpt lat="58.70913991704583" lon="13.80388199351728">
        <ele>53.21</ele>
        <time>2025-02-12T18:33:59.607Z</time>
      </trkpt>
      <trkpt lat="58.70909892953932" lon="13.803975954651833">
        <ele>53.24</ele>
        <time>2025-02-12T18:34:44.999Z</time>
      </trkpt>
      <trkpt lat="58.709058947861195" lon="13.804071927443147">
        <ele>53.28</ele>
        <time>2025-02-12T18:35:30.392Z</time>
      </trkpt>
      <trkpt lat="58.70902097783983" lon="13.804169995710254">
        <ele>53.3</ele>
        <time>2025-02-12T18:36:15.786Z</time>
      </trkpt>
      <trkpt lat="58.70898493565619" lon="13.80427393130958">
        <ele>53.32</ele>
        <time>2025-02-12T18:37:01.181Z</time>
      </trkpt>
      <trkpt lat="58.708948977291584" lon="13.80437895655632">
        <ele>53.35</ele>
        <time>2025-02-12T18:37:46.577Z</time>
      </trkpt>
      <trkpt lat="58.70891394093633" lon="13.80448398180306">
        <ele>53.38</ele>
        <time>2025-02-12T18:38:31.974Z</time>
      </trkpt>
      <trkpt lat="58.7088789884001" lon="13.804588923230767">
        <ele>53.4</ele>
        <time>2025-02-12T18:39:17.372Z</time>
      </trkpt>
      <trkpt lat="58.708845963701606" lon="13.804692942649126">
        <ele>53.42</ele>
        <time>2025-02-12T18:40:02.771Z</time>
      </trkpt>
      <trkpt lat="58.70881293900311" lon="13.804796962067485">
        <ele>53.44</ele>
        <time>2025-02-12T18:40:48.171Z</time>
      </trkpt>
      <trkpt lat="58.708778992295265" lon="13.804902993142605">
        <ele>53.46</ele>
        <time>2025-02-12T18:41:33.572Z</time>
      </trkpt>
      <trkpt lat="58.70874496176839" lon="13.805009946227074">
        <ele>53.48</ele>
        <time>2025-02-12T18:42:18.974Z</time>
      </trkpt>
      <trkpt lat="58.70870992541313" lon="13.805115977302194">
        <ele>53.49</ele>
        <time>2025-02-12T18:43:04.377Z</time>
      </trkpt>
      <trkpt lat="58.708674972876906" lon="13.805219996720552">
        <ele>53.51</ele>
        <time>2025-02-12T18:43:49.781Z</time>
      </trkpt>
      <trkpt lat="58.70864094235003" lon="13.80532393231988">
        <ele>53.53</ele>
        <time>2025-02-12T18:44:35.186Z</time>
      </trkpt>
      <trkpt lat="58.708605989813805" lon="13.805424934253097">
        <ele>53.54</ele>
        <time>2025-02-12T18:45:20.592Z</time>
      </trkpt>
      <trkpt lat="58.708567935973406" lon="13.805511938408017">
        <ele>53.56</ele>
        <time>2025-02-12T18:46:05.999Z</time>
      </trkpt>
      <trkpt lat="58.708523930981755" lon="13.805591985583305">
        <ele>53.57</ele>
        <time>2025-02-12T18:46:51.407Z</time>
      </trkpt>
      <trkpt lat="58.708475986495614" lon="13.80566893145442">
        <ele>53.58</ele>
        <time>2025-02-12T18:47:36.816Z</time>
      </trkpt>
      <trkpt lat="58.70842292904854" lon="13.805738920345902">
        <ele>53.59</ele>
        <time>2025-02-12T18:48:22.226Z</time>
      </trkpt>
      <trkpt lat="58.70836593210697" lon="13.805795917287469">
        <ele>53.6</ele>
        <time>2025-02-12T18:49:07.637Z</time>
      </trkpt>
      <trkpt lat="58.70830591768026" lon="13.805838916450739">
        <ele>53.61</ele>
        <time>2025-02-12T18:49:53.049Z</time>
      </trkpt>
      <trkpt lat="58.70824799872935" lon="13.805865989997983">
        <ele>53.61</ele>
        <time>2025-02-12T18:50:38.462Z</time>
      </trkpt>
      <trkpt lat="58.70818396098912" lon="13.805888956412673">
        <ele>53.61</ele>
        <time>2025-02-12T18:51:23.876Z</time>
      </trkpt>
      <trkpt lat="58.70811799541116" lon="13.805908989161253">
        <ele>53.62</ele>
        <time>2025-02-12T18:52:09.291Z</time>
      </trkpt>
      <trkpt lat="58.708051946014166" lon="13.80592692643404">
        <ele>53.62</ele>
        <time>2025-02-12T18:52:54.707Z</time>
      </trkpt>
      <trkpt lat="58.707985980436206" lon="13.805943941697478">
        <ele>53.62</ele>
        <time>2025-02-12T18:53:40.125Z</time>
      </trkpt>
      <trkpt lat="58.707920936867595" lon="13.805958945304155">
        <ele>53.62</ele>
        <time>2025-02-12T18:54:25.544Z</time>
      </trkpt>
      <trkpt lat="58.707856982946396" lon="13.805974954739213">
        <ele>53.62</ele>
        <time>2025-02-12T18:55:10.964Z</time>
      </trkpt>
      <trkpt lat="58.70779495686293" lon="13.805991970002651">
        <ele>53.62</ele>
        <time>2025-02-12T18:55:56.385Z</time>
      </trkpt>
      <trkpt lat="58.7077359482646" lon="13.80600999109447">
        <ele>53.61</ele>
        <time>2025-02-12T18:56:41.807Z</time>
      </trkpt>
      <trkpt lat="58.70767693966627" lon="13.806034969165921">
        <ele>53.6</ele>
        <time>2025-02-12T18:57:27.230Z</time>
      </trkpt>
      <trkpt lat="58.707619942724705" lon="13.806064976379275">
        <ele>53.59</ele>
        <time>2025-02-12T18:58:12.654Z</time>
      </trkpt>
      <trkpt lat="58.70756294578314" lon="13.806101940572262">
        <ele>53.58</ele>
        <time>2025-02-12T18:58:58.078Z</time>
      </trkpt>
      <trkpt lat="58.707508966326714" lon="13.806143933907151">
        <ele>53.57</ele>
        <time>2025-02-12T18:59:43.503Z</time>
      </trkpt>
      <trkpt lat="58.70745498687029" lon="13.806187938898802">
        <ele>53.56</ele>
        <time>2025-02-12T19:00:28.929Z</time>
      </trkpt>
      <trkpt lat="58.707402935251594" lon="13.806232949718833">
        <ele>53.55</ele>
        <time>2025-02-12T19:01:14.356Z</time>
      </trkpt>
      <trkpt lat="58.70735197328031" lon="13.806280978024006">
        <ele>53.54</ele>
        <time>2025-02-12T19:01:59.784Z</time>
      </trkpt>
      <trkpt lat="58.707300927489996" lon="13.80633294582367">
        <ele>53.52</ele>
        <time>2025-02-12T19:02:45.213Z</time>
      </trkpt>
      <trkpt lat="58.707251977175474" lon="13.806388936936855">
        <ele>53.5</ele>
        <time>2025-02-12T19:03:30.643Z</time>
      </trkpt>
      <trkpt lat="58.7072039488703" lon="13.806446939706802">
        <ele>53.48</ele>
        <time>2025-02-12T19:04:16.074Z</time>
      </trkpt>
      <trkpt lat="58.70715692639351" lon="13.806501924991608">
        <ele>53.46</ele>
        <time>2025-02-12T19:05:01.506Z</time>
      </trkpt>
      <trkpt lat="58.70710998773575" lon="13.806552970781922">
        <ele>53.44</ele>
        <time>2025-02-12T19:05:46.939Z</time>
      </trkpt>
      <trkpt lat="58.707062965258956" lon="13.806604938581586">
        <ele>53.42</ele>
        <time>2025-02-12T19:06:32.373Z</time>
      </trkpt>
      <trkpt lat="58.707015942782164" lon="13.806656990200281">
        <ele>53.39</ele>
        <time>2025-02-12T19:07:17.807Z</time>
      </trkpt>
      <trkpt lat="58.70697193779051" lon="13.806709963828325">
        <ele>53.36</ele>
        <time>2025-02-12T19:08:03.242Z</time>
      </trkpt>
      <trkpt lat="58.70692793279886" lon="13.80676494911313">
        <ele>53.33</ele>
        <time>2025-02-12T19:08:48.678Z</time>
      </trkpt>
      <trkpt lat="58.70688593946397" lon="13.806818928569555">
        <ele>53.3</ele>
        <time>2025-02-12T19:09:34.115Z</time>
      </trkpt>
      <trkpt lat="58.706845957785845" lon="13.80686997435987">
        <ele>53.27</ele>
        <time>2025-02-12T19:10:19.553Z</time>
      </trkpt>
      <trkpt lat="58.7068069819361" lon="13.806917918846011">
        <ele>53.24</ele>
        <time>2025-02-12T19:11:04.991Z</time>
      </trkpt>
      <trkpt lat="58.70677093975246" lon="13.806961923837662">
        <ele>53.2</ele>
        <time>2025-02-12T19:11:50.430Z</time>
      </trkpt>
      <trkpt lat="58.706739926710725" lon="13.807002995163202">
        <ele>53.16</ele>
        <time>2025-02-12T19:12:35.870Z</time>
      </trkpt>
      <trkpt lat="58.70671394281089" lon="13.807036941871047">
        <ele>53.12</ele>
        <time>2025-02-12T19:13:21.310Z</time>
      </trkpt>
      <trkpt lat="58.706692988052964" lon="13.807070972397923">
        <ele>53.09</ele>
        <time>2025-02-12T19:14:06.751Z</time>
      </trkpt>
      <trkpt lat="58.706673961132765" lon="13.80710693076253">
        <ele>53.04</ele>
        <time>2025-02-12T19:14:52.192Z</time>
      </trkpt>
      <trkpt lat="58.706654934212565" lon="13.807152947410941">
        <ele>53.0</ele>
        <time>2025-02-12T19:15:37.634Z</time>
      </trkpt>
      <trkpt lat="58.70664194226265" lon="13.807219918817282">
        <ele>52.96</ele>
        <time>2025-02-12T19:16:23.076Z</time>
      </trkpt>
      <trkpt lat="58.70663892477751" lon="13.80729896016419">
        <ele>52.91</ele>
        <time>2025-02-12T19:17:08.519Z</time>
      </trkpt>
      <trkpt lat="58.70664596557617" lon="13.807381941005588">
        <ele>52.86</ele>
        <time>2025-02-12T19:17:53.963Z</time>
      </trkpt>
      <trkpt lat="58.70666197501123" lon="13.807467939332128">
        <ele>52.81</ele>
        <time>2025-02-12T19:18:39.407Z</time>
      </trkpt>
      <trkpt lat="58.70668494142592" lon="13.807561984285712">
        <ele>52.76</ele>
        <time>2025-02-12T19:19:24.852Z</time>
      </trkpt>
      <trkpt lat="58.70671394281089" lon="13.807655945420265">
        <ele>52.71</ele>
        <time>2025-02-12T19:20:10.298Z</time>
      </trkpt>
      <trkpt lat="58.70674294419587" lon="13.80774999037385">
        <ele>52.65</ele>
        <time>2025-02-12T19:20:55.745Z</time>
      </trkpt>
      <trkpt lat="58.70677194558084" lon="13.807847974821925">
        <ele>52.6</ele>
        <time>2025-02-12T19:21:41.193Z</time>
      </trkpt>
      <trkpt lat="58.706801952794194" lon="13.80794595927">
        <ele>52.55</ele>
        <time>2025-02-12T19:22:26.642Z</time>
      </trkpt>
      <trkpt lat="58.70683397166431" lon="13.808041932061315">
        <ele>52.5</ele>
        <time>2025-02-12T19:23:12.092Z</time>
      </trkpt>
      <trkpt lat="58.706865990534425" lon="13.80813798867166">
        <ele>52.44</ele>
        <time>2025-02-12T19:23:57.543Z</time>
      </trkpt>
      <trkpt lat="58.70689691975713" lon="13.808234967291355">
        <ele>52.38</ele>
        <time>2025-02-12T19:24:42.995Z</time>
      </trkpt>
      <trkpt lat="58.70692692697048" lon="13.80833295173943">
        <ele>52.32</ele>
        <time>2025-02-12T19:25:28.448Z</time>
      </trkpt>
      <trkpt lat="58.706956934183836" lon="13.808429930359125">
        <ele>52.26</ele>
        <time>2025-02-12T19:26:13.902Z</time>
      </trkpt>
      <trkpt lat="58.70698895305395" lon="13.808528920635581">
        <ele>52.2</ele>
        <time>2025-02-12T19:26:59.357Z</time>
      </trkpt>
      <trkpt lat="58.70702197775245" lon="13.808630928397179">
        <ele>52.15</ele>
        <time>2025-02-12T19:27:44.813Z</time>
      </trkpt>
      <trkpt lat="58.70705491863191" lon="13.80873796530068">
        <ele>52.09</ele>
        <time>2025-02-12T19:28:30.270Z</time>
      </trkpt>
      <trkpt lat="58.70708894915879" lon="13.80884693004191">
        <ele>52.03</ele>
        <time>2025-02-12T19:29:15.728Z</time>
      </trkpt>
      <trkpt lat="58.707122979685664" lon="13.808957990258932">
        <ele>51.97</ele>
        <time>2025-02-12T19:30:01.187Z</time>
      </trkpt>
      <trkpt lat="58.70715793222189" lon="13.809068966656923">
        <ele>51.91</ele>
        <time>2025-02-12T19:30:46.647Z</time>
      </trkpt>
      <trkpt lat="58.70719498023391" lon="13.809178937226534">
        <ele>51.85</ele>
        <time>2025-02-12T19:31:32.108Z</time>
      </trkpt>
      <trkpt lat="58.707230938598514" lon="13.809289997443557">
        <ele>51.79</ele>
        <time>2025-02-12T19:32:17.570Z</time>
      </trkpt>
      <trkpt lat="58.70726496912539" lon="13.809399968013167">
        <ele>51.73</ele>
        <time>2025-02-12T19:33:03.033Z</time>
      </trkpt>
      <trkpt lat="58.707297993823886" lon="13.809507926926017">
        <ele>51.67</ele>
        <time>2025-02-12T19:33:48.497Z</time>
      </trkpt>
      <trkpt lat="58.70733194053173" lon="13.809612952172756">
        <ele>51.62</ele>
        <time>2025-02-12T19:34:33.962Z</time>
      </trkpt>
      <trkpt lat="58.70736597105861" lon="13.809717977419496">
        <ele>51.56</ele>
        <time>2025-02-12T19:35:19.428Z</time>
      </trkpt>
      <trkpt lat="58.7073989957571" lon="13.809827947989106">
        <ele>51.5</ele>
        <time>2025-02-12T19:36:04.895Z</time>
      </trkpt>
      <trkpt lat="58.70743093080819" lon="13.809938924387097">
        <ele>51.45</ele>
        <time>2025-02-12T19:36:50.363Z</time>
      </trkpt>
      <trkpt lat="58.707465967163444" lon="13.81004998460412">
        <ele>51.39</ele>
        <time>2025-02-12T19:37:35.832Z</time>
      </trkpt>
      <trkpt lat="58.70749999769032" lon="13.810162972658873">
        <ele>51.33</ele>
        <time>2025-02-12T19:38:21.303Z</time>
      </trkpt>
      <trkpt lat="58.707535956054926" lon="13.810271937400103">
        <ele>51.27</ele>
        <time>2025-02-12T19:39:06.775Z</time>
      </trkpt>
      <trkpt lat="58.70757292024791" lon="13.810379980131984">
        <ele>51.21</ele>
        <time>2025-02-12T19:39:52.248Z</time>
      </trkpt>
      <trkpt lat="58.70760996825993" lon="13.810492968186736">
        <ele>51.15</ele>
        <time>2025-02-12T19:40:37.722Z</time>
      </trkpt>
      <trkpt lat="58.70764592662454" lon="13.81060796789825">
        <ele>51.09</ele>
        <time>2025-02-12T19:41:23.197Z</time>
      </trkpt>
      <trkpt lat="58.70767995715141" lon="13.810725985094905">
        <ele>51.03</ele>
        <time>2025-02-12T19:42:08.673Z</time>
      </trkpt>
      <trkpt lat="58.70771298184991" lon="13.810841990634799">
        <ele>50.96</ele>
        <time>2025-02-12T19:42:54.150Z</time>
      </trkpt>
      <trkpt lat="58.707747934386134" lon="13.810958918184042">
        <ele>50.9</ele>
        <time>2025-02-12T19:43:39.628Z</time>
      </trkpt>
      <trkpt lat="58.70777894742787" lon="13.811078947037458">
        <ele>50.83</ele>
        <time>2025-02-12T19:44:25.107Z</time>
      </trkpt>
      <trkpt lat="58.707810966297984" lon="13.811198975890875">
        <ele>50.76</ele>
        <time>2025-02-12T19:45:10.588Z</time>
      </trkpt>
      <trkpt lat="58.70783996768296" lon="13.811325961723924">
        <ele>50.7</ele>
        <time>2025-02-12T19:45:56.070Z</time>
      </trkpt>
      <trkpt lat="58.70786695741117" lon="13.811454959213734">
        <ele>50.64</ele>
        <time>2025-02-12T19:46:41.553Z</time>
      </trkpt>
      <trkpt lat="58.707892941311" lon="13.811585968360305">
        <ele>50.58</ele>
        <time>2025-02-12T19:47:27.037Z</time>
      </trkpt>
      <trkpt lat="58.70791892521083" lon="13.811717983335257">
        <ele>50.51</ele>
        <time>2025-02-12T19:48:12.522Z</time>
      </trkpt>
      <trkpt lat="58.70794599875808" lon="13.811849998310208">
        <ele>50.45</ele>
        <time>2025-02-12T19:48:58.008Z</time>
      </trkpt>
      <trkpt lat="58.70797198265791" lon="13.811979917809367">
        <ele>50.39</ele>
        <time>2025-02-12T19:49:43.496Z</time>
      </trkpt>
      <trkpt lat="58.70799696072936" lon="13.8121129386127">
        <ele>50.34</ele>
        <time>2025-02-12T19:50:28.985Z</time>
      </trkpt>
      <trkpt lat="58.70801992714405" lon="13.81224394775927">
        <ele>50.28</ele>
        <time>2025-02-12T19:51:14.475Z</time>
      </trkpt>
      <trkpt lat="58.70803995989263" lon="13.81237093359232">
        <ele>50.22</ele>
        <time>2025-02-12T19:51:59.966Z</time>
      </trkpt>
      <trkpt lat="58.70805798098445" lon="13.812498925253749">
        <ele>50.17</ele>
        <time>2025-02-12T19:52:45.458Z</time>
      </trkpt>
      <trkpt lat="58.70807499624789" lon="13.81262599490583">
        <ele>50.11</ele>
        <time>2025-02-12T19:53:30.951Z</time>
      </trkpt>
      <trkpt lat="58.708093939349055" lon="13.812750969082117">
        <ele>50.06</ele>
        <time>2025-02-12T19:54:16.445Z</time>
      </trkpt>
      <trkpt lat="58.708112966269255" lon="13.812871919944882">
        <ele>50.0</ele>
        <time>2025-02-12T19:55:01.940Z</time>
      </trkpt>
      <trkpt lat="58.70813098736107" lon="13.81299295462668">
        <ele>49.95</ele>
        <time>2025-02-12T19:55:47.436Z</time>
      </trkpt>
      <trkpt lat="58.70814993046224" lon="13.813114995136857">
        <ele>49.9</ele>
        <time>2025-02-12T19:56:32.933Z</time>
      </trkpt>
      <trkpt lat="58.7081709690392" lon="13.813234940171242">
        <ele>49.85</ele>
        <time>2025-02-12T19:57:18.431Z</time>
      </trkpt>
      <trkpt lat="58.70819091796875" lon="13.8133579865098">
        <ele>49.8</ele>
        <time>2025-02-12T19:58:03.931Z</time>
      </trkpt>
      <trkpt lat="58.70820994488895" lon="13.813482960686088">
        <ele>49.75</ele>
        <time>2025-02-12T19:58:49.432Z</time>
      </trkpt>
      <trkpt lat="58.70822796598077" lon="13.813612964004278">
        <ele>49.71</ele>
        <time>2025-02-12T19:59:34.934Z</time>
      </trkpt>
      <trkpt lat="58.708243975415826" lon="13.81374497897923">
        <ele>49.66</ele>
        <time>2025-02-12T20:00:20.437Z</time>
      </trkpt>
      <trkpt lat="58.70825998485088" lon="13.81387498229742">
        <ele>49.61</ele>
        <time>2025-02-12T20:01:05.941Z</time>
      </trkpt>
      <trkpt lat="58.70827599428594" lon="13.81400297395885">
        <ele>49.56</ele>
        <time>2025-02-12T20:01:51.446Z</time>
      </trkpt>
      <trkpt lat="58.70829191990197" lon="13.814127948135138">
        <ele>49.52</ele>
        <time>2025-02-12T20:02:36.952Z</time>
      </trkpt>
      <trkpt lat="58.708306923508644" lon="13.814252922311425">
        <ele>49.48</ele>
        <time>2025-02-12T20:03:22.459Z</time>
      </trkpt>
      <trkpt lat="58.70832092128694" lon="13.814375968649983">
        <ele>49.44</ele>
        <time>2025-02-12T20:04:07.967Z</time>
      </trkpt>
      <trkpt lat="58.70833299122751" lon="13.81449893116951">
        <ele>49.4</ele>
        <time>2025-02-12T20:04:53.476Z</time>
      </trkpt>
      <trkpt lat="58.70834598317742" lon="13.814622983336449">
        <ele>49.36</ele>
        <time>2025-02-12T20:05:38.986Z</time>
      </trkpt>
      <trkpt lat="58.70835796929896" lon="13.814746951684356">
        <ele>49.33</ele>
        <time>2025-02-12T20:06:24.497Z</time>
      </trkpt>
      <trkpt lat="58.708373978734016" lon="13.814866980537772">
        <ele>49.29</ele>
        <time>2025-02-12T20:07:10.009Z</time>
      </trkpt>
      <trkpt lat="58.70838797651231" lon="13.814985919743776">
        <ele>49.26</ele>
        <time>2025-02-12T20:07:55.523Z</time>
      </trkpt>
      <trkpt lat="58.70840499177575" lon="13.81510192528367">
        <ele>49.22</ele>
        <time>2025-02-12T20:08:41.038Z</time>
      </trkpt>
      <trkpt lat="58.70841999538243" lon="13.815219942480326">
        <ele>49.19</ele>
        <time>2025-02-12T20:09:26.554Z</time>
      </trkpt>
      <trkpt lat="58.70844195596874" lon="13.815343994647264">
        <ele>49.17</ele>
        <time>2025-02-12T20:10:12.071Z</time>
      </trkpt>
      <trkpt lat="58.708459977060556" lon="13.81546494551003">
        <ele>49.14</ele>
        <time>2025-02-12T20:10:57.589Z</time>
      </trkpt>
      <trkpt lat="58.708477998152375" lon="13.815586986020207">
        <ele>49.11</ele>
        <time>2025-02-12T20:11:43.108Z</time>
      </trkpt>
      <trkpt lat="58.70849593542516" lon="13.815706931054592">
        <ele>49.09</ele>
        <time>2025-02-12T20:12:28.628Z</time>
      </trkpt>
      <trkpt lat="58.70851395651698" lon="13.815825954079628">
        <ele>49.07</ele>
        <time>2025-02-12T20:13:14.149Z</time>
      </trkpt>
      <trkpt lat="58.70853097178042" lon="13.815940953791142">
        <ele>49.05</ele>
        <time>2025-02-12T20:13:59.671Z</time>
      </trkpt>
      <trkpt lat="58.70854798704386" lon="13.816052936017513">
        <ele>49.03</ele>
        <time>2025-02-12T20:14:45.194Z</time>
      </trkpt>
      <trkpt lat="58.70856097899377" lon="13.816160978749394">
        <ele>49.01</ele>
        <time>2025-02-12T20:15:30.718Z</time>
      </trkpt>
      <trkpt lat="58.70857095345855" lon="13.816261980682611">
        <ele>48.99</ele>
        <time>2025-02-12T20:16:16.243Z</time>
      </trkpt>
      <trkpt lat="58.70857698842883" lon="13.816357953473926">
        <ele>48.97</ele>
        <time>2025-02-12T20:17:01.768Z</time>
      </trkpt>
      <trkpt lat="58.70858394540846" lon="13.816462978720665">
        <ele>48.96</ele>
        <time>2025-02-12T20:17:47.294Z</time>
      </trkpt>
      <trkpt lat="58.708584951236844" lon="13.816577978432178">
        <ele>48.94</ele>
        <time>2025-02-12T20:18:32.821Z</time>
      </trkpt>
      <trkpt lat="58.70857992209494" lon="13.816695995628834">
        <ele>48.92</ele>
        <time>2025-02-12T20:19:18.349Z</time>
      </trkpt>
      <trkpt lat="58.70857497677207" lon="13.816809989511967">
        <ele>48.9</ele>
        <time>2025-02-12T20:20:03.878Z</time>
      </trkpt>
      <trkpt lat="58.708566930145025" lon="13.81692691706121">
        <ele>48.89</ele>
        <time>2025-02-12T20:20:49.408Z</time>
      </trkpt>
      <trkpt lat="58.70855997316539" lon="13.817044934257865">
        <ele>48.88</ele>
        <time>2025-02-12T20:21:34.939Z</time>
      </trkpt>
      <trkpt lat="58.70855393819511" lon="13.81716194562614">
        <ele>48.86</ele>
        <time>2025-02-12T20:22:20.471Z</time>
      </trkpt>
      <trkpt lat="58.70854798704386" lon="13.817277951166034">
        <ele>48.85</ele>
        <time>2025-02-12T20:23:06.004Z</time>
      </trkpt>
      <trkpt lat="58.70854094624519" lon="13.817393956705928">
        <ele>48.84</ele>
        <time>2025-02-12T20:23:51.538Z</time>
      </trkpt>
      <trkpt lat="58.70853499509394" lon="13.817511973902583">
        <ele>48.84</ele>
        <time>2025-02-12T20:24:37.073Z</time>
      </trkpt>
      <trkpt lat="58.70852896012366" lon="13.817625967785716">
        <ele>48.84</ele>
        <time>2025-02-12T20:25:22.609Z</time>
      </trkpt>
      <trkpt lat="58.708518985658884" lon="13.817738955840468">
        <ele>48.84</ele>
        <time>2025-02-12T20:26:08.146Z</time>
      </trkpt>
      <trkpt lat="58.70851093903184" lon="13.81784993223846">
        <ele>48.84</ele>
        <time>2025-02-12T20:26:53.684Z</time>
      </trkpt>
      <trkpt lat="58.70850398205221" lon="13.817958980798721">
        <ele>48.84</ele>
        <time>2025-02-12T20:27:39.223Z</time>
      </trkpt>
      <trkpt lat="58.70849794708192" lon="13.818069957196712">
        <ele>48.85</ele>
        <time>2025-02-12T20:28:24.763Z</time>
      </trkpt>
      <trkpt lat="58.70848897844553" lon="13.818182945251465">
        <ele>48.86</ele>
        <time>2025-02-12T20:29:10.304Z</time>
      </trkpt>
      <trkpt lat="58.708479925990105" lon="13.818298950791359">
        <ele>48.86</ele>
        <time>2025-02-12T20:29:55.846Z</time>
      </trkpt>
      <trkpt lat="58.70847095735371" lon="13.818414956331253">
        <ele>48.87</ele>
        <time>2025-02-12T20:30:41.389Z</time>
      </trkpt>
      <trkpt lat="58.7084629945457" lon="13.818528950214386">
        <ele>48.88</ele>
        <time>2025-02-12T20:31:26.933Z</time>
      </trkpt>
      <trkpt lat="58.708456959575415" lon="13.818642944097519">
        <ele>48.88</ele>
        <time>2025-02-12T20:32:12.478Z</time>
      </trkpt>
      <trkpt lat="58.70845193043351" lon="13.81875392049551">
        <ele>48.89</ele>
        <time>2025-02-12T20:32:58.024Z</time>
      </trkpt>
      <trkpt lat="58.70844497345388" lon="13.818861963227391">
        <ele>48.9</ele>
        <time>2025-02-12T20:33:43.570Z</time>
      </trkpt>
      <trkpt lat="58.708439944311976" lon="13.81896992214024">
        <ele>48.91</ele>
        <time>2025-02-12T20:34:29.117Z</time>
      </trkpt>
      <trkpt lat="58.708433993160725" lon="13.81907494738698">
        <ele>48.92</ele>
        <time>2025-02-12T20:35:14.665Z</time>
      </trkpt>
      <trkpt lat="58.70842795819044" lon="13.819174943491817">
        <ele>48.93</ele>
        <time>2025-02-12T20:36:00.214Z</time>
      </trkpt>
      <trkpt lat="58.70842393487692" lon="13.81926697678864">
        <ele>48.94</ele>
        <time>2025-02-12T20:36:45.764Z</time>
      </trkpt>
      <trkpt lat="58.70842192322016" lon="13.81935297511518">
        <ele>48.96</ele>
        <time>2025-02-12T20:37:31.315Z</time>
      </trkpt>
      <trkpt lat="58.70842393487692" lon="13.819433944299817">
        <ele>48.97</ele>
        <time>2025-02-12T20:38:16.866Z</time>
      </trkpt>
      <trkpt lat="58.708435920998454" lon="13.819510973989964">
        <ele>48.99</ele>
        <time>2025-02-12T20:39:02.418Z</time>
      </trkpt>
      <trkpt lat="58.708455953747034" lon="13.819578951224685">
        <ele>49.0</ele>
        <time>2025-02-12T20:39:47.971Z</time>
      </trkpt>
      <trkpt lat="58.708481937646866" lon="13.819626979529858">
        <ele>49.02</ele>
        <time>2025-02-12T20:40:33.524Z</time>
      </trkpt>
      <trkpt lat="58.70851697400212" lon="13.81965497508645">
        <ele>49.04</ele>
        <time>2025-02-12T20:41:19.078Z</time>
      </trkpt>
      <trkpt lat="58.70855594985187" lon="13.819667967036366">
        <ele>49.05</ele>
        <time>2025-02-12T20:42:04.632Z</time>
      </trkpt>
      <trkpt lat="58.70859794318676" lon="13.819673918187618">
        <ele>49.06</ele>
        <time>2025-02-12T20:42:50.187Z</time>
      </trkpt>
      <trkpt lat="58.70864194817841" lon="13.819678947329521">
        <ele>49.08</ele>
        <time>2025-02-12T20:43:35.743Z</time>
      </trkpt>
      <trkpt lat="58.7086889706552" lon="13.819681964814663">
        <ele>49.09</ele>
        <time>2025-02-12T20:44:21.299Z</time>
      </trkpt>
      <trkpt lat="58.708735993131995" lon="13.819682970643044">
        <ele>49.11</ele>
        <time>2025-02-12T20:45:06.856Z</time>
      </trkpt>
      <trkpt lat="58.708783937618136" lon="13.819684982299805">
        <ele>49.13</ele>
        <time>2025-02-12T20:45:52.414Z</time>
      </trkpt>
      <trkpt lat="58.70883096009493" lon="13.819685988128185">
        <ele>49.14</ele>
        <time>2025-02-12T20:46:37.973Z</time>
      </trkpt>
      <trkpt lat="58.70887496508658" lon="13.819690933451056">
        <ele>49.16</ele>
        <time>2025-02-12T20:47:23.532Z</time>
      </trkpt>
      <trkpt lat="58.70891897007823" lon="13.819691939279437">
        <ele>49.17</ele>
        <time>2025-02-12T20:48:09.092Z</time>
      </trkpt>
      <trkpt lat="58.70896297506988" lon="13.81969596259296">
        <ele>49.18</ele>
        <time>2025-02-12T20:48:54.653Z</time>
      </trkpt>
      <trkpt lat="58.70900798588991" lon="13.819700991734862">
        <ele>49.2</ele>
        <time>2025-02-12T20:49:40.215Z</time>
      </trkpt>
      <trkpt lat="58.70905492454767" lon="13.819704931229353">
        <ele>49.21</ele>
        <time>2025-02-12T20:50:25.777Z</time>
      </trkpt>
      <trkpt lat="58.709100941196084" lon="13.819707948714495">
        <ele>49.22</ele>
        <time>2025-02-12T20:51:11.340Z</time>
      </trkpt>
      <trkpt lat="58.709147963672876" lon="13.819709960371256">
        <ele>49.23</ele>
        <time>2025-02-12T20:51:56.904Z</time>
      </trkpt>
      <trkpt lat="58.70919599197805" lon="13.81971599534154">
        <ele>49.24</ele>
        <time>2025-02-12T20:52:42.469Z</time>
      </trkpt>
      <trkpt lat="58.70924091897905" lon="13.819722952321172">
        <ele>49.24</ele>
        <time>2025-02-12T20:53:28.034Z</time>
      </trkpt>
      <trkpt lat="58.7092849239707" lon="13.819727981463075">
        <ele>49.25</ele>
        <time>2025-02-12T20:54:13.600Z</time>
      </trkpt>
      <trkpt lat="58.70932691730559" lon="13.819735944271088">
        <ele>49.25</ele>
        <time>2025-02-12T20:54:59.167Z</time>
      </trkpt>
      <trkpt lat="58.70936597697437" lon="13.81973896175623">
        <ele>49.26</ele>
        <time>2025-02-12T20:55:44.734Z</time>
      </trkpt>
      <trkpt lat="58.709405958652496" lon="13.819737955927849">
        <ele>49.26</ele>
        <time>2025-02-12T20:56:30.302Z</time>
      </trkpt>
      <trkpt lat="58.7094419170171" lon="13.81974097341299">
        <ele>49.26</ele>
        <time>2025-02-12T20:57:15.871Z</time>
      </trkpt>
      <trkpt lat="58.70947594754398" lon="13.819744996726513">
        <ele>49.26</ele>
        <time>2025-02-12T20:58:01.440Z</time>
      </trkpt>
      <trkpt lat="58.709511989727616" lon="13.819748936221004">
        <ele>49.27</ele>
        <time>2025-02-12T20:58:47.010Z</time>
      </trkpt>
      <trkpt lat="58.7095489539206" lon="13.819752959534526">
        <ele>49.27</ele>
        <time>2025-02-12T20:59:32.580Z</time>
      </trkpt>
      <trkpt lat="58.70958399027586" lon="13.819756982848048">
        <ele>49.27</ele>
        <time>2025-02-12T21:00:18.151Z</time>
      </trkpt>
      <trkpt lat="58.709617936983705" lon="13.819759916514158">
        <ele>49.26</ele>
        <time>2025-02-12T21:01:03.722Z</time>
      </trkpt>
      <trkpt lat="58.70965297333896" lon="13.819760922342539">
        <ele>49.26</ele>
        <time>2025-02-12T21:01:49.294Z</time>
      </trkpt>
      <trkpt lat="58.70968792587519" lon="13.819759916514158">
        <ele>49.26</ele>
        <time>2025-02-12T21:02:34.867Z</time>
      </trkpt>
      <trkpt lat="58.709723968058825" lon="13.81975899450481">
        <ele>49.25</ele>
        <time>2025-02-12T21:03:20.440Z</time>
      </trkpt>
      <trkpt lat="58.70975992642343" lon="13.81975899450481">
        <ele>49.24</ele>
        <time>2025-02-12T21:04:06.014Z</time>
      </trkpt>
      <trkpt lat="58.70979496277869" lon="13.8197629339993">
        <ele>49.24</ele>
        <time>2025-02-12T21:04:51.588Z</time>
      </trkpt>
      <trkpt lat="58.70983092114329" lon="13.819764945656061">
        <ele>49.22</ele>
        <time>2025-02-12T21:05:37.163Z</time>
      </trkpt>
      <trkpt lat="58.70986998081207" lon="13.819768968969584">
        <ele>49.21</ele>
        <time>2025-02-12T21:06:22.738Z</time>
      </trkpt>
      <trkpt lat="58.70991096831858" lon="13.819773998111486">
        <ele>49.2</ele>
        <time>2025-02-12T21:07:08.314Z</time>
      </trkpt>
      <trkpt lat="58.70995396748185" lon="13.819778943434358">
        <ele>49.18</ele>
        <time>2025-02-12T21:07:53.891Z</time>
      </trkpt>
      <trkpt lat="58.7099979724735" lon="13.81978296674788">
        <ele>49.16</ele>
        <time>2025-02-12T21:08:39.469Z</time>
      </trkpt>
      <trkpt lat="58.71004097163677" lon="13.81978397257626">
        <ele>49.15</ele>
        <time>2025-02-12T21:09:25.047Z</time>
      </trkpt>
      <trkpt lat="58.7100859824568" lon="13.819788917899132">
        <ele>49.13</ele>
        <time>2025-02-12T21:10:10.626Z</time>
      </trkpt>
      <trkpt lat="58.710131999105215" lon="13.819793947041035">
        <ele>49.11</ele>
        <time>2025-02-12T21:10:56.206Z</time>
      </trkpt>
      <trkpt lat="58.710175920277834" lon="13.819798976182938">
        <ele>49.09</ele>
        <time>2025-02-12T21:11:41.786Z</time>
      </trkpt>
      <trkpt lat="58.710217997431755" lon="13.819798976182938">
        <ele>49.07</ele>
        <time>2025-02-12T21:12:27.367Z</time>
      </trkpt>
      <trkpt lat="58.71025797910988" lon="13.819795958697796">
        <ele>49.04</ele>
        <time>2025-02-12T21:13:12.949Z</time>
      </trkpt>
      <trkpt lat="58.71029896661639" lon="13.819791935384274">
        <ele>49.02</ele>
        <time>2025-02-12T21:13:58.531Z</time>
      </trkpt>
      <trkpt lat="58.71033693663776" lon="13.819793947041035">
        <ele>48.99</ele>
        <time>2025-02-12T21:14:44.114Z</time>
      </trkpt>
      <trkpt lat="58.710371972993016" lon="13.819794952869415">
        <ele>48.97</ele>
        <time>2025-02-12T21:15:29.698Z</time>
      </trkpt>
      <trkpt lat="58.71040793135762" lon="13.819794952869415">
        <ele>48.94</ele>
        <time>2025-02-12T21:16:15.282Z</time>
      </trkpt>
      <trkpt lat="58.71044891886413" lon="13.819798976182938">
        <ele>48.91</ele>
        <time>2025-02-12T21:17:00.867Z</time>
      </trkpt>
      <trkpt lat="58.71049099601805" lon="13.81980492733419">
        <ele>48.87</ele>
        <time>2025-02-12T21:17:46.452Z</time>
      </trkpt>
      <trkpt lat="58.71053592301905" lon="13.819807944819331">
        <ele>48.84</ele>
        <time>2025-02-12T21:18:32.038Z</time>
      </trkpt>
      <trkpt lat="58.710584957152605" lon="13.819807944819331">
        <ele>48.81</ele>
        <time>2025-02-12T21:19:17.625Z</time>
      </trkpt>
      <trkpt lat="58.71063499711454" lon="13.81980593316257">
        <ele>48.77</ele>
        <time>2025-02-12T21:20:03.213Z</time>
      </trkpt>
      <trkpt lat="58.7106869649142" lon="13.81980693899095">
        <ele>48.74</ele>
        <time>2025-02-12T21:20:48.802Z</time>
      </trkpt>
      <trkpt lat="58.71074295602739" lon="13.819808950647712">
        <ele>48.7</ele>
        <time>2025-02-12T21:21:34.391Z</time>
      </trkpt>
      <trkpt lat="58.710799952968955" lon="13.819811968132854">
        <ele>48.66</ele>
        <time>2025-02-12T21:22:19.981Z</time>
      </trkpt>
      <trkpt lat="58.71085896156728" lon="13.819813979789615">
        <ele>48.63</ele>
        <time>2025-02-12T21:23:05.572Z</time>
      </trkpt>
      <trkpt lat="58.71091998182237" lon="13.819812973961234">
        <ele>48.59</ele>
        <time>2025-02-12T21:23:51.164Z</time>
      </trkpt>
      <trkpt lat="58.71098091825843" lon="13.819809956476092">
        <ele>48.56</ele>
        <time>2025-02-12T21:24:36.757Z</time>
      </trkpt>
      <trkpt lat="58.711039926856756" lon="13.819808950647712">
        <ele>48.53</ele>
        <time>2025-02-12T21:25:22.351Z</time>
      </trkpt>
      <trkpt lat="58.71109591796994" lon="13.819808950647712">
        <ele>48.49</ele>
        <time>2025-02-12T21:26:07.946Z</time>
      </trkpt>
      <trkpt lat="58.7111499812454" lon="13.81980593316257">
        <ele>48.46</ele>
        <time>2025-02-12T21:26:53.542Z</time>
      </trkpt>
      <trkpt lat="58.7111999373883" lon="13.819803921505809">
        <ele>48.43</ele>
        <time>2025-02-12T21:27:39.139Z</time>
      </trkpt>
      <trkpt lat="58.71124695986509" lon="13.81980199366808">
        <ele>48.4</ele>
        <time>2025-02-12T21:28:24.737Z</time>
      </trkpt>
      <trkpt lat="58.711291970685124" lon="13.819799982011318">
        <ele>48.37</ele>
        <time>2025-02-12T21:29:10.335Z</time>
      </trkpt>
      <trkpt lat="58.71133094653487" lon="13.81980299949646">
        <ele>48.34</ele>
        <time>2025-02-12T21:29:55.934Z</time>
      </trkpt>
      <trkpt lat="58.71136799454689" lon="13.81980492733419">
        <ele>48.3</ele>
        <time>2025-02-12T21:30:41.533Z</time>
      </trkpt>
      <trkpt lat="58.711402947083116" lon="13.819807944819331">
        <ele>48.27</ele>
        <time>2025-02-12T21:31:27.133Z</time>
      </trkpt>
      <trkpt lat="58.71143798343837" lon="13.819812973961234">
        <ele>48.24</ele>
        <time>2025-02-12T21:32:12.734Z</time>
      </trkpt>
      <trkpt lat="58.7114729359746" lon="13.819818925112486">
        <ele>48.22</ele>
        <time>2025-02-12T21:32:58.335Z</time>
      </trkpt>
      <trkpt lat="58.711507972329855" lon="13.819818925112486">
        <ele>48.19</ele>
        <time>2025-02-12T21:33:43.937Z</time>
      </trkpt>
      <trkpt lat="58.71153999119997" lon="13.819816997274756">
        <ele>48.16</ele>
        <time>2025-02-12T21:34:29.539Z</time>
      </trkpt>
      <trkpt lat="58.711573937907815" lon="13.819815991446376">
        <ele>48.13</ele>
        <time>2025-02-12T21:35:15.142Z</time>
      </trkpt>
      <trkpt lat="58.71160796843469" lon="13.819815991446376">
        <ele>48.1</ele>
        <time>2025-02-12T21:36:00.745Z</time>
      </trkpt>
      <trkpt lat="58.71164199896157" lon="13.819813979789615">
        <ele>48.08</ele>
        <time>2025-02-12T21:36:46.349Z</time>
      </trkpt>
      <trkpt lat="58.71167695149779" lon="13.819810962304473">
        <ele>48.05</ele>
        <time>2025-02-12T21:37:31.953Z</time>
      </trkpt>
      <trkpt lat="58.71171299368143" lon="13.81980693899095">
        <ele>48.03</ele>
        <time>2025-02-12T21:38:17.558Z</time>
      </trkpt>
      <trkpt lat="58.71174895204604" lon="13.819800987839699">
        <ele>48.0</ele>
        <time>2025-02-12T21:39:03.164Z</time>
      </trkpt>
      <trkpt lat="58.711784994229674" lon="13.819794952869415">
        <ele>47.97</ele>
        <time>2025-02-12T21:39:48.770Z</time>
      </trkpt>
      <trkpt lat="58.71182095259428" lon="13.819794952869415">
        <ele>47.95</ele>
        <time>2025-02-12T21:40:34.377Z</time>
      </trkpt>
      <trkpt lat="58.71185791678727" lon="13.819797970354557">
        <ele>47.93</ele>
        <time>2025-02-12T21:41:19.984Z</time>
      </trkpt>
      <trkpt lat="58.711895970627666" lon="13.819800987839699">
        <ele>47.9</ele>
        <time>2025-02-12T21:42:05.592Z</time>
      </trkpt>
      <trkpt lat="58.71193293482065" lon="13.81980299949646">
        <ele>47.88</ele>
        <time>2025-02-12T21:42:51.201Z</time>
      </trkpt>
      <trkpt lat="58.71197098866105" lon="13.819799982011318">
        <ele>47.86</ele>
        <time>2025-02-12T21:43:36.810Z</time>
      </trkpt>
      <trkpt lat="58.712004935368896" lon="13.819790929555893">
        <ele>47.84</ele>
        <time>2025-02-12T21:44:22.420Z</time>
      </trkpt>
      <trkpt lat="58.71203997172415" lon="13.81978397257626">
        <ele>47.82</ele>
        <time>2025-02-12T21:45:08.030Z</time>
      </trkpt>
      <trkpt lat="58.71207593008876" lon="13.81978296674788">
        <ele>47.8</ele>
        <time>2025-02-12T21:45:53.641Z</time>
      </trkpt>
      <trkpt lat="58.71211498975754" lon="13.819784978404641">
        <ele>47.78</ele>
        <time>2025-02-12T21:46:39.252Z</time>
      </trkpt>
      <trkpt lat="58.71215597726405" lon="13.819788917899132">
        <ele>47.77</ele>
        <time>2025-02-12T21:47:24.864Z</time>
      </trkpt>
      <trkpt lat="58.71219897642732" lon="13.819792941212654">
        <ele>47.75</ele>
        <time>2025-02-12T21:48:10.477Z</time>
      </trkpt>
      <trkpt lat="58.71224298141897" lon="13.819796964526176">
        <ele>47.74</ele>
        <time>2025-02-12T21:48:56.091Z</time>
      </trkpt>
      <trkpt lat="58.71228698641062" lon="13.819799982011318">
        <ele>47.72</ele>
        <time>2025-02-12T21:49:41.705Z</time>
      </trkpt>
      <trkpt lat="58.71233199723065" lon="13.81980299949646">
        <ele>47.71</ele>
        <time>2025-02-12T21:50:27.320Z</time>
      </trkpt>
      <trkpt lat="58.71237793006003" lon="13.81980492733419">
        <ele>47.69</ele>
        <time>2025-02-12T21:51:12.936Z</time>
      </trkpt>
      <trkpt lat="58.7124259583652" lon="13.819803921505809">
        <ele>47.68</ele>
        <time>2025-02-12T21:51:58.552Z</time>
      </trkpt>
      <trkpt lat="58.712474992498755" lon="13.81980299949646">
        <ele>47.66</ele>
        <time>2025-02-12T21:52:44.169Z</time>
      </trkpt>
      <trkpt lat="58.71252494864166" lon="13.81980299949646">
        <ele>47.65</ele>
        <time>2025-02-12T21:53:29.787Z</time>
      </trkpt>
      <trkpt lat="58.71257398277521" lon="13.819803921505809">
        <ele>47.64</ele>
        <time>2025-02-12T21:54:15.406Z</time>
      </trkpt>
      <trkpt lat="58.71262192726135" lon="13.81980693899095">
        <ele>47.62</ele>
        <time>2025-02-12T21:55:01.026Z</time>
      </trkpt>
      <trkpt lat="58.712668949738145" lon="13.819810962304473">
        <ele>47.6</ele>
        <time>2025-02-12T21:55:46.646Z</time>
      </trkpt>
      <trkpt lat="58.71271697804332" lon="13.819814985617995">
        <ele>47.59</ele>
        <time>2025-02-12T21:56:32.267Z</time>
      </trkpt>
      <trkpt lat="58.71276492252946" lon="13.819815991446376">
        <ele>47.58</ele>
        <time>2025-02-12T21:57:17.889Z</time>
      </trkpt>
      <trkpt lat="58.71281093917787" lon="13.819821942597628">
        <ele>47.57</ele>
        <time>2025-02-12T21:58:03.512Z</time>
      </trkpt>
      <trkpt lat="58.71285695582628" lon="13.819832922890782">
        <ele>47.56</ele>
        <time>2025-02-12T21:58:49.135Z</time>
      </trkpt>
      <trkpt lat="58.712902972474694" lon="13.819841975346208">
        <ele>47.55</ele>
        <time>2025-02-12T21:59:34.759Z</time>
      </trkpt>
      <trkpt lat="58.712948989123106" lon="13.81984792649746">
        <ele>47.54</ele>
        <time>2025-02-12T22:00:20.384Z</time>
      </trkpt>
      <trkpt lat="58.71299592778087" lon="13.819850943982601">
        <ele>47.54</ele>
        <time>2025-02-12T22:01:06.010Z</time>
      </trkpt>
      <trkpt lat="58.71304295025766" lon="13.819852955639362">
        <ele>47.53</ele>
        <time>2025-02-12T22:01:51.636Z</time>
      </trkpt>
      <trkpt lat="58.71308997273445" lon="13.819858990609646">
        <ele>47.53</ele>
        <time>2025-02-12T22:02:37.263Z</time>
      </trkpt>
      <trkpt lat="58.71313498355448" lon="13.819866953417659">
        <ele>47.53</ele>
        <time>2025-02-12T22:03:22.891Z</time>
      </trkpt>
      <trkpt lat="58.71317898854613" lon="13.819873994216323">
        <ele>47.53</ele>
        <time>2025-02-12T22:04:08.520Z</time>
      </trkpt>
      <trkpt lat="58.713223999366164" lon="13.819884974509478">
        <ele>47.54</ele>
        <time>2025-02-12T22:04:54.149Z</time>
      </trkpt>
      <trkpt lat="58.71326792053878" lon="13.819897966459394">
        <ele>47.54</ele>
        <time>2025-02-12T22:05:39.779Z</time>
      </trkpt>
      <trkpt lat="58.713313937187195" lon="13.81991196423769">
        <ele>47.55</ele>
        <time>2025-02-12T22:06:25.410Z</time>
      </trkpt>
      <trkpt lat="58.71335995383561" lon="13.819923950359225">
        <ele>47.56</ele>
        <time>2025-02-12T22:07:11.042Z</time>
      </trkpt>
      <trkpt lat="58.71340597048402" lon="13.81993593648076">
        <ele>47.57</ele>
        <time>2025-02-12T22:07:56.674Z</time>
      </trkpt>
      <trkpt lat="58.71345198713243" lon="13.819945994764566">
        <ele>47.58</ele>
        <time>2025-02-12T22:08:42.307Z</time>
      </trkpt>
      <trkpt lat="58.71349892579019" lon="13.819956975057721">
        <ele>47.59</ele>
        <time>2025-02-12T22:09:27.941Z</time>
      </trkpt>
      <trkpt lat="58.713546954095364" lon="13.819968961179256">
        <ele>47.61</ele>
        <time>2025-02-12T22:10:13.576Z</time>
      </trkpt>
      <trkpt lat="58.7135969940573" lon="13.819984970614314">
        <ele>47.62</ele>
        <time>2025-02-12T22:10:59.211Z</time>
      </trkpt>
      <trkpt lat="58.7136469502002" lon="13.820004919543862">
        <ele>47.64</ele>
        <time>2025-02-12T22:11:44.847Z</time>
      </trkpt>
      <trkpt lat="58.713695984333754" lon="13.820031993091106">
        <ele>47.66</ele>
        <time>2025-02-12T22:12:30.484Z</time>
      </trkpt>
      <trkpt lat="58.713744934648275" lon="13.820069963112473">
        <ele>47.68</ele>
        <time>2025-02-12T22:13:16.122Z</time>
      </trkpt>
      <trkpt lat="58.71379095129669" lon="13.820115979760885">
        <ele>47.7</ele>
        <time>2025-02-12T22:14:01.761Z</time>
      </trkpt>
      <trkpt lat="58.71383797377348" lon="13.820162918418646">
        <ele>47.73</ele>
        <time>2025-02-12T22:14:47.401Z</time>
      </trkpt>
      <trkpt lat="58.71388298459351" lon="13.820214970037341">
        <ele>47.75</ele>
        <time>2025-02-12T22:15:33.041Z</time>
      </trkpt>
      <trkpt lat="58.71392598375678" lon="13.820270961150527">
        <ele>47.78</ele>
        <time>2025-02-12T22:16:18.682Z</time>
      </trkpt>
      <trkpt lat="58.71396697126329" lon="13.820329969748855">
        <ele>47.8</ele>
        <time>2025-02-12T22:17:04.324Z</time>
      </trkpt>
      <trkpt lat="58.71400494128466" lon="13.820390990003943">
        <ele>47.83</ele>
        <time>2025-02-12T22:17:49.967Z</time>
      </trkpt>
      <trkpt lat="58.714040983468294" lon="13.820455949753523">
        <ele>47.86</ele>
        <time>2025-02-12T22:18:35.611Z</time>
      </trkpt>
      <trkpt lat="58.71407593600452" lon="13.820520993322134">
        <ele>47.89</ele>
        <time>2025-02-12T22:19:21.255Z</time>
      </trkpt>
      <trkpt lat="58.714107954874635" lon="13.820586958900094">
        <ele>47.92</ele>
        <time>2025-02-12T22:20:06.900Z</time>
      </trkpt>
      <trkpt lat="58.71413695625961" lon="13.820658959448338">
        <ele>47.96</ele>
        <time>2025-02-12T22:20:52.546Z</time>
      </trkpt>
      <trkpt lat="58.71416394598782" lon="13.820731965824962">
        <ele>47.99</ele>
        <time>2025-02-12T22:21:38.193Z</time>
      </trkpt>
      <trkpt lat="58.714191941544414" lon="13.820806983858347">
        <ele>48.03</ele>
        <time>2025-02-12T22:22:23.840Z</time>
      </trkpt>
      <trkpt lat="58.714216919615865" lon="13.820882923901081">
        <ele>48.07</ele>
        <time>2025-02-12T22:23:09.488Z</time>
      </trkpt>
      <trkpt lat="58.71423996984959" lon="13.820960959419608">
        <ele>48.11</ele>
        <time>2025-02-12T22:23:55.137Z</time>
      </trkpt>
      <trkpt lat="58.714258996769786" lon="13.821042934432626">
        <ele>48.15</ele>
        <time>2025-02-12T22:24:40.787Z</time>
      </trkpt>
      <trkpt lat="58.714277939870954" lon="13.821129938587546">
        <ele>48.2</ele>
        <time>2025-02-12T22:25:26.437Z</time>
      </trkpt>
      <trkpt lat="58.71429495513439" lon="13.82122096605599">
        <ele>48.25</ele>
        <time>2025-02-12T22:26:12.088Z</time>
      </trkpt>
      <trkpt lat="58.71431096456945" lon="13.821315933018923">
        <ele>48.3</ele>
        <time>2025-02-12T22:26:57.740Z</time>
      </trkpt>
      <trkpt lat="58.71432596817613" lon="13.821410983800888">
        <ele>48.35</ele>
        <time>2025-02-12T22:27:43.393Z</time>
      </trkpt>
      <trkpt lat="58.71433694846928" lon="13.821507962420583">
        <ele>48.4</ele>
        <time>2025-02-12T22:28:29.047Z</time>
      </trkpt>
      <trkpt lat="58.714344995096326" lon="13.821606952697039">
        <ele>48.45</ele>
        <time>2025-02-12T22:29:14.702Z</time>
      </trkpt>
      <trkpt lat="58.71434893459082" lon="13.821706948801875">
        <ele>48.5</ele>
        <time>2025-02-12T22:30:00.357Z</time>
      </trkpt>
      <trkpt lat="58.71434893459082" lon="13.821807950735092">
        <ele>48.56</ele>
        <time>2025-02-12T22:30:46.013Z</time>
      </trkpt>
      <trkpt lat="58.714346922934055" lon="13.82190995849669">
        <ele>48.61</ele>
        <time>2025-02-12T22:31:31.670Z</time>
      </trkpt>
      <trkpt lat="58.714343989267945" lon="13.82201498374343">
        <ele>48.67</ele>
        <time>2025-02-12T22:32:17.328Z</time>
      </trkpt>
      <trkpt lat="58.71433795429766" lon="13.822119925171137">
        <ele>48.73</ele>
        <time>2025-02-12T22:33:02.987Z</time>
      </trkpt>
      <trkpt lat="58.71433099731803" lon="13.822224950417876">
        <ele>48.79</ele>
        <time>2025-02-12T22:33:48.647Z</time>
      </trkpt>
      <trkpt lat="58.714320939034224" lon="13.822327964007854">
        <ele>48.84</ele>
        <time>2025-02-12T22:34:34.308Z</time>
      </trkpt>
      <trkpt lat="58.71430895291269" lon="13.822430977597833">
        <ele>48.9</ele>
        <time>2025-02-12T22:35:19.970Z</time>
      </trkpt>
      <trkpt lat="58.71429394930601" lon="13.82253298535943">
        <ele>48.96</ele>
        <time>2025-02-12T22:36:05.632Z</time>
      </trkpt>
      <trkpt lat="58.71427492238581" lon="13.822632981464267">
        <ele>49.03</ele>
        <time>2025-02-12T22:36:51.295Z</time>
      </trkpt>
      <trkpt lat="58.71425396762788" lon="13.822731971740723">
        <ele>49.09</ele>
        <time>2025-02-12T22:37:36.959Z</time>
      </trkpt>
      <trkpt lat="58.71423091739416" lon="13.822829956188798">
        <ele>49.16</ele>
        <time>2025-02-12T22:38:22.624Z</time>
      </trkpt>
      <trkpt lat="58.71420694515109" lon="13.822925928980112">
        <ele>49.23</ele>
        <time>2025-02-12T22:39:08.290Z</time>
      </trkpt>
      <trkpt lat="58.71418297290802" lon="13.823020979762077">
        <ele>49.29</ele>
        <time>2025-02-12T22:39:53.957Z</time>
      </trkpt>
      <trkpt lat="58.71415497735143" lon="13.82311393506825">
        <ele>49.35</ele>
        <time>2025-02-12T22:40:39.625Z</time>
      </trkpt>
      <trkpt lat="58.71412597596645" lon="13.82320194505155">
        <ele>49.41</ele>
        <time>2025-02-12T22:41:25.294Z</time>
      </trkpt>
      <trkpt lat="58.71409496292472" lon="13.823288949206471">
        <ele>49.48</ele>
        <time>2025-02-12T22:42:10.963Z</time>
      </trkpt>
      <trkpt lat="58.71406193822622" lon="13.823370924219489">
        <ele>49.54</ele>
        <time>2025-02-12T22:42:56.633Z</time>
      </trkpt>
      <trkpt lat="58.71402698569" lon="13.823448959738016">
        <ele>49.6</ele>
        <time>2025-02-12T22:43:42.304Z</time>
      </trkpt>
      <trkpt lat="58.7139889318496" lon="13.823524983599782">
        <ele>49.66</ele>
        <time>2025-02-12T22:44:27.976Z</time>
      </trkpt>
      <trkpt lat="58.71394693851471" lon="13.823599917814136">
        <ele>49.71</ele>
        <time>2025-02-12T22:45:13.649Z</time>
      </trkpt>
      <trkpt lat="58.7139009218663" lon="13.82367292419076">
        <ele>49.77</ele>
        <time>2025-02-12T22:45:59.323Z</time>
      </trkpt>
      <trkpt lat="58.71385297738016" lon="13.823744924739003">
        <ele>49.84</ele>
        <time>2025-02-12T22:46:44.998Z</time>
      </trkpt>
      <trkpt lat="58.71380293741822" lon="13.823811979964375">
        <ele>49.9</ele>
        <time>2025-02-12T22:47:30.674Z</time>
      </trkpt>
      <trkpt lat="58.71375096961856" lon="13.823872916400433">
        <ele>49.96</ele>
        <time>2025-02-12T22:48:16.351Z</time>
      </trkpt>
      <trkpt lat="58.713696990162134" lon="13.82392999716103">
        <ele>50.02</ele>
        <time>2025-02-12T22:49:02.029Z</time>
      </trkpt>
      <trkpt lat="58.71363999322057" lon="13.823980959132314">
        <ele>50.08</ele>
        <time>2025-02-12T22:49:47.708Z</time>
      </trkpt>
      <trkpt lat="58.71358098462224" lon="13.824025969952345">
        <ele>50.15</ele>
        <time>2025-02-12T22:50:33.388Z</time>
      </trkpt>
      <trkpt lat="58.71351694688201" lon="13.824065951630473">
        <ele>50.21</ele>
        <time>2025-02-12T22:51:19.069Z</time>
      </trkpt>
      <trkpt lat="58.71345299296081" lon="13.824098976328969">
        <ele>50.28</ele>
        <time>2025-02-12T22:52:04.751Z</time>
      </trkpt>
      <trkpt lat="58.71338694356382" lon="13.82412395440042">
        <ele>50.35</ele>
        <time>2025-02-12T22:52:50.434Z</time>
      </trkpt>
      <trkpt lat="58.71332097798586" lon="13.824136946350336">
        <ele>50.41</ele>
        <time>2025-02-12T22:53:36.118Z</time>
      </trkpt>
      <trkpt lat="58.71325492858887" lon="13.82414298132062">
        <ele>50.47</ele>
        <time>2025-02-12T22:54:21.803Z</time>
      </trkpt>
      <trkpt lat="58.71319198049605" lon="13.82414499297738">
        <ele>50.53</ele>
        <time>2025-02-12T22:55:07.489Z</time>
      </trkpt>
      <trkpt lat="58.71312995441258" lon="13.824140969663858">
        <ele>50.59</ele>
        <time>2025-02-12T22:55:53.176Z</time>
      </trkpt>
      <trkpt lat="58.71307094581425" lon="13.824132923036814">
        <ele>50.65</ele>
        <time>2025-02-12T22:56:38.864Z</time>
      </trkpt>
      <trkpt lat="58.713013948872685" lon="13.82412395440042">
        <ele>50.71</ele>
        <time>2025-02-12T22:57:24.553Z</time>
      </trkpt>
      <trkpt lat="58.71295896358788" lon="13.824115991592407">
        <ele>50.77</ele>
        <time>2025-02-12T22:58:10.243Z</time>
      </trkpt>
      <trkpt lat="58.712903978303075" lon="13.824108950793743">
        <ele>50.82</ele>
        <time>2025-02-12T22:58:55.934Z</time>
      </trkpt>
      <trkpt lat="58.71284999884665" lon="13.824102999642491">
        <ele>50.88</ele>
        <time>2025-02-12T22:59:41.626Z</time>
      </trkpt>
      <trkpt lat="58.71279492974281" lon="13.824094953015447">
        <ele>50.94</ele>
        <time>2025-02-12T23:00:27.319Z</time>
      </trkpt>
      <trkpt lat="58.71274095028639" lon="13.824087996035814">
        <ele>51.0</ele>
        <time>2025-02-12T23:01:13.013Z</time>
      </trkpt>
      <trkpt lat="58.71268596500158" lon="13.82408095523715">
        <ele>51.05</ele>
        <time>2025-02-12T23:01:58.707Z</time>
      </trkpt>
      <trkpt lat="58.71263693086803" lon="13.824072992429137">
        <ele>51.11</ele>
        <time>2025-02-12T23:02:44.402Z</time>
      </trkpt>
      <trkpt lat="58.71259099803865" lon="13.82405991666019">
        <ele>51.16</ele>
        <time>2025-02-12T23:03:30.098Z</time>
      </trkpt>
      <trkpt lat="58.71254397556186" lon="13.824044996872544">
        <ele>51.21</ele>
        <time>2025-02-12T23:04:15.795Z</time>
      </trkpt>
      <trkpt lat="58.712495947256684" lon="13.824029993265867">
        <ele>51.27</ele>
        <time>2025-02-12T23:05:01.492Z</time>
      </trkpt>
      <trkpt lat="58.71244699694216" lon="13.824019934982061">
        <ele>51.31</ele>
        <time>2025-02-12T23:05:47.190Z</time>
      </trkpt>
      <trkpt lat="58.71239695698023" lon="13.824007948860526">
        <ele>51.36</ele>
        <time>2025-02-12T23:06:32.889Z</time>
      </trkpt>
      <trkpt lat="58.712349934503436" lon="13.823991939425468">
        <ele>51.41</ele>
        <time>2025-02-12T23:07:18.589Z</time>
      </trkpt>
      <trkpt lat="58.712299978360534" lon="13.82397492416203">
        <ele>51.46</ele>
        <time>2025-02-12T23:08:04.290Z</time>
      </trkpt>
      <trkpt lat="58.7122499383986" lon="13.823961932212114">
        <ele>51.5</ele>
        <time>2025-02-12T23:08:49.991Z</time>
      </trkpt>
      <trkpt lat="58.71220199391246" lon="13.823947934433818">
        <ele>51.54</ele>
        <time>2025-02-12T23:09:35.693Z</time>
      </trkpt>
      <trkpt lat="58.712152959778905" lon="13.823934942483902">
        <ele>51.58</ele>
        <time>2025-02-12T23:10:21.396Z</time>
      </trkpt>
      <trkpt lat="58.71210099197924" lon="13.82392999716103">
        <ele>51.61</ele>
        <time>2025-02-12T23:11:07.100Z</time>
      </trkpt>
      <trkpt lat="58.712046928703785" lon="13.82393192499876">
        <ele>51.65</ele>
        <time>2025-02-12T23:11:52.805Z</time>
      </trkpt>
      <trkpt lat="58.71199395507574" lon="13.823925973847508">
        <ele>51.68</ele>
        <time>2025-02-12T23:12:38.511Z</time>
      </trkpt>
      <trkpt lat="58.71194299310446" lon="13.823912981897593">
        <ele>51.71</ele>
        <time>2025-02-12T23:13:24.217Z</time>
      </trkpt>
      <trkpt lat="58.71189094148576" lon="13.823903929442167">
        <ele>51.74</ele>
        <time>2025-02-12T23:14:09.924Z</time>
      </trkpt>
      <trkpt lat="58.71184098534286" lon="13.823894960805774">
        <ele>51.77</ele>
        <time>2025-02-12T23:14:55.632Z</time>
      </trkpt>
      <trkpt lat="58.711790945380926" lon="13.82388792000711">
        <ele>51.8</ele>
        <time>2025-02-12T23:15:41.341Z</time>
      </trkpt>
      <trkpt lat="58.711741995066404" lon="13.823880963027477">
        <ele>51.83</ele>
        <time>2025-02-12T23:16:27.051Z</time>
      </trkpt>
      <trkpt lat="58.71169296093285" lon="13.823868976905942">
        <ele>51.86</ele>
        <time>2025-02-12T23:17:12.761Z</time>
      </trkpt>
      <trkpt lat="58.7116439267993" lon="13.823858918622136">
        <ele>51.88</ele>
        <time>2025-02-12T23:17:58.472Z</time>
      </trkpt>
      <trkpt lat="58.711595982313156" lon="13.823851961642504">
        <ele>51.9</ele>
        <time>2025-02-12T23:18:44.184Z</time>
      </trkpt>
      <trkpt lat="58.71154795400798" lon="13.82384592667222">
        <ele>51.93</ele>
        <time>2025-02-12T23:19:29.897Z</time>
      </trkpt>
      <trkpt lat="58.71149598620832" lon="13.823834946379066">
        <ele>51.95</ele>
        <time>2025-02-12T23:20:15.611Z</time>
      </trkpt>
      <trkpt lat="58.711444940418005" lon="13.823824971914291">
        <ele>51.96</ele>
        <time>2025-02-12T23:21:01.325Z</time>
      </trkpt>
      <trkpt lat="58.71139297261834" lon="13.823820948600769">
        <ele>51.98</ele>
        <time>2025-02-12T23:21:47.040Z</time>
      </trkpt>
      <trkpt lat="58.71134192682803" lon="13.823817931115627">
        <ele>52.0</ele>
        <time>2025-02-12T23:22:32.756Z</time>
      </trkpt>
      <trkpt lat="58.7112879473716" lon="13.823818936944008">
        <ele>52.02</ele>
        <time>2025-02-12T23:23:18.473Z</time>
      </trkpt>
      <trkpt lat="58.7112329620868" lon="13.823824971914291">
        <ele>52.03</ele>
        <time>2025-02-12T23:24:04.191Z</time>
      </trkpt>
      <trkpt lat="58.71118099428713" lon="13.823832934722304">
        <ele>52.05</ele>
        <time>2025-02-12T23:24:49.910Z</time>
      </trkpt>
      <trkpt lat="58.7111309543252" lon="13.823833940550685">
        <ele>52.06</ele>
        <time>2025-02-12T23:25:35.629Z</time>
      </trkpt>
      <trkpt lat="58.711081920191646" lon="13.823828995227814">
        <ele>52.07</ele>
        <time>2025-02-12T23:26:21.349Z</time>
      </trkpt>
      <trkpt lat="58.71103095822036" lon="13.82382195442915">
        <ele>52.08</ele>
        <time>2025-02-12T23:27:07.070Z</time>
      </trkpt>
      <trkpt lat="58.71098091825843" lon="13.823815919458866">
        <ele>52.09</ele>
        <time>2025-02-12T23:27:52.792Z</time>
      </trkpt>
      <trkpt lat="58.710927944630384" lon="13.823810974135995">
        <ele>52.09</ele>
        <time>2025-02-12T23:28:38.515Z</time>
      </trkpt>
      <trkpt lat="58.7108719535172" lon="13.823806950822473">
        <ele>52.1</ele>
        <time>2025-02-12T23:29:24.239Z</time>
      </trkpt>
      <trkpt lat="58.71081596240401" lon="13.82380393333733">
        <ele>52.11</ele>
        <time>2025-02-12T23:30:09.964Z</time>
      </trkpt>
      <trkpt lat="58.71075997129083" lon="13.82379898801446">
        <ele>52.11</ele>
        <time>2025-02-12T23:30:55.689Z</time>
      </trkpt>
      <trkpt lat="58.71069895103574" lon="13.82380393333733">
        <ele>52.11</ele>
        <time>2025-02-12T23:31:41.415Z</time>
      </trkpt>
      <trkpt lat="58.71064195409417" lon="13.82380099967122">
        <ele>52.11</ele>
        <time>2025-02-12T23:32:27.142Z</time>
      </trkpt>
      <trkpt lat="58.710584957152605" lon="13.823795970529318">
        <ele>52.11</ele>
        <time>2025-02-12T23:33:12.870Z</time>
      </trkpt>
      <trkpt lat="58.71052896603942" lon="13.823793958872557">
        <ele>52.1</ele>
        <time>2025-02-12T23:33:58.599Z</time>
      </trkpt>
      <trkpt lat="58.71047096326947" lon="13.823787923902273">
        <ele>52.1</ele>
        <time>2025-02-12T23:34:44.329Z</time>
      </trkpt>
      <trkpt lat="58.710413966327906" lon="13.823777949437499">
        <ele>52.09</ele>
        <time>2025-02-12T23:35:30.060Z</time>
      </trkpt>
      <trkpt lat="58.7103589810431" lon="13.823768980801105">
        <ele>52.08</ele>
        <time>2025-02-12T23:36:15.792Z</time>
      </trkpt>
      <trkpt lat="58.710304917767644" lon="13.82376093417406">
        <ele>52.07</ele>
        <time>2025-02-12T23:37:01.525Z</time>
      </trkpt>
      <trkpt lat="58.7102519441396" lon="13.82375598885119">
        <ele>52.06</ele>
        <time>2025-02-12T23:37:47.259Z</time>
      </trkpt>
      <trkpt lat="58.71020098216832" lon="13.823750959709287">
        <ele>52.05</ele>
        <time>2025-02-12T23:38:32.993Z</time>
      </trkpt>
      <trkpt lat="58.71015194803476" lon="13.823745930567384">
        <ele>52.04</ele>
        <time>2025-02-12T23:39:18.728Z</time>
      </trkpt>
      <trkpt lat="58.71010391972959" lon="13.823742996901274">
        <ele>52.02</ele>
        <time>2025-02-12T23:40:04.464Z</time>
      </trkpt>
      <trkpt lat="58.71005698107183" lon="13.823741991072893">
        <ele>52.01</ele>
        <time>2025-02-12T23:40:50.201Z</time>
      </trkpt>
      <trkpt lat="58.71001096442342" lon="13.82373796775937">
        <ele>51.99</ele>
        <time>2025-02-12T23:41:35.938Z</time>
      </trkpt>
      <trkpt lat="58.709963941946626" lon="13.823731932789087">
        <ele>51.97</ele>
        <time>2025-02-12T23:42:21.676Z</time>
      </trkpt>
      <trkpt lat="58.70991691946983" lon="13.823729921132326">
        <ele>51.95</ele>
        <time>2025-02-12T23:43:07.415Z</time>
      </trkpt>
      <trkpt lat="58.70986998081207" lon="13.823739979416132">
        <ele>51.92</ele>
        <time>2025-02-12T23:43:53.155Z</time>
      </trkpt>
      <trkpt lat="58.7098219525069" lon="13.823769986629486">
        <ele>51.9</ele>
        <time>2025-02-12T23:44:38.896Z</time>
      </trkpt>
      <trkpt lat="58.70978197082877" lon="13.823831928893924">
        <ele>51.87</ele>
        <time>2025-02-12T23:45:24.637Z</time>
      </trkpt>
      <trkpt lat="58.70975196361542" lon="13.823913987725973">
        <ele>51.85</ele>
        <time>2025-02-12T23:46:10.379Z</time>
      </trkpt>
      <trkpt lat="58.70973494835198" lon="13.824008954688907">
        <ele>51.82</ele>
        <time>2025-02-12T23:46:56.122Z</time>
      </trkpt>
      <trkpt lat="58.709725979715586" lon="13.824107944965363">
        <ele>51.8</ele>
        <time>2025-02-12T23:47:41.866Z</time>
      </trkpt>
      <trkpt lat="58.709724973887205" lon="13.824207941070199">
        <ele>51.77</ele>
        <time>2025-02-12T23:48:27.611Z</time>
      </trkpt>
      <trkpt lat="58.709726985543966" lon="13.824311960488558">
        <ele>51.74</ele>
        <time>2025-02-12T23:49:13.357Z</time>
      </trkpt>
      <trkpt lat="58.709729919210076" lon="13.824415979906917">
        <ele>51.71</ele>
        <time>2025-02-12T23:49:59.103Z</time>
      </trkpt>
      <trkpt lat="58.70973092503846" lon="13.824517987668514">
        <ele>51.67</ele>
        <time>2025-02-12T23:50:44.850Z</time>
      </trkpt>
      <trkpt lat="58.709726985543966" lon="13.824621923267841">
        <ele>51.64</ele>
        <time>2025-02-12T23:51:30.598Z</time>
      </trkpt>
      <trkpt lat="58.709725979715586" lon="13.824729965999722">
        <ele>51.6</ele>
        <time>2025-02-12T23:52:16.347Z</time>
      </trkpt>
      <trkpt lat="58.709726985543966" lon="13.824839936569333">
        <ele>51.56</ele>
        <time>2025-02-12T23:53:02.097Z</time>
      </trkpt>
      <trkpt lat="58.709729919210076" lon="13.824952924624085">
        <ele>51.53</ele>
        <time>2025-02-12T23:53:47.848Z</time>
      </trkpt>
      <trkpt lat="58.70973494835198" lon="13.82506893016398">
        <ele>51.49</ele>
        <time>2025-02-12T23:54:33.600Z</time>
      </trkpt>
      <trkpt lat="58.70973796583712" lon="13.825185941532254">
        <ele>51.45</ele>
        <time>2025-02-12T23:55:19.353Z</time>
      </trkpt>
      <trkpt lat="58.709742994979024" lon="13.825302952900529">
        <ele>51.41</ele>
        <time>2025-02-12T23:56:05.107Z</time>
      </trkpt>
      <trkpt lat="58.709746934473515" lon="13.825419964268804">
        <ele>51.38</ele>
        <time>2025-02-12T23:56:50.862Z</time>
      </trkpt>
      <trkpt lat="58.70975397527218" lon="13.82554393261671">
        <ele>51.34</ele>
        <time>2025-02-12T23:57:36.618Z</time>
      </trkpt>
      <trkpt lat="58.70975992642343" lon="13.82566798478365">
        <ele>51.3</ele>
        <time>2025-02-12T23:58:22.375Z</time>
      </trkpt>
      <trkpt lat="58.70976495556533" lon="13.825791953131557">
        <ele>51.27</ele>
        <time>2025-02-12T23:59:08.133Z</time>
      </trkpt>
      <trkpt lat="58.709767973050475" lon="13.825912987813354">
        <ele>51.23</ele>
        <time>2025-02-12T23:59:53.892Z</time>
      </trkpt>
      <trkpt lat="58.709771996364" lon="13.8260349445045">
        <ele>51.19</ele>
        <time>2025-02-13T00:00:39.652Z</time>
      </trkpt>
      <trkpt lat="58.709772918373346" lon="13.826159918680787">
        <ele>51.15</ele>
        <time>2025-02-13T00:01:25.413Z</time>
      </trkpt>
      <trkpt lat="58.709771996364" lon="13.826283970847726">
        <ele>51.11</ele>
        <time>2025-02-13T00:02:11.175Z</time>
      </trkpt>
      <trkpt lat="58.70977392420173" lon="13.826407939195633">
        <ele>51.08</ele>
        <time>2025-02-13T00:02:56.938Z</time>
      </trkpt>
      <trkpt lat="58.70977593585849" lon="13.826530985534191">
        <ele>51.04</ele>
        <time>2025-02-13T00:03:42.702Z</time>
      </trkpt>
      <trkpt lat="58.70977794751525" lon="13.826654953882098">
        <ele>51.0</ele>
        <time>2025-02-13T00:04:28.467Z</time>
      </trkpt>
      <trkpt lat="58.70977794751525" lon="13.826778922230005">
        <ele>50.96</ele>
        <time>2025-02-13T00:05:14.233Z</time>
      </trkpt>
      <trkpt lat="58.70977895334363" lon="13.826900962740183">
        <ele>50.92</ele>
        <time>2025-02-13T00:06:00.000Z</time>
      </trkpt>
      <trkpt lat="58.70977794751525" lon="13.8270209915936">
        <ele>50.88</ele>
        <time>2025-02-13T00:06:45.768Z</time>
      </trkpt>
      <trkpt lat="58.70977493003011" lon="13.827137919142842">
        <ele>50.83</ele>
        <time>2025-02-13T00:07:31.537Z</time>
      </trkpt>
      <trkpt lat="58.709772918373346" lon="13.827253924682736">
        <ele>50.79</ele>
        <time>2025-02-13T00:08:17.307Z</time>
      </trkpt>
      <trkpt lat="58.709769984707236" lon="13.827370936051011">
        <ele>50.74</ele>
        <time>2025-02-13T00:09:03.078Z</time>
      </trkpt>
      <trkpt lat="58.709768978878856" lon="13.827485935762525">
        <ele>50.7</ele>
        <time>2025-02-13T00:09:48.850Z</time>
      </trkpt>
      <trkpt lat="58.709771996364" lon="13.827598923817277">
        <ele>50.66</ele>
        <time>2025-02-13T00:10:34.623Z</time>
      </trkpt>
      <trkpt lat="58.70977895334363" lon="13.8277099840343">
        <ele>50.61</ele>
        <time>2025-02-13T00:11:20.397Z</time>
      </trkpt>
      <trkpt lat="58.70978792198002" lon="13.827820960432291">
        <ele>50.57</ele>
        <time>2025-02-13T00:12:06.172Z</time>
      </trkpt>
      <trkpt lat="58.70979596860707" lon="13.827929925173521">
        <ele>50.53</ele>
        <time>2025-02-13T00:12:51.948Z</time>
      </trkpt>
      <trkpt lat="58.70980493724346" lon="13.828037967905402">
        <ele>50.49</ele>
        <time>2025-02-13T00:13:37.725Z</time>
      </trkpt>
      <trkpt lat="58.7098079547286" lon="13.828144920989871">
        <ele>50.44</ele>
        <time>2025-02-13T00:14:23.503Z</time>
      </trkpt>
      <trkpt lat="58.709812983870506" lon="13.82824793457985">
        <ele>50.4</ele>
        <time>2025-02-13T00:15:09.282Z</time>
      </trkpt>
      <trkpt lat="58.70981499552727" lon="13.828349942341447">
        <ele>50.36</ele>
        <time>2025-02-13T00:15:55.061Z</time>
      </trkpt>
      <trkpt lat="58.709816923365" lon="13.828454967588186">
        <ele>50.31</ele>
        <time>2025-02-13T00:16:40.841Z</time>
      </trkpt>
      <trkpt lat="58.70981893502176" lon="13.828560998663306">
        <ele>50.27</ele>
        <time>2025-02-13T00:17:26.622Z</time>
      </trkpt>
      <trkpt lat="58.70982295833528" lon="13.828666945919394">
        <ele>50.23</ele>
        <time>2025-02-13T00:18:12.404Z</time>
      </trkpt>
      <trkpt lat="58.70982597582042" lon="13.828769959509373">
        <ele>50.19</ele>
        <time>2025-02-13T00:18:58.187Z</time>
      </trkpt>
      <trkpt lat="58.70982798747718" lon="13.82887096144259">
        <ele>50.14</ele>
        <time>2025-02-13T00:19:43.971Z</time>
      </trkpt>
      <trkpt lat="58.709829999133945" lon="13.828970957547426">
        <ele>50.1</ele>
        <time>2025-02-13T00:20:29.756Z</time>
      </trkpt>
      <trkpt lat="58.709832932800055" lon="13.829070953652263">
        <ele>50.06</ele>
        <time>2025-02-13T00:21:15.541Z</time>
      </trkpt>
      <trkpt lat="58.709834944456816" lon="13.829168938100338">
        <ele>50.02</ele>
        <time>2025-02-13T00:22:01.327Z</time>
      </trkpt>
      <trkpt lat="58.70983695611358" lon="13.829263988882303">
        <ele>49.97</ele>
        <time>2025-02-13T00:22:47.114Z</time>
      </trkpt>
      <trkpt lat="58.709835950285196" lon="13.829354932531714">
        <ele>49.93</ele>
        <time>2025-02-13T00:23:32.902Z</time>
      </trkpt>
      <trkpt lat="58.70983796194196" lon="13.829446965828538">
        <ele>49.9</ele>
        <time>2025-02-13T00:24:18.691Z</time>
      </trkpt>
      <trkpt lat="58.70983896777034" lon="13.8295369874686">
        <ele>49.86</ele>
        <time>2025-02-13T00:25:04.480Z</time>
      </trkpt>
      <trkpt lat="58.70984299108386" lon="13.829626925289631">
        <ele>49.82</ele>
        <time>2025-02-13T00:25:50.270Z</time>
      </trkpt>
      <trkpt lat="58.70984491892159" lon="13.829714935272932">
        <ele>49.78</ele>
        <time>2025-02-13T00:26:36.061Z</time>
      </trkpt>
      <trkpt lat="58.70984793640673" lon="13.829797999933362">
        <ele>49.73</ele>
        <time>2025-02-13T00:27:21.852Z</time>
      </trkpt>
      <trkpt lat="58.70984894223511" lon="13.82988198660314">
        <ele>49.69</ele>
        <time>2025-02-13T00:28:07.644Z</time>
      </trkpt>
      <trkpt lat="58.709851959720254" lon="13.829964967444539">
        <ele>49.65</ele>
        <time>2025-02-13T00:28:53.437Z</time>
      </trkpt>
      <trkpt lat="58.709854977205396" lon="13.830046942457557">
        <ele>49.61</ele>
        <time>2025-02-13T00:29:39.231Z</time>
      </trkpt>
      <trkpt lat="58.70985799469054" lon="13.830130929127336">
        <ele>49.57</ele>
        <time>2025-02-13T00:30:25.025Z</time>
      </trkpt>
      <trkpt lat="58.709858916699886" lon="13.830217933282256">
        <ele>49.53</ele>
        <time>2025-02-13T00:31:10.820Z</time>
      </trkpt>
      <trkpt lat="58.709858916699886" lon="13.830307954922318">
        <ele>49.49</ele>
        <time>2025-02-13T00:31:56.616Z</time>
      </trkpt>
      <trkpt lat="58.709858916699886" lon="13.83039797656238">
        <ele>49.45</ele>
        <time>2025-02-13T00:32:42.412Z</time>
      </trkpt>
      <trkpt lat="58.70986092835665" lon="13.830489926040173">
        <ele>49.41</ele>
        <time>2025-02-13T00:33:28.209Z</time>
      </trkpt>
      <trkpt lat="58.70986193418503" lon="13.830582965165377">
        <ele>49.37</ele>
        <time>2025-02-13T00:34:14.007Z</time>
      </trkpt>
      <trkpt lat="58.70986595749855" lon="13.83067893795669">
        <ele>49.33</ele>
        <time>2025-02-13T00:34:59.806Z</time>
      </trkpt>
      <trkpt lat="58.70986696332693" lon="13.830778934061527">
        <ele>49.3</ele>
        <time>2025-02-13T00:35:45.606Z</time>
      </trkpt>
      <trkpt lat="58.70986796915531" lon="13.830880941823125">
        <ele>49.26</ele>
        <time>2025-02-13T00:36:31.407Z</time>
      </trkpt>
      <trkpt lat="58.70986998081207" lon="13.830986972898245">
        <ele>49.22</ele>
        <time>2025-02-13T00:37:17.208Z</time>
      </trkpt>
      <trkpt lat="58.709872998297215" lon="13.831094931811094">
        <ele>49.18</ele>
        <time>2025-02-13T00:38:03.010Z</time>
      </trkpt>
      <trkpt lat="58.709874926134944" lon="13.831202974542975">
        <ele>49.14</ele>
        <time>2025-02-13T00:38:48.813Z</time>
      </trkpt>
      <trkpt lat="58.709877943620086" lon="13.831309927627444">
        <ele>49.11</ele>
        <time>2025-02-13T00:39:34.617Z</time>
      </trkpt>
      <trkpt lat="58.70987995527685" lon="13.831414952874184">
        <ele>49.07</ele>
        <time>2025-02-13T00:40:20.422Z</time>
      </trkpt>
      <trkpt lat="58.70988196693361" lon="13.831518972292542">
        <ele>49.03</ele>
        <time>2025-02-13T00:41:06.228Z</time>
      </trkpt>
      <trkpt lat="58.70988196693361" lon="13.83162198588252">
        <ele>49.0</ele>
        <time>2025-02-13T00:41:52.035Z</time>
      </trkpt>
      <trkpt lat="58.70988699607551" lon="13.831724999472499">
        <ele>48.96</ele>
        <time>2025-02-13T00:42:37.843Z</time>
      </trkpt>
      <trkpt lat="58.70988791808486" lon="13.831829940900207">
        <ele>48.93</ele>
        <time>2025-02-13T00:43:23.651Z</time>
      </trkpt>
      <trkpt lat="58.70988992974162" lon="13.831938989460468">
        <ele>48.89</ele>
        <time>2025-02-13T00:44:09.460Z</time>
      </trkpt>
      <trkpt lat="58.70989194139838" lon="13.83204996585846">
        <ele>48.86</ele>
        <time>2025-02-13T00:44:55.270Z</time>
      </trkpt>
      <trkpt lat="58.70989294722676" lon="13.832161948084831">
        <ele>48.83</ele>
        <time>2025-02-13T00:45:41.081Z</time>
      </trkpt>
      <trkpt lat="58.70989294722676" lon="13.832274936139584">
        <ele>48.79</ele>
        <time>2025-02-13T00:46:26.893Z</time>
      </trkpt>
      <trkpt lat="58.70989395305514" lon="13.832388930022717">
        <ele>48.76</ele>
        <time>2025-02-13T00:47:12.706Z</time>
      </trkpt>
      <trkpt lat="58.709897976368666" lon="13.83250493556261">
        <ele>48.73</ele>
        <time>2025-02-13T00:47:58.520Z</time>
      </trkpt>
      <trkpt lat="58.70989998802543" lon="13.832622952759266">
        <ele>48.69</ele>
        <time>2025-02-13T00:48:44.335Z</time>
      </trkpt>
      <trkpt lat="58.70990292169154" lon="13.832743987441063">
        <ele>48.66</ele>
        <time>2025-02-13T00:49:30.151Z</time>
      </trkpt>
      <trkpt lat="58.70990593917668" lon="13.832863932475448">
        <ele>48.63</ele>
        <time>2025-02-13T00:50:15.968Z</time>
      </trkpt>
      <trkpt lat="58.7099099624902" lon="13.832985972985625">
        <ele>48.6</ele>
        <time>2025-02-13T00:51:01.786Z</time>
      </trkpt>
      <trkpt lat="58.709915997460485" lon="13.833107929676771">
        <ele>48.56</ele>
        <time>2025-02-13T00:51:47.605Z</time>
      </trkpt>
      <trkpt lat="58.709919936954975" lon="13.833229970186949">
        <ele>48.53</ele>
        <time>2025-02-13T00:52:33.425Z</time>
      </trkpt>
      <trkpt lat="58.709921948611736" lon="13.833354944363236">
        <ele>48.5</ele>
        <time>2025-02-13T00:53:19.246Z</time>
      </trkpt>
      <trkpt lat="58.70992295444012" lon="13.833478996530175">
        <ele>48.47</ele>
        <time>2025-02-13T00:54:05.068Z</time>
      </trkpt>
      <trkpt lat="58.70992295444012" lon="13.833600953221321">
        <ele>48.44</ele>
        <time>2025-02-13T00:54:50.891Z</time>
      </trkpt>
      <trkpt lat="58.7099239602685" lon="13.833721987903118">
        <ele>48.42</ele>
        <time>2025-02-13T00:55:36.715Z</time>
      </trkpt>
      <trkpt lat="58.70992697775364" lon="13.833842938765883">
        <ele>48.39</ele>
        <time>2025-02-13T00:56:22.540Z</time>
      </trkpt>
      <trkpt lat="58.70993091724813" lon="13.833960955962539">
        <ele>48.36</ele>
        <time>2025-02-13T00:57:08.366Z</time>
      </trkpt>
      <trkpt lat="58.70993192307651" lon="13.834082996472716">
        <ele>48.34</ele>
        <time>2025-02-13T00:57:54.193Z</time>
      </trkpt>
      <trkpt lat="58.70993292890489" lon="13.834206964820623">
        <ele>48.31</ele>
        <time>2025-02-13T00:58:40.021Z</time>
      </trkpt>
      <trkpt lat="58.70993695221841" lon="13.83432992734015">
        <ele>48.29</ele>
        <time>2025-02-13T00:59:25.850Z</time>
      </trkpt>
      <trkpt lat="58.709941981360316" lon="13.83445498533547">
        <ele>48.26</ele>
        <time>2025-02-13T01:00:11.680Z</time>
      </trkpt>
      <trkpt lat="58.70995195582509" lon="13.834580965340137">
        <ele>48.24</ele>
        <time>2025-02-13T01:00:57.511Z</time>
      </trkpt>
      <trkpt lat="58.70995698496699" lon="13.834705939516425">
        <ele>48.22</ele>
        <time>2025-02-13T01:01:43.344Z</time>
      </trkpt>
      <trkpt lat="58.7099599186331" lon="13.834827980026603">
        <ele>48.19</ele>
        <time>2025-02-13T01:02:29.178Z</time>
      </trkpt>
      <trkpt lat="58.709963941946626" lon="13.834949936717749">
        <ele>48.17</ele>
        <time>2025-02-13T01:03:15.013Z</time>
      </trkpt>
      <trkpt lat="58.70996695943177" lon="13.835074994713068">
        <ele>48.15</ele>
        <time>2025-02-13T01:04:00.849Z</time>
      </trkpt>
      <trkpt lat="58.70996595360339" lon="13.835201980546117">
        <ele>48.13</ele>
        <time>2025-02-13T01:04:46.686Z</time>
      </trkpt>
      <trkpt lat="58.709962936118245" lon="13.835329972207546">
        <ele>48.11</ele>
        <time>2025-02-13T01:05:32.524Z</time>
      </trkpt>
      <trkpt lat="58.70995597913861" lon="13.835457963868976">
        <ele>48.09</ele>
        <time>2025-02-13T01:06:18.363Z</time>
      </trkpt>
      <trkpt lat="58.70994793251157" lon="13.835582938045263">
        <ele>48.08</ele>
        <time>2025-02-13T01:07:04.203Z</time>
      </trkpt>
      <trkpt lat="58.70994692668319" lon="13.83570296689868">
        <ele>48.06</ele>
        <time>2025-02-13T01:07:50.044Z</time>
      </trkpt>
      <trkpt lat="58.709958996623755" lon="13.835820984095335">
        <ele>48.03</ele>
        <time>2025-02-13T01:08:35.886Z</time>
      </trkpt>
      <trkpt lat="58.70997793972492" lon="13.835942940786481">
        <ele>48.01</ele>
        <time>2025-02-13T01:09:21.729Z</time>
      </trkpt>
      <trkpt lat="58.70999495498836" lon="13.836065987125039">
        <ele>48.0</ele>
        <time>2025-02-13T01:10:07.573Z</time>
      </trkpt>
      <trkpt lat="58.71001398190856" lon="13.836186937987804">
        <ele>47.99</ele>
        <time>2025-02-13T01:10:53.418Z</time>
      </trkpt>
      <trkpt lat="58.710030997172" lon="13.836302943527699">
        <ele>47.98</ele>
        <time>2025-02-13T01:11:39.264Z</time>
      </trkpt>
      <trkpt lat="58.710050946101546" lon="13.836409980431199">
        <ele>47.96</ele>
        <time>2025-02-13T01:12:25.111Z</time>
      </trkpt>
      <trkpt lat="58.71008195914328" lon="13.836495978757739">
        <ele>47.95</ele>
        <time>2025-02-13T01:13:10.959Z</time>
      </trkpt>
      <trkpt lat="58.71012797579169" lon="13.836535960435867">
        <ele>47.94</ele>
        <time>2025-02-13T01:13:56.808Z</time>
      </trkpt>
      <trkpt lat="58.71017198078334" lon="13.836509976536036">
        <ele>47.92</ele>
        <time>2025-02-13T01:14:42.657Z</time>
      </trkpt>
      <trkpt lat="58.71020894497633" lon="13.836438981816173">
        <ele>47.91</ele>
        <time>2025-02-13T01:15:28.507Z</time>
      </trkpt>
      <trkpt lat="58.71023492887616" lon="13.836362957954407">
        <ele>47.9</ele>
        <time>2025-02-13T01:16:14.358Z</time>
      </trkpt>
      <trkpt lat="58.7102519441396" lon="13.836293974891305">
        <ele>47.89</ele>
        <time>2025-02-13T01:17:00.210Z</time>
      </trkpt>
      <trkpt lat="58.710263930261135" lon="13.83624292910099">
        <ele>47.88</ele>
        <time>2025-02-13T01:17:46.062Z</time>
      </trkpt>
      <trkpt lat="58.71026895940304" lon="13.836215939372778">
        <ele>47.87</ele>
        <time>2025-02-13T01:18:31.914Z</time>
      </trkpt>
      <trkpt lat="58.7102709710598" lon="13.83619892410934">
        <ele>47.86</ele>
        <time>2025-02-13T01:19:17.766Z</time>
      </trkpt>
      <trkpt lat="58.71027499437332" lon="13.836192972958088">
        <ele>47.86</ele>
        <time>2025-02-13T01:20:03.619Z</time>
      </trkpt>
      <trkpt lat="58.71027591638267" lon="13.836188949644566">
        <ele>47.85</ele>
        <time>2025-02-13T01:20:49.472Z</time>
      </trkpt>
      <trkpt lat="58.71027591638267" lon="13.836117954924703">
        <ele>47.84</ele>
        <time>2025-02-13T01:21:35.325Z</time>
      </trkpt>
      <trkpt lat="58.71027398854494" lon="13.83608895353973">
        <ele>47.84</ele>
        <time>2025-02-13T01:22:21.178Z</time>
      </trkpt>
      <trkpt lat="58.71026996523142" lon="13.836050983518362">
        <ele>47.83</ele>
        <time>2025-02-13T01:23:07.032Z</time>
      </trkpt>
      <trkpt lat="58.710259990766644" lon="13.83600396104157">
        <ele>47.83</ele>
        <time>2025-02-13T01:23:52.886Z</time>
      </trkpt>
      <trkpt lat="58.71024699881673" lon="13.835951993241906">
        <ele>47.82</ele>
        <time>2025-02-13T01:24:38.741Z</time>
      </trkpt>
      <trkpt lat="58.71022797189653" lon="13.835890972986817">
        <ele>47.82</ele>
        <time>2025-02-13T01:25:24.596Z</time>
      </trkpt>
      <trkpt lat="58.7102019879967" lon="13.835829952731729">
        <ele>47.82</ele>
        <time>2025-02-13T01:26:10.452Z</time>
      </trkpt>
      <trkpt lat="58.71016996912658" lon="13.835773961618543">
        <ele>47.83</ele>
        <time>2025-02-13T01:26:56.309Z</time>
      </trkpt>
      <trkpt lat="58.710135938599706" lon="13.835713947191834">
        <ele>47.83</ele>
        <time>2025-02-13T01:27:42.166Z</time>
      </trkpt>
      <trkpt lat="58.71010794304311" lon="13.835645969957113">
        <ele>47.83</ele>
        <time>2025-02-13T01:28:28.024Z</time>
      </trkpt>
      <trkpt lat="58.710088999941945" lon="13.835566928610206">
        <ele>47.84</ele>
        <time>2025-02-13T01:29:13.883Z</time>
      </trkpt>
      <trkpt lat="58.71007894165814" lon="13.835474979132414">
        <ele>47.84</ele>
        <time>2025-02-13T01:29:59.743Z</time>
      </trkpt>
      <trkpt lat="58.710075924173" lon="13.835377916693687">
        <ele>47.84</ele>
        <time>2025-02-13T01:30:45.603Z</time>
      </trkpt>
      <trkpt lat="58.71007299050689" lon="13.835274986922741">
        <ele>47.84</ele>
        <time>2025-02-13T01:31:31.464Z</time>
      </trkpt>
      <trkpt lat="58.710067961364985" lon="13.835164932534099">
        <ele>47.84</ele>
        <time>2025-02-13T01:32:17.326Z</time>
      </trkpt>
      <trkpt lat="58.71006293222308" lon="13.835050938650966">
        <ele>47.85</ele>
        <time>2025-02-13T01:33:03.189Z</time>
      </trkpt>
      <trkpt lat="58.71005597524345" lon="13.834934933111072">
        <ele>47.85</ele>
        <time>2025-02-13T01:33:49.053Z</time>
      </trkpt>
      <trkpt lat="58.710048934444785" lon="13.834817921742797">
        <ele>47.86</ele>
        <time>2025-02-13T01:34:34.918Z</time>
      </trkpt>
      <trkpt lat="58.710044994950294" lon="13.834702922031283">
        <ele>47.86</ele>
        <time>2025-02-13T01:35:20.784Z</time>
      </trkpt>
      <trkpt lat="58.710043989121914" lon="13.83458892814815">
        <ele>47.86</ele>
        <time>2025-02-13T01:36:06.651Z</time>
      </trkpt>
      <trkpt lat="58.71004197746515" lon="13.834475940093398">
        <ele>47.87</ele>
        <time>2025-02-13T01:36:52.519Z</time>
      </trkpt>
      <trkpt lat="58.71003996580839" lon="13.834362952038646">
        <ele>47.88</ele>
        <time>2025-02-13T01:37:38.388Z</time>
      </trkpt>
      <trkpt lat="58.71003996580839" lon="13.834252981469035">
        <ele>47.88</ele>
        <time>2025-02-13T01:38:24.258Z</time>
      </trkpt>
      <trkpt lat="58.71003996580839" lon="13.834145944565535">
        <ele>47.89</ele>
        <time>2025-02-13T01:39:10.129Z</time>
      </trkpt>
      <trkpt lat="58.71003895998001" lon="13.834036979824305">
        <ele>47.89</ele>
        <time>2025-02-13T01:39:56.001Z</time>
      </trkpt>
      <trkpt lat="58.71003594249487" lon="13.833927931264043">
        <ele>47.9</ele>
        <time>2025-02-13T01:40:41.874Z</time>
      </trkpt>
      <trkpt lat="58.710030997172" lon="13.833817960694432">
        <ele>47.91</ele>
        <time>2025-02-13T01:41:27.747Z</time>
      </trkpt>
      <trkpt lat="58.710026973858476" lon="13.83370597846806">
        <ele>47.91</ele>
        <time>2025-02-13T01:42:13.621Z</time>
      </trkpt>
      <trkpt lat="58.710023956373334" lon="13.833593996241689">
        <ele>47.92</ele>
        <time>2025-02-13T01:42:59.496Z</time>
      </trkpt>
      <trkpt lat="58.71002093888819" lon="13.833478996530175">
        <ele>47.93</ele>
        <time>2025-02-13T01:43:45.372Z</time>
      </trkpt>
      <trkpt lat="58.71001792140305" lon="13.833362990990281">
        <ele>47.94</ele>
        <time>2025-02-13T01:44:31.249Z</time>
      </trkpt>
      <trkpt lat="58.71001792140305" lon="13.833247991278768">
        <ele>47.95</ele>
        <time>2025-02-13T01:45:17.127Z</time>
      </trkpt>
      <trkpt lat="58.7100169993937" lon="13.833132991567254">
        <ele>47.96</ele>
        <time>2025-02-13T01:46:03.006Z</time>
      </trkpt>
      <trkpt lat="58.71001398190856" lon="13.83301799185574">
        <ele>47.97</ele>
        <time>2025-02-13T01:46:48.886Z</time>
      </trkpt>
      <trkpt lat="58.710007946938276" lon="13.832900980487466">
        <ele>47.98</ele>
        <time>2025-02-13T01:47:34.767Z</time>
      </trkpt>
      <trkpt lat="58.710003923624754" lon="13.83278095163405">
        <ele>47.99</ele>
        <time>2025-02-13T01:48:20.649Z</time>
      </trkpt>
      <trkpt lat="58.710003923624754" lon="13.832661928609014">
        <ele>48.0</ele>
        <time>2025-02-13T01:49:06.532Z</time>
      </trkpt>
      <trkpt lat="58.710000989958644" lon="13.83254298940301">
        <ele>48.01</ele>
        <time>2025-02-13T01:49:52.416Z</time>
      </trkpt>
      <trkpt lat="58.70999696664512" lon="13.832424972206354">
        <ele>48.02</ele>
        <time>2025-02-13T01:50:38.301Z</time>
      </trkpt>
      <trkpt lat="58.7099929433316" lon="13.832304943352938">
        <ele>48.03</ele>
        <time>2025-02-13T01:51:24.187Z</time>
      </trkpt>
      <trkpt lat="58.70999093167484" lon="13.832182986661792">
        <ele>48.04</ele>
        <time>2025-02-13T01:52:10.074Z</time>
      </trkpt>
      <trkpt lat="58.70998799800873" lon="13.832058934494853">
        <ele>48.05</ele>
        <time>2025-02-13T01:52:55.962Z</time>
      </trkpt>
      <trkpt lat="58.709983974695206" lon="13.831932954490185">
        <ele>48.05</ele>
        <time>2025-02-13T01:53:41.851Z</time>
      </trkpt>
      <trkpt lat="58.7099789455533" lon="13.831807980313897">
        <ele>48.06</ele>
        <time>2025-02-13T01:54:27.741Z</time>
      </trkpt>
      <trkpt lat="58.7099739164114" lon="13.831680994480848">
        <ele>48.07</ele>
        <time>2025-02-13T01:55:13.632Z</time>
      </trkpt>
      <trkpt lat="58.70996897108853" lon="13.831551996991038">
        <ele>48.08</ele>
        <time>2025-02-13T01:55:59.524Z</time>
      </trkpt>
      <trkpt lat="58.709963941946626" lon="13.831419982016087">
        <ele>48.09</ele>
        <time>2025-02-13T01:56:45.418Z</time>
      </trkpt>
      <trkpt lat="58.709957990795374" lon="13.831287967041135">
        <ele>48.1</ele>
        <time>2025-02-13T01:57:31.313Z</time>
      </trkpt>
      <trkpt lat="58.70995396748185" lon="13.831152934581041">
        <ele>48.11</ele>
        <time>2025-02-13T01:58:17.209Z</time>
      </trkpt>
      <trkpt lat="58.70994893833995" lon="13.831016980111599">
        <ele>48.12</ele>
        <time>2025-02-13T01:59:03.106Z</time>
      </trkpt>
      <trkpt lat="58.70994399301708" lon="13.830877924337983">
        <ele>48.12</ele>
        <time>2025-02-13T01:59:49.004Z</time>
      </trkpt>
      <trkpt lat="58.709939969703555" lon="13.830738952383399">
        <ele>48.13</ele>
        <time>2025-02-13T02:00:34.903Z</time>
      </trkpt>
      <trkpt lat="58.70993695221841" lon="13.830599980428815">
        <ele>48.14</ele>
        <time>2025-02-13T02:01:20.803Z</time>
      </trkpt>
      <trkpt lat="58.70993292890489" lon="13.83046193048358">
        <ele>48.15</ele>
        <time>2025-02-13T02:02:06.705Z</time>
      </trkpt>
      <trkpt lat="58.70992697775364" lon="13.830322958528996">
        <ele>48.16</ele>
        <time>2025-02-13T02:02:52.608Z</time>
      </trkpt>
      <trkpt lat="58.709917925298214" lon="13.82762499153614">
        <ele>48.16</ele>
        <time>2025-02-13T02:03:38.533Z</time>
      </trkpt>
      <trkpt lat="58.70980594307184" lon="13.827760946005583">
        <ele>48.17</ele>
        <time>2025-02-13T02:04:24.460Z</time>
      </trkpt>
      <trkpt lat="58.70979395695031" lon="13.82779598236084">
        <ele>48.18</ele>
        <time>2025-02-13T02:05:10.388Z</time>
      </trkpt>
      <trkpt lat="58.70978498831391" lon="13.827843926846981">
        <ele>48.19</ele>
        <time>2025-02-13T02:05:56.316Z</time>
      </trkpt>
      <trkpt lat="58.70978297665715" lon="13.82790494710207">
        <ele>48.19</ele>
        <time>2025-02-13T02:06:42.245Z</time>
      </trkpt>
      <trkpt lat="58.709785994142294" lon="13.82797191850841">
        <ele>48.2</ele>
        <time>2025-02-13T02:07:28.174Z</time>
      </trkpt>
      <trkpt lat="58.709789933636785" lon="13.828045930713415">
        <ele>48.2</ele>
        <time>2025-02-13T02:08:14.104Z</time>
      </trkpt>
      <trkpt lat="58.70979395695031" lon="13.828121954575181">
        <ele>48.21</ele>
        <time>2025-02-13T02:09:00.034Z</time>
      </trkpt>
      <trkpt lat="58.70979697443545" lon="13.828200995922089">
        <ele>48.22</ele>
        <time>2025-02-13T02:09:45.965Z</time>
      </trkpt>
      <trkpt lat="58.70979898609221" lon="13.828282970935106">
        <ele>48.22</ele>
        <time>2025-02-13T02:10:31.897Z</time>
      </trkpt>
      <trkpt lat="58.70980191975832" lon="13.828364945948124">
        <ele>48.23</ele>
        <time>2025-02-13T02:11:17.829Z</time>
      </trkpt>
      <trkpt lat="58.70980493724346" lon="13.828451950103045">
        <ele>48.23</ele>
        <time>2025-02-13T02:12:03.762Z</time>
      </trkpt>
      <trkpt lat="58.709809966385365" lon="13.828542977571487">
        <ele>48.24</ele>
        <time>2025-02-13T02:12:49.696Z</time>
      </trkpt>
      <trkpt lat="58.709812983870506" lon="13.82863299921155">
        <ele>48.24</ele>
        <time>2025-02-13T02:13:35.631Z</time>
      </trkpt>
      <trkpt lat="58.709815917536616" lon="13.828725954517722">
        <ele>48.25</ele>
        <time>2025-02-13T02:14:21.566Z</time>
      </trkpt>
      <trkpt lat="58.70981994085014" lon="13.828819999471307">
        <ele>48.25</ele>
        <time>2025-02-13T02:15:07.502Z</time>
      </trkpt>
      <trkpt lat="58.70982396416366" lon="13.828915972262621">
        <ele>48.26</ele>
        <time>2025-02-13T02:15:53.439Z</time>
      </trkpt>
      <trkpt lat="58.7098269816488" lon="13.829013956710696">
        <ele>48.26</ele>
        <time>2025-02-13T02:16:39.377Z</time>
      </trkpt>
      <trkpt lat="58.709828993305564" lon="13.829114958643913">
        <ele>48.27</ele>
        <time>2025-02-13T02:17:25.316Z</time>
      </trkpt>
      <trkpt lat="58.709831926971674" lon="13.829217972233891">
        <ele>48.27</ele>
        <time>2025-02-13T02:18:11.256Z</time>
      </trkpt>
      <trkpt lat="58.709834944456816" lon="13.82932199165225">
        <ele>48.27</ele>
        <time>2025-02-13T02:18:57.196Z</time>
      </trkpt>
      <trkpt lat="58.70983695611358" lon="13.829425927251577">
        <ele>48.28</ele>
        <time>2025-02-13T02:19:43.137Z</time>
      </trkpt>
      <trkpt lat="58.70984198525548" lon="13.829529946669936">
        <ele>48.29</ele>
        <time>2025-02-13T02:20:29.079Z</time>
      </trkpt>
      <trkpt lat="58.70984491892159" lon="13.829632960259914">
        <ele>48.29</ele>
        <time>2025-02-13T02:21:15.022Z</time>
      </trkpt>
      <trkpt lat="58.70984894223511" lon="13.82973295636475">
        <ele>48.29</ele>
        <time>2025-02-13T02:22:00.966Z</time>
      </trkpt>
      <trkpt lat="58.709852965548635" lon="13.829831946641207">
        <ele>48.3</ele>
        <time>2025-02-13T02:22:46.911Z</time>
      </trkpt>
      <trkpt lat="58.70985799469054" lon="13.82992791943252">
        <ele>48.3</ele>
        <time>2025-02-13T02:23:32.857Z</time>
      </trkpt>
      <trkpt lat="58.70986092835665" lon="13.830019952729344">
        <ele>48.3</ele>
        <time>2025-02-13T02:24:18.803Z</time>
      </trkpt>
      <trkpt lat="58.70986193418503" lon="13.830110980197787">
        <ele>48.3</ele>
        <time>2025-02-13T02:25:04.750Z</time>
      </trkpt>
      <trkpt lat="58.70986294001341" lon="13.830199996009469">
        <ele>48.31</ele>
        <time>2025-02-13T02:25:50.698Z</time>
      </trkpt>
      <trkpt lat="58.70986595749855" lon="13.8302899338305">
        <ele>48.31</ele>
        <time>2025-02-13T02:26:36.647Z</time>
      </trkpt>
      <trkpt lat="58.70986998081207" lon="13.830379955470562">
        <ele>48.31</ele>
        <time>2025-02-13T02:27:22.596Z</time>
      </trkpt>
      <trkpt lat="58.70987392030656" lon="13.830470982939005">
        <ele>48.31</ele>
        <time>2025-02-13T02:28:08.546Z</time>
      </trkpt>
      <trkpt lat="58.709875931963325" lon="13.830563938245177">
        <ele>48.31</ele>
        <time>2025-02-13T02:28:54.497Z</time>
      </trkpt>
      <trkpt lat="58.709877943620086" lon="13.830658989027143">
        <ele>48.32</ele>
        <time>2025-02-13T02:29:40.449Z</time>
      </trkpt>
      <trkpt lat="58.70988196693361" lon="13.830756973475218">
        <ele>48.32</ele>
        <time>2025-02-13T02:30:26.401Z</time>
      </trkpt>
      <trkpt lat="58.70988599024713" lon="13.830857975408435">
        <ele>48.32</ele>
        <time>2025-02-13T02:31:12.354Z</time>
      </trkpt>
      <trkpt lat="58.70988892391324" lon="13.830960988998413">
        <ele>48.32</ele>
        <time>2025-02-13T02:31:58.308Z</time>
      </trkpt>
      <trkpt lat="58.70989194139838" lon="13.83106492459774">
        <ele>48.32</ele>
        <time>2025-02-13T02:32:44.263Z</time>
      </trkpt>
      <trkpt lat="58.709895964711905" lon="13.831168944016099">
        <ele>48.32</ele>
        <time>2025-02-13T02:33:30.219Z</time>
      </trkpt>
      <trkpt lat="58.709898982197046" lon="13.831274975091219">
        <ele>48.32</ele>
        <time>2025-02-13T02:34:16.176Z</time>
      </trkpt>
      <trkpt lat="58.70990292169154" lon="13.831380922347307">
        <ele>48.33</ele>
        <time>2025-02-13T02:35:02.134Z</time>
      </trkpt>
      <trkpt lat="58.7099049333483" lon="13.831488965079188">
        <ele>48.33</ele>
        <time>2025-02-13T02:35:48.093Z</time>
      </trkpt>
      <trkpt lat="58.70990795083344" lon="13.831597929820418">
        <ele>48.33</ele>
        <time>2025-02-13T02:36:34.052Z</time>
      </trkpt>
      <trkpt lat="58.70991096831858" lon="13.83170798420906">
        <ele>48.33</ele>
        <time>2025-02-13T02:37:20.012Z</time>
      </trkpt>
      <trkpt lat="58.70991398580372" lon="13.831819966435432">
        <ele>48.33</ele>
        <time>2025-02-13T02:38:05.973Z</time>
      </trkpt>
      <trkpt lat="58.70991691946983" lon="13.831935971975327">
        <ele>48.34</ele>
        <time>2025-02-13T02:38:51.935Z</time>
      </trkpt>
      <trkpt lat="58.709920942783356" lon="13.832055917009711">
        <ele>48.34</ele>
        <time>2025-02-13T02:39:37.898Z</time>
      </trkpt>
      <trkpt lat="58.7099239602685" lon="13.832173934206367">
        <ele>48.34</ele>
        <time>2025-02-13T02:40:23.862Z</time>
      </trkpt>
      <trkpt lat="58.70992697775364" lon="13.83228993974626">
        <ele>48.34</ele>
        <time>2025-02-13T02:41:09.827Z</time>
      </trkpt>
      <trkpt lat="58.70992999523878" lon="13.832405945286155">
        <ele>48.34</ele>
        <time>2025-02-13T02:41:55.793Z</time>
      </trkpt>
      <trkpt lat="58.70993393473327" lon="13.83252396248281">
        <ele>48.35</ele>
        <time>2025-02-13T02:42:41.760Z</time>
      </trkpt>
      <trkpt lat="58.70993695221841" lon="13.832642985507846">
        <ele>48.35</ele>
        <time>2025-02-13T02:43:27.728Z</time>
      </trkpt>
      <trkpt lat="58.709939969703555" lon="13.832763936370611">
        <ele>48.35</ele>
        <time>2025-02-13T02:44:13.697Z</time>
      </trkpt>
      <trkpt lat="58.709941981360316" lon="13.832882959395647">
        <ele>48.36</ele>
        <time>2025-02-13T02:44:59.667Z</time>
      </trkpt>
      <trkpt lat="58.70994399301708" lon="13.832998964935541">
        <ele>48.36</ele>
        <time>2025-02-13T02:45:45.638Z</time>
      </trkpt>
      <trkpt lat="58.70994793251157" lon="13.833113964647055">
        <ele>48.35</ele>
        <time>2025-02-13T02:46:31.610Z</time>
      </trkpt>
      <trkpt lat="58.70994893833995" lon="13.833229970186949">
        <ele>48.36</ele>
        <time>2025-02-13T02:47:17.583Z</time>
      </trkpt>
      <trkpt lat="58.70995195582509" lon="13.833345975726843">
        <ele>48.36</ele>
        <time>2025-02-13T02:48:03.557Z</time>
      </trkpt>
      <trkpt lat="58.70995396748185" lon="13.833463992923498">
        <ele>48.37</ele>
        <time>2025-02-13T02:48:49.532Z</time>
      </trkpt>
      <trkpt lat="58.70995597913861" lon="13.833582932129502">
        <ele>48.37</ele>
        <time>2025-02-13T02:49:35.508Z</time>
      </trkpt>
      <trkpt lat="58.709957990795374" lon="13.833700949326158">
        <ele>48.38</ele>
        <time>2025-02-13T02:50:21.485Z</time>
      </trkpt>
      <trkpt lat="58.709961930289865" lon="13.833817960694432">
        <ele>48.39</ele>
        <time>2025-02-13T02:51:07.463Z</time>
      </trkpt>
      <trkpt lat="58.709964947775006" lon="13.833935977891088">
        <ele>48.4</ele>
        <time>2025-02-13T02:51:53.442Z</time>
      </trkpt>
      <trkpt lat="58.70996796526015" lon="13.834055922925472">
        <ele>48.4</ele>
        <time>2025-02-13T02:52:39.422Z</time>
      </trkpt>
      <trkpt lat="58.70997098274529" lon="13.83417695760727">
        <ele>48.41</ele>
        <time>2025-02-13T02:53:25.403Z</time>
      </trkpt>
      <trkpt lat="58.7099739164114" lon="13.834299920126796">
        <ele>48.42</ele>
        <time>2025-02-13T02:54:11.385Z</time>
      </trkpt>
      <trkpt lat="58.70997793972492" lon="13.834425983950496">
        <ele>48.43</ele>
        <time>2025-02-13T02:54:57.368Z</time>
      </trkpt>
      <trkpt lat="58.709981963038445" lon="13.834551963955164">
        <ele>48.44</ele>
        <time>2025-02-13T02:55:43.352Z</time>
      </trkpt>
      <trkpt lat="58.70998598635197" lon="13.834677943959832">
        <ele>48.45</ele>
        <time>2025-02-13T02:56:29.337Z</time>
      </trkpt>
      <trkpt lat="58.70998992584646" lon="13.8348039239645">
        <ele>48.46</ele>
        <time>2025-02-13T02:57:15.323Z</time>
      </trkpt>
      <trkpt lat="58.70999093167484" lon="13.8349299877882">
        <ele>48.47</ele>
        <time>2025-02-13T02:58:01.310Z</time>
      </trkpt>
      <trkpt lat="58.70999093167484" lon="13.83505797944963">
        <ele>48.49</ele>
        <time>2025-02-13T02:58:47.298Z</time>
      </trkpt>
      <trkpt lat="58.70998992584646" lon="13.835184965282679">
        <ele>48.5</ele>
        <time>2025-02-13T02:59:33.287Z</time>
      </trkpt>
      <trkpt lat="58.70998799800873" lon="13.835307927802205">
        <ele>48.52</ele>
        <time>2025-02-13T03:00:19.277Z</time>
      </trkpt>
      <trkpt lat="58.709980957210064" lon="13.835429968312383">
        <ele>48.53</ele>
        <time>2025-02-13T03:01:05.269Z</time>
      </trkpt>
      <trkpt lat="58.70996897108853" lon="13.835548991337419">
        <ele>48.55</ele>
        <time>2025-02-13T03:01:51.262Z</time>
      </trkpt>
      <trkpt lat="58.709960924461484" lon="13.835665918886662">
        <ele>48.56</ele>
        <time>2025-02-13T03:02:37.256Z</time>
      </trkpt>
      <trkpt lat="58.70996695943177" lon="13.835782930254936">
        <ele>48.58</ele>
        <time>2025-02-13T03:03:23.251Z</time>
      </trkpt>
      <trkpt lat="58.709981963038445" lon="13.835902959108353">
        <ele>48.59</ele>
        <time>2025-02-13T03:04:09.247Z</time>
      </trkpt>
      <trkpt lat="58.7099979724735" lon="13.83602399379015">
        <ele>48.61</ele>
        <time>2025-02-13T03:04:55.244Z</time>
      </trkpt>
      <trkpt lat="58.71000895276666" lon="13.836148967966437">
        <ele>48.63</ele>
        <time>2025-02-13T03:05:41.242Z</time>
      </trkpt>
      <trkpt lat="58.71001792140305" lon="13.836271930485964">
        <ele>48.65</ele>
        <time>2025-02-13T03:06:27.241Z</time>
      </trkpt>
      <trkpt lat="58.710024962201715" lon="13.836394976824522">
        <ele>48.68</ele>
        <time>2025-02-13T03:07:13.241Z</time>
      </trkpt>
      <trkpt lat="58.710030997172" lon="13.836517939344049">
        <ele>48.7</ele>
        <time>2025-02-13T03:07:59.242Z</time>
      </trkpt>
      <trkpt lat="58.71003594249487" lon="13.836638974025846">
        <ele>48.73</ele>
        <time>2025-02-13T03:08:45.244Z</time>
      </trkpt>
      <trkpt lat="58.71004097163677" lon="13.836757997050881">
        <ele>48.76</ele>
        <time>2025-02-13T03:09:31.247Z</time>
      </trkpt>
      <trkpt lat="58.710044994950294" lon="13.836873918771744">
        <ele>48.79</ele>
        <time>2025-02-13T03:10:17.251Z</time>
      </trkpt>
      <trkpt lat="58.710047928616405" lon="13.836987996473908">
        <ele>48.82</ele>
        <time>2025-02-13T03:11:03.256Z</time>
      </trkpt>
      <trkpt lat="58.710050946101546" lon="13.8370989728719">
        <ele>48.85</ele>
        <time>2025-02-13T03:11:49.262Z</time>
      </trkpt>
      <trkpt lat="58.71005295775831" lon="13.837206931784749">
        <ele>48.87</ele>
        <time>2025-02-13T03:12:35.268Z</time>
      </trkpt>
      <trkpt lat="58.71005597524345" lon="13.837312962859869">
        <ele>48.9</ele>
        <time>2025-02-13T03:13:21.275Z</time>
      </trkpt>
      <trkpt lat="58.71005899272859" lon="13.837415976449847">
        <ele>48.93</ele>
        <time>2025-02-13T03:14:07.283Z</time>
      </trkpt>
      <trkpt lat="58.71006293222308" lon="13.837517984211445">
        <ele>48.97</ele>
        <time>2025-02-13T03:14:53.292Z</time>
      </trkpt>
      <trkpt lat="58.71006594970822" lon="13.837617980316281">
        <ele>49.0</ele>
        <time>2025-02-13T03:15:39.302Z</time>
      </trkpt>
      <trkpt lat="58.710068967193365" lon="13.837716970592737">
        <ele>49.03</ele>
        <time>2025-02-13T03:16:25.313Z</time>
      </trkpt>
      <trkpt lat="58.710070978850126" lon="13.837814955040812">
        <ele>49.07</ele>
        <time>2025-02-13T03:17:11.325Z</time>
      </trkpt>
      <trkpt lat="58.71007399633527" lon="13.837912939488888">
        <ele>49.1</ele>
        <time>2025-02-13T03:17:57.337Z</time>
      </trkpt>
      <trkpt lat="58.71007693000138" lon="13.838011929765344">
        <ele>49.13</ele>
        <time>2025-02-13T03:18:43.350Z</time>
      </trkpt>
      <trkpt lat="58.7100809533149" lon="13.83811293169856">
        <ele>49.17</ele>
        <time>2025-02-13T03:19:29.364Z</time>
      </trkpt>
      <trkpt lat="58.71008296497166" lon="13.838215945288539">
        <ele>49.21</ele>
        <time>2025-02-13T03:20:15.379Z</time>
      </trkpt>
      <trkpt lat="58.7100859824568" lon="13.838319964706898">
        <ele>49.24</ele>
        <time>2025-02-13T03:21:01.395Z</time>
      </trkpt>
      <trkpt lat="58.710088999941945" lon="13.838425995782018">
        <ele>49.28</ele>
        <time>2025-02-13T03:21:47.412Z</time>
      </trkpt>
      <trkpt lat="58.710090927779675" lon="13.838533954694867">
        <ele>49.32</ele>
        <time>2025-02-13T03:22:33.430Z</time>
      </trkpt>
      <trkpt lat="58.710092939436436" lon="13.838642919436097">
        <ele>49.37</ele>
        <time>2025-02-13T03:23:19.448Z</time>
      </trkpt>
      <trkpt lat="58.71009595692158" lon="13.838751967996359">
        <ele>49.41</ele>
        <time>2025-02-13T03:24:05.467Z</time>
      </trkpt>
      <trkpt lat="58.71009897440672" lon="13.83886193856597">
        <ele>49.45</ele>
        <time>2025-02-13T03:24:51.487Z</time>
      </trkpt>
      <trkpt lat="58.71010098606348" lon="13.838973920792341">
        <ele>49.5</ele>
        <time>2025-02-13T03:25:37.508Z</time>
      </trkpt>
      <trkpt lat="58.71010391972959" lon="13.839085986837745">
        <ele>49.54</ele>
        <time>2025-02-13T03:26:23.530Z</time>
      </trkpt>
      <trkpt lat="58.71010593138635" lon="13.839198974892497">
        <ele>49.59</ele>
        <time>2025-02-13T03:27:09.553Z</time>
      </trkpt>
      <trkpt lat="58.71010794304311" lon="13.83931196294725">
        <ele>49.64</ele>
        <time>2025-02-13T03:27:55.577Z</time>
      </trkpt>
      <trkpt lat="58.710110960528255" lon="13.839425956830382">
        <ele>49.68</ele>
        <time>2025-02-13T03:28:41.602Z</time>
      </trkpt>
      <trkpt lat="58.710113978013396" lon="13.839540956541896">
        <ele>49.73</ele>
        <time>2025-02-13T03:29:27.628Z</time>
      </trkpt>
      <trkpt lat="58.71011699549854" lon="13.83965595625341">
        <ele>49.78</ele>
        <time>2025-02-13T03:30:13.655Z</time>
      </trkpt>
      <trkpt lat="58.71011992916465" lon="13.839772967621684">
        <ele>49.82</ele>
        <time>2025-02-13T03:30:59.683Z</time>
      </trkpt>
      <trkpt lat="58.71012495830655" lon="13.839889978989959">
        <ele>49.87</ele>
        <time>2025-02-13T03:31:45.712Z</time>
      </trkpt>
      <trkpt lat="58.710129987448454" lon="13.840008918195963">
        <ele>49.92</ele>
        <time>2025-02-13T03:32:31.742Z</time>
      </trkpt>
      <trkpt lat="58.710132921114564" lon="13.84012995287776">
        <ele>49.97</ele>
        <time>2025-02-13T03:33:17.773Z</time>
      </trkpt>
      <trkpt lat="58.710134932771325" lon="13.840250987559557">
        <ele>50.03</ele>
        <time>2025-02-13T03:34:03.805Z</time>
      </trkpt>
      <trkpt lat="58.71013795025647" lon="13.840373950079083">
        <ele>50.08</ele>
        <time>2025-02-13T03:34:49.838Z</time>
      </trkpt>
      <trkpt lat="58.71014096774161" lon="13.840495990589261">
        <ele>50.14</ele>
        <time>2025-02-13T03:35:35.872Z</time>
      </trkpt>
      <trkpt lat="58.71014297939837" lon="13.840618953108788">
        <ele>50.2</ele>
        <time>2025-02-13T03:36:21.907Z</time>
      </trkpt>
      <trkpt lat="58.71014599688351" lon="13.840741999447346">
        <ele>50.25</ele>
        <time>2025-02-13T03:37:07.943Z</time>
      </trkpt>
      <trkpt lat="58.71014893054962" lon="13.840863956138492">
        <ele>50.31</ele>
        <time>2025-02-13T03:37:53.980Z</time>
      </trkpt>
      <trkpt lat="58.71015194803476" lon="13.84098599664867">
        <ele>50.38</ele>
        <time>2025-02-13T03:38:40.018Z</time>
      </trkpt>
      <trkpt lat="58.710153959691525" lon="13.841106947511435">
        <ele>50.45</ele>
        <time>2025-02-13T03:39:26.057Z</time>
      </trkpt>
      <trkpt lat="58.710156977176666" lon="13.84122496470809">
        <ele>50.51</ele>
        <time>2025-02-13T03:40:12.097Z</time>
      </trkpt>
      <trkpt lat="58.71016091667116" lon="13.841340970247984">
        <ele>50.58</ele>
        <time>2025-02-13T03:40:58.138Z</time>
      </trkpt>
      <trkpt lat="58.7101639341563" lon="13.841453958302736">
        <ele>50.64</ele>
        <time>2025-02-13T03:41:44.180Z</time>
      </trkpt>
      <trkpt lat="58.71016695164144" lon="13.841564934700727">
        <ele>50.71</ele>
        <time>2025-02-13T03:42:30.223Z</time>
      </trkpt>
      <trkpt lat="58.71016996912658" lon="13.841672977432609">
        <ele>50.78</ele>
        <time>2025-02-13T03:43:16.267Z</time>
      </trkpt>
      <trkpt lat="58.710172986611724" lon="13.841779930517077">
        <ele>50.85</ele>
        <time>2025-02-13T03:44:02.312Z</time>
      </trkpt>
      <trkpt lat="58.710174998268485" lon="13.841886967420578">
        <ele>50.92</ele>
        <time>2025-02-13T03:44:48.358Z</time>
      </trkpt>
      <trkpt lat="58.710176926106215" lon="13.841991992667317">
        <ele>51.0</ele>
        <time>2025-02-13T03:45:34.404Z</time>
      </trkpt>
      <trkpt lat="58.710178937762976" lon="13.842097939923406">
        <ele>51.07</ele>
        <time>2025-02-13T03:46:20.451Z</time>
      </trkpt>
      <trkpt lat="58.710179943591356" lon="13.842202965170145">
        <ele>51.15</ele>
        <time>2025-02-13T03:47:06.499Z</time>
      </trkpt>
      <trkpt lat="58.71018094941974" lon="13.842307990416884">
        <ele>51.22</ele>
        <time>2025-02-13T03:47:52.548Z</time>
      </trkpt>
      <trkpt lat="58.71018195524812" lon="13.842412931844592">
        <ele>51.3</ele>
        <time>2025-02-13T03:48:38.598Z</time>
      </trkpt>
      <trkpt lat="58.7101829610765" lon="13.842517957091331">
        <ele>51.39</ele>
        <time>2025-02-13T03:49:24.649Z</time>
      </trkpt>
      <trkpt lat="58.71018497273326" lon="13.842623988166451">
        <ele>51.47</ele>
        <time>2025-02-13T03:50:10.701Z</time>
      </trkpt>
      <trkpt lat="58.71018698439002" lon="13.84272892959416">
        <ele>51.55</ele>
        <time>2025-02-13T03:50:56.754Z</time>
      </trkpt>
      <trkpt lat="58.71018991805613" lon="13.842832949012518">
        <ele>51.63</ele>
        <time>2025-02-13T03:51:42.808Z</time>
      </trkpt>
      <trkpt lat="58.71019394136965" lon="13.842934956774116">
        <ele>51.72</ele>
        <time>2025-02-13T03:52:28.862Z</time>
      </trkpt>
      <trkpt lat="58.710197964683175" lon="13.843035958707333">
        <ele>51.8</ele>
        <time>2025-02-13T03:53:14.917Z</time>
      </trkpt>
      <trkpt lat="58.710199976339936" lon="13.843135954812169">
        <ele>51.89</ele>
        <time>2025-02-13T03:54:00.973Z</time>
      </trkpt>
      <trkpt lat="58.71020299382508" lon="13.843235950917006">
        <ele>51.98</ele>
        <time>2025-02-13T03:54:47.030Z</time>
      </trkpt>
      <trkpt lat="58.71020492166281" lon="13.84333393536508">
        <ele>52.07</ele>
        <time>2025-02-13T03:55:33.088Z</time>
      </trkpt>
      <trkpt lat="58.71020592749119" lon="13.843431919813156">
        <ele>52.17</ele>
        <time>2025-02-13T03:56:19.147Z</time>
      </trkpt>
      <trkpt lat="58.71020793914795" lon="13.843527976423502">
        <ele>52.26</ele>
        <time>2025-02-13T03:57:05.206Z</time>
      </trkpt>
      <trkpt lat="58.71021196246147" lon="13.843621937558055">
        <ele>52.36</ele>
        <time>2025-02-13T03:57:51.266Z</time>
      </trkpt>
      <trkpt lat="58.710215985774994" lon="13.843711959198117">
        <ele>52.45</ele>
        <time>2025-02-13T03:58:37.327Z</time>
      </trkpt>
      <trkpt lat="58.710217997431755" lon="13.843799969181418">
        <ele>52.55</ele>
        <time>2025-02-13T03:59:23.389Z</time>
      </trkpt>
      <trkpt lat="58.710219925269485" lon="13.843882950022817">
        <ele>52.65</ele>
        <time>2025-02-13T04:00:09.451Z</time>
      </trkpt>
      <trkpt lat="58.710220931097865" lon="13.843961991369724">
        <ele>52.76</ele>
        <time>2025-02-13T04:00:55.514Z</time>
      </trkpt>
      <trkpt lat="58.710220931097865" lon="13.844037931412458">
        <ele>52.86</ele>
        <time>2025-02-13T04:01:41.578Z</time>
      </trkpt>
      <trkpt lat="58.710220931097865" lon="13.844110937789083">
        <ele>52.97</ele>
        <time>2025-02-13T04:02:27.642Z</time>
      </trkpt>
      <trkpt lat="58.710220931097865" lon="13.844182938337326">
        <ele>53.08</ele>
        <time>2025-02-13T04:03:13.707Z</time>
      </trkpt>
      <trkpt lat="58.710220931097865" lon="13.84425493888557">
        <ele>53.19</ele>
        <time>2025-02-13T04:03:59.772Z</time>
      </trkpt>
      <trkpt lat="58.710221936926246" lon="13.844329956918955">
        <ele>53.3</ele>
        <time>2025-02-13T04:04:45.838Z</time>
      </trkpt>
      <trkpt lat="58.710222942754626" lon="13.84440598078072">
        <ele>53.41</ele>
        <time>2025-02-13T04:05:31.905Z</time>
      </trkpt>
      <trkpt lat="58.71022596023977" lon="13.844483932480216">
        <ele>53.53</ele>
        <time>2025-02-13T04:06:17.972Z</time>
      </trkpt>
      <trkpt lat="58.71022897772491" lon="13.844562973827124">
        <ele>53.64</ele>
        <time>2025-02-13T04:07:04.040Z</time>
      </trkpt>
      <trkpt lat="58.71023098938167" lon="13.84464293718338">
        <ele>53.76</ele>
        <time>2025-02-13T04:07:50.109Z</time>
      </trkpt>
      <trkpt lat="58.71023392304778" lon="13.844723990187049">
        <ele>53.88</ele>
        <time>2025-02-13T04:08:36.178Z</time>
      </trkpt>
      <trkpt lat="58.71023593470454" lon="13.844805965200067">
        <ele>54.01</ele>
        <time>2025-02-13T04:09:22.248Z</time>
      </trkpt>
      <trkpt lat="58.710238952189684" lon="13.844886934384704">
        <ele>54.13</ele>
        <time>2025-02-13T04:10:08.319Z</time>
      </trkpt>
      <trkpt lat="58.710241969674826" lon="13.844969999045134">
        <ele>54.26</ele>
        <time>2025-02-13T04:10:54.390Z</time>
      </trkpt>
      <trkpt lat="58.71024498715997" lon="13.845053985714912">
        <ele>54.4</ele>
        <time>2025-02-13T04:11:40.462Z</time>
      </trkpt>
      <trkpt lat="58.71024699881673" lon="13.845137972384691">
        <ele>54.53</ele>
        <time>2025-02-13T04:12:26.535Z</time>
      </trkpt>
      <trkpt lat="58.71024892665446" lon="13.84522296488285">
        <ele>54.66</ele>
        <time>2025-02-13T04:13:12.608Z</time>
      </trkpt>
      <trkpt lat="58.71025093831122" lon="13.84530695155263">
        <ele>54.79</ele>
        <time>2025-02-13T04:13:58.682Z</time>
      </trkpt>
      <trkpt lat="58.71025093831122" lon="13.845391944050789">
        <ele>54.93</ele>
        <time>2025-02-13T04:14:44.757Z</time>
      </trkpt>
      <trkpt lat="58.71025294996798" lon="13.845476936548948">
        <ele>55.07</ele>
        <time>2025-02-13T04:15:30.833Z</time>
      </trkpt>
      <trkpt lat="58.71025596745312" lon="13.845561929047108">
        <ele>55.21</ele>
        <time>2025-02-13T04:16:16.909Z</time>
      </trkpt>
      <trkpt lat="58.71025797910988" lon="13.845645999535918">
        <ele>55.35</ele>
        <time>2025-02-13T04:17:02.986Z</time>
      </trkpt>
      <trkpt lat="58.71025797910988" lon="13.845728980377316">
        <ele>55.49</ele>
        <time>2025-02-13T04:17:49.064Z</time>
      </trkpt>
      <trkpt lat="58.71025797910988" lon="13.845811961218715">
        <ele>55.64</ele>
        <time>2025-02-13T04:18:35.142Z</time>
      </trkpt>
      <trkpt lat="58.710259990766644" lon="13.845894942060113">
        <ele>55.79</ele>
        <time>2025-02-13T04:19:21.221Z</time>
      </trkpt>
      <trkpt lat="58.710262924432755" lon="13.845978928729892">
        <ele>55.94</ele>
        <time>2025-02-13T04:20:07.301Z</time>
      </trkpt>
      <trkpt lat="58.710262924432755" lon="13.846062999218702">
        <ele>56.09</ele>
        <time>2025-02-13T04:20:53.381Z</time>
      </trkpt>
      <trkpt lat="58.710263930261135" lon="13.84614396840334">
        <ele>56.25</ele>
        <time>2025-02-13T04:21:39.462Z</time>
      </trkpt>
      <trkpt lat="58.710265941917896" lon="13.846221920102835">
        <ele>56.4</ele>
        <time>2025-02-13T04:22:25.544Z</time>
      </trkpt>
      <trkpt lat="58.71026996523142" lon="13.846299955621362">
        <ele>56.56</ele>
        <time>2025-02-13T04:23:11.626Z</time>
      </trkpt>
      <trkpt lat="58.71027197688818" lon="13.846375979483128">
        <ele>56.72</ele>
        <time>2025-02-13T04:23:57.709Z</time>
      </trkpt>
      <trkpt lat="58.71027398854494" lon="13.846450997516513">
        <ele>56.88</ele>
        <time>2025-02-13T04:24:43.793Z</time>
      </trkpt>
      <trkpt lat="58.71027591638267" lon="13.846524925902486">
        <ele>57.05</ele>
        <time>2025-02-13T04:25:29.877Z</time>
      </trkpt>
      <trkpt lat="58.71027792803943" lon="13.846599943935871">
        <ele>57.22</ele>
        <time>2025-02-13T04:26:15.962Z</time>
      </trkpt>
      <trkpt lat="58.71027893386781" lon="13.846673956140876">
        <ele>57.38</ele>
        <time>2025-02-13T04:27:02.048Z</time>
      </trkpt>
      <trkpt lat="58.71028094552457" lon="13.84674595668912">
        <ele>57.55</ele>
        <time>2025-02-13T04:27:48.134Z</time>
      </trkpt>
      <trkpt lat="58.710282957181334" lon="13.846818963065743">
        <ele>57.72</ele>
        <time>2025-02-13T04:28:34.221Z</time>
      </trkpt>
      <trkpt lat="58.710283963009715" lon="13.846891969442368">
        <ele>57.9</ele>
        <time>2025-02-13T04:29:20.308Z</time>
      </trkpt>
      <trkpt lat="58.710284968838096" lon="13.84696195833385">
        <ele>58.07</ele>
        <time>2025-02-13T04:30:06.396Z</time>
      </trkpt>
      <trkpt lat="58.71028698049486" lon="13.847030941396952">
        <ele>58.25</ele>
        <time>2025-02-13T04:30:52.485Z</time>
      </trkpt>
      <trkpt lat="58.71028899215162" lon="13.847098918631673">
        <ele>58.42</ele>
        <time>2025-02-13T04:31:38.574Z</time>
      </trkpt>
      <trkpt lat="58.71028999798" lon="13.847166979685426">
        <ele>58.6</ele>
        <time>2025-02-13T04:32:24.664Z</time>
      </trkpt>
      <trkpt lat="58.71029091998935" lon="13.847233951091766">
        <ele>58.78</ele>
        <time>2025-02-13T04:33:10.754Z</time>
      </trkpt>
      <trkpt lat="58.71029393747449" lon="13.847298994660378">
        <ele>58.97</ele>
        <time>2025-02-13T04:33:56.845Z</time>
      </trkpt>
      <trkpt lat="58.71029695495963" lon="13.847364960238338">
        <ele>59.15</ele>
        <time>2025-02-13T04:34:42.936Z</time>
      </trkpt>
      <trkpt lat="58.71029796078801" lon="13.847432937473059">
        <ele>59.34</ele>
        <time>2025-02-13T04:35:29.028Z</time>
      </trkpt>
      <trkpt lat="58.71029997244477" lon="13.847500998526812">
        <ele>59.52</ele>
        <time>2025-02-13T04:36:15.121Z</time>
      </trkpt>
      <trkpt lat="58.710301984101534" lon="13.847568975761533">
        <ele>59.71</ele>
        <time>2025-02-13T04:37:01.214Z</time>
      </trkpt>
      <trkpt lat="58.710301984101534" lon="13.847635947167873">
        <ele>59.9</ele>
        <time>2025-02-13T04:37:47.308Z</time>
      </trkpt>
      <trkpt lat="58.710303995758295" lon="13.847702918574214">
        <ele>60.1</ele>
        <time>2025-02-13T04:38:33.402Z</time>
      </trkpt>
      <trkpt lat="58.710304917767644" lon="13.847768967971206">
        <ele>60.29</ele>
        <time>2025-02-13T04:39:19.497Z</time>
      </trkpt>
      <trkpt lat="58.710305923596025" lon="13.847835939377546">
        <ele>60.49</ele>
        <time>2025-02-13T04:40:05.592Z</time>
      </trkpt>
      <trkpt lat="58.710306929424405" lon="13.847901988774538">
        <ele>60.68</ele>
        <time>2025-02-13T04:40:51.688Z</time>
      </trkpt>
      <trkpt lat="58.710308941081166" lon="13.847967954352498">
        <ele>60.88</ele>
        <time>2025-02-13T04:41:37.784Z</time>
      </trkpt>
      <trkpt lat="58.71030994690955" lon="13.848030986264348">
        <ele>61.07</ele>
        <time>2025-02-13T04:42:23.881Z</time>
      </trkpt>
      <trkpt lat="58.71031296439469" lon="13.848092928528786">
        <ele>61.27</ele>
        <time>2025-02-13T04:43:09.978Z</time>
      </trkpt>
      <trkpt lat="58.71031598187983" lon="13.848154954612255">
        <ele>61.47</ele>
        <time>2025-02-13T04:43:56.076Z</time>
      </trkpt>
      <trkpt lat="58.71031698770821" lon="13.848217986524105">
        <ele>61.67</ele>
        <time>2025-02-13T04:44:42.175Z</time>
      </trkpt>
      <trkpt lat="58.71031698770821" lon="13.848281940445304">
        <ele>61.87</ele>
        <time>2025-02-13T04:45:28.274Z</time>
      </trkpt>
      <trkpt lat="58.71031698770821" lon="13.848346984013915">
        <ele>62.07</ele>
        <time>2025-02-13T04:46:14.374Z</time>
      </trkpt>
      <trkpt lat="58.71031799353659" lon="13.848410937935114">
        <ele>62.27</ele>
        <time>2025-02-13T04:47:00.474Z</time>
      </trkpt>
      <trkpt lat="58.71031992137432" lon="13.848472964018583">
        <ele>62.47</ele>
        <time>2025-02-13T04:47:46.575Z</time>
      </trkpt>
      <trkpt lat="58.71032193303108" lon="13.848535995930433">
        <ele>62.67</ele>
        <time>2025-02-13T04:48:32.676Z</time>
      </trkpt>
      <trkpt lat="58.710324950516224" lon="13.848597938194871">
        <ele>62.88</ele>
        <time>2025-02-13T04:49:18.778Z</time>
      </trkpt>
      <trkpt lat="58.710328973829746" lon="13.848661975935102">
        <ele>63.08</ele>
        <time>2025-02-13T04:50:04.880Z</time>
      </trkpt>
      <trkpt lat="58.71032997965813" lon="13.84872492402792">
        <ele>63.28</ele>
        <time>2025-02-13T04:50:50.983Z</time>
      </trkpt>
      <trkpt lat="58.710328973829746" lon="13.84878795593977">
        <ele>63.49</ele>
        <time>2025-02-13T04:51:37.086Z</time>
      </trkpt>
      <trkpt lat="58.71032997965813" lon="13.84884998202324">
        <ele>63.69</ele>
        <time>2025-02-13T04:52:23.190Z</time>
      </trkpt>
      <trkpt lat="58.71033199131489" lon="13.848910918459296">
        <ele>63.9</ele>
        <time>2025-02-13T04:53:09.294Z</time>
      </trkpt>
      <trkpt lat="58.71033391915262" lon="13.848969927057624">
        <ele>64.11</ele>
        <time>2025-02-13T04:53:55.399Z</time>
      </trkpt>
      <trkpt lat="58.71033593080938" lon="13.849029941484332">
        <ele>64.32</ele>
        <time>2025-02-13T04:54:41.504Z</time>
      </trkpt>
      <trkpt lat="58.71033693663776" lon="13.84908895008266">
        <ele>64.52</ele>
        <time>2025-02-13T04:55:27.610Z</time>
      </trkpt>
      <trkpt lat="58.71033794246614" lon="13.849148964509368">
        <ele>64.73</ele>
        <time>2025-02-13T04:56:13.716Z</time>
      </trkpt>
      <trkpt lat="58.7103399541229" lon="13.849208978936076">
        <ele>64.95</ele>
        <time>2025-02-13T04:56:59.823Z</time>
      </trkpt>
      <trkpt lat="58.71034095995128" lon="13.849268993362784">
        <ele>65.16</ele>
        <time>2025-02-13T04:57:45.930Z</time>
      </trkpt>
      <trkpt lat="58.71034196577966" lon="13.849331941455603">
        <ele>65.37</ele>
        <time>2025-02-13T04:58:32.038Z</time>
      </trkpt>
      <trkpt lat="58.710344983264804" lon="13.849395979195833">
        <ele>65.58</ele>
        <time>2025-02-13T04:59:18.146Z</time>
      </trkpt>
      <trkpt lat="58.710345989093184" lon="13.849459933117032">
        <ele>65.79</ele>
        <time>2025-02-13T05:00:04.255Z</time>
      </trkpt>
      <trkpt lat="58.710347916930914" lon="13.849523970857263">
        <ele>66.01</ele>
        <time>2025-02-13T05:00:50.364Z</time>
      </trkpt>
      <trkpt lat="58.710349928587675" lon="13.849587924778461">
        <ele>66.22</ele>
        <time>2025-02-13T05:01:36.474Z</time>
      </trkpt>
      <trkpt lat="58.710350934416056" lon="13.849652968347073">
        <ele>66.44</ele>
        <time>2025-02-13T05:02:22.585Z</time>
      </trkpt>
      <trkpt lat="58.710351940244436" lon="13.849718933925033">
        <ele>66.66</ele>
        <time>2025-02-13T05:03:08.696Z</time>
      </trkpt>
      <trkpt lat="58.7103539519012" lon="13.849786994978786">
        <ele>66.88</ele>
        <time>2025-02-13T05:03:54.808Z</time>
      </trkpt>
      <trkpt lat="58.71035596355796" lon="13.849854972213507">
        <ele>67.1</ele>
        <time>2025-02-13T05:04:40.920Z</time>
      </trkpt>
      <trkpt lat="58.7103589810431" lon="13.849923955276608">
        <ele>67.32</ele>
        <time>2025-02-13T05:05:27.033Z</time>
      </trkpt>
      <trkpt lat="58.71036099269986" lon="13.84999293833971">
        <ele>67.54</ele>
        <time>2025-02-13T05:06:13.146Z</time>
      </trkpt>
      <trkpt lat="58.71036392636597" lon="13.850062927231193">
        <ele>67.76</ele>
        <time>2025-02-13T05:06:59.260Z</time>
      </trkpt>
      <trkpt lat="58.71036593802273" lon="13.850132999941707">
        <ele>67.98</ele>
        <time>2025-02-13T05:07:45.375Z</time>
      </trkpt>
      <trkpt lat="58.710367949679494" lon="13.85020399466157">
        <ele>68.2</ele>
        <time>2025-02-13T05:08:31.490Z</time>
      </trkpt>
      <trkpt lat="58.710368955507874" lon="13.850275995209813">
        <ele>68.43</ele>
        <time>2025-02-13T05:09:17.606Z</time>
      </trkpt>
      <trkpt lat="58.710371972993016" lon="13.850347995758057">
        <ele>68.65</ele>
        <time>2025-02-13T05:10:03.722Z</time>
      </trkpt>
      <trkpt lat="58.7103729788214" lon="13.850420918315649">
        <ele>68.87</ele>
        <time>2025-02-13T05:10:49.839Z</time>
      </trkpt>
      <trkpt lat="58.71037398464978" lon="13.850493924692273">
        <ele>69.09</ele>
        <time>2025-02-13T05:11:35.957Z</time>
      </trkpt>
      <trkpt lat="58.71037599630654" lon="13.850567936897278">
        <ele>69.31</ele>
        <time>2025-02-13T05:12:22.075Z</time>
      </trkpt>
      <trkpt lat="58.71037792414427" lon="13.850641949102283">
        <ele>69.54</ele>
        <time>2025-02-13T05:13:08.194Z</time>
      </trkpt>
      <trkpt lat="58.71037892997265" lon="13.850716967135668">
        <ele>69.76</ele>
        <time>2025-02-13T05:13:54.313Z</time>
      </trkpt>
      <trkpt lat="58.71038094162941" lon="13.850790979340672">
        <ele>69.98</ele>
        <time>2025-02-13T05:14:40.433Z</time>
      </trkpt>
      <trkpt lat="58.71038295328617" lon="13.850863985717297">
        <ele>70.2</ele>
        <time>2025-02-13T05:15:26.554Z</time>
      </trkpt>
      <trkpt lat="58.71038496494293" lon="13.85093699209392">
        <ele>70.43</ele>
        <time>2025-02-13T05:16:12.675Z</time>
      </trkpt>
      <trkpt lat="58.71038697659969" lon="13.851010920479894">
        <ele>70.65</ele>
        <time>2025-02-13T05:16:58.797Z</time>
      </trkpt>
      <trkpt lat="58.710388988256454" lon="13.851084932684898">
        <ele>70.87</ele>
        <time>2025-02-13T05:17:44.919Z</time>
      </trkpt>
      <trkpt lat="58.710392927750945" lon="13.851158944889903">
        <ele>71.09</ele>
        <time>2025-02-13T05:18:31.042Z</time>
      </trkpt>
      <trkpt lat="58.71039695106447" lon="13.851230945438147">
        <ele>71.31</ele>
        <time>2025-02-13T05:19:17.166Z</time>
      </trkpt>
      <trkpt lat="58.71039896272123" lon="13.85130395181477">
        <ele>71.53</ele>
        <time>2025-02-13T05:20:03.290Z</time>
      </trkpt>
      <trkpt lat="58.71040097437799" lon="13.851377964019775">
        <ele>71.75</ele>
        <time>2025-02-13T05:20:49.415Z</time>
      </trkpt>
      <trkpt lat="58.71040298603475" lon="13.85145197622478">
        <ele>71.97</ele>
        <time>2025-02-13T05:21:35.541Z</time>
      </trkpt>
      <trkpt lat="58.71040793135762" lon="13.851524982601404">
        <ele>72.19</ele>
        <time>2025-02-13T05:22:21.667Z</time>
      </trkpt>
      <trkpt lat="58.710412960499525" lon="13.851595977321267">
        <ele>72.41</ele>
        <time>2025-02-13T05:23:07.794Z</time>
      </trkpt>
      <trkpt lat="58.71041597798467" lon="13.85166797786951">
        <ele>72.63</ele>
        <time>2025-02-13T05:23:53.921Z</time>
      </trkpt>
      <trkpt lat="58.71041798964143" lon="13.851739978417754">
        <ele>72.85</ele>
        <time>2025-02-13T05:24:40.049Z</time>
      </trkpt>
      <trkpt lat="58.71041991747916" lon="13.851812984794378">
        <ele>73.07</ele>
        <time>2025-02-13T05:25:26.178Z</time>
      </trkpt>
      <trkpt lat="58.71042092330754" lon="13.851886996999383">
        <ele>73.29</ele>
        <time>2025-02-13T05:26:12.307Z</time>
      </trkpt>
      <trkpt lat="58.71042192913592" lon="13.851958997547626">
        <ele>73.51</ele>
        <time>2025-02-13T05:26:58.437Z</time>
      </trkpt>
      <trkpt lat="58.7104229349643" lon="13.85203099809587">
        <ele>73.72</ele>
        <time>2025-02-13T05:27:44.567Z</time>
      </trkpt>
      <trkpt lat="58.71042494662106" lon="13.852101992815733">
        <ele>73.94</ele>
        <time>2025-02-13T05:28:30.698Z</time>
      </trkpt>
      <trkpt lat="58.71042595244944" lon="13.852172987535596">
        <ele>74.15</ele>
        <time>2025-02-13T05:29:16.830Z</time>
      </trkpt>
      <trkpt lat="58.7104279641062" lon="13.85224498808384">
        <ele>74.36</ele>
        <time>2025-02-13T05:30:02.962Z</time>
      </trkpt>
      <trkpt lat="58.710430981591344" lon="13.852315982803702">
        <ele>74.58</ele>
        <time>2025-02-13T05:30:49.095Z</time>
      </trkpt>
      <trkpt lat="58.710432993248105" lon="13.852387983351946">
        <ele>74.79</ele>
        <time>2025-02-13T05:31:35.228Z</time>
      </trkpt>
      <trkpt lat="58.710434921085835" lon="13.85246199555695">
        <ele>75.0</ele>
        <time>2025-02-13T05:32:21.362Z</time>
      </trkpt>
      <trkpt lat="58.710436932742596" lon="13.852536929771304">
        <ele>75.22</ele>
        <time>2025-02-13T05:33:07.497Z</time>
      </trkpt>
      <trkpt lat="58.71043995022774" lon="13.85261295363307">
        <ele>75.43</ele>
        <time>2025-02-13T05:33:53.632Z</time>
      </trkpt>
      <trkpt lat="58.7104419618845" lon="13.852688977494836">
        <ele>75.63</ele>
        <time>2025-02-13T05:34:39.768Z</time>
      </trkpt>
      <trkpt lat="58.71044296771288" lon="13.85276592336595">
        <ele>75.84</ele>
        <time>2025-02-13T05:35:25.905Z</time>
      </trkpt>
      <trkpt lat="58.7104419618845" lon="13.852842953056097">
        <ele>76.05</ele>
        <time>2025-02-13T05:36:12.042Z</time>
      </trkpt>
      <trkpt lat="58.71044296771288" lon="13.852920988574624">
        <ele>76.26</ele>
        <time>2025-02-13T05:36:58.180Z</time>
      </trkpt>
      <trkpt lat="58.71044397354126" lon="13.852997934445739">
        <ele>76.46</ele>
        <time>2025-02-13T05:37:44.318Z</time>
      </trkpt>
      <trkpt lat="58.71044497936964" lon="13.853074964135885">
        <ele>76.67</ele>
        <time>2025-02-13T05:38:30.457Z</time>
      </trkpt>
      <trkpt lat="58.7104469910264" lon="13.853151993826032">
        <ele>76.87</ele>
        <time>2025-02-13T05:39:16.597Z</time>
      </trkpt>
      <trkpt lat="58.71044891886413" lon="13.853230951353908">
        <ele>77.07</ele>
        <time>2025-02-13T05:40:02.737Z</time>
      </trkpt>
      <trkpt lat="58.71045093052089" lon="13.853308986872435">
        <ele>77.27</ele>
        <time>2025-02-13T05:40:48.878Z</time>
      </trkpt>
      <trkpt lat="58.710453948006034" lon="13.85338693857193">
        <ele>77.47</ele>
        <time>2025-02-13T05:41:35.020Z</time>
      </trkpt>
      <trkpt lat="58.710456965491176" lon="13.853462962433696">
        <ele>77.67</ele>
        <time>2025-02-13T05:42:21.162Z</time>
      </trkpt>
      <trkpt lat="58.71045897714794" lon="13.853537980467081">
        <ele>77.87</ele>
        <time>2025-02-13T05:43:07.305Z</time>
      </trkpt>
      <trkpt lat="58.7104609888047" lon="13.853612998500466">
        <ele>78.07</ele>
        <time>2025-02-13T05:43:53.449Z</time>
      </trkpt>
      <trkpt lat="58.71046199463308" lon="13.85368692688644">
        <ele>78.26</ele>
        <time>2025-02-13T05:44:39.593Z</time>
      </trkpt>
      <trkpt lat="58.71046392247081" lon="13.853762950748205">
        <ele>78.45</ele>
        <time>2025-02-13T05:45:25.738Z</time>
      </trkpt>
      <trkpt lat="58.71046492829919" lon="13.853840986266732">
        <ele>78.64</ele>
        <time>2025-02-13T05:46:11.884Z</time>
      </trkpt>
      <trkpt lat="58.71046492829919" lon="13.853917932137847">
        <ele>78.84</ele>
        <time>2025-02-13T05:46:58.030Z</time>
      </trkpt>
      <trkpt lat="58.71046794578433" lon="13.853993955999613">
        <ele>79.02</ele>
        <time>2025-02-13T05:47:44.177Z</time>
      </trkpt>
      <trkpt lat="58.71046895161271" lon="13.85407098568976">
        <ele>79.21</ele>
        <time>2025-02-13T05:48:30.324Z</time>
      </trkpt>
      <trkpt lat="58.71046995744109" lon="13.854149943217635">
        <ele>79.39</ele>
        <time>2025-02-13T05:49:16.472Z</time>
      </trkpt>
      <trkpt lat="58.71047096326947" lon="13.854228984564543">
        <ele>79.57</ele>
        <time>2025-02-13T05:50:02.621Z</time>
      </trkpt>
      <trkpt lat="58.710473980754614" lon="13.85430995374918">
        <ele>79.76</ele>
        <time>2025-02-13T05:50:48.770Z</time>
      </trkpt>
      <trkpt lat="58.710475992411375" lon="13.854390922933817">
        <ele>79.94</ele>
        <time>2025-02-13T05:51:34.920Z</time>
      </trkpt>
      <trkpt lat="58.710477920249104" lon="13.854472981765866">
        <ele>80.11</ele>
        <time>2025-02-13T05:52:21.071Z</time>
      </trkpt>
      <trkpt lat="58.710479931905866" lon="13.854556968435645">
        <ele>80.29</ele>
        <time>2025-02-13T05:53:07.222Z</time>
      </trkpt>
      <trkpt lat="58.71048294939101" lon="13.854640955105424">
        <ele>80.46</ele>
        <time>2025-02-13T05:53:53.374Z</time>
      </trkpt>
      <trkpt lat="58.71048395521939" lon="13.854726953431964">
        <ele>80.63</ele>
        <time>2025-02-13T05:54:39.527Z</time>
      </trkpt>
      <trkpt lat="58.71048496104777" lon="13.854812951758504">
        <ele>80.8</ele>
        <time>2025-02-13T05:55:25.681Z</time>
      </trkpt>
      <trkpt lat="58.71048697270453" lon="13.854900961741805">
        <ele>80.96</ele>
        <time>2025-02-13T05:56:11.835Z</time>
      </trkpt>
      <trkpt lat="58.71048898436129" lon="13.854988971725106">
        <ele>81.13</ele>
        <time>2025-02-13T05:56:57.990Z</time>
      </trkpt>
      <trkpt lat="58.71049099601805" lon="13.855078993365169">
        <ele>81.29</ele>
        <time>2025-02-13T05:57:44.146Z</time>
      </trkpt>
      <trkpt lat="58.71049292385578" lon="13.85517094284296">
        <ele>81.45</ele>
        <time>2025-02-13T05:58:30.303Z</time>
      </trkpt>
      <trkpt lat="58.71049493551254" lon="13.855263981968164">
        <ele>81.6</ele>
        <time>2025-02-13T05:59:16.460Z</time>
      </trkpt>
      <trkpt lat="58.710497952997684" lon="13.855357943102717">
        <ele>81.76</ele>
        <time>2025-02-13T06:00:02.618Z</time>
      </trkpt>
      <trkpt lat="58.710499964654446" lon="13.855453999713063">
        <ele>81.91</ele>
        <time>2025-02-13T06:00:48.777Z</time>
      </trkpt>
      <trkpt lat="58.71050298213959" lon="13.855548966675997">
        <ele>82.05</ele>
        <time>2025-02-13T06:01:34.937Z</time>
      </trkpt>
      <trkpt lat="58.71050499379635" lon="13.855645945295691">
        <ele>82.2</ele>
        <time>2025-02-13T06:02:21.098Z</time>
      </trkpt>
      <trkpt lat="58.71050792746246" lon="13.855742923915386">
        <ele>82.35</ele>
        <time>2025-02-13T06:03:07.259Z</time>
      </trkpt>
      <trkpt lat="58.71050993911922" lon="13.855840992182493">
        <ele>82.49</ele>
        <time>2025-02-13T06:03:53.421Z</time>
      </trkpt>
      <trkpt lat="58.7105109449476" lon="13.855938976630569">
        <ele>82.63</ele>
        <time>2025-02-13T06:04:39.584Z</time>
      </trkpt>
      <trkpt lat="58.71051295660436" lon="13.856034949421883">
        <ele>82.78</ele>
        <time>2025-02-13T06:05:25.748Z</time>
      </trkpt>
      <trkpt lat="58.71051496826112" lon="13.856131928041577">
        <ele>82.92</ele>
        <time>2025-02-13T06:06:11.913Z</time>
      </trkpt>
      <trkpt lat="58.710516979917884" lon="13.856228990480304">
        <ele>83.05</ele>
        <time>2025-02-13T06:06:58.078Z</time>
      </trkpt>
      <trkpt lat="58.710519997403026" lon="13.856326974928379">
        <ele>83.19</ele>
        <time>2025-02-13T06:07:44.244Z</time>
      </trkpt>
      <trkpt lat="58.710521925240755" lon="13.856424959376454">
        <ele>83.32</ele>
        <time>2025-02-13T06:08:30.411Z</time>
      </trkpt>
      <trkpt lat="58.710523936897516" lon="13.85652394965291">
        <ele>83.45</ele>
        <time>2025-02-13T06:09:16.579Z</time>
      </trkpt>
      <trkpt lat="58.71052594855428" lon="13.856623945757747">
        <ele>83.57</ele>
        <time>2025-02-13T06:10:02.748Z</time>
      </trkpt>
      <trkpt lat="58.71052896603942" lon="13.856721930205822">
        <ele>83.7</ele>
        <time>2025-02-13T06:10:48.918Z</time>
      </trkpt>
      <trkpt lat="58.71053097769618" lon="13.856817986816168">
        <ele>83.82</ele>
        <time>2025-02-13T06:11:35.088Z</time>
      </trkpt>
      <trkpt lat="58.71053399518132" lon="13.856912953779101">
        <ele>83.94</ele>
        <time>2025-02-13T06:12:21.259Z</time>
      </trkpt>
      <trkpt lat="58.71053592301905" lon="13.857008926570415">
        <ele>84.06</ele>
        <time>2025-02-13T06:13:07.431Z</time>
      </trkpt>
      <trkpt lat="58.71053692884743" lon="13.857104983180761">
        <ele>84.18</ele>
        <time>2025-02-13T06:13:53.604Z</time>
      </trkpt>
      <trkpt lat="58.71053793467581" lon="13.857199950143695">
        <ele>84.29</ele>
        <time>2025-02-13T06:14:39.778Z</time>
      </trkpt>
      <trkpt lat="58.710540952160954" lon="13.85729692876339">
        <ele>84.4</ele>
        <time>2025-02-13T06:15:25.952Z</time>
      </trkpt>
      <trkpt lat="58.710541957989335" lon="13.857392985373735">
        <ele>84.5</ele>
        <time>2025-02-13T06:16:12.127Z</time>
      </trkpt>
      <trkpt lat="58.710542963817716" lon="13.85748895816505">
        <ele>84.61</ele>
        <time>2025-02-13T06:16:58.303Z</time>
      </trkpt>
      <trkpt lat="58.710543969646096" lon="13.857584930956364">
        <ele>84.71</ele>
        <time>2025-02-13T06:17:44.480Z</time>
      </trkpt>
      <trkpt lat="58.71054598130286" lon="13.85768098756671">
        <ele>84.81</ele>
        <time>2025-02-13T06:18:30.658Z</time>
      </trkpt>
      <trkpt lat="58.71054799295962" lon="13.857773942872882">
        <ele>84.9</ele>
        <time>2025-02-13T06:19:16.836Z</time>
      </trkpt>
      <trkpt lat="58.710543969646096" lon="13.857864970341325">
        <ele>85.0</ele>
        <time>2025-02-13T06:20:03.015Z</time>
      </trkpt>
      <trkpt lat="58.71053298935294" lon="13.857953986153007">
        <ele>85.09</ele>
        <time>2025-02-13T06:20:49.195Z</time>
      </trkpt>
      <trkpt lat="58.710519997403026" lon="13.858042918145657">
        <ele>85.18</ele>
        <time>2025-02-13T06:21:35.376Z</time>
      </trkpt>
      <trkpt lat="58.71050893329084" lon="13.858132939785719">
        <ele>85.27</ele>
        <time>2025-02-13T06:22:21.557Z</time>
      </trkpt>
      <trkpt lat="58.710499964654446" lon="13.858226984739304">
        <ele>85.35</ele>
        <time>2025-02-13T06:23:07.739Z</time>
      </trkpt>
      <trkpt lat="58.71048999018967" lon="13.858320945873857">
        <ele>85.44</ele>
        <time>2025-02-13T06:23:53.922Z</time>
      </trkpt>
      <trkpt lat="58.71048194356263" lon="13.85841297917068">
        <ele>85.52</ele>
        <time>2025-02-13T06:24:40.106Z</time>
      </trkpt>
      <trkpt lat="58.710474986582994" lon="13.858505934476852">
        <ele>85.6</ele>
        <time>2025-02-13T06:25:26.291Z</time>
      </trkpt>
      <trkpt lat="58.71046693995595" lon="13.858594950288534">
        <ele>85.67</ele>
        <time>2025-02-13T06:26:12.476Z</time>
      </trkpt>
      <trkpt lat="58.71045897714794" lon="13.858683966100216">
        <ele>85.74</ele>
        <time>2025-02-13T06:26:58.662Z</time>
      </trkpt>
      <trkpt lat="58.71044891886413" lon="13.858770970255136">
        <ele>85.81</ele>
        <time>2025-02-13T06:27:44.849Z</time>
      </trkpt>
      <trkpt lat="58.71043894439936" lon="13.858855962753296">
        <ele>85.88</ele>
        <time>2025-02-13T06:28:31.037Z</time>
      </trkpt>
      <trkpt lat="58.71042997576296" lon="13.858937937766314">
        <ele>85.94</ele>
        <time>2025-02-13T06:29:17.225Z</time>
      </trkpt>
      <trkpt lat="58.71042394079268" lon="13.859011949971318">
        <ele>85.99</ele>
        <time>2025-02-13T06:30:03.414Z</time>
      </trkpt>
      <trkpt lat="58.71042494662106" lon="13.859073976054788">
        <ele>86.04</ele>
        <time>2025-02-13T06:30:49.603Z</time>
      </trkpt>
      <trkpt lat="58.710437938570976" lon="13.859117981046438">
        <ele>86.09</ele>
        <time>2025-02-13T06:31:35.793Z</time>
      </trkpt>
      <trkpt lat="58.710457971319556" lon="13.85914396494627">
        <ele>86.14</ele>
        <time>2025-02-13T06:32:21.983Z</time>
      </trkpt>
      <trkpt lat="58.710474986582994" lon="13.859152933582664">
        <ele>86.18</ele>
        <time>2025-02-13T06:33:08.174Z</time>
      </trkpt>
      <trkpt lat="58.71048294939101" lon="13.859154945239425">
        <ele>86.22</ele>
        <time>2025-02-13T06:33:54.365Z</time>
      </trkpt>
      <trkpt lat="58.71048697270453" lon="13.859157962724566">
        <ele>86.26</ele>
        <time>2025-02-13T06:34:40.556Z</time>
      </trkpt>
      <trkpt lat="58.7104919180274" lon="13.859160980209708">
        <ele>86.29</ele>
        <time>2025-02-13T06:35:26.747Z</time>
      </trkpt>
      <trkpt lat="58.71049493551254" lon="13.859160980209708">
        <ele>86.32</ele>
        <time>2025-02-13T06:36:12.938Z</time>
      </trkpt>
      <trkpt lat="58.71050298213959" lon="13.859161986038089">
        <ele>86.35</ele>
        <time>2025-02-13T06:36:59.129Z</time>
      </trkpt>
      <trkpt lat="58.71050792746246" lon="13.859161986038089">
        <ele>86.37</ele>
        <time>2025-02-13T06:37:45.320Z</time>
      </trkpt>
      <trkpt lat="58.7105159740895" lon="13.859160980209708">
        <ele>86.39</ele>
        <time>2025-02-13T06:38:31.511Z</time>
      </trkpt>
      <trkpt lat="58.710518991574645" lon="13.859157962724566">
        <ele>86.41</ele>
        <time>2025-02-13T06:39:17.702Z</time>
      </trkpt>
      <trkpt lat="58.710523936897516" lon="13.859154945239425">
        <ele>86.43</ele>
        <time>2025-02-13T06:40:03.893Z</time>
      </trkpt>
      <trkpt lat="58.71054497547448" lon="13.859180929139256">
        <ele>86.44</ele>
        <time>2025-02-13T06:40:50.085Z</time>
      </trkpt>
      <trkpt lat="58.71054598130286" lon="13.85920993052423">
        <ele>86.45</ele>
        <time>2025-02-13T06:41:36.277Z</time>
      </trkpt>
      <trkpt lat="58.71054698713124" lon="13.85924999602139">
        <ele>86.46</ele>
        <time>2025-02-13T06:42:22.469Z</time>
      </trkpt>
      <trkpt lat="58.71054799295962" lon="13.859299952164292">
        <ele>86.46</ele>
        <time>2025-02-13T06:43:08.662Z</time>
      </trkpt>
      <trkpt lat="58.710548998788" lon="13.859353931620717">
        <ele>86.47</ele>
        <time>2025-02-13T06:43:54.855Z</time>
      </trkpt>
      <trkpt lat="58.71054992079735" lon="13.859415957704186">
        <ele>86.47</ele>
        <time>2025-02-13T06:44:41.049Z</time>
      </trkpt>
      <trkpt lat="58.71055394411087" lon="13.859485946595669">
        <ele>86.46</ele>
        <time>2025-02-13T06:45:27.243Z</time>
      </trkpt>
      <trkpt lat="58.71055897325277" lon="13.859563982114196">
        <ele>86.45</ele>
        <time>2025-02-13T06:46:13.438Z</time>
      </trkpt>
      <trkpt lat="58.710561990737915" lon="13.859647968783975">
        <ele>86.44</ele>
        <time>2025-02-13T06:46:59.634Z</time>
      </trkpt>
      <trkpt lat="58.710560984909534" lon="13.859733967110515">
        <ele>86.43</ele>
        <time>2025-02-13T06:47:45.830Z</time>
      </trkpt>
      <trkpt lat="58.71055897325277" lon="13.859823988750577">
        <ele>86.41</ele>
        <time>2025-02-13T06:48:32.027Z</time>
      </trkpt>
      <trkpt lat="58.71055595576763" lon="13.85991794988513">
        <ele>86.39</ele>
        <time>2025-02-13T06:49:18.225Z</time>
      </trkpt>
      <trkpt lat="58.71054497547448" lon="13.860014928504825">
        <ele>86.37</ele>
        <time>2025-02-13T06:50:04.424Z</time>
      </trkpt>
      <trkpt lat="58.71052796021104" lon="13.860111990943551">
        <ele>86.35</ele>
        <time>2025-02-13T06:50:50.624Z</time>
      </trkpt>
      <trkpt lat="58.71050792746246" lon="13.860204946249723">
        <ele>86.32</ele>
        <time>2025-02-13T06:51:36.824Z</time>
      </trkpt>
      <trkpt lat="58.71048294939101" lon="13.860292956233025">
        <ele>86.3</ele>
        <time>2025-02-13T06:52:23.025Z</time>
      </trkpt>
      <trkpt lat="58.710455959662795" lon="13.860376942902803">
        <ele>86.26</ele>
        <time>2025-02-13T06:53:09.227Z</time>
      </trkpt>
      <trkpt lat="58.71042896993458" lon="13.860459923744202">
        <ele>86.23</ele>
        <time>2025-02-13T06:53:55.430Z</time>
      </trkpt>
      <trkpt lat="58.71040692552924" lon="13.860544916242361">
        <ele>86.19</ele>
        <time>2025-02-13T06:54:41.634Z</time>
      </trkpt>
      <trkpt lat="58.710391921922565" lon="13.860634937882423">
        <ele>86.15</ele>
        <time>2025-02-13T06:55:27.838Z</time>
      </trkpt>
      <trkpt lat="58.71038395911455" lon="13.860727977007627">
        <ele>86.11</ele>
        <time>2025-02-13T06:56:14.043Z</time>
      </trkpt>
      <trkpt lat="58.71038496494293" lon="13.860822943970561">
        <ele>86.07</ele>
        <time>2025-02-13T06:57:00.249Z</time>
      </trkpt>
      <trkpt lat="58.71039695106447" lon="13.860919922590256">
        <ele>86.03</ele>
        <time>2025-02-13T06:57:46.456Z</time>
      </trkpt>
      <trkpt lat="58.71041698381305" lon="13.861015979200602">
        <ele>85.98</ele>
        <time>2025-02-13T06:58:32.664Z</time>
      </trkpt>
      <trkpt lat="58.71044497936964" lon="13.861106922850013">
        <ele>85.94</ele>
        <time>2025-02-13T06:59:18.873Z</time>
      </trkpt>
      <trkpt lat="58.71048294939101" lon="13.861182946711779">
        <ele>85.89</ele>
        <time>2025-02-13T07:00:05.083Z</time>
      </trkpt>
      <trkpt lat="58.7105299718678" lon="13.861233992502093">
        <ele>85.84</ele>
        <time>2025-02-13T07:00:51.293Z</time>
      </trkpt>
      <trkpt lat="58.710583951324224" lon="13.861257964745164">
        <ele>85.79</ele>
        <time>2025-02-13T07:01:37.504Z</time>
      </trkpt>
      <trkpt lat="58.71063994243741" lon="13.861260982230306">
        <ele>85.74</ele>
        <time>2025-02-13T07:02:23.716Z</time>
      </trkpt>
      <trkpt lat="58.71069693937898" lon="13.861241955310106">
        <ele>85.69</ele>
        <time>2025-02-13T07:03:09.929Z</time>
      </trkpt>
      <trkpt lat="58.71075192466378" lon="13.861199961975217">
        <ele>85.63</ele>
        <time>2025-02-13T07:03:56.143Z</time>
      </trkpt>
      <trkpt lat="58.7108029704541" lon="13.861139947548509">
        <ele>85.58</ele>
        <time>2025-02-13T07:04:42.358Z</time>
      </trkpt>
      <trkpt lat="58.71084999293089" lon="13.861068952828646">
        <ele>85.52</ele>
        <time>2025-02-13T07:05:28.574Z</time>
      </trkpt>
      <trkpt lat="58.71089693158865" lon="13.860998963937163">
        <ele>85.46</ele>
        <time>2025-02-13T07:06:14.791Z</time>
      </trkpt>
      <trkpt lat="58.71094294823706" lon="13.860935932025313">
        <ele>85.4</ele>
        <time>2025-02-13T07:07:01.009Z</time>
      </trkpt>
      <trkpt lat="58.710989970713854" lon="13.860879940912127">
        <ele>85.34</ele>
        <time>2025-02-13T07:07:47.228Z</time>
      </trkpt>
      <trkpt lat="58.711036993190646" lon="13.860833924263716">
        <ele>85.28</ele>
        <time>2025-02-13T07:08:33.448Z</time>
      </trkpt>
      <trkpt lat="58.711082926020026" lon="13.860795954242349">
        <ele>85.22</ele>
        <time>2025-02-13T07:09:19.668Z</time>
      </trkpt>
      <trkpt lat="58.71112994849682" lon="13.860768964514136">
        <ele>85.15</ele>
        <time>2025-02-13T07:10:05.889Z</time>
      </trkpt>
      <trkpt lat="58.71117495931685" lon="13.860744992271066">
        <ele>85.09</ele>
        <time>2025-02-13T07:10:52.111Z</time>
      </trkpt>
      <trkpt lat="58.71121594682336" lon="13.860722947865725">
        <ele>85.02</ele>
        <time>2025-02-13T07:11:38.334Z</time>
      </trkpt>
      <trkpt lat="58.711254922673106" lon="13.860708950087428">
        <ele>84.95</ele>
        <time>2025-02-13T07:12:24.557Z</time>
      </trkpt>
      <trkpt lat="58.711293982341886" lon="13.860708950087428">
        <ele>84.88</ele>
        <time>2025-02-13T07:13:10.781Z</time>
      </trkpt>
      <trkpt lat="58.71132398955524" lon="13.860743986442685">
        <ele>84.8</ele>
        <time>2025-02-13T07:13:57.005Z</time>
      </trkpt>
      <trkpt lat="58.71133899316192" lon="13.860818920657039">
        <ele>84.73</ele>
        <time>2025-02-13T07:14:43.230Z</time>
      </trkpt>
      <trkpt lat="58.71134796179831" lon="13.860917994752526">
        <ele>84.65</ele>
        <time>2025-02-13T07:15:29.456Z</time>
      </trkpt>
      <trkpt lat="58.711356930434704" lon="13.86103492230177">
        <ele>84.57</ele>
        <time>2025-02-13T07:16:15.683Z</time>
      </trkpt>
      <trkpt lat="58.71136397123337" lon="13.861159980297089">
        <ele>84.5</ele>
        <time>2025-02-13T07:17:01.911Z</time>
      </trkpt>
      <trkpt lat="58.71137293986976" lon="13.861278919503093">
        <ele>84.42</ele>
        <time>2025-02-13T07:17:48.140Z</time>
      </trkpt>
      <trkpt lat="58.71138199232519" lon="13.861384950578213">
        <ele>84.34</ele>
        <time>2025-02-13T07:18:34.370Z</time>
      </trkpt>
      <trkpt lat="58.71138693764806" lon="13.861472960561514">
        <ele>84.27</ele>
        <time>2025-02-13T07:19:20.601Z</time>
      </trkpt>
      <trkpt lat="58.711379980668426" lon="13.86154898442328">
        <ele>84.19</ele>
        <time>2025-02-13T07:20:06.832Z</time>
      </trkpt>
      <trkpt lat="58.711360953748226" lon="13.86161394417286">
        <ele>84.11</ele>
        <time>2025-02-13T07:20:53.064Z</time>
      </trkpt>
      <trkpt lat="58.711336981505156" lon="13.861671946942806">
        <ele>84.03</ele>
        <time>2025-02-13T07:21:39.296Z</time>
      </trkpt>
      <trkpt lat="58.71130999177694" lon="13.861728943884373">
        <ele>83.95</ele>
        <time>2025-02-13T07:22:25.529Z</time>
      </trkpt>
      <trkpt lat="58.71127797290683" lon="13.861796921119094">
        <ele>83.87</ele>
        <time>2025-02-13T07:23:11.763Z</time>
      </trkpt>
      <trkpt lat="58.71124494820833" lon="13.86187193915248">
        <ele>83.79</ele>
        <time>2025-02-13T07:23:57.998Z</time>
      </trkpt>
      <trkpt lat="58.711210917681456" lon="13.861954919993877">
        <ele>83.71</ele>
        <time>2025-02-13T07:24:44.234Z</time>
      </trkpt>
      <trkpt lat="58.71117898263037" lon="13.862042929977179">
        <ele>83.63</ele>
        <time>2025-02-13T07:25:30.470Z</time>
      </trkpt>
      <trkpt lat="58.7111499812454" lon="13.862134963274002">
        <ele>83.54</ele>
        <time>2025-02-13T07:26:16.707Z</time>
      </trkpt>
      <trkpt lat="58.711124919354916" lon="13.862231941893697">
        <ele>83.46</ele>
        <time>2025-02-13T07:27:02.945Z</time>
      </trkpt>
      <trkpt lat="58.71110597625375" lon="13.862333949655294">
        <ele>83.38</ele>
        <time>2025-02-13T07:27:49.184Z</time>
      </trkpt>
      <trkpt lat="58.71109298430383" lon="13.86243394576013">
        <ele>83.29</ele>
        <time>2025-02-13T07:28:35.424Z</time>
      </trkpt>
      <trkpt lat="58.711079992353916" lon="13.862530924379826">
        <ele>83.2</ele>
        <time>2025-02-13T07:29:21.665Z</time>
      </trkpt>
      <trkpt lat="58.71107295155525" lon="13.862639972940087">
        <ele>83.11</ele>
        <time>2025-02-13T07:30:07.907Z</time>
      </trkpt>
      <trkpt lat="58.711078986525536" lon="13.862757990136743">
        <ele>83.03</ele>
        <time>2025-02-13T07:30:54.150Z</time>
      </trkpt>
      <trkpt lat="58.71109197847545" lon="13.862878940999508">
        <ele>82.94</ele>
        <time>2025-02-13T07:31:40.394Z</time>
      </trkpt>
      <trkpt lat="58.71110698208213" lon="13.862999975681305">
        <ele>82.85</ele>
        <time>2025-02-13T07:32:26.639Z</time>
      </trkpt>
      <trkpt lat="58.711124919354916" lon="13.863132996484637">
        <ele>82.76</ele>
        <time>2025-02-13T07:33:12.885Z</time>
      </trkpt>
      <trkpt lat="58.711144952103496" lon="13.86325092986226">
        <ele>82.67</ele>
        <time>2025-02-13T07:33:59.132Z</time>
      </trkpt>
      <trkpt lat="58.711164984852076" lon="13.863365929573774">
        <ele>82.59</ele>
        <time>2025-02-13T07:34:45.380Z</time>
      </trkpt>
      <trkpt lat="58.711187951266766" lon="13.863475983962417">
        <ele>82.5</ele>
        <time>2025-02-13T07:35:31.629Z</time>
      </trkpt>
      <trkpt lat="58.71121292933822" lon="13.863585954532027">
        <ele>82.42</ele>
        <time>2025-02-13T07:36:17.879Z</time>
      </trkpt>
      <trkpt lat="58.7112379912287" lon="13.863693997263908">
        <ele>82.33</ele>
        <time>2025-02-13T07:37:04.130Z</time>
      </trkpt>
      <trkpt lat="58.71126397512853" lon="13.8638049736619">
        <ele>82.24</ele>
        <time>2025-02-13T07:37:50.382Z</time>
      </trkpt>
      <trkpt lat="58.711291970685124" lon="13.863927936181426">
        <ele>82.16</ele>
        <time>2025-02-13T07:38:36.635Z</time>
      </trkpt>
      <trkpt lat="58.71131996624172" lon="13.864051988348365">
        <ele>82.08</ele>
        <time>2025-02-13T07:39:22.889Z</time>
      </trkpt>
      <trkpt lat="58.71134796179831" lon="13.864178974181414">
        <ele>81.99</ele>
        <time>2025-02-13T07:40:09.144Z</time>
      </trkpt>
      <trkpt lat="58.71137495152652" lon="13.864311994984746">
        <ele>81.91</ele>
        <time>2025-02-13T07:40:55.401Z</time>
      </trkpt>
      <trkpt lat="58.711402947083116" lon="13.864455996081233">
        <ele>81.83</ele>
        <time>2025-02-13T07:41:41.659Z</time>
      </trkpt>
      <trkpt lat="58.71143194846809" lon="13.864607959985733">
        <ele>81.74</ele>
        <time>2025-02-13T07:42:27.918Z</time>
      </trkpt>
      <trkpt lat="58.71145793236792" lon="13.864769982174039">
        <ele>81.66</ele>
        <time>2025-02-13T07:43:14.179Z</time>
      </trkpt>
      <trkpt lat="58.71148198843002" lon="13.864931920543313">
        <ele>81.58</ele>
        <time>2025-02-13T07:44:00.441Z</time>
      </trkpt>
      <trkpt lat="58.711508978158236" lon="13.86509595438838">
        <ele>81.5</ele>
        <time>2025-02-13T07:44:46.705Z</time>
      </trkpt>
      <trkpt lat="58.71154099702835" lon="13.865257976576686">
        <ele>81.41</ele>
        <time>2025-02-13T07:45:32.970Z</time>
      </trkpt>
      <trkpt lat="58.71157896704972" lon="13.865408934652805">
        <ele>81.33</ele>
        <time>2025-02-13T07:46:19.236Z</time>
      </trkpt>
      <trkpt lat="58.711615931242704" lon="13.865555953234434">
        <ele>81.25</ele>
        <time>2025-02-13T07:47:05.504Z</time>
      </trkpt>
      <trkpt lat="58.71164493262768" lon="13.865702971816063">
        <ele>81.17</ele>
        <time>2025-02-13T07:47:51.773Z</time>
      </trkpt>
      <trkpt lat="58.7116629537195" lon="13.865852924063802">
        <ele>81.1</ele>
        <time>2025-02-13T07:48:38.043Z</time>
      </trkpt>
      <trkpt lat="58.7116679828614" lon="13.86599893681705">
        <ele>81.02</ele>
        <time>2025-02-13T07:49:24.315Z</time>
      </trkpt>
      <trkpt lat="58.71166898868978" lon="13.866136986762285">
        <ele>80.95</ele>
        <time>2025-02-13T07:50:10.588Z</time>
      </trkpt>
      <trkpt lat="58.71167493984103" lon="13.866272941231728">
        <ele>80.87</ele>
        <time>2025-02-13T07:50:56.862Z</time>
      </trkpt>
      <trkpt lat="58.71169296093285" lon="13.866403950378299">
        <ele>80.8</ele>
        <time>2025-02-13T07:51:43.137Z</time>
      </trkpt>
      <trkpt lat="58.711721962317824" lon="13.866531942039728">
        <ele>80.73</ele>
        <time>2025-02-13T07:52:29.413Z</time>
      </trkpt>
      <trkpt lat="58.71175196953118" lon="13.866659933701158">
        <ele>80.66</ele>
        <time>2025-02-13T07:53:15.690Z</time>
      </trkpt>
      <trkpt lat="58.71178097091615" lon="13.866790942847729">
        <ele>80.59</ele>
        <time>2025-02-13T07:54:01.968Z</time>
      </trkpt>
      <trkpt lat="58.711806954815984" lon="13.866923963651061">
        <ele>80.53</ele>
        <time>2025-02-13T07:54:48.248Z</time>
      </trkpt>
      <trkpt lat="58.711832938715816" lon="13.867057990282774">
        <ele>80.46</ele>
        <time>2025-02-13T07:55:34.529Z</time>
      </trkpt>
      <trkpt lat="58.71185892261565" lon="13.867188999429345">
        <ele>80.39</ele>
        <time>2025-02-13T07:56:20.811Z</time>
      </trkpt>
      <trkpt lat="58.71188398450613" lon="13.867316991090775">
        <ele>80.33</ele>
        <time>2025-02-13T07:57:07.094Z</time>
      </trkpt>
      <trkpt lat="58.71190996840596" lon="13.86743693612516">
        <ele>80.27</ele>
        <time>2025-02-13T07:57:53.378Z</time>
      </trkpt>
      <trkpt lat="58.711935952305794" lon="13.867546990513802">
        <ele>80.21</ele>
        <time>2025-02-13T07:58:39.663Z</time>
      </trkpt>
      <trkpt lat="58.71196394786239" lon="13.867645980790257">
        <ele>80.15</ele>
        <time>2025-02-13T07:59:25.949Z</time>
      </trkpt>
      <trkpt lat="58.712001917883754" lon="13.867721920832992">
        <ele>80.09</ele>
        <time>2025-02-13T08:00:12.236Z</time>
      </trkpt>
      <trkpt lat="58.712048940360546" lon="13.867772966623306">
        <ele>80.03</ele>
        <time>2025-02-13T08:00:58.524Z</time>
      </trkpt>
      <trkpt lat="58.71210199780762" lon="13.867798950523138">
        <ele>79.97</ele>
        <time>2025-02-13T08:01:44.813Z</time>
      </trkpt>
      <trkpt lat="58.71215798892081" lon="13.867803979665041">
        <ele>79.92</ele>
        <time>2025-02-13T08:02:31.103Z</time>
      </trkpt>
      <trkpt lat="58.71221096254885" lon="13.867805991321802">
        <ele>79.86</ele>
        <time>2025-02-13T08:03:17.394Z</time>
      </trkpt>
      <trkpt lat="58.712262930348516" lon="13.867817977443337">
        <ele>79.81</ele>
        <time>2025-02-13T08:04:03.685Z</time>
      </trkpt>
      <trkpt lat="58.71230995282531" lon="13.867839938029647">
        <ele>79.76</ele>
        <time>2025-02-13T08:04:49.977Z</time>
      </trkpt>
      <trkpt lat="58.71235496364534" lon="13.867855947464705">
        <ele>79.71</ele>
        <time>2025-02-13T08:05:36.270Z</time>
      </trkpt>
      <trkpt lat="58.71239796280861" lon="13.86786399409175">
        <ele>79.66</ele>
        <time>2025-02-13T08:06:22.564Z</time>
      </trkpt>
      <trkpt lat="58.71244096197188" lon="13.86786893941462">
        <ele>79.61</ele>
        <time>2025-02-13T08:07:08.858Z</time>
      </trkpt>
      <trkpt lat="58.71248798444867" lon="13.867870951071382">
        <ele>79.57</ele>
        <time>2025-02-13T08:07:55.153Z</time>
      </trkpt>
      <trkpt lat="58.712541963905096" lon="13.867873968556523">
        <ele>79.52</ele>
        <time>2025-02-13T08:08:41.449Z</time>
      </trkpt>
      <trkpt lat="58.71259795501828" lon="13.867879919707775">
        <ele>79.48</ele>
        <time>2025-02-13T08:09:27.746Z</time>
      </trkpt>
      <trkpt lat="58.71265394613147" lon="13.867890983819962">
        <ele>79.43</ele>
        <time>2025-02-13T08:10:14.044Z</time>
      </trkpt>
      <trkpt lat="58.71270792558789" lon="13.867912944406271">
        <ele>79.39</ele>
        <time>2025-02-13T08:11:00.343Z</time>
      </trkpt>
      <trkpt lat="58.712756959721446" lon="13.867946974933147">
        <ele>79.35</ele>
        <time>2025-02-13T08:11:46.642Z</time>
      </trkpt>
      <trkpt lat="58.71280398219824" lon="13.867990979924798">
        <ele>79.31</ele>
        <time>2025-02-13T08:12:32.942Z</time>
      </trkpt>
      <trkpt lat="58.71284496970475" lon="13.868034984916449">
        <ele>79.27</ele>
        <time>2025-02-13T08:13:19.243Z</time>
      </trkpt>
      <trkpt lat="58.712884951382875" lon="13.868074966594577">
        <ele>79.24</ele>
        <time>2025-02-13T08:14:05.545Z</time>
      </trkpt>
      <trkpt lat="58.71291294693947" lon="13.868111930787563">
        <ele>79.21</ele>
        <time>2025-02-13T08:14:51.847Z</time>
      </trkpt>
      <trkpt lat="58.71293691918254" lon="13.86814495548606">
        <ele>79.17</ele>
        <time>2025-02-13T08:15:38.150Z</time>
      </trkpt>
      <trkpt lat="58.71295695193112" lon="13.868175968527794">
        <ele>79.14</ele>
        <time>2025-02-13T08:16:24.453Z</time>
      </trkpt>
      <trkpt lat="58.712970949709415" lon="13.868215950205922">
        <ele>79.11</ele>
        <time>2025-02-13T08:17:10.757Z</time>
      </trkpt>
      <trkpt lat="58.71297497302294" lon="13.868262972682714">
        <ele>79.09</ele>
        <time>2025-02-13T08:17:57.061Z</time>
      </trkpt>
      <trkpt lat="58.712969943881035" lon="13.86831695213914">
        <ele>79.06</ele>
        <time>2025-02-13T08:18:43.365Z</time>
      </trkpt>
      <trkpt lat="58.7129579577595" lon="13.868377972394228">
        <ele>79.03</ele>
        <time>2025-02-13T08:19:29.670Z</time>
      </trkpt>
      <trkpt lat="58.7129389308393" lon="13.868441926315427">
        <ele>79.0</ele>
        <time>2025-02-13T08:20:15.976Z</time>
      </trkpt>
      <trkpt lat="58.71292099356651" lon="13.86850998736918">
        <ele>78.98</ele>
        <time>2025-02-13T08:21:02.282Z</time>
      </trkpt>
      <trkpt lat="58.712903978303075" lon="13.868583999574184">
        <ele>78.95</ele>
        <time>2025-02-13T08:21:48.589Z</time>
      </trkpt>
      <trkpt lat="58.71288696303964" lon="13.868666980415583">
        <ele>78.93</ele>
        <time>2025-02-13T08:22:34.897Z</time>
      </trkpt>
      <trkpt lat="58.71286793611944" lon="13.868754990398884">
        <ele>78.91</ele>
        <time>2025-02-13T08:23:21.205Z</time>
      </trkpt>
      <trkpt lat="58.71284899301827" lon="13.868847945705056">
        <ele>78.89</ele>
        <time>2025-02-13T08:24:07.514Z</time>
      </trkpt>
      <trkpt lat="58.71283197775483" lon="13.868938973173499">
        <ele>78.87</ele>
        <time>2025-02-13T08:24:53.824Z</time>
      </trkpt>
      <trkpt lat="58.712816974148154" lon="13.869035951793194">
        <ele>78.85</ele>
        <time>2025-02-13T08:25:40.135Z</time>
      </trkpt>
      <trkpt lat="58.71280498802662" lon="13.869127985090017">
        <ele>78.84</ele>
        <time>2025-02-13T08:26:26.447Z</time>
      </trkpt>
      <trkpt lat="58.71279492974281" lon="13.869223957881331">
        <ele>78.82</ele>
        <time>2025-02-13T08:27:12.760Z</time>
      </trkpt>
      <trkpt lat="58.71278596110642" lon="13.869321942329407">
        <ele>78.8</ele>
        <time>2025-02-13T08:27:59.073Z</time>
      </trkpt>
      <trkpt lat="58.712776992470026" lon="13.869426967576146">
        <ele>78.79</ele>
        <time>2025-02-13T08:28:45.387Z</time>
      </trkpt>
      <trkpt lat="58.71277095749974" lon="13.869533920660615">
        <ele>78.77</ele>
        <time>2025-02-13T08:29:31.702Z</time>
      </trkpt>
      <trkpt lat="58.71276492252946" lon="13.869643975049257">
        <ele>78.76</ele>
        <time>2025-02-13T08:30:18.018Z</time>
      </trkpt>
      <trkpt lat="58.71275997720659" lon="13.86975696310401">
        <ele>78.75</ele>
        <time>2025-02-13T08:31:04.335Z</time>
      </trkpt>
      <trkpt lat="58.712755953893065" lon="13.869873974472284">
        <ele>78.73</ele>
        <time>2025-02-13T08:31:50.653Z</time>
      </trkpt>
      <trkpt lat="58.712753942236304" lon="13.86999492533505">
        <ele>78.72</ele>
        <time>2025-02-13T08:32:36.972Z</time>
      </trkpt>
      <trkpt lat="58.71275193057954" lon="13.87012199498713">
        <ele>78.71</ele>
        <time>2025-02-13T08:33:23.292Z</time>
      </trkpt>
      <trkpt lat="58.71274899691343" lon="13.870246969163418">
        <ele>78.69</ele>
        <time>2025-02-13T08:34:09.613Z</time>
      </trkpt>
      <trkpt lat="58.71274597942829" lon="13.870372949168086">
        <ele>78.68</ele>
        <time>2025-02-13T08:34:55.935Z</time>
      </trkpt>
      <trkpt lat="58.71274296194315" lon="13.870497923344374">
        <ele>78.68</ele>
        <time>2025-02-13T08:35:42.258Z</time>
      </trkpt>
      <trkpt lat="58.71274195611477" lon="13.870621975511312">
        <ele>78.67</ele>
        <time>2025-02-13T08:36:28.582Z</time>
      </trkpt>
      <trkpt lat="58.71274095028639" lon="13.870743932202458">
        <ele>78.66</ele>
        <time>2025-02-13T08:37:14.907Z</time>
      </trkpt>
      <trkpt lat="58.712735921144485" lon="13.870862955227494">
        <ele>78.66</ele>
        <time>2025-02-13T08:38:01.233Z</time>
      </trkpt>
      <trkpt lat="58.71272695250809" lon="13.87098097242415">
        <ele>78.66</ele>
        <time>2025-02-13T08:38:47.560Z</time>
      </trkpt>
      <trkpt lat="58.712709937244654" lon="13.871094966307282">
        <ele>78.65</ele>
        <time>2025-02-13T08:39:33.888Z</time>
      </trkpt>
      <trkpt lat="58.71268194168806" lon="13.87119697406888">
        <ele>78.64</ele>
        <time>2025-02-13T08:40:20.217Z</time>
      </trkpt>
      <trkpt lat="58.71265294030309" lon="13.871290935203433">
        <ele>78.64</ele>
        <time>2025-02-13T08:41:06.547Z</time>
      </trkpt>
      <trkpt lat="58.71263299137354" lon="13.871382968500257">
        <ele>78.63</ele>
        <time>2025-02-13T08:41:52.878Z</time>
      </trkpt>
      <trkpt lat="58.71262896806002" lon="13.871474917978048">
        <ele>78.63</ele>
        <time>2025-02-13T08:42:39.210Z</time>
      </trkpt>
      <trkpt lat="58.71263994835317" lon="13.871561922132969">
        <ele>78.63</ele>
        <time>2025-02-13T08:43:25.543Z</time>
      </trkpt>
      <trkpt lat="58.712667943909764" lon="13.871628977358341">
        <ele>78.64</ele>
        <time>2025-02-13T08:44:11.876Z</time>
      </trkpt>
      <trkpt lat="58.71270691975951" lon="13.871661918237805">
        <ele>78.65</ele>
        <time>2025-02-13T08:44:58.210Z</time>
      </trkpt>
      <trkpt lat="58.71274698525667" lon="13.87165093794465">
        <ele>78.65</ele>
        <time>2025-02-13T08:45:44.545Z</time>
      </trkpt>
      <trkpt lat="58.71278093196452" lon="13.871604921296239">
        <ele>78.66</ele>
        <time>2025-02-13T08:46:30.880Z</time>
      </trkpt>
      <trkpt lat="58.7128009647131" lon="13.871538955718279">
        <ele>78.66</ele>
        <time>2025-02-13T08:47:17.216Z</time>
      </trkpt>
      <trkpt lat="58.71280398219824" lon="13.871462931856513">
        <ele>78.66</ele>
        <time>2025-02-13T08:48:03.552Z</time>
      </trkpt>
      <trkpt lat="58.7128009647131" lon="13.871380956843495">
        <ele>78.66</ele>
        <time>2025-02-13T08:48:49.889Z</time>
      </trkpt>
      <trkpt lat="58.712797947227955" lon="13.871298981830478">
        <ele>78.66</ele>
        <time>2025-02-13T08:49:36.227Z</time>
      </trkpt>
      <trkpt lat="58.712796941399574" lon="13.871217928826809">
        <ele>78.67</ele>
        <time>2025-02-13T08:50:22.566Z</time>
      </trkpt>
      <trkpt lat="58.712795935571194" lon="13.871137965470552">
        <ele>78.67</ele>
        <time>2025-02-13T08:51:08.905Z</time>
      </trkpt>
      <trkpt lat="58.71279291808605" lon="13.871058924123645">
        <ele>78.67</ele>
        <time>2025-02-13T08:51:55.245Z</time>
      </trkpt>
      <trkpt lat="58.71278998441994" lon="13.870979966595769">
        <ele>78.68</ele>
        <time>2025-02-13T08:52:41.586Z</time>
      </trkpt>
      <trkpt lat="58.71278998441994" lon="13.870898997411132">
        <ele>78.68</ele>
        <time>2025-02-13T08:53:27.927Z</time>
      </trkpt>
      <trkpt lat="58.7127919960767" lon="13.870815932750702">
        <ele>78.68</ele>
        <time>2025-02-13T08:54:14.269Z</time>
      </trkpt>
      <trkpt lat="58.712795935571194" lon="13.870729934424162">
        <ele>78.68</ele>
        <time>2025-02-13T08:55:00.612Z</time>
      </trkpt>
      <trkpt lat="58.712797947227955" lon="13.87063798494637">
        <ele>78.68</ele>
        <time>2025-02-13T08:55:46.955Z</time>
      </trkpt>
      <trkpt lat="58.712799958884716" lon="13.870540922507644">
        <ele>78.69</ele>
        <time>2025-02-13T08:56:33.299Z</time>
      </trkpt>
      <trkpt lat="58.71280197054148" lon="13.870443943887949">
        <ele>78.69</ele>
        <time>2025-02-13T08:57:19.644Z</time>
      </trkpt>
      <trkpt lat="58.71280498802662" lon="13.870346965268254">
        <ele>78.7</ele>
        <time>2025-02-13T08:58:05.990Z</time>
      </trkpt>
      <trkpt lat="58.71280792169273" lon="13.870247974991798">
        <ele>78.71</ele>
        <time>2025-02-13T08:58:52.337Z</time>
      </trkpt>
      <trkpt lat="58.71280892752111" lon="13.870147978886962">
        <ele>78.72</ele>
        <time>2025-02-13T08:59:38.684Z</time>
      </trkpt>
      <trkpt lat="58.71281093917787" lon="13.870049994438887">
        <ele>78.72</ele>
        <time>2025-02-13T09:00:25.032Z</time>
      </trkpt>
      <trkpt lat="58.71281496249139" lon="13.86995192617178">
        <ele>78.73</ele>
        <time>2025-02-13T09:01:11.381Z</time>
      </trkpt>
      <trkpt lat="58.712818985804915" lon="13.869854947552085">
        <ele>78.73</ele>
        <time>2025-02-13T09:01:57.731Z</time>
      </trkpt>
      <trkpt lat="58.71282393112779" lon="13.869760986417532">
        <ele>78.74</ele>
        <time>2025-02-13T09:02:44.082Z</time>
      </trkpt>
      <trkpt lat="58.71282896026969" lon="13.869668953120708">
        <ele>78.74</ele>
        <time>2025-02-13T09:03:30.433Z</time>
      </trkpt>
      <trkpt lat="58.71283591724932" lon="13.869578931480646">
        <ele>78.75</ele>
        <time>2025-02-13T09:04:16.785Z</time>
      </trkpt>
      <trkpt lat="58.71284396387637" lon="13.869490921497345">
        <ele>78.75</ele>
        <time>2025-02-13T09:05:03.138Z</time>
      </trkpt>
      <trkpt lat="58.71285293251276" lon="13.869400983676314">
        <ele>78.76</ele>
        <time>2025-02-13T09:05:49.492Z</time>
      </trkpt>
      <trkpt lat="58.712862990796566" lon="13.869311967864633">
        <ele>78.76</ele>
        <time>2025-02-13T09:06:35.847Z</time>
      </trkpt>
      <trkpt lat="58.71287296526134" lon="13.86922295205295">
        <ele>78.76</ele>
        <time>2025-02-13T09:07:22.202Z</time>
      </trkpt>
      <trkpt lat="58.712884951382875" lon="13.869133936241269">
        <ele>78.77</ele>
        <time>2025-02-13T09:08:08.558Z</time>
      </trkpt>
      <trkpt lat="58.71289693750441" lon="13.869041986763477">
        <ele>78.77</ele>
        <time>2025-02-13T09:08:54.915Z</time>
      </trkpt>
      <trkpt lat="58.71291294693947" lon="13.868955988436937">
        <ele>78.77</ele>
        <time>2025-02-13T09:09:41.273Z</time>
      </trkpt>
      <trkpt lat="58.71292996220291" lon="13.868867978453636">
        <ele>78.77</ele>
        <time>2025-02-13T09:10:27.631Z</time>
      </trkpt>
      <trkpt lat="58.712946977466345" lon="13.868778962641954">
        <ele>78.77</ele>
        <time>2025-02-13T09:11:13.990Z</time>
      </trkpt>
      <trkpt lat="58.712964998558164" lon="13.868693970143795">
        <ele>78.77</ele>
        <time>2025-02-13T09:12:00.350Z</time>
      </trkpt>
      <trkpt lat="58.71298293583095" lon="13.868610989302397">
        <ele>78.77</ele>
        <time>2025-02-13T09:12:46.711Z</time>
      </trkpt>
      <trkpt lat="58.71300296857953" lon="13.86853194795549">
        <ele>78.77</ele>
        <time>2025-02-13T09:13:33.072Z</time>
      </trkpt>
      <trkpt lat="58.71302098967135" lon="13.868452990427613">
        <ele>78.77</ele>
        <time>2025-02-13T09:14:19.434Z</time>
      </trkpt>
      <trkpt lat="58.713037921115756" lon="13.868376966565847">
        <ele>78.77</ele>
        <time>2025-02-13T09:15:05.797Z</time>
      </trkpt>
      <trkpt lat="58.713055942207575" lon="13.868303960189223">
        <ele>78.77</ele>
        <time>2025-02-13T09:15:52.161Z</time>
      </trkpt>
      <trkpt lat="58.71307295747101" lon="13.86823195964098">
        <ele>78.77</ele>
        <time>2025-02-13T09:16:38.525Z</time>
      </trkpt>
      <trkpt lat="58.71308896690607" lon="13.868161970749497">
        <ele>78.76</ele>
        <time>2025-02-13T09:17:24.890Z</time>
      </trkpt>
      <trkpt lat="58.71310698799789" lon="13.868095921352506">
        <ele>78.76</ele>
        <time>2025-02-13T09:18:11.255Z</time>
      </trkpt>
      <trkpt lat="58.71312199160457" lon="13.868031967431307">
        <ele>78.76</ele>
        <time>2025-02-13T09:18:57.621Z</time>
      </trkpt>
      <trkpt lat="58.713136995211244" lon="13.86797396466136">
        <ele>78.75</ele>
        <time>2025-02-13T09:19:43.988Z</time>
      </trkpt>
      <trkpt lat="58.71315099298954" lon="13.867921996861696">
        <ele>78.75</ele>
        <time>2025-02-13T09:20:30.355Z</time>
      </trkpt>
      <trkpt lat="58.713162979111075" lon="13.867877991870046">
        <ele>78.75</ele>
        <time>2025-02-13T09:21:16.722Z</time>
      </trkpt>
      <trkpt lat="58.71317395940423" lon="13.867841949686408">
        <ele>78.74</ele>
        <time>2025-02-13T09:22:03.090Z</time>
      </trkpt>
      <trkpt lat="58.71318192221224" lon="13.867812948301435">
        <ele>78.74</ele>
        <time>2025-02-13T09:22:49.458Z</time>
      </trkpt>
      <trkpt lat="58.71318896301091" lon="13.867792999371886">
        <ele>78.73</ele>
        <time>2025-02-13T09:23:35.826Z</time>
      </trkpt>
      <trkpt lat="58.71319399215281" lon="13.8677819352597">
        <ele>78.72</ele>
        <time>2025-02-13T09:24:22.194Z</time>
      </trkpt>
      <trkpt lat="58.71319499798119" lon="13.86777799576521">
        <ele>78.72</ele>
        <time>2025-02-13T09:25:08.562Z</time>
      </trkpt>
      <trkpt lat="58.71319399215281" lon="13.867778917774558">
        <ele>78.71</ele>
        <time>2025-02-13T09:25:54.930Z</time>
      </trkpt>
      <trkpt lat="58.713162979111075" lon="13.867743965238333">
        <ele>78.7</ele>
        <time>2025-02-13T09:26:41.299Z</time>
      </trkpt>
      <trkpt lat="58.71315493248403" lon="13.867762992158532">
        <ele>78.69</ele>
        <time>2025-02-13T09:27:27.668Z</time>
      </trkpt>
      <trkpt lat="58.71314696967602" lon="13.867785958573222">
        <ele>78.69</ele>
        <time>2025-02-13T09:28:14.037Z</time>
      </trkpt>
      <trkpt lat="58.713141940534115" lon="13.867810936644673">
        <ele>78.68</ele>
        <time>2025-02-13T09:29:00.407Z</time>
      </trkpt>
      <trkpt lat="58.713139928877354" lon="13.867835998535156">
        <ele>78.67</ele>
        <time>2025-02-13T09:29:46.777Z</time>
      </trkpt>
      <trkpt lat="58.71313498355448" lon="13.86786692775786">
        <ele>78.66</ele>
        <time>2025-02-13T09:30:33.147Z</time>
      </trkpt>
      <trkpt lat="58.71312593109906" lon="13.867903975769877">
        <ele>78.65</ele>
        <time>2025-02-13T09:31:19.518Z</time>
      </trkpt>
      <trkpt lat="58.71311394497752" lon="13.867938928306103">
        <ele>78.64</ele>
        <time>2025-02-13T09:32:05.889Z</time>
      </trkpt>
      <trkpt lat="58.71310296468437" lon="13.86797295883298">
        <ele>78.63</ele>
        <time>2025-02-13T09:32:52.260Z</time>
      </trkpt>
      <trkpt lat="58.71309097856283" lon="13.868005983531475">
        <ele>78.62</ele>
        <time>2025-02-13T09:33:38.632Z</time>
      </trkpt>
      <trkpt lat="58.713077986612916" lon="13.86803892441094">
        <ele>78.61</ele>
        <time>2025-02-13T09:34:25.004Z</time>
      </trkpt>
      <trkpt lat="58.71306398883462" lon="13.868070943281054">
        <ele>78.59</ele>
        <time>2025-02-13T09:35:11.376Z</time>
      </trkpt>
      <trkpt lat="58.713050996884704" lon="13.86810296215117">
        <ele>78.58</ele>
        <time>2025-02-13T09:35:57.749Z</time>
      </trkpt>
      <trkpt lat="58.71303993277252" lon="13.868127940222621">
        <ele>78.57</ele>
        <time>2025-02-13T09:36:44.122Z</time>
      </trkpt>
      <trkpt lat="58.713031969964504" lon="13.868147972971201">
        <ele>78.55</ele>
        <time>2025-02-13T09:37:30.495Z</time>
      </trkpt>
      <trkpt lat="58.7130269408226" lon="13.868163982406259">
        <ele>78.54</ele>
        <time>2025-02-13T09:38:16.868Z</time>
      </trkpt>
      <trkpt lat="58.71302392333746" lon="13.86816993355751">
        <ele>78.52</ele>
        <time>2025-02-13T09:39:03.241Z</time>
      </trkpt>
      <trkpt lat="58.71302291750908" lon="13.86816993355751">
        <ele>78.51</ele>
        <time>2025-02-13T09:39:49.614Z</time>
      </trkpt>
      <trkpt lat="58.712988970801234" lon="13.868285939097404">
        <ele>78.49</ele>
        <time>2025-02-13T09:40:35.988Z</time>
      </trkpt>
      <trkpt lat="58.71297799050808" lon="13.868331955745816">
        <ele>78.48</ele>
        <time>2025-02-13T09:41:22.363Z</time>
      </trkpt>
      <trkpt lat="58.71296399272978" lon="13.868388952687383">
        <ele>78.46</ele>
        <time>2025-02-13T09:42:08.738Z</time>
      </trkpt>
      <trkpt lat="58.712947983294725" lon="13.868453996255994">
        <ele>78.44</ele>
        <time>2025-02-13T09:42:55.114Z</time>
      </trkpt>
      <trkpt lat="58.712927950546145" lon="13.868524990975857">
        <ele>78.42</ele>
        <time>2025-02-13T09:43:41.491Z</time>
      </trkpt>
      <trkpt lat="58.712907917797565" lon="13.868604954332113">
        <ele>78.4</ele>
        <time>2025-02-13T09:44:27.868Z</time>
      </trkpt>
      <trkpt lat="58.71288696303964" lon="13.868692964315414">
        <ele>78.38</ele>
        <time>2025-02-13T09:45:14.246Z</time>
      </trkpt>
      <trkpt lat="58.71286693029106" lon="13.868785919621587">
        <ele>78.36</ele>
        <time>2025-02-13T09:46:00.625Z</time>
      </trkpt>
      <trkpt lat="58.71284899301827" lon="13.868881976231933">
        <ele>78.34</ele>
        <time>2025-02-13T09:46:47.005Z</time>
      </trkpt>
      <trkpt lat="58.71283298358321" lon="13.868979960680008">
        <ele>78.32</ele>
        <time>2025-02-13T09:47:33.386Z</time>
      </trkpt>
      <trkpt lat="58.712817979976535" lon="13.869076939299703">
        <ele>78.3</ele>
        <time>2025-02-13T09:48:19.768Z</time>
      </trkpt>
      <trkpt lat="58.71280297636986" lon="13.869183976203203">
        <ele>78.28</ele>
        <time>2025-02-13T09:49:06.150Z</time>
      </trkpt>
      <trkpt lat="58.7127919960767" lon="13.86928891763091">
        <ele>78.25</ele>
        <time>2025-02-13T09:49:52.533Z</time>
      </trkpt>
      <trkpt lat="58.7127819377929" lon="13.86939394287765">
        <ele>78.23</ele>
        <time>2025-02-13T09:50:38.917Z</time>
      </trkpt>
      <trkpt lat="58.71277196332812" lon="13.869502991437912">
        <ele>78.2</ele>
        <time>2025-02-13T09:51:25.302Z</time>
      </trkpt>
      <trkpt lat="58.71276391670108" lon="13.869614973664284">
        <ele>78.18</ele>
        <time>2025-02-13T09:52:11.688Z</time>
      </trkpt>
      <trkpt lat="58.712755953893065" lon="13.869729973375797">
        <ele>78.15</ele>
        <time>2025-02-13T09:52:58.075Z</time>
      </trkpt>
      <trkpt lat="58.71274991892278" lon="13.869849918410182">
        <ele>78.12</ele>
        <time>2025-02-13T09:53:44.463Z</time>
      </trkpt>
      <trkpt lat="58.71274799108505" lon="13.86997397057712">
        <ele>78.1</ele>
        <time>2025-02-13T09:54:30.852Z</time>
      </trkpt>
      <trkpt lat="58.71274497359991" lon="13.87010296806693">
        <ele>78.07</ele>
        <time>2025-02-13T09:55:17.242Z</time>
      </trkpt>
      <trkpt lat="58.71274195611477" lon="13.870238922536373">
        <ele>78.04</ele>
        <time>2025-02-13T09:56:03.633Z</time>
      </trkpt>
      <trkpt lat="58.71273994445801" lon="13.870367920026183">
        <ele>78.01</ele>
        <time>2025-02-13T09:56:50.025Z</time>
      </trkpt>
      <trkpt lat="58.71273793280125" lon="13.870496917515993">
        <ele>77.98</ele>
        <time>2025-02-13T09:57:36.419Z</time>
      </trkpt>
      <trkpt lat="58.712735921144485" lon="13.870625998824835">
        <ele>77.95</ele>
        <time>2025-02-13T09:58:22.814Z</time>
      </trkpt>
      <trkpt lat="58.712732987478375" lon="13.870750973001122">
        <ele>77.92</ele>
        <time>2025-02-13T09:59:09.210Z</time>
      </trkpt>
      <trkpt lat="58.712729969993234" lon="13.870871923863888">
        <ele>77.9</ele>
        <time>2025-02-13T09:59:55.607Z</time>
      </trkpt>
      <trkpt lat="58.71272494085133" lon="13.870989941060543">
        <ele>77.87</ele>
        <time>2025-02-13T10:00:42.005Z</time>
      </trkpt>
      <trkpt lat="58.712712954729795" lon="13.871101923286915">
        <ele>77.84</ele>
        <time>2025-02-13T10:01:28.404Z</time>
      </trkpt>
      <trkpt lat="58.712688982486725" lon="13.87119797989726">
        <ele>77.81</ele>
        <time>2025-02-13T10:02:14.803Z</time>
      </trkpt>
      <trkpt lat="58.71266098693013" lon="13.871265957131982">
        <ele>77.78</ele>
        <time>2025-02-13T10:03:01.203Z</time>
      </trkpt>
      <trkpt lat="58.71263097971678" lon="13.87130493298173">
        <ele>77.74</ele>
        <time>2025-02-13T10:03:47.604Z</time>
      </trkpt>
      <trkpt lat="58.71259996667504" lon="13.871316919103265">
        <ele>77.71</ele>
        <time>2025-02-13T10:04:34.005Z</time>
      </trkpt>
      <trkpt lat="58.71257096529007" lon="13.871307950466871">
        <ele>77.68</ele>
        <time>2025-02-13T10:05:20.407Z</time>
      </trkpt>
      <trkpt lat="58.71254598721862" lon="13.871295964345336">
        <ele>77.64</ele>
        <time>2025-02-13T10:06:06.809Z</time>
      </trkpt>
      <trkpt lat="58.71252394281328" lon="13.8712839782238">
        <ele>77.61</ele>
        <time>2025-02-13T10:06:53.212Z</time>
      </trkpt>
      <trkpt lat="58.71250198222697" lon="13.871275931596756">
        <ele>77.58</ele>
        <time>2025-02-13T10:07:39.615Z</time>
      </trkpt>
      <trkpt lat="58.712477926164865" lon="13.871270986273885">
        <ele>77.55</ele>
        <time>2025-02-13T10:08:26.018Z</time>
      </trkpt>
      <trkpt lat="58.712453953921795" lon="13.871271992102265">
        <ele>77.52</ele>
        <time>2025-02-13T10:09:12.422Z</time>
      </trkpt>
      <trkpt lat="58.712434927001595" lon="13.8712839782238">
        <ele>77.49</ele>
        <time>2025-02-13T10:09:58.826Z</time>
      </trkpt>
      <trkpt lat="58.71241992339492" lon="13.871307950466871">
        <ele>77.46</ele>
        <time>2025-02-13T10:10:45.230Z</time>
      </trkpt>
      <trkpt lat="58.71240793727338" lon="13.871342986822128">
        <ele>77.43</ele>
        <time>2025-02-13T10:11:31.635Z</time>
      </trkpt>
      <trkpt lat="58.71239896863699" lon="13.871384980157018">
        <ele>77.4</ele>
        <time>2025-02-13T10:12:18.040Z</time>
      </trkpt>
      <trkpt lat="58.712389916181564" lon="13.87143393047154">
        <ele>77.37</ele>
        <time>2025-02-13T10:13:04.445Z</time>
      </trkpt>
      <trkpt lat="58.712385976687074" lon="13.871488999575377">
        <ele>77.34</ele>
        <time>2025-02-13T10:13:50.851Z</time>
      </trkpt>
      <trkpt lat="58.712387988343835" lon="13.871547924354672">
        <ele>77.31</ele>
        <time>2025-02-13T10:14:37.257Z</time>
      </trkpt>
      <trkpt lat="58.71239494532347" lon="13.871606932953">
        <ele>77.28</ele>
        <time>2025-02-13T10:15:23.664Z</time>
      </trkpt>
      <trkpt lat="58.71240399777889" lon="13.871663929894567">
        <ele>77.26</ele>
        <time>2025-02-13T10:16:10.071Z</time>
      </trkpt>
      <trkpt lat="58.712411960586905" lon="13.871718998998404">
        <ele>77.23</ele>
        <time>2025-02-13T10:16:56.479Z</time>
      </trkpt>
      <trkpt lat="58.71242193505168" lon="13.871768955141306">
        <ele>77.2</ele>
        <time>2025-02-13T10:17:42.887Z</time>
      </trkpt>
      <trkpt lat="58.712431993335485" lon="13.871816983446479">
        <ele>77.18</ele>
        <time>2025-02-13T10:18:29.296Z</time>
      </trkpt>
      <trkpt lat="58.7124399561435" lon="13.871866939589381">
        <ele>77.16</ele>
        <time>2025-02-13T10:19:15.705Z</time>
      </trkpt>
      <trkpt lat="58.71244096197188" lon="13.871919997036457">
        <ele>77.13</ele>
        <time>2025-02-13T10:20:02.115Z</time>
      </trkpt>
      <trkpt lat="58.712429981678724" lon="13.87196995317936">
        <ele>77.11</ele>
        <time>2025-02-13T10:20:48.525Z</time>
      </trkpt>
      <trkpt lat="58.71240299195051" lon="13.872001972049475">
        <ele>77.08</ele>
        <time>2025-02-13T10:21:34.936Z</time>
      </trkpt>
      <trkpt lat="58.712369967252016" lon="13.872031979262829">
        <ele>77.05</ele>
        <time>2025-02-13T10:22:21.347Z</time>
      </trkpt>
      <trkpt lat="58.71233593672514" lon="13.872073972597718">
        <ele>77.02</ele>
        <time>2025-02-13T10:23:07.759Z</time>
      </trkpt>
      <trkpt lat="58.712300984188914" lon="13.872126946225762">
        <ele>76.99</ele>
        <time>2025-02-13T10:23:54.172Z</time>
      </trkpt>
      <trkpt lat="58.712263936176896" lon="13.87218494899571">
        <ele>76.96</ele>
        <time>2025-02-13T10:24:40.585Z</time>
      </trkpt>
      <trkpt lat="58.71222697198391" lon="13.872244963422418">
        <ele>76.93</ele>
        <time>2025-02-13T10:25:26.999Z</time>
      </trkpt>
      <trkpt lat="58.71218992397189" lon="13.87231595814228">
        <ele>76.91</ele>
        <time>2025-02-13T10:26:13.414Z</time>
      </trkpt>
      <trkpt lat="58.712152959778905" lon="13.872395921498537">
        <ele>76.89</ele>
        <time>2025-02-13T10:26:59.830Z</time>
      </trkpt>
      <trkpt lat="58.71211892925203" lon="13.872479991987348">
        <ele>76.86</ele>
        <time>2025-02-13T10:27:46.247Z</time>
      </trkpt>
      <trkpt lat="58.712086994200945" lon="13.872564984485507">
        <ele>76.84</ele>
        <time>2025-02-13T10:28:32.665Z</time>
      </trkpt>
      <trkpt lat="58.71205296367407" lon="13.872651988640428">
        <ele>76.81</ele>
        <time>2025-02-13T10:29:19.084Z</time>
      </trkpt>
      <trkpt lat="58.71201893314719" lon="13.872740920633078">
        <ele>76.8</ele>
        <time>2025-02-13T10:30:05.503Z</time>
      </trkpt>
      <trkpt lat="58.71198792010546" lon="13.87283094227314">
        <ele>76.78</ele>
        <time>2025-02-13T10:30:51.923Z</time>
      </trkpt>
      <trkpt lat="58.711958918720484" lon="13.872920963913202">
        <ele>76.76</ele>
        <time>2025-02-13T10:31:38.344Z</time>
      </trkpt>
      <trkpt lat="58.71193092316389" lon="13.873008973896503">
        <ele>76.74</ele>
        <time>2025-02-13T10:32:24.766Z</time>
      </trkpt>
      <trkpt lat="58.71190393343568" lon="13.873092960566282">
        <ele>76.72</ele>
        <time>2025-02-13T10:33:11.189Z</time>
      </trkpt>
      <trkpt lat="58.711876943707466" lon="13.873177953064442">
        <ele>76.71</ele>
        <time>2025-02-13T10:33:57.613Z</time>
      </trkpt>
      <trkpt lat="58.71184894815087" lon="13.873264957219362">
        <ele>76.69</ele>
        <time>2025-02-13T10:34:44.038Z</time>
      </trkpt>
      <trkpt lat="58.71182095259428" lon="13.873359924182296">
        <ele>76.68</ele>
        <time>2025-02-13T10:35:30.464Z</time>
      </trkpt>
      <trkpt lat="58.71179295703769" lon="13.8734529633075">
        <ele>76.67</ele>
        <time>2025-02-13T10:36:16.890Z</time>
      </trkpt>
      <trkpt lat="58.711764961481094" lon="13.873544996604323">
        <ele>76.65</ele>
        <time>2025-02-13T10:37:03.317Z</time>
      </trkpt>
      <trkpt lat="58.71173797175288" lon="13.873633928596973">
        <ele>76.63</ele>
        <time>2025-02-13T10:37:49.745Z</time>
      </trkpt>
      <trkpt lat="58.71171198785305" lon="13.873718921095133">
        <ele>76.62</ele>
        <time>2025-02-13T10:38:36.174Z</time>
      </trkpt>
      <trkpt lat="58.71168592013419" lon="13.873800979927182">
        <ele>76.61</ele>
        <time>2025-02-13T10:39:22.604Z</time>
      </trkpt>
      <trkpt lat="58.711660942062736" lon="13.87388396076858">
        <ele>76.6</ele>
        <time>2025-02-13T10:40:09.035Z</time>
      </trkpt>
      <trkpt lat="58.711635963991284" lon="13.873970964923501">
        <ele>76.58</ele>
        <time>2025-02-13T10:40:55.466Z</time>
      </trkpt>
      <trkpt lat="58.71160998009145" lon="13.874058974906802">
        <ele>76.57</ele>
        <time>2025-02-13T10:41:41.898Z</time>
      </trkpt>
      <trkpt lat="58.71158299036324" lon="13.874144973233342">
        <ele>76.56</ele>
        <time>2025-02-13T10:42:28.331Z</time>
      </trkpt>
      <trkpt lat="58.71155792847276" lon="13.874228959903121">
        <ele>76.54</ele>
        <time>2025-02-13T10:43:14.765Z</time>
      </trkpt>
      <trkpt lat="58.71153395622969" lon="13.87431395240128">
        <ele>76.53</ele>
        <time>2025-02-13T10:44:01.200Z</time>
      </trkpt>
      <trkpt lat="58.711510989815" lon="13.874401962384582">
        <ele>76.51</ele>
        <time>2025-02-13T10:44:47.636Z</time>
      </trkpt>
      <trkpt lat="58.711485927924514" lon="13.874488966539502">
        <ele>76.5</ele>
        <time>2025-02-13T10:45:34.072Z</time>
      </trkpt>
      <trkpt lat="58.71146195568144" lon="13.874579994007945">
        <ele>76.48</ele>
        <time>2025-02-13T10:46:20.509Z</time>
      </trkpt>
      <trkpt lat="58.71143798343837" lon="13.874670937657356">
        <ele>76.47</ele>
        <time>2025-02-13T10:47:06.947Z</time>
      </trkpt>
      <trkpt lat="58.71141292154789" lon="13.87476297095418">
        <ele>76.47</ele>
        <time>2025-02-13T10:47:53.386Z</time>
      </trkpt>
      <trkpt lat="58.71138693764806" lon="13.87487092986703">
        <ele>76.46</ele>
        <time>2025-02-13T10:48:39.826Z</time>
      </trkpt>
      <trkpt lat="58.71136195957661" lon="13.874966986477375">
        <ele>76.44</ele>
        <time>2025-02-13T10:49:26.267Z</time>
      </trkpt>
      <trkpt lat="58.71133899316192" lon="13.875061953440309">
        <ele>76.43</ele>
        <time>2025-02-13T10:50:12.709Z</time>
      </trkpt>
      <trkpt lat="58.711314937099814" lon="13.875157926231623">
        <ele>76.42</ele>
        <time>2025-02-13T10:50:59.152Z</time>
      </trkpt>
      <trkpt lat="58.71128895319998" lon="13.875250965356827">
        <ele>76.41</ele>
        <time>2025-02-13T10:51:45.595Z</time>
      </trkpt>
      <trkpt lat="58.71126296930015" lon="13.875346938148141">
        <ele>76.39</ele>
        <time>2025-02-13T10:52:32.039Z</time>
      </trkpt>
      <trkpt lat="58.71123698540032" lon="13.875446934252977">
        <ele>76.38</ele>
        <time>2025-02-13T10:53:18.484Z</time>
      </trkpt>
      <trkpt lat="58.711211923509836" lon="13.8755389675498">
        <ele>76.36</ele>
        <time>2025-02-13T10:54:04.930Z</time>
      </trkpt>
      <trkpt lat="58.711186945438385" lon="13.875629995018244">
        <ele>76.35</ele>
        <time>2025-02-13T10:54:51.377Z</time>
      </trkpt>
      <trkpt lat="58.711162973195314" lon="13.875721944496036">
        <ele>76.34</ele>
        <time>2025-02-13T10:55:37.825Z</time>
      </trkpt>
      <trkpt lat="58.71113799512386" lon="13.87581498362124">
        <ele>76.32</ele>
        <time>2025-02-13T10:56:24.274Z</time>
      </trkpt>
      <trkpt lat="58.71111494489014" lon="13.875908944755793">
        <ele>76.31</ele>
        <time>2025-02-13T10:57:10.724Z</time>
      </trkpt>
      <trkpt lat="58.71108996681869" lon="13.876003995537758">
        <ele>76.29</ele>
        <time>2025-02-13T10:57:57.175Z</time>
      </trkpt>
      <trkpt lat="58.71106398291886" lon="13.876098962500691">
        <ele>76.28</ele>
        <time>2025-02-13T10:58:43.626Z</time>
      </trkpt>
      <trkpt lat="58.711038921028376" lon="13.876194935292006">
        <ele>76.26</ele>
        <time>2025-02-13T10:59:30.078Z</time>
      </trkpt>
      <trkpt lat="58.711013942956924" lon="13.876293925568461">
        <ele>76.25</ele>
        <time>2025-02-13T11:00:16.531Z</time>
      </trkpt>
      <trkpt lat="58.71098795905709" lon="13.876393921673298">
        <ele>76.24</ele>
        <time>2025-02-13T11:01:02.985Z</time>
      </trkpt>
      <trkpt lat="58.71096096932888" lon="13.876493917778134">
        <ele>76.23</ele>
        <time>2025-02-13T11:01:49.440Z</time>
      </trkpt>
      <trkpt lat="58.71093297377229" lon="13.876598943024874">
        <ele>76.22</ele>
        <time>2025-02-13T11:02:35.896Z</time>
      </trkpt>
      <trkpt lat="58.710903972387314" lon="13.876705979928374">
        <ele>76.22</ele>
        <time>2025-02-13T11:03:22.353Z</time>
      </trkpt>
      <trkpt lat="58.71087396517396" lon="13.876814944669604">
        <ele>76.21</ele>
        <time>2025-02-13T11:04:08.811Z</time>
      </trkpt>
      <trkpt lat="58.710841946303844" lon="13.876918964087963">
        <ele>76.21</ele>
        <time>2025-02-13T11:04:55.270Z</time>
      </trkpt>
      <trkpt lat="58.71080397628248" lon="13.877016948536038">
        <ele>76.2</ele>
        <time>2025-02-13T11:05:41.730Z</time>
      </trkpt>
      <trkpt lat="58.710756953805685" lon="13.877107976004481">
        <ele>76.2</ele>
        <time>2025-02-13T11:06:28.191Z</time>
      </trkpt>
      <trkpt lat="58.71070196852088" lon="13.877186933532357">
        <ele>76.19</ele>
        <time>2025-02-13T11:07:14.653Z</time>
      </trkpt>
      <trkpt lat="58.71064195409417" lon="13.87725499458611">
        <ele>76.19</ele>
        <time>2025-02-13T11:08:01.116Z</time>
      </trkpt>
      <trkpt lat="58.71057791635394" lon="13.877312997356057">
        <ele>76.18</ele>
        <time>2025-02-13T11:08:47.581Z</time>
      </trkpt>
      <trkpt lat="58.71050893329084" lon="13.877359936013818">
        <ele>76.18</ele>
        <time>2025-02-13T11:09:34.047Z</time>
      </trkpt>
      <trkpt lat="58.710436932742596" lon="13.877381980419159">
        <ele>76.17</ele>
        <time>2025-02-13T11:10:20.514Z</time>
      </trkpt>
      <trkpt lat="58.71036099269986" lon="13.877372927963734">
        <ele>76.16</ele>
        <time>2025-02-13T11:11:06.982Z</time>
      </trkpt>
      <trkpt lat="58.710283963009715" lon="13.877338981255889">
        <ele>76.16</ele>
        <time>2025-02-13T11:11:53.451Z</time>
      </trkpt>
      <trkpt lat="58.71020894497633" lon="13.877279972657561">
        <ele>76.16</ele>
        <time>2025-02-13T11:12:39.922Z</time>
      </trkpt>
      <trkpt lat="58.71014096774161" lon="13.87719296850264">
        <ele>76.16</ele>
        <time>2025-02-13T11:13:26.394Z</time>
      </trkpt>
      <trkpt lat="58.71008195914328" lon="13.877076962962747">
        <ele>76.16</ele>
        <time>2025-02-13T11:14:12.867Z</time>
      </trkpt>
      <trkpt lat="58.71003795415163" lon="13.876935979351401">
        <ele>76.17</ele>
        <time>2025-02-13T11:14:59.342Z</time>
      </trkpt>
      <trkpt lat="58.71001096442342" lon="13.876771945506334">
        <ele>76.18</ele>
        <time>2025-02-13T11:15:45.818Z</time>
      </trkpt>
      <trkpt lat="58.70999998413026" lon="13.876599948853254">
        <ele>76.19</ele>
        <time>2025-02-13T11:16:32.296Z</time>
      </trkpt>
      <trkpt lat="58.710005935281515" lon="13.876428958028555">
        <ele>76.2</ele>
        <time>2025-02-13T11:17:18.775Z</time>
      </trkpt>
      <trkpt lat="58.710025968030095" lon="13.876263918355107">
        <ele>76.21</ele>
        <time>2025-02-13T11:18:05.255Z</time>
      </trkpt>
      <trkpt lat="58.71005396358669" lon="13.876110948622227">
        <ele>76.23</ele>
        <time>2025-02-13T11:18:51.737Z</time>
      </trkpt>
      <trkpt lat="58.710093945264816" lon="13.875977927818894">
        <ele>76.26</ele>
        <time>2025-02-13T11:19:38.220Z</time>
      </trkpt>
      <trkpt lat="58.71015194803476" lon="13.875884972512722">
        <ele>76.27</ele>
        <time>2025-02-13T11:20:24.704Z</time>
      </trkpt>
      <trkpt lat="58.710220931097865" lon="13.875841973349452">
        <ele>76.28</ele>
        <time>2025-02-13T11:21:11.189Z</time>
      </trkpt>
      <trkpt lat="58.71029494330287" lon="13.875842979177833">
        <ele>76.3</ele>
        <time>2025-02-13T11:21:57.676Z</time>
      </trkpt>
      <trkpt lat="58.710370967164636" lon="13.875866951420903">
        <ele>76.31</ele>
        <time>2025-02-13T11:22:44.164Z</time>
      </trkpt>
      <trkpt lat="58.7104469910264" lon="13.875894946977496">
        <ele>76.32</ele>
        <time>2025-02-13T11:23:30.653Z</time>
      </trkpt>
      <trkpt lat="58.710522931069136" lon="13.87592394836247">
        <ele>76.34</ele>
        <time>2025-02-13T11:24:17.143Z</time>
      </trkpt>
      <trkpt lat="58.71060197241604" lon="13.875952949747443">
        <ele>76.35</ele>
        <time>2025-02-13T11:25:03.635Z</time>
      </trkpt>
      <trkpt lat="58.71067992411554" lon="13.875980945304036">
        <ele>76.37</ele>
        <time>2025-02-13T11:25:50.128Z</time>
      </trkpt>
      <trkpt lat="58.710757959634066" lon="13.876013970002532">
        <ele>76.39</ele>
        <time>2025-02-13T11:26:36.622Z</time>
      </trkpt>
      <trkpt lat="58.7108389288187" lon="13.876046994701028">
        <ele>76.4</ele>
        <time>2025-02-13T11:27:23.118Z</time>
      </trkpt>
      <trkpt lat="58.71091998182237" lon="13.87607691809535">
        <ele>76.42</ele>
        <time>2025-02-13T11:28:09.615Z</time>
      </trkpt>
      <trkpt lat="58.71099994517863" lon="13.876106925308704">
        <ele>76.45</ele>
        <time>2025-02-13T11:28:56.113Z</time>
      </trkpt>
      <trkpt lat="58.711079992353916" lon="13.8761399500072">
        <ele>76.47</ele>
        <time>2025-02-13T11:29:42.613Z</time>
      </trkpt>
      <trkpt lat="58.71115995571017" lon="13.876173980534077">
        <ele>76.5</ele>
        <time>2025-02-13T11:30:29.114Z</time>
      </trkpt>
      <trkpt lat="58.71124092489481" lon="13.876205999404192">
        <ele>76.53</ele>
        <time>2025-02-13T11:31:15.616Z</time>
      </trkpt>
      <trkpt lat="58.71132398955524" lon="13.876237934455276">
        <ele>76.56</ele>
        <time>2025-02-13T11:32:02.120Z</time>
      </trkpt>
      <trkpt lat="58.71140596456826" lon="13.87626995332539">
        <ele>76.59</ele>
        <time>2025-02-13T11:32:48.625Z</time>
      </trkpt>
      <trkpt lat="58.711489951238036" lon="13.876300966367126">
        <ele>76.62</ele>
        <time>2025-02-13T11:33:35.131Z</time>
      </trkpt>
      <trkpt lat="58.711572932079434" lon="13.87633298523724">
        <ele>76.65</ele>
        <time>2025-02-13T11:34:21.639Z</time>
      </trkpt>
      <trkpt lat="58.71165197342634" lon="13.876366931945086">
        <ele>76.69</ele>
        <time>2025-02-13T11:35:08.148Z</time>
      </trkpt>
      <trkpt lat="58.71173596009612" lon="13.8763989508152">
        <ele>76.72</ele>
        <time>2025-02-13T11:35:54.658Z</time>
      </trkpt>
      <trkpt lat="58.71181793510914" lon="13.876429963856936">
        <ele>76.76</ele>
        <time>2025-02-13T11:36:41.170Z</time>
      </trkpt>
      <trkpt lat="58.71190099976957" lon="13.87646198272705">
        <ele>76.79</ele>
        <time>2025-02-13T11:37:27.683Z</time>
      </trkpt>
      <trkpt lat="58.71198398061097" lon="13.876493917778134">
        <ele>76.83</ele>
        <time>2025-02-13T11:38:14.197Z</time>
      </trkpt>
      <trkpt lat="58.712067967280746" lon="13.87652593664825">
        <ele>76.86</ele>
        <time>2025-02-13T11:39:00.713Z</time>
      </trkpt>
      <trkpt lat="58.712151953950524" lon="13.876556949689984">
        <ele>76.89</ele>
        <time>2025-02-13T11:39:47.230Z</time>
      </trkpt>
      <trkpt lat="58.71223493479192" lon="13.876587962731719">
        <ele>76.92</ele>
        <time>2025-02-13T11:40:33.748Z</time>
      </trkpt>
      <trkpt lat="58.71231799945235" lon="13.876618975773454">
        <ele>76.95</ele>
        <time>2025-02-13T11:41:20.268Z</time>
      </trkpt>
      <trkpt lat="58.71240198612213" lon="13.876652922481298">
        <ele>76.98</ele>
        <time>2025-02-13T11:42:06.789Z</time>
      </trkpt>
      <trkpt lat="58.71248496696353" lon="13.876685947179794">
        <ele>77.01</ele>
        <time>2025-02-13T11:42:53.311Z</time>
      </trkpt>
      <trkpt lat="58.71256895363331" lon="13.876716960221529">
        <ele>77.05</ele>
        <time>2025-02-13T11:43:39.835Z</time>
      </trkpt>
      <trkpt lat="58.71265193447471" lon="13.876750990748405">
        <ele>77.08</ele>
        <time>2025-02-13T11:44:26.360Z</time>
      </trkpt>
      <trkpt lat="58.71273499913514" lon="13.87678493745625">
        <ele>77.13</ele>
        <time>2025-02-13T11:45:12.887Z</time>
      </trkpt>
      <trkpt lat="58.712817979976535" lon="13.876819973811507">
        <ele>77.17</ele>
        <time>2025-02-13T11:45:59.415Z</time>
      </trkpt>
      <trkpt lat="58.71290096081793" lon="13.876857943832874">
        <ele>77.22</ele>
        <time>2025-02-13T11:46:45.944Z</time>
      </trkpt>
      <trkpt lat="58.71298293583095" lon="13.876894991844893">
        <ele>77.27</ele>
        <time>2025-02-13T11:47:32.475Z</time>
      </trkpt>
      <trkpt lat="58.71306591667235" lon="13.87693296186626">
        <ele>77.33</ele>
        <time>2025-02-13T11:48:19.007Z</time>
      </trkpt>
      <trkpt lat="58.71314898133278" lon="13.876972943544388">
        <ele>77.38</ele>
        <time>2025-02-13T11:49:05.540Z</time>
      </trkpt>
      <trkpt lat="58.71323296800256" lon="13.877012925222516">
        <ele>77.44</ele>
        <time>2025-02-13T11:49:52.075Z</time>
      </trkpt>
      <trkpt lat="58.713315948843956" lon="13.877052990719676">
        <ele>77.49</ele>
        <time>2025-02-13T11:50:38.611Z</time>
      </trkpt>
      <trkpt lat="58.713397923856974" lon="13.877094984054565">
        <ele>77.54</ele>
        <time>2025-02-13T11:51:25.149Z</time>
      </trkpt>
      <trkpt lat="58.713480988517404" lon="13.877137983217835">
        <ele>77.6</ele>
        <time>2025-02-13T11:52:11.688Z</time>
      </trkpt>
      <trkpt lat="58.7135639693588" lon="13.877183999866247">
        <ele>77.65</ele>
        <time>2025-02-13T11:52:58.228Z</time>
      </trkpt>
      <trkpt lat="58.71364493854344" lon="13.877231944352388">
        <ele>77.7</ele>
        <time>2025-02-13T11:53:44.770Z</time>
      </trkpt>
      <trkpt lat="58.71372498571873" lon="13.877282990142703">
        <ele>77.76</ele>
        <time>2025-02-13T11:54:31.313Z</time>
      </trkpt>
      <trkpt lat="58.7138039432466" lon="13.877333952113986">
        <ele>77.82</ele>
        <time>2025-02-13T11:55:17.857Z</time>
      </trkpt>
      <trkpt lat="58.71388399042189" lon="13.87738591991365">
        <ele>77.88</ele>
        <time>2025-02-13T11:56:04.403Z</time>
      </trkpt>
      <trkpt lat="58.71396194212139" lon="13.877437971532345">
        <ele>77.94</ele>
        <time>2025-02-13T11:56:50.950Z</time>
      </trkpt>
      <trkpt lat="58.714039977639914" lon="13.87749295681715">
        <ele>78.01</ele>
        <time>2025-02-13T11:57:37.498Z</time>
      </trkpt>
      <trkpt lat="58.71411792933941" lon="13.877547942101955">
        <ele>78.08</ele>
        <time>2025-02-13T11:58:24.048Z</time>
      </trkpt>
      <trkpt lat="58.714195964857936" lon="13.877603933215141">
        <ele>78.15</ele>
        <time>2025-02-13T11:59:10.599Z</time>
      </trkpt>
      <trkpt lat="58.71427299454808" lon="13.877661935985088">
        <ele>78.22</ele>
        <time>2025-02-13T11:59:57.151Z</time>
      </trkpt>
      <trkpt lat="58.71435195207596" lon="13.877720944583416">
        <ele>78.3</ele>
        <time>2025-02-13T12:00:43.705Z</time>
      </trkpt>
      <trkpt lat="58.714428981766105" lon="13.877780959010124">
        <ele>78.39</ele>
        <time>2025-02-13T12:01:30.260Z</time>
      </trkpt>
      <trkpt lat="58.71450399979949" lon="13.877843990921974">
        <ele>78.47</ele>
        <time>2025-02-13T12:02:16.816Z</time>
      </trkpt>
      <trkpt lat="58.714579939842224" lon="13.877906939014792">
        <ele>78.55</ele>
        <time>2025-02-13T12:03:03.374Z</time>
      </trkpt>
      <trkpt lat="58.71465495787561" lon="13.877969970926642">
        <ele>78.64</ele>
        <time>2025-02-13T12:03:49.933Z</time>
      </trkpt>
      <trkpt lat="58.714730981737375" lon="13.878034930676222">
        <ele>78.72</ele>
        <time>2025-02-13T12:04:36.493Z</time>
      </trkpt>
      <trkpt lat="58.71480599977076" lon="13.878100980073214">
        <ele>78.81</ele>
        <time>2025-02-13T12:05:23.055Z</time>
      </trkpt>
      <trkpt lat="58.71487992815673" lon="13.878168957307935">
        <ele>78.89</ele>
        <time>2025-02-13T12:06:09.618Z</time>
      </trkpt>
      <trkpt lat="58.71495394036174" lon="13.878234922885895">
        <ele>78.97</ele>
        <time>2025-02-13T12:06:56.182Z</time>
      </trkpt>
      <trkpt lat="58.71502895839512" lon="13.878299966454506">
        <ele>79.05</ele>
        <time>2025-02-13T12:07:42.748Z</time>
      </trkpt>
      <trkpt lat="58.71510397642851" lon="13.878365932032466">
        <ele>79.14</ele>
        <time>2025-02-13T12:08:29.315Z</time>
      </trkpt>
      <trkpt lat="58.71517798863351" lon="13.878429969772696">
        <ele>79.22</ele>
        <time>2025-02-13T12:09:15.883Z</time>
      </trkpt>
      <trkpt lat="58.715251917019486" lon="13.878492917865515">
        <ele>79.31</ele>
        <time>2025-02-13T12:10:02.453Z</time>
      </trkpt>
      <trkpt lat="58.71532492339611" lon="13.878557961434126">
        <ele>79.41</ele>
        <time>2025-02-13T12:10:49.024Z</time>
      </trkpt>
      <trkpt lat="58.715398935601115" lon="13.878622921183705">
        <ele>79.5</ele>
        <time>2025-02-13T12:11:35.596Z</time>
      </trkpt>
      <trkpt lat="58.71547093614936" lon="13.878686958923936">
        <ele>79.58</ele>
        <time>2025-02-13T12:12:22.169Z</time>
      </trkpt>
      <trkpt lat="58.71554193086922" lon="13.878750996664166">
        <ele>79.68</ele>
        <time>2025-02-13T12:13:08.744Z</time>
      </trkpt>
      <trkpt lat="58.715613931417465" lon="13.878812938928604">
        <ele>79.77</ele>
        <time>2025-02-13T12:13:55.320Z</time>
      </trkpt>
      <trkpt lat="58.71568392030895" lon="13.878875970840454">
        <ele>79.87</ele>
        <time>2025-02-13T12:14:41.897Z</time>
      </trkpt>
      <trkpt lat="58.71575592085719" lon="13.878935985267162">
        <ele>79.96</ele>
        <time>2025-02-13T12:15:28.475Z</time>
      </trkpt>
      <trkpt lat="58.715825993567705" lon="13.87899692170322">
        <ele>80.05</ele>
        <time>2025-02-13T12:16:15.055Z</time>
      </trkpt>
      <trkpt lat="58.71589899994433" lon="13.879058947786689">
        <ele>80.14</ele>
        <time>2025-02-13T12:17:01.636Z</time>
      </trkpt>
      <trkpt lat="58.71596999466419" lon="13.87912591919303">
        <ele>80.23</ele>
        <time>2025-02-13T12:17:48.218Z</time>
      </trkpt>
      <trkpt lat="58.716039983555675" lon="13.87919096276164">
        <ele>80.32</ele>
        <time>2025-02-13T12:18:34.801Z</time>
      </trkpt>
      <trkpt lat="58.71611097827554" lon="13.87925399467349">
        <ele>80.41</ele>
        <time>2025-02-13T12:19:21.386Z</time>
      </trkpt>
      <trkpt lat="58.7161819729954" lon="13.879315936937928">
        <ele>80.5</ele>
        <time>2025-02-13T12:20:07.972Z</time>
      </trkpt>
      <trkpt lat="58.71625296771526" lon="13.879376957193017">
        <ele>80.59</ele>
        <time>2025-02-13T12:20:54.559Z</time>
      </trkpt>
      <trkpt lat="58.716323962435126" lon="13.879437977448106">
        <ele>80.67</ele>
        <time>2025-02-13T12:21:41.147Z</time>
      </trkpt>
      <trkpt lat="58.71639395132661" lon="13.879499919712543">
        <ele>80.76</ele>
        <time>2025-02-13T12:22:27.737Z</time>
      </trkpt>
      <trkpt lat="58.71646394021809" lon="13.879562951624393">
        <ele>80.85</ele>
        <time>2025-02-13T12:23:14.328Z</time>
      </trkpt>
      <trkpt lat="58.71653292328119" lon="13.879624977707863">
        <ele>80.94</ele>
        <time>2025-02-13T12:24:00.920Z</time>
      </trkpt>
      <trkpt lat="58.716603918001056" lon="13.879688931629062">
        <ele>81.03</ele>
        <time>2025-02-13T12:24:47.513Z</time>
      </trkpt>
      <trkpt lat="58.71667399071157" lon="13.879750957712531">
        <ele>81.12</ele>
        <time>2025-02-13T12:25:34.108Z</time>
      </trkpt>
      <trkpt lat="58.71674498543143" lon="13.879812983796">
        <ele>81.21</ele>
        <time>2025-02-13T12:26:20.704Z</time>
      </trkpt>
      <trkpt lat="58.716814974322915" lon="13.879873920232058">
        <ele>81.3</ele>
        <time>2025-02-13T12:27:07.301Z</time>
      </trkpt>
      <trkpt lat="58.7168849632144" lon="13.879932928830385">
        <ele>81.39</ele>
        <time>2025-02-13T12:27:53.899Z</time>
      </trkpt>
      <trkpt lat="58.71695495210588" lon="13.879992943257093">
        <ele>81.48</ele>
        <time>2025-02-13T12:28:40.499Z</time>
      </trkpt>
      <trkpt lat="58.7170229293406" lon="13.880053963512182">
        <ele>81.56</ele>
        <time>2025-02-13T12:29:27.100Z</time>
      </trkpt>
      <trkpt lat="58.71709291823208" lon="13.880117917433381">
        <ele>81.65</ele>
        <time>2025-02-13T12:30:13.702Z</time>
      </trkpt>
      <trkpt lat="58.717158967629075" lon="13.880181955173612">
        <ele>81.74</ele>
        <time>2025-02-13T12:31:00.305Z</time>
      </trkpt>
      <trkpt lat="58.717226944863796" lon="13.8802429754287">
        <ele>81.82</ele>
        <time>2025-02-13T12:31:46.909Z</time>
      </trkpt>
      <trkpt lat="58.71729492209852" lon="13.880305923521519">
        <ele>81.91</ele>
        <time>2025-02-13T12:32:33.515Z</time>
      </trkpt>
      <trkpt lat="58.71736499480903" lon="13.880368955433369">
        <ele>81.99</ele>
        <time>2025-02-13T12:33:20.122Z</time>
      </trkpt>
      <trkpt lat="58.71743397787213" lon="13.8804329931736">
        <ele>82.08</ele>
        <time>2025-02-13T12:34:06.730Z</time>
      </trkpt>
      <trkpt lat="58.717501955106854" lon="13.880496947094798">
        <ele>82.16</ele>
        <time>2025-02-13T12:34:53.339Z</time>
      </trkpt>
      <trkpt lat="58.717570938169956" lon="13.880558973178267">
        <ele>82.24</ele>
        <time>2025-02-13T12:35:39.950Z</time>
      </trkpt>
      <trkpt lat="58.71763992123306" lon="13.880620999261737">
        <ele>82.32</ele>
        <time>2025-02-13T12:36:26.562Z</time>
      </trkpt>
      <trkpt lat="58.71770898811519" lon="13.880682941526175">
        <ele>82.41</ele>
        <time>2025-02-13T12:37:13.175Z</time>
      </trkpt>
      <trkpt lat="58.717779982835054" lon="13.880743961781263">
        <ele>82.49</ele>
        <time>2025-02-13T12:37:59.789Z</time>
      </trkpt>
      <trkpt lat="58.71784997172654" lon="13.880804982036352">
        <ele>82.57</ele>
        <time>2025-02-13T12:38:46.404Z</time>
      </trkpt>
      <trkpt lat="58.71791996061802" lon="13.88086692430079">
        <ele>82.65</ele>
        <time>2025-02-13T12:39:33.021Z</time>
      </trkpt>
      <trkpt lat="58.71799095533788" lon="13.88092995621264">
        <ele>82.73</ele>
        <time>2025-02-13T12:40:19.639Z</time>
      </trkpt>
      <trkpt lat="58.718059938400984" lon="13.88099298812449">
        <ele>82.8</ele>
        <time>2025-02-13T12:41:06.258Z</time>
      </trkpt>
      <trkpt lat="58.71813193894923" lon="13.881055936217308">
        <ele>82.87</ele>
        <time>2025-02-13T12:41:52.878Z</time>
      </trkpt>
      <trkpt lat="58.71820293366909" lon="13.881117962300777">
        <ele>82.93</ele>
        <time>2025-02-13T12:42:39.500Z</time>
      </trkpt>
      <trkpt lat="58.71827392838895" lon="13.881181916221976">
        <ele>83.0</ele>
        <time>2025-02-13T12:43:26.123Z</time>
      </trkpt>
      <trkpt lat="58.718344923108816" lon="13.881245953962207">
        <ele>83.06</ele>
        <time>2025-02-13T12:44:12.747Z</time>
      </trkpt>
      <trkpt lat="58.71841792948544" lon="13.881310997530818">
        <ele>83.12</ele>
        <time>2025-02-13T12:44:59.372Z</time>
      </trkpt>
      <trkpt lat="58.718489930033684" lon="13.881374951452017">
        <ele>83.19</ele>
        <time>2025-02-13T12:45:45.999Z</time>
      </trkpt>
      <trkpt lat="58.71856193058193" lon="13.881437983363867">
        <ele>83.25</ele>
        <time>2025-02-13T12:46:32.627Z</time>
      </trkpt>
      <trkpt lat="58.71863393113017" lon="13.881502943113446">
        <ele>83.31</ele>
        <time>2025-02-13T12:47:19.256Z</time>
      </trkpt>
      <trkpt lat="58.718705931678414" lon="13.881565975025296">
        <ele>83.37</ele>
        <time>2025-02-13T12:48:05.887Z</time>
      </trkpt>
      <trkpt lat="58.71877893805504" lon="13.881628923118114">
        <ele>83.43</ele>
        <time>2025-02-13T12:48:52.519Z</time>
      </trkpt>
      <trkpt lat="58.71885093860328" lon="13.881691955029964">
        <ele>83.49</ele>
        <time>2025-02-13T12:49:39.152Z</time>
      </trkpt>
      <trkpt lat="58.718923944979906" lon="13.881755992770195">
        <ele>83.55</ele>
        <time>2025-02-13T12:50:25.786Z</time>
      </trkpt>
      <trkpt lat="58.71899594552815" lon="13.881818940863013">
        <ele>83.61</ele>
        <time>2025-02-13T12:51:12.422Z</time>
      </trkpt>
      <trkpt lat="58.719068951904774" lon="13.881881972774863">
        <ele>83.67</ele>
        <time>2025-02-13T12:51:59.059Z</time>
      </trkpt>
      <trkpt lat="58.71914095245302" lon="13.881944920867682">
        <ele>83.73</ele>
        <time>2025-02-13T12:52:45.697Z</time>
      </trkpt>
      <trkpt lat="58.71921295300126" lon="13.882009964436293">
        <ele>83.78</ele>
        <time>2025-02-13T12:53:32.337Z</time>
      </trkpt>
      <trkpt lat="58.719284953549504" lon="13.882074924185872">
        <ele>83.84</ele>
        <time>2025-02-13T12:54:18.978Z</time>
      </trkpt>
      <trkpt lat="58.71935795992613" lon="13.882138961926103">
        <ele>83.9</ele>
        <time>2025-02-13T12:55:05.620Z</time>
      </trkpt>
      <trkpt lat="58.71943197213113" lon="13.882202999666333">
        <ele>83.95</ele>
        <time>2025-02-13T12:55:52.263Z</time>
      </trkpt>
      <trkpt lat="58.719501961022615" lon="13.882268965244293">
        <ele>84.01</ele>
        <time>2025-02-13T12:56:38.908Z</time>
      </trkpt>
      <trkpt lat="58.71957396157086" lon="13.882333924993873">
        <ele>84.06</ele>
        <time>2025-02-13T12:57:25.554Z</time>
      </trkpt>
      <trkpt lat="58.7196459621191" lon="13.882400980219245">
        <ele>84.12</ele>
        <time>2025-02-13T12:58:12.201Z</time>
      </trkpt>
      <trkpt lat="58.71971896849573" lon="13.882465939968824">
        <ele>84.17</ele>
        <time>2025-02-13T12:58:58.849Z</time>
      </trkpt>
      <trkpt lat="58.71979298070073" lon="13.882530983537436">
        <ele>84.22</ele>
        <time>2025-02-13T12:59:45.499Z</time>
      </trkpt>
      <trkpt lat="58.719865987077355" lon="13.882594937458634">
        <ele>84.27</ele>
        <time>2025-02-13T13:00:32.150Z</time>
      </trkpt>
      <trkpt lat="58.71993899345398" lon="13.882659981027246">
        <ele>84.32</ele>
        <time>2025-02-13T13:01:18.802Z</time>
      </trkpt>
      <trkpt lat="58.720011999830604" lon="13.882723934948444">
        <ele>84.36</ele>
        <time>2025-02-13T13:02:05.456Z</time>
      </trkpt>
      <trkpt lat="58.72008592821658" lon="13.882787972688675">
        <ele>84.41</ele>
        <time>2025-02-13T13:02:52.111Z</time>
      </trkpt>
      <trkpt lat="58.72016094624996" lon="13.882851926609874">
        <ele>84.45</ele>
        <time>2025-02-13T13:03:38.767Z</time>
      </trkpt>
      <trkpt lat="58.720233952626586" lon="13.882913952693343">
        <ele>84.5</ele>
        <time>2025-02-13T13:04:25.425Z</time>
      </trkpt>
      <trkpt lat="58.72030796483159" lon="13.882975978776813">
        <ele>84.55</ele>
        <time>2025-02-13T13:05:12.084Z</time>
      </trkpt>
      <trkpt lat="58.720381977036595" lon="13.88303792104125">
        <ele>84.59</ele>
        <time>2025-02-13T13:05:58.744Z</time>
      </trkpt>
      <trkpt lat="58.72045699506998" lon="13.8831009529531">
        <ele>84.64</ele>
        <time>2025-02-13T13:06:45.405Z</time>
      </trkpt>
      <trkpt lat="58.720532935112715" lon="13.88316297903657">
        <ele>84.68</ele>
        <time>2025-02-13T13:07:32.068Z</time>
      </trkpt>
      <trkpt lat="58.72060895897448" lon="13.883224921301007">
        <ele>84.73</ele>
        <time>2025-02-13T13:08:18.732Z</time>
      </trkpt>
      <trkpt lat="58.72068598866463" lon="13.883284935727715">
        <ele>84.77</ele>
        <time>2025-02-13T13:09:05.397Z</time>
      </trkpt>
      <trkpt lat="58.72076293453574" lon="13.883344950154424">
        <ele>84.81</ele>
        <time>2025-02-13T13:09:52.064Z</time>
      </trkpt>
      <trkpt lat="58.72083996422589" lon="13.88340194709599">
        <ele>84.85</ele>
        <time>2025-02-13T13:10:38.732Z</time>
      </trkpt>
      <trkpt lat="58.720918921753764" lon="13.883456932380795">
        <ele>84.89</ele>
        <time>2025-02-13T13:11:25.401Z</time>
      </trkpt>
      <trkpt lat="58.72099595144391" lon="13.883510995656252">
        <ele>84.93</ele>
        <time>2025-02-13T13:12:12.072Z</time>
      </trkpt>
      <trkpt lat="58.72107298113406" lon="13.883565980941057">
        <ele>84.97</ele>
        <time>2025-02-13T13:12:58.744Z</time>
      </trkpt>
      <trkpt lat="58.72115093283355" lon="13.883619960397482">
        <ele>85.0</ele>
        <time>2025-02-13T13:13:45.417Z</time>
      </trkpt>
      <trkpt lat="58.72122997418046" lon="13.883671928197145">
        <ele>85.04</ele>
        <time>2025-02-13T13:14:32.092Z</time>
      </trkpt>
      <trkpt lat="58.721307925879955" lon="13.88372297398746">
        <ele>85.07</ele>
        <time>2025-02-13T13:15:18.768Z</time>
      </trkpt>
      <trkpt lat="58.72138596139848" lon="13.883772930130363">
        <ele>85.1</ele>
        <time>2025-02-13T13:16:05.445Z</time>
      </trkpt>
      <trkpt lat="58.72146399691701" lon="13.883823975920677">
        <ele>85.13</ele>
        <time>2025-02-13T13:16:52.124Z</time>
      </trkpt>
      <trkpt lat="58.721542954444885" lon="13.88387393206358">
        <ele>85.15</ele>
        <time>2025-02-13T13:17:38.804Z</time>
      </trkpt>
      <trkpt lat="58.72162392362952" lon="13.883921960368752">
        <ele>85.18</ele>
        <time>2025-02-13T13:18:25.485Z</time>
      </trkpt>
      <trkpt lat="58.72170397080481" lon="13.883968982845545">
        <ele>85.2</ele>
        <time>2025-02-13T13:19:12.168Z</time>
      </trkpt>
      <trkpt lat="58.72178493998945" lon="13.884017933160067">
        <ele>85.22</ele>
        <time>2025-02-13T13:19:58.852Z</time>
      </trkpt>
      <trkpt lat="58.7218669988215" lon="13.88406596146524">
        <ele>85.24</ele>
        <time>2025-02-13T13:20:45.537Z</time>
      </trkpt>
      <trkpt lat="58.721947968006134" lon="13.884113989770412">
        <ele>85.26</ele>
        <time>2025-02-13T13:21:32.224Z</time>
      </trkpt>
      <trkpt lat="58.72202893719077" lon="13.884163945913315">
        <ele>85.28</ele>
        <time>2025-02-13T13:22:18.912Z</time>
      </trkpt>
      <trkpt lat="58.72211099602282" lon="13.884212980046868">
        <ele>85.3</ele>
        <time>2025-02-13T13:23:05.602Z</time>
      </trkpt>
      <trkpt lat="58.722188947722316" lon="13.88426293618977">
        <ele>85.32</ele>
        <time>2025-02-13T13:23:52.293Z</time>
      </trkpt>
      <trkpt lat="58.722268994897604" lon="13.884311970323324">
        <ele>85.33</ele>
        <time>2025-02-13T13:24:38.985Z</time>
      </trkpt>
      <trkpt lat="58.72235096991062" lon="13.884360920637846">
        <ele>85.35</ele>
        <time>2025-02-13T13:25:25.679Z</time>
      </trkpt>
      <trkpt lat="58.72243193909526" lon="13.884408948943019">
        <ele>85.36</ele>
        <time>2025-02-13T13:26:12.374Z</time>
      </trkpt>
      <trkpt lat="58.72251198627055" lon="13.884457983076572">
        <ele>85.37</ele>
        <time>2025-02-13T13:26:59.070Z</time>
      </trkpt>
      <trkpt lat="58.722594967111945" lon="13.884504921734333">
        <ele>85.38</ele>
        <time>2025-02-13T13:27:45.768Z</time>
      </trkpt>
      <trkpt lat="58.72267593629658" lon="13.884552950039506">
        <ele>85.39</ele>
        <time>2025-02-13T13:28:32.467Z</time>
      </trkpt>
      <trkpt lat="58.72275598347187" lon="13.884600978344679">
        <ele>85.4</ele>
        <time>2025-02-13T13:29:19.167Z</time>
      </trkpt>
      <trkpt lat="58.72283695265651" lon="13.8846499286592">
        <ele>85.41</ele>
        <time>2025-02-13T13:30:05.869Z</time>
      </trkpt>
      <trkpt lat="58.722917921841145" lon="13.884697956964374">
        <ele>85.42</ele>
        <time>2025-02-13T13:30:52.572Z</time>
      </trkpt>
      <trkpt lat="58.72299796901643" lon="13.884746991097927">
        <ele>85.44</ele>
        <time>2025-02-13T13:31:39.276Z</time>
      </trkpt>
      <trkpt lat="58.72307893820107" lon="13.884795941412449">
        <ele>85.45</ele>
        <time>2025-02-13T13:32:25.982Z</time>
      </trkpt>
      <trkpt lat="58.72315999120474" lon="13.884843969717622">
        <ele>85.45</ele>
        <time>2025-02-13T13:33:12.689Z</time>
      </trkpt>
      <trkpt lat="58.723241966217756" lon="13.884892920032144">
        <ele>85.46</ele>
        <time>2025-02-13T13:33:59.398Z</time>
      </trkpt>
      <trkpt lat="58.72332293540239" lon="13.884941954165697">
        <ele>85.46</ele>
        <time>2025-02-13T13:34:46.108Z</time>
      </trkpt>
      <trkpt lat="58.72340591624379" lon="13.88499098829925">
        <ele>85.46</ele>
        <time>2025-02-13T13:35:32.819Z</time>
      </trkpt>
      <trkpt lat="58.72348797507584" lon="13.885040944442153">
        <ele>85.46</ele>
        <time>2025-02-13T13:36:19.532Z</time>
      </trkpt>
      <trkpt lat="58.72356894426048" lon="13.885091990232468">
        <ele>85.46</ele>
        <time>2025-02-13T13:37:06.246Z</time>
      </trkpt>
      <trkpt lat="58.723648991435766" lon="13.885143958032131">
        <ele>85.46</ele>
        <time>2025-02-13T13:37:52.961Z</time>
      </trkpt>
      <trkpt lat="58.7237299606204" lon="13.885195925831795">
        <ele>85.46</ele>
        <time>2025-02-13T13:38:39.678Z</time>
      </trkpt>
      <trkpt lat="58.72381092980504" lon="13.88524898327887">
        <ele>85.45</ele>
        <time>2025-02-13T13:39:26.396Z</time>
      </trkpt>
      <trkpt lat="58.72388997115195" lon="13.885305980220437">
        <ele>85.44</ele>
        <time>2025-02-13T13:40:13.116Z</time>
      </trkpt>
      <trkpt lat="58.723969934508204" lon="13.885363982990384">
        <ele>85.44</ele>
        <time>2025-02-13T13:40:59.837Z</time>
      </trkpt>
      <trkpt lat="58.72404797002673" lon="13.885424919426441">
        <ele>85.43</ele>
        <time>2025-02-13T13:41:46.559Z</time>
      </trkpt>
      <trkpt lat="58.72412692755461" lon="13.88548593968153">
        <ele>85.43</ele>
        <time>2025-02-13T13:42:33.283Z</time>
      </trkpt>
      <trkpt lat="58.724204963073134" lon="13.88554997742176">
        <ele>85.42</ele>
        <time>2025-02-13T13:43:20.008Z</time>
      </trkpt>
      <trkpt lat="58.72428299859166" lon="13.88561594299972">
        <ele>85.41</ele>
        <time>2025-02-13T13:44:06.734Z</time>
      </trkpt>
      <trkpt lat="58.724359944462776" lon="13.885683920234442">
        <ele>85.39</ele>
        <time>2025-02-13T13:44:53.462Z</time>
      </trkpt>
      <trkpt lat="58.724438985809684" lon="13.885753992944956">
        <ele>85.38</ele>
        <time>2025-02-13T13:45:40.191Z</time>
      </trkpt>
      <trkpt lat="58.7245159316808" lon="13.88582699932158">
        <ele>85.36</ele>
        <time>2025-02-13T13:46:26.921Z</time>
      </trkpt>
      <trkpt lat="58.724591955542564" lon="13.885903945192695">
        <ele>85.33</ele>
        <time>2025-02-13T13:47:13.653Z</time>
      </trkpt>
      <trkpt lat="58.72466697357595" lon="13.885981980711222">
        <ele>85.31</ele>
        <time>2025-02-13T13:48:00.386Z</time>
      </trkpt>
      <trkpt lat="58.724741991609335" lon="13.886061944067478">
        <ele>85.28</ele>
        <time>2025-02-13T13:48:47.121Z</time>
      </trkpt>
      <trkpt lat="58.72481793165207" lon="13.886141991242766">
        <ele>85.26</ele>
        <time>2025-02-13T13:49:33.857Z</time>
      </trkpt>
      <trkpt lat="58.72489093802869" lon="13.886225977912545">
        <ele>85.22</ele>
        <time>2025-02-13T13:50:20.594Z</time>
      </trkpt>
      <trkpt lat="58.72496293857694" lon="13.886311976239085">
        <ele>85.19</ele>
        <time>2025-02-13T13:51:07.333Z</time>
      </trkpt>
      <trkpt lat="58.72503493912518" lon="13.886398980394006">
        <ele>85.14</ele>
        <time>2025-02-13T13:51:54.073Z</time>
      </trkpt>
      <trkpt lat="58.725106939673424" lon="13.886487996205688">
        <ele>85.11</ele>
        <time>2025-02-13T13:52:40.814Z</time>
      </trkpt>
      <trkpt lat="58.72517894022167" lon="13.88657994568348">
        <ele>85.07</ele>
        <time>2025-02-13T13:53:27.557Z</time>
      </trkpt>
      <trkpt lat="58.72524892911315" lon="13.886674996465445">
        <ele>85.03</ele>
        <time>2025-02-13T13:54:14.301Z</time>
      </trkpt>
      <trkpt lat="58.72531799599528" lon="13.88677197508514">
        <ele>84.98</ele>
        <time>2025-02-13T13:55:01.047Z</time>
      </trkpt>
      <trkpt lat="58.725387984886765" lon="13.886871971189976">
        <ele>84.94</ele>
        <time>2025-02-13T13:55:47.794Z</time>
      </trkpt>
      <trkpt lat="58.72546099126339" lon="13.886973978951573">
        <ele>84.89</ele>
        <time>2025-02-13T13:56:34.542Z</time>
      </trkpt>
      <trkpt lat="58.72553098015487" lon="13.887080932036042">
        <ele>84.83</ele>
        <time>2025-02-13T13:57:21.292Z</time>
      </trkpt>
      <trkpt lat="58.725602980703115" lon="13.887190986424685">
        <ele>84.78</ele>
        <time>2025-02-13T13:58:08.043Z</time>
      </trkpt>
      <trkpt lat="58.7256729695946" lon="13.887303974479437">
        <ele>84.72</ele>
        <time>2025-02-13T13:58:54.796Z</time>
      </trkpt>
      <trkpt lat="58.72574295848608" lon="13.887419980019331">
        <ele>84.66</ele>
        <time>2025-02-13T13:59:41.550Z</time>
      </trkpt>
      <trkpt lat="58.72581294737756" lon="13.887538919225335">
        <ele>84.59</ele>
        <time>2025-02-13T14:00:28.306Z</time>
      </trkpt>
      <trkpt lat="58.725881930440664" lon="13.887659953907132">
        <ele>84.52</ele>
        <time>2025-02-13T14:01:15.063Z</time>
      </trkpt>
      <trkpt lat="58.7259509973228" lon="13.88778492808342">
        <ele>84.45</ele>
        <time>2025-02-13T14:02:01.822Z</time>
      </trkpt>
      <trkpt lat="58.72601796872914" lon="13.88791493140161">
        <ele>84.38</ele>
        <time>2025-02-13T14:02:48.582Z</time>
      </trkpt>
      <trkpt lat="58.7260839343071" lon="13.888049963861704">
        <ele>84.29</ele>
        <time>2025-02-13T14:03:35.344Z</time>
      </trkpt>
      <trkpt lat="58.72614897787571" lon="13.888187929987907">
        <ele>84.21</ele>
        <time>2025-02-13T14:04:22.107Z</time>
      </trkpt>
      <trkpt lat="58.72621192596853" lon="13.888326985761523">
        <ele>84.12</ele>
        <time>2025-02-13T14:05:08.872Z</time>
      </trkpt>
      <trkpt lat="58.72627495788038" lon="13.888465957716107">
        <ele>84.02</ele>
        <time>2025-02-13T14:05:55.639Z</time>
      </trkpt>
      <trkpt lat="58.726334972307086" lon="13.888606941327453">
        <ele>83.93</ele>
        <time>2025-02-13T14:06:42.407Z</time>
      </trkpt>
      <trkpt lat="58.726393980905414" lon="13.88875094242394">
        <ele>83.83</ele>
        <time>2025-02-13T14:07:29.177Z</time>
      </trkpt>
      <trkpt lat="58.72645097784698" lon="13.888896955177188">
        <ele>83.74</ele>
        <time>2025-02-13T14:08:15.948Z</time>
      </trkpt>
      <trkpt lat="58.72650797478855" lon="13.889044979587197">
        <ele>83.64</ele>
        <time>2025-02-13T14:09:02.721Z</time>
      </trkpt>
      <trkpt lat="58.72656497173011" lon="13.889194931834936">
        <ele>83.55</ele>
        <time>2025-02-13T14:09:49.495Z</time>
      </trkpt>
      <trkpt lat="58.72661895118654" lon="13.889346979558468">
        <ele>83.45</ele>
        <time>2025-02-13T14:10:36.271Z</time>
      </trkpt>
      <trkpt lat="58.72667192481458" lon="13.889500955119729">
        <ele>83.34</ele>
        <time>2025-02-13T14:11:23.048Z</time>
      </trkpt>
      <trkpt lat="58.72672397643328" lon="13.88965593650937">
        <ele>83.23</ele>
        <time>2025-02-13T14:12:09.827Z</time>
      </trkpt>
      <trkpt lat="58.72677493840456" lon="13.889810917899013">
        <ele>83.12</ele>
        <time>2025-02-13T14:12:56.607Z</time>
      </trkpt>
      <trkpt lat="58.72682296670973" lon="13.889966988936067">
        <ele>83.0</ele>
        <time>2025-02-13T14:13:43.389Z</time>
      </trkpt>
      <trkpt lat="58.726870995014906" lon="13.890122976154089">
        <ele>82.88</ele>
        <time>2025-02-13T14:14:30.172Z</time>
      </trkpt>
      <trkpt lat="58.72691994532943" lon="13.890279969200492">
        <ele>82.76</ele>
        <time>2025-02-13T14:15:16.957Z</time>
      </trkpt>
      <trkpt lat="58.72696696780622" lon="13.890437968075275">
        <ele>82.64</ele>
        <time>2025-02-13T14:16:03.743Z</time>
      </trkpt>
      <trkpt lat="58.72701197862625" lon="13.89059797860682">
        <ele>82.5</ele>
        <time>2025-02-13T14:16:50.531Z</time>
      </trkpt>
      <trkpt lat="58.72705698944628" lon="13.890759916976094">
        <ele>82.37</ele>
        <time>2025-02-13T14:17:37.320Z</time>
      </trkpt>
      <trkpt lat="58.72709998860955" lon="13.8909219391644">
        <ele>82.23</ele>
        <time>2025-02-13T14:18:24.111Z</time>
      </trkpt>
      <trkpt lat="58.72714198194444" lon="13.891083961352706">
        <ele>82.1</ele>
        <time>2025-02-13T14:19:10.903Z</time>
      </trkpt>
      <trkpt lat="58.72718397527933" lon="13.891245983541012">
        <ele>81.95</ele>
        <time>2025-02-13T14:19:57.697Z</time>
      </trkpt>
      <trkpt lat="58.72722496278584" lon="13.891407921910286">
        <ele>81.8</ele>
        <time>2025-02-13T14:20:44.492Z</time>
      </trkpt>
      <trkpt lat="58.72726293280721" lon="13.891570949926972">
        <ele>81.66</ele>
        <time>2025-02-13T14:21:31.289Z</time>
      </trkpt>
      <trkpt lat="58.72730199247599" lon="13.891732972115278">
        <ele>81.51</ele>
        <time>2025-02-13T14:22:18.087Z</time>
      </trkpt>
      <trkpt lat="58.72733895666897" lon="13.891893988475204">
        <ele>81.35</ele>
        <time>2025-02-13T14:23:04.887Z</time>
      </trkpt>
      <trkpt lat="58.72737399302423" lon="13.892055926844478">
        <ele>81.19</ele>
        <time>2025-02-13T14:23:51.688Z</time>
      </trkpt>
      <trkpt lat="58.727406933903694" lon="13.892216943204403">
        <ele>81.03</ele>
        <time>2025-02-13T14:24:38.491Z</time>
      </trkpt>
      <trkpt lat="58.72743895277381" lon="13.892378965392709">
        <ele>80.87</ele>
        <time>2025-02-13T14:25:25.295Z</time>
      </trkpt>
      <trkpt lat="58.727469965815544" lon="13.892541993409395">
        <ele>80.71</ele>
        <time>2025-02-13T14:26:12.101Z</time>
      </trkpt>
      <trkpt lat="58.7274999730289" lon="13.89270493760705">
        <ele>80.54</ele>
        <time>2025-02-13T14:26:58.908Z</time>
      </trkpt>
      <trkpt lat="58.72752998024225" lon="13.892867965623736">
        <ele>80.37</ele>
        <time>2025-02-13T14:27:45.717Z</time>
      </trkpt>
      <trkpt lat="58.727558981627226" lon="13.893029987812042">
        <ele>80.2</ele>
        <time>2025-02-13T14:28:32.527Z</time>
      </trkpt>
      <trkpt lat="58.72758697718382" lon="13.893192932009697">
        <ele>80.03</ele>
        <time>2025-02-13T14:29:19.338Z</time>
      </trkpt>
      <trkpt lat="58.72761296108365" lon="13.893355960026383">
        <ele>79.86</ele>
        <time>2025-02-13T14:30:06.151Z</time>
      </trkpt>
      <trkpt lat="58.72763894498348" lon="13.89351898804307">
        <ele>79.68</ele>
        <time>2025-02-13T14:30:52.965Z</time>
      </trkpt>
      <trkpt lat="58.72766291722655" lon="13.893683943897486">
        <ele>79.5</ele>
        <time>2025-02-13T14:31:39.781Z</time>
      </trkpt>
      <trkpt lat="58.727685967460275" lon="13.893849989399314">
        <ele>79.32</ele>
        <time>2025-02-13T14:32:26.598Z</time>
      </trkpt>
      <trkpt lat="58.727707928046584" lon="13.894016956910491">
        <ele>79.13</ele>
        <time>2025-02-13T14:33:13.417Z</time>
      </trkpt>
      <trkpt lat="58.727729972451925" lon="13.894184930250049">
        <ele>78.94</ele>
        <time>2025-02-13T14:34:00.237Z</time>
      </trkpt>
      <trkpt lat="58.727750927209854" lon="13.894352987408638">
        <ele>78.74</ele>
        <time>2025-02-13T14:34:47.058Z</time>
      </trkpt>
      <trkpt lat="58.727770959958434" lon="13.894520960748196">
        <ele>78.55</ele>
        <time>2025-02-13T14:35:33.881Z</time>
      </trkpt>
      <trkpt lat="58.727791998535395" lon="13.894689939916134">
        <ele>78.35</ele>
        <time>2025-02-13T14:36:20.705Z</time>
      </trkpt>
      <trkpt lat="58.72781094163656" lon="13.894857997074723">
        <ele>78.14</ele>
        <time>2025-02-13T14:37:07.531Z</time>
      </trkpt>
      <trkpt lat="58.72783097438514" lon="13.8950249645859">
        <ele>77.94</ele>
        <time>2025-02-13T14:37:54.358Z</time>
      </trkpt>
      <trkpt lat="58.72784991748631" lon="13.895190926268697">
        <ele>77.74</ele>
        <time>2025-02-13T14:38:41.187Z</time>
      </trkpt>
      <trkpt lat="58.72786995023489" lon="13.895356971770525">
        <ele>77.53</ele>
        <time>2025-02-13T14:39:28.017Z</time>
      </trkpt>
      <trkpt lat="58.72788998298347" lon="13.895522933453321">
        <ele>77.33</ele>
        <time>2025-02-13T14:40:14.849Z</time>
      </trkpt>
      <trkpt lat="58.72790892608464" lon="13.89568897895515">
        <ele>77.13</ele>
        <time>2025-02-13T14:41:01.682Z</time>
      </trkpt>
      <trkpt lat="58.72792694717646" lon="13.895854940637946">
        <ele>76.92</ele>
        <time>2025-02-13T14:41:48.516Z</time>
      </trkpt>
      <trkpt lat="58.727945974096656" lon="13.896020986139774">
        <ele>76.7</ele>
        <time>2025-02-13T14:42:35.352Z</time>
      </trkpt>
      <trkpt lat="58.72796491719782" lon="13.89618594199419">
        <ele>76.49</ele>
        <time>2025-02-13T14:43:22.189Z</time>
      </trkpt>
      <trkpt lat="58.72798293828964" lon="13.896350981667638">
        <ele>76.28</ele>
        <time>2025-02-13T14:44:09.028Z</time>
      </trkpt>
      <trkpt lat="58.72800196520984" lon="13.896514931693673">
        <ele>76.06</ele>
        <time>2025-02-13T14:44:55.868Z</time>
      </trkpt>
      <trkpt lat="58.72801998630166" lon="13.89667997136712">
        <ele>75.84</ele>
        <time>2025-02-13T14:45:42.709Z</time>
      </trkpt>
      <trkpt lat="58.72803892940283" lon="13.896846938878298">
        <ele>75.61</ele>
        <time>2025-02-13T14:46:29.552Z</time>
      </trkpt>
      <trkpt lat="58.72805795632303" lon="13.897014996036887">
        <ele>75.39</ele>
        <time>2025-02-13T14:47:16.396Z</time>
      </trkpt>
      <trkpt lat="58.728075977414846" lon="13.897182969376445">
        <ele>75.16</ele>
        <time>2025-02-13T14:48:03.242Z</time>
      </trkpt>
      <trkpt lat="58.728093998506665" lon="13.897351948544383">
        <ele>74.92</ele>
        <time>2025-02-13T14:48:50.089Z</time>
      </trkpt>
      <trkpt lat="58.72811294160783" lon="13.897521933540702">
        <ele>74.69</ele>
        <time>2025-02-13T14:49:36.938Z</time>
      </trkpt>
      <trkpt lat="58.72812995687127" lon="13.89769191853702">
        <ele>74.45</ele>
        <time>2025-02-13T14:50:23.788Z</time>
      </trkpt>
      <trkpt lat="58.72814797796309" lon="13.897862993180752">
        <ele>74.21</ele>
        <time>2025-02-13T14:51:10.639Z</time>
      </trkpt>
      <trkpt lat="58.72816893272102" lon="13.89803297817707">
        <ele>73.98</ele>
        <time>2025-02-13T14:51:57.492Z</time>
      </trkpt>
      <trkpt lat="58.72818795964122" lon="13.89820396900177">
        <ele>73.75</ele>
        <time>2025-02-13T14:52:44.346Z</time>
      </trkpt>
      <trkpt lat="58.72820698656142" lon="13.89837697148323">
        <ele>73.52</ele>
        <time>2025-02-13T14:53:31.202Z</time>
      </trkpt>
      <trkpt lat="58.728224923834205" lon="13.898551985621452">
        <ele>73.29</ele>
        <time>2025-02-13T14:54:18.059Z</time>
      </trkpt>
      <trkpt lat="58.728247974067926" lon="13.898726999759674">
        <ele>73.06</ele>
        <time>2025-02-13T14:55:04.918Z</time>
      </trkpt>
      <trkpt lat="58.728265995159745" lon="13.898903941735625">
        <ele>72.83</ele>
        <time>2025-02-13T14:55:51.778Z</time>
      </trkpt>
      <trkpt lat="58.72828594408929" lon="13.899081973358989">
        <ele>72.59</ele>
        <time>2025-02-13T14:56:38.640Z</time>
      </trkpt>
      <trkpt lat="58.728306982666254" lon="13.899262938648462">
        <ele>72.35</ele>
        <time>2025-02-13T14:57:25.503Z</time>
      </trkpt>
      <trkpt lat="58.72832793742418" lon="13.899447927251458">
        <ele>72.12</ele>
        <time>2025-02-13T14:58:12.368Z</time>
      </trkpt>
      <trkpt lat="58.728353921324015" lon="13.899634927511215">
        <ele>71.88</ele>
        <time>2025-02-13T14:58:59.235Z</time>
      </trkpt>
      <trkpt lat="58.72837998904288" lon="13.899822933599353">
        <ele>71.64</ele>
        <time>2025-02-13T14:59:46.103Z</time>
      </trkpt>
      <trkpt lat="58.72840697877109" lon="13.900012951344252">
        <ele>71.4</ele>
        <time>2025-02-13T15:00:32.973Z</time>
      </trkpt>
      <trkpt lat="58.72843497432768" lon="13.90020296908915">
        <ele>71.15</ele>
        <time>2025-02-13T15:01:19.845Z</time>
      </trkpt>
      <trkpt lat="58.72846598736942" lon="13.90039298683405">
        <ele>70.9</ele>
        <time>2025-02-13T15:02:06.718Z</time>
      </trkpt>
      <trkpt lat="58.7284979224205" lon="13.900584932416677">
        <ele>70.66</ele>
        <time>2025-02-13T15:02:53.593Z</time>
      </trkpt>
      <trkpt lat="58.728530947119" lon="13.900773944333196">
        <ele>70.42</ele>
        <time>2025-02-13T15:03:40.470Z</time>
      </trkpt>
      <trkpt lat="58.728565983474255" lon="13.900959938764572">
        <ele>70.17</ele>
        <time>2025-02-13T15:04:27.348Z</time>
      </trkpt>
      <trkpt lat="58.72860294766724" lon="13.901144927367568">
        <ele>69.95</ele>
        <time>2025-02-13T15:05:14.228Z</time>
      </trkpt>
      <trkpt lat="58.72864091768861" lon="13.901326982304454">
        <ele>69.71</ele>
        <time>2025-02-13T15:06:01.109Z</time>
      </trkpt>
      <trkpt lat="58.72867997735739" lon="13.901506941765547">
        <ele>69.48</ele>
        <time>2025-02-13T15:06:47.992Z</time>
      </trkpt>
      <trkpt lat="58.72872197069228" lon="13.901686985045671">
        <ele>69.26</ele>
        <time>2025-02-13T15:07:34.877Z</time>
      </trkpt>
      <trkpt lat="58.72876597568393" lon="13.901866944506764">
        <ele>69.03</ele>
        <time>2025-02-13T15:08:21.763Z</time>
      </trkpt>
      <trkpt lat="58.7288089748472" lon="13.902046987786889">
        <ele>68.81</ele>
        <time>2025-02-13T15:09:08.651Z</time>
      </trkpt>
      <trkpt lat="58.72885599732399" lon="13.902225941419601">
        <ele>68.59</ele>
        <time>2025-02-13T15:09:55.541Z</time>
      </trkpt>
      <trkpt lat="58.72890293598175" lon="13.902402967214584">
        <ele>68.38</ele>
        <time>2025-02-13T15:10:42.432Z</time>
      </trkpt>
      <trkpt lat="58.72894995845854" lon="13.902577981352806">
        <ele>68.16</ele>
        <time>2025-02-13T15:11:29.325Z</time>
      </trkpt>
      <trkpt lat="58.728996980935335" lon="13.902750983834267">
        <ele>67.95</ele>
        <time>2025-02-13T15:12:16.220Z</time>
      </trkpt>
      <trkpt lat="58.729044925421476" lon="13.902922980487347">
        <ele>67.73</ele>
        <time>2025-02-13T15:13:03.116Z</time>
      </trkpt>
      <trkpt lat="58.72909295372665" lon="13.903095982968807">
        <ele>67.52</ele>
        <time>2025-02-13T15:13:50.014Z</time>
      </trkpt>
      <trkpt lat="58.72913997620344" lon="13.903267979621887">
        <ele>67.31</ele>
        <time>2025-02-13T15:14:36.914Z</time>
      </trkpt>
      <trkpt lat="58.72918792068958" lon="13.903441987931728">
        <ele>67.09</ele>
        <time>2025-02-13T15:15:23.815Z</time>
      </trkpt>
      <trkpt lat="58.729235948994756" lon="13.903612978756428">
        <ele>66.89</ele>
        <time>2025-02-13T15:16:10.718Z</time>
      </trkpt>
      <trkpt lat="58.72928397729993" lon="13.903783969581127">
        <ele>66.68</ele>
        <time>2025-02-13T15:16:57.622Z</time>
      </trkpt>
      <trkpt lat="58.72933192178607" lon="13.903953954577446">
        <ele>66.48</ele>
        <time>2025-02-13T15:17:44.528Z</time>
      </trkpt>
      <trkpt lat="58.72937995009124" lon="13.904124945402145">
        <ele>66.27</ele>
        <time>2025-02-13T15:18:31.436Z</time>
      </trkpt>
      <trkpt lat="58.729426972568035" lon="13.904295936226845">
        <ele>66.08</ele>
        <time>2025-02-13T15:19:18.345Z</time>
      </trkpt>
      <trkpt lat="58.729474917054176" lon="13.904467932879925">
        <ele>65.88</ele>
        <time>2025-02-13T15:20:05.256Z</time>
      </trkpt>
      <trkpt lat="58.72952294535935" lon="13.904638923704624">
        <ele>65.68</ele>
        <time>2025-02-13T15:20:52.169Z</time>
      </trkpt>
      <trkpt lat="58.72957097366452" lon="13.904809998348355">
        <ele>65.5</ele>
        <time>2025-02-13T15:21:39.083Z</time>
      </trkpt>
      <trkpt lat="58.72961891815066" lon="13.904980989173055">
        <ele>65.31</ele>
        <time>2025-02-13T15:22:25.999Z</time>
      </trkpt>
      <trkpt lat="58.729666946455836" lon="13.905151979997754">
        <ele>65.13</ele>
        <time>2025-02-13T15:23:12.916Z</time>
      </trkpt>
      <trkpt lat="58.72971497476101" lon="13.905322970822453">
        <ele>64.94</ele>
        <time>2025-02-13T15:23:59.835Z</time>
      </trkpt>
      <trkpt lat="58.72976291924715" lon="13.905493961647153">
        <ele>64.77</ele>
        <time>2025-02-13T15:24:46.756Z</time>
      </trkpt>
      <trkpt lat="58.72980994172394" lon="13.905665958300233">
        <ele>64.59</ele>
        <time>2025-02-13T15:25:33.678Z</time>
      </trkpt>
      <trkpt lat="58.729857970029116" lon="13.905837954953313">
        <ele>64.42</ele>
        <time>2025-02-13T15:26:20.602Z</time>
      </trkpt>
      <trkpt lat="58.72990599833429" lon="13.906009951606393">
        <ele>64.25</ele>
        <time>2025-02-13T15:27:07.527Z</time>
      </trkpt>
      <trkpt lat="58.72995394282043" lon="13.906181948259473">
        <ele>64.09</ele>
        <time>2025-02-13T15:27:54.454Z</time>
      </trkpt>
      <trkpt lat="58.7300019711256" lon="13.906355956569314">
        <ele>63.93</ele>
        <time>2025-02-13T15:28:41.383Z</time>
      </trkpt>
      <trkpt lat="58.730050921440125" lon="13.906529964879155">
        <ele>63.77</ele>
        <time>2025-02-13T15:29:28.313Z</time>
      </trkpt>
      <trkpt lat="58.7300989497453" lon="13.906703973188996">
        <ele>63.62</ele>
        <time>2025-02-13T15:30:15.245Z</time>
      </trkpt>
      <trkpt lat="58.73014697805047" lon="13.906876975670457">
        <ele>63.46</ele>
        <time>2025-02-13T15:31:02.179Z</time>
      </trkpt>
      <trkpt lat="58.73019592836499" lon="13.907048972323537">
        <ele>63.32</ele>
        <time>2025-02-13T15:31:49.114Z</time>
      </trkpt>
      <trkpt lat="58.730242950841784" lon="13.907218957319856">
        <ele>63.17</ele>
        <time>2025-02-13T15:32:36.051Z</time>
      </trkpt>
      <trkpt lat="58.73028997331858" lon="13.907389948144555">
        <ele>63.03</ele>
        <time>2025-02-13T15:33:22.990Z</time>
      </trkpt>
      <trkpt lat="58.73033699579537" lon="13.907559933140874">
        <ele>62.9</ele>
        <time>2025-02-13T15:34:09.930Z</time>
      </trkpt>
      <trkpt lat="58.73038393445313" lon="13.907727990299463">
        <ele>62.77</ele>
        <time>2025-02-13T15:34:56.872Z</time>
      </trkpt>
      <trkpt lat="58.73043095692992" lon="13.907895963639021">
        <ele>62.65</ele>
        <time>2025-02-13T15:35:43.815Z</time>
      </trkpt>
      <trkpt lat="58.730476973578334" lon="13.908062931150198">
        <ele>62.53</ele>
        <time>2025-02-13T15:36:30.760Z</time>
      </trkpt>
      <trkpt lat="58.730522990226746" lon="13.908227970823646">
        <ele>62.41</ele>
        <time>2025-02-13T15:37:17.706Z</time>
      </trkpt>
      <trkpt lat="58.730566995218396" lon="13.908390998840332">
        <ele>62.3</ele>
        <time>2025-02-13T15:38:04.654Z</time>
      </trkpt>
      <trkpt lat="58.730611922219396" lon="13.908552937209606">
        <ele>62.19</ele>
        <time>2025-02-13T15:38:51.604Z</time>
      </trkpt>
      <trkpt lat="58.730654921382666" lon="13.908715965226293">
        <ele>62.09</ele>
        <time>2025-02-13T15:39:38.555Z</time>
      </trkpt>
      <trkpt lat="58.730698926374316" lon="13.908877987414598">
        <ele>61.99</ele>
        <time>2025-02-13T15:40:25.508Z</time>
      </trkpt>
      <trkpt lat="58.73074293136597" lon="13.909038919955492">
        <ele>61.89</ele>
        <time>2025-02-13T15:41:12.462Z</time>
      </trkpt>
      <trkpt lat="58.73078693635762" lon="13.909199936315417">
        <ele>61.8</ele>
        <time>2025-02-13T15:41:59.418Z</time>
      </trkpt>
      <trkpt lat="58.73083194717765" lon="13.909360952675343">
        <ele>61.7</ele>
        <time>2025-02-13T15:42:46.375Z</time>
      </trkpt>
      <trkpt lat="58.7308759521693" lon="13.909518951550126">
        <ele>61.62</ele>
        <time>2025-02-13T15:43:33.334Z</time>
      </trkpt>
      <trkpt lat="58.73091995716095" lon="13.909675944596529">
        <ele>61.54</ele>
        <time>2025-02-13T15:44:20.294Z</time>
      </trkpt>
      <trkpt lat="58.73096195049584" lon="13.90983092598617">
        <ele>61.47</ele>
        <time>2025-02-13T15:45:07.256Z</time>
      </trkpt>
      <trkpt lat="58.73100394383073" lon="13.909983979538083">
        <ele>61.4</ele>
        <time>2025-02-13T15:45:54.219Z</time>
      </trkpt>
      <trkpt lat="58.73104593716562" lon="13.910135943442583">
        <ele>61.33</ele>
        <time>2025-02-13T15:46:41.183Z</time>
      </trkpt>
      <trkpt lat="58.73108793050051" lon="13.910286985337734">
        <ele>61.26</ele>
        <time>2025-02-13T15:47:28.149Z</time>
      </trkpt>
      <trkpt lat="58.731128918007016" lon="13.910437943413854">
        <ele>61.2</ele>
        <time>2025-02-13T15:48:15.116Z</time>
      </trkpt>
      <trkpt lat="58.73116998933256" lon="13.910585967823863">
        <ele>61.14</ele>
        <time>2025-02-13T15:49:02.085Z</time>
      </trkpt>
      <trkpt lat="58.731209971010685" lon="13.910733992233872">
        <ele>61.09</ele>
        <time>2025-02-13T15:49:49.055Z</time>
      </trkpt>
      <trkpt lat="58.731250958517194" lon="13.91088092699647">
        <ele>61.04</ele>
        <time>2025-02-13T15:50:36.026Z</time>
      </trkpt>
      <trkpt lat="58.7312919460237" lon="13.911026939749718">
        <ele>60.99</ele>
        <time>2025-02-13T15:51:22.999Z</time>
      </trkpt>
      <trkpt lat="58.73133192770183" lon="13.911173958331347">
        <ele>60.95</ele>
        <time>2025-02-13T15:52:09.973Z</time>
      </trkpt>
      <trkpt lat="58.73137199319899" lon="13.911318965256214">
        <ele>60.91</ele>
        <time>2025-02-13T15:52:56.949Z</time>
      </trkpt>
      <trkpt lat="58.73141197487712" lon="13.911463972181082">
        <ele>60.87</ele>
        <time>2025-02-13T15:53:43.926Z</time>
      </trkpt>
      <trkpt lat="58.73145195655525" lon="13.91160897910595">
        <ele>60.84</ele>
        <time>2025-02-13T15:54:30.904Z</time>
      </trkpt>
      <trkpt lat="58.731491938233376" lon="13.911752980202436">
        <ele>60.81</ele>
        <time>2025-02-13T15:55:17.884Z</time>
      </trkpt>
      <trkpt lat="58.731531919911504" lon="13.911898992955685">
        <ele>60.79</ele>
        <time>2025-02-13T15:56:04.865Z</time>
      </trkpt>
      <trkpt lat="58.731571985408664" lon="13.912044921889901">
        <ele>60.77</ele>
        <time>2025-02-13T15:56:51.847Z</time>
      </trkpt>
      <trkpt lat="58.73161196708679" lon="13.91219093464315">
        <ele>60.75</ele>
        <time>2025-02-13T15:57:38.831Z</time>
      </trkpt>
      <trkpt lat="58.7316529545933" lon="13.912337953224778">
        <ele>60.74</ele>
        <time>2025-02-13T15:58:25.816Z</time>
      </trkpt>
      <trkpt lat="58.73169293627143" lon="13.912484971806407">
        <ele>60.73</ele>
        <time>2025-02-13T15:59:12.803Z</time>
      </trkpt>
      <trkpt lat="58.73173291794956" lon="13.912630984559655">
        <ele>60.72</ele>
        <time>2025-02-13T15:59:59.791Z</time>
      </trkpt>
      <trkpt lat="58.73177298344672" lon="13.912777919322252">
        <ele>60.71</ele>
        <time>2025-02-13T16:00:46.780Z</time>
      </trkpt>
      <trkpt lat="58.731812965124846" lon="13.912924937903881">
        <ele>60.7</ele>
        <time>2025-02-13T16:01:33.771Z</time>
      </trkpt>
      <trkpt lat="58.731853952631354" lon="13.91307195648551">
        <ele>60.7</ele>
        <time>2025-02-13T16:02:20.763Z</time>
      </trkpt>
      <trkpt lat="58.73189393430948" lon="13.913216963410378">
        <ele>60.71</ele>
        <time>2025-02-13T16:03:07.757Z</time>
      </trkpt>
      <trkpt lat="58.73193299397826" lon="13.913361970335245">
        <ele>60.72</ele>
        <time>2025-02-13T16:03:54.752Z</time>
      </trkpt>
      <trkpt lat="58.73197398148477" lon="13.913507983088493">
        <ele>60.74</ele>
        <time>2025-02-13T16:04:41.748Z</time>
      </trkpt>
      <trkpt lat="58.73201295733452" lon="13.913652990013361">
        <ele>60.75</ele>
        <time>2025-02-13T16:05:28.746Z</time>
      </trkpt>
      <trkpt lat="58.73205293901265" lon="13.913797996938229">
        <ele>60.77</ele>
        <time>2025-02-13T16:06:15.745Z</time>
      </trkpt>
      <trkpt lat="58.732091998681426" lon="13.913941998034716">
        <ele>60.79</ele>
        <time>2025-02-13T16:07:02.745Z</time>
      </trkpt>
      <trkpt lat="58.732130974531174" lon="13.914085999131203">
        <ele>60.82</ele>
        <time>2025-02-13T16:07:49.747Z</time>
      </trkpt>
      <trkpt lat="58.7321709562093" lon="13.914229916408658">
        <ele>60.86</ele>
        <time>2025-02-13T16:08:36.750Z</time>
      </trkpt>
      <trkpt lat="58.73221093788743" lon="13.914373917505145">
        <ele>60.89</ele>
        <time>2025-02-13T16:09:23.754Z</time>
      </trkpt>
      <trkpt lat="58.73224999755621" lon="13.914518924430013">
        <ele>60.92</ele>
        <time>2025-02-13T16:10:10.760Z</time>
      </trkpt>
      <trkpt lat="58.73228997923434" lon="13.91466393135488">
        <ele>60.96</ele>
        <time>2025-02-13T16:10:57.767Z</time>
      </trkpt>
      <trkpt lat="58.732328955084085" lon="13.914807932451367">
        <ele>61.0</ele>
        <time>2025-02-13T16:11:44.776Z</time>
      </trkpt>
      <trkpt lat="58.73236793093383" lon="13.914950927719474">
        <ele>61.04</ele>
        <time>2025-02-13T16:12:31.786Z</time>
      </trkpt>
      <trkpt lat="58.73240699060261" lon="13.9150929171592">
        <ele>61.08</ele>
        <time>2025-02-13T16:13:18.797Z</time>
      </trkpt>
      <trkpt lat="58.73244596645236" lon="13.915233984589577">
        <ele>61.13</ele>
        <time>2025-02-13T16:14:05.810Z</time>
      </trkpt>
      <trkpt lat="58.73248393647373" lon="13.915373962372541">
        <ele>61.18</ele>
        <time>2025-02-13T16:14:52.824Z</time>
      </trkpt>
      <trkpt lat="58.73252299614251" lon="13.915513940155506">
        <ele>61.23</ele>
        <time>2025-02-13T16:15:39.839Z</time>
      </trkpt>
      <trkpt lat="58.732561971992254" lon="13.915651990100741">
        <ele>61.29</ele>
        <time>2025-02-13T16:16:26.856Z</time>
      </trkpt>
      <trkpt lat="58.73259994201362" lon="13.915788950398564">
        <ele>61.33</ele>
        <time>2025-02-13T16:17:13.874Z</time>
      </trkpt>
      <trkpt lat="58.73263799585402" lon="13.915924988687038">
        <ele>61.38</ele>
        <time>2025-02-13T16:18:00.893Z</time>
      </trkpt>
      <trkpt lat="58.73267596587539" lon="13.9160599373281">
        <ele>61.44</ele>
        <time>2025-02-13T16:18:47.913Z</time>
      </trkpt>
      <trkpt lat="58.732713935896754" lon="13.916193963959813">
        <ele>61.5</ele>
        <time>2025-02-13T16:19:34.935Z</time>
      </trkpt>
      <trkpt lat="58.73275198973715" lon="13.916327990591526">
        <ele>61.56</ele>
        <time>2025-02-13T16:20:21.958Z</time>
      </trkpt>
      <trkpt lat="58.73278995975852" lon="13.916461933404207">
        <ele>61.62</ele>
        <time>2025-02-13T16:21:08.982Z</time>
      </trkpt>
      <trkpt lat="58.73282792977989" lon="13.91659596003592">
        <ele>61.69</ele>
        <time>2025-02-13T16:21:56.007Z</time>
      </trkpt>
      <trkpt lat="58.732865983620286" lon="13.916730992496014">
        <ele>61.75</ele>
        <time>2025-02-13T16:22:43.034Z</time>
      </trkpt>
      <trkpt lat="58.73290395364165" lon="13.916864935308695">
        <ele>61.82</ele>
        <time>2025-02-13T16:23:30.062Z</time>
      </trkpt>
      <trkpt lat="58.7329429294914" lon="13.916999967768788">
        <ele>61.89</ele>
        <time>2025-02-13T16:24:17.091Z</time>
      </trkpt>
      <trkpt lat="58.7329809833318" lon="13.917133994400501">
        <ele>61.96</ele>
        <time>2025-02-13T16:25:04.122Z</time>
      </trkpt>
      <trkpt lat="58.73301995918155" lon="13.917268943041563">
        <ele>62.03</ele>
        <time>2025-02-13T16:25:51.154Z</time>
      </trkpt>
      <trkpt lat="58.733057929202914" lon="13.917403975501657">
        <ele>62.1</ele>
        <time>2025-02-13T16:26:38.187Z</time>
      </trkpt>
      <trkpt lat="58.733096988871694" lon="13.917536996304989">
        <ele>62.18</ele>
        <time>2025-02-13T16:27:25.221Z</time>
      </trkpt>
      <trkpt lat="58.73313596472144" lon="13.917668927460909">
        <ele>62.26</ele>
        <time>2025-02-13T16:28:12.257Z</time>
      </trkpt>
      <trkpt lat="58.73317494057119" lon="13.91779993660748">
        <ele>62.33</ele>
        <time>2025-02-13T16:28:59.294Z</time>
      </trkpt>
      <trkpt lat="58.73321391642094" lon="13.917933963239193">
        <ele>62.4</ele>
        <time>2025-02-13T16:29:46.332Z</time>
      </trkpt>
      <trkpt lat="58.733251970261335" lon="13.918066984042525">
        <ele>62.47</ele>
        <time>2025-02-13T16:30:33.371Z</time>
      </trkpt>
      <trkpt lat="58.733291951939464" lon="13.918200926855206">
        <ele>62.54</ele>
        <time>2025-02-13T16:31:20.412Z</time>
      </trkpt>
      <trkpt lat="58.73332992196083" lon="13.91833495348692">
        <ele>62.62</ele>
        <time>2025-02-13T16:32:07.454Z</time>
      </trkpt>
      <trkpt lat="58.73336898162961" lon="13.918467974290252">
        <ele>62.7</ele>
        <time>2025-02-13T16:32:54.497Z</time>
      </trkpt>
      <trkpt lat="58.73340795747936" lon="13.918600995093584">
        <ele>62.77</ele>
        <time>2025-02-13T16:33:41.542Z</time>
      </trkpt>
      <trkpt lat="58.733446933329105" lon="13.918733932077885">
        <ele>62.85</ele>
        <time>2025-02-13T16:34:28.588Z</time>
      </trkpt>
      <trkpt lat="58.733484987169504" lon="13.918865947052836">
        <ele>62.93</ele>
        <time>2025-02-13T16:35:15.635Z</time>
      </trkpt>
      <trkpt lat="58.73352396301925" lon="13.918996956199408">
        <ele>63.0</ele>
        <time>2025-02-13T16:36:02.683Z</time>
      </trkpt>
      <trkpt lat="58.73356193304062" lon="13.919127965345979">
        <ele>63.08</ele>
        <time>2025-02-13T16:36:49.733Z</time>
      </trkpt>
      <trkpt lat="58.73359998688102" lon="13.91925796866417">
        <ele>63.16</ele>
        <time>2025-02-13T16:37:36.784Z</time>
      </trkpt>
      <trkpt lat="58.733638962730765" lon="13.91938897781074">
        <ele>63.23</ele>
        <time>2025-02-13T16:38:23.836Z</time>
      </trkpt>
      <trkpt lat="58.73367693275213" lon="13.919520992785692">
        <ele>63.31</ele>
        <time>2025-02-13T16:39:10.889Z</time>
      </trkpt>
      <trkpt lat="58.73371498659253" lon="13.919652923941612">
        <ele>63.39</ele>
        <time>2025-02-13T16:39:57.944Z</time>
      </trkpt>
      <trkpt lat="58.7337529566139" lon="13.919783933088183">
        <ele>63.47</ele>
        <time>2025-02-13T16:40:45.000Z</time>
      </trkpt>
      <trkpt lat="58.733790926635265" lon="13.919914942234755">
        <ele>63.54</ele>
        <time>2025-02-13T16:41:32.057Z</time>
      </trkpt>
      <trkpt lat="58.733827974647284" lon="13.920045951381326">
        <ele>63.62</ele>
        <time>2025-02-13T16:42:19.115Z</time>
      </trkpt>
      <trkpt lat="58.73386594466865" lon="13.920175954699516">
        <ele>63.7</ele>
        <time>2025-02-13T16:43:06.175Z</time>
      </trkpt>
      <trkpt lat="58.73390399850905" lon="13.920306963846087">
        <ele>63.77</ele>
        <time>2025-02-13T16:43:53.236Z</time>
      </trkpt>
      <trkpt lat="58.7339429743588" lon="13.920437972992659">
        <ele>63.84</ele>
        <time>2025-02-13T16:44:40.298Z</time>
      </trkpt>
      <trkpt lat="58.733980944380164" lon="13.92056898213923">
        <ele>63.92</ele>
        <time>2025-02-13T16:45:27.361Z</time>
      </trkpt>
      <trkpt lat="58.73401992022991" lon="13.92069898545742">
        <ele>63.99</ele>
        <time>2025-02-13T16:46:14.426Z</time>
      </trkpt>
      <trkpt lat="58.73405797407031" lon="13.92082697711885">
        <ele>64.06</ele>
        <time>2025-02-13T16:47:01.492Z</time>
      </trkpt>
      <trkpt lat="58.73409594409168" lon="13.920953962951899">
        <ele>64.13</ele>
        <time>2025-02-13T16:47:48.559Z</time>
      </trkpt>
      <trkpt lat="58.734132992103696" lon="13.921080948784947">
        <ele>64.2</ele>
        <time>2025-02-13T16:48:35.627Z</time>
      </trkpt>
      <trkpt lat="58.73416995629668" lon="13.921207934617996">
        <ele>64.26</ele>
        <time>2025-02-13T16:49:22.697Z</time>
      </trkpt>
      <trkpt lat="58.73420692048967" lon="13.921332992613316">
        <ele>64.33</ele>
        <time>2025-02-13T16:50:09.768Z</time>
      </trkpt>
      <trkpt lat="58.73424396850169" lon="13.921456960961223">
        <ele>64.4</ele>
        <time>2025-02-13T16:50:56.840Z</time>
      </trkpt>
      <trkpt lat="58.734281938523054" lon="13.92158193513751">
        <ele>64.46</ele>
        <time>2025-02-13T16:51:43.913Z</time>
      </trkpt>
      <trkpt lat="58.73431898653507" lon="13.921704981476068">
        <ele>64.52</ele>
        <time>2025-02-13T16:52:30.987Z</time>
      </trkpt>
      <trkpt lat="58.73435595072806" lon="13.921828949823976">
        <ele>64.58</ele>
        <time>2025-02-13T16:53:18.063Z</time>
      </trkpt>
      <trkpt lat="58.734391992911696" lon="13.921952918171883">
        <ele>64.64</ele>
        <time>2025-02-13T16:54:05.140Z</time>
      </trkpt>
      <trkpt lat="58.73442895710468" lon="13.92207596451044">
        <ele>64.7</ele>
        <time>2025-02-13T16:54:52.218Z</time>
      </trkpt>
      <trkpt lat="58.73446692712605" lon="13.922200938686728">
        <ele>64.75</ele>
        <time>2025-02-13T16:55:39.297Z</time>
      </trkpt>
      <trkpt lat="58.73450397513807" lon="13.922325996682048">
        <ele>64.8</ele>
        <time>2025-02-13T16:56:26.377Z</time>
      </trkpt>
      <trkpt lat="58.734539933502674" lon="13.922452982515097">
        <ele>64.85</ele>
        <time>2025-02-13T16:57:13.459Z</time>
      </trkpt>
      <trkpt lat="58.73457798734307" lon="13.922579968348145">
        <ele>64.89</ele>
        <time>2025-02-13T16:58:00.542Z</time>
      </trkpt>
      <trkpt lat="58.73461495153606" lon="13.922707960009575">
        <ele>64.93</ele>
        <time>2025-02-13T16:58:47.626Z</time>
      </trkpt>
      <trkpt lat="58.73465199954808" lon="13.922836957499385">
        <ele>64.96</ele>
        <time>2025-02-13T16:59:34.711Z</time>
      </trkpt>
      <trkpt lat="58.734688963741064" lon="13.922964949160814">
        <ele>64.98</ele>
        <time>2025-02-13T17:00:21.797Z</time>
      </trkpt>
      <trkpt lat="58.73472693376243" lon="13.923093946650624">
        <ele>65.01</ele>
        <time>2025-02-13T17:01:08.885Z</time>
      </trkpt>
      <trkpt lat="58.73476398177445" lon="13.923224955797195">
        <ele>65.03</ele>
        <time>2025-02-13T17:01:55.974Z</time>
      </trkpt>
      <trkpt lat="58.7348029576242" lon="13.923356970772147">
        <ele>65.04</ele>
        <time>2025-02-13T17:02:43.064Z</time>
      </trkpt>
      <trkpt lat="58.734840927645564" lon="13.923488985747099">
        <ele>65.05</ele>
        <time>2025-02-13T17:03:30.155Z</time>
      </trkpt>
      <trkpt lat="58.73487797565758" lon="13.923617983236909">
        <ele>65.07</ele>
        <time>2025-02-13T17:04:17.248Z</time>
      </trkpt>
      <trkpt lat="58.73491493985057" lon="13.923745974898338">
        <ele>65.08</ele>
        <time>2025-02-13T17:05:04.342Z</time>
      </trkpt>
      <trkpt lat="58.73495399951935" lon="13.923873966559768">
        <ele>65.09</ele>
        <time>2025-02-13T17:05:51.437Z</time>
      </trkpt>
      <trkpt lat="58.734991969540715" lon="13.924001958221197">
        <ele>65.1</ele>
        <time>2025-02-13T17:06:38.533Z</time>
      </trkpt>
      <trkpt lat="58.73503094539046" lon="13.924128944054246">
        <ele>65.1</ele>
        <time>2025-02-13T17:07:25.631Z</time>
      </trkpt>
      <trkpt lat="58.73506992124021" lon="13.924257941544056">
        <ele>65.11</ele>
        <time>2025-02-13T17:08:12.730Z</time>
      </trkpt>
      <trkpt lat="58.73510998673737" lon="13.924385933205485">
        <ele>65.11</ele>
        <time>2025-02-13T17:08:59.830Z</time>
      </trkpt>
      <trkpt lat="58.7351499684155" lon="13.924513924866915">
        <ele>65.11</ele>
        <time>2025-02-13T17:09:46.931Z</time>
      </trkpt>
      <trkpt lat="58.73519095592201" lon="13.924643928185105">
        <ele>65.1</ele>
        <time>2025-02-13T17:10:34.034Z</time>
      </trkpt>
      <trkpt lat="58.735231943428516" lon="13.924774937331676">
        <ele>65.1</ele>
        <time>2025-02-13T17:11:21.138Z</time>
      </trkpt>
      <trkpt lat="58.735273936763406" lon="13.924904940649867">
        <ele>65.09</ele>
        <time>2025-02-13T17:12:08.243Z</time>
      </trkpt>
      <trkpt lat="58.735315930098295" lon="13.925035949796438">
        <ele>65.09</ele>
        <time>2025-02-13T17:12:55.349Z</time>
      </trkpt>
      <trkpt lat="58.735357923433185" lon="13.925165953114629">
        <ele>65.07</ele>
        <time>2025-02-13T17:13:42.457Z</time>
      </trkpt>
      <trkpt lat="58.735400922596455" lon="13.92529796808958">
        <ele>65.05</ele>
        <time>2025-02-13T17:14:29.566Z</time>
      </trkpt>
      <trkpt lat="58.735443921759725" lon="13.925430988892913">
        <ele>65.03</ele>
        <time>2025-02-13T17:15:16.676Z</time>
      </trkpt>
      <trkpt lat="58.735489938408136" lon="13.925563925877213">
        <ele>65.01</ele>
        <time>2025-02-13T17:16:03.788Z</time>
      </trkpt>
      <trkpt lat="58.73553595505655" lon="13.925698958337307">
        <ele>64.98</ele>
        <time>2025-02-13T17:16:50.901Z</time>
      </trkpt>
      <trkpt lat="58.73558197170496" lon="13.925837930291891">
        <ele>64.94</ele>
        <time>2025-02-13T17:17:38.015Z</time>
      </trkpt>
      <trkpt lat="58.73562899418175" lon="13.925975980237126">
        <ele>64.91</ele>
        <time>2025-02-13T17:18:25.131Z</time>
      </trkpt>
      <trkpt lat="58.73567693866789" lon="13.926115958020091">
        <ele>64.87</ele>
        <time>2025-02-13T17:19:12.248Z</time>
      </trkpt>
      <trkpt lat="58.735723961144686" lon="13.926258953288198">
        <ele>64.83</ele>
        <time>2025-02-13T17:19:59.367Z</time>
      </trkpt>
      <trkpt lat="58.73577098362148" lon="13.926403960213065">
        <ele>64.78</ele>
        <time>2025-02-13T17:20:46.487Z</time>
      </trkpt>
      <trkpt lat="58.73581892810762" lon="13.926548967137933">
        <ele>64.73</ele>
        <time>2025-02-13T17:21:33.608Z</time>
      </trkpt>
      <trkpt lat="58.73586595058441" lon="13.926695985719562">
        <ele>64.67</ele>
        <time>2025-02-13T17:22:20.731Z</time>
      </trkpt>
      <trkpt lat="58.735913978889585" lon="13.92684392631054">
        <ele>64.61</ele>
        <time>2025-02-13T17:23:07.855Z</time>
      </trkpt>
      <trkpt lat="58.735961923375726" lon="13.926988933235407">
        <ele>64.55</ele>
        <time>2025-02-13T17:23:54.981Z</time>
      </trkpt>
      <trkpt lat="58.73601196333766" lon="13.927135951817036">
        <ele>64.48</ele>
        <time>2025-02-13T17:24:42.108Z</time>
      </trkpt>
      <trkpt lat="58.73606099747121" lon="13.927283976227045">
        <ele>64.42</ele>
        <time>2025-02-13T17:25:29.237Z</time>
      </trkpt>
      <trkpt lat="58.736109947785735" lon="13.927433928474784">
        <ele>64.35</ele>
        <time>2025-02-13T17:26:16.367Z</time>
      </trkpt>
      <trkpt lat="58.73615898191929" lon="13.927582958713174">
        <ele>64.28</ele>
        <time>2025-02-13T17:27:03.499Z</time>
      </trkpt>
      <trkpt lat="58.73620893806219" lon="13.927733916789293">
        <ele>64.21</ele>
        <time>2025-02-13T17:27:50.632Z</time>
      </trkpt>
      <trkpt lat="58.736259983852506" lon="13.927884958684444">
        <ele>64.14</ele>
        <time>2025-02-13T17:28:37.767Z</time>
      </trkpt>
      <trkpt lat="58.73631094582379" lon="13.928037928417325">
        <ele>64.07</ele>
        <time>2025-02-13T17:29:24.903Z</time>
      </trkpt>
      <trkpt lat="58.7363619916141" lon="13.928190981969237">
        <ele>63.99</ele>
        <time>2025-02-13T17:30:12.041Z</time>
      </trkpt>
      <trkpt lat="58.73641395941377" lon="13.928344957530499">
        <ele>63.91</ele>
        <time>2025-02-13T17:30:59.180Z</time>
      </trkpt>
      <trkpt lat="58.73646492138505" lon="13.92849993892014">
        <ele>63.83</ele>
        <time>2025-02-13T17:31:46.321Z</time>
      </trkpt>
      <trkpt lat="58.736517978832126" lon="13.928655926138163">
        <ele>63.75</ele>
        <time>2025-02-13T17:32:33.463Z</time>
      </trkpt>
      <trkpt lat="58.73657195828855" lon="13.928814930841327">
        <ele>63.66</ele>
        <time>2025-02-13T17:33:20.607Z</time>
      </trkpt>
      <trkpt lat="58.736624931916595" lon="13.92897393554449">
        <ele>63.57</ele>
        <time>2025-02-13T17:34:07.752Z</time>
      </trkpt>
      <trkpt lat="58.73667899519205" lon="13.929132940247655">
        <ele>63.48</ele>
        <time>2025-02-13T17:34:54.899Z</time>
      </trkpt>
      <trkpt lat="58.736732974648476" lon="13.9292929507792">
        <ele>63.39</ele>
        <time>2025-02-13T17:35:42.048Z</time>
      </trkpt>
      <trkpt lat="58.73678594827652" lon="13.929450949653983">
        <ele>63.29</ele>
        <time>2025-02-13T17:36:29.198Z</time>
      </trkpt>
      <trkpt lat="58.736839927732944" lon="13.929610960185528">
        <ele>63.2</ele>
        <time>2025-02-13T17:37:16.350Z</time>
      </trkpt>
      <trkpt lat="58.7368939910084" lon="13.929771976545453">
        <ele>63.1</ele>
        <time>2025-02-13T17:38:03.503Z</time>
      </trkpt>
      <trkpt lat="58.736948976293206" lon="13.929933998733759">
        <ele>63.01</ele>
        <time>2025-02-13T17:38:50.658Z</time>
      </trkpt>
      <trkpt lat="58.73700496740639" lon="13.930097948759794">
        <ele>62.91</ele>
        <time>2025-02-13T17:39:37.815Z</time>
      </trkpt>
      <trkpt lat="58.7370599526912" lon="13.93026097677648">
        <ele>62.8</ele>
        <time>2025-02-13T17:40:24.973Z</time>
      </trkpt>
      <trkpt lat="58.73711393214762" lon="13.930425932630897">
        <ele>62.69</ele>
        <time>2025-02-13T17:41:12.133Z</time>
      </trkpt>
      <trkpt lat="58.73716799542308" lon="13.930588960647583">
        <ele>62.59</ele>
        <time>2025-02-13T17:41:59.294Z</time>
      </trkpt>
      <trkpt lat="58.737223986536264" lon="13.930750982835889">
        <ele>62.48</ele>
        <time>2025-02-13T17:42:46.457Z</time>
      </trkpt>
      <trkpt lat="58.73727897182107" lon="13.930912921205163">
        <ele>62.37</ele>
        <time>2025-02-13T17:43:33.622Z</time>
      </trkpt>
      <trkpt lat="58.737334962934256" lon="13.93107594922185">
        <ele>62.25</ele>
        <time>2025-02-13T17:44:20.788Z</time>
      </trkpt>
      <trkpt lat="58.73739195987582" lon="13.931238977238536">
        <ele>62.14</ele>
        <time>2025-02-13T17:45:07.956Z</time>
      </trkpt>
      <trkpt lat="58.73744895681739" lon="13.931402927264571">
        <ele>62.03</ele>
        <time>2025-02-13T17:45:55.126Z</time>
      </trkpt>
      <trkpt lat="58.737505953758955" lon="13.931565955281258">
        <ele>61.91</ele>
        <time>2025-02-13T17:46:42.297Z</time>
      </trkpt>
      <trkpt lat="58.73756194487214" lon="13.931729989126325">
        <ele>61.8</ele>
        <time>2025-02-13T17:47:29.470Z</time>
      </trkpt>
      <trkpt lat="58.73761793598533" lon="13.93189393915236">
        <ele>61.68</ele>
        <time>2025-02-13T17:48:16.644Z</time>
      </trkpt>
      <trkpt lat="58.73767392709851" lon="13.932057972997427">
        <ele>61.57</ele>
        <time>2025-02-13T17:49:03.820Z</time>
      </trkpt>
      <trkpt lat="58.73772899620235" lon="13.932221923023462">
        <ele>61.46</ele>
        <time>2025-02-13T17:49:50.998Z</time>
      </trkpt>
      <trkpt lat="58.737783981487155" lon="13.932384951040149">
        <ele>61.34</ele>
        <time>2025-02-13T17:50:38.177Z</time>
      </trkpt>
      <trkpt lat="58.73783796094358" lon="13.932544961571693">
        <ele>61.23</ele>
        <time>2025-02-13T17:51:25.358Z</time>
      </trkpt>
      <trkpt lat="58.737891940400004" lon="13.932703966274858">
        <ele>61.11</ele>
        <time>2025-02-13T17:52:12.541Z</time>
      </trkpt>
      <trkpt lat="58.73794499784708" lon="13.932862970978022">
        <ele>60.99</ele>
        <time>2025-02-13T17:52:59.725Z</time>
      </trkpt>
      <trkpt lat="58.737997971475124" lon="13.933021975681186">
        <ele>60.87</ele>
        <time>2025-02-13T17:53:46.911Z</time>
      </trkpt>
      <trkpt lat="58.73805195093155" lon="13.93317997455597">
        <ele>60.75</ele>
        <time>2025-02-13T17:54:34.098Z</time>
      </trkpt>
      <trkpt lat="58.73810492455959" lon="13.933336967602372">
        <ele>60.64</ele>
        <time>2025-02-13T17:55:21.287Z</time>
      </trkpt>
      <trkpt lat="58.73815798200667" lon="13.933491948992014">
        <ele>60.52</ele>
        <time>2025-02-13T17:56:08.477Z</time>
      </trkpt>
      <trkpt lat="58.738211961463094" lon="13.933646930381656">
        <ele>60.4</ele>
        <time>2025-02-13T17:56:55.669Z</time>
      </trkpt>
      <trkpt lat="58.73826594091952" lon="13.933800989761949">
        <ele>60.28</ele>
        <time>2025-02-13T17:57:42.862Z</time>
      </trkpt>
      <trkpt lat="58.738317992538214" lon="13.933956976979971">
        <ele>60.16</ele>
        <time>2025-02-13T17:58:30.057Z</time>
      </trkpt>
      <trkpt lat="58.73837096616626" lon="13.934112964197993">
        <ele>60.04</ele>
        <time>2025-02-13T17:59:17.254Z</time>
      </trkpt>
      <trkpt lat="58.7384239397943" lon="13.934266939759254">
        <ele>59.92</ele>
        <time>2025-02-13T18:00:04.452Z</time>
      </trkpt>
      <trkpt lat="58.73847699724138" lon="13.934420999139547">
        <ele>59.81</ele>
        <time>2025-02-13T18:00:51.652Z</time>
      </trkpt>
      <trkpt lat="58.73852997086942" lon="13.934573968872428">
        <ele>59.69</ele>
        <time>2025-02-13T18:01:38.853Z</time>
      </trkpt>
      <trkpt lat="58.738581938669086" lon="13.93472794443369">
        <ele>59.58</ele>
        <time>2025-02-13T18:02:26.056Z</time>
      </trkpt>
      <trkpt lat="58.7386329844594" lon="13.93487999215722">
        <ele>59.47</ele>
        <time>2025-02-13T18:03:13.260Z</time>
      </trkpt>
      <trkpt lat="58.738685958087444" lon="13.93503095023334">
        <ele>59.36</ele>
        <time>2025-02-13T18:04:00.466Z</time>
      </trkpt>
      <trkpt lat="58.73873792588711" lon="13.935181992128491">
        <ele>59.25</ele>
        <time>2025-02-13T18:04:47.673Z</time>
      </trkpt>
      <trkpt lat="58.73878897167742" lon="13.93533093854785">
        <ele>59.13</ele>
        <time>2025-02-13T18:05:34.882Z</time>
      </trkpt>
      <trkpt lat="58.738839933648705" lon="13.93548097461462">
        <ele>59.02</ele>
        <time>2025-02-13T18:06:22.092Z</time>
      </trkpt>
      <trkpt lat="58.7388919852674" lon="13.93563193269074">
        <ele>58.91</ele>
        <time>2025-02-13T18:07:09.304Z</time>
      </trkpt>
      <trkpt lat="58.738942947238684" lon="13.93578196875751">
        <ele>58.8</ele>
        <time>2025-02-13T18:07:56.517Z</time>
      </trkpt>
      <trkpt lat="58.73899499885738" lon="13.935931921005249">
        <ele>58.69</ele>
        <time>2025-02-13T18:08:43.732Z</time>
      </trkpt>
      <trkpt lat="58.73904596082866" lon="13.93608195707202">
        <ele>58.58</ele>
        <time>2025-02-13T18:09:30.948Z</time>
      </trkpt>
      <trkpt lat="58.739096922799945" lon="13.93623098731041">
        <ele>58.47</ele>
        <time>2025-02-13T18:10:18.166Z</time>
      </trkpt>
      <trkpt lat="58.73914897441864" lon="13.936379933729768">
        <ele>58.36</ele>
        <time>2025-02-13T18:11:05.385Z</time>
      </trkpt>
      <trkpt lat="58.73919993638992" lon="13.936527958139777">
        <ele>58.25</ele>
        <time>2025-02-13T18:11:52.606Z</time>
      </trkpt>
      <trkpt lat="58.73925098218024" lon="13.936675982549787">
        <ele>58.14</ele>
        <time>2025-02-13T18:12:39.828Z</time>
      </trkpt>
      <trkpt lat="58.7393029499799" lon="13.936823923140764">
        <ele>58.04</ele>
        <time>2025-02-13T18:13:27.052Z</time>
      </trkpt>
      <trkpt lat="58.739353995770216" lon="13.936970941722393">
        <ele>57.94</ele>
        <time>2025-02-13T18:14:14.277Z</time>
      </trkpt>
      <trkpt lat="58.73940596356988" lon="13.93711594864726">
        <ele>57.84</ele>
        <time>2025-02-13T18:15:01.504Z</time>
      </trkpt>
      <trkpt lat="58.73945793136954" lon="13.937261961400509">
        <ele>57.74</ele>
        <time>2025-02-13T18:15:48.732Z</time>
      </trkpt>
      <trkpt lat="58.73950897715986" lon="13.937406968325377">
        <ele>57.64</ele>
        <time>2025-02-13T18:16:35.962Z</time>
      </trkpt>
      <trkpt lat="58.73955993913114" lon="13.937551975250244">
        <ele>57.54</ele>
        <time>2025-02-13T18:17:23.193Z</time>
      </trkpt>
      <trkpt lat="58.739610984921455" lon="13.93769497051835">
        <ele>57.44</ele>
        <time>2025-02-13T18:18:10.425Z</time>
      </trkpt>
      <trkpt lat="58.73966295272112" lon="13.937837965786457">
        <ele>57.34</ele>
        <time>2025-02-13T18:18:57.659Z</time>
      </trkpt>
      <trkpt lat="58.73971592634916" lon="13.937979955226183">
        <ele>57.25</ele>
        <time>2025-02-13T18:19:44.894Z</time>
      </trkpt>
      <trkpt lat="58.73976898379624" lon="13.93812295049429">
        <ele>57.14</ele>
        <time>2025-02-13T18:20:32.131Z</time>
      </trkpt>
      <trkpt lat="58.739822963252664" lon="13.938263934105635">
        <ele>57.05</ele>
        <time>2025-02-13T18:21:19.369Z</time>
      </trkpt>
      <trkpt lat="58.73987794853747" lon="13.938403995707631">
        <ele>56.96</ele>
        <time>2025-02-13T18:22:06.609Z</time>
      </trkpt>
      <trkpt lat="58.739932933822274" lon="13.938541961833835">
        <ele>56.87</ele>
        <time>2025-02-13T18:22:53.850Z</time>
      </trkpt>
      <trkpt lat="58.73998993076384" lon="13.938677916303277">
        <ele>56.78</ele>
        <time>2025-02-13T18:23:41.093Z</time>
      </trkpt>
      <trkpt lat="58.74004692770541" lon="13.938814960420132">
        <ele>56.69</ele>
        <time>2025-02-13T18:24:28.337Z</time>
      </trkpt>
      <trkpt lat="58.740104930475354" lon="13.938950998708606">
        <ele>56.6</ele>
        <time>2025-02-13T18:25:15.583Z</time>
      </trkpt>
      <trkpt lat="58.7401629332453" lon="13.939083935692906">
        <ele>56.51</ele>
        <time>2025-02-13T18:26:02.830Z</time>
      </trkpt>
      <trkpt lat="58.74022194184363" lon="13.939215950667858">
        <ele>56.43</ele>
        <time>2025-02-13T18:26:50.078Z</time>
      </trkpt>
      <trkpt lat="58.74028095044196" lon="13.93934796564281">
        <ele>56.34</ele>
        <time>2025-02-13T18:27:37.328Z</time>
      </trkpt>
      <trkpt lat="58.740340964868665" lon="13.939479980617762">
        <ele>56.26</ele>
        <time>2025-02-13T18:28:24.579Z</time>
      </trkpt>
      <trkpt lat="58.740402990952134" lon="13.939609983935952">
        <ele>56.18</ele>
        <time>2025-02-13T18:29:11.832Z</time>
      </trkpt>
      <trkpt lat="58.74046493321657" lon="13.939736969769001">
        <ele>56.11</ele>
        <time>2025-02-13T18:29:59.086Z</time>
      </trkpt>
      <trkpt lat="58.7405289709568" lon="13.93986294977367">
        <ele>56.03</ele>
        <time>2025-02-13T18:30:46.342Z</time>
      </trkpt>
      <trkpt lat="58.74059191904962" lon="13.939988929778337">
        <ele>55.95</ele>
        <time>2025-02-13T18:31:33.599Z</time>
      </trkpt>
      <trkpt lat="58.74065595678985" lon="13.940113987773657">
        <ele>55.88</ele>
        <time>2025-02-13T18:32:20.858Z</time>
      </trkpt>
      <trkpt lat="58.74071999453008" lon="13.940237956121564">
        <ele>55.8</ele>
        <time>2025-02-13T18:33:08.118Z</time>
      </trkpt>
      <trkpt lat="58.74078696593642" lon="13.940359996631742">
        <ele>55.73</ele>
        <time>2025-02-13T18:33:55.380Z</time>
      </trkpt>
      <trkpt lat="58.74085393734276" lon="13.940479941666126">
        <ele>55.66</ele>
        <time>2025-02-13T18:34:42.643Z</time>
      </trkpt>
      <trkpt lat="58.740921998396516" lon="13.940600976347923">
        <ele>55.59</ele>
        <time>2025-02-13T18:35:29.908Z</time>
      </trkpt>
      <trkpt lat="58.74098997563124" lon="13.94071999937296">
        <ele>55.52</ele>
        <time>2025-02-13T18:36:17.174Z</time>
      </trkpt>
      <trkpt lat="58.74105795286596" lon="13.940839944407344">
        <ele>55.45</ele>
        <time>2025-02-13T18:37:04.442Z</time>
      </trkpt>
      <trkpt lat="58.74112794175744" lon="13.940956955775619">
        <ele>55.39</ele>
        <time>2025-02-13T18:37:51.711Z</time>
      </trkpt>
      <trkpt lat="58.74119793064892" lon="13.941072961315513">
        <ele>55.32</ele>
        <time>2025-02-13T18:38:38.982Z</time>
      </trkpt>
      <trkpt lat="58.741268925368786" lon="13.941186955198646">
        <ele>55.26</ele>
        <time>2025-02-13T18:39:26.254Z</time>
      </trkpt>
      <trkpt lat="58.74133992008865" lon="13.941299943253398">
        <ele>55.2</ele>
        <time>2025-02-13T18:40:13.527Z</time>
      </trkpt>
      <trkpt lat="58.74140999279916" lon="13.941414942964911">
        <ele>55.14</ele>
        <time>2025-02-13T18:41:00.802Z</time>
      </trkpt>
      <trkpt lat="58.741479981690645" lon="13.941527931019664">
        <ele>55.09</ele>
        <time>2025-02-13T18:41:48.078Z</time>
      </trkpt>
      <trkpt lat="58.74154997058213" lon="13.941640919074416">
        <ele>55.03</ele>
        <time>2025-02-13T18:42:35.356Z</time>
      </trkpt>
      <trkpt lat="58.74162096530199" lon="13.94175298511982">
        <ele>54.97</ele>
        <time>2025-02-13T18:43:22.635Z</time>
      </trkpt>
      <trkpt lat="58.74169095419347" lon="13.94186295568943">
        <ele>54.92</ele>
        <time>2025-02-13T18:44:09.916Z</time>
      </trkpt>
      <trkpt lat="58.741760943084955" lon="13.941970998421311">
        <ele>54.87</ele>
        <time>2025-02-13T18:44:57.198Z</time>
      </trkpt>
      <trkpt lat="58.74183093197644" lon="13.942079963162541">
        <ele>54.82</ele>
        <time>2025-02-13T18:45:44.482Z</time>
      </trkpt>
      <trkpt lat="58.74190092086792" lon="13.942189933732152">
        <ele>54.77</ele>
        <time>2025-02-13T18:46:31.767Z</time>
      </trkpt>
      <trkpt lat="58.741971999406815" lon="13.942297976464033">
        <ele>54.72</ele>
        <time>2025-02-13T18:47:19.054Z</time>
      </trkpt>
      <trkpt lat="58.7420419882983" lon="13.942406941205263">
        <ele>54.68</ele>
        <time>2025-02-13T18:48:06.342Z</time>
      </trkpt>
      <trkpt lat="58.74211197718978" lon="13.942516995593905">
        <ele>54.63</ele>
        <time>2025-02-13T18:48:53.632Z</time>
      </trkpt>
      <trkpt lat="58.74218196608126" lon="13.942627971991897">
        <ele>54.59</ele>
        <time>2025-02-13T18:49:40.923Z</time>
      </trkpt>
      <trkpt lat="58.742251954972744" lon="13.942736936733127">
        <ele>54.55</ele>
        <time>2025-02-13T18:50:28.215Z</time>
      </trkpt>
      <trkpt lat="58.742321943864226" lon="13.942845985293388">
        <ele>54.5</ele>
        <time>2025-02-13T18:51:15.509Z</time>
      </trkpt>
      <trkpt lat="58.74239193275571" lon="13.94295696169138">
        <ele>54.47</ele>
        <time>2025-02-13T18:52:02.804Z</time>
      </trkpt>
      <trkpt lat="58.74246099963784" lon="13.94306793808937">
        <ele>54.43</ele>
        <time>2025-02-13T18:52:50.101Z</time>
      </trkpt>
      <trkpt lat="58.742530988529325" lon="13.943177992478013">
        <ele>54.39</ele>
        <time>2025-02-13T18:53:37.399Z</time>
      </trkpt>
      <trkpt lat="58.74260198324919" lon="13.943285951390862">
        <ele>54.35</ele>
        <time>2025-02-13T18:54:24.699Z</time>
      </trkpt>
      <trkpt lat="58.74267197214067" lon="13.943395921960473">
        <ele>54.32</ele>
        <time>2025-02-13T18:55:12.000Z</time>
      </trkpt>
      <trkpt lat="58.74274196103215" lon="13.943507988005877">
        <ele>54.28</ele>
        <time>2025-02-13T18:55:59.303Z</time>
      </trkpt>
      <trkpt lat="58.742812955752015" lon="13.943619970232248">
        <ele>54.25</ele>
        <time>2025-02-13T18:56:46.607Z</time>
      </trkpt>
      <trkpt lat="58.74288395047188" lon="13.94373195245862">
        <ele>54.22</ele>
        <time>2025-02-13T18:57:33.913Z</time>
      </trkpt>
      <trkpt lat="58.74295494519174" lon="13.943844940513372">
        <ele>54.19</ele>
        <time>2025-02-13T18:58:21.220Z</time>
      </trkpt>
      <trkpt lat="58.743025939911604" lon="13.943957928568125">
        <ele>54.17</ele>
        <time>2025-02-13T18:59:08.528Z</time>
      </trkpt>
      <trkpt lat="58.743095928803086" lon="13.944070916622877">
        <ele>54.15</ele>
        <time>2025-02-13T18:59:55.838Z</time>
      </trkpt>
      <trkpt lat="58.74316591769457" lon="13.94418097101152">
        <ele>54.12</ele>
        <time>2025-02-13T19:00:43.149Z</time>
      </trkpt>
      <trkpt lat="58.74323699623346" lon="13.94429094158113">
        <ele>54.09</ele>
        <time>2025-02-13T19:01:30.462Z</time>
      </trkpt>
      <trkpt lat="58.743306985124946" lon="13.944401917979121">
        <ele>54.07</ele>
        <time>2025-02-13T19:02:17.776Z</time>
      </trkpt>
      <trkpt lat="58.74337697401643" lon="13.944514989852905">
        <ele>54.05</ele>
        <time>2025-02-13T19:03:05.092Z</time>
      </trkpt>
      <trkpt lat="58.74344696290791" lon="13.944626972079277">
        <ele>54.03</ele>
        <time>2025-02-13T19:03:52.409Z</time>
      </trkpt>
      <trkpt lat="58.74351795762777" lon="13.94474096596241">
        <ele>54.01</ele>
        <time>2025-02-13T19:04:39.728Z</time>
      </trkpt>
      <trkpt lat="58.743588952347636" lon="13.944852948188782">
        <ele>54.0</ele>
        <time>2025-02-13T19:05:27.048Z</time>
      </trkpt>
      <trkpt lat="58.7436599470675" lon="13.944965936243534">
        <ele>53.98</ele>
        <time>2025-02-13T19:06:14.370Z</time>
      </trkpt>
      <trkpt lat="58.74373094178736" lon="13.945079930126667">
        <ele>53.97</ele>
        <time>2025-02-13T19:07:01.693Z</time>
      </trkpt>
      <trkpt lat="58.743801936507225" lon="13.94519291818142">
        <ele>53.95</ele>
        <time>2025-02-13T19:07:49.018Z</time>
      </trkpt>
      <trkpt lat="58.74387192539871" lon="13.945305990055203">
        <ele>53.94</ele>
        <time>2025-02-13T19:08:36.344Z</time>
      </trkpt>
      <trkpt lat="58.74394292011857" lon="13.945419983938336">
        <ele>53.93</ele>
        <time>2025-02-13T19:09:23.672Z</time>
      </trkpt>
      <trkpt lat="58.744012992829084" lon="13.94553498364985">
        <ele>53.92</ele>
        <time>2025-02-13T19:10:11.001Z</time>
      </trkpt>
      <trkpt lat="58.74408298172057" lon="13.945649983361363">
        <ele>53.92</ele>
        <time>2025-02-13T19:10:58.332Z</time>
      </trkpt>
      <trkpt lat="58.74415397644043" lon="13.945763977244496">
        <ele>53.91</ele>
        <time>2025-02-13T19:11:45.664Z</time>
      </trkpt>
      <trkpt lat="58.74422295950353" lon="13.94587897695601">
        <ele>53.9</ele>
        <time>2025-02-13T19:12:32.997Z</time>
      </trkpt>
      <trkpt lat="58.74429194256663" lon="13.945994982495904">
        <ele>53.9</ele>
        <time>2025-02-13T19:13:20.332Z</time>
      </trkpt>
      <trkpt lat="58.744361931458116" lon="13.946111993864179">
        <ele>53.9</ele>
        <time>2025-02-13T19:14:07.668Z</time>
      </trkpt>
      <trkpt lat="58.7444319203496" lon="13.946228921413422">
        <ele>53.9</ele>
        <time>2025-02-13T19:14:55.006Z</time>
      </trkpt>
      <trkpt lat="58.74450199306011" lon="13.946343921124935">
        <ele>53.89</ele>
        <time>2025-02-13T19:15:42.345Z</time>
      </trkpt>
      <trkpt lat="58.744570976123214" lon="13.9464579988271">
        <ele>53.89</ele>
        <time>2025-02-13T19:16:29.686Z</time>
      </trkpt>
      <trkpt lat="58.744639959186316" lon="13.946571992710233">
        <ele>53.9</ele>
        <time>2025-02-13T19:17:17.028Z</time>
      </trkpt>
      <trkpt lat="58.74470894224942" lon="13.946684980764985">
        <ele>53.9</ele>
        <time>2025-02-13T19:18:04.372Z</time>
      </trkpt>
      <trkpt lat="58.74477691948414" lon="13.946797968819737">
        <ele>53.9</ele>
        <time>2025-02-13T19:18:51.717Z</time>
      </trkpt>
      <trkpt lat="58.74484397470951" lon="13.94690995104611">
        <ele>53.91</ele>
        <time>2025-02-13T19:19:39.064Z</time>
      </trkpt>
      <trkpt lat="58.74491094611585" lon="13.94701992161572">
        <ele>53.91</ele>
        <time>2025-02-13T19:20:26.412Z</time>
      </trkpt>
      <trkpt lat="58.74497791752219" lon="13.94712695851922">
        <ele>53.92</ele>
        <time>2025-02-13T19:21:13.761Z</time>
      </trkpt>
      <trkpt lat="58.745043966919184" lon="13.94723298959434">
        <ele>53.93</ele>
        <time>2025-02-13T19:22:01.112Z</time>
      </trkpt>
      <trkpt lat="58.74510892666876" lon="13.947335919365287">
        <ele>53.93</ele>
        <time>2025-02-13T19:22:48.464Z</time>
      </trkpt>
      <trkpt lat="58.74517095275223" lon="13.947438932955265">
        <ele>53.94</ele>
        <time>2025-02-13T19:23:35.817Z</time>
      </trkpt>
      <trkpt lat="58.74523197300732" lon="13.947538929060102">
        <ele>53.95</ele>
        <time>2025-02-13T19:24:23.172Z</time>
      </trkpt>
      <trkpt lat="58.74529098160565" lon="13.947635991498828">
        <ele>53.96</ele>
        <time>2025-02-13T19:25:10.528Z</time>
      </trkpt>
      <trkpt lat="58.74534999020398" lon="13.947729952633381">
        <ele>53.97</ele>
        <time>2025-02-13T19:25:57.885Z</time>
      </trkpt>
      <trkpt lat="58.745408998802304" lon="13.94781595095992">
        <ele>53.98</ele>
        <time>2025-02-13T19:26:45.243Z</time>
      </trkpt>
      <trkpt lat="58.74546993523836" lon="13.947891974821687">
        <ele>54.0</ele>
        <time>2025-02-13T19:27:32.603Z</time>
      </trkpt>
      <trkpt lat="58.74553196132183" lon="13.947957940399647">
        <ele>54.01</ele>
        <time>2025-02-13T19:28:19.964Z</time>
      </trkpt>
      <trkpt lat="58.7455939874053" lon="13.948017954826355">
        <ele>54.03</ele>
        <time>2025-02-13T19:29:07.326Z</time>
      </trkpt>
      <trkpt lat="58.74565391801298" lon="13.948082998394966">
        <ele>54.05</ele>
        <time>2025-02-13T19:29:54.689Z</time>
      </trkpt>
      <trkpt lat="58.745708987116814" lon="13.948152987286448">
        <ele>54.07</ele>
        <time>2025-02-13T19:30:42.053Z</time>
      </trkpt>
      <trkpt lat="58.7457599490881" lon="13.94822297617793">
        <ele>54.08</ele>
        <time>2025-02-13T19:31:29.418Z</time>
      </trkpt>
      <trkpt lat="58.74580596573651" lon="13.94828793592751">
        <ele>54.1</ele>
        <time>2025-02-13T19:32:16.784Z</time>
      </trkpt>
      <trkpt lat="58.74584594741464" lon="13.94834996201098">
        <ele>54.12</ele>
        <time>2025-02-13T19:33:04.151Z</time>
      </trkpt>
      <trkpt lat="58.745880983769894" lon="13.948405953124166">
        <ele>54.14</ele>
        <time>2025-02-13T19:33:51.518Z</time>
      </trkpt>
      <trkpt lat="58.74591794796288" lon="13.948452975600958">
        <ele>54.16</ele>
        <time>2025-02-13T19:34:38.886Z</time>
      </trkpt>
      <trkpt lat="58.74595994129777" lon="13.948476947844028">
        <ele>54.18</ele>
        <time>2025-02-13T19:35:26.255Z</time>
      </trkpt>
      <trkpt lat="58.74600595794618" lon="13.948464961722493">
        <ele>54.21</ele>
        <time>2025-02-13T19:36:13.625Z</time>
      </trkpt>
      <trkpt lat="58.74605197459459" lon="13.948419950902462">
        <ele>54.23</ele>
        <time>2025-02-13T19:37:00.995Z</time>
      </trkpt>
      <trkpt lat="58.74609497375786" lon="13.94835096783936">
        <ele>54.25</ele>
        <time>2025-02-13T19:37:48.366Z</time>
      </trkpt>
      <trkpt lat="58.74613596126437" lon="13.94826396368444">
        <ele>54.28</ele>
        <time>2025-02-13T19:38:35.738Z</time>
      </trkpt>
      <trkpt lat="58.746181977912784" lon="13.948172936215997">
        <ele>54.3</ele>
        <time>2025-02-13T19:39:23.111Z</time>
      </trkpt>
      <trkpt lat="58.74623394571245" lon="13.948081992566586">
        <ele>54.32</ele>
        <time>2025-02-13T19:40:10.486Z</time>
      </trkpt>
      <trkpt lat="58.746292954310775" lon="13.947995994240046">
        <ele>54.35</ele>
        <time>2025-02-13T19:40:57.862Z</time>
      </trkpt>
      <trkpt lat="58.746356992051005" lon="13.947914941236377">
        <ele>54.38</ele>
        <time>2025-02-13T19:41:45.239Z</time>
      </trkpt>
      <trkpt lat="58.746422957628965" lon="13.947837995365262">
        <ele>54.4</ele>
        <time>2025-02-13T19:42:32.617Z</time>
      </trkpt>
      <trkpt lat="58.74649194069207" lon="13.947764988988638">
        <ele>54.43</ele>
        <time>2025-02-13T19:43:19.996Z</time>
      </trkpt>
      <trkpt lat="58.74655991792679" lon="13.947692988440394">
        <ele>54.46</ele>
        <time>2025-02-13T19:44:07.377Z</time>
      </trkpt>
      <trkpt lat="58.74662898480892" lon="13.94762098789215">
        <ele>54.49</ele>
        <time>2025-02-13T19:44:54.759Z</time>
      </trkpt>
      <trkpt lat="58.746697967872024" lon="13.947547981515527">
        <ele>54.51</ele>
        <time>2025-02-13T19:45:42.142Z</time>
      </trkpt>
      <trkpt lat="58.746767956763506" lon="13.947476986795664">
        <ele>54.54</ele>
        <time>2025-02-13T19:46:29.526Z</time>
      </trkpt>
      <trkpt lat="58.74683995731175" lon="13.94740791991353">
        <ele>54.57</ele>
        <time>2025-02-13T19:47:16.912Z</time>
      </trkpt>
      <trkpt lat="58.74691195785999" lon="13.947338936850429">
        <ele>54.6</ele>
        <time>2025-02-13T19:48:04.299Z</time>
      </trkpt>
      <trkpt lat="58.746981946751475" lon="13.947267942130566">
        <ele>54.63</ele>
        <time>2025-02-13T19:48:51.687Z</time>
      </trkpt>
      <trkpt lat="58.74705092981458" lon="13.947196947410703">
        <ele>54.66</ele>
        <time>2025-02-13T19:49:39.077Z</time>
      </trkpt>
      <trkpt lat="58.74711798503995" lon="13.947128970175982">
        <ele>54.69</ele>
        <time>2025-02-13T19:50:26.468Z</time>
      </trkpt>
      <trkpt lat="58.74718596227467" lon="13.947064932435751">
        <ele>54.72</ele>
        <time>2025-02-13T19:51:13.860Z</time>
      </trkpt>
      <trkpt lat="58.74725293368101" lon="13.946999972686172">
        <ele>54.75</ele>
        <time>2025-02-13T19:52:01.253Z</time>
      </trkpt>
      <trkpt lat="58.747318983078" lon="13.946935934945941">
        <ele>54.79</ele>
        <time>2025-02-13T19:52:48.647Z</time>
      </trkpt>
      <trkpt lat="58.7473829369992" lon="13.946871981024742">
        <ele>54.82</ele>
        <time>2025-02-13T19:53:36.043Z</time>
      </trkpt>
      <trkpt lat="58.74744697473943" lon="13.946808949112892">
        <ele>54.85</ele>
        <time>2025-02-13T19:54:23.440Z</time>
      </trkpt>
      <trkpt lat="58.74750992283225" lon="13.946746923029423">
        <ele>54.88</ele>
        <time>2025-02-13T19:55:10.838Z</time>
      </trkpt>
      <trkpt lat="58.74757194891572" lon="13.946685986593366">
        <ele>54.91</ele>
        <time>2025-02-13T19:55:58.237Z</time>
      </trkpt>
      <trkpt lat="58.74763397499919" lon="13.946624966338277">
        <ele>54.94</ele>
        <time>2025-02-13T19:56:45.637Z</time>
      </trkpt>
      <trkpt lat="58.74769692309201" lon="13.946562940254807">
        <ele>54.98</ele>
        <time>2025-02-13T19:57:33.038Z</time>
      </trkpt>
      <trkpt lat="58.74775995500386" lon="13.94649999216199">
        <ele>55.01</ele>
        <time>2025-02-13T19:58:20.440Z</time>
      </trkpt>
      <trkpt lat="58.74782499857247" lon="13.946434948593378">
        <ele>55.04</ele>
        <time>2025-02-13T19:59:07.844Z</time>
      </trkpt>
      <trkpt lat="58.74788995832205" lon="13.946368983015418">
        <ele>55.07</ele>
        <time>2025-02-13T19:59:55.249Z</time>
      </trkpt>
      <trkpt lat="58.74795592390001" lon="13.946302933618426">
        <ele>55.11</ele>
        <time>2025-02-13T20:00:42.655Z</time>
      </trkpt>
      <trkpt lat="58.74802297912538" lon="13.946234956383705">
        <ele>55.14</ele>
        <time>2025-02-13T20:01:30.062Z</time>
      </trkpt>
      <trkpt lat="58.74808995053172" lon="13.946167984977365">
        <ele>55.17</ele>
        <time>2025-02-13T20:02:17.470Z</time>
      </trkpt>
      <trkpt lat="58.74815792776644" lon="13.946102941408753">
        <ele>55.2</ele>
        <time>2025-02-13T20:03:04.880Z</time>
      </trkpt>
      <trkpt lat="58.748224982991815" lon="13.946036975830793">
        <ele>55.24</ele>
        <time>2025-02-13T20:03:52.291Z</time>
      </trkpt>
      <trkpt lat="58.748291954398155" lon="13.945966986939311">
        <ele>55.27</ele>
        <time>2025-02-13T20:04:39.703Z</time>
      </trkpt>
      <trkpt lat="58.748358925804496" lon="13.945897920057178">
        <ele>55.3</ele>
        <time>2025-02-13T20:05:27.116Z</time>
      </trkpt>
      <trkpt lat="58.74842799268663" lon="13.945829942822456">
        <ele>55.33</ele>
        <time>2025-02-13T20:06:14.530Z</time>
      </trkpt>
      <trkpt lat="58.74849798157811" lon="13.945762971416116">
        <ele>55.37</ele>
        <time>2025-02-13T20:07:01.946Z</time>
      </trkpt>
      <trkpt lat="58.74856696464121" lon="13.945693988353014">
        <ele>55.39</ele>
        <time>2025-02-13T20:07:49.363Z</time>
      </trkpt>
      <trkpt lat="58.748635947704315" lon="13.94562492147088">
        <ele>55.42</ele>
        <time>2025-02-13T20:08:36.781Z</time>
      </trkpt>
      <trkpt lat="58.74870794825256" lon="13.945555938407779">
        <ele>55.45</ele>
        <time>2025-02-13T20:09:24.200Z</time>
      </trkpt>
      <trkpt lat="58.7487799488008" lon="13.945485949516296">
        <ele>55.48</ele>
        <time>2025-02-13T20:10:11.621Z</time>
      </trkpt>
      <trkpt lat="58.748850943520665" lon="13.945414954796433">
        <ele>55.51</ele>
        <time>2025-02-13T20:10:59.043Z</time>
      </trkpt>
      <trkpt lat="58.74892294406891" lon="13.94534194841981">
        <ele>55.54</ele>
        <time>2025-02-13T20:11:46.466Z</time>
      </trkpt>
      <trkpt lat="58.74899393878877" lon="13.945267936214805">
        <ele>55.57</ele>
        <time>2025-02-13T20:12:33.891Z</time>
      </trkpt>
      <trkpt lat="58.749065939337015" lon="13.94519492983818">
        <ele>55.6</ele>
        <time>2025-02-13T20:13:21.317Z</time>
      </trkpt>
      <trkpt lat="58.74913995154202" lon="13.945124940946698">
        <ele>55.63</ele>
        <time>2025-02-13T20:14:08.744Z</time>
      </trkpt>
      <trkpt lat="58.749215975403786" lon="13.945052940398455">
        <ele>55.66</ele>
        <time>2025-02-13T20:14:56.173Z</time>
      </trkpt>
      <trkpt lat="58.74928998760879" lon="13.94497892819345">
        <ele>55.7</ele>
        <time>2025-02-13T20:15:43.603Z</time>
      </trkpt>
      <trkpt lat="58.749365927651525" lon="13.944904999807477">
        <ele>55.73</ele>
        <time>2025-02-13T20:16:31.034Z</time>
      </trkpt>
      <trkpt lat="58.74944195151329" lon="13.944829981774092">
        <ele>55.76</ele>
        <time>2025-02-13T20:17:18.467Z</time>
      </trkpt>
      <trkpt lat="58.74951898120344" lon="13.944754963740706">
        <ele>55.79</ele>
        <time>2025-02-13T20:18:05.901Z</time>
      </trkpt>
      <trkpt lat="58.74959592707455" lon="13.944680951535702">
        <ele>55.82</ele>
        <time>2025-02-13T20:18:53.336Z</time>
      </trkpt>
      <trkpt lat="58.74967396259308" lon="13.944607945159078">
        <ele>55.85</ele>
        <time>2025-02-13T20:19:40.773Z</time>
      </trkpt>
      <trkpt lat="58.749752920120955" lon="13.944536950439215">
        <ele>55.88</ele>
        <time>2025-02-13T20:20:28.211Z</time>
      </trkpt>
      <trkpt lat="58.74983296729624" lon="13.944467967376113">
        <ele>55.92</ele>
        <time>2025-02-13T20:21:15.651Z</time>
      </trkpt>
      <trkpt lat="58.7499129306525" lon="13.944398984313011">
        <ele>55.95</ele>
        <time>2025-02-13T20:22:03.092Z</time>
      </trkpt>
      <trkpt lat="58.74999398365617" lon="13.94433494657278">
        <ele>55.98</ele>
        <time>2025-02-13T20:22:50.534Z</time>
      </trkpt>
      <trkpt lat="58.750074952840805" lon="13.944276943802834">
        <ele>56.01</ele>
        <time>2025-02-13T20:23:37.978Z</time>
      </trkpt>
      <trkpt lat="58.7501579336822" lon="13.944222964346409">
        <ele>56.03</ele>
        <time>2025-02-13T20:24:25.423Z</time>
      </trkpt>
      <trkpt lat="58.75024099834263" lon="13.944170996546745">
        <ele>56.06</ele>
        <time>2025-02-13T20:25:12.870Z</time>
      </trkpt>
      <trkpt lat="58.75032498501241" lon="13.944121962413192">
        <ele>56.08</ele>
        <time>2025-02-13T20:26:00.318Z</time>
      </trkpt>
      <trkpt lat="58.75040997751057" lon="13.94407695159316">
        <ele>56.09</ele>
        <time>2025-02-13T20:26:47.768Z</time>
      </trkpt>
      <trkpt lat="58.75049396418035" lon="13.944038981571794">
        <ele>56.11</ele>
        <time>2025-02-13T20:27:35.219Z</time>
      </trkpt>
      <trkpt lat="58.75057895667851" lon="13.944002939388156">
        <ele>56.13</ele>
        <time>2025-02-13T20:28:22.671Z</time>
      </trkpt>
      <trkpt lat="58.75066495500505" lon="13.943968992680311">
        <ele>56.15</ele>
        <time>2025-02-13T20:29:10.125Z</time>
      </trkpt>
      <trkpt lat="58.75074894167483" lon="13.943939991295338">
        <ele>56.17</ele>
        <time>2025-02-13T20:29:57.580Z</time>
      </trkpt>
      <trkpt lat="58.75083393417299" lon="13.943916941061616">
        <ele>56.19</ele>
        <time>2025-02-13T20:30:45.036Z</time>
      </trkpt>
      <trkpt lat="58.75091792084277" lon="13.943898919969797">
        <ele>56.2</ele>
        <time>2025-02-13T20:31:32.494Z</time>
      </trkpt>
      <trkpt lat="58.75100199133158" lon="13.9438849221915">
        <ele>56.22</ele>
        <time>2025-02-13T20:32:19.953Z</time>
      </trkpt>
      <trkpt lat="58.75108698382974" lon="13.943873941898346">
        <ele>56.23</ele>
        <time>2025-02-13T20:33:07.414Z</time>
      </trkpt>
      <trkpt lat="58.751170970499516" lon="13.943864973261952">
        <ele>56.25</ele>
        <time>2025-02-13T20:33:54.876Z</time>
      </trkpt>
      <trkpt lat="58.751255962997675" lon="13.943857932463288">
        <ele>56.26</ele>
        <time>2025-02-13T20:34:42.339Z</time>
      </trkpt>
      <trkpt lat="58.751340955495834" lon="13.943856926634908">
        <ele>56.27</ele>
        <time>2025-02-13T20:35:29.804Z</time>
      </trkpt>
      <trkpt lat="58.751425947993994" lon="13.94385994412005">
        <ele>56.28</ele>
        <time>2025-02-13T20:36:17.270Z</time>
      </trkpt>
      <trkpt lat="58.75150993466377" lon="13.943866984918714">
        <ele>56.29</ele>
        <time>2025-02-13T20:37:04.737Z</time>
      </trkpt>
      <trkpt lat="58.75159492716193" lon="13.943876959383488">
        <ele>56.29</ele>
        <time>2025-02-13T20:37:52.206Z</time>
      </trkpt>
      <trkpt lat="58.75167991966009" lon="13.943890957161784">
        <ele>56.3</ele>
        <time>2025-02-13T20:38:39.676Z</time>
      </trkpt>
      <trkpt lat="58.7517639901489" lon="13.943909984081984">
        <ele>56.3</ele>
        <time>2025-02-13T20:39:27.147Z</time>
      </trkpt>
      <trkpt lat="58.75184898264706" lon="13.943933956325054">
        <ele>56.3</ele>
        <time>2025-02-13T20:40:14.620Z</time>
      </trkpt>
      <trkpt lat="58.75193296931684" lon="13.943962957710028">
        <ele>56.3</ele>
        <time>2025-02-13T20:41:02.094Z</time>
      </trkpt>
      <trkpt lat="58.75201695598662" lon="13.943994976580143">
        <ele>56.3</ele>
        <time>2025-02-13T20:41:49.570Z</time>
      </trkpt>
      <trkpt lat="58.7521009426564" lon="13.944026995450258">
        <ele>56.31</ele>
        <time>2025-02-13T20:42:37.047Z</time>
      </trkpt>
      <trkpt lat="58.752183923497796" lon="13.944061947986484">
        <ele>56.32</ele>
        <time>2025-02-13T20:43:24.525Z</time>
      </trkpt>
      <trkpt lat="58.752265982329845" lon="13.944100923836231">
        <ele>56.32</ele>
        <time>2025-02-13T20:44:12.005Z</time>
      </trkpt>
      <trkpt lat="58.75234795734286" lon="13.944143922999501">
        <ele>56.33</ele>
        <time>2025-02-13T20:44:59.486Z</time>
      </trkpt>
      <trkpt lat="58.75242993235588" lon="13.944187927991152">
        <ele>56.33</ele>
        <time>2025-02-13T20:45:46.968Z</time>
      </trkpt>
      <trkpt lat="58.75251299701631" lon="13.944233944639564">
        <ele>56.32</ele>
        <time>2025-02-13T20:46:34.452Z</time>
      </trkpt>
      <trkpt lat="58.75259597785771" lon="13.944279961287975">
        <ele>56.32</ele>
        <time>2025-02-13T20:47:21.937Z</time>
      </trkpt>
      <trkpt lat="58.75267895869911" lon="13.944324972108006">
        <ele>56.32</ele>
        <time>2025-02-13T20:48:09.423Z</time>
      </trkpt>
      <trkpt lat="58.752759927883744" lon="13.944369982928038">
        <ele>56.31</ele>
        <time>2025-02-13T20:48:56.911Z</time>
      </trkpt>
      <trkpt lat="58.75284098088741" lon="13.944413987919688">
        <ele>56.3</ele>
        <time>2025-02-13T20:49:44.400Z</time>
      </trkpt>
      <trkpt lat="58.75292195007205" lon="13.944456987082958">
        <ele>56.29</ele>
        <time>2025-02-13T20:50:31.891Z</time>
      </trkpt>
      <trkpt lat="58.75300199724734" lon="13.94450199790299">
        <ele>56.29</ele>
        <time>2025-02-13T20:51:19.383Z</time>
      </trkpt>
      <trkpt lat="58.753081960603595" lon="13.94454793073237">
        <ele>56.28</ele>
        <time>2025-02-13T20:52:06.876Z</time>
      </trkpt>
      <trkpt lat="58.75316292978823" lon="13.94459193572402">
        <ele>56.27</ele>
        <time>2025-02-13T20:52:54.371Z</time>
      </trkpt>
      <trkpt lat="58.7532439827919" lon="13.94463594071567">
        <ele>56.26</ele>
        <time>2025-02-13T20:53:41.867Z</time>
      </trkpt>
      <trkpt lat="58.75332495197654" lon="13.944680951535702">
        <ele>56.25</ele>
        <time>2025-02-13T20:54:29.364Z</time>
      </trkpt>
      <trkpt lat="58.753405921161175" lon="13.944723950698972">
        <ele>56.24</ele>
        <time>2025-02-13T20:55:16.863Z</time>
      </trkpt>
      <trkpt lat="58.753487979993224" lon="13.944767955690622">
        <ele>56.23</ele>
        <time>2025-02-13T20:56:04.363Z</time>
      </trkpt>
      <trkpt lat="58.75356894917786" lon="13.944811960682273">
        <ele>56.22</ele>
        <time>2025-02-13T20:56:51.864Z</time>
      </trkpt>
      <trkpt lat="58.7536499183625" lon="13.944855965673923">
        <ele>56.21</ele>
        <time>2025-02-13T20:57:39.367Z</time>
      </trkpt>
      <trkpt lat="58.75373197719455" lon="13.944899970665574">
        <ele>56.2</ele>
        <time>2025-02-13T20:58:26.871Z</time>
      </trkpt>
      <trkpt lat="58.753813952207565" lon="13.944944981485605">
        <ele>56.19</ele>
        <time>2025-02-13T20:59:14.376Z</time>
      </trkpt>
      <trkpt lat="58.75389693304896" lon="13.944989992305636">
        <ele>56.19</ele>
        <time>2025-02-13T21:00:01.883Z</time>
      </trkpt>
      <trkpt lat="58.75397999770939" lon="13.945034919306636">
        <ele>56.17</ele>
        <time>2025-02-13T21:00:49.391Z</time>
      </trkpt>
      <trkpt lat="58.75406297855079" lon="13.945079930126667">
        <ele>56.16</ele>
        <time>2025-02-13T21:01:36.901Z</time>
      </trkpt>
      <trkpt lat="58.75414595939219" lon="13.945122929289937">
        <ele>56.14</ele>
        <time>2025-02-13T21:02:24.412Z</time>
      </trkpt>
      <trkpt lat="58.75422994606197" lon="13.945165928453207">
        <ele>56.13</ele>
        <time>2025-02-13T21:03:11.924Z</time>
      </trkpt>
      <trkpt lat="58.75431292690337" lon="13.945209933444858">
        <ele>56.11</ele>
        <time>2025-02-13T21:03:59.438Z</time>
      </trkpt>
      <trkpt lat="58.7543959915638" lon="13.945254944264889">
        <ele>56.08</ele>
        <time>2025-02-13T21:04:46.953Z</time>
      </trkpt>
      <trkpt lat="58.754479978233576" lon="13.9453009609133">
        <ele>56.06</ele>
        <time>2025-02-13T21:05:34.469Z</time>
      </trkpt>
      <trkpt lat="58.754563964903355" lon="13.945344965904951">
        <ele>56.04</ele>
        <time>2025-02-13T21:06:21.987Z</time>
      </trkpt>
      <trkpt lat="58.75464694574475" lon="13.945388970896602">
        <ele>56.01</ele>
        <time>2025-02-13T21:07:09.506Z</time>
      </trkpt>
      <trkpt lat="58.75473093241453" lon="13.945432975888252">
        <ele>55.99</ele>
        <time>2025-02-13T21:07:57.027Z</time>
      </trkpt>
      <trkpt lat="58.75481592491269" lon="13.945476980879903">
        <ele>55.96</ele>
        <time>2025-02-13T21:08:44.549Z</time>
      </trkpt>
      <trkpt lat="58.7548999954015" lon="13.945518974214792">
        <ele>55.93</ele>
        <time>2025-02-13T21:09:32.072Z</time>
      </trkpt>
      <trkpt lat="58.75498498789966" lon="13.945560967549682">
        <ele>55.9</ele>
        <time>2025-02-13T21:10:19.597Z</time>
      </trkpt>
      <trkpt lat="58.75506897456944" lon="13.94560094922781">
        <ele>55.86</ele>
        <time>2025-02-13T21:11:07.123Z</time>
      </trkpt>
      <trkpt lat="58.7551539670676" lon="13.945640930905938">
        <ele>55.84</ele>
        <time>2025-02-13T21:11:54.651Z</time>
      </trkpt>
      <trkpt lat="58.75523895956576" lon="13.945679990574718">
        <ele>55.81</ele>
        <time>2025-02-13T21:12:42.180Z</time>
      </trkpt>
      <trkpt lat="58.75532395206392" lon="13.945719972252846">
        <ele>55.78</ele>
        <time>2025-02-13T21:13:29.710Z</time>
      </trkpt>
      <trkpt lat="58.75540995039046" lon="13.945758948102593">
        <ele>55.75</ele>
        <time>2025-02-13T21:14:17.242Z</time>
      </trkpt>
      <trkpt lat="58.75549796037376" lon="13.94579691812396">
        <ele>55.71</ele>
        <time>2025-02-13T21:15:04.775Z</time>
      </trkpt>
      <trkpt lat="58.75558496452868" lon="13.945832960307598">
        <ele>55.68</ele>
        <time>2025-02-13T21:15:52.310Z</time>
      </trkpt>
      <trkpt lat="58.75567398034036" lon="13.945868918672204">
        <ele>55.64</ele>
        <time>2025-02-13T21:16:39.846Z</time>
      </trkpt>
      <trkpt lat="58.75576391816139" lon="13.945905966684222">
        <ele>55.6</ele>
        <time>2025-02-13T21:17:27.384Z</time>
      </trkpt>
      <trkpt lat="58.755852933973074" lon="13.945942930877209">
        <ele>55.56</ele>
        <time>2025-02-13T21:18:14.923Z</time>
      </trkpt>
      <trkpt lat="58.75594396144152" lon="13.945976961404085">
        <ele>55.52</ele>
        <time>2025-02-13T21:19:02.464Z</time>
      </trkpt>
      <trkpt lat="58.75603498890996" lon="13.946009986102581">
        <ele>55.49</ele>
        <time>2025-02-13T21:19:50.006Z</time>
      </trkpt>
      <trkpt lat="58.75612593255937" lon="13.946042926982045">
        <ele>55.45</ele>
        <time>2025-02-13T21:20:37.550Z</time>
      </trkpt>
      <trkpt lat="58.756216960027814" lon="13.946075951680541">
        <ele>55.41</ele>
        <time>2025-02-13T21:21:25.095Z</time>
      </trkpt>
      <trkpt lat="58.75630899332464" lon="13.946106964722276">
        <ele>55.38</ele>
        <time>2025-02-13T21:22:12.642Z</time>
      </trkpt>
      <trkpt lat="58.75640194863081" lon="13.946134960278869">
        <ele>55.34</ele>
        <time>2025-02-13T21:23:00.190Z</time>
      </trkpt>
      <trkpt lat="58.756494987756014" lon="13.946162955835462">
        <ele>55.3</ele>
        <time>2025-02-13T21:23:47.740Z</time>
      </trkpt>
      <trkpt lat="58.756586937233806" lon="13.946191957220435">
        <ele>55.27</ele>
        <time>2025-02-13T21:24:35.291Z</time>
      </trkpt>
      <trkpt lat="58.75667997635901" lon="13.946218946948647">
        <ele>55.23</ele>
        <time>2025-02-13T21:25:22.844Z</time>
      </trkpt>
      <trkpt lat="58.7567719258368" lon="13.946247948333621">
        <ele>55.19</ele>
        <time>2025-02-13T21:26:10.398Z</time>
      </trkpt>
      <trkpt lat="58.756864964962006" lon="13.946277955546975">
        <ele>55.15</ele>
        <time>2025-02-13T21:26:57.954Z</time>
      </trkpt>
      <trkpt lat="58.75695699825883" lon="13.946305951103568">
        <ele>55.12</ele>
        <time>2025-02-13T21:27:45.511Z</time>
      </trkpt>
      <trkpt lat="58.757049953565" lon="13.94633294083178">
        <ele>55.08</ele>
        <time>2025-02-13T21:28:33.070Z</time>
      </trkpt>
      <trkpt lat="58.757141986861825" lon="13.946359930559993">
        <ele>55.05</ele>
        <time>2025-02-13T21:29:20.630Z</time>
      </trkpt>
      <trkpt lat="58.757234942168" lon="13.946387926116586">
        <ele>55.01</ele>
        <time>2025-02-13T21:30:08.192Z</time>
      </trkpt>
      <trkpt lat="58.75732697546482" lon="13.94641499966383">
        <ele>54.98</ele>
        <time>2025-02-13T21:30:55.755Z</time>
      </trkpt>
      <trkpt lat="58.75741993077099" lon="13.946440983563662">
        <ele>54.94</ele>
        <time>2025-02-13T21:31:43.320Z</time>
      </trkpt>
      <trkpt lat="58.75751196406782" lon="13.946467973291874">
        <ele>54.9</ele>
        <time>2025-02-13T21:32:30.886Z</time>
      </trkpt>
      <trkpt lat="58.75760399736464" lon="13.946493957191706">
        <ele>54.87</ele>
        <time>2025-02-13T21:33:18.454Z</time>
      </trkpt>
      <trkpt lat="58.75769695267081" lon="13.946519941091537">
        <ele>54.84</ele>
        <time>2025-02-13T21:34:06.023Z</time>
      </trkpt>
      <trkpt lat="58.75778999179602" lon="13.94654793664813">
        <ele>54.8</ele>
        <time>2025-02-13T21:34:53.594Z</time>
      </trkpt>
      <trkpt lat="58.75788294710219" lon="13.946574926376343">
        <ele>54.77</ele>
        <time>2025-02-13T21:35:41.166Z</time>
      </trkpt>
      <trkpt lat="58.757976992055774" lon="13.946601999923587">
        <ele>54.73</ele>
        <time>2025-02-13T21:36:28.740Z</time>
      </trkpt>
      <trkpt lat="58.75807195901871" lon="13.94662999548018">
        <ele>54.69</ele>
        <time>2025-02-13T21:37:16.315Z</time>
      </trkpt>
      <trkpt lat="58.75816692598164" lon="13.946656985208392">
        <ele>54.64</ele>
        <time>2025-02-13T21:38:03.892Z</time>
      </trkpt>
      <trkpt lat="58.758261976763606" lon="13.946683974936604">
        <ele>54.6</ele>
        <time>2025-02-13T21:38:51.470Z</time>
      </trkpt>
      <trkpt lat="58.7583589553833" lon="13.946711970493197">
        <ele>54.56</ele>
        <time>2025-02-13T21:39:39.050Z</time>
      </trkpt>
      <trkpt lat="58.758454928174615" lon="13.94673996604979">
        <ele>54.53</ele>
        <time>2025-02-13T21:40:26.631Z</time>
      </trkpt>
      <trkpt lat="58.75855098478496" lon="13.946768967434764">
        <ele>54.5</ele>
        <time>2025-02-13T21:41:14.214Z</time>
      </trkpt>
      <trkpt lat="58.758646957576275" lon="13.946795957162976">
        <ele>54.47</ele>
        <time>2025-02-13T21:42:01.799Z</time>
      </trkpt>
      <trkpt lat="58.75874192453921" lon="13.94682395271957">
        <ele>54.44</ele>
        <time>2025-02-13T21:42:49.385Z</time>
      </trkpt>
      <trkpt lat="58.758837981149554" lon="13.946851948276162">
        <ele>54.41</ele>
        <time>2025-02-13T21:43:36.973Z</time>
      </trkpt>
      <trkpt lat="58.75893395394087" lon="13.946879943832755">
        <ele>54.38</ele>
        <time>2025-02-13T21:44:24.562Z</time>
      </trkpt>
      <trkpt lat="58.7590289209038" lon="13.946907939389348">
        <ele>54.35</ele>
        <time>2025-02-13T21:45:12.153Z</time>
      </trkpt>
      <trkpt lat="58.75912497751415" lon="13.946935934945941">
        <ele>54.33</ele>
        <time>2025-02-13T21:45:59.745Z</time>
      </trkpt>
      <trkpt lat="58.75921994447708" lon="13.946963930502534">
        <ele>54.3</ele>
        <time>2025-02-13T21:46:47.339Z</time>
      </trkpt>
      <trkpt lat="58.75931499525905" lon="13.946991926059127">
        <ele>54.28</ele>
        <time>2025-02-13T21:47:34.934Z</time>
      </trkpt>
      <trkpt lat="58.75940996222198" lon="13.94701799377799">
        <ele>54.25</ele>
        <time>2025-02-13T21:48:22.531Z</time>
      </trkpt>
      <trkpt lat="58.75950392335653" lon="13.947044983506203">
        <ele>54.23</ele>
        <time>2025-02-13T21:49:10.129Z</time>
      </trkpt>
      <trkpt lat="58.7595989741385" lon="13.947073984891176">
        <ele>54.21</ele>
        <time>2025-02-13T21:49:57.729Z</time>
      </trkpt>
      <trkpt lat="58.75969293527305" lon="13.94710198044777">
        <ele>54.18</ele>
        <time>2025-02-13T21:50:45.331Z</time>
      </trkpt>
      <trkpt lat="58.759786980226636" lon="13.947129976004362">
        <ele>54.16</ele>
        <time>2025-02-13T21:51:32.934Z</time>
      </trkpt>
      <trkpt lat="58.75988194718957" lon="13.947156965732574">
        <ele>54.14</ele>
        <time>2025-02-13T21:52:20.539Z</time>
      </trkpt>
      <trkpt lat="58.759976997971535" lon="13.947184961289167">
        <ele>54.12</ele>
        <time>2025-02-13T21:53:08.145Z</time>
      </trkpt>
      <trkpt lat="58.76007196493447" lon="13.94721295684576">
        <ele>54.1</ele>
        <time>2025-02-13T21:53:55.753Z</time>
      </trkpt>
      <trkpt lat="58.7601669318974" lon="13.947240952402353">
        <ele>54.09</ele>
        <time>2025-02-13T21:54:43.362Z</time>
      </trkpt>
      <trkpt lat="58.76026097685099" lon="13.947269953787327">
        <ele>54.07</ele>
        <time>2025-02-13T21:55:30.973Z</time>
      </trkpt>
      <trkpt lat="58.76035493798554" lon="13.94729794934392">
        <ele>54.05</ele>
        <time>2025-02-13T21:56:18.585Z</time>
      </trkpt>
      <trkpt lat="58.760448982939124" lon="13.947324939072132">
        <ele>54.04</ele>
        <time>2025-02-13T21:57:06.199Z</time>
      </trkpt>
      <trkpt lat="58.76054294407368" lon="13.947352934628725">
        <ele>54.03</ele>
        <time>2025-02-13T21:57:53.814Z</time>
      </trkpt>
      <trkpt lat="58.76063598319888" lon="13.947381936013699">
        <ele>54.03</ele>
        <time>2025-02-13T21:58:41.431Z</time>
      </trkpt>
      <trkpt lat="58.76072893850505" lon="13.947408925741911">
        <ele>54.02</ele>
        <time>2025-02-13T21:59:29.049Z</time>
      </trkpt>
      <trkpt lat="58.760819965973496" lon="13.947434993460774">
        <ele>54.01</ele>
        <time>2025-02-13T22:00:16.669Z</time>
      </trkpt>
      <trkpt lat="58.76091099344194" lon="13.947460977360606">
        <ele>54.0</ele>
        <time>2025-02-13T22:01:04.290Z</time>
      </trkpt>
      <trkpt lat="58.76099992543459" lon="13.947484949603677">
        <ele>53.99</ele>
        <time>2025-02-13T22:01:51.913Z</time>
      </trkpt>
      <trkpt lat="58.76108793541789" lon="13.947508921846747">
        <ele>53.98</ele>
        <time>2025-02-13T22:02:39.537Z</time>
      </trkpt>
      <trkpt lat="58.76117493957281" lon="13.94753398373723">
        <ele>53.98</ele>
        <time>2025-02-13T22:03:27.163Z</time>
      </trkpt>
      <trkpt lat="58.76125993207097" lon="13.947557955980301">
        <ele>53.98</ele>
        <time>2025-02-13T22:04:14.790Z</time>
      </trkpt>
      <trkpt lat="58.76134492456913" lon="13.947582934051752">
        <ele>53.98</ele>
        <time>2025-02-13T22:05:02.418Z</time>
      </trkpt>
      <trkpt lat="58.76142899505794" lon="13.947608917951584">
        <ele>53.98</ele>
        <time>2025-02-13T22:05:50.048Z</time>
      </trkpt>
      <trkpt lat="58.76151298172772" lon="13.947633979842067">
        <ele>53.98</ele>
        <time>2025-02-13T22:06:37.679Z</time>
      </trkpt>
      <trkpt lat="58.7615969683975" lon="13.947657952085137">
        <ele>53.98</ele>
        <time>2025-02-13T22:07:25.311Z</time>
      </trkpt>
      <trkpt lat="58.761679949238896" lon="13.947681924328208">
        <ele>53.99</ele>
        <time>2025-02-13T22:08:12.945Z</time>
      </trkpt>
      <trkpt lat="58.761762930080295" lon="13.94770698621869">
        <ele>53.99</ele>
        <time>2025-02-13T22:09:00.580Z</time>
      </trkpt>
      <trkpt lat="58.761844988912344" lon="13.947731964290142">
        <ele>53.99</ele>
        <time>2025-02-13T22:09:48.216Z</time>
      </trkpt>
      <trkpt lat="58.76192796975374" lon="13.947753924876451">
        <ele>54.0</ele>
        <time>2025-02-13T22:10:35.854Z</time>
      </trkpt>
      <trkpt lat="58.76201095059514" lon="13.947777980938554">
        <ele>54.01</ele>
        <time>2025-02-13T22:11:23.493Z</time>
      </trkpt>
      <trkpt lat="58.76209393143654" lon="13.947801953181624">
        <ele>54.01</ele>
        <time>2025-02-13T22:12:11.133Z</time>
      </trkpt>
      <trkpt lat="58.76217599026859" lon="13.947825925424695">
        <ele>54.01</ele>
        <time>2025-02-13T22:12:58.775Z</time>
      </trkpt>
      <trkpt lat="58.762257965281606" lon="13.947848975658417">
        <ele>54.02</ele>
        <time>2025-02-13T22:13:46.418Z</time>
      </trkpt>
      <trkpt lat="58.76233994029462" lon="13.947873953729868">
        <ele>54.02</ele>
        <time>2025-02-13T22:14:34.062Z</time>
      </trkpt>
      <trkpt lat="58.76242099329829" lon="13.94789893180132">
        <ele>54.02</ele>
        <time>2025-02-13T22:15:21.708Z</time>
      </trkpt>
      <trkpt lat="58.76250196248293" lon="13.947924999520183">
        <ele>54.03</ele>
        <time>2025-02-13T22:16:09.355Z</time>
      </trkpt>
      <trkpt lat="58.76258393749595" lon="13.947951989248395">
        <ele>54.03</ele>
        <time>2025-02-13T22:16:57.003Z</time>
      </trkpt>
      <trkpt lat="58.762664990499616" lon="13.947978978976607">
        <ele>54.04</ele>
        <time>2025-02-13T22:17:44.653Z</time>
      </trkpt>
      <trkpt lat="58.76274595968425" lon="13.94800798036158">
        <ele>54.04</ele>
        <time>2025-02-13T22:18:32.304Z</time>
      </trkpt>
      <trkpt lat="58.76282793469727" lon="13.948036981746554">
        <ele>54.05</ele>
        <time>2025-02-13T22:19:19.956Z</time>
      </trkpt>
      <trkpt lat="58.76290898770094" lon="13.948067994788289">
        <ele>54.06</ele>
        <time>2025-02-13T22:20:07.610Z</time>
      </trkpt>
      <trkpt lat="58.762989956885576" lon="13.948100935667753">
        <ele>54.07</ele>
        <time>2025-02-13T22:20:55.265Z</time>
      </trkpt>
      <trkpt lat="58.76307092607021" lon="13.948133960366249">
        <ele>54.08</ele>
        <time>2025-02-13T22:21:42.921Z</time>
      </trkpt>
      <trkpt lat="58.76315197907388" lon="13.948166985064745">
        <ele>54.09</ele>
        <time>2025-02-13T22:22:30.579Z</time>
      </trkpt>
      <trkpt lat="58.76323294825852" lon="13.94820193760097">
        <ele>54.1</ele>
        <time>2025-02-13T22:23:18.238Z</time>
      </trkpt>
      <trkpt lat="58.76331299543381" lon="13.948239991441369">
        <ele>54.12</ele>
        <time>2025-02-13T22:24:05.898Z</time>
      </trkpt>
      <trkpt lat="58.763392958790064" lon="13.948278967291117">
        <ele>54.13</ele>
        <time>2025-02-13T22:24:53.560Z</time>
      </trkpt>
      <trkpt lat="58.76347292214632" lon="13.948317943140864">
        <ele>54.14</ele>
        <time>2025-02-13T22:25:41.223Z</time>
      </trkpt>
      <trkpt lat="58.76355196349323" lon="13.948357924818993">
        <ele>54.16</ele>
        <time>2025-02-13T22:26:28.887Z</time>
      </trkpt>
      <trkpt lat="58.763631926849484" lon="13.948398996144533">
        <ele>54.17</ele>
        <time>2025-02-13T22:27:16.553Z</time>
      </trkpt>
      <trkpt lat="58.76371096819639" lon="13.948440989479423">
        <ele>54.18</ele>
        <time>2025-02-13T22:28:04.220Z</time>
      </trkpt>
      <trkpt lat="58.76378992572427" lon="13.948482982814312">
        <ele>54.2</ele>
        <time>2025-02-13T22:28:51.888Z</time>
      </trkpt>
      <trkpt lat="58.763868967071176" lon="13.948527993634343">
        <ele>54.22</ele>
        <time>2025-02-13T22:29:39.558Z</time>
      </trkpt>
      <trkpt lat="58.76394691877067" lon="13.948573926463723">
        <ele>54.24</ele>
        <time>2025-02-13T22:30:27.229Z</time>
      </trkpt>
      <trkpt lat="58.76402394846082" lon="13.948620948940516">
        <ele>54.25</ele>
        <time>2025-02-13T22:31:14.901Z</time>
      </trkpt>
      <trkpt lat="58.764101983979344" lon="13.948667971417308">
        <ele>54.26</ele>
        <time>2025-02-13T22:32:02.575Z</time>
      </trkpt>
      <trkpt lat="58.76417993567884" lon="13.94871599972248">
        <ele>54.28</ele>
        <time>2025-02-13T22:32:50.250Z</time>
      </trkpt>
      <trkpt lat="58.764256965368986" lon="13.948764950037003">
        <ele>54.29</ele>
        <time>2025-02-13T22:33:37.926Z</time>
      </trkpt>
      <trkpt lat="58.76433399505913" lon="13.948814989998937">
        <ele>54.31</ele>
        <time>2025-02-13T22:34:25.603Z</time>
      </trkpt>
      <trkpt lat="58.76441094093025" lon="13.9488669577986">
        <ele>54.33</ele>
        <time>2025-02-13T22:35:13.282Z</time>
      </trkpt>
      <trkpt lat="58.76448696479201" lon="13.948918925598264">
        <ele>54.35</ele>
        <time>2025-02-13T22:36:00.962Z</time>
      </trkpt>
      <trkpt lat="58.7645619828254" lon="13.94897298887372">
        <ele>54.36</ele>
        <time>2025-02-13T22:36:48.643Z</time>
      </trkpt>
      <trkpt lat="58.76463792286813" lon="13.949029985815287">
        <ele>54.38</ele>
        <time>2025-02-13T22:37:36.326Z</time>
      </trkpt>
      <trkpt lat="58.7647139467299" lon="13.949085976928473">
        <ele>54.39</ele>
        <time>2025-02-13T22:38:24.010Z</time>
      </trkpt>
      <trkpt lat="58.764788964763284" lon="13.949142973870039">
        <ele>54.4</ele>
        <time>2025-02-13T22:39:11.695Z</time>
      </trkpt>
      <trkpt lat="58.76486398279667" lon="13.949201982468367">
        <ele>54.41</ele>
        <time>2025-02-13T22:39:59.382Z</time>
      </trkpt>
      <trkpt lat="58.764937995001674" lon="13.949260991066694">
        <ele>54.43</ele>
        <time>2025-02-13T22:40:47.070Z</time>
      </trkpt>
      <trkpt lat="58.76501292921603" lon="13.94932092167437">
        <ele>54.44</ele>
        <time>2025-02-13T22:41:34.759Z</time>
      </trkpt>
      <trkpt lat="58.76508593559265" lon="13.94938294775784">
        <ele>54.45</ele>
        <time>2025-02-13T22:42:22.449Z</time>
      </trkpt>
      <trkpt lat="58.765158941969275" lon="13.94944597966969">
        <ele>54.47</ele>
        <time>2025-02-13T22:43:10.141Z</time>
      </trkpt>
      <trkpt lat="58.7652319483459" lon="13.949509933590889">
        <ele>54.48</ele>
        <time>2025-02-13T22:43:57.834Z</time>
      </trkpt>
      <trkpt lat="58.765304954722524" lon="13.94957397133112">
        <ele>54.49</ele>
        <time>2025-02-13T22:44:45.528Z</time>
      </trkpt>
      <trkpt lat="58.76537695527077" lon="13.94963993690908">
        <ele>54.5</ele>
        <time>2025-02-13T22:45:33.224Z</time>
      </trkpt>
      <trkpt lat="58.76544794999063" lon="13.949705986306071">
        <ele>54.51</ele>
        <time>2025-02-13T22:46:20.921Z</time>
      </trkpt>
      <trkpt lat="58.765519950538874" lon="13.949772957712412">
        <ele>54.52</ele>
        <time>2025-02-13T22:47:08.619Z</time>
      </trkpt>
      <trkpt lat="58.76559195108712" lon="13.949840934947133">
        <ele>54.53</ele>
        <time>2025-02-13T22:47:56.318Z</time>
      </trkpt>
      <trkpt lat="58.76566395163536" lon="13.949910923838615">
        <ele>54.54</ele>
        <time>2025-02-13T22:48:44.019Z</time>
      </trkpt>
      <trkpt lat="58.765734946355224" lon="13.949981918558478">
        <ele>54.55</ele>
        <time>2025-02-13T22:49:31.721Z</time>
      </trkpt>
      <trkpt lat="58.76580694690347" lon="13.950053919106722">
        <ele>54.56</ele>
        <time>2025-02-13T22:50:19.424Z</time>
      </trkpt>
      <trkpt lat="58.76587794162333" lon="13.950125919654965">
        <ele>54.57</ele>
        <time>2025-02-13T22:51:07.129Z</time>
      </trkpt>
      <trkpt lat="58.76594893634319" lon="13.95020093768835">
        <ele>54.58</ele>
        <time>2025-02-13T22:51:54.835Z</time>
      </trkpt>
      <trkpt lat="58.766019931063056" lon="13.950275955721736">
        <ele>54.59</ele>
        <time>2025-02-13T22:52:42.542Z</time>
      </trkpt>
      <trkpt lat="58.76608991995454" lon="13.950351979583502">
        <ele>54.6</ele>
        <time>2025-02-13T22:53:30.250Z</time>
      </trkpt>
      <trkpt lat="58.76615999266505" lon="13.950427919626236">
        <ele>54.61</ele>
        <time>2025-02-13T22:54:17.960Z</time>
      </trkpt>
      <trkpt lat="58.766230987384915" lon="13.950505955144763">
        <ele>54.62</ele>
        <time>2025-02-13T22:55:05.671Z</time>
      </trkpt>
      <trkpt lat="58.76629997044802" lon="13.95058499649167">
        <ele>54.63</ele>
        <time>2025-02-13T22:55:53.383Z</time>
      </trkpt>
      <trkpt lat="58.76636895351112" lon="13.950666971504688">
        <ele>54.64</ele>
        <time>2025-02-13T22:56:41.097Z</time>
      </trkpt>
      <trkpt lat="58.7664389424026" lon="13.950748946517706">
        <ele>54.65</ele>
        <time>2025-02-13T22:57:28.812Z</time>
      </trkpt>
      <trkpt lat="58.766509937122464" lon="13.950832933187485">
        <ele>54.65</ele>
        <time>2025-02-13T22:58:16.528Z</time>
      </trkpt>
      <trkpt lat="58.76657992601395" lon="13.950918931514025">
        <ele>54.65</ele>
        <time>2025-02-13T22:59:04.246Z</time>
      </trkpt>
      <trkpt lat="58.76664899289608" lon="13.951005935668945">
        <ele>54.65</ele>
        <time>2025-02-13T22:59:51.965Z</time>
      </trkpt>
      <trkpt lat="58.76671998761594" lon="13.951094951480627">
        <ele>54.66</ele>
        <time>2025-02-13T23:00:39.685Z</time>
      </trkpt>
      <trkpt lat="58.766789976507425" lon="13.95118497312069">
        <ele>54.66</ele>
        <time>2025-02-13T23:01:27.407Z</time>
      </trkpt>
      <trkpt lat="58.76685996539891" lon="13.9512759167701">
        <ele>54.67</ele>
        <time>2025-02-13T23:02:15.130Z</time>
      </trkpt>
      <trkpt lat="58.76692995429039" lon="13.951368955895305">
        <ele>54.67</ele>
        <time>2025-02-13T23:03:02.854Z</time>
      </trkpt>
      <trkpt lat="58.76699893735349" lon="13.951463922858238">
        <ele>54.67</ele>
        <time>2025-02-13T23:03:50.580Z</time>
      </trkpt>
      <trkpt lat="58.767068926244974" lon="13.951558973640203">
        <ele>54.67</ele>
        <time>2025-02-13T23:04:38.307Z</time>
      </trkpt>
      <trkpt lat="58.76713899895549" lon="13.951655952259898">
        <ele>54.68</ele>
        <time>2025-02-13T23:05:26.035Z</time>
      </trkpt>
      <trkpt lat="58.76720798201859" lon="13.951753936707973">
        <ele>54.68</ele>
        <time>2025-02-13T23:06:13.765Z</time>
      </trkpt>
      <trkpt lat="58.76727595925331" lon="13.95185292698443">
        <ele>54.68</ele>
        <time>2025-02-13T23:07:01.496Z</time>
      </trkpt>
      <trkpt lat="58.76734494231641" lon="13.951950995251536">
        <ele>54.68</ele>
        <time>2025-02-13T23:07:49.229Z</time>
      </trkpt>
      <trkpt lat="58.767412919551134" lon="13.952049985527992">
        <ele>54.67</ele>
        <time>2025-02-13T23:08:36.963Z</time>
      </trkpt>
      <trkpt lat="58.76748098060489" lon="13.95215098746121">
        <ele>54.67</ele>
        <time>2025-02-13T23:09:24.698Z</time>
      </trkpt>
      <trkpt lat="58.76754895783961" lon="13.952252995222807">
        <ele>54.67</ele>
        <time>2025-02-13T23:10:12.435Z</time>
      </trkpt>
      <trkpt lat="58.76761693507433" lon="13.952354919165373">
        <ele>54.66</ele>
        <time>2025-02-13T23:11:00.173Z</time>
      </trkpt>
      <trkpt lat="58.7676839902997" lon="13.95245692692697">
        <ele>54.66</ele>
        <time>2025-02-13T23:11:47.912Z</time>
      </trkpt>
      <trkpt lat="58.76775196753442" lon="13.952557928860188">
        <ele>54.66</ele>
        <time>2025-02-13T23:12:35.653Z</time>
      </trkpt>
      <trkpt lat="58.76781893894076" lon="13.952658930793405">
        <ele>54.66</ele>
        <time>2025-02-13T23:13:23.395Z</time>
      </trkpt>
      <trkpt lat="58.767884988337755" lon="13.952759932726622">
        <ele>54.66</ele>
        <time>2025-02-13T23:14:11.139Z</time>
      </trkpt>
      <trkpt lat="58.767951959744096" lon="13.952859928831458">
        <ele>54.66</ele>
        <time>2025-02-13T23:14:58.884Z</time>
      </trkpt>
      <trkpt lat="58.768018931150436" lon="13.952957997098565">
        <ele>54.66</ele>
        <time>2025-02-13T23:15:46.630Z</time>
      </trkpt>
      <trkpt lat="58.76808699220419" lon="13.95305497571826">
        <ele>54.65</ele>
        <time>2025-02-13T23:16:34.378Z</time>
      </trkpt>
      <trkpt lat="58.76815396361053" lon="13.953151954337955">
        <ele>54.65</ele>
        <time>2025-02-13T23:17:22.127Z</time>
      </trkpt>
      <trkpt lat="58.76822194084525" lon="13.95324893295765">
        <ele>54.64</ele>
        <time>2025-02-13T23:18:09.877Z</time>
      </trkpt>
      <trkpt lat="58.76829092390835" lon="13.953343983739614">
        <ele>54.63</ele>
        <time>2025-02-13T23:18:57.629Z</time>
      </trkpt>
      <trkpt lat="58.76836099661887" lon="13.953437944874167">
        <ele>54.62</ele>
        <time>2025-02-13T23:19:45.382Z</time>
      </trkpt>
      <trkpt lat="58.76843098551035" lon="13.953531989827752">
        <ele>54.62</ele>
        <time>2025-02-13T23:20:33.136Z</time>
      </trkpt>
      <trkpt lat="58.76850097440183" lon="13.953623939305544">
        <ele>54.61</ele>
        <time>2025-02-13T23:21:20.892Z</time>
      </trkpt>
      <trkpt lat="58.768572974950075" lon="13.953715972602367">
        <ele>54.6</ele>
        <time>2025-02-13T23:22:08.649Z</time>
      </trkpt>
      <trkpt lat="58.76864497549832" lon="13.95380599424243">
        <ele>54.59</ele>
        <time>2025-02-13T23:22:56.408Z</time>
      </trkpt>
      <trkpt lat="58.76871798187494" lon="13.95389492623508">
        <ele>54.57</ele>
        <time>2025-02-13T23:23:44.168Z</time>
      </trkpt>
      <trkpt lat="58.76879199407995" lon="13.953982936218381">
        <ele>54.56</ele>
        <time>2025-02-13T23:24:31.929Z</time>
      </trkpt>
      <trkpt lat="58.7688669282943" lon="13.954068934544921">
        <ele>54.56</ele>
        <time>2025-02-13T23:25:19.692Z</time>
      </trkpt>
      <trkpt lat="58.76894295215607" lon="13.954155938699841">
        <ele>54.55</ele>
        <time>2025-02-13T23:26:07.456Z</time>
      </trkpt>
      <trkpt lat="58.76901998184621" lon="13.954240931198001">
        <ele>54.53</ele>
        <time>2025-02-13T23:26:55.222Z</time>
      </trkpt>
      <trkpt lat="58.76909893937409" lon="13.95432399585843">
        <ele>54.52</ele>
        <time>2025-02-13T23:27:42.989Z</time>
      </trkpt>
      <trkpt lat="58.769177980721" lon="13.954403959214687">
        <ele>54.51</ele>
        <time>2025-02-13T23:28:30.757Z</time>
      </trkpt>
      <trkpt lat="58.76925794407725" lon="13.954481994733214">
        <ele>54.51</ele>
        <time>2025-02-13T23:29:18.527Z</time>
      </trkpt>
      <trkpt lat="58.76933899708092" lon="13.954558940604329">
        <ele>54.49</ele>
        <time>2025-02-13T23:30:06.298Z</time>
      </trkpt>
      <trkpt lat="58.76941996626556" lon="13.954634964466095">
        <ele>54.48</ele>
        <time>2025-02-13T23:30:54.071Z</time>
      </trkpt>
      <trkpt lat="58.76950194127858" lon="13.9547089766711">
        <ele>54.47</ele>
        <time>2025-02-13T23:31:41.845Z</time>
      </trkpt>
      <trkpt lat="58.769585927948356" lon="13.954779971390963">
        <ele>54.46</ele>
        <time>2025-02-13T23:32:29.621Z</time>
      </trkpt>
      <trkpt lat="58.769668992608786" lon="13.954849960282445">
        <ele>54.45</ele>
        <time>2025-02-13T23:33:17.398Z</time>
      </trkpt>
      <trkpt lat="58.769753985106945" lon="13.954917937517166">
        <ele>54.44</ele>
        <time>2025-02-13T23:34:05.177Z</time>
      </trkpt>
      <trkpt lat="58.769837971776724" lon="13.954983986914158">
        <ele>54.44</ele>
        <time>2025-02-13T23:34:52.957Z</time>
      </trkpt>
      <trkpt lat="58.769923970103264" lon="13.955046935006976">
        <ele>54.44</ele>
        <time>2025-02-13T23:35:40.739Z</time>
      </trkpt>
      <trkpt lat="58.77000896260142" lon="13.955106949433684">
        <ele>54.44</ele>
        <time>2025-02-13T23:36:28.522Z</time>
      </trkpt>
      <trkpt lat="58.77009496092796" lon="13.955164952203631">
        <ele>54.44</ele>
        <time>2025-02-13T23:37:16.306Z</time>
      </trkpt>
      <trkpt lat="58.7701809592545" lon="13.955221949145198">
        <ele>54.43</ele>
        <time>2025-02-13T23:38:04.092Z</time>
      </trkpt>
      <trkpt lat="58.77026695758104" lon="13.955276934430003">
        <ele>54.43</ele>
        <time>2025-02-13T23:38:51.879Z</time>
      </trkpt>
      <trkpt lat="58.7703519500792" lon="13.95533099770546">
        <ele>54.43</ele>
        <time>2025-02-13T23:39:39.668Z</time>
      </trkpt>
      <trkpt lat="58.77043895423412" lon="13.955382965505123">
        <ele>54.42</ele>
        <time>2025-02-13T23:40:27.458Z</time>
      </trkpt>
      <trkpt lat="58.770525958389044" lon="13.955432921648026">
        <ele>54.42</ele>
        <time>2025-02-13T23:41:15.250Z</time>
      </trkpt>
      <trkpt lat="58.770613968372345" lon="13.955479944124818">
        <ele>54.42</ele>
        <time>2025-02-13T23:42:03.043Z</time>
      </trkpt>
      <trkpt lat="58.770701978355646" lon="13.955524954944849">
        <ele>54.42</ele>
        <time>2025-02-13T23:42:50.838Z</time>
      </trkpt>
      <trkpt lat="58.77079099416733" lon="13.955567954108119">
        <ele>54.42</ele>
        <time>2025-02-13T23:43:38.634Z</time>
      </trkpt>
      <trkpt lat="58.77088093198836" lon="13.955608941614628">
        <ele>54.43</ele>
        <time>2025-02-13T23:44:26.432Z</time>
      </trkpt>
      <trkpt lat="58.77097095362842" lon="13.955646995455027">
        <ele>54.43</ele>
        <time>2025-02-13T23:45:14.231Z</time>
      </trkpt>
      <trkpt lat="58.77106097526848" lon="13.955683959648013">
        <ele>54.44</ele>
        <time>2025-02-13T23:46:02.032Z</time>
      </trkpt>
      <trkpt lat="58.771152924746275" lon="13.95571799017489">
        <ele>54.45</ele>
        <time>2025-02-13T23:46:49.834Z</time>
      </trkpt>
      <trkpt lat="58.7712449580431" lon="13.955749925225973">
        <ele>54.46</ele>
        <time>2025-02-13T23:47:37.638Z</time>
      </trkpt>
      <trkpt lat="58.77133598551154" lon="13.955780938267708">
        <ele>54.47</ele>
        <time>2025-02-13T23:48:25.443Z</time>
      </trkpt>
      <trkpt lat="58.77142793498933" lon="13.955809939652681">
        <ele>54.48</ele>
        <time>2025-02-13T23:49:13.250Z</time>
      </trkpt>
      <trkpt lat="58.77151996828616" lon="13.955836929380894">
        <ele>54.48</ele>
        <time>2025-02-13T23:50:01.058Z</time>
      </trkpt>
      <trkpt lat="58.77161292359233" lon="13.955862997099757">
        <ele>54.49</ele>
        <time>2025-02-13T23:50:48.868Z</time>
      </trkpt>
      <trkpt lat="58.77170495688915" lon="13.955887975171208">
        <ele>54.5</ele>
        <time>2025-02-13T23:51:36.679Z</time>
      </trkpt>
      <trkpt lat="58.771796990185976" lon="13.955910941585898">
        <ele>54.52</ele>
        <time>2025-02-13T23:52:24.492Z</time>
      </trkpt>
      <trkpt lat="58.77188994549215" lon="13.95593298599124">
        <ele>54.54</ele>
        <time>2025-02-13T23:53:12.306Z</time>
      </trkpt>
      <trkpt lat="58.77198298461735" lon="13.955952934920788">
        <ele>54.56</ele>
        <time>2025-02-13T23:54:00.122Z</time>
      </trkpt>
      <trkpt lat="58.772076945751905" lon="13.955974979326129">
        <ele>54.58</ele>
        <time>2025-02-13T23:54:47.939Z</time>
      </trkpt>
      <trkpt lat="58.77217099070549" lon="13.955996939912438">
        <ele>54.6</ele>
        <time>2025-02-13T23:55:35.758Z</time>
      </trkpt>
      <trkpt lat="58.772265957668424" lon="13.95602099597454">
        <ele>54.63</ele>
        <time>2025-02-13T23:56:23.578Z</time>
      </trkpt>
      <trkpt lat="58.77235991880298" lon="13.956044968217611">
        <ele>54.65</ele>
        <time>2025-02-13T23:57:11.400Z</time>
      </trkpt>
      <trkpt lat="58.77245396375656" lon="13.95606692880392">
        <ele>54.68</ele>
        <time>2025-02-13T23:57:59.223Z</time>
      </trkpt>
      <trkpt lat="58.772549936547875" lon="13.956090984866023">
        <ele>54.7</ele>
        <time>2025-02-13T23:58:47.048Z</time>
      </trkpt>
      <trkpt lat="58.77264599315822" lon="13.956116968765855">
        <ele>54.73</ele>
        <time>2025-02-13T23:59:34.874Z</time>
      </trkpt>
      <trkpt lat="58.772740960121155" lon="13.956142952665687">
        <ele>54.75</ele>
        <time>2025-02-14T00:00:22.702Z</time>
      </trkpt>
      <trkpt lat="58.77283693291247" lon="13.95617094822228">
        <ele>54.77</ele>
        <time>2025-02-14T00:01:10.531Z</time>
      </trkpt>
      <trkpt lat="58.772931983694434" lon="13.956198943778872">
        <ele>54.8</ele>
        <time>2025-02-14T00:01:58.362Z</time>
      </trkpt>
      <trkpt lat="58.77302795648575" lon="13.956229956820607">
        <ele>54.83</ele>
        <time>2025-02-14T00:02:46.194Z</time>
      </trkpt>
      <trkpt lat="58.77312292344868" lon="13.956264993175864">
        <ele>54.86</ele>
        <time>2025-02-14T00:03:34.028Z</time>
      </trkpt>
      <trkpt lat="58.77321696840227" lon="13.95630195736885">
        <ele>54.9</ele>
        <time>2025-02-14T00:04:21.864Z</time>
      </trkpt>
      <trkpt lat="58.77331092953682" lon="13.956339927390218">
        <ele>54.94</ele>
        <time>2025-02-14T00:05:09.701Z</time>
      </trkpt>
      <trkpt lat="58.773405980318785" lon="13.956379992887378">
        <ele>54.98</ele>
        <time>2025-02-14T00:05:57.540Z</time>
      </trkpt>
      <trkpt lat="58.77349994145334" lon="13.956422992050648">
        <ele>55.03</ele>
        <time>2025-02-14T00:06:45.380Z</time>
      </trkpt>
      <trkpt lat="58.77359298057854" lon="13.956468924880028">
        <ele>55.08</ele>
        <time>2025-02-14T00:07:33.222Z</time>
      </trkpt>
      <trkpt lat="58.773685935884714" lon="13.9565169531852">
        <ele>55.13</ele>
        <time>2025-02-14T00:08:21.065Z</time>
      </trkpt>
      <trkpt lat="58.77377796918154" lon="13.956567998975515">
        <ele>55.19</ele>
        <time>2025-02-14T00:09:08.910Z</time>
      </trkpt>
      <trkpt lat="58.77386991865933" lon="13.956619966775179">
        <ele>55.25</ele>
        <time>2025-02-14T00:09:56.756Z</time>
      </trkpt>
      <trkpt lat="58.77396295778453" lon="13.956675957888365">
        <ele>55.31</ele>
        <time>2025-02-14T00:10:44.604Z</time>
      </trkpt>
      <trkpt lat="58.774053985252976" lon="13.956733960658312">
        <ele>55.37</ele>
        <time>2025-02-14T00:11:32.453Z</time>
      </trkpt>
      <trkpt lat="58.77414492890239" lon="13.95679296925664">
        <ele>55.44</ele>
        <time>2025-02-14T00:12:20.304Z</time>
      </trkpt>
      <trkpt lat="58.77423595637083" lon="13.956854995340109">
        <ele>55.5</ele>
        <time>2025-02-14T00:13:08.157Z</time>
      </trkpt>
      <trkpt lat="58.77432497218251" lon="13.956918949261308">
        <ele>55.57</ele>
        <time>2025-02-14T00:13:56.011Z</time>
      </trkpt>
      <trkpt lat="58.774413987994194" lon="13.956983992829919">
        <ele>55.63</ele>
        <time>2025-02-14T00:14:43.867Z</time>
      </trkpt>
      <trkpt lat="58.774501997977495" lon="13.95705297589302">
        <ele>55.7</ele>
        <time>2025-02-14T00:15:31.724Z</time>
      </trkpt>
      <trkpt lat="58.774589924141765" lon="13.957122964784503">
        <ele>55.78</ele>
        <time>2025-02-14T00:16:19.583Z</time>
      </trkpt>
      <trkpt lat="58.774675922468305" lon="13.957193959504366">
        <ele>55.85</ele>
        <time>2025-02-14T00:17:07.443Z</time>
      </trkpt>
      <trkpt lat="58.774761920794845" lon="13.95726797170937">
        <ele>55.93</ele>
        <time>2025-02-14T00:17:55.305Z</time>
      </trkpt>
      <trkpt lat="58.774845991283655" lon="13.957344917580485">
        <ele>56.01</ele>
        <time>2025-02-14T00:18:43.168Z</time>
      </trkpt>
      <trkpt lat="58.774930983781815" lon="13.957422953099012">
        <ele>56.09</ele>
        <time>2025-02-14T00:19:31.033Z</time>
      </trkpt>
      <trkpt lat="58.77501497045159" lon="13.95750199444592">
        <ele>56.18</ele>
        <time>2025-02-14T00:20:18.899Z</time>
      </trkpt>
      <trkpt lat="58.77509795129299" lon="13.957583969458938">
        <ele>56.27</ele>
        <time>2025-02-14T00:21:06.767Z</time>
      </trkpt>
      <trkpt lat="58.77518093213439" lon="13.957666950300336">
        <ele>56.37</ele>
        <time>2025-02-14T00:21:54.636Z</time>
      </trkpt>
      <trkpt lat="58.77526198513806" lon="13.957751942798495">
        <ele>56.47</ele>
        <time>2025-02-14T00:22:42.507Z</time>
      </trkpt>
      <trkpt lat="58.775342954322696" lon="13.957838946953416">
        <ele>56.57</ele>
        <time>2025-02-14T00:23:30.379Z</time>
      </trkpt>
      <trkpt lat="58.77542098984122" lon="13.957929974421859">
        <ele>56.68</ele>
        <time>2025-02-14T00:24:18.253Z</time>
      </trkpt>
      <trkpt lat="58.77549894154072" lon="13.95802192389965">
        <ele>56.79</ele>
        <time>2025-02-14T00:25:06.128Z</time>
      </trkpt>
      <trkpt lat="58.775574965402484" lon="13.958113957196474">
        <ele>56.9</ele>
        <time>2025-02-14T00:25:54.005Z</time>
      </trkpt>
      <trkpt lat="58.77565098926425" lon="13.958206996321678">
        <ele>57.01</ele>
        <time>2025-02-14T00:26:41.883Z</time>
      </trkpt>
      <trkpt lat="58.7757259234786" lon="13.958301963284612">
        <ele>57.13</ele>
        <time>2025-02-14T00:27:29.762Z</time>
      </trkpt>
      <trkpt lat="58.77579993568361" lon="13.958396930247545">
        <ele>57.25</ele>
        <time>2025-02-14T00:28:17.643Z</time>
      </trkpt>
      <trkpt lat="58.77587294206023" lon="13.958493992686272">
        <ele>57.37</ele>
        <time>2025-02-14T00:29:05.525Z</time>
      </trkpt>
      <trkpt lat="58.775944942608476" lon="13.958590971305966">
        <ele>57.5</ele>
        <time>2025-02-14T00:29:53.409Z</time>
      </trkpt>
      <trkpt lat="58.77601593732834" lon="13.958689961582422">
        <ele>57.62</ele>
        <time>2025-02-14T00:30:41.294Z</time>
      </trkpt>
      <trkpt lat="58.77608492039144" lon="13.95879096351564">
        <ele>57.75</ele>
        <time>2025-02-14T00:31:29.180Z</time>
      </trkpt>
      <trkpt lat="58.776153987273574" lon="13.958892971277237">
        <ele>57.87</ele>
        <time>2025-02-14T00:32:17.068Z</time>
      </trkpt>
      <trkpt lat="58.776220958679914" lon="13.958995984867215">
        <ele>58.0</ele>
        <time>2025-02-14T00:33:04.957Z</time>
      </trkpt>
      <trkpt lat="58.776286924257874" lon="13.959099920466542">
        <ele>58.13</ele>
        <time>2025-02-14T00:33:52.848Z</time>
      </trkpt>
      <trkpt lat="58.776351967826486" lon="13.95920293405652">
        <ele>58.26</ele>
        <time>2025-02-14T00:34:40.740Z</time>
      </trkpt>
      <trkpt lat="58.776415921747684" lon="13.95930695347488">
        <ele>58.4</ele>
        <time>2025-02-14T00:35:28.633Z</time>
      </trkpt>
      <trkpt lat="58.776479959487915" lon="13.959410972893238">
        <ele>58.53</ele>
        <time>2025-02-14T00:36:16.528Z</time>
      </trkpt>
      <trkpt lat="58.776541985571384" lon="13.959514992311597">
        <ele>58.67</ele>
        <time>2025-02-14T00:37:04.424Z</time>
      </trkpt>
      <trkpt lat="58.77660292200744" lon="13.959618927910924">
        <ele>58.8</ele>
        <time>2025-02-14T00:37:52.321Z</time>
      </trkpt>
      <trkpt lat="58.77666293643415" lon="13.959721941500902">
        <ele>58.94</ele>
        <time>2025-02-14T00:38:40.220Z</time>
      </trkpt>
      <trkpt lat="58.77672295086086" lon="13.959825960919261">
        <ele>59.08</ele>
        <time>2025-02-14T00:39:28.120Z</time>
      </trkpt>
      <trkpt lat="58.776782965287566" lon="13.95992897450924">
        <ele>59.22</ele>
        <time>2025-02-14T00:40:16.021Z</time>
      </trkpt>
      <trkpt lat="58.77683996222913" lon="13.960031988099217">
        <ele>59.36</ele>
        <time>2025-02-14T00:41:03.923Z</time>
      </trkpt>
      <trkpt lat="58.7768969591707" lon="13.960132990032434">
        <ele>59.5</ele>
        <time>2025-02-14T00:41:51.827Z</time>
      </trkpt>
      <trkpt lat="58.77695596776903" lon="13.960228962823749">
        <ele>59.65</ele>
        <time>2025-02-14T00:42:39.732Z</time>
      </trkpt>
      <trkpt lat="58.777014976367354" lon="13.960325941443443">
        <ele>59.79</ele>
        <time>2025-02-14T00:43:27.638Z</time>
      </trkpt>
      <trkpt lat="58.77707197330892" lon="13.96042593754828">
        <ele>59.94</ele>
        <time>2025-02-14T00:44:15.545Z</time>
      </trkpt>
      <trkpt lat="58.77712796442211" lon="13.960525933653116">
        <ele>60.09</ele>
        <time>2025-02-14T00:45:03.454Z</time>
      </trkpt>
      <trkpt lat="58.777185967192054" lon="13.960624923929572">
        <ele>60.25</ele>
        <time>2025-02-14T00:45:51.364Z</time>
      </trkpt>
      <trkpt lat="58.777243969962" lon="13.96072399802506">
        <ele>60.4</ele>
        <time>2025-02-14T00:46:39.275Z</time>
      </trkpt>
      <trkpt lat="58.77730197273195" lon="13.960821982473135">
        <ele>60.54</ele>
        <time>2025-02-14T00:47:27.187Z</time>
      </trkpt>
      <trkpt lat="58.777359975501895" lon="13.96091896109283">
        <ele>60.69</ele>
        <time>2025-02-14T00:48:15.101Z</time>
      </trkpt>
      <trkpt lat="58.77741898410022" lon="13.961015939712524">
        <ele>60.84</ele>
        <time>2025-02-14T00:49:03.016Z</time>
      </trkpt>
      <trkpt lat="58.77747698687017" lon="13.96111291833222">
        <ele>60.98</ele>
        <time>2025-02-14T00:49:50.932Z</time>
      </trkpt>
      <trkpt lat="58.77753498964012" lon="13.961207969114184">
        <ele>61.13</ele>
        <time>2025-02-14T00:50:38.849Z</time>
      </trkpt>
      <trkpt lat="58.777592992410064" lon="13.961300924420357">
        <ele>61.27</ele>
        <time>2025-02-14T00:51:26.767Z</time>
      </trkpt>
      <trkpt lat="58.77764998935163" lon="13.9613919518888">
        <ele>61.42</ele>
        <time>2025-02-14T00:52:14.687Z</time>
      </trkpt>
      <trkpt lat="58.77770799212158" lon="13.961482979357243">
        <ele>61.56</ele>
        <time>2025-02-14T00:53:02.608Z</time>
      </trkpt>
      <trkpt lat="58.777765994891524" lon="13.961572917178273">
        <ele>61.7</ele>
        <time>2025-02-14T00:53:50.530Z</time>
      </trkpt>
      <trkpt lat="58.77782491967082" lon="13.961661932989955">
        <ele>61.84</ele>
        <time>2025-02-14T00:54:38.453Z</time>
      </trkpt>
      <trkpt lat="58.77788392826915" lon="13.961749942973256">
        <ele>61.98</ele>
        <time>2025-02-14T00:55:26.377Z</time>
      </trkpt>
      <trkpt lat="58.777943942695856" lon="13.961836947128177">
        <ele>62.12</ele>
        <time>2025-02-14T00:56:14.303Z</time>
      </trkpt>
      <trkpt lat="58.7780019454658" lon="13.961921939626336">
        <ele>62.26</ele>
        <time>2025-02-14T00:57:02.230Z</time>
      </trkpt>
      <trkpt lat="58.77806095406413" lon="13.962006932124496">
        <ele>62.4</ele>
        <time>2025-02-14T00:57:50.158Z</time>
      </trkpt>
      <trkpt lat="58.77811996266246" lon="13.962090918794274">
        <ele>62.54</ele>
        <time>2025-02-14T00:58:38.087Z</time>
      </trkpt>
      <trkpt lat="58.778178971260786" lon="13.962175995111465">
        <ele>62.68</ele>
        <time>2025-02-14T00:59:26.017Z</time>
      </trkpt>
      <trkpt lat="58.77823496237397" lon="13.962258975952864">
        <ele>62.82</ele>
        <time>2025-02-14T01:00:13.948Z</time>
      </trkpt>
      <trkpt lat="58.77829195931554" lon="13.962336927652359">
        <ele>62.95</ele>
        <time>2025-02-14T01:01:01.881Z</time>
      </trkpt>
      <trkpt lat="58.778348956257105" lon="13.962409934028983">
        <ele>63.09</ele>
        <time>2025-02-14T01:01:49.815Z</time>
      </trkpt>
      <trkpt lat="58.77840595319867" lon="13.962480928748846">
        <ele>63.22</ele>
        <time>2025-02-14T01:02:37.750Z</time>
      </trkpt>
      <trkpt lat="58.77846295014024" lon="13.962551923468709">
        <ele>63.35</ele>
        <time>2025-02-14T01:03:25.686Z</time>
      </trkpt>
      <trkpt lat="58.778518941253424" lon="13.962620990350842">
        <ele>63.48</ele>
        <time>2025-02-14T01:04:13.623Z</time>
      </trkpt>
      <trkpt lat="58.77857593819499" lon="13.962688967585564">
        <ele>63.61</ele>
        <time>2025-02-14T01:05:01.561Z</time>
      </trkpt>
      <trkpt lat="58.778631929308176" lon="13.962756944820285">
        <ele>63.74</ele>
        <time>2025-02-14T01:05:49.500Z</time>
      </trkpt>
      <trkpt lat="58.77868993207812" lon="13.962824922055006">
        <ele>63.86</ele>
        <time>2025-02-14T01:06:37.440Z</time>
      </trkpt>
      <trkpt lat="58.77874692901969" lon="13.962890971451998">
        <ele>63.98</ele>
        <time>2025-02-14T01:07:25.381Z</time>
      </trkpt>
      <trkpt lat="58.77880493178964" lon="13.962955931201577">
        <ele>64.11</ele>
        <time>2025-02-14T01:08:13.323Z</time>
      </trkpt>
      <trkpt lat="58.778862934559584" lon="13.963020974770188">
        <ele>64.23</ele>
        <time>2025-02-14T01:09:01.266Z</time>
      </trkpt>
      <trkpt lat="58.77892093732953" lon="13.963084928691387">
        <ele>64.34</ele>
        <time>2025-02-14T01:09:49.210Z</time>
      </trkpt>
      <trkpt lat="58.77898195758462" lon="13.963148966431618">
        <ele>64.46</ele>
        <time>2025-02-14T01:10:37.156Z</time>
      </trkpt>
      <trkpt lat="58.77904398366809" lon="13.963214932009578">
        <ele>64.57</ele>
        <time>2025-02-14T01:11:25.103Z</time>
      </trkpt>
      <trkpt lat="58.7791039980948" lon="13.963277963921428">
        <ele>64.69</ele>
        <time>2025-02-14T01:12:13.051Z</time>
      </trkpt>
      <trkpt lat="58.779167952015996" lon="13.963341917842627">
        <ele>64.8</ele>
        <time>2025-02-14T01:13:01.000Z</time>
      </trkpt>
      <trkpt lat="58.779229978099465" lon="13.963406961411238">
        <ele>64.91</ele>
        <time>2025-02-14T01:13:48.950Z</time>
      </trkpt>
      <trkpt lat="58.779293932020664" lon="13.963469993323088">
        <ele>65.01</ele>
        <time>2025-02-14T01:14:36.901Z</time>
      </trkpt>
      <trkpt lat="58.779359981417656" lon="13.963532941415906">
        <ele>65.11</ele>
        <time>2025-02-14T01:15:24.853Z</time>
      </trkpt>
      <trkpt lat="58.779423935338855" lon="13.963593961670995">
        <ele>65.21</ele>
        <time>2025-02-14T01:16:12.807Z</time>
      </trkpt>
      <trkpt lat="58.779488978907466" lon="13.963655987754464">
        <ele>65.3</ele>
        <time>2025-02-14T01:17:00.762Z</time>
      </trkpt>
      <trkpt lat="58.77955595031381" lon="13.96371591836214">
        <ele>65.39</ele>
        <time>2025-02-14T01:17:48.718Z</time>
      </trkpt>
      <trkpt lat="58.77962392754853" lon="13.963773921132088">
        <ele>65.47</ele>
        <time>2025-02-14T01:18:36.675Z</time>
      </trkpt>
      <trkpt lat="58.77969198860228" lon="13.963831923902035">
        <ele>65.55</ele>
        <time>2025-02-14T01:19:24.633Z</time>
      </trkpt>
      <trkpt lat="58.77976097166538" lon="13.963888920843601">
        <ele>65.63</ele>
        <time>2025-02-14T01:20:12.592Z</time>
      </trkpt>
      <trkpt lat="58.779829954728484" lon="13.963944995775819">
        <ele>65.7</ele>
        <time>2025-02-14T01:21:00.553Z</time>
      </trkpt>
      <trkpt lat="58.779897931963205" lon="13.963997969403863">
        <ele>65.77</ele>
        <time>2025-02-14T01:21:48.515Z</time>
      </trkpt>
      <trkpt lat="58.77996792085469" lon="13.964048931375146">
        <ele>65.84</ele>
        <time>2025-02-14T01:22:36.478Z</time>
      </trkpt>
      <trkpt lat="58.78003899939358" lon="13.96409997716546">
        <ele>65.91</ele>
        <time>2025-02-14T01:23:24.442Z</time>
      </trkpt>
      <trkpt lat="58.780109994113445" lon="13.964153956621885">
        <ele>65.98</ele>
        <time>2025-02-14T01:24:12.408Z</time>
      </trkpt>
      <trkpt lat="58.78017998300493" lon="13.96420693024993">
        <ele>66.04</ele>
        <time>2025-02-14T01:25:00.375Z</time>
      </trkpt>
      <trkpt lat="58.78025298938155" lon="13.964257976040244">
        <ele>66.1</ele>
        <time>2025-02-14T01:25:48.343Z</time>
      </trkpt>
      <trkpt lat="58.780327923595905" lon="13.964306926354766">
        <ele>66.15</ele>
        <time>2025-02-14T01:26:36.312Z</time>
      </trkpt>
      <trkpt lat="58.78040595911443" lon="13.964354954659939">
        <ele>66.2</ele>
        <time>2025-02-14T01:27:24.283Z</time>
      </trkpt>
      <trkpt lat="58.78047997131944" lon="13.964403988793492">
        <ele>66.25</ele>
        <time>2025-02-14T01:28:12.255Z</time>
      </trkpt>
      <trkpt lat="58.78055691719055" lon="13.964453944936395">
        <ele>66.29</ele>
        <time>2025-02-14T01:29:00.228Z</time>
      </trkpt>
      <trkpt lat="58.7806339468807" lon="13.964502979069948">
        <ele>66.33</ele>
        <time>2025-02-14T01:29:48.202Z</time>
      </trkpt>
      <trkpt lat="58.780712988227606" lon="13.96455192938447">
        <ele>66.38</ele>
        <time>2025-02-14T01:30:36.178Z</time>
      </trkpt>
      <trkpt lat="58.78079295158386" lon="13.964600963518023">
        <ele>66.41</ele>
        <time>2025-02-14T01:31:24.155Z</time>
      </trkpt>
      <trkpt lat="58.7808739207685" lon="13.964649997651577">
        <ele>66.45</ele>
        <time>2025-02-14T01:32:12.133Z</time>
      </trkpt>
      <trkpt lat="58.78095396794379" lon="13.964697942137718">
        <ele>66.48</ele>
        <time>2025-02-14T01:33:00.113Z</time>
      </trkpt>
      <trkpt lat="58.781033931300044" lon="13.96474295295775">
        <ele>66.51</ele>
        <time>2025-02-14T01:33:48.094Z</time>
      </trkpt>
      <trkpt lat="58.78111599013209" lon="13.96478796377778">
        <ele>66.54</ele>
        <time>2025-02-14T01:34:36.076Z</time>
      </trkpt>
      <trkpt lat="58.78119695931673" lon="13.964831968769431">
        <ele>66.56</ele>
        <time>2025-02-14T01:35:24.060Z</time>
      </trkpt>
      <trkpt lat="58.78127692267299" lon="13.964875973761082">
        <ele>66.58</ele>
        <time>2025-02-14T01:36:12.045Z</time>
      </trkpt>
      <trkpt lat="58.781356969848275" lon="13.964918972924352">
        <ele>66.59</ele>
        <time>2025-02-14T01:37:00.032Z</time>
      </trkpt>
      <trkpt lat="58.78143793903291" lon="13.96495996043086">
        <ele>66.6</ele>
        <time>2025-02-14T01:37:48.020Z</time>
      </trkpt>
      <trkpt lat="58.7815179862082" lon="13.964999942108989">
        <ele>66.61</ele>
        <time>2025-02-14T01:38:36.009Z</time>
      </trkpt>
      <trkpt lat="58.78159895539284" lon="13.965039923787117">
        <ele>66.61</ele>
        <time>2025-02-14T01:39:24.000Z</time>
      </trkpt>
      <trkpt lat="58.781678918749094" lon="13.965079989284277">
        <ele>66.61</ele>
        <time>2025-02-14T01:40:11.992Z</time>
      </trkpt>
      <trkpt lat="58.78175594843924" lon="13.965118965134025">
        <ele>66.61</ele>
        <time>2025-02-14T01:40:59.985Z</time>
      </trkpt>
      <trkpt lat="58.78183498978615" lon="13.965156935155392">
        <ele>66.59</ele>
        <time>2025-02-14T01:41:47.979Z</time>
      </trkpt>
      <trkpt lat="58.78191294148564" lon="13.96519297733903">
        <ele>66.57</ele>
        <time>2025-02-14T01:42:35.975Z</time>
      </trkpt>
      <trkpt lat="58.78199097700417" lon="13.965226924046874">
        <ele>66.55</ele>
        <time>2025-02-14T01:43:23.972Z</time>
      </trkpt>
      <trkpt lat="58.78207094036043" lon="13.96526095457375">
        <ele>66.53</ele>
        <time>2025-02-14T01:44:11.970Z</time>
      </trkpt>
      <trkpt lat="58.782152999192476" lon="13.965295990929008">
        <ele>66.5</ele>
        <time>2025-02-14T01:44:59.970Z</time>
      </trkpt>
      <trkpt lat="58.78223296254873" lon="13.965330943465233">
        <ele>66.47</ele>
        <time>2025-02-14T01:45:47.971Z</time>
      </trkpt>
      <trkpt lat="58.78231393173337" lon="13.96536497399211">
        <ele>66.43</ele>
        <time>2025-02-14T01:46:35.973Z</time>
      </trkpt>
      <trkpt lat="58.78239498473704" lon="13.965398920699954">
        <ele>66.4</ele>
        <time>2025-02-14T01:47:23.977Z</time>
      </trkpt>
      <trkpt lat="58.782473942264915" lon="13.965429933741689">
        <ele>66.36</ele>
        <time>2025-02-14T01:48:11.982Z</time>
      </trkpt>
      <trkpt lat="58.78255298361182" lon="13.965460946783423">
        <ele>66.32</ele>
        <time>2025-02-14T01:48:59.988Z</time>
      </trkpt>
      <trkpt lat="58.78263294696808" lon="13.965488942340016">
        <ele>66.28</ele>
        <time>2025-02-14T01:49:47.996Z</time>
      </trkpt>
      <trkpt lat="58.78271299414337" lon="13.96551693789661">
        <ele>66.23</ele>
        <time>2025-02-14T01:50:36.005Z</time>
      </trkpt>
      <trkpt lat="58.782794969156384" lon="13.965541999787092">
        <ele>66.18</ele>
        <time>2025-02-14T01:51:24.015Z</time>
      </trkpt>
      <trkpt lat="58.78287895582616" lon="13.965565972030163">
        <ele>66.13</ele>
        <time>2025-02-14T01:52:12.027Z</time>
      </trkpt>
      <trkpt lat="58.78296193666756" lon="13.965590950101614">
        <ele>66.08</ele>
        <time>2025-02-14T01:53:00.040Z</time>
      </trkpt>
      <trkpt lat="58.78304491750896" lon="13.965615928173065">
        <ele>66.03</ele>
        <time>2025-02-14T01:53:48.054Z</time>
      </trkpt>
      <trkpt lat="58.78312898799777" lon="13.965641995891929">
        <ele>65.97</ele>
        <time>2025-02-14T01:54:36.070Z</time>
      </trkpt>
      <trkpt lat="58.78321196883917" lon="13.96566697396338">
        <ele>65.9</ele>
        <time>2025-02-14T01:55:24.087Z</time>
      </trkpt>
      <trkpt lat="58.783291932195425" lon="13.965687928721309">
        <ele>65.84</ele>
        <time>2025-02-14T01:56:12.105Z</time>
      </trkpt>
      <trkpt lat="58.783373991027474" lon="13.965706955641508">
        <ele>65.76</ele>
        <time>2025-02-14T01:57:00.125Z</time>
      </trkpt>
      <trkpt lat="58.78345395438373" lon="13.965726988390088">
        <ele>65.69</ele>
        <time>2025-02-14T01:57:48.146Z</time>
      </trkpt>
      <trkpt lat="58.78353299573064" lon="13.965746937319636">
        <ele>65.6</ele>
        <time>2025-02-14T01:58:36.168Z</time>
      </trkpt>
      <trkpt lat="58.783610947430134" lon="13.965765964239836">
        <ele>65.51</ele>
        <time>2025-02-14T01:59:24.191Z</time>
      </trkpt>
      <trkpt lat="58.78368898294866" lon="13.965784991160035">
        <ele>65.42</ele>
        <time>2025-02-14T02:00:12.216Z</time>
      </trkpt>
      <trkpt lat="58.783766934648156" lon="13.965801922604442">
        <ele>65.32</ele>
        <time>2025-02-14T02:01:00.242Z</time>
      </trkpt>
      <trkpt lat="58.78384497016668" lon="13.96581994369626">
        <ele>65.22</ele>
        <time>2025-02-14T02:01:48.269Z</time>
      </trkpt>
      <trkpt lat="58.78392392769456" lon="13.965835953131318">
        <ele>65.12</ele>
        <time>2025-02-14T02:02:36.297Z</time>
      </trkpt>
      <trkpt lat="58.78400296904147" lon="13.965848945081234">
        <ele>65.01</ele>
        <time>2025-02-14T02:03:24.327Z</time>
      </trkpt>
      <trkpt lat="58.78408092074096" lon="13.965859925374389">
        <ele>64.9</ele>
        <time>2025-02-14T02:04:12.358Z</time>
      </trkpt>
      <trkpt lat="58.78415795043111" lon="13.965871995314956">
        <ele>64.79</ele>
        <time>2025-02-14T02:05:00.390Z</time>
      </trkpt>
      <trkpt lat="58.784233974292874" lon="13.96588297560811">
        <ele>64.68</ele>
        <time>2025-02-14T02:05:48.423Z</time>
      </trkpt>
      <trkpt lat="58.78430999815464" lon="13.965892950072885">
        <ele>64.56</ele>
        <time>2025-02-14T02:06:36.458Z</time>
      </trkpt>
      <trkpt lat="58.784385938197374" lon="13.965902924537659">
        <ele>64.44</ele>
        <time>2025-02-14T02:07:24.494Z</time>
      </trkpt>
      <trkpt lat="58.78446296788752" lon="13.965910971164703">
        <ele>64.32</ele>
        <time>2025-02-14T02:08:12.531Z</time>
      </trkpt>
      <trkpt lat="58.784540919587016" lon="13.965916922315955">
        <ele>64.19</ele>
        <time>2025-02-14T02:09:00.569Z</time>
      </trkpt>
      <trkpt lat="58.78461794927716" lon="13.965919939801097">
        <ele>64.06</ele>
        <time>2025-02-14T02:09:48.609Z</time>
      </trkpt>
      <trkpt lat="58.78469598479569" lon="13.965922957286239">
        <ele>63.92</ele>
        <time>2025-02-14T02:10:36.650Z</time>
      </trkpt>
      <trkpt lat="58.784774942323565" lon="13.965922957286239">
        <ele>63.79</ele>
        <time>2025-02-14T02:11:24.692Z</time>
      </trkpt>
      <trkpt lat="58.78485297784209" lon="13.965922957286239">
        <ele>63.64</ele>
        <time>2025-02-14T02:12:12.735Z</time>
      </trkpt>
      <trkpt lat="58.78492992371321" lon="13.965921951457858">
        <ele>63.49</ele>
        <time>2025-02-14T02:13:00.780Z</time>
      </trkpt>
      <trkpt lat="58.785006953403354" lon="13.965919939801097">
        <ele>63.33</ele>
        <time>2025-02-14T02:13:48.826Z</time>
      </trkpt>
      <trkpt lat="58.7850839830935" lon="13.965915916487575">
        <ele>63.18</ele>
        <time>2025-02-14T02:14:36.873Z</time>
      </trkpt>
      <trkpt lat="58.78516394644976" lon="13.965911976993084">
        <ele>63.03</ele>
        <time>2025-02-14T02:15:24.921Z</time>
      </trkpt>
      <trkpt lat="58.7852409761399" lon="13.9659059420228">
        <ele>62.87</ele>
        <time>2025-02-14T02:16:12.971Z</time>
      </trkpt>
      <trkpt lat="58.78531691618264" lon="13.965899990871549">
        <ele>62.71</ele>
        <time>2025-02-14T02:17:01.022Z</time>
      </trkpt>
      <trkpt lat="58.7853929400444" lon="13.965891944244504">
        <ele>62.55</ele>
        <time>2025-02-14T02:17:49.074Z</time>
      </trkpt>
      <trkpt lat="58.78546896390617" lon="13.96588096395135">
        <ele>62.39</ele>
        <time>2025-02-14T02:18:37.127Z</time>
      </trkpt>
      <trkpt lat="58.785546999424696" lon="13.965867972001433">
        <ele>62.22</ele>
        <time>2025-02-14T02:19:25.182Z</time>
      </trkpt>
      <trkpt lat="58.78562595695257" lon="13.96585799753666">
        <ele>62.05</ele>
        <time>2025-02-14T02:20:13.238Z</time>
      </trkpt>
      <trkpt lat="58.78570592030883" lon="13.965850956737995">
        <ele>61.88</ele>
        <time>2025-02-14T02:21:01.295Z</time>
      </trkpt>
      <trkpt lat="58.78578596748412" lon="13.965842993929982">
        <ele>61.71</ele>
        <time>2025-02-14T02:21:49.353Z</time>
      </trkpt>
      <trkpt lat="58.78586593084037" lon="13.965834947302938">
        <ele>61.54</ele>
        <time>2025-02-14T02:22:37.413Z</time>
      </trkpt>
      <trkpt lat="58.78594597801566" lon="13.965826984494925">
        <ele>61.37</ele>
        <time>2025-02-14T02:23:25.474Z</time>
      </trkpt>
      <trkpt lat="58.7860269472003" lon="13.965820949524641">
        <ele>61.19</ele>
        <time>2025-02-14T02:24:13.536Z</time>
      </trkpt>
      <trkpt lat="58.7861099280417" lon="13.965813992545009">
        <ele>61.0</ele>
        <time>2025-02-14T02:25:01.600Z</time>
      </trkpt>
      <trkpt lat="58.78619592636824" lon="13.965806951746345">
        <ele>60.82</ele>
        <time>2025-02-14T02:25:49.665Z</time>
      </trkpt>
      <trkpt lat="58.78628293052316" lon="13.965798988938332">
        <ele>60.63</ele>
        <time>2025-02-14T02:26:37.731Z</time>
      </trkpt>
      <trkpt lat="58.78636993467808" lon="13.965787924826145">
        <ele>60.43</ele>
        <time>2025-02-14T02:27:25.799Z</time>
      </trkpt>
      <trkpt lat="58.78646096214652" lon="13.96577694453299">
        <ele>60.24</ele>
        <time>2025-02-14T02:28:13.868Z</time>
      </trkpt>
      <trkpt lat="58.78655098378658" lon="13.965769987553358">
        <ele>60.04</ele>
        <time>2025-02-14T02:29:01.939Z</time>
      </trkpt>
      <trkpt lat="58.786639999598265" lon="13.965761940926313">
        <ele>59.84</ele>
        <time>2025-02-14T02:29:50.011Z</time>
      </trkpt>
      <trkpt lat="58.786728931590915" lon="13.9657539781183">
        <ele>59.64</ele>
        <time>2025-02-14T02:30:38.084Z</time>
      </trkpt>
      <trkpt lat="58.7868179474026" lon="13.965744925662875">
        <ele>59.44</ele>
        <time>2025-02-14T02:31:26.159Z</time>
      </trkpt>
      <trkpt lat="58.78690796904266" lon="13.965734951198101">
        <ele>59.23</ele>
        <time>2025-02-14T02:32:14.235Z</time>
      </trkpt>
      <trkpt lat="58.78699698485434" lon="13.965723970904946">
        <ele>59.02</ele>
        <time>2025-02-14T02:33:02.313Z</time>
      </trkpt>
      <trkpt lat="58.78708792850375" lon="13.965714918449521">
        <ele>58.81</ele>
        <time>2025-02-14T02:33:50.392Z</time>
      </trkpt>
      <trkpt lat="58.787179961800575" lon="13.965707961469889">
        <ele>58.6</ele>
        <time>2025-02-14T02:34:38.473Z</time>
      </trkpt>
      <trkpt lat="58.78727098926902" lon="13.965703938156366">
        <ele>58.39</ele>
        <time>2025-02-14T02:35:26.555Z</time>
      </trkpt>
      <trkpt lat="58.78736193291843" lon="13.965698992833495">
        <ele>58.18</ele>
        <time>2025-02-14T02:36:14.639Z</time>
      </trkpt>
      <trkpt lat="58.78745296038687" lon="13.965696981176734">
        <ele>57.98</ele>
        <time>2025-02-14T02:37:02.724Z</time>
      </trkpt>
      <trkpt lat="58.787545999512076" lon="13.965692957863212">
        <ele>57.77</ele>
        <time>2025-02-14T02:37:50.811Z</time>
      </trkpt>
      <trkpt lat="58.78763694316149" lon="13.96569094620645">
        <ele>57.56</ele>
        <time>2025-02-14T02:38:38.899Z</time>
      </trkpt>
      <trkpt lat="58.78772696480155" lon="13.96568994037807">
        <ele>57.34</ele>
        <time>2025-02-14T02:39:26.989Z</time>
      </trkpt>
      <trkpt lat="58.78781992010772" lon="13.965693963691592">
        <ele>57.13</ele>
        <time>2025-02-14T02:40:15.080Z</time>
      </trkpt>
      <trkpt lat="58.78791396506131" lon="13.965702932327986">
        <ele>56.91</ele>
        <time>2025-02-14T02:41:03.173Z</time>
      </trkpt>
      <trkpt lat="58.78800692036748" lon="13.965713996440172">
        <ele>56.7</ele>
        <time>2025-02-14T02:41:51.267Z</time>
      </trkpt>
      <trkpt lat="58.7880989536643" lon="13.965723970904946">
        <ele>56.48</ele>
        <time>2025-02-14T02:42:39.362Z</time>
      </trkpt>
      <trkpt lat="58.788195932284" lon="13.965734951198101">
        <ele>56.26</ele>
        <time>2025-02-14T02:43:27.459Z</time>
      </trkpt>
      <trkpt lat="58.78829492256045" lon="13.965745931491256">
        <ele>56.04</ele>
        <time>2025-02-14T02:44:15.558Z</time>
      </trkpt>
      <trkpt lat="58.78839491866529" lon="13.965757917612791">
        <ele>55.82</ele>
        <time>2025-02-14T02:45:03.658Z</time>
      </trkpt>
      <trkpt lat="58.78849692642689" lon="13.96577199921012">
        <ele>55.6</ele>
        <time>2025-02-14T02:45:51.760Z</time>
      </trkpt>
      <trkpt lat="58.788599940016866" lon="13.965789936482906">
        <ele>55.38</ele>
        <time>2025-02-14T02:46:39.864Z</time>
      </trkpt>
      <trkpt lat="58.788703959435225" lon="13.965809969231486">
        <ele>55.16</ele>
        <time>2025-02-14T02:47:27.969Z</time>
      </trkpt>
      <trkpt lat="58.78880797885358" lon="13.965831929817796">
        <ele>54.94</ele>
        <time>2025-02-14T02:48:16.076Z</time>
      </trkpt>
      <trkpt lat="58.78891099244356" lon="13.965849950909615">
        <ele>54.72</ele>
        <time>2025-02-14T02:49:04.185Z</time>
      </trkpt>
      <trkpt lat="58.78900998272002" lon="13.965867972001433">
        <ele>54.51</ele>
        <time>2025-02-14T02:49:52.295Z</time>
      </trkpt>
      <trkpt lat="58.78910796716809" lon="13.965884987264872">
        <ele>54.29</ele>
        <time>2025-02-14T02:50:40.407Z</time>
      </trkpt>
      <trkpt lat="58.78920393995941" lon="13.96590393036604">
        <ele>54.08</ele>
        <time>2025-02-14T02:51:28.520Z</time>
      </trkpt>
      <trkpt lat="58.78929798491299" lon="13.965924968943">
        <ele>53.88</ele>
        <time>2025-02-14T02:52:16.635Z</time>
      </trkpt>
      <trkpt lat="58.789393957704306" lon="13.96594793535769">
        <ele>53.67</ele>
        <time>2025-02-14T02:53:04.751Z</time>
      </trkpt>
      <trkpt lat="58.78948993049562" lon="13.965971991419792">
        <ele>53.47</ele>
        <time>2025-02-14T02:53:52.869Z</time>
      </trkpt>
      <trkpt lat="58.78958799876273" lon="13.965994957834482">
        <ele>53.26</ele>
        <time>2025-02-14T02:54:40.988Z</time>
      </trkpt>
      <trkpt lat="58.78968698903918" lon="13.966014990583062">
        <ele>53.06</ele>
        <time>2025-02-14T02:55:29.109Z</time>
      </trkpt>
      <trkpt lat="58.78978698514402" lon="13.96603493951261">
        <ele>52.86</ele>
        <time>2025-02-14T02:56:17.232Z</time>
      </trkpt>
      <trkpt lat="58.789886981248856" lon="13.96605497226119">
        <ele>52.66</ele>
        <time>2025-02-14T02:57:05.356Z</time>
      </trkpt>
      <trkpt lat="58.78998697735369" lon="13.966074921190739">
        <ele>52.46</ele>
        <time>2025-02-14T02:57:53.482Z</time>
      </trkpt>
      <trkpt lat="58.79008797928691" lon="13.966092942282557">
        <ele>52.26</ele>
        <time>2025-02-14T02:58:41.610Z</time>
      </trkpt>
      <trkpt lat="58.790187975391746" lon="13.966113980859518">
        <ele>52.07</ele>
        <time>2025-02-14T02:59:29.739Z</time>
      </trkpt>
      <trkpt lat="58.79028495401144" lon="13.966135941445827">
        <ele>51.88</ele>
        <time>2025-02-14T03:00:17.870Z</time>
      </trkpt>
      <trkpt lat="58.790380926802754" lon="13.966155974194407">
        <ele>51.7</ele>
        <time>2025-02-14T03:01:06.002Z</time>
      </trkpt>
      <trkpt lat="58.79047497175634" lon="13.966175923123956">
        <ele>51.52</ele>
        <time>2025-02-14T03:01:54.136Z</time>
      </trkpt>
      <trkpt lat="58.79056692123413" lon="13.966196961700916">
        <ele>51.35</ele>
        <time>2025-02-14T03:02:42.271Z</time>
      </trkpt>
      <trkpt lat="58.790657948702574" lon="13.966216994449496">
        <ele>51.18</ele>
        <time>2025-02-14T03:03:30.408Z</time>
      </trkpt>
      <trkpt lat="58.79074897617102" lon="13.966235937550664">
        <ele>51.0</ele>
        <time>2025-02-14T03:04:18.546Z</time>
      </trkpt>
      <trkpt lat="58.79083991982043" lon="13.966255970299244">
        <ele>50.83</ele>
        <time>2025-02-14T03:05:06.686Z</time>
      </trkpt>
      <trkpt lat="58.79092994146049" lon="13.966274997219443">
        <ele>50.66</ele>
        <time>2025-02-14T03:05:54.827Z</time>
      </trkpt>
      <trkpt lat="58.79101795144379" lon="13.96629293449223">
        <ele>50.49</ele>
        <time>2025-02-14T03:06:42.970Z</time>
      </trkpt>
      <trkpt lat="58.79110394977033" lon="13.966308943927288">
        <ele>50.33</ele>
        <time>2025-02-14T03:07:31.114Z</time>
      </trkpt>
      <trkpt lat="58.79119095392525" lon="13.966327970847487">
        <ele>50.17</ele>
        <time>2025-02-14T03:08:19.259Z</time>
      </trkpt>
      <trkpt lat="58.79127695225179" lon="13.966345991939306">
        <ele>50.01</ele>
        <time>2025-02-14T03:09:07.406Z</time>
      </trkpt>
      <trkpt lat="58.79136194474995" lon="13.966363929212093">
        <ele>49.85</ele>
        <time>2025-02-14T03:09:55.554Z</time>
      </trkpt>
      <trkpt lat="58.79144593141973" lon="13.966386979445815">
        <ele>49.7</ele>
        <time>2025-02-14T03:10:43.703Z</time>
      </trkpt>
      <trkpt lat="58.79153092391789" lon="13.966412963345647">
        <ele>49.55</ele>
        <time>2025-02-14T03:11:31.854Z</time>
      </trkpt>
      <trkpt lat="58.79161591641605" lon="13.966435929760337">
        <ele>49.4</ele>
        <time>2025-02-14T03:12:20.006Z</time>
      </trkpt>
      <trkpt lat="58.79170292057097" lon="13.966457974165678">
        <ele>49.26</ele>
        <time>2025-02-14T03:13:08.160Z</time>
      </trkpt>
      <trkpt lat="58.79178891889751" lon="13.96648295223713">
        <ele>49.12</ele>
        <time>2025-02-14T03:13:56.315Z</time>
      </trkpt>
      <trkpt lat="58.79187592305243" lon="13.96650793030858">
        <ele>48.98</ele>
        <time>2025-02-14T03:14:44.471Z</time>
      </trkpt>
      <trkpt lat="58.79195999354124" lon="13.966534920036793">
        <ele>48.85</ele>
        <time>2025-02-14T03:15:32.629Z</time>
      </trkpt>
      <trkpt lat="58.79204196855426" lon="13.966561993584037">
        <ele>48.72</ele>
        <time>2025-02-14T03:16:20.788Z</time>
      </trkpt>
      <trkpt lat="58.792120926082134" lon="13.96658898331225">
        <ele>48.59</ele>
        <time>2025-02-14T03:17:08.948Z</time>
      </trkpt>
      <trkpt lat="58.79219896160066" lon="13.966614967212081">
        <ele>48.46</ele>
        <time>2025-02-14T03:17:57.110Z</time>
      </trkpt>
      <trkpt lat="58.79227699711919" lon="13.966643968597054">
        <ele>48.34</ele>
        <time>2025-02-14T03:18:45.273Z</time>
      </trkpt>
      <trkpt lat="58.792355954647064" lon="13.96667598746717">
        <ele>48.22</ele>
        <time>2025-02-14T03:19:33.437Z</time>
      </trkpt>
      <trkpt lat="58.79243499599397" lon="13.966709934175014">
        <ele>48.11</ele>
        <time>2025-02-14T03:20:21.603Z</time>
      </trkpt>
      <trkpt lat="58.79251495935023" lon="13.966744970530272">
        <ele>47.99</ele>
        <time>2025-02-14T03:21:09.770Z</time>
      </trkpt>
      <trkpt lat="58.792594922706485" lon="13.966779923066497">
        <ele>47.88</ele>
        <time>2025-02-14T03:21:57.938Z</time>
      </trkpt>
      <trkpt lat="58.79267496988177" lon="13.966817976906896">
        <ele>47.77</ele>
        <time>2025-02-14T03:22:46.108Z</time>
      </trkpt>
      <trkpt lat="58.79275593906641" lon="13.966856952756643">
        <ele>47.66</ele>
        <time>2025-02-14T03:23:34.279Z</time>
      </trkpt>
      <trkpt lat="58.79283699207008" lon="13.966895928606391">
        <ele>47.55</ele>
        <time>2025-02-14T03:24:22.451Z</time>
      </trkpt>
      <trkpt lat="58.79291997291148" lon="13.96693498827517">
        <ele>47.45</ele>
        <time>2025-02-14T03:25:10.625Z</time>
      </trkpt>
      <trkpt lat="58.793000942096114" lon="13.966973964124918">
        <ele>47.35</ele>
        <time>2025-02-14T03:25:58.800Z</time>
      </trkpt>
      <trkpt lat="58.7930809892714" lon="13.967014951631427">
        <ele>47.25</ele>
        <time>2025-02-14T03:26:46.976Z</time>
      </trkpt>
      <trkpt lat="58.7931589409709" lon="13.967055939137936">
        <ele>47.16</ele>
        <time>2025-02-14T03:27:35.154Z</time>
      </trkpt>
      <trkpt lat="58.793235970661044" lon="13.967097932472825">
        <ele>47.07</ele>
        <time>2025-02-14T03:28:23.333Z</time>
      </trkpt>
      <trkpt lat="58.79331291653216" lon="13.967139925807714">
        <ele>46.98</ele>
        <time>2025-02-14T03:29:11.513Z</time>
      </trkpt>
      <trkpt lat="58.793389946222305" lon="13.967182924970984">
        <ele>46.9</ele>
        <time>2025-02-14T03:29:59.694Z</time>
      </trkpt>
      <trkpt lat="58.79346798174083" lon="13.967228941619396">
        <ele>46.82</ele>
        <time>2025-02-14T03:30:47.877Z</time>
      </trkpt>
      <trkpt lat="58.79354593344033" lon="13.967274958267808">
        <ele>46.74</ele>
        <time>2025-02-14T03:31:36.061Z</time>
      </trkpt>
      <trkpt lat="58.793623968958855" lon="13.96731996908784">
        <ele>46.66</ele>
        <time>2025-02-14T03:32:24.246Z</time>
      </trkpt>
      <trkpt lat="58.79369999282062" lon="13.96736598573625">
        <ele>46.59</ele>
        <time>2025-02-14T03:33:12.433Z</time>
      </trkpt>
      <trkpt lat="58.793775932863355" lon="13.967414936050773">
        <ele>46.51</ele>
        <time>2025-02-14T03:34:00.621Z</time>
      </trkpt>
      <trkpt lat="58.79384994506836" lon="13.967463970184326">
        <ele>46.44</ele>
        <time>2025-02-14T03:34:48.810Z</time>
      </trkpt>
      <trkpt lat="58.793923957273364" lon="13.967511998489499">
        <ele>46.37</ele>
        <time>2025-02-14T03:35:37.000Z</time>
      </trkpt>
      <trkpt lat="58.79399696364999" lon="13.96755994297564">
        <ele>46.3</ele>
        <time>2025-02-14T03:36:25.192Z</time>
      </trkpt>
      <trkpt lat="58.79406997002661" lon="13.967610988765955">
        <ele>46.24</ele>
        <time>2025-02-14T03:37:13.385Z</time>
      </trkpt>
      <trkpt lat="58.79414398223162" lon="13.967663962393999">
        <ele>46.17</ele>
        <time>2025-02-14T03:38:01.579Z</time>
      </trkpt>
      <trkpt lat="58.79421992227435" lon="13.967716936022043">
        <ele>46.11</ele>
        <time>2025-02-14T03:38:49.774Z</time>
      </trkpt>
      <trkpt lat="58.79429795779288" lon="13.9677709992975">
        <ele>46.05</ele>
        <time>2025-02-14T03:39:37.971Z</time>
      </trkpt>
      <trkpt lat="58.794376999139786" lon="13.967825984582305">
        <ele>45.99</ele>
        <time>2025-02-14T03:40:26.169Z</time>
      </trkpt>
      <trkpt lat="58.79445696249604" lon="13.967878958210349">
        <ele>45.93</ele>
        <time>2025-02-14T03:41:14.368Z</time>
      </trkpt>
      <trkpt lat="58.7945369258523" lon="13.967929920181632">
        <ele>45.88</ele>
        <time>2025-02-14T03:42:02.569Z</time>
      </trkpt>
      <trkpt lat="58.79461697302759" lon="13.967982977628708">
        <ele>45.83</ele>
        <time>2025-02-14T03:42:50.771Z</time>
      </trkpt>
      <trkpt lat="58.79469593055546" lon="13.968035951256752">
        <ele>45.78</ele>
        <time>2025-02-14T03:43:38.975Z</time>
      </trkpt>
      <trkpt lat="58.79477497190237" lon="13.968089930713177">
        <ele>45.73</ele>
        <time>2025-02-14T03:44:27.180Z</time>
      </trkpt>
      <trkpt lat="58.794853929430246" lon="13.968143993988633">
        <ele>45.69</ele>
        <time>2025-02-14T03:45:15.386Z</time>
      </trkpt>
      <trkpt lat="58.794932970777154" lon="13.968195961788297">
        <ele>45.66</ele>
        <time>2025-02-14T03:46:03.594Z</time>
      </trkpt>
      <trkpt lat="58.79501192830503" lon="13.96824893541634">
        <ele>45.62</ele>
        <time>2025-02-14T03:46:51.803Z</time>
      </trkpt>
      <trkpt lat="58.79509197548032" lon="13.968301992863417">
        <ele>45.59</ele>
        <time>2025-02-14T03:47:40.013Z</time>
      </trkpt>
      <trkpt lat="58.795170933008194" lon="13.968355972319841">
        <ele>45.56</ele>
        <time>2025-02-14T03:48:28.225Z</time>
      </trkpt>
      <trkpt lat="58.79524896852672" lon="13.968410957604647">
        <ele>45.54</ele>
        <time>2025-02-14T03:49:16.438Z</time>
      </trkpt>
      <trkpt lat="58.795326920226216" lon="13.968465942889452">
        <ele>45.51</ele>
        <time>2025-02-14T03:50:04.652Z</time>
      </trkpt>
      <trkpt lat="58.79540394991636" lon="13.968518916517496">
        <ele>45.48</ele>
        <time>2025-02-14T03:50:52.868Z</time>
      </trkpt>
      <trkpt lat="58.79548399709165" lon="13.968573985621333">
        <ele>45.46</ele>
        <time>2025-02-14T03:51:41.085Z</time>
      </trkpt>
      <trkpt lat="58.79556396044791" lon="13.968628970906138">
        <ele>45.44</ele>
        <time>2025-02-14T03:52:29.303Z</time>
      </trkpt>
      <trkpt lat="58.795643923804164" lon="13.968683956190944">
        <ele>45.42</ele>
        <time>2025-02-14T03:53:17.523Z</time>
      </trkpt>
      <trkpt lat="58.79572497680783" lon="13.968737935647368">
        <ele>45.4</ele>
        <time>2025-02-14T03:54:05.744Z</time>
      </trkpt>
      <trkpt lat="58.79580494016409" lon="13.968791998922825">
        <ele>45.4</ele>
        <time>2025-02-14T03:54:53.966Z</time>
      </trkpt>
      <trkpt lat="58.79588498733938" lon="13.96884597837925">
        <ele>45.39</ele>
        <time>2025-02-14T03:55:42.190Z</time>
      </trkpt>
      <trkpt lat="58.79596293903887" lon="13.968897946178913">
        <ele>45.39</ele>
        <time>2025-02-14T03:56:30.415Z</time>
      </trkpt>
      <trkpt lat="58.79604198038578" lon="13.968950919806957">
        <ele>45.39</ele>
        <time>2025-02-14T03:57:18.641Z</time>
      </trkpt>
      <trkpt lat="58.79612194374204" lon="13.969003977254033">
        <ele>45.39</ele>
        <time>2025-02-14T03:58:06.869Z</time>
      </trkpt>
      <trkpt lat="58.796200985088944" lon="13.969059968367219">
        <ele>45.4</ele>
        <time>2025-02-14T03:58:55.098Z</time>
      </trkpt>
      <trkpt lat="58.7962809484452" lon="13.969113947823644">
        <ele>45.4</ele>
        <time>2025-02-14T03:59:43.328Z</time>
      </trkpt>
      <trkpt lat="58.79636191762984" lon="13.969165999442339">
        <ele>45.41</ele>
        <time>2025-02-14T04:00:31.560Z</time>
      </trkpt>
      <trkpt lat="58.79644297063351" lon="13.969217967242002">
        <ele>45.42</ele>
        <time>2025-02-14T04:01:19.793Z</time>
      </trkpt>
      <trkpt lat="58.796523939818144" lon="13.969271946698427">
        <ele>45.43</ele>
        <time>2025-02-14T04:02:08.028Z</time>
      </trkpt>
      <trkpt lat="58.79660499282181" lon="13.969326931983232">
        <ele>45.45</ele>
        <time>2025-02-14T04:02:56.264Z</time>
      </trkpt>
      <trkpt lat="58.79668596200645" lon="13.969381917268038">
        <ele>45.46</ele>
        <time>2025-02-14T04:03:44.501Z</time>
      </trkpt>
      <trkpt lat="58.796765925362706" lon="13.969435980543494">
        <ele>45.48</ele>
        <time>2025-02-14T04:04:32.740Z</time>
      </trkpt>
      <trkpt lat="58.796845972537994" lon="13.969488954171538">
        <ele>45.5</ele>
        <time>2025-02-14T04:05:20.980Z</time>
      </trkpt>
      <trkpt lat="58.79692493006587" lon="13.969540921971202">
        <ele>45.52</ele>
        <time>2025-02-14T04:06:09.221Z</time>
      </trkpt>
      <trkpt lat="58.797000953927636" lon="13.969591967761517">
        <ele>45.54</ele>
        <time>2025-02-14T04:06:57.464Z</time>
      </trkpt>
      <trkpt lat="58.79707597196102" lon="13.9696429297328">
        <ele>45.57</ele>
        <time>2025-02-14T04:07:45.708Z</time>
      </trkpt>
      <trkpt lat="58.797149984166026" lon="13.969692969694734">
        <ele>45.59</ele>
        <time>2025-02-14T04:08:33.953Z</time>
      </trkpt>
      <trkpt lat="58.79722299054265" lon="13.969741920009255">
        <ele>45.62</ele>
        <time>2025-02-14T04:09:22.199Z</time>
      </trkpt>
      <trkpt lat="58.797297924757004" lon="13.96979397162795">
        <ele>45.65</ele>
        <time>2025-02-14T04:10:10.447Z</time>
      </trkpt>
      <trkpt lat="58.79737294279039" lon="13.969845939427614">
        <ele>45.69</ele>
        <time>2025-02-14T04:10:58.696Z</time>
      </trkpt>
      <trkpt lat="58.797448966652155" lon="13.96989899687469">
        <ele>45.73</ele>
        <time>2025-02-14T04:11:46.946Z</time>
      </trkpt>
      <trkpt lat="58.7975259963423" lon="13.969951970502734">
        <ele>45.77</ele>
        <time>2025-02-14T04:12:35.198Z</time>
      </trkpt>
      <trkpt lat="58.797602942213416" lon="13.970005949959159">
        <ele>45.8</ele>
        <time>2025-02-14T04:13:23.451Z</time>
      </trkpt>
      <trkpt lat="58.79767997190356" lon="13.970060935243964">
        <ele>45.84</ele>
        <time>2025-02-14T04:14:11.705Z</time>
      </trkpt>
      <trkpt lat="58.79775792360306" lon="13.97011399269104">
        <ele>45.88</ele>
        <time>2025-02-14T04:14:59.961Z</time>
      </trkpt>
      <trkpt lat="58.797834953293204" lon="13.970166966319084">
        <ele>45.92</ele>
        <time>2025-02-14T04:15:48.218Z</time>
      </trkpt>
      <trkpt lat="58.79791298881173" lon="13.970219939947128">
        <ele>45.96</ele>
        <time>2025-02-14T04:16:36.476Z</time>
      </trkpt>
      <trkpt lat="58.797989934682846" lon="13.970272997394204">
        <ele>46.01</ele>
        <time>2025-02-14T04:17:24.736Z</time>
      </trkpt>
      <trkpt lat="58.79806797020137" lon="13.970326976850629">
        <ele>46.06</ele>
        <time>2025-02-14T04:18:12.997Z</time>
      </trkpt>
      <trkpt lat="58.79814499989152" lon="13.970378944650292">
        <ele>46.1</ele>
        <time>2025-02-14T04:19:01.259Z</time>
      </trkpt>
      <trkpt lat="58.798221945762634" lon="13.970429990440607">
        <ele>46.15</ele>
        <time>2025-02-14T04:19:49.522Z</time>
      </trkpt>
      <trkpt lat="58.7982979696244" lon="13.970482964068651">
        <ele>46.2</ele>
        <time>2025-02-14T04:20:37.787Z</time>
      </trkpt>
      <trkpt lat="58.79837499931455" lon="13.970535937696695">
        <ele>46.25</ele>
        <time>2025-02-14T04:21:26.053Z</time>
      </trkpt>
      <trkpt lat="58.79845093935728" lon="13.970588995143771">
        <ele>46.3</ele>
        <time>2025-02-14T04:22:14.320Z</time>
      </trkpt>
      <trkpt lat="58.79852796904743" lon="13.970640962943435">
        <ele>46.36</ele>
        <time>2025-02-14T04:23:02.589Z</time>
      </trkpt>
      <trkpt lat="58.798604998737574" lon="13.970693936571479">
        <ele>46.42</ele>
        <time>2025-02-14T04:23:50.859Z</time>
      </trkpt>
      <trkpt lat="58.79868194460869" lon="13.970746994018555">
        <ele>46.47</ele>
        <time>2025-02-14T04:24:39.130Z</time>
      </trkpt>
      <trkpt lat="58.798757968470454" lon="13.970799967646599">
        <ele>46.53</ele>
        <time>2025-02-14T04:25:27.403Z</time>
      </trkpt>
      <trkpt lat="58.79883298650384" lon="13.970850929617882">
        <ele>46.59</ele>
        <time>2025-02-14T04:26:15.677Z</time>
      </trkpt>
      <trkpt lat="58.79890792071819" lon="13.970900969579816">
        <ele>46.65</ele>
        <time>2025-02-14T04:27:03.952Z</time>
      </trkpt>
      <trkpt lat="58.7989819329232" lon="13.970950925722718">
        <ele>46.71</ele>
        <time>2025-02-14T04:27:52.228Z</time>
      </trkpt>
      <trkpt lat="58.79905695095658" lon="13.971001971513033">
        <ele>46.76</ele>
        <time>2025-02-14T04:28:40.506Z</time>
      </trkpt>
      <trkpt lat="58.79913096316159" lon="13.971052933484316">
        <ele>46.81</ele>
        <time>2025-02-14T04:29:28.785Z</time>
      </trkpt>
      <trkpt lat="58.79920497536659" lon="13.97110397927463">
        <ele>46.87</ele>
        <time>2025-02-14T04:30:17.065Z</time>
      </trkpt>
      <trkpt lat="58.79927999339998" lon="13.971153935417533">
        <ele>46.92</ele>
        <time>2025-02-14T04:31:05.346Z</time>
      </trkpt>
      <trkpt lat="58.79935492761433" lon="13.971203975379467">
        <ele>46.98</ele>
        <time>2025-02-14T04:31:53.629Z</time>
      </trkpt>
      <trkpt lat="58.79942994564772" lon="13.97125594317913">
        <ele>47.04</ele>
        <time>2025-02-14T04:32:41.913Z</time>
      </trkpt>
      <trkpt lat="58.79950596950948" lon="13.971307994797826">
        <ele>47.09</ele>
        <time>2025-02-14T04:33:30.198Z</time>
      </trkpt>
      <trkpt lat="58.79958199337125" lon="13.97135996259749">
        <ele>47.16</ele>
        <time>2025-02-14T04:34:18.485Z</time>
      </trkpt>
      <trkpt lat="58.799659945070744" lon="13.971410924568772">
        <ele>47.22</ele>
        <time>2025-02-14T04:35:06.773Z</time>
      </trkpt>
      <trkpt lat="58.79973697476089" lon="13.971460964530706">
        <ele>47.28</ele>
        <time>2025-02-14T04:35:55.062Z</time>
      </trkpt>
      <trkpt lat="58.799814926460385" lon="13.97151393815875">
        <ele>47.34</ele>
        <time>2025-02-14T04:36:43.353Z</time>
      </trkpt>
      <trkpt lat="58.79989296197891" lon="13.971567917615175">
        <ele>47.41</ele>
        <time>2025-02-14T04:37:31.645Z</time>
      </trkpt>
      <trkpt lat="58.79996999166906" lon="13.971620975062251">
        <ele>47.47</ele>
        <time>2025-02-14T04:38:19.938Z</time>
      </trkpt>
      <trkpt lat="58.800047943368554" lon="13.971673948690295">
        <ele>47.53</ele>
        <time>2025-02-14T04:39:08.233Z</time>
      </trkpt>
      <trkpt lat="58.8001249730587" lon="13.971725916489959">
        <ele>47.6</ele>
        <time>2025-02-14T04:39:56.529Z</time>
      </trkpt>
      <trkpt lat="58.800202924758196" lon="13.971777968108654">
        <ele>47.66</ele>
        <time>2025-02-14T04:40:44.826Z</time>
      </trkpt>
      <trkpt lat="58.8002819661051" lon="13.971830941736698">
        <ele>47.72</ele>
        <time>2025-02-14T04:41:33.125Z</time>
      </trkpt>
      <trkpt lat="58.8003599178046" lon="13.971884921193123">
        <ele>47.79</ele>
        <time>2025-02-14T04:42:21.425Z</time>
      </trkpt>
      <trkpt lat="58.800436947494745" lon="13.971935966983438">
        <ele>47.84</ele>
        <time>2025-02-14T04:43:09.726Z</time>
      </trkpt>
      <trkpt lat="58.80051297135651" lon="13.97198692895472">
        <ele>47.9</ele>
        <time>2025-02-14T04:43:58.028Z</time>
      </trkpt>
      <trkpt lat="58.80058899521828" lon="13.972037974745035">
        <ele>47.96</ele>
        <time>2025-02-14T04:44:46.332Z</time>
      </trkpt>
      <trkpt lat="58.80066594108939" lon="13.972088936716318">
        <ele>48.02</ele>
        <time>2025-02-14T04:45:34.637Z</time>
      </trkpt>
      <trkpt lat="58.80074196495116" lon="13.972140988335013">
        <ele>48.07</ele>
        <time>2025-02-14T04:46:22.943Z</time>
      </trkpt>
      <trkpt lat="58.80081798881292" lon="13.972191950306296">
        <ele>48.12</ele>
        <time>2025-02-14T04:47:11.251Z</time>
      </trkpt>
      <trkpt lat="58.80089392885566" lon="13.97224492393434">
        <ele>48.18</ele>
        <time>2025-02-14T04:47:59.560Z</time>
      </trkpt>
      <trkpt lat="58.80096995271742" lon="13.972296975553036">
        <ele>48.23</ele>
        <time>2025-02-14T04:48:47.870Z</time>
      </trkpt>
      <trkpt lat="58.80104597657919" lon="13.972346931695938">
        <ele>48.29</ele>
        <time>2025-02-14T04:49:36.182Z</time>
      </trkpt>
      <trkpt lat="58.801122922450304" lon="13.972396971657872">
        <ele>48.34</ele>
        <time>2025-02-14T04:50:24.495Z</time>
      </trkpt>
      <trkpt lat="58.80119894631207" lon="13.972448939457536">
        <ele>48.4</ele>
        <time>2025-02-14T04:51:12.809Z</time>
      </trkpt>
      <trkpt lat="58.801275976002216" lon="13.972500991076231">
        <ele>48.46</ele>
        <time>2025-02-14T04:52:01.124Z</time>
      </trkpt>
      <trkpt lat="58.80135292187333" lon="13.972553964704275">
        <ele>48.51</ele>
        <time>2025-02-14T04:52:49.441Z</time>
      </trkpt>
      <trkpt lat="58.80142995156348" lon="13.97260693833232">
        <ele>48.57</ele>
        <time>2025-02-14T04:53:37.759Z</time>
      </trkpt>
      <trkpt lat="58.80150597542524" lon="13.972657984122634">
        <ele>48.63</ele>
        <time>2025-02-14T04:54:26.078Z</time>
      </trkpt>
      <trkpt lat="58.80158099345863" lon="13.972707940265536">
        <ele>48.68</ele>
        <time>2025-02-14T04:55:14.399Z</time>
      </trkpt>
      <trkpt lat="58.8016549218446" lon="13.97275798022747">
        <ele>48.73</ele>
        <time>2025-02-14T04:56:02.721Z</time>
      </trkpt>
      <trkpt lat="58.80173094570637" lon="13.972807936370373">
        <ele>48.78</ele>
        <time>2025-02-14T04:56:51.044Z</time>
      </trkpt>
      <trkpt lat="58.801807975396514" lon="13.972857976332307">
        <ele>48.83</ele>
        <time>2025-02-14T04:57:39.368Z</time>
      </trkpt>
      <trkpt lat="58.80188399925828" lon="13.97290793247521">
        <ele>48.88</ele>
        <time>2025-02-14T04:58:27.694Z</time>
      </trkpt>
      <trkpt lat="58.801960945129395" lon="13.972958978265524">
        <ele>48.92</ele>
        <time>2025-02-14T04:59:16.021Z</time>
      </trkpt>
      <trkpt lat="58.80203596316278" lon="13.973010946065187">
        <ele>48.97</ele>
        <time>2025-02-14T05:00:04.349Z</time>
      </trkpt>
      <trkpt lat="58.802110981196165" lon="13.973062997683883">
        <ele>49.01</ele>
        <time>2025-02-14T05:00:52.679Z</time>
      </trkpt>
      <trkpt lat="58.80218599922955" lon="13.973113959655166">
        <ele>49.06</ele>
        <time>2025-02-14T05:01:41.010Z</time>
      </trkpt>
      <trkpt lat="58.802260933443904" lon="13.97316299378872">
        <ele>49.1</ele>
        <time>2025-02-14T05:02:29.342Z</time>
      </trkpt>
      <trkpt lat="58.80233595147729" lon="13.973211944103241">
        <ele>49.14</ele>
        <time>2025-02-14T05:03:17.675Z</time>
      </trkpt>
      <trkpt lat="58.802409963682294" lon="13.973262989893556">
        <ele>49.18</ele>
        <time>2025-02-14T05:04:06.010Z</time>
      </trkpt>
      <trkpt lat="58.80248297005892" lon="13.973313951864839">
        <ele>49.21</ele>
        <time>2025-02-14T05:04:54.346Z</time>
      </trkpt>
      <trkpt lat="58.8025579880923" lon="13.973363991826773">
        <ele>49.25</ele>
        <time>2025-02-14T05:05:42.683Z</time>
      </trkpt>
      <trkpt lat="58.802631916478276" lon="13.973413947969675">
        <ele>49.28</ele>
        <time>2025-02-14T05:06:31.021Z</time>
      </trkpt>
      <trkpt lat="58.8027049228549" lon="13.973462982103229">
        <ele>49.32</ele>
        <time>2025-02-14T05:07:19.361Z</time>
      </trkpt>
      <trkpt lat="58.802777929231524" lon="13.973512938246131">
        <ele>49.35</ele>
        <time>2025-02-14T05:08:07.702Z</time>
      </trkpt>
      <trkpt lat="58.80285093560815" lon="13.973561972379684">
        <ele>49.38</ele>
        <time>2025-02-14T05:08:56.044Z</time>
      </trkpt>
      <trkpt lat="58.80292193032801" lon="13.973609916865826">
        <ele>49.42</ele>
        <time>2025-02-14T05:09:44.387Z</time>
      </trkpt>
      <trkpt lat="58.802992925047874" lon="13.973657945170999">
        <ele>49.45</ele>
        <time>2025-02-14T05:10:32.732Z</time>
      </trkpt>
      <trkpt lat="58.80306391976774" lon="13.973705973476171">
        <ele>49.48</ele>
        <time>2025-02-14T05:11:21.078Z</time>
      </trkpt>
      <trkpt lat="58.80313692614436" lon="13.973754923790693">
        <ele>49.51</ele>
        <time>2025-02-14T05:12:09.425Z</time>
      </trkpt>
      <trkpt lat="58.803210938349366" lon="13.973805969581008">
        <ele>49.53</ele>
        <time>2025-02-14T05:12:57.773Z</time>
      </trkpt>
      <trkpt lat="58.80328595638275" lon="13.973856931552291">
        <ele>49.56</ele>
        <time>2025-02-14T05:13:46.123Z</time>
      </trkpt>
      <trkpt lat="58.80336198024452" lon="13.973906971514225">
        <ele>49.59</ele>
        <time>2025-02-14T05:14:34.474Z</time>
      </trkpt>
      <trkpt lat="58.80343993194401" lon="13.973958939313889">
        <ele>49.61</ele>
        <time>2025-02-14T05:15:22.826Z</time>
      </trkpt>
      <trkpt lat="58.80351897329092" lon="13.974010990932584">
        <ele>49.63</ele>
        <time>2025-02-14T05:16:11.180Z</time>
      </trkpt>
      <trkpt lat="58.803595919162035" lon="13.974064970389009">
        <ele>49.65</ele>
        <time>2025-02-14T05:16:59.535Z</time>
      </trkpt>
      <trkpt lat="58.80367294885218" lon="13.974117944017053">
        <ele>49.67</ele>
        <time>2025-02-14T05:17:47.891Z</time>
      </trkpt>
      <trkpt lat="58.80374796688557" lon="13.974168989807367">
        <ele>49.68</ele>
        <time>2025-02-14T05:18:36.248Z</time>
      </trkpt>
      <trkpt lat="58.80382197909057" lon="13.97421894595027">
        <ele>49.69</ele>
        <time>2025-02-14T05:19:24.607Z</time>
      </trkpt>
      <trkpt lat="58.803893979638815" lon="13.974266974255443">
        <ele>49.7</ele>
        <time>2025-02-14T05:20:12.967Z</time>
      </trkpt>
      <trkpt lat="58.80396698601544" lon="13.974313996732235">
        <ele>49.71</ele>
        <time>2025-02-14T05:21:01.328Z</time>
      </trkpt>
      <trkpt lat="58.8040379807353" lon="13.974362947046757">
        <ele>49.73</ele>
        <time>2025-02-14T05:21:49.690Z</time>
      </trkpt>
      <trkpt lat="58.804110987111926" lon="13.974413992837071">
        <ele>49.74</ele>
        <time>2025-02-14T05:22:38.054Z</time>
      </trkpt>
      <trkpt lat="58.80418499931693" lon="13.974461937323213">
        <ele>49.76</ele>
        <time>2025-02-14T05:23:26.419Z</time>
      </trkpt>
      <trkpt lat="58.804258927702904" lon="13.974510971456766">
        <ele>49.77</ele>
        <time>2025-02-14T05:24:14.785Z</time>
      </trkpt>
      <trkpt lat="58.80433193407953" lon="13.974560927599669">
        <ele>49.79</ele>
        <time>2025-02-14T05:25:03.152Z</time>
      </trkpt>
      <trkpt lat="58.80440695211291" lon="13.974611973389983">
        <ele>49.8</ele>
        <time>2025-02-14T05:25:51.521Z</time>
      </trkpt>
      <trkpt lat="58.80448297597468" lon="13.974664947018027">
        <ele>49.82</ele>
        <time>2025-02-14T05:26:39.891Z</time>
      </trkpt>
      <trkpt lat="58.804557994008064" lon="13.974716998636723">
        <ele>49.83</ele>
        <time>2025-02-14T05:27:28.262Z</time>
      </trkpt>
      <trkpt lat="58.8046339340508" lon="13.974767960608006">
        <ele>49.84</ele>
        <time>2025-02-14T05:28:16.634Z</time>
      </trkpt>
      <trkpt lat="58.804710963740945" lon="13.974819928407669">
        <ele>49.85</ele>
        <time>2025-02-14T05:29:05.008Z</time>
      </trkpt>
      <trkpt lat="58.80478799343109" lon="13.974873991683125">
        <ele>49.87</ele>
        <time>2025-02-14T05:29:53.383Z</time>
      </trkpt>
      <trkpt lat="58.80486695095897" lon="13.97492897696793">
        <ele>49.87</ele>
        <time>2025-02-14T05:30:41.759Z</time>
      </trkpt>
      <trkpt lat="58.804945992305875" lon="13.974982956424356">
        <ele>49.88</ele>
        <time>2025-02-14T05:31:30.137Z</time>
      </trkpt>
      <trkpt lat="58.80502696149051" lon="13.97503794170916">
        <ele>49.89</ele>
        <time>2025-02-14T05:32:18.516Z</time>
      </trkpt>
      <trkpt lat="58.80510893650353" lon="13.975092926993966">
        <ele>49.9</ele>
        <time>2025-02-14T05:33:06.897Z</time>
      </trkpt>
      <trkpt lat="58.80519099533558" lon="13.975147996097803">
        <ele>49.91</ele>
        <time>2025-02-14T05:33:55.279Z</time>
      </trkpt>
      <trkpt lat="58.80527397617698" lon="13.97520499303937">
        <ele>49.92</ele>
        <time>2025-02-14T05:34:43.662Z</time>
      </trkpt>
      <trkpt lat="58.80535896867514" lon="13.975261989980936">
        <ele>49.93</ele>
        <time>2025-02-14T05:35:32.047Z</time>
      </trkpt>
      <trkpt lat="58.805443961173296" lon="13.975318986922503">
        <ele>49.94</ele>
        <time>2025-02-14T05:36:20.433Z</time>
      </trkpt>
      <trkpt lat="58.805527947843075" lon="13.975374978035688">
        <ele>49.95</ele>
        <time>2025-02-14T05:37:08.821Z</time>
      </trkpt>
      <trkpt lat="58.805613946169615" lon="13.975429963320494">
        <ele>49.97</ele>
        <time>2025-02-14T05:37:57.210Z</time>
      </trkpt>
      <trkpt lat="58.80569692701101" lon="13.97548595443368">
        <ele>49.98</ele>
        <time>2025-02-14T05:38:45.601Z</time>
      </trkpt>
      <trkpt lat="58.80577898584306" lon="13.975540939718485">
        <ele>50.0</ele>
        <time>2025-02-14T05:39:33.993Z</time>
      </trkpt>
      <trkpt lat="58.80586196668446" lon="13.97559693083167">
        <ele>50.02</ele>
        <time>2025-02-14T05:40:22.386Z</time>
      </trkpt>
      <trkpt lat="58.80594595335424" lon="13.975652921944857">
        <ele>50.03</ele>
        <time>2025-02-14T05:41:10.781Z</time>
      </trkpt>
      <trkpt lat="58.80602792836726" lon="13.975707991048694">
        <ele>50.05</ele>
        <time>2025-02-14T05:41:59.177Z</time>
      </trkpt>
      <trkpt lat="58.80610998719931" lon="13.975761970505118">
        <ele>50.06</ele>
        <time>2025-02-14T05:42:47.575Z</time>
      </trkpt>
      <trkpt lat="58.806191962212324" lon="13.975817961618304">
        <ele>50.08</ele>
        <time>2025-02-14T05:43:35.974Z</time>
      </trkpt>
      <trkpt lat="58.80627393722534" lon="13.975875964388251">
        <ele>50.09</ele>
        <time>2025-02-14T05:44:24.374Z</time>
      </trkpt>
      <trkpt lat="58.80635599605739" lon="13.975931955501437">
        <ele>50.11</ele>
        <time>2025-02-14T05:45:12.776Z</time>
      </trkpt>
      <trkpt lat="58.80643797107041" lon="13.975987946614623">
        <ele>50.13</ele>
        <time>2025-02-14T05:46:01.179Z</time>
      </trkpt>
      <trkpt lat="58.80652095191181" lon="13.976043937727809">
        <ele>50.15</ele>
        <time>2025-02-14T05:46:49.584Z</time>
      </trkpt>
      <trkpt lat="58.806602926924825" lon="13.976099928840995">
        <ele>50.16</ele>
        <time>2025-02-14T05:47:37.990Z</time>
      </trkpt>
      <trkpt lat="58.806685991585255" lon="13.97615591995418">
        <ele>50.19</ele>
        <time>2025-02-14T05:48:26.397Z</time>
      </trkpt>
      <trkpt lat="58.80676796659827" lon="13.976212916895747">
        <ele>50.21</ele>
        <time>2025-02-14T05:49:14.806Z</time>
      </trkpt>
      <trkpt lat="58.80684994161129" lon="13.976269997656345">
        <ele>50.23</ele>
        <time>2025-02-14T05:50:03.216Z</time>
      </trkpt>
      <trkpt lat="58.80693292245269" lon="13.97632498294115">
        <ele>50.25</ele>
        <time>2025-02-14T05:50:51.628Z</time>
      </trkpt>
      <trkpt lat="58.80701498128474" lon="13.976380974054337">
        <ele>50.27</ele>
        <time>2025-02-14T05:51:40.041Z</time>
      </trkpt>
      <trkpt lat="58.807097962126136" lon="13.976436965167522">
        <ele>50.29</ele>
        <time>2025-02-14T05:52:28.455Z</time>
      </trkpt>
      <trkpt lat="58.80717893131077" lon="13.976492956280708">
        <ele>50.32</ele>
        <time>2025-02-14T05:53:16.871Z</time>
      </trkpt>
      <trkpt lat="58.80726099014282" lon="13.976546935737133">
        <ele>50.34</ele>
        <time>2025-02-14T05:54:05.288Z</time>
      </trkpt>
      <trkpt lat="58.80734195932746" lon="13.976601921021938">
        <ele>50.36</ele>
        <time>2025-02-14T05:54:53.707Z</time>
      </trkpt>
      <trkpt lat="58.807422928512096" lon="13.976655984297395">
        <ele>50.38</ele>
        <time>2025-02-14T05:55:42.127Z</time>
      </trkpt>
      <trkpt lat="58.807503981515765" lon="13.97670996375382">
        <ele>50.4</ele>
        <time>2025-02-14T05:56:30.548Z</time>
      </trkpt>
      <trkpt lat="58.8075849507004" lon="13.976763943210244">
        <ele>50.41</ele>
        <time>2025-02-14T05:57:18.971Z</time>
      </trkpt>
      <trkpt lat="58.80766692571342" lon="13.976817922666669">
        <ele>50.43</ele>
        <time>2025-02-14T05:58:07.395Z</time>
      </trkpt>
      <trkpt lat="58.80774797871709" lon="13.976871985942125">
        <ele>50.46</ele>
        <time>2025-02-14T05:58:55.820Z</time>
      </trkpt>
      <trkpt lat="58.807829953730106" lon="13.976927977055311">
        <ele>50.48</ele>
        <time>2025-02-14T05:59:44.247Z</time>
      </trkpt>
      <trkpt lat="58.807911928743124" lon="13.976983968168497">
        <ele>50.5</ele>
        <time>2025-02-14T06:00:32.675Z</time>
      </trkpt>
      <trkpt lat="58.807994993403554" lon="13.977038953453302">
        <ele>50.53</ele>
        <time>2025-02-14T06:01:21.105Z</time>
      </trkpt>
      <trkpt lat="58.80807797424495" lon="13.977094944566488">
        <ele>50.55</ele>
        <time>2025-02-14T06:02:09.536Z</time>
      </trkpt>
      <trkpt lat="58.80815994925797" lon="13.977150935679674">
        <ele>50.58</ele>
        <time>2025-02-14T06:02:57.968Z</time>
      </trkpt>
      <trkpt lat="58.80824091844261" lon="13.97720592096448">
        <ele>50.61</ele>
        <time>2025-02-14T06:03:46.402Z</time>
      </trkpt>
      <trkpt lat="58.808321971446276" lon="13.977258978411555">
        <ele>50.64</ele>
        <time>2025-02-14T06:04:34.837Z</time>
      </trkpt>
      <trkpt lat="58.80840193480253" lon="13.9773119520396">
        <ele>50.67</ele>
        <time>2025-02-14T06:05:23.274Z</time>
      </trkpt>
      <trkpt lat="58.80847997032106" lon="13.977363919839263">
        <ele>50.7</ele>
        <time>2025-02-14T06:06:11.712Z</time>
      </trkpt>
      <trkpt lat="58.808558927848935" lon="13.97741798311472">
        <ele>50.73</ele>
        <time>2025-02-14T06:07:00.151Z</time>
      </trkpt>
      <trkpt lat="58.80863796919584" lon="13.977472968399525">
        <ele>50.76</ele>
        <time>2025-02-14T06:07:48.592Z</time>
      </trkpt>
      <trkpt lat="58.80871592089534" lon="13.977525942027569">
        <ele>50.79</ele>
        <time>2025-02-14T06:08:37.034Z</time>
      </trkpt>
      <trkpt lat="58.808793956413865" lon="13.977577993646264">
        <ele>50.83</ele>
        <time>2025-02-14T06:09:25.477Z</time>
      </trkpt>
      <trkpt lat="58.80886998027563" lon="13.977627949789166">
        <ele>50.87</ele>
        <time>2025-02-14T06:10:13.921Z</time>
      </trkpt>
      <trkpt lat="58.808944998309016" lon="13.977674972265959">
        <ele>50.9</ele>
        <time>2025-02-14T06:11:02.367Z</time>
      </trkpt>
      <trkpt lat="58.80901892669499" lon="13.97772098891437">
        <ele>50.94</ele>
        <time>2025-02-14T06:11:50.814Z</time>
      </trkpt>
      <trkpt lat="58.809092938899994" lon="13.977770945057273">
        <ele>50.98</ele>
        <time>2025-02-14T06:12:39.262Z</time>
      </trkpt>
      <trkpt lat="58.80916795693338" lon="13.977822996675968">
        <ele>51.02</ele>
        <time>2025-02-14T06:13:27.712Z</time>
      </trkpt>
      <trkpt lat="58.809243980795145" lon="13.977877981960773">
        <ele>51.06</ele>
        <time>2025-02-14T06:14:16.163Z</time>
      </trkpt>
      <trkpt lat="58.80931992083788" lon="13.97793397307396">
        <ele>51.1</ele>
        <time>2025-02-14T06:15:04.615Z</time>
      </trkpt>
      <trkpt lat="58.809396950528026" lon="13.977989964187145">
        <ele>51.14</ele>
        <time>2025-02-14T06:15:53.068Z</time>
      </trkpt>
      <trkpt lat="58.80947398021817" lon="13.978045955300331">
        <ele>51.18</ele>
        <time>2025-02-14T06:16:41.523Z</time>
      </trkpt>
      <trkpt lat="58.80955092608929" lon="13.978097923099995">
        <ele>51.22</ele>
        <time>2025-02-14T06:17:29.979Z</time>
      </trkpt>
      <trkpt lat="58.809628961607814" lon="13.978147963061929">
        <ele>51.26</ele>
        <time>2025-02-14T06:18:18.436Z</time>
      </trkpt>
      <trkpt lat="58.80970699712634" lon="13.978199930861592">
        <ele>51.3</ele>
        <time>2025-02-14T06:19:06.895Z</time>
      </trkpt>
      <trkpt lat="58.80978595465422" lon="13.978252988308668">
        <ele>51.33</ele>
        <time>2025-02-14T06:19:55.355Z</time>
      </trkpt>
      <trkpt lat="58.809864996001124" lon="13.978306967765093">
        <ele>51.38</ele>
        <time>2025-02-14T06:20:43.816Z</time>
      </trkpt>
      <trkpt lat="58.809943953529" lon="13.978361953049898">
        <ele>51.42</ele>
        <time>2025-02-14T06:21:32.279Z</time>
      </trkpt>
      <trkpt lat="58.81002299487591" lon="13.978418949991465">
        <ele>51.46</ele>
        <time>2025-02-14T06:22:20.743Z</time>
      </trkpt>
      <trkpt lat="58.810102958232164" lon="13.97847292944789">
        <ele>51.5</ele>
        <time>2025-02-14T06:23:09.208Z</time>
      </trkpt>
      <trkpt lat="58.81018292158842" lon="13.978526992723346">
        <ele>51.55</ele>
        <time>2025-02-14T06:23:57.675Z</time>
      </trkpt>
      <trkpt lat="58.81026196293533" lon="13.97857996635139">
        <ele>51.59</ele>
        <time>2025-02-14T06:24:46.143Z</time>
      </trkpt>
      <trkpt lat="58.810339998453856" lon="13.978633945807815">
        <ele>51.63</ele>
        <time>2025-02-14T06:25:34.613Z</time>
      </trkpt>
      <trkpt lat="58.81041694432497" lon="13.97868792526424">
        <ele>51.68</ele>
        <time>2025-02-14T06:26:23.084Z</time>
      </trkpt>
      <trkpt lat="58.81049397401512" lon="13.978739976882935">
        <ele>51.73</ele>
        <time>2025-02-14T06:27:11.556Z</time>
      </trkpt>
      <trkpt lat="58.81057091988623" lon="13.978790938854218">
        <ele>51.77</ele>
        <time>2025-02-14T06:28:00.029Z</time>
      </trkpt>
      <trkpt lat="58.81064794957638" lon="13.978839972987771">
        <ele>51.82</ele>
        <time>2025-02-14T06:28:48.504Z</time>
      </trkpt>
      <trkpt lat="58.810724979266524" lon="13.978889929130673">
        <ele>51.86</ele>
        <time>2025-02-14T06:29:36.980Z</time>
      </trkpt>
      <trkpt lat="58.81080192513764" lon="13.978941980749369">
        <ele>51.9</ele>
        <time>2025-02-14T06:30:25.457Z</time>
      </trkpt>
      <trkpt lat="58.810877948999405" lon="13.978994954377413">
        <ele>51.94</ele>
        <time>2025-02-14T06:31:13.936Z</time>
      </trkpt>
      <trkpt lat="58.81095598451793" lon="13.979047928005457">
        <ele>51.98</ele>
        <time>2025-02-14T06:32:02.416Z</time>
      </trkpt>
      <trkpt lat="58.81103494204581" lon="13.979097967967391">
        <ele>52.02</ele>
        <time>2025-02-14T06:32:50.897Z</time>
      </trkpt>
      <trkpt lat="58.811112977564335" lon="13.979149935767055">
        <ele>52.06</ele>
        <time>2025-02-14T06:33:39.380Z</time>
      </trkpt>
      <trkpt lat="58.81119193509221" lon="13.979199975728989">
        <ele>52.1</ele>
        <time>2025-02-14T06:34:27.864Z</time>
      </trkpt>
      <trkpt lat="58.81126997061074" lon="13.97924892604351">
        <ele>52.13</ele>
        <time>2025-02-14T06:35:16.349Z</time>
      </trkpt>
      <trkpt lat="58.81134498864412" lon="13.979298966005445">
        <ele>52.17</ele>
        <time>2025-02-14T06:36:04.836Z</time>
      </trkpt>
      <trkpt lat="58.81142294034362" lon="13.979351939633489">
        <ele>52.21</ele>
        <time>2025-02-14T06:36:53.324Z</time>
      </trkpt>
      <trkpt lat="58.811499970033765" lon="13.979405919089913">
        <ele>52.26</ele>
        <time>2025-02-14T06:37:41.813Z</time>
      </trkpt>
      <trkpt lat="58.81157792173326" lon="13.97945897653699">
        <ele>52.3</ele>
        <time>2025-02-14T06:38:30.304Z</time>
      </trkpt>
      <trkpt lat="58.81165696308017" lon="13.979510944336653">
        <ele>52.34</ele>
        <time>2025-02-14T06:39:18.796Z</time>
      </trkpt>
      <trkpt lat="58.811734998598695" lon="13.979562995955348">
        <ele>52.39</ele>
        <time>2025-02-14T06:40:07.289Z</time>
      </trkpt>
      <trkpt lat="58.81181395612657" lon="13.979617981240153">
        <ele>52.43</ele>
        <time>2025-02-14T06:40:55.784Z</time>
      </trkpt>
      <trkpt lat="58.81189299747348" lon="13.97967497818172">
        <ele>52.47</ele>
        <time>2025-02-14T06:41:44.280Z</time>
      </trkpt>
      <trkpt lat="58.811970949172974" lon="13.979729963466525">
        <ele>52.51</ele>
        <time>2025-02-14T06:42:32.777Z</time>
      </trkpt>
      <trkpt lat="58.81204999051988" lon="13.979780925437808">
        <ele>52.55</ele>
        <time>2025-02-14T06:43:21.276Z</time>
      </trkpt>
      <trkpt lat="58.81212894804776" lon="13.979832977056503">
        <ele>52.58</ele>
        <time>2025-02-14T06:44:09.776Z</time>
      </trkpt>
      <trkpt lat="58.812208995223045" lon="13.979886956512928">
        <ele>52.62</ele>
        <time>2025-02-14T06:44:58.277Z</time>
      </trkpt>
      <trkpt lat="58.8122889585793" lon="13.979941941797733">
        <ele>52.66</ele>
        <time>2025-02-14T06:45:46.780Z</time>
      </trkpt>
      <trkpt lat="58.81236992776394" lon="13.979996927082539">
        <ele>52.69</ele>
        <time>2025-02-14T06:46:35.284Z</time>
      </trkpt>
      <trkpt lat="58.81245098076761" lon="13.980050990357995">
        <ele>52.73</ele>
        <time>2025-02-14T06:47:23.789Z</time>
      </trkpt>
      <trkpt lat="58.812530944123864" lon="13.98010496981442">
        <ele>52.76</ele>
        <time>2025-02-14T06:48:12.296Z</time>
      </trkpt>
      <trkpt lat="58.81260998547077" lon="13.980158949270844">
        <ele>52.79</ele>
        <time>2025-02-14T06:49:00.804Z</time>
      </trkpt>
      <trkpt lat="58.81269095465541" lon="13.98021292872727">
        <ele>52.83</ele>
        <time>2025-02-14T06:49:49.313Z</time>
      </trkpt>
      <trkpt lat="58.812770918011665" lon="13.980266992002726">
        <ele>52.87</ele>
        <time>2025-02-14T06:50:37.824Z</time>
      </trkpt>
      <trkpt lat="58.81285096518695" lon="13.980321977287531">
        <ele>52.9</ele>
        <time>2025-02-14T06:51:26.336Z</time>
      </trkpt>
      <trkpt lat="58.81293193437159" lon="13.980376962572336">
        <ele>52.94</ele>
        <time>2025-02-14T06:52:14.850Z</time>
      </trkpt>
      <trkpt lat="58.81301298737526" lon="13.980432953685522">
        <ele>52.97</ele>
        <time>2025-02-14T06:53:03.365Z</time>
      </trkpt>
      <trkpt lat="58.8130939565599" lon="13.980489950627089">
        <ele>53.01</ele>
        <time>2025-02-14T06:53:51.881Z</time>
      </trkpt>
      <trkpt lat="58.81317391991615" lon="13.980548959225416">
        <ele>53.05</ele>
        <time>2025-02-14T06:54:40.399Z</time>
      </trkpt>
      <trkpt lat="58.8132559787482" lon="13.980605956166983">
        <ele>53.08</ele>
        <time>2025-02-14T06:55:28.918Z</time>
      </trkpt>
      <trkpt lat="58.81333694793284" lon="13.980660941451788">
        <ele>53.12</ele>
        <time>2025-02-14T06:56:17.438Z</time>
      </trkpt>
      <trkpt lat="58.81341892294586" lon="13.980712993070483">
        <ele>53.15</ele>
        <time>2025-02-14T06:57:05.960Z</time>
      </trkpt>
      <trkpt lat="58.813500981777906" lon="13.980765966698527">
        <ele>53.19</ele>
        <time>2025-02-14T06:57:54.483Z</time>
      </trkpt>
      <trkpt lat="58.813582956790924" lon="13.980820951983333">
        <ele>53.22</ele>
        <time>2025-02-14T06:58:43.008Z</time>
      </trkpt>
      <trkpt lat="58.81366493180394" lon="13.980875937268138">
        <ele>53.26</ele>
        <time>2025-02-14T06:59:31.534Z</time>
      </trkpt>
      <trkpt lat="58.81374799646437" lon="13.980931928381324">
        <ele>53.29</ele>
        <time>2025-02-14T07:00:20.061Z</time>
      </trkpt>
      <trkpt lat="58.81383198313415" lon="13.98098993115127">
        <ele>53.33</ele>
        <time>2025-02-14T07:01:08.590Z</time>
      </trkpt>
      <trkpt lat="58.81391496397555" lon="13.981047933921218">
        <ele>53.37</ele>
        <time>2025-02-14T07:01:57.120Z</time>
      </trkpt>
      <trkpt lat="58.81399995647371" lon="13.981104930862784">
        <ele>53.41</ele>
        <time>2025-02-14T07:02:45.652Z</time>
      </trkpt>
      <trkpt lat="58.81408394314349" lon="13.98116192780435">
        <ele>53.45</ele>
        <time>2025-02-14T07:03:34.185Z</time>
      </trkpt>
      <trkpt lat="58.814165918156505" lon="13.981218924745917">
        <ele>53.49</ele>
        <time>2025-02-14T07:04:22.720Z</time>
      </trkpt>
      <trkpt lat="58.814247976988554" lon="13.981276927515864">
        <ele>53.53</ele>
        <time>2025-02-14T07:05:11.256Z</time>
      </trkpt>
      <trkpt lat="58.81432894617319" lon="13.981331996619701">
        <ele>53.56</ele>
        <time>2025-02-14T07:05:59.793Z</time>
      </trkpt>
      <trkpt lat="58.81440999917686" lon="13.981385976076126">
        <ele>53.6</ele>
        <time>2025-02-14T07:06:48.332Z</time>
      </trkpt>
      <trkpt lat="58.8144909683615" lon="13.981441967189312">
        <ele>53.64</ele>
        <time>2025-02-14T07:07:36.872Z</time>
      </trkpt>
      <trkpt lat="58.814571937546134" lon="13.981496952474117">
        <ele>53.68</ele>
        <time>2025-02-14T07:08:25.413Z</time>
      </trkpt>
      <trkpt lat="58.81465198472142" lon="13.981549926102161">
        <ele>53.72</ele>
        <time>2025-02-14T07:09:13.956Z</time>
      </trkpt>
      <trkpt lat="58.81473295390606" lon="13.981603989377618">
        <ele>53.76</ele>
        <time>2025-02-14T07:10:02.500Z</time>
      </trkpt>
      <trkpt lat="58.814812917262316" lon="13.981657968834043">
        <ele>53.81</ele>
        <time>2025-02-14T07:10:51.046Z</time>
      </trkpt>
      <trkpt lat="58.814892964437604" lon="13.981711948290467">
        <ele>53.85</ele>
        <time>2025-02-14T07:11:39.593Z</time>
      </trkpt>
      <trkpt lat="58.81497393362224" lon="13.981767939403653">
        <ele>53.89</ele>
        <time>2025-02-14T07:12:28.141Z</time>
      </trkpt>
      <trkpt lat="58.81505398079753" lon="13.981823930516839">
        <ele>53.93</ele>
        <time>2025-02-14T07:13:16.691Z</time>
      </trkpt>
      <trkpt lat="58.81513595581055" lon="13.981878999620676">
        <ele>53.97</ele>
        <time>2025-02-14T07:14:05.242Z</time>
      </trkpt>
      <trkpt lat="58.815216924995184" lon="13.9819329790771">
        <ele>54.02</ele>
        <time>2025-02-14T07:14:53.794Z</time>
      </trkpt>
      <trkpt lat="58.81529697217047" lon="13.981984946876764">
        <ele>54.07</ele>
        <time>2025-02-14T07:15:42.348Z</time>
      </trkpt>
      <trkpt lat="58.81537794135511" lon="13.982038926333189">
        <ele>54.12</ele>
        <time>2025-02-14T07:16:30.903Z</time>
      </trkpt>
      <trkpt lat="58.815455976873636" lon="13.982093995437026">
        <ele>54.17</ele>
        <time>2025-02-14T07:17:19.459Z</time>
      </trkpt>
      <trkpt lat="58.81553392857313" lon="13.98214696906507">
        <ele>54.22</ele>
        <time>2025-02-14T07:18:08.017Z</time>
      </trkpt>
      <trkpt lat="58.81561196409166" lon="13.982199942693114">
        <ele>54.28</ele>
        <time>2025-02-14T07:18:56.576Z</time>
      </trkpt>
      <trkpt lat="58.815691927447915" lon="13.98225199431181">
        <ele>54.33</ele>
        <time>2025-02-14T07:19:45.136Z</time>
      </trkpt>
      <trkpt lat="58.81577096879482" lon="13.982304967939854">
        <ele>54.37</ele>
        <time>2025-02-14T07:20:33.698Z</time>
      </trkpt>
      <trkpt lat="58.8158499263227" lon="13.982359953224659">
        <ele>54.42</ele>
        <time>2025-02-14T07:21:22.261Z</time>
      </trkpt>
      <trkpt lat="58.81592997349799" lon="13.982413932681084">
        <ele>54.47</ele>
        <time>2025-02-14T07:22:10.826Z</time>
      </trkpt>
      <trkpt lat="58.816010942682624" lon="13.98246799595654">
        <ele>54.52</ele>
        <time>2025-02-14T07:22:59.392Z</time>
      </trkpt>
      <trkpt lat="58.81609199568629" lon="13.982521975412965">
        <ele>54.57</ele>
        <time>2025-02-14T07:23:47.959Z</time>
      </trkpt>
      <trkpt lat="58.81617296487093" lon="13.98257696069777">
        <ele>54.62</ele>
        <time>2025-02-14T07:24:36.528Z</time>
      </trkpt>
      <trkpt lat="58.816252928227186" lon="13.982632951810956">
        <ele>54.67</ele>
        <time>2025-02-14T07:25:25.098Z</time>
      </trkpt>
      <trkpt lat="58.816334987059236" lon="13.982688942924142">
        <ele>54.72</ele>
        <time>2025-02-14T07:26:13.669Z</time>
      </trkpt>
      <trkpt lat="58.81641696207225" lon="13.982743928208947">
        <ele>54.78</ele>
        <time>2025-02-14T07:27:02.242Z</time>
      </trkpt>
      <trkpt lat="58.81649692542851" lon="13.982797991484404">
        <ele>54.83</ele>
        <time>2025-02-14T07:27:50.816Z</time>
      </trkpt>
      <trkpt lat="58.81657797843218" lon="13.98285398259759">
        <ele>54.88</ele>
        <time>2025-02-14T07:28:39.392Z</time>
      </trkpt>
      <trkpt lat="58.816659953445196" lon="13.982909973710775">
        <ele>54.93</ele>
        <time>2025-02-14T07:29:27.969Z</time>
      </trkpt>
      <trkpt lat="58.816741928458214" lon="13.98296495899558">
        <ele>54.99</ele>
        <time>2025-02-14T07:30:16.547Z</time>
      </trkpt>
      <trkpt lat="58.81682398729026" lon="13.983020950108767">
        <ele>55.04</ele>
        <time>2025-02-14T07:31:05.127Z</time>
      </trkpt>
      <trkpt lat="58.8169049564749" lon="13.983075935393572">
        <ele>55.1</ele>
        <time>2025-02-14T07:31:53.708Z</time>
      </trkpt>
      <trkpt lat="58.81698592565954" lon="13.983130920678377">
        <ele>55.15</ele>
        <time>2025-02-14T07:32:42.290Z</time>
      </trkpt>
      <trkpt lat="58.817066978663206" lon="13.983185989782214">
        <ele>55.21</ele>
        <time>2025-02-14T07:33:30.874Z</time>
      </trkpt>
      <trkpt lat="58.81714794784784" lon="13.9832419808954">
        <ele>55.27</ele>
        <time>2025-02-14T07:34:19.459Z</time>
      </trkpt>
      <trkpt lat="58.81722891703248" lon="13.983295960351825">
        <ele>55.34</ele>
        <time>2025-02-14T07:35:08.046Z</time>
      </trkpt>
      <trkpt lat="58.81730896420777" lon="13.98334993980825">
        <ele>55.4</ele>
        <time>2025-02-14T07:35:56.634Z</time>
      </trkpt>
      <trkpt lat="58.817389933392406" lon="13.983404925093055">
        <ele>55.46</ele>
        <time>2025-02-14T07:36:45.223Z</time>
      </trkpt>
      <trkpt lat="58.817471992224455" lon="13.983458988368511">
        <ele>55.52</ele>
        <time>2025-02-14T07:37:33.814Z</time>
      </trkpt>
      <trkpt lat="58.81755296140909" lon="13.983512967824936">
        <ele>55.57</ele>
        <time>2025-02-14T07:38:22.406Z</time>
      </trkpt>
      <trkpt lat="58.81763292476535" lon="13.98356694728136">
        <ele>55.63</ele>
        <time>2025-02-14T07:39:10.999Z</time>
      </trkpt>
      <trkpt lat="58.81771297194064" lon="13.983621932566166">
        <ele>55.69</ele>
        <time>2025-02-14T07:39:59.594Z</time>
      </trkpt>
      <trkpt lat="58.81779192946851" lon="13.983676917850971">
        <ele>55.75</ele>
        <time>2025-02-14T07:40:48.190Z</time>
      </trkpt>
      <trkpt lat="58.81787097081542" lon="13.983731986954808">
        <ele>55.81</ele>
        <time>2025-02-14T07:41:36.788Z</time>
      </trkpt>
      <trkpt lat="58.817948922514915" lon="13.983785966411233">
        <ele>55.87</ele>
        <time>2025-02-14T07:42:25.387Z</time>
      </trkpt>
      <trkpt lat="58.81802695803344" lon="13.983836928382516">
        <ele>55.93</ele>
        <time>2025-02-14T07:43:13.987Z</time>
      </trkpt>
      <trkpt lat="58.81810298189521" lon="13.98388797417283">
        <ele>55.99</ele>
        <time>2025-02-14T07:44:02.588Z</time>
      </trkpt>
      <trkpt lat="58.81817892193794" lon="13.983939941972494">
        <ele>56.05</ele>
        <time>2025-02-14T07:44:51.191Z</time>
      </trkpt>
      <trkpt lat="58.81825595162809" lon="13.983990987762809">
        <ele>56.12</ele>
        <time>2025-02-14T07:45:39.795Z</time>
      </trkpt>
      <trkpt lat="58.818332981318235" lon="13.984042955562472">
        <ele>56.18</ele>
        <time>2025-02-14T07:46:28.400Z</time>
      </trkpt>
      <trkpt lat="58.81841193884611" lon="13.984095929190516">
        <ele>56.24</ele>
        <time>2025-02-14T07:47:17.007Z</time>
      </trkpt>
      <trkpt lat="58.81848997436464" lon="13.984147980809212">
        <ele>56.3</ele>
        <time>2025-02-14T07:48:05.615Z</time>
      </trkpt>
      <trkpt lat="58.81856692023575" lon="13.984200954437256">
        <ele>56.36</ele>
        <time>2025-02-14T07:48:54.224Z</time>
      </trkpt>
      <trkpt lat="58.81864495575428" lon="13.9842539280653">
        <ele>56.41</ele>
        <time>2025-02-14T07:49:42.835Z</time>
      </trkpt>
      <trkpt lat="58.81872491911054" lon="13.984306985512376">
        <ele>56.47</ele>
        <time>2025-02-14T07:50:31.447Z</time>
      </trkpt>
      <trkpt lat="58.818803960457444" lon="13.984361970797181">
        <ele>56.53</ele>
        <time>2025-02-14T07:51:20.060Z</time>
      </trkpt>
      <trkpt lat="58.8188839238137" lon="13.984414944425225">
        <ele>56.59</ele>
        <time>2025-02-14T07:52:08.675Z</time>
      </trkpt>
      <trkpt lat="58.81896397098899" lon="13.984470935538411">
        <ele>56.65</ele>
        <time>2025-02-14T07:52:57.291Z</time>
      </trkpt>
      <trkpt lat="58.819042928516865" lon="13.984525920823216">
        <ele>56.71</ele>
        <time>2025-02-14T07:53:45.908Z</time>
      </trkpt>
      <trkpt lat="58.81912297569215" lon="13.984579984098673">
        <ele>56.77</ele>
        <time>2025-02-14T07:54:34.527Z</time>
      </trkpt>
      <trkpt lat="58.81920293904841" lon="13.984634969383478">
        <ele>56.82</ele>
        <time>2025-02-14T07:55:23.147Z</time>
      </trkpt>
      <trkpt lat="58.81928198039532" lon="13.984688948839903">
        <ele>56.88</ele>
        <time>2025-02-14T07:56:11.769Z</time>
      </trkpt>
      <trkpt lat="58.819361943751574" lon="13.984740916639566">
        <ele>56.93</ele>
        <time>2025-02-14T07:57:00.392Z</time>
      </trkpt>
      <trkpt lat="58.81944098509848" lon="13.984792968258262">
        <ele>56.99</ele>
        <time>2025-02-14T07:57:49.016Z</time>
      </trkpt>
      <trkpt lat="58.81951893679798" lon="13.984843930229545">
        <ele>57.04</ele>
        <time>2025-02-14T07:58:37.642Z</time>
      </trkpt>
      <trkpt lat="58.81959596648812" lon="13.98489698767662">
        <ele>57.08</ele>
        <time>2025-02-14T07:59:26.269Z</time>
      </trkpt>
      <trkpt lat="58.81967391818762" lon="13.984952978789806">
        <ele>57.13</ele>
        <time>2025-02-14T08:00:14.897Z</time>
      </trkpt>
      <trkpt lat="58.819752959534526" lon="13.985006958246231">
        <ele>57.17</ele>
        <time>2025-02-14T08:01:03.527Z</time>
      </trkpt>
      <trkpt lat="58.81983292289078" lon="13.985061943531036">
        <ele>57.22</ele>
        <time>2025-02-14T08:01:52.158Z</time>
      </trkpt>
      <trkpt lat="58.81991297006607" lon="13.985115922987461">
        <ele>57.26</ele>
        <time>2025-02-14T08:02:40.790Z</time>
      </trkpt>
      <trkpt lat="58.81999494507909" lon="13.985169986262918">
        <ele>57.3</ele>
        <time>2025-02-14T08:03:29.424Z</time>
      </trkpt>
      <trkpt lat="58.820074992254376" lon="13.985223965719342">
        <ele>57.34</ele>
        <time>2025-02-14T08:04:18.059Z</time>
      </trkpt>
      <trkpt lat="58.82015495561063" lon="13.985277945175767">
        <ele>57.38</ele>
        <time>2025-02-14T08:05:06.695Z</time>
      </trkpt>
      <trkpt lat="58.82023399695754" lon="13.985331924632192">
        <ele>57.42</ele>
        <time>2025-02-14T08:05:55.333Z</time>
      </trkpt>
      <trkpt lat="58.820312954485416" lon="13.985383976250887">
        <ele>57.45</ele>
        <time>2025-02-14T08:06:43.972Z</time>
      </trkpt>
      <trkpt lat="58.82039291784167" lon="13.98543594405055">
        <ele>57.49</ele>
        <time>2025-02-14T08:07:32.612Z</time>
      </trkpt>
      <trkpt lat="58.82047296501696" lon="13.985489923506975">
        <ele>57.53</ele>
        <time>2025-02-14T08:08:21.254Z</time>
      </trkpt>
      <trkpt lat="58.82055192254484" lon="13.985542980954051">
        <ele>57.57</ele>
        <time>2025-02-14T08:09:09.897Z</time>
      </trkpt>
      <trkpt lat="58.820631969720125" lon="13.985597966238856">
        <ele>57.61</ele>
        <time>2025-02-14T08:09:58.541Z</time>
      </trkpt>
      <trkpt lat="58.82070992141962" lon="13.985651945695281">
        <ele>57.64</ele>
        <time>2025-02-14T08:10:47.187Z</time>
      </trkpt>
      <trkpt lat="58.82078896276653" lon="13.985702991485596">
        <ele>57.66</ele>
        <time>2025-02-14T08:11:35.834Z</time>
      </trkpt>
      <trkpt lat="58.820866998285055" lon="13.98575596511364">
        <ele>57.69</ele>
        <time>2025-02-14T08:12:24.482Z</time>
      </trkpt>
      <trkpt lat="58.82094595581293" lon="13.985807932913303">
        <ele>57.71</ele>
        <time>2025-02-14T08:13:13.132Z</time>
      </trkpt>
      <trkpt lat="58.82102692499757" lon="13.98586099036038">
        <ele>57.72</ele>
        <time>2025-02-14T08:14:01.783Z</time>
      </trkpt>
      <trkpt lat="58.82110898382962" lon="13.985914969816804">
        <ele>57.74</ele>
        <time>2025-02-14T08:14:50.436Z</time>
      </trkpt>
      <trkpt lat="58.821189953014255" lon="13.985967943444848">
        <ele>57.75</ele>
        <time>2025-02-14T08:15:39.090Z</time>
      </trkpt>
      <trkpt lat="58.82127092219889" lon="13.986018989235163">
        <ele>57.76</ele>
        <time>2025-02-14T08:16:27.745Z</time>
      </trkpt>
      <trkpt lat="58.82135096937418" lon="13.986069951206446">
        <ele>57.76</ele>
        <time>2025-02-14T08:17:16.402Z</time>
      </trkpt>
      <trkpt lat="58.821429926902056" lon="13.98612099699676">
        <ele>57.77</ele>
        <time>2025-02-14T08:18:05.060Z</time>
      </trkpt>
      <trkpt lat="58.82150796242058" lon="13.986170953139663">
        <ele>57.77</ele>
        <time>2025-02-14T08:18:53.719Z</time>
      </trkpt>
      <trkpt lat="58.82158499211073" lon="13.986217975616455">
        <ele>57.77</ele>
        <time>2025-02-14T08:19:42.380Z</time>
      </trkpt>
      <trkpt lat="58.821662943810225" lon="13.986267931759357">
        <ele>57.76</ele>
        <time>2025-02-14T08:20:31.042Z</time>
      </trkpt>
      <trkpt lat="58.82174198515713" lon="13.986318977549672">
        <ele>57.76</ele>
        <time>2025-02-14T08:21:19.705Z</time>
      </trkpt>
      <trkpt lat="58.82182194851339" lon="13.986367927864194">
        <ele>57.75</ele>
        <time>2025-02-14T08:22:08.370Z</time>
      </trkpt>
      <trkpt lat="58.821902917698026" lon="13.986416961997747">
        <ele>57.74</ele>
        <time>2025-02-14T08:22:57.036Z</time>
      </trkpt>
      <trkpt lat="58.821985982358456" lon="13.986465996131301">
        <ele>57.73</ele>
        <time>2025-02-14T08:23:45.703Z</time>
      </trkpt>
      <trkpt lat="58.822068963199854" lon="13.986514946445823">
        <ele>57.71</ele>
        <time>2025-02-14T08:24:34.372Z</time>
      </trkpt>
      <trkpt lat="58.82215294986963" lon="13.986563980579376">
        <ele>57.7</ele>
        <time>2025-02-14T08:25:23.042Z</time>
      </trkpt>
      <trkpt lat="58.82223693653941" lon="13.986612930893898">
        <ele>57.68</ele>
        <time>2025-02-14T08:26:11.714Z</time>
      </trkpt>
      <trkpt lat="58.82232192903757" lon="13.986662970855832">
        <ele>57.65</ele>
        <time>2025-02-14T08:27:00.387Z</time>
      </trkpt>
      <trkpt lat="58.82240792736411" lon="13.986711921170354">
        <ele>57.63</ele>
        <time>2025-02-14T08:27:49.061Z</time>
      </trkpt>
      <trkpt lat="58.82249392569065" lon="13.986759949475527">
        <ele>57.6</ele>
        <time>2025-02-14T08:28:37.737Z</time>
      </trkpt>
      <trkpt lat="58.82257891818881" lon="13.986805966123939">
        <ele>57.56</ele>
        <time>2025-02-14T08:29:26.414Z</time>
      </trkpt>
      <trkpt lat="58.82266298867762" lon="13.98685097694397">
        <ele>57.52</ele>
        <time>2025-02-14T08:30:15.093Z</time>
      </trkpt>
      <trkpt lat="58.8227469753474" lon="13.98689397610724">
        <ele>57.48</ele>
        <time>2025-02-14T08:31:03.773Z</time>
      </trkpt>
      <trkpt lat="58.82282895036042" lon="13.98693798109889">
        <ele>57.43</ele>
        <time>2025-02-14T08:31:52.454Z</time>
      </trkpt>
      <trkpt lat="58.822912937030196" lon="13.986982991918921">
        <ele>57.38</ele>
        <time>2025-02-14T08:32:41.137Z</time>
      </trkpt>
      <trkpt lat="58.822996923699975" lon="13.987028924748302">
        <ele>57.33</ele>
        <time>2025-02-14T08:33:29.821Z</time>
      </trkpt>
      <trkpt lat="58.823082922026515" lon="13.987072929739952">
        <ele>57.28</ele>
        <time>2025-02-14T08:34:18.507Z</time>
      </trkpt>
      <trkpt lat="58.823168920353055" lon="13.987117940559983">
        <ele>57.23</ele>
        <time>2025-02-14T08:35:07.194Z</time>
      </trkpt>
      <trkpt lat="58.823254918679595" lon="13.987160939723253">
        <ele>57.17</ele>
        <time>2025-02-14T08:35:55.883Z</time>
      </trkpt>
      <trkpt lat="58.823341922834516" lon="13.987201927229762">
        <ele>57.11</ele>
        <time>2025-02-14T08:36:44.573Z</time>
      </trkpt>
      <trkpt lat="58.82342699915171" lon="13.987244926393032">
        <ele>57.05</ele>
        <time>2025-02-14T08:37:33.264Z</time>
      </trkpt>
      <trkpt lat="58.82351299747825" lon="13.987287925556302">
        <ele>56.99</ele>
        <time>2025-02-14T08:38:21.957Z</time>
      </trkpt>
      <trkpt lat="58.823597989976406" lon="13.987330924719572">
        <ele>56.93</ele>
        <time>2025-02-14T08:39:10.651Z</time>
      </trkpt>
      <trkpt lat="58.823686921969056" lon="13.987372918054461">
        <ele>56.87</ele>
        <time>2025-02-14T08:39:59.347Z</time>
      </trkpt>
      <trkpt lat="58.82377593778074" lon="13.987414995208383">
        <ele>56.81</ele>
        <time>2025-02-14T08:40:48.044Z</time>
      </trkpt>
      <trkpt lat="58.8238659594208" lon="13.987457994371653">
        <ele>56.75</ele>
        <time>2025-02-14T08:41:36.743Z</time>
      </trkpt>
      <trkpt lat="58.82395598106086" lon="13.987499987706542">
        <ele>56.69</ele>
        <time>2025-02-14T08:42:25.443Z</time>
      </trkpt>
      <trkpt lat="58.824046924710274" lon="13.987541981041431">
        <ele>56.63</ele>
        <time>2025-02-14T08:43:14.145Z</time>
      </trkpt>
      <trkpt lat="58.8241389580071" lon="13.98758296854794">
        <ele>56.56</ele>
        <time>2025-02-14T08:44:02.848Z</time>
      </trkpt>
      <trkpt lat="58.82422998547554" lon="13.987622950226068">
        <ele>56.49</ele>
        <time>2025-02-14T08:44:51.553Z</time>
      </trkpt>
      <trkpt lat="58.82431891746819" lon="13.987659998238087">
        <ele>56.42</ele>
        <time>2025-02-14T08:45:40.259Z</time>
      </trkpt>
      <trkpt lat="58.82440994493663" lon="13.987697968259454">
        <ele>56.34</ele>
        <time>2025-02-14T08:46:28.967Z</time>
      </trkpt>
      <trkpt lat="58.824499966576695" lon="13.987736944109201">
        <ele>56.26</ele>
        <time>2025-02-14T08:47:17.676Z</time>
      </trkpt>
      <trkpt lat="58.82458998821676" lon="13.98777399212122">
        <ele>56.18</ele>
        <time>2025-02-14T08:48:06.387Z</time>
      </trkpt>
      <trkpt lat="58.82468596100807" lon="13.987812967970967">
        <ele>56.1</ele>
        <time>2025-02-14T08:48:55.099Z</time>
      </trkpt>
      <trkpt lat="58.824777994304895" lon="13.987849932163954">
        <ele>56.01</ele>
        <time>2025-02-14T08:49:43.813Z</time>
      </trkpt>
      <trkpt lat="58.82487094961107" lon="13.987887986004353">
        <ele>55.93</ele>
        <time>2025-02-14T08:50:32.528Z</time>
      </trkpt>
      <trkpt lat="58.82496298290789" lon="13.9879269618541">
        <ele>55.85</ele>
        <time>2025-02-14T08:51:21.245Z</time>
      </trkpt>
      <trkpt lat="58.82505493238568" lon="13.987965937703848">
        <ele>55.77</ele>
        <time>2025-02-14T08:52:09.963Z</time>
      </trkpt>
      <trkpt lat="58.82514797151089" lon="13.988000974059105">
        <ele>55.68</ele>
        <time>2025-02-14T08:52:58.683Z</time>
      </trkpt>
      <trkpt lat="58.82524092681706" lon="13.98803492076695">
        <ele>55.6</ele>
        <time>2025-02-14T08:53:47.404Z</time>
      </trkpt>
      <trkpt lat="58.825333965942264" lon="13.988067945465446">
        <ele>55.53</ele>
        <time>2025-02-14T08:54:36.127Z</time>
      </trkpt>
      <trkpt lat="58.825426921248436" lon="13.988101975992322">
        <ele>55.45</ele>
        <time>2025-02-14T08:55:24.851Z</time>
      </trkpt>
      <trkpt lat="58.82551996037364" lon="13.988134916871786">
        <ele>55.37</ele>
        <time>2025-02-14T08:56:13.577Z</time>
      </trkpt>
      <trkpt lat="58.825614927336574" lon="13.98816592991352">
        <ele>55.29</ele>
        <time>2025-02-14T08:57:02.304Z</time>
      </trkpt>
      <trkpt lat="58.82571098394692" lon="13.988196942955256">
        <ele>55.21</ele>
        <time>2025-02-14T08:57:51.033Z</time>
      </trkpt>
      <trkpt lat="58.825808968394995" lon="13.988229967653751">
        <ele>55.13</ele>
        <time>2025-02-14T08:58:39.763Z</time>
      </trkpt>
      <trkpt lat="58.82590594701469" lon="13.988262992352247">
        <ele>55.05</ele>
        <time>2025-02-14T08:59:28.495Z</time>
      </trkpt>
      <trkpt lat="58.826000997796655" lon="13.988295933231711">
        <ele>54.97</ele>
        <time>2025-02-14T09:00:17.229Z</time>
      </trkpt>
      <trkpt lat="58.82609697058797" lon="13.988327952101827">
        <ele>54.88</ele>
        <time>2025-02-14T09:01:05.964Z</time>
      </trkpt>
      <trkpt lat="58.82619394920766" lon="13.9883569534868">
        <ele>54.8</ele>
        <time>2025-02-14T09:01:54.701Z</time>
      </trkpt>
      <trkpt lat="58.82628992199898" lon="13.988386960700154">
        <ele>54.72</ele>
        <time>2025-02-14T09:02:43.439Z</time>
      </trkpt>
      <trkpt lat="58.82638497278094" lon="13.988414956256747">
        <ele>54.63</ele>
        <time>2025-02-14T09:03:32.179Z</time>
      </trkpt>
      <trkpt lat="58.82648195140064" lon="13.98844395764172">
        <ele>54.55</ele>
        <time>2025-02-14T09:04:20.920Z</time>
      </trkpt>
      <trkpt lat="58.82657993584871" lon="13.988473964855075">
        <ele>54.47</ele>
        <time>2025-02-14T09:05:09.663Z</time>
      </trkpt>
      <trkpt lat="58.82667892612517" lon="13.988503972068429">
        <ele>54.4</ele>
        <time>2025-02-14T09:05:58.408Z</time>
      </trkpt>
      <trkpt lat="58.826779928058386" lon="13.988531967625022">
        <ele>54.33</ele>
        <time>2025-02-14T09:06:47.154Z</time>
      </trkpt>
      <trkpt lat="58.82688193581998" lon="13.988561974838376">
        <ele>54.27</ele>
        <time>2025-02-14T09:07:35.902Z</time>
      </trkpt>
      <trkpt lat="58.82698494940996" lon="13.98859097622335">
        <ele>54.21</ele>
        <time>2025-02-14T09:08:24.652Z</time>
      </trkpt>
      <trkpt lat="58.82708695717156" lon="13.988618971779943">
        <ele>54.15</ele>
        <time>2025-02-14T09:09:13.403Z</time>
      </trkpt>
      <trkpt lat="58.82718896493316" lon="13.988644955679774">
        <ele>54.1</ele>
        <time>2025-02-14T09:10:02.156Z</time>
      </trkpt>
      <trkpt lat="58.827289966866374" lon="13.988669933751225">
        <ele>54.05</ele>
        <time>2025-02-14T09:10:50.911Z</time>
      </trkpt>
      <trkpt lat="58.82738996297121" lon="13.988693989813328">
        <ele>54.0</ele>
        <time>2025-02-14T09:11:39.667Z</time>
      </trkpt>
      <trkpt lat="58.82748995907605" lon="13.988717962056398">
        <ele>53.95</ele>
        <time>2025-02-14T09:12:28.425Z</time>
      </trkpt>
      <trkpt lat="58.8275889493525" lon="13.988737994804978">
        <ele>53.9</ele>
        <time>2025-02-14T09:13:17.184Z</time>
      </trkpt>
      <trkpt lat="58.82768693380058" lon="13.988757943734527">
        <ele>53.85</ele>
        <time>2025-02-14T09:14:05.945Z</time>
      </trkpt>
      <trkpt lat="58.82778491824865" lon="13.988777976483107">
        <ele>53.8</ele>
        <time>2025-02-14T09:14:54.707Z</time>
      </trkpt>
      <trkpt lat="58.827880974859" lon="13.988797925412655">
        <ele>53.75</ele>
        <time>2025-02-14T09:15:43.471Z</time>
      </trkpt>
      <trkpt lat="58.827977953478694" lon="13.988817958161235">
        <ele>53.71</ele>
        <time>2025-02-14T09:16:32.237Z</time>
      </trkpt>
      <trkpt lat="58.82807392627001" lon="13.988836985081434">
        <ele>53.66</ele>
        <time>2025-02-14T09:17:21.004Z</time>
      </trkpt>
      <trkpt lat="58.828169982880354" lon="13.988855928182602">
        <ele>53.62</ele>
        <time>2025-02-14T09:18:09.773Z</time>
      </trkpt>
      <trkpt lat="58.82826595567167" lon="13.988874955102801">
        <ele>53.58</ele>
        <time>2025-02-14T09:18:58.543Z</time>
      </trkpt>
      <trkpt lat="58.82836293429136" lon="13.98889197036624">
        <ele>53.54</ele>
        <time>2025-02-14T09:19:47.315Z</time>
      </trkpt>
      <trkpt lat="58.82845999673009" lon="13.988908985629678">
        <ele>53.5</ele>
        <time>2025-02-14T09:20:36.088Z</time>
      </trkpt>
      <trkpt lat="58.828556975349784" lon="13.988924995064735">
        <ele>53.46</ele>
        <time>2025-02-14T09:21:24.863Z</time>
      </trkpt>
      <trkpt lat="58.8286529481411" lon="13.988939998671412">
        <ele>53.43</ele>
        <time>2025-02-14T09:22:13.639Z</time>
      </trkpt>
      <trkpt lat="58.82874892093241" lon="13.988953996449709">
        <ele>53.4</ele>
        <time>2025-02-14T09:23:02.417Z</time>
      </trkpt>
      <trkpt lat="58.82884397171438" lon="13.988967994228005">
        <ele>53.37</ele>
        <time>2025-02-14T09:23:51.197Z</time>
      </trkpt>
      <trkpt lat="58.82893893867731" lon="13.988980986177921">
        <ele>53.34</ele>
        <time>2025-02-14T09:24:39.978Z</time>
      </trkpt>
      <trkpt lat="58.82903499528766" lon="13.988991966471076">
        <ele>53.31</ele>
        <time>2025-02-14T09:25:28.761Z</time>
      </trkpt>
      <trkpt lat="58.82913096807897" lon="13.98900294676423">
        <ele>53.29</ele>
        <time>2025-02-14T09:26:17.545Z</time>
      </trkpt>
      <trkpt lat="58.829227946698666" lon="13.989014932885766">
        <ele>53.26</ele>
        <time>2025-02-14T09:27:06.331Z</time>
      </trkpt>
      <trkpt lat="58.82932492531836" lon="13.989024991169572">
        <ele>53.24</ele>
        <time>2025-02-14T09:27:55.118Z</time>
      </trkpt>
      <trkpt lat="58.82942198775709" lon="13.989033959805965">
        <ele>53.22</ele>
        <time>2025-02-14T09:28:43.907Z</time>
      </trkpt>
      <trkpt lat="58.82951896637678" lon="13.989042928442359">
        <ele>53.2</ele>
        <time>2025-02-14T09:29:32.697Z</time>
      </trkpt>
      <trkpt lat="58.829615944996476" lon="13.989050975069404">
        <ele>53.18</ele>
        <time>2025-02-14T09:30:21.489Z</time>
      </trkpt>
      <trkpt lat="58.82971191778779" lon="13.989060949534178">
        <ele>53.17</ele>
        <time>2025-02-14T09:31:10.282Z</time>
      </trkpt>
      <trkpt lat="58.829806968569756" lon="13.989068996161222">
        <ele>53.16</ele>
        <time>2025-02-14T09:31:59.077Z</time>
      </trkpt>
      <trkpt lat="58.82990193553269" lon="13.989076958969235">
        <ele>53.15</ele>
        <time>2025-02-14T09:32:47.874Z</time>
      </trkpt>
      <trkpt lat="58.829995980486274" lon="13.989081988111138">
        <ele>53.15</ele>
        <time>2025-02-14T09:33:36.672Z</time>
      </trkpt>
      <trkpt lat="58.83008994162083" lon="13.98908693343401">
        <ele>53.14</ele>
        <time>2025-02-14T09:34:25.472Z</time>
      </trkpt>
      <trkpt lat="58.83018599823117" lon="13.989092968404293">
        <ele>53.13</ele>
        <time>2025-02-14T09:35:14.273Z</time>
      </trkpt>
      <trkpt lat="58.83028197102249" lon="13.989098919555545">
        <ele>53.13</ele>
        <time>2025-02-14T09:36:03.076Z</time>
      </trkpt>
      <trkpt lat="58.83037693798542" lon="13.989103948697448">
        <ele>53.13</ele>
        <time>2025-02-14T09:36:51.880Z</time>
      </trkpt>
      <trkpt lat="58.830472994595766" lon="13.98910897783935">
        <ele>53.13</ele>
        <time>2025-02-14T09:37:40.686Z</time>
      </trkpt>
      <trkpt lat="58.83056594990194" lon="13.989112917333841">
        <ele>53.14</ele>
        <time>2025-02-14T09:38:29.493Z</time>
      </trkpt>
      <trkpt lat="58.83065798319876" lon="13.989116940647364">
        <ele>53.15</ele>
        <time>2025-02-14T09:39:18.302Z</time>
      </trkpt>
      <trkpt lat="58.83074892684817" lon="13.989121969789267">
        <ele>53.16</ele>
        <time>2025-02-14T09:40:07.112Z</time>
      </trkpt>
      <trkpt lat="58.830837942659855" lon="13.98912699893117">
        <ele>53.17</ele>
        <time>2025-02-14T09:40:55.924Z</time>
      </trkpt>
      <trkpt lat="58.83092796429992" lon="13.98912993259728">
        <ele>53.19</ele>
        <time>2025-02-14T09:41:44.737Z</time>
      </trkpt>
      <trkpt lat="58.83101798593998" lon="13.989134961739182">
        <ele>53.21</ele>
        <time>2025-02-14T09:42:33.551Z</time>
      </trkpt>
      <trkpt lat="58.83110892958939" lon="13.989139990881085">
        <ele>53.23</ele>
        <time>2025-02-14T09:43:22.367Z</time>
      </trkpt>
      <trkpt lat="58.83119794540107" lon="13.989146947860718">
        <ele>53.25</ele>
        <time>2025-02-14T09:44:11.184Z</time>
      </trkpt>
      <trkpt lat="58.831286961212754" lon="13.98915197700262">
        <ele>53.28</ele>
        <time>2025-02-14T09:45:00.003Z</time>
      </trkpt>
      <trkpt lat="58.831375977024436" lon="13.989156922325492">
        <ele>53.32</ele>
        <time>2025-02-14T09:45:48.823Z</time>
      </trkpt>
      <trkpt lat="58.83146499283612" lon="13.989162957295775">
        <ele>53.36</ele>
        <time>2025-02-14T09:46:37.645Z</time>
      </trkpt>
      <trkpt lat="58.83155392482877" lon="13.989167986437678">
        <ele>53.4</ele>
        <time>2025-02-14T09:47:26.468Z</time>
      </trkpt>
      <trkpt lat="58.83164193481207" lon="13.989170920103788">
        <ele>53.44</ele>
        <time>2025-02-14T09:48:15.292Z</time>
      </trkpt>
      <trkpt lat="58.83172793313861" lon="13.98917393758893">
        <ele>53.48</ele>
        <time>2025-02-14T09:49:04.118Z</time>
      </trkpt>
      <trkpt lat="58.83181393146515" lon="13.989177960902452">
        <ele>53.52</ele>
        <time>2025-02-14T09:49:52.945Z</time>
      </trkpt>
      <trkpt lat="58.83189992979169" lon="13.989181984215975">
        <ele>53.57</ele>
        <time>2025-02-14T09:50:41.774Z</time>
      </trkpt>
      <trkpt lat="58.83198299445212" lon="13.989185923710465">
        <ele>53.62</ele>
        <time>2025-02-14T09:51:30.604Z</time>
      </trkpt>
      <trkpt lat="58.83206496946514" lon="13.989189947023988">
        <ele>53.66</ele>
        <time>2025-02-14T09:52:19.435Z</time>
      </trkpt>
      <trkpt lat="58.832146944478154" lon="13.98919397033751">
        <ele>53.71</ele>
        <time>2025-02-14T09:53:08.268Z</time>
      </trkpt>
      <trkpt lat="58.83222992531955" lon="13.989196987822652">
        <ele>53.76</ele>
        <time>2025-02-14T09:53:57.102Z</time>
      </trkpt>
      <trkpt lat="58.8323119841516" lon="13.989200927317142">
        <ele>53.8</ele>
        <time>2025-02-14T09:54:45.937Z</time>
      </trkpt>
      <trkpt lat="58.832394964993" lon="13.989205956459045">
        <ele>53.86</ele>
        <time>2025-02-14T09:55:34.774Z</time>
      </trkpt>
      <trkpt lat="58.83247694000602" lon="13.989209979772568">
        <ele>53.91</ele>
        <time>2025-02-14T09:56:23.612Z</time>
      </trkpt>
      <trkpt lat="58.83255899883807" lon="13.989214925095439">
        <ele>53.97</ele>
        <time>2025-02-14T09:57:12.451Z</time>
      </trkpt>
      <trkpt lat="58.832641979679465" lon="13.989219954237342">
        <ele>54.02</ele>
        <time>2025-02-14T09:58:01.292Z</time>
      </trkpt>
      <trkpt lat="58.83272496052086" lon="13.989226995036006">
        <ele>54.08</ele>
        <time>2025-02-14T09:58:50.134Z</time>
      </trkpt>
      <trkpt lat="58.8328109588474" lon="13.989232946187258">
        <ele>54.13</ele>
        <time>2025-02-14T09:59:38.977Z</time>
      </trkpt>
      <trkpt lat="58.83289494551718" lon="13.98923696950078">
        <ele>54.19</ele>
        <time>2025-02-14T10:00:27.822Z</time>
      </trkpt>
      <trkpt lat="58.83297993801534" lon="13.989239986985922">
        <ele>54.25</ele>
        <time>2025-02-14T10:01:16.668Z</time>
      </trkpt>
      <trkpt lat="58.8330649305135" lon="13.989242920652032">
        <ele>54.31</ele>
        <time>2025-02-14T10:02:05.515Z</time>
      </trkpt>
      <trkpt lat="58.83314891718328" lon="13.989246943965554">
        <ele>54.36</ele>
        <time>2025-02-14T10:02:54.364Z</time>
      </trkpt>
      <trkpt lat="58.83323097601533" lon="13.989253984764218">
        <ele>54.42</ele>
        <time>2025-02-14T10:03:43.214Z</time>
      </trkpt>
      <trkpt lat="58.83331496268511" lon="13.98925893008709">
        <ele>54.48</ele>
        <time>2025-02-14T10:04:32.065Z</time>
      </trkpt>
      <trkpt lat="58.83339894935489" lon="13.989263959228992">
        <ele>54.53</ele>
        <time>2025-02-14T10:05:20.918Z</time>
      </trkpt>
      <trkpt lat="58.833483941853046" lon="13.989268988370895">
        <ele>54.59</ele>
        <time>2025-02-14T10:06:09.772Z</time>
      </trkpt>
      <trkpt lat="58.833568934351206" lon="13.989273933693767">
        <ele>54.65</ele>
        <time>2025-02-14T10:06:58.627Z</time>
      </trkpt>
      <trkpt lat="58.833653926849365" lon="13.98927896283567">
        <ele>54.71</ele>
        <time>2025-02-14T10:07:47.484Z</time>
      </trkpt>
      <trkpt lat="58.833737997338176" lon="13.989282986149192">
        <ele>54.77</ele>
        <time>2025-02-14T10:08:36.342Z</time>
      </trkpt>
      <trkpt lat="58.83381997235119" lon="13.989287931472063">
        <ele>54.83</ele>
        <time>2025-02-14T10:09:25.201Z</time>
      </trkpt>
      <trkpt lat="58.83390295319259" lon="13.989291954785585">
        <ele>54.89</ele>
        <time>2025-02-14T10:10:14.062Z</time>
      </trkpt>
      <trkpt lat="58.83398492820561" lon="13.989296983927488">
        <ele>54.95</ele>
        <time>2025-02-14T10:11:02.924Z</time>
      </trkpt>
      <trkpt lat="58.83406598120928" lon="13.98930192925036">
        <ele>55.01</ele>
        <time>2025-02-14T10:11:51.787Z</time>
      </trkpt>
      <trkpt lat="58.834147956222296" lon="13.989306958392262">
        <ele>55.07</ele>
        <time>2025-02-14T10:12:40.652Z</time>
      </trkpt>
      <trkpt lat="58.834230937063694" lon="13.989312993362546">
        <ele>55.12</ele>
        <time>2025-02-14T10:13:29.518Z</time>
      </trkpt>
      <trkpt lat="58.83431492373347" lon="13.989317938685417">
        <ele>55.18</ele>
        <time>2025-02-14T10:14:18.385Z</time>
      </trkpt>
      <trkpt lat="58.83439899422228" lon="13.98932196199894">
        <ele>55.25</ele>
        <time>2025-02-14T10:15:07.254Z</time>
      </trkpt>
      <trkpt lat="58.83448398672044" lon="13.989324979484081">
        <ele>55.31</ele>
        <time>2025-02-14T10:15:56.124Z</time>
      </trkpt>
      <trkpt lat="58.83456998504698" lon="13.989328918978572">
        <ele>55.37</ele>
        <time>2025-02-14T10:16:44.995Z</time>
      </trkpt>
      <trkpt lat="58.834657995030284" lon="13.989334953948855">
        <ele>55.43</ele>
        <time>2025-02-14T10:17:33.868Z</time>
      </trkpt>
      <trkpt lat="58.83474592119455" lon="13.989338977262378">
        <ele>55.48</ele>
        <time>2025-02-14T10:18:22.742Z</time>
      </trkpt>
      <trkpt lat="58.834836948662996" lon="13.989340988919139">
        <ele>55.54</ele>
        <time>2025-02-14T10:19:11.618Z</time>
      </trkpt>
      <trkpt lat="58.83492596447468" lon="13.989343922585249">
        <ele>55.59</ele>
        <time>2025-02-14T10:20:00.495Z</time>
      </trkpt>
      <trkpt lat="58.83501196280122" lon="13.989349957555532">
        <ele>55.64</ele>
        <time>2025-02-14T10:20:49.374Z</time>
      </trkpt>
      <trkpt lat="58.83509695529938" lon="13.989355992525816">
        <ele>55.69</ele>
        <time>2025-02-14T10:21:38.254Z</time>
      </trkpt>
      <trkpt lat="58.83518194779754" lon="13.989361943677068">
        <ele>55.75</ele>
        <time>2025-02-14T10:22:27.135Z</time>
      </trkpt>
      <trkpt lat="58.835266940295696" lon="13.98936596699059">
        <ele>55.81</ele>
        <time>2025-02-14T10:23:16.018Z</time>
      </trkpt>
      <trkpt lat="58.835351932793856" lon="13.989368984475732">
        <ele>55.87</ele>
        <time>2025-02-14T10:24:04.902Z</time>
      </trkpt>
      <trkpt lat="58.835437931120396" lon="13.989371918141842">
        <ele>55.93</ele>
        <time>2025-02-14T10:24:53.787Z</time>
      </trkpt>
      <trkpt lat="58.835524935275316" lon="13.989376947283745">
        <ele>56.0</ele>
        <time>2025-02-14T10:25:42.674Z</time>
      </trkpt>
      <trkpt lat="58.83561193943024" lon="13.989381976425648">
        <ele>56.06</ele>
        <time>2025-02-14T10:26:31.562Z</time>
      </trkpt>
      <trkpt lat="58.83569793775678" lon="13.98938893340528">
        <ele>56.13</ele>
        <time>2025-02-14T10:27:20.452Z</time>
      </trkpt>
      <trkpt lat="58.83578594774008" lon="13.989393962547183">
        <ele>56.2</ele>
        <time>2025-02-14T10:28:09.343Z</time>
      </trkpt>
      <trkpt lat="58.83587496355176" lon="13.989399997517467">
        <ele>56.27</ele>
        <time>2025-02-14T10:28:58.235Z</time>
      </trkpt>
      <trkpt lat="58.83596498519182" lon="13.989405948668718">
        <ele>56.34</ele>
        <time>2025-02-14T10:29:47.129Z</time>
      </trkpt>
      <trkpt lat="58.83605391718447" lon="13.989410977810621">
        <ele>56.42</ele>
        <time>2025-02-14T10:30:36.024Z</time>
      </trkpt>
      <trkpt lat="58.836143938824534" lon="13.989415923133492">
        <ele>56.49</ele>
        <time>2025-02-14T10:31:24.921Z</time>
      </trkpt>
      <trkpt lat="58.8362339604646" lon="13.989421958103776">
        <ele>56.56</ele>
        <time>2025-02-14T10:32:13.819Z</time>
      </trkpt>
      <trkpt lat="58.83632398210466" lon="13.989425981417298">
        <ele>56.62</ele>
        <time>2025-02-14T10:33:02.719Z</time>
      </trkpt>
      <trkpt lat="58.83641593158245" lon="13.98943092674017">
        <ele>56.69</ele>
        <time>2025-02-14T10:33:51.620Z</time>
      </trkpt>
      <trkpt lat="58.836506959050894" lon="13.989436961710453">
        <ele>56.76</ele>
        <time>2025-02-14T10:34:40.523Z</time>
      </trkpt>
      <trkpt lat="58.83659899234772" lon="13.989441990852356">
        <ele>56.82</ele>
        <time>2025-02-14T10:35:29.427Z</time>
      </trkpt>
      <trkpt lat="58.83668993599713" lon="13.989445930346847">
        <ele>56.89</ele>
        <time>2025-02-14T10:36:18.332Z</time>
      </trkpt>
      <trkpt lat="58.83678196929395" lon="13.98945196531713">
        <ele>56.95</ele>
        <time>2025-02-14T10:37:07.239Z</time>
      </trkpt>
      <trkpt lat="58.836873918771744" lon="13.989456994459033">
        <ele>57.02</ele>
        <time>2025-02-14T10:37:56.147Z</time>
      </trkpt>
      <trkpt lat="58.83696595206857" lon="13.989460933953524">
        <ele>57.08</ele>
        <time>2025-02-14T10:38:45.057Z</time>
      </trkpt>
      <trkpt lat="58.83705798536539" lon="13.989465963095427">
        <ele>57.15</ele>
        <time>2025-02-14T10:39:33.968Z</time>
      </trkpt>
      <trkpt lat="58.83714993484318" lon="13.98947099223733">
        <ele>57.21</ele>
        <time>2025-02-14T10:40:22.881Z</time>
      </trkpt>
      <trkpt lat="58.837241968140006" lon="13.9894759375602">
        <ele>57.28</ele>
        <time>2025-02-14T10:41:11.795Z</time>
      </trkpt>
      <trkpt lat="58.83733299560845" lon="13.989479960873723">
        <ele>57.35</ele>
        <time>2025-02-14T10:42:00.711Z</time>
      </trkpt>
      <trkpt lat="58.83742393925786" lon="13.989484990015626">
        <ele>57.42</ele>
        <time>2025-02-14T10:42:49.628Z</time>
      </trkpt>
      <trkpt lat="58.8375149667263" lon="13.989490941166878">
        <ele>57.48</ele>
        <time>2025-02-14T10:43:38.547Z</time>
      </trkpt>
      <trkpt lat="58.837605994194746" lon="13.98949597030878">
        <ele>57.55</ele>
        <time>2025-02-14T10:44:27.467Z</time>
      </trkpt>
      <trkpt lat="58.83769693784416" lon="13.989502927288413">
        <ele>57.62</ele>
        <time>2025-02-14T10:45:16.389Z</time>
      </trkpt>
      <trkpt lat="58.8377879653126" lon="13.989508962258697">
        <ele>57.68</ele>
        <time>2025-02-14T10:46:05.312Z</time>
      </trkpt>
      <trkpt lat="58.83787899278104" lon="13.9895139914006">
        <ele>57.75</ele>
        <time>2025-02-14T10:46:54.237Z</time>
      </trkpt>
      <trkpt lat="58.837969936430454" lon="13.989519942551851">
        <ele>57.81</ele>
        <time>2025-02-14T10:47:43.163Z</time>
      </trkpt>
      <trkpt lat="58.83806196972728" lon="13.989523965865374">
        <ele>57.87</ele>
        <time>2025-02-14T10:48:32.090Z</time>
      </trkpt>
      <trkpt lat="58.83815199136734" lon="13.989528995007277">
        <ele>57.93</ele>
        <time>2025-02-14T10:49:21.019Z</time>
      </trkpt>
      <trkpt lat="58.83824293501675" lon="13.989532934501767">
        <ele>57.99</ele>
        <time>2025-02-14T10:50:09.949Z</time>
      </trkpt>
      <trkpt lat="58.838333962485194" lon="13.98953796364367">
        <ele>58.05</ele>
        <time>2025-02-14T10:50:58.881Z</time>
      </trkpt>
      <trkpt lat="58.83842398412526" lon="13.989541986957192">
        <ele>58.11</ele>
        <time>2025-02-14T10:51:47.814Z</time>
      </trkpt>
      <trkpt lat="58.83851492777467" lon="13.989545926451683">
        <ele>58.17</ele>
        <time>2025-02-14T10:52:36.749Z</time>
      </trkpt>
      <trkpt lat="58.83860494941473" lon="13.989550955593586">
        <ele>58.23</ele>
        <time>2025-02-14T10:53:25.685Z</time>
      </trkpt>
      <trkpt lat="58.838696982711554" lon="13.989553973078728">
        <ele>58.28</ele>
        <time>2025-02-14T10:54:14.623Z</time>
      </trkpt>
      <trkpt lat="58.838788932189345" lon="13.989558918401599">
        <ele>58.33</ele>
        <time>2025-02-14T10:55:03.562Z</time>
      </trkpt>
      <trkpt lat="58.83888096548617" lon="13.989562941715121">
        <ele>58.38</ele>
        <time>2025-02-14T10:55:52.503Z</time>
      </trkpt>
      <trkpt lat="58.83897199295461" lon="13.989566965028644">
        <ele>58.43</ele>
        <time>2025-02-14T10:56:41.445Z</time>
      </trkpt>
      <trkpt lat="58.83906193077564" lon="13.989568976685405">
        <ele>58.48</ele>
        <time>2025-02-14T10:57:30.389Z</time>
      </trkpt>
      <trkpt lat="58.839152958244085" lon="13.989572999998927">
        <ele>58.52</ele>
        <time>2025-02-14T10:58:19.334Z</time>
      </trkpt>
      <trkpt lat="58.83924096822739" lon="13.989578951150179">
        <ele>58.57</ele>
        <time>2025-02-14T10:59:08.280Z</time>
      </trkpt>
      <trkpt lat="58.83932998403907" lon="13.989582974463701">
        <ele>58.61</ele>
        <time>2025-02-14T10:59:57.228Z</time>
      </trkpt>
      <trkpt lat="58.83941799402237" lon="13.989585991948843">
        <ele>58.65</ele>
        <time>2025-02-14T11:00:46.177Z</time>
      </trkpt>
      <trkpt lat="58.83950592018664" lon="13.989589931443334">
        <ele>58.68</ele>
        <time>2025-02-14T11:01:35.128Z</time>
      </trkpt>
      <trkpt lat="58.83959795348346" lon="13.989596972241998">
        <ele>58.71</ele>
        <time>2025-02-14T11:02:24.080Z</time>
      </trkpt>
      <trkpt lat="58.839686969295144" lon="13.989601917564869">
        <ele>58.74</ele>
        <time>2025-02-14T11:03:13.034Z</time>
      </trkpt>
      <trkpt lat="58.839776990935206" lon="13.989607952535152">
        <ele>58.77</ele>
        <time>2025-02-14T11:04:01.989Z</time>
      </trkpt>
      <trkpt lat="58.83986692875624" lon="13.989612981677055">
        <ele>58.8</ele>
        <time>2025-02-14T11:04:50.945Z</time>
      </trkpt>
      <trkpt lat="58.8399569503963" lon="13.989618932828307">
        <ele>58.83</ele>
        <time>2025-02-14T11:05:39.903Z</time>
      </trkpt>
      <trkpt lat="58.84004797786474" lon="13.98962295614183">
        <ele>58.86</ele>
        <time>2025-02-14T11:06:28.862Z</time>
      </trkpt>
      <trkpt lat="58.840136993676424" lon="13.989628991112113">
        <ele>58.88</ele>
        <time>2025-02-14T11:07:17.823Z</time>
      </trkpt>
      <trkpt lat="58.840226931497455" lon="13.989635948091745">
        <ele>58.91</ele>
        <time>2025-02-14T11:08:06.785Z</time>
      </trkpt>
      <trkpt lat="58.8403179589659" lon="13.98964298889041">
        <ele>58.95</ele>
        <time>2025-02-14T11:08:55.749Z</time>
      </trkpt>
      <trkpt lat="58.84040898643434" lon="13.98964793421328">
        <ele>58.97</ele>
        <time>2025-02-14T11:09:44.714Z</time>
      </trkpt>
      <trkpt lat="58.84050093591213" lon="13.989651957526803">
        <ele>59.0</ele>
        <time>2025-02-14T11:10:33.681Z</time>
      </trkpt>
      <trkpt lat="58.840590957552195" lon="13.989659920334816">
        <ele>59.02</ele>
        <time>2025-02-14T11:11:22.649Z</time>
      </trkpt>
      <trkpt lat="58.84068198502064" lon="13.98966696113348">
        <ele>59.04</ele>
        <time>2025-02-14T11:12:11.619Z</time>
      </trkpt>
      <trkpt lat="58.84077292867005" lon="13.989670984447002">
        <ele>59.06</ele>
        <time>2025-02-14T11:13:00.590Z</time>
      </trkpt>
      <trkpt lat="58.84086395613849" lon="13.989675929769874">
        <ele>59.08</ele>
        <time>2025-02-14T11:13:49.562Z</time>
      </trkpt>
      <trkpt lat="58.840953977778554" lon="13.989682970568538">
        <ele>59.1</ele>
        <time>2025-02-14T11:14:38.536Z</time>
      </trkpt>
      <trkpt lat="58.841046933084726" lon="13.98968892171979">
        <ele>59.12</ele>
        <time>2025-02-14T11:15:27.511Z</time>
      </trkpt>
      <trkpt lat="58.84113796055317" lon="13.989694956690073">
        <ele>59.13</ele>
        <time>2025-02-14T11:16:16.488Z</time>
      </trkpt>
      <trkpt lat="58.84122697636485" lon="13.989698980003595">
        <ele>59.14</ele>
        <time>2025-02-14T11:17:05.466Z</time>
      </trkpt>
      <trkpt lat="58.84131599217653" lon="13.989702919498086">
        <ele>59.14</ele>
        <time>2025-02-14T11:17:54.446Z</time>
      </trkpt>
      <trkpt lat="58.84140592999756" lon="13.98970996029675">
        <ele>59.15</ele>
        <time>2025-02-14T11:18:43.427Z</time>
      </trkpt>
      <trkpt lat="58.84149796329439" lon="13.989715995267034">
        <ele>59.15</ele>
        <time>2025-02-14T11:19:32.410Z</time>
      </trkpt>
      <trkpt lat="58.84158899076283" lon="13.989719934761524">
        <ele>59.16</ele>
        <time>2025-02-14T11:20:21.394Z</time>
      </trkpt>
      <trkpt lat="58.84168094024062" lon="13.989724963903427">
        <ele>59.16</ele>
        <time>2025-02-14T11:21:10.380Z</time>
      </trkpt>
      <trkpt lat="58.841773979365826" lon="13.98972999304533">
        <ele>59.16</ele>
        <time>2025-02-14T11:21:59.367Z</time>
      </trkpt>
      <trkpt lat="58.841866934672" lon="13.98973393253982">
        <ele>59.16</ele>
        <time>2025-02-14T11:22:48.356Z</time>
      </trkpt>
      <trkpt lat="58.8419599737972" lon="13.989738961681724">
        <ele>59.15</ele>
        <time>2025-02-14T11:23:37.346Z</time>
      </trkpt>
      <trkpt lat="58.842052929103374" lon="13.989743990823627">
        <ele>59.15</ele>
        <time>2025-02-14T11:24:26.338Z</time>
      </trkpt>
      <trkpt lat="58.84214697405696" lon="13.989746924489737">
        <ele>59.14</ele>
        <time>2025-02-14T11:25:15.331Z</time>
      </trkpt>
      <trkpt lat="58.84223892353475" lon="13.98975195363164">
        <ele>59.13</ele>
        <time>2025-02-14T11:26:04.326Z</time>
      </trkpt>
      <trkpt lat="58.842331962659955" lon="13.989755976945162">
        <ele>59.12</ele>
        <time>2025-02-14T11:26:53.322Z</time>
      </trkpt>
      <trkpt lat="58.8424229901284" lon="13.989759916439652">
        <ele>59.11</ele>
        <time>2025-02-14T11:27:42.319Z</time>
      </trkpt>
      <trkpt lat="58.84251594543457" lon="13.989763939753175">
        <ele>59.11</ele>
        <time>2025-02-14T11:28:31.318Z</time>
      </trkpt>
      <trkpt lat="58.842607978731394" lon="13.989768968895078">
        <ele>59.09</ele>
        <time>2025-02-14T11:29:20.318Z</time>
      </trkpt>
      <trkpt lat="58.842699928209186" lon="13.98977492004633">
        <ele>59.07</ele>
        <time>2025-02-14T11:30:09.320Z</time>
      </trkpt>
      <trkpt lat="58.84279095567763" lon="13.989780955016613">
        <ele>59.05</ele>
        <time>2025-02-14T11:30:58.323Z</time>
      </trkpt>
      <trkpt lat="58.84288298897445" lon="13.989785984158516">
        <ele>59.02</ele>
        <time>2025-02-14T11:31:47.328Z</time>
      </trkpt>
      <trkpt lat="58.84297393262386" lon="13.989790929481387">
        <ele>58.99</ele>
        <time>2025-02-14T11:32:36.334Z</time>
      </trkpt>
      <trkpt lat="58.843063954263926" lon="13.98979495279491">
        <ele>58.96</ele>
        <time>2025-02-14T11:33:25.342Z</time>
      </trkpt>
      <trkpt lat="58.84315397590399" lon="13.989800987765193">
        <ele>58.93</ele>
        <time>2025-02-14T11:34:14.351Z</time>
      </trkpt>
      <trkpt lat="58.84324399754405" lon="13.989806938916445">
        <ele>58.89</ele>
        <time>2025-02-14T11:35:03.362Z</time>
      </trkpt>
      <trkpt lat="58.84333393536508" lon="13.989812973886728">
        <ele>58.85</ele>
        <time>2025-02-14T11:35:52.374Z</time>
      </trkpt>
      <trkpt lat="58.84342395700514" lon="13.98981892503798">
        <ele>58.81</ele>
        <time>2025-02-14T11:36:41.388Z</time>
      </trkpt>
      <trkpt lat="58.843513978645205" lon="13.989826971665025">
        <ele>58.77</ele>
        <time>2025-02-14T11:37:30.403Z</time>
      </trkpt>
      <trkpt lat="58.84360492229462" lon="13.989834934473038">
        <ele>58.73</ele>
        <time>2025-02-14T11:38:19.419Z</time>
      </trkpt>
      <trkpt lat="58.84369494393468" lon="13.989846920594573">
        <ele>58.68</ele>
        <time>2025-02-14T11:39:08.437Z</time>
      </trkpt>
      <trkpt lat="58.84378597140312" lon="13.989856978878379">
        <ele>58.64</ele>
        <time>2025-02-14T11:39:57.456Z</time>
      </trkpt>
      <trkpt lat="58.843876998871565" lon="13.989870976656675">
        <ele>58.59</ele>
        <time>2025-02-14T11:40:46.477Z</time>
      </trkpt>
      <trkpt lat="58.843967942520976" lon="13.989886986091733">
        <ele>58.54</ele>
        <time>2025-02-14T11:41:35.499Z</time>
      </trkpt>
      <trkpt lat="58.84405896998942" lon="13.98990198969841">
        <ele>58.49</ele>
        <time>2025-02-14T11:42:24.523Z</time>
      </trkpt>
      <trkpt lat="58.84415091946721" lon="13.989914981648326">
        <ele>58.44</ele>
        <time>2025-02-14T11:43:13.548Z</time>
      </trkpt>
      <trkpt lat="58.84424094110727" lon="13.989929985255003">
        <ele>58.38</ele>
        <time>2025-02-14T11:44:02.575Z</time>
      </trkpt>
      <trkpt lat="58.844330962747335" lon="13.98994792252779">
        <ele>58.32</ele>
        <time>2025-02-14T11:44:51.603Z</time>
      </trkpt>
      <trkpt lat="58.8444209843874" lon="13.989964937791228">
        <ele>58.26</ele>
        <time>2025-02-14T11:45:40.633Z</time>
      </trkpt>
      <trkpt lat="58.8445089943707" lon="13.989984970539808">
        <ele>58.2</ele>
        <time>2025-02-14T11:46:29.664Z</time>
      </trkpt>
      <trkpt lat="58.84459599852562" lon="13.990006931126118">
        <ele>58.14</ele>
        <time>2025-02-14T11:47:18.696Z</time>
      </trkpt>
      <trkpt lat="58.84468199685216" lon="13.9900319930166">
        <ele>58.08</ele>
        <time>2025-02-14T11:48:07.730Z</time>
      </trkpt>
      <trkpt lat="58.84476891718805" lon="13.990057976916432">
        <ele>58.02</ele>
        <time>2025-02-14T11:48:56.765Z</time>
      </trkpt>
      <trkpt lat="58.84485692717135" lon="13.990083960816264">
        <ele>57.95</ele>
        <time>2025-02-14T11:49:45.802Z</time>
      </trkpt>
      <trkpt lat="58.84494594298303" lon="13.990112962201238">
        <ele>57.89</ele>
        <time>2025-02-14T11:50:34.840Z</time>
      </trkpt>
      <trkpt lat="58.84503495879471" lon="13.990142969414592">
        <ele>57.82</ele>
        <time>2025-02-14T11:51:23.880Z</time>
      </trkpt>
      <trkpt lat="58.845123974606395" lon="13.990171970799565">
        <ele>57.75</ele>
        <time>2025-02-14T11:52:12.921Z</time>
      </trkpt>
      <trkpt lat="58.845214918255806" lon="13.990200972184539">
        <ele>57.68</ele>
        <time>2025-02-14T11:53:01.963Z</time>
      </trkpt>
      <trkpt lat="58.84530795738101" lon="13.990233996883035">
        <ele>57.6</ele>
        <time>2025-02-14T11:53:51.007Z</time>
      </trkpt>
      <trkpt lat="58.84539898484945" lon="13.99026995524764">
        <ele>57.52</ele>
        <time>2025-02-14T11:54:40.052Z</time>
      </trkpt>
      <trkpt lat="58.845489928498864" lon="13.990306919440627">
        <ele>57.44</ele>
        <time>2025-02-14T11:55:29.099Z</time>
      </trkpt>
      <trkpt lat="58.84558196179569" lon="13.990346984937787">
        <ele>57.36</ele>
        <time>2025-02-14T11:56:18.147Z</time>
      </trkpt>
      <trkpt lat="58.84567491710186" lon="13.990387972444296">
        <ele>57.28</ele>
        <time>2025-02-14T11:57:07.197Z</time>
      </trkpt>
      <trkpt lat="58.845768962055445" lon="13.990428959950805">
        <ele>57.19</ele>
        <time>2025-02-14T11:57:56.249Z</time>
      </trkpt>
      <trkpt lat="58.84586493484676" lon="13.990471959114075">
        <ele>57.1</ele>
        <time>2025-02-14T11:58:45.302Z</time>
      </trkpt>
      <trkpt lat="58.84595897980034" lon="13.990516969934106">
        <ele>57.01</ele>
        <time>2025-02-14T11:59:34.357Z</time>
      </trkpt>
      <trkpt lat="58.84605495259166" lon="13.990561980754137">
        <ele>56.92</ele>
        <time>2025-02-14T12:00:23.413Z</time>
      </trkpt>
      <trkpt lat="58.84614899754524" lon="13.990607997402549">
        <ele>56.83</ele>
        <time>2025-02-14T12:01:12.471Z</time>
      </trkpt>
      <trkpt lat="58.846241952851415" lon="13.99065594188869">
        <ele>56.74</ele>
        <time>2025-02-14T12:02:01.530Z</time>
      </trkpt>
      <trkpt lat="58.84633499197662" lon="13.990705981850624">
        <ele>56.65</ele>
        <time>2025-02-14T12:02:50.591Z</time>
      </trkpt>
      <trkpt lat="58.84642694145441" lon="13.990755937993526">
        <ele>56.56</ele>
        <time>2025-02-14T12:03:39.653Z</time>
      </trkpt>
      <trkpt lat="58.846518974751234" lon="13.990806983783841">
        <ele>56.47</ele>
        <time>2025-02-14T12:04:28.717Z</time>
      </trkpt>
      <trkpt lat="58.846609918400645" lon="13.990858951583505">
        <ele>56.38</ele>
        <time>2025-02-14T12:05:17.783Z</time>
      </trkpt>
      <trkpt lat="58.84669994004071" lon="13.99091393686831">
        <ele>56.28</ele>
        <time>2025-02-14T12:06:06.850Z</time>
      </trkpt>
      <trkpt lat="58.84678795002401" lon="13.990969927981496">
        <ele>56.19</ele>
        <time>2025-02-14T12:06:55.919Z</time>
      </trkpt>
      <trkpt lat="58.84687696583569" lon="13.991024997085333">
        <ele>56.09</ele>
        <time>2025-02-14T12:07:44.989Z</time>
      </trkpt>
      <trkpt lat="58.84696799330413" lon="13.991079982370138">
        <ele>56.0</ele>
        <time>2025-02-14T12:08:34.061Z</time>
      </trkpt>
      <trkpt lat="58.847060948610306" lon="13.991135973483324">
        <ele>55.9</ele>
        <time>2025-02-14T12:09:23.134Z</time>
      </trkpt>
      <trkpt lat="58.84715398773551" lon="13.991196993738413">
        <ele>55.79</ele>
        <time>2025-02-14T12:10:12.209Z</time>
      </trkpt>
      <trkpt lat="58.84724794887006" lon="13.991259941831231">
        <ele>55.68</ele>
        <time>2025-02-14T12:11:01.285Z</time>
      </trkpt>
      <trkpt lat="58.84734098799527" lon="13.991322973743081">
        <ele>55.58</ele>
        <time>2025-02-14T12:11:50.363Z</time>
      </trkpt>
      <trkpt lat="58.84743494912982" lon="13.9913859218359">
        <ele>55.47</ele>
        <time>2025-02-14T12:12:39.442Z</time>
      </trkpt>
      <trkpt lat="58.84752698242664" lon="13.99145096540451">
        <ele>55.36</ele>
        <time>2025-02-14T12:13:28.523Z</time>
      </trkpt>
      <trkpt lat="58.847618931904435" lon="13.991517936810851">
        <ele>55.25</ele>
        <time>2025-02-14T12:14:17.606Z</time>
      </trkpt>
      <trkpt lat="58.84770995937288" lon="13.991587925702333">
        <ele>55.15</ele>
        <time>2025-02-14T12:15:06.690Z</time>
      </trkpt>
      <trkpt lat="58.8478019926697" lon="13.991655986756086">
        <ele>55.04</ele>
        <time>2025-02-14T12:15:55.776Z</time>
      </trkpt>
      <trkpt lat="58.84789394214749" lon="13.991725975647569">
        <ele>54.93</ele>
        <time>2025-02-14T12:16:44.863Z</time>
      </trkpt>
      <trkpt lat="58.84798798710108" lon="13.991797976195812">
        <ele>54.82</ele>
        <time>2025-02-14T12:17:33.952Z</time>
      </trkpt>
      <trkpt lat="58.84808094240725" lon="13.991868970915675">
        <ele>54.71</ele>
        <time>2025-02-14T12:18:23.043Z</time>
      </trkpt>
      <trkpt lat="58.848173981532454" lon="13.9919419772923">
        <ele>54.6</ele>
        <time>2025-02-14T12:19:12.135Z</time>
      </trkpt>
      <trkpt lat="58.848265931010246" lon="13.992012972012162">
        <ele>54.49</ele>
        <time>2025-02-14T12:20:01.229Z</time>
      </trkpt>
      <trkpt lat="58.84835897013545" lon="13.992085978388786">
        <ele>54.38</ele>
        <time>2025-02-14T12:20:50.324Z</time>
      </trkpt>
      <trkpt lat="58.84844999760389" lon="13.992160996422172">
        <ele>54.28</ele>
        <time>2025-02-14T12:21:39.421Z</time>
      </trkpt>
      <trkpt lat="58.848540941253304" lon="13.992238948121667">
        <ele>54.17</ele>
        <time>2025-02-14T12:22:28.520Z</time>
      </trkpt>
      <trkpt lat="58.84863196872175" lon="13.992317989468575">
        <ele>54.06</ele>
        <time>2025-02-14T12:23:17.620Z</time>
      </trkpt>
      <trkpt lat="58.84872299619019" lon="13.99239694699645">
        <ele>53.95</ele>
        <time>2025-02-14T12:24:06.722Z</time>
      </trkpt>
      <trkpt lat="58.84881494566798" lon="13.992478922009468">
        <ele>53.84</ele>
        <time>2025-02-14T12:24:55.825Z</time>
      </trkpt>
      <trkpt lat="58.848906978964806" lon="13.992560980841517">
        <ele>53.74</ele>
        <time>2025-02-14T12:25:44.930Z</time>
      </trkpt>
      <trkpt lat="58.8489989284426" lon="13.992643961682916">
        <ele>53.63</ele>
        <time>2025-02-14T12:26:34.037Z</time>
      </trkpt>
      <trkpt lat="58.8490919675678" lon="13.992727948352695">
        <ele>53.53</ele>
        <time>2025-02-14T12:27:23.145Z</time>
      </trkpt>
      <trkpt lat="58.849185928702354" lon="13.992815958335996">
        <ele>53.43</ele>
        <time>2025-02-14T12:28:12.255Z</time>
      </trkpt>
      <trkpt lat="58.84927997365594" lon="13.992904974147677">
        <ele>53.34</ele>
        <time>2025-02-14T12:29:01.367Z</time>
      </trkpt>
      <trkpt lat="58.84937393479049" lon="13.99299398995936">
        <ele>53.24</ele>
        <time>2025-02-14T12:29:50.480Z</time>
      </trkpt>
      <trkpt lat="58.849465968087316" lon="13.99308392778039">
        <ele>53.15</ele>
        <time>2025-02-14T12:30:39.595Z</time>
      </trkpt>
      <trkpt lat="58.84955791756511" lon="13.993175961077213">
        <ele>53.06</ele>
        <time>2025-02-14T12:31:28.712Z</time>
      </trkpt>
      <trkpt lat="58.84965095669031" lon="13.993268916383386">
        <ele>52.96</ele>
        <time>2025-02-14T12:32:17.830Z</time>
      </trkpt>
      <trkpt lat="58.849743995815516" lon="13.993363967165351">
        <ele>52.87</ele>
        <time>2025-02-14T12:33:06.950Z</time>
      </trkpt>
      <trkpt lat="58.84983896277845" lon="13.993460945785046">
        <ele>52.78</ele>
        <time>2025-02-14T12:33:56.072Z</time>
      </trkpt>
      <trkpt lat="58.84993392974138" lon="13.99355792440474">
        <ele>52.68</ele>
        <time>2025-02-14T12:34:45.195Z</time>
      </trkpt>
      <trkpt lat="58.85002898052335" lon="13.993656998500228">
        <ele>52.58</ele>
        <time>2025-02-14T12:35:34.320Z</time>
      </trkpt>
      <trkpt lat="58.85012093000114" lon="13.993755988776684">
        <ele>52.48</ele>
        <time>2025-02-14T12:36:23.447Z</time>
      </trkpt>
      <trkpt lat="58.85021296329796" lon="13.993853973224759">
        <ele>52.38</ele>
        <time>2025-02-14T12:37:12.576Z</time>
      </trkpt>
      <trkpt lat="58.85030499659479" lon="13.993950951844454">
        <ele>52.29</ele>
        <time>2025-02-14T12:38:01.706Z</time>
      </trkpt>
      <trkpt lat="58.85039493441582" lon="13.994047930464149">
        <ele>52.19</ele>
        <time>2025-02-14T12:38:50.838Z</time>
      </trkpt>
      <trkpt lat="58.8504839502275" lon="13.994143987074494">
        <ele>52.11</ele>
        <time>2025-02-14T12:39:39.972Z</time>
      </trkpt>
      <trkpt lat="58.85057296603918" lon="13.994239959865808">
        <ele>52.02</ele>
        <time>2025-02-14T12:40:29.107Z</time>
      </trkpt>
      <trkpt lat="58.85066298767924" lon="13.994335932657123">
        <ele>51.94</ele>
        <time>2025-02-14T12:41:18.244Z</time>
      </trkpt>
      <trkpt lat="58.85075191967189" lon="13.994430983439088">
        <ele>51.87</ele>
        <time>2025-02-14T12:42:07.382Z</time>
      </trkpt>
      <trkpt lat="58.850841941311955" lon="13.99452393874526">
        <ele>51.79</ele>
        <time>2025-02-14T12:42:56.522Z</time>
      </trkpt>
      <trkpt lat="58.850928945466876" lon="13.994617983698845">
        <ele>51.72</ele>
        <time>2025-02-14T12:43:45.664Z</time>
      </trkpt>
      <trkpt lat="58.8510159496218" lon="13.994709933176637">
        <ele>51.66</ele>
        <time>2025-02-14T12:44:34.807Z</time>
      </trkpt>
      <trkpt lat="58.85110194794834" lon="13.99480096064508">
        <ele>51.59</ele>
        <time>2025-02-14T12:45:23.952Z</time>
      </trkpt>
      <trkpt lat="58.851185934618115" lon="13.994891988113523">
        <ele>51.53</ele>
        <time>2025-02-14T12:46:13.098Z</time>
      </trkpt>
      <trkpt lat="58.851272938773036" lon="13.994982931762934">
        <ele>51.47</ele>
        <time>2025-02-14T12:47:02.246Z</time>
      </trkpt>
      <trkpt lat="58.85135994292796" lon="13.995072953402996">
        <ele>51.42</ele>
        <time>2025-02-14T12:47:51.396Z</time>
      </trkpt>
      <trkpt lat="58.851444935426116" lon="13.995163980871439">
        <ele>51.36</ele>
        <time>2025-02-14T12:48:40.547Z</time>
      </trkpt>
      <trkpt lat="58.851528922095895" lon="13.99525299668312">
        <ele>51.3</ele>
        <time>2025-02-14T12:49:29.700Z</time>
      </trkpt>
      <trkpt lat="58.851611986756325" lon="13.99534092284739">
        <ele>51.25</ele>
        <time>2025-02-14T12:50:18.854Z</time>
      </trkpt>
      <trkpt lat="58.85169396176934" lon="13.995430944487453">
        <ele>51.2</ele>
        <time>2025-02-14T12:51:08.010Z</time>
      </trkpt>
      <trkpt lat="58.85177694261074" lon="13.995524989441037">
        <ele>51.15</ele>
        <time>2025-02-14T12:51:57.167Z</time>
      </trkpt>
      <trkpt lat="58.85186092928052" lon="13.99561794474721">
        <ele>51.1</ele>
        <time>2025-02-14T12:52:46.326Z</time>
      </trkpt>
      <trkpt lat="58.85194399394095" lon="13.995708972215652">
        <ele>51.05</ele>
        <time>2025-02-14T12:53:35.486Z</time>
      </trkpt>
      <trkpt lat="58.85202596895397" lon="13.995799999684095">
        <ele>51.01</ele>
        <time>2025-02-14T12:54:24.648Z</time>
      </trkpt>
      <trkpt lat="58.852107943966985" lon="13.995891949161887">
        <ele>50.98</ele>
        <time>2025-02-14T12:55:13.811Z</time>
      </trkpt>
      <trkpt lat="58.85218899697065" lon="13.995985994115472">
        <ele>50.95</ele>
        <time>2025-02-14T12:56:02.976Z</time>
      </trkpt>
      <trkpt lat="58.85226996615529" lon="13.996079955250025">
        <ele>50.92</ele>
        <time>2025-02-14T12:56:52.142Z</time>
      </trkpt>
      <trkpt lat="58.85235093533993" lon="13.996172994375229">
        <ele>50.89</ele>
        <time>2025-02-14T12:57:41.310Z</time>
      </trkpt>
      <trkpt lat="58.8524319883436" lon="13.996267961338162">
        <ele>50.86</ele>
        <time>2025-02-14T12:58:30.479Z</time>
      </trkpt>
      <trkpt lat="58.85251195169985" lon="13.996362928301096">
        <ele>50.83</ele>
        <time>2025-02-14T12:59:19.650Z</time>
      </trkpt>
      <trkpt lat="58.85259292088449" lon="13.996457979083061">
        <ele>50.8</ele>
        <time>2025-02-14T13:00:08.822Z</time>
      </trkpt>
      <trkpt lat="58.85267296805978" lon="13.996551940217614">
        <ele>50.78</ele>
        <time>2025-02-14T13:00:57.996Z</time>
      </trkpt>
      <trkpt lat="58.852752931416035" lon="13.996645985171199">
        <ele>50.75</ele>
        <time>2025-02-14T13:01:47.171Z</time>
      </trkpt>
      <trkpt lat="58.85283297859132" lon="13.996739946305752">
        <ele>50.73</ele>
        <time>2025-02-14T13:02:36.348Z</time>
      </trkpt>
      <trkpt lat="58.8529119361192" lon="13.996833991259336">
        <ele>50.71</ele>
        <time>2025-02-14T13:03:25.526Z</time>
      </trkpt>
      <trkpt lat="58.852989971637726" lon="13.99692895822227">
        <ele>50.69</ele>
        <time>2025-02-14T13:04:14.706Z</time>
      </trkpt>
      <trkpt lat="58.85306792333722" lon="13.997024931013584">
        <ele>50.68</ele>
        <time>2025-02-14T13:05:03.887Z</time>
      </trkpt>
      <trkpt lat="58.85314696468413" lon="13.997118975967169">
        <ele>50.66</ele>
        <time>2025-02-14T13:05:53.070Z</time>
      </trkpt>
      <trkpt lat="58.853225922212005" lon="13.997212937101722">
        <ele>50.65</ele>
        <time>2025-02-14T13:06:42.254Z</time>
      </trkpt>
      <trkpt lat="58.85330194607377" lon="13.997305976226926">
        <ele>50.64</ele>
        <time>2025-02-14T13:07:31.440Z</time>
      </trkpt>
      <trkpt lat="58.853377969935536" lon="13.997399937361479">
        <ele>50.64</ele>
        <time>2025-02-14T13:08:20.627Z</time>
      </trkpt>
      <trkpt lat="58.85345198214054" lon="13.997492976486683">
        <ele>50.63</ele>
        <time>2025-02-14T13:09:09.816Z</time>
      </trkpt>
      <trkpt lat="58.853526916354895" lon="13.997585931792855">
        <ele>50.62</ele>
        <time>2025-02-14T13:09:59.006Z</time>
      </trkpt>
      <trkpt lat="58.85360193438828" lon="13.99767897091806">
        <ele>50.61</ele>
        <time>2025-02-14T13:10:48.198Z</time>
      </trkpt>
      <trkpt lat="58.853676952421665" lon="13.997771926224232">
        <ele>50.6</ele>
        <time>2025-02-14T13:11:37.391Z</time>
      </trkpt>
      <trkpt lat="58.85375197045505" lon="13.997863959521055">
        <ele>50.6</ele>
        <time>2025-02-14T13:12:26.585Z</time>
      </trkpt>
      <trkpt lat="58.853825982660055" lon="13.997955992817879">
        <ele>50.6</ele>
        <time>2025-02-14T13:13:15.781Z</time>
      </trkpt>
      <trkpt lat="58.85390091687441" lon="13.998049953952432">
        <ele>50.6</ele>
        <time>2025-02-14T13:14:04.978Z</time>
      </trkpt>
      <trkpt lat="58.853975934907794" lon="13.998144920915365">
        <ele>50.61</ele>
        <time>2025-02-14T13:14:54.177Z</time>
      </trkpt>
      <trkpt lat="58.85405095294118" lon="13.998240977525711">
        <ele>50.62</ele>
        <time>2025-02-14T13:15:43.377Z</time>
      </trkpt>
      <trkpt lat="58.854124965146184" lon="13.998337956145406">
        <ele>50.62</ele>
        <time>2025-02-14T13:16:32.579Z</time>
      </trkpt>
      <trkpt lat="58.85419897735119" lon="13.998435940593481">
        <ele>50.63</ele>
        <time>2025-02-14T13:17:21.782Z</time>
      </trkpt>
      <trkpt lat="58.85427298955619" lon="13.998533925041556">
        <ele>50.64</ele>
        <time>2025-02-14T13:18:10.986Z</time>
      </trkpt>
      <trkpt lat="58.85434792377055" lon="13.998632999137044">
        <ele>50.66</ele>
        <time>2025-02-14T13:19:00.192Z</time>
      </trkpt>
      <trkpt lat="58.85442394763231" lon="13.99873299524188">
        <ele>50.67</ele>
        <time>2025-02-14T13:19:49.399Z</time>
      </trkpt>
      <trkpt lat="58.8544989656657" lon="13.998834919184446">
        <ele>50.69</ele>
        <time>2025-02-14T13:20:38.608Z</time>
      </trkpt>
      <trkpt lat="58.85457691736519" lon="13.998934999108315">
        <ele>50.71</ele>
        <time>2025-02-14T13:21:27.818Z</time>
      </trkpt>
      <trkpt lat="58.85465394705534" lon="13.999034995213151">
        <ele>50.73</ele>
        <time>2025-02-14T13:22:17.030Z</time>
      </trkpt>
      <trkpt lat="58.854730976745486" lon="13.999135997146368">
        <ele>50.76</ele>
        <time>2025-02-14T13:23:06.243Z</time>
      </trkpt>
      <trkpt lat="58.85480599477887" lon="13.999236999079585">
        <ele>50.79</ele>
        <time>2025-02-14T13:23:55.458Z</time>
      </trkpt>
      <trkpt lat="58.854879923164845" lon="13.999335989356041">
        <ele>50.83</ele>
        <time>2025-02-14T13:24:44.674Z</time>
      </trkpt>
      <trkpt lat="58.85495292954147" lon="13.999433973804116">
        <ele>50.86</ele>
        <time>2025-02-14T13:25:33.892Z</time>
      </trkpt>
      <trkpt lat="58.85502493008971" lon="13.999532964080572">
        <ele>50.9</ele>
        <time>2025-02-14T13:26:23.111Z</time>
      </trkpt>
      <trkpt lat="58.855096930637956" lon="13.999630948528647">
        <ele>50.93</ele>
        <time>2025-02-14T13:27:12.332Z</time>
      </trkpt>
      <trkpt lat="58.85516792535782" lon="13.999729938805103">
        <ele>50.97</ele>
        <time>2025-02-14T13:28:01.554Z</time>
      </trkpt>
      <trkpt lat="58.85523892007768" lon="13.99982993490994">
        <ele>51.01</ele>
        <time>2025-02-14T13:28:50.777Z</time>
      </trkpt>
      <trkpt lat="58.855310920625925" lon="13.999928925186396">
        <ele>51.06</ele>
        <time>2025-02-14T13:29:40.002Z</time>
      </trkpt>
      <trkpt lat="58.85538199916482" lon="14.000027999281883">
        <ele>51.09</ele>
        <time>2025-02-14T13:30:29.228Z</time>
      </trkpt>
      <trkpt lat="58.85545299388468" lon="14.00012698955834">
        <ele>51.14</ele>
        <time>2025-02-14T13:31:18.456Z</time>
      </trkpt>
      <trkpt lat="58.855524994432926" lon="14.000226985663176">
        <ele>51.2</ele>
        <time>2025-02-14T13:32:07.685Z</time>
      </trkpt>
      <trkpt lat="58.85559598915279" lon="14.000325975939631">
        <ele>51.25</ele>
        <time>2025-02-14T13:32:56.915Z</time>
      </trkpt>
      <trkpt lat="58.85566698387265" lon="14.000425972044468">
        <ele>51.3</ele>
        <time>2025-02-14T13:33:46.147Z</time>
      </trkpt>
      <trkpt lat="58.855737978592515" lon="14.000523956492543">
        <ele>51.36</ele>
        <time>2025-02-14T13:34:35.380Z</time>
      </trkpt>
      <trkpt lat="58.85580897331238" lon="14.000621940940619">
        <ele>51.41</ele>
        <time>2025-02-14T13:35:24.615Z</time>
      </trkpt>
      <trkpt lat="58.85587896220386" lon="14.000718919560313">
        <ele>51.47</ele>
        <time>2025-02-14T13:36:13.851Z</time>
      </trkpt>
      <trkpt lat="58.85594794526696" lon="14.00081698782742">
        <ele>51.52</ele>
        <time>2025-02-14T13:37:03.088Z</time>
      </trkpt>
      <trkpt lat="58.856016928330064" lon="14.000914972275496">
        <ele>51.58</ele>
        <time>2025-02-14T13:37:52.327Z</time>
      </trkpt>
      <trkpt lat="58.856086917221546" lon="14.00101094506681">
        <ele>51.64</ele>
        <time>2025-02-14T13:38:41.567Z</time>
      </trkpt>
      <trkpt lat="58.85615598410368" lon="14.001104990020394">
        <ele>51.7</ele>
        <time>2025-02-14T13:39:30.808Z</time>
      </trkpt>
      <trkpt lat="58.85622597299516" lon="14.001200962811708">
        <ele>51.76</ele>
        <time>2025-02-14T13:40:20.051Z</time>
      </trkpt>
      <trkpt lat="58.85629395022988" lon="14.001298947259784">
        <ele>51.83</ele>
        <time>2025-02-14T13:41:09.295Z</time>
      </trkpt>
      <trkpt lat="58.856359999626875" lon="14.001396931707859">
        <ele>51.9</ele>
        <time>2025-02-14T13:41:58.541Z</time>
      </trkpt>
      <trkpt lat="58.856426971033216" lon="14.001490976661444">
        <ele>51.98</ele>
        <time>2025-02-14T13:42:47.788Z</time>
      </trkpt>
      <trkpt lat="58.856492936611176" lon="14.001582926139235">
        <ele>52.05</ele>
        <time>2025-02-14T13:43:37.036Z</time>
      </trkpt>
      <trkpt lat="58.85655798017979" lon="14.001673953607678">
        <ele>52.12</ele>
        <time>2025-02-14T13:44:26.285Z</time>
      </trkpt>
      <trkpt lat="58.856621934100986" lon="14.001765986904502">
        <ele>52.19</ele>
        <time>2025-02-14T13:45:15.536Z</time>
      </trkpt>
      <trkpt lat="58.856685971841216" lon="14.001857936382294">
        <ele>52.26</ele>
        <time>2025-02-14T13:46:04.788Z</time>
      </trkpt>
      <trkpt lat="58.856750931590796" lon="14.001948963850737">
        <ele>52.33</ele>
        <time>2025-02-14T13:46:54.041Z</time>
      </trkpt>
      <trkpt lat="58.856814969331026" lon="14.00203999131918">
        <ele>52.4</ele>
        <time>2025-02-14T13:47:43.296Z</time>
      </trkpt>
      <trkpt lat="58.856880934908986" lon="14.00213093496859">
        <ele>52.47</ele>
        <time>2025-02-14T13:48:32.552Z</time>
      </trkpt>
      <trkpt lat="58.8569459784776" lon="14.002222968265414">
        <ele>52.55</ele>
        <time>2025-02-14T13:49:21.809Z</time>
      </trkpt>
      <trkpt lat="58.85701093822718" lon="14.002315923571587">
        <ele>52.62</ele>
        <time>2025-02-14T13:50:11.067Z</time>
      </trkpt>
      <trkpt lat="58.85707698762417" lon="14.00240795686841">
        <ele>52.7</ele>
        <time>2025-02-14T13:51:00.327Z</time>
      </trkpt>
      <trkpt lat="58.85714194737375" lon="14.002499990165234">
        <ele>52.78</ele>
        <time>2025-02-14T13:51:49.588Z</time>
      </trkpt>
      <trkpt lat="58.85720799677074" lon="14.002593951299787">
        <ele>52.85</ele>
        <time>2025-02-14T13:52:38.850Z</time>
      </trkpt>
      <trkpt lat="58.8572739623487" lon="14.002687996253371">
        <ele>52.94</ele>
        <time>2025-02-14T13:53:28.114Z</time>
      </trkpt>
      <trkpt lat="58.85733992792666" lon="14.002781957387924">
        <ele>53.02</ele>
        <time>2025-02-14T13:54:17.379Z</time>
      </trkpt>
      <trkpt lat="58.85740597732365" lon="14.002874996513128">
        <ele>53.11</ele>
        <time>2025-02-14T13:55:06.645Z</time>
      </trkpt>
      <trkpt lat="58.85747194290161" lon="14.0029679518193">
        <ele>53.2</ele>
        <time>2025-02-14T13:55:55.913Z</time>
      </trkpt>
      <trkpt lat="58.85753698647022" lon="14.003061996772885">
        <ele>53.29</ele>
        <time>2025-02-14T13:56:45.182Z</time>
      </trkpt>
      <trkpt lat="58.8576019462198" lon="14.003154952079058">
        <ele>53.38</ele>
        <time>2025-02-14T13:57:34.452Z</time>
      </trkpt>
      <trkpt lat="58.857667995616794" lon="14.0032459795475">
        <ele>53.47</ele>
        <time>2025-02-14T13:58:23.724Z</time>
      </trkpt>
      <trkpt lat="58.857733961194754" lon="14.003336923196912">
        <ele>53.56</ele>
        <time>2025-02-14T13:59:12.997Z</time>
      </trkpt>
      <trkpt lat="58.85779892094433" lon="14.003427950665355">
        <ele>53.66</ele>
        <time>2025-02-14T14:00:02.271Z</time>
      </trkpt>
      <trkpt lat="58.857863964512944" lon="14.003514954820275">
        <ele>53.75</ele>
        <time>2025-02-14T14:00:51.546Z</time>
      </trkpt>
      <trkpt lat="58.857928924262524" lon="14.003600953146815">
        <ele>53.85</ele>
        <time>2025-02-14T14:01:40.823Z</time>
      </trkpt>
      <trkpt lat="58.857992962002754" lon="14.003684939816594">
        <ele>53.95</ele>
        <time>2025-02-14T14:02:30.101Z</time>
      </trkpt>
      <trkpt lat="58.858055993914604" lon="14.003766998648643">
        <ele>54.05</ele>
        <time>2025-02-14T14:03:19.380Z</time>
      </trkpt>
      <trkpt lat="58.858120953664184" lon="14.0038469620049">
        <ele>54.15</ele>
        <time>2025-02-14T14:04:08.660Z</time>
      </trkpt>
      <trkpt lat="58.858184991404414" lon="14.003925919532776">
        <ele>54.25</ele>
        <time>2025-02-14T14:04:57.942Z</time>
      </trkpt>
      <trkpt lat="58.858250956982374" lon="14.004003955051303">
        <ele>54.36</ele>
        <time>2025-02-14T14:05:47.225Z</time>
      </trkpt>
      <trkpt lat="58.858316922560334" lon="14.00408098474145">
        <ele>54.46</ele>
        <time>2025-02-14T14:06:36.509Z</time>
      </trkpt>
      <trkpt lat="58.858382971957326" lon="14.004156924784184">
        <ele>54.56</ele>
        <time>2025-02-14T14:07:25.794Z</time>
      </trkpt>
      <trkpt lat="58.85844994336367" lon="14.00423294864595">
        <ele>54.67</ele>
        <time>2025-02-14T14:08:15.081Z</time>
      </trkpt>
      <trkpt lat="58.85851892642677" lon="14.004308972507715">
        <ele>54.77</ele>
        <time>2025-02-14T14:09:04.369Z</time>
      </trkpt>
      <trkpt lat="58.8585879933089" lon="14.00438298471272">
        <ele>54.88</ele>
        <time>2025-02-14T14:09:53.658Z</time>
      </trkpt>
      <trkpt lat="58.858658988028765" lon="14.004456996917725">
        <ele>54.99</ele>
        <time>2025-02-14T14:10:42.948Z</time>
      </trkpt>
      <trkpt lat="58.85873199440539" lon="14.004530925303698">
        <ele>55.1</ele>
        <time>2025-02-14T14:11:32.240Z</time>
      </trkpt>
      <trkpt lat="58.85880491696298" lon="14.004603931680322">
        <ele>55.22</ele>
        <time>2025-02-14T14:12:21.533Z</time>
      </trkpt>
      <trkpt lat="58.858878929167986" lon="14.004677943885326">
        <ele>55.34</ele>
        <time>2025-02-14T14:13:10.827Z</time>
      </trkpt>
      <trkpt lat="58.85895294137299" lon="14.00475095026195">
        <ele>55.45</ele>
        <time>2025-02-14T14:14:00.123Z</time>
      </trkpt>
      <trkpt lat="58.859025947749615" lon="14.004822950810194">
        <ele>55.57</ele>
        <time>2025-02-14T14:14:49.420Z</time>
      </trkpt>
      <trkpt lat="58.85909694246948" lon="14.004892939701676">
        <ele>55.69</ele>
        <time>2025-02-14T14:15:38.718Z</time>
      </trkpt>
      <trkpt lat="58.85916793718934" lon="14.004960916936398">
        <ele>55.81</ele>
        <time>2025-02-14T14:16:28.018Z</time>
      </trkpt>
      <trkpt lat="58.8592389319092" lon="14.005025960505009">
        <ele>55.93</ele>
        <time>2025-02-14T14:17:17.319Z</time>
      </trkpt>
      <trkpt lat="58.85930992662907" lon="14.005091926082969">
        <ele>56.05</ele>
        <time>2025-02-14T14:18:06.621Z</time>
      </trkpt>
      <trkpt lat="58.85938092134893" lon="14.005158981308341">
        <ele>56.16</ele>
        <time>2025-02-14T14:18:55.924Z</time>
      </trkpt>
      <trkpt lat="58.85945292189717" lon="14.00522293522954">
        <ele>56.28</ele>
        <time>2025-02-14T14:19:45.229Z</time>
      </trkpt>
      <trkpt lat="58.85952492244542" lon="14.005283955484629">
        <ele>56.4</ele>
        <time>2025-02-14T14:20:34.535Z</time>
      </trkpt>
      <trkpt lat="58.85959792882204" lon="14.005343969911337">
        <ele>56.52</ele>
        <time>2025-02-14T14:21:23.842Z</time>
      </trkpt>
      <trkpt lat="58.859671941027045" lon="14.005403984338045">
        <ele>56.64</ele>
        <time>2025-02-14T14:22:13.150Z</time>
      </trkpt>
      <trkpt lat="58.85974695906043" lon="14.005462992936373">
        <ele>56.76</ele>
        <time>2025-02-14T14:23:02.460Z</time>
      </trkpt>
      <trkpt lat="58.859819965437055" lon="14.005521917715669">
        <ele>56.88</ele>
        <time>2025-02-14T14:23:51.771Z</time>
      </trkpt>
      <trkpt lat="58.85989297181368" lon="14.005577992647886">
        <ele>56.99</ele>
        <time>2025-02-14T14:24:41.083Z</time>
      </trkpt>
      <trkpt lat="58.8599659781903" lon="14.00563096627593">
        <ele>57.11</ele>
        <time>2025-02-14T14:25:30.397Z</time>
      </trkpt>
      <trkpt lat="58.86003999039531" lon="14.005683939903975">
        <ele>57.22</ele>
        <time>2025-02-14T14:26:19.712Z</time>
      </trkpt>
      <trkpt lat="58.86011391878128" lon="14.005733979865909">
        <ele>57.34</ele>
        <time>2025-02-14T14:27:09.028Z</time>
      </trkpt>
      <trkpt lat="58.860187930986285" lon="14.005783936008811">
        <ele>57.45</ele>
        <time>2025-02-14T14:27:58.345Z</time>
      </trkpt>
      <trkpt lat="58.86026194319129" lon="14.005831964313984">
        <ele>57.56</ele>
        <time>2025-02-14T14:28:47.664Z</time>
      </trkpt>
      <trkpt lat="58.860334949567914" lon="14.005878986790776">
        <ele>57.68</ele>
        <time>2025-02-14T14:29:36.984Z</time>
      </trkpt>
      <trkpt lat="58.86040896177292" lon="14.005923997610807">
        <ele>57.79</ele>
        <time>2025-02-14T14:30:26.305Z</time>
      </trkpt>
      <trkpt lat="58.860484985634685" lon="14.005961967632174">
        <ele>57.9</ele>
        <time>2025-02-14T14:31:15.627Z</time>
      </trkpt>
      <trkpt lat="58.86056092567742" lon="14.006000943481922">
        <ele>58.01</ele>
        <time>2025-02-14T14:32:04.951Z</time>
      </trkpt>
      <trkpt lat="58.860636949539185" lon="14.00603799149394">
        <ele>58.12</ele>
        <time>2025-02-14T14:32:54.276Z</time>
      </trkpt>
      <trkpt lat="58.86071397922933" lon="14.006072944030166">
        <ele>58.23</ele>
        <time>2025-02-14T14:33:43.602Z</time>
      </trkpt>
      <trkpt lat="58.86079293675721" lon="14.006105968728662">
        <ele>58.34</ele>
        <time>2025-02-14T14:34:32.929Z</time>
      </trkpt>
      <trkpt lat="58.860872983932495" lon="14.006138993427157">
        <ele>58.46</ele>
        <time>2025-02-14T14:35:22.258Z</time>
      </trkpt>
      <trkpt lat="58.86095395311713" lon="14.006172940135002">
        <ele>58.58</ele>
        <time>2025-02-14T14:36:11.588Z</time>
      </trkpt>
      <trkpt lat="58.86103592813015" lon="14.006206970661879">
        <ele>58.69</ele>
        <time>2025-02-14T14:37:00.919Z</time>
      </trkpt>
      <trkpt lat="58.86111496947706" lon="14.006239995360374">
        <ele>58.81</ele>
        <time>2025-02-14T14:37:50.252Z</time>
      </trkpt>
      <trkpt lat="58.86119392700493" lon="14.006268996745348">
        <ele>58.92</ele>
        <time>2025-02-14T14:38:39.586Z</time>
      </trkpt>
      <trkpt lat="58.86127196252346" lon="14.006296992301941">
        <ele>59.04</ele>
        <time>2025-02-14T14:39:28.921Z</time>
      </trkpt>
      <trkpt lat="58.861350920051336" lon="14.006324987858534">
        <ele>59.16</ele>
        <time>2025-02-14T14:40:18.258Z</time>
      </trkpt>
      <trkpt lat="58.86142895556986" lon="14.006352983415127">
        <ele>59.27</ele>
        <time>2025-02-14T14:41:07.596Z</time>
      </trkpt>
      <trkpt lat="58.86150699108839" lon="14.006375949829817">
        <ele>59.39</ele>
        <time>2025-02-14T14:41:56.935Z</time>
      </trkpt>
      <trkpt lat="58.861584942787886" lon="14.006397994235158">
        <ele>59.51</ele>
        <time>2025-02-14T14:42:46.275Z</time>
      </trkpt>
      <trkpt lat="58.86166297830641" lon="14.006419954821467">
        <ele>59.63</ele>
        <time>2025-02-14T14:43:35.617Z</time>
      </trkpt>
      <trkpt lat="58.86173992417753" lon="14.006440993398428">
        <ele>59.74</ele>
        <time>2025-02-14T14:44:24.960Z</time>
      </trkpt>
      <trkpt lat="58.86181594803929" lon="14.006462953984737">
        <ele>59.86</ele>
        <time>2025-02-14T14:45:14.304Z</time>
      </trkpt>
      <trkpt lat="58.86189096607268" lon="14.006482986733317">
        <ele>59.98</ele>
        <time>2025-02-14T14:46:03.649Z</time>
      </trkpt>
      <trkpt lat="58.861966989934444" lon="14.006497990339994">
        <ele>60.1</ele>
        <time>2025-02-14T14:46:52.995Z</time>
      </trkpt>
      <trkpt lat="58.86204292997718" lon="14.006514921784401">
        <ele>60.22</ele>
        <time>2025-02-14T14:47:42.343Z</time>
      </trkpt>
      <trkpt lat="58.862119959667325" lon="14.0065339487046">
        <ele>60.33</ele>
        <time>2025-02-14T14:48:31.692Z</time>
      </trkpt>
      <trkpt lat="58.86219698935747" lon="14.00655398145318">
        <ele>60.45</ele>
        <time>2025-02-14T14:49:21.042Z</time>
      </trkpt>
      <trkpt lat="58.86227494105697" lon="14.006572924554348">
        <ele>60.57</ele>
        <time>2025-02-14T14:50:10.393Z</time>
      </trkpt>
      <trkpt lat="58.862353982403874" lon="14.006593963131309">
        <ele>60.69</ele>
        <time>2025-02-14T14:50:59.746Z</time>
      </trkpt>
      <trkpt lat="58.86243293993175" lon="14.006615923717618">
        <ele>60.81</ele>
        <time>2025-02-14T14:51:49.100Z</time>
      </trkpt>
      <trkpt lat="58.86251298710704" lon="14.00663897395134">
        <ele>60.93</ele>
        <time>2025-02-14T14:52:38.455Z</time>
      </trkpt>
      <trkpt lat="58.862593956291676" lon="14.00666093453765">
        <ele>61.05</ele>
        <time>2025-02-14T14:53:27.812Z</time>
      </trkpt>
      <trkpt lat="58.86267593130469" lon="14.00668297894299">
        <ele>61.17</ele>
        <time>2025-02-14T14:54:17.170Z</time>
      </trkpt>
      <trkpt lat="58.86275698430836" lon="14.006706951186061">
        <ele>61.29</ele>
        <time>2025-02-14T14:55:06.529Z</time>
      </trkpt>
      <trkpt lat="58.862837953493" lon="14.006733940914273">
        <ele>61.42</ele>
        <time>2025-02-14T14:55:55.890Z</time>
      </trkpt>
      <trkpt lat="58.86291992850602" lon="14.006759924814105">
        <ele>61.54</ele>
        <time>2025-02-14T14:56:45.252Z</time>
      </trkpt>
      <trkpt lat="58.863001987338066" lon="14.006785992532969">
        <ele>61.66</ele>
        <time>2025-02-14T14:57:34.615Z</time>
      </trkpt>
      <trkpt lat="58.863083962351084" lon="14.0068119764328">
        <ele>61.79</ele>
        <time>2025-02-14T14:58:23.980Z</time>
      </trkpt>
      <trkpt lat="58.8631659373641" lon="14.006838966161013">
        <ele>61.91</ele>
        <time>2025-02-14T14:59:13.346Z</time>
      </trkpt>
      <trkpt lat="58.86324699036777" lon="14.006864950060844">
        <ele>62.04</ele>
        <time>2025-02-14T15:00:02.713Z</time>
      </trkpt>
      <trkpt lat="58.86332795955241" lon="14.006891939789057">
        <ele>62.17</ele>
        <time>2025-02-14T15:00:52.082Z</time>
      </trkpt>
      <trkpt lat="58.863408928737044" lon="14.00691892951727">
        <ele>62.3</ele>
        <time>2025-02-14T15:01:41.452Z</time>
      </trkpt>
      <trkpt lat="58.86348897591233" lon="14.006946925073862">
        <ele>62.43</ele>
        <time>2025-02-14T15:02:30.823Z</time>
      </trkpt>
      <trkpt lat="58.86356893926859" lon="14.006974920630455">
        <ele>62.56</ele>
        <time>2025-02-14T15:03:20.196Z</time>
      </trkpt>
      <trkpt lat="58.8636479806155" lon="14.007000988349319">
        <ele>62.7</ele>
        <time>2025-02-14T15:04:09.570Z</time>
      </trkpt>
      <trkpt lat="58.86372794397175" lon="14.00702797807753">
        <ele>62.83</ele>
        <time>2025-02-14T15:04:58.945Z</time>
      </trkpt>
      <trkpt lat="58.86380698531866" lon="14.007053961977363">
        <ele>62.96</ele>
        <time>2025-02-14T15:05:48.321Z</time>
      </trkpt>
      <trkpt lat="58.86388594284654" lon="14.007079945877194">
        <ele>63.09</ele>
        <time>2025-02-14T15:06:37.699Z</time>
      </trkpt>
      <trkpt lat="58.863964984193444" lon="14.007104923948646">
        <ele>63.23</ele>
        <time>2025-02-14T15:07:27.078Z</time>
      </trkpt>
      <trkpt lat="58.86404394172132" lon="14.007129985839128">
        <ele>63.36</ele>
        <time>2025-02-14T15:08:16.458Z</time>
      </trkpt>
      <trkpt lat="58.86412298306823" lon="14.00715496391058">
        <ele>63.5</ele>
        <time>2025-02-14T15:09:05.840Z</time>
      </trkpt>
      <trkpt lat="58.86420093476772" lon="14.007180947810411">
        <ele>63.64</ele>
        <time>2025-02-14T15:09:55.223Z</time>
      </trkpt>
      <trkpt lat="58.86427997611463" lon="14.007206931710243">
        <ele>63.78</ele>
        <time>2025-02-14T15:10:44.607Z</time>
      </trkpt>
      <trkpt lat="58.86435993947089" lon="14.007229981943965">
        <ele>63.92</ele>
        <time>2025-02-14T15:11:33.992Z</time>
      </trkpt>
      <trkpt lat="58.864437974989414" lon="14.007252948358655">
        <ele>64.05</ele>
        <time>2025-02-14T15:12:23.379Z</time>
      </trkpt>
      <trkpt lat="58.86451693251729" lon="14.007275998592377">
        <ele>64.19</ele>
        <time>2025-02-14T15:13:12.767Z</time>
      </trkpt>
      <trkpt lat="58.86459496803582" lon="14.007299970835447">
        <ele>64.33</ele>
        <time>2025-02-14T15:14:02.156Z</time>
      </trkpt>
      <trkpt lat="58.86467291973531" lon="14.007323943078518">
        <ele>64.47</ele>
        <time>2025-02-14T15:14:51.546Z</time>
      </trkpt>
      <trkpt lat="58.86475095525384" lon="14.007344981655478">
        <ele>64.61</ele>
        <time>2025-02-14T15:15:40.938Z</time>
      </trkpt>
      <trkpt lat="58.86482999660075" lon="14.007366942241788">
        <ele>64.74</ele>
        <time>2025-02-14T15:16:30.331Z</time>
      </trkpt>
      <trkpt lat="58.86490694247186" lon="14.00739099830389">
        <ele>64.88</ele>
        <time>2025-02-14T15:17:19.725Z</time>
      </trkpt>
      <trkpt lat="58.86498497799039" lon="14.00741396471858">
        <ele>65.02</ele>
        <time>2025-02-14T15:18:09.121Z</time>
      </trkpt>
      <trkpt lat="58.865062929689884" lon="14.00743693113327">
        <ele>65.16</ele>
        <time>2025-02-14T15:18:58.518Z</time>
      </trkpt>
      <trkpt lat="58.86514197103679" lon="14.007459981366992">
        <ele>65.3</ele>
        <time>2025-02-14T15:19:47.916Z</time>
      </trkpt>
      <trkpt lat="58.86522193439305" lon="14.007486971095204">
        <ele>65.44</ele>
        <time>2025-02-14T15:20:37.315Z</time>
      </trkpt>
      <trkpt lat="58.86530198156834" lon="14.007512954995036">
        <ele>65.58</ele>
        <time>2025-02-14T15:21:26.716Z</time>
      </trkpt>
      <trkpt lat="58.86538194492459" lon="14.007535921409726">
        <ele>65.72</ele>
        <time>2025-02-14T15:22:16.118Z</time>
      </trkpt>
      <trkpt lat="58.86546391993761" lon="14.007559977471828">
        <ele>65.86</ele>
        <time>2025-02-14T15:23:05.521Z</time>
      </trkpt>
      <trkpt lat="58.86554497294128" lon="14.00758596137166">
        <ele>66.0</ele>
        <time>2025-02-14T15:23:54.926Z</time>
      </trkpt>
      <trkpt lat="58.8656269479543" lon="14.007612951099873">
        <ele>66.14</ele>
        <time>2025-02-14T15:24:44.332Z</time>
      </trkpt>
      <trkpt lat="58.865708922967315" lon="14.007638934999704">
        <ele>66.28</ele>
        <time>2025-02-14T15:25:33.739Z</time>
      </trkpt>
      <trkpt lat="58.86578997597098" lon="14.007663996890187">
        <ele>66.42</ele>
        <time>2025-02-14T15:26:23.148Z</time>
      </trkpt>
      <trkpt lat="58.86586993932724" lon="14.0076909866184">
        <ele>66.55</ele>
        <time>2025-02-14T15:27:12.558Z</time>
      </trkpt>
      <trkpt lat="58.86595199815929" lon="14.007717976346612">
        <ele>66.69</ele>
        <time>2025-02-14T15:28:01.969Z</time>
      </trkpt>
      <trkpt lat="58.866032967343926" lon="14.007743960246444">
        <ele>66.84</ele>
        <time>2025-02-14T15:28:51.382Z</time>
      </trkpt>
      <trkpt lat="58.866115948185325" lon="14.007770949974656">
        <ele>66.98</ele>
        <time>2025-02-14T15:29:40.796Z</time>
      </trkpt>
      <trkpt lat="58.86619792319834" lon="14.007798945531249">
        <ele>67.13</ele>
        <time>2025-02-14T15:30:30.211Z</time>
      </trkpt>
      <trkpt lat="58.86627998203039" lon="14.007825935259461">
        <ele>67.27</ele>
        <time>2025-02-14T15:31:19.628Z</time>
      </trkpt>
      <trkpt lat="58.86636296287179" lon="14.007852924987674">
        <ele>67.42</ele>
        <time>2025-02-14T15:32:09.046Z</time>
      </trkpt>
      <trkpt lat="58.86644493788481" lon="14.007879998534918">
        <ele>67.56</ele>
        <time>2025-02-14T15:32:58.465Z</time>
      </trkpt>
      <trkpt lat="58.86652699671686" lon="14.00790799409151">
        <ele>67.71</ele>
        <time>2025-02-14T15:33:47.886Z</time>
      </trkpt>
      <trkpt lat="58.866608971729875" lon="14.007938923314214">
        <ele>67.86</ele>
        <time>2025-02-14T15:34:37.308Z</time>
      </trkpt>
      <trkpt lat="58.86668893508613" lon="14.007967924699187">
        <ele>68.0</ele>
        <time>2025-02-14T15:35:26.731Z</time>
      </trkpt>
      <trkpt lat="58.8667699880898" lon="14.007994998246431">
        <ele>68.15</ele>
        <time>2025-02-14T15:36:16.156Z</time>
      </trkpt>
      <trkpt lat="58.86685095727444" lon="14.008021987974644">
        <ele>68.29</ele>
        <time>2025-02-14T15:37:05.582Z</time>
      </trkpt>
      <trkpt lat="58.866932932287455" lon="14.008050989359617">
        <ele>68.43</ele>
        <time>2025-02-14T15:37:55.009Z</time>
      </trkpt>
      <trkpt lat="58.867014991119504" lon="14.00807999074459">
        <ele>68.57</ele>
        <time>2025-02-14T15:38:44.438Z</time>
      </trkpt>
      <trkpt lat="58.8670979719609" lon="14.008108992129564">
        <ele>68.71</ele>
        <time>2025-02-14T15:39:33.868Z</time>
      </trkpt>
      <trkpt lat="58.8671809528023" lon="14.008135981857777">
        <ele>68.85</ele>
        <time>2025-02-14T15:40:23.299Z</time>
      </trkpt>
      <trkpt lat="58.8672639336437" lon="14.00816498324275">
        <ele>68.98</ele>
        <time>2025-02-14T15:41:12.732Z</time>
      </trkpt>
      <trkpt lat="58.86734699830413" lon="14.008192978799343">
        <ele>69.12</ele>
        <time>2025-02-14T15:42:02.166Z</time>
      </trkpt>
      <trkpt lat="58.86742997914553" lon="14.008218962699175">
        <ele>69.25</ele>
        <time>2025-02-14T15:42:51.601Z</time>
      </trkpt>
      <trkpt lat="58.867512959986925" lon="14.008243940770626">
        <ele>69.38</ele>
        <time>2025-02-14T15:43:41.038Z</time>
      </trkpt>
      <trkpt lat="58.86759493499994" lon="14.008269924670458">
        <ele>69.51</ele>
        <time>2025-02-14T15:44:30.476Z</time>
      </trkpt>
      <trkpt lat="58.86767799966037" lon="14.00829398073256">
        <ele>69.64</ele>
        <time>2025-02-14T15:45:19.915Z</time>
      </trkpt>
      <trkpt lat="58.86775896884501" lon="14.00831694714725">
        <ele>69.77</ele>
        <time>2025-02-14T15:46:09.356Z</time>
      </trkpt>
      <trkpt lat="58.86784094385803" lon="14.008342931047082">
        <ele>69.9</ele>
        <time>2025-02-14T15:46:58.798Z</time>
      </trkpt>
      <trkpt lat="58.867922918871045" lon="14.008369920775294">
        <ele>70.03</ele>
        <time>2025-02-14T15:47:48.241Z</time>
      </trkpt>
      <trkpt lat="58.868003971874714" lon="14.008394982665777">
        <ele>70.16</ele>
        <time>2025-02-14T15:48:37.686Z</time>
      </trkpt>
      <trkpt lat="58.86808594688773" lon="14.008420966565609">
        <ele>70.29</ele>
        <time>2025-02-14T15:49:27.132Z</time>
      </trkpt>
      <trkpt lat="58.86816792190075" lon="14.008448962122202">
        <ele>70.42</ele>
        <time>2025-02-14T15:50:16.579Z</time>
      </trkpt>
      <trkpt lat="58.8682499807328" lon="14.008474946022034">
        <ele>70.55</ele>
        <time>2025-02-14T15:51:06.028Z</time>
      </trkpt>
      <trkpt lat="58.868331955745816" lon="14.008501935750246">
        <ele>70.68</ele>
        <time>2025-02-14T15:51:55.478Z</time>
      </trkpt>
      <trkpt lat="58.868413930758834" lon="14.008527919650078">
        <ele>70.8</ele>
        <time>2025-02-14T15:52:44.929Z</time>
      </trkpt>
      <trkpt lat="58.86849598959088" lon="14.008554993197322">
        <ele>70.93</ele>
        <time>2025-02-14T15:53:34.382Z</time>
      </trkpt>
      <trkpt lat="58.86857695877552" lon="14.008579971268773">
        <ele>71.06</ele>
        <time>2025-02-14T15:54:23.836Z</time>
      </trkpt>
      <trkpt lat="58.86865893378854" lon="14.008604949340224">
        <ele>71.19</ele>
        <time>2025-02-14T15:55:13.291Z</time>
      </trkpt>
      <trkpt lat="58.86874099262059" lon="14.008626993745565">
        <ele>71.31</ele>
        <time>2025-02-14T15:56:02.748Z</time>
      </trkpt>
      <trkpt lat="58.868823973461986" lon="14.008648954331875">
        <ele>71.44</ele>
        <time>2025-02-14T15:56:52.206Z</time>
      </trkpt>
      <trkpt lat="58.868907960131764" lon="14.008669992908835">
        <ele>71.57</ele>
        <time>2025-02-14T15:57:41.665Z</time>
      </trkpt>
      <trkpt lat="58.86899194680154" lon="14.008688936010003">
        <ele>71.7</ele>
        <time>2025-02-14T15:58:31.126Z</time>
      </trkpt>
      <trkpt lat="58.8690769392997" lon="14.00870494544506">
        <ele>71.82</ele>
        <time>2025-02-14T15:59:20.588Z</time>
      </trkpt>
      <trkpt lat="58.86916293762624" lon="14.008719949051738">
        <ele>71.94</ele>
        <time>2025-02-14T16:00:10.051Z</time>
      </trkpt>
      <trkpt lat="58.8692479301244" lon="14.008732941001654">
        <ele>72.07</ele>
        <time>2025-02-14T16:00:59.516Z</time>
      </trkpt>
      <trkpt lat="58.86933392845094" lon="14.008743921294808">
        <ele>72.19</ele>
        <time>2025-02-14T16:01:48.982Z</time>
      </trkpt>
      <trkpt lat="58.86941799893975" lon="14.008755991235375">
        <ele>72.31</ele>
        <time>2025-02-14T16:02:38.450Z</time>
      </trkpt>
      <trkpt lat="58.86950198560953" lon="14.00876697152853">
        <ele>72.43</ele>
        <time>2025-02-14T16:03:27.919Z</time>
      </trkpt>
      <trkpt lat="58.86958597227931" lon="14.008776945993304">
        <ele>72.55</ele>
        <time>2025-02-14T16:04:17.389Z</time>
      </trkpt>
      <trkpt lat="58.86966995894909" lon="14.008784992620349">
        <ele>72.67</ele>
        <time>2025-02-14T16:05:06.861Z</time>
      </trkpt>
      <trkpt lat="58.86975394561887" lon="14.00878893211484">
        <ele>72.78</ele>
        <time>2025-02-14T16:05:56.334Z</time>
      </trkpt>
      <trkpt lat="58.86983793228865" lon="14.008791949599981">
        <ele>72.89</ele>
        <time>2025-02-14T16:06:45.808Z</time>
      </trkpt>
      <trkpt lat="58.869921918958426" lon="14.008792955428362">
        <ele>73.0</ele>
        <time>2025-02-14T16:07:35.284Z</time>
      </trkpt>
      <trkpt lat="58.870005989447236" lon="14.0087909437716">
        <ele>73.11</ele>
        <time>2025-02-14T16:08:24.761Z</time>
      </trkpt>
      <trkpt lat="58.870089976117015" lon="14.00878993794322">
        <ele>73.21</ele>
        <time>2025-02-14T16:09:14.239Z</time>
      </trkpt>
      <trkpt lat="58.870173962786794" lon="14.00878993794322">
        <ele>73.31</ele>
        <time>2025-02-14T16:10:03.719Z</time>
      </trkpt>
      <trkpt lat="58.87025895528495" lon="14.008786920458078">
        <ele>73.41</ele>
        <time>2025-02-14T16:10:53.200Z</time>
      </trkpt>
      <trkpt lat="58.870345959439874" lon="14.008779963478446">
        <ele>73.51</ele>
        <time>2025-02-14T16:11:42.682Z</time>
      </trkpt>
      <trkpt lat="58.870431957766414" lon="14.008770994842052">
        <ele>73.6</ele>
        <time>2025-02-14T16:12:32.166Z</time>
      </trkpt>
      <trkpt lat="58.870518961921334" lon="14.008758924901485">
        <ele>73.69</ele>
        <time>2025-02-14T16:13:21.651Z</time>
      </trkpt>
      <trkpt lat="58.870604960247874" lon="14.00874693877995">
        <ele>73.78</ele>
        <time>2025-02-14T16:14:11.138Z</time>
      </trkpt>
      <trkpt lat="58.87068894691765" lon="14.008734952658415">
        <ele>73.86</ele>
        <time>2025-02-14T16:15:00.626Z</time>
      </trkpt>
      <trkpt lat="58.87077192775905" lon="14.00872296653688">
        <ele>73.95</ele>
        <time>2025-02-14T16:15:50.115Z</time>
      </trkpt>
      <trkpt lat="58.87085692025721" lon="14.008709974586964">
        <ele>74.03</ele>
        <time>2025-02-14T16:16:39.606Z</time>
      </trkpt>
      <trkpt lat="58.8709419965744" lon="14.008693965151906">
        <ele>74.11</ele>
        <time>2025-02-14T16:17:29.098Z</time>
      </trkpt>
      <trkpt lat="58.87102598324418" lon="14.008674938231707">
        <ele>74.18</ele>
        <time>2025-02-14T16:18:18.591Z</time>
      </trkpt>
      <trkpt lat="58.87110996991396" lon="14.008656917139888">
        <ele>74.25</ele>
        <time>2025-02-14T16:19:08.086Z</time>
      </trkpt>
      <trkpt lat="58.87119496241212" lon="14.00863797403872">
        <ele>74.33</ele>
        <time>2025-02-14T16:19:57.582Z</time>
      </trkpt>
      <trkpt lat="58.87128096073866" lon="14.00861894711852">
        <ele>74.4</ele>
        <time>2025-02-14T16:20:47.079Z</time>
      </trkpt>
      <trkpt lat="58.87136595323682" lon="14.008600926026702">
        <ele>74.47</ele>
        <time>2025-02-14T16:21:36.578Z</time>
      </trkpt>
      <trkpt lat="58.87145295739174" lon="14.008583994582295">
        <ele>74.53</ele>
        <time>2025-02-14T16:22:26.078Z</time>
      </trkpt>
      <trkpt lat="58.87153996154666" lon="14.008562956005335">
        <ele>74.59</ele>
        <time>2025-02-14T16:23:15.580Z</time>
      </trkpt>
      <trkpt lat="58.87162696570158" lon="14.008541917428374">
        <ele>74.66</ele>
        <time>2025-02-14T16:24:05.083Z</time>
      </trkpt>
      <trkpt lat="58.87171296402812" lon="14.008522974327207">
        <ele>74.72</ele>
        <time>2025-02-14T16:24:54.587Z</time>
      </trkpt>
      <trkpt lat="58.87180097401142" lon="14.008503947407007">
        <ele>74.78</ele>
        <time>2025-02-14T16:25:44.093Z</time>
      </trkpt>
      <trkpt lat="58.87188797816634" lon="14.008483998477459">
        <ele>74.84</ele>
        <time>2025-02-14T16:26:33.600Z</time>
      </trkpt>
      <trkpt lat="58.87197498232126" lon="14.008463965728879">
        <ele>74.89</ele>
        <time>2025-02-14T16:27:23.109Z</time>
      </trkpt>
      <trkpt lat="58.87206299230456" lon="14.00844594463706">
        <ele>74.94</ele>
        <time>2025-02-14T16:28:12.619Z</time>
      </trkpt>
      <trkpt lat="58.872149996459484" lon="14.008427923545241">
        <ele>74.98</ele>
        <time>2025-02-14T16:29:02.130Z</time>
      </trkpt>
      <trkpt lat="58.87223792262375" lon="14.008411997929215">
        <ele>75.02</ele>
        <time>2025-02-14T16:29:51.643Z</time>
      </trkpt>
      <trkpt lat="58.872324926778674" lon="14.008398922160268">
        <ele>75.07</ele>
        <time>2025-02-14T16:30:41.157Z</time>
      </trkpt>
      <trkpt lat="58.872410925105214" lon="14.008390959352255">
        <ele>75.1</ele>
        <time>2025-02-14T16:31:30.673Z</time>
      </trkpt>
      <trkpt lat="58.872497929260135" lon="14.00838391855359">
        <ele>75.13</ele>
        <time>2025-02-14T16:32:20.190Z</time>
      </trkpt>
      <trkpt lat="58.872585939243436" lon="14.008377967402339">
        <ele>75.15</ele>
        <time>2025-02-14T16:33:09.709Z</time>
      </trkpt>
      <trkpt lat="58.87267394922674" lon="14.008372938260436">
        <ele>75.18</ele>
        <time>2025-02-14T16:33:59.229Z</time>
      </trkpt>
      <trkpt lat="58.87276095338166" lon="14.008370926603675">
        <ele>75.2</ele>
        <time>2025-02-14T16:34:48.750Z</time>
      </trkpt>
      <trkpt lat="58.87284896336496" lon="14.008370926603675">
        <ele>75.22</ele>
        <time>2025-02-14T16:35:38.273Z</time>
      </trkpt>
      <trkpt lat="58.87293697334826" lon="14.008370926603675">
        <ele>75.24</ele>
        <time>2025-02-14T16:36:27.797Z</time>
      </trkpt>
      <trkpt lat="58.87302397750318" lon="14.008372938260436">
        <ele>75.26</ele>
        <time>2025-02-14T16:37:17.323Z</time>
      </trkpt>
      <trkpt lat="58.87311198748648" lon="14.008373944088817">
        <ele>75.27</ele>
        <time>2025-02-14T16:38:06.850Z</time>
      </trkpt>
      <trkpt lat="58.87320091947913" lon="14.008375955745578">
        <ele>75.29</ele>
        <time>2025-02-14T16:38:56.378Z</time>
      </trkpt>
      <trkpt lat="58.87328892946243" lon="14.0083799790591">
        <ele>75.3</ele>
        <time>2025-02-14T16:39:45.908Z</time>
      </trkpt>
      <trkpt lat="58.873377945274115" lon="14.008386936038733">
        <ele>75.3</ele>
        <time>2025-02-14T16:40:35.439Z</time>
      </trkpt>
      <trkpt lat="58.873466961085796" lon="14.008397916331887">
        <ele>75.31</ele>
        <time>2025-02-14T16:41:24.972Z</time>
      </trkpt>
      <trkpt lat="58.87355798855424" lon="14.008410992100835">
        <ele>75.31</ele>
        <time>2025-02-14T16:42:14.506Z</time>
      </trkpt>
      <trkpt lat="58.87364792637527" lon="14.008425995707512">
        <ele>75.31</ele>
        <time>2025-02-14T16:43:04.042Z</time>
      </trkpt>
      <trkpt lat="58.87373895384371" lon="14.008442927151918">
        <ele>75.3</ele>
        <time>2025-02-14T16:43:53.579Z</time>
      </trkpt>
      <trkpt lat="58.873828975483775" lon="14.008461954072118">
        <ele>75.3</ele>
        <time>2025-02-14T16:44:43.117Z</time>
      </trkpt>
      <trkpt lat="58.87391799129546" lon="14.008481986820698">
        <ele>75.29</ele>
        <time>2025-02-14T16:45:32.657Z</time>
      </trkpt>
      <trkpt lat="58.87400792911649" lon="14.008503947407007">
        <ele>75.28</ele>
        <time>2025-02-14T16:46:22.198Z</time>
      </trkpt>
      <trkpt lat="58.87409593909979" lon="14.008525991812348">
        <ele>75.26</ele>
        <time>2025-02-14T16:47:11.741Z</time>
      </trkpt>
      <trkpt lat="58.87418495491147" lon="14.008549964055419">
        <ele>75.25</ele>
        <time>2025-02-14T16:48:01.285Z</time>
      </trkpt>
      <trkpt lat="58.87427296489477" lon="14.008576953783631">
        <ele>75.23</ele>
        <time>2025-02-14T16:48:50.831Z</time>
      </trkpt>
      <trkpt lat="58.87435996904969" lon="14.008605955168605">
        <ele>75.2</ele>
        <time>2025-02-14T16:49:40.378Z</time>
      </trkpt>
      <trkpt lat="58.87444697320461" lon="14.008633950725198">
        <ele>75.17</ele>
        <time>2025-02-14T16:50:29.926Z</time>
      </trkpt>
      <trkpt lat="58.874535989016294" lon="14.008662952110171">
        <ele>75.14</ele>
        <time>2025-02-14T16:51:19.476Z</time>
      </trkpt>
      <trkpt lat="58.874623998999596" lon="14.008693965151906">
        <ele>75.1</ele>
        <time>2025-02-14T16:52:09.027Z</time>
      </trkpt>
      <trkpt lat="58.874711925163865" lon="14.008729923516512">
        <ele>75.06</ele>
        <time>2025-02-14T16:52:58.580Z</time>
      </trkpt>
      <trkpt lat="58.874799935147166" lon="14.00876596570015">
        <ele>75.01</ele>
        <time>2025-02-14T16:53:48.134Z</time>
      </trkpt>
      <trkpt lat="58.87488895095885" lon="14.008802929893136">
        <ele>74.96</ele>
        <time>2025-02-14T16:54:37.690Z</time>
      </trkpt>
      <trkpt lat="58.87497796677053" lon="14.008842995390296">
        <ele>74.9</ele>
        <time>2025-02-14T16:55:27.247Z</time>
      </trkpt>
      <trkpt lat="58.87506698258221" lon="14.008886916562915">
        <ele>74.84</ele>
        <time>2025-02-14T16:56:16.806Z</time>
      </trkpt>
      <trkpt lat="58.87515692040324" lon="14.008931927382946">
        <ele>74.77</ele>
        <time>2025-02-14T16:57:06.366Z</time>
      </trkpt>
      <trkpt lat="58.875246942043304" lon="14.008978949859738">
        <ele>74.7</ele>
        <time>2025-02-14T16:57:55.928Z</time>
      </trkpt>
      <trkpt lat="58.87533696368337" lon="14.009027983993292">
        <ele>74.63</ele>
        <time>2025-02-14T16:58:45.491Z</time>
      </trkpt>
      <trkpt lat="58.87542698532343" lon="14.009078945964575">
        <ele>74.55</ele>
        <time>2025-02-14T16:59:35.056Z</time>
      </trkpt>
      <trkpt lat="58.87551692314446" lon="14.009131919592619">
        <ele>74.47</ele>
        <time>2025-02-14T17:00:24.622Z</time>
      </trkpt>
      <trkpt lat="58.87560593895614" lon="14.009186988696456">
        <ele>74.39</ele>
        <time>2025-02-14T17:01:14.190Z</time>
      </trkpt>
      <trkpt lat="58.87569294311106" lon="14.009243985638022">
        <ele>74.3</ele>
        <time>2025-02-14T17:02:03.759Z</time>
      </trkpt>
      <trkpt lat="58.87577994726598" lon="14.009300982579589">
        <ele>74.21</ele>
        <time>2025-02-14T17:02:53.330Z</time>
      </trkpt>
      <trkpt lat="58.875867957249284" lon="14.009357979521155">
        <ele>74.12</ele>
        <time>2025-02-14T17:03:42.902Z</time>
      </trkpt>
      <trkpt lat="58.875956973060966" lon="14.009416988119483">
        <ele>74.02</ele>
        <time>2025-02-14T17:04:32.476Z</time>
      </trkpt>
      <trkpt lat="58.87604498304427" lon="14.00947792455554">
        <ele>73.92</ele>
        <time>2025-02-14T17:05:22.051Z</time>
      </trkpt>
      <trkpt lat="58.87613299302757" lon="14.00953995063901">
        <ele>73.81</ele>
        <time>2025-02-14T17:06:11.628Z</time>
      </trkpt>
      <trkpt lat="58.87621999718249" lon="14.009601976722479">
        <ele>73.7</ele>
        <time>2025-02-14T17:07:01.206Z</time>
      </trkpt>
      <trkpt lat="58.87630691751838" lon="14.009662996977568">
        <ele>73.59</ele>
        <time>2025-02-14T17:07:50.786Z</time>
      </trkpt>
      <trkpt lat="58.8763939216733" lon="14.009724939242005">
        <ele>73.48</ele>
        <time>2025-02-14T17:08:40.367Z</time>
      </trkpt>
      <trkpt lat="58.87648092582822" lon="14.009786965325475">
        <ele>73.36</ele>
        <time>2025-02-14T17:09:29.950Z</time>
      </trkpt>
      <trkpt lat="58.8765699416399" lon="14.009847985580564">
        <ele>73.24</ele>
        <time>2025-02-14T17:10:19.534Z</time>
      </trkpt>
      <trkpt lat="58.87665895745158" lon="14.009909927845001">
        <ele>73.11</ele>
        <time>2025-02-14T17:11:09.120Z</time>
      </trkpt>
      <trkpt lat="58.876747973263264" lon="14.009972959756851">
        <ele>72.98</ele>
        <time>2025-02-14T17:11:58.707Z</time>
      </trkpt>
      <trkpt lat="58.876838916912675" lon="14.01003791950643">
        <ele>72.85</ele>
        <time>2025-02-14T17:12:48.296Z</time>
      </trkpt>
      <trkpt lat="58.87692994438112" lon="14.010101957246661">
        <ele>72.71</ele>
        <time>2025-02-14T17:13:37.886Z</time>
      </trkpt>
      <trkpt lat="58.87702197767794" lon="14.010164989158511">
        <ele>72.57</ele>
        <time>2025-02-14T17:14:27.478Z</time>
      </trkpt>
      <trkpt lat="58.877114932984114" lon="14.010225925594568">
        <ele>72.43</ele>
        <time>2025-02-14T17:15:17.071Z</time>
      </trkpt>
      <trkpt lat="58.8772089779377" lon="14.010283928364515">
        <ele>72.28</ele>
        <time>2025-02-14T17:16:06.666Z</time>
      </trkpt>
      <trkpt lat="58.87730293907225" lon="14.010339919477701">
        <ele>72.14</ele>
        <time>2025-02-14T17:16:56.263Z</time>
      </trkpt>
      <trkpt lat="58.877395978197455" lon="14.010393982753158">
        <ele>71.98</ele>
        <time>2025-02-14T17:17:45.861Z</time>
      </trkpt>
      <trkpt lat="58.87748993933201" lon="14.010446956381202">
        <ele>71.83</ele>
        <time>2025-02-14T17:18:35.461Z</time>
      </trkpt>
      <trkpt lat="58.87758398428559" lon="14.010504959151149">
        <ele>71.67</ele>
        <time>2025-02-14T17:19:25.062Z</time>
      </trkpt>
      <trkpt lat="58.877677945420146" lon="14.010565979406238">
        <ele>71.5</ele>
        <time>2025-02-14T17:20:14.665Z</time>
      </trkpt>
      <trkpt lat="58.87777299620211" lon="14.010623982176185">
        <ele>71.33</ele>
        <time>2025-02-14T17:21:04.269Z</time>
      </trkpt>
      <trkpt lat="58.87787098065019" lon="14.01067796163261">
        <ele>71.16</ele>
        <time>2025-02-14T17:21:53.875Z</time>
      </trkpt>
      <trkpt lat="58.87796896509826" lon="14.010728923603892">
        <ele>71.0</ele>
        <time>2025-02-14T17:22:43.483Z</time>
      </trkpt>
      <trkpt lat="58.87806795537472" lon="14.010778963565826">
        <ele>70.83</ele>
        <time>2025-02-14T17:23:33.092Z</time>
      </trkpt>
      <trkpt lat="58.878167951479554" lon="14.010828919708729">
        <ele>70.66</ele>
        <time>2025-02-14T17:24:22.703Z</time>
      </trkpt>
      <trkpt lat="58.87826794758439" lon="14.010877953842282">
        <ele>70.48</ele>
        <time>2025-02-14T17:25:12.316Z</time>
      </trkpt>
      <trkpt lat="58.87836794368923" lon="14.010924976319075">
        <ele>70.31</ele>
        <time>2025-02-14T17:26:01.930Z</time>
      </trkpt>
      <trkpt lat="58.878468945622444" lon="14.010969987139106">
        <ele>70.13</ele>
        <time>2025-02-14T17:26:51.546Z</time>
      </trkpt>
      <trkpt lat="58.87857195921242" lon="14.011016925796866">
        <ele>69.94</ele>
        <time>2025-02-14T17:27:41.164Z</time>
      </trkpt>
      <trkpt lat="58.8786749728024" lon="14.011063948273659">
        <ele>69.76</ele>
        <time>2025-02-14T17:28:30.783Z</time>
      </trkpt>
      <trkpt lat="58.87877899222076" lon="14.01110996492207">
        <ele>69.58</ele>
        <time>2025-02-14T17:29:20.404Z</time>
      </trkpt>
      <trkpt lat="58.87888292782009" lon="14.011153969913721">
        <ele>69.39</ele>
        <time>2025-02-14T17:30:10.027Z</time>
      </trkpt>
      <trkpt lat="58.878987953066826" lon="14.011196969076991">
        <ele>69.2</ele>
        <time>2025-02-14T17:30:59.651Z</time>
      </trkpt>
      <trkpt lat="58.879093984141946" lon="14.01123896241188">
        <ele>69.01</ele>
        <time>2025-02-14T17:31:49.277Z</time>
      </trkpt>
      <trkpt lat="58.879201943054795" lon="14.01128095574677">
        <ele>68.82</ele>
        <time>2025-02-14T17:32:38.905Z</time>
      </trkpt>
      <trkpt lat="58.879309985786676" lon="14.01132294908166">
        <ele>68.63</ele>
        <time>2025-02-14T17:33:28.535Z</time>
      </trkpt>
      <trkpt lat="58.879417944699526" lon="14.011358991265297">
        <ele>68.44</ele>
        <time>2025-02-14T17:34:18.167Z</time>
      </trkpt>
      <trkpt lat="58.87952699325979" lon="14.011393943801522">
        <ele>68.24</ele>
        <time>2025-02-14T17:35:07.800Z</time>
      </trkpt>
      <trkpt lat="58.87963495217264" lon="14.01142998598516">
        <ele>68.05</ele>
        <time>2025-02-14T17:35:57.435Z</time>
      </trkpt>
      <trkpt lat="58.87974299490452" lon="14.011466950178146">
        <ele>67.85</ele>
        <time>2025-02-14T17:36:47.072Z</time>
      </trkpt>
      <trkpt lat="58.87985195964575" lon="14.011500980705023">
        <ele>67.65</ele>
        <time>2025-02-14T17:37:36.711Z</time>
      </trkpt>
      <trkpt lat="58.8799599185586" lon="14.011534927412868">
        <ele>67.45</ele>
        <time>2025-02-14T17:38:26.351Z</time>
      </trkpt>
      <trkpt lat="58.88006796129048" lon="14.011569963768125">
        <ele>67.24</ele>
        <time>2025-02-14T17:39:15.993Z</time>
      </trkpt>
      <trkpt lat="58.88017592020333" lon="14.01160491630435">
        <ele>67.04</ele>
        <time>2025-02-14T17:40:05.637Z</time>
      </trkpt>
      <trkpt lat="58.88028396293521" lon="14.011639952659607">
        <ele>66.83</ele>
        <time>2025-02-14T17:40:55.283Z</time>
      </trkpt>
      <trkpt lat="58.88039192184806" lon="14.011673983186483">
        <ele>66.63</ele>
        <time>2025-02-14T17:41:44.930Z</time>
      </trkpt>
      <trkpt lat="58.88049895875156" lon="14.01171094737947">
        <ele>66.42</ele>
        <time>2025-02-14T17:42:34.579Z</time>
      </trkpt>
      <trkpt lat="58.88060599565506" lon="14.011749923229218">
        <ele>66.21</ele>
        <time>2025-02-14T17:43:24.230Z</time>
      </trkpt>
      <trkpt lat="58.88071395456791" lon="14.011787977069616">
        <ele>66.0</ele>
        <time>2025-02-14T17:44:13.883Z</time>
      </trkpt>
      <trkpt lat="58.88082291930914" lon="14.011823935434222">
        <ele>65.79</ele>
        <time>2025-02-14T17:45:03.537Z</time>
      </trkpt>
      <trkpt lat="58.88093096204102" lon="14.01186098344624">
        <ele>65.58</ele>
        <time>2025-02-14T17:45:53.193Z</time>
      </trkpt>
      <trkpt lat="58.88103992678225" lon="14.011898953467607">
        <ele>65.37</ele>
        <time>2025-02-14T17:46:42.851Z</time>
      </trkpt>
      <trkpt lat="58.88114998117089" lon="14.011934995651245">
        <ele>65.15</ele>
        <time>2025-02-14T17:47:32.511Z</time>
      </trkpt>
      <trkpt lat="58.881260957568884" lon="14.011970954015851">
        <ele>64.93</ele>
        <time>2025-02-14T17:48:22.173Z</time>
      </trkpt>
      <trkpt lat="58.881370928138494" lon="14.012008924037218">
        <ele>64.72</ele>
        <time>2025-02-14T17:49:11.836Z</time>
      </trkpt>
      <trkpt lat="58.88148198835552" lon="14.012044966220856">
        <ele>64.5</ele>
        <time>2025-02-14T17:50:01.501Z</time>
      </trkpt>
      <trkpt lat="58.88159296475351" lon="14.012082936242223">
        <ele>64.29</ele>
        <time>2025-02-14T17:50:51.168Z</time>
      </trkpt>
      <trkpt lat="58.88170494697988" lon="14.012119984254241">
        <ele>64.07</ele>
        <time>2025-02-14T17:51:40.837Z</time>
      </trkpt>
      <trkpt lat="58.88181692920625" lon="14.012155942618847">
        <ele>63.85</ele>
        <time>2025-02-14T17:52:30.508Z</time>
      </trkpt>
      <trkpt lat="58.881928995251656" lon="14.012190978974104">
        <ele>63.64</ele>
        <time>2025-02-14T17:53:20.180Z</time>
      </trkpt>
      <trkpt lat="58.88203997164965" lon="14.01222593151033">
        <ele>63.43</ele>
        <time>2025-02-14T17:54:09.854Z</time>
      </trkpt>
      <trkpt lat="58.88215195387602" lon="14.012262979522347">
        <ele>63.22</ele>
        <time>2025-02-14T17:54:59.530Z</time>
      </trkpt>
      <trkpt lat="58.88226192444563" lon="14.012299943715334">
        <ele>63.01</ele>
        <time>2025-02-14T17:55:49.208Z</time>
      </trkpt>
      <trkpt lat="58.88237197883427" lon="14.012336991727352">
        <ele>62.8</ele>
        <time>2025-02-14T17:56:38.888Z</time>
      </trkpt>
      <trkpt lat="58.88248295523226" lon="14.012371944263577">
        <ele>62.6</ele>
        <time>2025-02-14T17:57:28.569Z</time>
      </trkpt>
      <trkpt lat="58.88259292580187" lon="14.012405974790454">
        <ele>62.39</ele>
        <time>2025-02-14T17:58:18.252Z</time>
      </trkpt>
      <trkpt lat="58.882701974362135" lon="14.01244092732668">
        <ele>62.19</ele>
        <time>2025-02-14T17:59:07.937Z</time>
      </trkpt>
      <trkpt lat="58.882810939103365" lon="14.012476969510317">
        <ele>61.99</ele>
        <time>2025-02-14T17:59:57.624Z</time>
      </trkpt>
      <trkpt lat="58.88291998766363" lon="14.012513933703303">
        <ele>61.79</ele>
        <time>2025-02-14T18:00:47.313Z</time>
      </trkpt>
      <trkpt lat="58.883027946576476" lon="14.01254897005856">
        <ele>61.6</ele>
        <time>2025-02-14T18:01:37.003Z</time>
      </trkpt>
      <trkpt lat="58.88313699513674" lon="14.012582916766405">
        <ele>61.4</ele>
        <time>2025-02-14T18:02:26.695Z</time>
      </trkpt>
      <trkpt lat="58.88324394822121" lon="14.012616947293282">
        <ele>61.21</ele>
        <time>2025-02-14T18:03:16.389Z</time>
      </trkpt>
      <trkpt lat="58.88335098512471" lon="14.012650977820158">
        <ele>61.02</ele>
        <time>2025-02-14T18:04:06.085Z</time>
      </trkpt>
      <trkpt lat="58.883457938209176" lon="14.012685930356383">
        <ele>60.84</ele>
        <time>2025-02-14T18:04:55.782Z</time>
      </trkpt>
      <trkpt lat="58.883563969284296" lon="14.01271996088326">
        <ele>60.65</ele>
        <time>2025-02-14T18:05:45.481Z</time>
      </trkpt>
      <trkpt lat="58.883668994531035" lon="14.012753991410136">
        <ele>60.47</ele>
        <time>2025-02-14T18:06:35.182Z</time>
      </trkpt>
      <trkpt lat="58.88377393595874" lon="14.012788943946362">
        <ele>60.3</ele>
        <time>2025-02-14T18:07:24.884Z</time>
      </trkpt>
      <trkpt lat="58.8838779553771" lon="14.012819956988096">
        <ele>60.12</ele>
        <time>2025-02-14T18:08:14.588Z</time>
      </trkpt>
      <trkpt lat="58.88398298062384" lon="14.012852981686592">
        <ele>59.95</ele>
        <time>2025-02-14T18:09:04.294Z</time>
      </trkpt>
      <trkpt lat="58.88408792205155" lon="14.012885922566056">
        <ele>59.79</ele>
        <time>2025-02-14T18:09:54.001Z</time>
      </trkpt>
      <trkpt lat="58.88419194146991" lon="14.012918947264552">
        <ele>59.63</ele>
        <time>2025-02-14T18:10:43.710Z</time>
      </trkpt>
      <trkpt lat="58.88429696671665" lon="14.012952977791429">
        <ele>59.47</ele>
        <time>2025-02-14T18:11:33.421Z</time>
      </trkpt>
      <trkpt lat="58.884400986135006" lon="14.012986924499273">
        <ele>59.32</ele>
        <time>2025-02-14T18:12:23.134Z</time>
      </trkpt>
      <trkpt lat="58.884503999724984" lon="14.01302095502615">
        <ele>59.17</ele>
        <time>2025-02-14T18:13:12.848Z</time>
      </trkpt>
      <trkpt lat="58.88460692949593" lon="14.013054985553026">
        <ele>59.03</ele>
        <time>2025-02-14T18:14:02.564Z</time>
      </trkpt>
      <trkpt lat="58.88470994308591" lon="14.013090943917632">
        <ele>58.9</ele>
        <time>2025-02-14T18:14:52.282Z</time>
      </trkpt>
      <trkpt lat="58.88481295667589" lon="14.01312598027289">
        <ele>58.76</ele>
        <time>2025-02-14T18:15:42.001Z</time>
      </trkpt>
      <trkpt lat="58.884915970265865" lon="14.013158921152353">
        <ele>58.64</ele>
        <time>2025-02-14T18:16:31.722Z</time>
      </trkpt>
      <trkpt lat="58.88501797802746" lon="14.01319194585085">
        <ele>58.51</ele>
        <time>2025-02-14T18:17:21.445Z</time>
      </trkpt>
      <trkpt lat="58.8851179741323" lon="14.013223964720964">
        <ele>58.39</ele>
        <time>2025-02-14T18:18:11.169Z</time>
      </trkpt>
      <trkpt lat="58.885216964408755" lon="14.0132549777627">
        <ele>58.28</ele>
        <time>2025-02-14T18:19:00.895Z</time>
      </trkpt>
      <trkpt lat="58.88531696051359" lon="14.013287918642163">
        <ele>58.17</ele>
        <time>2025-02-14T18:19:50.622Z</time>
      </trkpt>
      <trkpt lat="58.88541494496167" lon="14.01332094334066">
        <ele>58.06</ele>
        <time>2025-02-14T18:20:40.351Z</time>
      </trkpt>
      <trkpt lat="58.88551192358136" lon="14.013355979695916">
        <ele>57.97</ele>
        <time>2025-02-14T18:21:30.082Z</time>
      </trkpt>
      <trkpt lat="58.88560798019171" lon="14.01338892057538">
        <ele>57.87</ele>
        <time>2025-02-14T18:22:19.814Z</time>
      </trkpt>
      <trkpt lat="58.88570294715464" lon="14.013419933617115">
        <ele>57.78</ele>
        <time>2025-02-14T18:23:09.548Z</time>
      </trkpt>
      <trkpt lat="58.885798919945955" lon="14.01345094665885">
        <ele>57.69</ele>
        <time>2025-02-14T18:23:59.283Z</time>
      </trkpt>
      <trkpt lat="58.88589296489954" lon="14.013480953872204">
        <ele>57.61</ele>
        <time>2025-02-14T18:24:49.020Z</time>
      </trkpt>
      <trkpt lat="58.88598592020571" lon="14.013506937772036">
        <ele>57.53</ele>
        <time>2025-02-14T18:25:38.758Z</time>
      </trkpt>
      <trkpt lat="58.886076947674155" lon="14.01353795081377">
        <ele>57.45</ele>
        <time>2025-02-14T18:26:28.498Z</time>
      </trkpt>
      <trkpt lat="58.8861679751426" lon="14.013571981340647">
        <ele>57.38</ele>
        <time>2025-02-14T18:27:18.239Z</time>
      </trkpt>
      <trkpt lat="58.88625799678266" lon="14.013605928048491">
        <ele>57.31</ele>
        <time>2025-02-14T18:28:07.982Z</time>
      </trkpt>
      <trkpt lat="58.88634793460369" lon="14.013637946918607">
        <ele>57.25</ele>
        <time>2025-02-14T18:28:57.726Z</time>
      </trkpt>
      <trkpt lat="58.88643594458699" lon="14.013669965788722">
        <ele>57.19</ele>
        <time>2025-02-14T18:29:47.472Z</time>
      </trkpt>
      <trkpt lat="58.886524960398674" lon="14.013700978830457">
        <ele>57.13</ele>
        <time>2025-02-14T18:30:37.219Z</time>
      </trkpt>
      <trkpt lat="58.886613976210356" lon="14.013732997700572">
        <ele>57.08</ele>
        <time>2025-02-14T18:31:26.968Z</time>
      </trkpt>
      <trkpt lat="58.88670299202204" lon="14.013766944408417">
        <ele>57.03</ele>
        <time>2025-02-14T18:32:16.718Z</time>
      </trkpt>
      <trkpt lat="58.88679091818631" lon="14.013799969106913">
        <ele>56.99</ele>
        <time>2025-02-14T18:33:06.470Z</time>
      </trkpt>
      <trkpt lat="58.88687691651285" lon="14.013830982148647">
        <ele>56.95</ele>
        <time>2025-02-14T18:33:56.223Z</time>
      </trkpt>
      <trkpt lat="58.88696299865842" lon="14.013861995190382">
        <ele>56.92</ele>
        <time>2025-02-14T18:34:45.977Z</time>
      </trkpt>
      <trkpt lat="58.88704799115658" lon="14.013892924413085">
        <ele>56.89</ele>
        <time>2025-02-14T18:35:35.733Z</time>
      </trkpt>
      <trkpt lat="58.88713298365474" lon="14.01392594911158">
        <ele>56.87</ele>
        <time>2025-02-14T18:36:25.490Z</time>
      </trkpt>
      <trkpt lat="58.8872179761529" lon="14.013959979638457">
        <ele>56.84</ele>
        <time>2025-02-14T18:37:15.248Z</time>
      </trkpt>
      <trkpt lat="58.887301962822676" lon="14.013994932174683">
        <ele>56.83</ele>
        <time>2025-02-14T18:38:05.008Z</time>
      </trkpt>
      <trkpt lat="58.887385949492455" lon="14.014027956873178">
        <ele>56.81</ele>
        <time>2025-02-14T18:38:54.769Z</time>
      </trkpt>
      <trkpt lat="58.88746893033385" lon="14.014059975743294">
        <ele>56.81</ele>
        <time>2025-02-14T18:39:44.532Z</time>
      </trkpt>
      <trkpt lat="58.88755199499428" lon="14.014091994613409">
        <ele>56.81</ele>
        <time>2025-02-14T18:40:34.296Z</time>
      </trkpt>
      <trkpt lat="58.88763497583568" lon="14.014127952978015">
        <ele>56.81</ele>
        <time>2025-02-14T18:41:24.061Z</time>
      </trkpt>
      <trkpt lat="58.88771896250546" lon="14.014164917171001">
        <ele>56.81</ele>
        <time>2025-02-14T18:42:13.828Z</time>
      </trkpt>
      <trkpt lat="58.88780194334686" lon="14.0142029710114">
        <ele>56.82</ele>
        <time>2025-02-14T18:43:03.596Z</time>
      </trkpt>
      <trkpt lat="58.88788593001664" lon="14.014238929376006">
        <ele>56.84</ele>
        <time>2025-02-14T18:43:53.365Z</time>
      </trkpt>
      <trkpt lat="58.887969916686416" lon="14.014277989044785">
        <ele>56.86</ele>
        <time>2025-02-14T18:44:43.136Z</time>
      </trkpt>
      <trkpt lat="58.888052981346846" lon="14.014317970722914">
        <ele>56.88</ele>
        <time>2025-02-14T18:45:32.908Z</time>
      </trkpt>
      <trkpt lat="58.888136968016624" lon="14.014357952401042">
        <ele>56.9</ele>
        <time>2025-02-14T18:46:22.682Z</time>
      </trkpt>
      <trkpt lat="58.88821994885802" lon="14.01439692825079">
        <ele>56.93</ele>
        <time>2025-02-14T18:47:12.457Z</time>
      </trkpt>
      <trkpt lat="58.88830292969942" lon="14.014435987919569">
        <ele>56.96</ele>
        <time>2025-02-14T18:48:02.233Z</time>
      </trkpt>
      <trkpt lat="58.8883869163692" lon="14.014472952112556">
        <ele>56.99</ele>
        <time>2025-02-14T18:48:52.011Z</time>
      </trkpt>
      <trkpt lat="58.88846998102963" lon="14.014509916305542">
        <ele>57.03</ele>
        <time>2025-02-14T18:49:41.790Z</time>
      </trkpt>
      <trkpt lat="58.88855296187103" lon="14.01454595848918">
        <ele>57.07</ele>
        <time>2025-02-14T18:50:31.570Z</time>
      </trkpt>
      <trkpt lat="58.88863694854081" lon="14.014581916853786">
        <ele>57.11</ele>
        <time>2025-02-14T18:51:21.352Z</time>
      </trkpt>
      <trkpt lat="58.888718923553824" lon="14.014617959037423">
        <ele>57.16</ele>
        <time>2025-02-14T18:52:11.135Z</time>
      </trkpt>
      <trkpt lat="58.888801988214254" lon="14.01465492323041">
        <ele>57.2</ele>
        <time>2025-02-14T18:53:00.920Z</time>
      </trkpt>
      <trkpt lat="58.88888496905565" lon="14.014691971242428">
        <ele>57.25</ele>
        <time>2025-02-14T18:53:50.706Z</time>
      </trkpt>
      <trkpt lat="58.88896694406867" lon="14.014727929607034">
        <ele>57.3</ele>
        <time>2025-02-14T18:54:40.493Z</time>
      </trkpt>
      <trkpt lat="58.88904891908169" lon="14.014764977619052">
        <ele>57.36</ele>
        <time>2025-02-14T18:55:30.282Z</time>
      </trkpt>
      <trkpt lat="58.88912997208536" lon="14.014799930155277">
        <ele>57.42</ele>
        <time>2025-02-14T18:56:20.072Z</time>
      </trkpt>
      <trkpt lat="58.889210941269994" lon="14.014833960682154">
        <ele>57.48</ele>
        <time>2025-02-14T18:57:09.863Z</time>
      </trkpt>
      <trkpt lat="58.88929291628301" lon="14.01486698538065">
        <ele>57.54</ele>
        <time>2025-02-14T18:57:59.656Z</time>
      </trkpt>
      <trkpt lat="58.88937497511506" lon="14.014901937916875">
        <ele>57.6</ele>
        <time>2025-02-14T18:58:49.450Z</time>
      </trkpt>
      <trkpt lat="58.88945795595646" lon="14.014936974272132">
        <ele>57.67</ele>
        <time>2025-02-14T18:59:39.245Z</time>
      </trkpt>
      <trkpt lat="58.88954194262624" lon="14.014971926808357">
        <ele>57.73</ele>
        <time>2025-02-14T19:00:29.042Z</time>
      </trkpt>
      <trkpt lat="58.889624923467636" lon="14.015006963163614">
        <ele>57.81</ele>
        <time>2025-02-14T19:01:18.840Z</time>
      </trkpt>
      <trkpt lat="58.88970899395645" lon="14.015041999518871">
        <ele>57.89</ele>
        <time>2025-02-14T19:02:08.639Z</time>
      </trkpt>
      <trkpt lat="58.889793986454606" lon="14.015074940398335">
        <ele>57.98</ele>
        <time>2025-02-14T19:02:58.440Z</time>
      </trkpt>
      <trkpt lat="58.889877973124385" lon="14.01510695926845">
        <ele>58.06</ele>
        <time>2025-02-14T19:03:48.242Z</time>
      </trkpt>
      <trkpt lat="58.889962965622544" lon="14.015138978138566">
        <ele>58.15</ele>
        <time>2025-02-14T19:04:38.046Z</time>
      </trkpt>
      <trkpt lat="58.890047958120704" lon="14.01517191901803">
        <ele>58.24</ele>
        <time>2025-02-14T19:05:27.851Z</time>
      </trkpt>
      <trkpt lat="58.89013295061886" lon="14.015203937888145">
        <ele>58.33</ele>
        <time>2025-02-14T19:06:17.657Z</time>
      </trkpt>
      <trkpt lat="58.89021794311702" lon="14.015236962586641">
        <ele>58.43</ele>
        <time>2025-02-14T19:07:07.465Z</time>
      </trkpt>
      <trkpt lat="58.89030293561518" lon="14.015270993113518">
        <ele>58.53</ele>
        <time>2025-02-14T19:07:57.274Z</time>
      </trkpt>
      <trkpt lat="58.89038692228496" lon="14.015302928164601">
        <ele>58.63</ele>
        <time>2025-02-14T19:08:47.085Z</time>
      </trkpt>
      <trkpt lat="58.89047199860215" lon="14.015334947034717">
        <ele>58.73</ele>
        <time>2025-02-14T19:09:36.897Z</time>
      </trkpt>
      <trkpt lat="58.89055598527193" lon="14.015368977561593">
        <ele>58.83</ele>
        <time>2025-02-14T19:10:26.710Z</time>
      </trkpt>
      <trkpt lat="58.89063997194171" lon="14.015402924269438">
        <ele>58.93</ele>
        <time>2025-02-14T19:11:16.525Z</time>
      </trkpt>
      <trkpt lat="58.89072295278311" lon="14.015436954796314">
        <ele>59.03</ele>
        <time>2025-02-14T19:12:06.341Z</time>
      </trkpt>
      <trkpt lat="58.890804927796125" lon="14.015471991151571">
        <ele>59.13</ele>
        <time>2025-02-14T19:12:56.158Z</time>
      </trkpt>
      <trkpt lat="58.890886986628175" lon="14.015505937859416">
        <ele>59.24</ele>
        <time>2025-02-14T19:13:45.977Z</time>
      </trkpt>
      <trkpt lat="58.89096896164119" lon="14.015539968386292">
        <ele>59.34</ele>
        <time>2025-02-14T19:14:35.797Z</time>
      </trkpt>
      <trkpt lat="58.89105093665421" lon="14.015573998913169">
        <ele>59.45</ele>
        <time>2025-02-14T19:15:25.618Z</time>
      </trkpt>
      <trkpt lat="58.89113492332399" lon="14.015607945621014">
        <ele>59.55</ele>
        <time>2025-02-14T19:16:15.441Z</time>
      </trkpt>
      <trkpt lat="58.8912189938128" lon="14.01564197614789">
        <ele>59.66</ele>
        <time>2025-02-14T19:17:05.265Z</time>
      </trkpt>
      <trkpt lat="58.8913019746542" lon="14.015676928684115">
        <ele>59.76</ele>
        <time>2025-02-14T19:17:55.091Z</time>
      </trkpt>
      <trkpt lat="58.891384955495596" lon="14.015712970867753">
        <ele>59.87</ele>
        <time>2025-02-14T19:18:44.918Z</time>
      </trkpt>
      <trkpt lat="58.891466930508614" lon="14.01575094088912">
        <ele>59.98</ele>
        <time>2025-02-14T19:19:34.746Z</time>
      </trkpt>
      <trkpt lat="58.89154898934066" lon="14.015785977244377">
        <ele>60.1</ele>
        <time>2025-02-14T19:20:24.576Z</time>
      </trkpt>
      <trkpt lat="58.8916299585253" lon="14.015818918123841">
        <ele>60.21</ele>
        <time>2025-02-14T19:21:14.407Z</time>
      </trkpt>
      <trkpt lat="58.89171092770994" lon="14.015850936993957">
        <ele>60.33</ele>
        <time>2025-02-14T19:22:04.239Z</time>
      </trkpt>
      <trkpt lat="58.891790974885225" lon="14.015883961692452">
        <ele>60.45</ele>
        <time>2025-02-14T19:22:54.073Z</time>
      </trkpt>
      <trkpt lat="58.89187093824148" lon="14.015916986390948">
        <ele>60.56</ele>
        <time>2025-02-14T19:23:43.908Z</time>
      </trkpt>
      <trkpt lat="58.89195299707353" lon="14.015951938927174">
        <ele>60.67</ele>
        <time>2025-02-14T19:24:33.744Z</time>
      </trkpt>
      <trkpt lat="58.89203497208655" lon="14.01598697528243">
        <ele>60.79</ele>
        <time>2025-02-14T19:25:23.582Z</time>
      </trkpt>
      <trkpt lat="58.89211895875633" lon="14.016022933647037">
        <ele>60.9</ele>
        <time>2025-02-14T19:26:13.421Z</time>
      </trkpt>
      <trkpt lat="58.892200933769345" lon="14.016058975830674">
        <ele>61.01</ele>
        <time>2025-02-14T19:27:03.261Z</time>
      </trkpt>
      <trkpt lat="58.892283998429775" lon="14.0160939283669">
        <ele>61.12</ele>
        <time>2025-02-14T19:27:53.103Z</time>
      </trkpt>
      <trkpt lat="58.89236697927117" lon="14.016130976378918">
        <ele>61.23</ele>
        <time>2025-02-14T19:28:42.946Z</time>
      </trkpt>
      <trkpt lat="58.89245096594095" lon="14.016165928915143">
        <ele>61.34</ele>
        <time>2025-02-14T19:29:32.790Z</time>
      </trkpt>
      <trkpt lat="58.89253294095397" lon="14.0162009652704">
        <ele>61.45</ele>
        <time>2025-02-14T19:30:22.636Z</time>
      </trkpt>
      <trkpt lat="58.89261399395764" lon="14.016234995797276">
        <ele>61.56</ele>
        <time>2025-02-14T19:31:12.483Z</time>
      </trkpt>
      <trkpt lat="58.892693957313895" lon="14.01626793667674">
        <ele>61.66</ele>
        <time>2025-02-14T19:32:02.331Z</time>
      </trkpt>
      <trkpt lat="58.89277392067015" lon="14.016301967203617">
        <ele>61.76</ele>
        <time>2025-02-14T19:32:52.181Z</time>
      </trkpt>
      <trkpt lat="58.89285296201706" lon="14.016336919739842">
        <ele>61.85</ele>
        <time>2025-02-14T19:33:42.032Z</time>
      </trkpt>
      <trkpt lat="58.892932925373316" lon="14.0163719560951">
        <ele>61.95</ele>
        <time>2025-02-14T19:34:31.884Z</time>
      </trkpt>
      <trkpt lat="58.893013978376985" lon="14.016407998278737">
        <ele>62.03</ele>
        <time>2025-02-14T19:35:21.738Z</time>
      </trkpt>
      <trkpt lat="58.89309494756162" lon="14.016441944986582">
        <ele>62.12</ele>
        <time>2025-02-14T19:36:11.593Z</time>
      </trkpt>
      <trkpt lat="58.89317591674626" lon="14.016473963856697">
        <ele>62.2</ele>
        <time>2025-02-14T19:37:01.449Z</time>
      </trkpt>
      <trkpt lat="58.89325696974993" lon="14.016506988555193">
        <ele>62.29</ele>
        <time>2025-02-14T19:37:51.307Z</time>
      </trkpt>
      <trkpt lat="58.893337938934565" lon="14.016541941091418">
        <ele>62.37</ele>
        <time>2025-02-14T19:38:41.166Z</time>
      </trkpt>
      <trkpt lat="58.89341899193823" lon="14.016578989103436">
        <ele>62.46</ele>
        <time>2025-02-14T19:39:31.026Z</time>
      </trkpt>
      <trkpt lat="58.89349996112287" lon="14.016615953296423">
        <ele>62.54</ele>
        <time>2025-02-14T19:40:20.888Z</time>
      </trkpt>
      <trkpt lat="58.89358193613589" lon="14.01665291748941">
        <ele>62.63</ele>
        <time>2025-02-14T19:41:10.751Z</time>
      </trkpt>
      <trkpt lat="58.89366298913956" lon="14.016688959673047">
        <ele>62.72</ele>
        <time>2025-02-14T19:42:00.615Z</time>
      </trkpt>
      <trkpt lat="58.89374295249581" lon="14.016725923866034">
        <ele>62.8</ele>
        <time>2025-02-14T19:42:50.481Z</time>
      </trkpt>
      <trkpt lat="58.89382199384272" lon="14.016765989363194">
        <ele>62.89</ele>
        <time>2025-02-14T19:43:40.348Z</time>
      </trkpt>
      <trkpt lat="58.893899945542216" lon="14.016806976869702">
        <ele>62.97</ele>
        <time>2025-02-14T19:44:30.216Z</time>
      </trkpt>
      <trkpt lat="58.893979992717505" lon="14.01684695854783">
        <ele>63.05</ele>
        <time>2025-02-14T19:45:20.086Z</time>
      </trkpt>
      <trkpt lat="58.89405995607376" lon="14.01688794605434">
        <ele>63.12</ele>
        <time>2025-02-14T19:46:09.957Z</time>
      </trkpt>
      <trkpt lat="58.8941409252584" lon="14.016929939389229">
        <ele>63.2</ele>
        <time>2025-02-14T19:46:59.829Z</time>
      </trkpt>
      <trkpt lat="58.894220972433686" lon="14.016972938552499">
        <ele>63.26</ele>
        <time>2025-02-14T19:47:49.703Z</time>
      </trkpt>
      <trkpt lat="58.89429992996156" lon="14.017014931887388">
        <ele>63.33</ele>
        <time>2025-02-14T19:48:39.578Z</time>
      </trkpt>
      <trkpt lat="58.89437796548009" lon="14.017055919393897">
        <ele>63.39</ele>
        <time>2025-02-14T19:49:29.454Z</time>
      </trkpt>
      <trkpt lat="58.894454995170236" lon="14.017100930213928">
        <ele>63.44</ele>
        <time>2025-02-14T19:50:19.331Z</time>
      </trkpt>
      <trkpt lat="58.89453194104135" lon="14.01714694686234">
        <ele>63.5</ele>
        <time>2025-02-14T19:51:09.210Z</time>
      </trkpt>
      <trkpt lat="58.8946089707315" lon="14.017194975167513">
        <ele>63.55</ele>
        <time>2025-02-14T19:51:59.090Z</time>
      </trkpt>
      <trkpt lat="58.89468692243099" lon="14.017244931310415">
        <ele>63.6</ele>
        <time>2025-02-14T19:52:48.971Z</time>
      </trkpt>
      <trkpt lat="58.8947659637779" lon="14.01729497127235">
        <ele>63.65</ele>
        <time>2025-02-14T19:53:38.854Z</time>
      </trkpt>
      <trkpt lat="58.894845927134156" lon="14.017344927415252">
        <ele>63.69</ele>
        <time>2025-02-14T19:54:28.738Z</time>
      </trkpt>
      <trkpt lat="58.894924968481064" lon="14.017395973205566">
        <ele>63.73</ele>
        <time>2025-02-14T19:55:18.623Z</time>
      </trkpt>
      <trkpt lat="58.8950059376657" lon="14.01744693517685">
        <ele>63.77</ele>
        <time>2025-02-14T19:56:08.510Z</time>
      </trkpt>
      <trkpt lat="58.89508699066937" lon="14.017498986795545">
        <ele>63.81</ele>
        <time>2025-02-14T19:56:58.398Z</time>
      </trkpt>
      <trkpt lat="58.89516896568239" lon="14.017550954595208">
        <ele>63.84</ele>
        <time>2025-02-14T19:57:48.288Z</time>
      </trkpt>
      <trkpt lat="58.895251946523786" lon="14.017605939880013">
        <ele>63.87</ele>
        <time>2025-02-14T19:58:38.179Z</time>
      </trkpt>
      <trkpt lat="58.8953339215368" lon="14.017660925164819">
        <ele>63.89</ele>
        <time>2025-02-14T19:59:28.071Z</time>
      </trkpt>
      <trkpt lat="58.89541698619723" lon="14.017717922106385">
        <ele>63.92</ele>
        <time>2025-02-14T20:00:17.965Z</time>
      </trkpt>
      <trkpt lat="58.89549996703863" lon="14.017775924876332">
        <ele>63.94</ele>
        <time>2025-02-14T20:01:07.860Z</time>
      </trkpt>
      <trkpt lat="58.89558294788003" lon="14.01783493347466">
        <ele>63.95</ele>
        <time>2025-02-14T20:01:57.757Z</time>
      </trkpt>
      <trkpt lat="58.89566592872143" lon="14.017893942072988">
        <ele>63.96</ele>
        <time>2025-02-14T20:02:47.655Z</time>
      </trkpt>
      <trkpt lat="58.89574999921024" lon="14.017954962328076">
        <ele>63.97</ele>
        <time>2025-02-14T20:03:37.554Z</time>
      </trkpt>
      <trkpt lat="58.89583298005164" lon="14.018015982583165">
        <ele>63.98</ele>
        <time>2025-02-14T20:04:27.455Z</time>
      </trkpt>
      <trkpt lat="58.895915960893035" lon="14.018075997009873">
        <ele>63.98</ele>
        <time>2025-02-14T20:05:17.357Z</time>
      </trkpt>
      <trkpt lat="58.89599793590605" lon="14.018137939274311">
        <ele>63.98</ele>
        <time>2025-02-14T20:06:07.261Z</time>
      </trkpt>
      <trkpt lat="58.89608091674745" lon="14.018204994499683">
        <ele>63.98</ele>
        <time>2025-02-14T20:06:57.166Z</time>
      </trkpt>
      <trkpt lat="58.89616498723626" lon="14.018273977562785">
        <ele>63.97</ele>
        <time>2025-02-14T20:07:47.073Z</time>
      </trkpt>
      <trkpt lat="58.89624796807766" lon="14.018344972282648">
        <ele>63.95</ele>
        <time>2025-02-14T20:08:36.981Z</time>
      </trkpt>
      <trkpt lat="58.89633195474744" lon="14.018415967002511">
        <ele>63.94</ele>
        <time>2025-02-14T20:09:26.891Z</time>
      </trkpt>
      <trkpt lat="58.8964169472456" lon="14.018484950065613">
        <ele>63.92</ele>
        <time>2025-02-14T20:10:16.802Z</time>
      </trkpt>
      <trkpt lat="58.89650193974376" lon="14.018552927300334">
        <ele>63.9</ele>
        <time>2025-02-14T20:11:06.714Z</time>
      </trkpt>
      <trkpt lat="58.896585926413536" lon="14.018620988354087">
        <ele>63.88</ele>
        <time>2025-02-14T20:11:56.628Z</time>
      </trkpt>
      <trkpt lat="58.89666999690235" lon="14.018689971417189">
        <ele>63.86</ele>
        <time>2025-02-14T20:12:46.543Z</time>
      </trkpt>
      <trkpt lat="58.896752977743745" lon="14.018763983622193">
        <ele>63.84</ele>
        <time>2025-02-14T20:13:36.460Z</time>
      </trkpt>
      <trkpt lat="58.896836964413524" lon="14.018839923664927">
        <ele>63.81</ele>
        <time>2025-02-14T20:14:26.378Z</time>
      </trkpt>
      <trkpt lat="58.896922962740064" lon="14.018912930041552">
        <ele>63.79</ele>
        <time>2025-02-14T20:15:16.298Z</time>
      </trkpt>
      <trkpt lat="58.897009966894984" lon="14.018985936418176">
        <ele>63.77</ele>
        <time>2025-02-14T20:16:06.219Z</time>
      </trkpt>
      <trkpt lat="58.897097976878285" lon="14.0190589427948">
        <ele>63.74</ele>
        <time>2025-02-14T20:16:56.142Z</time>
      </trkpt>
      <trkpt lat="58.89718598686159" lon="14.019131949171424">
        <ele>63.71</ele>
        <time>2025-02-14T20:17:46.066Z</time>
      </trkpt>
      <trkpt lat="58.89727491885424" lon="14.019203949719667">
        <ele>63.68</ele>
        <time>2025-02-14T20:18:35.992Z</time>
      </trkpt>
      <trkpt lat="58.89736292883754" lon="14.019275950267911">
        <ele>63.65</ele>
        <time>2025-02-14T20:19:25.920Z</time>
      </trkpt>
      <trkpt lat="58.89744993299246" lon="14.019345939159393">
        <ele>63.61</ele>
        <time>2025-02-14T20:20:15.849Z</time>
      </trkpt>
      <trkpt lat="58.89753794297576" lon="14.019412994384766">
        <ele>63.57</ele>
        <time>2025-02-14T20:21:05.780Z</time>
      </trkpt>
      <trkpt lat="58.89762695878744" lon="14.019477954134345">
        <ele>63.53</ele>
        <time>2025-02-14T20:21:55.712Z</time>
      </trkpt>
      <trkpt lat="58.89771496877074" lon="14.019539980217814">
        <ele>63.49</ele>
        <time>2025-02-14T20:22:45.646Z</time>
      </trkpt>
      <trkpt lat="58.897803984582424" lon="14.019600916653872">
        <ele>63.44</ele>
        <time>2025-02-14T20:23:35.581Z</time>
      </trkpt>
      <trkpt lat="58.897891994565725" lon="14.019662942737341">
        <ele>63.39</ele>
        <time>2025-02-14T20:24:25.518Z</time>
      </trkpt>
      <trkpt lat="58.897980926558375" lon="14.019719939678907">
        <ele>63.34</ele>
        <time>2025-02-14T20:25:15.456Z</time>
      </trkpt>
      <trkpt lat="58.89806893654168" lon="14.019773919135332">
        <ele>63.29</ele>
        <time>2025-02-14T20:26:05.396Z</time>
      </trkpt>
      <trkpt lat="58.89815895818174" lon="14.019825970754027">
        <ele>63.24</ele>
        <time>2025-02-14T20:26:55.337Z</time>
      </trkpt>
      <trkpt lat="58.89824998565018" lon="14.01987592689693">
        <ele>63.18</ele>
        <time>2025-02-14T20:27:45.280Z</time>
      </trkpt>
      <trkpt lat="58.898341935127974" lon="14.019925966858864">
        <ele>63.13</ele>
        <time>2025-02-14T20:28:35.224Z</time>
      </trkpt>
      <trkpt lat="58.89843296259642" lon="14.019975923001766">
        <ele>63.07</ele>
        <time>2025-02-14T20:29:25.170Z</time>
      </trkpt>
      <trkpt lat="58.89852692373097" lon="14.020021939650178">
        <ele>63.02</ele>
        <time>2025-02-14T20:30:15.117Z</time>
      </trkpt>
      <trkpt lat="58.898620968684554" lon="14.020065944641829">
        <ele>62.97</ele>
        <time>2025-02-14T20:31:05.066Z</time>
      </trkpt>
      <trkpt lat="58.89871593564749" lon="14.02011095546186">
        <ele>62.92</ele>
        <time>2025-02-14T20:31:55.016Z</time>
      </trkpt>
      <trkpt lat="58.89881098642945" lon="14.02015395462513">
        <ele>62.86</ele>
        <time>2025-02-14T20:32:44.968Z</time>
      </trkpt>
      <trkpt lat="58.89890796504915" lon="14.020195947960019">
        <ele>62.81</ele>
        <time>2025-02-14T20:33:34.922Z</time>
      </trkpt>
      <trkpt lat="58.89900594949722" lon="14.020234923809767">
        <ele>62.75</ele>
        <time>2025-02-14T20:34:24.877Z</time>
      </trkpt>
      <trkpt lat="58.89910493977368" lon="14.020271971821785">
        <ele>62.7</ele>
        <time>2025-02-14T20:35:14.834Z</time>
      </trkpt>
      <trkpt lat="58.899204935878515" lon="14.02030591852963">
        <ele>62.64</ele>
        <time>2025-02-14T20:36:04.792Z</time>
      </trkpt>
      <trkpt lat="58.89930392615497" lon="14.020340954884887">
        <ele>62.58</ele>
        <time>2025-02-14T20:36:54.752Z</time>
      </trkpt>
      <trkpt lat="58.89940291643143" lon="14.020371967926621">
        <ele>62.52</ele>
        <time>2025-02-14T20:37:44.714Z</time>
      </trkpt>
      <trkpt lat="58.899500984698534" lon="14.020399963483214">
        <ele>62.46</ele>
        <time>2025-02-14T20:38:34.677Z</time>
      </trkpt>
      <trkpt lat="58.89959896914661" lon="14.020425947383046">
        <ele>62.39</ele>
        <time>2025-02-14T20:39:24.642Z</time>
      </trkpt>
      <trkpt lat="58.899696953594685" lon="14.020450925454497">
        <ele>62.32</ele>
        <time>2025-02-14T20:40:14.608Z</time>
      </trkpt>
      <trkpt lat="58.89979393221438" lon="14.0204749815166">
        <ele>62.26</ele>
        <time>2025-02-14T20:41:04.576Z</time>
      </trkpt>
      <trkpt lat="58.899890994653106" lon="14.020493924617767">
        <ele>62.19</ele>
        <time>2025-02-14T20:41:54.545Z</time>
      </trkpt>
      <trkpt lat="58.89998696744442" lon="14.020508928224444">
        <ele>62.12</ele>
        <time>2025-02-14T20:42:44.516Z</time>
      </trkpt>
      <trkpt lat="58.900082940235734" lon="14.02052292600274">
        <ele>62.06</ele>
        <time>2025-02-14T20:43:34.489Z</time>
      </trkpt>
      <trkpt lat="58.90017991885543" lon="14.020536923781037">
        <ele>61.99</ele>
        <time>2025-02-14T20:44:24.463Z</time>
      </trkpt>
      <trkpt lat="58.900276981294155" lon="14.020548993721604">
        <ele>61.92</ele>
        <time>2025-02-14T20:45:14.439Z</time>
      </trkpt>
      <trkpt lat="58.90037597157061" lon="14.020556956529617">
        <ele>61.85</ele>
        <time>2025-02-14T20:46:04.416Z</time>
      </trkpt>
      <trkpt lat="58.900473956018686" lon="14.02056198567152">
        <ele>61.78</ele>
        <time>2025-02-14T20:46:54.395Z</time>
      </trkpt>
      <trkpt lat="58.9005749579519" lon="14.020566930994391">
        <ele>61.71</ele>
        <time>2025-02-14T20:47:44.375Z</time>
      </trkpt>
      <trkpt lat="58.9006769657135" lon="14.020569948479533">
        <ele>61.64</ele>
        <time>2025-02-14T20:48:34.357Z</time>
      </trkpt>
      <trkpt lat="58.9007789734751" lon="14.020570954307914">
        <ele>61.57</ele>
        <time>2025-02-14T20:49:24.341Z</time>
      </trkpt>
      <trkpt lat="58.900880981236696" lon="14.020568942651153">
        <ele>61.51</ele>
        <time>2025-02-14T20:50:14.326Z</time>
      </trkpt>
      <trkpt lat="58.900982988998294" lon="14.020566930994391">
        <ele>61.44</ele>
        <time>2025-02-14T20:51:04.313Z</time>
      </trkpt>
      <trkpt lat="58.90108399093151" lon="14.02056491933763">
        <ele>61.38</ele>
        <time>2025-02-14T20:51:54.302Z</time>
      </trkpt>
      <trkpt lat="58.90118398703635" lon="14.02056491933763">
        <ele>61.31</ele>
        <time>2025-02-14T20:52:44.292Z</time>
      </trkpt>
      <trkpt lat="58.901285994797945" lon="14.02056491933763">
        <ele>61.25</ele>
        <time>2025-02-14T20:53:34.284Z</time>
      </trkpt>
      <trkpt lat="58.90138699673116" lon="14.02056198567152">
        <ele>61.18</ele>
        <time>2025-02-14T20:54:24.278Z</time>
      </trkpt>
      <trkpt lat="58.90148992650211" lon="14.020558968186378">
        <ele>61.12</ele>
        <time>2025-02-14T20:55:14.273Z</time>
      </trkpt>
      <trkpt lat="58.901590928435326" lon="14.020555950701237">
        <ele>61.06</ele>
        <time>2025-02-14T20:56:04.270Z</time>
      </trkpt>
      <trkpt lat="58.90169193036854" lon="14.020552933216095">
        <ele>61.0</ele>
        <time>2025-02-14T20:56:54.268Z</time>
      </trkpt>
      <trkpt lat="58.901790920645" lon="14.020550921559334">
        <ele>60.94</ele>
        <time>2025-02-14T20:57:44.268Z</time>
      </trkpt>
      <trkpt lat="58.901889994740486" lon="14.020548993721604">
        <ele>60.88</ele>
        <time>2025-02-14T20:58:34.270Z</time>
      </trkpt>
      <trkpt lat="58.90198697336018" lon="14.020545976236463">
        <ele>60.82</ele>
        <time>2025-02-14T20:59:24.273Z</time>
      </trkpt>
      <trkpt lat="58.902083951979876" lon="14.020543964579701">
        <ele>60.76</ele>
        <time>2025-02-14T21:00:14.278Z</time>
      </trkpt>
      <trkpt lat="58.90218193642795" lon="14.020545976236463">
        <ele>60.69</ele>
        <time>2025-02-14T21:01:04.284Z</time>
      </trkpt>
      <trkpt lat="58.90228092670441" lon="14.020543964579701">
        <ele>60.63</ele>
        <time>2025-02-14T21:01:54.292Z</time>
      </trkpt>
      <trkpt lat="58.902378994971514" lon="14.02054195292294">
        <ele>60.57</ele>
        <time>2025-02-14T21:02:44.301Z</time>
      </trkpt>
      <trkpt lat="58.90247899107635" lon="14.020539941266179">
        <ele>60.51</ele>
        <time>2025-02-14T21:03:34.312Z</time>
      </trkpt>
      <trkpt lat="58.902577981352806" lon="14.020539941266179">
        <ele>60.45</ele>
        <time>2025-02-14T21:04:24.325Z</time>
      </trkpt>
      <trkpt lat="58.9026749599725" lon="14.020539941266179">
        <ele>60.39</ele>
        <time>2025-02-14T21:05:14.339Z</time>
      </trkpt>
      <trkpt lat="58.902771938592196" lon="14.02054094709456">
        <ele>60.33</ele>
        <time>2025-02-14T21:06:04.355Z</time>
      </trkpt>
      <trkpt lat="58.90286891721189" lon="14.020545976236463">
        <ele>60.28</ele>
        <time>2025-02-14T21:06:54.372Z</time>
      </trkpt>
      <trkpt lat="58.90296597965062" lon="14.020551927387714">
        <ele>60.23</ele>
        <time>2025-02-14T21:07:44.391Z</time>
      </trkpt>
      <trkpt lat="58.90306295827031" lon="14.020557962357998">
        <ele>60.19</ele>
        <time>2025-02-14T21:08:34.411Z</time>
      </trkpt>
      <trkpt lat="58.903159936890006" lon="14.020566930994391">
        <ele>60.14</ele>
        <time>2025-02-14T21:09:24.433Z</time>
      </trkpt>
      <trkpt lat="58.90325699932873" lon="14.020579922944307">
        <ele>60.1</ele>
        <time>2025-02-14T21:10:14.457Z</time>
      </trkpt>
      <trkpt lat="58.90335397794843" lon="14.020592998713255">
        <ele>60.06</ele>
        <time>2025-02-14T21:11:04.482Z</time>
      </trkpt>
      <trkpt lat="58.90344793908298" lon="14.02060599066317">
        <ele>60.02</ele>
        <time>2025-02-14T21:11:54.509Z</time>
      </trkpt>
      <trkpt lat="58.903541984036565" lon="14.020618982613087">
        <ele>59.98</ele>
        <time>2025-02-14T21:12:44.537Z</time>
      </trkpt>
      <trkpt lat="58.90363594517112" lon="14.020632980391383">
        <ele>59.94</ele>
        <time>2025-02-14T21:13:34.567Z</time>
      </trkpt>
      <trkpt lat="58.9037299901247" lon="14.02064898982644">
        <ele>59.91</ele>
        <time>2025-02-14T21:14:24.598Z</time>
      </trkpt>
      <trkpt lat="58.903823951259255" lon="14.020665921270847">
        <ele>59.87</ele>
        <time>2025-02-14T21:15:14.631Z</time>
      </trkpt>
      <trkpt lat="58.90391891822219" lon="14.020685954019427">
        <ele>59.84</ele>
        <time>2025-02-14T21:16:04.665Z</time>
      </trkpt>
      <trkpt lat="58.904013969004154" lon="14.020706992596388">
        <ele>59.81</ele>
        <time>2025-02-14T21:16:54.701Z</time>
      </trkpt>
      <trkpt lat="58.90410692431033" lon="14.020727947354317">
        <ele>59.78</ele>
        <time>2025-02-14T21:17:44.738Z</time>
      </trkpt>
      <trkpt lat="58.90419895760715" lon="14.020747980102897">
        <ele>59.76</ele>
        <time>2025-02-14T21:18:34.777Z</time>
      </trkpt>
      <trkpt lat="58.90428897924721" lon="14.020769940689206">
        <ele>59.73</ele>
        <time>2025-02-14T21:19:24.817Z</time>
      </trkpt>
      <trkpt lat="58.90437891706824" lon="14.020794918760657">
        <ele>59.72</ele>
        <time>2025-02-14T21:20:14.859Z</time>
      </trkpt>
      <trkpt lat="58.904467932879925" lon="14.02082098647952">
        <ele>59.7</ele>
        <time>2025-02-14T21:21:04.902Z</time>
      </trkpt>
      <trkpt lat="58.90455896034837" lon="14.020848982036114">
        <ele>59.68</ele>
        <time>2025-02-14T21:21:54.947Z</time>
      </trkpt>
      <trkpt lat="58.90464998781681" lon="14.020876977592707">
        <ele>59.67</ele>
        <time>2025-02-14T21:22:44.993Z</time>
      </trkpt>
      <trkpt lat="58.90473992563784" lon="14.020907990634441">
        <ele>59.65</ele>
        <time>2025-02-14T21:23:35.040Z</time>
      </trkpt>
      <trkpt lat="58.904829947277904" lon="14.020941937342286">
        <ele>59.64</ele>
        <time>2025-02-14T21:24:25.089Z</time>
      </trkpt>
      <trkpt lat="58.904918963089585" lon="14.020974962040782">
        <ele>59.63</ele>
        <time>2025-02-14T21:25:15.139Z</time>
      </trkpt>
      <trkpt lat="58.90500898472965" lon="14.021009998396039">
        <ele>59.63</ele>
        <time>2025-02-14T21:26:05.191Z</time>
      </trkpt>
      <trkpt lat="58.90509699471295" lon="14.021044950932264">
        <ele>59.62</ele>
        <time>2025-02-14T21:26:55.244Z</time>
      </trkpt>
      <trkpt lat="58.9051859267056" lon="14.021080993115902">
        <ele>59.62</ele>
        <time>2025-02-14T21:27:45.299Z</time>
      </trkpt>
      <trkpt lat="58.90527494251728" lon="14.021116951480508">
        <ele>59.61</ele>
        <time>2025-02-14T21:28:35.355Z</time>
      </trkpt>
      <trkpt lat="58.90536295250058" lon="14.021156933158636">
        <ele>59.61</ele>
        <time>2025-02-14T21:29:25.413Z</time>
      </trkpt>
      <trkpt lat="58.90545196831226" lon="14.021196998655796">
        <ele>59.61</ele>
        <time>2025-02-14T21:30:15.472Z</time>
      </trkpt>
      <trkpt lat="58.905540984123945" lon="14.021237986162305">
        <ele>59.61</ele>
        <time>2025-02-14T21:31:05.533Z</time>
      </trkpt>
      <trkpt lat="58.90562999993563" lon="14.021276962012053">
        <ele>59.61</ele>
        <time>2025-02-14T21:31:55.595Z</time>
      </trkpt>
      <trkpt lat="58.90571893192828" lon="14.0213159378618">
        <ele>59.6</ele>
        <time>2025-02-14T21:32:45.659Z</time>
      </trkpt>
      <trkpt lat="58.9058059360832" lon="14.02135499753058">
        <ele>59.6</ele>
        <time>2025-02-14T21:33:35.724Z</time>
      </trkpt>
      <trkpt lat="58.90589294023812" lon="14.021396990865469">
        <ele>59.6</ele>
        <time>2025-02-14T21:34:25.790Z</time>
      </trkpt>
      <trkpt lat="58.90597994439304" lon="14.021439990028739">
        <ele>59.61</ele>
        <time>2025-02-14T21:35:15.858Z</time>
      </trkpt>
      <trkpt lat="58.90606795437634" lon="14.021481983363628">
        <ele>59.61</ele>
        <time>2025-02-14T21:36:05.927Z</time>
      </trkpt>
      <trkpt lat="58.90615596435964" lon="14.021520959213376">
        <ele>59.61</ele>
        <time>2025-02-14T21:36:55.998Z</time>
      </trkpt>
      <trkpt lat="58.90624397434294" lon="14.021559935063124">
        <ele>59.62</ele>
        <time>2025-02-14T21:37:46.070Z</time>
      </trkpt>
      <trkpt lat="58.90633097849786" lon="14.021599916741252">
        <ele>59.63</ele>
        <time>2025-02-14T21:38:36.144Z</time>
      </trkpt>
      <trkpt lat="58.9064169768244" lon="14.021639982238412">
        <ele>59.64</ele>
        <time>2025-02-14T21:39:26.219Z</time>
      </trkpt>
      <trkpt lat="58.90650398097932" lon="14.021682981401682">
        <ele>59.65</ele>
        <time>2025-02-14T21:40:16.295Z</time>
      </trkpt>
      <trkpt lat="58.906590985134244" lon="14.021724974736571">
        <ele>59.66</ele>
        <time>2025-02-14T21:41:06.373Z</time>
      </trkpt>
      <trkpt lat="58.906678995117545" lon="14.0217649564147">
        <ele>59.67</ele>
        <time>2025-02-14T21:41:56.452Z</time>
      </trkpt>
      <trkpt lat="58.906765999272466" lon="14.021803932264447">
        <ele>59.69</ele>
        <time>2025-02-14T21:42:46.533Z</time>
      </trkpt>
      <trkpt lat="58.906851997599006" lon="14.021841986104846">
        <ele>59.7</ele>
        <time>2025-02-14T21:43:36.615Z</time>
      </trkpt>
      <trkpt lat="58.906937995925546" lon="14.021878950297832">
        <ele>59.72</ele>
        <time>2025-02-14T21:44:26.699Z</time>
      </trkpt>
      <trkpt lat="58.907024916261435" lon="14.02191599830985">
        <ele>59.75</ele>
        <time>2025-02-14T21:45:16.784Z</time>
      </trkpt>
      <trkpt lat="58.907110998407006" lon="14.021955979987979">
        <ele>59.77</ele>
        <time>2025-02-14T21:46:06.870Z</time>
      </trkpt>
      <trkpt lat="58.907196996733546" lon="14.021995961666107">
        <ele>59.79</ele>
        <time>2025-02-14T21:46:56.958Z</time>
      </trkpt>
      <trkpt lat="58.907282995060086" lon="14.022034937515855">
        <ele>59.81</ele>
        <time>2025-02-14T21:47:47.047Z</time>
      </trkpt>
      <trkpt lat="58.907367987558246" lon="14.022074919193983">
        <ele>59.83</ele>
        <time>2025-02-14T21:48:37.138Z</time>
      </trkpt>
      <trkpt lat="58.907452980056405" lon="14.022114984691143">
        <ele>59.86</ele>
        <time>2025-02-14T21:49:27.230Z</time>
      </trkpt>
      <trkpt lat="58.907537972554564" lon="14.022155972197652">
        <ele>59.88</ele>
        <time>2025-02-14T21:50:17.324Z</time>
      </trkpt>
      <trkpt lat="58.907622965052724" lon="14.02219595387578">
        <ele>59.91</ele>
        <time>2025-02-14T21:51:07.419Z</time>
      </trkpt>
      <trkpt lat="58.90770795755088" lon="14.022235935553908">
        <ele>59.94</ele>
        <time>2025-02-14T21:51:57.515Z</time>
      </trkpt>
      <trkpt lat="58.90779194422066" lon="14.022276923060417">
        <ele>59.98</ele>
        <time>2025-02-14T21:52:47.613Z</time>
      </trkpt>
      <trkpt lat="58.90787593089044" lon="14.022320928052068">
        <ele>60.01</ele>
        <time>2025-02-14T21:53:37.712Z</time>
      </trkpt>
      <trkpt lat="58.90795991756022" lon="14.02236694470048">
        <ele>60.06</ele>
        <time>2025-02-14T21:54:27.813Z</time>
      </trkpt>
      <trkpt lat="58.90804398804903" lon="14.022413967177272">
        <ele>60.1</ele>
        <time>2025-02-14T21:55:17.915Z</time>
      </trkpt>
      <trkpt lat="58.90812898054719" lon="14.022461995482445">
        <ele>60.15</ele>
        <time>2025-02-14T21:56:08.018Z</time>
      </trkpt>
      <trkpt lat="58.90821397304535" lon="14.022510945796967">
        <ele>60.19</ele>
        <time>2025-02-14T21:56:58.123Z</time>
      </trkpt>
      <trkpt lat="58.90829795971513" lon="14.0225609857589">
        <ele>60.24</ele>
        <time>2025-02-14T21:57:48.229Z</time>
      </trkpt>
      <trkpt lat="58.90838194638491" lon="14.022611947730184">
        <ele>60.29</ele>
        <time>2025-02-14T21:58:38.337Z</time>
      </trkpt>
      <trkpt lat="58.908464927226305" lon="14.022663999348879">
        <ele>60.34</ele>
        <time>2025-02-14T21:59:28.446Z</time>
      </trkpt>
      <trkpt lat="58.908547991886735" lon="14.022715967148542">
        <ele>60.39</ele>
        <time>2025-02-14T22:00:18.556Z</time>
      </trkpt>
      <trkpt lat="58.908631978556514" lon="14.022765923291445">
        <ele>60.44</ele>
        <time>2025-02-14T22:01:08.668Z</time>
      </trkpt>
      <trkpt lat="58.90871495939791" lon="14.02281898073852">
        <ele>60.49</ele>
        <time>2025-02-14T22:01:58.781Z</time>
      </trkpt>
      <trkpt lat="58.90879592858255" lon="14.022871954366565">
        <ele>60.55</ele>
        <time>2025-02-14T22:02:48.896Z</time>
      </trkpt>
      <trkpt lat="58.90887698158622" lon="14.02292693965137">
        <ele>60.6</ele>
        <time>2025-02-14T22:03:39.012Z</time>
      </trkpt>
      <trkpt lat="58.908957950770855" lon="14.022982930764556">
        <ele>60.65</ele>
        <time>2025-02-14T22:04:29.129Z</time>
      </trkpt>
      <trkpt lat="58.90903992578387" lon="14.023039927706122">
        <ele>60.71</ele>
        <time>2025-02-14T22:05:19.248Z</time>
      </trkpt>
      <trkpt lat="58.90912198461592" lon="14.023096924647689">
        <ele>60.76</ele>
        <time>2025-02-14T22:06:09.368Z</time>
      </trkpt>
      <trkpt lat="58.90920295380056" lon="14.023154927417636">
        <ele>60.81</ele>
        <time>2025-02-14T22:06:59.490Z</time>
      </trkpt>
      <trkpt lat="58.909283922985196" lon="14.023213936015964">
        <ele>60.87</ele>
        <time>2025-02-14T22:07:49.613Z</time>
      </trkpt>
      <trkpt lat="58.909364975988865" lon="14.02327093295753">
        <ele>60.93</ele>
        <time>2025-02-14T22:08:39.737Z</time>
      </trkpt>
      <trkpt lat="58.90944493934512" lon="14.023325918242335">
        <ele>60.98</ele>
        <time>2025-02-14T22:09:29.863Z</time>
      </trkpt>
      <trkpt lat="58.90952498652041" lon="14.023380987346172">
        <ele>61.04</ele>
        <time>2025-02-14T22:10:19.990Z</time>
      </trkpt>
      <trkpt lat="58.909604949876666" lon="14.023436978459358">
        <ele>61.1</ele>
        <time>2025-02-14T22:11:10.118Z</time>
      </trkpt>
      <trkpt lat="58.909683991223574" lon="14.023495987057686">
        <ele>61.16</ele>
        <time>2025-02-14T22:12:00.248Z</time>
      </trkpt>
      <trkpt lat="58.90976294875145" lon="14.023552983999252">
        <ele>61.22</ele>
        <time>2025-02-14T22:12:50.379Z</time>
      </trkpt>
      <trkpt lat="58.90984299592674" lon="14.023608975112438">
        <ele>61.28</ele>
        <time>2025-02-14T22:13:40.511Z</time>
      </trkpt>
      <trkpt lat="58.909922959282994" lon="14.023665972054005">
        <ele>61.35</ele>
        <time>2025-02-14T22:14:30.645Z</time>
      </trkpt>
      <trkpt lat="58.91000493429601" lon="14.023722968995571">
        <ele>61.41</ele>
        <time>2025-02-14T22:15:20.780Z</time>
      </trkpt>
      <trkpt lat="58.91008598729968" lon="14.023777954280376">
        <ele>61.47</ele>
        <time>2025-02-14T22:16:10.917Z</time>
      </trkpt>
      <trkpt lat="58.91016695648432" lon="14.023834951221943">
        <ele>61.54</ele>
        <time>2025-02-14T22:17:01.055Z</time>
      </trkpt>
      <trkpt lat="58.910246919840574" lon="14.023894965648651">
        <ele>61.61</ele>
        <time>2025-02-14T22:17:51.194Z</time>
      </trkpt>
      <trkpt lat="58.91032696701586" lon="14.02395498007536">
        <ele>61.68</ele>
        <time>2025-02-14T22:18:41.335Z</time>
      </trkpt>
      <trkpt lat="58.91040693037212" lon="14.024011977016926">
        <ele>61.75</ele>
        <time>2025-02-14T22:19:31.477Z</time>
      </trkpt>
      <trkpt lat="58.91048798337579" lon="14.024067968130112">
        <ele>61.82</ele>
        <time>2025-02-14T22:20:21.620Z</time>
      </trkpt>
      <trkpt lat="58.910568952560425" lon="14.024124965071678">
        <ele>61.89</ele>
        <time>2025-02-14T22:21:11.765Z</time>
      </trkpt>
      <trkpt lat="58.91065092757344" lon="14.024184979498386">
        <ele>61.96</ele>
        <time>2025-02-14T22:22:01.911Z</time>
      </trkpt>
      <trkpt lat="58.91073097474873" lon="14.024242982268333">
        <ele>62.03</ele>
        <time>2025-02-14T22:22:52.059Z</time>
      </trkpt>
      <trkpt lat="58.91080993227661" lon="14.02429897338152">
        <ele>62.11</ele>
        <time>2025-02-14T22:23:42.208Z</time>
      </trkpt>
      <trkpt lat="58.910891991108656" lon="14.024354964494705">
        <ele>62.18</ele>
        <time>2025-02-14T22:24:32.358Z</time>
      </trkpt>
      <trkpt lat="58.91097195446491" lon="14.024410955607891">
        <ele>62.26</ele>
        <time>2025-02-14T22:25:22.510Z</time>
      </trkpt>
      <trkpt lat="58.91105099581182" lon="14.024465940892696">
        <ele>62.34</ele>
        <time>2025-02-14T22:26:12.663Z</time>
      </trkpt>
      <trkpt lat="58.91113196499646" lon="14.024522937834263">
        <ele>62.42</ele>
        <time>2025-02-14T22:27:02.817Z</time>
      </trkpt>
      <trkpt lat="58.911212934181094" lon="14.02458094060421">
        <ele>62.49</ele>
        <time>2025-02-14T22:27:52.973Z</time>
      </trkpt>
      <trkpt lat="58.91129499301314" lon="14.024636931717396">
        <ele>62.57</ele>
        <time>2025-02-14T22:28:43.130Z</time>
      </trkpt>
      <trkpt lat="58.91137797385454" lon="14.024690994992852">
        <ele>62.65</ele>
        <time>2025-02-14T22:29:33.289Z</time>
      </trkpt>
      <trkpt lat="58.91145994886756" lon="14.024747991934419">
        <ele>62.73</ele>
        <time>2025-02-14T22:30:23.449Z</time>
      </trkpt>
      <trkpt lat="58.91154192388058" lon="14.024804988875985">
        <ele>62.81</ele>
        <time>2025-02-14T22:31:13.610Z</time>
      </trkpt>
      <trkpt lat="58.911622976884246" lon="14.024861985817552">
        <ele>62.89</ele>
        <time>2025-02-14T22:32:03.773Z</time>
      </trkpt>
      <trkpt lat="58.9117029402405" lon="14.024918982759118">
        <ele>62.97</ele>
        <time>2025-02-14T22:32:53.937Z</time>
      </trkpt>
      <trkpt lat="58.91178499907255" lon="14.024972962215543">
        <ele>63.05</ele>
        <time>2025-02-14T22:33:44.103Z</time>
      </trkpt>
      <trkpt lat="58.91186596825719" lon="14.025023924186826">
        <ele>63.13</ele>
        <time>2025-02-14T22:34:34.270Z</time>
      </trkpt>
      <trkpt lat="58.91194794327021" lon="14.025075975805521">
        <ele>63.2</ele>
        <time>2025-02-14T22:35:24.438Z</time>
      </trkpt>
      <trkpt lat="58.912030924111605" lon="14.025128949433565">
        <ele>63.28</ele>
        <time>2025-02-14T22:36:14.608Z</time>
      </trkpt>
      <trkpt lat="58.912112982943654" lon="14.025180917233229">
        <ele>63.36</ele>
        <time>2025-02-14T22:37:04.779Z</time>
      </trkpt>
      <trkpt lat="58.91219596378505" lon="14.025233974680305">
        <ele>63.43</ele>
        <time>2025-02-14T22:37:54.952Z</time>
      </trkpt>
      <trkpt lat="58.91227894462645" lon="14.025285942479968">
        <ele>63.51</ele>
        <time>2025-02-14T22:38:45.126Z</time>
      </trkpt>
      <trkpt lat="58.91236091963947" lon="14.025336988270283">
        <ele>63.59</ele>
        <time>2025-02-14T22:39:35.301Z</time>
      </trkpt>
      <trkpt lat="58.9124439842999" lon="14.025387950241566">
        <ele>63.68</ele>
        <time>2025-02-14T22:40:25.478Z</time>
      </trkpt>
      <trkpt lat="58.91252897679806" lon="14.02544192969799">
        <ele>63.77</ele>
        <time>2025-02-14T22:41:15.656Z</time>
      </trkpt>
      <trkpt lat="58.91261396929622" lon="14.025494987145066">
        <ele>63.85</ele>
        <time>2025-02-14T22:42:05.836Z</time>
      </trkpt>
      <trkpt lat="58.91269996762276" lon="14.02554695494473">
        <ele>63.94</ele>
        <time>2025-02-14T22:42:56.017Z</time>
      </trkpt>
      <trkpt lat="58.912782948464155" lon="14.025595989078283">
        <ele>64.03</ele>
        <time>2025-02-14T22:43:46.199Z</time>
      </trkpt>
      <trkpt lat="58.91286592930555" lon="14.025642927736044">
        <ele>64.11</ele>
        <time>2025-02-14T22:44:36.383Z</time>
      </trkpt>
      <trkpt lat="58.912949999794364" lon="14.025687938556075">
        <ele>64.2</ele>
        <time>2025-02-14T22:45:26.568Z</time>
      </trkpt>
      <trkpt lat="58.913035998120904" lon="14.025734961032867">
        <ele>64.28</ele>
        <time>2025-02-14T22:46:16.755Z</time>
      </trkpt>
      <trkpt lat="58.91312099061906" lon="14.02578097768128">
        <ele>64.37</ele>
        <time>2025-02-14T22:47:06.943Z</time>
      </trkpt>
      <trkpt lat="58.9132069889456" lon="14.02582791633904">
        <ele>64.45</ele>
        <time>2025-02-14T22:47:57.132Z</time>
      </trkpt>
      <trkpt lat="58.91329097561538" lon="14.025874938815832">
        <ele>64.54</ele>
        <time>2025-02-14T22:48:47.323Z</time>
      </trkpt>
      <trkpt lat="58.91337496228516" lon="14.025922967121005">
        <ele>64.62</ele>
        <time>2025-02-14T22:49:37.515Z</time>
      </trkpt>
      <trkpt lat="58.91346196644008" lon="14.025966972112656">
        <ele>64.71</ele>
        <time>2025-02-14T22:50:27.709Z</time>
      </trkpt>
      <trkpt lat="58.91354796476662" lon="14.026011982932687">
        <ele>64.79</ele>
        <time>2025-02-14T22:51:17.904Z</time>
      </trkpt>
      <trkpt lat="58.91363496892154" lon="14.026058921590447">
        <ele>64.88</ele>
        <time>2025-02-14T22:52:08.101Z</time>
      </trkpt>
      <trkpt lat="58.91372096724808" lon="14.02610493823886">
        <ele>64.97</ele>
        <time>2025-02-14T22:52:58.299Z</time>
      </trkpt>
      <trkpt lat="58.91380696557462" lon="14.026146931573749">
        <ele>65.06</ele>
        <time>2025-02-14T22:53:48.498Z</time>
      </trkpt>
      <trkpt lat="58.91389497555792" lon="14.026189930737019">
        <ele>65.15</ele>
        <time>2025-02-14T22:54:38.699Z</time>
      </trkpt>
      <trkpt lat="58.91398097388446" lon="14.02623393572867">
        <ele>65.24</ele>
        <time>2025-02-14T22:55:28.901Z</time>
      </trkpt>
      <trkpt lat="58.914066972211" lon="14.02627794072032">
        <ele>65.32</ele>
        <time>2025-02-14T22:56:19.105Z</time>
      </trkpt>
      <trkpt lat="58.91415297053754" lon="14.02632093988359">
        <ele>65.41</ele>
        <time>2025-02-14T22:57:09.310Z</time>
      </trkpt>
      <trkpt lat="58.91423896886408" lon="14.02636393904686">
        <ele>65.5</ele>
        <time>2025-02-14T22:57:59.517Z</time>
      </trkpt>
      <trkpt lat="58.91432496719062" lon="14.02640693821013">
        <ele>65.59</ele>
        <time>2025-02-14T22:58:49.725Z</time>
      </trkpt>
      <trkpt lat="58.91440995968878" lon="14.02645094320178">
        <ele>65.68</ele>
        <time>2025-02-14T22:59:39.934Z</time>
      </trkpt>
      <trkpt lat="58.91449495218694" lon="14.026494948193431">
        <ele>65.76</ele>
        <time>2025-02-14T23:00:30.145Z</time>
      </trkpt>
      <trkpt lat="58.91457893885672" lon="14.026538953185081">
        <ele>65.85</ele>
        <time>2025-02-14T23:01:20.357Z</time>
      </trkpt>
      <trkpt lat="58.9146629255265" lon="14.026581952348351">
        <ele>65.93</ele>
        <time>2025-02-14T23:02:10.571Z</time>
      </trkpt>
      <trkpt lat="58.91474699601531" lon="14.026623945683241">
        <ele>66.01</ele>
        <time>2025-02-14T23:03:00.786Z</time>
      </trkpt>
      <trkpt lat="58.91483198851347" lon="14.02666593901813">
        <ele>66.09</ele>
        <time>2025-02-14T23:03:51.002Z</time>
      </trkpt>
      <trkpt lat="58.91491597518325" lon="14.0267089381814">
        <ele>66.16</ele>
        <time>2025-02-14T23:04:41.220Z</time>
      </trkpt>
      <trkpt lat="58.91500197350979" lon="14.02675294317305">
        <ele>66.24</ele>
        <time>2025-02-14T23:05:31.439Z</time>
      </trkpt>
      <trkpt lat="58.91508797183633" lon="14.026796948164701">
        <ele>66.32</ele>
        <time>2025-02-14T23:06:21.660Z</time>
      </trkpt>
      <trkpt lat="58.91517296433449" lon="14.026840953156352">
        <ele>66.4</ele>
        <time>2025-02-14T23:07:11.882Z</time>
      </trkpt>
      <trkpt lat="58.91525996848941" lon="14.026886969804764">
        <ele>66.49</ele>
        <time>2025-02-14T23:08:02.106Z</time>
      </trkpt>
      <trkpt lat="58.91534596681595" lon="14.026932986453176">
        <ele>66.57</ele>
        <time>2025-02-14T23:08:52.331Z</time>
      </trkpt>
      <trkpt lat="58.91543297097087" lon="14.026977997273207">
        <ele>66.65</ele>
        <time>2025-02-14T23:09:42.557Z</time>
      </trkpt>
      <trkpt lat="58.91552098095417" lon="14.027022924274206">
        <ele>66.74</ele>
        <time>2025-02-14T23:10:32.785Z</time>
      </trkpt>
      <trkpt lat="58.91560798510909" lon="14.027065923437476">
        <ele>66.83</ele>
        <time>2025-02-14T23:11:23.014Z</time>
      </trkpt>
      <trkpt lat="58.91569599509239" lon="14.027111940085888">
        <ele>66.91</ele>
        <time>2025-02-14T23:12:13.245Z</time>
      </trkpt>
      <trkpt lat="58.91578299924731" lon="14.02715896256268">
        <ele>67.0</ele>
        <time>2025-02-14T23:13:03.477Z</time>
      </trkpt>
      <trkpt lat="58.9158699195832" lon="14.027205985039473">
        <ele>67.09</ele>
        <time>2025-02-14T23:13:53.711Z</time>
      </trkpt>
      <trkpt lat="58.9159579295665" lon="14.027252923697233">
        <ele>67.17</ele>
        <time>2025-02-14T23:14:43.946Z</time>
      </trkpt>
      <trkpt lat="58.91604392789304" lon="14.027300952002406">
        <ele>67.26</ele>
        <time>2025-02-14T23:15:34.183Z</time>
      </trkpt>
      <trkpt lat="58.91613093204796" lon="14.027348980307579">
        <ele>67.35</ele>
        <time>2025-02-14T23:16:24.421Z</time>
      </trkpt>
      <trkpt lat="58.916217936202884" lon="14.0273979306221">
        <ele>67.44</ele>
        <time>2025-02-14T23:17:14.661Z</time>
      </trkpt>
      <trkpt lat="58.916303934529424" lon="14.027448976412416">
        <ele>67.53</ele>
        <time>2025-02-14T23:18:04.902Z</time>
      </trkpt>
      <trkpt lat="58.91638892702758" lon="14.027499938383698">
        <ele>67.62</ele>
        <time>2025-02-14T23:18:55.144Z</time>
      </trkpt>
      <trkpt lat="58.91647492535412" lon="14.027551990002394">
        <ele>67.7</ele>
        <time>2025-02-14T23:19:45.388Z</time>
      </trkpt>
      <trkpt lat="58.916561929509044" lon="14.027604963630438">
        <ele>67.79</ele>
        <time>2025-02-14T23:20:35.633Z</time>
      </trkpt>
      <trkpt lat="58.916648933663964" lon="14.027658943086863">
        <ele>67.88</ele>
        <time>2025-02-14T23:21:25.880Z</time>
      </trkpt>
      <trkpt lat="58.916736943647265" lon="14.027712922543287">
        <ele>67.96</ele>
        <time>2025-02-14T23:22:16.128Z</time>
      </trkpt>
      <trkpt lat="58.91682495363057" lon="14.027769919484854">
        <ele>68.05</ele>
        <time>2025-02-14T23:23:06.378Z</time>
      </trkpt>
      <trkpt lat="58.91691396944225" lon="14.02782691642642">
        <ele>68.13</ele>
        <time>2025-02-14T23:23:56.629Z</time>
      </trkpt>
      <trkpt lat="58.91700399108231" lon="14.027885925024748">
        <ele>68.21</ele>
        <time>2025-02-14T23:24:46.882Z</time>
      </trkpt>
      <trkpt lat="58.91709191724658" lon="14.027945939451456">
        <ele>68.29</ele>
        <time>2025-02-14T23:25:37.136Z</time>
      </trkpt>
      <trkpt lat="58.91717992722988" lon="14.028006959706545">
        <ele>68.37</ele>
        <time>2025-02-14T23:26:27.392Z</time>
      </trkpt>
      <trkpt lat="58.9172669313848" lon="14.028067979961634">
        <ele>68.45</ele>
        <time>2025-02-14T23:27:17.649Z</time>
      </trkpt>
      <trkpt lat="58.91735393553972" lon="14.028129922226071">
        <ele>68.52</ele>
        <time>2025-02-14T23:28:07.908Z</time>
      </trkpt>
      <trkpt lat="58.91743993386626" lon="14.028194965794683">
        <ele>68.6</ele>
        <time>2025-02-14T23:28:58.168Z</time>
      </trkpt>
      <trkpt lat="58.91752693802118" lon="14.028259925544262">
        <ele>68.67</ele>
        <time>2025-02-14T23:29:48.430Z</time>
      </trkpt>
      <trkpt lat="58.91761293634772" lon="14.028323963284492">
        <ele>68.74</ele>
        <time>2025-02-14T23:30:38.693Z</time>
      </trkpt>
      <trkpt lat="58.917699940502644" lon="14.028388923034072">
        <ele>68.81</ele>
        <time>2025-02-14T23:31:28.958Z</time>
      </trkpt>
      <trkpt lat="58.9177849330008" lon="14.028452960774302">
        <ele>68.88</ele>
        <time>2025-02-14T23:32:19.224Z</time>
      </trkpt>
      <trkpt lat="58.91786891967058" lon="14.028516998514533">
        <ele>68.95</ele>
        <time>2025-02-14T23:33:09.492Z</time>
      </trkpt>
      <trkpt lat="58.91795198433101" lon="14.028581958264112">
        <ele>69.01</ele>
        <time>2025-02-14T23:33:59.761Z</time>
      </trkpt>
      <trkpt lat="58.91803395934403" lon="14.028647923842072">
        <ele>69.08</ele>
        <time>2025-02-14T23:34:50.031Z</time>
      </trkpt>
      <trkpt lat="58.91811794601381" lon="14.028711961582303">
        <ele>69.14</ele>
        <time>2025-02-14T23:35:40.303Z</time>
      </trkpt>
      <trkpt lat="58.91820193268359" lon="14.028776921331882">
        <ele>69.21</ele>
        <time>2025-02-14T23:36:30.576Z</time>
      </trkpt>
      <trkpt lat="58.91828692518175" lon="14.028840959072113">
        <ele>69.26</ele>
        <time>2025-02-14T23:37:20.851Z</time>
      </trkpt>
      <trkpt lat="58.918371917679906" lon="14.028904996812344">
        <ele>69.32</ele>
        <time>2025-02-14T23:38:11.127Z</time>
      </trkpt>
      <trkpt lat="58.9184569939971" lon="14.028969956561923">
        <ele>69.38</ele>
        <time>2025-02-14T23:39:01.405Z</time>
      </trkpt>
      <trkpt lat="58.91854399815202" lon="14.029036927968264">
        <ele>69.44</ele>
        <time>2025-02-14T23:39:51.684Z</time>
      </trkpt>
      <trkpt lat="58.91863192431629" lon="14.029104989022017">
        <ele>69.5</ele>
        <time>2025-02-14T23:40:41.965Z</time>
      </trkpt>
      <trkpt lat="58.91871993429959" lon="14.029172966256738">
        <ele>69.55</ele>
        <time>2025-02-14T23:41:32.247Z</time>
      </trkpt>
      <trkpt lat="58.91880895011127" lon="14.029237926006317">
        <ele>69.61</ele>
        <time>2025-02-14T23:42:22.531Z</time>
      </trkpt>
      <trkpt lat="58.91889897175133" lon="14.029303975403309">
        <ele>69.66</ele>
        <time>2025-02-14T23:43:12.816Z</time>
      </trkpt>
      <trkpt lat="58.918988993391395" lon="14.02937094680965">
        <ele>69.72</ele>
        <time>2025-02-14T23:44:03.103Z</time>
      </trkpt>
      <trkpt lat="58.919077925384045" lon="14.029436996206641">
        <ele>69.77</ele>
        <time>2025-02-14T23:44:53.391Z</time>
      </trkpt>
      <trkpt lat="58.919164929538965" lon="14.029502961784601">
        <ele>69.82</ele>
        <time>2025-02-14T23:45:43.681Z</time>
      </trkpt>
      <trkpt lat="58.919250927865505" lon="14.029569933190942">
        <ele>69.87</ele>
        <time>2025-02-14T23:46:33.972Z</time>
      </trkpt>
      <trkpt lat="58.919336926192045" lon="14.029636988416314">
        <ele>69.91</ele>
        <time>2025-02-14T23:47:24.265Z</time>
      </trkpt>
      <trkpt lat="58.919422924518585" lon="14.029703959822655">
        <ele>69.95</ele>
        <time>2025-02-14T23:48:14.559Z</time>
      </trkpt>
      <trkpt lat="58.919508922845125" lon="14.029770931228995">
        <ele>69.99</ele>
        <time>2025-02-14T23:49:04.855Z</time>
      </trkpt>
      <trkpt lat="58.919595927000046" lon="14.029838992282748">
        <ele>70.03</ele>
        <time>2025-02-14T23:49:55.152Z</time>
      </trkpt>
      <trkpt lat="58.919682931154966" lon="14.02990797534585">
        <ele>70.07</ele>
        <time>2025-02-14T23:50:45.451Z</time>
      </trkpt>
      <trkpt lat="58.91976993530989" lon="14.02997394092381">
        <ele>70.11</ele>
        <time>2025-02-14T23:51:35.751Z</time>
      </trkpt>
      <trkpt lat="58.91985693946481" lon="14.030038984492421">
        <ele>70.14</ele>
        <time>2025-02-14T23:52:26.053Z</time>
      </trkpt>
      <trkpt lat="58.91994394361973" lon="14.030104950070381">
        <ele>70.19</ele>
        <time>2025-02-14T23:53:16.356Z</time>
      </trkpt>
      <trkpt lat="58.92002994194627" lon="14.030171921476722">
        <ele>70.23</ele>
        <time>2025-02-14T23:54:06.661Z</time>
      </trkpt>
      <trkpt lat="58.92011594027281" lon="14.030238976702094">
        <ele>70.26</ele>
        <time>2025-02-14T23:54:56.967Z</time>
      </trkpt>
      <trkpt lat="58.92020294442773" lon="14.030305948108435">
        <ele>70.3</ele>
        <time>2025-02-14T23:55:47.275Z</time>
      </trkpt>
      <trkpt lat="58.92029095441103" lon="14.030372919514775">
        <ele>70.34</ele>
        <time>2025-02-14T23:56:37.584Z</time>
      </trkpt>
      <trkpt lat="58.92037795856595" lon="14.030438968911767">
        <ele>70.37</ele>
        <time>2025-02-14T23:57:27.895Z</time>
      </trkpt>
      <trkpt lat="58.92046395689249" lon="14.030502922832966">
        <ele>70.41</ele>
        <time>2025-02-14T23:58:18.207Z</time>
      </trkpt>
      <trkpt lat="58.92054995521903" lon="14.030566960573196">
        <ele>70.45</ele>
        <time>2025-02-14T23:59:08.521Z</time>
      </trkpt>
      <trkpt lat="58.92063695937395" lon="14.030631920322776">
        <ele>70.48</ele>
        <time>2025-02-14T23:59:58.836Z</time>
      </trkpt>
      <trkpt lat="58.92072094604373" lon="14.030694952234626">
        <ele>70.52</ele>
        <time>2025-02-15T00:00:49.153Z</time>
      </trkpt>
      <trkpt lat="58.92080493271351" lon="14.030758989974856">
        <ele>70.55</ele>
        <time>2025-02-15T00:01:39.471Z</time>
      </trkpt>
      <trkpt lat="58.92088799737394" lon="14.030821938067675">
        <ele>70.58</ele>
        <time>2025-02-15T00:02:29.791Z</time>
      </trkpt>
      <trkpt lat="58.92097198404372" lon="14.030885975807905">
        <ele>70.6</ele>
        <time>2025-02-15T00:03:20.112Z</time>
      </trkpt>
      <trkpt lat="58.921054964885116" lon="14.030950935557485">
        <ele>70.63</ele>
        <time>2025-02-15T00:04:10.435Z</time>
      </trkpt>
      <trkpt lat="58.921139957383275" lon="14.031014973297715">
        <ele>70.65</ele>
        <time>2025-02-15T00:05:00.759Z</time>
      </trkpt>
      <trkpt lat="58.921225955709815" lon="14.031078927218914">
        <ele>70.67</ele>
        <time>2025-02-15T00:05:51.084Z</time>
      </trkpt>
      <trkpt lat="58.921311954036355" lon="14.031144976615906">
        <ele>70.69</ele>
        <time>2025-02-15T00:06:41.411Z</time>
      </trkpt>
      <trkpt lat="58.921398958191276" lon="14.031210942193866">
        <ele>70.71</ele>
        <time>2025-02-15T00:07:31.739Z</time>
      </trkpt>
      <trkpt lat="58.921484956517816" lon="14.031277997419238">
        <ele>70.72</ele>
        <time>2025-02-15T00:08:22.069Z</time>
      </trkpt>
      <trkpt lat="58.921570954844356" lon="14.031343962997198">
        <ele>70.73</ele>
        <time>2025-02-15T00:09:12.400Z</time>
      </trkpt>
      <trkpt lat="58.921657958999276" lon="14.031409928575158">
        <ele>70.75</ele>
        <time>2025-02-15T00:10:02.733Z</time>
      </trkpt>
      <trkpt lat="58.9217449631542" lon="14.03147597797215">
        <ele>70.76</ele>
        <time>2025-02-15T00:10:53.067Z</time>
      </trkpt>
      <trkpt lat="58.92183096148074" lon="14.03154194355011">
        <ele>70.76</ele>
        <time>2025-02-15T00:11:43.403Z</time>
      </trkpt>
      <trkpt lat="58.92191695980728" lon="14.03160497546196">
        <ele>70.77</ele>
        <time>2025-02-15T00:12:33.740Z</time>
      </trkpt>
      <trkpt lat="58.92200496979058" lon="14.031667923554778">
        <ele>70.77</ele>
        <time>2025-02-15T00:13:24.079Z</time>
      </trkpt>
      <trkpt lat="58.92209096811712" lon="14.031730955466628">
        <ele>70.77</ele>
        <time>2025-02-15T00:14:14.419Z</time>
      </trkpt>
      <trkpt lat="58.92217797227204" lon="14.031793987378478">
        <ele>70.78</ele>
        <time>2025-02-15T00:15:04.761Z</time>
      </trkpt>
      <trkpt lat="58.92226598225534" lon="14.031855929642916">
        <ele>70.77</ele>
        <time>2025-02-15T00:15:55.104Z</time>
      </trkpt>
      <trkpt lat="58.92235298641026" lon="14.031915944069624">
        <ele>70.77</ele>
        <time>2025-02-15T00:16:45.449Z</time>
      </trkpt>
      <trkpt lat="58.92244191840291" lon="14.03197193518281">
        <ele>70.77</ele>
        <time>2025-02-15T00:17:35.795Z</time>
      </trkpt>
      <trkpt lat="58.92253194004297" lon="14.032024992629886">
        <ele>70.76</ele>
        <time>2025-02-15T00:18:26.143Z</time>
      </trkpt>
      <trkpt lat="58.922622967511415" lon="14.032072937116027">
        <ele>70.76</ele>
        <time>2025-02-15T00:19:16.492Z</time>
      </trkpt>
      <trkpt lat="58.92271399497986" lon="14.032117947936058">
        <ele>70.75</ele>
        <time>2025-02-15T00:20:06.843Z</time>
      </trkpt>
      <trkpt lat="58.92280695028603" lon="14.032159941270947">
        <ele>70.73</ele>
        <time>2025-02-15T00:20:57.195Z</time>
      </trkpt>
      <trkpt lat="58.922900995239615" lon="14.032197995111346">
        <ele>70.72</ele>
        <time>2025-02-15T00:21:47.549Z</time>
      </trkpt>
      <trkpt lat="58.92299395054579" lon="14.032231941819191">
        <ele>70.7</ele>
        <time>2025-02-15T00:22:37.904Z</time>
      </trkpt>
      <trkpt lat="58.92308799549937" lon="14.032262954860926">
        <ele>70.68</ele>
        <time>2025-02-15T00:23:28.261Z</time>
      </trkpt>
      <trkpt lat="58.923180950805545" lon="14.032289944589138">
        <ele>70.66</ele>
        <time>2025-02-15T00:24:18.620Z</time>
      </trkpt>
      <trkpt lat="58.92327398993075" lon="14.03231592848897">
        <ele>70.64</ele>
        <time>2025-02-15T00:25:08.980Z</time>
      </trkpt>
      <trkpt lat="58.92336694523692" lon="14.032337972894311">
        <ele>70.61</ele>
        <time>2025-02-15T00:25:59.342Z</time>
      </trkpt>
      <trkpt lat="58.923460990190506" lon="14.03235792182386">
        <ele>70.59</ele>
        <time>2025-02-15T00:26:49.705Z</time>
      </trkpt>
      <trkpt lat="58.92355696298182" lon="14.032375942915678">
        <ele>70.58</ele>
        <time>2025-02-15T00:27:40.070Z</time>
      </trkpt>
      <trkpt lat="58.923652935773134" lon="14.032392958179116">
        <ele>70.56</ele>
        <time>2025-02-15T00:28:30.436Z</time>
      </trkpt>
      <trkpt lat="58.92374899238348" lon="14.032408967614174">
        <ele>70.54</ele>
        <time>2025-02-15T00:29:20.804Z</time>
      </trkpt>
      <trkpt lat="58.923844965174794" lon="14.032424977049232">
        <ele>70.53</ele>
        <time>2025-02-15T00:30:11.173Z</time>
      </trkpt>
      <trkpt lat="58.92394093796611" lon="14.03244098648429">
        <ele>70.5</ele>
        <time>2025-02-15T00:31:01.544Z</time>
      </trkpt>
      <trkpt lat="58.9240379165858" lon="14.032455990090966">
        <ele>70.48</ele>
        <time>2025-02-15T00:31:51.916Z</time>
      </trkpt>
      <trkpt lat="58.92413497902453" lon="14.032470993697643">
        <ele>70.45</ele>
        <time>2025-02-15T00:32:42.290Z</time>
      </trkpt>
      <trkpt lat="58.924230951815844" lon="14.03248499147594">
        <ele>70.43</ele>
        <time>2025-02-15T00:33:32.665Z</time>
      </trkpt>
      <trkpt lat="58.92432793043554" lon="14.032497983425856">
        <ele>70.4</ele>
        <time>2025-02-15T00:34:23.042Z</time>
      </trkpt>
      <trkpt lat="58.924423987045884" lon="14.032512987032533">
        <ele>70.37</ele>
        <time>2025-02-15T00:35:13.421Z</time>
      </trkpt>
      <trkpt lat="58.9245199598372" lon="14.03252698481083">
        <ele>70.34</ele>
        <time>2025-02-15T00:36:03.801Z</time>
      </trkpt>
      <trkpt lat="58.92461693845689" lon="14.032541988417506">
        <ele>70.31</ele>
        <time>2025-02-15T00:36:54.183Z</time>
      </trkpt>
      <trkpt lat="58.92471198923886" lon="14.032554980367422">
        <ele>70.28</ele>
        <time>2025-02-15T00:37:44.566Z</time>
      </trkpt>
      <trkpt lat="58.92480796203017" lon="14.032568978145719">
        <ele>70.25</ele>
        <time>2025-02-15T00:38:34.951Z</time>
      </trkpt>
      <trkpt lat="58.924902928993106" lon="14.032583981752396">
        <ele>70.22</ele>
        <time>2025-02-15T00:39:25.337Z</time>
      </trkpt>
      <trkpt lat="58.92499797977507" lon="14.032598985359073">
        <ele>70.2</ele>
        <time>2025-02-15T00:40:15.725Z</time>
      </trkpt>
      <trkpt lat="58.925093952566385" lon="14.03261499479413">
        <ele>70.18</ele>
        <time>2025-02-15T00:41:06.114Z</time>
      </trkpt>
      <trkpt lat="58.92518799751997" lon="14.032630920410156">
        <ele>70.15</ele>
        <time>2025-02-15T00:41:56.505Z</time>
      </trkpt>
      <trkpt lat="58.92528195865452" lon="14.032646929845214">
        <ele>70.13</ele>
        <time>2025-02-15T00:42:46.897Z</time>
      </trkpt>
      <trkpt lat="58.925373991951346" lon="14.032663945108652">
        <ele>70.1</ele>
        <time>2025-02-15T00:43:37.291Z</time>
      </trkpt>
      <trkpt lat="58.92546493560076" lon="14.032677942886949">
        <ele>70.07</ele>
        <time>2025-02-15T00:44:27.686Z</time>
      </trkpt>
      <trkpt lat="58.9255559630692" lon="14.032692946493626">
        <ele>70.04</ele>
        <time>2025-02-15T00:45:18.083Z</time>
      </trkpt>
      <trkpt lat="58.92564699053764" lon="14.032705938443542">
        <ele>70.01</ele>
        <time>2025-02-15T00:46:08.481Z</time>
      </trkpt>
      <trkpt lat="58.925736928358674" lon="14.032719936221838">
        <ele>69.98</ele>
        <time>2025-02-15T00:46:58.881Z</time>
      </trkpt>
      <trkpt lat="58.925826949998736" lon="14.032732928171754">
        <ele>69.95</ele>
        <time>2025-02-15T00:47:49.282Z</time>
      </trkpt>
      <trkpt lat="58.92591898329556" lon="14.03274692595005">
        <ele>69.92</ele>
        <time>2025-02-15T00:48:39.685Z</time>
      </trkpt>
      <trkpt lat="58.92601193860173" lon="14.032763941213489">
        <ele>69.9</ele>
        <time>2025-02-15T00:49:30.089Z</time>
      </trkpt>
      <trkpt lat="58.926103971898556" lon="14.032780956476927">
        <ele>69.87</ele>
        <time>2025-02-15T00:50:20.495Z</time>
      </trkpt>
      <trkpt lat="58.92619793303311" lon="14.032795960083604">
        <ele>69.84</ele>
        <time>2025-02-15T00:51:10.902Z</time>
      </trkpt>
      <trkpt lat="58.926292983815074" lon="14.032810963690281">
        <ele>69.81</ele>
        <time>2025-02-15T00:52:01.311Z</time>
      </trkpt>
      <trkpt lat="58.92638795077801" lon="14.032825967296958">
        <ele>69.78</ele>
        <time>2025-02-15T00:52:51.721Z</time>
      </trkpt>
      <trkpt lat="58.92648291774094" lon="14.032842982560396">
        <ele>69.76</ele>
        <time>2025-02-15T00:53:42.133Z</time>
      </trkpt>
      <trkpt lat="58.926576962694526" lon="14.032860919833183">
        <ele>69.73</ele>
        <time>2025-02-15T00:54:32.546Z</time>
      </trkpt>
      <trkpt lat="58.9266699180007" lon="14.03287592343986">
        <ele>69.71</ele>
        <time>2025-02-15T00:55:22.961Z</time>
      </trkpt>
      <trkpt lat="58.9267629571259" lon="14.032889921218157">
        <ele>69.69</ele>
        <time>2025-02-15T00:56:13.377Z</time>
      </trkpt>
      <trkpt lat="58.926854990422726" lon="14.032904924824834">
        <ele>69.67</ele>
        <time>2025-02-15T00:57:03.795Z</time>
      </trkpt>
      <trkpt lat="58.92694693990052" lon="14.032919928431511">
        <ele>69.64</ele>
        <time>2025-02-15T00:57:54.214Z</time>
      </trkpt>
      <trkpt lat="58.92703997902572" lon="14.032933926209807">
        <ele>69.62</ele>
        <time>2025-02-15T00:58:44.635Z</time>
      </trkpt>
      <trkpt lat="58.927133940160275" lon="14.032951947301626">
        <ele>69.6</ele>
        <time>2025-02-15T00:59:35.057Z</time>
      </trkpt>
      <trkpt lat="58.92722899094224" lon="14.032969968393445">
        <ele>69.58</ele>
        <time>2025-02-15T01:00:25.481Z</time>
      </trkpt>
      <trkpt lat="58.927324963733554" lon="14.032989917322993">
        <ele>69.56</ele>
        <time>2025-02-15T01:01:15.906Z</time>
      </trkpt>
      <trkpt lat="58.92742294818163" lon="14.033010955899954">
        <ele>69.55</ele>
        <time>2025-02-15T01:02:06.333Z</time>
      </trkpt>
      <trkpt lat="58.927521938458085" lon="14.033033922314644">
        <ele>69.53</ele>
        <time>2025-02-15T01:02:56.761Z</time>
      </trkpt>
      <trkpt lat="58.92762193456292" lon="14.033056972548366">
        <ele>69.52</ele>
        <time>2025-02-15T01:03:47.191Z</time>
      </trkpt>
      <trkpt lat="58.92772193066776" lon="14.033079938963056">
        <ele>69.5</ele>
        <time>2025-02-15T01:04:37.623Z</time>
      </trkpt>
      <trkpt lat="58.927820920944214" lon="14.033101983368397">
        <ele>69.48</ele>
        <time>2025-02-15T01:05:28.056Z</time>
      </trkpt>
      <trkpt lat="58.92792192287743" lon="14.033124949783087">
        <ele>69.47</ele>
        <time>2025-02-15T01:06:18.491Z</time>
      </trkpt>
      <trkpt lat="58.92802292481065" lon="14.0331519395113">
        <ele>69.46</ele>
        <time>2025-02-15T01:07:08.928Z</time>
      </trkpt>
      <trkpt lat="58.928123926743865" lon="14.033177923411131">
        <ele>69.45</ele>
        <time>2025-02-15T01:07:59.366Z</time>
      </trkpt>
      <trkpt lat="58.92822593450546" lon="14.033203991129994">
        <ele>69.45</ele>
        <time>2025-02-15T01:08:49.806Z</time>
      </trkpt>
      <trkpt lat="58.92832693643868" lon="14.033228969201446">
        <ele>69.45</ele>
        <time>2025-02-15T01:09:40.247Z</time>
      </trkpt>
      <trkpt lat="58.92842894420028" lon="14.0332589764148">
        <ele>69.45</ele>
        <time>2025-02-15T01:10:30.690Z</time>
      </trkpt>
      <trkpt lat="58.928528940305114" lon="14.033288983628154">
        <ele>69.45</ele>
        <time>2025-02-15T01:11:21.135Z</time>
      </trkpt>
      <trkpt lat="58.92862994223833" lon="14.033318990841508">
        <ele>69.45</ele>
        <time>2025-02-15T01:12:11.581Z</time>
      </trkpt>
      <trkpt lat="58.92872993834317" lon="14.033348998054862">
        <ele>69.45</ele>
        <time>2025-02-15T01:13:02.029Z</time>
      </trkpt>
      <trkpt lat="58.928829934448004" lon="14.033378921449184">
        <ele>69.45</ele>
        <time>2025-02-15T01:13:52.479Z</time>
      </trkpt>
      <trkpt lat="58.92892791889608" lon="14.033408928662539">
        <ele>69.45</ele>
        <time>2025-02-15T01:14:42.930Z</time>
      </trkpt>
      <trkpt lat="58.929025987163186" lon="14.033440947532654">
        <ele>69.45</ele>
        <time>2025-02-15T01:15:33.383Z</time>
      </trkpt>
      <trkpt lat="58.92912296578288" lon="14.03347397223115">
        <ele>69.45</ele>
        <time>2025-02-15T01:16:23.837Z</time>
      </trkpt>
      <trkpt lat="58.929219944402575" lon="14.033507918938994">
        <ele>69.45</ele>
        <time>2025-02-15T01:17:14.293Z</time>
      </trkpt>
      <trkpt lat="58.92931692302227" lon="14.03354094363749">
        <ele>69.45</ele>
        <time>2025-02-15T01:18:04.751Z</time>
      </trkpt>
      <trkpt lat="58.92941499128938" lon="14.033573968335986">
        <ele>69.45</ele>
        <time>2025-02-15T01:18:55.210Z</time>
      </trkpt>
      <trkpt lat="58.92951398156583" lon="14.033607998862863">
        <ele>69.45</ele>
        <time>2025-02-15T01:19:45.671Z</time>
      </trkpt>
      <trkpt lat="58.92961196601391" lon="14.033643957227468">
        <ele>69.46</ele>
        <time>2025-02-15T01:20:36.133Z</time>
      </trkpt>
      <trkpt lat="58.929709950461984" lon="14.033680921420455">
        <ele>69.46</ele>
        <time>2025-02-15T01:21:26.597Z</time>
      </trkpt>
      <trkpt lat="58.92980793491006" lon="14.033719981089234">
        <ele>69.46</ele>
        <time>2025-02-15T01:22:17.063Z</time>
      </trkpt>
      <trkpt lat="58.929905919358134" lon="14.033758956938982">
        <ele>69.47</ele>
        <time>2025-02-15T01:23:07.530Z</time>
      </trkpt>
      <trkpt lat="58.93000298179686" lon="14.033800950273871">
        <ele>69.49</ele>
        <time>2025-02-15T01:23:57.999Z</time>
      </trkpt>
      <trkpt lat="58.930097948759794" lon="14.033843949437141">
        <ele>69.5</ele>
        <time>2025-02-15T01:24:48.469Z</time>
      </trkpt>
      <trkpt lat="58.93019299954176" lon="14.033887954428792">
        <ele>69.51</ele>
        <time>2025-02-15T01:25:38.941Z</time>
      </trkpt>
      <trkpt lat="58.930289978161454" lon="14.0339289419353">
        <ele>69.53</ele>
        <time>2025-02-15T01:26:29.414Z</time>
      </trkpt>
      <trkpt lat="58.93038595095277" lon="14.033967917785048">
        <ele>69.54</ele>
        <time>2025-02-15T01:27:19.889Z</time>
      </trkpt>
      <trkpt lat="58.9304809179157" lon="14.034010916948318">
        <ele>69.56</ele>
        <time>2025-02-15T01:28:10.366Z</time>
      </trkpt>
      <trkpt lat="58.93057697452605" lon="14.034054921939969">
        <ele>69.57</ele>
        <time>2025-02-15T01:29:00.844Z</time>
      </trkpt>
      <trkpt lat="58.9306709356606" lon="14.03409993276">
        <ele>69.58</ele>
        <time>2025-02-15T01:29:51.324Z</time>
      </trkpt>
      <trkpt lat="58.930765986442566" lon="14.034144943580031">
        <ele>69.6</ele>
        <time>2025-02-15T01:30:41.805Z</time>
      </trkpt>
      <trkpt lat="58.93086195923388" lon="14.034188948571682">
        <ele>69.62</ele>
        <time>2025-02-15T01:31:32.288Z</time>
      </trkpt>
      <trkpt lat="58.930956926196814" lon="14.034233959391713">
        <ele>69.64</ele>
        <time>2025-02-15T01:32:22.772Z</time>
      </trkpt>
      <trkpt lat="58.93105298280716" lon="14.034279976040125">
        <ele>69.67</ele>
        <time>2025-02-15T01:33:13.258Z</time>
      </trkpt>
      <trkpt lat="58.931149961426854" lon="14.034328926354647">
        <ele>69.7</ele>
        <time>2025-02-15T01:34:03.746Z</time>
      </trkpt>
      <trkpt lat="58.93124492838979" lon="14.034379972144961">
        <ele>69.74</ele>
        <time>2025-02-15T01:34:54.235Z</time>
      </trkpt>
      <trkpt lat="58.93133997917175" lon="14.034430934116244">
        <ele>69.78</ele>
        <time>2025-02-15T01:35:44.726Z</time>
      </trkpt>
      <trkpt lat="58.931433940306306" lon="14.034481979906559">
        <ele>69.81</ele>
        <time>2025-02-15T01:36:35.218Z</time>
      </trkpt>
      <trkpt lat="58.93152697943151" lon="14.034531936049461">
        <ele>69.85</ele>
        <time>2025-02-15T01:37:25.712Z</time>
      </trkpt>
      <trkpt lat="58.93161792308092" lon="14.034580970183015">
        <ele>69.88</ele>
        <time>2025-02-15T01:38:16.207Z</time>
      </trkpt>
      <trkpt lat="58.93170593306422" lon="14.034630926325917">
        <ele>69.92</ele>
        <time>2025-02-15T01:39:06.704Z</time>
      </trkpt>
      <trkpt lat="58.931794948875904" lon="14.034681972116232">
        <ele>69.95</ele>
        <time>2025-02-15T01:39:57.202Z</time>
      </trkpt>
      <trkpt lat="58.931883964687586" lon="14.034734945744276">
        <ele>69.98</ele>
        <time>2025-02-15T01:40:47.702Z</time>
      </trkpt>
      <trkpt lat="58.93197398632765" lon="14.03478599153459">
        <ele>70.01</ele>
        <time>2025-02-15T01:41:38.203Z</time>
      </trkpt>
      <trkpt lat="58.9320629183203" lon="14.034839970991015">
        <ele>70.05</ele>
        <time>2025-02-15T01:42:28.706Z</time>
      </trkpt>
      <trkpt lat="58.93215193413198" lon="14.03489495627582">
        <ele>70.08</ele>
        <time>2025-02-15T01:43:19.210Z</time>
      </trkpt>
      <trkpt lat="58.93224094994366" lon="14.034950947389007">
        <ele>70.11</ele>
        <time>2025-02-15T01:44:09.716Z</time>
      </trkpt>
      <trkpt lat="58.93232795409858" lon="14.035007944330573">
        <ele>70.15</ele>
        <time>2025-02-15T01:45:00.223Z</time>
      </trkpt>
      <trkpt lat="58.93241596408188" lon="14.0350669529289">
        <ele>70.18</ele>
        <time>2025-02-15T01:45:50.732Z</time>
      </trkpt>
      <trkpt lat="58.932503974065185" lon="14.035125961527228">
        <ele>70.21</ele>
        <time>2025-02-15T01:46:41.242Z</time>
      </trkpt>
      <trkpt lat="58.932591984048486" lon="14.035184970125556">
        <ele>70.24</ele>
        <time>2025-02-15T01:47:31.754Z</time>
      </trkpt>
      <trkpt lat="58.932681921869516" lon="14.035243978723884">
        <ele>70.27</ele>
        <time>2025-02-15T01:48:22.267Z</time>
      </trkpt>
      <trkpt lat="58.93276993185282" lon="14.03530097566545">
        <ele>70.3</ele>
        <time>2025-02-15T01:49:12.782Z</time>
      </trkpt>
      <trkpt lat="58.93285593017936" lon="14.035359984263778">
        <ele>70.33</ele>
        <time>2025-02-15T01:50:03.298Z</time>
      </trkpt>
      <trkpt lat="58.9329419285059" lon="14.035418992862105">
        <ele>70.37</ele>
        <time>2025-02-15T01:50:53.816Z</time>
      </trkpt>
      <trkpt lat="58.93302692100406" lon="14.035478923469782">
        <ele>70.41</ele>
        <time>2025-02-15T01:51:44.335Z</time>
      </trkpt>
      <trkpt lat="58.93310998566449" lon="14.03553893789649">
        <ele>70.44</ele>
        <time>2025-02-15T01:52:34.856Z</time>
      </trkpt>
      <trkpt lat="58.933192966505885" lon="14.035598952323198">
        <ele>70.48</ele>
        <time>2025-02-15T01:53:25.378Z</time>
      </trkpt>
      <trkpt lat="58.93327594734728" lon="14.035659972578287">
        <ele>70.52</ele>
        <time>2025-02-15T01:54:15.902Z</time>
      </trkpt>
      <trkpt lat="58.9333579223603" lon="14.035720992833376">
        <ele>70.55</ele>
        <time>2025-02-15T01:55:06.427Z</time>
      </trkpt>
      <trkpt lat="58.93344098702073" lon="14.035780923441052">
        <ele>70.59</ele>
        <time>2025-02-15T01:55:56.953Z</time>
      </trkpt>
      <trkpt lat="58.93352497369051" lon="14.035841943696141">
        <ele>70.62</ele>
        <time>2025-02-15T01:56:47.481Z</time>
      </trkpt>
      <trkpt lat="58.93360795453191" lon="14.03590396977961">
        <ele>70.66</ele>
        <time>2025-02-15T01:57:38.010Z</time>
      </trkpt>
      <trkpt lat="58.933690935373306" lon="14.035966917872429">
        <ele>70.7</ele>
        <time>2025-02-15T01:58:28.541Z</time>
      </trkpt>
      <trkpt lat="58.933772994205356" lon="14.03603196144104">
        <ele>70.74</ele>
        <time>2025-02-15T01:59:19.073Z</time>
      </trkpt>
      <trkpt lat="58.933855975046754" lon="14.03609692119062">
        <ele>70.78</ele>
        <time>2025-02-15T02:00:09.607Z</time>
      </trkpt>
      <trkpt lat="58.93393795005977" lon="14.03616196475923">
        <ele>70.82</ele>
        <time>2025-02-15T02:01:00.142Z</time>
      </trkpt>
      <trkpt lat="58.93402093090117" lon="14.03622692450881">
        <ele>70.87</ele>
        <time>2025-02-15T02:01:50.678Z</time>
      </trkpt>
      <trkpt lat="58.9341039955616" lon="14.036291968077421">
        <ele>70.91</ele>
        <time>2025-02-15T02:02:41.216Z</time>
      </trkpt>
      <trkpt lat="58.934186976403" lon="14.036357933655381">
        <ele>70.96</ele>
        <time>2025-02-15T02:03:31.755Z</time>
      </trkpt>
      <trkpt lat="58.934268951416016" lon="14.036425994709134">
        <ele>71.01</ele>
        <time>2025-02-15T02:04:22.296Z</time>
      </trkpt>
      <trkpt lat="58.93435092642903" lon="14.036492966115475">
        <ele>71.06</ele>
        <time>2025-02-15T02:05:12.838Z</time>
      </trkpt>
      <trkpt lat="58.93443298526108" lon="14.036560943350196">
        <ele>71.1</ele>
        <time>2025-02-15T02:06:03.382Z</time>
      </trkpt>
      <trkpt lat="58.9345149602741" lon="14.036631938070059">
        <ele>71.15</ele>
        <time>2025-02-15T02:06:53.927Z</time>
      </trkpt>
      <trkpt lat="58.93459693528712" lon="14.036702932789922">
        <ele>71.19</ele>
        <time>2025-02-15T02:07:44.473Z</time>
      </trkpt>
      <trkpt lat="58.93467899411917" lon="14.036774933338165">
        <ele>71.24</ele>
        <time>2025-02-15T02:08:35.021Z</time>
      </trkpt>
      <trkpt lat="58.934759963303804" lon="14.036845928058028">
        <ele>71.28</ele>
        <time>2025-02-15T02:09:25.570Z</time>
      </trkpt>
      <trkpt lat="58.93483992666006" lon="14.036916922777891">
        <ele>71.33</ele>
        <time>2025-02-15T02:10:16.121Z</time>
      </trkpt>
      <trkpt lat="58.93492097966373" lon="14.036988923326135">
        <ele>71.38</ele>
        <time>2025-02-15T02:11:06.673Z</time>
      </trkpt>
      <trkpt lat="58.935000943019986" lon="14.037059918045998">
        <ele>71.43</ele>
        <time>2025-02-15T02:11:57.227Z</time>
      </trkpt>
      <trkpt lat="58.935081996023655" lon="14.037130996584892">
        <ele>71.48</ele>
        <time>2025-02-15T02:12:47.782Z</time>
      </trkpt>
      <trkpt lat="58.93516195937991" lon="14.037202997133136">
        <ele>71.53</ele>
        <time>2025-02-15T02:13:38.338Z</time>
      </trkpt>
      <trkpt lat="58.93524192273617" lon="14.037273991852999">
        <ele>71.58</ele>
        <time>2025-02-15T02:14:28.896Z</time>
      </trkpt>
      <trkpt lat="58.935320964083076" lon="14.037346998229623">
        <ele>71.64</ele>
        <time>2025-02-15T02:15:19.455Z</time>
      </trkpt>
      <trkpt lat="58.93540092743933" lon="14.037419920787215">
        <ele>71.69</ele>
        <time>2025-02-15T02:16:10.016Z</time>
      </trkpt>
      <trkpt lat="58.93547896295786" lon="14.0374949388206">
        <ele>71.75</ele>
        <time>2025-02-15T02:17:00.578Z</time>
      </trkpt>
      <trkpt lat="58.935556998476386" lon="14.037568951025605">
        <ele>71.81</ele>
        <time>2025-02-15T02:17:51.141Z</time>
      </trkpt>
      <trkpt lat="58.9356339443475" lon="14.03764195740223">
        <ele>71.87</ele>
        <time>2025-02-15T02:18:41.706Z</time>
      </trkpt>
      <trkpt lat="58.93571097403765" lon="14.037714963778853">
        <ele>71.93</ele>
        <time>2025-02-15T02:19:32.272Z</time>
      </trkpt>
      <trkpt lat="58.93578791990876" lon="14.037787970155478">
        <ele>71.99</ele>
        <time>2025-02-15T02:20:22.840Z</time>
      </trkpt>
      <trkpt lat="58.93586494959891" lon="14.037862988188863">
        <ele>72.05</ele>
        <time>2025-02-15T02:21:13.409Z</time>
      </trkpt>
      <trkpt lat="58.935941979289055" lon="14.037936916574836">
        <ele>72.12</ele>
        <time>2025-02-15T02:22:03.979Z</time>
      </trkpt>
      <trkpt lat="58.93601892516017" lon="14.03801092877984">
        <ele>72.17</ele>
        <time>2025-02-15T02:22:54.551Z</time>
      </trkpt>
      <trkpt lat="58.936093943193555" lon="14.038083935156465">
        <ele>72.23</ele>
        <time>2025-02-15T02:23:45.124Z</time>
      </trkpt>
      <trkpt lat="58.93616896122694" lon="14.038156941533089">
        <ele>72.28</ele>
        <time>2025-02-15T02:24:35.698Z</time>
      </trkpt>
      <trkpt lat="58.936243979260325" lon="14.038230953738093">
        <ele>72.34</ele>
        <time>2025-02-15T02:25:26.274Z</time>
      </trkpt>
      <trkpt lat="58.93631799146533" lon="14.038305971771479">
        <ele>72.4</ele>
        <time>2025-02-15T02:26:16.851Z</time>
      </trkpt>
      <trkpt lat="58.936389992013574" lon="14.038381995633245">
        <ele>72.45</ele>
        <time>2025-02-15T02:27:07.429Z</time>
      </trkpt>
      <trkpt lat="58.93646098673344" lon="14.038455924019217">
        <ele>72.51</ele>
        <time>2025-02-15T02:27:58.009Z</time>
      </trkpt>
      <trkpt lat="58.93653097562492" lon="14.038527924567461">
        <ele>72.57</ele>
        <time>2025-02-15T02:28:48.590Z</time>
      </trkpt>
      <trkpt lat="58.93660197034478" lon="14.038600930944085">
        <ele>72.64</ele>
        <time>2025-02-15T02:29:39.172Z</time>
      </trkpt>
      <trkpt lat="58.9366699475795" lon="14.03867393732071">
        <ele>72.71</ele>
        <time>2025-02-15T02:30:29.755Z</time>
      </trkpt>
      <trkpt lat="58.936735996976495" lon="14.038744932040572">
        <ele>72.78</ele>
        <time>2025-02-15T02:31:20.340Z</time>
      </trkpt>
      <trkpt lat="58.936801962554455" lon="14.038815926760435">
        <ele>72.85</ele>
        <time>2025-02-15T02:32:10.926Z</time>
      </trkpt>
      <trkpt lat="58.936866922304034" lon="14.038884993642569">
        <ele>72.93</ele>
        <time>2025-02-15T02:33:01.513Z</time>
      </trkpt>
      <trkpt lat="58.936931965872645" lon="14.038955988362432">
        <ele>73.01</ele>
        <time>2025-02-15T02:33:52.101Z</time>
      </trkpt>
      <trkpt lat="58.936995919793844" lon="14.039024971425533">
        <ele>73.09</ele>
        <time>2025-02-15T02:34:42.690Z</time>
      </trkpt>
      <trkpt lat="58.937057945877314" lon="14.039091942831874">
        <ele>73.18</ele>
        <time>2025-02-15T02:35:33.281Z</time>
      </trkpt>
      <trkpt lat="58.9371189661324" lon="14.039156986400485">
        <ele>73.26</ele>
        <time>2025-02-15T02:36:23.873Z</time>
      </trkpt>
      <trkpt lat="58.93718199804425" lon="14.039225969463587">
        <ele>73.35</ele>
        <time>2025-02-15T02:37:14.466Z</time>
      </trkpt>
      <trkpt lat="58.93724092282355" lon="14.039291935041547">
        <ele>73.44</ele>
        <time>2025-02-15T02:38:05.060Z</time>
      </trkpt>
      <trkpt lat="58.93730093725026" lon="14.039356978610158">
        <ele>73.53</ele>
        <time>2025-02-15T02:38:55.655Z</time>
      </trkpt>
      <trkpt lat="58.937358940020204" lon="14.039419926702976">
        <ele>73.62</ele>
        <time>2025-02-15T02:39:46.251Z</time>
      </trkpt>
      <trkpt lat="58.93741794861853" lon="14.039484970271587">
        <ele>73.71</ele>
        <time>2025-02-15T02:40:36.848Z</time>
      </trkpt>
      <trkpt lat="58.93747695721686" lon="14.039550935849547">
        <ele>73.8</ele>
        <time>2025-02-15T02:41:27.446Z</time>
      </trkpt>
      <trkpt lat="58.93753596581519" lon="14.03961698524654">
        <ele>73.89</ele>
        <time>2025-02-15T02:42:18.045Z</time>
      </trkpt>
      <trkpt lat="58.937594974413514" lon="14.039681944996119">
        <ele>73.98</ele>
        <time>2025-02-15T02:43:08.645Z</time>
      </trkpt>
      <trkpt lat="58.93765297718346" lon="14.03974799439311">
        <ele>74.08</ele>
        <time>2025-02-15T02:43:59.247Z</time>
      </trkpt>
      <trkpt lat="58.93771097995341" lon="14.03981496579945">
        <ele>74.17</ele>
        <time>2025-02-15T02:44:49.850Z</time>
      </trkpt>
      <trkpt lat="58.937767976894975" lon="14.03987992554903">
        <ele>74.27</ele>
        <time>2025-02-15T02:45:40.454Z</time>
      </trkpt>
      <trkpt lat="58.93782396800816" lon="14.03994295746088">
        <ele>74.37</ele>
        <time>2025-02-15T02:46:31.059Z</time>
      </trkpt>
      <trkpt lat="58.93787995912135" lon="14.04000498354435">
        <ele>74.47</ele>
        <time>2025-02-15T02:47:21.665Z</time>
      </trkpt>
      <trkpt lat="58.93793695606291" lon="14.040066925808787">
        <ele>74.57</ele>
        <time>2025-02-15T02:48:12.272Z</time>
      </trkpt>
      <trkpt lat="58.93799495883286" lon="14.040128951892257">
        <ele>74.67</ele>
        <time>2025-02-15T02:49:02.880Z</time>
      </trkpt>
      <trkpt lat="58.93805195577443" lon="14.040191983804107">
        <ele>74.77</ele>
        <time>2025-02-15T02:49:53.489Z</time>
      </trkpt>
      <trkpt lat="58.93810794688761" lon="14.040256943553686">
        <ele>74.88</ele>
        <time>2025-02-15T02:50:44.099Z</time>
      </trkpt>
      <trkpt lat="58.93816494382918" lon="14.040320981293917">
        <ele>74.98</ele>
        <time>2025-02-15T02:51:34.710Z</time>
      </trkpt>
      <trkpt lat="58.938221940770745" lon="14.040382923558354">
        <ele>75.09</ele>
        <time>2025-02-15T02:52:25.322Z</time>
      </trkpt>
      <trkpt lat="58.93827793188393" lon="14.040446961298585">
        <ele>75.19</ele>
        <time>2025-02-15T02:53:15.935Z</time>
      </trkpt>
      <trkpt lat="58.93833291716874" lon="14.040511921048164">
        <ele>75.29</ele>
        <time>2025-02-15T02:54:06.549Z</time>
      </trkpt>
      <trkpt lat="58.93839091993868" lon="14.040574952960014">
        <ele>75.39</ele>
        <time>2025-02-15T02:54:57.164Z</time>
      </trkpt>
      <trkpt lat="58.9384469948709" lon="14.040636979043484">
        <ele>75.49</ele>
        <time>2025-02-15T02:55:47.780Z</time>
      </trkpt>
      <trkpt lat="58.93850399181247" lon="14.040700932964683">
        <ele>75.6</ele>
        <time>2025-02-15T02:56:38.397Z</time>
      </trkpt>
      <trkpt lat="58.93856291659176" lon="14.040763964876533">
        <ele>75.71</ele>
        <time>2025-02-15T02:57:29.015Z</time>
      </trkpt>
      <trkpt lat="58.93861999735236" lon="14.040824985131621">
        <ele>75.82</ele>
        <time>2025-02-15T02:58:19.634Z</time>
      </trkpt>
      <trkpt lat="58.93867598846555" lon="14.04088499955833">
        <ele>75.93</ele>
        <time>2025-02-15T02:59:10.255Z</time>
      </trkpt>
      <trkpt lat="58.93873097375035" lon="14.040946941822767">
        <ele>76.04</ele>
        <time>2025-02-15T03:00:00.877Z</time>
      </trkpt>
      <trkpt lat="58.93878595903516" lon="14.041008967906237">
        <ele>76.16</ele>
        <time>2025-02-15T03:00:51.500Z</time>
      </trkpt>
      <trkpt lat="58.938841950148344" lon="14.041071999818087">
        <ele>76.27</ele>
        <time>2025-02-15T03:01:42.124Z</time>
      </trkpt>
      <trkpt lat="58.93890095874667" lon="14.041134947910905">
        <ele>76.39</ele>
        <time>2025-02-15T03:02:32.749Z</time>
      </trkpt>
      <trkpt lat="58.93895795568824" lon="14.041200997307897">
        <ele>76.5</ele>
        <time>2025-02-15T03:03:23.375Z</time>
      </trkpt>
      <trkpt lat="58.939014952629805" lon="14.041264951229095">
        <ele>76.62</ele>
        <time>2025-02-15T03:04:14.002Z</time>
      </trkpt>
      <trkpt lat="58.93907194957137" lon="14.041327983140945">
        <ele>76.74</ele>
        <time>2025-02-15T03:05:04.630Z</time>
      </trkpt>
      <trkpt lat="58.93912894651294" lon="14.041388919577003">
        <ele>76.85</ele>
        <time>2025-02-15T03:05:55.259Z</time>
      </trkpt>
      <trkpt lat="58.939185943454504" lon="14.041450945660472">
        <ele>76.97</ele>
        <time>2025-02-15T03:06:45.889Z</time>
      </trkpt>
      <trkpt lat="58.93924193456769" lon="14.041513977572322">
        <ele>77.09</ele>
        <time>2025-02-15T03:07:36.520Z</time>
      </trkpt>
      <trkpt lat="58.939297925680876" lon="14.04157591983676">
        <ele>77.21</ele>
        <time>2025-02-15T03:08:27.152Z</time>
      </trkpt>
      <trkpt lat="58.93935391679406" lon="14.041637945920229">
        <ele>77.33</ele>
        <time>2025-02-15T03:09:17.785Z</time>
      </trkpt>
      <trkpt lat="58.93941099755466" lon="14.041699972003698">
        <ele>77.45</ele>
        <time>2025-02-15T03:10:08.419Z</time>
      </trkpt>
      <trkpt lat="58.939468916505575" lon="14.041762920096517">
        <ele>77.57</ele>
        <time>2025-02-15T03:10:59.054Z</time>
      </trkpt>
      <trkpt lat="58.93952691927552" lon="14.041826957836747">
        <ele>77.7</ele>
        <time>2025-02-15T03:11:49.690Z</time>
      </trkpt>
      <trkpt lat="58.93958693370223" lon="14.041889989748597">
        <ele>77.82</ele>
        <time>2025-02-15T03:12:40.327Z</time>
      </trkpt>
      <trkpt lat="58.93964493647218" lon="14.041953943669796">
        <ele>77.94</ele>
        <time>2025-02-15T03:13:30.965Z</time>
      </trkpt>
      <trkpt lat="58.939703945070505" lon="14.042019993066788">
        <ele>78.07</ele>
        <time>2025-02-15T03:14:21.604Z</time>
      </trkpt>
      <trkpt lat="58.93976295366883" lon="14.042084952816367">
        <ele>78.19</ele>
        <time>2025-02-15T03:15:12.245Z</time>
      </trkpt>
      <trkpt lat="58.93982296809554" lon="14.042149996384978">
        <ele>78.31</ele>
        <time>2025-02-15T03:16:02.887Z</time>
      </trkpt>
      <trkpt lat="58.93988097086549" lon="14.042213950306177">
        <ele>78.44</ele>
        <time>2025-02-15T03:16:53.530Z</time>
      </trkpt>
      <trkpt lat="58.939938973635435" lon="14.042276982218027">
        <ele>78.56</ele>
        <time>2025-02-15T03:17:44.174Z</time>
      </trkpt>
      <trkpt lat="58.93999697640538" lon="14.042340936139226">
        <ele>78.68</ele>
        <time>2025-02-15T03:18:34.819Z</time>
      </trkpt>
      <trkpt lat="58.94005397334695" lon="14.042405979707837">
        <ele>78.8</ele>
        <time>2025-02-15T03:19:25.465Z</time>
      </trkpt>
      <trkpt lat="58.940112981945276" lon="14.042469933629036">
        <ele>78.92</ele>
        <time>2025-02-15T03:20:16.112Z</time>
      </trkpt>
      <trkpt lat="58.94017098471522" lon="14.042533971369267">
        <ele>79.04</ele>
        <time>2025-02-15T03:21:06.760Z</time>
      </trkpt>
      <trkpt lat="58.94022898748517" lon="14.042598931118846">
        <ele>79.17</ele>
        <time>2025-02-15T03:21:57.409Z</time>
      </trkpt>
      <trkpt lat="58.9402879960835" lon="14.042663974687457">
        <ele>79.29</ele>
        <time>2025-02-15T03:22:48.059Z</time>
      </trkpt>
      <trkpt lat="58.940346920862794" lon="14.042727928608656">
        <ele>79.42</ele>
        <time>2025-02-15T03:23:38.710Z</time>
      </trkpt>
      <trkpt lat="58.9404069352895" lon="14.042795989662409">
        <ele>79.54</ele>
        <time>2025-02-15T03:24:29.362Z</time>
      </trkpt>
      <trkpt lat="58.94046694971621" lon="14.04286296106875">
        <ele>79.66</ele>
        <time>2025-02-15T03:25:20.016Z</time>
      </trkpt>
      <trkpt lat="58.94052696414292" lon="14.04293093830347">
        <ele>79.78</ele>
        <time>2025-02-15T03:26:10.671Z</time>
      </trkpt>
      <trkpt lat="58.94058697856963" lon="14.042996987700462">
        <ele>79.9</ele>
        <time>2025-02-15T03:27:01.327Z</time>
      </trkpt>
      <trkpt lat="58.940646992996335" lon="14.043062953278422">
        <ele>80.02</ele>
        <time>2025-02-15T03:27:51.984Z</time>
      </trkpt>
      <trkpt lat="58.94070692360401" lon="14.043128918856382">
        <ele>80.14</ele>
        <time>2025-02-15T03:28:42.642Z</time>
      </trkpt>
      <trkpt lat="58.94076593220234" lon="14.043193962424994">
        <ele>80.26</ele>
        <time>2025-02-15T03:29:33.301Z</time>
      </trkpt>
      <trkpt lat="58.94082594662905" lon="14.043258922174573">
        <ele>80.38</ele>
        <time>2025-02-15T03:30:23.961Z</time>
      </trkpt>
      <trkpt lat="58.940884955227375" lon="14.043324971571565">
        <ele>80.49</ele>
        <time>2025-02-15T03:31:14.622Z</time>
      </trkpt>
      <trkpt lat="58.9409439638257" lon="14.043389931321144">
        <ele>80.61</ele>
        <time>2025-02-15T03:32:05.284Z</time>
      </trkpt>
      <trkpt lat="58.94100297242403" lon="14.043454974889755">
        <ele>80.73</ele>
        <time>2025-02-15T03:32:55.947Z</time>
      </trkpt>
      <trkpt lat="58.94106298685074" lon="14.043522952124476">
        <ele>80.85</ele>
        <time>2025-02-15T03:33:46.612Z</time>
      </trkpt>
      <trkpt lat="58.941123923286796" lon="14.043590929359198">
        <ele>80.96</ele>
        <time>2025-02-15T03:34:37.278Z</time>
      </trkpt>
      <trkpt lat="58.941183937713504" lon="14.04365697875619">
        <ele>81.08</ele>
        <time>2025-02-15T03:35:27.945Z</time>
      </trkpt>
      <trkpt lat="58.94124395214021" lon="14.043721938505769">
        <ele>81.2</ele>
        <time>2025-02-15T03:36:18.613Z</time>
      </trkpt>
      <trkpt lat="58.94130396656692" lon="14.04378698207438">
        <ele>81.31</ele>
        <time>2025-02-15T03:37:09.282Z</time>
      </trkpt>
      <trkpt lat="58.94136297516525" lon="14.04385294765234">
        <ele>81.43</ele>
        <time>2025-02-15T03:37:59.952Z</time>
      </trkpt>
      <trkpt lat="58.941421983763576" lon="14.043918997049332">
        <ele>81.54</ele>
        <time>2025-02-15T03:38:50.623Z</time>
      </trkpt>
      <trkpt lat="58.9414809923619" lon="14.043984962627292">
        <ele>81.66</ele>
        <time>2025-02-15T03:39:41.295Z</time>
      </trkpt>
      <trkpt lat="58.94154092296958" lon="14.044051934033632">
        <ele>81.77</ele>
        <time>2025-02-15T03:40:31.968Z</time>
      </trkpt>
      <trkpt lat="58.94160294905305" lon="14.044121922925115">
        <ele>81.88</ele>
        <time>2025-02-15T03:41:22.643Z</time>
      </trkpt>
      <trkpt lat="58.94166396930814" lon="14.044189983978868">
        <ele>81.99</ele>
        <time>2025-02-15T03:42:13.319Z</time>
      </trkpt>
      <trkpt lat="58.94172498956323" lon="14.04425896704197">
        <ele>82.1</ele>
        <time>2025-02-15T03:43:03.996Z</time>
      </trkpt>
      <trkpt lat="58.941785925999284" lon="14.044328955933452">
        <ele>82.21</ele>
        <time>2025-02-15T03:43:54.674Z</time>
      </trkpt>
      <trkpt lat="58.941848957911134" lon="14.044397938996553">
        <ele>82.31</ele>
        <time>2025-02-15T03:44:45.353Z</time>
      </trkpt>
      <trkpt lat="58.941911989822984" lon="14.044466922059655">
        <ele>82.42</ele>
        <time>2025-02-15T03:45:36.033Z</time>
      </trkpt>
      <trkpt lat="58.9419749379158" lon="14.044535988941789">
        <ele>82.52</ele>
        <time>2025-02-15T03:46:26.714Z</time>
      </trkpt>
      <trkpt lat="58.942040987312794" lon="14.044609917327762">
        <ele>82.62</ele>
        <time>2025-02-15T03:47:17.397Z</time>
      </trkpt>
      <trkpt lat="58.94210594706237" lon="14.044681917876005">
        <ele>82.72</ele>
        <time>2025-02-15T03:48:08.081Z</time>
      </trkpt>
      <trkpt lat="58.942169984802604" lon="14.04475492425263">
        <ele>82.82</ele>
        <time>2025-02-15T03:48:58.766Z</time>
      </trkpt>
      <trkpt lat="58.942235950380564" lon="14.044827930629253">
        <ele>82.91</ele>
        <time>2025-02-15T03:49:49.452Z</time>
      </trkpt>
      <trkpt lat="58.942303927615285" lon="14.044902948662639">
        <ele>83.0</ele>
        <time>2025-02-15T03:50:40.140Z</time>
      </trkpt>
      <trkpt lat="58.94237098284066" lon="14.044978972524405">
        <ele>83.09</ele>
        <time>2025-02-15T03:51:30.829Z</time>
      </trkpt>
      <trkpt lat="58.94243896007538" lon="14.04505499638617">
        <ele>83.19</ele>
        <time>2025-02-15T03:52:21.519Z</time>
      </trkpt>
      <trkpt lat="58.9425069373101" lon="14.045129930600524">
        <ele>83.28</ele>
        <time>2025-02-15T03:53:12.210Z</time>
      </trkpt>
      <trkpt lat="58.9425759203732" lon="14.04520494863391">
        <ele>83.37</ele>
        <time>2025-02-15T03:54:02.903Z</time>
      </trkpt>
      <trkpt lat="58.942644987255335" lon="14.045281978324056">
        <ele>83.47</ele>
        <time>2025-02-15T03:54:53.597Z</time>
      </trkpt>
      <trkpt lat="58.94271397031844" lon="14.045359930023551">
        <ele>83.56</ele>
        <time>2025-02-15T03:55:44.292Z</time>
      </trkpt>
      <trkpt lat="58.94278395920992" lon="14.045437965542078">
        <ele>83.65</ele>
        <time>2025-02-15T03:56:34.988Z</time>
      </trkpt>
      <trkpt lat="58.94285595975816" lon="14.045516923069954">
        <ele>83.74</ele>
        <time>2025-02-15T03:57:25.686Z</time>
      </trkpt>
      <trkpt lat="58.942926954478025" lon="14.045596970245242">
        <ele>83.84</ele>
        <time>2025-02-15T03:58:16.385Z</time>
      </trkpt>
      <trkpt lat="58.94299996085465" lon="14.045676933601499">
        <ele>83.93</ele>
        <time>2025-02-15T03:59:07.085Z</time>
      </trkpt>
      <trkpt lat="58.943072967231274" lon="14.045756980776787">
        <ele>84.02</ele>
        <time>2025-02-15T03:59:57.787Z</time>
      </trkpt>
      <trkpt lat="58.9431459736079" lon="14.045837949961424">
        <ele>84.11</ele>
        <time>2025-02-15T04:00:48.490Z</time>
      </trkpt>
      <trkpt lat="58.94322099164128" lon="14.045919924974442">
        <ele>84.19</ele>
        <time>2025-02-15T04:01:39.195Z</time>
      </trkpt>
      <trkpt lat="58.94329693168402" lon="14.046002989634871">
        <ele>84.28</ele>
        <time>2025-02-15T04:02:29.901Z</time>
      </trkpt>
      <trkpt lat="58.943374967202544" lon="14.046088987961411">
        <ele>84.37</ele>
        <time>2025-02-15T04:03:20.608Z</time>
      </trkpt>
      <trkpt lat="58.94345392473042" lon="14.046174986287951">
        <ele>84.45</ele>
        <time>2025-02-15T04:04:11.317Z</time>
      </trkpt>
      <trkpt lat="58.94353497773409" lon="14.046264924108982">
        <ele>84.53</ele>
        <time>2025-02-15T04:05:02.027Z</time>
      </trkpt>
      <trkpt lat="58.94361795857549" lon="14.046355951577425">
        <ele>84.62</ele>
        <time>2025-02-15T04:05:52.739Z</time>
      </trkpt>
      <trkpt lat="58.943701945245266" lon="14.046446979045868">
        <ele>84.7</ele>
        <time>2025-02-15T04:06:43.452Z</time>
      </trkpt>
      <trkpt lat="58.943787943571806" lon="14.04654094018042">
        <ele>84.78</ele>
        <time>2025-02-15T04:07:34.167Z</time>
      </trkpt>
      <trkpt lat="58.94387494772673" lon="14.046636996790767">
        <ele>84.87</ele>
        <time>2025-02-15T04:08:24.884Z</time>
      </trkpt>
      <trkpt lat="58.94396295771003" lon="14.046733975410461">
        <ele>84.95</ele>
        <time>2025-02-15T04:09:15.602Z</time>
      </trkpt>
      <trkpt lat="58.94405398517847" lon="14.046831959858537">
        <ele>85.03</ele>
        <time>2025-02-15T04:10:06.322Z</time>
      </trkpt>
      <trkpt lat="58.9441439229995" lon="14.046932961791754">
        <ele>85.12</ele>
        <time>2025-02-15T04:10:57.044Z</time>
      </trkpt>
      <trkpt lat="58.944235956296325" lon="14.047035975381732">
        <ele>85.2</ele>
        <time>2025-02-15T04:11:47.767Z</time>
      </trkpt>
      <trkpt lat="58.94432798959315" lon="14.047134965658188">
        <ele>85.29</ele>
        <time>2025-02-15T04:12:38.492Z</time>
      </trkpt>
      <trkpt lat="58.94442094489932" lon="14.047233955934644">
        <ele>85.37</ele>
        <time>2025-02-15T04:13:29.219Z</time>
      </trkpt>
      <trkpt lat="58.944513984024525" lon="14.047330934554338">
        <ele>85.45</ele>
        <time>2025-02-15T04:14:19.947Z</time>
      </trkpt>
      <trkpt lat="58.9446069393307" lon="14.047432942315936">
        <ele>85.52</ele>
        <time>2025-02-15T04:15:10.677Z</time>
      </trkpt>
      <trkpt lat="58.94469897262752" lon="14.047533944249153">
        <ele>85.59</ele>
        <time>2025-02-15T04:16:01.409Z</time>
      </trkpt>
      <trkpt lat="58.944793939590454" lon="14.04763595201075">
        <ele>85.66</ele>
        <time>2025-02-15T04:16:52.142Z</time>
      </trkpt>
      <trkpt lat="58.9448899962008" lon="14.047736953943968">
        <ele>85.72</ele>
        <time>2025-02-15T04:17:42.877Z</time>
      </trkpt>
      <trkpt lat="58.944985968992114" lon="14.047838961705565">
        <ele>85.79</ele>
        <time>2025-02-15T04:18:33.614Z</time>
      </trkpt>
      <trkpt lat="58.94508395344019" lon="14.047945998609066">
        <ele>85.85</ele>
        <time>2025-02-15T04:19:24.353Z</time>
      </trkpt>
      <trkpt lat="58.945180932059884" lon="14.048048928380013">
        <ele>85.9</ele>
        <time>2025-02-15T04:20:15.094Z</time>
      </trkpt>
      <trkpt lat="58.94527799449861" lon="14.04814993031323">
        <ele>85.96</ele>
        <time>2025-02-15T04:21:05.836Z</time>
      </trkpt>
      <trkpt lat="58.945375978946686" lon="14.048251938074827">
        <ele>86.02</ele>
        <time>2025-02-15T04:21:56.580Z</time>
      </trkpt>
      <trkpt lat="58.94547396339476" lon="14.048351934179664">
        <ele>86.08</ele>
        <time>2025-02-15T04:22:47.326Z</time>
      </trkpt>
      <trkpt lat="58.945570942014456" lon="14.04845092445612">
        <ele>86.15</ele>
        <time>2025-02-15T04:23:38.074Z</time>
      </trkpt>
      <trkpt lat="58.94566792063415" lon="14.048548992723227">
        <ele>86.21</ele>
        <time>2025-02-15T04:24:28.823Z</time>
      </trkpt>
      <trkpt lat="58.94576498307288" lon="14.048645971342921">
        <ele>86.26</ele>
        <time>2025-02-15T04:25:19.574Z</time>
      </trkpt>
      <trkpt lat="58.94586196169257" lon="14.048743955790997">
        <ele>86.31</ele>
        <time>2025-02-15T04:26:10.327Z</time>
      </trkpt>
      <trkpt lat="58.94595994614065" lon="14.048841940239072">
        <ele>86.36</ele>
        <time>2025-02-15T04:27:01.082Z</time>
      </trkpt>
      <trkpt lat="58.94605793058872" lon="14.048938918858767">
        <ele>86.42</ele>
        <time>2025-02-15T04:27:51.838Z</time>
      </trkpt>
      <trkpt lat="58.94615499302745" lon="14.049034975469112">
        <ele>86.48</ele>
        <time>2025-02-15T04:28:42.596Z</time>
      </trkpt>
      <trkpt lat="58.946252977475524" lon="14.049130948260427">
        <ele>86.55</ele>
        <time>2025-02-15T04:29:33.356Z</time>
      </trkpt>
      <trkpt lat="58.94635196775198" lon="14.04922692105174">
        <ele>86.6</ele>
        <time>2025-02-15T04:30:24.118Z</time>
      </trkpt>
      <trkpt lat="58.946449952200055" lon="14.049319960176945">
        <ele>86.66</ele>
        <time>2025-02-15T04:31:14.881Z</time>
      </trkpt>
      <trkpt lat="58.94654693081975" lon="14.049412999302149">
        <ele>86.72</ele>
        <time>2025-02-15T04:32:05.646Z</time>
      </trkpt>
      <trkpt lat="58.946641981601715" lon="14.04950494877994">
        <ele>86.78</ele>
        <time>2025-02-15T04:32:56.413Z</time>
      </trkpt>
      <trkpt lat="58.94673694856465" lon="14.049594970420003">
        <ele>86.85</ele>
        <time>2025-02-15T04:33:47.182Z</time>
      </trkpt>
      <trkpt lat="58.94683099351823" lon="14.049682980403304">
        <ele>86.91</ele>
        <time>2025-02-15T04:34:37.952Z</time>
      </trkpt>
      <trkpt lat="58.946923948824406" lon="14.049770990386605">
        <ele>86.97</ele>
        <time>2025-02-15T04:35:28.724Z</time>
      </trkpt>
      <trkpt lat="58.94701598212123" lon="14.049858916550875">
        <ele>87.04</ele>
        <time>2025-02-15T04:36:19.498Z</time>
      </trkpt>
      <trkpt lat="58.94710591994226" lon="14.049942987039685">
        <ele>87.11</ele>
        <time>2025-02-15T04:37:10.273Z</time>
      </trkpt>
      <trkpt lat="58.94719493575394" lon="14.050023956224322">
        <ele>87.17</ele>
        <time>2025-02-15T04:38:01.050Z</time>
      </trkpt>
      <trkpt lat="58.94728294573724" lon="14.05010299757123">
        <ele>87.24</ele>
        <time>2025-02-15T04:38:51.828Z</time>
      </trkpt>
      <trkpt lat="58.94736994989216" lon="14.050182960927486">
        <ele>87.31</ele>
        <time>2025-02-15T04:39:42.608Z</time>
      </trkpt>
      <trkpt lat="58.947457959875464" lon="14.050262924283743">
        <ele>87.38</ele>
        <time>2025-02-15T04:40:33.389Z</time>
      </trkpt>
      <trkpt lat="58.947543958202004" lon="14.05034095980227">
        <ele>87.45</ele>
        <time>2025-02-15T04:41:24.172Z</time>
      </trkpt>
      <trkpt lat="58.94762794487178" lon="14.050416983664036">
        <ele>87.52</ele>
        <time>2025-02-15T04:42:14.956Z</time>
      </trkpt>
      <trkpt lat="58.94771092571318" lon="14.05049099586904">
        <ele>87.58</ele>
        <time>2025-02-15T04:43:05.742Z</time>
      </trkpt>
      <trkpt lat="58.94779097288847" lon="14.050563918426633">
        <ele>87.64</ele>
        <time>2025-02-15T04:43:56.529Z</time>
      </trkpt>
      <trkpt lat="58.947869930416346" lon="14.050633991137147">
        <ele>87.7</ele>
        <time>2025-02-15T04:44:47.318Z</time>
      </trkpt>
      <trkpt lat="58.94794796593487" lon="14.05070398002863">
        <ele>87.76</ele>
        <time>2025-02-15T04:45:38.108Z</time>
      </trkpt>
      <trkpt lat="58.94802591763437" lon="14.050773968920112">
        <ele>87.8</ele>
        <time>2025-02-15T04:46:28.900Z</time>
      </trkpt>
      <trkpt lat="58.948102947324514" lon="14.050842951983213">
        <ele>87.85</ele>
        <time>2025-02-15T04:47:19.693Z</time>
      </trkpt>
      <trkpt lat="58.94817997701466" lon="14.050909923389554">
        <ele>87.89</ele>
        <time>2025-02-15T04:48:10.487Z</time>
      </trkpt>
      <trkpt lat="58.948257928714156" lon="14.050973961129785">
        <ele>87.93</ele>
        <time>2025-02-15T04:49:01.283Z</time>
      </trkpt>
      <trkpt lat="58.94833395257592" lon="14.051038920879364">
        <ele>87.96</ele>
        <time>2025-02-15T04:49:52.080Z</time>
      </trkpt>
      <trkpt lat="58.94840796478093" lon="14.051103964447975">
        <ele>87.99</ele>
        <time>2025-02-15T04:50:42.878Z</time>
      </trkpt>
      <trkpt lat="58.94848197698593" lon="14.051169930025935">
        <ele>88.02</ele>
        <time>2025-02-15T04:51:33.678Z</time>
      </trkpt>
      <trkpt lat="58.948554983362556" lon="14.051232961937785">
        <ele>88.05</ele>
        <time>2025-02-15T04:52:24.479Z</time>
      </trkpt>
      <trkpt lat="58.9486269839108" lon="14.051292976364493">
        <ele>88.08</ele>
        <time>2025-02-15T04:53:15.281Z</time>
      </trkpt>
      <trkpt lat="58.94869697280228" lon="14.051352990791202">
        <ele>88.12</ele>
        <time>2025-02-15T04:54:06.084Z</time>
      </trkpt>
      <trkpt lat="58.948767967522144" lon="14.05141199938953">
        <ele>88.15</ele>
        <time>2025-02-15T04:54:56.889Z</time>
      </trkpt>
      <trkpt lat="58.94883795641363" lon="14.051469918340445">
        <ele>88.19</ele>
        <time>2025-02-15T04:55:47.695Z</time>
      </trkpt>
      <trkpt lat="58.94890895113349" lon="14.051527921110392">
        <ele>88.22</ele>
        <time>2025-02-15T04:56:38.502Z</time>
      </trkpt>
      <trkpt lat="58.94897793419659" lon="14.051584918051958">
        <ele>88.26</ele>
        <time>2025-02-15T04:57:29.310Z</time>
      </trkpt>
      <trkpt lat="58.949044989421964" lon="14.051640992984176">
        <ele>88.29</ele>
        <time>2025-02-15T04:58:20.119Z</time>
      </trkpt>
      <trkpt lat="58.949110954999924" lon="14.051696984097362">
        <ele>88.33</ele>
        <time>2025-02-15T04:59:10.930Z</time>
      </trkpt>
      <trkpt lat="58.949175998568535" lon="14.051748951897025">
        <ele>88.36</ele>
        <time>2025-02-15T05:00:01.742Z</time>
      </trkpt>
      <trkpt lat="58.949239952489734" lon="14.051800919696689">
        <ele>88.39</ele>
        <time>2025-02-15T05:00:52.555Z</time>
      </trkpt>
      <trkpt lat="58.949306923896074" lon="14.051852971315384">
        <ele>88.43</ele>
        <time>2025-02-15T05:01:43.369Z</time>
      </trkpt>
      <trkpt lat="58.94937397912145" lon="14.051905944943428">
        <ele>88.46</ele>
        <time>2025-02-15T05:02:34.184Z</time>
      </trkpt>
      <trkpt lat="58.94943994469941" lon="14.051956990733743">
        <ele>88.48</ele>
        <time>2025-02-15T05:03:25.000Z</time>
      </trkpt>
      <trkpt lat="58.9495059940964" lon="14.052008958533406">
        <ele>88.51</ele>
        <time>2025-02-15T05:04:15.817Z</time>
      </trkpt>
      <trkpt lat="58.94957195967436" lon="14.05205992050469">
        <ele>88.53</ele>
        <time>2025-02-15T05:05:06.635Z</time>
      </trkpt>
      <trkpt lat="58.94963792525232" lon="14.052110966295004">
        <ele>88.54</ele>
        <time>2025-02-15T05:05:57.455Z</time>
      </trkpt>
      <trkpt lat="58.94970397464931" lon="14.052161928266287">
        <ele>88.56</ele>
        <time>2025-02-15T05:06:48.276Z</time>
      </trkpt>
      <trkpt lat="58.94976994022727" lon="14.052212974056602">
        <ele>88.57</ele>
        <time>2025-02-15T05:07:39.098Z</time>
      </trkpt>
      <trkpt lat="58.94983598962426" lon="14.052263936027884">
        <ele>88.58</ele>
        <time>2025-02-15T05:08:29.921Z</time>
      </trkpt>
      <trkpt lat="58.94990195520222" lon="14.052312970161438">
        <ele>88.58</ele>
        <time>2025-02-15T05:09:20.745Z</time>
      </trkpt>
      <trkpt lat="58.94996792078018" lon="14.052363932132721">
        <ele>88.58</ele>
        <time>2025-02-15T05:10:11.570Z</time>
      </trkpt>
      <trkpt lat="58.950033970177174" lon="14.052413972094655">
        <ele>88.58</ele>
        <time>2025-02-15T05:11:02.396Z</time>
      </trkpt>
      <trkpt lat="58.950100941583514" lon="14.052462922409177">
        <ele>88.57</ele>
        <time>2025-02-15T05:11:53.224Z</time>
      </trkpt>
      <trkpt lat="58.950165985152125" lon="14.052513968199492">
        <ele>88.55</ele>
        <time>2025-02-15T05:12:44.053Z</time>
      </trkpt>
      <trkpt lat="58.950231950730085" lon="14.052564930170774">
        <ele>88.53</ele>
        <time>2025-02-15T05:13:34.883Z</time>
      </trkpt>
      <trkpt lat="58.950298922136426" lon="14.05261698178947">
        <ele>88.51</ele>
        <time>2025-02-15T05:14:25.714Z</time>
      </trkpt>
      <trkpt lat="58.95036698319018" lon="14.052666937932372">
        <ele>88.48</ele>
        <time>2025-02-15T05:15:16.546Z</time>
      </trkpt>
      <trkpt lat="58.95043395459652" lon="14.052716977894306">
        <ele>88.45</ele>
        <time>2025-02-15T05:16:07.379Z</time>
      </trkpt>
      <trkpt lat="58.95049899816513" lon="14.052766934037209">
        <ele>88.41</ele>
        <time>2025-02-15T05:16:58.213Z</time>
      </trkpt>
      <trkpt lat="58.95056496374309" lon="14.052815968170762">
        <ele>88.36</ele>
        <time>2025-02-15T05:17:49.049Z</time>
      </trkpt>
      <trkpt lat="58.95063193514943" lon="14.052863996475935">
        <ele>88.32</ele>
        <time>2025-02-15T05:18:39.886Z</time>
      </trkpt>
      <trkpt lat="58.950699996203184" lon="14.052912946790457">
        <ele>88.27</ele>
        <time>2025-02-15T05:19:30.724Z</time>
      </trkpt>
      <trkpt lat="58.950766967609525" lon="14.05296097509563">
        <ele>88.21</ele>
        <time>2025-02-15T05:20:21.563Z</time>
      </trkpt>
      <trkpt lat="58.950834944844246" lon="14.053008919581771">
        <ele>88.15</ele>
        <time>2025-02-15T05:21:12.403Z</time>
      </trkpt>
      <trkpt lat="58.95090292207897" lon="14.053057953715324">
        <ele>88.08</ele>
        <time>2025-02-15T05:22:03.244Z</time>
      </trkpt>
      <trkpt lat="58.95096897147596" lon="14.053107993677258">
        <ele>88.02</ele>
        <time>2025-02-15T05:22:54.087Z</time>
      </trkpt>
      <trkpt lat="58.95103694871068" lon="14.05315794982016">
        <ele>87.95</ele>
        <time>2025-02-15T05:23:44.931Z</time>
      </trkpt>
      <trkpt lat="58.95110299810767" lon="14.053204972296953">
        <ele>87.87</ele>
        <time>2025-02-15T05:24:35.776Z</time>
      </trkpt>
      <trkpt lat="58.95116594620049" lon="14.053246965631843">
        <ele>87.79</ele>
        <time>2025-02-15T05:25:26.622Z</time>
      </trkpt>
      <trkpt lat="58.95123392343521" lon="14.053292982280254">
        <ele>87.71</ele>
        <time>2025-02-15T05:26:17.469Z</time>
      </trkpt>
      <trkpt lat="58.951302990317345" lon="14.053338998928666">
        <ele>87.63</ele>
        <time>2025-02-15T05:27:08.317Z</time>
      </trkpt>
      <trkpt lat="58.951371973380446" lon="14.053386943414807">
        <ele>87.54</ele>
        <time>2025-02-15T05:27:59.166Z</time>
      </trkpt>
      <trkpt lat="58.95144095644355" lon="14.05343497171998">
        <ele>87.44</ele>
        <time>2025-02-15T05:28:50.017Z</time>
      </trkpt>
      <trkpt lat="58.95150993950665" lon="14.053480988368392">
        <ele>87.35</ele>
        <time>2025-02-15T05:29:40.869Z</time>
      </trkpt>
      <trkpt lat="58.95157992839813" lon="14.053528932854533">
        <ele>87.25</ele>
        <time>2025-02-15T05:30:31.722Z</time>
      </trkpt>
      <trkpt lat="58.951648995280266" lon="14.053576961159706">
        <ele>87.15</ele>
        <time>2025-02-15T05:31:22.576Z</time>
      </trkpt>
      <trkpt lat="58.95171999000013" lon="14.05362599529326">
        <ele>87.04</ele>
        <time>2025-02-15T05:32:13.431Z</time>
      </trkpt>
      <trkpt lat="58.95179098471999" lon="14.053674945607781">
        <ele>86.93</ele>
        <time>2025-02-15T05:33:04.288Z</time>
      </trkpt>
      <trkpt lat="58.951863991096616" lon="14.053724985569715">
        <ele>86.81</ele>
        <time>2025-02-15T05:33:55.146Z</time>
      </trkpt>
      <trkpt lat="58.95193993113935" lon="14.05377795919776">
        <ele>86.69</ele>
        <time>2025-02-15T05:34:46.005Z</time>
      </trkpt>
      <trkpt lat="58.952015955001116" lon="14.053829926997423">
        <ele>86.56</ele>
        <time>2025-02-15T05:35:36.865Z</time>
      </trkpt>
      <trkpt lat="58.95208996720612" lon="14.053881978616118">
        <ele>86.43</ele>
        <time>2025-02-15T05:36:27.727Z</time>
      </trkpt>
      <trkpt lat="58.952165991067886" lon="14.053934952244163">
        <ele>86.29</ele>
        <time>2025-02-15T05:37:18.590Z</time>
      </trkpt>
      <trkpt lat="58.952242936939" lon="14.053986920043826">
        <ele>86.14</ele>
        <time>2025-02-15T05:38:09.454Z</time>
      </trkpt>
      <trkpt lat="58.95232097245753" lon="14.054038971662521">
        <ele>86.0</ele>
        <time>2025-02-15T05:39:00.320Z</time>
      </trkpt>
      <trkpt lat="58.952399929985404" lon="14.054093956947327">
        <ele>85.84</ele>
        <time>2025-02-15T05:39:51.187Z</time>
      </trkpt>
      <trkpt lat="58.95247897133231" lon="14.054148942232132">
        <ele>85.69</ele>
        <time>2025-02-15T05:40:42.055Z</time>
      </trkpt>
      <trkpt lat="58.95255893468857" lon="14.054201999679208">
        <ele>85.52</ele>
        <time>2025-02-15T05:41:32.925Z</time>
      </trkpt>
      <trkpt lat="58.952638981863856" lon="14.054255979135633">
        <ele>85.36</ele>
        <time>2025-02-15T05:42:23.796Z</time>
      </trkpt>
      <trkpt lat="58.95271894522011" lon="14.054310964420438">
        <ele>85.18</ele>
        <time>2025-02-15T05:43:14.668Z</time>
      </trkpt>
      <trkpt lat="58.9527989923954" lon="14.054364943876863">
        <ele>85.0</ele>
        <time>2025-02-15T05:44:05.542Z</time>
      </trkpt>
      <trkpt lat="58.95287794992328" lon="14.054418923333287">
        <ele>84.82</ele>
        <time>2025-02-15T05:44:56.417Z</time>
      </trkpt>
      <trkpt lat="58.952957997098565" lon="14.054470974951982">
        <ele>84.64</ele>
        <time>2025-02-15T05:45:47.293Z</time>
      </trkpt>
      <trkpt lat="58.9530389662832" lon="14.054524954408407">
        <ele>84.45</ele>
        <time>2025-02-15T05:46:38.171Z</time>
      </trkpt>
      <trkpt lat="58.95312094129622" lon="14.054580945521593">
        <ele>84.26</ele>
        <time>2025-02-15T05:47:29.050Z</time>
      </trkpt>
      <trkpt lat="58.95320392213762" lon="14.054636936634779">
        <ele>84.07</ele>
        <time>2025-02-15T05:48:19.931Z</time>
      </trkpt>
      <trkpt lat="58.95328799262643" lon="14.054694939404726">
        <ele>83.87</ele>
        <time>2025-02-15T05:49:10.813Z</time>
      </trkpt>
      <trkpt lat="58.95337399095297" lon="14.054752942174673">
        <ele>83.67</ele>
        <time>2025-02-15T05:50:01.696Z</time>
      </trkpt>
      <trkpt lat="58.95346099510789" lon="14.054813962429762">
        <ele>83.46</ele>
        <time>2025-02-15T05:50:52.581Z</time>
      </trkpt>
      <trkpt lat="58.95355093292892" lon="14.05487498268485">
        <ele>83.26</ele>
        <time>2025-02-15T05:51:43.467Z</time>
      </trkpt>
      <trkpt lat="58.95364095456898" lon="14.054935919120908">
        <ele>83.04</ele>
        <time>2025-02-15T05:52:34.355Z</time>
      </trkpt>
      <trkpt lat="58.953729970380664" lon="14.054997945204377">
        <ele>82.83</ele>
        <time>2025-02-15T05:53:25.245Z</time>
      </trkpt>
      <trkpt lat="58.95382099784911" lon="14.055060977116227">
        <ele>82.6</ele>
        <time>2025-02-15T05:54:16.136Z</time>
      </trkpt>
      <trkpt lat="58.95391194149852" lon="14.055122919380665">
        <ele>82.37</ele>
        <time>2025-02-15T05:55:07.029Z</time>
      </trkpt>
      <trkpt lat="58.95400397479534" lon="14.055183939635754">
        <ele>82.14</ele>
        <time>2025-02-15T05:55:57.923Z</time>
      </trkpt>
      <trkpt lat="58.954096930101514" lon="14.055246971547604">
        <ele>81.91</ele>
        <time>2025-02-15T05:56:48.819Z</time>
      </trkpt>
      <trkpt lat="58.95418996922672" lon="14.055310925468802">
        <ele>81.67</ele>
        <time>2025-02-15T05:57:39.716Z</time>
      </trkpt>
      <trkpt lat="58.95428292453289" lon="14.055373957380652">
        <ele>81.43</ele>
        <time>2025-02-15T05:58:30.615Z</time>
      </trkpt>
      <trkpt lat="58.954376969486475" lon="14.05543397180736">
        <ele>81.19</ele>
        <time>2025-02-15T05:59:21.516Z</time>
      </trkpt>
      <trkpt lat="58.95447193644941" lon="14.055493986234069">
        <ele>80.94</ele>
        <time>2025-02-15T06:00:12.418Z</time>
      </trkpt>
      <trkpt lat="58.954566987231374" lon="14.055555928498507">
        <ele>80.69</ele>
        <time>2025-02-15T06:01:03.322Z</time>
      </trkpt>
      <trkpt lat="58.95466195419431" lon="14.055619966238737">
        <ele>80.43</ele>
        <time>2025-02-15T06:01:54.227Z</time>
      </trkpt>
      <trkpt lat="58.95475692115724" lon="14.055680986493826">
        <ele>80.16</ele>
        <time>2025-02-15T06:02:45.134Z</time>
      </trkpt>
      <trkpt lat="58.95485398359597" lon="14.055741922929883">
        <ele>79.89</ele>
        <time>2025-02-15T06:03:36.043Z</time>
      </trkpt>
      <trkpt lat="58.95495196804404" lon="14.055807972326875">
        <ele>79.62</ele>
        <time>2025-02-15T06:04:26.953Z</time>
      </trkpt>
      <trkpt lat="58.95505397580564" lon="14.055876955389977">
        <ele>79.35</ele>
        <time>2025-02-15T06:05:17.865Z</time>
      </trkpt>
      <trkpt lat="58.955157995224" lon="14.0559499617666">
        <ele>79.07</ele>
        <time>2025-02-15T06:06:08.779Z</time>
      </trkpt>
      <trkpt lat="58.95526394248009" lon="14.056022968143225">
        <ele>78.8</ele>
        <time>2025-02-15T06:06:59.695Z</time>
      </trkpt>
      <trkpt lat="58.95537198521197" lon="14.05609798617661">
        <ele>78.52</ele>
        <time>2025-02-15T06:07:50.612Z</time>
      </trkpt>
      <trkpt lat="58.95548195578158" lon="14.056175937876105">
        <ele>78.24</ele>
        <time>2025-02-15T06:08:41.531Z</time>
      </trkpt>
      <trkpt lat="58.95559393800795" lon="14.056253973394632">
        <ele>77.97</ele>
        <time>2025-02-15T06:09:32.452Z</time>
      </trkpt>
      <trkpt lat="58.955707931891084" lon="14.056329997256398">
        <ele>77.69</ele>
        <time>2025-02-15T06:10:23.375Z</time>
      </trkpt>
      <trkpt lat="58.95582393743098" lon="14.056406943127513">
        <ele>77.39</ele>
        <time>2025-02-15T06:11:14.300Z</time>
      </trkpt>
      <trkpt lat="58.95593994297087" lon="14.05648497864604">
        <ele>77.1</ele>
        <time>2025-02-15T06:12:05.227Z</time>
      </trkpt>
      <trkpt lat="58.956055948510766" lon="14.056565947830677">
        <ele>76.81</ele>
        <time>2025-02-15T06:12:56.156Z</time>
      </trkpt>
      <trkpt lat="58.95617295987904" lon="14.056647922843695">
        <ele>76.51</ele>
        <time>2025-02-15T06:13:47.087Z</time>
      </trkpt>
      <trkpt lat="58.956290977075696" lon="14.056729981675744">
        <ele>76.22</ele>
        <time>2025-02-15T06:14:38.020Z</time>
      </trkpt>
      <trkpt lat="58.95641092211008" lon="14.056811956688762">
        <ele>75.93</ele>
        <time>2025-02-15T06:15:28.955Z</time>
      </trkpt>
      <trkpt lat="58.95653296262026" lon="14.056892925873399">
        <ele>75.63</ele>
        <time>2025-02-15T06:16:19.892Z</time>
      </trkpt>
      <trkpt lat="58.956655925139785" lon="14.056975990533829">
        <ele>75.34</ele>
        <time>2025-02-15T06:17:10.831Z</time>
      </trkpt>
      <trkpt lat="58.95677897147834" lon="14.057060983031988">
        <ele>75.05</ele>
        <time>2025-02-15T06:18:01.772Z</time>
      </trkpt>
      <trkpt lat="58.95690193399787" lon="14.057145975530148">
        <ele>74.77</ele>
        <time>2025-02-15T06:18:52.715Z</time>
      </trkpt>
      <trkpt lat="58.95702498033643" lon="14.057230968028307">
        <ele>74.5</ele>
        <time>2025-02-15T06:19:43.661Z</time>
      </trkpt>
      <trkpt lat="58.957148948684335" lon="14.057314954698086">
        <ele>74.22</ele>
        <time>2025-02-15T06:20:34.609Z</time>
      </trkpt>
      <trkpt lat="58.95727199502289" lon="14.057400953024626">
        <ele>73.94</ele>
        <time>2025-02-15T06:21:25.559Z</time>
      </trkpt>
      <trkpt lat="58.9573959633708" lon="14.057488963007927">
        <ele>73.66</ele>
        <time>2025-02-15T06:22:16.511Z</time>
      </trkpt>
      <trkpt lat="58.95752093754709" lon="14.057575967162848">
        <ele>73.38</ele>
        <time>2025-02-15T06:23:07.465Z</time>
      </trkpt>
      <trkpt lat="58.957646917551756" lon="14.057660959661007">
        <ele>73.1</ele>
        <time>2025-02-15T06:23:58.421Z</time>
      </trkpt>
      <trkpt lat="58.957772981375456" lon="14.057746957987547">
        <ele>72.8</ele>
        <time>2025-02-15T06:24:49.379Z</time>
      </trkpt>
      <trkpt lat="58.957898961380124" lon="14.057832956314087">
        <ele>72.51</ele>
        <time>2025-02-15T06:25:40.339Z</time>
      </trkpt>
      <trkpt lat="58.95802393555641" lon="14.057918954640627">
        <ele>72.22</ele>
        <time>2025-02-15T06:26:31.302Z</time>
      </trkpt>
      <trkpt lat="58.95814899355173" lon="14.058005958795547">
        <ele>71.92</ele>
        <time>2025-02-15T06:27:22.267Z</time>
      </trkpt>
      <trkpt lat="58.95827396772802" lon="14.058092962950468">
        <ele>71.62</ele>
        <time>2025-02-15T06:28:13.234Z</time>
      </trkpt>
      <trkpt lat="58.958398941904306" lon="14.05818197876215">
        <ele>71.32</ele>
        <time>2025-02-15T06:29:04.203Z</time>
      </trkpt>
      <trkpt lat="58.958523999899626" lon="14.058273928239942">
        <ele>71.02</ele>
        <time>2025-02-15T06:29:55.174Z</time>
      </trkpt>
      <trkpt lat="58.95864696241915" lon="14.058368979021907">
        <ele>70.72</ele>
        <time>2025-02-15T06:30:46.147Z</time>
      </trkpt>
      <trkpt lat="58.95876992493868" lon="14.058465957641602">
        <ele>70.43</ele>
        <time>2025-02-15T06:31:37.122Z</time>
      </trkpt>
      <trkpt lat="58.958891965448856" lon="14.058560924604535">
        <ele>70.15</ele>
        <time>2025-02-15T06:32:28.099Z</time>
      </trkpt>
      <trkpt lat="58.95901492796838" lon="14.058652957901359">
        <ele>69.88</ele>
        <time>2025-02-15T06:33:19.079Z</time>
      </trkpt>
      <trkpt lat="58.95913797430694" lon="14.058744991198182">
        <ele>69.61</ele>
        <time>2025-02-15T06:34:10.061Z</time>
      </trkpt>
      <trkpt lat="58.95925993099809" lon="14.058833923190832">
        <ele>69.34</ele>
        <time>2025-02-15T06:35:01.045Z</time>
      </trkpt>
      <trkpt lat="58.959381971508265" lon="14.058920927345753">
        <ele>69.07</ele>
        <time>2025-02-15T06:35:52.031Z</time>
      </trkpt>
      <trkpt lat="58.95950191654265" lon="14.059005919843912">
        <ele>68.8</ele>
        <time>2025-02-15T06:36:43.019Z</time>
      </trkpt>
      <trkpt lat="58.959620939567685" lon="14.059088984504342">
        <ele>68.53</ele>
        <time>2025-02-15T06:37:34.009Z</time>
      </trkpt>
      <trkpt lat="58.95973895676434" lon="14.05917095951736">
        <ele>68.27</ele>
        <time>2025-02-15T06:38:25.001Z</time>
      </trkpt>
      <trkpt lat="58.959855968132615" lon="14.059252934530377">
        <ele>68.0</ele>
        <time>2025-02-15T06:39:15.995Z</time>
      </trkpt>
      <trkpt lat="58.95997096784413" lon="14.059331975877285">
        <ele>67.75</ele>
        <time>2025-02-15T06:40:06.991Z</time>
      </trkpt>
      <trkpt lat="58.96008697338402" lon="14.059410933405161">
        <ele>67.49</ele>
        <time>2025-02-15T06:40:57.989Z</time>
      </trkpt>
      <trkpt lat="58.960201973095536" lon="14.059488968923688">
        <ele>67.24</ele>
        <time>2025-02-15T06:41:48.989Z</time>
      </trkpt>
      <trkpt lat="58.96031596697867" lon="14.059567926451564">
        <ele>66.99</ele>
        <time>2025-02-15T06:42:39.991Z</time>
      </trkpt>
      <trkpt lat="58.96043096669018" lon="14.05964596197009">
        <ele>66.75</ele>
        <time>2025-02-15T06:43:30.995Z</time>
      </trkpt>
      <trkpt lat="58.960544960573316" lon="14.059724919497967">
        <ele>66.5</ele>
        <time>2025-02-15T06:44:22.001Z</time>
      </trkpt>
      <trkpt lat="58.96065895445645" lon="14.059802955016494">
        <ele>66.27</ele>
        <time>2025-02-15T06:45:13.009Z</time>
      </trkpt>
      <trkpt lat="58.9607719425112" lon="14.05987998470664">
        <ele>66.03</ele>
        <time>2025-02-15T06:46:04.019Z</time>
      </trkpt>
      <trkpt lat="58.96088493056595" lon="14.059958942234516">
        <ele>65.79</ele>
        <time>2025-02-15T06:46:55.030Z</time>
      </trkpt>
      <trkpt lat="58.96099699661136" lon="14.060037983581424">
        <ele>65.55</ele>
        <time>2025-02-15T06:47:46.043Z</time>
      </trkpt>
      <trkpt lat="58.96110797300935" lon="14.06011895276606">
        <ele>65.31</ele>
        <time>2025-02-15T06:48:37.058Z</time>
      </trkpt>
      <trkpt lat="58.96121894940734" lon="14.060199921950698">
        <ele>65.07</ele>
        <time>2025-02-15T06:49:28.075Z</time>
      </trkpt>
      <trkpt lat="58.96132992580533" lon="14.060280974954367">
        <ele>64.84</ele>
        <time>2025-02-15T06:50:19.094Z</time>
      </trkpt>
      <trkpt lat="58.96144098602235" lon="14.060362949967384">
        <ele>64.62</ele>
        <time>2025-02-15T06:51:10.115Z</time>
      </trkpt>
      <trkpt lat="58.961551962420344" lon="14.060445930808783">
        <ele>64.41</ele>
        <time>2025-02-15T06:52:01.138Z</time>
      </trkpt>
      <trkpt lat="58.961661932989955" lon="14.060526983812451">
        <ele>64.2</ele>
        <time>2025-02-15T06:52:52.163Z</time>
      </trkpt>
      <trkpt lat="58.9617719873786" lon="14.060607952997088">
        <ele>64.0</ele>
        <time>2025-02-15T06:53:43.190Z</time>
      </trkpt>
      <trkpt lat="58.96188095211983" lon="14.060689928010106">
        <ele>63.81</ele>
        <time>2025-02-15T06:54:34.219Z</time>
      </trkpt>
      <trkpt lat="58.96198798902333" lon="14.060770981013775">
        <ele>63.62</ele>
        <time>2025-02-15T06:55:25.249Z</time>
      </trkpt>
      <trkpt lat="58.9620949421078" lon="14.060850944370031">
        <ele>63.44</ele>
        <time>2025-02-15T06:56:16.281Z</time>
      </trkpt>
      <trkpt lat="58.96220097318292" lon="14.060932919383049">
        <ele>63.27</ele>
        <time>2025-02-15T06:57:07.315Z</time>
      </trkpt>
      <trkpt lat="58.962305998429656" lon="14.061013972386718">
        <ele>63.1</ele>
        <time>2025-02-15T06:57:58.351Z</time>
      </trkpt>
      <trkpt lat="58.96240792237222" lon="14.061096953228116">
        <ele>62.95</ele>
        <time>2025-02-15T06:58:49.389Z</time>
      </trkpt>
      <trkpt lat="58.96250993013382" lon="14.061178928241134">
        <ele>62.8</ele>
        <time>2025-02-15T06:59:40.428Z</time>
      </trkpt>
      <trkpt lat="58.96261193789542" lon="14.061259981244802">
        <ele>62.65</ele>
        <time>2025-02-15T07:00:31.469Z</time>
      </trkpt>
      <trkpt lat="58.962713945657015" lon="14.061339944601059">
        <ele>62.51</ele>
        <time>2025-02-15T07:01:22.512Z</time>
      </trkpt>
      <trkpt lat="58.96281595341861" lon="14.061421919614077">
        <ele>62.36</ele>
        <time>2025-02-15T07:02:13.557Z</time>
      </trkpt>
      <trkpt lat="58.96291796118021" lon="14.061505990102887">
        <ele>62.23</ele>
        <time>2025-02-15T07:03:04.603Z</time>
      </trkpt>
      <trkpt lat="58.963016951456666" lon="14.061590982601047">
        <ele>62.08</ele>
        <time>2025-02-15T07:03:55.651Z</time>
      </trkpt>
      <trkpt lat="58.963118959218264" lon="14.061673963442445">
        <ele>61.94</ele>
        <time>2025-02-15T07:04:46.701Z</time>
      </trkpt>
      <trkpt lat="58.96321794949472" lon="14.061756944283843">
        <ele>61.81</ele>
        <time>2025-02-15T07:05:37.753Z</time>
      </trkpt>
      <trkpt lat="58.963313922286034" lon="14.061841936782002">
        <ele>61.7</ele>
        <time>2025-02-15T07:06:28.806Z</time>
      </trkpt>
      <trkpt lat="58.96340796723962" lon="14.061930952593684">
        <ele>61.59</ele>
        <time>2025-02-15T07:07:19.861Z</time>
      </trkpt>
      <trkpt lat="58.96350092254579" lon="14.062022985890508">
        <ele>61.49</ele>
        <time>2025-02-15T07:08:10.918Z</time>
      </trkpt>
      <trkpt lat="58.963591950014234" lon="14.062113929539919">
        <ele>61.4</ele>
        <time>2025-02-15T07:09:01.976Z</time>
      </trkpt>
      <trkpt lat="58.96368398331106" lon="14.062204957008362">
        <ele>61.32</ele>
        <time>2025-02-15T07:09:53.036Z</time>
      </trkpt>
      <trkpt lat="58.96377492696047" lon="14.062294978648424">
        <ele>61.24</ele>
        <time>2025-02-15T07:10:44.098Z</time>
      </trkpt>
      <trkpt lat="58.96386595442891" lon="14.062385922297835">
        <ele>61.16</ele>
        <time>2025-02-15T07:11:35.161Z</time>
      </trkpt>
      <trkpt lat="58.96395597606897" lon="14.062475943937898">
        <ele>61.1</ele>
        <time>2025-02-15T07:12:26.226Z</time>
      </trkpt>
      <trkpt lat="58.964044991880655" lon="14.06256596557796">
        <ele>61.03</ele>
        <time>2025-02-15T07:13:17.293Z</time>
      </trkpt>
      <trkpt lat="58.964133923873305" lon="14.062655987218022">
        <ele>60.98</ele>
        <time>2025-02-15T07:14:08.361Z</time>
      </trkpt>
      <trkpt lat="58.96422193385661" lon="14.062745925039053">
        <ele>60.93</ele>
        <time>2025-02-15T07:14:59.431Z</time>
      </trkpt>
      <trkpt lat="58.96430893801153" lon="14.062834940850735">
        <ele>60.88</ele>
        <time>2025-02-15T07:15:50.502Z</time>
      </trkpt>
      <trkpt lat="58.96439493633807" lon="14.062923956662416">
        <ele>60.85</ele>
        <time>2025-02-15T07:16:41.575Z</time>
      </trkpt>
      <trkpt lat="58.96447992883623" lon="14.063011966645718">
        <ele>60.81</ele>
        <time>2025-02-15T07:17:32.649Z</time>
      </trkpt>
      <trkpt lat="58.96456399932504" lon="14.063098970800638">
        <ele>60.78</ele>
        <time>2025-02-15T07:18:23.725Z</time>
      </trkpt>
      <trkpt lat="58.964646980166435" lon="14.063181951642036">
        <ele>60.76</ele>
        <time>2025-02-15T07:19:14.803Z</time>
      </trkpt>
      <trkpt lat="58.96472895517945" lon="14.063264932483435">
        <ele>60.74</ele>
        <time>2025-02-15T07:20:05.882Z</time>
      </trkpt>
      <trkpt lat="58.96480891853571" lon="14.063346991315484">
        <ele>60.72</ele>
        <time>2025-02-15T07:20:56.962Z</time>
      </trkpt>
      <trkpt lat="58.964886954054236" lon="14.06342594884336">
        <ele>60.7</ele>
        <time>2025-02-15T07:21:48.044Z</time>
      </trkpt>
      <trkpt lat="58.96496398374438" lon="14.063503984361887">
        <ele>60.69</ele>
        <time>2025-02-15T07:22:39.127Z</time>
      </trkpt>
      <trkpt lat="58.9650409296155" lon="14.063582941889763">
        <ele>60.68</ele>
        <time>2025-02-15T07:23:30.212Z</time>
      </trkpt>
      <trkpt lat="58.96511594764888" lon="14.06366198323667">
        <ele>60.68</ele>
        <time>2025-02-15T07:24:21.298Z</time>
      </trkpt>
      <trkpt lat="58.96518995985389" lon="14.063739934936166">
        <ele>60.69</ele>
        <time>2025-02-15T07:25:12.385Z</time>
      </trkpt>
      <trkpt lat="58.96526598371565" lon="14.063818976283073">
        <ele>60.69</ele>
        <time>2025-02-15T07:26:03.474Z</time>
      </trkpt>
      <trkpt lat="58.96534091793001" lon="14.063895922154188">
        <ele>60.7</ele>
        <time>2025-02-15T07:26:54.564Z</time>
      </trkpt>
      <trkpt lat="58.96541392430663" lon="14.063971946015954">
        <ele>60.72</ele>
        <time>2025-02-15T07:27:45.655Z</time>
      </trkpt>
      <trkpt lat="58.965486930683255" lon="14.06404796987772">
        <ele>60.74</ele>
        <time>2025-02-15T07:28:36.748Z</time>
      </trkpt>
      <trkpt lat="58.96556094288826" lon="14.064122987911105">
        <ele>60.77</ele>
        <time>2025-02-15T07:29:27.842Z</time>
      </trkpt>
      <trkpt lat="58.965633949264884" lon="14.064197922125459">
        <ele>60.81</ele>
        <time>2025-02-15T07:30:18.937Z</time>
      </trkpt>
      <trkpt lat="58.96570594981313" lon="14.064273945987225">
        <ele>60.85</ele>
        <time>2025-02-15T07:31:10.034Z</time>
      </trkpt>
      <trkpt lat="58.96577795036137" lon="14.06434996984899">
        <ele>60.89</ele>
        <time>2025-02-15T07:32:01.132Z</time>
      </trkpt>
      <trkpt lat="58.965849950909615" lon="14.064426999539137">
        <ele>60.93</ele>
        <time>2025-02-15T07:32:52.231Z</time>
      </trkpt>
      <trkpt lat="58.96592195145786" lon="14.064503945410252">
        <ele>60.99</ele>
        <time>2025-02-15T07:33:43.332Z</time>
      </trkpt>
      <trkpt lat="58.9659939520061" lon="14.064580975100398">
        <ele>61.04</ele>
        <time>2025-02-15T07:34:34.434Z</time>
      </trkpt>
      <trkpt lat="58.966064946725965" lon="14.064658926799893">
        <ele>61.09</ele>
        <time>2025-02-15T07:35:25.537Z</time>
      </trkpt>
      <trkpt lat="58.96613594144583" lon="14.064737968146801">
        <ele>61.14</ele>
        <time>2025-02-15T07:36:16.642Z</time>
      </trkpt>
      <trkpt lat="58.96620593033731" lon="14.064816925674677">
        <ele>61.2</ele>
        <time>2025-02-15T07:37:07.748Z</time>
      </trkpt>
      <trkpt lat="58.96627591922879" lon="14.064895967021585">
        <ele>61.27</ele>
        <time>2025-02-15T07:37:58.855Z</time>
      </trkpt>
      <trkpt lat="58.966344986110926" lon="14.064976936206222">
        <ele>61.34</ele>
        <time>2025-02-15T07:38:49.964Z</time>
      </trkpt>
      <trkpt lat="58.96641396917403" lon="14.06505698338151">
        <ele>61.41</ele>
        <time>2025-02-15T07:39:41.074Z</time>
      </trkpt>
      <trkpt lat="58.96648194640875" lon="14.065138958394527">
        <ele>61.49</ele>
        <time>2025-02-15T07:40:32.185Z</time>
      </trkpt>
      <trkpt lat="58.96655193530023" lon="14.065221939235926">
        <ele>61.57</ele>
        <time>2025-02-15T07:41:23.297Z</time>
      </trkpt>
      <trkpt lat="58.966619996353984" lon="14.065304920077324">
        <ele>61.66</ele>
        <time>2025-02-15T07:42:14.411Z</time>
      </trkpt>
      <trkpt lat="58.966686967760324" lon="14.065388990566134">
        <ele>61.75</ele>
        <time>2025-02-15T07:43:05.526Z</time>
      </trkpt>
      <trkpt lat="58.966752933338284" lon="14.065473983064294">
        <ele>61.85</ele>
        <time>2025-02-15T07:43:56.642Z</time>
      </trkpt>
      <trkpt lat="58.966817976906896" lon="14.065560987219214">
        <ele>61.94</ele>
        <time>2025-02-15T07:44:47.760Z</time>
      </trkpt>
      <trkpt lat="58.966881930828094" lon="14.065649919211864">
        <ele>62.04</ele>
        <time>2025-02-15T07:45:38.879Z</time>
      </trkpt>
      <trkpt lat="58.966945968568325" lon="14.065737929195166">
        <ele>62.14</ele>
        <time>2025-02-15T07:46:29.999Z</time>
      </trkpt>
      <trkpt lat="58.96700891666114" lon="14.065825939178467">
        <ele>62.24</ele>
        <time>2025-02-15T07:47:21.120Z</time>
      </trkpt>
      <trkpt lat="58.96707094274461" lon="14.06591797247529">
        <ele>62.35</ele>
        <time>2025-02-15T07:48:12.243Z</time>
      </trkpt>
      <trkpt lat="58.96713397465646" lon="14.066010927781463">
        <ele>62.45</ele>
        <time>2025-02-15T07:49:03.367Z</time>
      </trkpt>
      <trkpt lat="58.96719398908317" lon="14.066104972735047">
        <ele>62.56</ele>
        <time>2025-02-15T07:49:54.492Z</time>
      </trkpt>
      <trkpt lat="58.96725391969085" lon="14.06619993969798">
        <ele>62.68</ele>
        <time>2025-02-15T07:50:45.618Z</time>
      </trkpt>
      <trkpt lat="58.967313934117556" lon="14.066292978823185">
        <ele>62.79</ele>
        <time>2025-02-15T07:51:36.746Z</time>
      </trkpt>
      <trkpt lat="58.967373948544264" lon="14.066385934129357">
        <ele>62.91</ele>
        <time>2025-02-15T07:52:27.875Z</time>
      </trkpt>
      <trkpt lat="58.96743295714259" lon="14.066478973254561">
        <ele>63.03</ele>
        <time>2025-02-15T07:53:19.005Z</time>
      </trkpt>
      <trkpt lat="58.96749095991254" lon="14.066571928560734">
        <ele>63.16</ele>
        <time>2025-02-15T07:54:10.136Z</time>
      </trkpt>
      <trkpt lat="58.967549968510866" lon="14.066665973514318">
        <ele>63.28</ele>
        <time>2025-02-15T07:55:01.268Z</time>
      </trkpt>
      <trkpt lat="58.967609982937574" lon="14.066760940477252">
        <ele>63.41</ele>
        <time>2025-02-15T07:55:52.402Z</time>
      </trkpt>
      <trkpt lat="58.9676689915359" lon="14.066853979602456">
        <ele>63.53</ele>
        <time>2025-02-15T07:56:43.537Z</time>
      </trkpt>
      <trkpt lat="58.96772992797196" lon="14.066944923251867">
        <ele>63.65</ele>
        <time>2025-02-15T07:57:34.673Z</time>
      </trkpt>
      <trkpt lat="58.96779094822705" lon="14.06703695654869">
        <ele>63.77</ele>
        <time>2025-02-15T07:58:25.810Z</time>
      </trkpt>
      <trkpt lat="58.967849956825376" lon="14.067128989845514">
        <ele>63.89</ele>
        <time>2025-02-15T07:59:16.949Z</time>
      </trkpt>
      <trkpt lat="58.96790795959532" lon="14.067221945151687">
        <ele>64.01</ele>
        <time>2025-02-15T08:00:08.089Z</time>
      </trkpt>
      <trkpt lat="58.96796696819365" lon="14.06731498427689">
        <ele>64.14</ele>
        <time>2025-02-15T08:00:59.230Z</time>
      </trkpt>
      <trkpt lat="58.9680249709636" lon="14.067407939583063">
        <ele>64.26</ele>
        <time>2025-02-15T08:01:50.372Z</time>
      </trkpt>
      <trkpt lat="58.968084985390306" lon="14.067501984536648">
        <ele>64.39</ele>
        <time>2025-02-15T08:02:41.515Z</time>
      </trkpt>
      <trkpt lat="58.968144999817014" lon="14.0675959456712">
        <ele>64.51</ele>
        <time>2025-02-15T08:03:32.660Z</time>
      </trkpt>
      <trkpt lat="58.96820291876793" lon="14.067689990624785">
        <ele>64.64</ele>
        <time>2025-02-15T08:04:23.806Z</time>
      </trkpt>
      <trkpt lat="58.96826393902302" lon="14.067781940102577">
        <ele>64.77</ele>
        <time>2025-02-15T08:05:14.953Z</time>
      </trkpt>
      <trkpt lat="58.968323953449726" lon="14.067875985056162">
        <ele>64.91</ele>
        <time>2025-02-15T08:06:06.101Z</time>
      </trkpt>
      <trkpt lat="58.968382962048054" lon="14.067968940362334">
        <ele>65.05</ele>
        <time>2025-02-15T08:06:57.251Z</time>
      </trkpt>
      <trkpt lat="58.96844398230314" lon="14.068061979487538">
        <ele>65.19</ele>
        <time>2025-02-15T08:07:48.402Z</time>
      </trkpt>
      <trkpt lat="58.96850299090147" lon="14.068157952278852">
        <ele>65.33</ele>
        <time>2025-02-15T08:08:39.554Z</time>
      </trkpt>
      <trkpt lat="58.9685619994998" lon="14.068252919241786">
        <ele>65.47</ele>
        <time>2025-02-15T08:09:30.707Z</time>
      </trkpt>
      <trkpt lat="58.968620924279094" lon="14.068347970023751">
        <ele>65.62</ele>
        <time>2025-02-15T08:10:21.862Z</time>
      </trkpt>
      <trkpt lat="58.96868194453418" lon="14.068443942815065">
        <ele>65.76</ele>
        <time>2025-02-15T08:11:13.018Z</time>
      </trkpt>
      <trkpt lat="58.96874195896089" lon="14.06854092143476">
        <ele>65.9</ele>
        <time>2025-02-15T08:12:04.175Z</time>
      </trkpt>
      <trkpt lat="58.96880297921598" lon="14.068636978045106">
        <ele>66.04</ele>
        <time>2025-02-15T08:12:55.333Z</time>
      </trkpt>
      <trkpt lat="58.96886198781431" lon="14.06873295083642">
        <ele>66.19</ele>
        <time>2025-02-15T08:13:46.493Z</time>
      </trkpt>
      <trkpt lat="58.968921918421984" lon="14.068826995790005">
        <ele>66.33</ele>
        <time>2025-02-15T08:14:37.654Z</time>
      </trkpt>
      <trkpt lat="58.96898193284869" lon="14.068919951096177">
        <ele>66.47</ele>
        <time>2025-02-15T08:15:28.816Z</time>
      </trkpt>
      <trkpt lat="58.96904094144702" lon="14.069012990221381">
        <ele>66.61</ele>
        <time>2025-02-15T08:16:19.979Z</time>
      </trkpt>
      <trkpt lat="58.96910196170211" lon="14.069107957184315">
        <ele>66.74</ele>
        <time>2025-02-15T08:17:11.144Z</time>
      </trkpt>
      <trkpt lat="58.9691629819572" lon="14.069202924147248">
        <ele>66.88</ele>
        <time>2025-02-15T08:18:02.310Z</time>
      </trkpt>
      <trkpt lat="58.969223918393254" lon="14.069299986585975">
        <ele>67.01</ele>
        <time>2025-02-15T08:18:53.477Z</time>
      </trkpt>
      <trkpt lat="58.96928493864834" lon="14.06939897686243">
        <ele>67.14</ele>
        <time>2025-02-15T08:19:44.645Z</time>
      </trkpt>
      <trkpt lat="58.96934595890343" lon="14.069497967138886">
        <ele>67.27</ele>
        <time>2025-02-15T08:20:35.815Z</time>
      </trkpt>
      <trkpt lat="58.96940697915852" lon="14.069594945758581">
        <ele>67.4</ele>
        <time>2025-02-15T08:21:26.986Z</time>
      </trkpt>
      <trkpt lat="58.96946992725134" lon="14.069691924378276">
        <ele>67.53</ele>
        <time>2025-02-15T08:22:18.158Z</time>
      </trkpt>
      <trkpt lat="58.96953295916319" lon="14.069788986817002">
        <ele>67.66</ele>
        <time>2025-02-15T08:23:09.331Z</time>
      </trkpt>
      <trkpt lat="58.96959498524666" lon="14.069885965436697">
        <ele>67.79</ele>
        <time>2025-02-15T08:24:00.506Z</time>
      </trkpt>
      <trkpt lat="58.969656927511096" lon="14.069983949884772">
        <ele>67.92</ele>
        <time>2025-02-15T08:24:51.682Z</time>
      </trkpt>
      <trkpt lat="58.969717947766185" lon="14.07008495181799">
        <ele>68.06</ele>
        <time>2025-02-15T08:25:42.859Z</time>
      </trkpt>
      <trkpt lat="58.969779973849654" lon="14.070185953751206">
        <ele>68.19</ele>
        <time>2025-02-15T08:26:34.038Z</time>
      </trkpt>
      <trkpt lat="58.96984292194247" lon="14.070285949856043">
        <ele>68.32</ele>
        <time>2025-02-15T08:27:25.218Z</time>
      </trkpt>
      <trkpt lat="58.96990494802594" lon="14.07038795761764">
        <ele>68.46</ele>
        <time>2025-02-15T08:28:16.399Z</time>
      </trkpt>
      <trkpt lat="58.96996797993779" lon="14.070487953722477">
        <ele>68.59</ele>
        <time>2025-02-15T08:29:07.582Z</time>
      </trkpt>
      <trkpt lat="58.97002992220223" lon="14.070587949827313">
        <ele>68.72</ele>
        <time>2025-02-15T08:29:58.766Z</time>
      </trkpt>
      <trkpt lat="58.9700919482857" lon="14.07068794593215">
        <ele>68.86</ele>
        <time>2025-02-15T08:30:49.951Z</time>
      </trkpt>
      <trkpt lat="58.97015296854079" lon="14.070788947865367">
        <ele>68.99</ele>
        <time>2025-02-15T08:31:41.137Z</time>
      </trkpt>
      <trkpt lat="58.97021499462426" lon="14.070888943970203">
        <ele>69.12</ele>
        <time>2025-02-15T08:32:32.325Z</time>
      </trkpt>
      <trkpt lat="58.970275931060314" lon="14.07098994590342">
        <ele>69.25</ele>
        <time>2025-02-15T08:33:23.514Z</time>
      </trkpt>
      <trkpt lat="58.97033594548702" lon="14.071089942008257">
        <ele>69.38</ele>
        <time>2025-02-15T08:34:14.704Z</time>
      </trkpt>
      <trkpt lat="58.97039495408535" lon="14.071189938113093">
        <ele>69.5</ele>
        <time>2025-02-15T08:35:05.895Z</time>
      </trkpt>
      <trkpt lat="58.97045597434044" lon="14.071287922561169">
        <ele>69.63</ele>
        <time>2025-02-15T08:35:57.088Z</time>
      </trkpt>
      <trkpt lat="58.97051598876715" lon="14.071387918666005">
        <ele>69.75</ele>
        <time>2025-02-15T08:36:48.282Z</time>
      </trkpt>
      <trkpt lat="58.970577931031585" lon="14.071488920599222">
        <ele>69.86</ele>
        <time>2025-02-15T08:37:39.477Z</time>
      </trkpt>
      <trkpt lat="58.97063794545829" lon="14.07158799469471">
        <ele>69.98</ele>
        <time>2025-02-15T08:38:30.674Z</time>
      </trkpt>
      <trkpt lat="58.97069494239986" lon="14.071686984971166">
        <ele>70.09</ele>
        <time>2025-02-15T08:39:21.872Z</time>
      </trkpt>
      <trkpt lat="58.97075294516981" lon="14.07178396359086">
        <ele>70.2</ele>
        <time>2025-02-15T08:40:13.071Z</time>
      </trkpt>
      <trkpt lat="58.97081094793975" lon="14.071880942210555">
        <ele>70.31</ele>
        <time>2025-02-15T08:41:04.271Z</time>
      </trkpt>
      <trkpt lat="58.97086995653808" lon="14.07197599299252">
        <ele>70.41</ele>
        <time>2025-02-15T08:41:55.473Z</time>
      </trkpt>
      <trkpt lat="58.97092795930803" lon="14.072070959955454">
        <ele>70.51</ele>
        <time>2025-02-15T08:42:46.676Z</time>
      </trkpt>
      <trkpt lat="58.970983950421214" lon="14.072166932746768">
        <ele>70.61</ele>
        <time>2025-02-15T08:43:37.880Z</time>
      </trkpt>
      <trkpt lat="58.97104396484792" lon="14.072262989357114">
        <ele>70.71</ele>
        <time>2025-02-15T08:44:29.085Z</time>
      </trkpt>
      <trkpt lat="58.97110297344625" lon="14.072355944663286">
        <ele>70.8</ele>
        <time>2025-02-15T08:45:20.291Z</time>
      </trkpt>
      <trkpt lat="58.9711609762162" lon="14.07244898378849">
        <ele>70.89</ele>
        <time>2025-02-15T08:46:11.499Z</time>
      </trkpt>
      <trkpt lat="58.97121696732938" lon="14.072543950751424">
        <ele>70.97</ele>
        <time>2025-02-15T08:47:02.708Z</time>
      </trkpt>
      <trkpt lat="58.97127396427095" lon="14.072640929371119">
        <ele>71.05</ele>
        <time>2025-02-15T08:47:53.918Z</time>
      </trkpt>
      <trkpt lat="58.971331967040896" lon="14.072737991809845">
        <ele>71.13</ele>
        <time>2025-02-15T08:48:45.129Z</time>
      </trkpt>
      <trkpt lat="58.97138896398246" lon="14.072832958772779">
        <ele>71.21</ele>
        <time>2025-02-15T08:49:36.341Z</time>
      </trkpt>
      <trkpt lat="58.97144495509565" lon="14.072927925735712">
        <ele>71.28</ele>
        <time>2025-02-15T08:50:27.555Z</time>
      </trkpt>
      <trkpt lat="58.971500946208835" lon="14.073021970689297">
        <ele>71.35</ele>
        <time>2025-02-15T08:51:18.770Z</time>
      </trkpt>
      <trkpt lat="58.97155593149364" lon="14.07311794348061">
        <ele>71.41</ele>
        <time>2025-02-15T08:52:09.986Z</time>
      </trkpt>
      <trkpt lat="58.971608988940716" lon="14.073212994262576">
        <ele>71.47</ele>
        <time>2025-02-15T08:53:01.203Z</time>
      </trkpt>
      <trkpt lat="58.97166196256876" lon="14.073304943740368">
        <ele>71.54</ele>
        <time>2025-02-15T08:53:52.421Z</time>
      </trkpt>
      <trkpt lat="58.971717953681946" lon="14.073396977037191">
        <ele>71.6</ele>
        <time>2025-02-15T08:54:43.641Z</time>
      </trkpt>
      <trkpt lat="58.97177293896675" lon="14.073489932343364">
        <ele>71.66</ele>
        <time>2025-02-15T08:55:34.862Z</time>
      </trkpt>
      <trkpt lat="58.97182893007994" lon="14.073581965640187">
        <ele>71.71</ele>
        <time>2025-02-15T08:56:26.084Z</time>
      </trkpt>
      <trkpt lat="58.97188492119312" lon="14.07367592677474">
        <ele>71.76</ele>
        <time>2025-02-15T08:57:17.307Z</time>
      </trkpt>
      <trkpt lat="58.97194099612534" lon="14.073773995041847">
        <ele>71.81</ele>
        <time>2025-02-15T08:58:08.531Z</time>
      </trkpt>
      <trkpt lat="58.97199899889529" lon="14.073871979489923">
        <ele>71.85</ele>
        <time>2025-02-15T08:58:59.756Z</time>
      </trkpt>
      <trkpt lat="58.97205792367458" lon="14.073969963937998">
        <ele>71.89</ele>
        <time>2025-02-15T08:59:50.983Z</time>
      </trkpt>
      <trkpt lat="58.97211592644453" lon="14.074067948386073">
        <ele>71.92</ele>
        <time>2025-02-15T09:00:42.211Z</time>
      </trkpt>
      <trkpt lat="58.9721729233861" lon="14.074166938662529">
        <ele>71.95</ele>
        <time>2025-02-15T09:01:33.440Z</time>
      </trkpt>
      <trkpt lat="58.972230926156044" lon="14.074267940595746">
        <ele>71.97</ele>
        <time>2025-02-15T09:02:24.670Z</time>
      </trkpt>
      <trkpt lat="58.97229094058275" lon="14.074366930872202">
        <ele>71.99</ele>
        <time>2025-02-15T09:03:15.902Z</time>
      </trkpt>
      <trkpt lat="58.97235196083784" lon="14.074465921148658">
        <ele>72.01</ele>
        <time>2025-02-15T09:04:07.135Z</time>
      </trkpt>
      <trkpt lat="58.97241197526455" lon="14.074567928910255">
        <ele>72.03</ele>
        <time>2025-02-15T09:04:58.369Z</time>
      </trkpt>
      <trkpt lat="58.97247391752899" lon="14.074669936671853">
        <ele>72.04</ele>
        <time>2025-02-15T09:05:49.605Z</time>
      </trkpt>
      <trkpt lat="58.972535943612456" lon="14.07477194443345">
        <ele>72.06</ele>
        <time>2025-02-15T09:06:40.842Z</time>
      </trkpt>
      <trkpt lat="58.972597969695926" lon="14.07487696968019">
        <ele>72.06</ele>
        <time>2025-02-15T09:07:32.080Z</time>
      </trkpt>
      <trkpt lat="58.972659995779395" lon="14.07498199492693">
        <ele>72.07</ele>
        <time>2025-02-15T09:08:23.320Z</time>
      </trkpt>
      <trkpt lat="58.97272294387221" lon="14.075086936354637">
        <ele>72.08</ele>
        <time>2025-02-15T09:09:14.561Z</time>
      </trkpt>
      <trkpt lat="58.972786981612444" lon="14.075193973258138">
        <ele>72.08</ele>
        <time>2025-02-15T09:10:05.803Z</time>
      </trkpt>
      <trkpt lat="58.97285093553364" lon="14.075301932170987">
        <ele>72.09</ele>
        <time>2025-02-15T09:10:57.047Z</time>
      </trkpt>
      <trkpt lat="58.972915979102254" lon="14.075410980731249">
        <ele>72.08</ele>
        <time>2025-02-15T09:11:48.292Z</time>
      </trkpt>
      <trkpt lat="58.97298093885183" lon="14.07552195712924">
        <ele>72.08</ele>
        <time>2025-02-15T09:12:39.538Z</time>
      </trkpt>
      <trkpt lat="58.973046988248825" lon="14.07563192769885">
        <ele>72.07</ele>
        <time>2025-02-15T09:13:30.786Z</time>
      </trkpt>
      <trkpt lat="58.973112953826785" lon="14.075744999572635">
        <ele>72.06</ele>
        <time>2025-02-15T09:14:22.035Z</time>
      </trkpt>
      <trkpt lat="58.973179925233126" lon="14.075857987627387">
        <ele>72.04</ele>
        <time>2025-02-15T09:15:13.286Z</time>
      </trkpt>
      <trkpt lat="58.97324798628688" lon="14.07597198151052">
        <ele>72.02</ele>
        <time>2025-02-15T09:16:04.538Z</time>
      </trkpt>
      <trkpt lat="58.97331696934998" lon="14.076086981222034">
        <ele>71.99</ele>
        <time>2025-02-15T09:16:55.791Z</time>
      </trkpt>
      <trkpt lat="58.97338695824146" lon="14.076202986761928">
        <ele>71.96</ele>
        <time>2025-02-15T09:17:47.046Z</time>
      </trkpt>
      <trkpt lat="58.973456947132945" lon="14.076320920139551">
        <ele>71.92</ele>
        <time>2025-02-15T09:18:38.302Z</time>
      </trkpt>
      <trkpt lat="58.97352794185281" lon="14.076439943164587">
        <ele>71.88</ele>
        <time>2025-02-15T09:19:29.560Z</time>
      </trkpt>
      <trkpt lat="58.97359994240105" lon="14.076558966189623">
        <ele>71.83</ele>
        <time>2025-02-15T09:20:20.819Z</time>
      </trkpt>
      <trkpt lat="58.973671942949295" lon="14.07667899504304">
        <ele>71.78</ele>
        <time>2025-02-15T09:21:12.080Z</time>
      </trkpt>
      <trkpt lat="58.97374293766916" lon="14.076799945905805">
        <ele>71.73</ele>
        <time>2025-02-15T09:22:03.343Z</time>
      </trkpt>
      <trkpt lat="58.97381594404578" lon="14.076919974759221">
        <ele>71.67</ele>
        <time>2025-02-15T09:22:54.607Z</time>
      </trkpt>
      <trkpt lat="58.973886938765645" lon="14.077040925621986">
        <ele>71.61</ele>
        <time>2025-02-15T09:23:45.873Z</time>
      </trkpt>
      <trkpt lat="58.97395893931389" lon="14.077161960303783">
        <ele>71.54</ele>
        <time>2025-02-15T09:24:37.140Z</time>
      </trkpt>
      <trkpt lat="58.97403093986213" lon="14.07728299498558">
        <ele>71.47</ele>
        <time>2025-02-15T09:25:28.409Z</time>
      </trkpt>
      <trkpt lat="58.974102940410376" lon="14.077403945848346">
        <ele>71.4</ele>
        <time>2025-02-15T09:26:19.679Z</time>
      </trkpt>
      <trkpt lat="58.974175946787" lon="14.077525986358523">
        <ele>71.34</ele>
        <time>2025-02-15T09:27:10.951Z</time>
      </trkpt>
      <trkpt lat="58.974248953163624" lon="14.077645931392908">
        <ele>71.27</ele>
        <time>2025-02-15T09:28:02.224Z</time>
      </trkpt>
      <trkpt lat="58.97432195954025" lon="14.077765960246325">
        <ele>71.19</ele>
        <time>2025-02-15T09:28:53.499Z</time>
      </trkpt>
      <trkpt lat="58.97439597174525" lon="14.077885989099741">
        <ele>71.11</ele>
        <time>2025-02-15T09:29:44.775Z</time>
      </trkpt>
      <trkpt lat="58.974467972293496" lon="14.078005934134126">
        <ele>71.02</ele>
        <time>2025-02-15T09:30:36.053Z</time>
      </trkpt>
      <trkpt lat="58.97453997284174" lon="14.078123951330781">
        <ele>70.94</ele>
        <time>2025-02-15T09:31:27.332Z</time>
      </trkpt>
      <trkpt lat="58.974614990875125" lon="14.078239956870675">
        <ele>70.85</ele>
        <time>2025-02-15T09:32:18.613Z</time>
      </trkpt>
      <trkpt lat="58.97468992508948" lon="14.078354956582189">
        <ele>70.76</ele>
        <time>2025-02-15T09:33:09.895Z</time>
      </trkpt>
      <trkpt lat="58.974766954779625" lon="14.078469956293702">
        <ele>70.67</ele>
        <time>2025-02-15T09:34:01.179Z</time>
      </trkpt>
      <trkpt lat="58.97484297864139" lon="14.078581938520074">
        <ele>70.58</ele>
        <time>2025-02-15T09:34:52.465Z</time>
      </trkpt>
      <trkpt lat="58.974918918684125" lon="14.078693920746446">
        <ele>70.49</ele>
        <time>2025-02-15T09:35:43.752Z</time>
      </trkpt>
      <trkpt lat="58.97499594837427" lon="14.078804980963469">
        <ele>70.4</ele>
        <time>2025-02-15T09:36:35.041Z</time>
      </trkpt>
      <trkpt lat="58.97507297806442" lon="14.078913945704699">
        <ele>70.3</ele>
        <time>2025-02-15T09:37:26.331Z</time>
      </trkpt>
      <trkpt lat="58.97515092976391" lon="14.0790209826082">
        <ele>70.2</ele>
        <time>2025-02-15T09:38:17.623Z</time>
      </trkpt>
      <trkpt lat="58.97522896528244" lon="14.07912994734943">
        <ele>70.09</ele>
        <time>2025-02-15T09:39:08.916Z</time>
      </trkpt>
      <trkpt lat="58.975304989144206" lon="14.07923799008131">
        <ele>69.99</ele>
        <time>2025-02-15T09:40:00.211Z</time>
      </trkpt>
      <trkpt lat="58.97538193501532" lon="14.079343937337399">
        <ele>69.88</ele>
        <time>2025-02-15T09:40:51.507Z</time>
      </trkpt>
      <trkpt lat="58.97545896470547" lon="14.079449968412519">
        <ele>69.77</ele>
        <time>2025-02-15T09:41:42.805Z</time>
      </trkpt>
      <trkpt lat="58.975535994395614" lon="14.079554993659258">
        <ele>69.65</ele>
        <time>2025-02-15T09:42:34.104Z</time>
      </trkpt>
      <trkpt lat="58.97561294026673" lon="14.079658929258585">
        <ele>69.54</ele>
        <time>2025-02-15T09:43:25.405Z</time>
      </trkpt>
      <trkpt lat="58.975688964128494" lon="14.079762948676944">
        <ele>69.42</ele>
        <time>2025-02-15T09:44:16.707Z</time>
      </trkpt>
      <trkpt lat="58.97576599381864" lon="14.079864956438541">
        <ele>69.3</ele>
        <time>2025-02-15T09:45:08.011Z</time>
      </trkpt>
      <trkpt lat="58.975841933861375" lon="14.079966964200139">
        <ele>69.18</ele>
        <time>2025-02-15T09:45:59.316Z</time>
      </trkpt>
      <trkpt lat="58.97591896355152" lon="14.080067966133356">
        <ele>69.05</ele>
        <time>2025-02-15T09:46:50.623Z</time>
      </trkpt>
      <trkpt lat="58.97599699907005" lon="14.080167962238193">
        <ele>68.92</ele>
        <time>2025-02-15T09:47:41.931Z</time>
      </trkpt>
      <trkpt lat="58.97607394494116" lon="14.080264940857887">
        <ele>68.79</ele>
        <time>2025-02-15T09:48:33.241Z</time>
      </trkpt>
      <trkpt lat="58.97615097463131" lon="14.080357979983091">
        <ele>68.65</ele>
        <time>2025-02-15T09:49:24.552Z</time>
      </trkpt>
      <trkpt lat="58.976227920502424" lon="14.080451941117644">
        <ele>68.51</ele>
        <time>2025-02-15T09:50:15.865Z</time>
      </trkpt>
      <trkpt lat="58.97630495019257" lon="14.080548919737339">
        <ele>68.38</ele>
        <time>2025-02-15T09:51:07.179Z</time>
      </trkpt>
      <trkpt lat="58.9763829857111" lon="14.08063793554902">
        <ele>68.24</ele>
        <time>2025-02-15T09:51:58.495Z</time>
      </trkpt>
      <trkpt lat="58.97645791992545" lon="14.08072393387556">
        <ele>68.1</ele>
        <time>2025-02-15T09:52:49.812Z</time>
      </trkpt>
      <trkpt lat="58.97653293795884" lon="14.080810938030481">
        <ele>67.95</ele>
        <time>2025-02-15T09:53:41.130Z</time>
      </trkpt>
      <trkpt lat="58.97660996764898" lon="14.080900959670544">
        <ele>67.8</ele>
        <time>2025-02-15T09:54:32.450Z</time>
      </trkpt>
      <trkpt lat="58.97668791934848" lon="14.080990981310606">
        <ele>67.65</ele>
        <time>2025-02-15T09:55:23.771Z</time>
      </trkpt>
      <trkpt lat="58.97676796652377" lon="14.081082930788398">
        <ele>67.5</ele>
        <time>2025-02-15T09:56:15.094Z</time>
      </trkpt>
      <trkpt lat="58.976848935708404" lon="14.081175969913602">
        <ele>67.34</ele>
        <time>2025-02-15T09:57:06.418Z</time>
      </trkpt>
      <trkpt lat="58.97692998871207" lon="14.081271942704916">
        <ele>67.18</ele>
        <time>2025-02-15T09:57:57.744Z</time>
      </trkpt>
      <trkpt lat="58.97701397538185" lon="14.081369927152991">
        <ele>67.01</ele>
        <time>2025-02-15T09:58:49.071Z</time>
      </trkpt>
      <trkpt lat="58.97709896788001" lon="14.081468917429447">
        <ele>66.84</ele>
        <time>2025-02-15T09:59:40.400Z</time>
      </trkpt>
      <trkpt lat="58.97718396037817" lon="14.081566985696554">
        <ele>66.67</ele>
        <time>2025-02-15T10:00:31.731Z</time>
      </trkpt>
      <trkpt lat="58.97726895287633" lon="14.08166497014463">
        <ele>66.5</ele>
        <time>2025-02-15T10:01:23.063Z</time>
      </trkpt>
      <trkpt lat="58.97735293954611" lon="14.081763960421085">
        <ele>66.32</ele>
        <time>2025-02-15T10:02:14.397Z</time>
      </trkpt>
      <trkpt lat="58.97743793204427" lon="14.081862950697541">
        <ele>66.14</ele>
        <time>2025-02-15T10:03:05.732Z</time>
      </trkpt>
      <trkpt lat="58.97752393037081" lon="14.081962946802378">
        <ele>65.96</ele>
        <time>2025-02-15T10:03:57.069Z</time>
      </trkpt>
      <trkpt lat="58.97761093452573" lon="14.082062942907214">
        <ele>65.77</ele>
        <time>2025-02-15T10:04:48.408Z</time>
      </trkpt>
      <trkpt lat="58.97769793868065" lon="14.08216092735529">
        <ele>65.59</ele>
        <time>2025-02-15T10:05:39.748Z</time>
      </trkpt>
      <trkpt lat="58.97778293117881" lon="14.082258995622396">
        <ele>65.39</ele>
        <time>2025-02-15T10:06:31.090Z</time>
      </trkpt>
      <trkpt lat="58.97786792367697" lon="14.082357985898852">
        <ele>65.2</ele>
        <time>2025-02-15T10:07:22.433Z</time>
      </trkpt>
      <trkpt lat="58.9779509883374" lon="14.082453958690166">
        <ele>65.0</ele>
        <time>2025-02-15T10:08:13.778Z</time>
      </trkpt>
      <trkpt lat="58.978031957522035" lon="14.082550937309861">
        <ele>64.8</ele>
        <time>2025-02-15T10:09:05.124Z</time>
      </trkpt>
      <trkpt lat="58.97811192087829" lon="14.082648921757936">
        <ele>64.59</ele>
        <time>2025-02-15T10:09:56.472Z</time>
      </trkpt>
      <trkpt lat="58.97819498553872" lon="14.082746990025043">
        <ele>64.39</ele>
        <time>2025-02-15T10:10:47.821Z</time>
      </trkpt>
      <trkpt lat="58.9782789722085" lon="14.082843968644738">
        <ele>64.2</ele>
        <time>2025-02-15T10:11:39.172Z</time>
      </trkpt>
      <trkpt lat="58.97836295887828" lon="14.082938935607672">
        <ele>64.01</ele>
        <time>2025-02-15T10:12:30.525Z</time>
      </trkpt>
      <trkpt lat="58.97844593971968" lon="14.083030968904495">
        <ele>63.81</ele>
        <time>2025-02-15T10:13:21.879Z</time>
      </trkpt>
      <trkpt lat="58.978527998551726" lon="14.083124930039048">
        <ele>63.62</ele>
        <time>2025-02-15T10:14:13.235Z</time>
      </trkpt>
      <trkpt lat="58.978610979393125" lon="14.083217969164252">
        <ele>63.42</ele>
        <time>2025-02-15T10:15:04.592Z</time>
      </trkpt>
      <trkpt lat="58.97869295440614" lon="14.083306984975934">
        <ele>63.22</ele>
        <time>2025-02-15T10:15:55.951Z</time>
      </trkpt>
      <trkpt lat="58.97877694107592" lon="14.083395916968584">
        <ele>63.02</ele>
        <time>2025-02-15T10:16:47.311Z</time>
      </trkpt>
      <trkpt lat="58.97885899990797" lon="14.083483926951885">
        <ele>62.82</ele>
        <time>2025-02-15T10:17:38.673Z</time>
      </trkpt>
      <trkpt lat="58.97894097492099" lon="14.083571936935186">
        <ele>62.61</ele>
        <time>2025-02-15T10:18:30.036Z</time>
      </trkpt>
      <trkpt lat="58.979022949934006" lon="14.083659946918488">
        <ele>62.41</ele>
        <time>2025-02-15T10:19:21.401Z</time>
      </trkpt>
      <trkpt lat="58.97910391911864" lon="14.083746951073408">
        <ele>62.2</ele>
        <time>2025-02-15T10:20:12.767Z</time>
      </trkpt>
      <trkpt lat="58.97918497212231" lon="14.08383496105671">
        <ele>61.99</ele>
        <time>2025-02-15T10:21:04.135Z</time>
      </trkpt>
      <trkpt lat="58.97926694713533" lon="14.08392196521163">
        <ele>61.78</ele>
        <time>2025-02-15T10:21:55.504Z</time>
      </trkpt>
      <trkpt lat="58.979347916319966" lon="14.08400695770979">
        <ele>61.58</ele>
        <time>2025-02-15T10:22:46.875Z</time>
      </trkpt>
      <trkpt lat="58.979427963495255" lon="14.08409295603633">
        <ele>61.37</ele>
        <time>2025-02-15T10:23:38.247Z</time>
      </trkpt>
      <trkpt lat="58.97950792685151" lon="14.08418096601963">
        <ele>61.16</ele>
        <time>2025-02-15T10:24:29.621Z</time>
      </trkpt>
      <trkpt lat="58.9795879740268" lon="14.084268976002932">
        <ele>60.96</ele>
        <time>2025-02-15T10:25:20.996Z</time>
      </trkpt>
      <trkpt lat="58.979665925726295" lon="14.084355980157852">
        <ele>60.75</ele>
        <time>2025-02-15T10:26:12.373Z</time>
      </trkpt>
      <trkpt lat="58.97974396124482" lon="14.084439966827631">
        <ele>60.55</ele>
        <time>2025-02-15T10:27:03.751Z</time>
      </trkpt>
      <trkpt lat="58.9798229187727" lon="14.08452395349741">
        <ele>60.34</ele>
        <time>2025-02-15T10:27:55.130Z</time>
      </trkpt>
      <trkpt lat="58.979901960119605" lon="14.08460995182395">
        <ele>60.13</ele>
        <time>2025-02-15T10:28:46.511Z</time>
      </trkpt>
      <trkpt lat="58.97997898980975" lon="14.08469494432211">
        <ele>59.93</ele>
        <time>2025-02-15T10:29:37.893Z</time>
      </trkpt>
      <trkpt lat="58.980055935680866" lon="14.084777925163507">
        <ele>59.72</ele>
        <time>2025-02-15T10:30:29.277Z</time>
      </trkpt>
      <trkpt lat="58.98013296537101" lon="14.084859983995557">
        <ele>59.51</ele>
        <time>2025-02-15T10:31:20.662Z</time>
      </trkpt>
      <trkpt lat="58.98020898923278" lon="14.084944976493716">
        <ele>59.3</ele>
        <time>2025-02-15T10:32:12.049Z</time>
      </trkpt>
      <trkpt lat="58.98028593510389" lon="14.085030974820256">
        <ele>59.09</ele>
        <time>2025-02-15T10:33:03.437Z</time>
      </trkpt>
      <trkpt lat="58.98036296479404" lon="14.085118984803557">
        <ele>58.87</ele>
        <time>2025-02-15T10:33:54.826Z</time>
      </trkpt>
      <trkpt lat="58.980438988655806" lon="14.08521294593811">
        <ele>58.66</ele>
        <time>2025-02-15T10:34:46.217Z</time>
      </trkpt>
      <trkpt lat="58.98051492869854" lon="14.085311936214566">
        <ele>58.44</ele>
        <time>2025-02-15T10:35:37.609Z</time>
      </trkpt>
      <trkpt lat="58.980589946731925" lon="14.085413943976164">
        <ele>58.23</ele>
        <time>2025-02-15T10:36:29.003Z</time>
      </trkpt>
      <trkpt lat="58.98066295310855" lon="14.085516957566142">
        <ele>58.01</ele>
        <time>2025-02-15T10:37:20.398Z</time>
      </trkpt>
      <trkpt lat="58.98073595948517" lon="14.085622988641262">
        <ele>57.8</ele>
        <time>2025-02-15T10:38:11.795Z</time>
      </trkpt>
      <trkpt lat="58.9808089658618" lon="14.085731953382492">
        <ele>57.59</ele>
        <time>2025-02-15T10:39:03.193Z</time>
      </trkpt>
      <trkpt lat="58.9808829780668" lon="14.085840918123722">
        <ele>57.38</ele>
        <time>2025-02-15T10:39:54.593Z</time>
      </trkpt>
      <trkpt lat="58.98095699027181" lon="14.085950972512364">
        <ele>57.16</ele>
        <time>2025-02-15T10:40:45.994Z</time>
      </trkpt>
      <trkpt lat="58.98103091865778" lon="14.086062954738736">
        <ele>56.95</ele>
        <time>2025-02-15T10:41:37.397Z</time>
      </trkpt>
      <trkpt lat="58.98110291920602" lon="14.086173931136727">
        <ele>56.74</ele>
        <time>2025-02-15T10:42:28.801Z</time>
      </trkpt>
      <trkpt lat="58.98117491975427" lon="14.086282979696989">
        <ele>56.53</ele>
        <time>2025-02-15T10:43:20.207Z</time>
      </trkpt>
      <trkpt lat="58.98124692030251" lon="14.086391944438219">
        <ele>56.31</ele>
        <time>2025-02-15T10:44:11.614Z</time>
      </trkpt>
      <trkpt lat="58.981319926679134" lon="14.08650292083621">
        <ele>56.09</ele>
        <time>2025-02-15T10:45:03.023Z</time>
      </trkpt>
      <trkpt lat="58.98139393888414" lon="14.086616998538375">
        <ele>55.88</ele>
        <time>2025-02-15T10:45:54.433Z</time>
      </trkpt>
      <trkpt lat="58.981469962745905" lon="14.086730992421508">
        <ele>55.67</ele>
        <time>2025-02-15T10:46:45.845Z</time>
      </trkpt>
      <trkpt lat="58.98154699243605" lon="14.08684498630464">
        <ele>55.46</ele>
        <time>2025-02-15T10:47:37.258Z</time>
      </trkpt>
      <trkpt lat="58.98162594996393" lon="14.086957974359393">
        <ele>55.26</ele>
        <time>2025-02-15T10:48:28.673Z</time>
      </trkpt>
      <trkpt lat="58.981707924976945" lon="14.087068950757384">
        <ele>55.05</ele>
        <time>2025-02-15T10:49:20.089Z</time>
      </trkpt>
      <trkpt lat="58.981793923303485" lon="14.087179927155375">
        <ele>54.85</ele>
        <time>2025-02-15T10:50:11.507Z</time>
      </trkpt>
      <trkpt lat="58.98188293911517" lon="14.087285958230495">
        <ele>54.65</ele>
        <time>2025-02-15T10:51:02.927Z</time>
      </trkpt>
      <trkpt lat="58.98197798989713" lon="14.08738293685019">
        <ele>54.45</ele>
        <time>2025-02-15T10:51:54.348Z</time>
      </trkpt>
      <trkpt lat="58.98207899183035" lon="14.08746994100511">
        <ele>54.25</ele>
        <time>2025-02-15T10:52:45.771Z</time>
      </trkpt>
      <trkpt lat="58.9821869507432" lon="14.087549988180399">
        <ele>54.05</ele>
        <time>2025-02-15T10:53:37.196Z</time>
      </trkpt>
      <trkpt lat="58.98229993879795" lon="14.087620982900262">
        <ele>53.85</ele>
        <time>2025-02-15T10:54:28.623Z</time>
      </trkpt>
      <trkpt lat="58.982414938509464" lon="14.087685942649841">
        <ele>53.65</ele>
        <time>2025-02-15T10:55:20.052Z</time>
      </trkpt>
      <trkpt lat="58.98253094404936" lon="14.087740927934647">
        <ele>53.45</ele>
        <time>2025-02-15T10:56:11.483Z</time>
      </trkpt>
      <trkpt lat="58.982650972902775" lon="14.087782921269536">
        <ele>53.25</ele>
        <time>2025-02-15T10:57:02.916Z</time>
      </trkpt>
      <trkpt lat="58.98277292959392" lon="14.087815945968032">
        <ele>53.04</ele>
        <time>2025-02-15T10:57:54.351Z</time>
      </trkpt>
      <trkpt lat="58.9828949701041" lon="14.087844947353005">
        <ele>52.84</ele>
        <time>2025-02-15T10:58:45.788Z</time>
      </trkpt>
      <trkpt lat="58.983015920966864" lon="14.087872942909598">
        <ele>52.64</ele>
        <time>2025-02-15T10:59:37.227Z</time>
      </trkpt>
      <trkpt lat="58.98313293233514" lon="14.087903955951333">
        <ele>52.45</ele>
        <time>2025-02-15T11:00:28.668Z</time>
      </trkpt>
      <trkpt lat="58.98324994370341" lon="14.087934968993068">
        <ele>52.25</ele>
        <time>2025-02-15T11:01:20.110Z</time>
      </trkpt>
      <trkpt lat="58.98336796090007" lon="14.08796296454966">
        <ele>52.07</ele>
        <time>2025-02-15T11:02:11.554Z</time>
      </trkpt>
      <trkpt lat="58.9834819547832" lon="14.087989954277873">
        <ele>51.88</ele>
        <time>2025-02-15T11:03:03.000Z</time>
      </trkpt>
      <trkpt lat="58.98359393700957" lon="14.088014932349324">
        <ele>51.68</ele>
        <time>2025-02-15T11:03:54.448Z</time>
      </trkpt>
      <trkpt lat="58.983704997226596" lon="14.088039994239807">
        <ele>51.5</ele>
        <time>2025-02-15T11:04:45.898Z</time>
      </trkpt>
      <trkpt lat="58.983813961967826" lon="14.088065978139639">
        <ele>51.31</ele>
        <time>2025-02-15T11:05:37.350Z</time>
      </trkpt>
      <trkpt lat="58.983921920880675" lon="14.08809095621109">
        <ele>51.12</ele>
        <time>2025-02-15T11:06:28.803Z</time>
      </trkpt>
      <trkpt lat="58.98402996361256" lon="14.088115934282541">
        <ele>50.94</ele>
        <time>2025-02-15T11:07:20.258Z</time>
      </trkpt>
      <trkpt lat="58.984135994687676" lon="14.088140996173024">
        <ele>50.76</ele>
        <time>2025-02-15T11:08:11.715Z</time>
      </trkpt>
      <trkpt lat="58.984239930287" lon="14.088167985901237">
        <ele>50.58</ele>
        <time>2025-02-15T11:09:03.173Z</time>
      </trkpt>
      <trkpt lat="58.9843419380486" lon="14.088193969801068">
        <ele>50.41</ele>
        <time>2025-02-15T11:09:54.633Z</time>
      </trkpt>
      <trkpt lat="58.98444293998182" lon="14.0882199537009">
        <ele>50.25</ele>
        <time>2025-02-15T11:10:46.095Z</time>
      </trkpt>
      <trkpt lat="58.984543941915035" lon="14.088244931772351">
        <ele>50.09</ele>
        <time>2025-02-15T11:11:37.558Z</time>
      </trkpt>
      <trkpt lat="58.98464293219149" lon="14.088272927328944">
        <ele>49.92</ele>
        <time>2025-02-15T11:12:29.023Z</time>
      </trkpt>
      <trkpt lat="58.98473999463022" lon="14.088302934542298">
        <ele>49.76</ele>
        <time>2025-02-15T11:13:20.490Z</time>
      </trkpt>
      <trkpt lat="58.98483395576477" lon="14.088334953412414">
        <ele>49.6</ele>
        <time>2025-02-15T11:14:11.958Z</time>
      </trkpt>
      <trkpt lat="58.984926994889975" lon="14.088370995596051">
        <ele>49.45</ele>
        <time>2025-02-15T11:15:03.428Z</time>
      </trkpt>
      <trkpt lat="58.98501995019615" lon="14.08841097727418">
        <ele>49.3</ele>
        <time>2025-02-15T11:15:54.899Z</time>
      </trkpt>
      <trkpt lat="58.98511198349297" lon="14.08845498226583">
        <ele>49.16</ele>
        <time>2025-02-15T11:16:46.372Z</time>
      </trkpt>
      <trkpt lat="58.98520393297076" lon="14.088502926751971">
        <ele>49.01</ele>
        <time>2025-02-15T11:17:37.846Z</time>
      </trkpt>
      <trkpt lat="58.985294960439205" lon="14.088554978370667">
        <ele>48.87</ele>
        <time>2025-02-15T11:18:29.322Z</time>
      </trkpt>
      <trkpt lat="58.98538397625089" lon="14.088611975312233">
        <ele>48.73</ele>
        <time>2025-02-15T11:19:20.799Z</time>
      </trkpt>
      <trkpt lat="58.98547299206257" lon="14.088671989738941">
        <ele>48.6</ele>
        <time>2025-02-15T11:20:12.278Z</time>
      </trkpt>
      <trkpt lat="58.98555999621749" lon="14.08873594366014">
        <ele>48.47</ele>
        <time>2025-02-15T11:21:03.758Z</time>
      </trkpt>
      <trkpt lat="58.98564691655338" lon="14.088806938380003">
        <ele>48.34</ele>
        <time>2025-02-15T11:21:55.240Z</time>
      </trkpt>
      <trkpt lat="58.98573199287057" lon="14.088881956413388">
        <ele>48.21</ele>
        <time>2025-02-15T11:22:46.723Z</time>
      </trkpt>
      <trkpt lat="58.98581597954035" lon="14.088958986103535">
        <ele>48.09</ele>
        <time>2025-02-15T11:23:38.208Z</time>
      </trkpt>
      <trkpt lat="58.985896948724985" lon="14.089039955288172">
        <ele>47.97</ele>
        <time>2025-02-15T11:24:29.694Z</time>
      </trkpt>
      <trkpt lat="58.98597699590027" lon="14.08912394195795">
        <ele>47.85</ele>
        <time>2025-02-15T11:25:21.182Z</time>
      </trkpt>
      <trkpt lat="58.98605494759977" lon="14.089212957769632">
        <ele>47.73</ele>
        <time>2025-02-15T11:26:12.671Z</time>
      </trkpt>
      <trkpt lat="58.986131977289915" lon="14.089304991066456">
        <ele>47.62</ele>
        <time>2025-02-15T11:27:04.162Z</time>
      </trkpt>
      <trkpt lat="58.98620791733265" lon="14.089394928887486">
        <ele>47.51</ele>
        <time>2025-02-15T11:27:55.654Z</time>
      </trkpt>
      <trkpt lat="58.98628092370927" lon="14.08948696218431">
        <ele>47.4</ele>
        <time>2025-02-15T11:28:47.147Z</time>
      </trkpt>
      <trkpt lat="58.98635099641979" lon="14.089579917490482">
        <ele>47.29</ele>
        <time>2025-02-15T11:29:38.642Z</time>
      </trkpt>
      <trkpt lat="58.98642098531127" lon="14.089673962444067">
        <ele>47.19</ele>
        <time>2025-02-15T11:30:30.138Z</time>
      </trkpt>
      <trkpt lat="58.98649097420275" lon="14.089772952720523">
        <ele>47.09</ele>
        <time>2025-02-15T11:31:21.635Z</time>
      </trkpt>
      <trkpt lat="58.98655895143747" lon="14.089876972138882">
        <ele>46.99</ele>
        <time>2025-02-15T11:32:13.134Z</time>
      </trkpt>
      <trkpt lat="58.986627934500575" lon="14.089984931051731">
        <ele>46.9</ele>
        <time>2025-02-15T11:33:04.634Z</time>
      </trkpt>
      <trkpt lat="58.986692978069186" lon="14.090094985440373">
        <ele>46.81</ele>
        <time>2025-02-15T11:33:56.136Z</time>
      </trkpt>
      <trkpt lat="58.986757937818766" lon="14.090203950181603">
        <ele>46.72</ele>
        <time>2025-02-15T11:34:47.639Z</time>
      </trkpt>
      <trkpt lat="58.986820969730616" lon="14.090311992913485">
        <ele>46.64</ele>
        <time>2025-02-15T11:35:39.143Z</time>
      </trkpt>
      <trkpt lat="58.986883917823434" lon="14.090418945997953">
        <ele>46.56</ele>
        <time>2025-02-15T11:36:30.649Z</time>
      </trkpt>
      <trkpt lat="58.98694292642176" lon="14.090529922395945">
        <ele>46.48</ele>
        <time>2025-02-15T11:37:22.156Z</time>
      </trkpt>
      <trkpt lat="58.98699698969722" lon="14.0906479395926">
        <ele>46.4</ele>
        <time>2025-02-15T11:38:13.664Z</time>
      </trkpt>
      <trkpt lat="58.987036971375346" lon="14.090781966224313">
        <ele>46.33</ele>
        <time>2025-02-15T11:39:05.174Z</time>
      </trkpt>
      <trkpt lat="58.9870479516685" lon="14.09092496149242">
        <ele>46.26</ele>
        <time>2025-02-15T11:39:56.685Z</time>
      </trkpt>
      <trkpt lat="58.987032948061824" lon="14.091059993952513">
        <ele>46.19</ele>
        <time>2025-02-15T11:40:48.197Z</time>
      </trkpt>
      <trkpt lat="58.98700495250523" lon="14.091196954250336">
        <ele>46.13</ele>
        <time>2025-02-15T11:41:39.710Z</time>
      </trkpt>
      <trkpt lat="58.986971927806735" lon="14.091338943690062">
        <ele>46.07</ele>
        <time>2025-02-15T11:42:31.224Z</time>
      </trkpt>
      <trkpt lat="58.98693798109889" lon="14.091481938958168">
        <ele>46.02</ele>
        <time>2025-02-15T11:43:22.740Z</time>
      </trkpt>
      <trkpt lat="58.986905962228775" lon="14.091624934226274">
        <ele>45.97</ele>
        <time>2025-02-15T11:44:14.257Z</time>
      </trkpt>
      <trkpt lat="58.98687394335866" lon="14.091767929494381">
        <ele>45.91</ele>
        <time>2025-02-15T11:45:05.775Z</time>
      </trkpt>
      <trkpt lat="58.986842930316925" lon="14.091908996924758">
        <ele>45.86</ele>
        <time>2025-02-15T11:45:57.295Z</time>
      </trkpt>
      <trkpt lat="58.98681099526584" lon="14.092047968879342">
        <ele>45.81</ele>
        <time>2025-02-15T11:46:48.816Z</time>
      </trkpt>
      <trkpt lat="58.98677998222411" lon="14.092180989682674">
        <ele>45.77</ele>
        <time>2025-02-15T11:47:40.338Z</time>
      </trkpt>
      <trkpt lat="58.98674796335399" lon="14.092310993000865">
        <ele>45.72</ele>
        <time>2025-02-15T11:48:31.861Z</time>
      </trkpt>
      <trkpt lat="58.98671795614064" lon="14.092436973005533">
        <ele>45.68</ele>
        <time>2025-02-15T11:49:23.385Z</time>
      </trkpt>
      <trkpt lat="58.986690966412425" lon="14.09256094135344">
        <ele>45.64</ele>
        <time>2025-02-15T11:50:14.911Z</time>
      </trkpt>
      <trkpt lat="58.98666498251259" lon="14.092679964378476">
        <ele>45.61</ele>
        <time>2025-02-15T11:51:06.438Z</time>
      </trkpt>
      <trkpt lat="58.98663899861276" lon="14.092790940776467">
        <ele>45.57</ele>
        <time>2025-02-15T11:51:57.966Z</time>
      </trkpt>
      <trkpt lat="58.9866129308939" lon="14.092893954366446">
        <ele>45.54</ele>
        <time>2025-02-15T11:52:49.495Z</time>
      </trkpt>
      <trkpt lat="58.986586946994066" lon="14.09299193881452">
        <ele>45.51</ele>
        <time>2025-02-15T11:53:41.025Z</time>
      </trkpt>
      <trkpt lat="58.986563980579376" lon="14.093083972111344">
        <ele>45.48</ele>
        <time>2025-02-15T11:54:32.555Z</time>
      </trkpt>
      <trkpt lat="58.986542942002416" lon="14.093168964609504">
        <ele>45.46</ele>
        <time>2025-02-15T11:55:24.086Z</time>
      </trkpt>
      <trkpt lat="58.98652399890125" lon="14.09324599429965">
        <ele>45.43</ele>
        <time>2025-02-15T11:56:15.618Z</time>
      </trkpt>
      <trkpt lat="58.98650698363781" lon="14.093315983191133">
        <ele>45.41</ele>
        <time>2025-02-15T11:57:07.150Z</time>
      </trkpt>
      <trkpt lat="58.98648695088923" lon="14.093372980132699">
        <ele>45.39</ele>
        <time>2025-02-15T11:57:58.683Z</time>
      </trkpt>
      <trkpt lat="58.9864609669894" lon="14.093401981517673">
        <ele>45.37</ele>
        <time>2025-02-15T11:58:50.217Z</time>
      </trkpt>
      <trkpt lat="58.986433977261186" lon="14.093393934890628">
        <ele>45.35</ele>
        <time>2025-02-15T11:59:41.751Z</time>
      </trkpt>
      <trkpt lat="58.986413944512606" lon="14.093364933505654">
        <ele>45.34</ele>
        <time>2025-02-15T12:00:33.285Z</time>
      </trkpt>
      <trkpt lat="58.98640095256269" lon="14.093325957655907">
        <ele>45.32</ele>
        <time>2025-02-15T12:01:24.820Z</time>
      </trkpt>
      <trkpt lat="58.98639994673431" lon="14.093279941007495">
        <ele>45.3</ele>
        <time>2025-02-15T12:02:16.355Z</time>
      </trkpt>
      <trkpt lat="58.986408999189734" lon="14.093238953500986">
        <ele>45.29</ele>
        <time>2025-02-15T12:03:07.891Z</time>
      </trkpt>
      <trkpt lat="58.98642299696803" lon="14.093199977651238">
        <ele>45.27</ele>
        <time>2025-02-15T12:03:59.427Z</time>
      </trkpt>
      <trkpt lat="58.98644093424082" lon="14.093165947124362">
        <ele>45.26</ele>
        <time>2025-02-15T12:04:50.963Z</time>
      </trkpt>
      <trkpt lat="58.98646197281778" lon="14.09313996322453">
        <ele>45.25</ele>
        <time>2025-02-15T12:05:42.500Z</time>
      </trkpt>
      <trkpt lat="58.98648393340409" lon="14.09311892464757">
        <ele>45.24</ele>
        <time>2025-02-15T12:06:34.037Z</time>
      </trkpt>
      <trkpt lat="58.98650798946619" lon="14.09309696406126">
        <ele>45.23</ele>
        <time>2025-02-15T12:07:25.575Z</time>
      </trkpt>
      <trkpt lat="58.98653397336602" lon="14.093069974333048">
        <ele>45.23</ele>
        <time>2025-02-15T12:08:17.113Z</time>
      </trkpt>
      <trkpt lat="58.986559957265854" lon="14.093040972948074">
        <ele>45.22</ele>
        <time>2025-02-15T12:09:08.651Z</time>
      </trkpt>
      <trkpt lat="58.986583929508924" lon="14.093004930764437">
        <ele>45.22</ele>
        <time>2025-02-15T12:10:00.190Z</time>
      </trkpt>
      <trkpt lat="58.98660094477236" lon="14.092961931601167">
        <ele>45.22</ele>
        <time>2025-02-15T12:10:51.729Z</time>
      </trkpt>
      <trkpt lat="58.9866179600358" lon="14.092907952144742">
        <ele>45.22</ele>
        <time>2025-02-15T12:11:43.269Z</time>
      </trkpt>
      <trkpt lat="58.98663799278438" lon="14.092847937718034">
        <ele>45.22</ele>
        <time>2025-02-15T12:12:34.810Z</time>
      </trkpt>
      <trkpt lat="58.98665894754231" lon="14.092779960483313">
        <ele>45.23</ele>
        <time>2025-02-15T12:13:26.351Z</time>
      </trkpt>
      <trkpt lat="58.98668099194765" lon="14.09270896576345">
        <ele>45.23</ele>
        <time>2025-02-15T12:14:17.893Z</time>
      </trkpt>
      <trkpt lat="58.98670295253396" lon="14.092632941901684">
        <ele>45.24</ele>
        <time>2025-02-15T12:15:09.436Z</time>
      </trkpt>
      <trkpt lat="58.98672197945416" lon="14.092550966888666">
        <ele>45.24</ele>
        <time>2025-02-15T12:16:00.979Z</time>
      </trkpt>
      <trkpt lat="58.98674092255533" lon="14.092468991875648">
        <ele>45.25</ele>
        <time>2025-02-15T12:16:52.523Z</time>
      </trkpt>
      <trkpt lat="58.98676196113229" lon="14.092385927215219">
        <ele>45.25</ele>
        <time>2025-02-15T12:17:44.068Z</time>
      </trkpt>
      <trkpt lat="58.98677998222411" lon="14.09230093471706">
        <ele>45.27</ele>
        <time>2025-02-15T12:18:35.614Z</time>
      </trkpt>
      <trkpt lat="58.986796997487545" lon="14.092212924733758">
        <ele>45.28</ele>
        <time>2025-02-15T12:19:27.160Z</time>
      </trkpt>
      <trkpt lat="58.98681392893195" lon="14.092126926407218">
        <ele>45.29</ele>
        <time>2025-02-15T12:20:18.707Z</time>
      </trkpt>
      <trkpt lat="58.98683195002377" lon="14.092040928080678">
        <ele>45.31</ele>
        <time>2025-02-15T12:21:10.255Z</time>
      </trkpt>
      <trkpt lat="58.98684896528721" lon="14.091955935582519">
        <ele>45.32</ele>
        <time>2025-02-15T12:22:01.804Z</time>
      </trkpt>
      <trkpt lat="58.98686899803579" lon="14.09187295474112">
        <ele>45.34</ele>
        <time>2025-02-15T12:22:53.353Z</time>
      </trkpt>
      <trkpt lat="58.98688894696534" lon="14.091788968071342">
        <ele>45.36</ele>
        <time>2025-02-15T12:23:44.903Z</time>
      </trkpt>
      <trkpt lat="58.98690897971392" lon="14.091704981401563">
        <ele>45.38</ele>
        <time>2025-02-15T12:24:36.454Z</time>
      </trkpt>
      <trkpt lat="58.986929934471846" lon="14.091622922569513">
        <ele>45.4</ele>
        <time>2025-02-15T12:25:28.006Z</time>
      </trkpt>
      <trkpt lat="58.98695197887719" lon="14.091541953384876">
        <ele>45.42</ele>
        <time>2025-02-15T12:26:19.558Z</time>
      </trkpt>
      <trkpt lat="58.98697494529188" lon="14.091459978371859">
        <ele>45.44</ele>
        <time>2025-02-15T12:27:11.111Z</time>
      </trkpt>
      <trkpt lat="58.9869979955256" lon="14.09137699753046">
        <ele>45.46</ele>
        <time>2025-02-15T12:28:02.665Z</time>
      </trkpt>
      <trkpt lat="58.98702196776867" lon="14.09129292704165">
        <ele>45.48</ele>
        <time>2025-02-15T12:28:54.220Z</time>
      </trkpt>
      <trkpt lat="58.98704694584012" lon="14.091211957857013">
        <ele>45.5</ele>
        <time>2025-02-15T12:29:45.776Z</time>
      </trkpt>
      <trkpt lat="58.98707393556833" lon="14.09114096313715">
        <ele>45.53</ele>
        <time>2025-02-15T12:30:37.332Z</time>
      </trkpt>
      <trkpt lat="58.98710394278169" lon="14.091088995337486">
        <ele>45.56</ele>
        <time>2025-02-15T12:31:28.889Z</time>
      </trkpt>
      <trkpt lat="58.9871359616518" lon="14.091060999780893">
        <ele>45.59</ele>
        <time>2025-02-15T12:32:20.447Z</time>
      </trkpt>
      <trkpt lat="58.98716999217868" lon="14.091052953153849">
        <ele>45.62</ele>
        <time>2025-02-15T12:33:12.005Z</time>
      </trkpt>
      <trkpt lat="58.98720293305814" lon="14.091060999780893">
        <ele>45.66</ele>
        <time>2025-02-15T12:34:03.564Z</time>
      </trkpt>
      <trkpt lat="58.9872329402715" lon="14.0910779312253">
        <ele>45.69</ele>
        <time>2025-02-15T12:34:55.123Z</time>
      </trkpt>
      <trkpt lat="58.98726093582809" lon="14.091107938438654">
        <ele>45.73</ele>
        <time>2025-02-15T12:35:46.683Z</time>
      </trkpt>
      <trkpt lat="58.9872879255563" lon="14.091148925945163">
        <ele>45.76</ele>
        <time>2025-02-15T12:36:38.243Z</time>
      </trkpt>
      <trkpt lat="58.987315921112895" lon="14.091199971735477">
        <ele>45.8</ele>
        <time>2025-02-15T12:37:29.804Z</time>
      </trkpt>
      <trkpt lat="58.98734391666949" lon="14.091257974505424">
        <ele>45.84</ele>
        <time>2025-02-15T12:38:21.365Z</time>
      </trkpt>
      <trkpt lat="58.98737392388284" lon="14.091322934255004">
        <ele>45.88</ele>
        <time>2025-02-15T12:39:12.927Z</time>
      </trkpt>
      <trkpt lat="58.98740493692458" lon="14.091396946460009">
        <ele>45.92</ele>
        <time>2025-02-15T12:40:04.490Z</time>
      </trkpt>
      <trkpt lat="58.98743695579469" lon="14.091478921473026">
        <ele>45.96</ele>
        <time>2025-02-15T12:40:56.054Z</time>
      </trkpt>
      <trkpt lat="58.98747098632157" lon="14.091566931456327">
        <ele>46.0</ele>
        <time>2025-02-15T12:41:47.619Z</time>
      </trkpt>
      <trkpt lat="58.987506944686174" lon="14.091660976409912">
        <ele>46.04</ele>
        <time>2025-02-15T12:42:39.185Z</time>
      </trkpt>
      <trkpt lat="58.98754499852657" lon="14.091759966686368">
        <ele>46.08</ele>
        <time>2025-02-15T12:43:30.752Z</time>
      </trkpt>
      <trkpt lat="58.98758397437632" lon="14.091861974447966">
        <ele>46.12</ele>
        <time>2025-02-15T12:44:22.320Z</time>
      </trkpt>
      <trkpt lat="58.98762194439769" lon="14.091968927532434">
        <ele>46.17</ele>
        <time>2025-02-15T12:45:13.889Z</time>
      </trkpt>
      <trkpt lat="58.987658992409706" lon="14.092077976092696">
        <ele>46.21</ele>
        <time>2025-02-15T12:46:05.459Z</time>
      </trkpt>
      <trkpt lat="58.987697968259454" lon="14.092187946662307">
        <ele>46.26</ele>
        <time>2025-02-15T12:46:57.030Z</time>
      </trkpt>
      <trkpt lat="58.98773593828082" lon="14.092299928888679">
        <ele>46.32</ele>
        <time>2025-02-15T12:47:48.602Z</time>
      </trkpt>
      <trkpt lat="58.9877749979496" lon="14.092412916943431">
        <ele>46.37</ele>
        <time>2025-02-15T12:48:40.175Z</time>
      </trkpt>
      <trkpt lat="58.98781397379935" lon="14.092528922483325">
        <ele>46.42</ele>
        <time>2025-02-15T12:49:31.749Z</time>
      </trkpt>
      <trkpt lat="58.98785496130586" lon="14.09264794550836">
        <ele>46.47</ele>
        <time>2025-02-15T12:50:23.325Z</time>
      </trkpt>
      <trkpt lat="58.987894942983985" lon="14.092768980190158">
        <ele>46.53</ele>
        <time>2025-02-15T12:51:14.902Z</time>
      </trkpt>
      <trkpt lat="58.98793391883373" lon="14.092893954366446">
        <ele>46.58</ele>
        <time>2025-02-15T12:52:06.480Z</time>
      </trkpt>
      <trkpt lat="58.98796996101737" lon="14.093021946027875">
        <ele>46.64</ele>
        <time>2025-02-15T12:52:58.059Z</time>
      </trkpt>
      <trkpt lat="58.98800399154425" lon="14.093150943517685">
        <ele>46.69</ele>
        <time>2025-02-15T12:53:49.639Z</time>
      </trkpt>
      <trkpt lat="58.98803693242371" lon="14.093280946835876">
        <ele>46.74</ele>
        <time>2025-02-15T12:54:41.221Z</time>
      </trkpt>
      <trkpt lat="58.988068951293826" lon="14.093412961810827">
        <ele>46.8</ele>
        <time>2025-02-15T12:55:32.804Z</time>
      </trkpt>
      <trkpt lat="58.98810097016394" lon="14.093544976785779">
        <ele>46.85</ele>
        <time>2025-02-15T12:56:24.388Z</time>
      </trkpt>
      <trkpt lat="58.988134916871786" lon="14.09367598593235">
        <ele>46.91</ele>
        <time>2025-02-15T12:57:15.973Z</time>
      </trkpt>
      <trkpt lat="58.988170959055424" lon="14.09380791708827">
        <ele>46.97</ele>
        <time>2025-02-15T12:58:07.559Z</time>
      </trkpt>
      <trkpt lat="58.98820691742003" lon="14.093938926234841">
        <ele>47.03</ele>
        <time>2025-02-15T12:58:59.147Z</time>
      </trkpt>
      <trkpt lat="58.98824195377529" lon="14.094071947038174">
        <ele>47.09</ele>
        <time>2025-02-15T12:59:50.736Z</time>
      </trkpt>
      <trkpt lat="58.98827598430216" lon="14.094204967841506">
        <ele>47.15</ele>
        <time>2025-02-15T13:00:42.326Z</time>
      </trkpt>
      <trkpt lat="58.98831093683839" lon="14.094337988644838">
        <ele>47.21</ele>
        <time>2025-02-15T13:01:33.917Z</time>
      </trkpt>
      <trkpt lat="58.988345973193645" lon="14.094470925629139">
        <ele>47.27</ele>
        <time>2025-02-15T13:02:25.510Z</time>
      </trkpt>
      <trkpt lat="58.98838092572987" lon="14.094605958089232">
        <ele>47.33</ele>
        <time>2025-02-15T13:03:17.104Z</time>
      </trkpt>
      <trkpt lat="58.98841495625675" lon="14.094739984720945">
        <ele>47.39</ele>
        <time>2025-02-15T13:04:08.699Z</time>
      </trkpt>
      <trkpt lat="58.988449992612004" lon="14.094873927533627">
        <ele>47.44</ele>
        <time>2025-02-15T13:05:00.295Z</time>
      </trkpt>
      <trkpt lat="58.98848595097661" lon="14.095006948336959">
        <ele>47.5</ele>
        <time>2025-02-15T13:05:51.893Z</time>
      </trkpt>
      <trkpt lat="58.98852199316025" lon="14.09513896331191">
        <ele>47.55</ele>
        <time>2025-02-15T13:06:43.492Z</time>
      </trkpt>
      <trkpt lat="58.988558957353234" lon="14.095269972458482">
        <ele>47.61</ele>
        <time>2025-02-15T13:07:35.092Z</time>
      </trkpt>
      <trkpt lat="58.98859592154622" lon="14.095399975776672">
        <ele>47.67</ele>
        <time>2025-02-15T13:08:26.693Z</time>
      </trkpt>
      <trkpt lat="58.98863296955824" lon="14.095526961609721">
        <ele>47.73</ele>
        <time>2025-02-15T13:09:18.296Z</time>
      </trkpt>
      <trkpt lat="58.98867194540799" lon="14.095651935786009">
        <ele>47.79</ele>
        <time>2025-02-15T13:10:09.900Z</time>
      </trkpt>
      <trkpt lat="58.988708993420005" lon="14.095774982124567">
        <ele>47.85</ele>
        <time>2025-02-15T13:11:01.505Z</time>
      </trkpt>
      <trkpt lat="58.98874696344137" lon="14.095894927158952">
        <ele>47.91</ele>
        <time>2025-02-15T13:11:53.111Z</time>
      </trkpt>
      <trkpt lat="58.98878493346274" lon="14.096011938527226">
        <ele>47.97</ele>
        <time>2025-02-15T13:12:44.718Z</time>
      </trkpt>
      <trkpt lat="58.98882298730314" lon="14.09612593241036">
        <ele>48.03</ele>
        <time>2025-02-15T13:13:36.326Z</time>
      </trkpt>
      <trkpt lat="58.988860957324505" lon="14.096239926293492">
        <ele>48.08</ele>
        <time>2025-02-15T13:14:27.935Z</time>
      </trkpt>
      <trkpt lat="58.98889892734587" lon="14.096353920176625">
        <ele>48.14</ele>
        <time>2025-02-15T13:15:19.546Z</time>
      </trkpt>
      <trkpt lat="58.98893999867141" lon="14.09646699205041">
        <ele>48.2</ele>
        <time>2025-02-15T13:16:11.158Z</time>
      </trkpt>
      <trkpt lat="58.98897998034954" lon="14.096580985933542">
        <ele>48.27</ele>
        <time>2025-02-15T13:17:02.771Z</time>
      </trkpt>
      <trkpt lat="58.98902197368443" lon="14.096694979816675">
        <ele>48.33</ele>
        <time>2025-02-15T13:17:54.385Z</time>
      </trkpt>
      <trkpt lat="58.98906597867608" lon="14.096808973699808">
        <ele>48.4</ele>
        <time>2025-02-15T13:18:46.000Z</time>
      </trkpt>
      <trkpt lat="58.98910998366773" lon="14.096922967582941">
        <ele>48.48</ele>
        <time>2025-02-15T13:19:37.616Z</time>
      </trkpt>
      <trkpt lat="58.98915499448776" lon="14.097036961466074">
        <ele>48.55</ele>
        <time>2025-02-15T13:20:29.234Z</time>
      </trkpt>
      <trkpt lat="58.98920092731714" lon="14.097151961177588">
        <ele>48.63</ele>
        <time>2025-02-15T13:21:20.853Z</time>
      </trkpt>
      <trkpt lat="58.989247949793935" lon="14.097267966717482">
        <ele>48.71</ele>
        <time>2025-02-15T13:22:12.473Z</time>
      </trkpt>
      <trkpt lat="58.98929698392749" lon="14.097383972257376">
        <ele>48.79</ele>
        <time>2025-02-15T13:23:04.094Z</time>
      </trkpt>
      <trkpt lat="58.98934794589877" lon="14.09749997779727">
        <ele>48.88</ele>
        <time>2025-02-15T13:23:55.717Z</time>
      </trkpt>
      <trkpt lat="58.989398991689086" lon="14.097616989165545">
        <ele>48.96</ele>
        <time>2025-02-15T13:24:47.341Z</time>
      </trkpt>
      <trkpt lat="58.98945095948875" lon="14.097734922543168">
        <ele>49.05</ele>
        <time>2025-02-15T13:25:38.966Z</time>
      </trkpt>
      <trkpt lat="58.989503933116794" lon="14.097851933911443">
        <ele>49.14</ele>
        <time>2025-02-15T13:26:30.592Z</time>
      </trkpt>
      <trkpt lat="58.98955799639225" lon="14.097968945279717">
        <ele>49.24</ele>
        <time>2025-02-15T13:27:22.220Z</time>
      </trkpt>
      <trkpt lat="58.989612981677055" lon="14.098085956647992">
        <ele>49.32</ele>
        <time>2025-02-15T13:28:13.849Z</time>
      </trkpt>
      <trkpt lat="58.98966997861862" lon="14.098200956359506">
        <ele>49.41</ele>
        <time>2025-02-15T13:29:05.479Z</time>
      </trkpt>
      <trkpt lat="58.98972898721695" lon="14.0983169618994">
        <ele>49.5</ele>
        <time>2025-02-15T13:29:57.111Z</time>
      </trkpt>
      <trkpt lat="58.989788917824626" lon="14.098431961610913">
        <ele>49.58</ele>
        <time>2025-02-15T13:30:48.744Z</time>
      </trkpt>
      <trkpt lat="58.989850943908095" lon="14.098547967150807">
        <ele>49.66</ele>
        <time>2025-02-15T13:31:40.378Z</time>
      </trkpt>
      <trkpt lat="58.989912969991565" lon="14.098665984347463">
        <ele>49.75</ele>
        <time>2025-02-15T13:32:32.014Z</time>
      </trkpt>
      <trkpt lat="58.989976923912764" lon="14.098784923553467">
        <ele>49.84</ele>
        <time>2025-02-15T13:33:23.651Z</time>
      </trkpt>
      <trkpt lat="58.990042973309755" lon="14.098902940750122">
        <ele>49.92</ele>
        <time>2025-02-15T13:34:15.290Z</time>
      </trkpt>
      <trkpt lat="58.990109944716096" lon="14.099018946290016">
        <ele>50.01</ele>
        <time>2025-02-15T13:35:06.930Z</time>
      </trkpt>
      <trkpt lat="58.9901789277792" lon="14.09913495182991">
        <ele>50.1</ele>
        <time>2025-02-15T13:35:58.572Z</time>
      </trkpt>
      <trkpt lat="58.99024891667068" lon="14.099249951541424">
        <ele>50.2</ele>
        <time>2025-02-15T13:36:50.215Z</time>
      </trkpt>
      <trkpt lat="58.990321923047304" lon="14.099361933767796">
        <ele>50.29</ele>
        <time>2025-02-15T13:37:41.859Z</time>
      </trkpt>
      <trkpt lat="58.99039593525231" lon="14.099472993984818">
        <ele>50.39</ele>
        <time>2025-02-15T13:38:33.505Z</time>
      </trkpt>
      <trkpt lat="58.990470953285694" lon="14.099586987867951">
        <ele>50.48</ele>
        <time>2025-02-15T13:39:25.153Z</time>
      </trkpt>
      <trkpt lat="58.99054798297584" lon="14.099700981751084">
        <ele>50.57</ele>
        <time>2025-02-15T13:40:16.802Z</time>
      </trkpt>
      <trkpt lat="58.990624928846955" lon="14.099811958149076">
        <ele>50.66</ele>
        <time>2025-02-15T13:41:08.453Z</time>
      </trkpt>
      <trkpt lat="58.99070296436548" lon="14.099921928718686">
        <ele>50.75</ele>
        <time>2025-02-15T13:42:00.105Z</time>
      </trkpt>
      <trkpt lat="58.99078192189336" lon="14.100029971450567">
        <ele>50.84</ele>
        <time>2025-02-15T13:42:51.759Z</time>
      </trkpt>
      <trkpt lat="58.990860963240266" lon="14.100133990868926">
        <ele>50.93</ele>
        <time>2025-02-15T13:43:43.414Z</time>
      </trkpt>
      <trkpt lat="58.99093992076814" lon="14.100234992802143">
        <ele>51.02</ele>
        <time>2025-02-15T13:44:35.071Z</time>
      </trkpt>
      <trkpt lat="58.99101996794343" lon="14.100333983078599">
        <ele>51.11</ele>
        <time>2025-02-15T13:45:26.729Z</time>
      </trkpt>
      <trkpt lat="58.991098925471306" lon="14.100428950041533">
        <ele>51.21</ele>
        <time>2025-02-15T13:46:18.389Z</time>
      </trkpt>
      <trkpt lat="58.991178972646594" lon="14.100521989166737">
        <ele>51.3</ele>
        <time>2025-02-15T13:47:10.050Z</time>
      </trkpt>
      <trkpt lat="58.99125793017447" lon="14.100610921159387">
        <ele>51.4</ele>
        <time>2025-02-15T13:48:01.713Z</time>
      </trkpt>
      <trkpt lat="58.99133797734976" lon="14.100695997476578">
        <ele>51.49</ele>
        <time>2025-02-15T13:48:53.377Z</time>
      </trkpt>
      <trkpt lat="58.99141592904925" lon="14.100776966661215">
        <ele>51.59</ele>
        <time>2025-02-15T13:49:45.043Z</time>
      </trkpt>
      <trkpt lat="58.99149396456778" lon="14.100853996351361">
        <ele>51.69</ele>
        <time>2025-02-15T13:50:36.710Z</time>
      </trkpt>
      <trkpt lat="58.991571916267276" lon="14.100926918908954">
        <ele>51.8</ele>
        <time>2025-02-15T13:51:28.378Z</time>
      </trkpt>
      <trkpt lat="58.9916499517858" lon="14.100994979962707">
        <ele>51.9</ele>
        <time>2025-02-15T13:52:20.048Z</time>
      </trkpt>
      <trkpt lat="58.99172798730433" lon="14.101059939712286">
        <ele>52.01</ele>
        <time>2025-02-15T13:53:11.719Z</time>
      </trkpt>
      <trkpt lat="58.991804933175445" lon="14.101120959967375">
        <ele>52.12</ele>
        <time>2025-02-15T13:54:03.391Z</time>
      </trkpt>
      <trkpt lat="58.99188095703721" lon="14.101178962737322">
        <ele>52.22</ele>
        <time>2025-02-15T13:54:55.065Z</time>
      </trkpt>
      <trkpt lat="58.99195798672736" lon="14.101232942193747">
        <ele>52.32</ele>
        <time>2025-02-15T13:55:46.740Z</time>
      </trkpt>
      <trkpt lat="58.99203493259847" lon="14.10128298215568">
        <ele>52.43</ele>
        <time>2025-02-15T13:56:38.416Z</time>
      </trkpt>
      <trkpt lat="58.99211095646024" lon="14.101330926641822">
        <ele>52.54</ele>
        <time>2025-02-15T13:57:30.094Z</time>
      </trkpt>
      <trkpt lat="58.99218597449362" lon="14.101376943290234">
        <ele>52.64</ele>
        <time>2025-02-15T13:58:21.773Z</time>
      </trkpt>
      <trkpt lat="58.99226099252701" lon="14.101419942453504">
        <ele>52.75</ele>
        <time>2025-02-15T13:59:13.453Z</time>
      </trkpt>
      <trkpt lat="58.99233492091298" lon="14.101458918303251">
        <ele>52.86</ele>
        <time>2025-02-15T14:00:05.134Z</time>
      </trkpt>
      <trkpt lat="58.992409938946366" lon="14.101493954658508">
        <ele>52.97</ele>
        <time>2025-02-15T14:00:56.817Z</time>
      </trkpt>
      <trkpt lat="58.99248395115137" lon="14.101526979357004">
        <ele>53.08</ele>
        <time>2025-02-15T14:01:48.501Z</time>
      </trkpt>
      <trkpt lat="58.992557963356376" lon="14.10155899822712">
        <ele>53.18</ele>
        <time>2025-02-15T14:02:40.186Z</time>
      </trkpt>
      <trkpt lat="58.99263298138976" lon="14.101589927449822">
        <ele>53.29</ele>
        <time>2025-02-15T14:03:31.872Z</time>
      </trkpt>
      <trkpt lat="58.992707999423146" lon="14.101616917178035">
        <ele>53.41</ele>
        <time>2025-02-15T14:04:23.560Z</time>
      </trkpt>
      <trkpt lat="58.9927829336375" lon="14.101641979068518">
        <ele>53.52</ele>
        <time>2025-02-15T14:05:15.249Z</time>
      </trkpt>
      <trkpt lat="58.992858957499266" lon="14.101664945483208">
        <ele>53.63</ele>
        <time>2025-02-15T14:06:06.939Z</time>
      </trkpt>
      <trkpt lat="58.99293598718941" lon="14.101682966575027">
        <ele>53.74</ele>
        <time>2025-02-15T14:06:58.630Z</time>
      </trkpt>
      <trkpt lat="58.99301293306053" lon="14.101698976010084">
        <ele>53.86</ele>
        <time>2025-02-15T14:07:50.323Z</time>
      </trkpt>
      <trkpt lat="58.993090968579054" lon="14.101713979616761">
        <ele>53.97</ele>
        <time>2025-02-15T14:08:42.017Z</time>
      </trkpt>
      <trkpt lat="58.99316992610693" lon="14.101725965738297">
        <ele>54.08</ele>
        <time>2025-02-15T14:09:33.712Z</time>
      </trkpt>
      <trkpt lat="58.99324796162546" lon="14.10173392854631">
        <ele>54.19</ele>
        <time>2025-02-15T14:10:25.408Z</time>
      </trkpt>
      <trkpt lat="58.99332691915333" lon="14.101739963516593">
        <ele>54.31</ele>
        <time>2025-02-15T14:11:17.106Z</time>
      </trkpt>
      <trkpt lat="58.99340596050024" lon="14.101743986830115">
        <ele>54.42</ele>
        <time>2025-02-15T14:12:08.805Z</time>
      </trkpt>
      <trkpt lat="58.993484918028116" lon="14.101745998486876">
        <ele>54.53</ele>
        <time>2025-02-15T14:13:00.505Z</time>
      </trkpt>
      <trkpt lat="58.993563959375024" lon="14.101743986830115">
        <ele>54.64</ele>
        <time>2025-02-15T14:13:52.206Z</time>
      </trkpt>
      <trkpt lat="58.9936429169029" lon="14.101739963516593">
        <ele>54.75</ele>
        <time>2025-02-15T14:14:43.909Z</time>
      </trkpt>
      <trkpt lat="58.99372195824981" lon="14.101732922717929">
        <ele>54.86</ele>
        <time>2025-02-15T14:15:35.613Z</time>
      </trkpt>
      <trkpt lat="58.993801921606064" lon="14.101722948253155">
        <ele>54.97</ele>
        <time>2025-02-15T14:16:27.318Z</time>
      </trkpt>
      <trkpt lat="58.99388196878135" lon="14.101709956303239">
        <ele>55.08</ele>
        <time>2025-02-15T14:17:19.024Z</time>
      </trkpt>
      <trkpt lat="58.99396193213761" lon="14.101694952696562">
        <ele>55.19</ele>
        <time>2025-02-15T14:18:10.732Z</time>
      </trkpt>
      <trkpt lat="58.99404298514128" lon="14.101677937433124">
        <ele>55.29</ele>
        <time>2025-02-15T14:19:02.441Z</time>
      </trkpt>
      <trkpt lat="58.994122948497534" lon="14.101656982675195">
        <ele>55.39</ele>
        <time>2025-02-15T14:19:54.151Z</time>
      </trkpt>
      <trkpt lat="58.99420391768217" lon="14.101633932441473">
        <ele>55.5</ele>
        <time>2025-02-15T14:20:45.863Z</time>
      </trkpt>
      <trkpt lat="58.99428396485746" lon="14.101609960198402">
        <ele>55.61</ele>
        <time>2025-02-15T14:21:37.576Z</time>
      </trkpt>
      <trkpt lat="58.994364934042096" lon="14.10158196464181">
        <ele>55.71</ele>
        <time>2025-02-15T14:22:29.290Z</time>
      </trkpt>
      <trkpt lat="58.994446992874146" lon="14.101550951600075">
        <ele>55.82</ele>
        <time>2025-02-15T14:23:21.006Z</time>
      </trkpt>
      <trkpt lat="58.99452796205878" lon="14.101516921073198">
        <ele>55.92</ele>
        <time>2025-02-15T14:24:12.723Z</time>
      </trkpt>
      <trkpt lat="58.99460893124342" lon="14.10147794522345">
        <ele>56.02</ele>
        <time>2025-02-15T14:25:04.441Z</time>
      </trkpt>
      <trkpt lat="58.99468998424709" lon="14.101435951888561">
        <ele>56.12</ele>
        <time>2025-02-15T14:25:56.161Z</time>
      </trkpt>
      <trkpt lat="58.994770953431726" lon="14.10139094106853">
        <ele>56.22</ele>
        <time>2025-02-15T14:26:47.882Z</time>
      </trkpt>
      <trkpt lat="58.99485091678798" lon="14.101340984925628">
        <ele>56.32</ele>
        <time>2025-02-15T14:27:39.604Z</time>
      </trkpt>
      <trkpt lat="58.99493096396327" lon="14.101288933306932">
        <ele>56.42</ele>
        <time>2025-02-15T14:28:31.328Z</time>
      </trkpt>
      <trkpt lat="58.99501193314791" lon="14.101235959678888">
        <ele>56.51</ele>
        <time>2025-02-15T14:29:23.053Z</time>
      </trkpt>
      <trkpt lat="58.995091980323195" lon="14.101180974394083">
        <ele>56.61</ele>
        <time>2025-02-15T14:30:14.779Z</time>
      </trkpt>
      <trkpt lat="58.99517395533621" lon="14.101126994937658">
        <ele>56.7</ele>
        <time>2025-02-15T14:31:06.507Z</time>
      </trkpt>
      <trkpt lat="58.99525593034923" lon="14.101072931662202">
        <ele>56.79</ele>
        <time>2025-02-15T14:31:58.236Z</time>
      </trkpt>
      <trkpt lat="58.99533899500966" lon="14.101014928892255">
        <ele>56.88</ele>
        <time>2025-02-15T14:32:49.967Z</time>
      </trkpt>
      <trkpt lat="58.99542298167944" lon="14.100957931950688">
        <ele>56.97</ele>
        <time>2025-02-15T14:33:41.699Z</time>
      </trkpt>
      <trkpt lat="58.9955079741776" lon="14.100899929180741">
        <ele>57.07</ele>
        <time>2025-02-15T14:34:33.432Z</time>
      </trkpt>
      <trkpt lat="58.99559296667576" lon="14.100840920582414">
        <ele>57.16</ele>
        <time>2025-02-15T14:35:25.167Z</time>
      </trkpt>
      <trkpt lat="58.99567795917392" lon="14.100781995803118">
        <ele>57.25</ele>
        <time>2025-02-15T14:36:16.903Z</time>
      </trkpt>
      <trkpt lat="58.99576496332884" lon="14.10072298720479">
        <ele>57.34</ele>
        <time>2025-02-15T14:37:08.641Z</time>
      </trkpt>
      <trkpt lat="58.99585096165538" lon="14.100662972778082">
        <ele>57.43</ele>
        <time>2025-02-15T14:38:00.380Z</time>
      </trkpt>
      <trkpt lat="58.9959379658103" lon="14.100604970008135">
        <ele>57.51</ele>
        <time>2025-02-15T14:38:52.121Z</time>
      </trkpt>
      <trkpt lat="58.9960259757936" lon="14.100545961409807">
        <ele>57.6</ele>
        <time>2025-02-15T14:39:43.863Z</time>
      </trkpt>
      <trkpt lat="58.99611297994852" lon="14.10048695281148">
        <ele>57.68</ele>
        <time>2025-02-15T14:40:35.607Z</time>
      </trkpt>
      <trkpt lat="58.99619998410344" lon="14.100427944213152">
        <ele>57.77</ele>
        <time>2025-02-15T14:41:27.352Z</time>
      </trkpt>
      <trkpt lat="58.99628698825836" lon="14.100368935614824">
        <ele>57.85</ele>
        <time>2025-02-15T14:42:19.099Z</time>
      </trkpt>
      <trkpt lat="58.99637399241328" lon="14.100308921188116">
        <ele>57.93</ele>
        <time>2025-02-15T14:43:10.847Z</time>
      </trkpt>
      <trkpt lat="58.9964609965682" lon="14.10024999640882">
        <ele>58.01</ele>
        <time>2025-02-15T14:44:02.597Z</time>
      </trkpt>
      <trkpt lat="58.99654791690409" lon="14.100193921476603">
        <ele>58.09</ele>
        <time>2025-02-15T14:44:54.348Z</time>
      </trkpt>
      <trkpt lat="58.99663492105901" lon="14.100138936191797">
        <ele>58.17</ele>
        <time>2025-02-15T14:45:46.101Z</time>
      </trkpt>
      <trkpt lat="58.99672192521393" lon="14.100082945078611">
        <ele>58.24</ele>
        <time>2025-02-15T14:46:37.855Z</time>
      </trkpt>
      <trkpt lat="58.99680792354047" lon="14.100027959793806">
        <ele>58.32</ele>
        <time>2025-02-15T14:47:29.611Z</time>
      </trkpt>
      <trkpt lat="58.99689392186701" lon="14.099973980337381">
        <ele>58.4</ele>
        <time>2025-02-15T14:48:21.368Z</time>
      </trkpt>
      <trkpt lat="58.99697992019355" lon="14.099919917061925">
        <ele>58.47</ele>
        <time>2025-02-15T14:49:13.126Z</time>
      </trkpt>
      <trkpt lat="58.997064996510744" lon="14.099869960919023">
        <ele>58.55</ele>
        <time>2025-02-15T14:50:04.886Z</time>
      </trkpt>
      <trkpt lat="58.9971499890089" lon="14.099819920957088">
        <ele>58.61</ele>
        <time>2025-02-15T14:50:56.647Z</time>
      </trkpt>
      <trkpt lat="58.99723498150706" lon="14.099773988127708">
        <ele>58.68</ele>
        <time>2025-02-15T14:51:48.410Z</time>
      </trkpt>
      <trkpt lat="58.99731896817684" lon="14.099729983136058">
        <ele>58.74</ele>
        <time>2025-02-15T14:52:40.174Z</time>
      </trkpt>
      <trkpt lat="58.99740295484662" lon="14.099688995629549">
        <ele>58.81</ele>
        <time>2025-02-15T14:53:31.940Z</time>
      </trkpt>
      <trkpt lat="58.99748593568802" lon="14.099648930132389">
        <ele>58.87</ele>
        <time>2025-02-15T14:54:23.707Z</time>
      </trkpt>
      <trkpt lat="58.9975699223578" lon="14.099612971767783">
        <ele>58.94</ele>
        <time>2025-02-15T14:55:15.475Z</time>
      </trkpt>
      <trkpt lat="58.99765298701823" lon="14.099576929584146">
        <ele>59.0</ele>
        <time>2025-02-15T14:56:07.245Z</time>
      </trkpt>
      <trkpt lat="58.997733956202865" lon="14.0995429828763">
        <ele>59.06</ele>
        <time>2025-02-15T14:56:59.016Z</time>
      </trkpt>
      <trkpt lat="58.9978149253875" lon="14.099513981491327">
        <ele>59.12</ele>
        <time>2025-02-15T14:57:50.788Z</time>
      </trkpt>
      <trkpt lat="58.99789497256279" lon="14.099486991763115">
        <ele>59.18</ele>
        <time>2025-02-15T14:58:42.562Z</time>
      </trkpt>
      <trkpt lat="58.997974935919046" lon="14.099462935701013">
        <ele>59.23</ele>
        <time>2025-02-15T14:59:34.337Z</time>
      </trkpt>
      <trkpt lat="58.998053977265954" lon="14.099438963457942">
        <ele>59.28</ele>
        <time>2025-02-15T15:00:26.113Z</time>
      </trkpt>
      <trkpt lat="58.99813394062221" lon="14.099417924880981">
        <ele>59.33</ele>
        <time>2025-02-15T15:01:17.890Z</time>
      </trkpt>
      <trkpt lat="58.99821298196912" lon="14.099401999264956">
        <ele>59.38</ele>
        <time>2025-02-15T15:02:09.669Z</time>
      </trkpt>
      <trkpt lat="58.998292945325375" lon="14.099385989829898">
        <ele>59.42</ele>
        <time>2025-02-15T15:03:01.449Z</time>
      </trkpt>
      <trkpt lat="58.99837198667228" lon="14.09937098622322">
        <ele>59.47</ele>
        <time>2025-02-15T15:03:53.230Z</time>
      </trkpt>
      <trkpt lat="58.99845295585692" lon="14.099356988444924">
        <ele>59.51</ele>
        <time>2025-02-15T15:04:45.013Z</time>
      </trkpt>
      <trkpt lat="58.99853493086994" lon="14.099346930161119">
        <ele>59.55</ele>
        <time>2025-02-15T15:05:36.797Z</time>
      </trkpt>
      <trkpt lat="58.998616989701986" lon="14.099336955696344">
        <ele>59.59</ele>
        <time>2025-02-15T15:06:28.582Z</time>
      </trkpt>
      <trkpt lat="58.998698964715004" lon="14.09932798705995">
        <ele>59.63</ele>
        <time>2025-02-15T15:07:20.369Z</time>
      </trkpt>
      <trkpt lat="58.99877993389964" lon="14.099322957918048">
        <ele>59.67</ele>
        <time>2025-02-15T15:08:12.157Z</time>
      </trkpt>
      <trkpt lat="58.99886392056942" lon="14.099315917119384">
        <ele>59.7</ele>
        <time>2025-02-15T15:09:03.946Z</time>
      </trkpt>
      <trkpt lat="58.99894799105823" lon="14.09930795431137">
        <ele>59.74</ele>
        <time>2025-02-15T15:09:55.737Z</time>
      </trkpt>
      <trkpt lat="58.99903097189963" lon="14.099303930997849">
        <ele>59.77</ele>
        <time>2025-02-15T15:10:47.529Z</time>
      </trkpt>
      <trkpt lat="58.99911495856941" lon="14.099303930997849">
        <ele>59.79</ele>
        <time>2025-02-15T15:11:39.322Z</time>
      </trkpt>
      <trkpt lat="58.999198945239186" lon="14.09930694848299">
        <ele>59.82</ele>
        <time>2025-02-15T15:12:31.117Z</time>
      </trkpt>
      <trkpt lat="58.999283937737346" lon="14.099309965968132">
        <ele>59.84</ele>
        <time>2025-02-15T15:13:22.913Z</time>
      </trkpt>
      <trkpt lat="58.999370941892266" lon="14.099316922947764">
        <ele>59.87</ele>
        <time>2025-02-15T15:14:14.710Z</time>
      </trkpt>
      <trkpt lat="58.99945895187557" lon="14.09932597540319">
        <ele>59.89</ele>
        <time>2025-02-15T15:15:06.509Z</time>
      </trkpt>
      <trkpt lat="58.99954796768725" lon="14.099336955696344">
        <ele>59.91</ele>
        <time>2025-02-15T15:15:58.309Z</time>
      </trkpt>
      <trkpt lat="58.99963698349893" lon="14.099351959303021">
        <ele>59.93</ele>
        <time>2025-02-15T15:16:50.111Z</time>
      </trkpt>
      <trkpt lat="58.99972893297672" lon="14.09937098622322">
        <ele>59.95</ele>
        <time>2025-02-15T15:17:41.914Z</time>
      </trkpt>
      <trkpt lat="58.99982297793031" lon="14.09939194098115">
        <ele>59.97</ele>
        <time>2025-02-15T15:18:33.719Z</time>
      </trkpt>
      <trkpt lat="58.99991693906486" lon="14.09941398538649">
        <ele>59.99</ele>
        <time>2025-02-15T15:19:25.525Z</time>
      </trkpt>
      <trkpt lat="59.000012995675206" lon="14.099437957629561">
        <ele>60.0</ele>
        <time>2025-02-15T15:20:17.333Z</time>
      </trkpt>
      <trkpt lat="59.0001099742949" lon="14.099462935701013">
        <ele>60.01</ele>
        <time>2025-02-15T15:21:09.142Z</time>
      </trkpt>
      <trkpt lat="59.000207958742976" lon="14.099490931257606">
        <ele>59.99</ele>
        <time>2025-02-15T15:22:00.953Z</time>
      </trkpt>
      <trkpt lat="59.00030594319105" lon="14.09952295012772">
        <ele>60.0</ele>
        <time>2025-02-15T15:22:52.765Z</time>
      </trkpt>
      <trkpt lat="59.00040493346751" lon="14.099557986482978">
        <ele>60.01</ele>
        <time>2025-02-15T15:23:44.579Z</time>
      </trkpt>
      <trkpt lat="59.000504929572344" lon="14.099596962332726">
        <ele>60.03</ele>
        <time>2025-02-15T15:24:36.395Z</time>
      </trkpt>
      <trkpt lat="59.00060593150556" lon="14.099639961495996">
        <ele>60.04</ele>
        <time>2025-02-15T15:25:28.212Z</time>
      </trkpt>
      <trkpt lat="59.00070693343878" lon="14.099685978144407">
        <ele>60.05</ele>
        <time>2025-02-15T15:26:20.031Z</time>
      </trkpt>
      <trkpt lat="59.000808941200376" lon="14.099733922630548">
        <ele>60.06</ele>
        <time>2025-02-15T15:27:11.852Z</time>
      </trkpt>
      <trkpt lat="59.00090994313359" lon="14.099785974249244">
        <ele>60.07</ele>
        <time>2025-02-15T15:28:03.674Z</time>
      </trkpt>
      <trkpt lat="59.00101195089519" lon="14.099840959534049">
        <ele>60.08</ele>
        <time>2025-02-15T15:28:55.498Z</time>
      </trkpt>
      <trkpt lat="59.00111295282841" lon="14.099898962303996">
        <ele>60.09</ele>
        <time>2025-02-15T15:29:47.324Z</time>
      </trkpt>
      <trkpt lat="59.001212948933244" lon="14.099958976730704">
        <ele>60.11</ele>
        <time>2025-02-15T15:30:39.151Z</time>
      </trkpt>
      <trkpt lat="59.0013119392097" lon="14.100021924823523">
        <ele>60.12</ele>
        <time>2025-02-15T15:31:30.980Z</time>
      </trkpt>
      <trkpt lat="59.001410929486156" lon="14.100087974220514">
        <ele>60.13</ele>
        <time>2025-02-15T15:32:22.811Z</time>
      </trkpt>
      <trkpt lat="59.00150799192488" lon="14.100154945626855">
        <ele>60.14</ele>
        <time>2025-02-15T15:33:14.643Z</time>
      </trkpt>
      <trkpt lat="59.00160497054458" lon="14.100223928689957">
        <ele>60.15</ele>
        <time>2025-02-15T15:34:06.477Z</time>
      </trkpt>
      <trkpt lat="59.00169993750751" lon="14.10029693506658">
        <ele>60.16</ele>
        <time>2025-02-15T15:34:58.313Z</time>
      </trkpt>
      <trkpt lat="59.001793982461095" lon="14.100370947271585">
        <ele>60.17</ele>
        <time>2025-02-15T15:35:50.150Z</time>
      </trkpt>
      <trkpt lat="59.00188693776727" lon="14.100448982790112">
        <ele>60.19</ele>
        <time>2025-02-15T15:36:41.989Z</time>
      </trkpt>
      <trkpt lat="59.00197897106409" lon="14.100527940317988">
        <ele>60.2</ele>
        <time>2025-02-15T15:37:33.830Z</time>
      </trkpt>
      <trkpt lat="59.00206899270415" lon="14.100609999150038">
        <ele>60.21</ele>
        <time>2025-02-15T15:38:25.672Z</time>
      </trkpt>
      <trkpt lat="59.002158930525184" lon="14.100692979991436">
        <ele>60.22</ele>
        <time>2025-02-15T15:39:17.516Z</time>
      </trkpt>
      <trkpt lat="59.002247946336865" lon="14.100776966661215">
        <ele>60.23</ele>
        <time>2025-02-15T15:40:09.361Z</time>
      </trkpt>
      <trkpt lat="59.00233696214855" lon="14.100862964987755">
        <ele>60.24</ele>
        <time>2025-02-15T15:41:01.208Z</time>
      </trkpt>
      <trkpt lat="59.00242497213185" lon="14.100948963314295">
        <ele>60.26</ele>
        <time>2025-02-15T15:41:53.057Z</time>
      </trkpt>
      <trkpt lat="59.00251197628677" lon="14.101033955812454">
        <ele>60.27</ele>
        <time>2025-02-15T15:42:44.907Z</time>
      </trkpt>
      <trkpt lat="59.00259898044169" lon="14.101118948310614">
        <ele>60.29</ele>
        <time>2025-02-15T15:43:36.759Z</time>
      </trkpt>
      <trkpt lat="59.00268497876823" lon="14.101203940808773">
        <ele>60.3</ele>
        <time>2025-02-15T15:44:28.612Z</time>
      </trkpt>
      <trkpt lat="59.00277097709477" lon="14.101288933306932">
        <ele>60.31</ele>
        <time>2025-02-15T15:45:20.467Z</time>
      </trkpt>
      <trkpt lat="59.00285596959293" lon="14.101372919976711">
        <ele>60.32</ele>
        <time>2025-02-15T15:46:12.323Z</time>
      </trkpt>
      <trkpt lat="59.00294096209109" lon="14.101455984637141">
        <ele>60.33</ele>
        <time>2025-02-15T15:47:04.181Z</time>
      </trkpt>
      <trkpt lat="59.00302595458925" lon="14.10153997130692">
        <ele>60.33</ele>
        <time>2025-02-15T15:47:56.040Z</time>
      </trkpt>
      <trkpt lat="59.00311094708741" lon="14.101622952148318">
        <ele>60.34</ele>
        <time>2025-02-15T15:48:47.901Z</time>
      </trkpt>
      <trkpt lat="59.00319593958557" lon="14.101705932989717">
        <ele>60.34</ele>
        <time>2025-02-15T15:49:39.763Z</time>
      </trkpt>
      <trkpt lat="59.003279926255345" lon="14.101788997650146">
        <ele>60.34</ele>
        <time>2025-02-15T15:50:31.627Z</time>
      </trkpt>
      <trkpt lat="59.003362990915775" lon="14.101871978491545">
        <ele>60.35</ele>
        <time>2025-02-15T15:51:23.492Z</time>
      </trkpt>
      <trkpt lat="59.00344597175717" lon="14.101953953504562">
        <ele>60.35</ele>
        <time>2025-02-15T15:52:15.359Z</time>
      </trkpt>
      <trkpt lat="59.00352794677019" lon="14.102033916860819">
        <ele>60.36</ele>
        <time>2025-02-15T15:53:07.227Z</time>
      </trkpt>
      <trkpt lat="59.00360799394548" lon="14.102114969864488">
        <ele>60.36</ele>
        <time>2025-02-15T15:53:59.097Z</time>
      </trkpt>
      <trkpt lat="59.003687957301736" lon="14.102194933220744">
        <ele>60.37</ele>
        <time>2025-02-15T15:54:50.968Z</time>
      </trkpt>
      <trkpt lat="59.00376699864864" lon="14.102273974567652">
        <ele>60.37</ele>
        <time>2025-02-15T15:55:42.841Z</time>
      </trkpt>
      <trkpt lat="59.00384595617652" lon="14.102348992601037">
        <ele>60.38</ele>
        <time>2025-02-15T15:56:34.715Z</time>
      </trkpt>
      <trkpt lat="59.003922985866666" lon="14.10242292098701">
        <ele>60.39</ele>
        <time>2025-02-15T15:57:26.591Z</time>
      </trkpt>
      <trkpt lat="59.00399993173778" lon="14.102495927363634">
        <ele>60.4</ele>
        <time>2025-02-15T15:58:18.468Z</time>
      </trkpt>
      <trkpt lat="59.00407696142793" lon="14.102569939568639">
        <ele>60.41</ele>
        <time>2025-02-15T15:59:10.346Z</time>
      </trkpt>
      <trkpt lat="59.00415197946131" lon="14.102643951773643">
        <ele>60.42</ele>
        <time>2025-02-15T16:00:02.226Z</time>
      </trkpt>
      <trkpt lat="59.0042269974947" lon="14.102717963978648">
        <ele>60.43</ele>
        <time>2025-02-15T16:00:54.107Z</time>
      </trkpt>
      <trkpt lat="59.00430092588067" lon="14.102789964526892">
        <ele>60.43</ele>
        <time>2025-02-15T16:01:45.989Z</time>
      </trkpt>
      <trkpt lat="59.004374938085675" lon="14.102861965075135">
        <ele>60.45</ele>
        <time>2025-02-15T16:02:37.873Z</time>
      </trkpt>
      <trkpt lat="59.0044479444623" lon="14.102931953966618">
        <ele>60.46</ele>
        <time>2025-02-15T16:03:29.758Z</time>
      </trkpt>
      <trkpt lat="59.00452095083892" lon="14.1030019428581">
        <ele>60.47</ele>
        <time>2025-02-15T16:04:21.644Z</time>
      </trkpt>
      <trkpt lat="59.00459295138717" lon="14.103072937577963">
        <ele>60.48</ele>
        <time>2025-02-15T16:05:13.532Z</time>
      </trkpt>
      <trkpt lat="59.00466495193541" lon="14.103144938126206">
        <ele>60.49</ele>
        <time>2025-02-15T16:06:05.421Z</time>
      </trkpt>
      <trkpt lat="59.004736952483654" lon="14.103214927017689">
        <ele>60.5</ele>
        <time>2025-02-15T16:06:57.311Z</time>
      </trkpt>
      <trkpt lat="59.0048089530319" lon="14.103284999728203">
        <ele>60.5</ele>
        <time>2025-02-15T16:07:49.202Z</time>
      </trkpt>
      <trkpt lat="59.00488095358014" lon="14.103354988619685">
        <ele>60.5</ele>
        <time>2025-02-15T16:08:41.095Z</time>
      </trkpt>
      <trkpt lat="59.004952954128385" lon="14.103423971682787">
        <ele>60.5</ele>
        <time>2025-02-15T16:09:32.989Z</time>
      </trkpt>
      <trkpt lat="59.00502495467663" lon="14.103491948917508">
        <ele>60.49</ele>
        <time>2025-02-15T16:10:24.884Z</time>
      </trkpt>
      <trkpt lat="59.00509695522487" lon="14.1035579983145">
        <ele>60.49</ele>
        <time>2025-02-15T16:11:16.781Z</time>
      </trkpt>
      <trkpt lat="59.005167949944735" lon="14.103627987205982">
        <ele>60.48</ele>
        <time>2025-02-15T16:12:08.679Z</time>
      </trkpt>
      <trkpt lat="59.0052389446646" lon="14.103699987754226">
        <ele>60.48</ele>
        <time>2025-02-15T16:13:00.578Z</time>
      </trkpt>
      <trkpt lat="59.00530993938446" lon="14.103770982474089">
        <ele>60.48</ele>
        <time>2025-02-15T16:13:52.478Z</time>
      </trkpt>
      <trkpt lat="59.00538093410432" lon="14.103842983022332">
        <ele>60.48</ele>
        <time>2025-02-15T16:14:44.380Z</time>
      </trkpt>
      <trkpt lat="59.005451928824186" lon="14.103915989398956">
        <ele>60.48</ele>
        <time>2025-02-15T16:15:36.283Z</time>
      </trkpt>
      <trkpt lat="59.00552292354405" lon="14.10398899577558">
        <ele>60.49</ele>
        <time>2025-02-15T16:16:28.187Z</time>
      </trkpt>
      <trkpt lat="59.00559391826391" lon="14.104061918333173">
        <ele>60.49</ele>
        <time>2025-02-15T16:17:20.093Z</time>
      </trkpt>
      <trkpt lat="59.005665918812156" lon="14.104134924709797">
        <ele>60.49</ele>
        <time>2025-02-15T16:18:12.000Z</time>
      </trkpt>
      <trkpt lat="59.00573699735105" lon="14.104211954399943">
        <ele>60.48</ele>
        <time>2025-02-15T16:19:03.908Z</time>
      </trkpt>
      <trkpt lat="59.00580799207091" lon="14.104290995746851">
        <ele>60.47</ele>
        <time>2025-02-15T16:19:55.817Z</time>
      </trkpt>
      <trkpt lat="59.005877980962396" lon="14.104372970759869">
        <ele>60.47</ele>
        <time>2025-02-15T16:20:47.728Z</time>
      </trkpt>
      <trkpt lat="59.00594897568226" lon="14.104454945772886">
        <ele>60.46</ele>
        <time>2025-02-15T16:21:39.640Z</time>
      </trkpt>
      <trkpt lat="59.0060209762305" lon="14.104537926614285">
        <ele>60.45</ele>
        <time>2025-02-15T16:22:31.553Z</time>
      </trkpt>
      <trkpt lat="59.006091970950365" lon="14.104624930769205">
        <ele>60.44</ele>
        <time>2025-02-15T16:23:23.468Z</time>
      </trkpt>
      <trkpt lat="59.00616296567023" lon="14.104711934924126">
        <ele>60.42</ele>
        <time>2025-02-15T16:24:15.384Z</time>
      </trkpt>
      <trkpt lat="59.00623496621847" lon="14.104801956564188">
        <ele>60.41</ele>
        <time>2025-02-15T16:25:07.302Z</time>
      </trkpt>
      <trkpt lat="59.006306966766715" lon="14.104892984032631">
        <ele>60.4</ele>
        <time>2025-02-15T16:25:59.221Z</time>
      </trkpt>
      <trkpt lat="59.00637796148658" lon="14.104985939338803">
        <ele>60.39</ele>
        <time>2025-02-15T16:26:51.141Z</time>
      </trkpt>
      <trkpt lat="59.00644996203482" lon="14.105077972635627">
        <ele>60.38</ele>
        <time>2025-02-15T16:27:43.063Z</time>
      </trkpt>
      <trkpt lat="59.006522968411446" lon="14.1051709279418">
        <ele>60.37</ele>
        <time>2025-02-15T16:28:34.986Z</time>
      </trkpt>
      <trkpt lat="59.00659496895969" lon="14.105265978723764">
        <ele>60.36</ele>
        <time>2025-02-15T16:29:26.910Z</time>
      </trkpt>
      <trkpt lat="59.00666797533631" lon="14.105361951515079">
        <ele>60.35</ele>
        <time>2025-02-15T16:30:18.836Z</time>
      </trkpt>
      <trkpt lat="59.00674198754132" lon="14.105458930134773">
        <ele>60.34</ele>
        <time>2025-02-15T16:31:10.763Z</time>
      </trkpt>
      <trkpt lat="59.00681692175567" lon="14.1055559925735">
        <ele>60.34</ele>
        <time>2025-02-15T16:32:02.692Z</time>
      </trkpt>
      <trkpt lat="59.00689193978906" lon="14.105655988678336">
        <ele>60.34</ele>
        <time>2025-02-15T16:32:54.622Z</time>
      </trkpt>
      <trkpt lat="59.00696695782244" lon="14.105753973126411">
        <ele>60.33</ele>
        <time>2025-02-15T16:33:46.554Z</time>
      </trkpt>
      <trkpt lat="59.00704298168421" lon="14.105852963402867">
        <ele>60.32</ele>
        <time>2025-02-15T16:34:38.487Z</time>
      </trkpt>
      <trkpt lat="59.00711892172694" lon="14.105952959507704">
        <ele>60.31</ele>
        <time>2025-02-15T16:35:30.422Z</time>
      </trkpt>
      <trkpt lat="59.00719393976033" lon="14.10605295561254">
        <ele>60.3</ele>
        <time>2025-02-15T16:36:22.358Z</time>
      </trkpt>
      <trkpt lat="59.00726996362209" lon="14.106152951717377">
        <ele>60.28</ele>
        <time>2025-02-15T16:37:14.296Z</time>
      </trkpt>
      <trkpt lat="59.00734598748386" lon="14.106253953650594">
        <ele>60.27</ele>
        <time>2025-02-15T16:38:06.235Z</time>
      </trkpt>
      <trkpt lat="59.00742192752659" lon="14.10635294392705">
        <ele>60.26</ele>
        <time>2025-02-15T16:38:58.175Z</time>
      </trkpt>
      <trkpt lat="59.00749795138836" lon="14.106451934203506">
        <ele>60.25</ele>
        <time>2025-02-15T16:39:50.117Z</time>
      </trkpt>
      <trkpt lat="59.007572969421744" lon="14.106550924479961">
        <ele>60.24</ele>
        <time>2025-02-15T16:40:42.060Z</time>
      </trkpt>
      <trkpt lat="59.00764798745513" lon="14.106649998575449">
        <ele>60.23</ele>
        <time>2025-02-15T16:41:34.005Z</time>
      </trkpt>
      <trkpt lat="59.00772292166948" lon="14.106746977195144">
        <ele>60.22</ele>
        <time>2025-02-15T16:42:25.951Z</time>
      </trkpt>
      <trkpt lat="59.00779793970287" lon="14.106842949986458">
        <ele>60.21</ele>
        <time>2025-02-15T16:43:17.899Z</time>
      </trkpt>
      <trkpt lat="59.007872957736254" lon="14.106940934434533">
        <ele>60.19</ele>
        <time>2025-02-15T16:44:09.848Z</time>
      </trkpt>
      <trkpt lat="59.00794797576964" lon="14.107038918882608">
        <ele>60.18</ele>
        <time>2025-02-15T16:45:01.799Z</time>
      </trkpt>
      <trkpt lat="59.008021987974644" lon="14.107135981321335">
        <ele>60.17</ele>
        <time>2025-02-15T16:45:53.751Z</time>
      </trkpt>
      <trkpt lat="59.008096922189" lon="14.10723295994103">
        <ele>60.15</ele>
        <time>2025-02-15T16:46:45.705Z</time>
      </trkpt>
      <trkpt lat="59.00817194022238" lon="14.107329938560724">
        <ele>60.14</ele>
        <time>2025-02-15T16:47:37.660Z</time>
      </trkpt>
      <trkpt lat="59.00824695825577" lon="14.107426917180419">
        <ele>60.12</ele>
        <time>2025-02-15T16:48:29.616Z</time>
      </trkpt>
      <trkpt lat="59.00832097046077" lon="14.107522973790765">
        <ele>60.1</ele>
        <time>2025-02-15T16:49:21.574Z</time>
      </trkpt>
      <trkpt lat="59.00839598849416" lon="14.10761995241046">
        <ele>60.08</ele>
        <time>2025-02-15T16:50:13.533Z</time>
      </trkpt>
      <trkpt lat="59.00847092270851" lon="14.107715925201774">
        <ele>60.06</ele>
        <time>2025-02-15T16:51:05.494Z</time>
      </trkpt>
      <trkpt lat="59.008544934913516" lon="14.107810975983739">
        <ele>60.04</ele>
        <time>2025-02-15T16:51:57.456Z</time>
      </trkpt>
      <trkpt lat="59.00861894711852" lon="14.107905942946672">
        <ele>60.02</ele>
        <time>2025-02-15T16:52:49.420Z</time>
      </trkpt>
      <trkpt lat="59.008691953495145" lon="14.108000993728638">
        <ele>60.01</ele>
        <time>2025-02-15T16:53:41.385Z</time>
      </trkpt>
      <trkpt lat="59.00876495987177" lon="14.108095960691571">
        <ele>59.99</ele>
        <time>2025-02-15T16:54:33.351Z</time>
      </trkpt>
      <trkpt lat="59.00883595459163" lon="14.108190927654505">
        <ele>59.97</ele>
        <time>2025-02-15T16:55:25.319Z</time>
      </trkpt>
      <trkpt lat="59.008905943483114" lon="14.10828597843647">
        <ele>59.95</ele>
        <time>2025-02-15T16:56:17.288Z</time>
      </trkpt>
      <trkpt lat="59.008974926546216" lon="14.108380945399404">
        <ele>59.92</ele>
        <time>2025-02-15T16:57:09.259Z</time>
      </trkpt>
      <trkpt lat="59.00904399342835" lon="14.108473984524608">
        <ele>59.89</ele>
        <time>2025-02-15T16:58:01.231Z</time>
      </trkpt>
      <trkpt lat="59.00911297649145" lon="14.1085659340024">
        <ele>59.87</ele>
        <time>2025-02-15T16:58:53.204Z</time>
      </trkpt>
      <trkpt lat="59.00917894206941" lon="14.108658973127604">
        <ele>59.84</ele>
        <time>2025-02-15T16:59:45.179Z</time>
      </trkpt>
      <trkpt lat="59.0092449914664" lon="14.108751928433776">
        <ele>59.81</ele>
        <time>2025-02-15T17:00:37.155Z</time>
      </trkpt>
      <trkpt lat="59.0093089453876" lon="14.108846979215741">
        <ele>59.79</ele>
        <time>2025-02-15T17:01:29.132Z</time>
      </trkpt>
      <trkpt lat="59.00937197729945" lon="14.108939934521914">
        <ele>59.77</ele>
        <time>2025-02-15T17:02:21.110Z</time>
      </trkpt>
      <trkpt lat="59.00943391956389" lon="14.109033979475498">
        <ele>59.75</ele>
        <time>2025-02-15T17:03:13.090Z</time>
      </trkpt>
      <trkpt lat="59.00949493981898" lon="14.109127940610051">
        <ele>59.73</ele>
        <time>2025-02-15T17:04:05.071Z</time>
      </trkpt>
      <trkpt lat="59.00955596007407" lon="14.109221985563636">
        <ele>59.71</ele>
        <time>2025-02-15T17:04:57.053Z</time>
      </trkpt>
      <trkpt lat="59.009614968672395" lon="14.10931795835495">
        <ele>59.69</ele>
        <time>2025-02-15T17:05:49.036Z</time>
      </trkpt>
      <trkpt lat="59.00967297144234" lon="14.109415942803025">
        <ele>59.66</ele>
        <time>2025-02-15T17:06:41.021Z</time>
      </trkpt>
      <trkpt lat="59.00972996838391" lon="14.1095139272511">
        <ele>59.64</ele>
        <time>2025-02-15T17:07:33.007Z</time>
      </trkpt>
      <trkpt lat="59.009785959497094" lon="14.109613923355937">
        <ele>59.62</ele>
        <time>2025-02-15T17:08:24.994Z</time>
      </trkpt>
      <trkpt lat="59.00984195061028" lon="14.109714925289154">
        <ele>59.6</ele>
        <time>2025-02-15T17:09:16.982Z</time>
      </trkpt>
      <trkpt lat="59.009897941723466" lon="14.109816933050752">
        <ele>59.58</ele>
        <time>2025-02-15T17:10:08.972Z</time>
      </trkpt>
      <trkpt lat="59.00995292700827" lon="14.10991994664073">
        <ele>59.56</ele>
        <time>2025-02-15T17:11:00.963Z</time>
      </trkpt>
      <trkpt lat="59.01000891812146" lon="14.110023966059089">
        <ele>59.54</ele>
        <time>2025-02-15T17:11:52.955Z</time>
      </trkpt>
      <trkpt lat="59.010063987225294" lon="14.110128991305828">
        <ele>59.51</ele>
        <time>2025-02-15T17:12:44.948Z</time>
      </trkpt>
      <trkpt lat="59.0101189725101" lon="14.110233932733536">
        <ele>59.49</ele>
        <time>2025-02-15T17:13:36.942Z</time>
      </trkpt>
      <trkpt lat="59.010172951966524" lon="14.110340969637036">
        <ele>59.46</ele>
        <time>2025-02-15T17:14:28.938Z</time>
      </trkpt>
      <trkpt lat="59.01022793725133" lon="14.110446916893125">
        <ele>59.43</ele>
        <time>2025-02-15T17:15:20.935Z</time>
      </trkpt>
      <trkpt lat="59.010282922536135" lon="14.110553953796625">
        <ele>59.41</ele>
        <time>2025-02-15T17:16:12.933Z</time>
      </trkpt>
      <trkpt lat="59.01033799163997" lon="14.110660990700126">
        <ele>59.38</ele>
        <time>2025-02-15T17:17:04.932Z</time>
      </trkpt>
      <trkpt lat="59.010390965268016" lon="14.110767943784595">
        <ele>59.35</ele>
        <time>2025-02-15T17:17:56.933Z</time>
      </trkpt>
      <trkpt lat="59.0104469563812" lon="14.110874980688095">
        <ele>59.32</ele>
        <time>2025-02-15T17:18:48.935Z</time>
      </trkpt>
      <trkpt lat="59.01050194166601" lon="14.110980927944183">
        <ele>59.3</ele>
        <time>2025-02-15T17:19:40.938Z</time>
      </trkpt>
      <trkpt lat="59.01055793277919" lon="14.111085953190923">
        <ele>59.27</ele>
        <time>2025-02-15T17:20:32.942Z</time>
      </trkpt>
      <trkpt lat="59.01061593554914" lon="14.111191984266043">
        <ele>59.25</ele>
        <time>2025-02-15T17:21:24.948Z</time>
      </trkpt>
      <trkpt lat="59.01067494414747" lon="14.111298937350512">
        <ele>59.23</ele>
        <time>2025-02-15T17:22:16.955Z</time>
      </trkpt>
      <trkpt lat="59.010734958574176" lon="14.111403962597251">
        <ele>59.2</ele>
        <time>2025-02-15T17:23:08.963Z</time>
      </trkpt>
      <trkpt lat="59.010795978829265" lon="14.111509993672371">
        <ele>59.16</ele>
        <time>2025-02-15T17:24:00.973Z</time>
      </trkpt>
      <trkpt lat="59.0108579210937" lon="14.11161594092846">
        <ele>59.13</ele>
        <time>2025-02-15T17:24:52.984Z</time>
      </trkpt>
      <trkpt lat="59.01092296466231" lon="14.111720966175199">
        <ele>59.1</ele>
        <time>2025-02-15T17:25:44.996Z</time>
      </trkpt>
      <trkpt lat="59.01098792441189" lon="14.111826997250319">
        <ele>59.08</ele>
        <time>2025-02-15T17:26:37.010Z</time>
      </trkpt>
      <trkpt lat="59.011054979637265" lon="14.111931938678026">
        <ele>59.04</ele>
        <time>2025-02-15T17:27:29.025Z</time>
      </trkpt>
      <trkpt lat="59.01112396270037" lon="14.112035958096385">
        <ele>59.01</ele>
        <time>2025-02-15T17:28:21.041Z</time>
      </trkpt>
      <trkpt lat="59.01119395159185" lon="14.112138971686363">
        <ele>58.98</ele>
        <time>2025-02-15T17:29:13.059Z</time>
      </trkpt>
      <trkpt lat="59.01126494631171" lon="14.11224097944796">
        <ele>58.95</ele>
        <time>2025-02-15T17:30:05.078Z</time>
      </trkpt>
      <trkpt lat="59.011337952688336" lon="14.112341981381178">
        <ele>58.91</ele>
        <time>2025-02-15T17:30:57.099Z</time>
      </trkpt>
      <trkpt lat="59.01141095906496" lon="14.112441977486014">
        <ele>58.88</ele>
        <time>2025-02-15T17:31:49.121Z</time>
      </trkpt>
      <trkpt lat="59.011484971269965" lon="14.11254197359085">
        <ele>58.84</ele>
        <time>2025-02-15T17:32:41.145Z</time>
      </trkpt>
      <trkpt lat="59.01155998930335" lon="14.112641969695687">
        <ele>58.81</ele>
        <time>2025-02-15T17:33:33.170Z</time>
      </trkpt>
      <trkpt lat="59.011634923517704" lon="14.112740959972143">
        <ele>58.77</ele>
        <time>2025-02-15T17:34:25.197Z</time>
      </trkpt>
      <trkpt lat="59.01171094737947" lon="14.112839950248599">
        <ele>58.72</ele>
        <time>2025-02-15T17:35:17.225Z</time>
      </trkpt>
      <trkpt lat="59.011787977069616" lon="14.112937934696674">
        <ele>58.68</ele>
        <time>2025-02-15T17:36:09.254Z</time>
      </trkpt>
      <trkpt lat="59.01186492294073" lon="14.11303591914475">
        <ele>58.63</ele>
        <time>2025-02-15T17:37:01.285Z</time>
      </trkpt>
      <trkpt lat="59.01194195263088" lon="14.113133987411857">
        <ele>58.58</ele>
        <time>2025-02-15T17:37:53.317Z</time>
      </trkpt>
      <trkpt lat="59.012018982321024" lon="14.113232977688313">
        <ele>58.53</ele>
        <time>2025-02-15T17:38:45.351Z</time>
      </trkpt>
      <trkpt lat="59.01209693402052" lon="14.113331967964768">
        <ele>58.49</ele>
        <time>2025-02-15T17:39:37.386Z</time>
      </trkpt>
      <trkpt lat="59.01217597536743" lon="14.113428946584463">
        <ele>58.44</ele>
        <time>2025-02-15T17:40:29.423Z</time>
      </trkpt>
      <trkpt lat="59.0122549328953" lon="14.113524919375777">
        <ele>58.4</ele>
        <time>2025-02-15T17:41:21.461Z</time>
      </trkpt>
      <trkpt lat="59.01233498007059" lon="14.113621981814504">
        <ele>58.36</ele>
        <time>2025-02-15T17:42:13.501Z</time>
      </trkpt>
      <trkpt lat="59.01241393759847" lon="14.113719966262579">
        <ele>58.32</ele>
        <time>2025-02-15T17:43:05.542Z</time>
      </trkpt>
      <trkpt lat="59.012492978945374" lon="14.113817950710654">
        <ele>58.27</ele>
        <time>2025-02-15T17:43:57.585Z</time>
      </trkpt>
      <trkpt lat="59.01257294230163" lon="14.113914929330349">
        <ele>58.23</ele>
        <time>2025-02-15T17:44:49.629Z</time>
      </trkpt>
      <trkpt lat="59.0126539953053" lon="14.114012997597456">
        <ele>58.19</ele>
        <time>2025-02-15T17:45:41.675Z</time>
      </trkpt>
      <trkpt lat="59.012733958661556" lon="14.11410997621715">
        <ele>58.15</ele>
        <time>2025-02-15T17:46:33.722Z</time>
      </trkpt>
      <trkpt lat="59.01281392201781" lon="14.114208966493607">
        <ele>58.1</ele>
        <time>2025-02-15T17:47:25.771Z</time>
      </trkpt>
      <trkpt lat="59.01289296336472" lon="14.114307956770062">
        <ele>58.06</ele>
        <time>2025-02-15T17:48:17.822Z</time>
      </trkpt>
      <trkpt lat="59.012971920892596" lon="14.114407952874899">
        <ele>58.01</ele>
        <time>2025-02-15T17:49:09.874Z</time>
      </trkpt>
      <trkpt lat="59.013050962239504" lon="14.114509960636497">
        <ele>57.97</ele>
        <time>2025-02-15T17:50:01.928Z</time>
      </trkpt>
      <trkpt lat="59.01312991976738" lon="14.114611968398094">
        <ele>57.93</ele>
        <time>2025-02-15T17:50:53.983Z</time>
      </trkpt>
      <trkpt lat="59.01320996694267" lon="14.114713976159692">
        <ele>57.89</ele>
        <time>2025-02-15T17:51:46.040Z</time>
      </trkpt>
      <trkpt lat="59.013288924470544" lon="14.11481598392129">
        <ele>57.85</ele>
        <time>2025-02-15T17:52:38.098Z</time>
      </trkpt>
      <trkpt lat="59.01336595416069" lon="14.114920925348997">
        <ele>57.81</ele>
        <time>2025-02-15T17:53:30.158Z</time>
      </trkpt>
      <trkpt lat="59.01344298385084" lon="14.115025950595737">
        <ele>57.78</ele>
        <time>2025-02-15T17:54:22.219Z</time>
      </trkpt>
      <trkpt lat="59.01351992972195" lon="14.115130975842476">
        <ele>57.74</ele>
        <time>2025-02-15T17:55:14.282Z</time>
      </trkpt>
      <trkpt lat="59.0135969594121" lon="14.115235917270184">
        <ele>57.7</ele>
        <time>2025-02-15T17:56:06.346Z</time>
      </trkpt>
      <trkpt lat="59.013672983273864" lon="14.115338930860162">
        <ele>57.65</ele>
        <time>2025-02-15T17:56:58.412Z</time>
      </trkpt>
      <trkpt lat="59.0137489233166" lon="14.115444961935282">
        <ele>57.6</ele>
        <time>2025-02-15T17:57:50.479Z</time>
      </trkpt>
      <trkpt lat="59.013824947178364" lon="14.115549987182021">
        <ele>57.56</ele>
        <time>2025-02-15T17:58:42.548Z</time>
      </trkpt>
      <trkpt lat="59.01389996521175" lon="14.115654928609729">
        <ele>57.51</ele>
        <time>2025-02-15T17:59:34.618Z</time>
      </trkpt>
      <trkpt lat="59.013974983245134" lon="14.115759953856468">
        <ele>57.47</ele>
        <time>2025-02-15T18:00:26.690Z</time>
      </trkpt>
      <trkpt lat="59.01405192911625" lon="14.115866990759969">
        <ele>57.42</ele>
        <time>2025-02-15T18:01:18.763Z</time>
      </trkpt>
      <trkpt lat="59.014128958806396" lon="14.115975955501199">
        <ele>57.37</ele>
        <time>2025-02-15T18:02:10.838Z</time>
      </trkpt>
      <trkpt lat="59.01420598849654" lon="14.116084920242429">
        <ele>57.32</ele>
        <time>2025-02-15T18:03:02.914Z</time>
      </trkpt>
      <trkpt lat="59.014281928539276" lon="14.11619296297431">
        <ele>57.28</ele>
        <time>2025-02-15T18:03:54.992Z</time>
      </trkpt>
      <trkpt lat="59.01435795240104" lon="14.11630293354392">
        <ele>57.23</ele>
        <time>2025-02-15T18:04:47.071Z</time>
      </trkpt>
      <trkpt lat="59.01443498209119" lon="14.116411982104182">
        <ele>57.19</ele>
        <time>2025-02-15T18:05:39.152Z</time>
      </trkpt>
      <trkpt lat="59.01450991630554" lon="14.116521952673793">
        <ele>57.14</ele>
        <time>2025-02-15T18:06:31.234Z</time>
      </trkpt>
      <trkpt lat="59.01458694599569" lon="14.116629995405674">
        <ele>57.09</ele>
        <time>2025-02-15T18:07:23.318Z</time>
      </trkpt>
      <trkpt lat="59.014661964029074" lon="14.116738960146904">
        <ele>57.04</ele>
        <time>2025-02-15T18:08:15.403Z</time>
      </trkpt>
      <trkpt lat="59.01473698206246" lon="14.116847924888134">
        <ele>56.98</ele>
        <time>2025-02-15T18:09:07.490Z</time>
      </trkpt>
      <trkpt lat="59.014815939590335" lon="14.116956973448396">
        <ele>56.93</ele>
        <time>2025-02-15T18:09:59.578Z</time>
      </trkpt>
      <trkpt lat="59.01489498093724" lon="14.117065938189626">
        <ele>56.87</ele>
        <time>2025-02-15T18:10:51.668Z</time>
      </trkpt>
      <trkpt lat="59.01497293263674" lon="14.117174986749887">
        <ele>56.81</ele>
        <time>2025-02-15T18:11:43.759Z</time>
      </trkpt>
      <trkpt lat="59.015049962326884" lon="14.117284957319498">
        <ele>56.76</ele>
        <time>2025-02-15T18:12:35.852Z</time>
      </trkpt>
      <trkpt lat="59.01512598618865" lon="14.117391994222999">
        <ele>56.71</ele>
        <time>2025-02-15T18:13:27.947Z</time>
      </trkpt>
      <trkpt lat="59.015202932059765" lon="14.117497941479087">
        <ele>56.66</ele>
        <time>2025-02-15T18:14:20.043Z</time>
      </trkpt>
      <trkpt lat="59.01527895592153" lon="14.117602966725826">
        <ele>56.61</ele>
        <time>2025-02-15T18:15:12.141Z</time>
      </trkpt>
      <trkpt lat="59.015353973954916" lon="14.117708997800946">
        <ele>56.56</ele>
        <time>2025-02-15T18:16:04.240Z</time>
      </trkpt>
      <trkpt lat="59.0154289919883" lon="14.117814945057034">
        <ele>56.51</ele>
        <time>2025-02-15T18:16:56.340Z</time>
      </trkpt>
      <trkpt lat="59.015504932031035" lon="14.117916952818632">
        <ele>56.46</ele>
        <time>2025-02-15T18:17:48.442Z</time>
      </trkpt>
      <trkpt lat="59.01557995006442" lon="14.118020972236991">
        <ele>56.42</ele>
        <time>2025-02-15T18:18:40.545Z</time>
      </trkpt>
      <trkpt lat="59.01565697975457" lon="14.118122979998589">
        <ele>56.37</ele>
        <time>2025-02-15T18:19:32.650Z</time>
      </trkpt>
      <trkpt lat="59.01573593728244" lon="14.118224987760186">
        <ele>56.33</ele>
        <time>2025-02-15T18:20:24.756Z</time>
      </trkpt>
      <trkpt lat="59.01581397280097" lon="14.118324983865023">
        <ele>56.28</ele>
        <time>2025-02-15T18:21:16.864Z</time>
      </trkpt>
      <trkpt lat="59.015891924500465" lon="14.11842497996986">
        <ele>56.24</ele>
        <time>2025-02-15T18:22:08.973Z</time>
      </trkpt>
      <trkpt lat="59.01597096584737" lon="14.118521958589554">
        <ele>56.19</ele>
        <time>2025-02-15T18:23:01.084Z</time>
      </trkpt>
      <trkpt lat="59.01605092920363" lon="14.118617931380868">
        <ele>56.15</ele>
        <time>2025-02-15T18:23:53.196Z</time>
      </trkpt>
      <trkpt lat="59.0161319822073" lon="14.118710970506072">
        <ele>56.1</ele>
        <time>2025-02-15T18:24:45.310Z</time>
      </trkpt>
      <trkpt lat="59.016213957220316" lon="14.118802919983864">
        <ele>56.06</ele>
        <time>2025-02-15T18:25:37.426Z</time>
      </trkpt>
      <trkpt lat="59.01629492640495" lon="14.118891935795546">
        <ele>56.01</ele>
        <time>2025-02-15T18:26:29.543Z</time>
      </trkpt>
      <trkpt lat="59.01637799106538" lon="14.118979945778847">
        <ele>55.96</ele>
        <time>2025-02-15T18:27:21.662Z</time>
      </trkpt>
      <trkpt lat="59.01646097190678" lon="14.119065944105387">
        <ele>55.91</ele>
        <time>2025-02-15T18:28:13.782Z</time>
      </trkpt>
      <trkpt lat="59.01654495857656" lon="14.119150936603546">
        <ele>55.87</ele>
        <time>2025-02-15T18:29:05.904Z</time>
      </trkpt>
      <trkpt lat="59.01662894524634" lon="14.119234923273325">
        <ele>55.82</ele>
        <time>2025-02-15T18:29:58.027Z</time>
      </trkpt>
      <trkpt lat="59.01671494357288" lon="14.119315976276994">
        <ele>55.78</ele>
        <time>2025-02-15T18:30:50.152Z</time>
      </trkpt>
      <trkpt lat="59.01679993607104" lon="14.11939493380487">
        <ele>55.74</ele>
        <time>2025-02-15T18:31:42.278Z</time>
      </trkpt>
      <trkpt lat="59.01688593439758" lon="14.119473975151777">
        <ele>55.69</ele>
        <time>2025-02-15T18:32:34.406Z</time>
      </trkpt>
      <trkpt lat="59.01697092689574" lon="14.119551926851273">
        <ele>55.65</ele>
        <time>2025-02-15T18:33:26.535Z</time>
      </trkpt>
      <trkpt lat="59.01705893687904" lon="14.119625939056277">
        <ele>55.6</ele>
        <time>2025-02-15T18:34:18.666Z</time>
      </trkpt>
      <trkpt lat="59.01714594103396" lon="14.119699951261282">
        <ele>55.56</ele>
        <time>2025-02-15T18:35:10.798Z</time>
      </trkpt>
      <trkpt lat="59.01723395101726" lon="14.119772957637906">
        <ele>55.52</ele>
        <time>2025-02-15T18:36:02.932Z</time>
      </trkpt>
      <trkpt lat="59.01732296682894" lon="14.119839929044247">
        <ele>55.47</ele>
        <time>2025-02-15T18:36:55.067Z</time>
      </trkpt>
      <trkpt lat="59.017412988469005" lon="14.119907990098">
        <ele>55.43</ele>
        <time>2025-02-15T18:37:47.204Z</time>
      </trkpt>
      <trkpt lat="59.017502926290035" lon="14.11997496150434">
        <ele>55.39</ele>
        <time>2025-02-15T18:38:39.342Z</time>
      </trkpt>
      <trkpt lat="59.0175929479301" lon="14.12003992125392">
        <ele>55.35</ele>
        <time>2025-02-15T18:39:31.482Z</time>
      </trkpt>
      <trkpt lat="59.0176809579134" lon="14.120106976479292">
        <ele>55.31</ele>
        <time>2025-02-15T18:40:23.623Z</time>
      </trkpt>
      <trkpt lat="59.01776796206832" lon="14.120174953714013">
        <ele>55.27</ele>
        <time>2025-02-15T18:41:15.766Z</time>
      </trkpt>
      <trkpt lat="59.01785496622324" lon="14.120240919291973">
        <ele>55.23</ele>
        <time>2025-02-15T18:42:07.910Z</time>
      </trkpt>
      <trkpt lat="59.01794197037816" lon="14.120303951203823">
        <ele>55.2</ele>
        <time>2025-02-15T18:43:00.056Z</time>
      </trkpt>
      <trkpt lat="59.01802998036146" lon="14.120364971458912">
        <ele>55.16</ele>
        <time>2025-02-15T18:43:52.203Z</time>
      </trkpt>
      <trkpt lat="59.01811497285962" lon="14.12042498588562">
        <ele>55.12</ele>
        <time>2025-02-15T18:44:44.352Z</time>
      </trkpt>
      <trkpt lat="59.01820097118616" lon="14.120481982827187">
        <ele>55.08</ele>
        <time>2025-02-15T18:45:36.502Z</time>
      </trkpt>
      <trkpt lat="59.01828596368432" lon="14.120537973940372">
        <ele>55.04</ele>
        <time>2025-02-15T18:46:28.654Z</time>
      </trkpt>
      <trkpt lat="59.01837095618248" lon="14.120593965053558">
        <ele>55.0</ele>
        <time>2025-02-15T18:47:20.807Z</time>
      </trkpt>
      <trkpt lat="59.01845393702388" lon="14.120650961995125">
        <ele>54.96</ele>
        <time>2025-02-15T18:48:12.962Z</time>
      </trkpt>
      <trkpt lat="59.01853499002755" lon="14.120708964765072">
        <ele>54.92</ele>
        <time>2025-02-15T18:49:05.118Z</time>
      </trkpt>
      <trkpt lat="59.018617970868945" lon="14.120766967535019">
        <ele>54.88</ele>
        <time>2025-02-15T18:49:57.275Z</time>
      </trkpt>
      <trkpt lat="59.01870095171034" lon="14.120822958648205">
        <ele>54.84</ele>
        <time>2025-02-15T18:50:49.434Z</time>
      </trkpt>
      <trkpt lat="59.01878192089498" lon="14.120879955589771">
        <ele>54.8</ele>
        <time>2025-02-15T18:51:41.594Z</time>
      </trkpt>
      <trkpt lat="59.01886498555541" lon="14.12093997001648">
        <ele>54.77</ele>
        <time>2025-02-15T18:52:33.756Z</time>
      </trkpt>
      <trkpt lat="59.01894796639681" lon="14.120999984443188">
        <ele>54.73</ele>
        <time>2025-02-15T18:53:25.919Z</time>
      </trkpt>
      <trkpt lat="59.019029941409826" lon="14.121058993041515">
        <ele>54.69</ele>
        <time>2025-02-15T18:54:18.083Z</time>
      </trkpt>
      <trkpt lat="59.019111916422844" lon="14.121115989983082">
        <ele>54.66</ele>
        <time>2025-02-15T18:55:10.249Z</time>
      </trkpt>
      <trkpt lat="59.01919296942651" lon="14.121176926419139">
        <ele>54.62</ele>
        <time>2025-02-15T18:56:02.416Z</time>
      </trkpt>
      <trkpt lat="59.01927393861115" lon="14.121238952502608">
        <ele>54.58</ele>
        <time>2025-02-15T18:56:54.585Z</time>
      </trkpt>
      <trkpt lat="59.0193559974432" lon="14.121299972757697">
        <ele>54.55</ele>
        <time>2025-02-15T18:57:46.755Z</time>
      </trkpt>
      <trkpt lat="59.019436966627836" lon="14.121363926678896">
        <ele>54.51</ele>
        <time>2025-02-15T18:58:38.926Z</time>
      </trkpt>
      <trkpt lat="59.01951692998409" lon="14.121429976075888">
        <ele>54.47</ele>
        <time>2025-02-15T18:59:31.099Z</time>
      </trkpt>
      <trkpt lat="59.019595971331" lon="14.121496947482228">
        <ele>54.43</ele>
        <time>2025-02-15T19:00:23.273Z</time>
      </trkpt>
      <trkpt lat="59.019674928858876" lon="14.12156593054533">
        <ele>54.39</ele>
        <time>2025-02-15T19:01:15.449Z</time>
      </trkpt>
      <trkpt lat="59.0197529643774" lon="14.121638936921954">
        <ele>54.35</ele>
        <time>2025-02-15T19:02:07.626Z</time>
      </trkpt>
      <trkpt lat="59.01983099989593" lon="14.121710937470198">
        <ele>54.31</ele>
        <time>2025-02-15T19:02:59.804Z</time>
      </trkpt>
      <trkpt lat="59.019906939938664" lon="14.121785955503583">
        <ele>54.27</ele>
        <time>2025-02-15T19:03:51.984Z</time>
      </trkpt>
      <trkpt lat="59.01998396962881" lon="14.121859967708588">
        <ele>54.23</ele>
        <time>2025-02-15T19:04:44.165Z</time>
      </trkpt>
      <trkpt lat="59.02005999349058" lon="14.121934985741973">
        <ele>54.18</ele>
        <time>2025-02-15T19:05:36.348Z</time>
      </trkpt>
      <trkpt lat="59.02013392187655" lon="14.122009919956326">
        <ele>54.14</ele>
        <time>2025-02-15T19:06:28.532Z</time>
      </trkpt>
      <trkpt lat="59.02020592242479" lon="14.122087955474854">
        <ele>54.1</ele>
        <time>2025-02-15T19:07:20.717Z</time>
      </trkpt>
      <trkpt lat="59.02027792297304" lon="14.122164985165">
        <ele>54.06</ele>
        <time>2025-02-15T19:08:12.903Z</time>
      </trkpt>
      <trkpt lat="59.02034992352128" lon="14.122244948521256">
        <ele>54.03</ele>
        <time>2025-02-15T19:09:05.091Z</time>
      </trkpt>
      <trkpt lat="59.020421924069524" lon="14.122324995696545">
        <ele>53.99</ele>
        <time>2025-02-15T19:09:57.280Z</time>
      </trkpt>
      <trkpt lat="59.02049493044615" lon="14.122404959052801">
        <ele>53.96</ele>
        <time>2025-02-15T19:10:49.471Z</time>
      </trkpt>
      <trkpt lat="59.02056793682277" lon="14.122484922409058">
        <ele>53.92</ele>
        <time>2025-02-15T19:11:41.663Z</time>
      </trkpt>
      <trkpt lat="59.020640943199396" lon="14.122566981241107">
        <ele>53.89</ele>
        <time>2025-02-15T19:12:33.856Z</time>
      </trkpt>
      <trkpt lat="59.02071193791926" lon="14.122648956254125">
        <ele>53.85</ele>
        <time>2025-02-15T19:13:26.051Z</time>
      </trkpt>
      <trkpt lat="59.02078494429588" lon="14.122729925438762">
        <ele>53.82</ele>
        <time>2025-02-15T19:14:18.247Z</time>
      </trkpt>
      <trkpt lat="59.02085694484413" lon="14.122811984270811">
        <ele>53.79</ele>
        <time>2025-02-15T19:15:10.444Z</time>
      </trkpt>
      <trkpt lat="59.02092793956399" lon="14.122892953455448">
        <ele>53.77</ele>
        <time>2025-02-15T19:16:02.643Z</time>
      </trkpt>
      <trkpt lat="59.02099994011223" lon="14.122971994802356">
        <ele>53.73</ele>
        <time>2025-02-15T19:16:54.843Z</time>
      </trkpt>
      <trkpt lat="59.02107294648886" lon="14.12304793484509">
        <ele>53.7</ele>
        <time>2025-02-15T19:17:47.044Z</time>
      </trkpt>
      <trkpt lat="59.02114595286548" lon="14.123123958706856">
        <ele>53.66</ele>
        <time>2025-02-15T19:18:39.247Z</time>
      </trkpt>
      <trkpt lat="59.021219965070486" lon="14.123201994225383">
        <ele>53.63</ele>
        <time>2025-02-15T19:19:31.451Z</time>
      </trkpt>
      <trkpt lat="59.02129397727549" lon="14.123278940096498">
        <ele>53.59</ele>
        <time>2025-02-15T19:20:23.656Z</time>
      </trkpt>
      <trkpt lat="59.021368995308876" lon="14.123351946473122">
        <ele>53.55</ele>
        <time>2025-02-15T19:21:15.863Z</time>
      </trkpt>
      <trkpt lat="59.02144594117999" lon="14.123423947021365">
        <ele>53.51</ele>
        <time>2025-02-15T19:22:08.071Z</time>
      </trkpt>
      <trkpt lat="59.02152397669852" lon="14.12349795922637">
        <ele>53.47</ele>
        <time>2025-02-15T19:23:00.280Z</time>
      </trkpt>
      <trkpt lat="59.02160092256963" lon="14.123571971431375">
        <ele>53.43</ele>
        <time>2025-02-15T19:23:52.491Z</time>
      </trkpt>
      <trkpt lat="59.02167895808816" lon="14.123643971979618">
        <ele>53.39</ele>
        <time>2025-02-15T19:24:44.703Z</time>
      </trkpt>
      <trkpt lat="59.021754981949925" lon="14.123710943385959">
        <ele>53.36</ele>
        <time>2025-02-15T19:25:36.916Z</time>
      </trkpt>
      <trkpt lat="59.02183192782104" lon="14.12377598695457">
        <ele>53.32</ele>
        <time>2025-02-15T19:26:29.131Z</time>
      </trkpt>
      <trkpt lat="59.02190996333957" lon="14.123838935047388">
        <ele>53.28</ele>
        <time>2025-02-15T19:27:21.347Z</time>
      </trkpt>
      <trkpt lat="59.021987998858094" lon="14.123900961130857">
        <ele>53.24</ele>
        <time>2025-02-15T19:28:13.564Z</time>
      </trkpt>
      <trkpt lat="59.02206695638597" lon="14.123961981385946">
        <ele>53.2</ele>
        <time>2025-02-15T19:29:05.783Z</time>
      </trkpt>
      <trkpt lat="59.02214599773288" lon="14.124020989984274">
        <ele>53.16</ele>
        <time>2025-02-15T19:29:58.003Z</time>
      </trkpt>
      <trkpt lat="59.022225961089134" lon="14.124079998582602">
        <ele>53.12</ele>
        <time>2025-02-15T19:30:50.225Z</time>
      </trkpt>
      <trkpt lat="59.02230793610215" lon="14.124135989695787">
        <ele>53.09</ele>
        <time>2025-02-15T19:31:42.448Z</time>
      </trkpt>
      <trkpt lat="59.02239494025707" lon="14.124188963323832">
        <ele>53.05</ele>
        <time>2025-02-15T19:32:34.672Z</time>
      </trkpt>
      <trkpt lat="59.022483956068754" lon="14.124241936951876">
        <ele>53.01</ele>
        <time>2025-02-15T19:33:26.898Z</time>
      </trkpt>
      <trkpt lat="59.022571966052055" lon="14.124297928065062">
        <ele>52.97</ele>
        <time>2025-02-15T19:34:19.125Z</time>
      </trkpt>
      <trkpt lat="59.022658970206976" lon="14.12435693666339">
        <ele>52.94</ele>
        <time>2025-02-15T19:35:11.354Z</time>
      </trkpt>
      <trkpt lat="59.02274999767542" lon="14.124414939433336">
        <ele>52.9</ele>
        <time>2025-02-15T19:36:03.584Z</time>
      </trkpt>
      <trkpt lat="59.02284295298159" lon="14.124468918889761">
        <ele>52.86</ele>
        <time>2025-02-15T19:36:55.816Z</time>
      </trkpt>
      <trkpt lat="59.022934986278415" lon="14.124521976336837">
        <ele>52.83</ele>
        <time>2025-02-15T19:37:48.050Z</time>
      </trkpt>
      <trkpt lat="59.02302794158459" lon="14.124576961621642">
        <ele>52.79</ele>
        <time>2025-02-15T19:38:40.285Z</time>
      </trkpt>
      <trkpt lat="59.02311997488141" lon="14.124627923592925">
        <ele>52.76</ele>
        <time>2025-02-15T19:39:32.522Z</time>
      </trkpt>
      <trkpt lat="59.02321091853082" lon="14.124672934412956">
        <ele>52.73</ele>
        <time>2025-02-15T19:40:24.760Z</time>
      </trkpt>
      <trkpt lat="59.023301945999265" lon="14.124714927747846">
        <ele>52.7</ele>
        <time>2025-02-15T19:41:17.000Z</time>
      </trkpt>
      <trkpt lat="59.02339297346771" lon="14.124758932739496">
        <ele>52.67</ele>
        <time>2025-02-15T19:42:09.241Z</time>
      </trkpt>
      <trkpt lat="59.02348299510777" lon="14.124799920246005">
        <ele>52.64</ele>
        <time>2025-02-15T19:43:01.484Z</time>
      </trkpt>
      <trkpt lat="59.0235729329288" lon="14.124836968258023">
        <ele>52.61</ele>
        <time>2025-02-15T19:43:53.728Z</time>
      </trkpt>
      <trkpt lat="59.02366396039724" lon="14.124871920794249">
        <ele>52.58</ele>
        <time>2025-02-15T19:44:45.974Z</time>
      </trkpt>
      <trkpt lat="59.02375699952245" lon="14.124905951321125">
        <ele>52.55</ele>
        <time>2025-02-15T19:45:38.221Z</time>
      </trkpt>
      <trkpt lat="59.02384693734348" lon="14.124938976019621">
        <ele>52.51</ele>
        <time>2025-02-15T19:46:30.470Z</time>
      </trkpt>
      <trkpt lat="59.02393796481192" lon="14.124968983232975">
        <ele>52.48</ele>
        <time>2025-02-15T19:47:22.720Z</time>
      </trkpt>
      <trkpt lat="59.024028992280364" lon="14.124993961304426">
        <ele>52.45</ele>
        <time>2025-02-15T19:48:14.972Z</time>
      </trkpt>
      <trkpt lat="59.024120941758156" lon="14.125019945204258">
        <ele>52.42</ele>
        <time>2025-02-15T19:49:07.225Z</time>
      </trkpt>
      <trkpt lat="59.02421297505498" lon="14.12504592910409">
        <ele>52.39</ele>
        <time>2025-02-15T19:49:59.480Z</time>
      </trkpt>
      <trkpt lat="59.02430593036115" lon="14.12506797350943">
        <ele>52.36</ele>
        <time>2025-02-15T19:50:51.736Z</time>
      </trkpt>
      <trkpt lat="59.024396957829595" lon="14.12508993409574">
        <ele>52.33</ele>
        <time>2025-02-15T19:51:43.993Z</time>
      </trkpt>
      <trkpt lat="59.02448798529804" lon="14.1251109726727">
        <ele>52.29</ele>
        <time>2025-02-15T19:52:36.252Z</time>
      </trkpt>
      <trkpt lat="59.02458094060421" lon="14.125127987936139">
        <ele>52.26</ele>
        <time>2025-02-15T19:53:28.512Z</time>
      </trkpt>
      <trkpt lat="59.024673979729414" lon="14.125140979886055">
        <ele>52.22</ele>
        <time>2025-02-15T19:54:20.774Z</time>
      </trkpt>
      <trkpt lat="59.02476894669235" lon="14.12515196017921">
        <ele>52.19</ele>
        <time>2025-02-15T19:55:13.037Z</time>
      </trkpt>
      <trkpt lat="59.02486399747431" lon="14.125165957957506">
        <ele>52.15</ele>
        <time>2025-02-15T19:56:05.302Z</time>
      </trkpt>
      <trkpt lat="59.02496097609401" lon="14.125180961564183">
        <ele>52.11</ele>
        <time>2025-02-15T19:56:57.569Z</time>
      </trkpt>
      <trkpt lat="59.02505493722856" lon="14.1251939535141">
        <ele>52.08</ele>
        <time>2025-02-15T19:57:49.837Z</time>
      </trkpt>
      <trkpt lat="59.025152921676636" lon="14.125209962949157">
        <ele>52.04</ele>
        <time>2025-02-15T19:58:42.107Z</time>
      </trkpt>
      <trkpt lat="59.02525392360985" lon="14.125225972384214">
        <ele>52.01</ele>
        <time>2025-02-15T19:59:34.378Z</time>
      </trkpt>
      <trkpt lat="59.02535492554307" lon="14.125241981819272">
        <ele>51.97</ele>
        <time>2025-02-15T20:00:26.651Z</time>
      </trkpt>
      <trkpt lat="59.02545592747629" lon="14.12525799125433">
        <ele>51.94</ele>
        <time>2025-02-15T20:01:18.926Z</time>
      </trkpt>
      <trkpt lat="59.02555491775274" lon="14.125271989032626">
        <ele>51.91</ele>
        <time>2025-02-15T20:02:11.202Z</time>
      </trkpt>
      <trkpt lat="59.02565097436309" lon="14.125284980982542">
        <ele>51.89</ele>
        <time>2025-02-15T20:03:03.480Z</time>
      </trkpt>
      <trkpt lat="59.0257469471544" lon="14.125296967104077">
        <ele>51.87</ele>
        <time>2025-02-15T20:03:55.759Z</time>
      </trkpt>
      <trkpt lat="59.02584099210799" lon="14.125308953225613">
        <ele>51.85</ele>
        <time>2025-02-15T20:04:48.040Z</time>
      </trkpt>
      <trkpt lat="59.0259369648993" lon="14.125322951003909">
        <ele>51.84</ele>
        <time>2025-02-15T20:05:40.322Z</time>
      </trkpt>
      <trkpt lat="59.026030926033854" lon="14.125336948782206">
        <ele>51.82</ele>
        <time>2025-02-15T20:06:32.606Z</time>
      </trkpt>
      <trkpt lat="59.02612497098744" lon="14.125350946560502">
        <ele>51.8</ele>
        <time>2025-02-15T20:07:24.891Z</time>
      </trkpt>
      <trkpt lat="59.02621692046523" lon="14.125364944338799">
        <ele>51.78</ele>
        <time>2025-02-15T20:08:17.178Z</time>
      </trkpt>
      <trkpt lat="59.026309959590435" lon="14.125376930460334">
        <ele>51.76</ele>
        <time>2025-02-15T20:09:09.466Z</time>
      </trkpt>
      <trkpt lat="59.02640299871564" lon="14.12538698874414">
        <ele>51.74</ele>
        <time>2025-02-15T20:10:01.756Z</time>
      </trkpt>
      <trkpt lat="59.02649796567857" lon="14.125398974865675">
        <ele>51.72</ele>
        <time>2025-02-15T20:10:54.047Z</time>
      </trkpt>
      <trkpt lat="59.026591926813126" lon="14.125412972643971">
        <ele>51.7</ele>
        <time>2025-02-15T20:11:46.340Z</time>
      </trkpt>
      <trkpt lat="59.02668697759509" lon="14.125427976250648">
        <ele>51.69</ele>
        <time>2025-02-15T20:12:38.634Z</time>
      </trkpt>
      <trkpt lat="59.026781944558024" lon="14.125442979857326">
        <ele>51.67</ele>
        <time>2025-02-15T20:13:30.930Z</time>
      </trkpt>
      <trkpt lat="59.02687699533999" lon="14.125457983464003">
        <ele>51.65</ele>
        <time>2025-02-15T20:14:23.227Z</time>
      </trkpt>
      <trkpt lat="59.026973973959684" lon="14.125471981242299">
        <ele>51.64</ele>
        <time>2025-02-15T20:15:15.526Z</time>
      </trkpt>
      <trkpt lat="59.027069946751" lon="14.125486984848976">
        <ele>51.63</ele>
        <time>2025-02-15T20:16:07.826Z</time>
      </trkpt>
      <trkpt lat="59.027167931199074" lon="14.125499976798892">
        <ele>51.61</ele>
        <time>2025-02-15T20:17:00.128Z</time>
      </trkpt>
      <trkpt lat="59.0272649936378" lon="14.125513974577188">
        <ele>51.6</ele>
        <time>2025-02-15T20:17:52.432Z</time>
      </trkpt>
      <trkpt lat="59.027361972257495" lon="14.125527972355485">
        <ele>51.58</ele>
        <time>2025-02-15T20:18:44.737Z</time>
      </trkpt>
      <trkpt lat="59.02745693922043" lon="14.1255409643054">
        <ele>51.58</ele>
        <time>2025-02-15T20:19:37.044Z</time>
      </trkpt>
      <trkpt lat="59.027552995830774" lon="14.125555967912078">
        <ele>51.57</ele>
        <time>2025-02-15T20:20:29.352Z</time>
      </trkpt>
      <trkpt lat="59.02764695696533" lon="14.125570971518755">
        <ele>51.57</ele>
        <time>2025-02-15T20:21:21.662Z</time>
      </trkpt>
      <trkpt lat="59.02773999609053" lon="14.12558295764029">
        <ele>51.57</ele>
        <time>2025-02-15T20:22:13.973Z</time>
      </trkpt>
      <trkpt lat="59.027833957225084" lon="14.125598967075348">
        <ele>51.56</ele>
        <time>2025-02-15T20:23:06.286Z</time>
      </trkpt>
      <trkpt lat="59.0279299300164" lon="14.125614976510406">
        <ele>51.56</ele>
        <time>2025-02-15T20:23:58.600Z</time>
      </trkpt>
      <trkpt lat="59.028025986626744" lon="14.125628974288702">
        <ele>51.56</ele>
        <time>2025-02-15T20:24:50.916Z</time>
      </trkpt>
      <trkpt lat="59.0281199477613" lon="14.125642972066998">
        <ele>51.56</ele>
        <time>2025-02-15T20:25:43.233Z</time>
      </trkpt>
      <trkpt lat="59.02821499854326" lon="14.125656969845295">
        <ele>51.56</ele>
        <time>2025-02-15T20:26:35.552Z</time>
      </trkpt>
      <trkpt lat="59.02831197716296" lon="14.125671973451972">
        <ele>51.55</ele>
        <time>2025-02-15T20:27:27.872Z</time>
      </trkpt>
      <trkpt lat="59.02840996161103" lon="14.12568898871541">
        <ele>51.55</ele>
        <time>2025-02-15T20:28:20.194Z</time>
      </trkpt>
      <trkpt lat="59.02850895188749" lon="14.125705920159817">
        <ele>51.55</ele>
        <time>2025-02-15T20:29:12.518Z</time>
      </trkpt>
      <trkpt lat="59.028608947992325" lon="14.125723941251636">
        <ele>51.55</ele>
        <time>2025-02-15T20:30:04.843Z</time>
      </trkpt>
      <trkpt lat="59.02870793826878" lon="14.125742968171835">
        <ele>51.55</ele>
        <time>2025-02-15T20:30:57.170Z</time>
      </trkpt>
      <trkpt lat="59.02880793437362" lon="14.125761995092034">
        <ele>51.55</ele>
        <time>2025-02-15T20:31:49.498Z</time>
      </trkpt>
      <trkpt lat="59.02890591882169" lon="14.125779932364821">
        <ele>51.55</ele>
        <time>2025-02-15T20:32:41.828Z</time>
      </trkpt>
      <trkpt lat="59.02900298126042" lon="14.12579795345664">
        <ele>51.56</ele>
        <time>2025-02-15T20:33:34.160Z</time>
      </trkpt>
      <trkpt lat="59.02909794822335" lon="14.125819997861981">
        <ele>51.56</ele>
        <time>2025-02-15T20:34:26.493Z</time>
      </trkpt>
      <trkpt lat="59.02919299900532" lon="14.125843970105052">
        <ele>51.58</ele>
        <time>2025-02-15T20:35:18.828Z</time>
      </trkpt>
      <trkpt lat="59.02928696013987" lon="14.125869954004884">
        <ele>51.59</ele>
        <time>2025-02-15T20:36:11.164Z</time>
      </trkpt>
      <trkpt lat="59.029380921274424" lon="14.125897949561477">
        <ele>51.6</ele>
        <time>2025-02-15T20:37:03.502Z</time>
      </trkpt>
      <trkpt lat="59.02947496622801" lon="14.12592695094645">
        <ele>51.62</ele>
        <time>2025-02-15T20:37:55.841Z</time>
      </trkpt>
      <trkpt lat="59.02956892736256" lon="14.125959975644946">
        <ele>51.64</ele>
        <time>2025-02-15T20:38:48.182Z</time>
      </trkpt>
      <trkpt lat="59.029662972316146" lon="14.12599392235279">
        <ele>51.65</ele>
        <time>2025-02-15T20:39:40.524Z</time>
      </trkpt>
      <trkpt lat="59.0297569334507" lon="14.126028958708048">
        <ele>51.67</ele>
        <time>2025-02-15T20:40:32.868Z</time>
      </trkpt>
      <trkpt lat="59.0298499725759" lon="14.126063995063305">
        <ele>51.69</ele>
        <time>2025-02-15T20:41:25.213Z</time>
      </trkpt>
      <trkpt lat="59.029940916225314" lon="14.12609995342791">
        <ele>51.71</ele>
        <time>2025-02-15T20:42:17.560Z</time>
      </trkpt>
      <trkpt lat="59.03003194369376" lon="14.126138929277658">
        <ele>51.73</ele>
        <time>2025-02-15T20:43:09.908Z</time>
      </trkpt>
      <trkpt lat="59.03011995367706" lon="14.126181928440928">
        <ele>51.75</ele>
        <time>2025-02-15T20:44:02.258Z</time>
      </trkpt>
      <trkpt lat="59.03020796366036" lon="14.12622693926096">
        <ele>51.78</ele>
        <time>2025-02-15T20:44:54.609Z</time>
      </trkpt>
      <trkpt lat="59.03029496781528" lon="14.126272955909371">
        <ele>51.8</ele>
        <time>2025-02-15T20:45:46.962Z</time>
      </trkpt>
      <trkpt lat="59.03038096614182" lon="14.126317966729403">
        <ele>51.83</ele>
        <time>2025-02-15T20:46:39.316Z</time>
      </trkpt>
      <trkpt lat="59.03046595863998" lon="14.126361971721053">
        <ele>51.86</ele>
        <time>2025-02-15T20:47:31.672Z</time>
      </trkpt>
      <trkpt lat="59.03054994530976" lon="14.126408994197845">
        <ele>51.89</ele>
        <time>2025-02-15T20:48:24.029Z</time>
      </trkpt>
      <trkpt lat="59.030632926151156" lon="14.126457944512367">
        <ele>51.92</ele>
        <time>2025-02-15T20:49:16.387Z</time>
      </trkpt>
      <trkpt lat="59.030717918649316" lon="14.126509996131063">
        <ele>51.96</ele>
        <time>2025-02-15T20:50:08.747Z</time>
      </trkpt>
      <trkpt lat="59.030800983309746" lon="14.126564981415868">
        <ele>52.0</ele>
        <time>2025-02-15T20:51:01.108Z</time>
      </trkpt>
      <trkpt lat="59.030885975807905" lon="14.126620972529054">
        <ele>52.04</ele>
        <time>2025-02-15T20:51:53.471Z</time>
      </trkpt>
      <trkpt lat="59.030969962477684" lon="14.12667796947062">
        <ele>52.09</ele>
        <time>2025-02-15T20:52:45.835Z</time>
      </trkpt>
      <trkpt lat="59.03105394914746" lon="14.126736978068948">
        <ele>52.13</ele>
        <time>2025-02-15T20:53:38.200Z</time>
      </trkpt>
      <trkpt lat="59.03113793581724" lon="14.126796992495656">
        <ele>52.17</ele>
        <time>2025-02-15T20:54:30.567Z</time>
      </trkpt>
      <trkpt lat="59.03122091665864" lon="14.126856923103333">
        <ele>52.22</ele>
        <time>2025-02-15T20:55:22.935Z</time>
      </trkpt>
      <trkpt lat="59.03130297549069" lon="14.126917943358421">
        <ele>52.27</ele>
        <time>2025-02-15T20:56:15.305Z</time>
      </trkpt>
      <trkpt lat="59.031382938846946" lon="14.12697996944189">
        <ele>52.32</ele>
        <time>2025-02-15T20:57:07.676Z</time>
      </trkpt>
      <trkpt lat="59.03146198019385" lon="14.127042917534709">
        <ele>52.38</ele>
        <time>2025-02-15T20:58:00.049Z</time>
      </trkpt>
      <trkpt lat="59.03154194355011" lon="14.12710796110332">
        <ele>52.43</ele>
        <time>2025-02-15T20:58:52.423Z</time>
      </trkpt>
      <trkpt lat="59.03161997906864" lon="14.127176944166422">
        <ele>52.49</ele>
        <time>2025-02-15T20:59:44.798Z</time>
      </trkpt>
      <trkpt lat="59.03169893659651" lon="14.127246933057904">
        <ele>52.55</ele>
        <time>2025-02-15T21:00:37.175Z</time>
      </trkpt>
      <trkpt lat="59.03177596628666" lon="14.127318933606148">
        <ele>52.61</ele>
        <time>2025-02-15T21:01:29.553Z</time>
      </trkpt>
      <trkpt lat="59.031851990148425" lon="14.127392945811152">
        <ele>52.66</ele>
        <time>2025-02-15T21:02:21.932Z</time>
      </trkpt>
      <trkpt lat="59.03192893601954" lon="14.127466958016157">
        <ele>52.72</ele>
        <time>2025-02-15T21:03:14.313Z</time>
      </trkpt>
      <trkpt lat="59.032004959881306" lon="14.127540970221162">
        <ele>52.77</ele>
        <time>2025-02-15T21:04:06.695Z</time>
      </trkpt>
      <trkpt lat="59.03208299539983" lon="14.127614982426167">
        <ele>52.83</ele>
        <time>2025-02-15T21:04:59.079Z</time>
      </trkpt>
      <trkpt lat="59.03215893544257" lon="14.1276909224689">
        <ele>52.88</ele>
        <time>2025-02-15T21:05:51.464Z</time>
      </trkpt>
      <trkpt lat="59.03223596513271" lon="14.127766946330667">
        <ele>52.94</ele>
        <time>2025-02-15T21:06:43.850Z</time>
      </trkpt>
      <trkpt lat="59.03231299482286" lon="14.127844981849194">
        <ele>53.0</ele>
        <time>2025-02-15T21:07:36.238Z</time>
      </trkpt>
      <trkpt lat="59.032389940693974" lon="14.127926956862211">
        <ele>53.07</ele>
        <time>2025-02-15T21:08:28.627Z</time>
      </trkpt>
      <trkpt lat="59.03246697038412" lon="14.128006920218468">
        <ele>53.14</ele>
        <time>2025-02-15T21:09:21.017Z</time>
      </trkpt>
      <trkpt lat="59.032543916255236" lon="14.128086967393756">
        <ele>53.21</ele>
        <time>2025-02-15T21:10:13.409Z</time>
      </trkpt>
      <trkpt lat="59.032619940117" lon="14.128165924921632">
        <ele>53.29</ele>
        <time>2025-02-15T21:11:05.802Z</time>
      </trkpt>
      <trkpt lat="59.03269495815039" lon="14.128243960440159">
        <ele>53.37</ele>
        <time>2025-02-15T21:11:58.197Z</time>
      </trkpt>
      <trkpt lat="59.03276796452701" lon="14.128323923796415">
        <ele>53.45</ele>
        <time>2025-02-15T21:12:50.593Z</time>
      </trkpt>
      <trkpt lat="59.032841976732016" lon="14.128402965143323">
        <ele>53.54</ele>
        <time>2025-02-15T21:13:42.990Z</time>
      </trkpt>
      <trkpt lat="59.0329169947654" lon="14.12847999483347">
        <ele>53.62</ele>
        <time>2025-02-15T21:14:35.389Z</time>
      </trkpt>
      <trkpt lat="59.032988995313644" lon="14.128557946532965">
        <ele>53.71</ele>
        <time>2025-02-15T21:15:27.789Z</time>
      </trkpt>
      <trkpt lat="59.03306292369962" lon="14.128635982051492">
        <ele>53.79</ele>
        <time>2025-02-15T21:16:20.190Z</time>
      </trkpt>
      <trkpt lat="59.03313693590462" lon="14.128713933750987">
        <ele>53.88</ele>
        <time>2025-02-15T21:17:12.593Z</time>
      </trkpt>
      <trkpt lat="59.03321195393801" lon="14.128794986754656">
        <ele>53.97</ele>
        <time>2025-02-15T21:18:04.997Z</time>
      </trkpt>
      <trkpt lat="59.03328797779977" lon="14.12887193262577">
        <ele>54.06</ele>
        <time>2025-02-15T21:18:57.402Z</time>
      </trkpt>
      <trkpt lat="59.03336391784251" lon="14.128948962315917">
        <ele>54.15</ele>
        <time>2025-02-15T21:19:49.809Z</time>
      </trkpt>
      <trkpt lat="59.033441953361034" lon="14.129027919843793">
        <ele>54.25</ele>
        <time>2025-02-15T21:20:42.217Z</time>
      </trkpt>
      <trkpt lat="59.03351898305118" lon="14.129110984504223">
        <ele>54.34</ele>
        <time>2025-02-15T21:21:34.627Z</time>
      </trkpt>
      <trkpt lat="59.033595928922296" lon="14.129195977002382">
        <ele>54.43</ele>
        <time>2025-02-15T21:22:27.038Z</time>
      </trkpt>
      <trkpt lat="59.03367295861244" lon="14.12927895784378">
        <ele>54.52</ele>
        <time>2025-02-15T21:23:19.451Z</time>
      </trkpt>
      <trkpt lat="59.03375099413097" lon="14.129359927028418">
        <ele>54.62</ele>
        <time>2025-02-15T21:24:11.865Z</time>
      </trkpt>
      <trkpt lat="59.033828945830464" lon="14.129440980032086">
        <ele>54.71</ele>
        <time>2025-02-15T21:25:04.280Z</time>
      </trkpt>
      <trkpt lat="59.03390698134899" lon="14.129524966701865">
        <ele>54.81</ele>
        <time>2025-02-15T21:25:56.697Z</time>
      </trkpt>
      <trkpt lat="59.033983927220106" lon="14.129609959200025">
        <ele>54.91</ele>
        <time>2025-02-15T21:26:49.115Z</time>
      </trkpt>
      <trkpt lat="59.03405894525349" lon="14.129691934213042">
        <ele>55.0</ele>
        <time>2025-02-15T21:27:41.535Z</time>
      </trkpt>
      <trkpt lat="59.03413396328688" lon="14.12976996973157">
        <ele>55.1</ele>
        <time>2025-02-15T21:28:33.956Z</time>
      </trkpt>
      <trkpt lat="59.03420797549188" lon="14.129844987764955">
        <ele>55.2</ele>
        <time>2025-02-15T21:29:26.378Z</time>
      </trkpt>
      <trkpt lat="59.034281987696886" lon="14.12992293946445">
        <ele>55.3</ele>
        <time>2025-02-15T21:30:18.802Z</time>
      </trkpt>
      <trkpt lat="59.03435599990189" lon="14.130000974982977">
        <ele>55.4</ele>
        <time>2025-02-15T21:31:11.227Z</time>
      </trkpt>
      <trkpt lat="59.03442892245948" lon="14.130076998844743">
        <ele>55.5</ele>
        <time>2025-02-15T21:32:03.653Z</time>
      </trkpt>
      <trkpt lat="59.03450192883611" lon="14.130155956372619">
        <ele>55.6</ele>
        <time>2025-02-15T21:32:56.081Z</time>
      </trkpt>
      <trkpt lat="59.03457594104111" lon="14.130238937214017">
        <ele>55.7</ele>
        <time>2025-02-15T21:33:48.510Z</time>
      </trkpt>
      <trkpt lat="59.03464995324612" lon="14.130320996046066">
        <ele>55.8</ele>
        <time>2025-02-15T21:34:40.940Z</time>
      </trkpt>
      <trkpt lat="59.034728994593024" lon="14.130404982715845">
        <ele>55.9</ele>
        <time>2025-02-15T21:35:33.372Z</time>
      </trkpt>
      <trkpt lat="59.03480996377766" lon="14.130487963557243">
        <ele>56.01</ele>
        <time>2025-02-15T21:36:25.805Z</time>
      </trkpt>
      <trkpt lat="59.0348909329623" lon="14.130572956055403">
        <ele>56.11</ele>
        <time>2025-02-15T21:37:18.240Z</time>
      </trkpt>
      <trkpt lat="59.03497198596597" lon="14.130659960210323">
        <ele>56.22</ele>
        <time>2025-02-15T21:38:10.676Z</time>
      </trkpt>
      <trkpt lat="59.035052955150604" lon="14.130744952708483">
        <ele>56.33</ele>
        <time>2025-02-15T21:39:03.114Z</time>
      </trkpt>
      <trkpt lat="59.03513392433524" lon="14.1308269277215">
        <ele>56.44</ele>
        <time>2025-02-15T21:39:55.553Z</time>
      </trkpt>
      <trkpt lat="59.03521698899567" lon="14.13091192021966">
        <ele>56.56</ele>
        <time>2025-02-15T21:40:47.994Z</time>
      </trkpt>
      <trkpt lat="59.03529996983707" lon="14.13099892437458">
        <ele>56.67</ele>
        <time>2025-02-15T21:41:40.436Z</time>
      </trkpt>
      <trkpt lat="59.03538496233523" lon="14.131085928529501">
        <ele>56.78</ele>
        <time>2025-02-15T21:42:32.880Z</time>
      </trkpt>
      <trkpt lat="59.03547196649015" lon="14.131172932684422">
        <ele>56.89</ele>
        <time>2025-02-15T21:43:25.325Z</time>
      </trkpt>
      <trkpt lat="59.03555595315993" lon="14.131259936839342">
        <ele>57.0</ele>
        <time>2025-02-15T21:44:17.772Z</time>
      </trkpt>
      <trkpt lat="59.03563893400133" lon="14.131346940994263">
        <ele>57.11</ele>
        <time>2025-02-15T21:45:10.220Z</time>
      </trkpt>
      <trkpt lat="59.03572199866176" lon="14.131432939320803">
        <ele>57.22</ele>
        <time>2025-02-15T21:46:02.670Z</time>
      </trkpt>
      <trkpt lat="59.035805985331535" lon="14.131517931818962">
        <ele>57.33</ele>
        <time>2025-02-15T21:46:55.121Z</time>
      </trkpt>
      <trkpt lat="59.03588695451617" lon="14.13159797899425">
        <ele>57.43</ele>
        <time>2025-02-15T21:47:47.574Z</time>
      </trkpt>
      <trkpt lat="59.0359649900347" lon="14.131678948178887">
        <ele>57.54</ele>
        <time>2025-02-15T21:48:40.028Z</time>
      </trkpt>
      <trkpt lat="59.036042941734195" lon="14.131759917363524">
        <ele>57.65</ele>
        <time>2025-02-15T21:49:32.484Z</time>
      </trkpt>
      <trkpt lat="59.03611896559596" lon="14.13183694705367">
        <ele>57.76</ele>
        <time>2025-02-15T21:50:24.941Z</time>
      </trkpt>
      <trkpt lat="59.036192977800965" lon="14.131913976743817">
        <ele>57.86</ele>
        <time>2025-02-15T21:51:17.399Z</time>
      </trkpt>
      <trkpt lat="59.03626598417759" lon="14.131988994777203">
        <ele>57.97</ele>
        <time>2025-02-15T21:52:09.859Z</time>
      </trkpt>
      <trkpt lat="59.03633798472583" lon="14.132063928991556">
        <ele>58.09</ele>
        <time>2025-02-15T21:53:02.320Z</time>
      </trkpt>
      <trkpt lat="59.036407973617315" lon="14.13213794119656">
        <ele>58.2</ele>
        <time>2025-02-15T21:53:54.782Z</time>
      </trkpt>
      <trkpt lat="59.03647896833718" lon="14.132210947573185">
        <ele>58.31</ele>
        <time>2025-02-15T21:54:47.246Z</time>
      </trkpt>
      <trkpt lat="59.03654895722866" lon="14.13228495977819">
        <ele>58.42</ele>
        <time>2025-02-15T21:55:39.711Z</time>
      </trkpt>
      <trkpt lat="59.036620957776904" lon="14.132358971983194">
        <ele>58.53</ele>
        <time>2025-02-15T21:56:32.177Z</time>
      </trkpt>
      <trkpt lat="59.03669094666839" lon="14.13243399001658">
        <ele>58.63</ele>
        <time>2025-02-15T21:57:24.645Z</time>
      </trkpt>
      <trkpt lat="59.03676495887339" lon="14.132511941716075">
        <ele>58.74</ele>
        <time>2025-02-15T21:58:17.114Z</time>
      </trkpt>
      <trkpt lat="59.036839976906776" lon="14.132590983062983">
        <ele>58.84</ele>
        <time>2025-02-15T21:59:09.584Z</time>
      </trkpt>
      <trkpt lat="59.03691692277789" lon="14.132669940590858">
        <ele>58.94</ele>
        <time>2025-02-15T22:00:02.056Z</time>
      </trkpt>
      <trkpt lat="59.036988923326135" lon="14.132744958624244">
        <ele>59.04</ele>
        <time>2025-02-15T22:00:54.529Z</time>
      </trkpt>
      <trkpt lat="59.03706192970276" lon="14.132819976657629">
        <ele>59.14</ele>
        <time>2025-02-15T22:01:47.003Z</time>
      </trkpt>
      <trkpt lat="59.03713493607938" lon="14.132894994691014">
        <ele>59.25</ele>
        <time>2025-02-15T22:02:39.479Z</time>
      </trkpt>
      <trkpt lat="59.037204924970865" lon="14.132967917248607">
        <ele>59.35</ele>
        <time>2025-02-15T22:03:31.956Z</time>
      </trkpt>
      <trkpt lat="59.03727298602462" lon="14.13303991779685">
        <ele>59.45</ele>
        <time>2025-02-15T22:04:24.434Z</time>
      </trkpt>
      <trkpt lat="59.0373379457742" lon="14.133110996335745">
        <ele>59.54</ele>
        <time>2025-02-15T22:05:16.913Z</time>
      </trkpt>
      <trkpt lat="59.03740298934281" lon="14.133178973570466">
        <ele>59.64</ele>
        <time>2025-02-15T22:06:09.393Z</time>
      </trkpt>
      <trkpt lat="59.03746694326401" lon="14.133245944976807">
        <ele>59.74</ele>
        <time>2025-02-15T22:07:01.875Z</time>
      </trkpt>
      <trkpt lat="59.03752997517586" lon="14.133311994373798">
        <ele>59.83</ele>
        <time>2025-02-15T22:07:54.358Z</time>
      </trkpt>
      <trkpt lat="59.037590995430946" lon="14.133373936638236">
        <ele>59.93</ele>
        <time>2025-02-15T22:08:46.842Z</time>
      </trkpt>
      <trkpt lat="59.03765092603862" lon="14.133436968550086">
        <ele>60.02</ele>
        <time>2025-02-15T22:09:39.327Z</time>
      </trkpt>
      <trkpt lat="59.03770792298019" lon="14.133500922471285">
        <ele>60.11</ele>
        <time>2025-02-15T22:10:31.813Z</time>
      </trkpt>
      <trkpt lat="59.03776399791241" lon="14.133563954383135">
        <ele>60.2</ele>
        <time>2025-02-15T22:11:24.300Z</time>
      </trkpt>
      <trkpt lat="59.03781998902559" lon="14.133621957153082">
        <ele>60.29</ele>
        <time>2025-02-15T22:12:16.788Z</time>
      </trkpt>
      <trkpt lat="59.03787698596716" lon="14.13368096575141">
        <ele>60.38</ele>
        <time>2025-02-15T22:13:09.277Z</time>
      </trkpt>
      <trkpt lat="59.037931971251965" lon="14.133739974349737">
        <ele>60.46</ele>
        <time>2025-02-15T22:14:01.767Z</time>
      </trkpt>
      <trkpt lat="59.03798595070839" lon="14.133797977119684">
        <ele>60.54</ele>
        <time>2025-02-15T22:14:54.258Z</time>
      </trkpt>
      <trkpt lat="59.038039930164814" lon="14.13385296240449">
        <ele>60.61</ele>
        <time>2025-02-15T22:15:46.750Z</time>
      </trkpt>
      <trkpt lat="59.03809198178351" lon="14.133907947689295">
        <ele>60.68</ele>
        <time>2025-02-15T22:16:39.243Z</time>
      </trkpt>
      <trkpt lat="59.03814294375479" lon="14.13396393880248">
        <ele>60.75</ele>
        <time>2025-02-15T22:17:31.737Z</time>
      </trkpt>
      <trkpt lat="59.03819398954511" lon="14.134022947400808">
        <ele>60.81</ele>
        <time>2025-02-15T22:18:24.232Z</time>
      </trkpt>
      <trkpt lat="59.03824796900153" lon="14.134082961827517">
        <ele>60.87</ele>
        <time>2025-02-15T22:19:16.728Z</time>
      </trkpt>
      <trkpt lat="59.03830295428634" lon="14.134139958769083">
        <ele>60.93</ele>
        <time>2025-02-15T22:20:09.225Z</time>
      </trkpt>
      <trkpt lat="59.03835793957114" lon="14.13419695571065">
        <ele>60.98</ele>
        <time>2025-02-15T22:21:01.723Z</time>
      </trkpt>
      <trkpt lat="59.03841292485595" lon="14.134254958480597">
        <ele>61.03</ele>
        <time>2025-02-15T22:21:54.222Z</time>
      </trkpt>
      <trkpt lat="59.038467993959785" lon="14.134313967078924">
        <ele>61.08</ele>
        <time>2025-02-15T22:22:46.722Z</time>
      </trkpt>
      <trkpt lat="59.03852499090135" lon="14.134373981505632">
        <ele>61.12</ele>
        <time>2025-02-15T22:23:39.223Z</time>
      </trkpt>
      <trkpt lat="59.0385829936713" lon="14.13443491794169">
        <ele>61.17</ele>
        <time>2025-02-15T22:24:31.725Z</time>
      </trkpt>
      <trkpt lat="59.038642924278975" lon="14.134493926540017">
        <ele>61.21</ele>
        <time>2025-02-15T22:25:24.228Z</time>
      </trkpt>
      <trkpt lat="59.03870092704892" lon="14.134552935138345">
        <ele>61.24</ele>
        <time>2025-02-15T22:26:16.732Z</time>
      </trkpt>
      <trkpt lat="59.03876094147563" lon="14.134611943736672">
        <ele>61.28</ele>
        <time>2025-02-15T22:27:09.237Z</time>
      </trkpt>
      <trkpt lat="59.03881995007396" lon="14.134672963991761">
        <ele>61.31</ele>
        <time>2025-02-15T22:28:01.743Z</time>
      </trkpt>
      <trkpt lat="59.038879964500666" lon="14.13473691791296">
        <ele>61.34</ele>
        <time>2025-02-15T22:28:54.250Z</time>
      </trkpt>
      <trkpt lat="59.038940984755754" lon="14.13480095565319">
        <ele>61.37</ele>
        <time>2025-02-15T22:29:46.759Z</time>
      </trkpt>
      <trkpt lat="59.03900192119181" lon="14.13486298173666">
        <ele>61.39</ele>
        <time>2025-02-15T22:30:39.269Z</time>
      </trkpt>
      <trkpt lat="59.0390629414469" lon="14.134923918172717">
        <ele>61.41</ele>
        <time>2025-02-15T22:31:31.780Z</time>
      </trkpt>
      <trkpt lat="59.03912597335875" lon="14.134982926771045">
        <ele>61.43</ele>
        <time>2025-02-15T22:32:24.292Z</time>
      </trkpt>
      <trkpt lat="59.03918992727995" lon="14.135042941197753">
        <ele>61.44</ele>
        <time>2025-02-15T22:33:16.805Z</time>
      </trkpt>
      <trkpt lat="59.0392529591918" lon="14.13510194979608">
        <ele>61.46</ele>
        <time>2025-02-15T22:34:09.319Z</time>
      </trkpt>
      <trkpt lat="59.03931892476976" lon="14.135161964222789">
        <ele>61.46</ele>
        <time>2025-02-15T22:35:01.834Z</time>
      </trkpt>
      <trkpt lat="59.03938296250999" lon="14.135225918143988">
        <ele>61.46</ele>
        <time>2025-02-15T22:35:54.350Z</time>
      </trkpt>
      <trkpt lat="59.03944892808795" lon="14.135287944227457">
        <ele>61.46</ele>
        <time>2025-02-15T22:36:46.868Z</time>
      </trkpt>
      <trkpt lat="59.03951799497008" lon="14.135348964482546">
        <ele>61.45</ele>
        <time>2025-02-15T22:37:39.387Z</time>
      </trkpt>
      <trkpt lat="59.039585972204804" lon="14.135406967252493">
        <ele>61.44</ele>
        <time>2025-02-15T22:38:31.907Z</time>
      </trkpt>
      <trkpt lat="59.03965596109629" lon="14.135462958365679">
        <ele>61.43</ele>
        <time>2025-02-15T22:39:24.428Z</time>
      </trkpt>
      <trkpt lat="59.03972494415939" lon="14.135519955307245">
        <ele>61.41</ele>
        <time>2025-02-15T22:40:16.950Z</time>
      </trkpt>
      <trkpt lat="59.03979593887925" lon="14.135577958077192">
        <ele>61.39</ele>
        <time>2025-02-15T22:41:09.474Z</time>
      </trkpt>
      <trkpt lat="59.039868945255876" lon="14.135634955018759">
        <ele>61.36</ele>
        <time>2025-02-15T22:42:01.999Z</time>
      </trkpt>
      <trkpt lat="59.03994295746088" lon="14.135693963617086">
        <ele>61.33</ele>
        <time>2025-02-15T22:42:54.525Z</time>
      </trkpt>
      <trkpt lat="59.040016969665885" lon="14.135749954730272">
        <ele>61.29</ele>
        <time>2025-02-15T22:43:47.053Z</time>
      </trkpt>
      <trkpt lat="59.04009399935603" lon="14.135805945843458">
        <ele>61.26</ele>
        <time>2025-02-15T22:44:39.582Z</time>
      </trkpt>
      <trkpt lat="59.04017195105553" lon="14.135861936956644">
        <ele>61.22</ele>
        <time>2025-02-15T22:45:32.112Z</time>
      </trkpt>
      <trkpt lat="59.040253926068544" lon="14.13591792806983">
        <ele>61.18</ele>
        <time>2025-02-15T22:46:24.644Z</time>
      </trkpt>
      <trkpt lat="59.04033397324383" lon="14.135971991345286">
        <ele>61.13</ele>
        <time>2025-02-15T22:47:17.177Z</time>
      </trkpt>
      <trkpt lat="59.04041494242847" lon="14.13602496497333">
        <ele>61.09</ele>
        <time>2025-02-15T22:48:09.711Z</time>
      </trkpt>
      <trkpt lat="59.04049691744149" lon="14.136074921116233">
        <ele>61.04</ele>
        <time>2025-02-15T22:49:02.247Z</time>
      </trkpt>
      <trkpt lat="59.04057998210192" lon="14.136124961078167">
        <ele>60.98</ele>
        <time>2025-02-15T22:49:54.784Z</time>
      </trkpt>
      <trkpt lat="59.040662962943316" lon="14.13617491722107">
        <ele>60.93</ele>
        <time>2025-02-15T22:50:47.322Z</time>
      </trkpt>
      <trkpt lat="59.040747955441475" lon="14.136225963011384">
        <ele>60.87</ele>
        <time>2025-02-15T22:51:39.862Z</time>
      </trkpt>
      <trkpt lat="59.040833953768015" lon="14.136273991316557">
        <ele>60.8</ele>
        <time>2025-02-15T22:52:32.403Z</time>
      </trkpt>
      <trkpt lat="59.040918946266174" lon="14.136320929974318">
        <ele>60.74</ele>
        <time>2025-02-15T22:53:24.946Z</time>
      </trkpt>
      <trkpt lat="59.041003938764334" lon="14.136365940794349">
        <ele>60.67</ele>
        <time>2025-02-15T22:54:17.490Z</time>
      </trkpt>
      <trkpt lat="59.041089937090874" lon="14.136406928300858">
        <ele>60.6</ele>
        <time>2025-02-15T22:55:10.036Z</time>
      </trkpt>
      <trkpt lat="59.041175935417414" lon="14.136447999626398">
        <ele>60.54</ele>
        <time>2025-02-15T22:56:02.583Z</time>
      </trkpt>
      <trkpt lat="59.041261933743954" lon="14.136487981304526">
        <ele>60.46</ele>
        <time>2025-02-15T22:56:55.131Z</time>
      </trkpt>
      <trkpt lat="59.041348937898874" lon="14.136526957154274">
        <ele>60.38</ele>
        <time>2025-02-15T22:57:47.681Z</time>
      </trkpt>
      <trkpt lat="59.041434936225414" lon="14.136565933004022">
        <ele>60.29</ele>
        <time>2025-02-15T22:58:40.232Z</time>
      </trkpt>
      <trkpt lat="59.041519928723574" lon="14.13660197518766">
        <ele>60.21</ele>
        <time>2025-02-15T22:59:32.785Z</time>
      </trkpt>
      <trkpt lat="59.04160492122173" lon="14.136636927723885">
        <ele>60.11</ele>
        <time>2025-02-15T23:00:25.339Z</time>
      </trkpt>
      <trkpt lat="59.041688991710544" lon="14.136670958250761">
        <ele>60.02</ele>
        <time>2025-02-15T23:01:17.894Z</time>
      </trkpt>
      <trkpt lat="59.04177096672356" lon="14.136704988777637">
        <ele>59.92</ele>
        <time>2025-02-15T23:02:10.451Z</time>
      </trkpt>
      <trkpt lat="59.04185093007982" lon="14.136738935485482">
        <ele>59.83</ele>
        <time>2025-02-15T23:03:03.009Z</time>
      </trkpt>
      <trkpt lat="59.041928965598345" lon="14.13677497766912">
        <ele>59.73</ele>
        <time>2025-02-15T23:03:55.568Z</time>
      </trkpt>
      <trkpt lat="59.04200691729784" lon="14.136809930205345">
        <ele>59.63</ele>
        <time>2025-02-15T23:04:48.129Z</time>
      </trkpt>
      <trkpt lat="59.04208595864475" lon="14.136843960732222">
        <ele>59.53</ele>
        <time>2025-02-15T23:05:40.691Z</time>
      </trkpt>
      <trkpt lat="59.042164999991655" lon="14.136874973773956">
        <ele>59.42</ele>
        <time>2025-02-15T23:06:33.254Z</time>
      </trkpt>
      <trkpt lat="59.04224496334791" lon="14.13690498098731">
        <ele>59.31</ele>
        <time>2025-02-15T23:07:25.819Z</time>
      </trkpt>
      <trkpt lat="59.04232299886644" lon="14.136935994029045">
        <ele>59.2</ele>
        <time>2025-02-15T23:08:18.385Z</time>
      </trkpt>
      <trkpt lat="59.042400950565934" lon="14.136964995414019">
        <ele>59.09</ele>
        <time>2025-02-15T23:09:10.952Z</time>
      </trkpt>
      <trkpt lat="59.04248099774122" lon="14.136994918808341">
        <ele>58.97</ele>
        <time>2025-02-15T23:10:03.520Z</time>
      </trkpt>
      <trkpt lat="59.04256096109748" lon="14.137027943506837">
        <ele>58.85</ele>
        <time>2025-02-15T23:10:56.090Z</time>
      </trkpt>
      <trkpt lat="59.042640924453735" lon="14.137062979862094">
        <ele>58.73</ele>
        <time>2025-02-15T23:11:48.661Z</time>
      </trkpt>
      <trkpt lat="59.042723989114165" lon="14.13709793239832">
        <ele>58.62</ele>
        <time>2025-02-15T23:12:41.233Z</time>
      </trkpt>
      <trkpt lat="59.042807975783944" lon="14.137133974581957">
        <ele>58.5</ele>
        <time>2025-02-15T23:13:33.807Z</time>
      </trkpt>
      <trkpt lat="59.0428929682821" lon="14.137169932946563">
        <ele>58.38</ele>
        <time>2025-02-15T23:14:26.382Z</time>
      </trkpt>
      <trkpt lat="59.04297796078026" lon="14.13720396347344">
        <ele>58.27</ele>
        <time>2025-02-15T23:15:18.959Z</time>
      </trkpt>
      <trkpt lat="59.04306295327842" lon="14.137237994000316">
        <ele>58.15</ele>
        <time>2025-02-15T23:16:11.537Z</time>
      </trkpt>
      <trkpt lat="59.04314895160496" lon="14.137272946536541">
        <ele>58.02</ele>
        <time>2025-02-15T23:17:04.116Z</time>
      </trkpt>
      <trkpt lat="59.0432349499315" lon="14.13730999454856">
        <ele>57.9</ele>
        <time>2025-02-15T23:17:56.697Z</time>
      </trkpt>
      <trkpt lat="59.04332195408642" lon="14.137347964569926">
        <ele>57.77</ele>
        <time>2025-02-15T23:18:49.279Z</time>
      </trkpt>
      <trkpt lat="59.04340895824134" lon="14.137386940419674">
        <ele>57.64</ele>
        <time>2025-02-15T23:19:41.863Z</time>
      </trkpt>
      <trkpt lat="59.043497974053025" lon="14.137429939582944">
        <ele>57.5</ele>
        <time>2025-02-15T23:20:34.448Z</time>
      </trkpt>
      <trkpt lat="59.04358698986471" lon="14.137469921261072">
        <ele>57.36</ele>
        <time>2025-02-15T23:21:27.035Z</time>
      </trkpt>
      <trkpt lat="59.04367592185736" lon="14.137507975101471">
        <ele>57.23</ele>
        <time>2025-02-15T23:22:19.623Z</time>
      </trkpt>
      <trkpt lat="59.04376594349742" lon="14.137544939294457">
        <ele>57.09</ele>
        <time>2025-02-15T23:23:12.213Z</time>
      </trkpt>
      <trkpt lat="59.04385697096586" lon="14.137582993134856">
        <ele>56.95</ele>
        <time>2025-02-15T23:24:04.804Z</time>
      </trkpt>
      <trkpt lat="59.043947998434305" lon="14.137618951499462">
        <ele>56.81</ele>
        <time>2025-02-15T23:24:57.397Z</time>
      </trkpt>
      <trkpt lat="59.0440399479121" lon="14.137652982026339">
        <ele>56.67</ele>
        <time>2025-02-15T23:25:49.991Z</time>
      </trkpt>
      <trkpt lat="59.04413097538054" lon="14.137684917077422">
        <ele>56.53</ele>
        <time>2025-02-15T23:26:42.587Z</time>
      </trkpt>
      <trkpt lat="59.04422191902995" lon="14.13772095926106">
        <ele>56.4</ele>
        <time>2025-02-15T23:27:35.184Z</time>
      </trkpt>
      <trkpt lat="59.04431093484163" lon="14.137756917625666">
        <ele>56.26</ele>
        <time>2025-02-15T23:28:27.782Z</time>
      </trkpt>
      <trkpt lat="59.044398944824934" lon="14.137792959809303">
        <ele>56.12</ele>
        <time>2025-02-15T23:29:20.382Z</time>
      </trkpt>
      <trkpt lat="59.044485948979855" lon="14.13782992400229">
        <ele>55.98</ele>
        <time>2025-02-15T23:30:12.983Z</time>
      </trkpt>
      <trkpt lat="59.044572953134775" lon="14.137867977842689">
        <ele>55.85</ele>
        <time>2025-02-15T23:31:05.586Z</time>
      </trkpt>
      <trkpt lat="59.04466196894646" lon="14.137905947864056">
        <ele>55.71</ele>
        <time>2025-02-15T23:31:58.190Z</time>
      </trkpt>
      <trkpt lat="59.04475098475814" lon="14.137939978390932">
        <ele>55.58</ele>
        <time>2025-02-15T23:32:50.796Z</time>
      </trkpt>
      <trkpt lat="59.04484092257917" lon="14.137975936755538">
        <ele>55.45</ele>
        <time>2025-02-15T23:33:43.403Z</time>
      </trkpt>
      <trkpt lat="59.04492993839085" lon="14.138012984767556">
        <ele>55.31</ele>
        <time>2025-02-15T23:34:36.012Z</time>
      </trkpt>
      <trkpt lat="59.04501996003091" lon="14.138049948960543">
        <ele>55.18</ele>
        <time>2025-02-15T23:35:28.622Z</time>
      </trkpt>
      <trkpt lat="59.045109981670976" lon="14.1380849853158">
        <ele>55.05</ele>
        <time>2025-02-15T23:36:21.234Z</time>
      </trkpt>
      <trkpt lat="59.04520092532039" lon="14.138118932023644">
        <ele>54.92</ele>
        <time>2025-02-15T23:37:13.847Z</time>
      </trkpt>
      <trkpt lat="59.04528994113207" lon="14.138154974207282">
        <ele>54.78</ele>
        <time>2025-02-15T23:38:06.462Z</time>
      </trkpt>
      <trkpt lat="59.04537694528699" lon="14.138189926743507">
        <ele>54.65</ele>
        <time>2025-02-15T23:38:59.078Z</time>
      </trkpt>
      <trkpt lat="59.04546193778515" lon="14.138224963098764">
        <ele>54.51</ele>
        <time>2025-02-15T23:39:51.695Z</time>
      </trkpt>
      <trkpt lat="59.04554693028331" lon="14.138262933120131">
        <ele>54.38</ele>
        <time>2025-02-15T23:40:44.314Z</time>
      </trkpt>
      <trkpt lat="59.04562999494374" lon="14.13830098696053">
        <ele>54.25</ele>
        <time>2025-02-15T23:41:36.934Z</time>
      </trkpt>
      <trkpt lat="59.045711969956756" lon="14.138336945325136">
        <ele>54.12</ele>
        <time>2025-02-15T23:42:29.555Z</time>
      </trkpt>
      <trkpt lat="59.04579193331301" lon="14.138370975852013">
        <ele>53.99</ele>
        <time>2025-02-15T23:43:22.178Z</time>
      </trkpt>
      <trkpt lat="59.0458719804883" lon="14.138405928388238">
        <ele>53.86</ele>
        <time>2025-02-15T23:44:14.802Z</time>
      </trkpt>
      <trkpt lat="59.04595194384456" lon="14.138441970571876">
        <ele>53.73</ele>
        <time>2025-02-15T23:45:07.427Z</time>
      </trkpt>
      <trkpt lat="59.046031991019845" lon="14.13847398944199">
        <ele>53.6</ele>
        <time>2025-02-15T23:46:00.054Z</time>
      </trkpt>
      <trkpt lat="59.04611296020448" lon="14.138507936149836">
        <ele>53.48</ele>
        <time>2025-02-15T23:46:52.682Z</time>
      </trkpt>
      <trkpt lat="59.04619392938912" lon="14.13853995501995">
        <ele>53.36</ele>
        <time>2025-02-15T23:47:45.311Z</time>
      </trkpt>
      <trkpt lat="59.04627699404955" lon="14.138571973890066">
        <ele>53.23</ele>
        <time>2025-02-15T23:48:37.942Z</time>
      </trkpt>
      <trkpt lat="59.046357963234186" lon="14.138603992760181">
        <ele>53.11</ele>
        <time>2025-02-15T23:49:30.574Z</time>
      </trkpt>
      <trkpt lat="59.04643792659044" lon="14.138637939468026">
        <ele>52.99</ele>
        <time>2025-02-15T23:50:23.207Z</time>
      </trkpt>
      <trkpt lat="59.04651696793735" lon="14.13866895250976">
        <ele>52.87</ele>
        <time>2025-02-15T23:51:15.842Z</time>
      </trkpt>
      <trkpt lat="59.04659693129361" lon="14.138700971379876">
        <ele>52.74</ele>
        <time>2025-02-15T23:52:08.478Z</time>
      </trkpt>
      <trkpt lat="59.046675972640514" lon="14.138733996078372">
        <ele>52.62</ele>
        <time>2025-02-15T23:53:01.115Z</time>
      </trkpt>
      <trkpt lat="59.04675392434001" lon="14.138766936957836">
        <ele>52.5</ele>
        <time>2025-02-15T23:53:53.754Z</time>
      </trkpt>
      <trkpt lat="59.04683296568692" lon="14.13879794999957">
        <ele>52.38</ele>
        <time>2025-02-15T23:54:46.394Z</time>
      </trkpt>
      <trkpt lat="59.04691192321479" lon="14.138828963041306">
        <ele>52.26</ele>
        <time>2025-02-15T23:55:39.035Z</time>
      </trkpt>
      <trkpt lat="59.04699197039008" lon="14.138865927234292">
        <ele>52.15</ele>
        <time>2025-02-15T23:56:31.677Z</time>
      </trkpt>
      <trkpt lat="59.04707092791796" lon="14.138904986903071">
        <ele>52.04</ele>
        <time>2025-02-15T23:57:24.321Z</time>
      </trkpt>
      <trkpt lat="59.047150975093246" lon="14.138940945267677">
        <ele>51.93</ele>
        <time>2025-02-15T23:58:16.966Z</time>
      </trkpt>
      <trkpt lat="59.04723194427788" lon="14.138974975794554">
        <ele>51.82</ele>
        <time>2025-02-15T23:59:09.612Z</time>
      </trkpt>
      <trkpt lat="59.04731299728155" lon="14.139007916674018">
        <ele>51.72</ele>
        <time>2025-02-16T00:00:02.260Z</time>
      </trkpt>
      <trkpt lat="59.04739497229457" lon="14.139043958857656">
        <ele>51.61</ele>
        <time>2025-02-16T00:00:54.909Z</time>
      </trkpt>
      <trkpt lat="59.047475941479206" lon="14.139080923050642">
        <ele>51.51</ele>
        <time>2025-02-16T00:01:47.559Z</time>
      </trkpt>
      <trkpt lat="59.047556994482875" lon="14.139119982719421">
        <ele>51.41</ele>
        <time>2025-02-16T00:02:40.211Z</time>
      </trkpt>
      <trkpt lat="59.04763796366751" lon="14.139158958569169">
        <ele>51.31</ele>
        <time>2025-02-16T00:03:32.864Z</time>
      </trkpt>
      <trkpt lat="59.04771893285215" lon="14.139197934418917">
        <ele>51.21</ele>
        <time>2025-02-16T00:04:25.518Z</time>
      </trkpt>
      <trkpt lat="59.04779898002744" lon="14.139236994087696">
        <ele>51.12</ele>
        <time>2025-02-16T00:05:18.174Z</time>
      </trkpt>
      <trkpt lat="59.047879949212074" lon="14.139276975765824">
        <ele>51.02</ele>
        <time>2025-02-16T00:06:10.831Z</time>
      </trkpt>
      <trkpt lat="59.04795999638736" lon="14.139317963272333">
        <ele>50.93</ele>
        <time>2025-02-16T00:07:03.489Z</time>
      </trkpt>
      <trkpt lat="59.04804197140038" lon="14.139359956607223">
        <ele>50.85</ele>
        <time>2025-02-16T00:07:56.149Z</time>
      </trkpt>
      <trkpt lat="59.0481239464134" lon="14.139403961598873">
        <ele>50.77</ele>
        <time>2025-02-16T00:08:48.810Z</time>
      </trkpt>
      <trkpt lat="59.048205921426415" lon="14.139448972418904">
        <ele>50.69</ele>
        <time>2025-02-16T00:09:41.473Z</time>
      </trkpt>
      <trkpt lat="59.048286974430084" lon="14.139490965753794">
        <ele>50.61</ele>
        <time>2025-02-16T00:10:34.137Z</time>
      </trkpt>
      <trkpt lat="59.04836794361472" lon="14.139533964917064">
        <ele>50.53</ele>
        <time>2025-02-16T00:11:26.802Z</time>
      </trkpt>
      <trkpt lat="59.04844799079001" lon="14.139579981565475">
        <ele>50.45</ele>
        <time>2025-02-16T00:12:19.469Z</time>
      </trkpt>
      <trkpt lat="59.048527954146266" lon="14.139623986557126">
        <ele>50.37</ele>
        <time>2025-02-16T00:13:12.137Z</time>
      </trkpt>
      <trkpt lat="59.048606995493174" lon="14.139670925214887">
        <ele>50.3</ele>
        <time>2025-02-16T00:14:04.806Z</time>
      </trkpt>
      <trkpt lat="59.04868796467781" lon="14.139717947691679">
        <ele>50.22</ele>
        <time>2025-02-16T00:14:57.477Z</time>
      </trkpt>
      <trkpt lat="59.04876893386245" lon="14.13976396434009">
        <ele>50.15</ele>
        <time>2025-02-16T00:15:50.149Z</time>
      </trkpt>
      <trkpt lat="59.04884998686612" lon="14.139809980988503">
        <ele>50.09</ele>
        <time>2025-02-16T00:16:42.822Z</time>
      </trkpt>
      <trkpt lat="59.04892995022237" lon="14.139856919646263">
        <ele>50.03</ele>
        <time>2025-02-16T00:17:35.497Z</time>
      </trkpt>
      <trkpt lat="59.0490079857409" lon="14.139905953779817">
        <ele>49.98</ele>
        <time>2025-02-16T00:18:28.173Z</time>
      </trkpt>
      <trkpt lat="59.04908794909716" lon="14.13995498791337">
        <ele>49.92</ele>
        <time>2025-02-16T00:19:20.850Z</time>
      </trkpt>
      <trkpt lat="59.049167996272445" lon="14.14000192657113">
        <ele>49.87</ele>
        <time>2025-02-16T00:20:13.529Z</time>
      </trkpt>
      <trkpt lat="59.04925097711384" lon="14.140051966533065">
        <ele>49.81</ele>
        <time>2025-02-16T00:21:06.209Z</time>
      </trkpt>
      <trkpt lat="59.04933295212686" lon="14.140101922675967">
        <ele>49.77</ele>
        <time>2025-02-16T00:21:58.890Z</time>
      </trkpt>
      <trkpt lat="59.04941492713988" lon="14.14014894515276">
        <ele>49.71</ele>
        <time>2025-02-16T00:22:51.573Z</time>
      </trkpt>
      <trkpt lat="59.04949598014355" lon="14.140195967629552">
        <ele>49.66</ele>
        <time>2025-02-16T00:23:44.257Z</time>
      </trkpt>
      <trkpt lat="59.049576949328184" lon="14.140245923772454">
        <ele>49.62</ele>
        <time>2025-02-16T00:24:36.942Z</time>
      </trkpt>
      <trkpt lat="59.04965699650347" lon="14.140293952077627">
        <ele>49.58</ele>
        <time>2025-02-16T00:25:29.629Z</time>
      </trkpt>
      <trkpt lat="59.04973695985973" lon="14.14034298621118">
        <ele>49.54</ele>
        <time>2025-02-16T00:26:22.317Z</time>
      </trkpt>
      <trkpt lat="59.049816923215985" lon="14.140391936525702">
        <ele>49.51</ele>
        <time>2025-02-16T00:27:15.007Z</time>
      </trkpt>
      <trkpt lat="59.049897976219654" lon="14.140442982316017">
        <ele>49.48</ele>
        <time>2025-02-16T00:28:07.698Z</time>
      </trkpt>
      <trkpt lat="59.04997995123267" lon="14.1404939442873">
        <ele>49.43</ele>
        <time>2025-02-16T00:29:00.390Z</time>
      </trkpt>
      <trkpt lat="59.05006293207407" lon="14.140543984249234">
        <ele>49.38</ele>
        <time>2025-02-16T00:29:53.084Z</time>
      </trkpt>
      <trkpt lat="59.0501459967345" lon="14.140593940392137">
        <ele>49.33</ele>
        <time>2025-02-16T00:30:45.779Z</time>
      </trkpt>
      <trkpt lat="59.0502289775759" lon="14.140645992010832">
        <ele>49.31</ele>
        <time>2025-02-16T00:31:38.475Z</time>
      </trkpt>
      <trkpt lat="59.050311958417296" lon="14.140697959810495">
        <ele>49.29</ele>
        <time>2025-02-16T00:32:31.173Z</time>
      </trkpt>
      <trkpt lat="59.050393933430314" lon="14.140746993944049">
        <ele>49.29</ele>
        <time>2025-02-16T00:33:23.872Z</time>
      </trkpt>
      <trkpt lat="59.05047498643398" lon="14.14079594425857">
        <ele>49.3</ele>
        <time>2025-02-16T00:34:16.573Z</time>
      </trkpt>
      <trkpt lat="59.05055595561862" lon="14.140846990048885">
        <ele>49.31</ele>
        <time>2025-02-16T00:35:09.275Z</time>
      </trkpt>
      <trkpt lat="59.050635918974876" lon="14.140896946191788">
        <ele>49.33</ele>
        <time>2025-02-16T00:36:01.978Z</time>
      </trkpt>
      <trkpt lat="59.050714960321784" lon="14.140946986153722">
        <ele>49.35</ele>
        <time>2025-02-16T00:36:54.683Z</time>
      </trkpt>
      <trkpt lat="59.05079299584031" lon="14.140996942296624">
        <ele>49.37</ele>
        <time>2025-02-16T00:37:47.389Z</time>
      </trkpt>
      <trkpt lat="59.050869941711426" lon="14.141046982258558">
        <ele>49.38</ele>
        <time>2025-02-16T00:38:40.096Z</time>
      </trkpt>
      <trkpt lat="59.05094495974481" lon="14.141093920916319">
        <ele>49.39</ele>
        <time>2025-02-16T00:39:32.805Z</time>
      </trkpt>
      <trkpt lat="59.051018971949816" lon="14.14113993756473">
        <ele>49.4</ele>
        <time>2025-02-16T00:40:25.515Z</time>
      </trkpt>
      <trkpt lat="59.05109197832644" lon="14.141183942556381">
        <ele>49.42</ele>
        <time>2025-02-16T00:41:18.226Z</time>
      </trkpt>
      <trkpt lat="59.05116397887468" lon="14.141231970861554">
        <ele>49.44</ele>
        <time>2025-02-16T00:42:10.938Z</time>
      </trkpt>
      <trkpt lat="59.05123698525131" lon="14.141278993338346">
        <ele>49.46</ele>
        <time>2025-02-16T00:43:03.651Z</time>
      </trkpt>
      <trkpt lat="59.05130999162793" lon="14.141325931996107">
        <ele>49.48</ele>
        <time>2025-02-16T00:43:56.366Z</time>
      </trkpt>
      <trkpt lat="59.051382998004556" lon="14.14137396030128">
        <ele>49.5</ele>
        <time>2025-02-16T00:44:49.082Z</time>
      </trkpt>
      <trkpt lat="59.0514549985528" lon="14.141422994434834">
        <ele>49.51</ele>
        <time>2025-02-16T00:45:41.799Z</time>
      </trkpt>
      <trkpt lat="59.05152599327266" lon="14.141471944749355">
        <ele>49.54</ele>
        <time>2025-02-16T00:46:34.517Z</time>
      </trkpt>
      <trkpt lat="59.051596987992525" lon="14.14152198471129">
        <ele>49.58</ele>
        <time>2025-02-16T00:47:27.237Z</time>
      </trkpt>
      <trkpt lat="59.05166597105563" lon="14.14156992919743">
        <ele>49.62</ele>
        <time>2025-02-16T00:48:19.958Z</time>
      </trkpt>
      <trkpt lat="59.05173797160387" lon="14.141618963330984">
        <ele>49.66</ele>
        <time>2025-02-16T00:49:12.680Z</time>
      </trkpt>
      <trkpt lat="59.05180594883859" lon="14.141669925302267">
        <ele>49.7</ele>
        <time>2025-02-16T00:50:05.403Z</time>
      </trkpt>
      <trkpt lat="59.05187392607331" lon="14.141721976920962">
        <ele>49.75</ele>
        <time>2025-02-16T00:50:58.127Z</time>
      </trkpt>
      <trkpt lat="59.051941987127066" lon="14.141776962205768">
        <ele>49.79</ele>
        <time>2025-02-16T00:51:50.852Z</time>
      </trkpt>
      <trkpt lat="59.052008958533406" lon="14.141830941662192">
        <ele>49.84</ele>
        <time>2025-02-16T00:52:43.579Z</time>
      </trkpt>
      <trkpt lat="59.052074924111366" lon="14.141884921118617">
        <ele>49.89</ele>
        <time>2025-02-16T00:53:36.307Z</time>
      </trkpt>
      <trkpt lat="59.05214097350836" lon="14.141937978565693">
        <ele>49.94</ele>
        <time>2025-02-16T00:54:29.036Z</time>
      </trkpt>
      <trkpt lat="59.05220693908632" lon="14.141992963850498">
        <ele>50.0</ele>
        <time>2025-02-16T00:55:21.766Z</time>
      </trkpt>
      <trkpt lat="59.05227198265493" lon="14.142050966620445">
        <ele>50.06</ele>
        <time>2025-02-16T00:56:14.497Z</time>
      </trkpt>
      <trkpt lat="59.05233794823289" lon="14.142108969390392">
        <ele>50.12</ele>
        <time>2025-02-16T00:57:07.229Z</time>
      </trkpt>
      <trkpt lat="59.05240491963923" lon="14.14216697216034">
        <ele>50.19</ele>
        <time>2025-02-16T00:57:59.963Z</time>
      </trkpt>
      <trkpt lat="59.0524719748646" lon="14.142226986587048">
        <ele>50.25</ele>
        <time>2025-02-16T00:58:52.698Z</time>
      </trkpt>
      <trkpt lat="59.05253995209932" lon="14.142288928851485">
        <ele>50.32</ele>
        <time>2025-02-16T00:59:45.434Z</time>
      </trkpt>
      <trkpt lat="59.052608935162425" lon="14.142351960763335">
        <ele>50.4</ele>
        <time>2025-02-16T01:00:38.171Z</time>
      </trkpt>
      <trkpt lat="59.05267892405391" lon="14.142413986846805">
        <ele>50.47</ele>
        <time>2025-02-16T01:01:30.909Z</time>
      </trkpt>
      <trkpt lat="59.05275092460215" lon="14.142474923282862">
        <ele>50.54</ele>
        <time>2025-02-16T01:02:23.649Z</time>
      </trkpt>
      <trkpt lat="59.052823930978775" lon="14.14253594353795">
        <ele>50.62</ele>
        <time>2025-02-16T01:03:16.390Z</time>
      </trkpt>
      <trkpt lat="59.0528969373554" lon="14.142600987106562">
        <ele>50.7</ele>
        <time>2025-02-16T01:04:09.132Z</time>
      </trkpt>
      <trkpt lat="59.052971955388784" lon="14.142665946856141">
        <ele>50.78</ele>
        <time>2025-02-16T01:05:01.876Z</time>
      </trkpt>
      <trkpt lat="59.05304797925055" lon="14.142730990424752">
        <ele>50.87</ele>
        <time>2025-02-16T01:05:54.621Z</time>
      </trkpt>
      <trkpt lat="59.053124925121665" lon="14.142796956002712">
        <ele>50.95</ele>
        <time>2025-02-16T01:06:47.367Z</time>
      </trkpt>
      <trkpt lat="59.05320195481181" lon="14.142863927409053">
        <ele>51.04</ele>
        <time>2025-02-16T01:07:40.115Z</time>
      </trkpt>
      <trkpt lat="59.05327999033034" lon="14.142929976806045">
        <ele>51.12</ele>
        <time>2025-02-16T01:08:32.864Z</time>
      </trkpt>
      <trkpt lat="59.053359953686595" lon="14.142997954040766">
        <ele>51.21</ele>
        <time>2025-02-16T01:09:25.614Z</time>
      </trkpt>
      <trkpt lat="59.05344092287123" lon="14.143065931275487">
        <ele>51.3</ele>
        <time>2025-02-16T01:10:18.366Z</time>
      </trkpt>
      <trkpt lat="59.05352097004652" lon="14.14313499815762">
        <ele>51.39</ele>
        <time>2025-02-16T01:11:11.119Z</time>
      </trkpt>
      <trkpt lat="59.05360193923116" lon="14.143203981220722">
        <ele>51.49</ele>
        <time>2025-02-16T01:12:03.874Z</time>
      </trkpt>
      <trkpt lat="59.053682992234826" lon="14.143272964283824">
        <ele>51.58</ele>
        <time>2025-02-16T01:12:56.630Z</time>
      </trkpt>
      <trkpt lat="59.05376396141946" lon="14.143342953175306">
        <ele>51.67</ele>
        <time>2025-02-16T01:13:49.387Z</time>
      </trkpt>
      <trkpt lat="59.05384593643248" lon="14.14341394789517">
        <ele>51.77</ele>
        <time>2025-02-16T01:14:42.146Z</time>
      </trkpt>
      <trkpt lat="59.05392698943615" lon="14.14348192512989">
        <ele>51.86</ele>
        <time>2025-02-16T01:15:34.906Z</time>
      </trkpt>
      <trkpt lat="59.054006952792406" lon="14.143549986183643">
        <ele>51.96</ele>
        <time>2025-02-16T01:16:27.668Z</time>
      </trkpt>
      <trkpt lat="59.054086999967694" lon="14.143617963418365">
        <ele>52.06</ele>
        <time>2025-02-16T01:17:20.431Z</time>
      </trkpt>
      <trkpt lat="59.05416495166719" lon="14.143686946481466">
        <ele>52.16</ele>
        <time>2025-02-16T01:18:13.195Z</time>
      </trkpt>
      <trkpt lat="59.05424298718572" lon="14.143753917887807">
        <ele>52.25</ele>
        <time>2025-02-16T01:19:05.961Z</time>
      </trkpt>
      <trkpt lat="59.05432093888521" lon="14.14382298476994">
        <ele>52.35</ele>
        <time>2025-02-16T01:19:58.728Z</time>
      </trkpt>
      <trkpt lat="59.05439897440374" lon="14.143892973661423">
        <ele>52.44</ele>
        <time>2025-02-16T01:20:51.497Z</time>
      </trkpt>
      <trkpt lat="59.054476926103234" lon="14.143961956724524">
        <ele>52.53</ele>
        <time>2025-02-16T01:21:44.267Z</time>
      </trkpt>
      <trkpt lat="59.05455596745014" lon="14.144028928130865">
        <ele>52.62</ele>
        <time>2025-02-16T01:22:37.038Z</time>
      </trkpt>
      <trkpt lat="59.05463299714029" lon="14.144096989184618">
        <ele>52.72</ele>
        <time>2025-02-16T01:23:29.811Z</time>
      </trkpt>
      <trkpt lat="59.05470893718302" lon="14.144163960590959">
        <ele>52.81</ele>
        <time>2025-02-16T01:24:22.585Z</time>
      </trkpt>
      <trkpt lat="59.05478596687317" lon="14.1442309319973">
        <ele>52.91</ele>
        <time>2025-02-16T01:25:15.360Z</time>
      </trkpt>
      <trkpt lat="59.054864924401045" lon="14.144297987222672">
        <ele>53.0</ele>
        <time>2025-02-16T01:26:08.137Z</time>
      </trkpt>
      <trkpt lat="59.05494195409119" lon="14.144365964457393">
        <ele>53.09</ele>
        <time>2025-02-16T01:27:00.915Z</time>
      </trkpt>
      <trkpt lat="59.05501998960972" lon="14.144434947520494">
        <ele>53.18</ele>
        <time>2025-02-16T01:27:53.695Z</time>
      </trkpt>
      <trkpt lat="59.055097941309214" lon="14.144504936411977">
        <ele>53.27</ele>
        <time>2025-02-16T01:28:46.476Z</time>
      </trkpt>
      <trkpt lat="59.05517597682774" lon="14.14457299746573">
        <ele>53.36</ele>
        <time>2025-02-16T01:29:39.258Z</time>
      </trkpt>
      <trkpt lat="59.055253928527236" lon="14.144640974700451">
        <ele>53.44</ele>
        <time>2025-02-16T01:30:32.042Z</time>
      </trkpt>
      <trkpt lat="59.05533095821738" lon="14.144709957763553">
        <ele>53.53</ele>
        <time>2025-02-16T01:31:24.827Z</time>
      </trkpt>
      <trkpt lat="59.05541092157364" lon="14.144777934998274">
        <ele>53.62</ele>
        <time>2025-02-16T01:32:17.613Z</time>
      </trkpt>
      <trkpt lat="59.055487951263785" lon="14.144844990223646">
        <ele>53.71</ele>
        <time>2025-02-16T01:33:10.401Z</time>
      </trkpt>
      <trkpt lat="59.05556498095393" lon="14.144909949973226">
        <ele>53.79</ele>
        <time>2025-02-16T01:34:03.190Z</time>
      </trkpt>
      <trkpt lat="59.055640920996666" lon="14.144979938864708">
        <ele>53.88</ele>
        <time>2025-02-16T01:34:55.980Z</time>
      </trkpt>
      <trkpt lat="59.055719962343574" lon="14.14504992775619">
        <ele>53.96</ele>
        <time>2025-02-16T01:35:48.772Z</time>
      </trkpt>
      <trkpt lat="59.05579891987145" lon="14.145119916647673">
        <ele>54.04</ele>
        <time>2025-02-16T01:36:41.565Z</time>
      </trkpt>
      <trkpt lat="59.05587695538998" lon="14.145187977701426">
        <ele>54.13</ele>
        <time>2025-02-16T01:37:34.360Z</time>
      </trkpt>
      <trkpt lat="59.05595398508012" lon="14.145255954936147">
        <ele>54.21</ele>
        <time>2025-02-16T01:38:27.156Z</time>
      </trkpt>
      <trkpt lat="59.05603093095124" lon="14.145321920514107">
        <ele>54.29</ele>
        <time>2025-02-16T01:39:19.953Z</time>
      </trkpt>
      <trkpt lat="59.056107960641384" lon="14.145386964082718">
        <ele>54.37</ele>
        <time>2025-02-16T01:40:12.752Z</time>
      </trkpt>
      <trkpt lat="59.05618691816926" lon="14.1454569529742">
        <ele>54.44</ele>
        <time>2025-02-16T01:41:05.552Z</time>
      </trkpt>
      <trkpt lat="59.05626595951617" lon="14.145529959350824">
        <ele>54.52</ele>
        <time>2025-02-16T01:41:58.353Z</time>
      </trkpt>
      <trkpt lat="59.05634491704404" lon="14.145600954070687">
        <ele>54.6</ele>
        <time>2025-02-16T01:42:51.156Z</time>
      </trkpt>
      <trkpt lat="59.05642496421933" lon="14.145668931305408">
        <ele>54.67</ele>
        <time>2025-02-16T01:43:43.960Z</time>
      </trkpt>
      <trkpt lat="59.05650492757559" lon="14.145737998187542">
        <ele>54.75</ele>
        <time>2025-02-16T01:44:36.766Z</time>
      </trkpt>
      <trkpt lat="59.056584974750876" lon="14.145805975422263">
        <ele>54.82</ele>
        <time>2025-02-16T01:45:29.573Z</time>
      </trkpt>
      <trkpt lat="59.05666393227875" lon="14.145873952656984">
        <ele>54.89</ele>
        <time>2025-02-16T01:46:22.381Z</time>
      </trkpt>
      <trkpt lat="59.0567409619689" lon="14.145941929891706">
        <ele>54.96</ele>
        <time>2025-02-16T01:47:15.191Z</time>
      </trkpt>
      <trkpt lat="59.056817991659045" lon="14.146008985117078">
        <ele>55.02</ele>
        <time>2025-02-16T01:48:08.002Z</time>
      </trkpt>
      <trkpt lat="59.05689493753016" lon="14.146073944866657">
        <ele>55.09</ele>
        <time>2025-02-16T01:49:00.815Z</time>
      </trkpt>
      <trkpt lat="59.056970961391926" lon="14.146139994263649">
        <ele>55.15</ele>
        <time>2025-02-16T01:49:53.629Z</time>
      </trkpt>
      <trkpt lat="59.05704597942531" lon="14.146203948184848">
        <ele>55.22</ele>
        <time>2025-02-16T01:50:46.444Z</time>
      </trkpt>
      <trkpt lat="59.057118985801935" lon="14.146267985925078">
        <ele>55.28</ele>
        <time>2025-02-16T01:51:39.260Z</time>
      </trkpt>
      <trkpt lat="59.0571899805218" lon="14.146330934017897">
        <ele>55.34</ele>
        <time>2025-02-16T01:52:32.078Z</time>
      </trkpt>
      <trkpt lat="59.05725996941328" lon="14.146392960101366">
        <ele>55.39</ele>
        <time>2025-02-16T01:53:24.897Z</time>
      </trkpt>
      <trkpt lat="59.05732995830476" lon="14.146456997841597">
        <ele>55.44</ele>
        <time>2025-02-16T01:54:17.717Z</time>
      </trkpt>
      <trkpt lat="59.057399947196245" lon="14.146520951762795">
        <ele>55.5</ele>
        <time>2025-02-16T01:55:10.538Z</time>
      </trkpt>
      <trkpt lat="59.05746993608773" lon="14.146586917340755">
        <ele>55.55</ele>
        <time>2025-02-16T01:56:03.361Z</time>
      </trkpt>
      <trkpt lat="59.05754294246435" lon="14.146650955080986">
        <ele>55.6</ele>
        <time>2025-02-16T01:56:56.185Z</time>
      </trkpt>
      <trkpt lat="59.057615948840976" lon="14.146715998649597">
        <ele>55.65</ele>
        <time>2025-02-16T01:57:49.010Z</time>
      </trkpt>
      <trkpt lat="59.05768996104598" lon="14.146780958399177">
        <ele>55.7</ele>
        <time>2025-02-16T01:58:41.837Z</time>
      </trkpt>
      <trkpt lat="59.057763973250985" lon="14.146850947290659">
        <ele>55.75</ele>
        <time>2025-02-16T01:59:34.665Z</time>
      </trkpt>
      <trkpt lat="59.05784192495048" lon="14.146920936182141">
        <ele>55.8</ele>
        <time>2025-02-16T02:00:27.494Z</time>
      </trkpt>
      <trkpt lat="59.05791996046901" lon="14.146990925073624">
        <ele>55.85</ele>
        <time>2025-02-16T02:01:20.325Z</time>
      </trkpt>
      <trkpt lat="59.05799891799688" lon="14.147058986127377">
        <ele>55.89</ele>
        <time>2025-02-16T02:02:13.157Z</time>
      </trkpt>
      <trkpt lat="59.05807795934379" lon="14.147127969190478">
        <ele>55.94</ele>
        <time>2025-02-16T02:03:05.990Z</time>
      </trkpt>
      <trkpt lat="59.05815498903394" lon="14.1471959464252">
        <ele>55.98</ele>
        <time>2025-02-16T02:03:58.825Z</time>
      </trkpt>
      <trkpt lat="59.05823193490505" lon="14.147265935316682">
        <ele>56.03</ele>
        <time>2025-02-16T02:04:51.661Z</time>
      </trkpt>
      <trkpt lat="59.05830795876682" lon="14.147333996370435">
        <ele>56.06</ele>
        <time>2025-02-16T02:05:44.498Z</time>
      </trkpt>
      <trkpt lat="59.058383982628584" lon="14.147401973605156">
        <ele>56.1</ele>
        <time>2025-02-16T02:06:37.337Z</time>
      </trkpt>
      <trkpt lat="59.05845992267132" lon="14.147468945011497">
        <ele>56.13</ele>
        <time>2025-02-16T02:07:30.177Z</time>
      </trkpt>
      <trkpt lat="59.058535946533084" lon="14.147535916417837">
        <ele>56.15</ele>
        <time>2025-02-16T02:08:23.018Z</time>
      </trkpt>
      <trkpt lat="59.05861297622323" lon="14.14760297164321">
        <ele>56.18</ele>
        <time>2025-02-16T02:09:15.861Z</time>
      </trkpt>
      <trkpt lat="59.058689922094345" lon="14.14767094887793">
        <ele>56.21</ele>
        <time>2025-02-16T02:10:08.705Z</time>
      </trkpt>
      <trkpt lat="59.05876996926963" lon="14.147740937769413">
        <ele>56.23</ele>
        <time>2025-02-16T02:11:01.551Z</time>
      </trkpt>
      <trkpt lat="59.05884892679751" lon="14.147813944146037">
        <ele>56.26</ele>
        <time>2025-02-16T02:11:54.398Z</time>
      </trkpt>
      <trkpt lat="59.0589289739728" lon="14.147886950522661">
        <ele>56.29</ele>
        <time>2025-02-16T02:12:47.246Z</time>
      </trkpt>
      <trkpt lat="59.059010948985815" lon="14.147958951070905">
        <ele>56.32</ele>
        <time>2025-02-16T02:13:40.096Z</time>
      </trkpt>
      <trkpt lat="59.05909191817045" lon="14.148029945790768">
        <ele>56.34</ele>
        <time>2025-02-16T02:14:32.947Z</time>
      </trkpt>
      <trkpt lat="59.05917297117412" lon="14.14809599518776">
        <ele>56.36</ele>
        <time>2025-02-16T02:15:25.800Z</time>
      </trkpt>
      <trkpt lat="59.059251928702" lon="14.148160954937339">
        <ele>56.38</ele>
        <time>2025-02-16T02:16:18.654Z</time>
      </trkpt>
      <trkpt lat="59.059331975877285" lon="14.148226920515299">
        <ele>56.4</ele>
        <time>2025-02-16T02:17:11.509Z</time>
      </trkpt>
      <trkpt lat="59.05940992757678" lon="14.148296993225813">
        <ele>56.42</ele>
        <time>2025-02-16T02:18:04.366Z</time>
      </trkpt>
      <trkpt lat="59.05948695726693" lon="14.148369999602437">
        <ele>56.43</ele>
        <time>2025-02-16T02:18:57.224Z</time>
      </trkpt>
      <trkpt lat="59.059564992785454" lon="14.148438982665539">
        <ele>56.45</ele>
        <time>2025-02-16T02:19:50.084Z</time>
      </trkpt>
      <trkpt lat="59.05964395031333" lon="14.148504948243499">
        <ele>56.46</ele>
        <time>2025-02-16T02:20:42.945Z</time>
      </trkpt>
      <trkpt lat="59.05972299166024" lon="14.14856999181211">
        <ele>56.48</ele>
        <time>2025-02-16T02:21:35.807Z</time>
      </trkpt>
      <trkpt lat="59.059804966673255" lon="14.148632939904928">
        <ele>56.49</ele>
        <time>2025-02-16T02:22:28.671Z</time>
      </trkpt>
      <trkpt lat="59.05988694168627" lon="14.14869798347354">
        <ele>56.5</ele>
        <time>2025-02-16T02:23:21.536Z</time>
      </trkpt>
      <trkpt lat="59.05996698886156" lon="14.1487639490515">
        <ele>56.51</ele>
        <time>2025-02-16T02:24:14.403Z</time>
      </trkpt>
      <trkpt lat="59.06004594638944" lon="14.148829998448491">
        <ele>56.52</ele>
        <time>2025-02-16T02:25:07.271Z</time>
      </trkpt>
      <trkpt lat="59.060123981907964" lon="14.148897975683212">
        <ele>56.54</ele>
        <time>2025-02-16T02:26:00.140Z</time>
      </trkpt>
      <trkpt lat="59.06020394526422" lon="14.148964947089553">
        <ele>56.55</ele>
        <time>2025-02-16T02:26:53.011Z</time>
      </trkpt>
      <trkpt lat="59.06028298661113" lon="14.149029990658164">
        <ele>56.56</ele>
        <time>2025-02-16T02:27:45.883Z</time>
      </trkpt>
      <trkpt lat="59.060361944139004" lon="14.149095956236124">
        <ele>56.57</ele>
        <time>2025-02-16T02:28:38.756Z</time>
      </trkpt>
      <trkpt lat="59.06044098548591" lon="14.149160999804735">
        <ele>56.57</ele>
        <time>2025-02-16T02:29:31.631Z</time>
      </trkpt>
      <trkpt lat="59.06052195467055" lon="14.149224953725934">
        <ele>56.57</ele>
        <time>2025-02-16T02:30:24.507Z</time>
      </trkpt>
      <trkpt lat="59.060601918026805" lon="14.149290919303894">
        <ele>56.57</ele>
        <time>2025-02-16T02:31:17.385Z</time>
      </trkpt>
      <trkpt lat="59.060684982687235" lon="14.149352945387363">
        <ele>56.57</ele>
        <time>2025-02-16T02:32:10.264Z</time>
      </trkpt>
      <trkpt lat="59.06076796352863" lon="14.149413965642452">
        <ele>56.58</ele>
        <time>2025-02-16T02:33:03.144Z</time>
      </trkpt>
      <trkpt lat="59.06085195019841" lon="14.149476997554302">
        <ele>56.58</ele>
        <time>2025-02-16T02:33:56.026Z</time>
      </trkpt>
      <trkpt lat="59.06093392521143" lon="14.14953994564712">
        <ele>56.58</ele>
        <time>2025-02-16T02:34:48.909Z</time>
      </trkpt>
      <trkpt lat="59.06101799570024" lon="14.14960096590221">
        <ele>56.58</ele>
        <time>2025-02-16T02:35:41.794Z</time>
      </trkpt>
      <trkpt lat="59.06110198237002" lon="14.149658968672156">
        <ele>56.58</ele>
        <time>2025-02-16T02:36:34.680Z</time>
      </trkpt>
      <trkpt lat="59.06118697486818" lon="14.149717977270484">
        <ele>56.58</ele>
        <time>2025-02-16T02:37:27.568Z</time>
      </trkpt>
      <trkpt lat="59.061265932396054" lon="14.14977396838367">
        <ele>56.58</ele>
        <time>2025-02-16T02:38:20.457Z</time>
      </trkpt>
      <trkpt lat="59.06134698539972" lon="14.149831971153617">
        <ele>56.58</ele>
        <time>2025-02-16T02:39:13.347Z</time>
      </trkpt>
      <trkpt lat="59.06142795458436" lon="14.149888968095183">
        <ele>56.58</ele>
        <time>2025-02-16T02:40:06.239Z</time>
      </trkpt>
      <trkpt lat="59.06150992959738" lon="14.149942947551608">
        <ele>56.58</ele>
        <time>2025-02-16T02:40:59.132Z</time>
      </trkpt>
      <trkpt lat="59.06159198842943" lon="14.149999944493175">
        <ele>56.58</ele>
        <time>2025-02-16T02:41:52.027Z</time>
      </trkpt>
      <trkpt lat="59.061672957614064" lon="14.15005593560636">
        <ele>56.58</ele>
        <time>2025-02-16T02:42:44.923Z</time>
      </trkpt>
      <trkpt lat="59.06175593845546" lon="14.150111926719546">
        <ele>56.58</ele>
        <time>2025-02-16T02:43:37.820Z</time>
      </trkpt>
      <trkpt lat="59.06183699145913" lon="14.150166995823383">
        <ele>56.58</ele>
        <time>2025-02-16T02:44:30.719Z</time>
      </trkpt>
      <trkpt lat="59.06191997230053" lon="14.15022298693657">
        <ele>56.58</ele>
        <time>2025-02-16T02:45:23.619Z</time>
      </trkpt>
      <trkpt lat="59.06200295314193" lon="14.150277972221375">
        <ele>56.57</ele>
        <time>2025-02-16T02:46:16.521Z</time>
      </trkpt>
      <trkpt lat="59.06208693981171" lon="14.150330945849419">
        <ele>56.57</ele>
        <time>2025-02-16T02:47:09.424Z</time>
      </trkpt>
      <trkpt lat="59.062171932309866" lon="14.150382997468114">
        <ele>56.57</ele>
        <time>2025-02-16T02:48:02.328Z</time>
      </trkpt>
      <trkpt lat="59.06225893646479" lon="14.150436976924539">
        <ele>56.57</ele>
        <time>2025-02-16T02:48:55.234Z</time>
      </trkpt>
      <trkpt lat="59.062343928962946" lon="14.150492968037724">
        <ele>56.57</ele>
        <time>2025-02-16T02:49:48.141Z</time>
      </trkpt>
      <trkpt lat="59.062429927289486" lon="14.150549964979291">
        <ele>56.58</ele>
        <time>2025-02-16T02:50:41.050Z</time>
      </trkpt>
      <trkpt lat="59.06251693144441" lon="14.150606961920857">
        <ele>56.58</ele>
        <time>2025-02-16T02:51:33.960Z</time>
      </trkpt>
      <trkpt lat="59.06260594725609" lon="14.150659935548902">
        <ele>56.58</ele>
        <time>2025-02-16T02:52:26.872Z</time>
      </trkpt>
      <trkpt lat="59.06269596889615" lon="14.150712992995977">
        <ele>56.58</ele>
        <time>2025-02-16T02:53:19.785Z</time>
      </trkpt>
      <trkpt lat="59.06278791837394" lon="14.150766972452402">
        <ele>56.58</ele>
        <time>2025-02-16T02:54:12.700Z</time>
      </trkpt>
      <trkpt lat="59.06288095749915" lon="14.150822963565588">
        <ele>56.59</ele>
        <time>2025-02-16T02:55:05.616Z</time>
      </trkpt>
      <trkpt lat="59.06297399662435" lon="14.150878954678774">
        <ele>56.59</ele>
        <time>2025-02-16T02:55:58.534Z</time>
      </trkpt>
      <trkpt lat="59.063068963587284" lon="14.15093393996358">
        <ele>56.6</ele>
        <time>2025-02-16T02:56:51.453Z</time>
      </trkpt>
      <trkpt lat="59.0631649363786" lon="14.150985991582274">
        <ele>56.61</ele>
        <time>2025-02-16T02:57:44.374Z</time>
      </trkpt>
      <trkpt lat="59.06325998716056" lon="14.151037959381938">
        <ele>56.61</ele>
        <time>2025-02-16T02:58:37.297Z</time>
      </trkpt>
      <trkpt lat="59.0633549541235" lon="14.151090933009982">
        <ele>56.62</ele>
        <time>2025-02-16T02:59:30.221Z</time>
      </trkpt>
      <trkpt lat="59.06344992108643" lon="14.151141978800297">
        <ele>56.63</ele>
        <time>2025-02-16T03:00:23.147Z</time>
      </trkpt>
      <trkpt lat="59.063543966040015" lon="14.15119394659996">
        <ele>56.63</ele>
        <time>2025-02-16T03:01:16.074Z</time>
      </trkpt>
      <trkpt lat="59.06363893300295" lon="14.151243986561894">
        <ele>56.64</ele>
        <time>2025-02-16T03:02:09.003Z</time>
      </trkpt>
      <trkpt lat="59.06373297795653" lon="14.151293942704797">
        <ele>56.65</ele>
        <time>2025-02-16T03:03:01.934Z</time>
      </trkpt>
      <trkpt lat="59.063826939091086" lon="14.15134398266673">
        <ele>56.66</ele>
        <time>2025-02-16T03:03:54.866Z</time>
      </trkpt>
      <trkpt lat="59.06391997821629" lon="14.151391927152872">
        <ele>56.67</ele>
        <time>2025-02-16T03:04:47.800Z</time>
      </trkpt>
      <trkpt lat="59.06401192769408" lon="14.151436937972903">
        <ele>56.68</ele>
        <time>2025-02-16T03:05:40.735Z</time>
      </trkpt>
      <trkpt lat="59.064102955162525" lon="14.151480942964554">
        <ele>56.69</ele>
        <time>2025-02-16T03:06:33.672Z</time>
      </trkpt>
      <trkpt lat="59.06419297680259" lon="14.151523942127824">
        <ele>56.7</ele>
        <time>2025-02-16T03:07:26.610Z</time>
      </trkpt>
      <trkpt lat="59.06428299844265" lon="14.151566941291094">
        <ele>56.72</ele>
        <time>2025-02-16T03:08:19.550Z</time>
      </trkpt>
      <trkpt lat="59.06437092460692" lon="14.151609940454364">
        <ele>56.73</ele>
        <time>2025-02-16T03:09:12.491Z</time>
      </trkpt>
      <trkpt lat="59.06445792876184" lon="14.151649922132492">
        <ele>56.74</ele>
        <time>2025-02-16T03:10:05.434Z</time>
      </trkpt>
      <trkpt lat="59.06454593874514" lon="14.151690993458033">
        <ele>56.76</ele>
        <time>2025-02-16T03:10:58.378Z</time>
      </trkpt>
      <trkpt lat="59.06463294290006" lon="14.15173097513616">
        <ele>56.77</ele>
        <time>2025-02-16T03:11:51.323Z</time>
      </trkpt>
      <trkpt lat="59.06472195871174" lon="14.151769950985909">
        <ele>56.79</ele>
        <time>2025-02-16T03:12:44.270Z</time>
      </trkpt>
      <trkpt lat="59.064810974523425" lon="14.151809932664037">
        <ele>56.8</ele>
        <time>2025-02-16T03:13:37.218Z</time>
      </trkpt>
      <trkpt lat="59.06489999033511" lon="14.151847986504436">
        <ele>56.82</ele>
        <time>2025-02-16T03:14:30.168Z</time>
      </trkpt>
      <trkpt lat="59.06499093398452" lon="14.151889979839325">
        <ele>56.83</ele>
        <time>2025-02-16T03:15:23.119Z</time>
      </trkpt>
      <trkpt lat="59.06508397310972" lon="14.151930967345834">
        <ele>56.85</ele>
        <time>2025-02-16T03:16:16.072Z</time>
      </trkpt>
      <trkpt lat="59.065177934244275" lon="14.15196793153882">
        <ele>56.86</ele>
        <time>2025-02-16T03:17:09.026Z</time>
      </trkpt>
      <trkpt lat="59.0652699675411" lon="14.152001962065697">
        <ele>56.88</ele>
        <time>2025-02-16T03:18:01.982Z</time>
      </trkpt>
      <trkpt lat="59.06536099500954" lon="14.152038926258683">
        <ele>56.9</ele>
        <time>2025-02-16T03:18:54.939Z</time>
      </trkpt>
      <trkpt lat="59.065455961972475" lon="14.152076980099082">
        <ele>56.92</ele>
        <time>2025-02-16T03:19:47.898Z</time>
      </trkpt>
      <trkpt lat="59.06554992310703" lon="14.15211696177721">
        <ele>56.94</ele>
        <time>2025-02-16T03:20:40.858Z</time>
      </trkpt>
      <trkpt lat="59.06564497388899" lon="14.152157949283719">
        <ele>56.97</ele>
        <time>2025-02-16T03:21:33.820Z</time>
      </trkpt>
      <trkpt lat="59.065738935023546" lon="14.152200948446989">
        <ele>56.99</ele>
        <time>2025-02-16T03:22:26.784Z</time>
      </trkpt>
      <trkpt lat="59.06583398580551" lon="14.152243947610259">
        <ele>57.01</ele>
        <time>2025-02-16T03:23:19.749Z</time>
      </trkpt>
      <trkpt lat="59.065928952768445" lon="14.152285940945148">
        <ele>57.03</ele>
        <time>2025-02-16T03:24:12.716Z</time>
      </trkpt>
      <trkpt lat="59.06602492555976" lon="14.152324916794896">
        <ele>57.05</ele>
        <time>2025-02-16T03:25:05.684Z</time>
      </trkpt>
      <trkpt lat="59.066119976341724" lon="14.152362970635295">
        <ele>57.08</ele>
        <time>2025-02-16T03:25:58.654Z</time>
      </trkpt>
      <trkpt lat="59.0662179607898" lon="14.152400940656662">
        <ele>57.1</ele>
        <time>2025-02-16T03:26:51.625Z</time>
      </trkpt>
      <trkpt lat="59.066313933581114" lon="14.15243991650641">
        <ele>57.12</ele>
        <time>2025-02-16T03:27:44.598Z</time>
      </trkpt>
      <trkpt lat="59.06640999019146" lon="14.152478976175189">
        <ele>57.14</ele>
        <time>2025-02-16T03:28:37.573Z</time>
      </trkpt>
      <trkpt lat="59.066505962982774" lon="14.152517952024937">
        <ele>57.16</ele>
        <time>2025-02-16T03:29:30.549Z</time>
      </trkpt>
      <trkpt lat="59.06659992411733" lon="14.152553994208574">
        <ele>57.18</ele>
        <time>2025-02-16T03:30:23.527Z</time>
      </trkpt>
      <trkpt lat="59.06669296324253" lon="14.15258995257318">
        <ele>57.2</ele>
        <time>2025-02-16T03:31:16.506Z</time>
      </trkpt>
      <trkpt lat="59.066783990710974" lon="14.152625994756818">
        <ele>57.23</ele>
        <time>2025-02-16T03:32:09.487Z</time>
      </trkpt>
      <trkpt lat="59.066873928532004" lon="14.152663964778185">
        <ele>57.25</ele>
        <time>2025-02-16T03:33:02.469Z</time>
      </trkpt>
      <trkpt lat="59.06696395017207" lon="14.15269992314279">
        <ele>57.27</ele>
        <time>2025-02-16T03:33:55.453Z</time>
      </trkpt>
      <trkpt lat="59.06705296598375" lon="14.152733953669667">
        <ele>57.3</ele>
        <time>2025-02-16T03:34:48.438Z</time>
      </trkpt>
      <trkpt lat="59.06714298762381" lon="14.152767984196544">
        <ele>57.33</ele>
        <time>2025-02-16T03:35:41.425Z</time>
      </trkpt>
      <trkpt lat="59.06723393127322" lon="14.15280394256115">
        <ele>57.35</ele>
        <time>2025-02-16T03:36:34.413Z</time>
      </trkpt>
      <trkpt lat="59.067322947084904" lon="14.152836967259645">
        <ele>57.38</ele>
        <time>2025-02-16T03:37:27.403Z</time>
      </trkpt>
      <trkpt lat="59.067412968724966" lon="14.15287191979587">
        <ele>57.41</ele>
        <time>2025-02-16T03:38:20.394Z</time>
      </trkpt>
      <trkpt lat="59.06750198453665" lon="14.152906956151128">
        <ele>57.43</ele>
        <time>2025-02-16T03:39:13.386Z</time>
      </trkpt>
      <trkpt lat="59.0675909165293" lon="14.152943920344114">
        <ele>57.45</ele>
        <time>2025-02-16T03:40:06.380Z</time>
      </trkpt>
      <trkpt lat="59.0676789265126" lon="14.152983985841274">
        <ele>57.47</ele>
        <time>2025-02-16T03:40:59.375Z</time>
      </trkpt>
      <trkpt lat="59.0677669364959" lon="14.153022961691022">
        <ele>57.5</ele>
        <time>2025-02-16T03:41:52.372Z</time>
      </trkpt>
      <trkpt lat="59.0678549464792" lon="14.153058920055628">
        <ele>57.52</ele>
        <time>2025-02-16T03:42:45.370Z</time>
      </trkpt>
      <trkpt lat="59.067946979776025" lon="14.153095968067646">
        <ele>57.54</ele>
        <time>2025-02-16T03:43:38.370Z</time>
      </trkpt>
      <trkpt lat="59.0680399350822" lon="14.153132932260633">
        <ele>57.56</ele>
        <time>2025-02-16T03:44:31.371Z</time>
      </trkpt>
      <trkpt lat="59.0681329742074" lon="14.15316796861589">
        <ele>57.58</ele>
        <time>2025-02-16T03:45:24.374Z</time>
      </trkpt>
      <trkpt lat="59.068225929513574" lon="14.153205938637257">
        <ele>57.61</ele>
        <time>2025-02-16T03:46:17.378Z</time>
      </trkpt>
      <trkpt lat="59.06831997446716" lon="14.153245920315385">
        <ele>57.63</ele>
        <time>2025-02-16T03:47:10.384Z</time>
      </trkpt>
      <trkpt lat="59.06841192394495" lon="14.153284979984164">
        <ele>57.66</ele>
        <time>2025-02-16T03:48:03.391Z</time>
      </trkpt>
      <trkpt lat="59.06850194558501" lon="14.15332194417715">
        <ele>57.69</ele>
        <time>2025-02-16T03:48:56.400Z</time>
      </trkpt>
      <trkpt lat="59.068589955568314" lon="14.15335999801755">
        <ele>57.72</ele>
        <time>2025-02-16T03:49:49.410Z</time>
      </trkpt>
      <trkpt lat="59.068677965551615" lon="14.153396962210536">
        <ele>57.75</ele>
        <time>2025-02-16T03:50:42.422Z</time>
      </trkpt>
      <trkpt lat="59.068765975534916" lon="14.153432920575142">
        <ele>57.78</ele>
        <time>2025-02-16T03:51:35.435Z</time>
      </trkpt>
      <trkpt lat="59.06885297968984" lon="14.153474997729063">
        <ele>57.8</ele>
        <time>2025-02-16T03:52:28.450Z</time>
      </trkpt>
      <trkpt lat="59.06894291751087" lon="14.153516991063952">
        <ele>57.82</ele>
        <time>2025-02-16T03:53:21.466Z</time>
      </trkpt>
      <trkpt lat="59.06903595663607" lon="14.1535559669137">
        <ele>57.84</ele>
        <time>2025-02-16T03:54:14.484Z</time>
      </trkpt>
      <trkpt lat="59.069127989932895" lon="14.153596954420209">
        <ele>57.87</ele>
        <time>2025-02-16T03:55:07.503Z</time>
      </trkpt>
      <trkpt lat="59.06922195106745" lon="14.153634924441576">
        <ele>57.9</ele>
        <time>2025-02-16T03:56:00.524Z</time>
      </trkpt>
      <trkpt lat="59.06931792385876" lon="14.153674989938736">
        <ele>57.93</ele>
        <time>2025-02-16T03:56:53.546Z</time>
      </trkpt>
      <trkpt lat="59.06941398046911" lon="14.153716983273625">
        <ele>57.95</ele>
        <time>2025-02-16T03:57:46.570Z</time>
      </trkpt>
      <trkpt lat="59.06950894743204" lon="14.153755959123373">
        <ele>57.98</ele>
        <time>2025-02-16T03:58:39.595Z</time>
      </trkpt>
      <trkpt lat="59.069603998214006" lon="14.153795940801501">
        <ele>58.0</ele>
        <time>2025-02-16T03:59:32.622Z</time>
      </trkpt>
      <trkpt lat="59.06969695352018" lon="14.15383692830801">
        <ele>58.03</ele>
        <time>2025-02-16T04:00:25.651Z</time>
      </trkpt>
      <trkpt lat="59.06979099847376" lon="14.153874982148409">
        <ele>58.05</ele>
        <time>2025-02-16T04:01:18.681Z</time>
      </trkpt>
      <trkpt lat="59.069882947951555" lon="14.153911946341395">
        <ele>58.07</ele>
        <time>2025-02-16T04:02:11.713Z</time>
      </trkpt>
      <trkpt lat="59.06997196376324" lon="14.153949916362762">
        <ele>58.1</ele>
        <time>2025-02-16T04:03:04.746Z</time>
      </trkpt>
      <trkpt lat="59.07005896791816" lon="14.153987970203161">
        <ele>58.12</ele>
        <time>2025-02-16T04:03:57.780Z</time>
      </trkpt>
      <trkpt lat="59.07014697790146" lon="14.15402795188129">
        <ele>58.14</ele>
        <time>2025-02-16T04:04:50.816Z</time>
      </trkpt>
      <trkpt lat="59.070232976228" lon="14.154066927731037">
        <ele>58.17</ele>
        <time>2025-02-16T04:05:43.853Z</time>
      </trkpt>
      <trkpt lat="59.07031998038292" lon="14.154102969914675">
        <ele>58.2</ele>
        <time>2025-02-16T04:06:36.892Z</time>
      </trkpt>
      <trkpt lat="59.07040698453784" lon="14.1541379224509">
        <ele>58.22</ele>
        <time>2025-02-16T04:07:29.932Z</time>
      </trkpt>
      <trkpt lat="59.07049692235887" lon="14.154173964634538">
        <ele>58.25</ele>
        <time>2025-02-16T04:08:22.974Z</time>
      </trkpt>
      <trkpt lat="59.07058493234217" lon="14.154207995161414">
        <ele>58.28</ele>
        <time>2025-02-16T04:09:16.017Z</time>
      </trkpt>
      <trkpt lat="59.070676965638995" lon="14.1542449593544">
        <ele>58.3</ele>
        <time>2025-02-16T04:10:09.062Z</time>
      </trkpt>
      <trkpt lat="59.07076992094517" lon="14.154282929375768">
        <ele>58.33</ele>
        <time>2025-02-16T04:11:02.108Z</time>
      </trkpt>
      <trkpt lat="59.07085994258523" lon="14.154321989044547">
        <ele>58.35</ele>
        <time>2025-02-16T04:11:55.156Z</time>
      </trkpt>
      <trkpt lat="59.070952981710434" lon="14.154360964894295">
        <ele>58.37</ele>
        <time>2025-02-16T04:12:48.205Z</time>
      </trkpt>
      <trkpt lat="59.071044931188226" lon="14.15439591743052">
        <ele>58.4</ele>
        <time>2025-02-16T04:13:41.256Z</time>
      </trkpt>
      <trkpt lat="59.07113495282829" lon="14.154433971270919">
        <ele>58.42</ele>
        <time>2025-02-16T04:14:34.308Z</time>
      </trkpt>
      <trkpt lat="59.07122497446835" lon="14.154472947120667">
        <ele>58.45</ele>
        <time>2025-02-16T04:15:27.362Z</time>
      </trkpt>
      <trkpt lat="59.07131499610841" lon="14.154511922970414">
        <ele>58.48</ele>
        <time>2025-02-16T04:16:20.417Z</time>
      </trkpt>
      <trkpt lat="59.07140392810106" lon="14.154547965154052">
        <ele>58.5</ele>
        <time>2025-02-16T04:17:13.474Z</time>
      </trkpt>
      <trkpt lat="59.07149093225598" lon="14.1545869410038">
        <ele>58.53</ele>
        <time>2025-02-16T04:18:06.532Z</time>
      </trkpt>
      <trkpt lat="59.07157693058252" lon="14.154622983187437">
        <ele>58.56</ele>
        <time>2025-02-16T04:18:59.591Z</time>
      </trkpt>
      <trkpt lat="59.071663934737444" lon="14.154659947380424">
        <ele>58.6</ele>
        <time>2025-02-16T04:19:52.652Z</time>
      </trkpt>
      <trkpt lat="59.071751944720745" lon="14.154695989564061">
        <ele>58.63</ele>
        <time>2025-02-16T04:20:45.714Z</time>
      </trkpt>
      <trkpt lat="59.071839954704046" lon="14.154729936271906">
        <ele>58.66</ele>
        <time>2025-02-16T04:21:38.778Z</time>
      </trkpt>
      <trkpt lat="59.07192997634411" lon="14.154762960970402">
        <ele>58.7</ele>
        <time>2025-02-16T04:22:31.843Z</time>
      </trkpt>
      <trkpt lat="59.07201798632741" lon="14.154797997325659">
        <ele>58.73</ele>
        <time>2025-02-16T04:23:24.910Z</time>
      </trkpt>
      <trkpt lat="59.07210599631071" lon="14.154833955690265">
        <ele>58.76</ele>
        <time>2025-02-16T04:24:17.978Z</time>
      </trkpt>
      <trkpt lat="59.07219593413174" lon="14.154867986217141">
        <ele>58.79</ele>
        <time>2025-02-16T04:25:11.047Z</time>
      </trkpt>
      <trkpt lat="59.07228394411504" lon="14.154903944581747">
        <ele>58.81</ele>
        <time>2025-02-16T04:26:04.118Z</time>
      </trkpt>
      <trkpt lat="59.07237094826996" lon="14.154937975108624">
        <ele>58.84</ele>
        <time>2025-02-16T04:26:57.190Z</time>
      </trkpt>
      <trkpt lat="59.072457952424884" lon="14.154972927644849">
        <ele>58.86</ele>
        <time>2025-02-16T04:27:50.264Z</time>
      </trkpt>
      <trkpt lat="59.072544956579804" lon="14.155005952343345">
        <ele>58.89</ele>
        <time>2025-02-16T04:28:43.339Z</time>
      </trkpt>
      <trkpt lat="59.072631960734725" lon="14.155039982870221">
        <ele>58.92</ele>
        <time>2025-02-16T04:29:36.416Z</time>
      </trkpt>
      <trkpt lat="59.072718964889646" lon="14.155074935406446">
        <ele>58.94</ele>
        <time>2025-02-16T04:30:29.494Z</time>
      </trkpt>
      <trkpt lat="59.072805969044566" lon="14.155109971761703">
        <ele>58.97</ele>
        <time>2025-02-16T04:31:22.573Z</time>
      </trkpt>
      <trkpt lat="59.07289297319949" lon="14.155143918469548">
        <ele>59.0</ele>
        <time>2025-02-16T04:32:15.654Z</time>
      </trkpt>
      <trkpt lat="59.07297897152603" lon="14.155178954824805">
        <ele>59.02</ele>
        <time>2025-02-16T04:33:08.736Z</time>
      </trkpt>
      <trkpt lat="59.07306496985257" lon="14.155214997008443">
        <ele>59.05</ele>
        <time>2025-02-16T04:34:01.820Z</time>
      </trkpt>
      <trkpt lat="59.07315096817911" lon="14.155249949544668">
        <ele>59.07</ele>
        <time>2025-02-16T04:34:54.905Z</time>
      </trkpt>
      <trkpt lat="59.073235960677266" lon="14.155283980071545">
        <ele>59.09</ele>
        <time>2025-02-16T04:35:47.992Z</time>
      </trkpt>
      <trkpt lat="59.073321959003806" lon="14.15531792677939">
        <ele>59.11</ele>
        <time>2025-02-16T04:36:41.080Z</time>
      </trkpt>
      <trkpt lat="59.073405945673585" lon="14.155351957306266">
        <ele>59.13</ele>
        <time>2025-02-16T04:37:34.169Z</time>
      </trkpt>
      <trkpt lat="59.073489932343364" lon="14.155386993661523">
        <ele>59.16</ele>
        <time>2025-02-16T04:38:27.260Z</time>
      </trkpt>
      <trkpt lat="59.07357492484152" lon="14.155421946197748">
        <ele>59.18</ele>
        <time>2025-02-16T04:39:20.352Z</time>
      </trkpt>
      <trkpt lat="59.07365991733968" lon="14.155456982553005">
        <ele>59.21</ele>
        <time>2025-02-16T04:40:13.445Z</time>
      </trkpt>
      <trkpt lat="59.07374298200011" lon="14.155492940917611">
        <ele>59.24</ele>
        <time>2025-02-16T04:41:06.540Z</time>
      </trkpt>
      <trkpt lat="59.07382495701313" lon="14.155527977272868">
        <ele>59.27</ele>
        <time>2025-02-16T04:41:59.636Z</time>
      </trkpt>
      <trkpt lat="59.07390693202615" lon="14.155560918152332">
        <ele>59.3</ele>
        <time>2025-02-16T04:42:52.734Z</time>
      </trkpt>
      <trkpt lat="59.07398999668658" lon="14.155592937022448">
        <ele>59.33</ele>
        <time>2025-02-16T04:43:45.833Z</time>
      </trkpt>
      <trkpt lat="59.074072977527976" lon="14.155624955892563">
        <ele>59.36</ele>
        <time>2025-02-16T04:44:38.933Z</time>
      </trkpt>
      <trkpt lat="59.074155958369374" lon="14.15565898641944">
        <ele>59.39</ele>
        <time>2025-02-16T04:45:32.035Z</time>
      </trkpt>
      <trkpt lat="59.07423994503915" lon="14.155690921470523">
        <ele>59.41</ele>
        <time>2025-02-16T04:46:25.138Z</time>
      </trkpt>
      <trkpt lat="59.07432393170893" lon="14.155721934512258">
        <ele>59.44</ele>
        <time>2025-02-16T04:47:18.242Z</time>
      </trkpt>
      <trkpt lat="59.07440699636936" lon="14.155751941725612">
        <ele>59.46</ele>
        <time>2025-02-16T04:48:11.348Z</time>
      </trkpt>
      <trkpt lat="59.07448897138238" lon="14.155781948938966">
        <ele>59.48</ele>
        <time>2025-02-16T04:49:04.455Z</time>
      </trkpt>
      <trkpt lat="59.07456994056702" lon="14.15581095032394">
        <ele>59.51</ele>
        <time>2025-02-16T04:49:57.563Z</time>
      </trkpt>
      <trkpt lat="59.074650993570685" lon="14.155837940052152">
        <ele>59.53</ele>
        <time>2025-02-16T04:50:50.673Z</time>
      </trkpt>
      <trkpt lat="59.07473196275532" lon="14.155864929780364">
        <ele>59.56</ele>
        <time>2025-02-16T04:51:43.784Z</time>
      </trkpt>
      <trkpt lat="59.07481393776834" lon="14.155888985842466">
        <ele>59.59</ele>
        <time>2025-02-16T04:52:36.896Z</time>
      </trkpt>
      <trkpt lat="59.07489691860974" lon="14.155913963913918">
        <ele>59.61</ele>
        <time>2025-02-16T04:53:30.010Z</time>
      </trkpt>
      <trkpt lat="59.07498199492693" lon="14.155938941985369">
        <ele>59.64</ele>
        <time>2025-02-16T04:54:23.125Z</time>
      </trkpt>
      <trkpt lat="59.07506899908185" lon="14.155965931713581">
        <ele>59.66</ele>
        <time>2025-02-16T04:55:16.241Z</time>
      </trkpt>
      <trkpt lat="59.07515692524612" lon="14.155991999432445">
        <ele>59.69</ele>
        <time>2025-02-16T04:56:09.359Z</time>
      </trkpt>
      <trkpt lat="59.07524694688618" lon="14.156015971675515">
        <ele>59.71</ele>
        <time>2025-02-16T04:57:02.478Z</time>
      </trkpt>
      <trkpt lat="59.075335962697864" lon="14.156037932261825">
        <ele>59.74</ele>
        <time>2025-02-16T04:57:55.599Z</time>
      </trkpt>
      <trkpt lat="59.075425984337926" lon="14.156057965010405">
        <ele>59.76</ele>
        <time>2025-02-16T04:58:48.721Z</time>
      </trkpt>
      <trkpt lat="59.075514916330576" lon="14.156076991930604">
        <ele>59.78</ele>
        <time>2025-02-16T04:59:41.845Z</time>
      </trkpt>
      <trkpt lat="59.07560393214226" lon="14.156098952516913">
        <ele>59.8</ele>
        <time>2025-02-16T05:00:34.970Z</time>
      </trkpt>
      <trkpt lat="59.07569294795394" lon="14.156115967780352">
        <ele>59.81</ele>
        <time>2025-02-16T05:01:28.097Z</time>
      </trkpt>
      <trkpt lat="59.07578196376562" lon="14.156130971387029">
        <ele>59.83</ele>
        <time>2025-02-16T05:02:21.225Z</time>
      </trkpt>
      <trkpt lat="59.07586997374892" lon="14.156145974993706">
        <ele>59.85</ele>
        <time>2025-02-16T05:03:14.354Z</time>
      </trkpt>
      <trkpt lat="59.07595798373222" lon="14.156163996085525">
        <ele>59.86</ele>
        <time>2025-02-16T05:04:07.485Z</time>
      </trkpt>
      <trkpt lat="59.076046999543905" lon="14.156177993863821">
        <ele>59.88</ele>
        <time>2025-02-16T05:05:00.617Z</time>
      </trkpt>
      <trkpt lat="59.076135931536555" lon="14.156192997470498">
        <ele>59.89</ele>
        <time>2025-02-16T05:05:53.751Z</time>
      </trkpt>
      <trkpt lat="59.07622394151986" lon="14.156205989420414">
        <ele>59.91</ele>
        <time>2025-02-16T05:06:46.886Z</time>
      </trkpt>
      <trkpt lat="59.07631295733154" lon="14.15621898137033">
        <ele>59.92</ele>
        <time>2025-02-16T05:07:40.023Z</time>
      </trkpt>
      <trkpt lat="59.07640096731484" lon="14.156229961663485">
        <ele>59.94</ele>
        <time>2025-02-16T05:08:33.161Z</time>
      </trkpt>
      <trkpt lat="59.07648998312652" lon="14.15624194778502">
        <ele>59.96</ele>
        <time>2025-02-16T05:09:26.300Z</time>
      </trkpt>
      <trkpt lat="59.07657799310982" lon="14.156250916421413">
        <ele>59.97</ele>
        <time>2025-02-16T05:10:19.441Z</time>
      </trkpt>
      <trkpt lat="59.07666499726474" lon="14.156258963048458">
        <ele>59.98</ele>
        <time>2025-02-16T05:11:12.583Z</time>
      </trkpt>
      <trkpt lat="59.07675099559128" lon="14.156266925856471">
        <ele>59.99</ele>
        <time>2025-02-16T05:12:05.727Z</time>
      </trkpt>
      <trkpt lat="59.07683598808944" lon="14.156275978311896">
        <ele>60.0</ele>
        <time>2025-02-16T05:12:58.872Z</time>
      </trkpt>
      <trkpt lat="59.0769209805876" lon="14.15628494694829">
        <ele>60.01</ele>
        <time>2025-02-16T05:13:52.018Z</time>
      </trkpt>
      <trkpt lat="59.07700798474252" lon="14.156291987746954">
        <ele>60.03</ele>
        <time>2025-02-16T05:14:45.166Z</time>
      </trkpt>
      <trkpt lat="59.07709599472582" lon="14.156297938898206">
        <ele>60.04</ele>
        <time>2025-02-16T05:15:38.315Z</time>
      </trkpt>
      <trkpt lat="59.07718492671847" lon="14.156302968040109">
        <ele>60.04</ele>
        <time>2025-02-16T05:16:31.466Z</time>
      </trkpt>
      <trkpt lat="59.077271930873394" lon="14.156307997182012">
        <ele>60.04</ele>
        <time>2025-02-16T05:17:24.618Z</time>
      </trkpt>
      <trkpt lat="59.077358935028315" lon="14.156313948333263">
        <ele>60.05</ele>
        <time>2025-02-16T05:18:17.771Z</time>
      </trkpt>
      <trkpt lat="59.077444933354855" lon="14.156317971646786">
        <ele>60.04</ele>
        <time>2025-02-16T05:19:10.926Z</time>
      </trkpt>
      <trkpt lat="59.077532943338156" lon="14.156319983303547">
        <ele>60.04</ele>
        <time>2025-02-16T05:20:04.082Z</time>
      </trkpt>
      <trkpt lat="59.07762195914984" lon="14.156321994960308">
        <ele>60.04</ele>
        <time>2025-02-16T05:20:57.240Z</time>
      </trkpt>
      <trkpt lat="59.07770996913314" lon="14.156323922798038">
        <ele>60.04</ele>
        <time>2025-02-16T05:21:50.399Z</time>
      </trkpt>
      <trkpt lat="59.07779697328806" lon="14.15632694028318">
        <ele>60.03</ele>
        <time>2025-02-16T05:22:43.559Z</time>
      </trkpt>
      <trkpt lat="59.07788498327136" lon="14.156331969425082">
        <ele>60.02</ele>
        <time>2025-02-16T05:23:36.721Z</time>
      </trkpt>
      <trkpt lat="59.07797492109239" lon="14.156333981081843">
        <ele>60.01</ele>
        <time>2025-02-16T05:24:29.884Z</time>
      </trkpt>
      <trkpt lat="59.07806494273245" lon="14.156333981081843">
        <ele>60.01</ele>
        <time>2025-02-16T05:25:23.049Z</time>
      </trkpt>
      <trkpt lat="59.078153958544135" lon="14.156332975253463">
        <ele>60.01</ele>
        <time>2025-02-16T05:26:16.215Z</time>
      </trkpt>
      <trkpt lat="59.0782439801842" lon="14.156333981081843">
        <ele>60.0</ele>
        <time>2025-02-16T05:27:09.383Z</time>
      </trkpt>
      <trkpt lat="59.07833391800523" lon="14.156337920576334">
        <ele>60.0</ele>
        <time>2025-02-16T05:28:02.552Z</time>
      </trkpt>
      <trkpt lat="59.07842393964529" lon="14.156342949718237">
        <ele>59.99</ele>
        <time>2025-02-16T05:28:55.722Z</time>
      </trkpt>
      <trkpt lat="59.07851194962859" lon="14.156349990516901">
        <ele>59.98</ele>
        <time>2025-02-16T05:29:48.894Z</time>
      </trkpt>
      <trkpt lat="59.078601971268654" lon="14.156352924183011">
        <ele>59.98</ele>
        <time>2025-02-16T05:30:42.067Z</time>
      </trkpt>
      <trkpt lat="59.078691992908716" lon="14.15635191835463">
        <ele>59.97</ele>
        <time>2025-02-16T05:31:35.242Z</time>
      </trkpt>
      <trkpt lat="59.078780924901366" lon="14.156349990516901">
        <ele>59.96</ele>
        <time>2025-02-16T05:32:28.418Z</time>
      </trkpt>
      <trkpt lat="59.07886994071305" lon="14.156350996345282">
        <ele>59.95</ele>
        <time>2025-02-16T05:33:21.596Z</time>
      </trkpt>
      <trkpt lat="59.07896197400987" lon="14.156355941668153">
        <ele>59.94</ele>
        <time>2025-02-16T05:34:14.775Z</time>
      </trkpt>
      <trkpt lat="59.079054929316044" lon="14.156360970810056">
        <ele>59.93</ele>
        <time>2025-02-16T05:35:07.956Z</time>
      </trkpt>
      <trkpt lat="59.07914897426963" lon="14.156364994123578">
        <ele>59.92</ele>
        <time>2025-02-16T05:36:01.138Z</time>
      </trkpt>
      <trkpt lat="59.07924092374742" lon="14.156367927789688">
        <ele>59.91</ele>
        <time>2025-02-16T05:36:54.322Z</time>
      </trkpt>
      <trkpt lat="59.079332957044244" lon="14.156373962759972">
        <ele>59.89</ele>
        <time>2025-02-16T05:37:47.507Z</time>
      </trkpt>
      <trkpt lat="59.07942499034107" lon="14.156382931396365">
        <ele>59.87</ele>
        <time>2025-02-16T05:38:40.693Z</time>
      </trkpt>
      <trkpt lat="59.07951693981886" lon="14.156393995508552">
        <ele>59.85</ele>
        <time>2025-02-16T05:39:33.881Z</time>
      </trkpt>
      <trkpt lat="59.07960997894406" lon="14.156405981630087">
        <ele>59.83</ele>
        <time>2025-02-16T05:40:27.070Z</time>
      </trkpt>
      <trkpt lat="59.079703940078616" lon="14.156418973580003">
        <ele>59.81</ele>
        <time>2025-02-16T05:41:20.261Z</time>
      </trkpt>
      <trkpt lat="59.0797979850322" lon="14.156429953873158">
        <ele>59.78</ele>
        <time>2025-02-16T05:42:13.453Z</time>
      </trkpt>
      <trkpt lat="59.07989094033837" lon="14.156441939994693">
        <ele>59.75</ele>
        <time>2025-02-16T05:43:06.647Z</time>
      </trkpt>
      <trkpt lat="59.079981967806816" lon="14.156458955258131">
        <ele>59.72</ele>
        <time>2025-02-16T05:43:59.842Z</time>
      </trkpt>
      <trkpt lat="59.0800709836185" lon="14.156478988006711">
        <ele>59.69</ele>
        <time>2025-02-16T05:44:53.039Z</time>
      </trkpt>
      <trkpt lat="59.08015798777342" lon="14.156496925279498">
        <ele>59.65</ele>
        <time>2025-02-16T05:45:46.237Z</time>
      </trkpt>
      <trkpt lat="59.08024499192834" lon="14.156515952199697">
        <ele>59.62</ele>
        <time>2025-02-16T05:46:39.437Z</time>
      </trkpt>
      <trkpt lat="59.08033392392099" lon="14.156533973291516">
        <ele>59.59</ele>
        <time>2025-02-16T05:47:32.638Z</time>
      </trkpt>
      <trkpt lat="59.08042394556105" lon="14.156558951362967">
        <ele>59.55</ele>
        <time>2025-02-16T05:48:25.841Z</time>
      </trkpt>
      <trkpt lat="59.080513967201114" lon="14.1565849352628">
        <ele>59.51</ele>
        <time>2025-02-16T05:49:19.045Z</time>
      </trkpt>
      <trkpt lat="59.080605916678905" lon="14.156609997153282">
        <ele>59.47</ele>
        <time>2025-02-16T05:50:12.251Z</time>
      </trkpt>
      <trkpt lat="59.08069694414735" lon="14.156632963567972">
        <ele>59.43</ele>
        <time>2025-02-16T05:51:05.458Z</time>
      </trkpt>
      <trkpt lat="59.08078797161579" lon="14.156661964952946">
        <ele>59.38</ele>
        <time>2025-02-16T05:51:58.666Z</time>
      </trkpt>
      <trkpt lat="59.080877993255854" lon="14.15669096633792">
        <ele>59.34</ele>
        <time>2025-02-16T05:52:51.876Z</time>
      </trkpt>
      <trkpt lat="59.080963991582394" lon="14.156721979379654">
        <ele>59.29</ele>
        <time>2025-02-16T05:53:45.087Z</time>
      </trkpt>
      <trkpt lat="59.08104898408055" lon="14.15675399824977">
        <ele>59.24</ele>
        <time>2025-02-16T05:54:38.300Z</time>
      </trkpt>
      <trkpt lat="59.08113498240709" lon="14.156783921644092">
        <ele>59.19</ele>
        <time>2025-02-16T05:55:31.514Z</time>
      </trkpt>
      <trkpt lat="59.081221986562014" lon="14.156814934685826">
        <ele>59.14</ele>
        <time>2025-02-16T05:56:24.730Z</time>
      </trkpt>
      <trkpt lat="59.08130697906017" lon="14.156851982697845">
        <ele>59.08</ele>
        <time>2025-02-16T05:57:17.947Z</time>
      </trkpt>
      <trkpt lat="59.081393983215094" lon="14.15688794106245">
        <ele>59.02</ele>
        <time>2025-02-16T05:58:11.165Z</time>
      </trkpt>
      <trkpt lat="59.081481993198395" lon="14.156923983246088">
        <ele>58.96</ele>
        <time>2025-02-16T05:59:04.385Z</time>
      </trkpt>
      <trkpt lat="59.081572936847806" lon="14.156960947439075">
        <ele>58.89</ele>
        <time>2025-02-16T05:59:57.606Z</time>
      </trkpt>
      <trkpt lat="59.081658935174346" lon="14.157004952430725">
        <ele>58.83</ele>
        <time>2025-02-16T06:00:50.829Z</time>
      </trkpt>
      <trkpt lat="59.081743927672505" lon="14.157050969079137">
        <ele>58.77</ele>
        <time>2025-02-16T06:01:44.053Z</time>
      </trkpt>
      <trkpt lat="59.081829925999045" lon="14.157096985727549">
        <ele>58.7</ele>
        <time>2025-02-16T06:02:37.279Z</time>
      </trkpt>
      <trkpt lat="59.08191894181073" lon="14.157135961577296">
        <ele>58.63</ele>
        <time>2025-02-16T06:03:30.506Z</time>
      </trkpt>
      <trkpt lat="59.08200695179403" lon="14.157178960740566">
        <ele>58.55</ele>
        <time>2025-02-16T06:04:23.735Z</time>
      </trkpt>
      <trkpt lat="59.08209093846381" lon="14.157223971560597">
        <ele>58.48</ele>
        <time>2025-02-16T06:05:16.965Z</time>
      </trkpt>
      <trkpt lat="59.082173919305205" lon="14.157267976552248">
        <ele>58.4</ele>
        <time>2025-02-16T06:06:10.196Z</time>
      </trkpt>
      <trkpt lat="59.082257989794016" lon="14.157307958230376">
        <ele>58.33</ele>
        <time>2025-02-16T06:07:03.429Z</time>
      </trkpt>
      <trkpt lat="59.082342982292175" lon="14.157352969050407">
        <ele>58.25</ele>
        <time>2025-02-16T06:07:56.663Z</time>
      </trkpt>
      <trkpt lat="59.08242596313357" lon="14.1573999915272">
        <ele>58.18</ele>
        <time>2025-02-16T06:08:49.898Z</time>
      </trkpt>
      <trkpt lat="59.08250994980335" lon="14.15744693018496">
        <ele>58.09</ele>
        <time>2025-02-16T06:09:43.135Z</time>
      </trkpt>
      <trkpt lat="59.08259594812989" lon="14.157492946833372">
        <ele>58.01</ele>
        <time>2025-02-16T06:10:36.373Z</time>
      </trkpt>
      <trkpt lat="59.08268094062805" lon="14.157539969310164">
        <ele>57.93</ele>
        <time>2025-02-16T06:11:29.613Z</time>
      </trkpt>
      <trkpt lat="59.08276693895459" lon="14.157590931281447">
        <ele>57.84</ele>
        <time>2025-02-16T06:12:22.854Z</time>
      </trkpt>
      <trkpt lat="59.08285293728113" lon="14.157644994556904">
        <ele>57.75</ele>
        <time>2025-02-16T06:13:16.097Z</time>
      </trkpt>
      <trkpt lat="59.08293893560767" lon="14.157697968184948">
        <ele>57.66</ele>
        <time>2025-02-16T06:14:09.341Z</time>
      </trkpt>
      <trkpt lat="59.08302392810583" lon="14.157750941812992">
        <ele>57.57</ele>
        <time>2025-02-16T06:15:02.587Z</time>
      </trkpt>
      <trkpt lat="59.08310799859464" lon="14.157806932926178">
        <ele>57.49</ele>
        <time>2025-02-16T06:15:55.834Z</time>
      </trkpt>
      <trkpt lat="59.08319693058729" lon="14.157861918210983">
        <ele>57.39</ele>
        <time>2025-02-16T06:16:49.082Z</time>
      </trkpt>
      <trkpt lat="59.08328292891383" lon="14.157922938466072">
        <ele>57.3</ele>
        <time>2025-02-16T06:17:42.332Z</time>
      </trkpt>
      <trkpt lat="59.08337093889713" lon="14.157986976206303">
        <ele>57.2</ele>
        <time>2025-02-16T06:18:35.583Z</time>
      </trkpt>
      <trkpt lat="59.083458948880434" lon="14.158053947612643">
        <ele>57.1</ele>
        <time>2025-02-16T06:19:28.836Z</time>
      </trkpt>
      <trkpt lat="59.083546958863735" lon="14.158119997009635">
        <ele>57.0</ele>
        <time>2025-02-16T06:20:22.090Z</time>
      </trkpt>
      <trkpt lat="59.083633963018656" lon="14.158187974244356">
        <ele>56.89</ele>
        <time>2025-02-16T06:21:15.346Z</time>
      </trkpt>
      <trkpt lat="59.083720967173576" lon="14.158256957307458">
        <ele>56.79</ele>
        <time>2025-02-16T06:22:08.603Z</time>
      </trkpt>
      <trkpt lat="59.0838079713285" lon="14.158324934542179">
        <ele>56.68</ele>
        <time>2025-02-16T06:23:01.862Z</time>
      </trkpt>
      <trkpt lat="59.0838959813118" lon="14.158397940918803">
        <ele>56.57</ele>
        <time>2025-02-16T06:23:55.122Z</time>
      </trkpt>
      <trkpt lat="59.08398499712348" lon="14.158469941467047">
        <ele>56.46</ele>
        <time>2025-02-16T06:24:48.384Z</time>
      </trkpt>
      <trkpt lat="59.08407392911613" lon="14.158539930358529">
        <ele>56.35</ele>
        <time>2025-02-16T06:25:41.648Z</time>
      </trkpt>
      <trkpt lat="59.08415992744267" lon="14.158612936735153">
        <ele>56.24</ele>
        <time>2025-02-16T06:26:34.913Z</time>
      </trkpt>
      <trkpt lat="59.08424592576921" lon="14.158686948940158">
        <ele>56.14</ele>
        <time>2025-02-16T06:27:28.180Z</time>
      </trkpt>
      <trkpt lat="59.08433192409575" lon="14.158759955316782">
        <ele>56.03</ele>
        <time>2025-02-16T06:28:21.448Z</time>
      </trkpt>
      <trkpt lat="59.08441993407905" lon="14.158835979178548">
        <ele>55.93</ele>
        <time>2025-02-16T06:29:14.718Z</time>
      </trkpt>
      <trkpt lat="59.08450794406235" lon="14.158916948363185">
        <ele>55.82</ele>
        <time>2025-02-16T06:30:07.989Z</time>
      </trkpt>
      <trkpt lat="59.084597965702415" lon="14.158996995538473">
        <ele>55.72</ele>
        <time>2025-02-16T06:31:01.262Z</time>
      </trkpt>
      <trkpt lat="59.08468798734248" lon="14.15907695889473">
        <ele>55.62</ele>
        <time>2025-02-16T06:31:54.536Z</time>
      </trkpt>
      <trkpt lat="59.08477792516351" lon="14.159157928079367">
        <ele>55.51</ele>
        <time>2025-02-16T06:32:47.812Z</time>
      </trkpt>
      <trkpt lat="59.08486794680357" lon="14.159238981083035">
        <ele>55.41</ele>
        <time>2025-02-16T06:33:41.090Z</time>
      </trkpt>
      <trkpt lat="59.08495796844363" lon="14.159319950267673">
        <ele>55.31</ele>
        <time>2025-02-16T06:34:34.369Z</time>
      </trkpt>
      <trkpt lat="59.08504597842693" lon="14.15940091945231">
        <ele>55.21</ele>
        <time>2025-02-16T06:35:27.650Z</time>
      </trkpt>
      <trkpt lat="59.085134994238615" lon="14.159481972455978">
        <ele>55.11</ele>
        <time>2025-02-16T06:36:20.932Z</time>
      </trkpt>
      <trkpt lat="59.085223926231265" lon="14.159562941640615">
        <ele>55.02</ele>
        <time>2025-02-16T06:37:14.216Z</time>
      </trkpt>
      <trkpt lat="59.085311936214566" lon="14.159641982987523">
        <ele>54.92</ele>
        <time>2025-02-16T06:38:07.501Z</time>
      </trkpt>
      <trkpt lat="59.08539894036949" lon="14.159718928858638">
        <ele>54.83</ele>
        <time>2025-02-16T06:39:00.788Z</time>
      </trkpt>
      <trkpt lat="59.08548493869603" lon="14.159795958548784">
        <ele>54.74</ele>
        <time>2025-02-16T06:39:54.076Z</time>
      </trkpt>
      <trkpt lat="59.085569931194186" lon="14.15987198241055">
        <ele>54.64</ele>
        <time>2025-02-16T06:40:47.366Z</time>
      </trkpt>
      <trkpt lat="59.085654923692346" lon="14.159946916624904">
        <ele>54.55</ele>
        <time>2025-02-16T06:41:40.657Z</time>
      </trkpt>
      <trkpt lat="59.085739916190505" lon="14.16002394631505">
        <ele>54.47</ele>
        <time>2025-02-16T06:42:33.950Z</time>
      </trkpt>
      <trkpt lat="59.085823986679316" lon="14.160099970176816">
        <ele>54.38</ele>
        <time>2025-02-16T06:43:27.244Z</time>
      </trkpt>
      <trkpt lat="59.085909985005856" lon="14.160175994038582">
        <ele>54.3</ele>
        <time>2025-02-16T06:44:20.540Z</time>
      </trkpt>
      <trkpt lat="59.085994977504015" lon="14.160250928252935">
        <ele>54.22</ele>
        <time>2025-02-16T06:45:13.837Z</time>
      </trkpt>
      <trkpt lat="59.086078964173794" lon="14.16032594628632">
        <ele>54.15</ele>
        <time>2025-02-16T06:46:07.136Z</time>
      </trkpt>
      <trkpt lat="59.08616093918681" lon="14.160401970148087">
        <ele>54.08</ele>
        <time>2025-02-16T06:47:00.436Z</time>
      </trkpt>
      <trkpt lat="59.08624492585659" lon="14.160479921847582">
        <ele>54.01</ele>
        <time>2025-02-16T06:47:53.738Z</time>
      </trkpt>
      <trkpt lat="59.08632799051702" lon="14.160556951537728">
        <ele>53.94</ele>
        <time>2025-02-16T06:48:47.041Z</time>
      </trkpt>
      <trkpt lat="59.08641097135842" lon="14.160632975399494">
        <ele>53.88</ele>
        <time>2025-02-16T06:49:40.346Z</time>
      </trkpt>
      <trkpt lat="59.086492946371436" lon="14.160705981776118">
        <ele>53.81</ele>
        <time>2025-02-16T06:50:33.652Z</time>
      </trkpt>
      <trkpt lat="59.086571987718344" lon="14.160779993981123">
        <ele>53.75</ele>
        <time>2025-02-16T06:51:26.960Z</time>
      </trkpt>
      <trkpt lat="59.08664893358946" lon="14.160854928195477">
        <ele>53.68</ele>
        <time>2025-02-16T06:52:20.269Z</time>
      </trkpt>
      <trkpt lat="59.086726969107985" lon="14.1609279345721">
        <ele>53.62</ele>
        <time>2025-02-16T06:53:13.579Z</time>
      </trkpt>
      <trkpt lat="59.08680399879813" lon="14.160998929291964">
        <ele>53.55</ele>
        <time>2025-02-16T06:54:06.891Z</time>
      </trkpt>
      <trkpt lat="59.08688295632601" lon="14.161072941496968">
        <ele>53.49</ele>
        <time>2025-02-16T06:55:00.204Z</time>
      </trkpt>
      <trkpt lat="59.086960991844535" lon="14.161145947873592">
        <ele>53.43</ele>
        <time>2025-02-16T06:55:53.519Z</time>
      </trkpt>
      <trkpt lat="59.08703994937241" lon="14.161216942593455">
        <ele>53.38</ele>
        <time>2025-02-16T06:56:46.835Z</time>
      </trkpt>
      <trkpt lat="59.0871199965477" lon="14.161286931484938">
        <ele>53.32</ele>
        <time>2025-02-16T06:57:40.152Z</time>
      </trkpt>
      <trkpt lat="59.087200965732336" lon="14.1613579262048">
        <ele>53.27</ele>
        <time>2025-02-16T06:58:33.471Z</time>
      </trkpt>
      <trkpt lat="59.08728092908859" lon="14.161429926753044">
        <ele>53.22</ele>
        <time>2025-02-16T06:59:26.791Z</time>
      </trkpt>
      <trkpt lat="59.08736198209226" lon="14.161501927301288">
        <ele>53.18</ele>
        <time>2025-02-16T07:00:20.113Z</time>
      </trkpt>
      <trkpt lat="59.08744093962014" lon="14.161574933677912">
        <ele>53.13</ele>
        <time>2025-02-16T07:01:13.436Z</time>
      </trkpt>
      <trkpt lat="59.087519980967045" lon="14.161647940054536">
        <ele>53.09</ele>
        <time>2025-02-16T07:02:06.761Z</time>
      </trkpt>
      <trkpt lat="59.08759893849492" lon="14.16172094643116">
        <ele>53.05</ele>
        <time>2025-02-16T07:03:00.087Z</time>
      </trkpt>
      <trkpt lat="59.08767898567021" lon="14.161790935322642">
        <ele>53.01</ele>
        <time>2025-02-16T07:03:53.414Z</time>
      </trkpt>
      <trkpt lat="59.087759954854846" lon="14.161861930042505">
        <ele>52.97</ele>
        <time>2025-02-16T07:04:46.743Z</time>
      </trkpt>
      <trkpt lat="59.08784092403948" lon="14.161933930590749">
        <ele>52.92</ele>
        <time>2025-02-16T07:05:40.073Z</time>
      </trkpt>
      <trkpt lat="59.08792298287153" lon="14.162008948624134">
        <ele>52.88</ele>
        <time>2025-02-16T07:06:33.405Z</time>
      </trkpt>
      <trkpt lat="59.08800596371293" lon="14.162082960829139">
        <ele>52.84</ele>
        <time>2025-02-16T07:07:26.738Z</time>
      </trkpt>
      <trkpt lat="59.08808894455433" lon="14.162156973034143">
        <ele>52.8</ele>
        <time>2025-02-16T07:08:20.073Z</time>
      </trkpt>
      <trkpt lat="59.08817091956735" lon="14.162231991067529">
        <ele>52.77</ele>
        <time>2025-02-16T07:09:13.409Z</time>
      </trkpt>
      <trkpt lat="59.08825398422778" lon="14.162304997444153">
        <ele>52.73</ele>
        <time>2025-02-16T07:10:06.746Z</time>
      </trkpt>
      <trkpt lat="59.088335959240794" lon="14.162379931658506">
        <ele>52.7</ele>
        <time>2025-02-16T07:11:00.085Z</time>
      </trkpt>
      <trkpt lat="59.08841793425381" lon="14.162456961348653">
        <ele>52.67</ele>
        <time>2025-02-16T07:11:53.425Z</time>
      </trkpt>
      <trkpt lat="59.08850292675197" lon="14.16253499686718">
        <ele>52.65</ele>
        <time>2025-02-16T07:12:46.767Z</time>
      </trkpt>
      <trkpt lat="59.08858791925013" lon="14.162613954395056">
        <ele>52.63</ele>
        <time>2025-02-16T07:13:40.110Z</time>
      </trkpt>
      <trkpt lat="59.08867592923343" lon="14.162693917751312">
        <ele>52.62</ele>
        <time>2025-02-16T07:14:33.455Z</time>
      </trkpt>
      <trkpt lat="59.08876393921673" lon="14.1627739649266">
        <ele>52.6</ele>
        <time>2025-02-16T07:15:26.802Z</time>
      </trkpt>
      <trkpt lat="59.088852955028415" lon="14.162851916626096">
        <ele>52.6</ele>
        <time>2025-02-16T07:16:20.150Z</time>
      </trkpt>
      <trkpt lat="59.0889419708401" lon="14.162932969629765">
        <ele>52.59</ele>
        <time>2025-02-16T07:17:13.500Z</time>
      </trkpt>
      <trkpt lat="59.08903098665178" lon="14.163013938814402">
        <ele>52.59</ele>
        <time>2025-02-16T07:18:06.851Z</time>
      </trkpt>
      <trkpt lat="59.08912092447281" lon="14.163091974332929">
        <ele>52.59</ele>
        <time>2025-02-16T07:19:00.204Z</time>
      </trkpt>
      <trkpt lat="59.08920994028449" lon="14.163169926032424">
        <ele>52.6</ele>
        <time>2025-02-16T07:19:53.558Z</time>
      </trkpt>
      <trkpt lat="59.08929795026779" lon="14.163249973207712">
        <ele>52.61</ele>
        <time>2025-02-16T07:20:46.914Z</time>
      </trkpt>
      <trkpt lat="59.08938495442271" lon="14.16333094239235">
        <ele>52.61</ele>
        <time>2025-02-16T07:21:40.272Z</time>
      </trkpt>
      <trkpt lat="59.08947195857763" lon="14.163409983739257">
        <ele>52.61</ele>
        <time>2025-02-16T07:22:33.631Z</time>
      </trkpt>
      <trkpt lat="59.08955896273255" lon="14.163486929610372">
        <ele>52.61</ele>
        <time>2025-02-16T07:23:26.992Z</time>
      </trkpt>
      <trkpt lat="59.089645966887474" lon="14.163564965128899">
        <ele>52.61</ele>
        <time>2025-02-16T07:24:20.354Z</time>
      </trkpt>
      <trkpt lat="59.089732971042395" lon="14.163639983162284">
        <ele>52.61</ele>
        <time>2025-02-16T07:25:13.718Z</time>
      </trkpt>
      <trkpt lat="59.089817963540554" lon="14.163714917376637">
        <ele>52.62</ele>
        <time>2025-02-16T07:26:07.083Z</time>
      </trkpt>
      <trkpt lat="59.08990195021033" lon="14.163787923753262">
        <ele>52.63</ele>
        <time>2025-02-16T07:27:00.450Z</time>
      </trkpt>
      <trkpt lat="59.08998794853687" lon="14.163860930129886">
        <ele>52.65</ele>
        <time>2025-02-16T07:27:53.818Z</time>
      </trkpt>
      <trkpt lat="59.09007294103503" lon="14.163931924849749">
        <ele>52.67</ele>
        <time>2025-02-16T07:28:47.188Z</time>
      </trkpt>
      <trkpt lat="59.09015994518995" lon="14.164000991731882">
        <ele>52.69</ele>
        <time>2025-02-16T07:29:40.559Z</time>
      </trkpt>
      <trkpt lat="59.09024694934487" lon="14.164069974794984">
        <ele>52.71</ele>
        <time>2025-02-16T07:30:33.932Z</time>
      </trkpt>
      <trkpt lat="59.09033294767141" lon="14.164137952029705">
        <ele>52.73</ele>
        <time>2025-02-16T07:31:27.306Z</time>
      </trkpt>
      <trkpt lat="59.090419951826334" lon="14.164204923436046">
        <ele>52.76</ele>
        <time>2025-02-16T07:32:20.682Z</time>
      </trkpt>
      <trkpt lat="59.090505950152874" lon="14.164270972833037">
        <ele>52.78</ele>
        <time>2025-02-16T07:33:14.059Z</time>
      </trkpt>
      <trkpt lat="59.090593960136175" lon="14.164335932582617">
        <ele>52.81</ele>
        <time>2025-02-16T07:34:07.438Z</time>
      </trkpt>
      <trkpt lat="59.090679958462715" lon="14.164398964494467">
        <ele>52.83</ele>
        <time>2025-02-16T07:35:00.818Z</time>
      </trkpt>
      <trkpt lat="59.090764950960875" lon="14.164456967264414">
        <ele>52.87</ele>
        <time>2025-02-16T07:35:54.200Z</time>
      </trkpt>
      <trkpt lat="59.090850949287415" lon="14.16451497003436">
        <ele>52.9</ele>
        <time>2025-02-16T07:36:47.583Z</time>
      </trkpt>
      <trkpt lat="59.090936947613955" lon="14.164571966975927">
        <ele>52.94</ele>
        <time>2025-02-16T07:37:40.967Z</time>
      </trkpt>
      <trkpt lat="59.091022945940495" lon="14.164628963917494">
        <ele>52.98</ele>
        <time>2025-02-16T07:38:34.353Z</time>
      </trkpt>
      <trkpt lat="59.091109950095415" lon="14.16468495503068">
        <ele>53.01</ele>
        <time>2025-02-16T07:39:27.740Z</time>
      </trkpt>
      <trkpt lat="59.091196954250336" lon="14.164736922830343">
        <ele>53.05</ele>
        <time>2025-02-16T07:40:21.129Z</time>
      </trkpt>
      <trkpt lat="59.091281946748495" lon="14.164786962792277">
        <ele>53.09</ele>
        <time>2025-02-16T07:41:14.519Z</time>
      </trkpt>
      <trkpt lat="59.091366939246655" lon="14.16483398526907">
        <ele>53.12</ele>
        <time>2025-02-16T07:42:07.911Z</time>
      </trkpt>
      <trkpt lat="59.09145092591643" lon="14.16488092392683">
        <ele>53.16</ele>
        <time>2025-02-16T07:43:01.304Z</time>
      </trkpt>
      <trkpt lat="59.091534996405244" lon="14.164927946403623">
        <ele>53.2</ele>
        <time>2025-02-16T07:43:54.698Z</time>
      </trkpt>
      <trkpt lat="59.09161898307502" lon="14.164972957223654">
        <ele>53.24</ele>
        <time>2025-02-16T07:44:48.094Z</time>
      </trkpt>
      <trkpt lat="59.09170397557318" lon="14.165016962215304">
        <ele>53.28</ele>
        <time>2025-02-16T07:45:41.491Z</time>
      </trkpt>
      <trkpt lat="59.09178896807134" lon="14.165057949721813">
        <ele>53.32</ele>
        <time>2025-02-16T07:46:34.890Z</time>
      </trkpt>
      <trkpt lat="59.09187496639788" lon="14.165099943056703">
        <ele>53.37</ele>
        <time>2025-02-16T07:47:28.290Z</time>
      </trkpt>
      <trkpt lat="59.09196096472442" lon="14.165142942219973">
        <ele>53.42</ele>
        <time>2025-02-16T07:48:21.692Z</time>
      </trkpt>
      <trkpt lat="59.09204696305096" lon="14.165183929726481">
        <ele>53.46</ele>
        <time>2025-02-16T07:49:15.095Z</time>
      </trkpt>
      <trkpt lat="59.09213396720588" lon="14.16522198356688">
        <ele>53.51</ele>
        <time>2025-02-16T07:50:08.499Z</time>
      </trkpt>
      <trkpt lat="59.0922209713608" lon="14.165258947759867">
        <ele>53.56</ele>
        <time>2025-02-16T07:51:01.905Z</time>
      </trkpt>
      <trkpt lat="59.09230696968734" lon="14.165297923609614">
        <ele>53.61</ele>
        <time>2025-02-16T07:51:55.312Z</time>
      </trkpt>
      <trkpt lat="59.09239397384226" lon="14.165333965793252">
        <ele>53.66</ele>
        <time>2025-02-16T07:52:48.721Z</time>
      </trkpt>
      <trkpt lat="59.0924799721688" lon="14.165369924157858">
        <ele>53.71</ele>
        <time>2025-02-16T07:53:42.131Z</time>
      </trkpt>
      <trkpt lat="59.09256597049534" lon="14.165400937199593">
        <ele>53.76</ele>
        <time>2025-02-16T07:54:35.542Z</time>
      </trkpt>
      <trkpt lat="59.09265196882188" lon="14.165434967726469">
        <ele>53.81</ele>
        <time>2025-02-16T07:55:28.955Z</time>
      </trkpt>
      <trkpt lat="59.09273696132004" lon="14.165463969111443">
        <ele>53.85</ele>
        <time>2025-02-16T07:56:22.369Z</time>
      </trkpt>
      <trkpt lat="59.09282295964658" lon="14.165486935526133">
        <ele>53.89</ele>
        <time>2025-02-16T07:57:15.785Z</time>
      </trkpt>
      <trkpt lat="59.09290895797312" lon="14.165513925254345">
        <ele>53.93</ele>
        <time>2025-02-16T07:58:09.202Z</time>
      </trkpt>
      <trkpt lat="59.09299495629966" lon="14.165543932467699">
        <ele>53.98</ele>
        <time>2025-02-16T07:59:02.620Z</time>
      </trkpt>
      <trkpt lat="59.09308196045458" lon="14.165574945509434">
        <ele>54.02</ele>
        <time>2025-02-16T07:59:56.040Z</time>
      </trkpt>
      <trkpt lat="59.09316695295274" lon="14.165600929409266">
        <ele>54.06</ele>
        <time>2025-02-16T08:00:49.461Z</time>
      </trkpt>
      <trkpt lat="59.0932519454509" lon="14.165626997128129">
        <ele>54.1</ele>
        <time>2025-02-16T08:01:42.884Z</time>
      </trkpt>
      <trkpt lat="59.0933399554342" lon="14.16565197519958">
        <ele>54.13</ele>
        <time>2025-02-16T08:02:36.308Z</time>
      </trkpt>
      <trkpt lat="59.093426959589124" lon="14.165672929957509">
        <ele>54.17</ele>
        <time>2025-02-16T08:03:29.733Z</time>
      </trkpt>
      <trkpt lat="59.093516981229186" lon="14.16569396853447">
        <ele>54.2</ele>
        <time>2025-02-16T08:04:23.160Z</time>
      </trkpt>
      <trkpt lat="59.09360599704087" lon="14.165712995454669">
        <ele>54.23</ele>
        <time>2025-02-16T08:05:16.588Z</time>
      </trkpt>
      <trkpt lat="59.09369492903352" lon="14.165728921070695">
        <ele>54.27</ele>
        <time>2025-02-16T08:06:10.018Z</time>
      </trkpt>
      <trkpt lat="59.09378193318844" lon="14.165745936334133">
        <ele>54.3</ele>
        <time>2025-02-16T08:07:03.449Z</time>
      </trkpt>
      <trkpt lat="59.09387094900012" lon="14.165764963254333">
        <ele>54.34</ele>
        <time>2025-02-16T08:07:56.882Z</time>
      </trkpt>
      <trkpt lat="59.0939599648118" lon="14.16578097268939">
        <ele>54.38</ele>
        <time>2025-02-16T08:08:50.316Z</time>
      </trkpt>
      <trkpt lat="59.094050992280245" lon="14.165795976296067">
        <ele>54.41</ele>
        <time>2025-02-16T08:09:43.752Z</time>
      </trkpt>
      <trkpt lat="59.094141935929656" lon="14.16580494493246">
        <ele>54.44</ele>
        <time>2025-02-16T08:10:37.189Z</time>
      </trkpt>
      <trkpt lat="59.0942329633981" lon="14.165811985731125">
        <ele>54.48</ele>
        <time>2025-02-16T08:11:30.627Z</time>
      </trkpt>
      <trkpt lat="59.09432298503816" lon="14.165816931053996">
        <ele>54.51</ele>
        <time>2025-02-16T08:12:24.067Z</time>
      </trkpt>
      <trkpt lat="59.09441292285919" lon="14.165817936882377">
        <ele>54.53</ele>
        <time>2025-02-16T08:13:17.508Z</time>
      </trkpt>
      <trkpt lat="59.094503950327635" lon="14.165821960195899">
        <ele>54.55</ele>
        <time>2025-02-16T08:14:10.951Z</time>
      </trkpt>
      <trkpt lat="59.094591960310936" lon="14.165821960195899">
        <ele>54.57</ele>
        <time>2025-02-16T08:15:04.395Z</time>
      </trkpt>
      <trkpt lat="59.09467997029424" lon="14.165821960195899">
        <ele>54.59</ele>
        <time>2025-02-16T08:15:57.841Z</time>
      </trkpt>
      <trkpt lat="59.09476798027754" lon="14.165817936882377">
        <ele>54.61</ele>
        <time>2025-02-16T08:16:51.288Z</time>
      </trkpt>
      <trkpt lat="59.09485599026084" lon="14.165814919397235">
        <ele>54.62</ele>
        <time>2025-02-16T08:17:44.736Z</time>
      </trkpt>
      <trkpt lat="59.094940982759" lon="14.165814919397235">
        <ele>54.64</ele>
        <time>2025-02-16T08:18:38.186Z</time>
      </trkpt>
      <trkpt lat="59.09502496942878" lon="14.165819948539138">
        <ele>54.65</ele>
        <time>2025-02-16T08:19:31.637Z</time>
      </trkpt>
      <trkpt lat="59.09510895609856" lon="14.16582497768104">
        <ele>54.67</ele>
        <time>2025-02-16T08:20:25.090Z</time>
      </trkpt>
      <trkpt lat="59.095192942768335" lon="14.165828917175531">
        <ele>54.68</ele>
        <time>2025-02-16T08:21:18.544Z</time>
      </trkpt>
      <trkpt lat="59.095279946923256" lon="14.165830928832293">
        <ele>54.69</ele>
        <time>2025-02-16T08:22:11.999Z</time>
      </trkpt>
      <trkpt lat="59.095365945249796" lon="14.165831934660673">
        <ele>54.69</ele>
        <time>2025-02-16T08:23:05.456Z</time>
      </trkpt>
      <trkpt lat="59.09545596688986" lon="14.165832940489054">
        <ele>54.7</ele>
        <time>2025-02-16T08:23:58.914Z</time>
      </trkpt>
      <trkpt lat="59.09554498270154" lon="14.165833946317434">
        <ele>54.7</ele>
        <time>2025-02-16T08:24:52.374Z</time>
      </trkpt>
      <trkpt lat="59.09563198685646" lon="14.165833946317434">
        <ele>54.7</ele>
        <time>2025-02-16T08:25:45.835Z</time>
      </trkpt>
      <trkpt lat="59.09571999683976" lon="14.165831934660673">
        <ele>54.7</ele>
        <time>2025-02-16T08:26:39.297Z</time>
      </trkpt>
      <trkpt lat="59.09580691717565" lon="14.165829923003912">
        <ele>54.7</ele>
        <time>2025-02-16T08:27:32.761Z</time>
      </trkpt>
      <trkpt lat="59.09589199349284" lon="14.165828917175531">
        <ele>54.71</ele>
        <time>2025-02-16T08:28:26.226Z</time>
      </trkpt>
      <trkpt lat="59.09597497433424" lon="14.165828917175531">
        <ele>54.71</ele>
        <time>2025-02-16T08:29:19.692Z</time>
      </trkpt>
      <trkpt lat="59.096053931862116" lon="14.165831934660673">
        <ele>54.72</ele>
        <time>2025-02-16T08:30:13.160Z</time>
      </trkpt>
      <trkpt lat="59.09612693823874" lon="14.165834952145815">
        <ele>54.73</ele>
        <time>2025-02-16T08:31:06.629Z</time>
      </trkpt>
      <trkpt lat="59.09619499929249" lon="14.165837969630957">
        <ele>54.73</ele>
        <time>2025-02-16T08:32:00.099Z</time>
      </trkpt>
      <trkpt lat="59.09626197069883" lon="14.165841992944479">
        <ele>54.73</ele>
        <time>2025-02-16T08:32:53.570Z</time>
      </trkpt>
      <trkpt lat="59.09632793627679" lon="14.16584299877286">
        <ele>54.73</ele>
        <time>2025-02-16T08:33:47.042Z</time>
      </trkpt>
      <trkpt lat="59.096394991502166" lon="14.16584693826735">
        <ele>54.73</ele>
        <time>2025-02-16T08:34:40.515Z</time>
      </trkpt>
      <trkpt lat="59.096459951251745" lon="14.165849955752492">
        <ele>54.73</ele>
        <time>2025-02-16T08:35:33.989Z</time>
      </trkpt>
      <trkpt lat="59.096522983163595" lon="14.165853979066014">
        <ele>54.73</ele>
        <time>2025-02-16T08:36:27.464Z</time>
      </trkpt>
      <trkpt lat="59.09658391959965" lon="14.165855990722775">
        <ele>54.72</ele>
        <time>2025-02-16T08:37:20.940Z</time>
      </trkpt>
      <trkpt lat="59.09664493985474" lon="14.165856996551156">
        <ele>54.72</ele>
        <time>2025-02-16T08:38:14.417Z</time>
      </trkpt>
      <trkpt lat="59.09670696593821" lon="14.165857918560505">
        <ele>54.71</ele>
        <time>2025-02-16T08:39:07.895Z</time>
      </trkpt>
      <trkpt lat="59.0967679861933" lon="14.165859930217266">
        <ele>54.71</ele>
        <time>2025-02-16T08:40:01.374Z</time>
      </trkpt>
      <trkpt lat="59.096827916800976" lon="14.165861941874027">
        <ele>54.7</ele>
        <time>2025-02-16T08:40:54.854Z</time>
      </trkpt>
      <trkpt lat="59.096887931227684" lon="14.165862947702408">
        <ele>54.69</ele>
        <time>2025-02-16T08:41:48.335Z</time>
      </trkpt>
      <trkpt lat="59.09694693982601" lon="14.165863953530788">
        <ele>54.68</ele>
        <time>2025-02-16T08:42:41.817Z</time>
      </trkpt>
      <trkpt lat="59.0970079600811" lon="14.165862947702408">
        <ele>54.67</ele>
        <time>2025-02-16T08:43:35.300Z</time>
      </trkpt>
      <trkpt lat="59.09707199782133" lon="14.165862947702408">
        <ele>54.66</ele>
        <time>2025-02-16T08:44:28.784Z</time>
      </trkpt>
      <trkpt lat="59.09713695757091" lon="14.165863953530788">
        <ele>54.65</ele>
        <time>2025-02-16T08:45:22.269Z</time>
      </trkpt>
      <trkpt lat="59.09720493480563" lon="14.16586596518755">
        <ele>54.63</ele>
        <time>2025-02-16T08:46:15.755Z</time>
      </trkpt>
      <trkpt lat="59.097271990031004" lon="14.16586697101593">
        <ele>54.62</ele>
        <time>2025-02-16T08:47:09.242Z</time>
      </trkpt>
      <trkpt lat="59.097339967265725" lon="14.165868982672691">
        <ele>54.6</ele>
        <time>2025-02-16T08:48:02.730Z</time>
      </trkpt>
      <trkpt lat="59.097405932843685" lon="14.165874933823943">
        <ele>54.58</ele>
        <time>2025-02-16T08:48:56.219Z</time>
      </trkpt>
      <trkpt lat="59.097468964755535" lon="14.165880968794227">
        <ele>54.56</ele>
        <time>2025-02-16T08:49:49.709Z</time>
      </trkpt>
      <trkpt lat="59.09752696752548" lon="14.165887925773859">
        <ele>54.54</ele>
        <time>2025-02-16T08:50:43.200Z</time>
      </trkpt>
      <trkpt lat="59.09758295863867" lon="14.165895972400904">
        <ele>54.51</ele>
        <time>2025-02-16T08:51:36.692Z</time>
      </trkpt>
      <trkpt lat="59.097638949751854" lon="14.165906952694058">
        <ele>54.49</ele>
        <time>2025-02-16T08:52:30.185Z</time>
      </trkpt>
      <trkpt lat="59.09769795835018" lon="14.165920950472355">
        <ele>54.46</ele>
        <time>2025-02-16T08:53:23.679Z</time>
      </trkpt>
      <trkpt lat="59.09775897860527" lon="14.165935954079032">
        <ele>54.44</ele>
        <time>2025-02-16T08:54:17.174Z</time>
      </trkpt>
      <trkpt lat="59.09782393835485" lon="14.16595296934247">
        <ele>54.41</ele>
        <time>2025-02-16T08:55:10.670Z</time>
      </trkpt>
      <trkpt lat="59.09789099358022" lon="14.16597492992878">
        <ele>54.38</ele>
        <time>2025-02-16T08:56:04.167Z</time>
      </trkpt>
      <trkpt lat="59.097960982471704" lon="14.166001919656992">
        <ele>54.35</ele>
        <time>2025-02-16T08:56:57.665Z</time>
      </trkpt>
      <trkpt lat="59.09803499467671" lon="14.166029999032617">
        <ele>54.33</ele>
        <time>2025-02-16T08:57:51.165Z</time>
      </trkpt>
      <trkpt lat="59.09810892306268" lon="14.166055982932448">
        <ele>54.31</ele>
        <time>2025-02-16T08:58:44.666Z</time>
      </trkpt>
      <trkpt lat="59.09818595275283" lon="14.166088923811913">
        <ele>54.29</ele>
        <time>2025-02-16T08:59:38.168Z</time>
      </trkpt>
      <trkpt lat="59.098262982442975" lon="14.166132928803563">
        <ele>54.28</ele>
        <time>2025-02-16T09:00:31.671Z</time>
      </trkpt>
      <trkpt lat="59.09834294579923" lon="14.166181962937117">
        <ele>54.26</ele>
        <time>2025-02-16T09:01:25.176Z</time>
      </trkpt>
      <trkpt lat="59.09842492081225" lon="14.16623099707067">
        <ele>54.24</ele>
        <time>2025-02-16T09:02:18.682Z</time>
      </trkpt>
      <trkpt lat="59.09850899130106" lon="14.166278941556811">
        <ele>54.22</ele>
        <time>2025-02-16T09:03:12.189Z</time>
      </trkpt>
      <trkpt lat="59.09859599545598" lon="14.166321940720081">
        <ele>54.2</ele>
        <time>2025-02-16T09:04:05.698Z</time>
      </trkpt>
      <trkpt lat="59.0986829996109" lon="14.166364939883351">
        <ele>54.19</ele>
        <time>2025-02-16T09:04:59.208Z</time>
      </trkpt>
      <trkpt lat="59.09876899793744" lon="14.16640693321824">
        <ele>54.17</ele>
        <time>2025-02-16T09:05:52.720Z</time>
      </trkpt>
      <trkpt lat="59.0988539904356" lon="14.166450938209891">
        <ele>54.15</ele>
        <time>2025-02-16T09:06:46.233Z</time>
      </trkpt>
      <trkpt lat="59.09893998876214" lon="14.166496954858303">
        <ele>54.14</ele>
        <time>2025-02-16T09:07:39.748Z</time>
      </trkpt>
      <trkpt lat="59.09902699291706" lon="14.166544983163476">
        <ele>54.12</ele>
        <time>2025-02-16T09:08:33.264Z</time>
      </trkpt>
      <trkpt lat="59.0991129912436" lon="14.166594939306378">
        <ele>54.1</ele>
        <time>2025-02-16T09:09:26.781Z</time>
      </trkpt>
      <trkpt lat="59.09919697791338" lon="14.166646990925074">
        <ele>54.09</ele>
        <time>2025-02-16T09:10:20.300Z</time>
      </trkpt>
      <trkpt lat="59.09928197041154" lon="14.166699964553118">
        <ele>54.07</ele>
        <time>2025-02-16T09:11:13.820Z</time>
      </trkpt>
      <trkpt lat="59.0993669629097" lon="14.166751932352781">
        <ele>54.06</ele>
        <time>2025-02-16T09:12:07.342Z</time>
      </trkpt>
      <trkpt lat="59.09945195540786" lon="14.166803983971477">
        <ele>54.05</ele>
        <time>2025-02-16T09:13:00.865Z</time>
      </trkpt>
      <trkpt lat="59.09953594207764" lon="14.16685695759952">
        <ele>54.04</ele>
        <time>2025-02-16T09:13:54.390Z</time>
      </trkpt>
      <trkpt lat="59.099619928747416" lon="14.166909931227565">
        <ele>54.03</ele>
        <time>2025-02-16T09:14:47.916Z</time>
      </trkpt>
      <trkpt lat="59.099702993407845" lon="14.166963994503021">
        <ele>54.02</ele>
        <time>2025-02-16T09:15:41.443Z</time>
      </trkpt>
      <trkpt lat="59.09978396259248" lon="14.167019985616207">
        <ele>54.0</ele>
        <time>2025-02-16T09:16:34.972Z</time>
      </trkpt>
      <trkpt lat="59.09986392594874" lon="14.167078994214535">
        <ele>53.99</ele>
        <time>2025-02-16T09:17:28.502Z</time>
      </trkpt>
      <trkpt lat="59.099941961467266" lon="14.167138924822211">
        <ele>53.98</ele>
        <time>2025-02-16T09:18:22.034Z</time>
      </trkpt>
      <trkpt lat="59.10001798532903" lon="14.167197933420539">
        <ele>53.97</ele>
        <time>2025-02-16T09:19:15.567Z</time>
      </trkpt>
      <trkpt lat="59.100092919543386" lon="14.167259959504008">
        <ele>53.97</ele>
        <time>2025-02-16T09:20:09.101Z</time>
      </trkpt>
      <trkpt lat="59.10016592592001" lon="14.167324919253588">
        <ele>53.96</ele>
        <time>2025-02-16T09:21:02.636Z</time>
      </trkpt>
      <trkpt lat="59.10023692063987" lon="14.167387951165438">
        <ele>53.95</ele>
        <time>2025-02-16T09:21:56.173Z</time>
      </trkpt>
      <trkpt lat="59.100304981693625" lon="14.167446959763765">
        <ele>53.95</ele>
        <time>2025-02-16T09:22:49.711Z</time>
      </trkpt>
      <trkpt lat="59.100371953099966" lon="14.16750093922019">
        <ele>53.95</ele>
        <time>2025-02-16T09:23:43.250Z</time>
      </trkpt>
      <trkpt lat="59.10043892450631" lon="14.167549973353744">
        <ele>53.94</ele>
        <time>2025-02-16T09:24:36.790Z</time>
      </trkpt>
      <trkpt lat="59.10050698556006" lon="14.167595990002155">
        <ele>53.94</ele>
        <time>2025-02-16T09:25:30.331Z</time>
      </trkpt>
      <trkpt lat="59.10057194530964" lon="14.167643934488297">
        <ele>53.94</ele>
        <time>2025-02-16T09:26:23.873Z</time>
      </trkpt>
      <trkpt lat="59.10063598304987" lon="14.16769296862185">
        <ele>53.94</ele>
        <time>2025-02-16T09:27:17.417Z</time>
      </trkpt>
      <trkpt lat="59.10069893114269" lon="14.167742924764752">
        <ele>53.95</ele>
        <time>2025-02-16T09:28:10.962Z</time>
      </trkpt>
      <trkpt lat="59.10076095722616" lon="14.167789947241545">
        <ele>53.96</ele>
        <time>2025-02-16T09:29:04.508Z</time>
      </trkpt>
      <trkpt lat="59.100820971652865" lon="14.167839987203479">
        <ele>53.97</ele>
        <time>2025-02-16T09:29:58.055Z</time>
      </trkpt>
      <trkpt lat="59.10087897442281" lon="14.167891955003142">
        <ele>53.99</ele>
        <time>2025-02-16T09:30:51.603Z</time>
      </trkpt>
      <trkpt lat="59.100934965536" lon="14.167939983308315">
        <ele>54.0</ele>
        <time>2025-02-16T09:31:45.152Z</time>
      </trkpt>
      <trkpt lat="59.10098693333566" lon="14.167982982471585">
        <ele>54.02</ele>
        <time>2025-02-16T09:32:38.702Z</time>
      </trkpt>
      <trkpt lat="59.101036973297596" lon="14.16801692917943">
        <ele>54.03</ele>
        <time>2025-02-16T09:33:32.253Z</time>
      </trkpt>
      <trkpt lat="59.10108491778374" lon="14.168026987463236">
        <ele>54.05</ele>
        <time>2025-02-16T09:34:25.804Z</time>
      </trkpt>
      <trkpt lat="59.10112992860377" lon="14.168000919744372">
        <ele>54.07</ele>
        <time>2025-02-16T09:35:19.356Z</time>
      </trkpt>
      <trkpt lat="59.101165970787406" lon="14.167947946116328">
        <ele>54.1</ele>
        <time>2025-02-16T09:36:12.909Z</time>
      </trkpt>
      <trkpt lat="59.10119195468724" lon="14.167877957224846">
        <ele>54.12</ele>
        <time>2025-02-16T09:37:06.462Z</time>
      </trkpt>
      <trkpt lat="59.101206958293915" lon="14.16779799386859">
        <ele>54.14</ele>
        <time>2025-02-16T09:38:00.016Z</time>
      </trkpt>
      <trkpt lat="59.10121098160744" lon="14.167713923379779">
        <ele>54.17</ele>
        <time>2025-02-16T09:38:53.571Z</time>
      </trkpt>
      <trkpt lat="59.10120394080877" lon="14.167632954195142">
        <ele>54.19</ele>
        <time>2025-02-16T09:39:47.127Z</time>
      </trkpt>
      <trkpt lat="59.101188937202096" lon="14.167553996667266">
        <ele>54.21</ele>
        <time>2025-02-16T09:40:40.683Z</time>
      </trkpt>
      <trkpt lat="59.10116697661579" lon="14.167480990290642">
        <ele>54.23</ele>
        <time>2025-02-16T09:41:34.240Z</time>
      </trkpt>
      <trkpt lat="59.101142920553684" lon="14.167416952550411">
        <ele>54.25</ele>
        <time>2025-02-16T09:42:27.798Z</time>
      </trkpt>
      <trkpt lat="59.10112397745252" lon="14.167354926466942">
        <ele>54.27</ele>
        <time>2025-02-16T09:43:21.356Z</time>
      </trkpt>
      <trkpt lat="59.10111199133098" lon="14.167296923696995">
        <ele>54.3</ele>
        <time>2025-02-16T09:44:14.915Z</time>
      </trkpt>
      <trkpt lat="59.10110394470394" lon="14.167248979210854">
        <ele>54.32</ele>
        <time>2025-02-16T09:45:08.474Z</time>
      </trkpt>
      <trkpt lat="59.10109497606754" lon="14.167208997532725">
        <ele>54.35</ele>
        <time>2025-02-16T09:46:02.033Z</time>
      </trkpt>
      <trkpt lat="59.10108793526888" lon="14.167178990319371">
        <ele>54.38</ele>
        <time>2025-02-16T09:46:55.593Z</time>
      </trkpt>
      <trkpt lat="59.10108097828925" lon="14.167154934257269">
        <ele>54.41</ele>
        <time>2025-02-16T09:47:49.153Z</time>
      </trkpt>
      <trkpt lat="59.10107494331896" lon="14.16713791899383">
        <ele>54.43</ele>
        <time>2025-02-16T09:48:42.713Z</time>
      </trkpt>
      <trkpt lat="59.1010729316622" lon="14.167130962014198">
        <ele>54.47</ele>
        <time>2025-02-16T09:49:36.273Z</time>
      </trkpt>
      <trkpt lat="59.10107393749058" lon="14.167130962014198">
        <ele>54.5</ele>
        <time>2025-02-16T09:50:29.833Z</time>
      </trkpt>
      <trkpt lat="59.1011799685657" lon="14.16713397949934">
        <ele>54.54</ele>
        <time>2025-02-16T09:51:23.395Z</time>
      </trkpt>
      <trkpt lat="59.10121098160744" lon="14.167106989771128">
        <ele>54.57</ele>
        <time>2025-02-16T09:52:16.957Z</time>
      </trkpt>
      <trkpt lat="59.1012579202652" lon="14.167057955637574">
        <ele>54.61</ele>
        <time>2025-02-16T09:53:10.520Z</time>
      </trkpt>
      <trkpt lat="59.1012819763273" lon="14.167033983394504">
        <ele>54.65</ele>
        <time>2025-02-16T09:54:04.084Z</time>
      </trkpt>
      <trkpt lat="59.10130796022713" lon="14.167012944817543">
        <ele>54.68</ele>
        <time>2025-02-16T09:54:57.648Z</time>
      </trkpt>
      <trkpt lat="59.10136193968356" lon="14.166981931775808">
        <ele>54.72</ele>
        <time>2025-02-16T09:55:51.213Z</time>
      </trkpt>
      <trkpt lat="59.10142698325217" lon="14.166929963976145">
        <ele>54.75</ele>
        <time>2025-02-16T09:56:44.779Z</time>
      </trkpt>
      <trkpt lat="59.101489931344986" lon="14.16683298535645">
        <ele>54.79</ele>
        <time>2025-02-16T09:57:38.347Z</time>
      </trkpt>
      <trkpt lat="59.10153896547854" lon="14.166694935411215">
        <ele>54.82</ele>
        <time>2025-02-16T09:58:31.916Z</time>
      </trkpt>
      <trkpt lat="59.10156494937837" lon="14.166613966226578">
        <ele>54.86</ele>
        <time>2025-02-16T09:59:25.486Z</time>
      </trkpt>
      <trkpt lat="59.101592944934964" lon="14.16653098538518">
        <ele>54.9</ele>
        <time>2025-02-16T10:00:19.057Z</time>
      </trkpt>
      <trkpt lat="59.101618928834796" lon="14.166440963745117">
        <ele>54.95</ele>
        <time>2025-02-16T10:01:12.628Z</time>
      </trkpt>
      <trkpt lat="59.1016429848969" lon="14.166348930448294">
        <ele>54.99</ele>
        <time>2025-02-16T10:02:06.200Z</time>
      </trkpt>
      <trkpt lat="59.10166595131159" lon="14.166267961263657">
        <ele>55.03</ele>
        <time>2025-02-16T10:02:59.773Z</time>
      </trkpt>
      <trkpt lat="59.10168891772628" lon="14.16619093157351">
        <ele>55.07</ele>
        <time>2025-02-16T10:03:53.347Z</time>
      </trkpt>
      <trkpt lat="59.10171297378838" lon="14.166119936853647">
        <ele>55.12</ele>
        <time>2025-02-16T10:04:46.921Z</time>
      </trkpt>
      <trkpt lat="59.10173895768821" lon="14.166053971275687">
        <ele>55.16</ele>
        <time>2025-02-16T10:05:40.496Z</time>
      </trkpt>
      <trkpt lat="59.101765947416425" lon="14.165985994040966">
        <ele>55.2</ele>
        <time>2025-02-16T10:06:34.072Z</time>
      </trkpt>
      <trkpt lat="59.1017949488014" lon="14.165920950472355">
        <ele>55.25</ele>
        <time>2025-02-16T10:07:27.649Z</time>
      </trkpt>
      <trkpt lat="59.10182193852961" lon="14.165860936045647">
        <ele>55.29</ele>
        <time>2025-02-16T10:08:21.226Z</time>
      </trkpt>
      <trkpt lat="59.10184792242944" lon="14.16580494493246">
        <ele>55.34</ele>
        <time>2025-02-16T10:09:14.804Z</time>
      </trkpt>
      <trkpt lat="59.10187499597669" lon="14.165750965476036">
        <ele>55.39</ele>
        <time>2025-02-16T10:10:08.382Z</time>
      </trkpt>
      <trkpt lat="59.1019019857049" lon="14.16569396853447">
        <ele>55.44</ele>
        <time>2025-02-16T10:11:01.961Z</time>
      </trkpt>
      <trkpt lat="59.10192998126149" lon="14.165636971592903">
        <ele>55.49</ele>
        <time>2025-02-16T10:11:55.541Z</time>
      </trkpt>
      <trkpt lat="59.10196099430323" lon="14.165580980479717">
        <ele>55.54</ele>
        <time>2025-02-16T10:12:49.121Z</time>
      </trkpt>
      <trkpt lat="59.10199494101107" lon="14.165524989366531">
        <ele>55.59</ele>
        <time>2025-02-16T10:13:42.702Z</time>
      </trkpt>
      <trkpt lat="59.10203098319471" lon="14.165469920262694">
        <ele>55.64</ele>
        <time>2025-02-16T10:14:36.284Z</time>
      </trkpt>
      <trkpt lat="59.102068953216076" lon="14.165413929149508">
        <ele>55.69</ele>
        <time>2025-02-16T10:15:29.867Z</time>
      </trkpt>
      <trkpt lat="59.10210499539971" lon="14.165353998541832">
        <ele>55.75</ele>
        <time>2025-02-16T10:16:23.450Z</time>
      </trkpt>
      <trkpt lat="59.1021419595927" lon="14.165291972458363">
        <ele>55.8</ele>
        <time>2025-02-16T10:17:17.034Z</time>
      </trkpt>
      <trkpt lat="59.102177917957306" lon="14.165229946374893">
        <ele>55.86</ele>
        <time>2025-02-16T10:18:10.619Z</time>
      </trkpt>
      <trkpt lat="59.10221295431256" lon="14.165168926119804">
        <ele>55.91</ele>
        <time>2025-02-16T10:19:04.205Z</time>
      </trkpt>
      <trkpt lat="59.1022489964962" lon="14.165110923349857">
        <ele>55.97</ele>
        <time>2025-02-16T10:19:57.791Z</time>
      </trkpt>
      <trkpt lat="59.10228696651757" lon="14.165056943893433">
        <ele>56.02</ele>
        <time>2025-02-16T10:20:51.378Z</time>
      </trkpt>
      <trkpt lat="59.102325942367315" lon="14.164999946951866">
        <ele>56.07</ele>
        <time>2025-02-16T10:21:44.966Z</time>
      </trkpt>
      <trkpt lat="59.10236491821706" lon="14.164939932525158">
        <ele>56.12</ele>
        <time>2025-02-16T10:22:38.555Z</time>
      </trkpt>
      <trkpt lat="59.10240297205746" lon="14.16487991809845">
        <ele>56.17</ele>
        <time>2025-02-16T10:23:32.145Z</time>
      </trkpt>
      <trkpt lat="59.10243993625045" lon="14.164820993319154">
        <ele>56.22</ele>
        <time>2025-02-16T10:24:25.735Z</time>
      </trkpt>
      <trkpt lat="59.10247799009085" lon="14.164763996377587">
        <ele>56.27</ele>
        <time>2025-02-16T10:25:19.326Z</time>
      </trkpt>
      <trkpt lat="59.102516965940595" lon="14.164702976122499">
        <ele>56.32</ele>
        <time>2025-02-16T10:26:12.918Z</time>
      </trkpt>
      <trkpt lat="59.10255493596196" lon="14.16464296169579">
        <ele>56.36</ele>
        <time>2025-02-16T10:27:06.511Z</time>
      </trkpt>
      <trkpt lat="59.10259399563074" lon="14.164580935612321">
        <ele>56.41</ele>
        <time>2025-02-16T10:28:00.105Z</time>
      </trkpt>
      <trkpt lat="59.10263498313725" lon="14.16451497003436">
        <ele>56.46</ele>
        <time>2025-02-16T10:28:53.699Z</time>
      </trkpt>
      <trkpt lat="59.10267496481538" lon="14.16444892063737">
        <ele>56.5</ele>
        <time>2025-02-16T10:29:47.294Z</time>
      </trkpt>
      <trkpt lat="59.10271695815027" lon="14.164377925917506">
        <ele>56.54</ele>
        <time>2025-02-16T10:30:40.890Z</time>
      </trkpt>
      <trkpt lat="59.10275895148516" lon="14.164304919540882">
        <ele>56.59</ele>
        <time>2025-02-16T10:31:34.487Z</time>
      </trkpt>
      <trkpt lat="59.102799938991666" lon="14.164232918992639">
        <ele>56.63</ele>
        <time>2025-02-16T10:32:28.085Z</time>
      </trkpt>
      <trkpt lat="59.102843943983316" lon="14.164160918444395">
        <ele>56.67</ele>
        <time>2025-02-16T10:33:21.684Z</time>
      </trkpt>
      <trkpt lat="59.10288794897497" lon="14.164085984230042">
        <ele>56.71</ele>
        <time>2025-02-16T10:34:15.284Z</time>
      </trkpt>
      <trkpt lat="59.102932959795" lon="14.164005937054753">
        <ele>56.75</ele>
        <time>2025-02-16T10:35:08.885Z</time>
      </trkpt>
      <trkpt lat="59.10297897644341" lon="14.163920944556594">
        <ele>56.79</ele>
        <time>2025-02-16T10:36:02.487Z</time>
      </trkpt>
      <trkpt lat="59.1030259989202" lon="14.163841987028718">
        <ele>56.84</ele>
        <time>2025-02-16T10:36:56.090Z</time>
      </trkpt>
      <trkpt lat="59.103074949234724" lon="14.163763951510191">
        <ele>56.88</ele>
        <time>2025-02-16T10:37:49.694Z</time>
      </trkpt>
      <trkpt lat="59.103121971711516" lon="14.163678959012032">
        <ele>56.92</ele>
        <time>2025-02-16T10:38:43.299Z</time>
      </trkpt>
      <trkpt lat="59.10316991619766" lon="14.16358893737197">
        <ele>56.96</ele>
        <time>2025-02-16T10:39:36.905Z</time>
      </trkpt>
      <trkpt lat="59.10321693867445" lon="14.163494976237416">
        <ele>56.99</ele>
        <time>2025-02-16T10:40:30.512Z</time>
      </trkpt>
      <trkpt lat="59.103265972808" lon="14.16339891962707">
        <ele>57.03</ele>
        <time>2025-02-16T10:41:24.120Z</time>
      </trkpt>
      <trkpt lat="59.103313917294145" lon="14.163299929350615">
        <ele>57.07</ele>
        <time>2025-02-16T10:42:17.729Z</time>
      </trkpt>
      <trkpt lat="59.10336395725608" lon="14.163200939074159">
        <ele>57.1</ele>
        <time>2025-02-16T10:43:11.339Z</time>
      </trkpt>
      <trkpt lat="59.10341299138963" lon="14.163098931312561">
        <ele>57.13</ele>
        <time>2025-02-16T10:44:04.950Z</time>
      </trkpt>
      <trkpt lat="59.103463953360915" lon="14.162996923550963">
        <ele>57.16</ele>
        <time>2025-02-16T10:44:58.563Z</time>
      </trkpt>
      <trkpt lat="59.10351692698896" lon="14.162894999608397">
        <ele>57.18</ele>
        <time>2025-02-16T10:45:52.177Z</time>
      </trkpt>
      <trkpt lat="59.103568978607655" lon="14.162788968533278">
        <ele>57.2</ele>
        <time>2025-02-16T10:46:45.792Z</time>
      </trkpt>
      <trkpt lat="59.1036219522357" lon="14.162678997963667">
        <ele>57.23</ele>
        <time>2025-02-16T10:47:39.408Z</time>
      </trkpt>
      <trkpt lat="59.10367492586374" lon="14.162567937746644">
        <ele>57.26</ele>
        <time>2025-02-16T10:48:33.026Z</time>
      </trkpt>
      <trkpt lat="59.1037289891392" lon="14.162460984662175">
        <ele>57.27</ele>
        <time>2025-02-16T10:49:26.645Z</time>
      </trkpt>
      <trkpt lat="59.10378095693886" lon="14.162353947758675">
        <ele>57.29</ele>
        <time>2025-02-16T10:50:20.265Z</time>
      </trkpt>
      <trkpt lat="59.103831918910146" lon="14.162244983017445">
        <ele>57.31</ele>
        <time>2025-02-16T10:51:13.886Z</time>
      </trkpt>
      <trkpt lat="59.10388497635722" lon="14.162135934457183">
        <ele>57.33</ele>
        <time>2025-02-16T10:52:07.508Z</time>
      </trkpt>
      <trkpt lat="59.103936944156885" lon="14.162027975544333">
        <ele>57.35</ele>
        <time>2025-02-16T10:53:01.132Z</time>
      </trkpt>
      <trkpt lat="59.10398899577558" lon="14.161915993317962">
        <ele>57.38</ele>
        <time>2025-02-16T10:53:54.757Z</time>
      </trkpt>
      <trkpt lat="59.104041969403625" lon="14.161802921444178">
        <ele>57.4</ele>
        <time>2025-02-16T10:54:48.383Z</time>
      </trkpt>
      <trkpt lat="59.10409494303167" lon="14.161690939217806">
        <ele>57.42</ele>
        <time>2025-02-16T10:55:42.010Z</time>
      </trkpt>
      <trkpt lat="59.10414598882198" lon="14.161576945334673">
        <ele>57.43</ele>
        <time>2025-02-16T10:56:35.639Z</time>
      </trkpt>
      <trkpt lat="59.10419795662165" lon="14.161465968936682">
        <ele>57.45</ele>
        <time>2025-02-16T10:57:29.269Z</time>
      </trkpt>
      <trkpt lat="59.10425093024969" lon="14.16135298088193">
        <ele>57.46</ele>
        <time>2025-02-16T10:58:22.900Z</time>
      </trkpt>
      <trkpt lat="59.10430398769677" lon="14.161235969513655">
        <ele>57.48</ele>
        <time>2025-02-16T10:59:16.532Z</time>
      </trkpt>
      <trkpt lat="59.10435796715319" lon="14.161117952317">
        <ele>57.49</ele>
        <time>2025-02-16T11:00:10.166Z</time>
      </trkpt>
      <trkpt lat="59.104411946609616" lon="14.160999935120344">
        <ele>57.5</ele>
        <time>2025-02-16T11:01:03.801Z</time>
      </trkpt>
      <trkpt lat="59.10446592606604" lon="14.160881917923689">
        <ele>57.51</ele>
        <time>2025-02-16T11:01:57.437Z</time>
      </trkpt>
      <trkpt lat="59.1045199893415" lon="14.160765996202826">
        <ele>57.51</ele>
        <time>2025-02-16T11:02:51.075Z</time>
      </trkpt>
      <trkpt lat="59.10457296296954" lon="14.160647979006171">
        <ele>57.51</ele>
        <time>2025-02-16T11:03:44.714Z</time>
      </trkpt>
      <trkpt lat="59.104625936597586" lon="14.160527950152755">
        <ele>57.51</ele>
        <time>2025-02-16T11:04:38.354Z</time>
      </trkpt>
      <trkpt lat="59.10468092188239" lon="14.1604099329561">
        <ele>57.51</ele>
        <time>2025-02-16T11:05:31.996Z</time>
      </trkpt>
      <trkpt lat="59.10473699681461" lon="14.160291999578476">
        <ele>57.51</ele>
        <time>2025-02-16T11:06:25.639Z</time>
      </trkpt>
      <trkpt lat="59.104791982099414" lon="14.160169959068298">
        <ele>57.51</ele>
        <time>2025-02-16T11:07:19.283Z</time>
      </trkpt>
      <trkpt lat="59.10484696738422" lon="14.160045990720391">
        <ele>57.5</ele>
        <time>2025-02-16T11:08:12.929Z</time>
      </trkpt>
      <trkpt lat="59.104901952669024" lon="14.159922944381833">
        <ele>57.49</ele>
        <time>2025-02-16T11:09:06.576Z</time>
      </trkpt>
      <trkpt lat="59.10495492629707" lon="14.159799981862307">
        <ele>57.49</ele>
        <time>2025-02-16T11:10:00.224Z</time>
      </trkpt>
      <trkpt lat="59.105007983744144" lon="14.159674923866987">
        <ele>57.48</ele>
        <time>2025-02-16T11:10:53.874Z</time>
      </trkpt>
      <trkpt lat="59.10505995154381" lon="14.159548943862319">
        <ele>57.46</ele>
        <time>2025-02-16T11:11:47.525Z</time>
      </trkpt>
      <trkpt lat="59.10511191934347" lon="14.159423969686031">
        <ele>57.45</ele>
        <time>2025-02-16T11:12:41.177Z</time>
      </trkpt>
      <trkpt lat="59.105161959305406" lon="14.159299917519093">
        <ele>57.43</ele>
        <time>2025-02-16T11:13:34.831Z</time>
      </trkpt>
      <trkpt lat="59.1052089817822" lon="14.159174943342805">
        <ele>57.41</ele>
        <time>2025-02-16T11:14:28.486Z</time>
      </trkpt>
      <trkpt lat="59.10525298677385" lon="14.159051980823278">
        <ele>57.38</ele>
        <time>2025-02-16T11:15:22.142Z</time>
      </trkpt>
      <trkpt lat="59.10529397428036" lon="14.158925916999578">
        <ele>57.35</ele>
        <time>2025-02-16T11:16:15.799Z</time>
      </trkpt>
      <trkpt lat="59.10533596761525" lon="14.15879993699491">
        <ele>57.32</ele>
        <time>2025-02-16T11:17:09.458Z</time>
      </trkpt>
      <trkpt lat="59.10538097843528" lon="14.1586709395051">
        <ele>57.28</ele>
        <time>2025-02-16T11:18:03.118Z</time>
      </trkpt>
      <trkpt lat="59.10542297177017" lon="14.15854194201529">
        <ele>57.25</ele>
        <time>2025-02-16T11:18:56.779Z</time>
      </trkpt>
      <trkpt lat="59.10546597093344" lon="14.158410932868719">
        <ele>57.22</ele>
        <time>2025-02-16T11:19:50.441Z</time>
      </trkpt>
      <trkpt lat="59.10550997592509" lon="14.158276990056038">
        <ele>57.19</ele>
        <time>2025-02-16T11:20:44.105Z</time>
      </trkpt>
      <trkpt lat="59.10555297508836" lon="14.158138940110803">
        <ele>57.16</ele>
        <time>2025-02-16T11:21:37.770Z</time>
      </trkpt>
      <trkpt lat="59.10559396259487" lon="14.15800399146974">
        <ele>57.13</ele>
        <time>2025-02-16T11:22:31.436Z</time>
      </trkpt>
      <trkpt lat="59.105634950101376" lon="14.157865941524506">
        <ele>57.09</ele>
        <time>2025-02-16T11:23:25.104Z</time>
      </trkpt>
      <trkpt lat="59.105674931779504" lon="14.1577229462564">
        <ele>57.05</ele>
        <time>2025-02-16T11:24:18.773Z</time>
      </trkpt>
      <trkpt lat="59.1057129856199" lon="14.157579950988293">
        <ele>57.01</ele>
        <time>2025-02-16T11:25:12.443Z</time>
      </trkpt>
      <trkpt lat="59.10574994981289" lon="14.157435949891806">
        <ele>56.97</ele>
        <time>2025-02-16T11:26:06.115Z</time>
      </trkpt>
      <trkpt lat="59.105787919834256" lon="14.157290942966938">
        <ele>56.92</ele>
        <time>2025-02-16T11:26:59.788Z</time>
      </trkpt>
      <trkpt lat="59.105825973674655" lon="14.15714593604207">
        <ele>56.87</ele>
        <time>2025-02-16T11:27:53.462Z</time>
      </trkpt>
      <trkpt lat="59.10586394369602" lon="14.157000929117203">
        <ele>56.82</ele>
        <time>2025-02-16T11:28:47.138Z</time>
      </trkpt>
      <trkpt lat="59.10589998587966" lon="14.156853994354606">
        <ele>56.77</ele>
        <time>2025-02-16T11:29:40.815Z</time>
      </trkpt>
      <trkpt lat="59.105933932587504" lon="14.156708987429738">
        <ele>56.72</ele>
        <time>2025-02-16T11:30:34.493Z</time>
      </trkpt>
      <trkpt lat="59.10596997477114" lon="14.156564986333251">
        <ele>56.66</ele>
        <time>2025-02-16T11:31:28.173Z</time>
      </trkpt>
      <trkpt lat="59.10600299946964" lon="14.156421991065145">
        <ele>56.6</ele>
        <time>2025-02-16T11:32:21.854Z</time>
      </trkpt>
      <trkpt lat="59.10603392869234" lon="14.156272960826755">
        <ele>56.54</ele>
        <time>2025-02-16T11:33:15.536Z</time>
      </trkpt>
      <trkpt lat="59.106063935905695" lon="14.156123930588365">
        <ele>56.48</ele>
        <time>2025-02-16T11:34:09.220Z</time>
      </trkpt>
      <trkpt lat="59.10609494894743" lon="14.155974984169006">
        <ele>56.42</ele>
        <time>2025-02-16T11:35:02.905Z</time>
      </trkpt>
      <trkpt lat="59.106125961989164" lon="14.155824948102236">
        <ele>56.35</ele>
        <time>2025-02-16T11:35:56.591Z</time>
      </trkpt>
      <trkpt lat="59.10615596920252" lon="14.155674995854497">
        <ele>56.28</ele>
        <time>2025-02-16T11:36:50.279Z</time>
      </trkpt>
      <trkpt lat="59.10618396475911" lon="14.155524959787726">
        <ele>56.22</ele>
        <time>2025-02-16T11:37:43.968Z</time>
      </trkpt>
      <trkpt lat="59.106212966144085" lon="14.155374923720956">
        <ele>56.15</ele>
        <time>2025-02-16T11:38:37.658Z</time>
      </trkpt>
      <trkpt lat="59.10624297335744" lon="14.155223965644836">
        <ele>56.07</ele>
        <time>2025-02-16T11:39:31.350Z</time>
      </trkpt>
      <trkpt lat="59.106274992227554" lon="14.155071917921305">
        <ele>56.0</ele>
        <time>2025-02-16T11:40:25.043Z</time>
      </trkpt>
      <trkpt lat="59.10630692727864" lon="14.154918948188424">
        <ele>55.93</ele>
        <time>2025-02-16T11:41:18.737Z</time>
      </trkpt>
      <trkpt lat="59.10633492283523" lon="14.15475994348526">
        <ele>55.86</ele>
        <time>2025-02-16T11:42:12.433Z</time>
      </trkpt>
      <trkpt lat="59.106363924220204" lon="14.154597921296954">
        <ele>55.79</ele>
        <time>2025-02-16T11:43:06.130Z</time>
      </trkpt>
      <trkpt lat="59.10639594309032" lon="14.15443598292768">
        <ele>55.72</ele>
        <time>2025-02-16T11:43:59.828Z</time>
      </trkpt>
      <trkpt lat="59.106425950303674" lon="14.154270943254232">
        <ele>55.64</ele>
        <time>2025-02-16T11:44:53.528Z</time>
      </trkpt>
      <trkpt lat="59.10645696334541" lon="14.154103975743055">
        <ele>55.57</ele>
        <time>2025-02-16T11:45:47.229Z</time>
      </trkpt>
      <trkpt lat="59.10648797638714" lon="14.153937930241227">
        <ele>55.5</ele>
        <time>2025-02-16T11:46:40.932Z</time>
      </trkpt>
      <trkpt lat="59.10651898942888" lon="14.15377196855843">
        <ele>55.43</ele>
        <time>2025-02-16T11:47:34.636Z</time>
      </trkpt>
      <trkpt lat="59.10654991865158" lon="14.153603995218873">
        <ele>55.37</ele>
        <time>2025-02-16T11:48:28.342Z</time>
      </trkpt>
      <trkpt lat="59.106580931693316" lon="14.153435938060284">
        <ele>55.31</ele>
        <time>2025-02-16T11:49:22.049Z</time>
      </trkpt>
      <trkpt lat="59.10661194473505" lon="14.153268970549107">
        <ele>55.25</ele>
        <time>2025-02-16T11:50:15.758Z</time>
      </trkpt>
      <trkpt lat="59.106642957776785" lon="14.153101919218898">
        <ele>55.2</ele>
        <time>2025-02-16T11:51:09.468Z</time>
      </trkpt>
      <trkpt lat="59.10667397081852" lon="14.152935957536101">
        <ele>55.14</ele>
        <time>2025-02-16T11:52:03.180Z</time>
      </trkpt>
      <trkpt lat="59.106703978031874" lon="14.152770917862654">
        <ele>55.08</ele>
        <time>2025-02-16T11:52:56.893Z</time>
      </trkpt>
      <trkpt lat="59.10673499107361" lon="14.152606967836618">
        <ele>55.02</ele>
        <time>2025-02-16T11:53:50.608Z</time>
      </trkpt>
      <trkpt lat="59.10676592029631" lon="14.15244092233479">
        <ele>54.97</ele>
        <time>2025-02-16T11:54:44.324Z</time>
      </trkpt>
      <trkpt lat="59.106796933338046" lon="14.152276972308755">
        <ele>54.91</ele>
        <time>2025-02-16T11:55:38.041Z</time>
      </trkpt>
      <trkpt lat="59.1068269405514" lon="14.152111932635307">
        <ele>54.85</ele>
        <time>2025-02-16T11:56:31.760Z</time>
      </trkpt>
      <trkpt lat="59.106856947764754" lon="14.15194597095251">
        <ele>54.79</ele>
        <time>2025-02-16T11:57:25.480Z</time>
      </trkpt>
      <trkpt lat="59.10688796080649" lon="14.151780931279063">
        <ele>54.74</ele>
        <time>2025-02-16T11:58:19.202Z</time>
      </trkpt>
      <trkpt lat="59.10691796801984" lon="14.151615975424647">
        <ele>54.67</ele>
        <time>2025-02-16T11:59:12.925Z</time>
      </trkpt>
      <trkpt lat="59.10694898106158" lon="14.151447918266058">
        <ele>54.61</ele>
        <time>2025-02-16T12:00:06.650Z</time>
      </trkpt>
      <trkpt lat="59.10697898827493" lon="14.1512799449265">
        <ele>54.56</ele>
        <time>2025-02-16T12:01:00.376Z</time>
      </trkpt>
      <trkpt lat="59.107009917497635" lon="14.151109959930182">
        <ele>54.5</ele>
        <time>2025-02-16T12:01:54.104Z</time>
      </trkpt>
      <trkpt lat="59.10704093053937" lon="14.150937963277102">
        <ele>54.44</ele>
        <time>2025-02-16T12:02:47.833Z</time>
      </trkpt>
      <trkpt lat="59.107071943581104" lon="14.15076395496726">
        <ele>54.38</ele>
        <time>2025-02-16T12:03:41.564Z</time>
      </trkpt>
      <trkpt lat="59.10710396245122" lon="14.15058994665742">
        <ele>54.32</ele>
        <time>2025-02-16T12:04:35.296Z</time>
      </trkpt>
      <trkpt lat="59.107134975492954" lon="14.150411998853087">
        <ele>54.26</ele>
        <time>2025-02-16T12:05:29.030Z</time>
      </trkpt>
      <trkpt lat="59.10716699436307" lon="14.150233967229724">
        <ele>54.2</ele>
        <time>2025-02-16T12:06:22.765Z</time>
      </trkpt>
      <trkpt lat="59.107200941070914" lon="14.150058953091502">
        <ele>54.14</ele>
        <time>2025-02-16T12:07:16.502Z</time>
      </trkpt>
      <trkpt lat="59.10723497159779" lon="14.1498829331249">
        <ele>54.08</ele>
        <time>2025-02-16T12:08:10.240Z</time>
      </trkpt>
      <trkpt lat="59.107266990467906" lon="14.14970699697733">
        <ele>54.03</ele>
        <time>2025-02-16T12:09:03.980Z</time>
      </trkpt>
      <trkpt lat="59.10729892551899" lon="14.149531982839108">
        <ele>53.98</ele>
        <time>2025-02-16T12:09:57.721Z</time>
      </trkpt>
      <trkpt lat="59.107329938560724" lon="14.149356968700886">
        <ele>53.92</ele>
        <time>2025-02-16T12:10:51.464Z</time>
      </trkpt>
      <trkpt lat="59.10736195743084" lon="14.149185977876186">
        <ele>53.86</ele>
        <time>2025-02-16T12:11:45.208Z</time>
      </trkpt>
      <trkpt lat="59.107392970472574" lon="14.149015992879868">
        <ele>53.8</ele>
        <time>2025-02-16T12:12:38.954Z</time>
      </trkpt>
      <trkpt lat="59.10742197185755" lon="14.148847935721278">
        <ele>53.75</ele>
        <time>2025-02-16T12:13:32.701Z</time>
      </trkpt>
      <trkpt lat="59.10745097324252" lon="14.14867795072496">
        <ele>53.7</ele>
        <time>2025-02-16T12:14:26.450Z</time>
      </trkpt>
      <trkpt lat="59.107479974627495" lon="14.148511989042163">
        <ele>53.65</ele>
        <time>2025-02-16T12:15:20.200Z</time>
      </trkpt>
      <trkpt lat="59.10750897601247" lon="14.148347955197096">
        <ele>53.59</ele>
        <time>2025-02-16T12:16:13.952Z</time>
      </trkpt>
      <trkpt lat="59.10753797739744" lon="14.14818693883717">
        <ele>53.55</ele>
        <time>2025-02-16T12:17:07.705Z</time>
      </trkpt>
      <trkpt lat="59.10756999626756" lon="14.148023994639516">
        <ele>53.49</ele>
        <time>2025-02-16T12:18:01.460Z</time>
      </trkpt>
      <trkpt lat="59.10760193131864" lon="14.14786096662283">
        <ele>53.44</ele>
        <time>2025-02-16T12:18:55.216Z</time>
      </trkpt>
      <trkpt lat="59.107630932703614" lon="14.147698944434524">
        <ele>53.38</ele>
        <time>2025-02-16T12:19:48.973Z</time>
      </trkpt>
      <trkpt lat="59.10766093991697" lon="14.147538933902979">
        <ele>53.34</ele>
        <time>2025-02-16T12:20:42.732Z</time>
      </trkpt>
      <trkpt lat="59.10768994130194" lon="14.147381940856576">
        <ele>53.29</ele>
        <time>2025-02-16T12:21:36.492Z</time>
      </trkpt>
      <trkpt lat="59.107718942686915" lon="14.147226959466934">
        <ele>53.24</ele>
        <time>2025-02-16T12:22:30.254Z</time>
      </trkpt>
      <trkpt lat="59.10774794407189" lon="14.147070972248912">
        <ele>53.19</ele>
        <time>2025-02-16T12:23:24.017Z</time>
      </trkpt>
      <trkpt lat="59.10777694545686" lon="14.14691599085927">
        <ele>53.14</ele>
        <time>2025-02-16T12:24:17.781Z</time>
      </trkpt>
      <trkpt lat="59.10780695267022" lon="14.146758997812867">
        <ele>53.09</ele>
        <time>2025-02-16T12:25:11.547Z</time>
      </trkpt>
      <trkpt lat="59.10783494822681" lon="14.146601920947433">
        <ele>53.05</ele>
        <time>2025-02-16T12:26:05.314Z</time>
      </trkpt>
      <trkpt lat="59.10786193795502" lon="14.14644693955779">
        <ele>53.01</ele>
        <time>2025-02-16T12:26:59.082Z</time>
      </trkpt>
      <trkpt lat="59.107889933511615" lon="14.14629396982491">
        <ele>52.97</ele>
        <time>2025-02-16T12:27:52.852Z</time>
      </trkpt>
      <trkpt lat="59.10791792906821" lon="14.146137982606888">
        <ele>52.93</ele>
        <time>2025-02-16T12:28:46.623Z</time>
      </trkpt>
      <trkpt lat="59.1079459246248" lon="14.145978977903724">
        <ele>52.89</ele>
        <time>2025-02-16T12:29:40.396Z</time>
      </trkpt>
      <trkpt lat="59.107972998172045" lon="14.145823996514082">
        <ele>52.86</ele>
        <time>2025-02-16T12:30:34.170Z</time>
      </trkpt>
      <trkpt lat="59.10799998790026" lon="14.145661974325776">
        <ele>52.83</ele>
        <time>2025-02-16T12:31:27.945Z</time>
      </trkpt>
      <trkpt lat="59.10802999511361" lon="14.14549995213747">
        <ele>52.81</ele>
        <time>2025-02-16T12:32:21.722Z</time>
      </trkpt>
      <trkpt lat="59.108060924336314" lon="14.145334996283054">
        <ele>52.78</ele>
        <time>2025-02-16T12:33:15.500Z</time>
      </trkpt>
      <trkpt lat="59.10809193737805" lon="14.145166939124465">
        <ele>52.75</ele>
        <time>2025-02-16T12:34:09.280Z</time>
      </trkpt>
      <trkpt lat="59.108123956248164" lon="14.144995948299766">
        <ele>52.73</ele>
        <time>2025-02-16T12:35:03.061Z</time>
      </trkpt>
      <trkpt lat="59.10815597511828" lon="14.144820934161544">
        <ele>52.71</ele>
        <time>2025-02-16T12:35:56.844Z</time>
      </trkpt>
      <trkpt lat="59.108187993988395" lon="14.144644998013973">
        <ele>52.7</ele>
        <time>2025-02-16T12:36:50.628Z</time>
      </trkpt>
      <trkpt lat="59.10821992903948" lon="14.144468978047371">
        <ele>52.68</ele>
        <time>2025-02-16T12:37:44.414Z</time>
      </trkpt>
      <trkpt lat="59.10825094208121" lon="14.14429396390915">
        <ele>52.66</ele>
        <time>2025-02-16T12:38:38.201Z</time>
      </trkpt>
      <trkpt lat="59.10828296095133" lon="14.144118949770927">
        <ele>52.66</ele>
        <time>2025-02-16T12:39:31.990Z</time>
      </trkpt>
      <trkpt lat="59.108314979821444" lon="14.143943935632706">
        <ele>52.65</ele>
        <time>2025-02-16T12:40:25.780Z</time>
      </trkpt>
      <trkpt lat="59.10834599286318" lon="14.143766993656754">
        <ele>52.65</ele>
        <time>2025-02-16T12:41:19.572Z</time>
      </trkpt>
      <trkpt lat="59.10837893374264" lon="14.143588962033391">
        <ele>52.65</ele>
        <time>2025-02-16T12:42:13.365Z</time>
      </trkpt>
      <trkpt lat="59.10840994678438" lon="14.143410930410028">
        <ele>52.65</ele>
        <time>2025-02-16T12:43:07.160Z</time>
      </trkpt>
      <trkpt lat="59.10844095982611" lon="14.143233988434076">
        <ele>52.65</ele>
        <time>2025-02-16T12:44:00.957Z</time>
      </trkpt>
      <trkpt lat="59.108470967039466" lon="14.143060985952616">
        <ele>52.66</ele>
        <time>2025-02-16T12:44:54.755Z</time>
      </trkpt>
      <trkpt lat="59.10849996842444" lon="14.142888989299536">
        <ele>52.67</ele>
        <time>2025-02-16T12:45:48.555Z</time>
      </trkpt>
      <trkpt lat="59.10852695815265" lon="14.142722943797708">
        <ele>52.69</ele>
        <time>2025-02-16T12:46:42.356Z</time>
      </trkpt>
      <trkpt lat="59.108554953709245" lon="14.142561927437782">
        <ele>52.7</ele>
        <time>2025-02-16T12:47:36.158Z</time>
      </trkpt>
      <trkpt lat="59.1085849609226" lon="14.14240594021976">
        <ele>52.72</ele>
        <time>2025-02-16T12:48:29.962Z</time>
      </trkpt>
      <trkpt lat="59.10861195065081" lon="14.142248947173357">
        <ele>52.74</ele>
        <time>2025-02-16T12:49:23.767Z</time>
      </trkpt>
      <trkpt lat="59.10863592289388" lon="14.142086924985051">
        <ele>52.76</ele>
        <time>2025-02-16T12:50:17.574Z</time>
      </trkpt>
      <trkpt lat="59.1086589731276" lon="14.141925992444158">
        <ele>52.78</ele>
        <time>2025-02-16T12:51:11.382Z</time>
      </trkpt>
      <trkpt lat="59.10868093371391" lon="14.141763970255852">
        <ele>52.81</ele>
        <time>2025-02-16T12:52:05.191Z</time>
      </trkpt>
      <trkpt lat="59.10870197229087" lon="14.141601948067546">
        <ele>52.84</ele>
        <time>2025-02-16T12:52:59.002Z</time>
      </trkpt>
      <trkpt lat="59.10872099921107" lon="14.14143992587924">
        <ele>52.86</ele>
        <time>2025-02-16T12:53:52.814Z</time>
      </trkpt>
      <trkpt lat="59.10873893648386" lon="14.141277987509966">
        <ele>52.89</ele>
        <time>2025-02-16T12:54:46.627Z</time>
      </trkpt>
      <trkpt lat="59.10875494591892" lon="14.14111495949328">
        <ele>52.93</ele>
        <time>2025-02-16T12:55:40.442Z</time>
      </trkpt>
      <trkpt lat="59.108769949525595" lon="14.140953943133354">
        <ele>52.97</ele>
        <time>2025-02-16T12:56:34.258Z</time>
      </trkpt>
      <trkpt lat="59.10878495313227" lon="14.14079493843019">
        <ele>53.0</ele>
        <time>2025-02-16T12:57:28.075Z</time>
      </trkpt>
      <trkpt lat="59.10879895091057" lon="14.140632916241884">
        <ele>53.04</ele>
        <time>2025-02-16T12:58:21.894Z</time>
      </trkpt>
      <trkpt lat="59.1088109370321" lon="14.14046997204423">
        <ele>53.09</ele>
        <time>2025-02-16T12:59:15.714Z</time>
      </trkpt>
      <trkpt lat="59.10882191732526" lon="14.140305938199162">
        <ele>53.13</ele>
        <time>2025-02-16T13:00:09.536Z</time>
      </trkpt>
      <trkpt lat="59.108831975609064" lon="14.140143999829888">
        <ele>53.19</ele>
        <time>2025-02-16T13:01:03.359Z</time>
      </trkpt>
      <trkpt lat="59.10884195007384" lon="14.139981977641582">
        <ele>53.24</ele>
        <time>2025-02-16T13:01:57.183Z</time>
      </trkpt>
      <trkpt lat="59.10884999670088" lon="14.139818949624896">
        <ele>53.29</ele>
        <time>2025-02-16T13:02:51.009Z</time>
      </trkpt>
      <trkpt lat="59.108855947852135" lon="14.13965592160821">
        <ele>53.34</ele>
        <time>2025-02-16T13:03:44.836Z</time>
      </trkpt>
      <trkpt lat="59.10885896533728" lon="14.139495994895697">
        <ele>53.39</ele>
        <time>2025-02-16T13:04:38.664Z</time>
      </trkpt>
      <trkpt lat="59.1088629886508" lon="14.139335984364152">
        <ele>53.44</ele>
        <time>2025-02-16T13:05:32.494Z</time>
      </trkpt>
      <trkpt lat="59.10886692814529" lon="14.139173962175846">
        <ele>53.49</ele>
        <time>2025-02-16T13:06:26.325Z</time>
      </trkpt>
      <trkpt lat="59.10886893980205" lon="14.139013951644301">
        <ele>53.54</ele>
        <time>2025-02-16T13:07:20.157Z</time>
      </trkpt>
      <trkpt lat="59.10887095145881" lon="14.138854946941137">
        <ele>53.58</ele>
        <time>2025-02-16T13:08:13.991Z</time>
      </trkpt>
      <trkpt lat="59.10887296311557" lon="14.138693930581212">
        <ele>53.64</ele>
        <time>2025-02-16T13:09:07.826Z</time>
      </trkpt>
      <trkpt lat="59.10887195728719" lon="14.138525957241654">
        <ele>53.69</ele>
        <time>2025-02-16T13:10:01.662Z</time>
      </trkpt>
      <trkpt lat="59.10887195728719" lon="14.138354966416955">
        <ele>53.74</ele>
        <time>2025-02-16T13:10:55.500Z</time>
      </trkpt>
      <trkpt lat="59.10887195728719" lon="14.138188920915127">
        <ele>53.78</ele>
        <time>2025-02-16T13:11:49.339Z</time>
      </trkpt>
      <trkpt lat="59.10886994563043" lon="14.13802094757557">
        <ele>53.84</ele>
        <time>2025-02-16T13:12:43.179Z</time>
      </trkpt>
      <trkpt lat="59.10886793397367" lon="14.137852974236012">
        <ele>53.9</ele>
        <time>2025-02-16T13:13:37.021Z</time>
      </trkpt>
      <trkpt lat="59.10886592231691" lon="14.137680977582932">
        <ele>53.95</ele>
        <time>2025-02-16T13:14:30.864Z</time>
      </trkpt>
      <trkpt lat="59.10886399447918" lon="14.137509986758232">
        <ele>54.02</ele>
        <time>2025-02-16T13:15:24.709Z</time>
      </trkpt>
      <trkpt lat="59.10886097699404" lon="14.137336984276772">
        <ele>54.08</ele>
        <time>2025-02-16T13:16:18.555Z</time>
      </trkpt>
      <trkpt lat="59.10885997116566" lon="14.137164987623692">
        <ele>54.14</ele>
        <time>2025-02-16T13:17:12.402Z</time>
      </trkpt>
      <trkpt lat="59.108857959508896" lon="14.136994918808341">
        <ele>54.21</ele>
        <time>2025-02-16T13:18:06.251Z</time>
      </trkpt>
      <trkpt lat="59.108855947852135" lon="14.136822922155261">
        <ele>54.27</ele>
        <time>2025-02-16T13:19:00.101Z</time>
      </trkpt>
      <trkpt lat="59.10885293036699" lon="14.13664698600769">
        <ele>54.33</ele>
        <time>2025-02-16T13:19:53.953Z</time>
      </trkpt>
      <trkpt lat="59.10884999670088" lon="14.136467948555946">
        <ele>54.4</ele>
        <time>2025-02-16T13:20:47.806Z</time>
      </trkpt>
      <trkpt lat="59.1088489908725" lon="14.136285977438092">
        <ele>54.46</ele>
        <time>2025-02-16T13:21:41.661Z</time>
      </trkpt>
      <trkpt lat="59.10884697921574" lon="14.136099983006716">
        <ele>54.53</ele>
        <time>2025-02-16T13:22:35.517Z</time>
      </trkpt>
      <trkpt lat="59.10884496755898" lon="14.13591398857534">
        <ele>54.6</ele>
        <time>2025-02-16T13:23:29.375Z</time>
      </trkpt>
      <trkpt lat="59.10884295590222" lon="14.135727994143963">
        <ele>54.66</ele>
        <time>2025-02-16T13:24:23.234Z</time>
      </trkpt>
      <trkpt lat="59.10883993841708" lon="14.135542921721935">
        <ele>54.73</ele>
        <time>2025-02-16T13:25:17.095Z</time>
      </trkpt>
      <trkpt lat="59.108835998922586" lon="14.13535893894732">
        <ele>54.81</ele>
        <time>2025-02-16T13:26:10.957Z</time>
      </trkpt>
      <trkpt lat="59.108832981437445" lon="14.135178979486227">
        <ele>54.88</ele>
        <time>2025-02-16T13:27:04.821Z</time>
      </trkpt>
      <trkpt lat="59.1088299639523" lon="14.135002959519625">
        <ele>54.96</ele>
        <time>2025-02-16T13:27:58.686Z</time>
      </trkpt>
      <trkpt lat="59.10882795229554" lon="14.134830962866545">
        <ele>55.04</ele>
        <time>2025-02-16T13:28:52.553Z</time>
      </trkpt>
      <trkpt lat="59.10882392898202" lon="14.134663995355368">
        <ele>55.13</ele>
        <time>2025-02-16T13:29:46.421Z</time>
      </trkpt>
      <trkpt lat="59.10882099531591" lon="14.134501973167062">
        <ele>55.21</ele>
        <time>2025-02-16T13:30:40.290Z</time>
      </trkpt>
      <trkpt lat="59.10881797783077" lon="14.134342968463898">
        <ele>55.3</ele>
        <time>2025-02-16T13:31:34.161Z</time>
      </trkpt>
      <trkpt lat="59.10881697200239" lon="14.134187987074256">
        <ele>55.39</ele>
        <time>2025-02-16T13:32:28.033Z</time>
      </trkpt>
      <trkpt lat="59.10881697200239" lon="14.134032921865582">
        <ele>55.48</ele>
        <time>2025-02-16T13:33:21.906Z</time>
      </trkpt>
      <trkpt lat="59.108814960345626" lon="14.133881963789463">
        <ele>55.58</ele>
        <time>2025-02-16T13:34:15.781Z</time>
      </trkpt>
      <trkpt lat="59.108813954517245" lon="14.133731927722692">
        <ele>55.68</ele>
        <time>2025-02-16T13:35:09.657Z</time>
      </trkpt>
      <trkpt lat="59.108812948688865" lon="14.133580969646573">
        <ele>55.77</ele>
        <time>2025-02-16T13:36:03.534Z</time>
      </trkpt>
      <trkpt lat="59.108812948688865" lon="14.133427999913692">
        <ele>55.87</ele>
        <time>2025-02-16T13:36:57.412Z</time>
      </trkpt>
      <trkpt lat="59.108811942860484" lon="14.13327595219016">
        <ele>55.96</ele>
        <time>2025-02-16T13:37:51.292Z</time>
      </trkpt>
      <trkpt lat="59.10880993120372" lon="14.13312398828566">
        <ele>56.04</ele>
        <time>2025-02-16T13:38:45.173Z</time>
      </trkpt>
      <trkpt lat="59.10880892537534" lon="14.132966995239258">
        <ele>56.12</ele>
        <time>2025-02-16T13:39:39.055Z</time>
      </trkpt>
      <trkpt lat="59.10880892537534" lon="14.132811930030584">
        <ele>56.2</ele>
        <time>2025-02-16T13:40:32.938Z</time>
      </trkpt>
      <trkpt lat="59.10880892537534" lon="14.13265099748969">
        <ele>56.28</ele>
        <time>2025-02-16T13:41:26.823Z</time>
      </trkpt>
      <trkpt lat="59.10880791954696" lon="14.132488975301385">
        <ele>56.36</ele>
        <time>2025-02-16T13:42:20.709Z</time>
      </trkpt>
      <trkpt lat="59.10880892537534" lon="14.132325947284698">
        <ele>56.44</ele>
        <time>2025-02-16T13:43:14.596Z</time>
      </trkpt>
      <trkpt lat="59.10880699753761" lon="14.132162919268012">
        <ele>56.52</ele>
        <time>2025-02-16T13:44:08.485Z</time>
      </trkpt>
      <trkpt lat="59.10880398005247" lon="14.131998969241977">
        <ele>56.6</ele>
        <time>2025-02-16T13:45:02.375Z</time>
      </trkpt>
      <trkpt lat="59.10880096256733" lon="14.131837952882051">
        <ele>56.67</ele>
        <time>2025-02-16T13:45:56.266Z</time>
      </trkpt>
      <trkpt lat="59.10880196839571" lon="14.131678948178887">
        <ele>56.74</ele>
        <time>2025-02-16T13:46:50.159Z</time>
      </trkpt>
      <trkpt lat="59.10880297422409" lon="14.131519943475723">
        <ele>56.81</ele>
        <time>2025-02-16T13:47:44.053Z</time>
      </trkpt>
      <trkpt lat="59.10880599170923" lon="14.13136093877256">
        <ele>56.89</ele>
        <time>2025-02-16T13:48:37.948Z</time>
      </trkpt>
      <trkpt lat="59.10880599170923" lon="14.131194977089763">
        <ele>56.96</ele>
        <time>2025-02-16T13:49:31.845Z</time>
      </trkpt>
      <trkpt lat="59.10880699753761" lon="14.131031949073076">
        <ele>57.03</ele>
        <time>2025-02-16T13:50:25.743Z</time>
      </trkpt>
      <trkpt lat="59.10880993120372" lon="14.13086892105639">
        <ele>57.1</ele>
        <time>2025-02-16T13:51:19.642Z</time>
      </trkpt>
      <trkpt lat="59.108812948688865" lon="14.130703965201974">
        <ele>57.16</ele>
        <time>2025-02-16T13:52:13.543Z</time>
      </trkpt>
      <trkpt lat="59.10881697200239" lon="14.130537919700146">
        <ele>57.23</ele>
        <time>2025-02-16T13:53:07.445Z</time>
      </trkpt>
      <trkpt lat="59.10881898365915" lon="14.130379920825362">
        <ele>57.29</ele>
        <time>2025-02-16T13:54:01.348Z</time>
      </trkpt>
      <trkpt lat="59.10882795229554" lon="14.130210941657424">
        <ele>57.35</ele>
        <time>2025-02-16T13:54:55.253Z</time>
      </trkpt>
      <trkpt lat="59.10883993841708" lon="14.130038945004344">
        <ele>57.41</ele>
        <time>2025-02-16T13:55:49.159Z</time>
      </trkpt>
      <trkpt lat="59.10885192453861" lon="14.129869965836406">
        <ele>57.47</ele>
        <time>2025-02-16T13:56:43.067Z</time>
      </trkpt>
      <trkpt lat="59.10886893980205" lon="14.129716996103525">
        <ele>57.54</ele>
        <time>2025-02-16T13:57:36.976Z</time>
      </trkpt>
      <trkpt lat="59.10888796672225" lon="14.129553968086839">
        <ele>57.59</ele>
        <time>2025-02-16T13:58:30.886Z</time>
      </trkpt>
      <trkpt lat="59.10890699364245" lon="14.129381971433759">
        <ele>57.65</ele>
        <time>2025-02-16T13:59:24.798Z</time>
      </trkpt>
      <trkpt lat="59.10892593674362" lon="14.129206957295537">
        <ele>57.72</ele>
        <time>2025-02-16T14:00:18.711Z</time>
      </trkpt>
      <trkpt lat="59.108943957835436" lon="14.129035966470838">
        <ele>57.78</ele>
        <time>2025-02-16T14:01:12.626Z</time>
      </trkpt>
      <trkpt lat="59.108964996412396" lon="14.128865981474519">
        <ele>57.85</ele>
        <time>2025-02-16T14:02:06.542Z</time>
      </trkpt>
      <trkpt lat="59.108984945341945" lon="14.1286959964782">
        <ele>57.91</ele>
        <time>2025-02-16T14:03:00.460Z</time>
      </trkpt>
      <trkpt lat="59.109007995575666" lon="14.12852299399674">
        <ele>57.98</ele>
        <time>2025-02-16T14:03:54.379Z</time>
      </trkpt>
      <trkpt lat="59.109030961990356" lon="14.128351919353008">
        <ele>58.04</ele>
        <time>2025-02-16T14:04:48.300Z</time>
      </trkpt>
      <trkpt lat="59.10905694589019" lon="14.128185957670212">
        <ele>58.1</ele>
        <time>2025-02-16T14:05:42.222Z</time>
      </trkpt>
      <trkpt lat="59.10908594727516" lon="14.128021923825145">
        <ele>58.17</ele>
        <time>2025-02-16T14:06:36.145Z</time>
      </trkpt>
      <trkpt lat="59.109113942831755" lon="14.127856967970729">
        <ele>58.23</ele>
        <time>2025-02-16T14:07:30.070Z</time>
      </trkpt>
      <trkpt lat="59.10914294421673" lon="14.127691928297281">
        <ele>58.29</ele>
        <time>2025-02-16T14:08:23.996Z</time>
      </trkpt>
      <trkpt lat="59.1091719456017" lon="14.127531917765737">
        <ele>58.36</ele>
        <time>2025-02-16T14:09:17.924Z</time>
      </trkpt>
      <trkpt lat="59.109201952815056" lon="14.127372996881604">
        <ele>58.43</ele>
        <time>2025-02-16T14:10:11.853Z</time>
      </trkpt>
      <trkpt lat="59.10923397168517" lon="14.12721692584455">
        <ele>58.48</ele>
        <time>2025-02-16T14:11:05.783Z</time>
      </trkpt>
      <trkpt lat="59.10926699638367" lon="14.127062950283289">
        <ele>58.54</ele>
        <time>2025-02-16T14:11:59.715Z</time>
      </trkpt>
      <trkpt lat="59.10930094309151" lon="14.12691492587328">
        <ele>58.61</ele>
        <time>2025-02-16T14:12:53.648Z</time>
      </trkpt>
      <trkpt lat="59.10933497361839" lon="14.126765979453921">
        <ele>58.67</ele>
        <time>2025-02-16T14:13:47.583Z</time>
      </trkpt>
      <trkpt lat="59.10936992615461" lon="14.126619966700673">
        <ele>58.73</ele>
        <time>2025-02-16T14:14:41.519Z</time>
      </trkpt>
      <trkpt lat="59.10940697416663" lon="14.126473953947425">
        <ele>58.79</ele>
        <time>2025-02-16T14:15:35.456Z</time>
      </trkpt>
      <trkpt lat="59.109444944188" lon="14.126325929537416">
        <ele>58.85</ele>
        <time>2025-02-16T14:16:29.395Z</time>
      </trkpt>
      <trkpt lat="59.10948199220002" lon="14.126182934269309">
        <ele>58.9</ele>
        <time>2025-02-16T14:17:23.335Z</time>
      </trkpt>
      <trkpt lat="59.109520968049765" lon="14.126035999506712">
        <ele>58.95</ele>
        <time>2025-02-16T14:18:17.276Z</time>
      </trkpt>
      <trkpt lat="59.10956195555627" lon="14.125886969268322">
        <ele>59.01</ele>
        <time>2025-02-16T14:19:11.219Z</time>
      </trkpt>
      <trkpt lat="59.10960495471954" lon="14.125737939029932">
        <ele>59.06</ele>
        <time>2025-02-16T14:20:05.163Z</time>
      </trkpt>
      <trkpt lat="59.109648959711194" lon="14.125589998438954">
        <ele>59.11</ele>
        <time>2025-02-16T14:20:59.108Z</time>
      </trkpt>
      <trkpt lat="59.109692964702845" lon="14.125440968200564">
        <ele>59.15</ele>
        <time>2025-02-16T14:21:53.055Z</time>
      </trkpt>
      <trkpt lat="59.109737975522876" lon="14.125289926305413">
        <ele>59.19</ele>
        <time>2025-02-16T14:22:47.003Z</time>
      </trkpt>
      <trkpt lat="59.109781980514526" lon="14.125135950744152">
        <ele>59.23</ele>
        <time>2025-02-16T14:23:40.953Z</time>
      </trkpt>
      <trkpt lat="59.10982598550618" lon="14.124982981011271">
        <ele>59.27</ele>
        <time>2025-02-16T14:24:34.904Z</time>
      </trkpt>
      <trkpt lat="59.10987191833556" lon="14.12482992745936">
        <ele>59.31</ele>
        <time>2025-02-16T14:25:28.857Z</time>
      </trkpt>
      <trkpt lat="59.10991793498397" lon="14.12467796355486">
        <ele>59.35</ele>
        <time>2025-02-16T14:26:22.811Z</time>
      </trkpt>
      <trkpt lat="59.10996093414724" lon="14.124522982165217">
        <ele>59.38</ele>
        <time>2025-02-16T14:27:16.767Z</time>
      </trkpt>
      <trkpt lat="59.11000493913889" lon="14.124372946098447">
        <ele>59.41</ele>
        <time>2025-02-16T14:28:10.724Z</time>
      </trkpt>
      <trkpt lat="59.11004793830216" lon="14.124225927516818">
        <ele>59.44</ele>
        <time>2025-02-16T14:29:04.682Z</time>
      </trkpt>
      <trkpt lat="59.11009294912219" lon="14.124078992754221">
        <ele>59.47</ele>
        <time>2025-02-16T14:29:58.642Z</time>
      </trkpt>
      <trkpt lat="59.11013695411384" lon="14.123937925323844">
        <ele>59.5</ele>
        <time>2025-02-16T14:30:52.603Z</time>
      </trkpt>
      <trkpt lat="59.11017794162035" lon="14.123794930055737">
        <ele>59.52</ele>
        <time>2025-02-16T14:31:46.566Z</time>
      </trkpt>
      <trkpt lat="59.1102169174701" lon="14.123656963929534">
        <ele>59.55</ele>
        <time>2025-02-16T14:32:40.530Z</time>
      </trkpt>
      <trkpt lat="59.11025798879564" lon="14.12352092564106">
        <ele>59.58</ele>
        <time>2025-02-16T14:33:34.495Z</time>
      </trkpt>
      <trkpt lat="59.11029897630215" lon="14.123389916494489">
        <ele>59.61</ele>
        <time>2025-02-16T14:34:28.461Z</time>
      </trkpt>
      <trkpt lat="59.110338957980275" lon="14.123260919004679">
        <ele>59.63</ele>
        <time>2025-02-16T14:35:22.429Z</time>
      </trkpt>
      <trkpt lat="59.11037592217326" lon="14.12313292734325">
        <ele>59.65</ele>
        <time>2025-02-16T14:36:16.398Z</time>
      </trkpt>
      <trkpt lat="59.11041095852852" lon="14.123002924025059">
        <ele>59.66</ele>
        <time>2025-02-16T14:37:10.368Z</time>
      </trkpt>
      <trkpt lat="59.110445994883776" lon="14.12287199869752">
        <ele>59.67</ele>
        <time>2025-02-16T14:38:04.339Z</time>
      </trkpt>
      <trkpt lat="59.11048195324838" lon="14.122740989550948">
        <ele>59.69</ele>
        <time>2025-02-16T14:38:58.312Z</time>
      </trkpt>
      <trkpt lat="59.11051799543202" lon="14.122610986232758">
        <ele>59.7</ele>
        <time>2025-02-16T14:39:52.286Z</time>
      </trkpt>
      <trkpt lat="59.110554959625006" lon="14.122481988742948">
        <ele>59.7</ele>
        <time>2025-02-16T14:40:46.261Z</time>
      </trkpt>
      <trkpt lat="59.11059393547475" lon="14.122350979596376">
        <ele>59.7</ele>
        <time>2025-02-16T14:41:40.237Z</time>
      </trkpt>
      <trkpt lat="59.11063391715288" lon="14.122220976278186">
        <ele>59.7</ele>
        <time>2025-02-16T14:42:34.214Z</time>
      </trkpt>
      <trkpt lat="59.11067498847842" lon="14.122087955474854">
        <ele>59.7</ele>
        <time>2025-02-16T14:43:28.193Z</time>
      </trkpt>
      <trkpt lat="59.11071497015655" lon="14.12195099517703">
        <ele>59.69</ele>
        <time>2025-02-16T14:44:22.173Z</time>
      </trkpt>
      <trkpt lat="59.11075495183468" lon="14.121808921918273">
        <ele>59.68</ele>
        <time>2025-02-16T14:45:16.154Z</time>
      </trkpt>
      <trkpt lat="59.11079493351281" lon="14.121661987155676">
        <ele>59.66</ele>
        <time>2025-02-16T14:46:10.137Z</time>
      </trkpt>
      <trkpt lat="59.11083793267608" lon="14.121512956917286">
        <ele>59.65</ele>
        <time>2025-02-16T14:47:04.121Z</time>
      </trkpt>
      <trkpt lat="59.11088294349611" lon="14.121363926678896">
        <ele>59.63</ele>
        <time>2025-02-16T14:47:58.107Z</time>
      </trkpt>
      <trkpt lat="59.11092795431614" lon="14.121213974431157">
        <ele>59.6</ele>
        <time>2025-02-16T14:48:52.094Z</time>
      </trkpt>
      <trkpt lat="59.11097195930779" lon="14.121060920879245">
        <ele>59.57</ele>
        <time>2025-02-16T14:49:46.082Z</time>
      </trkpt>
      <trkpt lat="59.11101093515754" lon="14.120899988338351">
        <ele>59.54</ele>
        <time>2025-02-16T14:50:40.072Z</time>
      </trkpt>
      <trkpt lat="59.111051922664046" lon="14.120738971978426">
        <ele>59.51</ele>
        <time>2025-02-16T14:51:34.063Z</time>
      </trkpt>
      <trkpt lat="59.1111009567976" lon="14.120584996417165">
        <ele>59.47</ele>
        <time>2025-02-16T14:52:28.056Z</time>
      </trkpt>
      <trkpt lat="59.11114999093115" lon="14.12042892538011">
        <ele>59.43</ele>
        <time>2025-02-16T14:53:22.050Z</time>
      </trkpt>
      <trkpt lat="59.111197935417295" lon="14.120267992839217">
        <ele>59.38</ele>
        <time>2025-02-16T14:54:16.046Z</time>
      </trkpt>
      <trkpt lat="59.11124596372247" lon="14.120107982307673">
        <ele>59.33</ele>
        <time>2025-02-16T14:55:10.043Z</time>
      </trkpt>
      <trkpt lat="59.11129499785602" lon="14.119945960119367">
        <ele>59.27</ele>
        <time>2025-02-16T14:56:04.042Z</time>
      </trkpt>
      <trkpt lat="59.11134394817054" lon="14.11978393793106">
        <ele>59.22</ele>
        <time>2025-02-16T14:56:58.043Z</time>
      </trkpt>
      <trkpt lat="59.111392982304096" lon="14.119619987905025">
        <ele>59.15</ele>
        <time>2025-02-16T14:57:52.045Z</time>
      </trkpt>
      <trkpt lat="59.11144595593214" lon="14.119456959888339">
        <ele>59.09</ele>
        <time>2025-02-16T14:58:46.049Z</time>
      </trkpt>
      <trkpt lat="59.111495995894074" lon="14.119288986548781">
        <ele>59.02</ele>
        <time>2025-02-16T14:59:40.054Z</time>
      </trkpt>
      <trkpt lat="59.11154595203698" lon="14.119117995724082">
        <ele>58.95</ele>
        <time>2025-02-16T15:00:34.061Z</time>
      </trkpt>
      <trkpt lat="59.11159599199891" lon="14.118951950222254">
        <ele>58.89</ele>
        <time>2025-02-16T15:01:28.070Z</time>
      </trkpt>
      <trkpt lat="59.11164494231343" lon="14.118789928033948">
        <ele>58.83</ele>
        <time>2025-02-16T15:02:22.080Z</time>
      </trkpt>
      <trkpt lat="59.111692970618606" lon="14.118626983836293">
        <ele>58.77</ele>
        <time>2025-02-16T15:03:16.092Z</time>
      </trkpt>
      <trkpt lat="59.111736975610256" lon="14.118464961647987">
        <ele>58.7</ele>
        <time>2025-02-16T15:04:10.105Z</time>
      </trkpt>
      <trkpt lat="59.11178299225867" lon="14.11829799413681">
        <ele>58.63</ele>
        <time>2025-02-16T15:05:04.120Z</time>
      </trkpt>
      <trkpt lat="59.11182892508805" lon="14.118138989433646">
        <ele>58.57</ele>
        <time>2025-02-16T15:05:58.136Z</time>
      </trkpt>
      <trkpt lat="59.11187594756484" lon="14.117979984730482">
        <ele>58.5</ele>
        <time>2025-02-16T15:06:52.154Z</time>
      </trkpt>
      <trkpt lat="59.11192297004163" lon="14.117821985855699">
        <ele>58.43</ele>
        <time>2025-02-16T15:07:46.173Z</time>
      </trkpt>
      <trkpt lat="59.11196697503328" lon="14.117666920647025">
        <ele>58.36</ele>
        <time>2025-02-16T15:08:40.194Z</time>
      </trkpt>
      <trkpt lat="59.11200997419655" lon="14.117513950914145">
        <ele>58.29</ele>
        <time>2025-02-16T15:09:34.216Z</time>
      </trkpt>
      <trkpt lat="59.112054985016584" lon="14.117362992838025">
        <ele>58.21</ele>
        <time>2025-02-16T15:10:28.240Z</time>
      </trkpt>
      <trkpt lat="59.112098990008235" lon="14.117213962599635">
        <ele>58.14</ele>
        <time>2025-02-16T15:11:22.265Z</time>
      </trkpt>
      <trkpt lat="59.112140983343124" lon="14.117064932361245">
        <ele>58.06</ele>
        <time>2025-02-16T15:12:16.291Z</time>
      </trkpt>
      <trkpt lat="59.112184988334775" lon="14.116913974285126">
        <ele>57.98</ele>
        <time>2025-02-16T15:13:10.319Z</time>
      </trkpt>
      <trkpt lat="59.112227987498045" lon="14.116763938218355">
        <ele>57.9</ele>
        <time>2025-02-16T15:14:04.348Z</time>
      </trkpt>
      <trkpt lat="59.112270986661315" lon="14.116612980142236">
        <ele>57.81</ele>
        <time>2025-02-16T15:14:58.379Z</time>
      </trkpt>
      <trkpt lat="59.112317925319076" lon="14.116461938247085">
        <ele>57.72</ele>
        <time>2025-02-16T15:15:52.411Z</time>
      </trkpt>
      <trkpt lat="59.112361930310726" lon="14.116304945200682">
        <ele>57.64</ele>
        <time>2025-02-16T15:16:46.445Z</time>
      </trkpt>
      <trkpt lat="59.112404929473996" lon="14.116143928840756">
        <ele>57.55</ele>
        <time>2025-02-16T15:17:40.480Z</time>
      </trkpt>
      <trkpt lat="59.11244994029403" lon="14.115980984643102">
        <ele>57.45</ele>
        <time>2025-02-16T15:18:34.517Z</time>
      </trkpt>
      <trkpt lat="59.11249595694244" lon="14.115816950798035">
        <ele>57.35</ele>
        <time>2025-02-16T15:19:28.555Z</time>
      </trkpt>
      <trkpt lat="59.11254096776247" lon="14.11565694026649">
        <ele>57.26</ele>
        <time>2025-02-16T15:20:22.595Z</time>
      </trkpt>
      <trkpt lat="59.11258698441088" lon="14.115499947220087">
        <ele>57.17</ele>
        <time>2025-02-16T15:21:16.636Z</time>
      </trkpt>
      <trkpt lat="59.11263291724026" lon="14.115344965830445">
        <ele>57.08</ele>
        <time>2025-02-16T15:22:10.679Z</time>
      </trkpt>
      <trkpt lat="59.11267692223191" lon="14.115190990269184">
        <ele>56.99</ele>
        <time>2025-02-16T15:23:04.723Z</time>
      </trkpt>
      <trkpt lat="59.11271992139518" lon="14.115039948374033">
        <ele>56.9</ele>
        <time>2025-02-16T15:23:58.769Z</time>
      </trkpt>
      <trkpt lat="59.11276292055845" lon="14.114889996126294">
        <ele>56.81</ele>
        <time>2025-02-16T15:24:52.816Z</time>
      </trkpt>
      <trkpt lat="59.11280591972172" lon="14.114742977544665">
        <ele>56.73</ele>
        <time>2025-02-16T15:25:46.864Z</time>
      </trkpt>
      <trkpt lat="59.1128449793905" lon="14.114598976448178">
        <ele>56.65</ele>
        <time>2025-02-16T15:26:40.914Z</time>
      </trkpt>
      <trkpt lat="59.11288395524025" lon="14.114454975351691">
        <ele>56.56</ele>
        <time>2025-02-16T15:27:34.965Z</time>
      </trkpt>
      <trkpt lat="59.11292293109" lon="14.114311980083585">
        <ele>56.48</ele>
        <time>2025-02-16T15:28:29.017Z</time>
      </trkpt>
      <trkpt lat="59.112960984930396" lon="14.11417099647224">
        <ele>56.39</ele>
        <time>2025-02-16T15:29:23.071Z</time>
      </trkpt>
      <trkpt lat="59.11299895495176" lon="14.114031940698624">
        <ele>56.31</ele>
        <time>2025-02-16T15:30:17.126Z</time>
      </trkpt>
      <trkpt lat="59.11303692497313" lon="14.113895986229181">
        <ele>56.22</ele>
        <time>2025-02-16T15:31:11.182Z</time>
      </trkpt>
      <trkpt lat="59.11307497881353" lon="14.113762965425849">
        <ele>56.13</ele>
        <time>2025-02-16T15:32:05.239Z</time>
      </trkpt>
      <trkpt lat="59.113112948834896" lon="14.11363497376442">
        <ele>56.05</ele>
        <time>2025-02-16T15:32:59.298Z</time>
      </trkpt>
      <trkpt lat="59.113151924684644" lon="14.11350798793137">
        <ele>55.96</ele>
        <time>2025-02-16T15:33:53.358Z</time>
      </trkpt>
      <trkpt lat="59.11318897269666" lon="14.11338091827929">
        <ele>55.87</ele>
        <time>2025-02-16T15:34:47.419Z</time>
      </trkpt>
      <trkpt lat="59.11322794854641" lon="14.11325192078948">
        <ele>55.77</ele>
        <time>2025-02-16T15:35:41.481Z</time>
      </trkpt>
      <trkpt lat="59.11326793022454" lon="14.113117977976799">
        <ele>55.68</ele>
        <time>2025-02-16T15:36:35.545Z</time>
      </trkpt>
      <trkpt lat="59.11330891773105" lon="14.112981939688325">
        <ele>55.59</ele>
        <time>2025-02-16T15:37:29.610Z</time>
      </trkpt>
      <trkpt lat="59.11335099488497" lon="14.11284196190536">
        <ele>55.5</ele>
        <time>2025-02-16T15:38:23.676Z</time>
      </trkpt>
      <trkpt lat="59.11339499987662" lon="14.112697960808873">
        <ele>55.4</ele>
        <time>2025-02-16T15:39:17.744Z</time>
      </trkpt>
      <trkpt lat="59.11343799903989" lon="14.112550942227244">
        <ele>55.31</ele>
        <time>2025-02-16T15:40:11.813Z</time>
      </trkpt>
      <trkpt lat="59.11348393186927" lon="14.112401995807886">
        <ele>55.22</ele>
        <time>2025-02-16T15:41:05.883Z</time>
      </trkpt>
      <trkpt lat="59.1135289426893" lon="14.112249948084354">
        <ele>55.14</ele>
        <time>2025-02-16T15:41:59.955Z</time>
      </trkpt>
      <trkpt lat="59.11357395350933" lon="14.112095972523093">
        <ele>55.07</ele>
        <time>2025-02-16T15:42:54.028Z</time>
      </trkpt>
      <trkpt lat="59.1136169526726" lon="14.11193998530507">
        <ele>54.99</ele>
        <time>2025-02-16T15:43:48.103Z</time>
      </trkpt>
      <trkpt lat="59.11365995183587" lon="14.111782992258668">
        <ele>54.91</ele>
        <time>2025-02-16T15:44:42.179Z</time>
      </trkpt>
      <trkpt lat="59.11370194517076" lon="14.111621975898743">
        <ele>54.84</ele>
        <time>2025-02-16T15:45:36.257Z</time>
      </trkpt>
      <trkpt lat="59.11374192684889" lon="14.111462971195579">
        <ele>54.77</ele>
        <time>2025-02-16T15:46:30.336Z</time>
      </trkpt>
      <trkpt lat="59.11377998068929" lon="14.111303966492414">
        <ele>54.7</ele>
        <time>2025-02-16T15:47:24.417Z</time>
      </trkpt>
      <trkpt lat="59.113818956539035" lon="14.11114395596087">
        <ele>54.63</ele>
        <time>2025-02-16T15:48:18.499Z</time>
      </trkpt>
      <trkpt lat="59.1138569265604" lon="14.110984951257706">
        <ele>54.57</ele>
        <time>2025-02-16T15:49:12.583Z</time>
      </trkpt>
      <trkpt lat="59.11389397457242" lon="14.110825946554542">
        <ele>54.5</ele>
        <time>2025-02-16T15:50:06.668Z</time>
      </trkpt>
      <trkpt lat="59.113928927108645" lon="14.110661996528506">
        <ele>54.44</ele>
        <time>2025-02-16T15:51:00.755Z</time>
      </trkpt>
      <trkpt lat="59.11395994015038" lon="14.110496956855059">
        <ele>54.37</ele>
        <time>2025-02-16T15:51:54.843Z</time>
      </trkpt>
      <trkpt lat="59.113988941535354" lon="14.110332923009992">
        <ele>54.31</ele>
        <time>2025-02-16T15:52:48.932Z</time>
      </trkpt>
      <trkpt lat="59.11401995457709" lon="14.110173918306828">
        <ele>54.26</ele>
        <time>2025-02-16T15:53:43.023Z</time>
      </trkpt>
      <trkpt lat="59.114051973447204" lon="14.110014997422695">
        <ele>54.19</ele>
        <time>2025-02-16T15:54:37.115Z</time>
      </trkpt>
      <trkpt lat="59.11408399231732" lon="14.109851969406009">
        <ele>54.13</ele>
        <time>2025-02-16T15:55:31.209Z</time>
      </trkpt>
      <trkpt lat="59.1141159273684" lon="14.109688941389322">
        <ele>54.07</ele>
        <time>2025-02-16T15:56:25.304Z</time>
      </trkpt>
      <trkpt lat="59.11414593458176" lon="14.109523985534906">
        <ele>54.01</ele>
        <time>2025-02-16T15:57:19.401Z</time>
      </trkpt>
      <trkpt lat="59.11417594179511" lon="14.10935995168984">
        <ele>53.96</ele>
        <time>2025-02-16T15:58:13.499Z</time>
      </trkpt>
      <trkpt lat="59.114206954836845" lon="14.109197929501534">
        <ele>53.91</ele>
        <time>2025-02-16T15:59:07.598Z</time>
      </trkpt>
      <trkpt lat="59.1142369620502" lon="14.109033979475498">
        <ele>53.86</ele>
        <time>2025-02-16T16:00:01.699Z</time>
      </trkpt>
      <trkpt lat="59.114266969263554" lon="14.108869945630431">
        <ele>53.81</ele>
        <time>2025-02-16T16:00:55.801Z</time>
      </trkpt>
      <trkpt lat="59.11429798230529" lon="14.108702978119254">
        <ele>53.77</ele>
        <time>2025-02-16T16:01:49.905Z</time>
      </trkpt>
      <trkpt lat="59.11432991735637" lon="14.108535926789045">
        <ele>53.73</ele>
        <time>2025-02-16T16:02:44.010Z</time>
      </trkpt>
      <trkpt lat="59.11436093039811" lon="14.108364935964346">
        <ele>53.69</ele>
        <time>2025-02-16T16:03:38.117Z</time>
      </trkpt>
      <trkpt lat="59.11439194343984" lon="14.108187993988395">
        <ele>53.66</ele>
        <time>2025-02-16T16:04:32.225Z</time>
      </trkpt>
      <trkpt lat="59.11442396230996" lon="14.108011974021792">
        <ele>53.62</ele>
        <time>2025-02-16T16:05:26.335Z</time>
      </trkpt>
      <trkpt lat="59.11445598118007" lon="14.10783595405519">
        <ele>53.58</ele>
        <time>2025-02-16T16:06:20.446Z</time>
      </trkpt>
      <trkpt lat="59.114488922059536" lon="14.107660939916968">
        <ele>53.56</ele>
        <time>2025-02-16T16:07:14.559Z</time>
      </trkpt>
      <trkpt lat="59.11452094092965" lon="14.107487937435508">
        <ele>53.53</ele>
        <time>2025-02-16T16:08:08.673Z</time>
      </trkpt>
      <trkpt lat="59.114551953971386" lon="14.107317952439189">
        <ele>53.51</ele>
        <time>2025-02-16T16:09:02.789Z</time>
      </trkpt>
      <trkpt lat="59.11458196118474" lon="14.10714796744287">
        <ele>53.49</ele>
        <time>2025-02-16T16:09:56.906Z</time>
      </trkpt>
      <trkpt lat="59.114612974226475" lon="14.106981921941042">
        <ele>53.47</ele>
        <time>2025-02-16T16:10:51.025Z</time>
      </trkpt>
      <trkpt lat="59.11464298143983" lon="14.106815960258245">
        <ele>53.46</ele>
        <time>2025-02-16T16:11:45.145Z</time>
      </trkpt>
      <trkpt lat="59.1146719828248" lon="14.106650920584798">
        <ele>53.45</ele>
        <time>2025-02-16T16:12:39.267Z</time>
      </trkpt>
      <trkpt lat="59.11470299586654" lon="14.106486970558763">
        <ele>53.44</ele>
        <time>2025-02-16T16:13:33.390Z</time>
      </trkpt>
      <trkpt lat="59.11473493091762" lon="14.106323942542076">
        <ele>53.43</ele>
        <time>2025-02-16T16:14:27.515Z</time>
      </trkpt>
      <trkpt lat="59.114766949787736" lon="14.106164937838912">
        <ele>53.42</ele>
        <time>2025-02-16T16:15:21.641Z</time>
      </trkpt>
      <trkpt lat="59.11479997448623" lon="14.106006938964128">
        <ele>53.41</ele>
        <time>2025-02-16T16:16:15.768Z</time>
      </trkpt>
      <trkpt lat="59.11483299918473" lon="14.105847934260964">
        <ele>53.41</ele>
        <time>2025-02-16T16:17:09.897Z</time>
      </trkpt>
      <trkpt lat="59.114869963377714" lon="14.10568993538618">
        <ele>53.42</ele>
        <time>2025-02-16T16:18:04.027Z</time>
      </trkpt>
      <trkpt lat="59.11490893922746" lon="14.105530930683017">
        <ele>53.43</ele>
        <time>2025-02-16T16:18:58.159Z</time>
      </trkpt>
      <trkpt lat="59.11494892090559" lon="14.105374943464994">
        <ele>53.43</ele>
        <time>2025-02-16T16:19:52.292Z</time>
      </trkpt>
      <trkpt lat="59.11499192006886" lon="14.105222979560494">
        <ele>53.44</ele>
        <time>2025-02-16T16:20:46.427Z</time>
      </trkpt>
      <trkpt lat="59.11503592506051" lon="14.105074955150485">
        <ele>53.46</ele>
        <time>2025-02-16T16:21:40.563Z</time>
      </trkpt>
      <trkpt lat="59.11508093588054" lon="14.104931959882379">
        <ele>53.48</ele>
        <time>2025-02-16T16:22:34.700Z</time>
      </trkpt>
      <trkpt lat="59.11512494087219" lon="14.104793993756175">
        <ele>53.5</ele>
        <time>2025-02-16T16:23:28.839Z</time>
      </trkpt>
      <trkpt lat="59.11516995169222" lon="14.104657955467701">
        <ele>53.52</ele>
        <time>2025-02-16T16:24:22.979Z</time>
      </trkpt>
      <trkpt lat="59.1152179799974" lon="14.104524934664369">
        <ele>53.53</ele>
        <time>2025-02-16T16:25:17.120Z</time>
      </trkpt>
      <trkpt lat="59.11526693031192" lon="14.104395937174559">
        <ele>53.55</ele>
        <time>2025-02-16T16:26:11.263Z</time>
      </trkpt>
      <trkpt lat="59.115319987758994" lon="14.104273980483413">
        <ele>53.57</ele>
        <time>2025-02-16T16:27:05.407Z</time>
      </trkpt>
      <trkpt lat="59.11537195555866" lon="14.1041589807719">
        <ele>53.59</ele>
        <time>2025-02-16T16:27:59.552Z</time>
      </trkpt>
      <trkpt lat="59.1154249291867" lon="14.104046998545527">
        <ele>53.62</ele>
        <time>2025-02-16T16:28:53.699Z</time>
      </trkpt>
      <trkpt lat="59.11547899246216" lon="14.103937949985266">
        <ele>53.63</ele>
        <time>2025-02-16T16:29:47.847Z</time>
      </trkpt>
      <trkpt lat="59.11553297191858" lon="14.103829991072416">
        <ele>53.65</ele>
        <time>2025-02-16T16:30:41.996Z</time>
      </trkpt>
      <trkpt lat="59.11558594554663" lon="14.103718930855393">
        <ele>53.66</ele>
        <time>2025-02-16T16:31:36.146Z</time>
      </trkpt>
      <trkpt lat="59.11564193665981" lon="14.103611977770925">
        <ele>53.67</ele>
        <time>2025-02-16T16:32:30.298Z</time>
      </trkpt>
      <trkpt lat="59.1157029569149" lon="14.103510975837708">
        <ele>53.69</ele>
        <time>2025-02-16T16:33:24.451Z</time>
      </trkpt>
      <trkpt lat="59.11576598882675" lon="14.103410979732871">
        <ele>53.7</ele>
        <time>2025-02-16T16:34:18.605Z</time>
      </trkpt>
      <trkpt lat="59.11582994274795" lon="14.103314923122525">
        <ele>53.7</ele>
        <time>2025-02-16T16:35:12.760Z</time>
      </trkpt>
      <trkpt lat="59.11589498631656" lon="14.103218950331211">
        <ele>53.71</ele>
        <time>2025-02-16T16:36:06.917Z</time>
      </trkpt>
      <trkpt lat="59.11596095189452" lon="14.103120965883136">
        <ele>53.72</ele>
        <time>2025-02-16T16:37:01.075Z</time>
      </trkpt>
      <trkpt lat="59.11602792330086" lon="14.103025998920202">
        <ele>53.73</ele>
        <time>2025-02-16T16:37:55.234Z</time>
      </trkpt>
      <trkpt lat="59.116098918020725" lon="14.102931953966618">
        <ele>53.74</ele>
        <time>2025-02-16T16:38:49.395Z</time>
      </trkpt>
      <trkpt lat="59.11617192439735" lon="14.102841932326555">
        <ele>53.74</ele>
        <time>2025-02-16T16:39:43.557Z</time>
      </trkpt>
      <trkpt lat="59.116245936602354" lon="14.102750988677144">
        <ele>53.74</ele>
        <time>2025-02-16T16:40:37.721Z</time>
      </trkpt>
      <trkpt lat="59.11631994880736" lon="14.102661972865462">
        <ele>53.75</ele>
        <time>2025-02-16T16:41:31.886Z</time>
      </trkpt>
      <trkpt lat="59.116396978497505" lon="14.102578992024064">
        <ele>53.76</ele>
        <time>2025-02-16T16:42:26.052Z</time>
      </trkpt>
      <trkpt lat="59.116474930197" lon="14.102496933192015">
        <ele>53.77</ele>
        <time>2025-02-16T16:43:20.220Z</time>
      </trkpt>
      <trkpt lat="59.116549948230386" lon="14.102412946522236">
        <ele>53.78</ele>
        <time>2025-02-16T16:44:14.389Z</time>
      </trkpt>
      <trkpt lat="59.11662597209215" lon="14.102330971509218">
        <ele>53.78</ele>
        <time>2025-02-16T16:45:08.560Z</time>
      </trkpt>
      <trkpt lat="59.11670199595392" lon="14.102254947647452">
        <ele>53.78</ele>
        <time>2025-02-16T16:46:02.732Z</time>
      </trkpt>
      <trkpt lat="59.11677793599665" lon="14.10218395292759">
        <ele>53.78</ele>
        <time>2025-02-16T16:46:56.905Z</time>
      </trkpt>
      <trkpt lat="59.11685395985842" lon="14.102110946550965">
        <ele>53.78</ele>
        <time>2025-02-16T16:47:51.080Z</time>
      </trkpt>
      <trkpt lat="59.1169289778918" lon="14.10203693434596">
        <ele>53.79</ele>
        <time>2025-02-16T16:48:45.256Z</time>
      </trkpt>
      <trkpt lat="59.11700299009681" lon="14.101963927969337">
        <ele>53.79</ele>
        <time>2025-02-16T16:49:39.433Z</time>
      </trkpt>
      <trkpt lat="59.11707993596792" lon="14.101892933249474">
        <ele>53.78</ele>
        <time>2025-02-16T16:50:33.612Z</time>
      </trkpt>
      <trkpt lat="59.11715595982969" lon="14.101824956014752">
        <ele>53.78</ele>
        <time>2025-02-16T16:51:27.792Z</time>
      </trkpt>
      <trkpt lat="59.117231983691454" lon="14.101760918274522">
        <ele>53.77</ele>
        <time>2025-02-16T16:52:21.973Z</time>
      </trkpt>
      <trkpt lat="59.11730792373419" lon="14.101694952696562">
        <ele>53.75</ele>
        <time>2025-02-16T16:53:16.156Z</time>
      </trkpt>
      <trkpt lat="59.11738193593919" lon="14.101623957976699">
        <ele>53.74</ele>
        <time>2025-02-16T16:54:10.340Z</time>
      </trkpt>
      <trkpt lat="59.117453936487436" lon="14.101556986570358">
        <ele>53.72</ele>
        <time>2025-02-16T16:55:04.525Z</time>
      </trkpt>
      <trkpt lat="59.11752392537892" lon="14.101486997678876">
        <ele>53.71</ele>
        <time>2025-02-16T16:55:58.712Z</time>
      </trkpt>
      <trkpt lat="59.11759492009878" lon="14.101416924968362">
        <ele>53.69</ele>
        <time>2025-02-16T16:56:52.900Z</time>
      </trkpt>
      <trkpt lat="59.117665998637676" lon="14.101345930248499">
        <ele>53.68</ele>
        <time>2025-02-16T16:57:47.089Z</time>
      </trkpt>
      <trkpt lat="59.11773598752916" lon="14.101273929700255">
        <ele>53.65</ele>
        <time>2025-02-16T16:58:41.279Z</time>
      </trkpt>
      <trkpt lat="59.11780597642064" lon="14.10119991749525">
        <ele>53.63</ele>
        <time>2025-02-16T16:59:35.471Z</time>
      </trkpt>
      <trkpt lat="59.11787596531212" lon="14.10113194026053">
        <ele>53.6</ele>
        <time>2025-02-16T17:00:29.664Z</time>
      </trkpt>
      <trkpt lat="59.117946960031986" lon="14.101061951369047">
        <ele>53.57</ele>
        <time>2025-02-16T17:01:23.858Z</time>
      </trkpt>
      <trkpt lat="59.11801694892347" lon="14.100992968305945">
        <ele>53.55</ele>
        <time>2025-02-16T17:02:18.053Z</time>
      </trkpt>
      <trkpt lat="59.11808593198657" lon="14.100924991071224">
        <ele>53.52</ele>
        <time>2025-02-16T17:03:12.250Z</time>
      </trkpt>
      <trkpt lat="59.118154998868704" lon="14.100856930017471">
        <ele>53.49</ele>
        <time>2025-02-16T17:04:06.448Z</time>
      </trkpt>
      <trkpt lat="59.118223981931806" lon="14.100790964439511">
        <ele>53.46</ele>
        <time>2025-02-16T17:05:00.647Z</time>
      </trkpt>
      <trkpt lat="59.11829195916653" lon="14.10072399303317">
        <ele>53.43</ele>
        <time>2025-02-16T17:05:54.847Z</time>
      </trkpt>
      <trkpt lat="59.11835993640125" lon="14.100653920322657">
        <ele>53.39</ele>
        <time>2025-02-16T17:06:49.049Z</time>
      </trkpt>
      <trkpt lat="59.11842699162662" lon="14.100580997765064">
        <ele>53.35</ele>
        <time>2025-02-16T17:07:43.252Z</time>
      </trkpt>
      <trkpt lat="59.11849496886134" lon="14.100503968074918">
        <ele>53.31</ele>
        <time>2025-02-16T17:08:37.456Z</time>
      </trkpt>
      <trkpt lat="59.11856194026768" lon="14.10042593255639">
        <ele>53.26</ele>
        <time>2025-02-16T17:09:31.661Z</time>
      </trkpt>
      <trkpt lat="59.118627989664674" lon="14.100344963371754">
        <ele>53.22</ele>
        <time>2025-02-16T17:10:25.868Z</time>
      </trkpt>
      <trkpt lat="59.11869294941425" lon="14.100257959216833">
        <ele>53.17</ele>
        <time>2025-02-16T17:11:20.076Z</time>
      </trkpt>
      <trkpt lat="59.118759920820594" lon="14.100170955061913">
        <ele>53.11</ele>
        <time>2025-02-16T17:12:14.285Z</time>
      </trkpt>
      <trkpt lat="59.11882798187435" lon="14.100082945078611">
        <ele>53.04</ele>
        <time>2025-02-16T17:13:08.496Z</time>
      </trkpt>
      <trkpt lat="59.11889595910907" lon="14.099988983944058">
        <ele>52.97</ele>
        <time>2025-02-16T17:14:02.708Z</time>
      </trkpt>
      <trkpt lat="59.11896192468703" lon="14.099892927333713">
        <ele>52.9</ele>
        <time>2025-02-16T17:14:56.921Z</time>
      </trkpt>
      <trkpt lat="59.11902696825564" lon="14.099790919572115">
        <ele>52.82</ele>
        <time>2025-02-16T17:15:51.136Z</time>
      </trkpt>
      <trkpt lat="59.11909192800522" lon="14.099686983972788">
        <ele>52.75</ele>
        <time>2025-02-16T17:16:45.352Z</time>
      </trkpt>
      <trkpt lat="59.11915596574545" lon="14.099579947069287">
        <ele>52.67</ele>
        <time>2025-02-16T17:17:39.569Z</time>
      </trkpt>
      <trkpt lat="59.11921799182892" lon="14.099469976499677">
        <ele>52.59</ele>
        <time>2025-02-16T17:18:33.788Z</time>
      </trkpt>
      <trkpt lat="59.119276916608214" lon="14.099356988444924">
        <ele>52.51</ele>
        <time>2025-02-16T17:19:28.008Z</time>
      </trkpt>
      <trkpt lat="59.11933198571205" lon="14.09924098290503">
        <ele>52.42</ele>
        <time>2025-02-16T17:20:22.229Z</time>
      </trkpt>
      <trkpt lat="59.119385965168476" lon="14.099121959879994">
        <ele>52.34</ele>
        <time>2025-02-16T17:21:16.452Z</time>
      </trkpt>
      <trkpt lat="59.11943793296814" lon="14.098999919369817">
        <ele>52.25</ele>
        <time>2025-02-16T17:22:10.676Z</time>
      </trkpt>
      <trkpt lat="59.119489984586835" lon="14.09887695685029">
        <ele>52.15</ele>
        <time>2025-02-16T17:23:04.901Z</time>
      </trkpt>
      <trkpt lat="59.11953994072974" lon="14.098751982674003">
        <ele>52.06</ele>
        <time>2025-02-16T17:23:59.127Z</time>
      </trkpt>
      <trkpt lat="59.11958897486329" lon="14.098632959648967">
        <ele>51.96</ele>
        <time>2025-02-16T17:24:53.355Z</time>
      </trkpt>
      <trkpt lat="59.11963691934943" lon="14.098501950502396">
        <ele>51.85</ele>
        <time>2025-02-16T17:25:47.584Z</time>
      </trkpt>
      <trkpt lat="59.119683941826224" lon="14.098369935527444">
        <ele>51.74</ele>
        <time>2025-02-16T17:26:41.814Z</time>
      </trkpt>
      <trkpt lat="59.119729958474636" lon="14.09823196940124">
        <ele>51.64</ele>
        <time>2025-02-16T17:27:36.046Z</time>
      </trkpt>
      <trkpt lat="59.11977496929467" lon="14.098095931112766">
        <ele>51.53</ele>
        <time>2025-02-16T17:28:30.279Z</time>
      </trkpt>
      <trkpt lat="59.11981897428632" lon="14.097956959158182">
        <ele>51.42</ele>
        <time>2025-02-16T17:29:24.513Z</time>
      </trkpt>
      <trkpt lat="59.11986297927797" lon="14.097809940576553">
        <ele>51.3</ele>
        <time>2025-02-16T17:30:18.749Z</time>
      </trkpt>
      <trkpt lat="59.11990698426962" lon="14.097656970843673">
        <ele>51.18</ele>
        <time>2025-02-16T17:31:12.986Z</time>
      </trkpt>
      <trkpt lat="59.11994797177613" lon="14.097496960312128">
        <ele>51.05</ele>
        <time>2025-02-16T17:32:07.225Z</time>
      </trkpt>
      <trkpt lat="59.1199909709394" lon="14.097335943952203">
        <ele>50.92</ele>
        <time>2025-02-16T17:33:01.465Z</time>
      </trkpt>
      <trkpt lat="59.12003397010267" lon="14.097169982269406">
        <ele>50.79</ele>
        <time>2025-02-16T17:33:55.707Z</time>
      </trkpt>
      <trkpt lat="59.12007696926594" lon="14.097002930939198">
        <ele>50.66</ele>
        <time>2025-02-16T17:34:49.950Z</time>
      </trkpt>
      <trkpt lat="59.12011896260083" lon="14.096830934286118">
        <ele>50.53</ele>
        <time>2025-02-16T17:35:44.195Z</time>
      </trkpt>
      <trkpt lat="59.1201619617641" lon="14.096654998138547">
        <ele>50.39</ele>
        <time>2025-02-16T17:36:38.441Z</time>
      </trkpt>
      <trkpt lat="59.12020596675575" lon="14.096476966515183">
        <ele>50.26</ele>
        <time>2025-02-16T17:37:32.689Z</time>
      </trkpt>
      <trkpt lat="59.12024796009064" lon="14.09629499539733">
        <ele>50.14</ele>
        <time>2025-02-16T17:38:26.939Z</time>
      </trkpt>
      <trkpt lat="59.12029297091067" lon="14.096112940460443">
        <ele>50.01</ele>
        <time>2025-02-16T17:39:21.190Z</time>
      </trkpt>
      <trkpt lat="59.12033999338746" lon="14.095928957685828">
        <ele>49.89</ele>
        <time>2025-02-16T17:40:15.443Z</time>
      </trkpt>
      <trkpt lat="59.12038693204522" lon="14.095743969082832">
        <ele>49.77</ele>
        <time>2025-02-16T17:41:09.698Z</time>
      </trkpt>
      <trkpt lat="59.120433954522014" lon="14.095557974651456">
        <ele>49.65</ele>
        <time>2025-02-16T17:42:03.954Z</time>
      </trkpt>
      <trkpt lat="59.120479971170425" lon="14.09537298604846">
        <ele>49.52</ele>
        <time>2025-02-16T17:42:58.212Z</time>
      </trkpt>
      <trkpt lat="59.1205279994756" lon="14.095190931111574">
        <ele>49.4</ele>
        <time>2025-02-16T17:43:52.472Z</time>
      </trkpt>
      <trkpt lat="59.12057493813336" lon="14.09500795416534">
        <ele>49.28</ele>
        <time>2025-02-16T17:44:46.734Z</time>
      </trkpt>
      <trkpt lat="59.12062095478177" lon="14.094827994704247">
        <ele>49.16</ele>
        <time>2025-02-16T17:45:40.997Z</time>
      </trkpt>
      <trkpt lat="59.1206659656018" lon="14.094648957252502">
        <ele>49.03</ele>
        <time>2025-02-16T17:46:35.262Z</time>
      </trkpt>
      <trkpt lat="59.120711982250214" lon="14.094469919800758">
        <ele>48.91</ele>
        <time>2025-02-16T17:47:29.529Z</time>
      </trkpt>
      <trkpt lat="59.120755987241864" lon="14.094290966168046">
        <ele>48.79</ele>
        <time>2025-02-16T17:48:23.797Z</time>
      </trkpt>
      <trkpt lat="59.120800998061895" lon="14.094112934544683">
        <ele>48.67</ele>
        <time>2025-02-16T17:49:18.067Z</time>
      </trkpt>
      <trkpt lat="59.120845925062895" lon="14.09393792040646">
        <ele>48.55</ele>
        <time>2025-02-16T17:50:12.338Z</time>
      </trkpt>
      <trkpt lat="59.120889930054545" lon="14.093764917925">
        <ele>48.44</ele>
        <time>2025-02-16T17:51:06.611Z</time>
      </trkpt>
      <trkpt lat="59.120932929217815" lon="14.09358998760581">
        <ele>48.32</ele>
        <time>2025-02-16T17:52:00.886Z</time>
      </trkpt>
      <trkpt lat="59.120976934209466" lon="14.093415979295969">
        <ele>48.2</ele>
        <time>2025-02-16T17:52:55.162Z</time>
      </trkpt>
      <trkpt lat="59.121019933372736" lon="14.093242976814508">
        <ele>48.09</ele>
        <time>2025-02-16T17:53:49.440Z</time>
      </trkpt>
      <trkpt lat="59.12106393836439" lon="14.093068968504667">
        <ele>47.98</ele>
        <time>2025-02-16T17:54:43.719Z</time>
      </trkpt>
      <trkpt lat="59.12110794335604" lon="14.092896971851587">
        <ele>47.86</ele>
        <time>2025-02-16T17:55:38.000Z</time>
      </trkpt>
      <trkpt lat="59.12115094251931" lon="14.092725981026888">
        <ele>47.75</ele>
        <time>2025-02-16T17:56:32.283Z</time>
      </trkpt>
      <trkpt lat="59.12119494751096" lon="14.092555996030569">
        <ele>47.65</ele>
        <time>2025-02-16T17:57:26.567Z</time>
      </trkpt>
      <trkpt lat="59.12123895250261" lon="14.092384921386838">
        <ele>47.54</ele>
        <time>2025-02-16T17:58:20.853Z</time>
      </trkpt>
      <trkpt lat="59.12128195166588" lon="14.092213930562139">
        <ele>47.44</ele>
        <time>2025-02-16T17:59:15.140Z</time>
      </trkpt>
      <trkpt lat="59.12132595665753" lon="14.09204394556582">
        <ele>47.34</ele>
        <time>2025-02-16T18:00:09.429Z</time>
      </trkpt>
      <trkpt lat="59.12136996164918" lon="14.091875972226262">
        <ele>47.24</ele>
        <time>2025-02-16T18:01:03.719Z</time>
      </trkpt>
      <trkpt lat="59.12141396664083" lon="14.091707998886704">
        <ele>47.14</ele>
        <time>2025-02-16T18:01:58.011Z</time>
      </trkpt>
      <trkpt lat="59.12145595997572" lon="14.091542959213257">
        <ele>47.04</ele>
        <time>2025-02-16T18:02:52.304Z</time>
      </trkpt>
      <trkpt lat="59.12149694748223" lon="14.09137892536819">
        <ele>46.95</ele>
        <time>2025-02-16T18:03:46.599Z</time>
      </trkpt>
      <trkpt lat="59.12153894081712" lon="14.091214975342155">
        <ele>46.85</ele>
        <time>2025-02-16T18:04:40.895Z</time>
      </trkpt>
      <trkpt lat="59.12158193998039" lon="14.091049935668707">
        <ele>46.75</ele>
        <time>2025-02-16T18:05:35.193Z</time>
      </trkpt>
      <trkpt lat="59.12162493914366" lon="14.090884979814291">
        <ele>46.65</ele>
        <time>2025-02-16T18:06:29.493Z</time>
      </trkpt>
      <trkpt lat="59.12166592665017" lon="14.090717928484082">
        <ele>46.56</ele>
        <time>2025-02-16T18:07:23.794Z</time>
      </trkpt>
      <trkpt lat="59.12170599214733" lon="14.090550960972905">
        <ele>46.46</ele>
        <time>2025-02-16T18:08:18.097Z</time>
      </trkpt>
      <trkpt lat="59.12174295634031" lon="14.090377958491445">
        <ele>46.37</ele>
        <time>2025-02-16T18:09:12.401Z</time>
      </trkpt>
      <trkpt lat="59.12178092636168" lon="14.090203950181603">
        <ele>46.29</ele>
        <time>2025-02-16T18:10:06.707Z</time>
      </trkpt>
      <trkpt lat="59.12181898020208" lon="14.090027930215001">
        <ele>46.2</ele>
        <time>2025-02-16T18:11:01.014Z</time>
      </trkpt>
      <trkpt lat="59.121856950223446" lon="14.08984998241067">
        <ele>46.11</ele>
        <time>2025-02-16T18:11:55.323Z</time>
      </trkpt>
      <trkpt lat="59.12189299240708" lon="14.089668933302164">
        <ele>46.02</ele>
        <time>2025-02-16T18:12:49.633Z</time>
      </trkpt>
      <trkpt lat="59.12192794494331" lon="14.08948796801269">
        <ele>45.93</ele>
        <time>2025-02-16T18:13:43.945Z</time>
      </trkpt>
      <trkpt lat="59.121960969641805" lon="14.089306918904185">
        <ele>45.85</ele>
        <time>2025-02-16T18:14:38.259Z</time>
      </trkpt>
      <trkpt lat="59.12199298851192" lon="14.089126959443092">
        <ele>45.77</ele>
        <time>2025-02-16T18:15:32.574Z</time>
      </trkpt>
      <trkpt lat="59.12202391773462" lon="14.088946999982">
        <ele>45.7</ele>
        <time>2025-02-16T18:16:26.891Z</time>
      </trkpt>
      <trkpt lat="59.12205392494798" lon="14.088765950873494">
        <ele>45.62</ele>
        <time>2025-02-16T18:17:21.209Z</time>
      </trkpt>
      <trkpt lat="59.12208099849522" lon="14.08858397975564">
        <ele>45.56</ele>
        <time>2025-02-16T18:18:15.529Z</time>
      </trkpt>
      <trkpt lat="59.12210798822343" lon="14.088402930647135">
        <ele>45.5</ele>
        <time>2025-02-16T18:19:09.850Z</time>
      </trkpt>
      <trkpt lat="59.122132966294885" lon="14.088224982842803">
        <ele>45.45</ele>
        <time>2025-02-16T18:20:04.173Z</time>
      </trkpt>
      <trkpt lat="59.122154926881194" lon="14.08804695121944">
        <ele>45.4</ele>
        <time>2025-02-16T18:20:58.497Z</time>
      </trkpt>
      <trkpt lat="59.122175965458155" lon="14.087869925424457">
        <ele>45.35</ele>
        <time>2025-02-16T18:21:52.823Z</time>
      </trkpt>
      <trkpt lat="59.12219692021608" lon="14.087695917114615">
        <ele>45.31</ele>
        <time>2025-02-16T18:22:47.150Z</time>
      </trkpt>
      <trkpt lat="59.12221695296466" lon="14.087522998452187">
        <ele>45.26</ele>
        <time>2025-02-16T18:23:41.479Z</time>
      </trkpt>
      <trkpt lat="59.12223597988486" lon="14.087347984313965">
        <ele>45.22</ele>
        <time>2025-02-16T18:24:35.809Z</time>
      </trkpt>
      <trkpt lat="59.12225391715765" lon="14.087170958518982">
        <ele>45.17</ele>
        <time>2025-02-16T18:25:30.141Z</time>
      </trkpt>
      <trkpt lat="59.12227193824947" lon="14.086993932723999">
        <ele>45.11</ele>
        <time>2025-02-16T18:26:24.474Z</time>
      </trkpt>
      <trkpt lat="59.122287947684526" lon="14.086814979091287">
        <ele>45.06</ele>
        <time>2025-02-16T18:27:18.809Z</time>
      </trkpt>
      <trkpt lat="59.122303957119584" lon="14.086635941639543">
        <ele>45.0</ele>
        <time>2025-02-16T18:28:13.145Z</time>
      </trkpt>
      <trkpt lat="59.12231795489788" lon="14.086454976350069">
        <ele>44.95</ele>
        <time>2025-02-16T18:29:07.483Z</time>
      </trkpt>
      <trkpt lat="59.12233195267618" lon="14.086273927241564">
        <ele>44.9</ele>
        <time>2025-02-16T18:30:01.822Z</time>
      </trkpt>
      <trkpt lat="59.12234494462609" lon="14.086095979437232">
        <ele>44.86</ele>
        <time>2025-02-16T18:30:56.163Z</time>
      </trkpt>
      <trkpt lat="59.12235693074763" lon="14.08592096529901">
        <ele>44.82</ele>
        <time>2025-02-16T18:31:50.505Z</time>
      </trkpt>
      <trkpt lat="59.12236891686916" lon="14.08574695698917">
        <ele>44.78</ele>
        <time>2025-02-16T18:32:44.849Z</time>
      </trkpt>
      <trkpt lat="59.12237998098135" lon="14.085572948679328">
        <ele>44.75</ele>
        <time>2025-02-16T18:33:39.194Z</time>
      </trkpt>
      <trkpt lat="59.122390961274505" lon="14.085401957854629">
        <ele>44.72</ele>
        <time>2025-02-16T18:34:33.541Z</time>
      </trkpt>
      <trkpt lat="59.12240093573928" lon="14.08523197285831">
        <ele>44.69</ele>
        <time>2025-02-16T18:35:27.889Z</time>
      </trkpt>
      <trkpt lat="59.122409988194704" lon="14.085062993690372">
        <ele>44.67</ele>
        <time>2025-02-16T18:36:22.238Z</time>
      </trkpt>
      <trkpt lat="59.122415939345956" lon="14.084895942360163">
        <ele>44.66</ele>
        <time>2025-02-16T18:37:16.589Z</time>
      </trkpt>
      <trkpt lat="59.12242096848786" lon="14.084732998162508">
        <ele>44.64</ele>
        <time>2025-02-16T18:38:10.941Z</time>
      </trkpt>
      <trkpt lat="59.12242298014462" lon="14.084578938782215">
        <ele>44.64</ele>
        <time>2025-02-16T18:39:05.294Z</time>
      </trkpt>
      <trkpt lat="59.122423985973" lon="14.084435943514109">
        <ele>44.63</ele>
        <time>2025-02-16T18:39:59.649Z</time>
      </trkpt>
      <trkpt lat="59.122423985973" lon="14.084303928539157">
        <ele>44.63</ele>
        <time>2025-02-16T18:40:54.005Z</time>
      </trkpt>
      <trkpt lat="59.12242298014462" lon="14.084175936877728">
        <ele>44.64</ele>
        <time>2025-02-16T18:41:48.362Z</time>
      </trkpt>
      <trkpt lat="59.12242197431624" lon="14.084047945216298">
        <ele>44.65</ele>
        <time>2025-02-16T18:42:42.720Z</time>
      </trkpt>
      <trkpt lat="59.122415939345956" lon="14.083916936069727">
        <ele>44.65</ele>
        <time>2025-02-16T18:43:37.079Z</time>
      </trkpt>
      <trkpt lat="59.12240294739604" lon="14.083782993257046">
        <ele>44.67</ele>
        <time>2025-02-16T18:44:31.439Z</time>
      </trkpt>
      <trkpt lat="59.12238492630422" lon="14.083649972453713">
        <ele>44.68</ele>
        <time>2025-02-16T18:45:25.800Z</time>
      </trkpt>
      <trkpt lat="59.12236497737467" lon="14.083515945822">
        <ele>44.7</ele>
        <time>2025-02-16T18:46:20.162Z</time>
      </trkpt>
      <trkpt lat="59.12234092131257" lon="14.083380997180939">
        <ele>44.72</ele>
        <time>2025-02-16T18:47:14.525Z</time>
      </trkpt>
      <trkpt lat="59.12231393158436" lon="14.083248982205987">
        <ele>44.74</ele>
        <time>2025-02-16T18:48:08.890Z</time>
      </trkpt>
      <trkpt lat="59.122285936027765" lon="14.083119984716177">
        <ele>44.76</ele>
        <time>2025-02-16T18:49:03.256Z</time>
      </trkpt>
      <trkpt lat="59.12225693464279" lon="14.082993920892477">
        <ele>44.79</ele>
        <time>2025-02-16T18:49:57.623Z</time>
      </trkpt>
      <trkpt lat="59.1222289390862" lon="14.08286894671619">
        <ele>44.82</ele>
        <time>2025-02-16T18:50:51.991Z</time>
      </trkpt>
      <trkpt lat="59.12220899015665" lon="14.08273994922638">
        <ele>44.86</ele>
        <time>2025-02-16T18:51:46.360Z</time>
      </trkpt>
      <trkpt lat="59.12220496684313" lon="14.082607934251428">
        <ele>44.9</ele>
        <time>2025-02-16T18:52:40.730Z</time>
      </trkpt>
      <trkpt lat="59.12222298793495" lon="14.082484971731901">
        <ele>44.94</ele>
        <time>2025-02-16T18:53:35.101Z</time>
      </trkpt>
      <trkpt lat="59.122262969613075" lon="14.082386987283826">
        <ele>44.99</ele>
        <time>2025-02-16T18:54:29.473Z</time>
      </trkpt>
      <trkpt lat="59.12232097238302" lon="14.082318926230073">
        <ele>45.04</ele>
        <time>2025-02-16T18:55:23.846Z</time>
      </trkpt>
      <trkpt lat="59.12238894961774" lon="14.082269975915551">
        <ele>45.1</ele>
        <time>2025-02-16T18:56:18.221Z</time>
      </trkpt>
      <trkpt lat="59.122458938509226" lon="14.082228988409042">
        <ele>45.16</ele>
        <time>2025-02-16T18:57:12.597Z</time>
      </trkpt>
      <trkpt lat="59.12253093905747" lon="14.082189928740263">
        <ele>45.22</ele>
        <time>2025-02-16T18:58:06.974Z</time>
      </trkpt>
      <trkpt lat="59.122604951262474" lon="14.082151958718896">
        <ele>45.29</ele>
        <time>2025-02-16T18:59:01.352Z</time>
      </trkpt>
      <trkpt lat="59.1226779576391" lon="14.082113988697529">
        <ele>45.35</ele>
        <time>2025-02-16T18:59:55.731Z</time>
      </trkpt>
      <trkpt lat="59.1227519698441" lon="14.082073923200369">
        <ele>45.43</ele>
        <time>2025-02-16T19:00:50.112Z</time>
      </trkpt>
      <trkpt lat="59.12282698787749" lon="14.082035953179002">
        <ele>45.5</ele>
        <time>2025-02-16T19:01:44.494Z</time>
      </trkpt>
      <trkpt lat="59.12290192209184" lon="14.081997983157635">
        <ele>45.58</ele>
        <time>2025-02-16T19:02:38.877Z</time>
      </trkpt>
      <trkpt lat="59.122975934296846" lon="14.081957917660475">
        <ele>45.66</ele>
        <time>2025-02-16T19:03:33.261Z</time>
      </trkpt>
      <trkpt lat="59.12305195815861" lon="14.081915924325585">
        <ele>45.74</ele>
        <time>2025-02-16T19:04:27.647Z</time>
      </trkpt>
      <trkpt lat="59.123126976192" lon="14.081872925162315">
        <ele>45.83</ele>
        <time>2025-02-16T19:05:22.034Z</time>
      </trkpt>
      <trkpt lat="59.12320291623473" lon="14.081831937655807">
        <ele>45.92</ele>
        <time>2025-02-16T19:06:16.422Z</time>
      </trkpt>
      <trkpt lat="59.12327994592488" lon="14.081789944320917">
        <ele>46.01</ele>
        <time>2025-02-16T19:07:10.811Z</time>
      </trkpt>
      <trkpt lat="59.123355969786644" lon="14.081745939329267">
        <ele>46.11</ele>
        <time>2025-02-16T19:08:05.202Z</time>
      </trkpt>
      <trkpt lat="59.12342998199165" lon="14.081703945994377">
        <ele>46.2</ele>
        <time>2025-02-16T19:08:59.594Z</time>
      </trkpt>
      <trkpt lat="59.12350298836827" lon="14.081662958487868">
        <ele>46.3</ele>
        <time>2025-02-16T19:09:53.987Z</time>
      </trkpt>
      <trkpt lat="59.1235759947449" lon="14.081624988466501">
        <ele>46.41</ele>
        <time>2025-02-16T19:10:48.381Z</time>
      </trkpt>
      <trkpt lat="59.12364799529314" lon="14.081584922969341">
        <ele>46.51</ele>
        <time>2025-02-16T19:11:42.777Z</time>
      </trkpt>
      <trkpt lat="59.12371798418462" lon="14.081544941291213">
        <ele>46.61</ele>
        <time>2025-02-16T19:12:37.174Z</time>
      </trkpt>
      <trkpt lat="59.123785961419344" lon="14.081506971269846">
        <ele>46.72</ele>
        <time>2025-02-16T19:13:31.572Z</time>
      </trkpt>
      <trkpt lat="59.123854944482446" lon="14.081471934914589">
        <ele>46.83</ele>
        <time>2025-02-16T19:14:25.971Z</time>
      </trkpt>
      <trkpt lat="59.12392199970782" lon="14.081435976549983">
        <ele>46.94</ele>
        <time>2025-02-16T19:15:20.371Z</time>
      </trkpt>
      <trkpt lat="59.1239869594574" lon="14.081402951851487">
        <ele>47.06</ele>
        <time>2025-02-16T19:16:14.772Z</time>
      </trkpt>
      <trkpt lat="59.12405292503536" lon="14.081371938809752">
        <ele>47.18</ele>
        <time>2025-02-16T19:17:09.174Z</time>
      </trkpt>
      <trkpt lat="59.12411998026073" lon="14.08134394325316">
        <ele>47.3</ele>
        <time>2025-02-16T19:18:03.577Z</time>
      </trkpt>
      <trkpt lat="59.12418996915221" lon="14.081315947696567">
        <ele>47.42</ele>
        <time>2025-02-16T19:18:57.982Z</time>
      </trkpt>
      <trkpt lat="59.124258952215314" lon="14.081288957968354">
        <ele>47.55</ele>
        <time>2025-02-16T19:19:52.388Z</time>
      </trkpt>
      <trkpt lat="59.12432994693518" lon="14.081260962411761">
        <ele>47.68</ele>
        <time>2025-02-16T19:20:46.795Z</time>
      </trkpt>
      <trkpt lat="59.12440194748342" lon="14.08123598434031">
        <ele>47.81</ele>
        <time>2025-02-16T19:21:41.203Z</time>
      </trkpt>
      <trkpt lat="59.124475959688425" lon="14.08121695742011">
        <ele>47.93</ele>
        <time>2025-02-16T19:22:35.612Z</time>
      </trkpt>
      <trkpt lat="59.12455198355019" lon="14.081202959641814">
        <ele>48.06</ele>
        <time>2025-02-16T19:23:30.022Z</time>
      </trkpt>
      <trkpt lat="59.124627923592925" lon="14.081190973520279">
        <ele>48.19</ele>
        <time>2025-02-16T19:24:24.434Z</time>
      </trkpt>
      <trkpt lat="59.12470495328307" lon="14.081179993227124">
        <ele>48.33</ele>
        <time>2025-02-16T19:25:18.847Z</time>
      </trkpt>
      <trkpt lat="59.12478198297322" lon="14.081170940771699">
        <ele>48.46</ele>
        <time>2025-02-16T19:26:13.261Z</time>
      </trkpt>
      <trkpt lat="59.12485892884433" lon="14.081165995448828">
        <ele>48.6</ele>
        <time>2025-02-16T19:27:07.676Z</time>
      </trkpt>
      <trkpt lat="59.12493595853448" lon="14.081166917458177">
        <ele>48.74</ele>
        <time>2025-02-16T19:28:02.093Z</time>
      </trkpt>
      <trkpt lat="59.125012988224626" lon="14.081169934943318">
        <ele>48.88</ele>
        <time>2025-02-16T19:28:56.511Z</time>
      </trkpt>
      <trkpt lat="59.12509093992412" lon="14.081175969913602">
        <ele>49.02</ele>
        <time>2025-02-16T19:29:50.930Z</time>
      </trkpt>
      <trkpt lat="59.12516796961427" lon="14.081181921064854">
        <ele>49.17</ele>
        <time>2025-02-16T19:30:45.350Z</time>
      </trkpt>
      <trkpt lat="59.125244999304414" lon="14.08119197934866">
        <ele>49.32</ele>
        <time>2025-02-16T19:31:39.772Z</time>
      </trkpt>
      <trkpt lat="59.12532194517553" lon="14.081201953813434">
        <ele>49.47</ele>
        <time>2025-02-16T19:32:34.195Z</time>
      </trkpt>
      <trkpt lat="59.125398974865675" lon="14.081209916621447">
        <ele>49.62</ele>
        <time>2025-02-16T19:33:28.619Z</time>
      </trkpt>
      <trkpt lat="59.12547499872744" lon="14.08121695742011">
        <ele>49.78</ele>
        <time>2025-02-16T19:34:23.044Z</time>
      </trkpt>
      <trkpt lat="59.125552950426936" lon="14.081219974905252">
        <ele>49.93</ele>
        <time>2025-02-16T19:35:17.471Z</time>
      </trkpt>
      <trkpt lat="59.125631991773844" lon="14.081221986562014">
        <ele>50.09</ele>
        <time>2025-02-16T19:36:11.899Z</time>
      </trkpt>
      <trkpt lat="59.12571296095848" lon="14.081225926056504">
        <ele>50.25</ele>
        <time>2025-02-16T19:37:06.328Z</time>
      </trkpt>
      <trkpt lat="59.12579594179988" lon="14.081228943541646">
        <ele>50.41</ele>
        <time>2025-02-16T19:38:00.758Z</time>
      </trkpt>
      <trkpt lat="59.12587992846966" lon="14.081231961026788">
        <ele>50.57</ele>
        <time>2025-02-16T19:38:55.190Z</time>
      </trkpt>
      <trkpt lat="59.12596492096782" lon="14.08123598434031">
        <ele>50.73</ele>
        <time>2025-02-16T19:39:49.623Z</time>
      </trkpt>
      <trkpt lat="59.12604999728501" lon="14.0812399238348">
        <ele>50.9</ele>
        <time>2025-02-16T19:40:44.057Z</time>
      </trkpt>
      <trkpt lat="59.12613398395479" lon="14.081244952976704">
        <ele>51.07</ele>
        <time>2025-02-16T19:41:38.493Z</time>
      </trkpt>
      <trkpt lat="59.126216964796185" lon="14.081250987946987">
        <ele>51.24</ele>
        <time>2025-02-16T19:42:32.930Z</time>
      </trkpt>
      <trkpt lat="59.1262989398092" lon="14.081255933269858">
        <ele>51.41</ele>
        <time>2025-02-16T19:43:27.368Z</time>
      </trkpt>
      <trkpt lat="59.12638099864125" lon="14.081262974068522">
        <ele>51.58</ele>
        <time>2025-02-16T19:44:21.808Z</time>
      </trkpt>
      <trkpt lat="59.12646196782589" lon="14.081267919391394">
        <ele>51.76</ele>
        <time>2025-02-16T19:45:16.249Z</time>
      </trkpt>
      <trkpt lat="59.126540925353765" lon="14.081272948533297">
        <ele>51.94</ele>
        <time>2025-02-16T19:46:10.691Z</time>
      </trkpt>
      <trkpt lat="59.12661896087229" lon="14.081275966018438">
        <ele>52.12</ele>
        <time>2025-02-16T19:47:05.135Z</time>
      </trkpt>
      <trkpt lat="59.12669498473406" lon="14.081276971846819">
        <ele>52.29</ele>
        <time>2025-02-16T19:47:59.580Z</time>
      </trkpt>
      <trkpt lat="59.12676991894841" lon="14.0812779776752">
        <ele>52.47</ele>
        <time>2025-02-16T19:48:54.026Z</time>
      </trkpt>
      <trkpt lat="59.12684393115342" lon="14.081275966018438">
        <ele>52.64</ele>
        <time>2025-02-16T19:49:48.473Z</time>
      </trkpt>
      <trkpt lat="59.12691693753004" lon="14.081270936876535">
        <ele>52.82</ele>
        <time>2025-02-16T19:50:42.921Z</time>
      </trkpt>
      <trkpt lat="59.126988938078284" lon="14.081264985725284">
        <ele>52.99</ele>
        <time>2025-02-16T19:51:37.371Z</time>
      </trkpt>
      <trkpt lat="59.12705993279815" lon="14.081253921613097">
        <ele>53.17</ele>
        <time>2025-02-16T19:52:31.822Z</time>
      </trkpt>
      <trkpt lat="59.12712899968028" lon="14.081240929663181">
        <ele>53.34</ele>
        <time>2025-02-16T19:53:26.274Z</time>
      </trkpt>
      <trkpt lat="59.12719798274338" lon="14.081227937713265">
        <ele>53.51</ele>
        <time>2025-02-16T19:54:20.727Z</time>
      </trkpt>
      <trkpt lat="59.127266965806484" lon="14.081210922449827">
        <ele>53.68</ele>
        <time>2025-02-16T19:55:15.181Z</time>
      </trkpt>
      <trkpt lat="59.127333937212825" lon="14.081190973520279">
        <ele>53.85</ele>
        <time>2025-02-16T19:56:09.636Z</time>
      </trkpt>
      <trkpt lat="59.127398980781436" lon="14.081167923286557">
        <ele>54.02</ele>
        <time>2025-02-16T19:57:04.092Z</time>
      </trkpt>
      <trkpt lat="59.127463940531015" lon="14.081139927729964">
        <ele>54.19</ele>
        <time>2025-02-16T19:57:58.549Z</time>
      </trkpt>
      <trkpt lat="59.127526972442865" lon="14.081111932173371">
        <ele>54.36</ele>
        <time>2025-02-16T19:58:53.007Z</time>
      </trkpt>
      <trkpt lat="59.127590926364064" lon="14.081081924960017">
        <ele>54.53</ele>
        <time>2025-02-16T19:59:47.466Z</time>
      </trkpt>
      <trkpt lat="59.127655969932675" lon="14.081050995737314">
        <ele>54.7</ele>
        <time>2025-02-16T20:00:41.926Z</time>
      </trkpt>
      <trkpt lat="59.127719923853874" lon="14.081014953553677">
        <ele>54.86</ele>
        <time>2025-02-16T20:01:36.387Z</time>
      </trkpt>
      <trkpt lat="59.127782955765724" lon="14.08097698353231">
        <ele>55.02</ele>
        <time>2025-02-16T20:02:30.850Z</time>
      </trkpt>
      <trkpt lat="59.127845987677574" lon="14.080939935520291">
        <ele>55.18</ele>
        <time>2025-02-16T20:03:25.314Z</time>
      </trkpt>
      <trkpt lat="59.12790994159877" lon="14.080900959670544">
        <ele>55.34</ele>
        <time>2025-02-16T20:04:19.779Z</time>
      </trkpt>
      <trkpt lat="59.12797297351062" lon="14.080860977992415">
        <ele>55.5</ele>
        <time>2025-02-16T20:05:14.245Z</time>
      </trkpt>
      <trkpt lat="59.12803499959409" lon="14.080818984657526">
        <ele>55.66</ele>
        <time>2025-02-16T20:06:08.712Z</time>
      </trkpt>
      <trkpt lat="59.12809493020177" lon="14.080772968009114">
        <ele>55.82</ele>
        <time>2025-02-16T20:07:03.180Z</time>
      </trkpt>
      <trkpt lat="59.1281539388001" lon="14.08072393387556">
        <ele>55.97</ele>
        <time>2025-02-16T20:07:57.649Z</time>
      </trkpt>
      <trkpt lat="59.128212947398424" lon="14.08067598938942">
        <ele>56.12</ele>
        <time>2025-02-16T20:08:52.119Z</time>
      </trkpt>
      <trkpt lat="59.12827396765351" lon="14.080627961084247">
        <ele>56.27</ele>
        <time>2025-02-16T20:09:46.590Z</time>
      </trkpt>
      <trkpt lat="59.1283349879086" lon="14.080576999112964">
        <ele>56.42</ele>
        <time>2025-02-16T20:10:41.062Z</time>
      </trkpt>
      <trkpt lat="59.12839592434466" lon="14.080525953322649">
        <ele>56.57</ele>
        <time>2025-02-16T20:11:35.535Z</time>
      </trkpt>
      <trkpt lat="59.12845895625651" lon="14.080474991351366">
        <ele>56.71</ele>
        <time>2025-02-16T20:12:30.009Z</time>
      </trkpt>
      <trkpt lat="59.12852098233998" lon="14.080423945561051">
        <ele>56.85</ele>
        <time>2025-02-16T20:13:24.484Z</time>
      </trkpt>
      <trkpt lat="59.128581918776035" lon="14.080372983589768">
        <ele>56.99</ele>
        <time>2025-02-16T20:14:18.960Z</time>
      </trkpt>
      <trkpt lat="59.12864193320274" lon="14.080322943627834">
        <ele>57.13</ele>
        <time>2025-02-16T20:15:13.437Z</time>
      </trkpt>
      <trkpt lat="59.12870194762945" lon="14.080274999141693">
        <ele>57.26</ele>
        <time>2025-02-16T20:16:07.915Z</time>
      </trkpt>
      <trkpt lat="59.12876397371292" lon="14.0802279766649">
        <ele>57.39</ele>
        <time>2025-02-16T20:17:02.394Z</time>
      </trkpt>
      <trkpt lat="59.12882692180574" lon="14.080181960016489">
        <ele>57.52</ele>
        <time>2025-02-16T20:17:56.875Z</time>
      </trkpt>
      <trkpt lat="59.12888995371759" lon="14.080133931711316">
        <ele>57.64</ele>
        <time>2025-02-16T20:18:51.357Z</time>
      </trkpt>
      <trkpt lat="59.12895399145782" lon="14.080088920891285">
        <ele>57.76</ele>
        <time>2025-02-16T20:19:45.840Z</time>
      </trkpt>
      <trkpt lat="59.12901794537902" lon="14.080046927556396">
        <ele>57.88</ele>
        <time>2025-02-16T20:20:40.324Z</time>
      </trkpt>
      <trkpt lat="59.12908198311925" lon="14.080005940049887">
        <ele>58.0</ele>
        <time>2025-02-16T20:21:34.809Z</time>
      </trkpt>
      <trkpt lat="59.12914794869721" lon="14.07996998168528">
        <ele>58.11</ele>
        <time>2025-02-16T20:22:29.295Z</time>
      </trkpt>
      <trkpt lat="59.12921592593193" lon="14.079931927844882">
        <ele>58.23</ele>
        <time>2025-02-16T20:23:23.782Z</time>
      </trkpt>
      <trkpt lat="59.129285998642445" lon="14.079891946166754">
        <ele>58.34</ele>
        <time>2025-02-16T20:24:18.270Z</time>
      </trkpt>
      <trkpt lat="59.12935598753393" lon="14.079853976145387">
        <ele>58.45</ele>
        <time>2025-02-16T20:25:12.759Z</time>
      </trkpt>
      <trkpt lat="59.12942698225379" lon="14.079813994467258">
        <ele>58.55</ele>
        <time>2025-02-16T20:26:07.250Z</time>
      </trkpt>
      <trkpt lat="59.129499988630414" lon="14.079774934798479">
        <ele>58.65</ele>
        <time>2025-02-16T20:27:01.742Z</time>
      </trkpt>
      <trkpt lat="59.12957098335028" lon="14.079737970605493">
        <ele>58.75</ele>
        <time>2025-02-16T20:27:56.235Z</time>
      </trkpt>
      <trkpt lat="59.12964197807014" lon="14.079701928421855">
        <ele>58.85</ele>
        <time>2025-02-16T20:28:50.729Z</time>
      </trkpt>
      <trkpt lat="59.12971397861838" lon="14.079665970057249">
        <ele>58.95</ele>
        <time>2025-02-16T20:29:45.224Z</time>
      </trkpt>
      <trkpt lat="59.12978698499501" lon="14.079629927873611">
        <ele>59.04</ele>
        <time>2025-02-16T20:30:39.721Z</time>
      </trkpt>
      <trkpt lat="59.12986191920936" lon="14.079591957852244">
        <ele>59.13</ele>
        <time>2025-02-16T20:31:34.219Z</time>
      </trkpt>
      <trkpt lat="59.12993794307113" lon="14.079548958688974">
        <ele>59.23</ele>
        <time>2025-02-16T20:32:28.718Z</time>
      </trkpt>
      <trkpt lat="59.13001296110451" lon="14.079503947868943">
        <ele>59.32</ele>
        <time>2025-02-16T20:33:23.218Z</time>
      </trkpt>
      <trkpt lat="59.13008898496628" lon="14.079458937048912">
        <ele>59.41</ele>
        <time>2025-02-16T20:34:17.720Z</time>
      </trkpt>
      <trkpt lat="59.13016492500901" lon="14.079411998391151">
        <ele>59.5</ele>
        <time>2025-02-16T20:35:12.223Z</time>
      </trkpt>
      <trkpt lat="59.13023893721402" lon="14.079361958429217">
        <ele>59.58</ele>
        <time>2025-02-16T20:36:06.727Z</time>
      </trkpt>
      <trkpt lat="59.13031496107578" lon="14.079309990629554">
        <ele>59.67</ele>
        <time>2025-02-16T20:37:01.232Z</time>
      </trkpt>
      <trkpt lat="59.13038897328079" lon="14.079256933182478">
        <ele>59.76</ele>
        <time>2025-02-16T20:37:55.739Z</time>
      </trkpt>
      <trkpt lat="59.13046298548579" lon="14.07919691875577">
        <ele>59.84</ele>
        <time>2025-02-16T20:38:50.247Z</time>
      </trkpt>
      <trkpt lat="59.1305369976908" lon="14.07913296483457">
        <ele>59.91</ele>
        <time>2025-02-16T20:39:44.756Z</time>
      </trkpt>
      <trkpt lat="59.13061092607677" lon="14.07906599342823">
        <ele>59.98</ele>
        <time>2025-02-16T20:40:39.267Z</time>
      </trkpt>
      <trkpt lat="59.130684938281775" lon="14.078995920717716">
        <ele>60.05</ele>
        <time>2025-02-16T20:41:33.779Z</time>
      </trkpt>
      <trkpt lat="59.1307579446584" lon="14.078920986503363">
        <ele>60.12</ele>
        <time>2025-02-16T20:42:28.292Z</time>
      </trkpt>
      <trkpt lat="59.13082893937826" lon="14.078841945156455">
        <ele>60.18</ele>
        <time>2025-02-16T20:43:22.807Z</time>
      </trkpt>
      <trkpt lat="59.13089792244136" lon="14.07876298762858">
        <ele>60.24</ele>
        <time>2025-02-16T20:44:17.323Z</time>
      </trkpt>
      <trkpt lat="59.130965983495116" lon="14.07868092879653">
        <ele>60.29</ele>
        <time>2025-02-16T20:45:11.840Z</time>
      </trkpt>
      <trkpt lat="59.131029937416315" lon="14.078592918813229">
        <ele>60.35</ele>
        <time>2025-02-16T20:46:06.358Z</time>
      </trkpt>
      <trkpt lat="59.13109598681331" lon="14.07850499264896">
        <ele>60.4</ele>
        <time>2025-02-16T20:47:00.878Z</time>
      </trkpt>
      <trkpt lat="59.131160946562886" lon="14.078413965180516">
        <ele>60.45</ele>
        <time>2025-02-16T20:47:55.399Z</time>
      </trkpt>
      <trkpt lat="59.13122498430312" lon="14.078320926055312">
        <ele>60.5</ele>
        <time>2025-02-16T20:48:49.921Z</time>
      </trkpt>
      <trkpt lat="59.131287932395935" lon="14.07822696492076">
        <ele>60.54</ele>
        <time>2025-02-16T20:49:44.445Z</time>
      </trkpt>
      <trkpt lat="59.131350964307785" lon="14.078131997957826">
        <ele>60.59</ele>
        <time>2025-02-16T20:50:38.970Z</time>
      </trkpt>
      <trkpt lat="59.131414918228984" lon="14.07803594134748">
        <ele>60.63</ele>
        <time>2025-02-16T20:51:33.496Z</time>
      </trkpt>
      <trkpt lat="59.131478955969214" lon="14.077939968556166">
        <ele>60.68</ele>
        <time>2025-02-16T20:52:28.023Z</time>
      </trkpt>
      <trkpt lat="59.131542993709445" lon="14.07784097827971">
        <ele>60.73</ele>
        <time>2025-02-16T20:53:22.552Z</time>
      </trkpt>
      <trkpt lat="59.131608959287405" lon="14.077740982174873">
        <ele>60.77</ele>
        <time>2025-02-16T20:54:17.082Z</time>
      </trkpt>
      <trkpt lat="59.131674924865365" lon="14.077640986070037">
        <ele>60.8</ele>
        <time>2025-02-16T20:55:11.613Z</time>
      </trkpt>
      <trkpt lat="59.13174198009074" lon="14.077541995793581">
        <ele>60.84</ele>
        <time>2025-02-16T20:56:06.146Z</time>
      </trkpt>
      <trkpt lat="59.1318079456687" lon="14.077440993860364">
        <ele>60.88</ele>
        <time>2025-02-16T20:57:00.680Z</time>
      </trkpt>
      <trkpt lat="59.13187491707504" lon="14.077338986098766">
        <ele>60.91</ele>
        <time>2025-02-16T20:57:55.215Z</time>
      </trkpt>
      <trkpt lat="59.13194197230041" lon="14.077236978337169">
        <ele>60.94</ele>
        <time>2025-02-16T20:58:49.752Z</time>
      </trkpt>
      <trkpt lat="59.13200793787837" lon="14.077134970575571">
        <ele>60.96</ele>
        <time>2025-02-16T20:59:44.290Z</time>
      </trkpt>
      <trkpt lat="59.13207298144698" lon="14.077031956985593">
        <ele>60.98</ele>
        <time>2025-02-16T21:00:38.830Z</time>
      </trkpt>
      <trkpt lat="59.13213794119656" lon="14.076928943395615">
        <ele>61.0</ele>
        <time>2025-02-16T21:01:33.371Z</time>
      </trkpt>
      <trkpt lat="59.13220298476517" lon="14.076828947290778">
        <ele>61.02</ele>
        <time>2025-02-16T21:02:27.913Z</time>
      </trkpt>
      <trkpt lat="59.13226794451475" lon="14.076729957014322">
        <ele>61.02</ele>
        <time>2025-02-16T21:03:22.457Z</time>
      </trkpt>
      <trkpt lat="59.13233298808336" lon="14.076629960909486">
        <ele>61.02</ele>
        <time>2025-02-16T21:04:17.002Z</time>
      </trkpt>
      <trkpt lat="59.13239895366132" lon="14.076526947319508">
        <ele>61.02</ele>
        <time>2025-02-16T21:05:11.548Z</time>
      </trkpt>
      <trkpt lat="59.13246491923928" lon="14.076422927901149">
        <ele>61.02</ele>
        <time>2025-02-16T21:06:06.096Z</time>
      </trkpt>
      <trkpt lat="59.132531974464655" lon="14.076320920139551">
        <ele>61.02</ele>
        <time>2025-02-16T21:07:00.645Z</time>
      </trkpt>
      <trkpt lat="59.132599951699376" lon="14.076216984540224">
        <ele>61.01</ele>
        <time>2025-02-16T21:07:55.195Z</time>
      </trkpt>
      <trkpt lat="59.13266893476248" lon="14.076114976778626">
        <ele>61.0</ele>
        <time>2025-02-16T21:08:49.747Z</time>
      </trkpt>
      <trkpt lat="59.13273791782558" lon="14.07601397484541">
        <ele>60.99</ele>
        <time>2025-02-16T21:09:44.300Z</time>
      </trkpt>
      <trkpt lat="59.13280597887933" lon="14.075913978740573">
        <ele>60.97</ele>
        <time>2025-02-16T21:10:38.854Z</time>
      </trkpt>
      <trkpt lat="59.132873956114054" lon="14.075814988464117">
        <ele>60.96</ele>
        <time>2025-02-16T21:11:33.410Z</time>
      </trkpt>
      <trkpt lat="59.132943945005536" lon="14.07571792602539">
        <ele>60.94</ele>
        <time>2025-02-16T21:12:27.967Z</time>
      </trkpt>
      <trkpt lat="59.1330149397254" lon="14.075623964890838">
        <ele>60.91</ele>
        <time>2025-02-16T21:13:22.526Z</time>
      </trkpt>
      <trkpt lat="59.13308694027364" lon="14.075532937422395">
        <ele>60.87</ele>
        <time>2025-02-16T21:14:17.086Z</time>
      </trkpt>
      <trkpt lat="59.13315994665027" lon="14.075443921610713">
        <ele>60.83</ele>
        <time>2025-02-16T21:15:11.647Z</time>
      </trkpt>
      <trkpt lat="59.13323295302689" lon="14.075358929112554">
        <ele>60.8</ele>
        <time>2025-02-16T21:16:06.210Z</time>
      </trkpt>
      <trkpt lat="59.133305959403515" lon="14.075278965756297">
        <ele>60.75</ele>
        <time>2025-02-16T21:17:00.774Z</time>
      </trkpt>
      <trkpt lat="59.13337795995176" lon="14.07520193606615">
        <ele>60.71</ele>
        <time>2025-02-16T21:17:55.339Z</time>
      </trkpt>
      <trkpt lat="59.13344694301486" lon="14.075128929689527">
        <ele>60.67</ele>
        <time>2025-02-16T21:18:49.906Z</time>
      </trkpt>
      <trkpt lat="59.13351592607796" lon="14.075059946626425">
        <ele>60.63</ele>
        <time>2025-02-16T21:19:44.474Z</time>
      </trkpt>
      <trkpt lat="59.133583987131715" lon="14.074993981048465">
        <ele>60.58</ele>
        <time>2025-02-16T21:20:39.043Z</time>
      </trkpt>
      <trkpt lat="59.13365297019482" lon="14.074930949136615">
        <ele>60.54</ele>
        <time>2025-02-16T21:21:33.613Z</time>
      </trkpt>
      <trkpt lat="59.13372396491468" lon="14.074871940538287">
        <ele>60.49</ele>
        <time>2025-02-16T21:22:28.185Z</time>
      </trkpt>
      <trkpt lat="59.133796971291304" lon="14.074817961081862">
        <ele>60.45</ele>
        <time>2025-02-16T21:23:22.758Z</time>
      </trkpt>
      <trkpt lat="59.13387198932469" lon="14.074765993282199">
        <ele>60.4</ele>
        <time>2025-02-16T21:24:17.332Z</time>
      </trkpt>
      <trkpt lat="59.133950946852565" lon="14.074715953320265">
        <ele>60.34</ele>
        <time>2025-02-16T21:25:11.907Z</time>
      </trkpt>
      <trkpt lat="59.13403099402785" lon="14.074668930843472">
        <ele>60.29</ele>
        <time>2025-02-16T21:26:06.484Z</time>
      </trkpt>
      <trkpt lat="59.13411296904087" lon="14.074622998014092">
        <ele>60.23</ele>
        <time>2025-02-16T21:27:01.062Z</time>
      </trkpt>
      <trkpt lat="59.13419494405389" lon="14.0745759755373">
        <ele>60.16</ele>
        <time>2025-02-16T21:27:55.642Z</time>
      </trkpt>
      <trkpt lat="59.13427599705756" lon="14.074528953060508">
        <ele>60.09</ele>
        <time>2025-02-16T21:28:50.223Z</time>
      </trkpt>
      <trkpt lat="59.134357972070575" lon="14.074478996917605">
        <ele>60.02</ele>
        <time>2025-02-16T21:29:44.805Z</time>
      </trkpt>
      <trkpt lat="59.13443994708359" lon="14.07442593947053">
        <ele>59.95</ele>
        <time>2025-02-16T21:30:39.389Z</time>
      </trkpt>
      <trkpt lat="59.13452192209661" lon="14.074372965842485">
        <ele>59.87</ele>
        <time>2025-02-16T21:31:33.974Z</time>
      </trkpt>
      <trkpt lat="59.13460599258542" lon="14.074319992214441">
        <ele>59.8</ele>
        <time>2025-02-16T21:32:28.560Z</time>
      </trkpt>
      <trkpt lat="59.13469098508358" lon="14.074269952252507">
        <ele>59.73</ele>
        <time>2025-02-16T21:33:23.148Z</time>
      </trkpt>
      <trkpt lat="59.13477597758174" lon="14.074217984452844">
        <ele>59.65</ele>
        <time>2025-02-16T21:34:17.737Z</time>
      </trkpt>
      <trkpt lat="59.13485996425152" lon="14.074165932834148">
        <ele>59.58</ele>
        <time>2025-02-16T21:35:12.328Z</time>
      </trkpt>
      <trkpt lat="59.1349439509213" lon="14.074121927842498">
        <ele>59.51</ele>
        <time>2025-02-16T21:36:06.920Z</time>
      </trkpt>
      <trkpt lat="59.13502994924784" lon="14.074077922850847">
        <ele>59.43</ele>
        <time>2025-02-16T21:37:01.514Z</time>
      </trkpt>
      <trkpt lat="59.135113935917616" lon="14.074032995849848">
        <ele>59.35</ele>
        <time>2025-02-16T21:37:56.109Z</time>
      </trkpt>
      <trkpt lat="59.135197922587395" lon="14.073986979201436">
        <ele>59.26</ele>
        <time>2025-02-16T21:38:50.705Z</time>
      </trkpt>
      <trkpt lat="59.135280987247825" lon="14.073939956724644">
        <ele>59.17</ele>
        <time>2025-02-16T21:39:45.303Z</time>
      </trkpt>
      <trkpt lat="59.13536195643246" lon="14.07389092259109">
        <ele>59.08</ele>
        <time>2025-02-16T21:40:39.902Z</time>
      </trkpt>
      <trkpt lat="59.13544393144548" lon="14.073841972276568">
        <ele>59.0</ele>
        <time>2025-02-16T21:41:34.502Z</time>
      </trkpt>
      <trkpt lat="59.13552297279239" lon="14.073788998648524">
        <ele>58.9</ele>
        <time>2025-02-16T21:42:29.104Z</time>
      </trkpt>
      <trkpt lat="59.13560293614864" lon="14.073734935373068">
        <ele>58.81</ele>
        <time>2025-02-16T21:43:23.707Z</time>
      </trkpt>
      <trkpt lat="59.13568298332393" lon="14.073680955916643">
        <ele>58.71</ele>
        <time>2025-02-16T21:44:18.312Z</time>
      </trkpt>
      <trkpt lat="59.13576596416533" lon="14.073625970631838">
        <ele>58.62</ele>
        <time>2025-02-16T21:45:12.918Z</time>
      </trkpt>
      <trkpt lat="59.13584995083511" lon="14.073569979518652">
        <ele>58.53</ele>
        <time>2025-02-16T21:46:07.525Z</time>
      </trkpt>
      <trkpt lat="59.13593393750489" lon="14.073510970920324">
        <ele>58.44</ele>
        <time>2025-02-16T21:47:02.134Z</time>
      </trkpt>
      <trkpt lat="59.136016918346286" lon="14.073451962321997">
        <ele>58.35</ele>
        <time>2025-02-16T21:47:56.744Z</time>
      </trkpt>
      <trkpt lat="59.136100988835096" lon="14.073389936238527">
        <ele>58.27</ele>
        <time>2025-02-16T21:48:51.356Z</time>
      </trkpt>
      <trkpt lat="59.136182963848114" lon="14.073319947347045">
        <ele>58.19</ele>
        <time>2025-02-16T21:49:45.969Z</time>
      </trkpt>
      <trkpt lat="59.13626393303275" lon="14.07324593514204">
        <ele>58.11</ele>
        <time>2025-02-16T21:50:40.583Z</time>
      </trkpt>
      <trkpt lat="59.1363459918648" lon="14.073163960129023">
        <ele>58.03</ele>
        <time>2025-02-16T21:51:35.199Z</time>
      </trkpt>
      <trkpt lat="59.13642696104944" lon="14.07307494431734">
        <ele>57.95</ele>
        <time>2025-02-16T21:52:29.816Z</time>
      </trkpt>
      <trkpt lat="59.136507930234075" lon="14.072979977354407">
        <ele>57.87</ele>
        <time>2025-02-16T21:53:24.435Z</time>
      </trkpt>
      <trkpt lat="59.13659191690385" lon="14.072875957936049">
        <ele>57.79</ele>
        <time>2025-02-16T21:54:19.056Z</time>
      </trkpt>
      <trkpt lat="59.136676993221045" lon="14.072763975709677">
        <ele>57.7</ele>
        <time>2025-02-16T21:55:13.678Z</time>
      </trkpt>
      <trkpt lat="59.13676097989082" lon="14.07264495268464">
        <ele>57.62</ele>
        <time>2025-02-16T21:56:08.302Z</time>
      </trkpt>
      <trkpt lat="59.13684396073222" lon="14.072517966851592">
        <ele>57.53</ele>
        <time>2025-02-16T21:57:02.928Z</time>
      </trkpt>
      <trkpt lat="59.13692492991686" lon="14.072390981018543">
        <ele>57.44</ele>
        <time>2025-02-16T21:57:57.555Z</time>
      </trkpt>
      <trkpt lat="59.137003971263766" lon="14.072267934679985">
        <ele>57.35</ele>
        <time>2025-02-16T21:58:52.184Z</time>
      </trkpt>
      <trkpt lat="59.13707999512553" lon="14.072148995473981">
        <ele>57.28</ele>
        <time>2025-02-16T21:59:46.814Z</time>
      </trkpt>
      <trkpt lat="59.137152917683125" lon="14.072033995762467">
        <ele>57.2</ele>
        <time>2025-02-16T22:00:41.446Z</time>
      </trkpt>
      <trkpt lat="59.13722399622202" lon="14.071922935545444">
        <ele>57.12</ele>
        <time>2025-02-16T22:01:36.079Z</time>
      </trkpt>
      <trkpt lat="59.13729297928512" lon="14.071813970804214">
        <ele>57.05</ele>
        <time>2025-02-16T22:02:30.714Z</time>
      </trkpt>
      <trkpt lat="59.13735995069146" lon="14.071705928072333">
        <ele>56.98</ele>
        <time>2025-02-16T22:03:25.350Z</time>
      </trkpt>
      <trkpt lat="59.13742591626942" lon="14.071598974987864">
        <ele>56.91</ele>
        <time>2025-02-16T22:04:19.988Z</time>
      </trkpt>
      <trkpt lat="59.137492971494794" lon="14.071494955569506">
        <ele>56.85</ele>
        <time>2025-02-16T22:05:14.627Z</time>
      </trkpt>
      <trkpt lat="59.137560948729515" lon="14.071388924494386">
        <ele>56.79</ele>
        <time>2025-02-16T22:06:09.267Z</time>
      </trkpt>
      <trkpt lat="59.13762993179262" lon="14.071281971409917">
        <ele>56.74</ele>
        <time>2025-02-16T22:07:03.909Z</time>
      </trkpt>
      <trkpt lat="59.1376999206841" lon="14.071170995011926">
        <ele>56.69</ele>
        <time>2025-02-16T22:07:58.552Z</time>
      </trkpt>
      <trkpt lat="59.137770999222994" lon="14.071057923138142">
        <ele>56.63</ele>
        <time>2025-02-16T22:08:53.197Z</time>
      </trkpt>
      <trkpt lat="59.13784492760897" lon="14.070942923426628">
        <ele>56.59</ele>
        <time>2025-02-16T22:09:47.843Z</time>
      </trkpt>
      <trkpt lat="59.13791994564235" lon="14.070823984220624">
        <ele>56.53</ele>
        <time>2025-02-16T22:10:42.491Z</time>
      </trkpt>
      <trkpt lat="59.13799596950412" lon="14.070702949538827">
        <ele>56.48</ele>
        <time>2025-02-16T22:11:37.140Z</time>
      </trkpt>
      <trkpt lat="59.13807392120361" lon="14.070580992847681">
        <ele>56.42</ele>
        <time>2025-02-16T22:12:31.791Z</time>
      </trkpt>
      <trkpt lat="59.13815296255052" lon="14.070455934852362">
        <ele>56.36</ele>
        <time>2025-02-16T22:13:26.444Z</time>
      </trkpt>
      <trkpt lat="59.13823493756354" lon="14.070325931534171">
        <ele>56.29</ele>
        <time>2025-02-16T22:14:21.098Z</time>
      </trkpt>
      <trkpt lat="59.13831892423332" lon="14.07019098289311">
        <ele>56.24</ele>
        <time>2025-02-16T22:15:15.754Z</time>
      </trkpt>
      <trkpt lat="59.13840391673148" lon="14.070053938776255">
        <ele>56.18</ele>
        <time>2025-02-16T22:16:10.412Z</time>
      </trkpt>
      <trkpt lat="59.13848999887705" lon="14.06991496682167">
        <ele>56.14</ele>
        <time>2025-02-16T22:17:05.072Z</time>
      </trkpt>
      <trkpt lat="59.13857499137521" lon="14.069776916876435">
        <ele>56.11</ele>
        <time>2025-02-16T22:17:59.733Z</time>
      </trkpt>
      <trkpt lat="59.13865998387337" lon="14.069639956578612">
        <ele>56.07</ele>
        <time>2025-02-16T22:18:54.396Z</time>
      </trkpt>
      <trkpt lat="59.13874497637153" lon="14.06950299628079">
        <ele>56.05</ele>
        <time>2025-02-16T22:19:49.061Z</time>
      </trkpt>
      <trkpt lat="59.138828963041306" lon="14.069365952163935">
        <ele>56.03</ele>
        <time>2025-02-16T22:20:43.728Z</time>
      </trkpt>
      <trkpt lat="59.138911943882704" lon="14.069231925532222">
        <ele>56.01</ele>
        <time>2025-02-16T22:21:38.396Z</time>
      </trkpt>
      <trkpt lat="59.13899391889572" lon="14.06909697689116">
        <ele>56.0</ele>
        <time>2025-02-16T22:22:33.066Z</time>
      </trkpt>
      <trkpt lat="59.13907597772777" lon="14.068964961916208">
        <ele>55.99</ele>
        <time>2025-02-16T22:23:27.738Z</time>
      </trkpt>
      <trkpt lat="59.13915795274079" lon="14.068834958598018">
        <ele>55.98</ele>
        <time>2025-02-16T22:24:22.412Z</time>
      </trkpt>
      <trkpt lat="59.139239927753806" lon="14.068706966936588">
        <ele>55.98</ele>
        <time>2025-02-16T22:25:17.087Z</time>
      </trkpt>
      <trkpt lat="59.139318969100714" lon="14.068578975275159">
        <ele>55.97</ele>
        <time>2025-02-16T22:26:11.764Z</time>
      </trkpt>
      <trkpt lat="59.13939792662859" lon="14.06845299527049">
        <ele>55.97</ele>
        <time>2025-02-16T22:27:06.443Z</time>
      </trkpt>
      <trkpt lat="59.139474956318736" lon="14.06832693144679">
        <ele>55.98</ele>
        <time>2025-02-16T22:28:01.123Z</time>
      </trkpt>
      <trkpt lat="59.13955198600888" lon="14.068199945613742">
        <ele>55.98</ele>
        <time>2025-02-16T22:28:55.805Z</time>
      </trkpt>
      <trkpt lat="59.13962893188" lon="14.068073965609074">
        <ele>56.0</ele>
        <time>2025-02-16T22:29:50.488Z</time>
      </trkpt>
      <trkpt lat="59.139705961570144" lon="14.067950919270515">
        <ele>56.01</ele>
        <time>2025-02-16T22:30:45.173Z</time>
      </trkpt>
      <trkpt lat="59.13978399708867" lon="14.06782896257937">
        <ele>56.02</ele>
        <time>2025-02-16T22:31:39.860Z</time>
      </trkpt>
      <trkpt lat="59.139861948788166" lon="14.067707927897573">
        <ele>56.04</ele>
        <time>2025-02-16T22:32:34.548Z</time>
      </trkpt>
      <trkpt lat="59.13993696682155" lon="14.067586977034807">
        <ele>56.06</ele>
        <time>2025-02-16T22:33:29.238Z</time>
      </trkpt>
      <trkpt lat="59.140010979026556" lon="14.067467954009771">
        <ele>56.08</ele>
        <time>2025-02-16T22:34:23.929Z</time>
      </trkpt>
      <trkpt lat="59.1400829795748" lon="14.067350942641497">
        <ele>56.11</ele>
        <time>2025-02-16T22:35:18.622Z</time>
      </trkpt>
      <trkpt lat="59.14015498012304" lon="14.067235942929983">
        <ele>56.14</ele>
        <time>2025-02-16T22:36:13.316Z</time>
      </trkpt>
      <trkpt lat="59.140224969014525" lon="14.06712295487523">
        <ele>56.18</ele>
        <time>2025-02-16T22:37:08.012Z</time>
      </trkpt>
      <trkpt lat="59.14029495790601" lon="14.067010972648859">
        <ele>56.22</ele>
        <time>2025-02-16T22:38:02.709Z</time>
      </trkpt>
      <trkpt lat="59.14036293514073" lon="14.066899996250868">
        <ele>56.27</ele>
        <time>2025-02-16T22:38:57.408Z</time>
      </trkpt>
      <trkpt lat="59.14043191820383" lon="14.066790947690606">
        <ele>56.31</ele>
        <time>2025-02-16T22:39:52.108Z</time>
      </trkpt>
      <trkpt lat="59.140501990914345" lon="14.066681982949376">
        <ele>56.36</ele>
        <time>2025-02-16T22:40:46.809Z</time>
      </trkpt>
      <trkpt lat="59.140569968149066" lon="14.066569916903973">
        <ele>56.42</ele>
        <time>2025-02-16T22:41:41.512Z</time>
      </trkpt>
      <trkpt lat="59.14063895121217" lon="14.0664579346776">
        <ele>56.47</ele>
        <time>2025-02-16T22:42:36.216Z</time>
      </trkpt>
      <trkpt lat="59.14070994593203" lon="14.066345952451229">
        <ele>56.53</ele>
        <time>2025-02-16T22:43:30.922Z</time>
      </trkpt>
      <trkpt lat="59.140780940651894" lon="14.066234976053238">
        <ele>56.58</ele>
        <time>2025-02-16T22:44:25.629Z</time>
      </trkpt>
      <trkpt lat="59.14085193537176" lon="14.066123999655247">
        <ele>56.64</ele>
        <time>2025-02-16T22:45:20.338Z</time>
      </trkpt>
      <trkpt lat="59.14092192426324" lon="14.066012939438224">
        <ele>56.7</ele>
        <time>2025-02-16T22:46:15.048Z</time>
      </trkpt>
      <trkpt lat="59.14099099114537" lon="14.065903974696994">
        <ele>56.75</ele>
        <time>2025-02-16T22:47:09.760Z</time>
      </trkpt>
      <trkpt lat="59.14105796255171" lon="14.065797943621874">
        <ele>56.81</ele>
        <time>2025-02-16T22:48:04.473Z</time>
      </trkpt>
      <trkpt lat="59.141124933958054" lon="14.065691996365786">
        <ele>56.87</ele>
        <time>2025-02-16T22:48:59.187Z</time>
      </trkpt>
      <trkpt lat="59.141190983355045" lon="14.065584959462285">
        <ele>56.92</ele>
        <time>2025-02-16T22:49:53.903Z</time>
      </trkpt>
      <trkpt lat="59.141256948933005" lon="14.065479934215546">
        <ele>56.99</ele>
        <time>2025-02-16T22:50:48.620Z</time>
      </trkpt>
      <trkpt lat="59.14132299833" lon="14.065375998616219">
        <ele>57.04</ele>
        <time>2025-02-16T22:51:43.338Z</time>
      </trkpt>
      <trkpt lat="59.14138896390796" lon="14.06527298502624">
        <ele>57.1</ele>
        <time>2025-02-16T22:52:38.058Z</time>
      </trkpt>
      <trkpt lat="59.14145492948592" lon="14.065168965607882">
        <ele>57.16</ele>
        <time>2025-02-16T22:53:32.779Z</time>
      </trkpt>
      <trkpt lat="59.14152097888291" lon="14.065066957846284">
        <ele>57.22</ele>
        <time>2025-02-16T22:54:27.502Z</time>
      </trkpt>
      <trkpt lat="59.14158593863249" lon="14.064966961741447">
        <ele>57.29</ele>
        <time>2025-02-16T22:55:22.226Z</time>
      </trkpt>
      <trkpt lat="59.1416509822011" lon="14.064869983121753">
        <ele>57.35</ele>
        <time>2025-02-16T22:56:16.951Z</time>
      </trkpt>
      <trkpt lat="59.14171594195068" lon="14.064774932339787">
        <ele>57.41</ele>
        <time>2025-02-16T22:57:11.677Z</time>
      </trkpt>
      <trkpt lat="59.14178199134767" lon="14.064681977033615">
        <ele>57.48</ele>
        <time>2025-02-16T22:58:06.405Z</time>
      </trkpt>
      <trkpt lat="59.14184896275401" lon="14.064592961221933">
        <ele>57.55</ele>
        <time>2025-02-16T22:59:01.134Z</time>
      </trkpt>
      <trkpt lat="59.141919957473874" lon="14.064507968723774">
        <ele>57.61</ele>
        <time>2025-02-16T22:59:55.864Z</time>
      </trkpt>
      <trkpt lat="59.14199195802212" lon="14.064425993710756">
        <ele>57.68</ele>
        <time>2025-02-16T23:00:50.596Z</time>
      </trkpt>
      <trkpt lat="59.14206597022712" lon="14.064346952363849">
        <ele>57.75</ele>
        <time>2025-02-16T23:01:45.329Z</time>
      </trkpt>
      <trkpt lat="59.14214199408889" lon="14.064270928502083">
        <ele>57.81</ele>
        <time>2025-02-16T23:02:40.064Z</time>
      </trkpt>
      <trkpt lat="59.14221994578838" lon="14.0642009396106">
        <ele>57.88</ele>
        <time>2025-02-16T23:03:34.800Z</time>
      </trkpt>
      <trkpt lat="59.14229999296367" lon="14.064135979861021">
        <ele>57.95</ele>
        <time>2025-02-16T23:04:29.537Z</time>
      </trkpt>
      <trkpt lat="59.14237895049155" lon="14.064076971262693">
        <ele>58.02</ele>
        <time>2025-02-16T23:05:24.276Z</time>
      </trkpt>
      <trkpt lat="59.142457991838455" lon="14.064022991806269">
        <ele>58.08</ele>
        <time>2025-02-16T23:06:19.016Z</time>
      </trkpt>
      <trkpt lat="59.14253594353795" lon="14.063977980986238">
        <ele>58.14</ele>
        <time>2025-02-16T23:07:13.757Z</time>
      </trkpt>
      <trkpt lat="59.14261397905648" lon="14.063938921317458">
        <ele>58.2</ele>
        <time>2025-02-16T23:08:08.500Z</time>
      </trkpt>
      <trkpt lat="59.14268899708986" lon="14.063902962952852">
        <ele>58.26</ele>
        <time>2025-02-16T23:09:03.244Z</time>
      </trkpt>
      <trkpt lat="59.142762925475836" lon="14.063871949911118">
        <ele>58.31</ele>
        <time>2025-02-16T23:09:57.989Z</time>
      </trkpt>
      <trkpt lat="59.14283794350922" lon="14.063845966011286">
        <ele>58.37</ele>
        <time>2025-02-16T23:10:52.735Z</time>
      </trkpt>
      <trkpt lat="59.142912961542606" lon="14.063821993768215">
        <ele>58.42</ele>
        <time>2025-02-16T23:11:47.482Z</time>
      </trkpt>
      <trkpt lat="59.14298999123275" lon="14.063801961019635">
        <ele>58.48</ele>
        <time>2025-02-16T23:12:42.231Z</time>
      </trkpt>
      <trkpt lat="59.14306794293225" lon="14.063785951584578">
        <ele>58.53</ele>
        <time>2025-02-16T23:13:36.981Z</time>
      </trkpt>
      <trkpt lat="59.143145978450775" lon="14.063774971291423">
        <ele>58.58</ele>
        <time>2025-02-16T23:14:31.732Z</time>
      </trkpt>
      <trkpt lat="59.14322493597865" lon="14.063762985169888">
        <ele>58.62</ele>
        <time>2025-02-16T23:15:26.484Z</time>
      </trkpt>
      <trkpt lat="59.14330498315394" lon="14.063752926886082">
        <ele>58.68</ele>
        <time>2025-02-16T23:16:21.238Z</time>
      </trkpt>
      <trkpt lat="59.143385952338576" lon="14.06374596990645">
        <ele>58.73</ele>
        <time>2025-02-16T23:17:15.993Z</time>
      </trkpt>
      <trkpt lat="59.143468933179975" lon="14.063738929107785">
        <ele>58.78</ele>
        <time>2025-02-16T23:18:10.749Z</time>
      </trkpt>
      <trkpt lat="59.143553925678134" lon="14.063733983784914">
        <ele>58.84</ele>
        <time>2025-02-16T23:19:05.507Z</time>
      </trkpt>
      <trkpt lat="59.143641935661435" lon="14.063728954643011">
        <ele>58.9</ele>
        <time>2025-02-16T23:20:00.266Z</time>
      </trkpt>
      <trkpt lat="59.143729945644736" lon="14.06372593715787">
        <ele>58.95</ele>
        <time>2025-02-16T23:20:55.027Z</time>
      </trkpt>
      <trkpt lat="59.14381795562804" lon="14.063719986006618">
        <ele>59.01</ele>
        <time>2025-02-16T23:21:49.789Z</time>
      </trkpt>
      <trkpt lat="59.14390697143972" lon="14.063713951036334">
        <ele>59.06</ele>
        <time>2025-02-16T23:22:44.552Z</time>
      </trkpt>
      <trkpt lat="59.14399498142302" lon="14.063708921894431">
        <ele>59.11</ele>
        <time>2025-02-16T23:23:39.317Z</time>
      </trkpt>
      <trkpt lat="59.14408491924405" lon="14.06370498239994">
        <ele>59.15</ele>
        <time>2025-02-16T23:24:34.083Z</time>
      </trkpt>
      <trkpt lat="59.14417494088411" lon="14.06370297074318">
        <ele>59.2</ele>
        <time>2025-02-16T23:25:28.851Z</time>
      </trkpt>
      <trkpt lat="59.144265968352556" lon="14.063700959086418">
        <ele>59.24</ele>
        <time>2025-02-16T23:26:23.620Z</time>
      </trkpt>
      <trkpt lat="59.14435598999262" lon="14.063698947429657">
        <ele>59.29</ele>
        <time>2025-02-16T23:27:18.391Z</time>
      </trkpt>
      <trkpt lat="59.14444492198527" lon="14.063697941601276">
        <ele>59.33</ele>
        <time>2025-02-16T23:28:13.163Z</time>
      </trkpt>
      <trkpt lat="59.14453293196857" lon="14.063696935772896">
        <ele>59.36</ele>
        <time>2025-02-16T23:29:07.936Z</time>
      </trkpt>
      <trkpt lat="59.14461993612349" lon="14.063695929944515">
        <ele>59.4</ele>
        <time>2025-02-16T23:30:02.711Z</time>
      </trkpt>
      <trkpt lat="59.14470492862165" lon="14.063693918287754">
        <ele>59.43</ele>
        <time>2025-02-16T23:30:57.487Z</time>
      </trkpt>
      <trkpt lat="59.14479092694819" lon="14.063690984621644">
        <ele>59.47</ele>
        <time>2025-02-16T23:31:52.265Z</time>
      </trkpt>
      <trkpt lat="59.14487692527473" lon="14.063689978793263">
        <ele>59.5</ele>
        <time>2025-02-16T23:32:47.044Z</time>
      </trkpt>
      <trkpt lat="59.14496191777289" lon="14.063688972964883">
        <ele>59.53</ele>
        <time>2025-02-16T23:33:41.824Z</time>
      </trkpt>
      <trkpt lat="59.14504699409008" lon="14.06368494965136">
        <ele>59.56</ele>
        <time>2025-02-16T23:34:36.606Z</time>
      </trkpt>
      <trkpt lat="59.14513198658824" lon="14.063680926337838">
        <ele>59.59</ele>
        <time>2025-02-16T23:35:31.389Z</time>
      </trkpt>
      <trkpt lat="59.14521798491478" lon="14.063678998500109">
        <ele>59.61</ele>
        <time>2025-02-16T23:36:26.173Z</time>
      </trkpt>
      <trkpt lat="59.1453049890697" lon="14.063674975186586">
        <ele>59.63</ele>
        <time>2025-02-16T23:37:20.959Z</time>
      </trkpt>
      <trkpt lat="59.14538897573948" lon="14.063670951873064">
        <ele>59.64</ele>
        <time>2025-02-16T23:38:15.746Z</time>
      </trkpt>
      <trkpt lat="59.14547899737954" lon="14.063666928559542">
        <ele>59.65</ele>
        <time>2025-02-16T23:39:10.535Z</time>
      </trkpt>
      <trkpt lat="59.14556893520057" lon="14.063662989065051">
        <ele>59.66</ele>
        <time>2025-02-16T23:40:05.325Z</time>
      </trkpt>
      <trkpt lat="59.145660968497396" lon="14.06366198323667">
        <ele>59.66</ele>
        <time>2025-02-16T23:41:00.117Z</time>
      </trkpt>
      <trkpt lat="59.14575392380357" lon="14.063662989065051">
        <ele>59.66</ele>
        <time>2025-02-16T23:41:54.910Z</time>
      </trkpt>
      <trkpt lat="59.14584796875715" lon="14.063668940216303">
        <ele>59.66</ele>
        <time>2025-02-16T23:42:49.705Z</time>
      </trkpt>
      <trkpt lat="59.145941929891706" lon="14.063678998500109">
        <ele>59.66</ele>
        <time>2025-02-16T23:43:44.501Z</time>
      </trkpt>
      <trkpt lat="59.14603798650205" lon="14.063695929944515">
        <ele>59.66</ele>
        <time>2025-02-16T23:44:39.299Z</time>
      </trkpt>
      <trkpt lat="59.146133959293365" lon="14.063719986006618">
        <ele>59.66</ele>
        <time>2025-02-16T23:45:34.098Z</time>
      </trkpt>
      <trkpt lat="59.14622993208468" lon="14.063749993219972">
        <ele>59.65</ele>
        <time>2025-02-16T23:46:28.899Z</time>
      </trkpt>
      <trkpt lat="59.146323977038264" lon="14.063786957412958">
        <ele>59.65</ele>
        <time>2025-02-16T23:47:23.701Z</time>
      </trkpt>
      <trkpt lat="59.14641793817282" lon="14.063830962404609">
        <ele>59.64</ele>
        <time>2025-02-16T23:48:18.505Z</time>
      </trkpt>
      <trkpt lat="59.1465119831264" lon="14.063880918547511">
        <ele>59.63</ele>
        <time>2025-02-16T23:49:13.310Z</time>
      </trkpt>
      <trkpt lat="59.146604938432574" lon="14.06393799930811">
        <ele>59.62</ele>
        <time>2025-02-16T23:50:08.117Z</time>
      </trkpt>
      <trkpt lat="59.14669496007264" lon="14.06400597654283">
        <ele>59.61</ele>
        <time>2025-02-16T23:51:02.926Z</time>
      </trkpt>
      <trkpt lat="59.14678196422756" lon="14.064079988747835">
        <ele>59.6</ele>
        <time>2025-02-16T23:51:57.736Z</time>
      </trkpt>
      <trkpt lat="59.1468679625541" lon="14.064161963760853">
        <ele>59.59</ele>
        <time>2025-02-16T23:52:52.548Z</time>
      </trkpt>
      <trkpt lat="59.146951949223876" lon="14.064247962087393">
        <ele>59.58</ele>
        <time>2025-02-16T23:53:47.361Z</time>
      </trkpt>
      <trkpt lat="59.147033924236894" lon="14.064336977899075">
        <ele>59.57</ele>
        <time>2025-02-16T23:54:42.176Z</time>
      </trkpt>
      <trkpt lat="59.14711397141218" lon="14.064429933205247">
        <ele>59.56</ele>
        <time>2025-02-16T23:55:36.992Z</time>
      </trkpt>
      <trkpt lat="59.14718999527395" lon="14.06452196650207">
        <ele>59.56</ele>
        <time>2025-02-16T23:56:31.810Z</time>
      </trkpt>
      <trkpt lat="59.14726593531668" lon="14.064615927636623">
        <ele>59.56</ele>
        <time>2025-02-16T23:57:26.629Z</time>
      </trkpt>
      <trkpt lat="59.147338941693306" lon="14.064707960933447">
        <ele>59.55</ele>
        <time>2025-02-16T23:58:21.449Z</time>
      </trkpt>
      <trkpt lat="59.14740599691868" lon="14.064796976745129">
        <ele>59.54</ele>
        <time>2025-02-16T23:59:16.271Z</time>
      </trkpt>
      <trkpt lat="59.14747095666826" lon="14.064882975071669">
        <ele>59.53</ele>
        <time>2025-02-17T00:00:11.094Z</time>
      </trkpt>
      <trkpt lat="59.14753591641784" lon="14.064964950084686">
        <ele>59.52</ele>
        <time>2025-02-17T00:01:05.918Z</time>
      </trkpt>
      <trkpt lat="59.14759894832969" lon="14.065045919269323">
        <ele>59.5</ele>
        <time>2025-02-17T00:02:00.743Z</time>
      </trkpt>
      <trkpt lat="59.147658962756395" lon="14.065124960616231">
        <ele>59.49</ele>
        <time>2025-02-17T00:02:55.570Z</time>
      </trkpt>
      <trkpt lat="59.14771797135472" lon="14.065199978649616">
        <ele>59.46</ele>
        <time>2025-02-17T00:03:50.398Z</time>
      </trkpt>
      <trkpt lat="59.14777396246791" lon="14.065273990854621">
        <ele>59.44</ele>
        <time>2025-02-17T00:04:45.227Z</time>
      </trkpt>
      <trkpt lat="59.147831965237856" lon="14.065347919240594">
        <ele>59.41</ele>
        <time>2025-02-17T00:05:40.057Z</time>
      </trkpt>
      <trkpt lat="59.147895919159055" lon="14.065412962809205">
        <ele>59.38</ele>
        <time>2025-02-17T00:06:34.888Z</time>
      </trkpt>
      <trkpt lat="59.147959956899285" lon="14.065470965579152">
        <ele>59.34</ele>
        <time>2025-02-17T00:07:29.720Z</time>
      </trkpt>
      <trkpt lat="59.148025922477245" lon="14.065524945035577">
        <ele>59.31</ele>
        <time>2025-02-17T00:08:24.553Z</time>
      </trkpt>
      <trkpt lat="59.14809792302549" lon="14.065577918663621">
        <ele>59.27</ele>
        <time>2025-02-17T00:09:19.388Z</time>
      </trkpt>
      <trkpt lat="59.14817092940211" lon="14.065625946968794">
        <ele>59.23</ele>
        <time>2025-02-17T00:10:14.224Z</time>
      </trkpt>
      <trkpt lat="59.1482459474355" lon="14.065666934475303">
        <ele>59.19</ele>
        <time>2025-02-17T00:11:09.061Z</time>
      </trkpt>
      <trkpt lat="59.148325994610786" lon="14.065704988315701">
        <ele>59.14</ele>
        <time>2025-02-17T00:12:03.899Z</time>
      </trkpt>
      <trkpt lat="59.148411992937326" lon="14.065736923366785">
        <ele>59.09</ele>
        <time>2025-02-17T00:12:58.739Z</time>
      </trkpt>
      <trkpt lat="59.148497991263866" lon="14.065765924751759">
        <ele>59.04</ele>
        <time>2025-02-17T00:13:53.580Z</time>
      </trkpt>
      <trkpt lat="59.14858893491328" lon="14.065782940015197">
        <ele>58.98</ele>
        <time>2025-02-17T00:14:48.423Z</time>
      </trkpt>
      <trkpt lat="59.1486809682101" lon="14.065791992470622">
        <ele>58.93</ele>
        <time>2025-02-17T00:15:43.267Z</time>
      </trkpt>
      <trkpt lat="59.148774929344654" lon="14.065794926136732">
        <ele>58.87</ele>
        <time>2025-02-17T00:16:38.113Z</time>
      </trkpt>
      <trkpt lat="59.148870985955" lon="14.065793920308352">
        <ele>58.82</ele>
        <time>2025-02-17T00:17:32.960Z</time>
      </trkpt>
      <trkpt lat="59.148966958746314" lon="14.065783945843577">
        <ele>58.77</ele>
        <time>2025-02-17T00:18:27.809Z</time>
      </trkpt>
      <trkpt lat="59.14906091988087" lon="14.06576693058014">
        <ele>58.71</ele>
        <time>2025-02-17T00:19:22.659Z</time>
      </trkpt>
      <trkpt lat="59.14915496483445" lon="14.065741952508688">
        <ele>58.65</ele>
        <time>2025-02-17T00:20:17.511Z</time>
      </trkpt>
      <trkpt lat="59.149250937625766" lon="14.065709933638573">
        <ele>58.59</ele>
        <time>2025-02-17T00:21:12.364Z</time>
      </trkpt>
      <trkpt lat="59.14934699423611" lon="14.065676992759109">
        <ele>58.53</ele>
        <time>2025-02-17T00:22:07.219Z</time>
      </trkpt>
      <trkpt lat="59.149442967027426" lon="14.06563893891871">
        <ele>58.46</ele>
        <time>2025-02-17T00:23:02.075Z</time>
      </trkpt>
      <trkpt lat="59.14953793399036" lon="14.065597951412201">
        <ele>58.4</ele>
        <time>2025-02-17T00:23:56.933Z</time>
      </trkpt>
      <trkpt lat="59.149633990600705" lon="14.065548917278647">
        <ele>58.33</ele>
        <time>2025-02-17T00:24:51.793Z</time>
      </trkpt>
      <trkpt lat="59.14972996339202" lon="14.065489992499352">
        <ele>58.26</ele>
        <time>2025-02-17T00:25:46.654Z</time>
      </trkpt>
      <trkpt lat="59.14982593618333" lon="14.065425954759121">
        <ele>58.19</ele>
        <time>2025-02-17T00:26:41.517Z</time>
      </trkpt>
      <trkpt lat="59.1499209869653" lon="14.06535697169602">
        <ele>58.12</ele>
        <time>2025-02-17T00:27:36.381Z</time>
      </trkpt>
      <trkpt lat="59.15001595392823" lon="14.065284971147776">
        <ele>58.04</ele>
        <time>2025-02-17T00:28:31.247Z</time>
      </trkpt>
      <trkpt lat="59.15010999888182" lon="14.06520995311439">
        <ele>57.96</ele>
        <time>2025-02-17T00:29:26.115Z</time>
      </trkpt>
      <trkpt lat="59.15020396001637" lon="14.065133929252625">
        <ele>57.88</ele>
        <time>2025-02-17T00:30:20.984Z</time>
      </trkpt>
      <trkpt lat="59.1502989269793" lon="14.06505597755313">
        <ele>57.81</ele>
        <time>2025-02-17T00:31:15.855Z</time>
      </trkpt>
      <trkpt lat="59.15039397776127" lon="14.064976936206222">
        <ele>57.73</ele>
        <time>2025-02-17T00:32:10.728Z</time>
      </trkpt>
      <trkpt lat="59.1504889447242" lon="14.064894961193204">
        <ele>57.65</ele>
        <time>2025-02-17T00:33:05.602Z</time>
      </trkpt>
      <trkpt lat="59.1505859233439" lon="14.064811980351806">
        <ele>57.58</ele>
        <time>2025-02-17T00:34:00.478Z</time>
      </trkpt>
      <trkpt lat="59.15068097412586" lon="14.064730927348137">
        <ele>57.5</ele>
        <time>2025-02-17T00:34:55.356Z</time>
      </trkpt>
      <trkpt lat="59.150773929432034" lon="14.06465096399188">
        <ele>57.42</ele>
        <time>2025-02-17T00:35:50.235Z</time>
      </trkpt>
      <trkpt lat="59.15086495690048" lon="14.064572928473353">
        <ele>57.34</ele>
        <time>2025-02-17T00:36:45.116Z</time>
      </trkpt>
      <trkpt lat="59.1509569901973" lon="14.064494976773858">
        <ele>57.26</ele>
        <time>2025-02-17T00:37:39.999Z</time>
      </trkpt>
      <trkpt lat="59.15104793384671" lon="14.06441593542695">
        <ele>57.17</ele>
        <time>2025-02-17T00:38:34.883Z</time>
      </trkpt>
      <trkpt lat="59.151136949658394" lon="14.064335972070694">
        <ele>57.09</ele>
        <time>2025-02-17T00:39:29.769Z</time>
      </trkpt>
      <trkpt lat="59.15122797712684" lon="14.064258942380548">
        <ele>57.01</ele>
        <time>2025-02-17T00:40:24.656Z</time>
      </trkpt>
      <trkpt lat="59.15131892077625" lon="14.064190965145826">
        <ele>56.93</ele>
        <time>2025-02-17T00:41:19.545Z</time>
      </trkpt>
      <trkpt lat="59.15140894241631" lon="14.064126927405596">
        <ele>56.85</ele>
        <time>2025-02-17T00:42:14.435Z</time>
      </trkpt>
      <trkpt lat="59.15149594657123" lon="14.064054926857352">
        <ele>56.77</ele>
        <time>2025-02-17T00:43:09.327Z</time>
      </trkpt>
      <trkpt lat="59.15158093906939" lon="14.06398099847138">
        <ele>56.69</ele>
        <time>2025-02-17T00:44:04.220Z</time>
      </trkpt>
      <trkpt lat="59.15166199207306" lon="14.063906986266375">
        <ele>56.6</ele>
        <time>2025-02-17T00:44:59.115Z</time>
      </trkpt>
      <trkpt lat="59.151742961257696" lon="14.06383297406137">
        <ele>56.52</ele>
        <time>2025-02-17T00:45:54.011Z</time>
      </trkpt>
      <trkpt lat="59.15182292461395" lon="14.063759967684746">
        <ele>56.44</ele>
        <time>2025-02-17T00:46:48.909Z</time>
      </trkpt>
      <trkpt lat="59.15190297178924" lon="14.063687967136502">
        <ele>56.36</ele>
        <time>2025-02-17T00:47:43.808Z</time>
      </trkpt>
      <trkpt lat="59.15198595263064" lon="14.063613954931498">
        <ele>56.28</ele>
        <time>2025-02-17T00:48:38.709Z</time>
      </trkpt>
      <trkpt lat="59.15206893347204" lon="14.06353591941297">
        <ele>56.2</ele>
        <time>2025-02-17T00:49:33.611Z</time>
      </trkpt>
      <trkpt lat="59.15215199813247" lon="14.063460985198617">
        <ele>56.12</ele>
        <time>2025-02-17T00:50:28.515Z</time>
      </trkpt>
      <trkpt lat="59.152235984802246" lon="14.063385967165232">
        <ele>56.04</ele>
        <time>2025-02-17T00:51:23.420Z</time>
      </trkpt>
      <trkpt lat="59.15232298895717" lon="14.063311954960227">
        <ele>55.96</ele>
        <time>2025-02-17T00:52:18.327Z</time>
      </trkpt>
      <trkpt lat="59.15240898728371" lon="14.063235931098461">
        <ele>55.89</ele>
        <time>2025-02-17T00:53:13.235Z</time>
      </trkpt>
      <trkpt lat="59.152493979781866" lon="14.063157979398966">
        <ele>55.8</ele>
        <time>2025-02-17T00:54:08.145Z</time>
      </trkpt>
      <trkpt lat="59.152579978108406" lon="14.063083967193961">
        <ele>55.72</ele>
        <time>2025-02-17T00:55:03.056Z</time>
      </trkpt>
      <trkpt lat="59.152665976434946" lon="14.063009954988956">
        <ele>55.65</ele>
        <time>2025-02-17T00:55:57.969Z</time>
      </trkpt>
      <trkpt lat="59.15275398641825" lon="14.06293393112719">
        <ele>55.57</ele>
        <time>2025-02-17T00:56:52.883Z</time>
      </trkpt>
      <trkpt lat="59.15283998474479" lon="14.062858996912837">
        <ele>55.49</ele>
        <time>2025-02-17T00:57:47.799Z</time>
      </trkpt>
      <trkpt lat="59.15292891673744" lon="14.06278196722269">
        <ele>55.42</ele>
        <time>2025-02-17T00:58:42.716Z</time>
      </trkpt>
      <trkpt lat="59.1530189383775" lon="14.062704937532544">
        <ele>55.35</ele>
        <time>2025-02-17T00:59:37.635Z</time>
      </trkpt>
      <trkpt lat="59.15310896001756" lon="14.062625980004668">
        <ele>55.27</ele>
        <time>2025-02-17T01:00:32.555Z</time>
      </trkpt>
      <trkpt lat="59.153200993314385" lon="14.06254593282938">
        <ele>55.2</ele>
        <time>2025-02-17T01:01:27.477Z</time>
      </trkpt>
      <trkpt lat="59.15329495444894" lon="14.062466975301504">
        <ele>55.13</ele>
        <time>2025-02-17T01:02:22.401Z</time>
      </trkpt>
      <trkpt lat="59.15338899940252" lon="14.062388939782977">
        <ele>55.06</ele>
        <time>2025-02-17T01:03:17.326Z</time>
      </trkpt>
      <trkpt lat="59.153481954708695" lon="14.06230696476996">
        <ele>54.99</ele>
        <time>2025-02-17T01:04:12.253Z</time>
      </trkpt>
      <trkpt lat="59.15357599966228" lon="14.062223983928561">
        <ele>54.92</ele>
        <time>2025-02-17T01:05:07.182Z</time>
      </trkpt>
      <trkpt lat="59.15366895496845" lon="14.062142930924892">
        <ele>54.86</ele>
        <time>2025-02-17T01:06:02.112Z</time>
      </trkpt>
      <trkpt lat="59.15376299992204" lon="14.062060955911875">
        <ele>54.8</ele>
        <time>2025-02-17T01:06:57.044Z</time>
      </trkpt>
      <trkpt lat="59.15385696105659" lon="14.061976969242096">
        <ele>54.74</ele>
        <time>2025-02-17T01:07:51.977Z</time>
      </trkpt>
      <trkpt lat="59.153951928019524" lon="14.061896922066808">
        <ele>54.68</ele>
        <time>2025-02-17T01:08:46.912Z</time>
      </trkpt>
      <trkpt lat="59.15404798462987" lon="14.061816958710551">
        <ele>54.62</ele>
        <time>2025-02-17T01:09:41.849Z</time>
      </trkpt>
      <trkpt lat="59.1541429515928" lon="14.061735989525914">
        <ele>54.57</ele>
        <time>2025-02-17T01:10:36.787Z</time>
      </trkpt>
      <trkpt lat="59.15423791855574" lon="14.061649991199374">
        <ele>54.52</ele>
        <time>2025-02-17T01:11:31.727Z</time>
      </trkpt>
      <trkpt lat="59.1543329693377" lon="14.061565920710564">
        <ele>54.47</ele>
        <time>2025-02-17T01:12:26.669Z</time>
      </trkpt>
      <trkpt lat="59.154428942129016" lon="14.061482939869165">
        <ele>54.43</ele>
        <time>2025-02-17T01:13:21.613Z</time>
      </trkpt>
      <trkpt lat="59.1545229870826" lon="14.061401970684528">
        <ele>54.39</ele>
        <time>2025-02-17T01:14:16.558Z</time>
      </trkpt>
      <trkpt lat="59.15461694821715" lon="14.06132192350924">
        <ele>54.35</ele>
        <time>2025-02-17T01:15:11.505Z</time>
      </trkpt>
      <trkpt lat="59.15470998734236" lon="14.061240954324603">
        <ele>54.32</ele>
        <time>2025-02-17T01:16:06.453Z</time>
      </trkpt>
      <trkpt lat="59.15480394847691" lon="14.061160990968347">
        <ele>54.3</ele>
        <time>2025-02-17T01:17:01.403Z</time>
      </trkpt>
      <trkpt lat="59.154897993430495" lon="14.061079937964678">
        <ele>54.27</ele>
        <time>2025-02-17T01:17:56.355Z</time>
      </trkpt>
      <trkpt lat="59.15499195456505" lon="14.06099796295166">
        <ele>54.24</ele>
        <time>2025-02-17T01:18:51.308Z</time>
      </trkpt>
      <trkpt lat="59.15508599951863" lon="14.060915987938643">
        <ele>54.22</ele>
        <time>2025-02-17T01:19:46.263Z</time>
      </trkpt>
      <trkpt lat="59.155179960653186" lon="14.060833929106593">
        <ele>54.2</ele>
        <time>2025-02-17T01:20:41.220Z</time>
      </trkpt>
      <trkpt lat="59.15527199395001" lon="14.060751954093575">
        <ele>54.18</ele>
        <time>2025-02-17T01:21:36.178Z</time>
      </trkpt>
      <trkpt lat="59.1553639434278" lon="14.060669979080558">
        <ele>54.17</ele>
        <time>2025-02-17T01:22:31.138Z</time>
      </trkpt>
      <trkpt lat="59.155455976724625" lon="14.060592949390411">
        <ele>54.17</ele>
        <time>2025-02-17T01:23:26.100Z</time>
      </trkpt>
      <trkpt lat="59.155547926202416" lon="14.060516925528646">
        <ele>54.17</ele>
        <time>2025-02-17T01:24:21.063Z</time>
      </trkpt>
      <trkpt lat="59.15563895367086" lon="14.06043897382915">
        <ele>54.17</ele>
        <time>2025-02-17T01:25:16.028Z</time>
      </trkpt>
      <trkpt lat="59.15572796948254" lon="14.060361944139004">
        <ele>54.17</ele>
        <time>2025-02-17T01:26:10.994Z</time>
      </trkpt>
      <trkpt lat="59.15581597946584" lon="14.060286926105618">
        <ele>54.17</ele>
        <time>2025-02-17T01:27:05.962Z</time>
      </trkpt>
      <trkpt lat="59.155900971964" lon="14.060213919728994">
        <ele>54.17</ele>
        <time>2025-02-17T01:28:00.931Z</time>
      </trkpt>
      <trkpt lat="59.15598596446216" lon="14.06014191918075">
        <ele>54.18</ele>
        <time>2025-02-17T01:28:55.902Z</time>
      </trkpt>
      <trkpt lat="59.15606793947518" lon="14.060072936117649">
        <ele>54.18</ele>
        <time>2025-02-17T01:29:50.874Z</time>
      </trkpt>
      <trkpt lat="59.15614899247885" lon="14.060004958882928">
        <ele>54.18</ele>
        <time>2025-02-17T01:30:45.848Z</time>
      </trkpt>
      <trkpt lat="59.15622795000672" lon="14.059935975819826">
        <ele>54.19</ele>
        <time>2025-02-17T01:31:40.823Z</time>
      </trkpt>
      <trkpt lat="59.15630296804011" lon="14.059866992756724">
        <ele>54.2</ele>
        <time>2025-02-17T01:32:35.799Z</time>
      </trkpt>
      <trkpt lat="59.156377986073494" lon="14.059798931702971">
        <ele>54.22</ele>
        <time>2025-02-17T01:33:30.777Z</time>
      </trkpt>
      <trkpt lat="59.15645099245012" lon="14.059736989438534">
        <ele>54.23</ele>
        <time>2025-02-17T01:34:25.756Z</time>
      </trkpt>
      <trkpt lat="59.1565209813416" lon="14.059676975011826">
        <ele>54.25</ele>
        <time>2025-02-17T01:35:20.736Z</time>
      </trkpt>
      <trkpt lat="59.15659197606146" lon="14.059613943099976">
        <ele>54.26</ele>
        <time>2025-02-17T01:36:15.717Z</time>
      </trkpt>
      <trkpt lat="59.156659953296185" lon="14.059552922844887">
        <ele>54.29</ele>
        <time>2025-02-17T01:37:10.700Z</time>
      </trkpt>
      <trkpt lat="59.156728936359286" lon="14.05949492007494">
        <ele>54.31</ele>
        <time>2025-02-17T01:38:05.684Z</time>
      </trkpt>
      <trkpt lat="59.15679699741304" lon="14.059438928961754">
        <ele>54.34</ele>
        <time>2025-02-17T01:39:00.669Z</time>
      </trkpt>
      <trkpt lat="59.1568679921329" lon="14.059381932020187">
        <ele>54.37</ele>
        <time>2025-02-17T01:39:55.655Z</time>
      </trkpt>
      <trkpt lat="59.156937981024384" lon="14.059325940907001">
        <ele>54.41</ele>
        <time>2025-02-17T01:40:50.643Z</time>
      </trkpt>
      <trkpt lat="59.15700897574425" lon="14.059271961450577">
        <ele>54.45</ele>
        <time>2025-02-17T01:41:45.632Z</time>
      </trkpt>
      <trkpt lat="59.15708298794925" lon="14.059220999479294">
        <ele>54.49</ele>
        <time>2025-02-17T01:42:40.622Z</time>
      </trkpt>
      <trkpt lat="59.15715993382037" lon="14.059172971174121">
        <ele>54.53</ele>
        <time>2025-02-17T01:43:35.613Z</time>
      </trkpt>
      <trkpt lat="59.157239980995655" lon="14.059130977839231">
        <ele>54.58</ele>
        <time>2025-02-17T01:44:30.606Z</time>
      </trkpt>
      <trkpt lat="59.15732296183705" lon="14.059093929827213">
        <ele>54.63</ele>
        <time>2025-02-17T01:45:25.600Z</time>
      </trkpt>
      <trkpt lat="59.15740896016359" lon="14.05906098894775">
        <ele>54.68</ele>
        <time>2025-02-17T01:46:20.595Z</time>
      </trkpt>
      <trkpt lat="59.157496970146894" lon="14.059032993391156">
        <ele>54.73</ele>
        <time>2025-02-17T01:47:15.592Z</time>
      </trkpt>
      <trkpt lat="59.15758699178696" lon="14.059010948985815">
        <ele>54.79</ele>
        <time>2025-02-17T01:48:10.590Z</time>
      </trkpt>
      <trkpt lat="59.15767692960799" lon="14.05899896286428">
        <ele>54.85</ele>
        <time>2025-02-17T01:49:05.590Z</time>
      </trkpt>
      <trkpt lat="59.15776795707643" lon="14.05899896286428">
        <ele>54.91</ele>
        <time>2025-02-17T01:50:00.591Z</time>
      </trkpt>
      <trkpt lat="59.157859990373254" lon="14.059006925672293">
        <ele>54.98</ele>
        <time>2025-02-17T01:50:55.594Z</time>
      </trkpt>
      <trkpt lat="59.15795395150781" lon="14.059024946764112">
        <ele>55.05</ele>
        <time>2025-02-17T01:51:50.598Z</time>
      </trkpt>
      <trkpt lat="59.1580509301275" lon="14.059055959805846">
        <ele>55.12</ele>
        <time>2025-02-17T01:52:45.604Z</time>
      </trkpt>
      <trkpt lat="59.15814799256623" lon="14.059094935655594">
        <ele>55.19</ele>
        <time>2025-02-17T01:53:40.611Z</time>
      </trkpt>
      <trkpt lat="59.1582459770143" lon="14.059137934818864">
        <ele>55.26</ele>
        <time>2025-02-17T01:54:35.620Z</time>
      </trkpt>
      <trkpt lat="59.15834496729076" lon="14.059187974780798">
        <ele>55.33</ele>
        <time>2025-02-17T01:55:30.631Z</time>
      </trkpt>
      <trkpt lat="59.158441945910454" lon="14.059243965893984">
        <ele>55.41</ele>
        <time>2025-02-17T01:56:25.643Z</time>
      </trkpt>
      <trkpt lat="59.15853892453015" lon="14.059304986149073">
        <ele>55.49</ele>
        <time>2025-02-17T01:57:20.657Z</time>
      </trkpt>
      <trkpt lat="59.158633975312114" lon="14.059368940070271">
        <ele>55.58</ele>
        <time>2025-02-17T01:58:15.672Z</time>
      </trkpt>
      <trkpt lat="59.15873296558857" lon="14.059431971982121">
        <ele>55.67</ele>
        <time>2025-02-17T01:59:10.689Z</time>
      </trkpt>
      <trkpt lat="59.15882298722863" lon="14.05949492007494">
        <ele>55.76</ele>
        <time>2025-02-17T02:00:05.708Z</time>
      </trkpt>
      <trkpt lat="59.15890797972679" lon="14.059554934501648">
        <ele>55.86</ele>
        <time>2025-02-17T02:01:00.728Z</time>
      </trkpt>
      <trkpt lat="59.15898894891143" lon="14.059616960585117">
        <ele>55.96</ele>
        <time>2025-02-17T02:01:55.750Z</time>
      </trkpt>
      <trkpt lat="59.159069918096066" lon="14.059673957526684">
        <ele>56.06</ele>
        <time>2025-02-17T02:02:50.773Z</time>
      </trkpt>
      <trkpt lat="59.15914895944297" lon="14.059736989438534">
        <ele>56.15</ele>
        <time>2025-02-17T02:03:45.797Z</time>
      </trkpt>
      <trkpt lat="59.15922892279923" lon="14.059798931702971">
        <ele>56.25</ele>
        <time>2025-02-17T02:04:40.823Z</time>
      </trkpt>
      <trkpt lat="59.1593099758029" lon="14.05985894612968">
        <ele>56.35</ele>
        <time>2025-02-17T02:05:35.850Z</time>
      </trkpt>
      <trkpt lat="59.15939496830106" lon="14.059918960556388">
        <ele>56.45</ele>
        <time>2025-02-17T02:06:30.878Z</time>
      </trkpt>
      <trkpt lat="59.15947996079922" lon="14.059976963326335">
        <ele>56.55</ele>
        <time>2025-02-17T02:07:25.908Z</time>
      </trkpt>
      <trkpt lat="59.15956595912576" lon="14.06003295443952">
        <ele>56.65</ele>
        <time>2025-02-17T02:08:20.939Z</time>
      </trkpt>
      <trkpt lat="59.15965296328068" lon="14.060087939724326">
        <ele>56.74</ele>
        <time>2025-02-17T02:09:15.972Z</time>
      </trkpt>
      <trkpt lat="59.15974298492074" lon="14.060140997171402">
        <ele>56.84</ele>
        <time>2025-02-17T02:10:11.006Z</time>
      </trkpt>
      <trkpt lat="59.159838957712054" lon="14.060182990506291">
        <ele>56.94</ele>
        <time>2025-02-17T02:11:06.042Z</time>
      </trkpt>
      <trkpt lat="59.15993895381689" lon="14.060214925557375">
        <ele>57.03</ele>
        <time>2025-02-17T02:12:01.080Z</time>
      </trkpt>
      <trkpt lat="59.16004297323525" lon="14.060229929164052">
        <ele>57.13</ele>
        <time>2025-02-17T02:12:56.119Z</time>
      </trkpt>
      <trkpt lat="59.16014598682523" lon="14.060231940820813">
        <ele>57.23</ele>
        <time>2025-02-17T02:13:51.160Z</time>
      </trkpt>
      <trkpt lat="59.160246988758445" lon="14.060228923335671">
        <ele>57.33</ele>
        <time>2025-02-17T02:14:46.203Z</time>
      </trkpt>
      <trkpt lat="59.1603459790349" lon="14.060219954699278">
        <ele>57.44</ele>
        <time>2025-02-17T02:15:41.247Z</time>
      </trkpt>
      <trkpt lat="59.160441951826215" lon="14.060207968577743">
        <ele>57.54</ele>
        <time>2025-02-17T02:16:36.293Z</time>
      </trkpt>
      <trkpt lat="59.16053792461753" lon="14.060189947485924">
        <ele>57.65</ele>
        <time>2025-02-17T02:17:31.340Z</time>
      </trkpt>
      <trkpt lat="59.16062995791435" lon="14.060173938050866">
        <ele>57.75</ele>
        <time>2025-02-17T02:18:26.389Z</time>
      </trkpt>
      <trkpt lat="59.160721991211176" lon="14.060157928615808">
        <ele>57.86</ele>
        <time>2025-02-17T02:19:21.439Z</time>
      </trkpt>
      <trkpt lat="59.160810923203826" lon="14.06014191918075">
        <ele>57.96</ele>
        <time>2025-02-17T02:20:16.491Z</time>
      </trkpt>
      <trkpt lat="59.16089993901551" lon="14.060127921402454">
        <ele>58.06</ele>
        <time>2025-02-17T02:21:11.544Z</time>
      </trkpt>
      <trkpt lat="59.16098895482719" lon="14.06011794693768">
        <ele>58.16</ele>
        <time>2025-02-17T02:22:06.598Z</time>
      </trkpt>
      <trkpt lat="59.16107998229563" lon="14.060111995786428">
        <ele>58.27</ele>
        <time>2025-02-17T02:23:01.654Z</time>
      </trkpt>
      <trkpt lat="59.16116992011666" lon="14.060111995786428">
        <ele>58.37</ele>
        <time>2025-02-17T02:23:56.711Z</time>
      </trkpt>
      <trkpt lat="59.161257930099964" lon="14.060114929452538">
        <ele>58.48</ele>
        <time>2025-02-17T02:24:51.770Z</time>
      </trkpt>
      <trkpt lat="59.16134795174003" lon="14.060123981907964">
        <ele>58.58</ele>
        <time>2025-02-17T02:25:46.830Z</time>
      </trkpt>
      <trkpt lat="59.16143495589495" lon="14.06014191918075">
        <ele>58.7</ele>
        <time>2025-02-17T02:26:41.892Z</time>
      </trkpt>
      <trkpt lat="59.16152095422149" lon="14.060165975242853">
        <ele>58.81</ele>
        <time>2025-02-17T02:27:36.955Z</time>
      </trkpt>
      <trkpt lat="59.16160594671965" lon="14.060189947485924">
        <ele>58.92</ele>
        <time>2025-02-17T02:28:32.019Z</time>
      </trkpt>
      <trkpt lat="59.161688927561045" lon="14.060218948870897">
        <ele>59.03</ele>
        <time>2025-02-17T02:29:27.085Z</time>
      </trkpt>
      <trkpt lat="59.161770986393094" lon="14.060248956084251">
        <ele>59.14</ele>
        <time>2025-02-17T02:30:22.152Z</time>
      </trkpt>
      <trkpt lat="59.16185396723449" lon="14.060278963297606">
        <ele>59.25</ele>
        <time>2025-02-17T02:31:17.220Z</time>
      </trkpt>
      <trkpt lat="59.16193493641913" lon="14.060307964682579">
        <ele>59.36</ele>
        <time>2025-02-17T02:32:12.290Z</time>
      </trkpt>
      <trkpt lat="59.16201791726053" lon="14.060336966067553">
        <ele>59.46</ele>
        <time>2025-02-17T02:33:07.361Z</time>
      </trkpt>
      <trkpt lat="59.16209997609258" lon="14.060366973280907">
        <ele>59.57</ele>
        <time>2025-02-17T02:34:02.433Z</time>
      </trkpt>
      <trkpt lat="59.162182956933975" lon="14.06039597466588">
        <ele>59.67</ele>
        <time>2025-02-17T02:34:57.507Z</time>
      </trkpt>
      <trkpt lat="59.16226392611861" lon="14.060420952737331">
        <ele>59.78</ele>
        <time>2025-02-17T02:35:52.582Z</time>
      </trkpt>
      <trkpt lat="59.16234497912228" lon="14.060441991314292">
        <ele>59.88</ele>
        <time>2025-02-17T02:36:47.658Z</time>
      </trkpt>
      <trkpt lat="59.16242494247854" lon="14.060458922758698">
        <ele>59.99</ele>
        <time>2025-02-17T02:37:42.736Z</time>
      </trkpt>
      <trkpt lat="59.162503983825445" lon="14.060470992699265">
        <ele>60.1</ele>
        <time>2025-02-17T02:38:37.815Z</time>
      </trkpt>
      <trkpt lat="59.16258193552494" lon="14.0604829788208">
        <ele>60.2</ele>
        <time>2025-02-17T02:39:32.895Z</time>
      </trkpt>
      <trkpt lat="59.16266097687185" lon="14.060494964942336">
        <ele>60.31</ele>
        <time>2025-02-17T02:40:27.977Z</time>
      </trkpt>
      <trkpt lat="59.16273792274296" lon="14.060506951063871">
        <ele>60.41</ele>
        <time>2025-02-17T02:41:23.060Z</time>
      </trkpt>
      <trkpt lat="59.16281495243311" lon="14.060511980205774">
        <ele>60.51</ele>
        <time>2025-02-17T02:42:18.144Z</time>
      </trkpt>
      <trkpt lat="59.162891982123256" lon="14.060515919700265">
        <ele>60.61</ele>
        <time>2025-02-17T02:43:13.229Z</time>
      </trkpt>
      <trkpt lat="59.16296993382275" lon="14.060519943013787">
        <ele>60.71</ele>
        <time>2025-02-17T02:44:08.315Z</time>
      </trkpt>
      <trkpt lat="59.16305098682642" lon="14.06052597798407">
        <ele>60.81</ele>
        <time>2025-02-17T02:45:03.403Z</time>
      </trkpt>
      <trkpt lat="59.16313195601106" lon="14.060537964105606">
        <ele>60.91</ele>
        <time>2025-02-17T02:45:58.492Z</time>
      </trkpt>
      <trkpt lat="59.163213931024075" lon="14.060555985197425">
        <ele>61.01</ele>
        <time>2025-02-17T02:46:53.582Z</time>
      </trkpt>
      <trkpt lat="59.163295989856124" lon="14.060579957440495">
        <ele>61.11</ele>
        <time>2025-02-17T02:47:48.674Z</time>
      </trkpt>
      <trkpt lat="59.16337796486914" lon="14.06061097048223">
        <ele>61.21</ele>
        <time>2025-02-17T02:48:43.767Z</time>
      </trkpt>
      <trkpt lat="59.16345893405378" lon="14.060650952160358">
        <ele>61.3</ele>
        <time>2025-02-17T02:49:38.861Z</time>
      </trkpt>
      <trkpt lat="59.163536969572306" lon="14.060699986293912">
        <ele>61.4</ele>
        <time>2025-02-17T02:50:33.957Z</time>
      </trkpt>
      <trkpt lat="59.16361399926245" lon="14.060754971578717">
        <ele>61.49</ele>
        <time>2025-02-17T02:51:29.054Z</time>
      </trkpt>
      <trkpt lat="59.16369094513357" lon="14.060813980177045">
        <ele>61.57</ele>
        <time>2025-02-17T02:52:24.152Z</time>
      </trkpt>
      <trkpt lat="59.16376495733857" lon="14.060877934098244">
        <ele>61.66</ele>
        <time>2025-02-17T02:53:19.252Z</time>
      </trkpt>
      <trkpt lat="59.16384198702872" lon="14.060944989323616">
        <ele>61.74</ele>
        <time>2025-02-17T02:54:14.353Z</time>
      </trkpt>
      <trkpt lat="59.16391499340534" lon="14.061015984043479">
        <ele>61.82</ele>
        <time>2025-02-17T02:55:09.455Z</time>
      </trkpt>
      <trkpt lat="59.163986993953586" lon="14.061088990420103">
        <ele>61.89</ele>
        <time>2025-02-17T02:56:04.559Z</time>
      </trkpt>
      <trkpt lat="59.16405899450183" lon="14.061163924634457">
        <ele>61.96</ele>
        <time>2025-02-17T02:56:59.664Z</time>
      </trkpt>
      <trkpt lat="59.16413099505007" lon="14.061237936839461">
        <ele>62.03</ele>
        <time>2025-02-17T02:57:54.770Z</time>
      </trkpt>
      <trkpt lat="59.164202995598316" lon="14.061312954872847">
        <ele>62.09</ele>
        <time>2025-02-17T02:58:49.878Z</time>
      </trkpt>
      <trkpt lat="59.16427499614656" lon="14.061388978734612">
        <ele>62.15</ele>
        <time>2025-02-17T02:59:44.987Z</time>
      </trkpt>
      <trkpt lat="59.1643469966948" lon="14.061464918777347">
        <ele>62.2</ele>
        <time>2025-02-17T03:00:40.097Z</time>
      </trkpt>
      <trkpt lat="59.16441899724305" lon="14.061541948467493">
        <ele>62.26</ele>
        <time>2025-02-17T03:01:35.209Z</time>
      </trkpt>
      <trkpt lat="59.16449191980064" lon="14.06161897815764">
        <ele>62.31</ele>
        <time>2025-02-17T03:02:30.322Z</time>
      </trkpt>
      <trkpt lat="59.164565932005644" lon="14.061695924028754">
        <ele>62.36</ele>
        <time>2025-02-17T03:03:25.436Z</time>
      </trkpt>
      <trkpt lat="59.16464095003903" lon="14.0617729537189">
        <ele>62.4</ele>
        <time>2025-02-17T03:04:20.552Z</time>
      </trkpt>
      <trkpt lat="59.164716973900795" lon="14.061849983409047">
        <ele>62.44</ele>
        <time>2025-02-17T03:05:15.669Z</time>
      </trkpt>
      <trkpt lat="59.16479391977191" lon="14.061929946765304">
        <ele>62.48</ele>
        <time>2025-02-17T03:06:10.787Z</time>
      </trkpt>
      <trkpt lat="59.16487296111882" lon="14.06200798228383">
        <ele>62.51</ele>
        <time>2025-02-17T03:07:05.907Z</time>
      </trkpt>
      <trkpt lat="59.16495191864669" lon="14.062084928154945">
        <ele>62.54</ele>
        <time>2025-02-17T03:08:01.028Z</time>
      </trkpt>
      <trkpt lat="59.16503196582198" lon="14.062163969501853">
        <ele>62.57</ele>
        <time>2025-02-17T03:08:56.151Z</time>
      </trkpt>
      <trkpt lat="59.16510899551213" lon="14.062246950343251">
        <ele>62.6</ele>
        <time>2025-02-17T03:09:51.275Z</time>
      </trkpt>
      <trkpt lat="59.16518594138324" lon="14.062333954498172">
        <ele>62.62</ele>
        <time>2025-02-17T03:10:46.400Z</time>
      </trkpt>
      <trkpt lat="59.16526095941663" lon="14.062419952824712">
        <ele>62.65</ele>
        <time>2025-02-17T03:11:41.527Z</time>
      </trkpt>
      <trkpt lat="59.16533597745001" lon="14.062508968636394">
        <ele>62.67</ele>
        <time>2025-02-17T03:12:36.655Z</time>
      </trkpt>
      <trkpt lat="59.1654109954834" lon="14.062601923942566">
        <ele>62.69</ele>
        <time>2025-02-17T03:13:31.785Z</time>
      </trkpt>
      <trkpt lat="59.16548391804099" lon="14.062699992209673">
        <ele>62.71</ele>
        <time>2025-02-17T03:14:26.916Z</time>
      </trkpt>
      <trkpt lat="59.165554996579885" lon="14.06279998831451">
        <ele>62.73</ele>
        <time>2025-02-17T03:15:22.049Z</time>
      </trkpt>
      <trkpt lat="59.16562599129975" lon="14.062898978590965">
        <ele>62.74</ele>
        <time>2025-02-17T03:16:17.183Z</time>
      </trkpt>
      <trkpt lat="59.16569598019123" lon="14.062993945553899">
        <ele>62.76</ele>
        <time>2025-02-17T03:17:12.318Z</time>
      </trkpt>
      <trkpt lat="59.16576596908271" lon="14.063085978850722">
        <ele>62.77</ele>
        <time>2025-02-17T03:18:07.455Z</time>
      </trkpt>
      <trkpt lat="59.165835957974195" lon="14.063171977177262">
        <ele>62.78</ele>
        <time>2025-02-17T03:19:02.593Z</time>
      </trkpt>
      <trkpt lat="59.16590594686568" lon="14.063255963847041">
        <ele>62.78</ele>
        <time>2025-02-17T03:19:57.732Z</time>
      </trkpt>
      <trkpt lat="59.16597794741392" lon="14.063331987708807">
        <ele>62.77</ele>
        <time>2025-02-17T03:20:52.873Z</time>
      </trkpt>
      <trkpt lat="59.166050953790545" lon="14.06340398825705">
        <ele>62.76</ele>
        <time>2025-02-17T03:21:48.015Z</time>
      </trkpt>
      <trkpt lat="59.16612597182393" lon="14.06346894800663">
        <ele>62.75</ele>
        <time>2025-02-17T03:22:43.158Z</time>
      </trkpt>
      <trkpt lat="59.1662019956857" lon="14.063526950776577">
        <ele>62.73</ele>
        <time>2025-02-17T03:23:38.303Z</time>
      </trkpt>
      <trkpt lat="59.16627994738519" lon="14.063577996566892">
        <ele>62.71</ele>
        <time>2025-02-17T03:24:33.449Z</time>
      </trkpt>
      <trkpt lat="59.16636192239821" lon="14.063623929396272">
        <ele>62.69</ele>
        <time>2025-02-17T03:25:28.596Z</time>
      </trkpt>
      <trkpt lat="59.1664469987154" lon="14.06366097740829">
        <ele>62.66</ele>
        <time>2025-02-17T03:26:23.745Z</time>
      </trkpt>
      <trkpt lat="59.16653299704194" lon="14.063695929944515">
        <ele>62.62</ele>
        <time>2025-02-17T03:27:18.895Z</time>
      </trkpt>
      <trkpt lat="59.16662192903459" lon="14.063728954643011">
        <ele>62.59</ele>
        <time>2025-02-17T03:28:14.046Z</time>
      </trkpt>
      <trkpt lat="59.16671195067465" lon="14.063761979341507">
        <ele>62.55</ele>
        <time>2025-02-17T03:29:09.199Z</time>
      </trkpt>
      <trkpt lat="59.16680398397148" lon="14.063795926049352">
        <ele>62.51</ele>
        <time>2025-02-17T03:30:04.353Z</time>
      </trkpt>
      <trkpt lat="59.16689995676279" lon="14.063824927434325">
        <ele>62.47</ele>
        <time>2025-02-17T03:30:59.509Z</time>
      </trkpt>
      <trkpt lat="59.166997941210866" lon="14.063852922990918">
        <ele>62.42</ele>
        <time>2025-02-17T03:31:54.667Z</time>
      </trkpt>
      <trkpt lat="59.1670979373157" lon="14.063880918547511">
        <ele>62.37</ele>
        <time>2025-02-17T03:32:49.826Z</time>
      </trkpt>
      <trkpt lat="59.16719793342054" lon="14.063913943246007">
        <ele>62.32</ele>
        <time>2025-02-17T03:33:44.987Z</time>
      </trkpt>
      <trkpt lat="59.167298935353756" lon="14.063949985429645">
        <ele>62.27</ele>
        <time>2025-02-17T03:34:40.149Z</time>
      </trkpt>
      <trkpt lat="59.16739691980183" lon="14.06398493796587">
        <ele>62.21</ele>
        <time>2025-02-17T03:35:35.313Z</time>
      </trkpt>
      <trkpt lat="59.16749498806894" lon="14.064019974321127">
        <ele>62.15</ele>
        <time>2025-02-17T03:36:30.479Z</time>
      </trkpt>
      <trkpt lat="59.16758894920349" lon="14.064055932685733">
        <ele>62.09</ele>
        <time>2025-02-17T03:37:25.646Z</time>
      </trkpt>
      <trkpt lat="59.16768399998546" lon="14.064086945727468">
        <ele>62.03</ele>
        <time>2025-02-17T03:38:20.815Z</time>
      </trkpt>
      <trkpt lat="59.16777997277677" lon="14.064118964597583">
        <ele>61.96</ele>
        <time>2025-02-17T03:39:15.985Z</time>
      </trkpt>
      <trkpt lat="59.167874939739704" lon="14.064149977639318">
        <ele>61.9</ele>
        <time>2025-02-17T03:40:11.157Z</time>
      </trkpt>
      <trkpt lat="59.16796898469329" lon="14.064180990681052">
        <ele>61.83</ele>
        <time>2025-02-17T03:41:06.330Z</time>
      </trkpt>
      <trkpt lat="59.16806294582784" lon="14.064212925732136">
        <ele>61.75</ele>
        <time>2025-02-17T03:42:01.505Z</time>
      </trkpt>
      <trkpt lat="59.168155984953046" lon="14.064253997057676">
        <ele>61.66</ele>
        <time>2025-02-17T03:42:56.681Z</time>
      </trkpt>
      <trkpt lat="59.16825095191598" lon="14.064308982342482">
        <ele>61.58</ele>
        <time>2025-02-17T03:43:51.859Z</time>
      </trkpt>
      <trkpt lat="59.168347930535674" lon="14.064380982890725">
        <ele>61.5</ele>
        <time>2025-02-17T03:44:47.039Z</time>
      </trkpt>
      <trkpt lat="59.16844197548926" lon="14.064467987045646">
        <ele>61.41</ele>
        <time>2025-02-17T03:45:42.220Z</time>
      </trkpt>
      <trkpt lat="59.16853099130094" lon="14.064568988978863">
        <ele>61.33</ele>
        <time>2025-02-17T03:46:37.403Z</time>
      </trkpt>
      <trkpt lat="59.16861799545586" lon="14.064679965376854">
        <ele>61.25</ele>
        <time>2025-02-17T03:47:32.588Z</time>
      </trkpt>
      <trkpt lat="59.1686989646405" lon="14.064796976745129">
        <ele>61.17</ele>
        <time>2025-02-17T03:48:27.774Z</time>
      </trkpt>
      <trkpt lat="59.168780939653516" lon="14.064913988113403">
        <ele>61.09</ele>
        <time>2025-02-17T03:49:22.962Z</time>
      </trkpt>
      <trkpt lat="59.168863920494914" lon="14.065030999481678">
        <ele>61.01</ele>
        <time>2025-02-17T03:50:18.152Z</time>
      </trkpt>
      <trkpt lat="59.168947990983725" lon="14.06514197587967">
        <ele>60.93</ele>
        <time>2025-02-17T03:51:13.343Z</time>
      </trkpt>
      <trkpt lat="59.16903097182512" lon="14.065244989469647">
        <ele>60.85</ele>
        <time>2025-02-17T03:52:08.536Z</time>
      </trkpt>
      <trkpt lat="59.169119987636805" lon="14.0653389506042">
        <ele>60.77</ele>
        <time>2025-02-17T03:53:03.730Z</time>
      </trkpt>
      <trkpt lat="59.169206991791725" lon="14.06542394310236">
        <ele>60.7</ele>
        <time>2025-02-17T03:53:58.926Z</time>
      </trkpt>
      <trkpt lat="59.169293995946646" lon="14.065495943650603">
        <ele>60.62</ele>
        <time>2025-02-17T03:54:54.124Z</time>
      </trkpt>
      <trkpt lat="59.169380916282535" lon="14.06555394642055">
        <ele>60.54</ele>
        <time>2025-02-17T03:55:49.323Z</time>
      </trkpt>
      <trkpt lat="59.169466998428106" lon="14.065601974725723">
        <ele>60.46</ele>
        <time>2025-02-17T03:56:44.523Z</time>
      </trkpt>
      <trkpt lat="59.169551990926266" lon="14.065640950575471">
        <ele>60.38</ele>
        <time>2025-02-17T03:57:39.725Z</time>
      </trkpt>
      <trkpt lat="59.169635977596045" lon="14.0656809322536">
        <ele>60.3</ele>
        <time>2025-02-17T03:58:34.928Z</time>
      </trkpt>
      <trkpt lat="59.16971996426582" lon="14.06572099775076">
        <ele>60.22</ele>
        <time>2025-02-17T03:59:30.133Z</time>
      </trkpt>
      <trkpt lat="59.16980495676398" lon="14.065758967772126">
        <ele>60.13</ele>
        <time>2025-02-17T04:00:25.339Z</time>
      </trkpt>
      <trkpt lat="59.16989095509052" lon="14.065794926136732">
        <ele>60.05</ele>
        <time>2025-02-17T04:01:20.546Z</time>
      </trkpt>
      <trkpt lat="59.16997695341706" lon="14.065828956663609">
        <ele>59.97</ele>
        <time>2025-02-17T04:02:15.755Z</time>
      </trkpt>
      <trkpt lat="59.170064963400364" lon="14.065859969705343">
        <ele>59.88</ele>
        <time>2025-02-17T04:03:10.965Z</time>
      </trkpt>
      <trkpt lat="59.170153979212046" lon="14.065885953605175">
        <ele>59.8</ele>
        <time>2025-02-17T04:04:06.177Z</time>
      </trkpt>
      <trkpt lat="59.17024492286146" lon="14.065906992182136">
        <ele>59.72</ele>
        <time>2025-02-17T04:05:01.390Z</time>
      </trkpt>
      <trkpt lat="59.17033695615828" lon="14.065923923626542">
        <ele>59.64</ele>
        <time>2025-02-17T04:05:56.605Z</time>
      </trkpt>
      <trkpt lat="59.170431923121214" lon="14.065931970253587">
        <ele>59.56</ele>
        <time>2025-02-17T04:06:51.821Z</time>
      </trkpt>
      <trkpt lat="59.17052797973156" lon="14.065928952768445">
        <ele>59.48</ele>
        <time>2025-02-17T04:07:47.039Z</time>
      </trkpt>
      <trkpt lat="59.170624958351254" lon="14.065911937505007">
        <ele>59.4</ele>
        <time>2025-02-17T04:08:42.258Z</time>
      </trkpt>
      <trkpt lat="59.17072093114257" lon="14.065878996625543">
        <ele>59.32</ele>
        <time>2025-02-17T04:09:37.479Z</time>
      </trkpt>
      <trkpt lat="59.17081497609615" lon="14.065833985805511">
        <ele>59.24</ele>
        <time>2025-02-17T04:10:32.701Z</time>
      </trkpt>
      <trkpt lat="59.170906925573945" lon="14.065783945843577">
        <ele>59.16</ele>
        <time>2025-02-17T04:11:27.925Z</time>
      </trkpt>
      <trkpt lat="59.17099594138563" lon="14.06572393141687">
        <ele>59.09</ele>
        <time>2025-02-17T04:12:23.150Z</time>
      </trkpt>
      <trkpt lat="59.17108495719731" lon="14.065652936697006">
        <ele>59.0</ele>
        <time>2025-02-17T04:13:18.377Z</time>
      </trkpt>
      <trkpt lat="59.17117196135223" lon="14.065575990825891">
        <ele>58.92</ele>
        <time>2025-02-17T04:14:13.606Z</time>
      </trkpt>
      <trkpt lat="59.171252930536866" lon="14.065502984449267">
        <ele>58.84</ele>
        <time>2025-02-17T04:15:08.836Z</time>
      </trkpt>
      <trkpt lat="59.171332977712154" lon="14.065431989729404">
        <ele>58.76</ele>
        <time>2025-02-17T04:16:04.067Z</time>
      </trkpt>
      <trkpt lat="59.17141394689679" lon="14.065354960039258">
        <ele>58.68</ele>
        <time>2025-02-17T04:16:59.300Z</time>
      </trkpt>
      <trkpt lat="59.17149793356657" lon="14.065277930349112">
        <ele>58.59</ele>
        <time>2025-02-17T04:17:54.534Z</time>
      </trkpt>
      <trkpt lat="59.17158594354987" lon="14.065198972821236">
        <ele>58.51</ele>
        <time>2025-02-17T04:18:49.770Z</time>
      </trkpt>
      <trkpt lat="59.171675965189934" lon="14.065114986151457">
        <ele>58.42</ele>
        <time>2025-02-17T04:19:45.007Z</time>
      </trkpt>
      <trkpt lat="59.17176799848676" lon="14.065029993653297">
        <ele>58.34</ele>
        <time>2025-02-17T04:20:40.246Z</time>
      </trkpt>
      <trkpt lat="59.17185994796455" lon="14.064946928992867">
        <ele>58.26</ele>
        <time>2025-02-17T04:21:35.487Z</time>
      </trkpt>
      <trkpt lat="59.17195198126137" lon="14.06486394815147">
        <ele>58.18</ele>
        <time>2025-02-17T04:22:30.729Z</time>
      </trkpt>
      <trkpt lat="59.172043930739164" lon="14.06477895565331">
        <ele>58.09</ele>
        <time>2025-02-17T04:23:25.973Z</time>
      </trkpt>
      <trkpt lat="59.17213395237923" lon="14.064697986468673">
        <ele>58.02</ele>
        <time>2025-02-17T04:24:21.219Z</time>
      </trkpt>
      <trkpt lat="59.17222296819091" lon="14.064617939293385">
        <ele>57.94</ele>
        <time>2025-02-17T04:25:16.466Z</time>
      </trkpt>
      <trkpt lat="59.17231399565935" lon="14.064538981765509">
        <ele>57.87</ele>
        <time>2025-02-17T04:26:11.715Z</time>
      </trkpt>
      <trkpt lat="59.17240594513714" lon="14.064460946246982">
        <ele>57.79</ele>
        <time>2025-02-17T04:27:06.965Z</time>
      </trkpt>
      <trkpt lat="59.17249797843397" lon="14.064386934041977">
        <ele>57.71</ele>
        <time>2025-02-17T04:28:02.217Z</time>
      </trkpt>
      <trkpt lat="59.1725929453969" lon="14.064319962635636">
        <ele>57.63</ele>
        <time>2025-02-17T04:28:57.471Z</time>
      </trkpt>
      <trkpt lat="59.172686990350485" lon="14.064250979572535">
        <ele>57.55</ele>
        <time>2025-02-17T04:29:52.726Z</time>
      </trkpt>
      <trkpt lat="59.17278095148504" lon="14.064186941832304">
        <ele>57.47</ele>
        <time>2025-02-17T04:30:47.983Z</time>
      </trkpt>
      <trkpt lat="59.17287499643862" lon="14.064128939062357">
        <ele>57.4</ele>
        <time>2025-02-17T04:31:43.241Z</time>
      </trkpt>
      <trkpt lat="59.172967951744795" lon="14.064072947949171">
        <ele>57.33</ele>
        <time>2025-02-17T04:32:38.501Z</time>
      </trkpt>
      <trkpt lat="59.17305998504162" lon="14.064022991806269">
        <ele>57.27</ele>
        <time>2025-02-17T04:33:33.762Z</time>
      </trkpt>
      <trkpt lat="59.17315495200455" lon="14.063978986814618">
        <ele>57.21</ele>
        <time>2025-02-17T04:34:29.025Z</time>
      </trkpt>
      <trkpt lat="59.17325193062425" lon="14.06394093297422">
        <ele>57.15</ele>
        <time>2025-02-17T04:35:24.290Z</time>
      </trkpt>
      <trkpt lat="59.17334899306297" lon="14.063907992094755">
        <ele>57.08</ele>
        <time>2025-02-17T04:36:19.556Z</time>
      </trkpt>
      <trkpt lat="59.17344597168267" lon="14.063882930204272">
        <ele>57.02</ele>
        <time>2025-02-17T04:37:14.824Z</time>
      </trkpt>
      <trkpt lat="59.17354295030236" lon="14.063863987103105">
        <ele>56.96</ele>
        <time>2025-02-17T04:38:10.093Z</time>
      </trkpt>
      <trkpt lat="59.17364194057882" lon="14.063847977668047">
        <ele>56.89</ele>
        <time>2025-02-17T04:39:05.364Z</time>
      </trkpt>
      <trkpt lat="59.173743948340416" lon="14.06383397988975">
        <ele>56.83</ele>
        <time>2025-02-17T04:40:00.637Z</time>
      </trkpt>
      <trkpt lat="59.173847967758775" lon="14.063818976283073">
        <ele>56.77</ele>
        <time>2025-02-17T04:40:55.911Z</time>
      </trkpt>
      <trkpt lat="59.173951987177134" lon="14.063808917999268">
        <ele>56.7</ele>
        <time>2025-02-17T04:41:51.187Z</time>
      </trkpt>
      <trkpt lat="59.1740589402616" lon="14.063800955191255">
        <ele>56.63</ele>
        <time>2025-02-17T04:42:46.465Z</time>
      </trkpt>
      <trkpt lat="59.17416497133672" lon="14.063794920220971">
        <ele>56.57</ele>
        <time>2025-02-17T04:43:41.744Z</time>
      </trkpt>
      <trkpt lat="59.17427091859281" lon="14.06378896906972">
        <ele>56.5</ele>
        <time>2025-02-17T04:44:37.025Z</time>
      </trkpt>
      <trkpt lat="59.17437694966793" lon="14.063782934099436">
        <ele>56.44</ele>
        <time>2025-02-17T04:45:32.308Z</time>
      </trkpt>
      <trkpt lat="59.17448398657143" lon="14.063776982948184">
        <ele>56.38</ele>
        <time>2025-02-17T04:46:27.592Z</time>
      </trkpt>
      <trkpt lat="59.1745909396559" lon="14.0637709479779">
        <ele>56.32</ele>
        <time>2025-02-17T04:47:22.878Z</time>
      </trkpt>
      <trkpt lat="59.1746979765594" lon="14.063763990998268">
        <ele>56.26</ele>
        <time>2025-02-17T04:48:18.166Z</time>
      </trkpt>
      <trkpt lat="59.17480291798711" lon="14.063757956027985">
        <ele>56.2</ele>
        <time>2025-02-17T04:49:13.456Z</time>
      </trkpt>
      <trkpt lat="59.17490693740547" lon="14.063756950199604">
        <ele>56.14</ele>
        <time>2025-02-17T04:50:08.747Z</time>
      </trkpt>
      <trkpt lat="59.175010956823826" lon="14.06376994214952">
        <ele>56.07</ele>
        <time>2025-02-17T04:51:04.040Z</time>
      </trkpt>
      <trkpt lat="59.17511296458542" lon="14.063796931877732">
        <ele>56.01</ele>
        <time>2025-02-17T04:51:59.335Z</time>
      </trkpt>
      <trkpt lat="59.17521497234702" lon="14.063830962404609">
        <ele>55.95</ele>
        <time>2025-02-17T04:52:54.631Z</time>
      </trkpt>
      <trkpt lat="59.175311950966716" lon="14.06387597322464">
        <ele>55.9</ele>
        <time>2025-02-17T04:53:49.929Z</time>
      </trkpt>
      <trkpt lat="59.17540499009192" lon="14.063927941024303">
        <ele>55.84</ele>
        <time>2025-02-17T04:54:45.228Z</time>
      </trkpt>
      <trkpt lat="59.17549593374133" lon="14.063990972936153">
        <ele>55.78</ele>
        <time>2025-02-17T04:55:40.529Z</time>
      </trkpt>
      <trkpt lat="59.17558193206787" lon="14.064060961827636">
        <ele>55.72</ele>
        <time>2025-02-17T04:56:35.831Z</time>
      </trkpt>
      <trkpt lat="59.17566591873765" lon="14.06413396820426">
        <ele>55.66</ele>
        <time>2025-02-17T04:57:31.135Z</time>
      </trkpt>
      <trkpt lat="59.17574898339808" lon="14.064208986237645">
        <ele>55.6</ele>
        <time>2025-02-17T04:58:26.440Z</time>
      </trkpt>
      <trkpt lat="59.17582995258272" lon="14.064290961250663">
        <ele>55.55</ele>
        <time>2025-02-17T04:59:21.747Z</time>
      </trkpt>
      <trkpt lat="59.175908993929625" lon="14.064378971233964">
        <ele>55.49</ele>
        <time>2025-02-17T05:00:17.055Z</time>
      </trkpt>
      <trkpt lat="59.17598694562912" lon="14.064470920711756">
        <ele>55.44</ele>
        <time>2025-02-17T05:01:12.365Z</time>
      </trkpt>
      <trkpt lat="59.176063975319266" lon="14.064565971493721">
        <ele>55.39</ele>
        <time>2025-02-17T05:02:07.676Z</time>
      </trkpt>
      <trkpt lat="59.17614192701876" lon="14.064663955941796">
        <ele>55.35</ele>
        <time>2025-02-17T05:03:02.989Z</time>
      </trkpt>
      <trkpt lat="59.17621895670891" lon="14.06475791707635">
        <ele>55.31</ele>
        <time>2025-02-17T05:03:58.303Z</time>
      </trkpt>
      <trkpt lat="59.176297998055816" lon="14.064846932888031">
        <ele>55.27</ele>
        <time>2025-02-17T05:04:53.619Z</time>
      </trkpt>
      <trkpt lat="59.17637695558369" lon="14.064934942871332">
        <ele>55.23</ele>
        <time>2025-02-17T05:05:48.936Z</time>
      </trkpt>
      <trkpt lat="59.17645691893995" lon="14.06501792371273">
        <ele>55.18</ele>
        <time>2025-02-17T05:06:44.254Z</time>
      </trkpt>
      <trkpt lat="59.17654199525714" lon="14.065083973109722">
        <ele>55.14</ele>
        <time>2025-02-17T05:07:39.574Z</time>
      </trkpt>
      <trkpt lat="59.17662799358368" lon="14.06514398753643">
        <ele>55.09</ele>
        <time>2025-02-17T05:08:34.895Z</time>
      </trkpt>
      <trkpt lat="59.17671591974795" lon="14.065190926194191">
        <ele>55.05</ele>
        <time>2025-02-17T05:09:30.218Z</time>
      </trkpt>
      <trkpt lat="59.17680594138801" lon="14.06522797420621">
        <ele>55.0</ele>
        <time>2025-02-17T05:10:25.542Z</time>
      </trkpt>
      <trkpt lat="59.176897974684834" lon="14.065257981419563">
        <ele>54.96</ele>
        <time>2025-02-17T05:11:20.868Z</time>
      </trkpt>
      <trkpt lat="59.17699092999101" lon="14.065281953662634">
        <ele>54.92</ele>
        <time>2025-02-17T05:12:16.195Z</time>
      </trkpt>
      <trkpt lat="59.17708497494459" lon="14.065302992239594">
        <ele>54.88</ele>
        <time>2025-02-17T05:13:11.524Z</time>
      </trkpt>
      <trkpt lat="59.177178936079144" lon="14.065324952825904">
        <ele>54.84</ele>
        <time>2025-02-17T05:14:06.854Z</time>
      </trkpt>
      <trkpt lat="59.17727298103273" lon="14.065344985574484">
        <ele>54.81</ele>
        <time>2025-02-17T05:15:02.186Z</time>
      </trkpt>
      <trkpt lat="59.17736895382404" lon="14.065362922847271">
        <ele>54.78</ele>
        <time>2025-02-17T05:15:57.519Z</time>
      </trkpt>
      <trkpt lat="59.17746492661536" lon="14.065374992787838">
        <ele>54.75</ele>
        <time>2025-02-17T05:16:52.854Z</time>
      </trkpt>
      <trkpt lat="59.177561989054084" lon="14.06538194976747">
        <ele>54.72</ele>
        <time>2025-02-17T05:17:48.191Z</time>
      </trkpt>
      <trkpt lat="59.17765997350216" lon="14.065382955595851">
        <ele>54.69</ele>
        <time>2025-02-17T05:18:43.529Z</time>
      </trkpt>
      <trkpt lat="59.177756952121854" lon="14.065377926453948">
        <ele>54.66</ele>
        <time>2025-02-17T05:19:38.869Z</time>
      </trkpt>
      <trkpt lat="59.17785594239831" lon="14.065360995009542">
        <ele>54.63</ele>
        <time>2025-02-17T05:20:34.210Z</time>
      </trkpt>
      <trkpt lat="59.177953926846385" lon="14.065329981967807">
        <ele>54.61</ele>
        <time>2025-02-17T05:21:29.553Z</time>
      </trkpt>
      <trkpt lat="59.17805098928511" lon="14.065283965319395">
        <ele>54.58</ele>
        <time>2025-02-17T05:22:24.897Z</time>
      </trkpt>
      <trkpt lat="59.178146962076426" lon="14.065226968377829">
        <ele>54.55</ele>
        <time>2025-02-17T05:23:20.243Z</time>
      </trkpt>
      <trkpt lat="59.17824293486774" lon="14.06516494229436">
        <ele>54.52</ele>
        <time>2025-02-17T05:24:15.591Z</time>
      </trkpt>
      <trkpt lat="59.178339997306466" lon="14.06510098837316">
        <ele>54.5</ele>
        <time>2025-02-17T05:25:10.940Z</time>
      </trkpt>
      <trkpt lat="59.17843395844102" lon="14.06503795646131">
        <ele>54.48</ele>
        <time>2025-02-17T05:26:06.291Z</time>
      </trkpt>
      <trkpt lat="59.178530937060714" lon="14.064972996711731">
        <ele>54.46</ele>
        <time>2025-02-17T05:27:01.644Z</time>
      </trkpt>
      <trkpt lat="59.17862992733717" lon="14.064905941486359">
        <ele>54.45</ele>
        <time>2025-02-17T05:27:56.998Z</time>
      </trkpt>
      <trkpt lat="59.178728917613626" lon="14.064839975908399">
        <ele>54.44</ele>
        <time>2025-02-17T05:28:52.354Z</time>
      </trkpt>
      <trkpt lat="59.178828997537494" lon="14.064774932339787">
        <ele>54.43</ele>
        <time>2025-02-17T05:29:47.712Z</time>
      </trkpt>
      <trkpt lat="59.17892899364233" lon="14.064708966761827">
        <ele>54.42</ele>
        <time>2025-02-17T05:30:43.071Z</time>
      </trkpt>
      <trkpt lat="59.17902898974717" lon="14.064641995355487">
        <ele>54.42</ele>
        <time>2025-02-17T05:31:38.432Z</time>
      </trkpt>
      <trkpt lat="59.179129991680384" lon="14.064574940130115">
        <ele>54.43</ele>
        <time>2025-02-17T05:32:33.795Z</time>
      </trkpt>
      <trkpt lat="59.17923199944198" lon="14.064507968723774">
        <ele>54.44</ele>
        <time>2025-02-17T05:33:29.159Z</time>
      </trkpt>
      <trkpt lat="59.17933694086969" lon="14.064441919326782">
        <ele>54.44</ele>
        <time>2025-02-17T05:34:24.525Z</time>
      </trkpt>
      <trkpt lat="59.17943995445967" lon="14.064376959577203">
        <ele>54.45</ele>
        <time>2025-02-17T05:35:19.893Z</time>
      </trkpt>
      <trkpt lat="59.179541962221265" lon="14.064312921836972">
        <ele>54.47</ele>
        <time>2025-02-17T05:36:15.263Z</time>
      </trkpt>
      <trkpt lat="59.17964296415448" lon="14.064253997057676">
        <ele>54.48</ele>
        <time>2025-02-17T05:37:10.634Z</time>
      </trkpt>
      <trkpt lat="59.1797439660877" lon="14.0642009396106">
        <ele>54.49</ele>
        <time>2025-02-17T05:38:06.007Z</time>
      </trkpt>
      <trkpt lat="59.1798459738493" lon="14.06415299512446">
        <ele>54.51</ele>
        <time>2025-02-17T05:39:01.382Z</time>
      </trkpt>
      <trkpt lat="59.179948987439275" lon="14.064110917970538">
        <ele>54.52</ele>
        <time>2025-02-17T05:39:56.758Z</time>
      </trkpt>
      <trkpt lat="59.1800529230386" lon="14.064076971262693">
        <ele>54.54</ele>
        <time>2025-02-17T05:40:52.136Z</time>
      </trkpt>
      <trkpt lat="59.18015694245696" lon="14.064052999019623">
        <ele>54.56</ele>
        <time>2025-02-17T05:41:47.516Z</time>
      </trkpt>
      <trkpt lat="59.18026096187532" lon="14.064038917422295">
        <ele>54.58</ele>
        <time>2025-02-17T05:42:42.897Z</time>
      </trkpt>
      <trkpt lat="59.18036598712206" lon="14.06402894295752">
        <ele>54.6</ele>
        <time>2025-02-17T05:43:38.280Z</time>
      </trkpt>
      <trkpt lat="59.180469922721386" lon="14.064018968492746">
        <ele>54.62</ele>
        <time>2025-02-17T05:44:33.665Z</time>
      </trkpt>
      <trkpt lat="59.180573942139745" lon="14.064008994027972">
        <ele>54.65</ele>
        <time>2025-02-17T05:45:29.052Z</time>
      </trkpt>
      <trkpt lat="59.180677961558104" lon="14.063999941572547">
        <ele>54.68</ele>
        <time>2025-02-17T05:46:24.440Z</time>
      </trkpt>
      <trkpt lat="59.18078198097646" lon="14.063990972936153">
        <ele>54.7</ele>
        <time>2025-02-17T05:47:19.830Z</time>
      </trkpt>
      <trkpt lat="59.18088398873806" lon="14.06398393213749">
        <ele>54.73</ele>
        <time>2025-02-17T05:48:15.221Z</time>
      </trkpt>
      <trkpt lat="59.18098599649966" lon="14.063978986814618">
        <ele>54.76</ele>
        <time>2025-02-17T05:49:10.614Z</time>
      </trkpt>
      <trkpt lat="59.18108792044222" lon="14.063972951844335">
        <ele>54.79</ele>
        <time>2025-02-17T05:50:06.009Z</time>
      </trkpt>
      <trkpt lat="59.18118892237544" lon="14.063963983207941">
        <ele>54.81</ele>
        <time>2025-02-17T05:51:01.405Z</time>
      </trkpt>
      <trkpt lat="59.18129093013704" lon="14.063953924924135">
        <ele>54.84</ele>
        <time>2025-02-17T05:51:56.803Z</time>
      </trkpt>
      <trkpt lat="59.181392937898636" lon="14.06394294463098">
        <ele>54.86</ele>
        <time>2025-02-17T05:52:52.203Z</time>
      </trkpt>
      <trkpt lat="59.18149393983185" lon="14.063931964337826">
        <ele>54.89</ele>
        <time>2025-02-17T05:53:47.604Z</time>
      </trkpt>
      <trkpt lat="59.18159594759345" lon="14.063922995701432">
        <ele>54.92</ele>
        <time>2025-02-17T05:54:43.007Z</time>
      </trkpt>
      <trkpt lat="59.18169694952667" lon="14.063912937417626">
        <ele>54.95</ele>
        <time>2025-02-17T05:55:38.412Z</time>
      </trkpt>
      <trkpt lat="59.18179593980312" lon="14.063902962952852">
        <ele>54.99</ele>
        <time>2025-02-17T05:56:33.818Z</time>
      </trkpt>
      <trkpt lat="59.18189291842282" lon="14.063890976831317">
        <ele>55.04</ele>
        <time>2025-02-17T05:57:29.226Z</time>
      </trkpt>
      <trkpt lat="59.181988975033164" lon="14.063879996538162">
        <ele>55.1</ele>
        <time>2025-02-17T05:58:24.635Z</time>
      </trkpt>
      <trkpt lat="59.18208494782448" lon="14.063872955739498">
        <ele>55.15</ele>
        <time>2025-02-17T05:59:20.046Z</time>
      </trkpt>
      <trkpt lat="59.18217899277806" lon="14.063869938254356">
        <ele>55.21</ele>
        <time>2025-02-17T06:00:15.458Z</time>
      </trkpt>
      <trkpt lat="59.182272953912616" lon="14.063859963789582">
        <ele>55.26</ele>
        <time>2025-02-17T06:01:10.872Z</time>
      </trkpt>
      <trkpt lat="59.18236792087555" lon="14.063849989324808">
        <ele>55.33</ele>
        <time>2025-02-17T06:02:06.287Z</time>
      </trkpt>
      <trkpt lat="59.182462971657515" lon="14.063841942697763">
        <ele>55.39</ele>
        <time>2025-02-17T06:03:01.704Z</time>
      </trkpt>
      <trkpt lat="59.18255793862045" lon="14.063834985718131">
        <ele>55.46</ele>
        <time>2025-02-17T06:03:57.122Z</time>
      </trkpt>
      <trkpt lat="59.18265298940241" lon="14.063828950747848">
        <ele>55.52</ele>
        <time>2025-02-17T06:04:52.542Z</time>
      </trkpt>
      <trkpt lat="59.18274896219373" lon="14.063820987939835">
        <ele>55.59</ele>
        <time>2025-02-17T06:05:47.963Z</time>
      </trkpt>
      <trkpt lat="59.18284594081342" lon="14.06381394714117">
        <ele>55.66</ele>
        <time>2025-02-17T06:06:43.386Z</time>
      </trkpt>
      <trkpt lat="59.1829439252615" lon="14.063806990161538">
        <ele>55.72</ele>
        <time>2025-02-17T06:07:38.811Z</time>
      </trkpt>
      <trkpt lat="59.183040987700224" lon="14.063798943534493">
        <ele>55.8</ele>
        <time>2025-02-17T06:08:34.237Z</time>
      </trkpt>
      <trkpt lat="59.18313796631992" lon="14.063791986554861">
        <ele>55.87</ele>
        <time>2025-02-17T06:09:29.665Z</time>
      </trkpt>
      <trkpt lat="59.18323393911123" lon="14.063783939927816">
        <ele>55.94</ele>
        <time>2025-02-17T06:10:25.094Z</time>
      </trkpt>
      <trkpt lat="59.18333091773093" lon="14.063774971291423">
        <ele>56.02</ele>
        <time>2025-02-17T06:11:20.525Z</time>
      </trkpt>
      <trkpt lat="59.183429991826415" lon="14.063764996826649">
        <ele>56.09</ele>
        <time>2025-02-17T06:12:15.957Z</time>
      </trkpt>
      <trkpt lat="59.18352898210287" lon="14.063757956027985">
        <ele>56.16</ele>
        <time>2025-02-17T06:13:11.391Z</time>
      </trkpt>
      <trkpt lat="59.18362797237933" lon="14.06374798156321">
        <ele>56.22</ele>
        <time>2025-02-17T06:14:06.827Z</time>
      </trkpt>
      <trkpt lat="59.18372696265578" lon="14.063735995441675">
        <ele>56.28</ele>
        <time>2025-02-17T06:15:02.264Z</time>
      </trkpt>
      <trkpt lat="59.18382695876062" lon="14.06372593715787">
        <ele>56.34</ele>
        <time>2025-02-17T06:15:57.703Z</time>
      </trkpt>
      <trkpt lat="59.183926954865456" lon="14.063716968521476">
        <ele>56.4</ele>
        <time>2025-02-17T06:16:53.143Z</time>
      </trkpt>
      <trkpt lat="59.18402695097029" lon="14.063705988228321">
        <ele>56.47</ele>
        <time>2025-02-17T06:17:48.585Z</time>
      </trkpt>
      <trkpt lat="59.18412694707513" lon="14.063690984621644">
        <ele>56.54</ele>
        <time>2025-02-17T06:18:44.029Z</time>
      </trkpt>
      <trkpt lat="59.184226943179965" lon="14.063673969358206">
        <ele>56.62</ele>
        <time>2025-02-17T06:19:39.474Z</time>
      </trkpt>
      <trkpt lat="59.1843269392848" lon="14.063648991286755">
        <ele>56.71</ele>
        <time>2025-02-17T06:20:34.921Z</time>
      </trkpt>
      <trkpt lat="59.18442592956126" lon="14.063614960759878">
        <ele>56.79</ele>
        <time>2025-02-17T06:21:30.369Z</time>
      </trkpt>
      <trkpt lat="59.184523997828364" lon="14.06357397325337">
        <ele>56.89</ele>
        <time>2025-02-17T06:22:25.819Z</time>
      </trkpt>
      <trkpt lat="59.18462198227644" lon="14.063524939119816">
        <ele>56.98</ele>
        <time>2025-02-17T06:23:21.271Z</time>
      </trkpt>
      <trkpt lat="59.184720972552896" lon="14.06346794217825">
        <ele>57.07</ele>
        <time>2025-02-17T06:24:16.724Z</time>
      </trkpt>
      <trkpt lat="59.18482096865773" lon="14.06340692192316">
        <ele>57.15</ele>
        <time>2025-02-17T06:25:12.179Z</time>
      </trkpt>
      <trkpt lat="59.18492197059095" lon="14.063342968001962">
        <ele>57.25</ele>
        <time>2025-02-17T06:26:07.636Z</time>
      </trkpt>
      <trkpt lat="59.185022972524166" lon="14.063278930261731">
        <ele>57.34</ele>
        <time>2025-02-17T06:27:03.094Z</time>
      </trkpt>
      <trkpt lat="59.18512397445738" lon="14.063214976340532">
        <ele>57.43</ele>
        <time>2025-02-17T06:27:58.554Z</time>
      </trkpt>
      <trkpt lat="59.1852249763906" lon="14.063150938600302">
        <ele>57.52</ele>
        <time>2025-02-17T06:28:54.016Z</time>
      </trkpt>
      <trkpt lat="59.18532597832382" lon="14.063090924173594">
        <ele>57.61</ele>
        <time>2025-02-17T06:29:49.479Z</time>
      </trkpt>
      <trkpt lat="59.18541692197323" lon="14.063023952767253">
        <ele>57.7</ele>
        <time>2025-02-17T06:30:44.944Z</time>
      </trkpt>
      <trkpt lat="59.18550996109843" lon="14.062956981360912">
        <ele>57.79</ele>
        <time>2025-02-17T06:31:40.411Z</time>
      </trkpt>
      <trkpt lat="59.18560995720327" lon="14.062894955277443">
        <ele>57.89</ele>
        <time>2025-02-17T06:32:35.879Z</time>
      </trkpt>
      <trkpt lat="59.185708947479725" lon="14.062833935022354">
        <ele>57.98</ele>
        <time>2025-02-17T06:33:31.349Z</time>
      </trkpt>
      <trkpt lat="59.18580492027104" lon="14.062767969444394">
        <ele>58.08</ele>
        <time>2025-02-17T06:34:26.821Z</time>
      </trkpt>
      <trkpt lat="59.185899971053004" lon="14.062700998038054">
        <ele>58.17</ele>
        <time>2025-02-17T06:35:22.294Z</time>
      </trkpt>
      <trkpt lat="59.18599594384432" lon="14.06263193115592">
        <ele>58.26</ele>
        <time>2025-02-17T06:36:17.769Z</time>
      </trkpt>
      <trkpt lat="59.18609191663563" lon="14.06256495974958">
        <ele>58.35</ele>
        <time>2025-02-17T06:37:13.246Z</time>
      </trkpt>
      <trkpt lat="59.18618998490274" lon="14.0625">
        <ele>58.43</ele>
        <time>2025-02-17T06:38:08.724Z</time>
      </trkpt>
      <trkpt lat="59.186286963522434" lon="14.062431938946247">
        <ele>58.52</ele>
        <time>2025-02-17T06:39:04.204Z</time>
      </trkpt>
      <trkpt lat="59.18638595379889" lon="14.062357926741242">
        <ele>58.59</ele>
        <time>2025-02-17T06:39:59.686Z</time>
      </trkpt>
      <trkpt lat="59.186481926590204" lon="14.062284920364618">
        <ele>58.67</ele>
        <time>2025-02-17T06:40:55.169Z</time>
      </trkpt>
      <trkpt lat="59.18657697737217" lon="14.06222096644342">
        <ele>58.75</ele>
        <time>2025-02-17T06:41:50.654Z</time>
      </trkpt>
      <trkpt lat="59.186672950163484" lon="14.062161957845092">
        <ele>58.84</ele>
        <time>2025-02-17T06:42:46.140Z</time>
      </trkpt>
      <trkpt lat="59.18677093461156" lon="14.062107978388667">
        <ele>58.92</ele>
        <time>2025-02-17T06:43:41.628Z</time>
      </trkpt>
      <trkpt lat="59.186867997050285" lon="14.062056932598352">
        <ele>59.01</ele>
        <time>2025-02-17T06:44:37.118Z</time>
      </trkpt>
      <trkpt lat="59.18696698732674" lon="14.062017956748605">
        <ele>59.09</ele>
        <time>2025-02-17T06:45:32.609Z</time>
      </trkpt>
      <trkpt lat="59.18706798925996" lon="14.061989961192012">
        <ele>59.17</ele>
        <time>2025-02-17T06:46:28.102Z</time>
      </trkpt>
      <trkpt lat="59.187170919030905" lon="14.061976969242096">
        <ele>59.25</ele>
        <time>2025-02-17T06:47:23.597Z</time>
      </trkpt>
      <trkpt lat="59.1872729267925" lon="14.061981998383999">
        <ele>59.33</ele>
        <time>2025-02-17T06:48:19.093Z</time>
      </trkpt>
      <trkpt lat="59.18737191706896" lon="14.062003958970308">
        <ele>59.41</ele>
        <time>2025-02-17T06:49:14.591Z</time>
      </trkpt>
      <trkpt lat="59.18746696785092" lon="14.062041928991675">
        <ele>59.5</ele>
        <time>2025-02-17T06:50:10.090Z</time>
      </trkpt>
      <trkpt lat="59.187555983662605" lon="14.062089957296848">
        <ele>59.59</ele>
        <time>2025-02-17T06:51:05.591Z</time>
      </trkpt>
      <trkpt lat="59.187640976160765" lon="14.062149971723557">
        <ele>59.68</ele>
        <time>2025-02-17T06:52:01.093Z</time>
      </trkpt>
      <trkpt lat="59.18772395700216" lon="14.062219960615039">
        <ele>59.77</ele>
        <time>2025-02-17T06:52:56.597Z</time>
      </trkpt>
      <trkpt lat="59.18779897503555" lon="14.062299923971295">
        <ele>59.86</ele>
        <time>2025-02-17T06:53:52.102Z</time>
      </trkpt>
      <trkpt lat="59.18786996975541" lon="14.062395980581641">
        <ele>59.96</ele>
        <time>2025-02-17T06:54:47.609Z</time>
      </trkpt>
      <trkpt lat="59.1879309900105" lon="14.062500922009349">
        <ele>60.05</ele>
        <time>2025-02-17T06:55:43.117Z</time>
      </trkpt>
      <trkpt lat="59.18798999860883" lon="14.062603935599327">
        <ele>60.15</ele>
        <time>2025-02-17T06:56:38.626Z</time>
      </trkpt>
      <trkpt lat="59.18804598972201" lon="14.062710972502828">
        <ele>60.24</ele>
        <time>2025-02-17T06:57:34.136Z</time>
      </trkpt>
      <trkpt lat="59.188096951693296" lon="14.062817925587296">
        <ele>60.33</ele>
        <time>2025-02-17T06:58:29.648Z</time>
      </trkpt>
      <trkpt lat="59.18814799748361" lon="14.062921945005655">
        <ele>60.42</ele>
        <time>2025-02-17T06:59:25.161Z</time>
      </trkpt>
      <trkpt lat="59.188200971111655" lon="14.063026970252395">
        <ele>60.52</ele>
        <time>2025-02-17T07:00:20.675Z</time>
      </trkpt>
      <trkpt lat="59.18825193308294" lon="14.063129983842373">
        <ele>60.61</ele>
        <time>2025-02-17T07:01:16.190Z</time>
      </trkpt>
      <trkpt lat="59.18830096721649" lon="14.06323098577559">
        <ele>60.71</ele>
        <time>2025-02-17T07:02:11.706Z</time>
      </trkpt>
      <trkpt lat="59.188350923359394" lon="14.063328970223665">
        <ele>60.81</ele>
        <time>2025-02-17T07:03:07.223Z</time>
      </trkpt>
      <trkpt lat="59.18840297497809" lon="14.06342494301498">
        <ele>60.91</ele>
        <time>2025-02-17T07:04:02.742Z</time>
      </trkpt>
      <trkpt lat="59.18845293112099" lon="14.063523933291435">
        <ele>61.01</ele>
        <time>2025-02-17T07:04:58.262Z</time>
      </trkpt>
      <trkpt lat="59.1884989477694" lon="14.06362191773951">
        <ele>61.11</ele>
        <time>2025-02-17T07:05:53.783Z</time>
      </trkpt>
      <trkpt lat="59.188542952761054" lon="14.063720991834998">
        <ele>61.2</ele>
        <time>2025-02-17T07:06:49.305Z</time>
      </trkpt>
      <trkpt lat="59.188588969409466" lon="14.063814952969551">
        <ele>61.3</ele>
        <time>2025-02-17T07:07:44.828Z</time>
      </trkpt>
      <trkpt lat="59.18863599188626" lon="14.063911931589246">
        <ele>61.4</ele>
        <time>2025-02-17T07:08:40.352Z</time>
      </trkpt>
      <trkpt lat="59.18868293054402" lon="14.064011927694082">
        <ele>61.49</ele>
        <time>2025-02-17T07:09:35.877Z</time>
      </trkpt>
      <trkpt lat="59.18873297050595" lon="14.064115947112441">
        <ele>61.59</ele>
        <time>2025-02-17T07:10:31.403Z</time>
      </trkpt>
      <trkpt lat="59.188785944134" lon="14.064223989844322">
        <ele>61.68</ele>
        <time>2025-02-17T07:11:26.931Z</time>
      </trkpt>
      <trkpt lat="59.18883992359042" lon="14.064330942928791">
        <ele>61.77</ele>
        <time>2025-02-17T07:12:22.460Z</time>
      </trkpt>
      <trkpt lat="59.18889398686588" lon="14.064439991489053">
        <ele>61.86</ele>
        <time>2025-02-17T07:13:17.990Z</time>
      </trkpt>
      <trkpt lat="59.18894897215068" lon="14.064550967887044">
        <ele>61.95</ele>
        <time>2025-02-17T07:14:13.521Z</time>
      </trkpt>
      <trkpt lat="59.18900496326387" lon="14.064658926799893">
        <ele>62.04</ele>
        <time>2025-02-17T07:15:09.054Z</time>
      </trkpt>
      <trkpt lat="59.189059948548675" lon="14.064768981188536">
        <ele>62.14</ele>
        <time>2025-02-17T07:16:04.588Z</time>
      </trkpt>
      <trkpt lat="59.18911694549024" lon="14.064873922616243">
        <ele>62.23</ele>
        <time>2025-02-17T07:17:00.123Z</time>
      </trkpt>
      <trkpt lat="59.18917695991695" lon="14.06497391872108">
        <ele>62.32</ele>
        <time>2025-02-17T07:17:55.659Z</time>
      </trkpt>
      <trkpt lat="59.1892399918288" lon="14.065072992816567">
        <ele>62.41</ele>
        <time>2025-02-17T07:18:51.197Z</time>
      </trkpt>
      <trkpt lat="59.18930394575" lon="14.065174916759133">
        <ele>62.5</ele>
        <time>2025-02-17T07:19:46.736Z</time>
      </trkpt>
      <trkpt lat="59.18936898931861" lon="14.06527591869235">
        <ele>62.59</ele>
        <time>2025-02-17T07:20:42.276Z</time>
      </trkpt>
      <trkpt lat="59.18943495489657" lon="14.065366946160793">
        <ele>62.68</ele>
        <time>2025-02-17T07:21:37.818Z</time>
      </trkpt>
      <trkpt lat="59.18950092047453" lon="14.065455961972475">
        <ele>62.76</ele>
        <time>2025-02-17T07:22:33.361Z</time>
      </trkpt>
      <trkpt lat="59.18956898152828" lon="14.065540954470634">
        <ele>62.85</ele>
        <time>2025-02-17T07:23:28.905Z</time>
      </trkpt>
      <trkpt lat="59.189637964591384" lon="14.0656169783324">
        <ele>62.93</ele>
        <time>2025-02-17T07:24:24.450Z</time>
      </trkpt>
      <trkpt lat="59.189706947654486" lon="14.065690990537405">
        <ele>63.02</ele>
        <time>2025-02-17T07:25:19.997Z</time>
      </trkpt>
      <trkpt lat="59.18977693654597" lon="14.065761985257268">
        <ele>63.1</ele>
        <time>2025-02-17T07:26:15.545Z</time>
      </trkpt>
      <trkpt lat="59.18984692543745" lon="14.06582996249199">
        <ele>63.18</ele>
        <time>2025-02-17T07:27:11.094Z</time>
      </trkpt>
      <trkpt lat="59.189918925985694" lon="14.065888971090317">
        <ele>63.26</ele>
        <time>2025-02-17T07:28:06.644Z</time>
      </trkpt>
      <trkpt lat="59.18999394401908" lon="14.06594093888998">
        <ele>63.33</ele>
        <time>2025-02-17T07:29:02.196Z</time>
      </trkpt>
      <trkpt lat="59.190069967880845" lon="14.065994918346405">
        <ele>63.4</ele>
        <time>2025-02-17T07:29:57.749Z</time>
      </trkpt>
      <trkpt lat="59.19014498591423" lon="14.06604596413672">
        <ele>63.48</ele>
        <time>2025-02-17T07:30:53.303Z</time>
      </trkpt>
      <trkpt lat="59.190222937613726" lon="14.066095920279622">
        <ele>63.55</ele>
        <time>2025-02-17T07:31:48.859Z</time>
      </trkpt>
      <trkpt lat="59.19029996730387" lon="14.066145960241556">
        <ele>63.62</ele>
        <time>2025-02-17T07:32:44.416Z</time>
      </trkpt>
      <trkpt lat="59.19037791900337" lon="14.06619692221284">
        <ele>63.69</ele>
        <time>2025-02-17T07:33:39.974Z</time>
      </trkpt>
      <trkpt lat="59.190456960350275" lon="14.066250985488296">
        <ele>63.76</ele>
        <time>2025-02-17T07:34:35.534Z</time>
      </trkpt>
      <trkpt lat="59.19053591787815" lon="14.06630395911634">
        <ele>63.83</ele>
        <time>2025-02-17T07:35:31.095Z</time>
      </trkpt>
      <trkpt lat="59.19061495922506" lon="14.066358944401145">
        <ele>63.9</ele>
        <time>2025-02-17T07:36:26.657Z</time>
      </trkpt>
      <trkpt lat="59.190694922581315" lon="14.066415941342711">
        <ele>63.97</ele>
        <time>2025-02-17T07:37:22.221Z</time>
      </trkpt>
      <trkpt lat="59.19077396392822" lon="14.066472938284278">
        <ele>64.04</ele>
        <time>2025-02-17T07:38:17.786Z</time>
      </trkpt>
      <trkpt lat="59.19085199944675" lon="14.066528929397464">
        <ele>64.12</ele>
        <time>2025-02-17T07:39:13.352Z</time>
      </trkpt>
      <trkpt lat="59.19092592783272" lon="14.066587937995791">
        <ele>64.19</ele>
        <time>2025-02-17T07:40:08.920Z</time>
      </trkpt>
      <trkpt lat="59.19099994003773" lon="14.066643929108977">
        <ele>64.26</ele>
        <time>2025-02-17T07:41:04.489Z</time>
      </trkpt>
      <trkpt lat="59.19107495807111" lon="14.066697992384434">
        <ele>64.33</ele>
        <time>2025-02-17T07:42:00.059Z</time>
      </trkpt>
      <trkpt lat="59.19114796444774" lon="14.066749960184097">
        <ele>64.4</ele>
        <time>2025-02-17T07:42:55.630Z</time>
      </trkpt>
      <trkpt lat="59.19122097082436" lon="14.066803939640522">
        <ele>64.47</ele>
        <time>2025-02-17T07:43:51.203Z</time>
      </trkpt>
      <trkpt lat="59.191292971372604" lon="14.066852973774076">
        <ele>64.54</ele>
        <time>2025-02-17T07:44:46.777Z</time>
      </trkpt>
      <trkpt lat="59.19136497192085" lon="14.066902929916978">
        <ele>64.61</ele>
        <time>2025-02-17T07:45:42.352Z</time>
      </trkpt>
      <trkpt lat="59.19143596664071" lon="14.066954981535673">
        <ele>64.68</ele>
        <time>2025-02-17T07:46:37.928Z</time>
      </trkpt>
      <trkpt lat="59.19150595553219" lon="14.067006949335337">
        <ele>64.75</ele>
        <time>2025-02-17T07:47:33.506Z</time>
      </trkpt>
      <trkpt lat="59.191575944423676" lon="14.06705497764051">
        <ele>64.82</ele>
        <time>2025-02-17T07:48:29.085Z</time>
      </trkpt>
      <trkpt lat="59.19164593331516" lon="14.067104933783412">
        <ele>64.87</ele>
        <time>2025-02-17T07:49:24.665Z</time>
      </trkpt>
      <trkpt lat="59.19171592220664" lon="14.067155979573727">
        <ele>64.93</ele>
        <time>2025-02-17T07:50:20.246Z</time>
      </trkpt>
      <trkpt lat="59.1917869169265" lon="14.067204929888248">
        <ele>64.98</ele>
        <time>2025-02-17T07:51:15.828Z</time>
      </trkpt>
      <trkpt lat="59.19185698963702" lon="14.06725195236504">
        <ele>65.03</ele>
        <time>2025-02-17T07:52:11.412Z</time>
      </trkpt>
      <trkpt lat="59.19192597270012" lon="14.067296963185072">
        <ele>65.08</ele>
        <time>2025-02-17T07:53:06.997Z</time>
      </trkpt>
      <trkpt lat="59.19199797324836" lon="14.067345997318625">
        <ele>65.13</ele>
        <time>2025-02-17T07:54:02.583Z</time>
      </trkpt>
      <trkpt lat="59.192068967968225" lon="14.067391930148005">
        <ele>65.18</ele>
        <time>2025-02-17T07:54:58.170Z</time>
      </trkpt>
      <trkpt lat="59.19213996268809" lon="14.067435935139656">
        <ele>65.23</ele>
        <time>2025-02-17T07:55:53.758Z</time>
      </trkpt>
      <trkpt lat="59.19221095740795" lon="14.067482957616448">
        <ele>65.28</ele>
        <time>2025-02-17T07:56:49.348Z</time>
      </trkpt>
      <trkpt lat="59.192280946299434" lon="14.067532997578382">
        <ele>65.33</ele>
        <time>2025-02-17T07:57:44.939Z</time>
      </trkpt>
      <trkpt lat="59.192350935190916" lon="14.067582953721285">
        <ele>65.38</ele>
        <time>2025-02-17T07:58:40.531Z</time>
      </trkpt>
      <trkpt lat="59.19242192991078" lon="14.0676339995116">
        <ele>65.42</ele>
        <time>2025-02-17T07:59:36.124Z</time>
      </trkpt>
      <trkpt lat="59.19249292463064" lon="14.067685967311263">
        <ele>65.46</ele>
        <time>2025-02-17T08:00:31.718Z</time>
      </trkpt>
      <trkpt lat="59.192563919350505" lon="14.067737935110927">
        <ele>65.5</ele>
        <time>2025-02-17T08:01:27.314Z</time>
      </trkpt>
      <trkpt lat="59.19263399206102" lon="14.067788980901241">
        <ele>65.54</ele>
        <time>2025-02-17T08:02:22.911Z</time>
      </trkpt>
      <trkpt lat="59.19270498678088" lon="14.067839942872524">
        <ele>65.58</ele>
        <time>2025-02-17T08:03:18.509Z</time>
      </trkpt>
      <trkpt lat="59.192774975672364" lon="14.06789199449122">
        <ele>65.61</ele>
        <time>2025-02-17T08:04:14.108Z</time>
      </trkpt>
      <trkpt lat="59.19284496456385" lon="14.067942956462502">
        <ele>65.65</ele>
        <time>2025-02-17T08:05:09.708Z</time>
      </trkpt>
      <trkpt lat="59.19291595928371" lon="14.067991990596056">
        <ele>65.69</ele>
        <time>2025-02-17T08:06:05.310Z</time>
      </trkpt>
      <trkpt lat="59.19298695400357" lon="14.068041946738958">
        <ele>65.72</ele>
        <time>2025-02-17T08:07:00.913Z</time>
      </trkpt>
      <trkpt lat="59.193058954551816" lon="14.068090980872512">
        <ele>65.75</ele>
        <time>2025-02-17T08:07:56.517Z</time>
      </trkpt>
      <trkpt lat="59.1931289434433" lon="14.068143954500556">
        <ele>65.78</ele>
        <time>2025-02-17T08:08:52.122Z</time>
      </trkpt>
      <trkpt lat="59.19320094399154" lon="14.068194916471839">
        <ele>65.81</ele>
        <time>2025-02-17T08:09:47.728Z</time>
      </trkpt>
      <trkpt lat="59.193273950368166" lon="14.068247973918915">
        <ele>65.84</ele>
        <time>2025-02-17T08:10:43.336Z</time>
      </trkpt>
      <trkpt lat="59.19334796257317" lon="14.06830195337534">
        <ele>65.88</ele>
        <time>2025-02-17T08:11:38.945Z</time>
      </trkpt>
      <trkpt lat="59.19342398643494" lon="14.068356938660145">
        <ele>65.91</ele>
        <time>2025-02-17T08:12:34.555Z</time>
      </trkpt>
      <trkpt lat="59.19349799863994" lon="14.068415947258472">
        <ele>65.94</ele>
        <time>2025-02-17T08:13:30.167Z</time>
      </trkpt>
      <trkpt lat="59.193572932854295" lon="14.068477973341942">
        <ele>65.97</ele>
        <time>2025-02-17T08:14:25.780Z</time>
      </trkpt>
      <trkpt lat="59.19364593923092" lon="14.068543938919902">
        <ele>66.0</ele>
        <time>2025-02-17T08:15:21.394Z</time>
      </trkpt>
      <trkpt lat="59.19371793977916" lon="14.068614933639765">
        <ele>66.02</ele>
        <time>2025-02-17T08:16:17.009Z</time>
      </trkpt>
      <trkpt lat="59.193789940327406" lon="14.068691963329911">
        <ele>66.05</ele>
        <time>2025-02-17T08:17:12.626Z</time>
      </trkpt>
      <trkpt lat="59.19386093504727" lon="14.068777961656451">
        <ele>66.08</ele>
        <time>2025-02-17T08:18:08.244Z</time>
      </trkpt>
      <trkpt lat="59.19393192976713" lon="14.068870916962624">
        <ele>66.11</ele>
        <time>2025-02-17T08:19:03.863Z</time>
      </trkpt>
      <trkpt lat="59.193999990820885" lon="14.068972924724221">
        <ele>66.14</ele>
        <time>2025-02-17T08:19:59.484Z</time>
      </trkpt>
      <trkpt lat="59.1940629389137" lon="14.069088930264115">
        <ele>66.16</ele>
        <time>2025-02-17T08:20:55.106Z</time>
      </trkpt>
      <trkpt lat="59.19412295334041" lon="14.069217927753925">
        <ele>66.2</ele>
        <time>2025-02-17T08:21:50.730Z</time>
      </trkpt>
      <trkpt lat="59.194176932796836" lon="14.06935497187078">
        <ele>66.23</ele>
        <time>2025-02-17T08:22:46.355Z</time>
      </trkpt>
      <trkpt lat="59.19422697275877" lon="14.06950299628079">
        <ele>66.26</ele>
        <time>2025-02-17T08:23:41.982Z</time>
      </trkpt>
      <trkpt lat="59.19427692890167" lon="14.069659989327192">
        <ele>66.29</ele>
        <time>2025-02-17T08:24:37.610Z</time>
      </trkpt>
      <trkpt lat="59.194323951378465" lon="14.069824945181608">
        <ele>66.32</ele>
        <time>2025-02-17T08:25:33.240Z</time>
      </trkpt>
      <trkpt lat="59.19436996802688" lon="14.069991996511817">
        <ele>66.34</ele>
        <time>2025-02-17T08:26:28.871Z</time>
      </trkpt>
      <trkpt lat="59.194411961361766" lon="14.070162987336516">
        <ele>66.35</ele>
        <time>2025-02-17T08:27:24.504Z</time>
      </trkpt>
      <trkpt lat="59.194451943039894" lon="14.070334983989596">
        <ele>66.36</ele>
        <time>2025-02-17T08:28:20.138Z</time>
      </trkpt>
      <trkpt lat="59.19449393637478" lon="14.070508992299438">
        <ele>66.38</ele>
        <time>2025-02-17T08:29:15.774Z</time>
      </trkpt>
      <trkpt lat="59.194539953023195" lon="14.070679983124137">
        <ele>66.4</ele>
        <time>2025-02-17T08:30:11.411Z</time>
      </trkpt>
      <trkpt lat="59.19458798132837" lon="14.070850973948836">
        <ele>66.42</ele>
        <time>2025-02-17T08:31:07.050Z</time>
      </trkpt>
      <trkpt lat="59.19463793747127" lon="14.071016935631633">
        <ele>66.44</ele>
        <time>2025-02-17T08:32:02.691Z</time>
      </trkpt>
      <trkpt lat="59.194690994918346" lon="14.071176946163177">
        <ele>66.46</ele>
        <time>2025-02-17T08:32:58.333Z</time>
      </trkpt>
      <trkpt lat="59.19474497437477" lon="14.0713329333812">
        <ele>66.48</ele>
        <time>2025-02-17T08:33:53.977Z</time>
      </trkpt>
      <trkpt lat="59.194799959659576" lon="14.071484981104732">
        <ele>66.5</ele>
        <time>2025-02-17T08:34:49.622Z</time>
      </trkpt>
      <trkpt lat="59.194853939116" lon="14.07163292169571">
        <ele>66.51</ele>
        <time>2025-02-17T08:35:45.269Z</time>
      </trkpt>
      <trkpt lat="59.19490993022919" lon="14.071774994954467">
        <ele>66.53</ele>
        <time>2025-02-17T08:36:40.917Z</time>
      </trkpt>
      <trkpt lat="59.194967932999134" lon="14.071913966909051">
        <ele>66.54</ele>
        <time>2025-02-17T08:37:36.567Z</time>
      </trkpt>
      <trkpt lat="59.195030964910984" lon="14.072055956348777">
        <ele>66.55</ele>
        <time>2025-02-17T08:38:32.218Z</time>
      </trkpt>
      <trkpt lat="59.19508896768093" lon="14.0721929166466">
        <ele>66.56</ele>
        <time>2025-02-17T08:39:27.871Z</time>
      </trkpt>
      <trkpt lat="59.1951459646225" lon="14.072326943278313">
        <ele>66.56</ele>
        <time>2025-02-17T08:40:23.525Z</time>
      </trkpt>
      <trkpt lat="59.19520195573568" lon="14.072457952424884">
        <ele>66.57</ele>
        <time>2025-02-17T08:41:19.181Z</time>
      </trkpt>
      <trkpt lat="59.19525694102049" lon="14.072583932429552">
        <ele>66.57</ele>
        <time>2025-02-17T08:42:14.838Z</time>
      </trkpt>
      <trkpt lat="59.195311926305294" lon="14.07270798459649">
        <ele>66.58</ele>
        <time>2025-02-17T08:43:10.496Z</time>
      </trkpt>
      <trkpt lat="59.19536699540913" lon="14.072832958772779">
        <ele>66.58</ele>
        <time>2025-02-17T08:44:06.156Z</time>
      </trkpt>
      <trkpt lat="59.195420974865556" lon="14.072955921292305">
        <ele>66.59</ele>
        <time>2025-02-17T08:45:01.817Z</time>
      </trkpt>
      <trkpt lat="59.19547696597874" lon="14.073075950145721">
        <ele>66.59</ele>
        <time>2025-02-17T08:45:57.479Z</time>
      </trkpt>
      <trkpt lat="59.19553597457707" lon="14.073192961513996">
        <ele>66.6</ele>
        <time>2025-02-17T08:46:53.143Z</time>
      </trkpt>
      <trkpt lat="59.19559699483216" lon="14.073304943740368">
        <ele>66.61</ele>
        <time>2025-02-17T08:47:48.808Z</time>
      </trkpt>
      <trkpt lat="59.195659942924976" lon="14.07341499812901">
        <ele>66.61</ele>
        <time>2025-02-17T08:48:44.474Z</time>
      </trkpt>
      <trkpt lat="59.19572498649359" lon="14.07352295704186">
        <ele>66.61</ele>
        <time>2025-02-17T08:49:40.142Z</time>
      </trkpt>
      <trkpt lat="59.19579296372831" lon="14.07362898811698">
        <ele>66.62</ele>
        <time>2025-02-17T08:50:35.811Z</time>
      </trkpt>
      <trkpt lat="59.19586194679141" lon="14.073732923716307">
        <ele>66.62</ele>
        <time>2025-02-17T08:51:31.482Z</time>
      </trkpt>
      <trkpt lat="59.195933947339654" lon="14.073836943134665">
        <ele>66.62</ele>
        <time>2025-02-17T08:52:27.154Z</time>
      </trkpt>
      <trkpt lat="59.19600896537304" lon="14.073941968381405">
        <ele>66.61</ele>
        <time>2025-02-17T08:53:22.827Z</time>
      </trkpt>
      <trkpt lat="59.196085995063186" lon="14.074046993628144">
        <ele>66.61</ele>
        <time>2025-02-17T08:54:18.502Z</time>
      </trkpt>
      <trkpt lat="59.19616495259106" lon="14.074151935055852">
        <ele>66.6</ele>
        <time>2025-02-17T08:55:14.179Z</time>
      </trkpt>
      <trkpt lat="59.1962459217757" lon="14.074256960302591">
        <ele>66.6</ele>
        <time>2025-02-17T08:56:09.857Z</time>
      </trkpt>
      <trkpt lat="59.19632798060775" lon="14.074362991377711">
        <ele>66.59</ele>
        <time>2025-02-17T08:57:05.537Z</time>
      </trkpt>
      <trkpt lat="59.19641297310591" lon="14.07447095029056">
        <ele>66.59</ele>
        <time>2025-02-17T08:58:01.218Z</time>
      </trkpt>
      <trkpt lat="59.19649796560407" lon="14.074577987194061">
        <ele>66.59</ele>
        <time>2025-02-17T08:58:56.901Z</time>
      </trkpt>
      <trkpt lat="59.196582958102226" lon="14.074688963592052">
        <ele>66.59</ele>
        <time>2025-02-17T08:59:52.586Z</time>
      </trkpt>
      <trkpt lat="59.196666944772005" lon="14.074797928333282">
        <ele>66.59</ele>
        <time>2025-02-17T09:00:48.272Z</time>
      </trkpt>
      <trkpt lat="59.196754954755306" lon="14.074909994378686">
        <ele>66.58</ele>
        <time>2025-02-17T09:01:43.960Z</time>
      </trkpt>
      <trkpt lat="59.19684195891023" lon="14.075018959119916">
        <ele>66.58</ele>
        <time>2025-02-17T09:02:39.650Z</time>
      </trkpt>
      <trkpt lat="59.196926951408386" lon="14.075127923861146">
        <ele>66.58</ele>
        <time>2025-02-17T09:03:35.341Z</time>
      </trkpt>
      <trkpt lat="59.197012949734926" lon="14.075236972421408">
        <ele>66.57</ele>
        <time>2025-02-17T09:04:31.034Z</time>
      </trkpt>
      <trkpt lat="59.19709995388985" lon="14.075345937162638">
        <ele>66.56</ele>
        <time>2025-02-17T09:05:26.728Z</time>
      </trkpt>
      <trkpt lat="59.197184946388006" lon="14.075453979894519">
        <ele>66.56</ele>
        <time>2025-02-17T09:06:22.424Z</time>
      </trkpt>
      <trkpt lat="59.197268933057785" lon="14.075562944635749">
        <ele>66.55</ele>
        <time>2025-02-17T09:07:18.122Z</time>
      </trkpt>
      <trkpt lat="59.197350991889834" lon="14.07567492686212">
        <ele>66.55</ele>
        <time>2025-02-17T09:08:13.821Z</time>
      </trkpt>
      <trkpt lat="59.19743397273123" lon="14.075784981250763">
        <ele>66.54</ele>
        <time>2025-02-17T09:09:09.522Z</time>
      </trkpt>
      <trkpt lat="59.19751594774425" lon="14.075891934335232">
        <ele>66.54</ele>
        <time>2025-02-17T09:10:05.224Z</time>
      </trkpt>
      <trkpt lat="59.19759792275727" lon="14.075996959581971">
        <ele>66.54</ele>
        <time>2025-02-17T09:11:00.928Z</time>
      </trkpt>
      <trkpt lat="59.19767998158932" lon="14.07610198482871">
        <ele>66.53</ele>
        <time>2025-02-17T09:11:56.634Z</time>
      </trkpt>
      <trkpt lat="59.197759944945574" lon="14.07620893791318">
        <ele>66.51</ele>
        <time>2025-02-17T09:12:52.341Z</time>
      </trkpt>
      <trkpt lat="59.1978379804641" lon="14.076313963159919">
        <ele>66.5</ele>
        <time>2025-02-17T09:13:48.050Z</time>
      </trkpt>
      <trkpt lat="59.19791693799198" lon="14.076417982578278">
        <ele>66.49</ele>
        <time>2025-02-17T09:14:43.760Z</time>
      </trkpt>
      <trkpt lat="59.19799396768212" lon="14.076522924005985">
        <ele>66.47</ele>
        <time>2025-02-17T09:15:39.472Z</time>
      </trkpt>
      <trkpt lat="59.19806999154389" lon="14.076623925939202">
        <ele>66.45</ele>
        <time>2025-02-17T09:16:35.185Z</time>
      </trkpt>
      <trkpt lat="59.19814593158662" lon="14.076723922044039">
        <ele>66.43</ele>
        <time>2025-02-17T09:17:30.900Z</time>
      </trkpt>
      <trkpt lat="59.19822195544839" lon="14.076822996139526">
        <ele>66.4</ele>
        <time>2025-02-17T09:18:26.616Z</time>
      </trkpt>
      <trkpt lat="59.198298985138535" lon="14.076919974759221">
        <ele>66.37</ele>
        <time>2025-02-17T09:19:22.334Z</time>
      </trkpt>
      <trkpt lat="59.19837593100965" lon="14.077015947550535">
        <ele>66.34</ele>
        <time>2025-02-17T09:20:18.053Z</time>
      </trkpt>
      <trkpt lat="59.198451954871416" lon="14.0771109983325">
        <ele>66.31</ele>
        <time>2025-02-17T09:21:13.774Z</time>
      </trkpt>
      <trkpt lat="59.19852898456156" lon="14.077207976952195">
        <ele>66.27</ele>
        <time>2025-02-17T09:22:09.496Z</time>
      </trkpt>
      <trkpt lat="59.19860794208944" lon="14.077299926429987">
        <ele>66.22</ele>
        <time>2025-02-17T09:23:05.220Z</time>
      </trkpt>
      <trkpt lat="59.198686983436346" lon="14.077384918928146">
        <ele>66.18</ele>
        <time>2025-02-17T09:24:00.945Z</time>
      </trkpt>
      <trkpt lat="59.1987669467926" lon="14.077467983588576">
        <ele>66.13</ele>
        <time>2025-02-17T09:24:56.671Z</time>
      </trkpt>
      <trkpt lat="59.19884699396789" lon="14.077551970258355">
        <ele>66.09</ele>
        <time>2025-02-17T09:25:52.399Z</time>
      </trkpt>
      <trkpt lat="59.19892695732415" lon="14.077634951099753">
        <ele>66.05</ele>
        <time>2025-02-17T09:26:48.128Z</time>
      </trkpt>
      <trkpt lat="59.199005998671055" lon="14.077717931941152">
        <ele>66.01</ele>
        <time>2025-02-17T09:27:43.859Z</time>
      </trkpt>
      <trkpt lat="59.19908596202731" lon="14.07779797911644">
        <ele>65.96</ele>
        <time>2025-02-17T09:28:39.591Z</time>
      </trkpt>
      <trkpt lat="59.19916693121195" lon="14.077874924987555">
        <ele>65.93</ele>
        <time>2025-02-17T09:29:35.325Z</time>
      </trkpt>
      <trkpt lat="59.19924798421562" lon="14.07794893719256">
        <ele>65.89</ele>
        <time>2025-02-17T09:30:31.060Z</time>
      </trkpt>
      <trkpt lat="59.199329959228635" lon="14.078023955225945">
        <ele>65.85</ele>
        <time>2025-02-17T09:31:26.797Z</time>
      </trkpt>
      <trkpt lat="59.19941092841327" lon="14.078102996572852">
        <ele>65.82</ele>
        <time>2025-02-17T09:32:22.535Z</time>
      </trkpt>
      <trkpt lat="59.19949298724532" lon="14.078182959929109">
        <ele>65.78</ele>
        <time>2025-02-17T09:33:18.274Z</time>
      </trkpt>
      <trkpt lat="59.19957496225834" lon="14.078261917456985">
        <ele>65.74</ele>
        <time>2025-02-17T09:34:14.015Z</time>
      </trkpt>
      <trkpt lat="59.199654925614595" lon="14.078344982117414">
        <ele>65.7</ele>
        <time>2025-02-17T09:35:09.757Z</time>
      </trkpt>
      <trkpt lat="59.19973195530474" lon="14.078435925766826">
        <ele>65.65</ele>
        <time>2025-02-17T09:36:05.501Z</time>
      </trkpt>
      <trkpt lat="59.19980596750975" lon="14.078531982377172">
        <ele>65.6</ele>
        <time>2025-02-17T09:37:01.246Z</time>
      </trkpt>
      <trkpt lat="59.19987997971475" lon="14.078629966825247">
        <ele>65.55</ele>
        <time>2025-02-17T09:37:56.993Z</time>
      </trkpt>
      <trkpt lat="59.199950974434614" lon="14.078733986243606">
        <ele>65.5</ele>
        <time>2025-02-17T09:38:52.741Z</time>
      </trkpt>
      <trkpt lat="59.20002297498286" lon="14.078843956813216">
        <ele>65.45</ele>
        <time>2025-02-17T09:39:48.491Z</time>
      </trkpt>
      <trkpt lat="59.20009195804596" lon="14.07895996235311">
        <ele>65.4</ele>
        <time>2025-02-17T09:40:44.242Z</time>
      </trkpt>
      <trkpt lat="59.20015792362392" lon="14.079079991206527">
        <ele>65.35</ele>
        <time>2025-02-17T09:41:39.994Z</time>
      </trkpt>
      <trkpt lat="59.20022196136415" lon="14.079204965382814">
        <ele>65.3</ele>
        <time>2025-02-17T09:42:35.748Z</time>
      </trkpt>
      <trkpt lat="59.200284993276" lon="14.079334968701005">
        <ele>65.25</ele>
        <time>2025-02-17T09:43:31.503Z</time>
      </trkpt>
      <trkpt lat="59.200343918055296" lon="14.079470923170447">
        <ele>65.19</ele>
        <time>2025-02-17T09:44:27.260Z</time>
      </trkpt>
      <trkpt lat="59.200400998815894" lon="14.079609978944063">
        <ele>65.13</ele>
        <time>2025-02-17T09:45:23.018Z</time>
      </trkpt>
      <trkpt lat="59.2004559841007" lon="14.079749956727028">
        <ele>65.08</ele>
        <time>2025-02-17T09:46:18.778Z</time>
      </trkpt>
      <trkpt lat="59.200508957728744" lon="14.079892951995134">
        <ele>65.02</ele>
        <time>2025-02-17T09:47:14.539Z</time>
      </trkpt>
      <trkpt lat="59.20056193135679" lon="14.080037958920002">
        <ele>64.96</ele>
        <time>2025-02-17T09:48:10.302Z</time>
      </trkpt>
      <trkpt lat="59.20061498880386" lon="14.08018296584487">
        <ele>64.9</ele>
        <time>2025-02-17T09:49:06.066Z</time>
      </trkpt>
      <trkpt lat="59.20066896826029" lon="14.080322943627834">
        <ele>64.84</ele>
        <time>2025-02-17T09:50:01.832Z</time>
      </trkpt>
      <trkpt lat="59.20072395354509" lon="14.08046392723918">
        <ele>64.78</ele>
        <time>2025-02-17T09:50:57.599Z</time>
      </trkpt>
      <trkpt lat="59.20077692717314" lon="14.080609939992428">
        <ele>64.71</ele>
        <time>2025-02-17T09:51:53.368Z</time>
      </trkpt>
      <trkpt lat="59.20082897879183" lon="14.080754946917295">
        <ele>64.64</ele>
        <time>2025-02-17T09:52:49.138Z</time>
      </trkpt>
      <trkpt lat="59.20088195241988" lon="14.080901965498924">
        <ele>64.56</ele>
        <time>2025-02-17T09:53:44.909Z</time>
      </trkpt>
      <trkpt lat="59.20093392021954" lon="14.081047978252172">
        <ele>64.49</ele>
        <time>2025-02-17T09:54:40.682Z</time>
      </trkpt>
      <trkpt lat="59.200985971838236" lon="14.08119399100542">
        <ele>64.4</ele>
        <time>2025-02-17T09:55:36.456Z</time>
      </trkpt>
      <trkpt lat="59.20103894546628" lon="14.081340925768018">
        <ele>64.32</ele>
        <time>2025-02-17T09:56:32.232Z</time>
      </trkpt>
      <trkpt lat="59.201092924922705" lon="14.081484926864505">
        <ele>64.24</ele>
        <time>2025-02-17T09:57:28.009Z</time>
      </trkpt>
      <trkpt lat="59.20114698819816" lon="14.081629933789372">
        <ele>64.16</ele>
        <time>2025-02-17T09:58:23.788Z</time>
      </trkpt>
      <trkpt lat="59.201200967654586" lon="14.08177393488586">
        <ele>64.08</ele>
        <time>2025-02-17T09:59:19.568Z</time>
      </trkpt>
      <trkpt lat="59.20125595293939" lon="14.081917935982347">
        <ele>64.0</ele>
        <time>2025-02-17T10:00:15.350Z</time>
      </trkpt>
      <trkpt lat="59.201309932395816" lon="14.08205296844244">
        <ele>63.92</ele>
        <time>2025-02-17T10:01:11.133Z</time>
      </trkpt>
      <trkpt lat="59.20136491768062" lon="14.082188922911882">
        <ele>63.84</ele>
        <time>2025-02-17T10:02:06.918Z</time>
      </trkpt>
      <trkpt lat="59.20142392627895" lon="14.082321943715215">
        <ele>63.76</ele>
        <time>2025-02-17T10:03:02.704Z</time>
      </trkpt>
      <trkpt lat="59.20148595236242" lon="14.082448929548264">
        <ele>63.69</ele>
        <time>2025-02-17T10:03:58.491Z</time>
      </trkpt>
      <trkpt lat="59.20155292376876" lon="14.082566946744919">
        <ele>63.61</ele>
        <time>2025-02-17T10:04:54.280Z</time>
      </trkpt>
      <trkpt lat="59.20162593014538" lon="14.082671971991658">
        <ele>63.54</ele>
        <time>2025-02-17T10:05:50.070Z</time>
      </trkpt>
      <trkpt lat="59.20170396566391" lon="14.08276392146945">
        <ele>63.46</ele>
        <time>2025-02-17T10:06:45.862Z</time>
      </trkpt>
      <trkpt lat="59.20178493484855" lon="14.082840951159596">
        <ele>63.38</ele>
        <time>2025-02-17T10:07:41.655Z</time>
      </trkpt>
      <trkpt lat="59.201868921518326" lon="14.082904988899827">
        <ele>63.31</ele>
        <time>2025-02-17T10:08:37.450Z</time>
      </trkpt>
      <trkpt lat="59.20195693150163" lon="14.082949999719858">
        <ele>63.23</ele>
        <time>2025-02-17T10:09:33.246Z</time>
      </trkpt>
      <trkpt lat="59.20204594731331" lon="14.082980928942561">
        <ele>63.14</ele>
        <time>2025-02-17T10:10:29.044Z</time>
      </trkpt>
      <trkpt lat="59.20213395729661" lon="14.082997944206">
        <ele>63.06</ele>
        <time>2025-02-17T10:11:24.843Z</time>
      </trkpt>
      <trkpt lat="59.20222196727991" lon="14.08299995586276">
        <ele>62.98</ele>
        <time>2025-02-17T10:12:20.643Z</time>
      </trkpt>
      <trkpt lat="59.20230897143483" lon="14.082987969741225">
        <ele>62.9</ele>
        <time>2025-02-17T10:13:16.445Z</time>
      </trkpt>
      <trkpt lat="59.20239195227623" lon="14.082966931164265">
        <ele>62.81</ele>
        <time>2025-02-17T10:14:12.248Z</time>
      </trkpt>
      <trkpt lat="59.20247694477439" lon="14.082943964749575">
        <ele>62.73</ele>
        <time>2025-02-17T10:15:08.053Z</time>
      </trkpt>
      <trkpt lat="59.20256193727255" lon="14.082916975021362">
        <ele>62.64</ele>
        <time>2025-02-17T10:16:03.859Z</time>
      </trkpt>
      <trkpt lat="59.20264491811395" lon="14.082885961979628">
        <ele>62.55</ele>
        <time>2025-02-17T10:16:59.666Z</time>
      </trkpt>
      <trkpt lat="59.20273292809725" lon="14.08285092562437">
        <ele>62.45</ele>
        <time>2025-02-17T10:17:55.475Z</time>
      </trkpt>
      <trkpt lat="59.20281599275768" lon="14.082814967259765">
        <ele>62.36</ele>
        <time>2025-02-17T10:18:51.285Z</time>
      </trkpt>
      <trkpt lat="59.202896961942315" lon="14.082777919247746">
        <ele>62.26</ele>
        <time>2025-02-17T10:19:47.096Z</time>
      </trkpt>
      <trkpt lat="59.20297793112695" lon="14.082737937569618">
        <ele>62.15</ele>
        <time>2025-02-17T10:20:42.909Z</time>
      </trkpt>
      <trkpt lat="59.20305797830224" lon="14.082700973376632">
        <ele>62.04</ele>
        <time>2025-02-17T10:21:38.723Z</time>
      </trkpt>
      <trkpt lat="59.203136935830116" lon="14.082664931192994">
        <ele>61.93</ele>
        <time>2025-02-17T10:22:34.538Z</time>
      </trkpt>
      <trkpt lat="59.203215977177024" lon="14.082626961171627">
        <ele>61.81</ele>
        <time>2025-02-17T10:23:30.355Z</time>
      </trkpt>
      <trkpt lat="59.2032949347049" lon="14.08259091898799">
        <ele>61.7</ele>
        <time>2025-02-17T10:24:26.173Z</time>
      </trkpt>
      <trkpt lat="59.20337397605181" lon="14.082552948966622">
        <ele>61.58</ele>
        <time>2025-02-17T10:25:21.992Z</time>
      </trkpt>
      <trkpt lat="59.2034519277513" lon="14.082514978945255">
        <ele>61.46</ele>
        <time>2025-02-17T10:26:17.813Z</time>
      </trkpt>
      <trkpt lat="59.20352996326983" lon="14.082477930933237">
        <ele>61.34</ele>
        <time>2025-02-17T10:27:13.635Z</time>
      </trkpt>
      <trkpt lat="59.20360799878836" lon="14.082441972568631">
        <ele>61.22</ele>
        <time>2025-02-17T10:28:09.458Z</time>
      </trkpt>
      <trkpt lat="59.20368595048785" lon="14.082407942041755">
        <ele>61.1</ele>
        <time>2025-02-17T10:29:05.283Z</time>
      </trkpt>
      <trkpt lat="59.20376398600638" lon="14.08237399533391">
        <ele>60.98</ele>
        <time>2025-02-17T10:30:01.109Z</time>
      </trkpt>
      <trkpt lat="59.203842943534255" lon="14.082341976463795">
        <ele>60.85</ele>
        <time>2025-02-17T10:30:56.936Z</time>
      </trkpt>
      <trkpt lat="59.20392299070954" lon="14.082312975078821">
        <ele>60.72</ele>
        <time>2025-02-17T10:31:52.764Z</time>
      </trkpt>
      <trkpt lat="59.20400496572256" lon="14.082285985350609">
        <ele>60.59</ele>
        <time>2025-02-17T10:32:48.594Z</time>
      </trkpt>
      <trkpt lat="59.20408794656396" lon="14.082262935116887">
        <ele>60.46</ele>
        <time>2025-02-17T10:33:44.425Z</time>
      </trkpt>
      <trkpt lat="59.20417193323374" lon="14.08224399201572">
        <ele>60.31</ele>
        <time>2025-02-17T10:34:40.257Z</time>
      </trkpt>
      <trkpt lat="59.2042569257319" lon="14.082228988409042">
        <ele>60.16</ele>
        <time>2025-02-17T10:35:36.091Z</time>
      </trkpt>
      <trkpt lat="59.20434392988682" lon="14.082217924296856">
        <ele>60.01</ele>
        <time>2025-02-17T10:36:31.926Z</time>
      </trkpt>
      <trkpt lat="59.20443093404174" lon="14.082213984802365">
        <ele>59.86</ele>
        <time>2025-02-17T10:37:27.763Z</time>
      </trkpt>
      <trkpt lat="59.2045209556818" lon="14.082212978973985">
        <ele>59.71</ele>
        <time>2025-02-17T10:38:23.601Z</time>
      </trkpt>
      <trkpt lat="59.20461097732186" lon="14.082214990630746">
        <ele>59.55</ele>
        <time>2025-02-17T10:39:19.440Z</time>
      </trkpt>
      <trkpt lat="59.204703932628036" lon="14.082222953438759">
        <ele>59.39</ele>
        <time>2025-02-17T10:40:15.281Z</time>
      </trkpt>
      <trkpt lat="59.20479797758162" lon="14.082238962873816">
        <ele>59.23</ele>
        <time>2025-02-17T10:41:11.123Z</time>
      </trkpt>
      <trkpt lat="59.20489193871617" lon="14.082261929288507">
        <ele>59.07</ele>
        <time>2025-02-17T10:42:06.967Z</time>
      </trkpt>
      <trkpt lat="59.20498891733587" lon="14.08229193650186">
        <ele>58.91</ele>
        <time>2025-02-17T10:43:02.813Z</time>
      </trkpt>
      <trkpt lat="59.205085979774594" lon="14.082327978685498">
        <ele>58.74</ele>
        <time>2025-02-17T10:43:58.660Z</time>
      </trkpt>
      <trkpt lat="59.20518396422267" lon="14.082370977848768">
        <ele>58.58</ele>
        <time>2025-02-17T10:44:54.509Z</time>
      </trkpt>
      <trkpt lat="59.205280942842364" lon="14.08242093399167">
        <ele>58.41</ele>
        <time>2025-02-17T10:45:50.359Z</time>
      </trkpt>
      <trkpt lat="59.20537599362433" lon="14.082478936761618">
        <ele>58.25</ele>
        <time>2025-02-17T10:46:46.211Z</time>
      </trkpt>
      <trkpt lat="59.20547096058726" lon="14.082541968673468">
        <ele>58.08</ele>
        <time>2025-02-17T10:47:42.065Z</time>
      </trkpt>
      <trkpt lat="59.20556399971247" lon="14.08261296339333">
        <ele>57.92</ele>
        <time>2025-02-17T10:48:37.920Z</time>
      </trkpt>
      <trkpt lat="59.20565594919026" lon="14.082688987255096">
        <ele>57.76</ele>
        <time>2025-02-17T10:49:33.777Z</time>
      </trkpt>
      <trkpt lat="59.20574898831546" lon="14.082767944782972">
        <ele>57.61</ele>
        <time>2025-02-17T10:50:29.635Z</time>
      </trkpt>
      <trkpt lat="59.205841943621635" lon="14.08284698612988">
        <ele>57.45</ele>
        <time>2025-02-17T10:51:25.495Z</time>
      </trkpt>
      <trkpt lat="59.2059319652617" lon="14.082924937829375">
        <ele>57.29</ele>
        <time>2025-02-17T10:52:21.357Z</time>
      </trkpt>
      <trkpt lat="59.20602299273014" lon="14.08299995586276">
        <ele>57.14</ele>
        <time>2025-02-17T10:53:17.220Z</time>
      </trkpt>
      <trkpt lat="59.20611594803631" lon="14.083077991381288">
        <ele>56.97</ele>
        <time>2025-02-17T10:54:13.085Z</time>
      </trkpt>
      <trkpt lat="59.20620898716152" lon="14.083155943080783">
        <ele>56.81</ele>
        <time>2025-02-17T10:55:08.951Z</time>
      </trkpt>
      <trkpt lat="59.20630395412445" lon="14.083235990256071">
        <ele>56.65</ele>
        <time>2025-02-17T10:56:04.819Z</time>
      </trkpt>
      <trkpt lat="59.206399926915765" lon="14.083317965269089">
        <ele>56.5</ele>
        <time>2025-02-17T10:57:00.689Z</time>
      </trkpt>
      <trkpt lat="59.20649497769773" lon="14.083398934453726">
        <ele>56.34</ele>
        <time>2025-02-17T10:57:56.560Z</time>
      </trkpt>
      <trkpt lat="59.206590950489044" lon="14.083478981629014">
        <ele>56.19</ele>
        <time>2025-02-17T10:58:52.433Z</time>
      </trkpt>
      <trkpt lat="59.20668591745198" lon="14.08355894498527">
        <ele>56.02</ele>
        <time>2025-02-17T10:59:48.308Z</time>
      </trkpt>
      <trkpt lat="59.206782979890704" lon="14.083637986332178">
        <ele>55.85</ele>
        <time>2025-02-17T11:00:44.184Z</time>
      </trkpt>
      <trkpt lat="59.20687794685364" lon="14.083716943860054">
        <ele>55.69</ele>
        <time>2025-02-17T11:01:40.062Z</time>
      </trkpt>
      <trkpt lat="59.20697391964495" lon="14.083796991035342">
        <ele>55.53</ele>
        <time>2025-02-17T11:02:35.942Z</time>
      </trkpt>
      <trkpt lat="59.20706897042692" lon="14.08387796021998">
        <ele>55.38</ele>
        <time>2025-02-17T11:03:31.823Z</time>
      </trkpt>
      <trkpt lat="59.20716594904661" lon="14.083960941061378">
        <ele>55.23</ele>
        <time>2025-02-17T11:04:27.706Z</time>
      </trkpt>
      <trkpt lat="59.20726292766631" lon="14.084044927731156">
        <ele>55.08</ele>
        <time>2025-02-17T11:05:23.591Z</time>
      </trkpt>
      <trkpt lat="59.20736099593341" lon="14.084127992391586">
        <ele>54.93</ele>
        <time>2025-02-17T11:06:19.478Z</time>
      </trkpt>
      <trkpt lat="59.20746099203825" lon="14.084210973232985">
        <ele>54.78</ele>
        <time>2025-02-17T11:07:15.366Z</time>
      </trkpt>
      <trkpt lat="59.207559982314706" lon="14.084292948246002">
        <ele>54.63</ele>
        <time>2025-02-17T11:08:11.256Z</time>
      </trkpt>
      <trkpt lat="59.20765997841954" lon="14.08437492325902">
        <ele>54.48</ele>
        <time>2025-02-17T11:09:07.148Z</time>
      </trkpt>
      <trkpt lat="59.207754945382476" lon="14.084446923807263">
        <ele>54.34</ele>
        <time>2025-02-17T11:10:03.041Z</time>
      </trkpt>
      <trkpt lat="59.20784899033606" lon="14.084519930183887">
        <ele>54.2</ele>
        <time>2025-02-17T11:10:58.936Z</time>
      </trkpt>
      <trkpt lat="59.207947980612516" lon="14.084595954045653">
        <ele>54.06</ele>
        <time>2025-02-17T11:11:54.833Z</time>
      </trkpt>
      <trkpt lat="59.20804697088897" lon="14.084677929058671">
        <ele>53.92</ele>
        <time>2025-02-17T11:12:50.731Z</time>
      </trkpt>
      <trkpt lat="59.20814696699381" lon="14.084761999547482">
        <ele>53.78</ele>
        <time>2025-02-17T11:13:46.631Z</time>
      </trkpt>
      <trkpt lat="59.208248974755406" lon="14.08484498038888">
        <ele>53.64</ele>
        <time>2025-02-17T11:14:42.533Z</time>
      </trkpt>
      <trkpt lat="59.208353916183114" lon="14.08492997288704">
        <ele>53.5</ele>
        <time>2025-02-17T11:15:38.437Z</time>
      </trkpt>
      <trkpt lat="59.208460953086615" lon="14.08501697704196">
        <ele>53.36</ele>
        <time>2025-02-17T11:16:34.343Z</time>
      </trkpt>
      <trkpt lat="59.208566984161735" lon="14.085105992853642">
        <ele>53.23</ele>
        <time>2025-02-17T11:17:30.251Z</time>
      </trkpt>
      <trkpt lat="59.2086739372462" lon="14.085196936503053">
        <ele>53.1</ele>
        <time>2025-02-17T11:18:26.160Z</time>
      </trkpt>
      <trkpt lat="59.20877996832132" lon="14.085285952314734">
        <ele>52.98</ele>
        <time>2025-02-17T11:19:22.071Z</time>
      </trkpt>
      <trkpt lat="59.20888599939644" lon="14.085372956469655">
        <ele>52.86</ele>
        <time>2025-02-17T11:20:17.984Z</time>
      </trkpt>
      <trkpt lat="59.20899094082415" lon="14.085458954796195">
        <ele>52.74</ele>
        <time>2025-02-17T11:21:13.899Z</time>
      </trkpt>
      <trkpt lat="59.20909496024251" lon="14.085541935637593">
        <ele>52.63</ele>
        <time>2025-02-17T11:22:09.816Z</time>
      </trkpt>
      <trkpt lat="59.20919696800411" lon="14.085622988641262">
        <ele>52.51</ele>
        <time>2025-02-17T11:23:05.735Z</time>
      </trkpt>
      <trkpt lat="59.209298975765705" lon="14.085702951997519">
        <ele>52.4</ele>
        <time>2025-02-17T11:24:01.655Z</time>
      </trkpt>
      <trkpt lat="59.20939997769892" lon="14.085778975859284">
        <ele>52.29</ele>
        <time>2025-02-17T11:24:57.577Z</time>
      </trkpt>
      <trkpt lat="59.20950198546052" lon="14.085846953094006">
        <ele>52.18</ele>
        <time>2025-02-17T11:25:53.501Z</time>
      </trkpt>
      <trkpt lat="59.2096049990505" lon="14.085906967520714">
        <ele>52.08</ele>
        <time>2025-02-17T11:26:49.426Z</time>
      </trkpt>
      <trkpt lat="59.209708934649825" lon="14.085955917835236">
        <ele>51.98</ele>
        <time>2025-02-17T11:27:45.353Z</time>
      </trkpt>
      <trkpt lat="59.209812954068184" lon="14.085993971675634">
        <ele>51.87</ele>
        <time>2025-02-17T11:28:41.282Z</time>
      </trkpt>
      <trkpt lat="59.20991797931492" lon="14.08602599054575">
        <ele>51.78</ele>
        <time>2025-02-17T11:29:37.213Z</time>
      </trkpt>
      <trkpt lat="59.21002392657101" lon="14.086051974445581">
        <ele>51.68</ele>
        <time>2025-02-17T11:30:33.145Z</time>
      </trkpt>
      <trkpt lat="59.21013096347451" lon="14.086075946688652">
        <ele>51.59</ele>
        <time>2025-02-17T11:31:29.079Z</time>
      </trkpt>
      <trkpt lat="59.21023498289287" lon="14.08609396778047">
        <ele>51.51</ele>
        <time>2025-02-17T11:32:25.015Z</time>
      </trkpt>
      <trkpt lat="59.21033699065447" lon="14.086107965558767">
        <ele>51.43</ele>
        <time>2025-02-17T11:33:20.952Z</time>
      </trkpt>
      <trkpt lat="59.210437992587686" lon="14.086121963337064">
        <ele>51.35</ele>
        <time>2025-02-17T11:34:16.891Z</time>
      </trkpt>
      <trkpt lat="59.21053597703576" lon="14.086133949458599">
        <ele>51.28</ele>
        <time>2025-02-17T11:35:12.832Z</time>
      </trkpt>
      <trkpt lat="59.210632955655456" lon="14.086144929751754">
        <ele>51.21</ele>
        <time>2025-02-17T11:36:08.774Z</time>
      </trkpt>
      <trkpt lat="59.21072691679001" lon="14.08615699969232">
        <ele>51.14</ele>
        <time>2025-02-17T11:37:04.718Z</time>
      </trkpt>
      <trkpt lat="59.21081794425845" lon="14.086166974157095">
        <ele>51.07</ele>
        <time>2025-02-17T11:38:00.663Z</time>
      </trkpt>
      <trkpt lat="59.210908971726894" lon="14.086171919479966">
        <ele>51.0</ele>
        <time>2025-02-17T11:38:56.610Z</time>
      </trkpt>
      <trkpt lat="59.21099999919534" lon="14.086173931136727">
        <ele>50.93</ele>
        <time>2025-02-17T11:39:52.558Z</time>
      </trkpt>
      <trkpt lat="59.21109194867313" lon="14.08617996610701">
        <ele>50.87</ele>
        <time>2025-02-17T11:40:48.507Z</time>
      </trkpt>
      <trkpt lat="59.21118297614157" lon="14.086187928915024">
        <ele>50.8</ele>
        <time>2025-02-17T11:41:44.458Z</time>
      </trkpt>
      <trkpt lat="59.211274925619364" lon="14.086195975542068">
        <ele>50.74</ele>
        <time>2025-02-17T11:42:40.410Z</time>
      </trkpt>
      <trkpt lat="59.21136796474457" lon="14.0862029325217">
        <ele>50.68</ele>
        <time>2025-02-17T11:43:36.364Z</time>
      </trkpt>
      <trkpt lat="59.21145999804139" lon="14.086210979148746">
        <ele>50.63</ele>
        <time>2025-02-17T11:44:32.319Z</time>
      </trkpt>
      <trkpt lat="59.211553959175944" lon="14.0862219594419">
        <ele>50.58</ele>
        <time>2025-02-17T11:45:28.276Z</time>
      </trkpt>
      <trkpt lat="59.2116479203105" lon="14.086234951391816">
        <ele>50.52</ele>
        <time>2025-02-17T11:46:24.234Z</time>
      </trkpt>
      <trkpt lat="59.21174196526408" lon="14.086252972483635">
        <ele>50.47</ele>
        <time>2025-02-17T11:47:20.194Z</time>
      </trkpt>
      <trkpt lat="59.211834920570254" lon="14.086281973868608">
        <ele>50.42</ele>
        <time>2025-02-17T11:48:16.155Z</time>
      </trkpt>
      <trkpt lat="59.21192795969546" lon="14.086321955546737">
        <ele>50.38</ele>
        <time>2025-02-17T11:49:12.118Z</time>
      </trkpt>
      <trkpt lat="59.21201999299228" lon="14.08636998385191">
        <ele>50.33</ele>
        <time>2025-02-17T11:50:08.082Z</time>
      </trkpt>
      <trkpt lat="59.21210993081331" lon="14.086424969136715">
        <ele>50.29</ele>
        <time>2025-02-17T11:51:04.048Z</time>
      </trkpt>
      <trkpt lat="59.212198946624994" lon="14.086489928886294">
        <ele>50.24</ele>
        <time>2025-02-17T11:52:00.016Z</time>
      </trkpt>
      <trkpt lat="59.212286956608295" lon="14.08656494691968">
        <ele>50.2</ele>
        <time>2025-02-17T11:52:55.985Z</time>
      </trkpt>
      <trkpt lat="59.212373960763216" lon="14.086649939417839">
        <ele>50.16</ele>
        <time>2025-02-17T11:53:51.956Z</time>
      </trkpt>
      <trkpt lat="59.21246096491814" lon="14.086741972714663">
        <ele>50.13</ele>
        <time>2025-02-17T11:54:47.928Z</time>
      </trkpt>
      <trkpt lat="59.21254696324468" lon="14.086838951334357">
        <ele>50.09</ele>
        <time>2025-02-17T11:55:43.902Z</time>
      </trkpt>
      <trkpt lat="59.212631955742836" lon="14.086936935782433">
        <ele>50.07</ele>
        <time>2025-02-17T11:56:39.877Z</time>
      </trkpt>
      <trkpt lat="59.212717954069376" lon="14.087030980736017">
        <ele>50.04</ele>
        <time>2025-02-17T11:57:35.854Z</time>
      </trkpt>
      <trkpt lat="59.212803952395916" lon="14.087120918557048">
        <ele>50.02</ele>
        <time>2025-02-17T11:58:31.833Z</time>
      </trkpt>
      <trkpt lat="59.21289196237922" lon="14.087202977389097">
        <ele>50.0</ele>
        <time>2025-02-17T11:59:27.813Z</time>
      </trkpt>
      <trkpt lat="59.21297997236252" lon="14.087277995422482">
        <ele>49.98</ele>
        <time>2025-02-17T12:00:23.795Z</time>
      </trkpt>
      <trkpt lat="59.21306999400258" lon="14.08733993768692">
        <ele>49.96</ele>
        <time>2025-02-17T12:01:19.778Z</time>
      </trkpt>
      <trkpt lat="59.21316093765199" lon="14.087390983477235">
        <ele>49.95</ele>
        <time>2025-02-17T12:02:15.763Z</time>
      </trkpt>
      <trkpt lat="59.213253976777196" lon="14.087432976812124">
        <ele>49.93</ele>
        <time>2025-02-17T12:03:11.749Z</time>
      </trkpt>
      <trkpt lat="59.21335196122527" lon="14.087459966540337">
        <ele>49.93</ele>
        <time>2025-02-17T12:04:07.737Z</time>
      </trkpt>
      <trkpt lat="59.21344994567335" lon="14.087474970147014">
        <ele>49.92</ele>
        <time>2025-02-17T12:05:03.726Z</time>
      </trkpt>
      <trkpt lat="59.2135489359498" lon="14.087476981803775">
        <ele>49.92</ele>
        <time>2025-02-17T12:05:59.717Z</time>
      </trkpt>
      <trkpt lat="59.21364792622626" lon="14.08746499568224">
        <ele>49.93</ele>
        <time>2025-02-17T12:06:55.710Z</time>
      </trkpt>
      <trkpt lat="59.213743982836604" lon="14.087442951276898">
        <ele>49.94</ele>
        <time>2025-02-17T12:07:51.704Z</time>
      </trkpt>
      <trkpt lat="59.21383995562792" lon="14.087412944063544">
        <ele>49.96</ele>
        <time>2025-02-17T12:08:47.700Z</time>
      </trkpt>
      <trkpt lat="59.21393391676247" lon="14.087377991527319">
        <ele>49.98</ele>
        <time>2025-02-17T12:09:43.697Z</time>
      </trkpt>
      <trkpt lat="59.21403198502958" lon="14.08733993768692">
        <ele>50.0</ele>
        <time>2025-02-17T12:10:39.696Z</time>
      </trkpt>
      <trkpt lat="59.21412795782089" lon="14.087300961837173">
        <ele>50.03</ele>
        <time>2025-02-17T12:11:35.696Z</time>
      </trkpt>
      <trkpt lat="59.21422393061221" lon="14.087259974330664">
        <ele>50.07</ele>
        <time>2025-02-17T12:12:31.698Z</time>
      </trkpt>
      <trkpt lat="59.21431998722255" lon="14.087217980995774">
        <ele>50.1</ele>
        <time>2025-02-17T12:13:27.702Z</time>
      </trkpt>
      <trkpt lat="59.21441797167063" lon="14.087175987660885">
        <ele>50.14</ele>
        <time>2025-02-17T12:14:23.707Z</time>
      </trkpt>
      <trkpt lat="59.21451495029032" lon="14.087132988497615">
        <ele>50.19</ele>
        <time>2025-02-17T12:15:19.714Z</time>
      </trkpt>
      <trkpt lat="59.21461192891002" lon="14.087090995162725">
        <ele>50.24</ele>
        <time>2025-02-17T12:16:15.722Z</time>
      </trkpt>
      <trkpt lat="59.21470899134874" lon="14.087050929665565">
        <ele>50.29</ele>
        <time>2025-02-17T12:17:11.732Z</time>
      </trkpt>
      <trkpt lat="59.2148079816252" lon="14.087018994614482">
        <ele>50.33</ele>
        <time>2025-02-17T12:18:07.744Z</time>
      </trkpt>
      <trkpt lat="59.214907977730036" lon="14.08699594438076">
        <ele>50.38</ele>
        <time>2025-02-17T12:19:03.757Z</time>
      </trkpt>
      <trkpt lat="59.21500696800649" lon="14.086982952430844">
        <ele>50.42</ele>
        <time>2025-02-17T12:19:59.772Z</time>
      </trkpt>
      <trkpt lat="59.21510696411133" lon="14.086980940774083">
        <ele>50.47</ele>
        <time>2025-02-17T12:20:55.788Z</time>
      </trkpt>
      <trkpt lat="59.215205954387784" lon="14.086989993229508">
        <ele>50.52</ele>
        <time>2025-02-17T12:21:51.806Z</time>
      </trkpt>
      <trkpt lat="59.21530393883586" lon="14.087006924673915">
        <ele>50.55</ele>
        <time>2025-02-17T12:22:47.826Z</time>
      </trkpt>
      <trkpt lat="59.215400917455554" lon="14.087031986564398">
        <ele>50.6</ele>
        <time>2025-02-17T12:23:43.847Z</time>
      </trkpt>
      <trkpt lat="59.21549395658076" lon="14.087061993777752">
        <ele>50.64</ele>
        <time>2025-02-17T12:24:39.870Z</time>
      </trkpt>
      <trkpt lat="59.21558892354369" lon="14.087092923000455">
        <ele>50.69</ele>
        <time>2025-02-17T12:25:35.894Z</time>
      </trkpt>
      <trkpt lat="59.215682968497276" lon="14.08712594769895">
        <ele>50.74</ele>
        <time>2025-02-17T12:26:31.920Z</time>
      </trkpt>
      <trkpt lat="59.21577793546021" lon="14.087159978225827">
        <ele>50.8</ele>
        <time>2025-02-17T12:27:27.947Z</time>
      </trkpt>
      <trkpt lat="59.215870974585414" lon="14.087193924933672">
        <ele>50.86</ele>
        <time>2025-02-17T12:28:23.976Z</time>
      </trkpt>
      <trkpt lat="59.215962924063206" lon="14.087227955460548">
        <ele>50.93</ele>
        <time>2025-02-17T12:29:20.006Z</time>
      </trkpt>
      <trkpt lat="59.21605495736003" lon="14.087259974330664">
        <ele>51.0</ele>
        <time>2025-02-17T12:30:16.038Z</time>
      </trkpt>
      <trkpt lat="59.21614497900009" lon="14.087287969887257">
        <ele>51.08</ele>
        <time>2025-02-17T12:31:12.071Z</time>
      </trkpt>
      <trkpt lat="59.21623692847788" lon="14.08731596544385">
        <ele>51.15</ele>
        <time>2025-02-17T12:32:08.106Z</time>
      </trkpt>
      <trkpt lat="59.216325944289565" lon="14.087345972657204">
        <ele>51.24</ele>
        <time>2025-02-17T12:33:04.142Z</time>
      </trkpt>
      <trkpt lat="59.216413954272866" lon="14.087376985698938">
        <ele>51.32</ele>
        <time>2025-02-17T12:34:00.180Z</time>
      </trkpt>
      <trkpt lat="59.216499952599406" lon="14.087405987083912">
        <ele>51.41</ele>
        <time>2025-02-17T12:34:56.219Z</time>
      </trkpt>
      <trkpt lat="59.216584945097566" lon="14.087432976812124">
        <ele>51.5</ele>
        <time>2025-02-17T12:35:52.259Z</time>
      </trkpt>
      <trkpt lat="59.216668931767344" lon="14.087461978197098">
        <ele>51.58</ele>
        <time>2025-02-17T12:36:48.301Z</time>
      </trkpt>
      <trkpt lat="59.21674897894263" lon="14.087486956268549">
        <ele>51.67</ele>
        <time>2025-02-17T12:37:44.344Z</time>
      </trkpt>
      <trkpt lat="59.21682894229889" lon="14.08751193434">
        <ele>51.76</ele>
        <time>2025-02-17T12:38:40.388Z</time>
      </trkpt>
      <trkpt lat="59.2169079836458" lon="14.087539929896593">
        <ele>51.85</ele>
        <time>2025-02-17T12:39:36.434Z</time>
      </trkpt>
      <trkpt lat="59.21698593534529" lon="14.087568931281567">
        <ele>51.93</ele>
        <time>2025-02-17T12:40:32.481Z</time>
      </trkpt>
      <trkpt lat="59.21706397086382" lon="14.08759692683816">
        <ele>52.02</ele>
        <time>2025-02-17T12:41:28.529Z</time>
      </trkpt>
      <trkpt lat="59.217140916734934" lon="14.087624922394753">
        <ele>52.11</ele>
        <time>2025-02-17T12:42:24.578Z</time>
      </trkpt>
      <trkpt lat="59.21721995808184" lon="14.087652917951345">
        <ele>52.2</ele>
        <time>2025-02-17T12:43:20.629Z</time>
      </trkpt>
      <trkpt lat="59.21729899942875" lon="14.087681919336319">
        <ele>52.3</ele>
        <time>2025-02-17T12:44:16.681Z</time>
      </trkpt>
      <trkpt lat="59.217379968613386" lon="14.087708992883563">
        <ele>52.39</ele>
        <time>2025-02-17T12:45:12.734Z</time>
      </trkpt>
      <trkpt lat="59.21746093779802" lon="14.087735982611775">
        <ele>52.48</ele>
        <time>2025-02-17T12:46:08.789Z</time>
      </trkpt>
      <trkpt lat="59.21754391863942" lon="14.087763978168368">
        <ele>52.58</ele>
        <time>2025-02-17T12:47:04.845Z</time>
      </trkpt>
      <trkpt lat="59.21762698329985" lon="14.08778895623982">
        <ele>52.67</ele>
        <time>2025-02-17T12:48:00.902Z</time>
      </trkpt>
      <trkpt lat="59.21771096996963" lon="14.08780999481678">
        <ele>52.76</ele>
        <time>2025-02-17T12:48:56.961Z</time>
      </trkpt>
      <trkpt lat="59.21779797412455" lon="14.087826926261187">
        <ele>52.86</ele>
        <time>2025-02-17T12:49:53.021Z</time>
      </trkpt>
      <trkpt lat="59.21788799576461" lon="14.087838996201754">
        <ele>52.96</ele>
        <time>2025-02-17T12:50:49.083Z</time>
      </trkpt>
      <trkpt lat="59.217979945242405" lon="14.087844947353005">
        <ele>53.06</ele>
        <time>2025-02-17T12:51:45.146Z</time>
      </trkpt>
      <trkpt lat="59.21807097271085" lon="14.087843941524625">
        <ele>53.16</ele>
        <time>2025-02-17T12:52:41.210Z</time>
      </trkpt>
      <trkpt lat="59.21816292218864" lon="14.08783396705985">
        <ele>53.26</ele>
        <time>2025-02-17T12:53:37.276Z</time>
      </trkpt>
      <trkpt lat="59.21825193800032" lon="14.08781192265451">
        <ele>53.36</ele>
        <time>2025-02-17T12:54:33.343Z</time>
      </trkpt>
      <trkpt lat="59.21833994798362" lon="14.087776970118284">
        <ele>53.46</ele>
        <time>2025-02-17T12:55:29.412Z</time>
      </trkpt>
      <trkpt lat="59.218430975452065" lon="14.087732965126634">
        <ele>53.56</ele>
        <time>2025-02-17T12:56:25.482Z</time>
      </trkpt>
      <trkpt lat="59.21852099709213" lon="14.08768099732697">
        <ele>53.67</ele>
        <time>2025-02-17T12:57:21.554Z</time>
      </trkpt>
      <trkpt lat="59.21861696988344" lon="14.087626934051514">
        <ele>53.77</ele>
        <time>2025-02-17T12:58:17.627Z</time>
      </trkpt>
      <trkpt lat="59.21871495433152" lon="14.087572954595089">
        <ele>53.88</ele>
        <time>2025-02-17T12:59:13.702Z</time>
      </trkpt>
      <trkpt lat="59.218814950436354" lon="14.087520986795425">
        <ele>53.99</ele>
        <time>2025-02-17T13:00:09.779Z</time>
      </trkpt>
      <trkpt lat="59.21891695819795" lon="14.087475975975394">
        <ele>54.1</ele>
        <time>2025-02-17T13:01:05.857Z</time>
      </trkpt>
      <trkpt lat="59.21901796013117" lon="14.087437922134995">
        <ele>54.21</ele>
        <time>2025-02-17T13:02:01.937Z</time>
      </trkpt>
      <trkpt lat="59.219118962064385" lon="14.087406992912292">
        <ele>54.33</ele>
        <time>2025-02-17T13:02:58.019Z</time>
      </trkpt>
      <trkpt lat="59.2192199639976" lon="14.08738394267857">
        <ele>54.44</ele>
        <time>2025-02-17T13:03:54.102Z</time>
      </trkpt>
      <trkpt lat="59.21932096593082" lon="14.087367933243513">
        <ele>54.56</ele>
        <time>2025-02-17T13:04:50.187Z</time>
      </trkpt>
      <trkpt lat="59.21942196786404" lon="14.08735896460712">
        <ele>54.67</ele>
        <time>2025-02-17T13:05:46.274Z</time>
      </trkpt>
      <trkpt lat="59.21952196396887" lon="14.087355947121978">
        <ele>54.78</ele>
        <time>2025-02-17T13:06:42.362Z</time>
      </trkpt>
      <trkpt lat="59.21961994841695" lon="14.087355947121978">
        <ele>54.89</ele>
        <time>2025-02-17T13:07:38.452Z</time>
      </trkpt>
      <trkpt lat="59.21971592120826" lon="14.08735896460712">
        <ele>55.01</ele>
        <time>2025-02-17T13:08:34.543Z</time>
      </trkpt>
      <trkpt lat="59.21981097199023" lon="14.087363993749022">
        <ele>55.12</ele>
        <time>2025-02-17T13:09:30.636Z</time>
      </trkpt>
      <trkpt lat="59.21990493312478" lon="14.087367933243513">
        <ele>55.24</ele>
        <time>2025-02-17T13:10:26.730Z</time>
      </trkpt>
      <trkpt lat="59.22000098973513" lon="14.087377991527319">
        <ele>55.36</ele>
        <time>2025-02-17T13:11:22.826Z</time>
      </trkpt>
      <trkpt lat="59.22009796835482" lon="14.087389977648854">
        <ele>55.48</ele>
        <time>2025-02-17T13:12:18.923Z</time>
      </trkpt>
      <trkpt lat="59.220191929489374" lon="14.08740397542715">
        <ele>55.6</ele>
        <time>2025-02-17T13:13:15.022Z</time>
      </trkpt>
      <trkpt lat="59.22028496861458" lon="14.087415961548686">
        <ele>55.73</ele>
        <time>2025-02-17T13:14:11.122Z</time>
      </trkpt>
      <trkpt lat="59.22037691809237" lon="14.08742593601346">
        <ele>55.85</ele>
        <time>2025-02-17T13:15:07.224Z</time>
      </trkpt>
      <trkpt lat="59.22046492807567" lon="14.087434988468885">
        <ele>55.97</ele>
        <time>2025-02-17T13:16:03.327Z</time>
      </trkpt>
      <trkpt lat="59.22055092640221" lon="14.087443957105279">
        <ele>56.1</ele>
        <time>2025-02-17T13:16:59.432Z</time>
      </trkpt>
      <trkpt lat="59.22063499689102" lon="14.087453931570053">
        <ele>56.23</ele>
        <time>2025-02-17T13:17:55.538Z</time>
      </trkpt>
      <trkpt lat="59.22071596607566" lon="14.087459966540337">
        <ele>56.37</ele>
        <time>2025-02-17T13:18:51.645Z</time>
      </trkpt>
      <trkpt lat="59.220793917775154" lon="14.08746893517673">
        <ele>56.5</ele>
        <time>2025-02-17T13:19:47.754Z</time>
      </trkpt>
      <trkpt lat="59.2208709474653" lon="14.087480921298265">
        <ele>56.63</ele>
        <time>2025-02-17T13:20:43.864Z</time>
      </trkpt>
      <trkpt lat="59.220945965498686" lon="14.08748997375369">
        <ele>56.77</ele>
        <time>2025-02-17T13:21:39.975Z</time>
      </trkpt>
      <trkpt lat="59.22101997770369" lon="14.087498942390084">
        <ele>56.9</ele>
        <time>2025-02-17T13:22:36.087Z</time>
      </trkpt>
      <trkpt lat="59.22109097242355" lon="14.08750799484551">
        <ele>57.04</ele>
        <time>2025-02-17T13:23:32.200Z</time>
      </trkpt>
      <trkpt lat="59.221159955486655" lon="14.087514951825142">
        <ele>57.17</ele>
        <time>2025-02-17T13:24:28.315Z</time>
      </trkpt>
      <trkpt lat="59.221226926892996" lon="14.087518975138664">
        <ele>57.31</ele>
        <time>2025-02-17T13:25:24.431Z</time>
      </trkpt>
      <trkpt lat="59.22129398211837" lon="14.087523920461535">
        <ele>57.44</ele>
        <time>2025-02-17T13:26:20.548Z</time>
      </trkpt>
      <trkpt lat="59.22135793603957" lon="14.087528949603438">
        <ele>57.58</ele>
        <time>2025-02-17T13:27:16.666Z</time>
      </trkpt>
      <trkpt lat="59.2214219737798" lon="14.08753196708858">
        <ele>57.72</ele>
        <time>2025-02-17T13:28:12.785Z</time>
      </trkpt>
      <trkpt lat="59.22148399986327" lon="14.087535990402102">
        <ele>57.86</ele>
        <time>2025-02-17T13:29:08.905Z</time>
      </trkpt>
      <trkpt lat="59.221544936299324" lon="14.087540935724974">
        <ele>57.99</ele>
        <time>2025-02-17T13:30:05.026Z</time>
      </trkpt>
      <trkpt lat="59.22160293906927" lon="14.087544959038496">
        <ele>58.13</ele>
        <time>2025-02-17T13:31:01.148Z</time>
      </trkpt>
      <trkpt lat="59.22166094183922" lon="14.08755099400878">
        <ele>58.26</ele>
        <time>2025-02-17T13:31:57.271Z</time>
      </trkpt>
      <trkpt lat="59.221718944609165" lon="14.087560968473554">
        <ele>58.39</ele>
        <time>2025-02-17T13:32:53.394Z</time>
      </trkpt>
      <trkpt lat="59.22177493572235" lon="14.087568931281567">
        <ele>58.53</ele>
        <time>2025-02-17T13:33:49.518Z</time>
      </trkpt>
      <trkpt lat="59.22183092683554" lon="14.087572954595089">
        <ele>58.66</ele>
        <time>2025-02-17T13:34:45.643Z</time>
      </trkpt>
      <trkpt lat="59.221888929605484" lon="14.087580917403102">
        <ele>58.79</ele>
        <time>2025-02-17T13:35:41.769Z</time>
      </trkpt>
      <trkpt lat="59.22194894403219" lon="14.087584940716624">
        <ele>58.92</ele>
        <time>2025-02-17T13:36:37.896Z</time>
      </trkpt>
      <trkpt lat="59.2220089584589" lon="14.087585946545005">
        <ele>59.05</ele>
        <time>2025-02-17T13:37:34.024Z</time>
      </trkpt>
      <trkpt lat="59.22206796705723" lon="14.087588964030147">
        <ele>59.18</ele>
        <time>2025-02-17T13:38:30.153Z</time>
      </trkpt>
      <trkpt lat="59.222125969827175" lon="14.08759499900043">
        <ele>59.31</ele>
        <time>2025-02-17T13:39:26.283Z</time>
      </trkpt>
      <trkpt lat="59.2221849784255" lon="14.08759793266654">
        <ele>59.44</ele>
        <time>2025-02-17T13:40:22.414Z</time>
      </trkpt>
      <trkpt lat="59.22224298119545" lon="14.08759893849492">
        <ele>59.57</ele>
        <time>2025-02-17T13:41:18.546Z</time>
      </trkpt>
      <trkpt lat="59.222299978137016" lon="14.087600950151682">
        <ele>59.69</ele>
        <time>2025-02-17T13:42:14.679Z</time>
      </trkpt>
      <trkpt lat="59.22235496342182" lon="14.087607990950346">
        <ele>59.82</ele>
        <time>2025-02-17T13:43:10.813Z</time>
      </trkpt>
      <trkpt lat="59.22240994870663" lon="14.08761796541512">
        <ele>59.94</ele>
        <time>2025-02-17T13:44:06.948Z</time>
      </trkpt>
      <trkpt lat="59.22246191650629" lon="14.087628945708275">
        <ele>60.05</ele>
        <time>2025-02-17T13:45:03.083Z</time>
      </trkpt>
      <trkpt lat="59.222512962296605" lon="14.08764093182981">
        <ele>60.17</ele>
        <time>2025-02-17T13:45:59.219Z</time>
      </trkpt>
      <trkpt lat="59.22256694175303" lon="14.087654929608107">
        <ele>60.28</ele>
        <time>2025-02-17T13:46:55.356Z</time>
      </trkpt>
      <trkpt lat="59.222617987543344" lon="14.087671944871545">
        <ele>60.39</ele>
        <time>2025-02-17T13:47:51.494Z</time>
      </trkpt>
      <trkpt lat="59.22266995534301" lon="14.087692983448505">
        <ele>60.49</ele>
        <time>2025-02-17T13:48:47.633Z</time>
      </trkpt>
      <trkpt lat="59.22272091731429" lon="14.087713938206434">
        <ele>60.6</ele>
        <time>2025-02-17T13:49:43.773Z</time>
      </trkpt>
      <trkpt lat="59.222772968932986" lon="14.087734976783395">
        <ele>60.7</ele>
        <time>2025-02-17T13:50:39.913Z</time>
      </trkpt>
      <trkpt lat="59.22282594256103" lon="14.087761966511607">
        <ele>60.8</ele>
        <time>2025-02-17T13:51:36.054Z</time>
      </trkpt>
      <trkpt lat="59.222877994179726" lon="14.0877899620682">
        <ele>60.9</ele>
        <time>2025-02-17T13:52:32.196Z</time>
      </trkpt>
      <trkpt lat="59.22293096780777" lon="14.087817957624793">
        <ele>61.0</ele>
        <time>2025-02-17T13:53:28.339Z</time>
      </trkpt>
      <trkpt lat="59.22298293560743" lon="14.087849976494908">
        <ele>61.09</ele>
        <time>2025-02-17T13:54:24.483Z</time>
      </trkpt>
      <trkpt lat="59.22303398139775" lon="14.087881995365024">
        <ele>61.18</ele>
        <time>2025-02-17T13:55:20.628Z</time>
      </trkpt>
      <trkpt lat="59.22308594919741" lon="14.087915942072868">
        <ele>61.27</ele>
        <time>2025-02-17T13:56:16.774Z</time>
      </trkpt>
      <trkpt lat="59.223137916997075" lon="14.087953995913267">
        <ele>61.35</ele>
        <time>2025-02-17T13:57:12.921Z</time>
      </trkpt>
      <trkpt lat="59.22318896278739" lon="14.087992971763015">
        <ele>61.43</ele>
        <time>2025-02-17T13:58:09.068Z</time>
      </trkpt>
      <trkpt lat="59.22323992475867" lon="14.088033959269524">
        <ele>61.51</ele>
        <time>2025-02-17T13:59:05.216Z</time>
      </trkpt>
      <trkpt lat="59.22329197637737" lon="14.088077964261174">
        <ele>61.58</ele>
        <time>2025-02-17T14:00:01.365Z</time>
      </trkpt>
      <trkpt lat="59.22334293834865" lon="14.088121969252825">
        <ele>61.65</ele>
        <time>2025-02-17T14:00:57.515Z</time>
      </trkpt>
      <trkpt lat="59.223394989967346" lon="14.088169997557998">
        <ele>61.72</ele>
        <time>2025-02-17T14:01:53.666Z</time>
      </trkpt>
      <trkpt lat="59.22344595193863" lon="14.08822095952928">
        <ele>61.79</ele>
        <time>2025-02-17T14:02:49.818Z</time>
      </trkpt>
      <trkpt lat="59.22349791973829" lon="14.088273933157325">
        <ele>61.85</ele>
        <time>2025-02-17T14:03:45.971Z</time>
      </trkpt>
      <trkpt lat="59.22354896552861" lon="14.0883269906044">
        <ele>61.91</ele>
        <time>2025-02-17T14:04:42.125Z</time>
      </trkpt>
      <trkpt lat="59.22360093332827" lon="14.088384993374348">
        <ele>61.97</ele>
        <time>2025-02-17T14:05:38.280Z</time>
      </trkpt>
      <trkpt lat="59.223652984946966" lon="14.088445929810405">
        <ele>62.02</ele>
        <time>2025-02-17T14:06:34.436Z</time>
      </trkpt>
      <trkpt lat="59.22370595857501" lon="14.088507955893874">
        <ele>62.08</ele>
        <time>2025-02-17T14:07:30.593Z</time>
      </trkpt>
      <trkpt lat="59.223760943859816" lon="14.088573921471834">
        <ele>62.13</ele>
        <time>2025-02-17T14:08:26.751Z</time>
      </trkpt>
      <trkpt lat="59.22381592914462" lon="14.088642988353968">
        <ele>62.17</ele>
        <time>2025-02-17T14:09:22.910Z</time>
      </trkpt>
      <trkpt lat="59.22387292608619" lon="14.088714988902211">
        <ele>62.21</ele>
        <time>2025-02-17T14:10:19.070Z</time>
      </trkpt>
      <trkpt lat="59.223931934684515" lon="14.088789923116565">
        <ele>62.25</ele>
        <time>2025-02-17T14:11:15.231Z</time>
      </trkpt>
      <trkpt lat="59.22399094328284" lon="14.08886594697833">
        <ele>62.28</ele>
        <time>2025-02-17T14:12:11.393Z</time>
      </trkpt>
      <trkpt lat="59.22405196353793" lon="14.088941970840096">
        <ele>62.31</ele>
        <time>2025-02-17T14:13:07.556Z</time>
      </trkpt>
      <trkpt lat="59.2241139896214" lon="14.089019922539592">
        <ele>62.33</ele>
        <time>2025-02-17T14:14:03.721Z</time>
      </trkpt>
      <trkpt lat="59.22417593188584" lon="14.08909996971488">
        <ele>62.34</ele>
        <time>2025-02-17T14:14:59.887Z</time>
      </trkpt>
      <trkpt lat="59.22423795796931" lon="14.089180938899517">
        <ele>62.36</ele>
        <time>2025-02-17T14:15:56.054Z</time>
      </trkpt>
      <trkpt lat="59.22430199570954" lon="14.089263919740915">
        <ele>62.36</ele>
        <time>2025-02-17T14:16:52.222Z</time>
      </trkpt>
      <trkpt lat="59.22436494380236" lon="14.089348996058106">
        <ele>62.37</ele>
        <time>2025-02-17T14:17:48.391Z</time>
      </trkpt>
      <trkpt lat="59.22442898154259" lon="14.089435916393995">
        <ele>62.37</ele>
        <time>2025-02-17T14:18:44.562Z</time>
      </trkpt>
      <trkpt lat="59.224492935463786" lon="14.089522920548916">
        <ele>62.37</ele>
        <time>2025-02-17T14:19:40.734Z</time>
      </trkpt>
      <trkpt lat="59.224555967375636" lon="14.089610930532217">
        <ele>62.36</ele>
        <time>2025-02-17T14:20:36.907Z</time>
      </trkpt>
      <trkpt lat="59.224619921296835" lon="14.089698940515518">
        <ele>62.36</ele>
        <time>2025-02-17T14:21:33.081Z</time>
      </trkpt>
      <trkpt lat="59.224683959037066" lon="14.089784938842058">
        <ele>62.36</ele>
        <time>2025-02-17T14:22:29.257Z</time>
      </trkpt>
      <trkpt lat="59.224747996777296" lon="14.089871942996979">
        <ele>62.35</ele>
        <time>2025-02-17T14:23:25.434Z</time>
      </trkpt>
      <trkpt lat="59.224811950698495" lon="14.089956935495138">
        <ele>62.34</ele>
        <time>2025-02-17T14:24:21.612Z</time>
      </trkpt>
      <trkpt lat="59.224876994267106" lon="14.090041927993298">
        <ele>62.33</ele>
        <time>2025-02-17T14:25:17.791Z</time>
      </trkpt>
      <trkpt lat="59.224941954016685" lon="14.090125998482108">
        <ele>62.32</ele>
        <time>2025-02-17T14:26:13.972Z</time>
      </trkpt>
      <trkpt lat="59.2250069975853" lon="14.090209985151887">
        <ele>62.3</ele>
        <time>2025-02-17T14:27:10.154Z</time>
      </trkpt>
      <trkpt lat="59.225071957334876" lon="14.090294977650046">
        <ele>62.28</ele>
        <time>2025-02-17T14:28:06.337Z</time>
      </trkpt>
      <trkpt lat="59.225136917084455" lon="14.090380975976586">
        <ele>62.26</ele>
        <time>2025-02-17T14:29:02.521Z</time>
      </trkpt>
      <trkpt lat="59.22520196065307" lon="14.090466974303126">
        <ele>62.23</ele>
        <time>2025-02-17T14:29:58.707Z</time>
      </trkpt>
      <trkpt lat="59.225266920402646" lon="14.090552972629666">
        <ele>62.2</ele>
        <time>2025-02-17T14:30:54.894Z</time>
      </trkpt>
      <trkpt lat="59.22533196397126" lon="14.090638970956206">
        <ele>62.16</ele>
        <time>2025-02-17T14:31:51.082Z</time>
      </trkpt>
      <trkpt lat="59.22539792954922" lon="14.090726980939507">
        <ele>62.12</ele>
        <time>2025-02-17T14:32:47.272Z</time>
      </trkpt>
      <trkpt lat="59.22546699643135" lon="14.090811973437667">
        <ele>62.08</ele>
        <time>2025-02-17T14:33:43.463Z</time>
      </trkpt>
      <trkpt lat="59.22553497366607" lon="14.090899983420968">
        <ele>62.03</ele>
        <time>2025-02-17T14:34:39.655Z</time>
      </trkpt>
      <trkpt lat="59.225603956729174" lon="14.09099092707038">
        <ele>61.98</ele>
        <time>2025-02-17T14:35:35.848Z</time>
      </trkpt>
      <trkpt lat="59.225672939792275" lon="14.091086983680725">
        <ele>61.92</ele>
        <time>2025-02-17T14:36:32.043Z</time>
      </trkpt>
      <trkpt lat="59.22574494034052" lon="14.091181950643659">
        <ele>61.87</ele>
        <time>2025-02-17T14:37:28.239Z</time>
      </trkpt>
      <trkpt lat="59.22581794671714" lon="14.091279935091734">
        <ele>61.81</ele>
        <time>2025-02-17T14:38:24.437Z</time>
      </trkpt>
      <trkpt lat="59.22589397057891" lon="14.09137993119657">
        <ele>61.75</ele>
        <time>2025-02-17T14:39:20.636Z</time>
      </trkpt>
      <trkpt lat="59.225974939763546" lon="14.09148395061493">
        <ele>61.69</ele>
        <time>2025-02-17T14:40:16.837Z</time>
      </trkpt>
      <trkpt lat="59.226058926433325" lon="14.091592999175191">
        <ele>61.62</ele>
        <time>2025-02-17T14:41:13.039Z</time>
      </trkpt>
      <trkpt lat="59.226145930588245" lon="14.091705987229943">
        <ele>61.55</ele>
        <time>2025-02-17T14:42:09.243Z</time>
      </trkpt>
      <trkpt lat="59.22623595222831" lon="14.091823920607567">
        <ele>61.48</ele>
        <time>2025-02-17T14:43:05.449Z</time>
      </trkpt>
      <trkpt lat="59.22632899135351" lon="14.091947972774506">
        <ele>61.4</ele>
        <time>2025-02-17T14:44:01.657Z</time>
      </trkpt>
      <trkpt lat="59.226424964144826" lon="14.092077976092696">
        <ele>61.33</ele>
        <time>2025-02-17T14:44:57.866Z</time>
      </trkpt>
      <trkpt lat="59.22652395442128" lon="14.092210996896029">
        <ele>61.26</ele>
        <time>2025-02-17T14:45:54.077Z</time>
      </trkpt>
      <trkpt lat="59.2266249563545" lon="14.09234493970871">
        <ele>61.18</ele>
        <time>2025-02-17T14:46:50.290Z</time>
      </trkpt>
      <trkpt lat="59.22672796994448" lon="14.092481983825564">
        <ele>61.11</ele>
        <time>2025-02-17T14:47:46.505Z</time>
      </trkpt>
      <trkpt lat="59.226833917200565" lon="14.092619949951768">
        <ele>61.04</ele>
        <time>2025-02-17T14:48:42.722Z</time>
      </trkpt>
      <trkpt lat="59.226938942447305" lon="14.092759927734733">
        <ele>60.96</ele>
        <time>2025-02-17T14:49:38.941Z</time>
      </trkpt>
      <trkpt lat="59.22704296186566" lon="14.092899989336729">
        <ele>60.88</ele>
        <time>2025-02-17T14:50:35.162Z</time>
      </trkpt>
      <trkpt lat="59.22714396379888" lon="14.093037955462933">
        <ele>60.8</ele>
        <time>2025-02-17T14:51:31.385Z</time>
      </trkpt>
      <trkpt lat="59.22724395990372" lon="14.093171982094646">
        <ele>60.72</ele>
        <time>2025-02-17T14:52:27.610Z</time>
      </trkpt>
      <trkpt lat="59.22734093852341" lon="14.093300979584455">
        <ele>60.64</ele>
        <time>2025-02-17T14:53:23.837Z</time>
      </trkpt>
      <trkpt lat="59.227434983476996" lon="14.093426959589124">
        <ele>60.56</ele>
        <time>2025-02-17T14:54:20.066Z</time>
      </trkpt>
      <trkpt lat="59.22752492129803" lon="14.09354698844254">
        <ele>60.48</ele>
        <time>2025-02-17T14:55:16.297Z</time>
      </trkpt>
      <trkpt lat="59.22760999761522" lon="14.093663999810815">
        <ele>60.4</ele>
        <time>2025-02-17T14:56:12.529Z</time>
      </trkpt>
      <trkpt lat="59.227693984285" lon="14.093774976208806">
        <ele>60.32</ele>
        <time>2025-02-17T14:57:08.763Z</time>
      </trkpt>
      <trkpt lat="59.227774953469634" lon="14.093883940950036">
        <ele>60.23</ele>
        <time>2025-02-17T14:58:04.999Z</time>
      </trkpt>
      <trkpt lat="59.22785399481654" lon="14.093988966196775">
        <ele>60.14</ele>
        <time>2025-02-17T14:59:01.236Z</time>
      </trkpt>
      <trkpt lat="59.2279339581728" lon="14.094088962301612">
        <ele>60.05</ele>
        <time>2025-02-17T14:59:57.475Z</time>
      </trkpt>
      <trkpt lat="59.2280079703778" lon="14.094193987548351">
        <ele>59.96</ele>
        <time>2025-02-17T15:00:53.715Z</time>
      </trkpt>
      <trkpt lat="59.22808491624892" lon="14.09429993480444">
        <ele>59.87</ele>
        <time>2025-02-17T15:01:49.957Z</time>
      </trkpt>
      <trkpt lat="59.228161945939064" lon="14.09440697170794">
        <ele>59.77</ele>
        <time>2025-02-17T15:02:46.200Z</time>
      </trkpt>
      <trkpt lat="59.22824098728597" lon="14.09451493062079">
        <ele>59.67</ele>
        <time>2025-02-17T15:03:42.445Z</time>
      </trkpt>
      <trkpt lat="59.22832095064223" lon="14.094625990837812">
        <ele>59.58</ele>
        <time>2025-02-17T15:04:38.691Z</time>
      </trkpt>
      <trkpt lat="59.228401919826865" lon="14.094735961407423">
        <ele>59.48</ele>
        <time>2025-02-17T15:05:34.939Z</time>
      </trkpt>
      <trkpt lat="59.228484984487295" lon="14.094846937805414">
        <ele>59.39</ele>
        <time>2025-02-17T15:06:31.189Z</time>
      </trkpt>
      <trkpt lat="59.228568971157074" lon="14.094958920031786">
        <ele>59.29</ele>
        <time>2025-02-17T15:07:27.440Z</time>
      </trkpt>
      <trkpt lat="59.228654969483614" lon="14.09507299773395">
        <ele>59.19</ele>
        <time>2025-02-17T15:08:23.693Z</time>
      </trkpt>
      <trkpt lat="59.22873996198177" lon="14.095188919454813">
        <ele>59.08</ele>
        <time>2025-02-17T15:09:19.947Z</time>
      </trkpt>
      <trkpt lat="59.228826966136694" lon="14.095304924994707">
        <ele>58.98</ele>
        <time>2025-02-17T15:10:16.203Z</time>
      </trkpt>
      <trkpt lat="59.228913970291615" lon="14.09541992470622">
        <ele>58.88</ele>
        <time>2025-02-17T15:11:12.461Z</time>
      </trkpt>
      <trkpt lat="59.229002986103296" lon="14.095534924417734">
        <ele>58.79</ele>
        <time>2025-02-17T15:12:08.721Z</time>
      </trkpt>
      <trkpt lat="59.2290909960866" lon="14.095651935786009">
        <ele>58.69</ele>
        <time>2025-02-17T15:13:04.982Z</time>
      </trkpt>
      <trkpt lat="59.22918093390763" lon="14.095773976296186">
        <ele>58.59</ele>
        <time>2025-02-17T15:14:01.245Z</time>
      </trkpt>
      <trkpt lat="59.22927196137607" lon="14.095898950472474">
        <ele>58.49</ele>
        <time>2025-02-17T15:14:57.510Z</time>
      </trkpt>
      <trkpt lat="59.22936491668224" lon="14.096027947962284">
        <ele>58.39</ele>
        <time>2025-02-17T15:15:53.777Z</time>
      </trkpt>
      <trkpt lat="59.22946097329259" lon="14.096157951280475">
        <ele>58.29</ele>
        <time>2025-02-17T15:16:50.046Z</time>
      </trkpt>
      <trkpt lat="59.229557951912284" lon="14.096290972083807">
        <ele>58.19</ele>
        <time>2025-02-17T15:17:46.316Z</time>
      </trkpt>
      <trkpt lat="59.2296539247036" lon="14.096425920724869">
        <ele>58.1</ele>
        <time>2025-02-17T15:18:42.588Z</time>
      </trkpt>
      <trkpt lat="59.229749981313944" lon="14.096559947356582">
        <ele>58.01</ele>
        <time>2025-02-17T15:19:38.862Z</time>
      </trkpt>
      <trkpt lat="59.22984494827688" lon="14.096690956503153">
        <ele>57.93</ele>
        <time>2025-02-17T15:20:35.138Z</time>
      </trkpt>
      <trkpt lat="59.22993798740208" lon="14.096823977306485">
        <ele>57.84</ele>
        <time>2025-02-17T15:21:31.416Z</time>
      </trkpt>
      <trkpt lat="59.230031948536634" lon="14.096954986453056">
        <ele>57.74</ele>
        <time>2025-02-17T15:22:27.696Z</time>
      </trkpt>
      <trkpt lat="59.23012498766184" lon="14.097081972286105">
        <ele>57.65</ele>
        <time>2025-02-17T15:23:23.978Z</time>
      </trkpt>
      <trkpt lat="59.23021894879639" lon="14.097206946462393">
        <ele>57.56</ele>
        <time>2025-02-17T15:24:20.261Z</time>
      </trkpt>
      <trkpt lat="59.230310982093215" lon="14.097330998629332">
        <ele>57.47</ele>
        <time>2025-02-17T15:25:16.546Z</time>
      </trkpt>
      <trkpt lat="59.23040393739939" lon="14.097449937835336">
        <ele>57.38</ele>
        <time>2025-02-17T15:26:12.833Z</time>
      </trkpt>
      <trkpt lat="59.23049597069621" lon="14.097569966688752">
        <ele>57.29</ele>
        <time>2025-02-17T15:27:09.122Z</time>
      </trkpt>
      <trkpt lat="59.230586998164654" lon="14.097689995542169">
        <ele>57.2</ele>
        <time>2025-02-17T15:28:05.413Z</time>
      </trkpt>
      <trkpt lat="59.230678947642446" lon="14.097805917263031">
        <ele>57.1</ele>
        <time>2025-02-17T15:29:01.705Z</time>
      </trkpt>
      <trkpt lat="59.23077098093927" lon="14.097918989136815">
        <ele>57.01</ele>
        <time>2025-02-17T15:29:57.999Z</time>
      </trkpt>
      <trkpt lat="59.23086192458868" lon="14.098030971363187">
        <ele>56.91</ele>
        <time>2025-02-17T15:30:54.295Z</time>
      </trkpt>
      <trkpt lat="59.230953957885504" lon="14.098139936104417">
        <ele>56.81</ele>
        <time>2025-02-17T15:31:50.593Z</time>
      </trkpt>
      <trkpt lat="59.23104699701071" lon="14.09825099632144">
        <ele>56.71</ele>
        <time>2025-02-17T15:32:46.892Z</time>
      </trkpt>
      <trkpt lat="59.23113995231688" lon="14.098355937749147">
        <ele>56.62</ele>
        <time>2025-02-17T15:33:43.193Z</time>
      </trkpt>
      <trkpt lat="59.231235925108194" lon="14.098455933853984">
        <ele>56.52</ele>
        <time>2025-02-17T15:34:39.496Z</time>
      </trkpt>
      <trkpt lat="59.23133097589016" lon="14.09855592995882">
        <ele>56.43</ele>
        <time>2025-02-17T15:35:35.800Z</time>
      </trkpt>
      <trkpt lat="59.23142594285309" lon="14.098656931892037">
        <ele>56.35</ele>
        <time>2025-02-17T15:36:32.106Z</time>
      </trkpt>
      <trkpt lat="59.23152199946344" lon="14.098756927996874">
        <ele>56.26</ele>
        <time>2025-02-17T15:37:28.414Z</time>
      </trkpt>
      <trkpt lat="59.23161696642637" lon="14.09885298460722">
        <ele>56.17</ele>
        <time>2025-02-17T15:38:24.724Z</time>
      </trkpt>
      <trkpt lat="59.231710927560925" lon="14.098936971276999">
        <ele>56.09</ele>
        <time>2025-02-17T15:39:21.035Z</time>
      </trkpt>
      <trkpt lat="59.23180497251451" lon="14.099016934633255">
        <ele>56.0</ele>
        <time>2025-02-17T15:40:17.348Z</time>
      </trkpt>
      <trkpt lat="59.23189792782068" lon="14.099094970151782">
        <ele>55.91</ele>
        <time>2025-02-17T15:41:13.663Z</time>
      </trkpt>
      <trkpt lat="59.231987949460745" lon="14.099167976528406">
        <ele>55.83</ele>
        <time>2025-02-17T15:42:09.979Z</time>
      </trkpt>
      <trkpt lat="59.23207797110081" lon="14.099236959591508">
        <ele>55.74</ele>
        <time>2025-02-17T15:43:06.297Z</time>
      </trkpt>
      <trkpt lat="59.23216598108411" lon="14.099302925169468">
        <ele>55.65</ele>
        <time>2025-02-17T15:44:02.616Z</time>
      </trkpt>
      <trkpt lat="59.23225298523903" lon="14.099365957081318">
        <ele>55.56</ele>
        <time>2025-02-17T15:44:58.937Z</time>
      </trkpt>
      <trkpt lat="59.23233998939395" lon="14.099426977336407">
        <ele>55.47</ele>
        <time>2025-02-17T15:45:55.259Z</time>
      </trkpt>
      <trkpt lat="59.23242598772049" lon="14.099486991763115">
        <ele>55.37</ele>
        <time>2025-02-17T15:46:51.583Z</time>
      </trkpt>
      <trkpt lat="59.23251399770379" lon="14.099543988704681">
        <ele>55.29</ele>
        <time>2025-02-17T15:47:47.908Z</time>
      </trkpt>
      <trkpt lat="59.23259798437357" lon="14.099597968161106">
        <ele>55.2</ele>
        <time>2025-02-17T15:48:44.235Z</time>
      </trkpt>
      <trkpt lat="59.23268498852849" lon="14.09965194761753">
        <ele>55.11</ele>
        <time>2025-02-17T15:49:40.563Z</time>
      </trkpt>
      <trkpt lat="59.23277199268341" lon="14.099703999236226">
        <ele>55.02</ele>
        <time>2025-02-17T15:50:36.892Z</time>
      </trkpt>
      <trkpt lat="59.23286092467606" lon="14.09975697286427">
        <ele>54.94</ele>
        <time>2025-02-17T15:51:33.223Z</time>
      </trkpt>
      <trkpt lat="59.23294994048774" lon="14.099809946492314">
        <ele>54.85</ele>
        <time>2025-02-17T15:52:29.555Z</time>
      </trkpt>
      <trkpt lat="59.233040967956185" lon="14.099860992282629">
        <ele>54.77</ele>
        <time>2025-02-17T15:53:25.889Z</time>
      </trkpt>
      <trkpt lat="59.23312998376787" lon="14.099911954253912">
        <ele>54.68</ele>
        <time>2025-02-17T15:54:22.224Z</time>
      </trkpt>
      <trkpt lat="59.2332199215889" lon="14.099960988387465">
        <ele>54.6</ele>
        <time>2025-02-17T15:55:18.561Z</time>
      </trkpt>
      <trkpt lat="59.23330893740058" lon="14.100001975893974">
        <ele>54.51</ele>
        <time>2025-02-17T15:56:14.899Z</time>
      </trkpt>
      <trkpt lat="59.2333959415555" lon="14.100042963400483">
        <ele>54.43</ele>
        <time>2025-02-17T15:57:11.239Z</time>
      </trkpt>
      <trkpt lat="59.23348093405366" lon="14.100090991705656">
        <ele>54.36</ele>
        <time>2025-02-17T15:58:07.580Z</time>
      </trkpt>
      <trkpt lat="59.23356399871409" lon="14.100138936191797">
        <ele>54.28</ele>
        <time>2025-02-17T15:59:03.923Z</time>
      </trkpt>
      <trkpt lat="59.23364597372711" lon="14.100188976153731">
        <ele>54.2</ele>
        <time>2025-02-17T16:00:00.267Z</time>
      </trkpt>
      <trkpt lat="59.233727948740125" lon="14.100239938125014">
        <ele>54.12</ele>
        <time>2025-02-17T16:00:56.612Z</time>
      </trkpt>
      <trkpt lat="59.23380992375314" lon="14.100290983915329">
        <ele>54.05</ele>
        <time>2025-02-17T16:01:52.959Z</time>
      </trkpt>
      <trkpt lat="59.23389097675681" lon="14.10033993422985">
        <ele>53.97</ele>
        <time>2025-02-17T16:02:49.307Z</time>
      </trkpt>
      <trkpt lat="59.23397395759821" lon="14.100384945049882">
        <ele>53.9</ele>
        <time>2025-02-17T16:03:45.657Z</time>
      </trkpt>
      <trkpt lat="59.23405693843961" lon="14.100431967526674">
        <ele>53.83</ele>
        <time>2025-02-17T16:04:42.008Z</time>
      </trkpt>
      <trkpt lat="59.23413899727166" lon="14.100474966689944">
        <ele>53.76</ele>
        <time>2025-02-17T16:05:38.360Z</time>
      </trkpt>
      <trkpt lat="59.234222983941436" lon="14.100514948368073">
        <ele>53.68</ele>
        <time>2025-02-17T16:06:34.714Z</time>
      </trkpt>
      <trkpt lat="59.234306970611215" lon="14.100547973066568">
        <ele>53.6</ele>
        <time>2025-02-17T16:07:31.069Z</time>
      </trkpt>
      <trkpt lat="59.23438793979585" lon="14.100576974451542">
        <ele>53.53</ele>
        <time>2025-02-17T16:08:27.425Z</time>
      </trkpt>
      <trkpt lat="59.23446899279952" lon="14.10059398971498">
        <ele>53.44</ele>
        <time>2025-02-17T16:09:23.783Z</time>
      </trkpt>
      <trkpt lat="59.234545938670635" lon="14.100604970008135">
        <ele>53.36</ele>
        <time>2025-02-17T16:10:20.142Z</time>
      </trkpt>
      <trkpt lat="59.2346219625324" lon="14.100613938644528">
        <ele>53.28</ele>
        <time>2025-02-17T16:11:16.502Z</time>
      </trkpt>
      <trkpt lat="59.23469899222255" lon="14.10061595030129">
        <ele>53.2</ele>
        <time>2025-02-17T16:12:12.863Z</time>
      </trkpt>
      <trkpt lat="59.23477694392204" lon="14.100613938644528">
        <ele>53.12</ele>
        <time>2025-02-17T16:13:09.226Z</time>
      </trkpt>
      <trkpt lat="59.23485397361219" lon="14.100612932816148">
        <ele>53.05</ele>
        <time>2025-02-17T16:14:05.590Z</time>
      </trkpt>
      <trkpt lat="59.234931925311685" lon="14.100609999150038">
        <ele>52.97</ele>
        <time>2025-02-17T16:15:01.955Z</time>
      </trkpt>
      <trkpt lat="59.23500794917345" lon="14.100605975836515">
        <ele>52.9</ele>
        <time>2025-02-17T16:15:58.321Z</time>
      </trkpt>
      <trkpt lat="59.2350849788636" lon="14.100603964179754">
        <ele>52.83</ele>
        <time>2025-02-17T16:16:54.689Z</time>
      </trkpt>
      <trkpt lat="59.23515999689698" lon="14.10059398971498">
        <ele>52.76</ele>
        <time>2025-02-17T16:17:51.058Z</time>
      </trkpt>
      <trkpt lat="59.23523794859648" lon="14.100584937259555">
        <ele>52.7</ele>
        <time>2025-02-17T16:18:47.428Z</time>
      </trkpt>
      <trkpt lat="59.235315984115005" lon="14.100577980279922">
        <ele>52.63</ele>
        <time>2025-02-17T16:19:43.799Z</time>
      </trkpt>
      <trkpt lat="59.23539594747126" lon="14.100575968623161">
        <ele>52.57</ele>
        <time>2025-02-17T16:20:40.172Z</time>
      </trkpt>
      <trkpt lat="59.23547792248428" lon="14.100575968623161">
        <ele>52.51</ele>
        <time>2025-02-17T16:21:36.546Z</time>
      </trkpt>
      <trkpt lat="59.23556098714471" lon="14.100570939481258">
        <ele>52.46</ele>
        <time>2025-02-17T16:22:32.921Z</time>
      </trkpt>
      <trkpt lat="59.23564597964287" lon="14.100563982501626">
        <ele>52.4</ele>
        <time>2025-02-17T16:23:29.298Z</time>
      </trkpt>
      <trkpt lat="59.23573298379779" lon="14.1005549300462">
        <ele>52.34</ele>
        <time>2025-02-17T16:24:25.676Z</time>
      </trkpt>
      <trkpt lat="59.23582292161882" lon="14.100544955581427">
        <ele>52.29</ele>
        <time>2025-02-17T16:25:22.055Z</time>
      </trkpt>
      <trkpt lat="59.23591294325888" lon="14.10052995197475">
        <ele>52.23</ele>
        <time>2025-02-17T16:26:18.436Z</time>
      </trkpt>
      <trkpt lat="59.23600195907056" lon="14.100515954196453">
        <ele>52.18</ele>
        <time>2025-02-17T16:27:14.818Z</time>
      </trkpt>
      <trkpt lat="59.236092986539006" lon="14.100501956418157">
        <ele>52.12</ele>
        <time>2025-02-17T16:28:11.202Z</time>
      </trkpt>
      <trkpt lat="59.23618393018842" lon="14.100491981953382">
        <ele>52.08</ele>
        <time>2025-02-17T16:29:07.587Z</time>
      </trkpt>
      <trkpt lat="59.23627696931362" lon="14.100484941154718">
        <ele>52.03</ele>
        <time>2025-02-17T16:30:03.974Z</time>
      </trkpt>
      <trkpt lat="59.236370930448174" lon="14.100476978346705">
        <ele>51.99</ele>
        <time>2025-02-17T16:31:00.362Z</time>
      </trkpt>
      <trkpt lat="59.23646497540176" lon="14.10046893171966">
        <ele>51.95</ele>
        <time>2025-02-17T16:31:56.752Z</time>
      </trkpt>
      <trkpt lat="59.23656094819307" lon="14.100459963083267">
        <ele>51.91</ele>
        <time>2025-02-17T16:32:53.143Z</time>
      </trkpt>
      <trkpt lat="59.23665499314666" lon="14.10044495947659">
        <ele>51.87</ele>
        <time>2025-02-17T16:33:49.536Z</time>
      </trkpt>
      <trkpt lat="59.23674794845283" lon="14.100432973355055">
        <ele>51.82</ele>
        <time>2025-02-17T16:34:45.930Z</time>
      </trkpt>
      <trkpt lat="59.236841993406415" lon="14.100426938384771">
        <ele>51.78</ele>
        <time>2025-02-17T16:35:42.326Z</time>
      </trkpt>
      <trkpt lat="59.23693595454097" lon="14.10042299889028">
        <ele>51.74</ele>
        <time>2025-02-17T16:36:38.723Z</time>
      </trkpt>
      <trkpt lat="59.23703192733228" lon="14.100418975576758">
        <ele>51.7</ele>
        <time>2025-02-17T16:37:35.122Z</time>
      </trkpt>
      <trkpt lat="59.23712798394263" lon="14.100419981405139">
        <ele>51.66</ele>
        <time>2025-02-17T16:38:31.522Z</time>
      </trkpt>
      <trkpt lat="59.23722395673394" lon="14.10042593255639">
        <ele>51.63</ele>
        <time>2025-02-17T16:39:27.924Z</time>
      </trkpt>
      <trkpt lat="59.237319929525256" lon="14.100433979183435">
        <ele>51.6</ele>
        <time>2025-02-17T16:40:24.327Z</time>
      </trkpt>
      <trkpt lat="59.2374159861356" lon="14.100447976961732">
        <ele>51.57</ele>
        <time>2025-02-17T16:41:20.732Z</time>
      </trkpt>
      <trkpt lat="59.237511958926916" lon="14.1004669200629">
        <ele>51.54</ele>
        <time>2025-02-17T16:42:17.139Z</time>
      </trkpt>
      <trkpt lat="59.23760994337499" lon="14.100489970296621">
        <ele>51.5</ele>
        <time>2025-02-17T16:43:13.547Z</time>
      </trkpt>
      <trkpt lat="59.237703988328576" lon="14.100516960024834">
        <ele>51.47</ele>
        <time>2025-02-17T16:44:09.957Z</time>
      </trkpt>
      <trkpt lat="59.23779493197799" lon="14.100545961409807">
        <ele>51.44</ele>
        <time>2025-02-17T16:45:06.368Z</time>
      </trkpt>
      <trkpt lat="59.23788495361805" lon="14.100578986108303">
        <ele>51.41</ele>
        <time>2025-02-17T16:46:02.781Z</time>
      </trkpt>
      <trkpt lat="59.23797296360135" lon="14.100613938644528">
        <ele>51.38</ele>
        <time>2025-02-17T16:46:59.195Z</time>
      </trkpt>
      <trkpt lat="59.23805996775627" lon="14.100657943636179">
        <ele>51.35</ele>
        <time>2025-02-17T16:47:55.611Z</time>
      </trkpt>
      <trkpt lat="59.23814898356795" lon="14.100712928920984">
        <ele>51.32</ele>
        <time>2025-02-17T16:48:52.028Z</time>
      </trkpt>
      <trkpt lat="59.238235987722874" lon="14.100770931690931">
        <ele>51.3</ele>
        <time>2025-02-17T16:49:48.446Z</time>
      </trkpt>
      <trkpt lat="59.238321986049414" lon="14.1008329577744">
        <ele>51.27</ele>
        <time>2025-02-17T16:50:44.866Z</time>
      </trkpt>
      <trkpt lat="59.238408990204334" lon="14.10089791752398">
        <ele>51.25</ele>
        <time>2025-02-17T16:51:41.287Z</time>
      </trkpt>
      <trkpt lat="59.238493982702494" lon="14.100965978577733">
        <ele>51.24</ele>
        <time>2025-02-17T16:52:37.710Z</time>
      </trkpt>
      <trkpt lat="59.23857696354389" lon="14.101036973297596">
        <ele>51.22</ele>
        <time>2025-02-17T16:53:34.134Z</time>
      </trkpt>
      <trkpt lat="59.23865893855691" lon="14.101114924997091">
        <ele>51.2</ele>
        <time>2025-02-17T16:54:30.560Z</time>
      </trkpt>
      <trkpt lat="59.23873999156058" lon="14.10119497217238">
        <ele>51.19</ele>
        <time>2025-02-17T16:55:26.987Z</time>
      </trkpt>
      <trkpt lat="59.238818949088454" lon="14.101275941357017">
        <ele>51.17</ele>
        <time>2025-02-17T16:56:23.416Z</time>
      </trkpt>
      <trkpt lat="59.23889698460698" lon="14.101354982703924">
        <ele>51.16</ele>
        <time>2025-02-17T16:57:19.846Z</time>
      </trkpt>
      <trkpt lat="59.238973930478096" lon="14.101431928575039">
        <ele>51.15</ele>
        <time>2025-02-17T16:58:16.278Z</time>
      </trkpt>
      <trkpt lat="59.23904894851148" lon="14.101509964093566">
        <ele>51.14</ele>
        <time>2025-02-17T16:59:12.711Z</time>
      </trkpt>
      <trkpt lat="59.239121954888105" lon="14.101588921621442">
        <ele>51.14</ele>
        <time>2025-02-17T17:00:09.145Z</time>
      </trkpt>
      <trkpt lat="59.23919697292149" lon="14.10166997462511">
        <ele>51.13</ele>
        <time>2025-02-17T17:01:05.581Z</time>
      </trkpt>
      <trkpt lat="59.239271990954876" lon="14.101751949638128">
        <ele>51.12</ele>
        <time>2025-02-17T17:02:02.018Z</time>
      </trkpt>
      <trkpt lat="59.23934793099761" lon="14.101832918822765">
        <ele>51.12</ele>
        <time>2025-02-17T17:02:58.456Z</time>
      </trkpt>
      <trkpt lat="59.239422949030995" lon="14.101912965998054">
        <ele>51.12</ele>
        <time>2025-02-17T17:03:54.896Z</time>
      </trkpt>
      <trkpt lat="59.23949897289276" lon="14.1019899956882">
        <ele>51.13</ele>
        <time>2025-02-17T17:04:51.337Z</time>
      </trkpt>
      <trkpt lat="59.239572985097766" lon="14.102067947387695">
        <ele>51.14</ele>
        <time>2025-02-17T17:05:47.779Z</time>
      </trkpt>
      <trkpt lat="59.23964498564601" lon="14.102146988734603">
        <ele>51.14</ele>
        <time>2025-02-17T17:06:44.223Z</time>
      </trkpt>
      <trkpt lat="59.23971698619425" lon="14.102222928777337">
        <ele>51.15</ele>
        <time>2025-02-17T17:07:40.668Z</time>
      </trkpt>
      <trkpt lat="59.239786975085735" lon="14.102298952639103">
        <ele>51.15</ele>
        <time>2025-02-17T17:08:37.114Z</time>
      </trkpt>
      <trkpt lat="59.23985696397722" lon="14.102378999814391">
        <ele>51.16</ele>
        <time>2025-02-17T17:09:33.562Z</time>
      </trkpt>
      <trkpt lat="59.23992594704032" lon="14.102460974827409">
        <ele>51.17</ele>
        <time>2025-02-17T17:10:30.011Z</time>
      </trkpt>
      <trkpt lat="59.23999392427504" lon="14.102543955668807">
        <ele>51.18</ele>
        <time>2025-02-17T17:11:26.461Z</time>
      </trkpt>
      <trkpt lat="59.24006198532879" lon="14.102636994794011">
        <ele>51.2</ele>
        <time>2025-02-17T17:12:22.913Z</time>
      </trkpt>
      <trkpt lat="59.24012795090675" lon="14.102734979242086">
        <ele>51.21</ele>
        <time>2025-02-17T17:13:19.366Z</time>
      </trkpt>
      <trkpt lat="59.240191988646984" lon="14.102839920669794">
        <ele>51.23</ele>
        <time>2025-02-17T17:14:15.820Z</time>
      </trkpt>
      <trkpt lat="59.24025393091142" lon="14.102948969230056">
        <ele>51.25</ele>
        <time>2025-02-17T17:15:12.276Z</time>
      </trkpt>
      <trkpt lat="59.24031595699489" lon="14.10306396894157">
        <ele>51.28</ele>
        <time>2025-02-17T17:16:08.733Z</time>
      </trkpt>
      <trkpt lat="59.24037697724998" lon="14.103180980309844">
        <ele>51.31</ele>
        <time>2025-02-17T17:17:05.191Z</time>
      </trkpt>
      <trkpt lat="59.24043598584831" lon="14.103300925344229">
        <ele>51.35</ele>
        <time>2025-02-17T17:18:01.651Z</time>
      </trkpt>
      <trkpt lat="59.240493988618255" lon="14.103423971682787">
        <ele>51.38</ele>
        <time>2025-02-17T17:18:58.112Z</time>
      </trkpt>
      <trkpt lat="59.24054997973144" lon="14.103552969172597">
        <ele>51.41</ele>
        <time>2025-02-17T17:19:54.575Z</time>
      </trkpt>
      <trkpt lat="59.240603959187865" lon="14.103684984147549">
        <ele>51.45</ele>
        <time>2025-02-17T17:20:51.039Z</time>
      </trkpt>
      <trkpt lat="59.24065793864429" lon="14.10381993278861">
        <ele>51.48</ele>
        <time>2025-02-17T17:21:47.504Z</time>
      </trkpt>
      <trkpt lat="59.240710996091366" lon="14.103955971077085">
        <ele>51.52</ele>
        <time>2025-02-17T17:22:43.971Z</time>
      </trkpt>
      <trkpt lat="59.24076396971941" lon="14.104090919718146">
        <ele>51.56</ele>
        <time>2025-02-17T17:23:40.439Z</time>
      </trkpt>
      <trkpt lat="59.24081392586231" lon="14.104227963835001">
        <ele>51.61</ele>
        <time>2025-02-17T17:24:36.908Z</time>
      </trkpt>
      <trkpt lat="59.240862959995866" lon="14.104364924132824">
        <ele>51.66</ele>
        <time>2025-02-17T17:25:33.379Z</time>
      </trkpt>
      <trkpt lat="59.24091098830104" lon="14.104501968249679">
        <ele>51.71</ele>
        <time>2025-02-17T17:26:29.851Z</time>
      </trkpt>
      <trkpt lat="59.24095993861556" lon="14.104637922719121">
        <ele>51.76</ele>
        <time>2025-02-17T17:27:26.325Z</time>
      </trkpt>
      <trkpt lat="59.24100796692073" lon="14.104774966835976">
        <ele>51.81</ele>
        <time>2025-02-17T17:28:22.800Z</time>
      </trkpt>
      <trkpt lat="59.241056917235255" lon="14.10491293296218">
        <ele>51.87</ele>
        <time>2025-02-17T17:29:19.276Z</time>
      </trkpt>
      <trkpt lat="59.24110595136881" lon="14.105050982907414">
        <ele>51.93</ele>
        <time>2025-02-17T17:30:15.754Z</time>
      </trkpt>
      <trkpt lat="59.24115498550236" lon="14.105188949033618">
        <ele>52.0</ele>
        <time>2025-02-17T17:31:12.233Z</time>
      </trkpt>
      <trkpt lat="59.241203935816884" lon="14.105327920988202">
        <ele>52.06</ele>
        <time>2025-02-17T17:32:08.713Z</time>
      </trkpt>
      <trkpt lat="59.24125296995044" lon="14.105464965105057">
        <ele>52.13</ele>
        <time>2025-02-17T17:33:05.195Z</time>
      </trkpt>
      <trkpt lat="59.24130393192172" lon="14.1056009195745">
        <ele>52.19</ele>
        <time>2025-02-17T17:34:01.678Z</time>
      </trkpt>
      <trkpt lat="59.241353971883655" lon="14.105738969519734">
        <ele>52.27</ele>
        <time>2025-02-17T17:34:58.163Z</time>
      </trkpt>
      <trkpt lat="59.241402922198176" lon="14.105873918160796">
        <ele>52.34</ele>
        <time>2025-02-17T17:35:54.649Z</time>
      </trkpt>
      <trkpt lat="59.24145195633173" lon="14.10601096227765">
        <ele>52.42</ele>
        <time>2025-02-17T17:36:51.136Z</time>
      </trkpt>
      <trkpt lat="59.24150099046528" lon="14.106150940060616">
        <ele>52.51</ele>
        <time>2025-02-17T17:37:47.625Z</time>
      </trkpt>
      <trkpt lat="59.241551952436566" lon="14.106289995834231">
        <ele>52.6</ele>
        <time>2025-02-17T17:38:44.115Z</time>
      </trkpt>
      <trkpt lat="59.24160098657012" lon="14.106429973617196">
        <ele>52.68</ele>
        <time>2025-02-17T17:39:40.607Z</time>
      </trkpt>
      <trkpt lat="59.24165094271302" lon="14.10656995140016">
        <ele>52.77</ele>
        <time>2025-02-17T17:40:37.100Z</time>
      </trkpt>
      <trkpt lat="59.24170299433172" lon="14.106710935011506">
        <ele>52.87</ele>
        <time>2025-02-17T17:41:33.594Z</time>
      </trkpt>
      <trkpt lat="59.24175496213138" lon="14.106852924451232">
        <ele>52.97</ele>
        <time>2025-02-17T17:42:30.090Z</time>
      </trkpt>
      <trkpt lat="59.241805924102664" lon="14.106996925547719">
        <ele>53.07</ele>
        <time>2025-02-17T17:43:26.587Z</time>
      </trkpt>
      <trkpt lat="59.24185696989298" lon="14.107142938300967">
        <ele>53.17</ele>
        <time>2025-02-17T17:44:23.086Z</time>
      </trkpt>
      <trkpt lat="59.24190692603588" lon="14.107289956882596">
        <ele>53.27</ele>
        <time>2025-02-17T17:45:19.586Z</time>
      </trkpt>
      <trkpt lat="59.241955960169435" lon="14.107435969635844">
        <ele>53.38</ele>
        <time>2025-02-17T17:46:16.088Z</time>
      </trkpt>
      <trkpt lat="59.24200692214072" lon="14.107580976560712">
        <ele>53.49</ele>
        <time>2025-02-17T17:47:12.591Z</time>
      </trkpt>
      <trkpt lat="59.24205796793103" lon="14.107721960172057">
        <ele>53.6</ele>
        <time>2025-02-17T17:48:09.095Z</time>
      </trkpt>
      <trkpt lat="59.242108929902315" lon="14.107862943783402">
        <ele>53.71</ele>
        <time>2025-02-17T17:49:05.601Z</time>
      </trkpt>
      <trkpt lat="59.24215896986425" lon="14.108002921566367">
        <ele>53.82</ele>
        <time>2025-02-17T17:50:02.108Z</time>
      </trkpt>
      <trkpt lat="59.24220792017877" lon="14.108144994825125">
        <ele>53.94</ele>
        <time>2025-02-17T17:50:58.617Z</time>
      </trkpt>
      <trkpt lat="59.242256954312325" lon="14.108287990093231">
        <ele>54.06</ele>
        <time>2025-02-17T17:51:55.127Z</time>
      </trkpt>
      <trkpt lat="59.24230598844588" lon="14.108429979532957">
        <ele>54.19</ele>
        <time>2025-02-17T17:52:51.639Z</time>
      </trkpt>
      <trkpt lat="59.24235393293202" lon="14.108569957315922">
        <ele>54.32</ele>
        <time>2025-02-17T17:53:48.152Z</time>
      </trkpt>
      <trkpt lat="59.24240196123719" lon="14.108708929270506">
        <ele>54.45</ele>
        <time>2025-02-17T17:54:44.666Z</time>
      </trkpt>
      <trkpt lat="59.242449989542365" lon="14.108846979215741">
        <ele>54.59</ele>
        <time>2025-02-17T17:55:41.182Z</time>
      </trkpt>
      <trkpt lat="59.242497934028506" lon="14.108982933685184">
        <ele>54.73</ele>
        <time>2025-02-17T17:56:37.699Z</time>
      </trkpt>
      <trkpt lat="59.24254696816206" lon="14.109117966145277">
        <ele>54.87</ele>
        <time>2025-02-17T17:57:34.217Z</time>
      </trkpt>
      <trkpt lat="59.24259591847658" lon="14.10925299860537">
        <ele>55.01</ele>
        <time>2025-02-17T17:58:30.737Z</time>
      </trkpt>
      <trkpt lat="59.242644952610135" lon="14.10938392393291">
        <ele>55.16</ele>
        <time>2025-02-17T17:59:27.258Z</time>
      </trkpt>
      <trkpt lat="59.24269197508693" lon="14.109514933079481">
        <ele>55.31</ele>
        <time>2025-02-17T18:00:23.780Z</time>
      </trkpt>
      <trkpt lat="59.24273899756372" lon="14.109645942226052">
        <ele>55.46</ele>
        <time>2025-02-17T18:01:20.304Z</time>
      </trkpt>
      <trkpt lat="59.24278199672699" lon="14.109774939715862">
        <ele>55.61</ele>
        <time>2025-02-17T18:02:16.829Z</time>
      </trkpt>
      <trkpt lat="59.24282692372799" lon="14.109899997711182">
        <ele>55.76</ele>
        <time>2025-02-17T18:03:13.355Z</time>
      </trkpt>
      <trkpt lat="59.24287092871964" lon="14.110022960230708">
        <ele>55.91</ele>
        <time>2025-02-17T18:04:09.882Z</time>
      </trkpt>
      <trkpt lat="59.24291392788291" lon="14.110145922750235">
        <ele>56.07</ele>
        <time>2025-02-17T18:05:06.411Z</time>
      </trkpt>
      <trkpt lat="59.24295692704618" lon="14.110268969088793">
        <ele>56.22</ele>
        <time>2025-02-17T18:06:02.941Z</time>
      </trkpt>
      <trkpt lat="59.24299892038107" lon="14.110396960750222">
        <ele>56.37</ele>
        <time>2025-02-17T18:06:59.472Z</time>
      </trkpt>
      <trkpt lat="59.24304292537272" lon="14.110523946583271">
        <ele>56.52</ele>
        <time>2025-02-17T18:07:56.004Z</time>
      </trkpt>
      <trkpt lat="59.24308793619275" lon="14.11064799875021">
        <ele>56.67</ele>
        <time>2025-02-17T18:08:52.538Z</time>
      </trkpt>
      <trkpt lat="59.2431319411844" lon="14.110771967098117">
        <ele>56.82</ele>
        <time>2025-02-17T18:09:49.073Z</time>
      </trkpt>
      <trkpt lat="59.24317695200443" lon="14.110895935446024">
        <ele>56.97</ele>
        <time>2025-02-17T18:10:45.609Z</time>
      </trkpt>
      <trkpt lat="59.24322095699608" lon="14.111018981784582">
        <ele>57.13</ele>
        <time>2025-02-17T18:11:42.146Z</time>
      </trkpt>
      <trkpt lat="59.243264961987734" lon="14.111140938475728">
        <ele>57.28</ele>
        <time>2025-02-17T18:12:38.685Z</time>
      </trkpt>
      <trkpt lat="59.24330695532262" lon="14.111262978985906">
        <ele>57.43</ele>
        <time>2025-02-17T18:13:35.225Z</time>
      </trkpt>
      <trkpt lat="59.24334995448589" lon="14.111383929848671">
        <ele>57.58</ele>
        <time>2025-02-17T18:14:31.766Z</time>
      </trkpt>
      <trkpt lat="59.24339194782078" lon="14.111503958702087">
        <ele>57.73</ele>
        <time>2025-02-17T18:15:28.308Z</time>
      </trkpt>
      <trkpt lat="59.24343394115567" lon="14.111620970070362">
        <ele>57.88</ele>
        <time>2025-02-17T18:16:24.851Z</time>
      </trkpt>
      <trkpt lat="59.24347492866218" lon="14.111735969781876">
        <ele>58.03</ele>
        <time>2025-02-17T18:17:21.396Z</time>
      </trkpt>
      <trkpt lat="59.24351499415934" lon="14.111847952008247">
        <ele>58.18</ele>
        <time>2025-02-17T18:18:17.942Z</time>
      </trkpt>
      <trkpt lat="59.24355497583747" lon="14.111956916749477">
        <ele>58.33</ele>
        <time>2025-02-17T18:19:14.489Z</time>
      </trkpt>
      <trkpt lat="59.243591940030456" lon="14.112061941996217">
        <ele>58.48</ele>
        <time>2025-02-17T18:20:11.037Z</time>
      </trkpt>
      <trkpt lat="59.243628988042474" lon="14.112165961414576">
        <ele>58.64</ele>
        <time>2025-02-17T18:21:07.586Z</time>
      </trkpt>
      <trkpt lat="59.24366494640708" lon="14.112265957519412">
        <ele>58.79</ele>
        <time>2025-02-17T18:22:04.136Z</time>
      </trkpt>
      <trkpt lat="59.243697971105576" lon="14.112364947795868">
        <ele>58.95</ele>
        <time>2025-02-17T18:23:00.687Z</time>
      </trkpt>
      <trkpt lat="59.24373099580407" lon="14.112463938072324">
        <ele>59.1</ele>
        <time>2025-02-17T18:23:57.239Z</time>
      </trkpt>
      <trkpt lat="59.2437659483403" lon="14.112560916692019">
        <ele>59.26</ele>
        <time>2025-02-17T18:24:53.792Z</time>
      </trkpt>
      <trkpt lat="59.243800984695554" lon="14.112657979130745">
        <ele>59.41</ele>
        <time>2025-02-17T18:25:50.346Z</time>
      </trkpt>
      <trkpt lat="59.2438349314034" lon="14.11275495775044">
        <ele>59.57</ele>
        <time>2025-02-17T18:26:46.901Z</time>
      </trkpt>
      <trkpt lat="59.243869967758656" lon="14.112854953855276">
        <ele>59.74</ele>
        <time>2025-02-17T18:27:43.457Z</time>
      </trkpt>
      <trkpt lat="59.24390492029488" lon="14.112956961616874">
        <ele>59.9</ele>
        <time>2025-02-17T18:28:40.014Z</time>
      </trkpt>
      <trkpt lat="59.24393995665014" lon="14.113062992691994">
        <ele>60.06</ele>
        <time>2025-02-17T18:29:36.572Z</time>
      </trkpt>
      <trkpt lat="59.24397197552025" lon="14.11316298879683">
        <ele>60.22</ele>
        <time>2025-02-17T18:30:33.131Z</time>
      </trkpt>
      <trkpt lat="59.24400692805648" lon="14.113266924396157">
        <ele>60.38</ele>
        <time>2025-02-17T18:31:29.691Z</time>
      </trkpt>
      <trkpt lat="59.244041964411736" lon="14.113371949642897">
        <ele>60.54</ele>
        <time>2025-02-17T18:32:26.252Z</time>
      </trkpt>
      <trkpt lat="59.2440799344331" lon="14.113478986546397">
        <ele>60.71</ele>
        <time>2025-02-17T18:33:22.814Z</time>
      </trkpt>
      <trkpt lat="59.24411698244512" lon="14.113581916317344">
        <ele>60.87</ele>
        <time>2025-02-17T18:34:19.377Z</time>
      </trkpt>
      <trkpt lat="59.24415394663811" lon="14.11368291825056">
        <ele>61.03</ele>
        <time>2025-02-17T18:35:15.941Z</time>
      </trkpt>
      <trkpt lat="59.24418596550822" lon="14.113776963204145">
        <ele>61.19</ele>
        <time>2025-02-17T18:36:12.506Z</time>
      </trkpt>
      <trkpt lat="59.24421597272158" lon="14.113865979015827">
        <ele>61.35</ele>
        <time>2025-02-17T18:37:09.072Z</time>
      </trkpt>
      <trkpt lat="59.24424396827817" lon="14.113949965685606">
        <ele>61.51</ele>
        <time>2025-02-17T18:38:05.639Z</time>
      </trkpt>
      <trkpt lat="59.244276992976665" lon="14.114031940698624">
        <ele>61.67</ele>
        <time>2025-02-17T18:39:02.206Z</time>
      </trkpt>
      <trkpt lat="59.24430792219937" lon="14.114110982045531">
        <ele>61.83</ele>
        <time>2025-02-17T18:39:58.774Z</time>
      </trkpt>
      <trkpt lat="59.244340946897864" lon="14.11419496871531">
        <ele>61.99</ele>
        <time>2025-02-17T18:40:55.343Z</time>
      </trkpt>
      <trkpt lat="59.24437095411122" lon="14.114270992577076">
        <ele>62.15</ele>
        <time>2025-02-17T18:41:51.913Z</time>
      </trkpt>
      <trkpt lat="59.24439894966781" lon="14.1143439989537">
        <ele>62.3</ele>
        <time>2025-02-17T18:42:48.484Z</time>
      </trkpt>
      <trkpt lat="59.244428956881166" lon="14.11443293094635">
        <ele>62.46</ele>
        <time>2025-02-17T18:43:45.055Z</time>
      </trkpt>
      <trkpt lat="59.2444599699229" lon="14.114528987556696">
        <ele>62.61</ele>
        <time>2025-02-17T18:44:41.627Z</time>
      </trkpt>
      <trkpt lat="59.244493916630745" lon="14.11462596617639">
        <ele>62.76</ele>
        <time>2025-02-17T18:45:38.200Z</time>
      </trkpt>
      <trkpt lat="59.24452794715762" lon="14.114726968109608">
        <ele>62.92</ele>
        <time>2025-02-17T18:46:34.774Z</time>
      </trkpt>
      <trkpt lat="59.2445619776845" lon="14.114830987527966">
        <ele>63.07</ele>
        <time>2025-02-17T18:47:31.349Z</time>
      </trkpt>
      <trkpt lat="59.24459693022072" lon="14.114936934784055">
        <ele>63.22</ele>
        <time>2025-02-17T18:48:27.925Z</time>
      </trkpt>
      <trkpt lat="59.24462995491922" lon="14.115047995001078">
        <ele>63.37</ele>
        <time>2025-02-17T18:49:24.502Z</time>
      </trkpt>
      <trkpt lat="59.244662979617715" lon="14.11516098305583">
        <ele>63.52</ele>
        <time>2025-02-17T18:50:21.081Z</time>
      </trkpt>
      <trkpt lat="59.24469499848783" lon="14.115273971110582">
        <ele>63.68</ele>
        <time>2025-02-17T18:51:17.661Z</time>
      </trkpt>
      <trkpt lat="59.244730956852436" lon="14.115390982478857">
        <ele>63.83</ele>
        <time>2025-02-17T18:52:14.242Z</time>
      </trkpt>
      <trkpt lat="59.24476398155093" lon="14.115507993847132">
        <ele>63.98</ele>
        <time>2025-02-17T18:53:10.824Z</time>
      </trkpt>
      <trkpt lat="59.24479792825878" lon="14.115624921396375">
        <ele>64.13</ele>
        <time>2025-02-17T18:54:07.407Z</time>
      </trkpt>
      <trkpt lat="59.24483195878565" lon="14.11574293859303">
        <ele>64.28</ele>
        <time>2025-02-17T18:55:03.991Z</time>
      </trkpt>
      <trkpt lat="59.24486498348415" lon="14.115861961618066">
        <ele>64.43</ele>
        <time>2025-02-17T18:56:00.576Z</time>
      </trkpt>
      <trkpt lat="59.244899936020374" lon="14.115981990471482">
        <ele>64.58</ele>
        <time>2025-02-17T18:56:57.162Z</time>
      </trkpt>
      <trkpt lat="59.24493094906211" lon="14.116101935505867">
        <ele>64.73</ele>
        <time>2025-02-17T18:57:53.749Z</time>
      </trkpt>
      <trkpt lat="59.244961962103844" lon="14.116220958530903">
        <ele>64.88</ele>
        <time>2025-02-17T18:58:50.337Z</time>
      </trkpt>
      <trkpt lat="59.2449919693172" lon="14.116338975727558">
        <ele>65.02</ele>
        <time>2025-02-17T18:59:46.927Z</time>
      </trkpt>
      <trkpt lat="59.245024994015694" lon="14.116456992924213">
        <ele>65.18</ele>
        <time>2025-02-17T19:00:43.518Z</time>
      </trkpt>
      <trkpt lat="59.2450559232384" lon="14.116570986807346">
        <ele>65.33</ele>
        <time>2025-02-17T19:01:40.110Z</time>
      </trkpt>
      <trkpt lat="59.24508794210851" lon="14.11668892018497">
        <ele>65.47</ele>
        <time>2025-02-17T19:02:36.703Z</time>
      </trkpt>
      <trkpt lat="59.24511895515025" lon="14.116803919896483">
        <ele>65.61</ele>
        <time>2025-02-17T19:03:33.297Z</time>
      </trkpt>
      <trkpt lat="59.2451489623636" lon="14.116918919607997">
        <ele>65.76</ele>
        <time>2025-02-17T19:04:29.892Z</time>
      </trkpt>
      <trkpt lat="59.245179975405335" lon="14.117031991481781">
        <ele>65.9</ele>
        <time>2025-02-17T19:05:26.488Z</time>
      </trkpt>
      <trkpt lat="59.24521199427545" lon="14.117140956223011">
        <ele>66.04</ele>
        <time>2025-02-17T19:06:23.085Z</time>
      </trkpt>
      <trkpt lat="59.24524795264006" lon="14.117248998954892">
        <ele>66.18</ele>
        <time>2025-02-17T19:07:19.683Z</time>
      </trkpt>
      <trkpt lat="59.245285922661424" lon="14.11735494621098">
        <ele>66.32</ele>
        <time>2025-02-17T19:08:16.282Z</time>
      </trkpt>
      <trkpt lat="59.245325988158584" lon="14.117456953972578">
        <ele>66.46</ele>
        <time>2025-02-17T19:09:12.882Z</time>
      </trkpt>
      <trkpt lat="59.245370998978615" lon="14.117551920935512">
        <ele>66.6</ele>
        <time>2025-02-17T19:10:09.483Z</time>
      </trkpt>
      <trkpt lat="59.245417937636375" lon="14.117645965889096">
        <ele>66.75</ele>
        <time>2025-02-17T19:11:06.085Z</time>
      </trkpt>
      <trkpt lat="59.24546697176993" lon="14.11773699335754">
        <ele>66.89</ele>
        <time>2025-02-17T19:12:02.688Z</time>
      </trkpt>
      <trkpt lat="59.24551793374121" lon="14.11782793700695">
        <ele>67.03</ele>
        <time>2025-02-17T19:12:59.293Z</time>
      </trkpt>
      <trkpt lat="59.24556998535991" lon="14.117921981960535">
        <ele>67.17</ele>
        <time>2025-02-17T19:13:55.899Z</time>
      </trkpt>
      <trkpt lat="59.24562396481633" lon="14.118008986115456">
        <ele>67.31</ele>
        <time>2025-02-17T19:14:52.506Z</time>
      </trkpt>
      <trkpt lat="59.24568196758628" lon="14.118093978613615">
        <ele>67.46</ele>
        <time>2025-02-17T19:15:49.114Z</time>
      </trkpt>
      <trkpt lat="59.24574198201299" lon="14.118173941969872">
        <ele>67.6</ele>
        <time>2025-02-17T19:16:45.723Z</time>
      </trkpt>
      <trkpt lat="59.245803924277425" lon="14.118247954174876">
        <ele>67.73</ele>
        <time>2025-02-17T19:17:42.333Z</time>
      </trkpt>
      <trkpt lat="59.245867962017655" lon="14.1183209605515">
        <ele>67.87</ele>
        <time>2025-02-17T19:18:38.944Z</time>
      </trkpt>
      <trkpt lat="59.245933927595615" lon="14.118391955271363">
        <ele>68.0</ele>
        <time>2025-02-17T19:19:35.557Z</time>
      </trkpt>
      <trkpt lat="59.24600198864937" lon="14.118458926677704">
        <ele>68.13</ele>
        <time>2025-02-17T19:20:32.171Z</time>
      </trkpt>
      <trkpt lat="59.24607398919761" lon="14.118528999388218">
        <ele>68.26</ele>
        <time>2025-02-17T19:21:28.786Z</time>
      </trkpt>
      <trkpt lat="59.246145989745855" lon="14.118591947481036">
        <ele>68.39</ele>
        <time>2025-02-17T19:22:25.402Z</time>
      </trkpt>
      <trkpt lat="59.24621991813183" lon="14.118650956079364">
        <ele>68.52</ele>
        <time>2025-02-17T19:23:22.020Z</time>
      </trkpt>
      <trkpt lat="59.246294936165214" lon="14.118710970506072">
        <ele>68.65</ele>
        <time>2025-02-17T19:24:18.639Z</time>
      </trkpt>
      <trkpt lat="59.24637096002698" lon="14.11877098493278">
        <ele>68.78</ele>
        <time>2025-02-17T19:25:15.259Z</time>
      </trkpt>
      <trkpt lat="59.24644899554551" lon="14.118832927197218">
        <ele>68.92</ele>
        <time>2025-02-17T19:26:11.881Z</time>
      </trkpt>
      <trkpt lat="59.24652795307338" lon="14.118893947452307">
        <ele>69.06</ele>
        <time>2025-02-17T19:27:08.504Z</time>
      </trkpt>
      <trkpt lat="59.24660791642964" lon="14.118954967707396">
        <ele>69.2</ele>
        <time>2025-02-17T19:28:05.128Z</time>
      </trkpt>
      <trkpt lat="59.24668796360493" lon="14.119018921628594">
        <ele>69.35</ele>
        <time>2025-02-17T19:29:01.754Z</time>
      </trkpt>
      <trkpt lat="59.246768932789564" lon="14.119080947712064">
        <ele>69.51</ele>
        <time>2025-02-17T19:29:58.381Z</time>
      </trkpt>
      <trkpt lat="59.24684897996485" lon="14.119140962138772">
        <ele>69.66</ele>
        <time>2025-02-17T19:30:55.010Z</time>
      </trkpt>
      <trkpt lat="59.24692693166435" lon="14.1191999707371">
        <ele>69.82</ele>
        <time>2025-02-17T19:31:51.640Z</time>
      </trkpt>
      <trkpt lat="59.24700295552611" lon="14.119259985163808">
        <ele>69.98</ele>
        <time>2025-02-17T19:32:48.271Z</time>
      </trkpt>
      <trkpt lat="59.24707897938788" lon="14.119318993762136">
        <ele>70.14</ele>
        <time>2025-02-17T19:33:44.904Z</time>
      </trkpt>
      <trkpt lat="59.24715491943061" lon="14.119378924369812">
        <ele>70.3</ele>
        <time>2025-02-17T19:34:41.538Z</time>
      </trkpt>
      <trkpt lat="59.247229937464" lon="14.11943893879652">
        <ele>70.46</ele>
        <time>2025-02-17T19:35:38.173Z</time>
      </trkpt>
      <trkpt lat="59.247305961325765" lon="14.119496941566467">
        <ele>70.63</ele>
        <time>2025-02-17T19:36:34.810Z</time>
      </trkpt>
      <trkpt lat="59.24738198518753" lon="14.119555950164795">
        <ele>70.79</ele>
        <time>2025-02-17T19:37:31.448Z</time>
      </trkpt>
      <trkpt lat="59.247456919401884" lon="14.119614958763123">
        <ele>70.95</ele>
        <time>2025-02-17T19:38:28.087Z</time>
      </trkpt>
      <trkpt lat="59.24753294326365" lon="14.11967296153307">
        <ele>71.12</ele>
        <time>2025-02-17T19:39:24.727Z</time>
      </trkpt>
      <trkpt lat="59.247607961297035" lon="14.119729958474636">
        <ele>71.28</ele>
        <time>2025-02-17T19:40:21.369Z</time>
      </trkpt>
      <trkpt lat="59.24768297933042" lon="14.119785949587822">
        <ele>71.45</ele>
        <time>2025-02-17T19:41:18.012Z</time>
      </trkpt>
      <trkpt lat="59.247756991535425" lon="14.119843952357769">
        <ele>71.62</ele>
        <time>2025-02-17T19:42:14.656Z</time>
      </trkpt>
      <trkpt lat="59.24782999791205" lon="14.119902960956097">
        <ele>71.79</ele>
        <time>2025-02-17T19:43:11.302Z</time>
      </trkpt>
      <trkpt lat="59.24790292046964" lon="14.119958952069283">
        <ele>71.96</ele>
        <time>2025-02-17T19:44:07.949Z</time>
      </trkpt>
      <trkpt lat="59.24797894433141" lon="14.12001695483923">
        <ele>72.13</ele>
        <time>2025-02-17T19:45:04.597Z</time>
      </trkpt>
      <trkpt lat="59.24805396236479" lon="14.120076969265938">
        <ele>72.3</ele>
        <time>2025-02-17T19:46:01.246Z</time>
      </trkpt>
      <trkpt lat="59.2481279745698" lon="14.120134972035885">
        <ele>72.48</ele>
        <time>2025-02-17T19:46:57.897Z</time>
      </trkpt>
      <trkpt lat="59.24820098094642" lon="14.120193980634212">
        <ele>72.65</ele>
        <time>2025-02-17T19:47:54.549Z</time>
      </trkpt>
      <trkpt lat="59.248274993151426" lon="14.12025399506092">
        <ele>72.83</ele>
        <time>2025-02-17T19:48:51.202Z</time>
      </trkpt>
      <trkpt lat="59.24834699369967" lon="14.120312919840217">
        <ele>73.01</ele>
        <time>2025-02-17T19:49:47.857Z</time>
      </trkpt>
      <trkpt lat="59.24841991625726" lon="14.120369916781783">
        <ele>73.19</ele>
        <time>2025-02-17T19:50:44.513Z</time>
      </trkpt>
      <trkpt lat="59.248492922633886" lon="14.12042498588562">
        <ele>73.37</ele>
        <time>2025-02-17T19:51:41.170Z</time>
      </trkpt>
      <trkpt lat="59.24856391735375" lon="14.120481982827187">
        <ele>73.55</ele>
        <time>2025-02-17T19:52:37.828Z</time>
      </trkpt>
      <trkpt lat="59.248634995892644" lon="14.120540991425514">
        <ele>73.74</ele>
        <time>2025-02-17T19:53:34.487Z</time>
      </trkpt>
      <trkpt lat="59.24870599061251" lon="14.12059798836708">
        <ele>73.92</ele>
        <time>2025-02-17T19:54:31.148Z</time>
      </trkpt>
      <trkpt lat="59.24877698533237" lon="14.120652973651886">
        <ele>74.11</ele>
        <time>2025-02-17T19:55:27.810Z</time>
      </trkpt>
      <trkpt lat="59.24884798005223" lon="14.120707958936691">
        <ele>74.29</ele>
        <time>2025-02-17T19:56:24.473Z</time>
      </trkpt>
      <trkpt lat="59.248915957286954" lon="14.120760932564735">
        <ele>74.47</ele>
        <time>2025-02-17T19:57:21.137Z</time>
      </trkpt>
      <trkpt lat="59.248981922864914" lon="14.12081298418343">
        <ele>74.65</ele>
        <time>2025-02-17T19:58:17.802Z</time>
      </trkpt>
      <trkpt lat="59.249046966433525" lon="14.120863946154714">
        <ele>74.83</ele>
        <time>2025-02-17T19:59:14.469Z</time>
      </trkpt>
      <trkpt lat="59.249109998345375" lon="14.120913986116648">
        <ele>75.01</ele>
        <time>2025-02-17T20:00:11.137Z</time>
      </trkpt>
      <trkpt lat="59.249173952266574" lon="14.12096293643117">
        <ele>75.19</ele>
        <time>2025-02-17T20:01:07.806Z</time>
      </trkpt>
      <trkpt lat="59.24923597835004" lon="14.121011970564723">
        <ele>75.37</ele>
        <time>2025-02-17T20:02:04.476Z</time>
      </trkpt>
      <trkpt lat="59.24929792061448" lon="14.121060920879245">
        <ele>75.55</ele>
        <time>2025-02-17T20:03:01.147Z</time>
      </trkpt>
      <trkpt lat="59.24935793504119" lon="14.121109955012798">
        <ele>75.73</ele>
        <time>2025-02-17T20:03:57.819Z</time>
      </trkpt>
      <trkpt lat="59.2494179494679" lon="14.121159994974732">
        <ele>75.91</ele>
        <time>2025-02-17T20:04:54.492Z</time>
      </trkpt>
      <trkpt lat="59.249477963894606" lon="14.121206933632493">
        <ele>76.09</ele>
        <time>2025-02-17T20:05:51.166Z</time>
      </trkpt>
      <trkpt lat="59.249537978321314" lon="14.121252950280905">
        <ele>76.27</ele>
        <time>2025-02-17T20:06:47.841Z</time>
      </trkpt>
      <trkpt lat="59.24959698691964" lon="14.121300978586078">
        <ele>76.45</ele>
        <time>2025-02-17T20:07:44.517Z</time>
      </trkpt>
      <trkpt lat="59.24966094084084" lon="14.12134699523449">
        <ele>76.64</ele>
        <time>2025-02-17T20:08:41.194Z</time>
      </trkpt>
      <trkpt lat="59.24972196109593" lon="14.121391922235489">
        <ele>76.82</ele>
        <time>2025-02-17T20:09:37.872Z</time>
      </trkpt>
      <trkpt lat="59.24978096969426" lon="14.12143592722714">
        <ele>77.01</ele>
        <time>2025-02-17T20:10:34.551Z</time>
      </trkpt>
      <trkpt lat="59.249839978292584" lon="14.12147993221879">
        <ele>77.19</ele>
        <time>2025-02-17T20:11:31.231Z</time>
      </trkpt>
      <trkpt lat="59.24989898689091" lon="14.121524943038821">
        <ele>77.37</ele>
        <time>2025-02-17T20:12:27.912Z</time>
      </trkpt>
      <trkpt lat="59.24995891749859" lon="14.121570959687233">
        <ele>77.56</ele>
        <time>2025-02-17T20:13:24.594Z</time>
      </trkpt>
      <trkpt lat="59.2500189319253" lon="14.121616976335645">
        <ele>77.75</ele>
        <time>2025-02-17T20:14:21.277Z</time>
      </trkpt>
      <trkpt lat="59.250077940523624" lon="14.121662992984056">
        <ele>77.93</ele>
        <time>2025-02-17T20:15:17.961Z</time>
      </trkpt>
      <trkpt lat="59.25013795495033" lon="14.121708925813437">
        <ele>78.12</ele>
        <time>2025-02-17T20:16:14.646Z</time>
      </trkpt>
      <trkpt lat="59.25019696354866" lon="14.121754942461848">
        <ele>78.3</ele>
        <time>2025-02-17T20:17:11.332Z</time>
      </trkpt>
      <trkpt lat="59.25025798380375" lon="14.12180095911026">
        <ele>78.48</ele>
        <time>2025-02-17T20:18:08.020Z</time>
      </trkpt>
      <trkpt lat="59.25031992606819" lon="14.121846975758672">
        <ele>78.66</ele>
        <time>2025-02-17T20:19:04.709Z</time>
      </trkpt>
      <trkpt lat="59.25038698129356" lon="14.121892992407084">
        <ele>78.84</ele>
        <time>2025-02-17T20:20:01.399Z</time>
      </trkpt>
      <trkpt lat="59.25045093521476" lon="14.121944960206747">
        <ele>79.02</ele>
        <time>2025-02-17T20:20:58.090Z</time>
      </trkpt>
      <trkpt lat="59.25051899626851" lon="14.121998939663172">
        <ele>79.2</ele>
        <time>2025-02-17T20:21:54.782Z</time>
      </trkpt>
      <trkpt lat="59.25058697350323" lon="14.122050991281867">
        <ele>79.38</ele>
        <time>2025-02-17T20:22:51.475Z</time>
      </trkpt>
      <trkpt lat="59.25065193325281" lon="14.12210094742477">
        <ele>79.56</ele>
        <time>2025-02-17T20:23:48.169Z</time>
      </trkpt>
      <trkpt lat="59.250719994306564" lon="14.122149981558323">
        <ele>79.74</ele>
        <time>2025-02-17T20:24:44.864Z</time>
      </trkpt>
      <trkpt lat="59.25078394822776" lon="14.122197926044464">
        <ele>79.91</ele>
        <time>2025-02-17T20:25:41.561Z</time>
      </trkpt>
      <trkpt lat="59.250848991796374" lon="14.12224997766316">
        <ele>80.08</ele>
        <time>2025-02-17T20:26:38.259Z</time>
      </trkpt>
      <trkpt lat="59.250914957374334" lon="14.122303957119584">
        <ele>80.25</ele>
        <time>2025-02-17T20:27:34.958Z</time>
      </trkpt>
      <trkpt lat="59.250982934609056" lon="14.122355924919248">
        <ele>80.42</ele>
        <time>2025-02-17T20:28:31.658Z</time>
      </trkpt>
      <trkpt lat="59.25105191767216" lon="14.122407976537943">
        <ele>80.59</ele>
        <time>2025-02-17T20:29:28.359Z</time>
      </trkpt>
      <trkpt lat="59.25112098455429" lon="14.122459944337606">
        <ele>80.75</ele>
        <time>2025-02-17T20:30:25.061Z</time>
      </trkpt>
      <trkpt lat="59.25118996761739" lon="14.12251291796565">
        <ele>80.91</ele>
        <time>2025-02-17T20:31:21.765Z</time>
      </trkpt>
      <trkpt lat="59.251259956508875" lon="14.122566981241107">
        <ele>81.07</ele>
        <time>2025-02-17T20:32:18.470Z</time>
      </trkpt>
      <trkpt lat="59.25133095122874" lon="14.122620960697532">
        <ele>81.23</ele>
        <time>2025-02-17T20:33:15.176Z</time>
      </trkpt>
      <trkpt lat="59.25139993429184" lon="14.122674940153956">
        <ele>81.39</ele>
        <time>2025-02-17T20:34:11.883Z</time>
      </trkpt>
      <trkpt lat="59.25146891735494" lon="14.122728919610381">
        <ele>81.55</ele>
        <time>2025-02-17T20:35:08.591Z</time>
      </trkpt>
      <trkpt lat="59.251536978408694" lon="14.122782982885838">
        <ele>81.7</ele>
        <time>2025-02-17T20:36:05.301Z</time>
      </trkpt>
      <trkpt lat="59.251605961471796" lon="14.122836962342262">
        <ele>81.85</ele>
        <time>2025-02-17T20:37:02.012Z</time>
      </trkpt>
      <trkpt lat="59.25167595036328" lon="14.122889935970306">
        <ele>82.0</ele>
        <time>2025-02-17T20:37:58.724Z</time>
      </trkpt>
      <trkpt lat="59.25174493342638" lon="14.122942993417382">
        <ele>82.16</ele>
        <time>2025-02-17T20:38:55.437Z</time>
      </trkpt>
      <trkpt lat="59.25181299448013" lon="14.122996972873807">
        <ele>82.31</ele>
        <time>2025-02-17T20:39:52.151Z</time>
      </trkpt>
      <trkpt lat="59.251879965886474" lon="14.123050952330232">
        <ele>82.46</ele>
        <time>2025-02-17T20:40:48.866Z</time>
      </trkpt>
      <trkpt lat="59.251946937292814" lon="14.123103925958276">
        <ele>82.6</ele>
        <time>2025-02-17T20:41:45.583Z</time>
      </trkpt>
      <trkpt lat="59.252012986689806" lon="14.123157989233732">
        <ele>82.75</ele>
        <time>2025-02-17T20:42:42.301Z</time>
      </trkpt>
      <trkpt lat="59.25207995809615" lon="14.123212974518538">
        <ele>82.9</ele>
        <time>2025-02-17T20:43:39.020Z</time>
      </trkpt>
      <trkpt lat="59.25214793533087" lon="14.123266953974962">
        <ele>83.04</ele>
        <time>2025-02-17T20:44:35.740Z</time>
      </trkpt>
      <trkpt lat="59.25221792422235" lon="14.123319927603006">
        <ele>83.17</ele>
        <time>2025-02-17T20:45:32.461Z</time>
      </trkpt>
      <trkpt lat="59.252287996932864" lon="14.123371979221702">
        <ele>83.31</ele>
        <time>2025-02-17T20:46:29.184Z</time>
      </trkpt>
      <trkpt lat="59.25235899165273" lon="14.123424952849746">
        <ele>83.44</ele>
        <time>2025-02-17T20:47:25.908Z</time>
      </trkpt>
      <trkpt lat="59.25242998637259" lon="14.12347792647779">
        <ele>83.57</ele>
        <time>2025-02-17T20:48:22.633Z</time>
      </trkpt>
      <trkpt lat="59.25249997526407" lon="14.123529978096485">
        <ele>83.7</ele>
        <time>2025-02-17T20:49:19.359Z</time>
      </trkpt>
      <trkpt lat="59.252567952498794" lon="14.123579934239388">
        <ele>83.83</ele>
        <time>2025-02-17T20:50:16.086Z</time>
      </trkpt>
      <trkpt lat="59.252634923905134" lon="14.12362796254456">
        <ele>83.96</ele>
        <time>2025-02-17T20:51:12.814Z</time>
      </trkpt>
      <trkpt lat="59.25270197913051" lon="14.123675990849733">
        <ele>84.09</ele>
        <time>2025-02-17T20:52:09.544Z</time>
      </trkpt>
      <trkpt lat="59.25277096219361" lon="14.123723935335875">
        <ele>84.23</ele>
        <time>2025-02-17T20:53:06.275Z</time>
      </trkpt>
      <trkpt lat="59.25283994525671" lon="14.123769951984286">
        <ele>84.36</ele>
        <time>2025-02-17T20:54:03.007Z</time>
      </trkpt>
      <trkpt lat="59.25290892831981" lon="14.123814962804317">
        <ele>84.49</ele>
        <time>2025-02-17T20:54:59.740Z</time>
      </trkpt>
      <trkpt lat="59.252979923039675" lon="14.123854944482446">
        <ele>84.62</ele>
        <time>2025-02-17T20:55:56.474Z</time>
      </trkpt>
      <trkpt lat="59.25304999575019" lon="14.123893920332193">
        <ele>84.75</ele>
        <time>2025-02-17T20:56:53.210Z</time>
      </trkpt>
      <trkpt lat="59.25311998464167" lon="14.123934991657734">
        <ele>84.88</ele>
        <time>2025-02-17T20:57:49.947Z</time>
      </trkpt>
      <trkpt lat="59.253190979361534" lon="14.123975979164243">
        <ele>85.01</ele>
        <time>2025-02-17T20:58:46.685Z</time>
      </trkpt>
      <trkpt lat="59.2532619740814" lon="14.12401394918561">
        <ele>85.14</ele>
        <time>2025-02-17T20:59:43.424Z</time>
      </trkpt>
      <trkpt lat="59.25333296880126" lon="14.124049991369247">
        <ele>85.27</ele>
        <time>2025-02-17T21:00:40.164Z</time>
      </trkpt>
      <trkpt lat="59.25340396352112" lon="14.124082932248712">
        <ele>85.4</ele>
        <time>2025-02-17T21:01:36.905Z</time>
      </trkpt>
      <trkpt lat="59.25347898155451" lon="14.124108999967575">
        <ele>85.52</ele>
        <time>2025-02-17T21:02:33.648Z</time>
      </trkpt>
      <trkpt lat="59.25355098210275" lon="14.124134983867407">
        <ele>85.65</ele>
        <time>2025-02-17T21:03:30.392Z</time>
      </trkpt>
      <trkpt lat="59.253623988479376" lon="14.124158956110477">
        <ele>85.76</ele>
        <time>2025-02-17T21:04:27.137Z</time>
      </trkpt>
      <trkpt lat="59.25369791686535" lon="14.124183934181929">
        <ele>85.88</ele>
        <time>2025-02-17T21:05:23.883Z</time>
      </trkpt>
      <trkpt lat="59.25377092324197" lon="14.124210923910141">
        <ele>85.99</ele>
        <time>2025-02-17T21:06:20.630Z</time>
      </trkpt>
      <trkpt lat="59.253842923790216" lon="14.124235985800624">
        <ele>86.1</ele>
        <time>2025-02-17T21:07:17.379Z</time>
      </trkpt>
      <trkpt lat="59.25391391851008" lon="14.124257946386933">
        <ele>86.21</ele>
        <time>2025-02-17T21:08:14.129Z</time>
      </trkpt>
      <trkpt lat="59.253984997048974" lon="14.124274961650372">
        <ele>86.32</ele>
        <time>2025-02-17T21:09:10.880Z</time>
      </trkpt>
      <trkpt lat="59.254053980112076" lon="14.12429197691381">
        <ele>86.42</ele>
        <time>2025-02-17T21:10:07.632Z</time>
      </trkpt>
      <trkpt lat="59.254120951518416" lon="14.124307986348867">
        <ele>86.53</ele>
        <time>2025-02-17T21:11:04.385Z</time>
      </trkpt>
      <trkpt lat="59.25418599508703" lon="14.124326929450035">
        <ele>86.63</ele>
        <time>2025-02-17T21:12:01.139Z</time>
      </trkpt>
      <trkpt lat="59.25425095483661" lon="14.124349979683757">
        <ele>86.74</ele>
        <time>2025-02-17T21:12:57.894Z</time>
      </trkpt>
      <trkpt lat="59.25431792624295" lon="14.124372946098447">
        <ele>86.85</ele>
        <time>2025-02-17T21:13:54.650Z</time>
      </trkpt>
      <trkpt lat="59.2543809581548" lon="14.124395996332169">
        <ele>86.95</ele>
        <time>2025-02-17T21:14:51.407Z</time>
      </trkpt>
      <trkpt lat="59.25444792956114" lon="14.124421980232">
        <ele>87.05</ele>
        <time>2025-02-17T21:15:48.165Z</time>
      </trkpt>
      <trkpt lat="59.25451397895813" lon="14.124448969960213">
        <ele>87.16</ele>
        <time>2025-02-17T21:16:44.924Z</time>
      </trkpt>
      <trkpt lat="59.25457893870771" lon="14.124476965516806">
        <ele>87.26</ele>
        <time>2025-02-17T21:17:41.685Z</time>
      </trkpt>
      <trkpt lat="59.25464297644794" lon="14.12450697273016">
        <ele>87.36</ele>
        <time>2025-02-17T21:18:38.447Z</time>
      </trkpt>
      <trkpt lat="59.25470491871238" lon="14.124539997428656">
        <ele>87.45</ele>
        <time>2025-02-17T21:19:35.210Z</time>
      </trkpt>
      <trkpt lat="59.254765938967466" lon="14.124570926651359">
        <ele>87.55</ele>
        <time>2025-02-17T21:20:31.974Z</time>
      </trkpt>
      <trkpt lat="59.25482293590903" lon="14.124604957178235">
        <ele>87.64</ele>
        <time>2025-02-17T21:21:28.739Z</time>
      </trkpt>
      <trkpt lat="59.2548799328506" lon="14.124633958563209">
        <ele>87.74</ele>
        <time>2025-02-17T21:22:25.505Z</time>
      </trkpt>
      <trkpt lat="59.254933996126056" lon="14.124663965776563">
        <ele>87.83</ele>
        <time>2025-02-17T21:23:22.271Z</time>
      </trkpt>
      <trkpt lat="59.25498596392572" lon="14.124696990475059">
        <ele>87.92</ele>
        <time>2025-02-17T21:24:19.038Z</time>
      </trkpt>
      <trkpt lat="59.25503592006862" lon="14.124733954668045">
        <ele>88.01</ele>
        <time>2025-02-17T21:25:15.806Z</time>
      </trkpt>
      <trkpt lat="59.255086965858936" lon="14.124773936346173">
        <ele>88.09</ele>
        <time>2025-02-17T21:26:12.575Z</time>
      </trkpt>
      <trkpt lat="59.25513692200184" lon="14.124817941337824">
        <ele>88.18</ele>
        <time>2025-02-17T21:27:09.345Z</time>
      </trkpt>
      <trkpt lat="59.255191991105676" lon="14.124860940501094">
        <ele>88.26</ele>
        <time>2025-02-17T21:28:06.116Z</time>
      </trkpt>
      <trkpt lat="59.25524798221886" lon="14.124904945492744">
        <ele>88.35</ele>
        <time>2025-02-17T21:29:02.888Z</time>
      </trkpt>
      <trkpt lat="59.25530699081719" lon="14.12495599128306">
        <ele>88.43</ele>
        <time>2025-02-17T21:29:59.661Z</time>
      </trkpt>
      <trkpt lat="59.25537195056677" lon="14.125011982396245">
        <ele>88.5</ele>
        <time>2025-02-17T21:30:56.435Z</time>
      </trkpt>
      <trkpt lat="59.25543992780149" lon="14.125073924660683">
        <ele>88.58</ele>
        <time>2025-02-17T21:31:53.210Z</time>
      </trkpt>
      <trkpt lat="59.25550991669297" lon="14.125143997371197">
        <ele>88.66</ele>
        <time>2025-02-17T21:32:49.986Z</time>
      </trkpt>
      <trkpt lat="59.255581917241216" lon="14.12521893158555">
        <ele>88.73</ele>
        <time>2025-02-17T21:33:46.764Z</time>
      </trkpt>
      <trkpt lat="59.2556569352746" lon="14.125297972932458">
        <ele>88.8</ele>
        <time>2025-02-17T21:34:43.543Z</time>
      </trkpt>
      <trkpt lat="59.255730947479606" lon="14.125383971258998">
        <ele>88.87</ele>
        <time>2025-02-17T21:35:40.324Z</time>
      </trkpt>
      <trkpt lat="59.25580495968461" lon="14.12547298707068">
        <ele>88.94</ele>
        <time>2025-02-17T21:36:37.106Z</time>
      </trkpt>
      <trkpt lat="59.255878971889615" lon="14.125565942376852">
        <ele>89.0</ele>
        <time>2025-02-17T21:37:33.889Z</time>
      </trkpt>
      <trkpt lat="59.25595298409462" lon="14.125660993158817">
        <ele>89.07</ele>
        <time>2025-02-17T21:38:30.674Z</time>
      </trkpt>
      <trkpt lat="59.256028924137354" lon="14.125749925151467">
        <ele>89.13</ele>
        <time>2025-02-17T21:39:27.460Z</time>
      </trkpt>
      <trkpt lat="59.25610293634236" lon="14.12584095261991">
        <ele>89.18</ele>
        <time>2025-02-17T21:40:24.248Z</time>
      </trkpt>
      <trkpt lat="59.25617594271898" lon="14.125931980088353">
        <ele>89.24</ele>
        <time>2025-02-17T21:41:21.037Z</time>
      </trkpt>
      <trkpt lat="59.256247943267226" lon="14.126022923737764">
        <ele>89.29</ele>
        <time>2025-02-17T21:42:17.827Z</time>
      </trkpt>
      <trkpt lat="59.25631793215871" lon="14.126112945377827">
        <ele>89.34</ele>
        <time>2025-02-17T21:43:14.619Z</time>
      </trkpt>
      <trkpt lat="59.25638699904084" lon="14.126202967017889">
        <ele>89.38</ele>
        <time>2025-02-17T21:44:11.412Z</time>
      </trkpt>
      <trkpt lat="59.25645497627556" lon="14.12628997117281">
        <ele>89.42</ele>
        <time>2025-02-17T21:45:08.206Z</time>
      </trkpt>
      <trkpt lat="59.256522953510284" lon="14.12637798115611">
        <ele>89.46</ele>
        <time>2025-02-17T21:46:05.002Z</time>
      </trkpt>
      <trkpt lat="59.256590930745006" lon="14.126465991139412">
        <ele>89.49</ele>
        <time>2025-02-17T21:47:01.799Z</time>
      </trkpt>
      <trkpt lat="59.256656980142" lon="14.126552995294333">
        <ele>89.53</ele>
        <time>2025-02-17T21:47:58.597Z</time>
      </trkpt>
      <trkpt lat="59.25672294571996" lon="14.126637987792492">
        <ele>89.56</ele>
        <time>2025-02-17T21:48:55.396Z</time>
      </trkpt>
      <trkpt lat="59.25678899511695" lon="14.12672096863389">
        <ele>89.59</ele>
        <time>2025-02-17T21:49:52.197Z</time>
      </trkpt>
      <trkpt lat="59.25685294903815" lon="14.126802943646908">
        <ele>89.62</ele>
        <time>2025-02-17T21:50:48.999Z</time>
      </trkpt>
      <trkpt lat="59.25691598095" lon="14.126882990822196">
        <ele>89.64</ele>
        <time>2025-02-17T21:51:45.802Z</time>
      </trkpt>
      <trkpt lat="59.256976917386055" lon="14.12695993669331">
        <ele>89.67</ele>
        <time>2025-02-17T21:52:42.606Z</time>
      </trkpt>
      <trkpt lat="59.25703399814665" lon="14.127038978040218">
        <ele>89.7</ele>
        <time>2025-02-17T21:53:39.411Z</time>
      </trkpt>
      <trkpt lat="59.25709099508822" lon="14.127114918082952">
        <ele>89.72</ele>
        <time>2025-02-17T21:54:36.218Z</time>
      </trkpt>
      <trkpt lat="59.257146986201406" lon="14.127189936116338">
        <ele>89.73</ele>
        <time>2025-02-17T21:55:33.026Z</time>
      </trkpt>
      <trkpt lat="59.25720197148621" lon="14.127264954149723">
        <ele>89.74</ele>
        <time>2025-02-17T21:56:29.835Z</time>
      </trkpt>
      <trkpt lat="59.2572579625994" lon="14.127336954697967">
        <ele>89.75</ele>
        <time>2025-02-17T21:57:26.645Z</time>
      </trkpt>
      <trkpt lat="59.25731495954096" lon="14.127405937761068">
        <ele>89.76</ele>
        <time>2025-02-17T21:58:23.456Z</time>
      </trkpt>
      <trkpt lat="59.25736994482577" lon="14.127476932480931">
        <ele>89.76</ele>
        <time>2025-02-17T21:59:20.268Z</time>
      </trkpt>
      <trkpt lat="59.257424930110574" lon="14.127548933029175">
        <ele>89.76</ele>
        <time>2025-02-17T22:00:17.081Z</time>
      </trkpt>
      <trkpt lat="59.25747999921441" lon="14.127618921920657">
        <ele>89.75</ele>
        <time>2025-02-17T22:01:13.895Z</time>
      </trkpt>
      <trkpt lat="59.257533978670835" lon="14.12768991664052">
        <ele>89.74</ele>
        <time>2025-02-17T22:02:10.710Z</time>
      </trkpt>
      <trkpt lat="59.25758896395564" lon="14.127763928845525">
        <ele>89.72</ele>
        <time>2025-02-17T22:03:07.526Z</time>
      </trkpt>
      <trkpt lat="59.257642943412066" lon="14.12783794105053">
        <ele>89.71</ele>
        <time>2025-02-17T22:04:04.343Z</time>
      </trkpt>
      <trkpt lat="59.25769792869687" lon="14.127911953255534">
        <ele>89.68</ele>
        <time>2025-02-17T22:05:01.161Z</time>
      </trkpt>
      <trkpt lat="59.25775391981006" lon="14.127985965460539">
        <ele>89.66</ele>
        <time>2025-02-17T22:05:57.980Z</time>
      </trkpt>
      <trkpt lat="59.25781091675162" lon="14.128062995150685">
        <ele>89.62</ele>
        <time>2025-02-17T22:06:54.801Z</time>
      </trkpt>
      <trkpt lat="59.25786799751222" lon="14.128143964335322">
        <ele>89.59</ele>
        <time>2025-02-17T22:07:51.623Z</time>
      </trkpt>
      <trkpt lat="59.25792591646314" lon="14.12822694517672">
        <ele>89.55</ele>
        <time>2025-02-17T22:08:48.446Z</time>
      </trkpt>
      <trkpt lat="59.257986936718225" lon="14.12830799818039">
        <ele>89.51</ele>
        <time>2025-02-17T22:09:45.270Z</time>
      </trkpt>
      <trkpt lat="59.258049968630075" lon="14.128387961536646">
        <ele>89.46</ele>
        <time>2025-02-17T22:10:42.095Z</time>
      </trkpt>
      <trkpt lat="59.258113922551274" lon="14.128470942378044">
        <ele>89.41</ele>
        <time>2025-02-17T22:11:38.921Z</time>
      </trkpt>
      <trkpt lat="59.258179971948266" lon="14.128555934876204">
        <ele>89.35</ele>
        <time>2025-02-17T22:12:35.749Z</time>
      </trkpt>
      <trkpt lat="59.25824694335461" lon="14.128640927374363">
        <ele>89.3</ele>
        <time>2025-02-17T22:13:32.578Z</time>
      </trkpt>
      <trkpt lat="59.25831399857998" lon="14.128729943186045">
        <ele>89.24</ele>
        <time>2025-02-17T22:14:29.408Z</time>
      </trkpt>
      <trkpt lat="59.2583819758147" lon="14.12882398813963">
        <ele>89.18</ele>
        <time>2025-02-17T22:15:26.240Z</time>
      </trkpt>
      <trkpt lat="59.258454982191324" lon="14.128919960930943">
        <ele>89.11</ele>
        <time>2025-02-17T22:16:23.073Z</time>
      </trkpt>
      <trkpt lat="59.25853092223406" lon="14.12901995703578">
        <ele>89.04</ele>
        <time>2025-02-17T22:17:19.907Z</time>
      </trkpt>
      <trkpt lat="59.25860493443906" lon="14.129117941483855">
        <ele>88.97</ele>
        <time>2025-02-17T22:18:16.743Z</time>
      </trkpt>
      <trkpt lat="59.25867693498731" lon="14.12921592593193">
        <ele>88.9</ele>
        <time>2025-02-17T22:19:13.580Z</time>
      </trkpt>
      <trkpt lat="59.25874399021268" lon="14.129323968663812">
        <ele>88.82</ele>
        <time>2025-02-17T22:20:10.419Z</time>
      </trkpt>
      <trkpt lat="59.25881297327578" lon="14.12942798808217">
        <ele>88.74</ele>
        <time>2025-02-17T22:21:07.259Z</time>
      </trkpt>
      <trkpt lat="59.25887994468212" lon="14.129521949216723">
        <ele>88.65</ele>
        <time>2025-02-17T22:22:04.100Z</time>
      </trkpt>
      <trkpt lat="59.258949933573604" lon="14.129618927836418">
        <ele>88.56</ele>
        <time>2025-02-17T22:23:00.943Z</time>
      </trkpt>
      <trkpt lat="59.25902495160699" lon="14.129713978618383">
        <ele>88.47</ele>
        <time>2025-02-17T22:23:57.787Z</time>
      </trkpt>
      <trkpt lat="59.25909695215523" lon="14.129809951409698">
        <ele>88.37</ele>
        <time>2025-02-17T22:24:54.633Z</time>
      </trkpt>
      <trkpt lat="59.259167946875095" lon="14.129906930029392">
        <ele>88.28</ele>
        <time>2025-02-17T22:25:51.480Z</time>
      </trkpt>
      <trkpt lat="59.25924095325172" lon="14.129997957497835">
        <ele>88.17</ele>
        <time>2025-02-17T22:26:48.328Z</time>
      </trkpt>
      <trkpt lat="59.25931194797158" lon="14.130085967481136">
        <ele>88.06</ele>
        <time>2025-02-17T22:27:45.178Z</time>
      </trkpt>
      <trkpt lat="59.259383948519826" lon="14.130174983292818">
        <ele>87.95</ele>
        <time>2025-02-17T22:28:42.029Z</time>
      </trkpt>
      <trkpt lat="59.25945594906807" lon="14.13026299327612">
        <ele>87.85</ele>
        <time>2025-02-17T22:29:38.882Z</time>
      </trkpt>
      <trkpt lat="59.25952694378793" lon="14.13035293109715">
        <ele>87.74</ele>
        <time>2025-02-17T22:30:35.736Z</time>
      </trkpt>
      <trkpt lat="59.259598944336176" lon="14.130441946908832">
        <ele>87.63</ele>
        <time>2025-02-17T22:31:32.591Z</time>
      </trkpt>
      <trkpt lat="59.25967094488442" lon="14.130530962720513">
        <ele>87.51</ele>
        <time>2025-02-17T22:32:29.448Z</time>
      </trkpt>
      <trkpt lat="59.25974193960428" lon="14.130621990188956">
        <ele>87.39</ele>
        <time>2025-02-17T22:33:26.306Z</time>
      </trkpt>
      <trkpt lat="59.259811928495765" lon="14.130712933838367">
        <ele>87.27</ele>
        <time>2025-02-17T22:34:23.165Z</time>
      </trkpt>
      <trkpt lat="59.25988392904401" lon="14.13080396130681">
        <ele>87.14</ele>
        <time>2025-02-17T22:35:20.026Z</time>
      </trkpt>
      <trkpt lat="59.25995592959225" lon="14.130897922441363">
        <ele>87.02</ele>
        <time>2025-02-17T22:36:16.888Z</time>
      </trkpt>
      <trkpt lat="59.26002994179726" lon="14.130992973223329">
        <ele>86.89</ele>
        <time>2025-02-17T22:37:13.752Z</time>
      </trkpt>
      <trkpt lat="59.2601069714874" lon="14.131091963499784">
        <ele>86.76</ele>
        <time>2025-02-17T22:38:10.617Z</time>
      </trkpt>
      <trkpt lat="59.2601849231869" lon="14.131193971261382">
        <ele>86.63</ele>
        <time>2025-02-17T22:39:07.483Z</time>
      </trkpt>
      <trkpt lat="59.26026597619057" lon="14.13129991851747">
        <ele>86.5</ele>
        <time>2025-02-17T22:40:04.351Z</time>
      </trkpt>
      <trkpt lat="59.260347951203585" lon="14.131408967077732">
        <ele>86.37</ele>
        <time>2025-02-17T22:41:01.221Z</time>
      </trkpt>
      <trkpt lat="59.26043193787336" lon="14.131516925990582">
        <ele>86.23</ele>
        <time>2025-02-17T22:41:58.092Z</time>
      </trkpt>
      <trkpt lat="59.26051491871476" lon="14.131622957065701">
        <ele>86.1</ele>
        <time>2025-02-17T22:42:54.965Z</time>
      </trkpt>
      <trkpt lat="59.26059798337519" lon="14.131728988140821">
        <ele>85.97</ele>
        <time>2025-02-17T22:43:51.839Z</time>
      </trkpt>
      <trkpt lat="59.26068096421659" lon="14.131837952882051">
        <ele>85.83</ele>
        <time>2025-02-17T22:44:48.715Z</time>
      </trkpt>
      <trkpt lat="59.26076394505799" lon="14.131947923451662">
        <ele>85.69</ele>
        <time>2025-02-17T22:45:45.593Z</time>
      </trkpt>
      <trkpt lat="59.260846925899386" lon="14.132057977840304">
        <ele>85.55</ele>
        <time>2025-02-17T22:46:42.472Z</time>
      </trkpt>
      <trkpt lat="59.2609309963882" lon="14.132166942581534">
        <ele>85.41</ele>
        <time>2025-02-17T22:47:39.353Z</time>
      </trkpt>
      <trkpt lat="59.261014983057976" lon="14.132275991141796">
        <ele>85.27</ele>
        <time>2025-02-17T22:48:36.235Z</time>
      </trkpt>
      <trkpt lat="59.261098969727755" lon="14.132383950054646">
        <ele>85.13</ele>
        <time>2025-02-17T22:49:33.119Z</time>
      </trkpt>
      <trkpt lat="59.26118195056915" lon="14.132493920624256">
        <ele>84.99</ele>
        <time>2025-02-17T22:50:30.005Z</time>
      </trkpt>
      <trkpt lat="59.26126493141055" lon="14.132601963356137">
        <ele>84.85</ele>
        <time>2025-02-17T22:51:26.892Z</time>
      </trkpt>
      <trkpt lat="59.26134799607098" lon="14.132707994431257">
        <ele>84.7</ele>
        <time>2025-02-17T22:52:23.781Z</time>
      </trkpt>
      <trkpt lat="59.261429971084" lon="14.132815953344107">
        <ele>84.55</ele>
        <time>2025-02-17T22:53:20.671Z</time>
      </trkpt>
      <trkpt lat="59.2615129519254" lon="14.132922990247607">
        <ele>84.4</ele>
        <time>2025-02-17T22:54:17.563Z</time>
      </trkpt>
      <trkpt lat="59.261596938595176" lon="14.133033966645598">
        <ele>84.25</ele>
        <time>2025-02-17T22:55:14.457Z</time>
      </trkpt>
      <trkpt lat="59.261682936921716" lon="14.133143937215209">
        <ele>84.1</ele>
        <time>2025-02-17T22:56:11.352Z</time>
      </trkpt>
      <trkpt lat="59.2617719527334" lon="14.13325591944158">
        <ele>83.94</ele>
        <time>2025-02-17T22:57:08.249Z</time>
      </trkpt>
      <trkpt lat="59.26186398603022" lon="14.133369997143745">
        <ele>83.78</ele>
        <time>2025-02-17T22:58:05.148Z</time>
      </trkpt>
      <trkpt lat="59.261958952993155" lon="14.133487930521369">
        <ele>83.63</ele>
        <time>2025-02-17T22:59:02.049Z</time>
      </trkpt>
      <trkpt lat="59.26205794326961" lon="14.133608965203166">
        <ele>83.47</ele>
        <time>2025-02-17T22:59:58.951Z</time>
      </trkpt>
      <trkpt lat="59.26215894520283" lon="14.133730921894312">
        <ele>83.31</ele>
        <time>2025-02-17T23:00:55.855Z</time>
      </trkpt>
      <trkpt lat="59.262259947136045" lon="14.133851956576109">
        <ele>83.15</ele>
        <time>2025-02-17T23:01:52.761Z</time>
      </trkpt>
      <trkpt lat="59.262365978211164" lon="14.133966956287622">
        <ele>83.0</ele>
        <time>2025-02-17T23:02:49.669Z</time>
      </trkpt>
      <trkpt lat="59.26247091963887" lon="14.134076926857233">
        <ele>82.84</ele>
        <time>2025-02-17T23:03:46.579Z</time>
      </trkpt>
      <trkpt lat="59.26257795654237" lon="14.13417893461883">
        <ele>82.68</ele>
        <time>2025-02-17T23:04:43.491Z</time>
      </trkpt>
      <trkpt lat="59.26268398761749" lon="14.134273985400796">
        <ele>82.52</ele>
        <time>2025-02-17T23:05:40.405Z</time>
      </trkpt>
      <trkpt lat="59.26278993487358" lon="14.134361995384097">
        <ele>82.36</ele>
        <time>2025-02-17T23:06:37.321Z</time>
      </trkpt>
      <trkpt lat="59.26289395429194" lon="14.134444976225495">
        <ele>82.21</ele>
        <time>2025-02-17T23:07:34.239Z</time>
      </trkpt>
      <trkpt lat="59.26299696788192" lon="14.13452192209661">
        <ele>82.06</ele>
        <time>2025-02-17T23:08:31.158Z</time>
      </trkpt>
      <trkpt lat="59.263097969815135" lon="14.134591994807124">
        <ele>81.92</ele>
        <time>2025-02-17T23:09:28.079Z</time>
      </trkpt>
      <trkpt lat="59.26319997757673" lon="14.134654942899942">
        <ele>81.77</ele>
        <time>2025-02-17T23:10:25.002Z</time>
      </trkpt>
      <trkpt lat="59.26329997368157" lon="14.13471294566989">
        <ele>81.62</ele>
        <time>2025-02-17T23:11:21.926Z</time>
      </trkpt>
      <trkpt lat="59.263399969786406" lon="14.134765919297934">
        <ele>81.48</ele>
        <time>2025-02-17T23:12:18.852Z</time>
      </trkpt>
      <trkpt lat="59.26349896006286" lon="14.134813947603106">
        <ele>81.34</ele>
        <time>2025-02-17T23:13:15.780Z</time>
      </trkpt>
      <trkpt lat="59.26359694451094" lon="14.134854935109615">
        <ele>81.2</ele>
        <time>2025-02-17T23:14:12.709Z</time>
      </trkpt>
      <trkpt lat="59.26369593478739" lon="14.134890977293253">
        <ele>81.07</ele>
        <time>2025-02-17T23:15:09.640Z</time>
      </trkpt>
      <trkpt lat="59.26379391923547" lon="14.134924924001098">
        <ele>80.93</ele>
        <time>2025-02-17T23:16:06.573Z</time>
      </trkpt>
      <trkpt lat="59.263891987502575" lon="14.134953925386071">
        <ele>80.8</ele>
        <time>2025-02-17T23:17:03.507Z</time>
      </trkpt>
      <trkpt lat="59.26398896612227" lon="14.134976975619793">
        <ele>80.66</ele>
        <time>2025-02-17T23:18:00.443Z</time>
      </trkpt>
      <trkpt lat="59.264084938913584" lon="14.13499591872096">
        <ele>80.53</ele>
        <time>2025-02-17T23:18:57.380Z</time>
      </trkpt>
      <trkpt lat="59.26417898386717" lon="14.135010922327638">
        <ele>80.4</ele>
        <time>2025-02-17T23:19:54.319Z</time>
      </trkpt>
      <trkpt lat="59.26427294500172" lon="14.135021986439824">
        <ele>80.26</ele>
        <time>2025-02-17T23:20:51.259Z</time>
      </trkpt>
      <trkpt lat="59.264366989955306" lon="14.135028943419456">
        <ele>80.13</ele>
        <time>2025-02-17T23:21:48.201Z</time>
      </trkpt>
      <trkpt lat="59.26446195691824" lon="14.135030955076218">
        <ele>79.99</ele>
        <time>2025-02-17T23:22:45.144Z</time>
      </trkpt>
      <trkpt lat="59.264557929709554" lon="14.135028943419456">
        <ele>79.85</ele>
        <time>2025-02-17T23:23:42.089Z</time>
      </trkpt>
      <trkpt lat="59.26465499214828" lon="14.135021986439824">
        <ele>79.72</ele>
        <time>2025-02-17T23:24:39.035Z</time>
      </trkpt>
      <trkpt lat="59.264752976596355" lon="14.135011928156018">
        <ele>79.57</ele>
        <time>2025-02-17T23:25:35.983Z</time>
      </trkpt>
      <trkpt lat="59.26485297270119" lon="14.134996924549341">
        <ele>79.43</ele>
        <time>2025-02-17T23:26:32.933Z</time>
      </trkpt>
      <trkpt lat="59.26495397463441" lon="14.134980998933315">
        <ele>79.28</ele>
        <time>2025-02-17T23:27:29.884Z</time>
      </trkpt>
      <trkpt lat="59.26505698822439" lon="14.134962977841496">
        <ele>79.14</ele>
        <time>2025-02-17T23:28:26.837Z</time>
      </trkpt>
      <trkpt lat="59.265160923823714" lon="14.134941939264536">
        <ele>79.0</ele>
        <time>2025-02-17T23:29:23.792Z</time>
      </trkpt>
      <trkpt lat="59.265266954898834" lon="14.134919978678226">
        <ele>78.87</ele>
        <time>2025-02-17T23:30:20.748Z</time>
      </trkpt>
      <trkpt lat="59.265372985973954" lon="14.134899945929646">
        <ele>78.73</ele>
        <time>2025-02-17T23:31:17.706Z</time>
      </trkpt>
      <trkpt lat="59.26547993905842" lon="14.134879997000098">
        <ele>78.6</ele>
        <time>2025-02-17T23:32:14.666Z</time>
      </trkpt>
      <trkpt lat="59.26558597013354" lon="14.134860970079899">
        <ele>78.47</ele>
        <time>2025-02-17T23:33:11.627Z</time>
      </trkpt>
      <trkpt lat="59.26569292321801" lon="14.13484395481646">
        <ele>78.35</ele>
        <time>2025-02-17T23:34:08.590Z</time>
      </trkpt>
      <trkpt lat="59.26579694263637" lon="14.13482392206788">
        <ele>78.23</ele>
        <time>2025-02-17T23:35:05.555Z</time>
      </trkpt>
      <trkpt lat="59.26589995622635" lon="14.134804978966713">
        <ele>78.11</ele>
        <time>2025-02-17T23:36:02.521Z</time>
      </trkpt>
      <trkpt lat="59.26600296981633" lon="14.134785952046514">
        <ele>77.99</ele>
        <time>2025-02-17T23:36:59.489Z</time>
      </trkpt>
      <trkpt lat="59.266104977577925" lon="14.134767930954695">
        <ele>77.87</ele>
        <time>2025-02-17T23:37:56.459Z</time>
      </trkpt>
      <trkpt lat="59.26620597951114" lon="14.134750999510288">
        <ele>77.76</ele>
        <time>2025-02-17T23:38:53.430Z</time>
      </trkpt>
      <trkpt lat="59.26630798727274" lon="14.13473398424685">
        <ele>77.64</ele>
        <time>2025-02-17T23:39:50.403Z</time>
      </trkpt>
      <trkpt lat="59.26640999503434" lon="14.134716968983412">
        <ele>77.54</ele>
        <time>2025-02-17T23:40:47.378Z</time>
      </trkpt>
      <trkpt lat="59.26651292480528" lon="14.134698947891593">
        <ele>77.44</ele>
        <time>2025-02-17T23:41:44.354Z</time>
      </trkpt>
      <trkpt lat="59.26661694422364" lon="14.134678998962045">
        <ele>77.34</ele>
        <time>2025-02-17T23:42:41.332Z</time>
      </trkpt>
      <trkpt lat="59.26671995781362" lon="14.134657960385084">
        <ele>77.24</ele>
        <time>2025-02-17T23:43:38.312Z</time>
      </trkpt>
      <trkpt lat="59.26682196557522" lon="14.134633988142014">
        <ele>77.14</ele>
        <time>2025-02-17T23:44:35.293Z</time>
      </trkpt>
      <trkpt lat="59.266922967508435" lon="14.134612949565053">
        <ele>77.05</ele>
        <time>2025-02-17T23:45:32.276Z</time>
      </trkpt>
      <trkpt lat="59.26702497527003" lon="14.134594928473234">
        <ele>76.96</ele>
        <time>2025-02-17T23:46:29.261Z</time>
      </trkpt>
      <trkpt lat="59.26712698303163" lon="14.134576991200447">
        <ele>76.86</ele>
        <time>2025-02-17T23:47:26.247Z</time>
      </trkpt>
      <trkpt lat="59.26722798496485" lon="14.134558970108628">
        <ele>76.78</ele>
        <time>2025-02-17T23:48:23.235Z</time>
      </trkpt>
      <trkpt lat="59.267328986898065" lon="14.134538937360048">
        <ele>76.7</ele>
        <time>2025-02-17T23:49:20.225Z</time>
      </trkpt>
      <trkpt lat="59.2674289830029" lon="14.1345189884305">
        <ele>76.62</ele>
        <time>2025-02-17T23:50:17.216Z</time>
      </trkpt>
      <trkpt lat="59.26752897910774" lon="14.1344999615103">
        <ele>76.54</ele>
        <time>2025-02-17T23:51:14.209Z</time>
      </trkpt>
      <trkpt lat="59.26762796938419" lon="14.134484957903624">
        <ele>76.47</ele>
        <time>2025-02-17T23:52:11.203Z</time>
      </trkpt>
      <trkpt lat="59.26772796548903" lon="14.134469954296947">
        <ele>76.4</ele>
        <time>2025-02-17T23:53:08.199Z</time>
      </trkpt>
      <trkpt lat="59.267825949937105" lon="14.134453944861889">
        <ele>76.33</ele>
        <time>2025-02-17T23:54:05.197Z</time>
      </trkpt>
      <trkpt lat="59.2679229285568" lon="14.13443692959845">
        <ele>76.26</ele>
        <time>2025-02-17T23:55:02.196Z</time>
      </trkpt>
      <trkpt lat="59.268019990995526" lon="14.134420920163393">
        <ele>76.2</ele>
        <time>2025-02-17T23:55:59.197Z</time>
      </trkpt>
      <trkpt lat="59.26811696961522" lon="14.134404994547367">
        <ele>76.13</ele>
        <time>2025-02-17T23:56:56.199Z</time>
      </trkpt>
      <trkpt lat="59.268212942406535" lon="14.13438999094069">
        <ele>76.07</ele>
        <time>2025-02-17T23:57:53.203Z</time>
      </trkpt>
      <trkpt lat="59.26830899901688" lon="14.134377921000123">
        <ele>76.01</ele>
        <time>2025-02-17T23:58:50.208Z</time>
      </trkpt>
      <trkpt lat="59.268403965979815" lon="14.134364929050207">
        <ele>75.96</ele>
        <time>2025-02-17T23:59:47.215Z</time>
      </trkpt>
      <trkpt lat="59.26849692128599" lon="14.13435093127191">
        <ele>75.9</ele>
        <time>2025-02-18T00:00:44.223Z</time>
      </trkpt>
      <trkpt lat="59.26858895458281" lon="14.134336933493614">
        <ele>75.85</ele>
        <time>2025-02-18T00:01:41.233Z</time>
      </trkpt>
      <trkpt lat="59.268681993708014" lon="14.134320924058557">
        <ele>75.8</ele>
        <time>2025-02-18T00:02:38.244Z</time>
      </trkpt>
      <trkpt lat="59.268773943185806" lon="14.134301980957389">
        <ele>75.75</ele>
        <time>2025-02-18T00:03:35.257Z</time>
      </trkpt>
      <trkpt lat="59.26886798813939" lon="14.13428295403719">
        <ele>75.71</ele>
        <time>2025-02-18T00:04:32.271Z</time>
      </trkpt>
      <trkpt lat="59.268961949273944" lon="14.134266944602132">
        <ele>75.66</ele>
        <time>2025-02-18T00:05:29.287Z</time>
      </trkpt>
      <trkpt lat="59.26905691623688" lon="14.134252946823835">
        <ele>75.62</ele>
        <time>2025-02-18T00:06:26.304Z</time>
      </trkpt>
      <trkpt lat="59.26915196701884" lon="14.13423995487392">
        <ele>75.58</ele>
        <time>2025-02-18T00:07:23.323Z</time>
      </trkpt>
      <trkpt lat="59.269245928153396" lon="14.134224951267242">
        <ele>75.54</ele>
        <time>2025-02-18T00:08:20.343Z</time>
      </trkpt>
      <trkpt lat="59.26933796145022" lon="14.134206930175424">
        <ele>75.51</ele>
        <time>2025-02-18T00:09:17.365Z</time>
      </trkpt>
      <trkpt lat="59.26942898891866" lon="14.134187987074256">
        <ele>75.47</ele>
        <time>2025-02-18T00:10:14.388Z</time>
      </trkpt>
      <trkpt lat="59.26951993256807" lon="14.13417398929596">
        <ele>75.44</ele>
        <time>2025-02-18T00:11:11.413Z</time>
      </trkpt>
      <trkpt lat="59.269609954208136" lon="14.134161919355392">
        <ele>75.41</ele>
        <time>2025-02-18T00:12:08.439Z</time>
      </trkpt>
      <trkpt lat="59.26970098167658" lon="14.134146999567747">
        <ele>75.39</ele>
        <time>2025-02-18T00:13:05.467Z</time>
      </trkpt>
      <trkpt lat="59.26979091949761" lon="14.13413099013269">
        <ele>75.37</ele>
        <time>2025-02-18T00:14:02.496Z</time>
      </trkpt>
      <trkpt lat="59.26988094113767" lon="14.134114980697632">
        <ele>75.35</ele>
        <time>2025-02-18T00:14:59.527Z</time>
      </trkpt>
      <trkpt lat="59.269970962777734" lon="14.134100982919335">
        <ele>75.33</ele>
        <time>2025-02-18T00:15:56.559Z</time>
      </trkpt>
      <trkpt lat="59.270060984417796" lon="14.134086985141039">
        <ele>75.31</ele>
        <time>2025-02-18T00:16:53.593Z</time>
      </trkpt>
      <trkpt lat="59.2701489944011" lon="14.134073993191123">
        <ele>75.29</ele>
        <time>2025-02-18T00:17:50.628Z</time>
      </trkpt>
      <trkpt lat="59.27023792639375" lon="14.134058989584446">
        <ele>75.27</ele>
        <time>2025-02-18T00:18:47.664Z</time>
      </trkpt>
      <trkpt lat="59.27032593637705" lon="14.134041974321008">
        <ele>75.25</ele>
        <time>2025-02-18T00:19:44.702Z</time>
      </trkpt>
      <trkpt lat="59.27041394636035" lon="14.13402596488595">
        <ele>75.23</ele>
        <time>2025-02-18T00:20:41.741Z</time>
      </trkpt>
      <trkpt lat="59.27050095051527" lon="14.134010961279273">
        <ele>75.21</ele>
        <time>2025-02-18T00:21:38.782Z</time>
      </trkpt>
      <trkpt lat="59.27058795467019" lon="14.133995957672596">
        <ele>75.19</ele>
        <time>2025-02-18T00:22:35.824Z</time>
      </trkpt>
      <trkpt lat="59.27067495882511" lon="14.133979948237538">
        <ele>75.17</ele>
        <time>2025-02-18T00:23:32.867Z</time>
      </trkpt>
      <trkpt lat="59.27076296880841" lon="14.133964944630861">
        <ele>75.16</ele>
        <time>2025-02-18T00:24:29.912Z</time>
      </trkpt>
      <trkpt lat="59.27084997296333" lon="14.133948935195804">
        <ele>75.15</ele>
        <time>2025-02-18T00:25:26.958Z</time>
      </trkpt>
      <trkpt lat="59.270937982946634" lon="14.133933931589127">
        <ele>75.15</ele>
        <time>2025-02-18T00:26:24.006Z</time>
      </trkpt>
      <trkpt lat="59.271024987101555" lon="14.133917922154069">
        <ele>75.15</ele>
        <time>2025-02-18T00:27:21.055Z</time>
      </trkpt>
      <trkpt lat="59.271112997084856" lon="14.133902918547392">
        <ele>75.14</ele>
        <time>2025-02-18T00:28:18.105Z</time>
      </trkpt>
      <trkpt lat="59.271199917420745" lon="14.133887998759747">
        <ele>75.13</ele>
        <time>2025-02-18T00:29:15.157Z</time>
      </trkpt>
      <trkpt lat="59.271286921575665" lon="14.13387299515307">
        <ele>75.12</ele>
        <time>2025-02-18T00:30:12.210Z</time>
      </trkpt>
      <trkpt lat="59.271373925730586" lon="14.133857991546392">
        <ele>75.11</ele>
        <time>2025-02-18T00:31:09.265Z</time>
      </trkpt>
      <trkpt lat="59.27146092988551" lon="14.133842987939715">
        <ele>75.1</ele>
        <time>2025-02-18T00:32:06.321Z</time>
      </trkpt>
      <trkpt lat="59.27154692821205" lon="14.133826978504658">
        <ele>75.09</ele>
        <time>2025-02-18T00:33:03.378Z</time>
      </trkpt>
      <trkpt lat="59.27163292653859" lon="14.1338109690696">
        <ele>75.07</ele>
        <time>2025-02-18T00:34:00.437Z</time>
      </trkpt>
      <trkpt lat="59.27171993069351" lon="14.133793953806162">
        <ele>75.06</ele>
        <time>2025-02-18T00:34:57.497Z</time>
      </trkpt>
      <trkpt lat="59.27180794067681" lon="14.133775932714343">
        <ele>75.04</ele>
        <time>2025-02-18T00:35:54.559Z</time>
      </trkpt>
      <trkpt lat="59.27189695648849" lon="14.133758917450905">
        <ele>75.03</ele>
        <time>2025-02-18T00:36:51.622Z</time>
      </trkpt>
      <trkpt lat="59.27198697812855" lon="14.13374399766326">
        <ele>75.02</ele>
        <time>2025-02-18T00:37:48.687Z</time>
      </trkpt>
      <trkpt lat="59.272078927606344" lon="14.133726982399821">
        <ele>75.01</ele>
        <time>2025-02-18T00:38:45.753Z</time>
      </trkpt>
      <trkpt lat="59.27217196673155" lon="14.133708961308002">
        <ele>74.99</ele>
        <time>2025-02-18T00:39:42.821Z</time>
      </trkpt>
      <trkpt lat="59.27226693369448" lon="14.133693957701325">
        <ele>74.98</ele>
        <time>2025-02-18T00:40:39.890Z</time>
      </trkpt>
      <trkpt lat="59.27236198447645" lon="14.133679959923029">
        <ele>74.96</ele>
        <time>2025-02-18T00:41:36.961Z</time>
      </trkpt>
      <trkpt lat="59.27245795726776" lon="14.13366294465959">
        <ele>74.94</ele>
        <time>2025-02-18T00:42:34.033Z</time>
      </trkpt>
      <trkpt lat="59.272554935887456" lon="14.133646935224533">
        <ele>74.93</ele>
        <time>2025-02-18T00:43:31.107Z</time>
      </trkpt>
      <trkpt lat="59.27265292033553" lon="14.133627992123365">
        <ele>74.91</ele>
        <time>2025-02-18T00:44:28.182Z</time>
      </trkpt>
      <trkpt lat="59.27275291644037" lon="14.133609971031547">
        <ele>74.89</ele>
        <time>2025-02-18T00:45:25.259Z</time>
      </trkpt>
      <trkpt lat="59.272855930030346" lon="14.13359597325325">
        <ele>74.87</ele>
        <time>2025-02-18T00:46:22.338Z</time>
      </trkpt>
      <trkpt lat="59.27295793779194" lon="14.133583987131715">
        <ele>74.85</ele>
        <time>2025-02-18T00:47:19.418Z</time>
      </trkpt>
      <trkpt lat="59.2730619572103" lon="14.133568983525038">
        <ele>74.82</ele>
        <time>2025-02-18T00:48:16.500Z</time>
      </trkpt>
      <trkpt lat="59.27316497080028" lon="14.1335519682616">
        <ele>74.8</ele>
        <time>2025-02-18T00:49:13.583Z</time>
      </trkpt>
      <trkpt lat="59.27326798439026" lon="14.133534952998161">
        <ele>74.78</ele>
        <time>2025-02-18T00:50:10.668Z</time>
      </trkpt>
      <trkpt lat="59.273371919989586" lon="14.133516931906343">
        <ele>74.76</ele>
        <time>2025-02-18T00:51:07.755Z</time>
      </trkpt>
      <trkpt lat="59.273474933579564" lon="14.133497988805175">
        <ele>74.73</ele>
        <time>2025-02-18T00:52:04.843Z</time>
      </trkpt>
      <trkpt lat="59.27357895299792" lon="14.133478961884975">
        <ele>74.7</ele>
        <time>2025-02-18T00:53:01.933Z</time>
      </trkpt>
      <trkpt lat="59.27368598990142" lon="14.133458929136395">
        <ele>74.67</ele>
        <time>2025-02-18T00:53:59.025Z</time>
      </trkpt>
      <trkpt lat="59.273797972127795" lon="14.133440991863608">
        <ele>74.64</ele>
        <time>2025-02-18T00:54:56.119Z</time>
      </trkpt>
      <trkpt lat="59.27391196601093" lon="14.13342397660017">
        <ele>74.6</ele>
        <time>2025-02-18T00:55:53.215Z</time>
      </trkpt>
      <trkpt lat="59.27402797155082" lon="14.13340494967997">
        <ele>74.56</ele>
        <time>2025-02-18T00:56:50.312Z</time>
      </trkpt>
      <trkpt lat="59.27414791658521" lon="14.133385922759771">
        <ele>74.52</ele>
        <time>2025-02-18T00:57:47.411Z</time>
      </trkpt>
      <trkpt lat="59.274271968752146" lon="14.133367985486984">
        <ele>74.47</ele>
        <time>2025-02-18T00:58:44.512Z</time>
      </trkpt>
      <trkpt lat="59.274397948756814" lon="14.133347952738404">
        <ele>74.42</ele>
        <time>2025-02-18T00:59:41.615Z</time>
      </trkpt>
      <trkpt lat="59.27452493458986" lon="14.133327919989824">
        <ele>74.37</ele>
        <time>2025-02-18T01:00:38.720Z</time>
      </trkpt>
      <trkpt lat="59.27465192042291" lon="14.133306965231895">
        <ele>74.32</ele>
        <time>2025-02-18T01:01:35.827Z</time>
      </trkpt>
      <trkpt lat="59.27477798424661" lon="14.133287938311696">
        <ele>74.29</ele>
        <time>2025-02-18T01:02:32.936Z</time>
      </trkpt>
      <trkpt lat="59.27490396425128" lon="14.133276958018541">
        <ele>74.25</ele>
        <time>2025-02-18T01:03:30.047Z</time>
      </trkpt>
      <trkpt lat="59.275026926770806" lon="14.133270923048258">
        <ele>74.22</ele>
        <time>2025-02-18T01:04:27.160Z</time>
      </trkpt>
      <trkpt lat="59.27514695562422" lon="14.1332739405334">
        <ele>74.19</ele>
        <time>2025-02-18T01:05:24.275Z</time>
      </trkpt>
      <trkpt lat="59.27526296116412" lon="14.133285926654935">
        <ele>74.16</ele>
        <time>2025-02-18T01:06:21.392Z</time>
      </trkpt>
      <trkpt lat="59.27537494339049" lon="14.133303947746754">
        <ele>74.14</ele>
        <time>2025-02-18T01:07:18.511Z</time>
      </trkpt>
      <trkpt lat="59.27548198029399" lon="14.133328925818205">
        <ele>74.12</ele>
        <time>2025-02-18T01:08:15.632Z</time>
      </trkpt>
      <trkpt lat="59.27558499388397" lon="14.133362956345081">
        <ele>74.09</ele>
        <time>2025-02-18T01:09:12.754Z</time>
      </trkpt>
      <trkpt lat="59.27568297833204" lon="14.133401932194829">
        <ele>74.06</ele>
        <time>2025-02-18T01:10:09.878Z</time>
      </trkpt>
      <trkpt lat="59.27577895112336" lon="14.133444931358099">
        <ele>74.03</ele>
        <time>2025-02-18T01:11:07.004Z</time>
      </trkpt>
      <trkpt lat="59.27587199024856" lon="14.133493965491652">
        <ele>73.99</ele>
        <time>2025-02-18T01:12:04.131Z</time>
      </trkpt>
      <trkpt lat="59.27596393972635" lon="14.133545933291316">
        <ele>73.96</ele>
        <time>2025-02-18T01:13:01.260Z</time>
      </trkpt>
      <trkpt lat="59.276053961366415" lon="14.133605947718024">
        <ele>73.92</ele>
        <time>2025-02-18T01:13:58.390Z</time>
      </trkpt>
      <trkpt lat="59.276141971349716" lon="14.133673924952745">
        <ele>73.89</ele>
        <time>2025-02-18T01:14:55.522Z</time>
      </trkpt>
      <trkpt lat="59.27622897550464" lon="14.13374793715775">
        <ele>73.86</ele>
        <time>2025-02-18T01:15:52.655Z</time>
      </trkpt>
      <trkpt lat="59.27631597965956" lon="14.133828990161419">
        <ele>73.82</ele>
        <time>2025-02-18T01:16:49.790Z</time>
      </trkpt>
      <trkpt lat="59.27640097215772" lon="14.133917922154069">
        <ele>73.79</ele>
        <time>2025-02-18T01:17:46.926Z</time>
      </trkpt>
      <trkpt lat="59.27648697048426" lon="14.134010961279273">
        <ele>73.75</ele>
        <time>2025-02-18T01:18:44.064Z</time>
      </trkpt>
      <trkpt lat="59.27657397463918" lon="14.134105928242207">
        <ele>73.71</ele>
        <time>2025-02-18T01:19:41.204Z</time>
      </trkpt>
      <trkpt lat="59.2766609787941" lon="14.134201984852552">
        <ele>73.67</ele>
        <time>2025-02-18T01:20:38.345Z</time>
      </trkpt>
      <trkpt lat="59.27674798294902" lon="14.134298963472247">
        <ele>73.63</ele>
        <time>2025-02-18T01:21:35.488Z</time>
      </trkpt>
      <trkpt lat="59.27683297544718" lon="14.134397953748703">
        <ele>73.58</ele>
        <time>2025-02-18T01:22:32.632Z</time>
      </trkpt>
      <trkpt lat="59.27691897377372" lon="14.134494932368398">
        <ele>73.54</ele>
        <time>2025-02-18T01:23:29.778Z</time>
      </trkpt>
      <trkpt lat="59.27700597792864" lon="14.134590988978744">
        <ele>73.5</ele>
        <time>2025-02-18T01:24:26.926Z</time>
      </trkpt>
      <trkpt lat="59.2770909704268" lon="14.134686961770058">
        <ele>73.45</ele>
        <time>2025-02-18T01:25:24.075Z</time>
      </trkpt>
      <trkpt lat="59.277173951268196" lon="14.134781928732991">
        <ele>73.4</ele>
        <time>2025-02-18T01:26:21.226Z</time>
      </trkpt>
      <trkpt lat="59.27725492045283" lon="14.134876979514956">
        <ele>73.36</ele>
        <time>2025-02-18T01:27:18.378Z</time>
      </trkpt>
      <trkpt lat="59.27733195014298" lon="14.134967923164368">
        <ele>73.31</ele>
        <time>2025-02-18T01:28:15.532Z</time>
      </trkpt>
      <trkpt lat="59.277405962347984" lon="14.135055933147669">
        <ele>73.26</ele>
        <time>2025-02-18T01:29:12.687Z</time>
      </trkpt>
      <trkpt lat="59.27747796289623" lon="14.135137991979718">
        <ele>73.21</ele>
        <time>2025-02-18T01:30:09.843Z</time>
      </trkpt>
      <trkpt lat="59.27754694595933" lon="14.135214937850833">
        <ele>73.16</ele>
        <time>2025-02-18T01:31:07.001Z</time>
      </trkpt>
      <trkpt lat="59.27761492319405" lon="14.135287944227457">
        <ele>73.11</ele>
        <time>2025-02-18T01:32:04.160Z</time>
      </trkpt>
      <trkpt lat="59.27768097259104" lon="14.135356927290559">
        <ele>73.05</ele>
        <time>2025-02-18T01:33:01.320Z</time>
      </trkpt>
      <trkpt lat="59.277746938169" lon="14.135426916182041">
        <ele>72.99</ele>
        <time>2025-02-18T01:33:58.481Z</time>
      </trkpt>
      <trkpt lat="59.277813993394375" lon="14.135497994720936">
        <ele>72.93</ele>
        <time>2025-02-18T01:34:55.643Z</time>
      </trkpt>
      <trkpt lat="59.277881970629096" lon="14.13556999526918">
        <ele>72.86</ele>
        <time>2025-02-18T01:35:52.807Z</time>
      </trkpt>
      <trkpt lat="59.27795195952058" lon="14.135643923655152">
        <ele>72.8</ele>
        <time>2025-02-18T01:36:49.972Z</time>
      </trkpt>
      <trkpt lat="59.27802194841206" lon="14.135719947516918">
        <ele>72.73</ele>
        <time>2025-02-18T01:37:47.138Z</time>
      </trkpt>
      <trkpt lat="59.27809193730354" lon="14.135796977207065">
        <ele>72.66</ele>
        <time>2025-02-18T01:38:44.306Z</time>
      </trkpt>
      <trkpt lat="59.27816393785179" lon="14.13587392307818">
        <ele>72.59</ele>
        <time>2025-02-18T01:39:41.475Z</time>
      </trkpt>
      <trkpt lat="59.27823593840003" lon="14.135952964425087">
        <ele>72.52</ele>
        <time>2025-02-18T01:40:38.645Z</time>
      </trkpt>
      <trkpt lat="59.278308944776654" lon="14.136031921952963">
        <ele>72.45</ele>
        <time>2025-02-18T01:41:35.817Z</time>
      </trkpt>
      <trkpt lat="59.27838295698166" lon="14.13610995747149">
        <ele>72.37</ele>
        <time>2025-02-18T01:42:32.990Z</time>
      </trkpt>
      <trkpt lat="59.278457975015044" lon="14.136187992990017">
        <ele>72.29</ele>
        <time>2025-02-18T01:43:30.164Z</time>
      </trkpt>
      <trkpt lat="59.27853198722005" lon="14.136265944689512">
        <ele>72.21</ele>
        <time>2025-02-18T01:44:27.340Z</time>
      </trkpt>
      <trkpt lat="59.27860398776829" lon="14.1363459918648">
        <ele>72.13</ele>
        <time>2025-02-18T01:45:24.517Z</time>
      </trkpt>
      <trkpt lat="59.27867699414492" lon="14.136425955221057">
        <ele>72.05</ele>
        <time>2025-02-18T01:46:21.695Z</time>
      </trkpt>
      <trkpt lat="59.27875192835927" lon="14.136507930234075">
        <ele>71.97</ele>
        <time>2025-02-18T01:47:18.875Z</time>
      </trkpt>
      <trkpt lat="59.278825940564275" lon="14.136590994894505">
        <ele>71.89</ele>
        <time>2025-02-18T01:48:16.056Z</time>
      </trkpt>
      <trkpt lat="59.27889794111252" lon="14.136673975735903">
        <ele>71.8</ele>
        <time>2025-02-18T01:49:13.238Z</time>
      </trkpt>
      <trkpt lat="59.27896994166076" lon="14.13675393909216">
        <ele>71.71</ele>
        <time>2025-02-18T01:50:10.422Z</time>
      </trkpt>
      <trkpt lat="59.279038924723864" lon="14.136833986267447">
        <ele>71.62</ele>
        <time>2025-02-18T01:51:07.607Z</time>
      </trkpt>
      <trkpt lat="59.279104974120855" lon="14.136909926310182">
        <ele>71.53</ele>
        <time>2025-02-18T01:52:04.793Z</time>
      </trkpt>
      <trkpt lat="59.279167922213674" lon="14.136981926858425">
        <ele>71.43</ele>
        <time>2025-02-18T01:53:01.980Z</time>
      </trkpt>
      <trkpt lat="59.27922994829714" lon="14.137047976255417">
        <ele>71.32</ele>
        <time>2025-02-18T01:53:59.169Z</time>
      </trkpt>
      <trkpt lat="59.27928996272385" lon="14.137107990682125">
        <ele>71.21</ele>
        <time>2025-02-18T01:54:56.359Z</time>
      </trkpt>
      <trkpt lat="59.27935098297894" lon="14.137164987623692">
        <ele>71.1</ele>
        <time>2025-02-18T01:55:53.550Z</time>
      </trkpt>
      <trkpt lat="59.27941393107176" lon="14.137218967080116">
        <ele>70.99</ele>
        <time>2025-02-18T01:56:50.742Z</time>
      </trkpt>
      <trkpt lat="59.27947696298361" lon="14.137267917394638">
        <ele>70.87</ele>
        <time>2025-02-18T01:57:47.935Z</time>
      </trkpt>
      <trkpt lat="59.27954292856157" lon="14.137317957356572">
        <ele>70.74</ele>
        <time>2025-02-18T01:58:45.129Z</time>
      </trkpt>
      <trkpt lat="59.27961098961532" lon="14.137368919327855">
        <ele>70.62</ele>
        <time>2025-02-18T01:59:42.324Z</time>
      </trkpt>
      <trkpt lat="59.27967997267842" lon="14.13741996511817">
        <ele>70.48</ele>
        <time>2025-02-18T02:00:39.520Z</time>
      </trkpt>
      <trkpt lat="59.279747949913144" lon="14.137474950402975">
        <ele>70.34</ele>
        <time>2025-02-18T02:01:36.718Z</time>
      </trkpt>
      <trkpt lat="59.27981894463301" lon="14.13752993568778">
        <ele>70.2</ele>
        <time>2025-02-18T02:02:33.917Z</time>
      </trkpt>
      <trkpt lat="59.27989195100963" lon="14.137585926800966">
        <ele>70.06</ele>
        <time>2025-02-18T02:03:31.117Z</time>
      </trkpt>
      <trkpt lat="59.279963951557875" lon="14.137644935399294">
        <ele>69.91</ele>
        <time>2025-02-18T02:04:28.318Z</time>
      </trkpt>
      <trkpt lat="59.28003997541964" lon="14.137702938169241">
        <ele>69.77</ele>
        <time>2025-02-18T02:05:25.521Z</time>
      </trkpt>
      <trkpt lat="59.2801199387759" lon="14.137759935110807">
        <ele>69.63</ele>
        <time>2025-02-18T02:06:22.725Z</time>
      </trkpt>
      <trkpt lat="59.280197974294424" lon="14.137816932052374">
        <ele>69.48</ele>
        <time>2025-02-18T02:07:19.930Z</time>
      </trkpt>
      <trkpt lat="59.28027592599392" lon="14.137876946479082">
        <ele>69.34</ele>
        <time>2025-02-18T02:08:17.137Z</time>
      </trkpt>
      <trkpt lat="59.280353961512446" lon="14.137940984219313">
        <ele>69.2</ele>
        <time>2025-02-18T02:09:14.345Z</time>
      </trkpt>
      <trkpt lat="59.2804339248687" lon="14.138008961454034">
        <ele>69.06</ele>
        <time>2025-02-18T02:10:11.554Z</time>
      </trkpt>
      <trkpt lat="59.28052092902362" lon="14.138072999194264">
        <ele>68.92</ele>
        <time>2025-02-18T02:11:08.765Z</time>
      </trkpt>
      <trkpt lat="59.280610950663686" lon="14.138138964772224">
        <ele>68.77</ele>
        <time>2025-02-18T02:12:05.977Z</time>
      </trkpt>
      <trkpt lat="59.28070298396051" lon="14.138203924521804">
        <ele>68.61</ele>
        <time>2025-02-18T02:13:03.191Z</time>
      </trkpt>
      <trkpt lat="59.28079593926668" lon="14.138270979747176">
        <ele>68.46</ele>
        <time>2025-02-18T02:14:00.407Z</time>
      </trkpt>
      <trkpt lat="59.28089392371476" lon="14.138341974467039">
        <ele>68.29</ele>
        <time>2025-02-18T02:14:57.624Z</time>
      </trkpt>
      <trkpt lat="59.280995931476355" lon="14.138419926166534">
        <ele>68.12</ele>
        <time>2025-02-18T02:15:54.843Z</time>
      </trkpt>
      <trkpt lat="59.281103974208236" lon="14.138500979170203">
        <ele>67.94</ele>
        <time>2025-02-18T02:16:52.064Z</time>
      </trkpt>
      <trkpt lat="59.28121495060623" lon="14.138584965839982">
        <ele>67.76</ele>
        <time>2025-02-18T02:17:49.287Z</time>
      </trkpt>
      <trkpt lat="59.28132894448936" lon="14.13866895250976">
        <ele>67.58</ele>
        <time>2025-02-18T02:18:46.512Z</time>
      </trkpt>
      <trkpt lat="59.281446961686015" lon="14.1387549508363">
        <ele>67.38</ele>
        <time>2025-02-18T02:19:43.739Z</time>
      </trkpt>
      <trkpt lat="59.28156397305429" lon="14.138842960819602">
        <ele>67.18</ele>
        <time>2025-02-18T02:20:40.968Z</time>
      </trkpt>
      <trkpt lat="59.281682996079326" lon="14.138934994116426">
        <ele>66.99</ele>
        <time>2025-02-18T02:21:38.199Z</time>
      </trkpt>
      <trkpt lat="59.28180394694209" lon="14.139025937765837">
        <ele>66.8</ele>
        <time>2025-02-18T02:22:35.432Z</time>
      </trkpt>
      <trkpt lat="59.28192799910903" lon="14.13911797106266">
        <ele>66.62</ele>
        <time>2025-02-18T02:23:32.667Z</time>
      </trkpt>
      <trkpt lat="59.28205699659884" lon="14.139211932197213">
        <ele>66.44</ele>
        <time>2025-02-18T02:24:29.904Z</time>
      </trkpt>
      <trkpt lat="59.28218599408865" lon="14.139307988807559">
        <ele>66.26</ele>
        <time>2025-02-18T02:25:27.143Z</time>
      </trkpt>
      <trkpt lat="59.28231398575008" lon="14.139403961598873">
        <ele>66.07</ele>
        <time>2025-02-18T02:26:24.385Z</time>
      </trkpt>
      <trkpt lat="59.28244197741151" lon="14.139498928561807">
        <ele>65.89</ele>
        <time>2025-02-18T02:27:21.629Z</time>
      </trkpt>
      <trkpt lat="59.28256795741618" lon="14.13959196768701">
        <ele>65.69</ele>
        <time>2025-02-18T02:28:18.875Z</time>
      </trkpt>
      <trkpt lat="59.282693937420845" lon="14.139686934649944">
        <ele>65.5</ele>
        <time>2025-02-18T02:29:16.123Z</time>
      </trkpt>
      <trkpt lat="59.282817989587784" lon="14.13978491909802">
        <ele>65.31</ele>
        <time>2025-02-18T02:30:13.373Z</time>
      </trkpt>
      <trkpt lat="59.28293894045055" lon="14.139885921031237">
        <ele>65.12</ele>
        <time>2025-02-18T02:31:10.625Z</time>
      </trkpt>
      <trkpt lat="59.283057963475585" lon="14.139987928792834">
        <ele>64.93</ele>
        <time>2025-02-18T02:32:07.880Z</time>
      </trkpt>
      <trkpt lat="59.28317396901548" lon="14.140093959867954">
        <ele>64.74</ele>
        <time>2025-02-18T02:33:05.137Z</time>
      </trkpt>
      <trkpt lat="59.28328595124185" lon="14.140202924609184">
        <ele>64.55</ele>
        <time>2025-02-18T02:34:02.396Z</time>
      </trkpt>
      <trkpt lat="59.28339592181146" lon="14.140313984826207">
        <ele>64.36</ele>
        <time>2025-02-18T02:34:59.657Z</time>
      </trkpt>
      <trkpt lat="59.28350295871496" lon="14.140425967052579">
        <ele>64.17</ele>
        <time>2025-02-18T02:35:56.920Z</time>
      </trkpt>
      <trkpt lat="59.28360697813332" lon="14.140539960935712">
        <ele>63.99</ele>
        <time>2025-02-18T02:36:54.184Z</time>
      </trkpt>
      <trkpt lat="59.28370697423816" lon="14.140654960647225">
        <ele>63.8</ele>
        <time>2025-02-18T02:37:51.450Z</time>
      </trkpt>
      <trkpt lat="59.28380495868623" lon="14.140769960358739">
        <ele>63.62</ele>
        <time>2025-02-18T02:38:48.718Z</time>
      </trkpt>
      <trkpt lat="59.283898919820786" lon="14.140885965898633">
        <ele>63.44</ele>
        <time>2025-02-18T02:39:45.988Z</time>
      </trkpt>
      <trkpt lat="59.28398894146085" lon="14.140996942296624">
        <ele>63.26</ele>
        <time>2025-02-18T02:40:43.260Z</time>
      </trkpt>
      <trkpt lat="59.28407493978739" lon="14.141101967543364">
        <ele>63.07</ele>
        <time>2025-02-18T02:41:40.533Z</time>
      </trkpt>
      <trkpt lat="59.28415599279106" lon="14.1412019636482">
        <ele>62.88</ele>
        <time>2025-02-18T02:42:37.808Z</time>
      </trkpt>
      <trkpt lat="59.28423595614731" lon="14.141297936439514">
        <ele>62.68</ele>
        <time>2025-02-18T02:43:35.084Z</time>
      </trkpt>
      <trkpt lat="59.28431298583746" lon="14.141390975564718">
        <ele>62.5</ele>
        <time>2025-02-18T02:44:32.362Z</time>
      </trkpt>
      <trkpt lat="59.284385992214084" lon="14.14148191921413">
        <ele>62.31</ele>
        <time>2025-02-18T02:45:29.641Z</time>
      </trkpt>
      <trkpt lat="59.28445799276233" lon="14.141571940854192">
        <ele>62.12</ele>
        <time>2025-02-18T02:46:26.922Z</time>
      </trkpt>
      <trkpt lat="59.28452596999705" lon="14.141660956665874">
        <ele>61.93</ele>
        <time>2025-02-18T02:47:24.204Z</time>
      </trkpt>
      <trkpt lat="59.28459294140339" lon="14.141746954992414">
        <ele>61.74</ele>
        <time>2025-02-18T02:48:21.487Z</time>
      </trkpt>
      <trkpt lat="59.284657984972" lon="14.141828930005431">
        <ele>61.55</ele>
        <time>2025-02-18T02:49:18.771Z</time>
      </trkpt>
      <trkpt lat="59.28472093306482" lon="14.14191098883748">
        <ele>61.36</ele>
        <time>2025-02-18T02:50:16.057Z</time>
      </trkpt>
      <trkpt lat="59.28478195331991" lon="14.141988940536976">
        <ele>61.17</ele>
        <time>2025-02-18T02:51:13.344Z</time>
      </trkpt>
      <trkpt lat="59.284840961918235" lon="14.142066976055503">
        <ele>60.99</ele>
        <time>2025-02-18T02:52:10.632Z</time>
      </trkpt>
      <trkpt lat="59.28489695303142" lon="14.142145933583379">
        <ele>60.8</ele>
        <time>2025-02-18T02:53:07.921Z</time>
      </trkpt>
      <trkpt lat="59.284950932487845" lon="14.142221957445145">
        <ele>60.62</ele>
        <time>2025-02-18T02:54:05.211Z</time>
      </trkpt>
      <trkpt lat="59.28500197827816" lon="14.142294963821769">
        <ele>60.43</ele>
        <time>2025-02-18T02:55:02.502Z</time>
      </trkpt>
      <trkpt lat="59.28505294024944" lon="14.14236294105649">
        <ele>60.25</ele>
        <time>2025-02-18T02:55:59.794Z</time>
      </trkpt>
      <trkpt lat="59.285100968554616" lon="14.14242697879672">
        <ele>60.06</ele>
        <time>2025-02-18T02:56:57.087Z</time>
      </trkpt>
      <trkpt lat="59.28514799103141" lon="14.142486993223429">
        <ele>59.88</ele>
        <time>2025-02-18T02:57:54.381Z</time>
      </trkpt>
      <trkpt lat="59.28519199602306" lon="14.142544995993376">
        <ele>59.7</ele>
        <time>2025-02-18T02:58:51.676Z</time>
      </trkpt>
      <trkpt lat="59.28523398935795" lon="14.1425989754498">
        <ele>59.51</ele>
        <time>2025-02-18T02:59:48.972Z</time>
      </trkpt>
      <trkpt lat="59.285272965207696" lon="14.142648931592703">
        <ele>59.33</ele>
        <time>2025-02-18T03:00:46.268Z</time>
      </trkpt>
      <trkpt lat="59.285311941057444" lon="14.142697965726256">
        <ele>59.15</ele>
        <time>2025-02-18T03:01:43.565Z</time>
      </trkpt>
      <trkpt lat="59.2853469774127" lon="14.14274599403143">
        <ele>58.97</ele>
        <time>2025-02-18T03:02:40.863Z</time>
      </trkpt>
      <trkpt lat="59.285377990454435" lon="14.1427889931947">
        <ele>58.79</ele>
        <time>2025-02-18T03:03:38.161Z</time>
      </trkpt>
      <trkpt lat="59.28540498018265" lon="14.142826963216066">
        <ele>58.61</ele>
        <time>2025-02-18T03:04:35.460Z</time>
      </trkpt>
      <trkpt lat="59.2854299582541" lon="14.142863927409053">
        <ele>58.43</ele>
        <time>2025-02-18T03:05:32.759Z</time>
      </trkpt>
      <trkpt lat="59.28545393049717" lon="14.14289795793593">
        <ele>58.25</ele>
        <time>2025-02-18T03:06:30.059Z</time>
      </trkpt>
      <trkpt lat="59.28548192605376" lon="14.142931988462806">
        <ele>58.08</ele>
        <time>2025-02-18T03:07:27.359Z</time>
      </trkpt>
      <trkpt lat="59.28551193326712" lon="14.142966940999031">
        <ele>57.9</ele>
        <time>2025-02-18T03:08:24.660Z</time>
      </trkpt>
      <trkpt lat="59.285547975450754" lon="14.142995942384005">
        <ele>57.73</ele>
        <time>2025-02-18T03:09:21.962Z</time>
      </trkpt>
      <trkpt lat="59.285589968785644" lon="14.14300792850554">
        <ele>57.55</ele>
        <time>2025-02-18T03:10:19.264Z</time>
      </trkpt>
      <trkpt lat="59.285635985434055" lon="14.142998959869146">
        <ele>57.37</ele>
        <time>2025-02-18T03:11:16.567Z</time>
      </trkpt>
      <trkpt lat="59.285682924091816" lon="14.14296492934227">
        <ele>57.2</ele>
        <time>2025-02-18T03:12:13.871Z</time>
      </trkpt>
      <trkpt lat="59.28572894074023" lon="14.142909944057465">
        <ele>57.02</ele>
        <time>2025-02-18T03:13:11.176Z</time>
      </trkpt>
      <trkpt lat="59.28577596321702" lon="14.142842972651124">
        <ele>56.85</ele>
        <time>2025-02-18T03:14:08.482Z</time>
      </trkpt>
      <trkpt lat="59.28582399152219" lon="14.142764937132597">
        <ele>56.67</ele>
        <time>2025-02-18T03:15:05.789Z</time>
      </trkpt>
      <trkpt lat="59.285873947665095" lon="14.142678938806057">
        <ele>56.5</ele>
        <time>2025-02-18T03:16:03.097Z</time>
      </trkpt>
      <trkpt lat="59.28592599928379" lon="14.142586989328265">
        <ele>56.34</ele>
        <time>2025-02-18T03:17:00.406Z</time>
      </trkpt>
      <trkpt lat="59.285980984568596" lon="14.142488921061158">
        <ele>56.17</ele>
        <time>2025-02-18T03:17:57.716Z</time>
      </trkpt>
      <trkpt lat="59.28603697568178" lon="14.142384985461831">
        <ele>56.0</ele>
        <time>2025-02-18T03:18:55.027Z</time>
      </trkpt>
      <trkpt lat="59.28609397262335" lon="14.14227593690157">
        <ele>55.83</ele>
        <time>2025-02-18T03:19:52.339Z</time>
      </trkpt>
      <trkpt lat="59.286152981221676" lon="14.142159931361675">
        <ele>55.66</ele>
        <time>2025-02-18T03:20:49.653Z</time>
      </trkpt>
      <trkpt lat="59.28621391765773" lon="14.14203898049891">
        <ele>55.5</ele>
        <time>2025-02-18T03:21:46.968Z</time>
      </trkpt>
      <trkpt lat="59.28627694956958" lon="14.141915934160352">
        <ele>55.34</ele>
        <time>2025-02-18T03:22:44.285Z</time>
      </trkpt>
      <trkpt lat="59.28633998148143" lon="14.141790959984064">
        <ele>55.17</ele>
        <time>2025-02-18T03:23:41.603Z</time>
      </trkpt>
      <trkpt lat="59.28640494123101" lon="14.141662968322635">
        <ele>55.01</ele>
        <time>2025-02-18T03:24:38.923Z</time>
      </trkpt>
      <trkpt lat="59.28646998479962" lon="14.141532965004444">
        <ele>54.85</ele>
        <time>2025-02-18T03:25:36.244Z</time>
      </trkpt>
      <trkpt lat="59.28914498537779" lon="14.136050948873162">
        <ele>54.62</ele>
        <time>2025-02-18T03:26:33.627Z</time>
      </trkpt>
      <trkpt lat="59.28917893208563" lon="14.135982971638441">
        <ele>54.45</ele>
        <time>2025-02-18T03:27:31.011Z</time>
      </trkpt>
      <trkpt lat="59.28921195678413" lon="14.13591398857534">
        <ele>54.29</ele>
        <time>2025-02-18T03:28:28.396Z</time>
      </trkpt>
      <trkpt lat="59.28927993401885" lon="14.135777950286865">
        <ele>54.13</ele>
        <time>2025-02-18T03:29:25.782Z</time>
      </trkpt>
      <trkpt lat="59.28934698924422" lon="14.135639984160662">
        <ele>53.97</ele>
        <time>2025-02-18T03:30:23.170Z</time>
      </trkpt>
      <trkpt lat="59.28941396065056" lon="14.135501934215426">
        <ele>53.82</ele>
        <time>2025-02-18T03:31:20.559Z</time>
      </trkpt>
      <trkpt lat="59.289480932056904" lon="14.135363968089223">
        <ele>53.66</ele>
        <time>2025-02-18T03:32:17.950Z</time>
      </trkpt>
      <trkpt lat="59.28954899311066" lon="14.135225918143988">
        <ele>53.51</ele>
        <time>2025-02-18T03:33:15.343Z</time>
      </trkpt>
      <trkpt lat="59.289615964517" lon="14.135088957846165">
        <ele>53.35</ele>
        <time>2025-02-18T03:34:12.737Z</time>
      </trkpt>
      <trkpt lat="59.28968394175172" lon="14.1349489800632">
        <ele>53.19</ele>
        <time>2025-02-18T03:35:10.133Z</time>
      </trkpt>
      <trkpt lat="59.28975099697709" lon="14.134806990623474">
        <ele>53.04</ele>
        <time>2025-02-18T03:36:07.530Z</time>
      </trkpt>
      <trkpt lat="59.28981998004019" lon="14.134664917364717">
        <ele>52.89</ele>
        <time>2025-02-18T03:37:04.929Z</time>
      </trkpt>
      <trkpt lat="59.289888963103294" lon="14.13452192209661">
        <ele>52.73</ele>
        <time>2025-02-18T03:38:02.330Z</time>
      </trkpt>
      <trkpt lat="59.28995895199478" lon="14.134379932656884">
        <ele>52.58</ele>
        <time>2025-02-18T03:38:59.732Z</time>
      </trkpt>
      <trkpt lat="59.29002894088626" lon="14.134237943217158">
        <ele>52.42</ele>
        <time>2025-02-18T03:39:57.136Z</time>
      </trkpt>
      <trkpt lat="59.29009892977774" lon="14.134096959605813">
        <ele>52.26</ele>
        <time>2025-02-18T03:40:54.541Z</time>
      </trkpt>
      <trkpt lat="59.290167996659875" lon="14.133956981822848">
        <ele>52.12</ele>
        <time>2025-02-18T03:41:51.948Z</time>
      </trkpt>
      <trkpt lat="59.290235973894596" lon="14.133817926049232">
        <ele>51.97</ele>
        <time>2025-02-18T03:42:49.357Z</time>
      </trkpt>
      <trkpt lat="59.29030395112932" lon="14.13368096575141">
        <ele>51.82</ele>
        <time>2025-02-18T03:43:46.767Z</time>
      </trkpt>
      <trkpt lat="59.29037092253566" lon="14.133542999625206">
        <ele>51.68</ele>
        <time>2025-02-18T03:44:44.179Z</time>
      </trkpt>
      <trkpt lat="59.29043697193265" lon="14.13340394385159">
        <ele>51.54</ele>
        <time>2025-02-18T03:45:41.592Z</time>
      </trkpt>
      <trkpt lat="59.29050394333899" lon="14.133264971897006">
        <ele>51.41</ele>
        <time>2025-02-18T03:46:39.007Z</time>
      </trkpt>
      <trkpt lat="59.29057192057371" lon="14.133124994114041">
        <ele>51.27</ele>
        <time>2025-02-18T03:47:36.423Z</time>
      </trkpt>
      <trkpt lat="59.290640987455845" lon="14.132984932512045">
        <ele>51.13</ele>
        <time>2025-02-18T03:48:33.841Z</time>
      </trkpt>
      <trkpt lat="59.290708964690566" lon="14.13284495472908">
        <ele>50.99</ele>
        <time>2025-02-18T03:49:31.261Z</time>
      </trkpt>
      <trkpt lat="59.29077895358205" lon="14.132702965289354">
        <ele>50.86</ele>
        <time>2025-02-18T03:50:28.682Z</time>
      </trkpt>
      <trkpt lat="59.29084894247353" lon="14.132559970021248">
        <ele>50.72</ele>
        <time>2025-02-18T03:51:26.105Z</time>
      </trkpt>
      <trkpt lat="59.290919937193394" lon="14.132419992238283">
        <ele>50.58</ele>
        <time>2025-02-18T03:52:23.529Z</time>
      </trkpt>
      <trkpt lat="59.290988920256495" lon="14.132280936464667">
        <ele>50.45</ele>
        <time>2025-02-18T03:53:20.955Z</time>
      </trkpt>
      <trkpt lat="59.29105698131025" lon="14.132139952853322">
        <ele>50.31</ele>
        <time>2025-02-18T03:54:18.383Z</time>
      </trkpt>
      <trkpt lat="59.29112495854497" lon="14.131998969241977">
        <ele>50.17</ele>
        <time>2025-02-18T03:55:15.812Z</time>
      </trkpt>
      <trkpt lat="59.29119293577969" lon="14.13185697980225">
        <ele>50.04</ele>
        <time>2025-02-18T03:56:13.243Z</time>
      </trkpt>
      <trkpt lat="59.29126191884279" lon="14.131713984534144">
        <ele>49.9</ele>
        <time>2025-02-18T03:57:10.675Z</time>
      </trkpt>
      <trkpt lat="59.29133199155331" lon="14.131569983437657">
        <ele>49.77</ele>
        <time>2025-02-18T03:58:08.109Z</time>
      </trkpt>
      <trkpt lat="59.29140198044479" lon="14.131421959027648">
        <ele>49.64</ele>
        <time>2025-02-18T03:59:05.545Z</time>
      </trkpt>
      <trkpt lat="59.29147297516465" lon="14.131272928789258">
        <ele>49.52</ele>
        <time>2025-02-18T04:00:02.982Z</time>
      </trkpt>
      <trkpt lat="59.291544975712895" lon="14.13112297654152">
        <ele>49.39</ele>
        <time>2025-02-18T04:01:00.421Z</time>
      </trkpt>
      <trkpt lat="59.29161798208952" lon="14.130972940474749">
        <ele>49.27</ele>
        <time>2025-02-18T04:01:57.862Z</time>
      </trkpt>
      <trkpt lat="59.291690988466144" lon="14.13082198239863">
        <ele>49.15</ele>
        <time>2025-02-18T04:02:55.304Z</time>
      </trkpt>
      <trkpt lat="59.2917659226805" lon="14.130669934675097">
        <ele>49.02</ele>
        <time>2025-02-18T04:03:52.748Z</time>
      </trkpt>
      <trkpt lat="59.29184194654226" lon="14.130517970770597">
        <ele>48.91</ele>
        <time>2025-02-18T04:04:50.194Z</time>
      </trkpt>
      <trkpt lat="59.29191897623241" lon="14.130365923047066">
        <ele>48.79</ele>
        <time>2025-02-18T04:05:47.642Z</time>
      </trkpt>
      <trkpt lat="59.291994916275144" lon="14.130211947485805">
        <ele>48.67</ele>
        <time>2025-02-18T04:06:45.091Z</time>
      </trkpt>
      <trkpt lat="59.29207094013691" lon="14.130056966096163">
        <ele>48.55</ele>
        <time>2025-02-18T04:07:42.542Z</time>
      </trkpt>
      <trkpt lat="59.292145958170295" lon="14.12990097887814">
        <ele>48.44</ele>
        <time>2025-02-18T04:08:39.995Z</time>
      </trkpt>
      <trkpt lat="59.29222198203206" lon="14.129744991660118">
        <ele>48.32</ele>
        <time>2025-02-18T04:09:37.450Z</time>
      </trkpt>
      <trkpt lat="59.292295994237065" lon="14.129588920623064">
        <ele>48.21</ele>
        <time>2025-02-18T04:10:34.907Z</time>
      </trkpt>
      <trkpt lat="59.29237092845142" lon="14.129433939233422">
        <ele>48.1</ele>
        <time>2025-02-18T04:11:32.365Z</time>
      </trkpt>
      <trkpt lat="59.292447958141565" lon="14.129280969500542">
        <ele>47.99</ele>
        <time>2025-02-18T04:12:29.825Z</time>
      </trkpt>
      <trkpt lat="59.29252498783171" lon="14.129127999767661">
        <ele>47.88</ele>
        <time>2025-02-18T04:13:27.287Z</time>
      </trkpt>
      <trkpt lat="59.29260193370283" lon="14.128971928730607">
        <ele>47.78</ele>
        <time>2025-02-18T04:14:24.751Z</time>
      </trkpt>
      <trkpt lat="59.29267795756459" lon="14.128816947340965">
        <ele>47.67</ele>
        <time>2025-02-18T04:15:22.216Z</time>
      </trkpt>
      <trkpt lat="59.29275599308312" lon="14.128661965951324">
        <ele>47.57</ele>
        <time>2025-02-18T04:16:19.683Z</time>
      </trkpt>
      <trkpt lat="59.292833944782615" lon="14.12850497290492">
        <ele>47.46</ele>
        <time>2025-02-18T04:17:17.152Z</time>
      </trkpt>
      <trkpt lat="59.29291298612952" lon="14.128346974030137">
        <ele>47.36</ele>
        <time>2025-02-18T04:18:14.623Z</time>
      </trkpt>
      <trkpt lat="59.29299093782902" lon="14.128188975155354">
        <ele>47.27</ele>
        <time>2025-02-18T04:19:12.096Z</time>
      </trkpt>
      <trkpt lat="59.293068973347545" lon="14.12803198210895">
        <ele>47.18</ele>
        <time>2025-02-18T04:20:09.570Z</time>
      </trkpt>
      <trkpt lat="59.29314591921866" lon="14.127875994890928">
        <ele>47.09</ele>
        <time>2025-02-18T04:21:07.046Z</time>
      </trkpt>
      <trkpt lat="59.293222948908806" lon="14.127719923853874">
        <ele>47.0</ele>
        <time>2025-02-18T04:22:04.524Z</time>
      </trkpt>
      <trkpt lat="59.29329897277057" lon="14.127565948292613">
        <ele>46.92</ele>
        <time>2025-02-18T04:23:02.004Z</time>
      </trkpt>
      <trkpt lat="59.293375918641686" lon="14.127414990216494">
        <ele>46.84</ele>
        <time>2025-02-18T04:23:59.485Z</time>
      </trkpt>
      <trkpt lat="59.29345395416021" lon="14.127263948321342">
        <ele>46.76</ele>
        <time>2025-02-18T04:24:56.968Z</time>
      </trkpt>
      <trkpt lat="59.29352997802198" lon="14.127113996073604">
        <ele>46.67</ele>
        <time>2025-02-18T04:25:54.453Z</time>
      </trkpt>
      <trkpt lat="59.29360591806471" lon="14.126964965835214">
        <ele>46.59</ele>
        <time>2025-02-18T04:26:51.940Z</time>
      </trkpt>
      <trkpt lat="59.2936809360981" lon="14.126817947253585">
        <ele>46.51</ele>
        <time>2025-02-18T04:27:49.428Z</time>
      </trkpt>
      <trkpt lat="59.2937549483031" lon="14.126672940328717">
        <ele>46.44</ele>
        <time>2025-02-18T04:28:46.918Z</time>
      </trkpt>
      <trkpt lat="59.29382896050811" lon="14.126530950888991">
        <ele>46.37</ele>
        <time>2025-02-18T04:29:44.410Z</time>
      </trkpt>
      <trkpt lat="59.29390096105635" lon="14.126390973106027">
        <ele>46.29</ele>
        <time>2025-02-18T04:30:41.903Z</time>
      </trkpt>
      <trkpt lat="59.293971955776215" lon="14.126255940645933">
        <ele>46.21</ele>
        <time>2025-02-18T04:31:39.398Z</time>
      </trkpt>
      <trkpt lat="59.294040938839316" lon="14.126127948984504">
        <ele>46.15</ele>
        <time>2025-02-18T04:32:36.894Z</time>
      </trkpt>
      <trkpt lat="59.29410698823631" lon="14.126005992293358">
        <ele>46.08</ele>
        <time>2025-02-18T04:33:34.392Z</time>
      </trkpt>
      <trkpt lat="59.29417094215751" lon="14.125887975096703">
        <ele>46.02</ele>
        <time>2025-02-18T04:34:31.891Z</time>
      </trkpt>
      <trkpt lat="59.29423397406936" lon="14.125772975385189">
        <ele>45.96</ele>
        <time>2025-02-18T04:35:29.392Z</time>
      </trkpt>
      <trkpt lat="59.294295916333795" lon="14.125657975673676">
        <ele>45.9</ele>
        <time>2025-02-18T04:36:26.894Z</time>
      </trkpt>
      <trkpt lat="59.2943559307605" lon="14.125544987618923">
        <ele>45.84</ele>
        <time>2025-02-18T04:37:24.397Z</time>
      </trkpt>
      <trkpt lat="59.29441594518721" lon="14.12543292157352">
        <ele>45.79</ele>
        <time>2025-02-18T04:38:21.902Z</time>
      </trkpt>
      <trkpt lat="59.29447495378554" lon="14.125322951003909">
        <ele>45.74</ele>
        <time>2025-02-18T04:39:19.408Z</time>
      </trkpt>
      <trkpt lat="59.29453496821225" lon="14.125211974605918">
        <ele>45.69</ele>
        <time>2025-02-18T04:40:16.915Z</time>
      </trkpt>
      <trkpt lat="59.294592970982194" lon="14.125099992379546">
        <ele>45.64</ele>
        <time>2025-02-18T04:41:14.424Z</time>
      </trkpt>
      <trkpt lat="59.2946529854089" lon="14.124987926334143">
        <ele>45.59</ele>
        <time>2025-02-18T04:42:11.934Z</time>
      </trkpt>
      <trkpt lat="59.29471098817885" lon="14.12487493827939">
        <ele>45.55</ele>
        <time>2025-02-18T04:43:09.445Z</time>
      </trkpt>
      <trkpt lat="59.294767985120416" lon="14.124762956053019">
        <ele>45.5</ele>
        <time>2025-02-18T04:44:06.958Z</time>
      </trkpt>
      <trkpt lat="59.29482498206198" lon="14.124650973826647">
        <ele>45.46</ele>
        <time>2025-02-18T04:45:04.472Z</time>
      </trkpt>
      <trkpt lat="59.29488097317517" lon="14.124538991600275">
        <ele>45.42</ele>
        <time>2025-02-18T04:46:01.987Z</time>
      </trkpt>
      <trkpt lat="59.29493595845997" lon="14.124424997717142">
        <ele>45.39</ele>
        <time>2025-02-18T04:46:59.503Z</time>
      </trkpt>
      <trkpt lat="59.29498893208802" lon="14.124312931671739">
        <ele>45.35</ele>
        <time>2025-02-18T04:47:57.021Z</time>
      </trkpt>
      <trkpt lat="59.2950449232012" lon="14.12420497275889">
        <ele>45.32</ele>
        <time>2025-02-18T04:48:54.540Z</time>
      </trkpt>
      <trkpt lat="59.29510493762791" lon="14.124103970825672">
        <ele>45.29</ele>
        <time>2025-02-18T04:49:52.060Z</time>
      </trkpt>
      <trkpt lat="59.29517392069101" lon="14.124021995812654">
        <ele>45.26</ele>
        <time>2025-02-18T04:50:49.582Z</time>
      </trkpt>
      <trkpt lat="59.29524994455278" lon="14.123967932537198">
        <ele>45.23</ele>
        <time>2025-02-18T04:51:47.105Z</time>
      </trkpt>
      <trkpt lat="59.2953319195658" lon="14.123938931152225">
        <ele>45.21</ele>
        <time>2025-02-18T04:52:44.629Z</time>
      </trkpt>
      <trkpt lat="59.29541599005461" lon="14.123918982222676">
        <ele>45.19</ele>
        <time>2025-02-18T04:53:42.154Z</time>
      </trkpt>
      <trkpt lat="59.295497965067625" lon="14.123882940039039">
        <ele>45.17</ele>
        <time>2025-02-18T04:54:39.681Z</time>
      </trkpt>
      <trkpt lat="59.29557499475777" lon="14.123813956975937">
        <ele>45.15</ele>
        <time>2025-02-18T04:55:37.209Z</time>
      </trkpt>
      <trkpt lat="59.29564297199249" lon="14.123708931729198">
        <ele>45.13</ele>
        <time>2025-02-18T04:56:34.739Z</time>
      </trkpt>
      <trkpt lat="59.29569996893406" lon="14.123579934239388">
        <ele>45.11</ele>
        <time>2025-02-18T04:57:32.270Z</time>
      </trkpt>
      <trkpt lat="59.29574799723923" lon="14.123437944799662">
        <ele>45.1</ele>
        <time>2025-02-18T04:58:29.802Z</time>
      </trkpt>
      <trkpt lat="59.2957909964025" lon="14.123286986723542">
        <ele>45.08</ele>
        <time>2025-02-18T04:59:27.336Z</time>
      </trkpt>
      <trkpt lat="59.29583399556577" lon="14.12313493900001">
        <ele>45.07</ele>
        <time>2025-02-18T05:00:24.871Z</time>
      </trkpt>
      <trkpt lat="59.29588093422353" lon="14.122983980923891">
        <ele>45.06</ele>
        <time>2025-02-18T05:01:22.408Z</time>
      </trkpt>
      <trkpt lat="59.29593198001385" lon="14.122838973999023">
        <ele>45.05</ele>
        <time>2025-02-18T05:02:19.946Z</time>
      </trkpt>
      <trkpt lat="59.295988976955414" lon="14.122699918225408">
        <ele>45.04</ele>
        <time>2025-02-18T05:03:17.486Z</time>
      </trkpt>
      <trkpt lat="59.2960499972105" lon="14.122564969584346">
        <ele>45.04</ele>
        <time>2025-02-18T05:04:15.027Z</time>
      </trkpt>
      <trkpt lat="59.29611596278846" lon="14.122437983751297">
        <ele>45.04</ele>
        <time>2025-02-18T05:05:12.570Z</time>
      </trkpt>
      <trkpt lat="59.296183940023184" lon="14.122312925755978">
        <ele>45.04</ele>
        <time>2025-02-18T05:06:10.114Z</time>
      </trkpt>
      <trkpt lat="59.296251917257905" lon="14.12218795157969">
        <ele>45.04</ele>
        <time>2025-02-18T05:07:07.660Z</time>
      </trkpt>
      <trkpt lat="59.2963229957968" lon="14.122063983231783">
        <ele>45.04</ele>
        <time>2025-02-18T05:08:05.207Z</time>
      </trkpt>
      <trkpt lat="59.29639298468828" lon="14.121939931064844">
        <ele>45.05</ele>
        <time>2025-02-18T05:09:02.756Z</time>
      </trkpt>
      <trkpt lat="59.296462973579764" lon="14.121814956888556">
        <ele>45.06</ele>
        <time>2025-02-18T05:10:00.306Z</time>
      </trkpt>
      <trkpt lat="59.296531956642866" lon="14.12169098854065">
        <ele>45.07</ele>
        <time>2025-02-18T05:10:57.858Z</time>
      </trkpt>
      <trkpt lat="59.29659993387759" lon="14.121568948030472">
        <ele>45.07</ele>
        <time>2025-02-18T05:11:55.411Z</time>
      </trkpt>
      <trkpt lat="59.29666891694069" lon="14.121450930833817">
        <ele>45.09</ele>
        <time>2025-02-18T05:12:52.966Z</time>
      </trkpt>
      <trkpt lat="59.2967389896512" lon="14.121336936950684">
        <ele>45.11</ele>
        <time>2025-02-18T05:13:50.522Z</time>
      </trkpt>
      <trkpt lat="59.296807972714305" lon="14.12122193723917">
        <ele>45.14</ele>
        <time>2025-02-18T05:14:48.079Z</time>
      </trkpt>
      <trkpt lat="59.29687695577741" lon="14.121102998033166">
        <ele>45.16</ele>
        <time>2025-02-18T05:15:45.638Z</time>
      </trkpt>
      <trkpt lat="59.29694593884051" lon="14.12098498083651">
        <ele>45.19</ele>
        <time>2025-02-18T05:16:43.198Z</time>
      </trkpt>
      <trkpt lat="59.29701592773199" lon="14.120864951983094">
        <ele>45.23</ele>
        <time>2025-02-18T05:17:40.760Z</time>
      </trkpt>
      <trkpt lat="59.29708591662347" lon="14.120742995291948">
        <ele>45.26</ele>
        <time>2025-02-18T05:18:38.323Z</time>
      </trkpt>
      <trkpt lat="59.29715699516237" lon="14.120621960610151">
        <ele>45.28</ele>
        <time>2025-02-18T05:19:35.888Z</time>
      </trkpt>
      <trkpt lat="59.29722991771996" lon="14.120498998090625">
        <ele>45.31</ele>
        <time>2025-02-18T05:20:33.454Z</time>
      </trkpt>
      <trkpt lat="59.297303929924965" lon="14.120373940095305">
        <ele>45.34</ele>
        <time>2025-02-18T05:21:31.022Z</time>
      </trkpt>
      <trkpt lat="59.29737593047321" lon="14.12025298923254">
        <ele>45.37</ele>
        <time>2025-02-18T05:22:28.592Z</time>
      </trkpt>
      <trkpt lat="59.29744893684983" lon="14.120129942893982">
        <ele>45.39</ele>
        <time>2025-02-18T05:23:26.163Z</time>
      </trkpt>
      <trkpt lat="59.29752194322646" lon="14.120007986202836">
        <ele>45.43</ele>
        <time>2025-02-18T05:24:23.736Z</time>
      </trkpt>
      <trkpt lat="59.29759595543146" lon="14.119885945692658">
        <ele>45.46</ele>
        <time>2025-02-18T05:25:21.310Z</time>
      </trkpt>
      <trkpt lat="59.297669967636466" lon="14.119763989001513">
        <ele>45.49</ele>
        <time>2025-02-18T05:26:18.886Z</time>
      </trkpt>
      <trkpt lat="59.29774498566985" lon="14.119639936834574">
        <ele>45.53</ele>
        <time>2025-02-18T05:27:16.463Z</time>
      </trkpt>
      <trkpt lat="59.297817992046475" lon="14.119513956829906">
        <ele>45.57</ele>
        <time>2025-02-18T05:28:14.042Z</time>
      </trkpt>
      <trkpt lat="59.29789192043245" lon="14.119385965168476">
        <ele>45.6</ele>
        <time>2025-02-18T05:29:11.622Z</time>
      </trkpt>
      <trkpt lat="59.297967944294214" lon="14.119260990992188">
        <ele>45.65</ele>
        <time>2025-02-18T05:30:09.204Z</time>
      </trkpt>
      <trkpt lat="59.2980429623276" lon="14.11913693882525">
        <ele>45.69</ele>
        <time>2025-02-18T05:31:06.788Z</time>
      </trkpt>
      <trkpt lat="59.298118986189365" lon="14.119014982134104">
        <ele>45.74</ele>
        <time>2025-02-18T05:32:04.373Z</time>
      </trkpt>
      <trkpt lat="59.29819392040372" lon="14.118892941623926">
        <ele>45.78</ele>
        <time>2025-02-18T05:33:01.960Z</time>
      </trkpt>
      <trkpt lat="59.298267932608724" lon="14.118772996589541">
        <ele>45.82</ele>
        <time>2025-02-18T05:33:59.548Z</time>
      </trkpt>
      <trkpt lat="59.29834093898535" lon="14.118654979392886">
        <ele>45.87</ele>
        <time>2025-02-18T05:34:57.138Z</time>
      </trkpt>
      <trkpt lat="59.29841394536197" lon="14.11853495053947">
        <ele>45.91</ele>
        <time>2025-02-18T05:35:54.729Z</time>
      </trkpt>
      <trkpt lat="59.298485945910215" lon="14.118412993848324">
        <ele>45.96</ele>
        <time>2025-02-18T05:36:52.322Z</time>
      </trkpt>
      <trkpt lat="59.29855794645846" lon="14.118290953338146">
        <ele>46.0</ele>
        <time>2025-02-18T05:37:49.916Z</time>
      </trkpt>
      <trkpt lat="59.298631958663464" lon="14.118168996647">
        <ele>46.05</ele>
        <time>2025-02-18T05:38:47.512Z</time>
      </trkpt>
      <trkpt lat="59.29870496504009" lon="14.118045950308442">
        <ele>46.1</ele>
        <time>2025-02-18T05:39:45.110Z</time>
      </trkpt>
      <trkpt lat="59.29877797141671" lon="14.117922987788916">
        <ele>46.15</ele>
        <time>2025-02-18T05:40:42.709Z</time>
      </trkpt>
      <trkpt lat="59.298848966136575" lon="14.117799941450357">
        <ele>46.19</ele>
        <time>2025-02-18T05:41:40.310Z</time>
      </trkpt>
      <trkpt lat="59.29891996085644" lon="14.117680918425322">
        <ele>46.24</ele>
        <time>2025-02-18T05:42:37.912Z</time>
      </trkpt>
      <trkpt lat="59.2989909555763" lon="14.117562985047698">
        <ele>46.3</ele>
        <time>2025-02-18T05:43:35.516Z</time>
      </trkpt>
      <trkpt lat="59.299061950296164" lon="14.117444967851043">
        <ele>46.35</ele>
        <time>2025-02-18T05:44:33.121Z</time>
      </trkpt>
      <trkpt lat="59.299130933359265" lon="14.117325944826007">
        <ele>46.41</ele>
        <time>2025-02-18T05:45:30.728Z</time>
      </trkpt>
      <trkpt lat="59.29919991642237" lon="14.117211950942874">
        <ele>46.47</ele>
        <time>2025-02-18T05:46:28.336Z</time>
      </trkpt>
      <trkpt lat="59.2992689833045" lon="14.11709695123136">
        <ele>46.52</ele>
        <time>2025-02-18T05:47:25.945Z</time>
      </trkpt>
      <trkpt lat="59.2993379663676" lon="14.11698597483337">
        <ele>46.58</ele>
        <time>2025-02-18T05:48:23.556Z</time>
      </trkpt>
      <trkpt lat="59.29940594360232" lon="14.116875920444727">
        <ele>46.63</ele>
        <time>2025-02-18T05:49:21.168Z</time>
      </trkpt>
      <trkpt lat="59.299471992999315" lon="14.116763938218355">
        <ele>46.68</ele>
        <time>2025-02-18T05:50:18.782Z</time>
      </trkpt>
      <trkpt lat="59.299538964405656" lon="14.116654973477125">
        <ele>46.73</ele>
        <time>2025-02-18T05:51:16.397Z</time>
      </trkpt>
      <trkpt lat="59.299604929983616" lon="14.116548942402005">
        <ele>46.77</ele>
        <time>2025-02-18T05:52:14.014Z</time>
      </trkpt>
      <trkpt lat="59.29967097938061" lon="14.116441989317536">
        <ele>46.82</ele>
        <time>2025-02-18T05:53:11.632Z</time>
      </trkpt>
      <trkpt lat="59.29973694495857" lon="14.116332940757275">
        <ele>46.86</ele>
        <time>2025-02-18T05:54:09.251Z</time>
      </trkpt>
      <trkpt lat="59.29980299435556" lon="14.116221964359283">
        <ele>46.91</ele>
        <time>2025-02-18T05:55:06.872Z</time>
      </trkpt>
      <trkpt lat="59.29987097159028" lon="14.116110987961292">
        <ele>46.96</ele>
        <time>2025-02-18T05:56:04.494Z</time>
      </trkpt>
      <trkpt lat="59.29993995465338" lon="14.11599699407816">
        <ele>47.01</ele>
        <time>2025-02-18T05:57:02.118Z</time>
      </trkpt>
      <trkpt lat="59.300012961030006" lon="14.115881994366646">
        <ele>47.06</ele>
        <time>2025-02-18T05:57:59.743Z</time>
      </trkpt>
      <trkpt lat="59.30008596740663" lon="14.115767916664481">
        <ele>47.11</ele>
        <time>2025-02-18T05:58:57.370Z</time>
      </trkpt>
      <trkpt lat="59.300159979611635" lon="14.115651994943619">
        <ele>47.17</ele>
        <time>2025-02-18T05:59:54.998Z</time>
      </trkpt>
      <trkpt lat="59.30023499764502" lon="14.115537917241454">
        <ele>47.23</ele>
        <time>2025-02-18T06:00:52.628Z</time>
      </trkpt>
      <trkpt lat="59.300312949344516" lon="14.115428952500224">
        <ele>47.29</ele>
        <time>2025-02-18T06:01:50.259Z</time>
      </trkpt>
      <trkpt lat="59.30039098486304" lon="14.115320993587375">
        <ele>47.35</ele>
        <time>2025-02-18T06:02:47.892Z</time>
      </trkpt>
      <trkpt lat="59.30046893656254" lon="14.115213956683874">
        <ele>47.41</ele>
        <time>2025-02-18T06:03:45.526Z</time>
      </trkpt>
      <trkpt lat="59.300547977909446" lon="14.115107925608754">
        <ele>47.46</ele>
        <time>2025-02-18T06:04:43.162Z</time>
      </trkpt>
      <trkpt lat="59.30062592960894" lon="14.114999966695905">
        <ele>47.52</ele>
        <time>2025-02-18T06:05:40.799Z</time>
      </trkpt>
      <trkpt lat="59.30070597678423" lon="14.114893935620785">
        <ele>47.57</ele>
        <time>2025-02-18T06:06:38.438Z</time>
      </trkpt>
      <trkpt lat="59.300784934312105" lon="14.114789916202426">
        <ele>47.62</ele>
        <time>2025-02-18T06:07:36.078Z</time>
      </trkpt>
      <trkpt lat="59.30086498148739" lon="14.114685980603099">
        <ele>47.67</ele>
        <time>2025-02-18T06:08:33.720Z</time>
      </trkpt>
      <trkpt lat="59.30094393901527" lon="14.114583972841501">
        <ele>47.72</ele>
        <time>2025-02-18T06:09:31.363Z</time>
      </trkpt>
      <trkpt lat="59.30102499201894" lon="14.114482970908284">
        <ele>47.77</ele>
        <time>2025-02-18T06:10:29.008Z</time>
      </trkpt>
      <trkpt lat="59.301105961203575" lon="14.114384986460209">
        <ele>47.82</ele>
        <time>2025-02-18T06:11:26.654Z</time>
      </trkpt>
      <trkpt lat="59.30118592455983" lon="14.114287924021482">
        <ele>47.86</ele>
        <time>2025-02-18T06:12:24.302Z</time>
      </trkpt>
      <trkpt lat="59.30126597173512" lon="14.11419396288693">
        <ele>47.91</ele>
        <time>2025-02-18T06:13:21.951Z</time>
      </trkpt>
      <trkpt lat="59.301343923434615" lon="14.114100923761725">
        <ele>47.95</ele>
        <time>2025-02-18T06:14:19.602Z</time>
      </trkpt>
      <trkpt lat="59.30142296478152" lon="14.114010985940695">
        <ele>48.0</ele>
        <time>2025-02-18T06:15:17.254Z</time>
      </trkpt>
      <trkpt lat="59.30150292813778" lon="14.113923981785774">
        <ele>48.05</ele>
        <time>2025-02-18T06:16:14.908Z</time>
      </trkpt>
      <trkpt lat="59.30158498696983" lon="14.113836977630854">
        <ele>48.1</ele>
        <time>2025-02-18T06:17:12.563Z</time>
      </trkpt>
      <trkpt lat="59.301665956154466" lon="14.113746955990791">
        <ele>48.14</ele>
        <time>2025-02-18T06:18:10.220Z</time>
      </trkpt>
      <trkpt lat="59.30174793116748" lon="14.11365794017911">
        <ele>48.18</ele>
        <time>2025-02-18T06:19:07.878Z</time>
      </trkpt>
      <trkpt lat="59.30182898417115" lon="14.113570936024189">
        <ele>48.22</ele>
        <time>2025-02-18T06:20:05.538Z</time>
      </trkpt>
      <trkpt lat="59.30190995335579" lon="14.113483931869268">
        <ele>48.26</ele>
        <time>2025-02-18T06:21:03.199Z</time>
      </trkpt>
      <trkpt lat="59.30199293419719" lon="14.113397933542728">
        <ele>48.3</ele>
        <time>2025-02-18T06:22:00.862Z</time>
      </trkpt>
      <trkpt lat="59.302076920866966" lon="14.113309923559427">
        <ele>48.33</ele>
        <time>2025-02-18T06:22:58.526Z</time>
      </trkpt>
      <trkpt lat="59.30216199718416" lon="14.113220991566777">
        <ele>48.37</ele>
        <time>2025-02-18T06:23:56.192Z</time>
      </trkpt>
      <trkpt lat="59.302245983853936" lon="14.113130969926715">
        <ele>48.41</ele>
        <time>2025-02-18T06:24:53.859Z</time>
      </trkpt>
      <trkpt lat="59.302328964695334" lon="14.113044971600175">
        <ele>48.45</ele>
        <time>2025-02-18T06:25:51.528Z</time>
      </trkpt>
      <trkpt lat="59.30241194553673" lon="14.112960984930396">
        <ele>48.48</ele>
        <time>2025-02-18T06:26:49.198Z</time>
      </trkpt>
      <trkpt lat="59.30249492637813" lon="14.112877920269966">
        <ele>48.51</ele>
        <time>2025-02-18T06:27:46.870Z</time>
      </trkpt>
      <trkpt lat="59.3025759793818" lon="14.112796951085329">
        <ele>48.55</ele>
        <time>2025-02-18T06:28:44.543Z</time>
      </trkpt>
      <trkpt lat="59.302655942738056" lon="14.112714976072311">
        <ele>48.58</ele>
        <time>2025-02-18T06:29:42.218Z</time>
      </trkpt>
      <trkpt lat="59.302736995741725" lon="14.112634928897023">
        <ele>48.61</ele>
        <time>2025-02-18T06:30:39.894Z</time>
      </trkpt>
      <trkpt lat="59.3028159532696" lon="14.112557983025908">
        <ele>48.64</ele>
        <time>2025-02-18T06:31:37.572Z</time>
      </trkpt>
      <trkpt lat="59.302890971302986" lon="14.112484976649284">
        <ele>48.67</ele>
        <time>2025-02-18T06:32:35.251Z</time>
      </trkpt>
      <trkpt lat="59.30296397767961" lon="14.112415993586183">
        <ele>48.7</ele>
        <time>2025-02-18T06:33:32.931Z</time>
      </trkpt>
      <trkpt lat="59.30303497239947" lon="14.112351955845952">
        <ele>48.73</ele>
        <time>2025-02-18T06:34:30.613Z</time>
      </trkpt>
      <trkpt lat="59.303104961290956" lon="14.11228297278285">
        <ele>48.76</ele>
        <time>2025-02-18T06:35:28.296Z</time>
      </trkpt>
      <trkpt lat="59.30317394435406" lon="14.112221952527761">
        <ele>48.78</ele>
        <time>2025-02-18T06:36:25.980Z</time>
      </trkpt>
      <trkpt lat="59.30323999375105" lon="14.112160932272673">
        <ele>48.81</ele>
        <time>2025-02-18T06:37:23.665Z</time>
      </trkpt>
      <trkpt lat="59.30330394767225" lon="14.112104941159487">
        <ele>48.83</ele>
        <time>2025-02-18T06:38:21.351Z</time>
      </trkpt>
      <trkpt lat="59.3033669795841" lon="14.112053979188204">
        <ele>48.85</ele>
        <time>2025-02-18T06:39:19.038Z</time>
      </trkpt>
      <trkpt lat="59.303423976525664" lon="14.11200293339789">
        <ele>48.87</ele>
        <time>2025-02-18T06:40:16.726Z</time>
      </trkpt>
      <trkpt lat="59.30347695015371" lon="14.111954988911748">
        <ele>48.89</ele>
        <time>2025-02-18T06:41:14.415Z</time>
      </trkpt>
      <trkpt lat="59.30352598428726" lon="14.111910983920097">
        <ele>48.92</ele>
        <time>2025-02-18T06:42:12.105Z</time>
      </trkpt>
      <trkpt lat="59.30357099510729" lon="14.111870918422937">
        <ele>48.94</ele>
        <time>2025-02-18T06:43:09.796Z</time>
      </trkpt>
      <trkpt lat="59.30361298844218" lon="14.11183294840157">
        <ele>48.96</ele>
        <time>2025-02-18T06:44:07.488Z</time>
      </trkpt>
      <trkpt lat="59.30364995263517" lon="14.111798917874694">
        <ele>48.98</ele>
        <time>2025-02-18T06:45:05.180Z</time>
      </trkpt>
      <trkpt lat="59.303682977333665" lon="14.11176698282361">
        <ele>49.0</ele>
        <time>2025-02-18T06:46:02.873Z</time>
      </trkpt>
      <trkpt lat="59.303707955405116" lon="14.111738987267017">
        <ele>49.02</ele>
        <time>2025-02-18T06:47:00.567Z</time>
      </trkpt>
      <trkpt lat="59.30372899398208" lon="14.111713925376534">
        <ele>49.04</ele>
        <time>2025-02-18T06:47:58.261Z</time>
      </trkpt>
      <trkpt lat="59.30374592542648" lon="14.111693976446986">
        <ele>49.06</ele>
        <time>2025-02-18T06:48:55.955Z</time>
      </trkpt>
      <trkpt lat="59.30376092903316" lon="14.11167897284031">
        <ele>49.08</ele>
        <time>2025-02-18T06:49:53.650Z</time>
      </trkpt>
      <trkpt lat="59.303770987316966" lon="14.111664975062013">
        <ele>49.09</ele>
        <time>2025-02-18T06:50:51.345Z</time>
      </trkpt>
      <trkpt lat="59.3037779442966" lon="14.111647959798574">
        <ele>49.11</ele>
        <time>2025-02-18T06:51:49.040Z</time>
      </trkpt>
      <trkpt lat="59.30378498509526" lon="14.111634967848659">
        <ele>49.13</ele>
        <time>2025-02-18T06:52:46.735Z</time>
      </trkpt>
      <trkpt lat="59.303793953731656" lon="14.111622981727123">
        <ele>49.14</ele>
        <time>2025-02-18T06:53:44.430Z</time>
      </trkpt>
      <trkpt lat="59.30380493402481" lon="14.111611917614937">
        <ele>49.16</ele>
        <time>2025-02-18T06:54:42.125Z</time>
      </trkpt>
      <trkpt lat="59.30381499230862" lon="14.111598925665021">
        <ele>49.17</ele>
        <time>2025-02-18T06:55:39.821Z</time>
      </trkpt>
      <trkpt lat="59.30382899008691" lon="14.111584927886724">
        <ele>49.18</ele>
        <time>2025-02-18T06:56:37.517Z</time>
      </trkpt>
      <trkpt lat="59.30384793318808" lon="14.111568918451667">
        <ele>49.2</ele>
        <time>2025-02-18T06:57:35.213Z</time>
      </trkpt>
      <trkpt lat="59.30386997759342" lon="14.111548969522119">
        <ele>49.21</ele>
        <time>2025-02-18T06:58:32.910Z</time>
      </trkpt>
      <trkpt lat="59.30389193817973" lon="14.111525919288397">
        <ele>49.22</ele>
        <time>2025-02-18T06:59:30.607Z</time>
      </trkpt>
      <trkpt lat="59.30391398258507" lon="14.111503958702087">
        <ele>49.23</ele>
        <time>2025-02-18T07:00:28.304Z</time>
      </trkpt>
      <trkpt lat="59.30393594317138" lon="14.111474957317114">
        <ele>49.24</ele>
        <time>2025-02-18T07:01:26.002Z</time>
      </trkpt>
      <trkpt lat="59.30395597591996" lon="14.111439920961857">
        <ele>49.25</ele>
        <time>2025-02-18T07:02:23.700Z</time>
      </trkpt>
      <trkpt lat="59.30397399701178" lon="14.111396921798587">
        <ele>49.26</ele>
        <time>2025-02-18T07:03:21.399Z</time>
      </trkpt>
      <trkpt lat="59.3039869889617" lon="14.111343948170543">
        <ele>49.27</ele>
        <time>2025-02-18T07:04:19.098Z</time>
      </trkpt>
      <trkpt lat="59.304001992568374" lon="14.111283933743834">
        <ele>49.28</ele>
        <time>2025-02-18T07:05:16.798Z</time>
      </trkpt>
      <trkpt lat="59.304006937891245" lon="14.111218973994255">
        <ele>49.28</ele>
        <time>2025-02-18T07:06:14.498Z</time>
      </trkpt>
      <trkpt lat="59.304007943719625" lon="14.11114395596087">
        <ele>49.29</ele>
        <time>2025-02-18T07:07:12.199Z</time>
      </trkpt>
      <trkpt lat="59.304006937891245" lon="14.11105795763433">
        <ele>49.3</ele>
        <time>2025-02-18T07:08:09.901Z</time>
      </trkpt>
      <trkpt lat="59.304001992568374" lon="14.110965924337506">
        <ele>49.31</ele>
        <time>2025-02-18T07:09:07.603Z</time>
      </trkpt>
      <trkpt lat="59.30399394594133" lon="14.110868945717812">
        <ele>49.32</ele>
        <time>2025-02-18T07:10:05.306Z</time>
      </trkpt>
      <trkpt lat="59.303985983133316" lon="14.110767943784595">
        <ele>49.32</ele>
        <time>2025-02-18T07:11:03.010Z</time>
      </trkpt>
      <trkpt lat="59.30397793650627" lon="14.110664930194616">
        <ele>49.33</ele>
        <time>2025-02-18T07:12:00.715Z</time>
      </trkpt>
      <trkpt lat="59.30397198535502" lon="14.11056099459529">
        <ele>49.34</ele>
        <time>2025-02-18T07:12:58.421Z</time>
      </trkpt>
      <trkpt lat="59.303964944556355" lon="14.110453957691789">
        <ele>49.34</ele>
        <time>2025-02-18T07:13:56.128Z</time>
      </trkpt>
      <trkpt lat="59.30395698174834" lon="14.110341975465417">
        <ele>49.35</ele>
        <time>2025-02-18T07:14:53.836Z</time>
      </trkpt>
      <trkpt lat="59.30395094677806" lon="14.110223958268762">
        <ele>49.35</ele>
        <time>2025-02-18T07:15:51.544Z</time>
      </trkpt>
      <trkpt lat="59.30394398979843" lon="14.110100995749235">
        <ele>49.36</ele>
        <time>2025-02-18T07:16:49.254Z</time>
      </trkpt>
      <trkpt lat="59.30393694899976" lon="14.109974931925535">
        <ele>49.36</ele>
        <time>2025-02-18T07:17:46.965Z</time>
      </trkpt>
      <trkpt lat="59.30392697453499" lon="14.109850963577628">
        <ele>49.36</ele>
        <time>2025-02-18T07:18:44.677Z</time>
      </trkpt>
      <trkpt lat="59.303920939564705" lon="14.10972892306745">
        <ele>49.36</ele>
        <time>2025-02-18T07:19:42.390Z</time>
      </trkpt>
      <trkpt lat="59.30391398258507" lon="14.109606966376305">
        <ele>49.36</ele>
        <time>2025-02-18T07:20:40.104Z</time>
      </trkpt>
      <trkpt lat="59.30390593595803" lon="14.109481992200017">
        <ele>49.37</ele>
        <time>2025-02-18T07:21:37.819Z</time>
      </trkpt>
      <trkpt lat="59.303897973150015" lon="14.109356934204698">
        <ele>49.37</ele>
        <time>2025-02-18T07:22:35.535Z</time>
      </trkpt>
      <trkpt lat="59.30388892069459" lon="14.10923095420003">
        <ele>49.37</ele>
        <time>2025-02-18T07:23:33.252Z</time>
      </trkpt>
      <trkpt lat="59.303879952058196" lon="14.109100950881839">
        <ele>49.37</ele>
        <time>2025-02-18T07:24:30.970Z</time>
      </trkpt>
      <trkpt lat="59.3038709834218" lon="14.108966924250126">
        <ele>49.37</ele>
        <time>2025-02-18T07:25:28.689Z</time>
      </trkpt>
      <trkpt lat="59.30386293679476" lon="14.108829963952303">
        <ele>49.38</ele>
        <time>2025-02-18T07:26:26.409Z</time>
      </trkpt>
      <trkpt lat="59.303854973986745" lon="14.108690991997719">
        <ele>49.38</ele>
        <time>2025-02-18T07:27:24.130Z</time>
      </trkpt>
      <trkpt lat="59.30384793318808" lon="14.108549924567342">
        <ele>49.38</ele>
        <time>2025-02-18T07:28:21.852Z</time>
      </trkpt>
      <trkpt lat="59.30383896455169" lon="14.108408940955997">
        <ele>49.38</ele>
        <time>2025-02-18T07:29:19.575Z</time>
      </trkpt>
      <trkpt lat="59.30382899008691" lon="14.10826695151627">
        <ele>49.38</ele>
        <time>2025-02-18T07:30:17.300Z</time>
      </trkpt>
      <trkpt lat="59.30381893180311" lon="14.108124962076545">
        <ele>49.38</ele>
        <time>2025-02-18T07:31:15.026Z</time>
      </trkpt>
      <trkpt lat="59.303812980651855" lon="14.107978949323297">
        <ele>49.38</ele>
        <time>2025-02-18T07:32:12.753Z</time>
      </trkpt>
      <trkpt lat="59.303809963166714" lon="14.107828997075558">
        <ele>49.38</ele>
        <time>2025-02-18T07:33:10.481Z</time>
      </trkpt>
      <trkpt lat="59.30380795150995" lon="14.107676949352026">
        <ele>49.38</ele>
        <time>2025-02-18T07:34:08.211Z</time>
      </trkpt>
      <trkpt lat="59.303809963166714" lon="14.107522973790765">
        <ele>49.37</ele>
        <time>2025-02-18T07:35:05.942Z</time>
      </trkpt>
      <trkpt lat="59.30381499230862" lon="14.107367992401123">
        <ele>49.37</ele>
        <time>2025-02-18T07:36:03.674Z</time>
      </trkpt>
      <trkpt lat="59.30382396094501" lon="14.10721493884921">
        <ele>49.37</ele>
        <time>2025-02-18T07:37:01.407Z</time>
      </trkpt>
      <trkpt lat="59.30383896455169" lon="14.10706297494471">
        <ele>49.37</ele>
        <time>2025-02-18T07:37:59.142Z</time>
      </trkpt>
      <trkpt lat="59.30385799147189" lon="14.106914950534701">
        <ele>49.36</ele>
        <time>2025-02-18T07:38:56.878Z</time>
      </trkpt>
      <trkpt lat="59.30388296954334" lon="14.106770949438214">
        <ele>49.36</ele>
        <time>2025-02-18T07:39:54.615Z</time>
      </trkpt>
      <trkpt lat="59.30391297675669" lon="14.10663097165525">
        <ele>49.35</ele>
        <time>2025-02-18T07:40:52.353Z</time>
      </trkpt>
      <trkpt lat="59.3039489351213" lon="14.106496945023537">
        <ele>49.35</ele>
        <time>2025-02-18T07:41:50.093Z</time>
      </trkpt>
      <trkpt lat="59.30398799479008" lon="14.106364930048585">
        <ele>49.34</ele>
        <time>2025-02-18T07:42:47.834Z</time>
      </trkpt>
      <trkpt lat="59.30402998812497" lon="14.106235932558775">
        <ele>49.32</ele>
        <time>2025-02-18T07:43:45.576Z</time>
      </trkpt>
      <trkpt lat="59.30407399311662" lon="14.106109952554107">
        <ele>49.31</ele>
        <time>2025-02-18T07:44:43.319Z</time>
      </trkpt>
      <trkpt lat="59.30411892011762" lon="14.105984978377819">
        <ele>49.29</ele>
        <time>2025-02-18T07:45:41.064Z</time>
      </trkpt>
      <trkpt lat="59.30416594259441" lon="14.105862937867641">
        <ele>49.28</ele>
        <time>2025-02-18T07:46:38.810Z</time>
      </trkpt>
      <trkpt lat="59.30421598255634" lon="14.105742992833257">
        <ele>49.27</ele>
        <time>2025-02-18T07:47:36.557Z</time>
      </trkpt>
      <trkpt lat="59.304266944527626" lon="14.10562296397984">
        <ele>49.26</ele>
        <time>2025-02-18T07:48:34.305Z</time>
      </trkpt>
      <trkpt lat="59.30431991815567" lon="14.105506958439946">
        <ele>49.24</ele>
        <time>2025-02-18T07:49:32.055Z</time>
      </trkpt>
      <trkpt lat="59.30437599308789" lon="14.105391958728433">
        <ele>49.22</ele>
        <time>2025-02-18T07:50:29.806Z</time>
      </trkpt>
      <trkpt lat="59.304435923695564" lon="14.105282993987203">
        <ele>49.21</ele>
        <time>2025-02-18T07:51:27.558Z</time>
      </trkpt>
      <trkpt lat="59.304497949779034" lon="14.105175957083702">
        <ele>49.19</ele>
        <time>2025-02-18T07:52:25.312Z</time>
      </trkpt>
      <trkpt lat="59.304560981690884" lon="14.105074955150485">
        <ele>49.18</ele>
        <time>2025-02-18T07:53:23.067Z</time>
      </trkpt>
      <trkpt lat="59.3046239297837" lon="14.104979988187551">
        <ele>49.16</ele>
        <time>2025-02-18T07:54:20.823Z</time>
      </trkpt>
      <trkpt lat="59.30468696169555" lon="14.104888960719109">
        <ele>49.13</ele>
        <time>2025-02-18T07:55:18.580Z</time>
      </trkpt>
      <trkpt lat="59.30475192144513" lon="14.104798939079046">
        <ele>49.12</ele>
        <time>2025-02-18T07:56:16.339Z</time>
      </trkpt>
      <trkpt lat="59.30481797084212" lon="14.104708917438984">
        <ele>49.1</ele>
        <time>2025-02-18T07:57:14.099Z</time>
      </trkpt>
      <trkpt lat="59.304886953905225" lon="14.104621997103095">
        <ele>49.08</ele>
        <time>2025-02-18T07:58:11.860Z</time>
      </trkpt>
      <trkpt lat="59.30495895445347" lon="14.104535998776555">
        <ele>49.06</ele>
        <time>2025-02-18T07:59:09.623Z</time>
      </trkpt>
      <trkpt lat="59.30503196083009" lon="14.104452934116125">
        <ele>49.04</ele>
        <time>2025-02-18T08:00:07.387Z</time>
      </trkpt>
      <trkpt lat="59.30510697886348" lon="14.104370959103107">
        <ele>49.01</ele>
        <time>2025-02-18T08:01:05.152Z</time>
      </trkpt>
      <trkpt lat="59.30518392473459" lon="14.10429292358458">
        <ele>48.98</ele>
        <time>2025-02-18T08:02:02.919Z</time>
      </trkpt>
      <trkpt lat="59.30526196025312" lon="14.104218995198607">
        <ele>48.96</ele>
        <time>2025-02-18T08:03:00.687Z</time>
      </trkpt>
      <trkpt lat="59.305340917780995" lon="14.104145988821983">
        <ele>48.93</ele>
        <time>2025-02-18T08:03:58.457Z</time>
      </trkpt>
      <trkpt lat="59.305421970784664" lon="14.10407298244536">
        <ele>48.9</ele>
        <time>2025-02-18T08:04:56.228Z</time>
      </trkpt>
      <trkpt lat="59.30550394579768" lon="14.104000981897116">
        <ele>48.87</ele>
        <time>2025-02-18T08:05:54.000Z</time>
      </trkpt>
      <trkpt lat="59.30558793246746" lon="14.103931998834014">
        <ele>48.83</ele>
        <time>2025-02-18T08:06:51.774Z</time>
      </trkpt>
      <trkpt lat="59.30567292496562" lon="14.10386293195188">
        <ele>48.79</ele>
        <time>2025-02-18T08:07:49.549Z</time>
      </trkpt>
      <trkpt lat="59.30575892329216" lon="14.103793948888779">
        <ele>48.74</ele>
        <time>2025-02-18T08:08:47.326Z</time>
      </trkpt>
      <trkpt lat="59.30584693327546" lon="14.103719936683774">
        <ele>48.7</ele>
        <time>2025-02-18T08:09:45.104Z</time>
      </trkpt>
      <trkpt lat="59.30593393743038" lon="14.103652965277433">
        <ele>48.66</ele>
        <time>2025-02-18T08:10:42.884Z</time>
      </trkpt>
      <trkpt lat="59.30602295324206" lon="14.103586999699473">
        <ele>48.62</ele>
        <time>2025-02-18T08:11:40.665Z</time>
      </trkpt>
      <trkpt lat="59.306112974882126" lon="14.103519944474101">
        <ele>48.57</ele>
        <time>2025-02-18T08:12:38.448Z</time>
      </trkpt>
      <trkpt lat="59.30620391853154" lon="14.103455990552902">
        <ele>48.54</ele>
        <time>2025-02-18T08:13:36.233Z</time>
      </trkpt>
      <trkpt lat="59.30629494599998" lon="14.103391952812672">
        <ele>48.5</ele>
        <time>2025-02-18T08:14:34.019Z</time>
      </trkpt>
      <trkpt lat="59.306388990953565" lon="14.103330932557583">
        <ele>48.46</ele>
        <time>2025-02-18T08:15:31.807Z</time>
      </trkpt>
      <trkpt lat="59.30648295208812" lon="14.103273935616016">
        <ele>48.42</ele>
        <time>2025-02-18T08:16:29.596Z</time>
      </trkpt>
      <trkpt lat="59.3065769970417" lon="14.103219956159592">
        <ele>48.38</ele>
        <time>2025-02-18T08:17:27.387Z</time>
      </trkpt>
      <trkpt lat="59.306671964004636" lon="14.103171927854419">
        <ele>48.34</ele>
        <time>2025-02-18T08:18:25.179Z</time>
      </trkpt>
      <trkpt lat="59.30676793679595" lon="14.103119960054755">
        <ele>48.3</ele>
        <time>2025-02-18T08:19:22.973Z</time>
      </trkpt>
      <trkpt lat="59.306861981749535" lon="14.103062963113189">
        <ele>48.26</ele>
        <time>2025-02-18T08:20:20.769Z</time>
      </trkpt>
      <trkpt lat="59.30695493705571" lon="14.102997919544578">
        <ele>48.21</ele>
        <time>2025-02-18T08:21:18.566Z</time>
      </trkpt>
      <trkpt lat="59.30704395286739" lon="14.102925918996334">
        <ele>48.16</ele>
        <time>2025-02-18T08:22:16.365Z</time>
      </trkpt>
      <trkpt lat="59.30712995119393" lon="14.102847967296839">
        <ele>48.11</ele>
        <time>2025-02-18T08:23:14.165Z</time>
      </trkpt>
      <trkpt lat="59.30720999836922" lon="14.102757945656776">
        <ele>48.07</ele>
        <time>2025-02-18T08:24:11.967Z</time>
      </trkpt>
      <trkpt lat="59.30728895589709" lon="14.10265895538032">
        <ele>48.03</ele>
        <time>2025-02-18T08:25:09.770Z</time>
      </trkpt>
      <trkpt lat="59.30736497975886" lon="14.102553930133581">
        <ele>47.99</ele>
        <time>2025-02-18T08:26:07.575Z</time>
      </trkpt>
      <trkpt lat="59.3074369803071" lon="14.102439936250448">
        <ele>47.95</ele>
        <time>2025-02-18T08:27:05.381Z</time>
      </trkpt>
      <trkpt lat="59.307507975026965" lon="14.102317979559302">
        <ele>47.9</ele>
        <time>2025-02-18T08:28:03.189Z</time>
      </trkpt>
      <trkpt lat="59.307575952261686" lon="14.102189987897873">
        <ele>47.86</ele>
        <time>2025-02-18T08:29:00.998Z</time>
      </trkpt>
      <trkpt lat="59.3076409958303" lon="14.10205495543778">
        <ele>47.81</ele>
        <time>2025-02-18T08:29:58.809Z</time>
      </trkpt>
      <trkpt lat="59.307703943923116" lon="14.101916989311576">
        <ele>47.76</ele>
        <time>2025-02-18T08:30:56.621Z</time>
      </trkpt>
      <trkpt lat="59.307763958349824" lon="14.101772988215089">
        <ele>47.71</ele>
        <time>2025-02-18T08:31:54.435Z</time>
      </trkpt>
      <trkpt lat="59.30781994946301" lon="14.101627981290221">
        <ele>47.67</ele>
        <time>2025-02-18T08:32:52.250Z</time>
      </trkpt>
      <trkpt lat="59.307875940576196" lon="14.10147794522345">
        <ele>47.62</ele>
        <time>2025-02-18T08:33:50.067Z</time>
      </trkpt>
      <trkpt lat="59.30793293751776" lon="14.101327992975712">
        <ele>47.58</ele>
        <time>2025-02-18T08:34:47.885Z</time>
      </trkpt>
      <trkpt lat="59.30798993445933" lon="14.101173933595419">
        <ele>47.52</ele>
        <time>2025-02-18T08:35:45.705Z</time>
      </trkpt>
      <trkpt lat="59.308047937229276" lon="14.101021969690919">
        <ele>47.47</ele>
        <time>2025-02-18T08:36:43.526Z</time>
      </trkpt>
      <trkpt lat="59.30810593999922" lon="14.100876962766051">
        <ele>47.42</ele>
        <time>2025-02-18T08:37:41.349Z</time>
      </trkpt>
      <trkpt lat="59.30816394276917" lon="14.100728938356042">
        <ele>47.38</ele>
        <time>2025-02-18T08:38:39.174Z</time>
      </trkpt>
      <trkpt lat="59.308220939710736" lon="14.100579991936684">
        <ele>47.33</ele>
        <time>2025-02-18T08:39:37.000Z</time>
      </trkpt>
      <trkpt lat="59.30827693082392" lon="14.100432973355055">
        <ele>47.27</ele>
        <time>2025-02-18T08:40:34.828Z</time>
      </trkpt>
      <trkpt lat="59.30833292193711" lon="14.100283943116665">
        <ele>47.23</ele>
        <time>2025-02-18T08:41:32.657Z</time>
      </trkpt>
      <trkpt lat="59.308386985212564" lon="14.100135918706656">
        <ele>47.18</ele>
        <time>2025-02-18T08:42:30.488Z</time>
      </trkpt>
      <trkpt lat="59.30843995884061" lon="14.099989989772439">
        <ele>47.14</ele>
        <time>2025-02-18T08:43:28.320Z</time>
      </trkpt>
      <trkpt lat="59.30849393829703" lon="14.099853951483965">
        <ele>47.08</ele>
        <time>2025-02-18T08:44:26.153Z</time>
      </trkpt>
      <trkpt lat="59.30854699574411" lon="14.099729983136058">
        <ele>47.03</ele>
        <time>2025-02-18T08:45:23.988Z</time>
      </trkpt>
      <trkpt lat="59.30859896354377" lon="14.099613977596164">
        <ele>46.98</ele>
        <time>2025-02-18T08:46:21.824Z</time>
      </trkpt>
      <trkpt lat="59.30865193717182" lon="14.099503923207521">
        <ele>46.93</ele>
        <time>2025-02-18T08:47:19.661Z</time>
      </trkpt>
      <trkpt lat="59.30870097130537" lon="14.099396970123053">
        <ele>46.88</ele>
        <time>2025-02-18T08:48:17.499Z</time>
      </trkpt>
      <trkpt lat="59.30875092744827" lon="14.099295968189836">
        <ele>46.83</ele>
        <time>2025-02-18T08:49:15.339Z</time>
      </trkpt>
      <trkpt lat="59.308799961581826" lon="14.099199995398521">
        <ele>46.78</ele>
        <time>2025-02-18T08:50:13.180Z</time>
      </trkpt>
      <trkpt lat="59.30884899571538" lon="14.099104944616556">
        <ele>46.74</ele>
        <time>2025-02-18T08:51:11.022Z</time>
      </trkpt>
      <trkpt lat="59.30889995768666" lon="14.099007965996861">
        <ele>46.69</ele>
        <time>2025-02-18T08:52:08.865Z</time>
      </trkpt>
      <trkpt lat="59.30895293131471" lon="14.098916938528419">
        <ele>46.64</ele>
        <time>2025-02-18T08:53:06.709Z</time>
      </trkpt>
      <trkpt lat="59.30900598876178" lon="14.098827922716737">
        <ele>46.59</ele>
        <time>2025-02-18T08:54:04.554Z</time>
      </trkpt>
      <trkpt lat="59.30906097404659" lon="14.098740918561816">
        <ele>46.55</ele>
        <time>2025-02-18T08:55:02.400Z</time>
      </trkpt>
      <trkpt lat="59.30911595933139" lon="14.098655926063657">
        <ele>46.5</ele>
        <time>2025-02-18T08:56:00.247Z</time>
      </trkpt>
      <trkpt lat="59.30917295627296" lon="14.09857495687902">
        <ele>46.45</ele>
        <time>2025-02-18T08:56:58.096Z</time>
      </trkpt>
      <trkpt lat="59.309229953214526" lon="14.098498933017254">
        <ele>46.41</ele>
        <time>2025-02-18T08:57:55.946Z</time>
      </trkpt>
      <trkpt lat="59.309288961812854" lon="14.09842592664063">
        <ele>46.37</ele>
        <time>2025-02-18T08:58:53.797Z</time>
      </trkpt>
      <trkpt lat="59.30934897623956" lon="14.098357949405909">
        <ele>46.32</ele>
        <time>2025-02-18T08:59:51.649Z</time>
      </trkpt>
      <trkpt lat="59.30941192433238" lon="14.09829592332244">
        <ele>46.28</ele>
        <time>2025-02-18T09:00:49.502Z</time>
      </trkpt>
      <trkpt lat="59.30947696790099" lon="14.098239932209253">
        <ele>46.23</ele>
        <time>2025-02-18T09:01:47.356Z</time>
      </trkpt>
      <trkpt lat="59.30954494513571" lon="14.09818796440959">
        <ele>46.19</ele>
        <time>2025-02-18T09:02:45.211Z</time>
      </trkpt>
      <trkpt lat="59.309614934027195" lon="14.098139936104417">
        <ele>46.15</ele>
        <time>2025-02-18T09:03:43.068Z</time>
      </trkpt>
      <trkpt lat="59.30968693457544" lon="14.098097942769527">
        <ele>46.11</ele>
        <time>2025-02-18T09:04:40.926Z</time>
      </trkpt>
      <trkpt lat="59.30975994095206" lon="14.09805997274816">
        <ele>46.07</ele>
        <time>2025-02-18T09:05:38.785Z</time>
      </trkpt>
      <trkpt lat="59.30983596481383" lon="14.098028959706426">
        <ele>46.03</ele>
        <time>2025-02-18T09:06:36.645Z</time>
      </trkpt>
      <trkpt lat="59.309913916513324" lon="14.098003981634974">
        <ele>46.0</ele>
        <time>2025-02-18T09:07:34.507Z</time>
      </trkpt>
      <trkpt lat="59.30999396368861" lon="14.097984954714775">
        <ele>45.96</ele>
        <time>2025-02-18T09:08:32.370Z</time>
      </trkpt>
      <trkpt lat="59.31007392704487" lon="14.09797397442162">
        <ele>45.93</ele>
        <time>2025-02-18T09:09:30.234Z</time>
      </trkpt>
      <trkpt lat="59.3101569917053" lon="14.097970956936479">
        <ele>45.89</ele>
        <time>2025-02-18T09:10:28.099Z</time>
      </trkpt>
      <trkpt lat="59.31024097837508" lon="14.097976991906762">
        <ele>45.86</ele>
        <time>2025-02-18T09:11:25.966Z</time>
      </trkpt>
      <trkpt lat="59.31032597087324" lon="14.097990989685059">
        <ele>45.82</ele>
        <time>2025-02-18T09:12:23.834Z</time>
      </trkpt>
      <trkpt lat="59.310409957543015" lon="14.098011944442987">
        <ele>45.78</ele>
        <time>2025-02-18T09:13:21.703Z</time>
      </trkpt>
      <trkpt lat="59.310496961697936" lon="14.09803792834282">
        <ele>45.74</ele>
        <time>2025-02-18T09:14:19.574Z</time>
      </trkpt>
      <trkpt lat="59.31058396585286" lon="14.098067935556173">
        <ele>45.7</ele>
        <time>2025-02-18T09:15:17.446Z</time>
      </trkpt>
      <trkpt lat="59.3106699641794" lon="14.098103977739811">
        <ele>45.65</ele>
        <time>2025-02-18T09:16:15.320Z</time>
      </trkpt>
      <trkpt lat="59.31075596250594" lon="14.09814395941794">
        <ele>45.62</ele>
        <time>2025-02-18T09:17:13.195Z</time>
      </trkpt>
      <trkpt lat="59.310840955004096" lon="14.098185952752829">
        <ele>45.58</ele>
        <time>2025-02-18T09:18:11.072Z</time>
      </trkpt>
      <trkpt lat="59.310925947502255" lon="14.09823196940124">
        <ele>45.55</ele>
        <time>2025-02-18T09:19:08.950Z</time>
      </trkpt>
      <trkpt lat="59.311009934172034" lon="14.098281925544143">
        <ele>45.52</ele>
        <time>2025-02-18T09:20:06.829Z</time>
      </trkpt>
      <trkpt lat="59.31109392084181" lon="14.098333977162838">
        <ele>45.48</ele>
        <time>2025-02-18T09:21:04.710Z</time>
      </trkpt>
      <trkpt lat="59.311178997159004" lon="14.098388962447643">
        <ele>45.46</ele>
        <time>2025-02-18T09:22:02.592Z</time>
      </trkpt>
      <trkpt lat="59.31126298382878" lon="14.098447971045971">
        <ele>45.43</ele>
        <time>2025-02-18T09:23:00.476Z</time>
      </trkpt>
      <trkpt lat="59.31134697049856" lon="14.09850999712944">
        <ele>45.4</ele>
        <time>2025-02-18T09:23:58.361Z</time>
      </trkpt>
      <trkpt lat="59.3114279396832" lon="14.09857395105064">
        <ele>45.37</ele>
        <time>2025-02-18T09:24:56.247Z</time>
      </trkpt>
      <trkpt lat="59.31150698103011" lon="14.0986399166286">
        <ele>45.35</ele>
        <time>2025-02-18T09:25:54.135Z</time>
      </trkpt>
      <trkpt lat="59.3115849327296" lon="14.098705966025591">
        <ele>45.33</ele>
        <time>2025-02-18T09:26:52.024Z</time>
      </trkpt>
      <trkpt lat="59.31165995076299" lon="14.098772937431931">
        <ele>45.31</ele>
        <time>2025-02-18T09:27:49.915Z</time>
      </trkpt>
      <trkpt lat="59.31173094548285" lon="14.098842926323414">
        <ele>45.28</ele>
        <time>2025-02-18T09:28:47.807Z</time>
      </trkpt>
      <trkpt lat="59.31179598905146" lon="14.098915932700038">
        <ele>45.26</ele>
        <time>2025-02-18T09:29:45.700Z</time>
      </trkpt>
      <trkpt lat="59.31185692548752" lon="14.098992962390184">
        <ele>45.23</ele>
        <time>2025-02-18T09:30:43.594Z</time>
      </trkpt>
      <trkpt lat="59.311913922429085" lon="14.09907292574644">
        <ele>45.21</ele>
        <time>2025-02-18T09:31:41.489Z</time>
      </trkpt>
      <trkpt lat="59.31196597404778" lon="14.099163953214884">
        <ele>45.19</ele>
        <time>2025-02-18T09:32:39.385Z</time>
      </trkpt>
      <trkpt lat="59.3120149243623" lon="14.099267972633243">
        <ele>45.17</ele>
        <time>2025-02-18T09:33:37.283Z</time>
      </trkpt>
      <trkpt lat="59.31205993518233" lon="14.099383978173137">
        <ele>45.15</ele>
        <time>2025-02-18T09:34:35.182Z</time>
      </trkpt>
      <trkpt lat="59.31210997514427" lon="14.099491937085986">
        <ele>45.13</ele>
        <time>2025-02-18T09:35:33.082Z</time>
      </trkpt>
      <trkpt lat="59.312173929065466" lon="14.099573995918036">
        <ele>45.11</ele>
        <time>2025-02-18T09:36:30.983Z</time>
      </trkpt>
      <trkpt lat="59.31224492378533" lon="14.099622946232557">
        <ele>45.1</ele>
        <time>2025-02-18T09:37:28.885Z</time>
      </trkpt>
      <trkpt lat="59.312321953475475" lon="14.099655970931053">
        <ele>45.08</ele>
        <time>2025-02-18T09:38:26.789Z</time>
      </trkpt>
      <trkpt lat="59.31240191683173" lon="14.099689917638898">
        <ele>45.07</ele>
        <time>2025-02-18T09:39:24.694Z</time>
      </trkpt>
      <trkpt lat="59.31247995235026" lon="14.09973794594407">
        <ele>45.06</ele>
        <time>2025-02-18T09:40:22.600Z</time>
      </trkpt>
      <trkpt lat="59.312554970383644" lon="14.099797960370779">
        <ele>45.05</ele>
        <time>2025-02-18T09:41:20.508Z</time>
      </trkpt>
      <trkpt lat="59.31262697093189" lon="14.099868955090642">
        <ele>45.03</ele>
        <time>2025-02-18T09:42:18.417Z</time>
      </trkpt>
      <trkpt lat="59.31269595399499" lon="14.099945984780788">
        <ele>45.02</ele>
        <time>2025-02-18T09:43:16.327Z</time>
      </trkpt>
      <trkpt lat="59.31276795454323" lon="14.100023936480284">
        <ele>45.01</ele>
        <time>2025-02-18T09:44:14.239Z</time>
      </trkpt>
      <trkpt lat="59.312839955091476" lon="14.100103983655572">
        <ele>45.0</ele>
        <time>2025-02-18T09:45:12.152Z</time>
      </trkpt>
      <trkpt lat="59.3129129614681" lon="14.10018797032535">
        <ele>44.99</ele>
        <time>2025-02-18T09:46:10.066Z</time>
      </trkpt>
      <trkpt lat="59.312986973673105" lon="14.10027296282351">
        <ele>44.97</ele>
        <time>2025-02-18T09:47:07.982Z</time>
      </trkpt>
      <trkpt lat="59.31306299753487" lon="14.10035795532167">
        <ele>44.96</ele>
        <time>2025-02-18T09:48:05.899Z</time>
      </trkpt>
      <trkpt lat="59.313138937577605" lon="14.10044395364821">
        <ele>44.95</ele>
        <time>2025-02-18T09:49:03.817Z</time>
      </trkpt>
      <trkpt lat="59.31321395561099" lon="14.10053196363151">
        <ele>44.94</ele>
        <time>2025-02-18T09:50:01.737Z</time>
      </trkpt>
      <trkpt lat="59.313288973644376" lon="14.100619973614812">
        <ele>44.93</ele>
        <time>2025-02-18T09:50:59.658Z</time>
      </trkpt>
      <trkpt lat="59.31336399167776" lon="14.10070396028459">
        <ele>44.93</ele>
        <time>2025-02-18T09:51:57.581Z</time>
      </trkpt>
      <trkpt lat="59.313436998054385" lon="14.100785935297608">
        <ele>44.92</ele>
        <time>2025-02-18T09:52:55.505Z</time>
      </trkpt>
      <trkpt lat="59.31351092644036" lon="14.100870927795768">
        <ele>44.92</ele>
        <time>2025-02-18T09:53:53.430Z</time>
      </trkpt>
      <trkpt lat="59.31358594447374" lon="14.100952986627817">
        <ele>44.91</ele>
        <time>2025-02-18T09:54:51.357Z</time>
      </trkpt>
      <trkpt lat="59.31365995667875" lon="14.101036973297596">
        <ele>44.91</ele>
        <time>2025-02-18T09:55:49.285Z</time>
      </trkpt>
      <trkpt lat="59.31373396888375" lon="14.101118948310614">
        <ele>44.9</ele>
        <time>2025-02-18T09:56:47.214Z</time>
      </trkpt>
      <trkpt lat="59.31380898691714" lon="14.101198995485902">
        <ele>44.9</ele>
        <time>2025-02-18T09:57:45.145Z</time>
      </trkpt>
      <trkpt lat="59.31388392113149" lon="14.101274935528636">
        <ele>44.89</ele>
        <time>2025-02-18T09:58:43.077Z</time>
      </trkpt>
      <trkpt lat="59.31395994499326" lon="14.101345930248499">
        <ele>44.88</ele>
        <time>2025-02-18T09:59:41.010Z</time>
      </trkpt>
      <trkpt lat="59.31403395719826" lon="14.101415919139981">
        <ele>44.88</ele>
        <time>2025-02-18T10:00:38.945Z</time>
      </trkpt>
      <trkpt lat="59.314104951918125" lon="14.101491943001747">
        <ele>44.87</ele>
        <time>2025-02-18T10:01:36.881Z</time>
      </trkpt>
      <trkpt lat="59.31417494080961" lon="14.101568972691894">
        <ele>44.87</ele>
        <time>2025-02-18T10:02:34.818Z</time>
      </trkpt>
      <trkpt lat="59.31424392387271" lon="14.101645918563008">
        <ele>44.87</ele>
        <time>2025-02-18T10:03:32.757Z</time>
      </trkpt>
      <trkpt lat="59.31431399658322" lon="14.101721942424774">
        <ele>44.87</ele>
        <time>2025-02-18T10:04:30.697Z</time>
      </trkpt>
      <trkpt lat="59.314382979646325" lon="14.10179897211492">
        <ele>44.87</ele>
        <time>2025-02-18T10:05:28.638Z</time>
      </trkpt>
      <trkpt lat="59.31445296853781" lon="14.101875917986035">
        <ele>44.86</ele>
        <time>2025-02-18T10:06:26.581Z</time>
      </trkpt>
      <trkpt lat="59.31452195160091" lon="14.101951941847801">
        <ele>44.86</ele>
        <time>2025-02-18T10:07:24.525Z</time>
      </trkpt>
      <trkpt lat="59.31458699516952" lon="14.102028971537948">
        <ele>44.86</ele>
        <time>2025-02-18T10:08:22.470Z</time>
      </trkpt>
      <trkpt lat="59.31464793160558" lon="14.102104995399714">
        <ele>44.86</ele>
        <time>2025-02-18T10:09:20.416Z</time>
      </trkpt>
      <trkpt lat="59.314704928547144" lon="14.102175990119576">
        <ele>44.86</ele>
        <time>2025-02-18T10:10:18.363Z</time>
      </trkpt>
      <trkpt lat="59.31475597433746" lon="14.102240949869156">
        <ele>44.86</ele>
        <time>2025-02-18T10:11:16.311Z</time>
      </trkpt>
      <trkpt lat="59.31480299681425" lon="14.102296940982342">
        <ele>44.87</ele>
        <time>2025-02-18T10:12:14.260Z</time>
      </trkpt>
      <trkpt lat="59.31484398432076" lon="14.102343963459134">
        <ele>44.87</ele>
        <time>2025-02-18T10:13:12.210Z</time>
      </trkpt>
      <trkpt lat="59.314878936856985" lon="14.10238092765212">
        <ele>44.88</ele>
        <time>2025-02-18T10:14:10.161Z</time>
      </trkpt>
      <trkpt lat="59.31490693241358" lon="14.102412946522236">
        <ele>44.89</ele>
        <time>2025-02-18T10:15:08.112Z</time>
      </trkpt>
      <trkpt lat="59.31492797099054" lon="14.102439936250448">
        <ele>44.9</ele>
        <time>2025-02-18T10:16:06.063Z</time>
      </trkpt>
      <trkpt lat="59.31494699791074" lon="14.102460974827409">
        <ele>44.9</ele>
        <time>2025-02-18T10:17:04.015Z</time>
      </trkpt>
      <trkpt lat="59.314962923526764" lon="14.102479917928576">
        <ele>44.91</ele>
        <time>2025-02-18T10:18:01.967Z</time>
      </trkpt>
      <trkpt lat="59.31497599929571" lon="14.102496933192015">
        <ele>44.92</ele>
        <time>2025-02-18T10:18:59.919Z</time>
      </trkpt>
      <trkpt lat="59.314986979588866" lon="14.10250992514193">
        <ele>44.93</ele>
        <time>2025-02-18T10:19:57.872Z</time>
      </trkpt>
      <trkpt lat="59.31499795988202" lon="14.102519983425736">
        <ele>44.94</ele>
        <time>2025-02-18T10:20:55.825Z</time>
      </trkpt>
      <trkpt lat="59.31501095183194" lon="14.102532975375652">
        <ele>44.96</ele>
        <time>2025-02-18T10:21:53.778Z</time>
      </trkpt>
      <trkpt lat="59.315025955438614" lon="14.10254898481071">
        <ele>44.97</ele>
        <time>2025-02-18T10:22:51.731Z</time>
      </trkpt>
      <trkpt lat="59.31504297070205" lon="14.102566922083497">
        <ele>44.98</ele>
        <time>2025-02-18T10:23:49.685Z</time>
      </trkpt>
      <trkpt lat="59.3150629196316" lon="14.102584943175316">
        <ele>44.99</ele>
        <time>2025-02-18T10:24:47.639Z</time>
      </trkpt>
      <trkpt lat="59.31508496403694" lon="14.102601958438754">
        <ele>45.01</ele>
        <time>2025-02-18T10:25:45.593Z</time>
      </trkpt>
      <trkpt lat="59.31510893628001" lon="14.102617967873812">
        <ele>45.02</ele>
        <time>2025-02-18T10:26:43.548Z</time>
      </trkpt>
      <trkpt lat="59.315134920179844" lon="14.102623919025064">
        <ele>45.04</ele>
        <time>2025-02-18T10:27:41.503Z</time>
      </trkpt>
      <trkpt lat="59.31516098789871" lon="14.102619979530573">
        <ele>45.06</ele>
        <time>2025-02-18T10:28:39.459Z</time>
      </trkpt>
      <trkpt lat="59.31519099511206" lon="14.102608999237418">
        <ele>45.07</ele>
        <time>2025-02-18T10:29:37.415Z</time>
      </trkpt>
      <trkpt lat="59.315222930163145" lon="14.102587960660458">
        <ele>45.09</ele>
        <time>2025-02-18T10:30:35.372Z</time>
      </trkpt>
      <trkpt lat="59.3152579665184" lon="14.1025529243052">
        <ele>45.11</ele>
        <time>2025-02-18T10:31:33.329Z</time>
      </trkpt>
      <trkpt lat="59.31529199704528" lon="14.102497939020395">
        <ele>45.13</ele>
        <time>2025-02-18T10:32:31.287Z</time>
      </trkpt>
      <trkpt lat="59.31532099843025" lon="14.102424932643771">
        <ele>45.15</ele>
        <time>2025-02-18T10:33:29.246Z</time>
      </trkpt>
      <trkpt lat="59.315346982330084" lon="14.102340945973992">
        <ele>45.17</ele>
        <time>2025-02-18T10:34:27.205Z</time>
      </trkpt>
      <trkpt lat="59.315371960401535" lon="14.1022489964962">
        <ele>45.2</ele>
        <time>2025-02-18T10:35:25.165Z</time>
      </trkpt>
      <trkpt lat="59.31539794430137" lon="14.102152939885855">
        <ele>45.22</ele>
        <time>2025-02-18T10:36:23.126Z</time>
      </trkpt>
      <trkpt lat="59.31542493402958" lon="14.102052943781018">
        <ele>45.25</ele>
        <time>2025-02-18T10:37:21.088Z</time>
      </trkpt>
      <trkpt lat="59.31544999592006" lon="14.10195093601942">
        <ele>45.27</ele>
        <time>2025-02-18T10:38:19.051Z</time>
      </trkpt>
      <trkpt lat="59.315476985648274" lon="14.101842977106571">
        <ele>45.29</ele>
        <time>2025-02-18T10:39:17.015Z</time>
      </trkpt>
      <trkpt lat="59.31550498120487" lon="14.1017309948802">
        <ele>45.32</ele>
        <time>2025-02-18T10:40:14.980Z</time>
      </trkpt>
      <trkpt lat="59.31553498841822" lon="14.101613983511925">
        <ele>45.35</ele>
        <time>2025-02-18T10:41:12.946Z</time>
      </trkpt>
      <trkpt lat="59.315565917640924" lon="14.101493954658508">
        <ele>45.39</ele>
        <time>2025-02-18T10:42:10.913Z</time>
      </trkpt>
      <trkpt lat="59.31559894233942" lon="14.101371997967362">
        <ele>45.43</ele>
        <time>2025-02-18T10:43:08.881Z</time>
      </trkpt>
      <trkpt lat="59.315630961209536" lon="14.101246939972043">
        <ele>45.46</ele>
        <time>2025-02-18T10:44:06.851Z</time>
      </trkpt>
      <trkpt lat="59.31566499173641" lon="14.101119954138994">
        <ele>45.5</ele>
        <time>2025-02-18T10:45:04.822Z</time>
      </trkpt>
      <trkpt lat="59.31569994427264" lon="14.100990956649184">
        <ele>45.53</ele>
        <time>2025-02-18T10:46:02.794Z</time>
      </trkpt>
      <trkpt lat="59.315734980627894" lon="14.100857935845852">
        <ele>45.57</ele>
        <time>2025-02-18T10:47:00.767Z</time>
      </trkpt>
      <trkpt lat="59.3157709389925" lon="14.100724998861551">
        <ele>45.61</ele>
        <time>2025-02-18T10:47:58.741Z</time>
      </trkpt>
      <trkpt lat="59.31581293232739" lon="14.10059398971498">
        <ele>45.65</ele>
        <time>2025-02-18T10:48:56.717Z</time>
      </trkpt>
      <trkpt lat="59.31585693731904" lon="14.1004669200629">
        <ele>45.68</ele>
        <time>2025-02-18T10:49:54.694Z</time>
      </trkpt>
      <trkpt lat="59.31590395979583" lon="14.10033993422985">
        <ele>45.72</ele>
        <time>2025-02-18T10:50:52.672Z</time>
      </trkpt>
      <trkpt lat="59.315952993929386" lon="14.10021093674004">
        <ele>45.76</ele>
        <time>2025-02-18T10:51:50.651Z</time>
      </trkpt>
      <trkpt lat="59.31600395590067" lon="14.10008193925023">
        <ele>45.8</ele>
        <time>2025-02-18T10:52:48.632Z</time>
      </trkpt>
      <trkpt lat="59.316059947013855" lon="14.09995193593204">
        <ele>45.84</ele>
        <time>2025-02-18T10:53:46.614Z</time>
      </trkpt>
      <trkpt lat="59.31611593812704" lon="14.099825955927372">
        <ele>45.88</ele>
        <time>2025-02-18T10:54:44.598Z</time>
      </trkpt>
      <trkpt lat="59.31617494672537" lon="14.099702993407845">
        <ele>45.93</ele>
        <time>2025-02-18T10:55:42.583Z</time>
      </trkpt>
      <trkpt lat="59.31623697280884" lon="14.09958397038281">
        <ele>45.97</ele>
        <time>2025-02-18T10:56:40.569Z</time>
      </trkpt>
      <trkpt lat="59.31630092673004" lon="14.099467964842916">
        <ele>46.01</ele>
        <time>2025-02-18T10:57:38.557Z</time>
      </trkpt>
      <trkpt lat="59.31636697612703" lon="14.099354976788163">
        <ele>46.06</ele>
        <time>2025-02-18T10:58:36.546Z</time>
      </trkpt>
      <trkpt lat="59.31643394753337" lon="14.099245928227901">
        <ele>46.11</ele>
        <time>2025-02-18T10:59:34.537Z</time>
      </trkpt>
      <trkpt lat="59.31650293059647" lon="14.099140986800194">
        <ele>46.16</ele>
        <time>2025-02-18T11:00:32.529Z</time>
      </trkpt>
      <trkpt lat="59.316573925316334" lon="14.099040990695357">
        <ele>46.21</ele>
        <time>2025-02-18T11:01:30.522Z</time>
      </trkpt>
      <trkpt lat="59.3166449200362" lon="14.098945939913392">
        <ele>46.26</ele>
        <time>2025-02-18T11:02:28.517Z</time>
      </trkpt>
      <trkpt lat="59.31671792641282" lon="14.09885591827333">
        <ele>46.31</ele>
        <time>2025-02-18T11:03:26.513Z</time>
      </trkpt>
      <trkpt lat="59.316791938617826" lon="14.098771931603551">
        <ele>46.37</ele>
        <time>2025-02-18T11:04:24.511Z</time>
      </trkpt>
      <trkpt lat="59.31686695665121" lon="14.098693979904056">
        <ele>46.43</ele>
        <time>2025-02-18T11:05:22.510Z</time>
      </trkpt>
      <trkpt lat="59.31694298051298" lon="14.098621979355812">
        <ele>46.49</ele>
        <time>2025-02-18T11:06:20.510Z</time>
      </trkpt>
      <trkpt lat="59.31701892055571" lon="14.09855592995882">
        <ele>46.55</ele>
        <time>2025-02-18T11:07:18.512Z</time>
      </trkpt>
      <trkpt lat="59.31709494441748" lon="14.098495999351144">
        <ele>46.61</ele>
        <time>2025-02-18T11:08:16.515Z</time>
      </trkpt>
      <trkpt lat="59.31716996245086" lon="14.098441936075687">
        <ele>46.67</ele>
        <time>2025-02-18T11:09:14.519Z</time>
      </trkpt>
      <trkpt lat="59.317242968827486" lon="14.098393991589546">
        <ele>46.73</ele>
        <time>2025-02-18T11:10:12.524Z</time>
      </trkpt>
      <trkpt lat="59.31731597520411" lon="14.098350992426276">
        <ele>46.79</ele>
        <time>2025-02-18T11:11:10.531Z</time>
      </trkpt>
      <trkpt lat="59.31738596409559" lon="14.098311932757497">
        <ele>46.85</ele>
        <time>2025-02-18T11:12:08.539Z</time>
      </trkpt>
      <trkpt lat="59.317453941330314" lon="14.098276980221272">
        <ele>46.92</ele>
        <time>2025-02-18T11:13:06.548Z</time>
      </trkpt>
      <trkpt lat="59.317519990727305" lon="14.098243955522776">
        <ele>46.99</ele>
        <time>2025-02-18T11:14:04.558Z</time>
      </trkpt>
      <trkpt lat="59.317583944648504" lon="14.098212942481041">
        <ele>47.06</ele>
        <time>2025-02-18T11:15:02.569Z</time>
      </trkpt>
      <trkpt lat="59.317645970731974" lon="14.098184946924448">
        <ele>47.13</ele>
        <time>2025-02-18T11:16:00.581Z</time>
      </trkpt>
      <trkpt lat="59.31770598515868" lon="14.098155945539474">
        <ele>47.2</ele>
        <time>2025-02-18T11:16:58.594Z</time>
      </trkpt>
      <trkpt lat="59.31776599958539" lon="14.098128955811262">
        <ele>47.27</ele>
        <time>2025-02-18T11:17:56.608Z</time>
      </trkpt>
      <trkpt lat="59.317824924364686" lon="14.098103977739811">
        <ele>47.34</ele>
        <time>2025-02-18T11:18:54.623Z</time>
      </trkpt>
      <trkpt lat="59.31788192130625" lon="14.09807899966836">
        <ele>47.41</ele>
        <time>2025-02-18T11:19:52.639Z</time>
      </trkpt>
      <trkpt lat="59.31793799623847" lon="14.098053937777877">
        <ele>47.48</ele>
        <time>2025-02-18T11:20:50.656Z</time>
      </trkpt>
      <trkpt lat="59.31799599900842" lon="14.098028959706426">
        <ele>47.55</ele>
        <time>2025-02-18T11:21:48.674Z</time>
      </trkpt>
      <trkpt lat="59.31805492378771" lon="14.098005993291736">
        <ele>47.62</ele>
        <time>2025-02-18T11:22:46.693Z</time>
      </trkpt>
      <trkpt lat="59.31811192072928" lon="14.097981937229633">
        <ele>47.69</ele>
        <time>2025-02-18T11:23:44.713Z</time>
      </trkpt>
      <trkpt lat="59.31816992349923" lon="14.097957964986563">
        <ele>47.76</ele>
        <time>2025-02-18T11:24:42.734Z</time>
      </trkpt>
      <trkpt lat="59.31822692044079" lon="14.097934998571873">
        <ele>47.83</ele>
        <time>2025-02-18T11:25:40.756Z</time>
      </trkpt>
      <trkpt lat="59.31828391738236" lon="14.09791094250977">
        <ele>47.9</ele>
        <time>2025-02-18T11:26:38.779Z</time>
      </trkpt>
      <trkpt lat="59.31833999231458" lon="14.097888981923461">
        <ele>47.97</ele>
        <time>2025-02-18T11:27:36.802Z</time>
      </trkpt>
      <trkpt lat="59.318396989256144" lon="14.09786693751812">
        <ele>48.04</ele>
        <time>2025-02-18T11:28:34.826Z</time>
      </trkpt>
      <trkpt lat="59.31845398619771" lon="14.097845982760191">
        <ele>48.12</ele>
        <time>2025-02-18T11:29:32.851Z</time>
      </trkpt>
      <trkpt lat="59.31851299479604" lon="14.09782494418323">
        <ele>48.19</ele>
        <time>2025-02-18T11:30:30.877Z</time>
      </trkpt>
      <trkpt lat="59.318572925403714" lon="14.097804995253682">
        <ele>48.27</ele>
        <time>2025-02-18T11:31:28.904Z</time>
      </trkpt>
      <trkpt lat="59.318634951487184" lon="14.097785968333483">
        <ele>48.34</ele>
        <time>2025-02-18T11:32:26.932Z</time>
      </trkpt>
      <trkpt lat="59.31869597174227" lon="14.097768953070045">
        <ele>48.42</ele>
        <time>2025-02-18T11:33:24.961Z</time>
      </trkpt>
      <trkpt lat="59.31876093149185" lon="14.097749926149845">
        <ele>48.5</ele>
        <time>2025-02-18T11:34:22.991Z</time>
      </trkpt>
      <trkpt lat="59.31882597506046" lon="14.097729977220297">
        <ele>48.59</ele>
        <time>2025-02-18T11:35:21.022Z</time>
      </trkpt>
      <trkpt lat="59.31889093481004" lon="14.097709944471717">
        <ele>48.67</ele>
        <time>2025-02-18T11:36:19.054Z</time>
      </trkpt>
      <trkpt lat="59.318959917873144" lon="14.097688989713788">
        <ele>48.76</ele>
        <time>2025-02-18T11:37:17.088Z</time>
      </trkpt>
      <trkpt lat="59.31902898475528" lon="14.097664933651686">
        <ele>48.84</ele>
        <time>2025-02-18T11:38:15.123Z</time>
      </trkpt>
      <trkpt lat="59.31909997947514" lon="14.097639955580235">
        <ele>48.93</ele>
        <time>2025-02-18T11:39:13.159Z</time>
      </trkpt>
      <trkpt lat="59.319173991680145" lon="14.097614977508783">
        <ele>49.02</ele>
        <time>2025-02-18T11:40:11.196Z</time>
      </trkpt>
      <trkpt lat="59.3192489258945" lon="14.097589999437332">
        <ele>49.11</ele>
        <time>2025-02-18T11:41:09.234Z</time>
      </trkpt>
      <trkpt lat="59.319325955584645" lon="14.09756594337523">
        <ele>49.2</ele>
        <time>2025-02-18T11:42:07.274Z</time>
      </trkpt>
      <trkpt lat="59.31940499693155" lon="14.09754398278892">
        <ele>49.28</ele>
        <time>2025-02-18T11:43:05.315Z</time>
      </trkpt>
      <trkpt lat="59.31948596611619" lon="14.097520932555199">
        <ele>49.37</ele>
        <time>2025-02-18T11:44:03.357Z</time>
      </trkpt>
      <trkpt lat="59.31956794112921" lon="14.09749897196889">
        <ele>49.47</ele>
        <time>2025-02-18T11:45:01.400Z</time>
      </trkpt>
      <trkpt lat="59.319651927798986" lon="14.09747994504869">
        <ele>49.56</ele>
        <time>2025-02-18T11:45:59.445Z</time>
      </trkpt>
      <trkpt lat="59.31973893195391" lon="14.097462929785252">
        <ele>49.66</ele>
        <time>2025-02-18T11:46:57.491Z</time>
      </trkpt>
      <trkpt lat="59.31982694193721" lon="14.097445998340845">
        <ele>49.75</ele>
        <time>2025-02-18T11:47:55.539Z</time>
      </trkpt>
      <trkpt lat="59.31991595774889" lon="14.097431916743517">
        <ele>49.85</ele>
        <time>2025-02-18T11:48:53.588Z</time>
      </trkpt>
      <trkpt lat="59.32000799104571" lon="14.097432922571898">
        <ele>49.94</ele>
        <time>2025-02-18T11:49:51.639Z</time>
      </trkpt>
      <trkpt lat="59.320099940523505" lon="14.09745798446238">
        <ele>50.04</ele>
        <time>2025-02-18T11:50:49.691Z</time>
      </trkpt>
      <trkpt lat="59.320187950506806" lon="14.097512969747186">
        <ele>50.14</ele>
        <time>2025-02-18T11:51:47.745Z</time>
      </trkpt>
      <trkpt lat="59.320270931348205" lon="14.097600979730487">
        <ele>50.24</ele>
        <time>2025-02-18T11:52:45.800Z</time>
      </trkpt>
      <trkpt lat="59.32034997269511" lon="14.097705921158195">
        <ele>50.34</ele>
        <time>2025-02-18T11:53:43.857Z</time>
      </trkpt>
      <trkpt lat="59.32043094187975" lon="14.097794936969876">
        <ele>50.45</ele>
        <time>2025-02-18T11:54:41.915Z</time>
      </trkpt>
      <trkpt lat="59.32052096351981" lon="14.097840953618288">
        <ele>50.55</ele>
        <time>2025-02-18T11:55:39.975Z</time>
      </trkpt>
      <trkpt lat="59.320613918825984" lon="14.097838941961527">
        <ele>50.65</ele>
        <time>2025-02-18T11:56:38.036Z</time>
      </trkpt>
      <trkpt lat="59.32070896960795" lon="14.09782293252647">
        <ele>50.75</ele>
        <time>2025-02-18T11:57:36.099Z</time>
      </trkpt>
      <trkpt lat="59.32080091908574" lon="14.09782293252647">
        <ele>50.86</ele>
        <time>2025-02-18T11:58:34.163Z</time>
      </trkpt>
      <trkpt lat="59.320892952382565" lon="14.097845982760191">
        <ele>50.97</ele>
        <time>2025-02-18T11:59:32.229Z</time>
      </trkpt>
      <trkpt lat="59.320981968194246" lon="14.097889987751842">
        <ele>51.09</ele>
        <time>2025-02-18T12:00:30.296Z</time>
      </trkpt>
      <trkpt lat="59.32106997817755" lon="14.097943967208266">
        <ele>51.2</ele>
        <time>2025-02-18T12:01:28.364Z</time>
      </trkpt>
      <trkpt lat="59.32115597650409" lon="14.098002975806594">
        <ele>51.32</ele>
        <time>2025-02-18T12:02:26.434Z</time>
      </trkpt>
      <trkpt lat="59.32124096900225" lon="14.098068941384554">
        <ele>51.44</ele>
        <time>2025-02-18T12:03:24.505Z</time>
      </trkpt>
      <trkpt lat="59.321324955672026" lon="14.098136918619275">
        <ele>51.56</ele>
        <time>2025-02-18T12:04:22.578Z</time>
      </trkpt>
      <trkpt lat="59.321407936513424" lon="14.098201962187886">
        <ele>51.67</ele>
        <time>2025-02-18T12:05:20.652Z</time>
      </trkpt>
      <trkpt lat="59.32149091735482" lon="14.098260970786214">
        <ele>51.79</ele>
        <time>2025-02-18T12:06:18.728Z</time>
      </trkpt>
      <trkpt lat="59.32157398201525" lon="14.09831595607102">
        <ele>51.91</ele>
        <time>2025-02-18T12:07:16.805Z</time>
      </trkpt>
      <trkpt lat="59.32165696285665" lon="14.098367923870683">
        <ele>52.03</ele>
        <time>2025-02-18T12:08:14.884Z</time>
      </trkpt>
      <trkpt lat="59.32173793204129" lon="14.098418969660997">
        <ele>52.15</ele>
        <time>2025-02-18T12:09:12.964Z</time>
      </trkpt>
      <trkpt lat="59.321817979216576" lon="14.09846791997552">
        <ele>52.27</ele>
        <time>2025-02-18T12:10:11.045Z</time>
      </trkpt>
      <trkpt lat="59.32189894840121" lon="14.09851192496717">
        <ele>52.39</ele>
        <time>2025-02-18T12:11:09.128Z</time>
      </trkpt>
      <trkpt lat="59.32197991758585" lon="14.098548972979188">
        <ele>52.51</ele>
        <time>2025-02-18T12:12:07.212Z</time>
      </trkpt>
      <trkpt lat="59.32206298224628" lon="14.098579986020923">
        <ele>52.63</ele>
        <time>2025-02-18T12:13:05.297Z</time>
      </trkpt>
      <trkpt lat="59.32214696891606" lon="14.098605969920754">
        <ele>52.75</ele>
        <time>2025-02-18T12:14:03.384Z</time>
      </trkpt>
      <trkpt lat="59.32222994975746" lon="14.098624996840954">
        <ele>52.88</ele>
        <time>2025-02-18T12:15:01.472Z</time>
      </trkpt>
      <trkpt lat="59.322313936427236" lon="14.0986399166286">
        <ele>53.0</ele>
        <time>2025-02-18T12:15:59.561Z</time>
      </trkpt>
      <trkpt lat="59.322395995259285" lon="14.098646957427263">
        <ele>53.13</ele>
        <time>2025-02-18T12:16:57.652Z</time>
      </trkpt>
      <trkpt lat="59.32247897610068" lon="14.098644945770502">
        <ele>53.26</ele>
        <time>2025-02-18T12:17:55.744Z</time>
      </trkpt>
      <trkpt lat="59.3225609511137" lon="14.09863798879087">
        <ele>53.39</ele>
        <time>2025-02-18T12:18:53.837Z</time>
      </trkpt>
      <trkpt lat="59.32264292612672" lon="14.098626924678683">
        <ele>53.53</ele>
        <time>2025-02-18T12:19:51.932Z</time>
      </trkpt>
      <trkpt lat="59.32272397913039" lon="14.098608987405896">
        <ele>53.66</ele>
        <time>2025-02-18T12:20:50.028Z</time>
      </trkpt>
      <trkpt lat="59.322803942486644" lon="14.098584931343794">
        <ele>53.8</ele>
        <time>2025-02-18T12:21:48.125Z</time>
      </trkpt>
      <trkpt lat="59.32288398966193" lon="14.09855492413044">
        <ele>53.93</ele>
        <time>2025-02-18T12:22:46.224Z</time>
      </trkpt>
      <trkpt lat="59.32296495884657" lon="14.098519971594214">
        <ele>54.06</ele>
        <time>2025-02-18T12:23:44.324Z</time>
      </trkpt>
      <trkpt lat="59.323042994365096" lon="14.098479989916086">
        <ele>54.2</ele>
        <time>2025-02-18T12:24:42.425Z</time>
      </trkpt>
      <trkpt lat="59.32311994023621" lon="14.098431961610913">
        <ele>54.33</ele>
        <time>2025-02-18T12:25:40.527Z</time>
      </trkpt>
      <trkpt lat="59.32319797575474" lon="14.098376976326108">
        <ele>54.47</ele>
        <time>2025-02-18T12:26:38.631Z</time>
      </trkpt>
      <trkpt lat="59.32327592745423" lon="14.09831796772778">
        <ele>54.61</ele>
        <time>2025-02-18T12:27:36.736Z</time>
      </trkpt>
      <trkpt lat="59.323351951316" lon="14.098251918330789">
        <ele>54.74</ele>
        <time>2025-02-18T12:28:34.842Z</time>
      </trkpt>
      <trkpt lat="59.323426969349384" lon="14.098175978288054">
        <ele>54.88</ele>
        <time>2025-02-18T12:29:32.950Z</time>
      </trkpt>
      <trkpt lat="59.32350198738277" lon="14.098096936941147">
        <ele>55.01</ele>
        <time>2025-02-18T12:30:31.059Z</time>
      </trkpt>
      <trkpt lat="59.32357692159712" lon="14.098011944442987">
        <ele>55.16</ele>
        <time>2025-02-18T12:31:29.170Z</time>
      </trkpt>
      <trkpt lat="59.32364992797375" lon="14.097924940288067">
        <ele>55.29</ele>
        <time>2025-02-18T12:32:27.282Z</time>
      </trkpt>
      <trkpt lat="59.32372092269361" lon="14.097835924476385">
        <ele>55.43</ele>
        <time>2025-02-18T12:33:25.395Z</time>
      </trkpt>
      <trkpt lat="59.32379191741347" lon="14.097743974998593">
        <ele>55.57</ele>
        <time>2025-02-18T12:34:23.510Z</time>
      </trkpt>
      <trkpt lat="59.32386391796172" lon="14.09765093587339">
        <ele>55.7</ele>
        <time>2025-02-18T12:35:21.626Z</time>
      </trkpt>
      <trkpt lat="59.32393499650061" lon="14.097558986395597">
        <ele>55.85</ele>
        <time>2025-02-18T12:36:19.743Z</time>
      </trkpt>
      <trkpt lat="59.324005991220474" lon="14.097467958927155">
        <ele>55.99</ele>
        <time>2025-02-18T12:37:17.862Z</time>
      </trkpt>
      <trkpt lat="59.32407698594034" lon="14.09737491980195">
        <ele>56.12</ele>
        <time>2025-02-18T12:38:15.982Z</time>
      </trkpt>
      <trkpt lat="59.32414697483182" lon="14.09728498198092">
        <ele>56.26</ele>
        <time>2025-02-18T12:39:14.103Z</time>
      </trkpt>
      <trkpt lat="59.32421595789492" lon="14.097192948684096">
        <ele>56.4</ele>
        <time>2025-02-18T12:40:12.226Z</time>
      </trkpt>
      <trkpt lat="59.32428292930126" lon="14.097100999206305">
        <ele>56.54</ele>
        <time>2025-02-18T12:41:10.350Z</time>
      </trkpt>
      <trkpt lat="59.324349984526634" lon="14.097010977566242">
        <ele>56.68</ele>
        <time>2025-02-18T12:42:08.475Z</time>
      </trkpt>
      <trkpt lat="59.324414944276214" lon="14.096922967582941">
        <ele>56.81</ele>
        <time>2025-02-18T12:43:06.602Z</time>
      </trkpt>
      <trkpt lat="59.324479987844825" lon="14.096838980913162">
        <ele>56.95</ele>
        <time>2025-02-18T12:44:04.730Z</time>
      </trkpt>
      <trkpt lat="59.324543941766024" lon="14.096755916252732">
        <ele>57.09</ele>
        <time>2025-02-18T12:45:02.859Z</time>
      </trkpt>
      <trkpt lat="59.324606973677874" lon="14.096676958724856">
        <ele>57.23</ele>
        <time>2025-02-18T12:46:00.989Z</time>
      </trkpt>
      <trkpt lat="59.32466899976134" lon="14.096603952348232">
        <ele>57.37</ele>
        <time>2025-02-18T12:46:59.121Z</time>
      </trkpt>
      <trkpt lat="59.3247299361974" lon="14.09653496928513">
        <ele>57.51</ele>
        <time>2025-02-18T12:47:57.254Z</time>
      </trkpt>
      <trkpt lat="59.32479095645249" lon="14.09646992571652">
        <ele>57.64</ele>
        <time>2025-02-18T12:48:55.388Z</time>
      </trkpt>
      <trkpt lat="59.324848959222436" lon="14.096411922946572">
        <ele>57.78</ele>
        <time>2025-02-18T12:49:53.523Z</time>
      </trkpt>
      <trkpt lat="59.32490696199238" lon="14.09636096097529">
        <ele>57.91</ele>
        <time>2025-02-18T12:50:51.659Z</time>
      </trkpt>
      <trkpt lat="59.32496194727719" lon="14.096314944326878">
        <ele>58.05</ele>
        <time>2025-02-18T12:51:49.796Z</time>
      </trkpt>
      <trkpt lat="59.32501592673361" lon="14.096273956820369">
        <ele>58.18</ele>
        <time>2025-02-18T12:52:47.934Z</time>
      </trkpt>
      <trkpt lat="59.32506898418069" lon="14.096236992627382">
        <ele>58.31</ele>
        <time>2025-02-18T12:53:46.073Z</time>
      </trkpt>
      <trkpt lat="59.32512195780873" lon="14.096204973757267">
        <ele>58.44</ele>
        <time>2025-02-18T12:54:44.213Z</time>
      </trkpt>
      <trkpt lat="59.32517694309354" lon="14.096177984029055">
        <ele>58.57</ele>
        <time>2025-02-18T12:55:42.353Z</time>
      </trkpt>
      <trkpt lat="59.32522899471223" lon="14.096155939623713">
        <ele>58.7</ele>
        <time>2025-02-18T12:56:40.494Z</time>
      </trkpt>
      <trkpt lat="59.3252809625119" lon="14.096136996522546">
        <ele>58.83</ele>
        <time>2025-02-18T12:57:38.636Z</time>
      </trkpt>
      <trkpt lat="59.32533192448318" lon="14.096120987087488">
        <ele>58.95</ele>
        <time>2025-02-18T12:58:36.779Z</time>
      </trkpt>
      <trkpt lat="59.325381964445114" lon="14.096106989309192">
        <ele>59.07</ele>
        <time>2025-02-18T12:59:34.923Z</time>
      </trkpt>
      <trkpt lat="59.3254329264164" lon="14.096098942682147">
        <ele>59.19</ele>
        <time>2025-02-18T13:00:33.068Z</time>
      </trkpt>
      <trkpt lat="59.32548698969185" lon="14.096094919368625">
        <ele>59.31</ele>
        <time>2025-02-18T13:01:31.213Z</time>
      </trkpt>
      <trkpt lat="59.32553895749152" lon="14.096092991530895">
        <ele>59.42</ele>
        <time>2025-02-18T13:02:29.359Z</time>
      </trkpt>
      <trkpt lat="59.32559092529118" lon="14.096093997359276">
        <ele>59.54</ele>
        <time>2025-02-18T13:03:27.506Z</time>
      </trkpt>
      <trkpt lat="59.325642976909876" lon="14.096097936853766">
        <ele>59.65</ele>
        <time>2025-02-18T13:04:25.654Z</time>
      </trkpt>
      <trkpt lat="59.32569595053792" lon="14.09610497765243">
        <ele>59.76</ele>
        <time>2025-02-18T13:05:23.803Z</time>
      </trkpt>
      <trkpt lat="59.325748924165964" lon="14.096118975430727">
        <ele>59.87</ele>
        <time>2025-02-18T13:06:21.953Z</time>
      </trkpt>
      <trkpt lat="59.32580198161304" lon="14.096137918531895">
        <ele>59.97</ele>
        <time>2025-02-18T13:07:20.104Z</time>
      </trkpt>
      <trkpt lat="59.325855961069465" lon="14.096159962937236">
        <ele>60.08</ele>
        <time>2025-02-18T13:08:18.255Z</time>
      </trkpt>
      <trkpt lat="59.32590893469751" lon="14.096185946837068">
        <ele>60.18</ele>
        <time>2025-02-18T13:09:16.407Z</time>
      </trkpt>
      <trkpt lat="59.325961992144585" lon="14.09621394239366">
        <ele>60.28</ele>
        <time>2025-02-18T13:10:14.560Z</time>
      </trkpt>
      <trkpt lat="59.32601597160101" lon="14.096243949607015">
        <ele>60.38</ele>
        <time>2025-02-18T13:11:12.714Z</time>
      </trkpt>
      <trkpt lat="59.326069951057434" lon="14.09627697430551">
        <ele>60.48</ele>
        <time>2025-02-18T13:12:10.869Z</time>
      </trkpt>
      <trkpt lat="59.32612493634224" lon="14.096307987347245">
        <ele>60.58</ele>
        <time>2025-02-18T13:13:09.025Z</time>
      </trkpt>
      <trkpt lat="59.326181933283806" lon="14.0963379945606">
        <ele>60.68</ele>
        <time>2025-02-18T13:14:07.182Z</time>
      </trkpt>
      <trkpt lat="59.32623993605375" lon="14.09636297263205">
        <ele>60.77</ele>
        <time>2025-02-18T13:15:05.340Z</time>
      </trkpt>
      <trkpt lat="59.32629894465208" lon="14.096382921561599">
        <ele>60.87</ele>
        <time>2025-02-18T13:16:03.499Z</time>
      </trkpt>
      <trkpt lat="59.32635795325041" lon="14.096407983452082">
        <ele>60.96</ele>
        <time>2025-02-18T13:17:01.659Z</time>
      </trkpt>
      <trkpt lat="59.326416961848736" lon="14.096436984837055">
        <ele>61.06</ele>
        <time>2025-02-18T13:17:59.820Z</time>
      </trkpt>
      <trkpt lat="59.32647496461868" lon="14.096468919888139">
        <ele>61.15</ele>
        <time>2025-02-18T13:18:57.982Z</time>
      </trkpt>
      <trkpt lat="59.32653397321701" lon="14.096504962071776">
        <ele>61.24</ele>
        <time>2025-02-18T13:19:56.145Z</time>
      </trkpt>
      <trkpt lat="59.32659398764372" lon="14.096541926264763">
        <ele>61.33</ele>
        <time>2025-02-18T13:20:54.309Z</time>
      </trkpt>
      <trkpt lat="59.326654924079776" lon="14.096580985933542">
        <ele>61.42</ele>
        <time>2025-02-18T13:21:52.474Z</time>
      </trkpt>
      <trkpt lat="59.326715944334865" lon="14.096626918762922">
        <ele>61.51</ele>
        <time>2025-02-18T13:22:50.640Z</time>
      </trkpt>
      <trkpt lat="59.32677294127643" lon="14.096687939018011">
        <ele>61.6</ele>
        <time>2025-02-18T13:23:48.807Z</time>
      </trkpt>
      <trkpt lat="59.326826920732856" lon="14.0967679861933">
        <ele>61.69</ele>
        <time>2025-02-18T13:24:46.975Z</time>
      </trkpt>
      <trkpt lat="59.32687595486641" lon="14.096865970641375">
        <ele>61.77</ele>
        <time>2025-02-18T13:25:45.144Z</time>
      </trkpt>
      <trkpt lat="59.32691895402968" lon="14.096978958696127">
        <ele>61.86</ele>
        <time>2025-02-18T13:26:43.314Z</time>
      </trkpt>
      <trkpt lat="59.32695792987943" lon="14.097098987549543">
        <ele>61.94</ele>
        <time>2025-02-18T13:27:41.485Z</time>
      </trkpt>
      <trkpt lat="59.32699799537659" lon="14.097218932583928">
        <ele>62.03</ele>
        <time>2025-02-18T13:28:39.658Z</time>
      </trkpt>
      <trkpt lat="59.327042922377586" lon="14.097333932295442">
        <ele>62.11</ele>
        <time>2025-02-18T13:29:37.832Z</time>
      </trkpt>
      <trkpt lat="59.32709698565304" lon="14.097429988905787">
        <ele>62.19</ele>
        <time>2025-02-18T13:30:36.007Z</time>
      </trkpt>
      <trkpt lat="59.32716395705938" lon="14.097502995282412">
        <ele>62.27</ele>
        <time>2025-02-18T13:31:34.183Z</time>
      </trkpt>
      <trkpt lat="59.32723595760763" lon="14.097547922283411">
        <ele>62.35</ele>
        <time>2025-02-18T13:32:32.360Z</time>
      </trkpt>
      <trkpt lat="59.32731298729777" lon="14.097562925890088">
        <ele>62.41</ele>
        <time>2025-02-18T13:33:30.539Z</time>
      </trkpt>
      <trkpt lat="59.32738892734051" lon="14.097540965303779">
        <ele>62.48</ele>
        <time>2025-02-18T13:34:28.719Z</time>
      </trkpt>
      <trkpt lat="59.32745891623199" lon="14.097483968362212">
        <ele>62.54</ele>
        <time>2025-02-18T13:35:26.900Z</time>
      </trkpt>
      <trkpt lat="59.32751993648708" lon="14.09739294089377">
        <ele>62.6</ele>
        <time>2025-02-18T13:36:25.082Z</time>
      </trkpt>
      <trkpt lat="59.32756796479225" lon="14.09726494923234">
        <ele>62.66</ele>
        <time>2025-02-18T13:37:23.266Z</time>
      </trkpt>
      <trkpt lat="59.32760199531913" lon="14.097119942307472">
        <ele>62.73</ele>
        <time>2025-02-18T13:38:21.451Z</time>
      </trkpt>
      <trkpt lat="59.327621944248676" lon="14.096967978402972">
        <ele>62.78</ele>
        <time>2025-02-18T13:39:19.637Z</time>
      </trkpt>
      <trkpt lat="59.32762697339058" lon="14.096818948164582">
        <ele>62.84</ele>
        <time>2025-02-18T13:40:17.824Z</time>
      </trkpt>
      <trkpt lat="59.327618926763535" lon="14.096670923754573">
        <ele>62.9</ele>
        <time>2025-02-18T13:41:16.013Z</time>
      </trkpt>
      <trkpt lat="59.32760492898524" lon="14.096524994820356">
        <ele>62.95</ele>
        <time>2025-02-18T13:42:14.203Z</time>
      </trkpt>
      <trkpt lat="59.32759093120694" lon="14.096377976238728">
        <ele>63.0</ele>
        <time>2025-02-18T13:43:12.394Z</time>
      </trkpt>
      <trkpt lat="59.327578945085406" lon="14.096227940171957">
        <ele>63.05</ele>
        <time>2025-02-18T13:44:10.586Z</time>
      </trkpt>
      <trkpt lat="59.327573999762535" lon="14.096072958782315">
        <ele>63.09</ele>
        <time>2025-02-18T13:45:08.780Z</time>
      </trkpt>
      <trkpt lat="59.32758296839893" lon="14.095916971564293">
        <ele>63.13</ele>
        <time>2025-02-18T13:46:06.975Z</time>
      </trkpt>
      <trkpt lat="59.3276119697839" lon="14.095765929669142">
        <ele>63.18</ele>
        <time>2025-02-18T13:47:05.171Z</time>
      </trkpt>
      <trkpt lat="59.327660920098424" lon="14.09563492052257">
        <ele>63.22</ele>
        <time>2025-02-18T13:48:03.368Z</time>
      </trkpt>
      <trkpt lat="59.327723952010274" lon="14.095532996580005">
        <ele>63.26</ele>
        <time>2025-02-18T13:49:01.567Z</time>
      </trkpt>
      <trkpt lat="59.3277969583869" lon="14.095460996031761">
        <ele>63.31</ele>
        <time>2025-02-18T13:49:59.767Z</time>
      </trkpt>
      <trkpt lat="59.327874993905425" lon="14.095407938584685">
        <ele>63.35</ele>
        <time>2025-02-18T13:50:57.968Z</time>
      </trkpt>
      <trkpt lat="59.32795596309006" lon="14.095361921936274">
        <ele>63.4</ele>
        <time>2025-02-18T13:51:56.171Z</time>
      </trkpt>
      <trkpt lat="59.32803793810308" lon="14.095318922773004">
        <ele>63.43</ele>
        <time>2025-02-18T13:52:54.375Z</time>
      </trkpt>
      <trkpt lat="59.32812091894448" lon="14.095276929438114">
        <ele>63.47</ele>
        <time>2025-02-18T13:53:52.581Z</time>
      </trkpt>
      <trkpt lat="59.32820599526167" lon="14.095230996608734">
        <ele>63.51</ele>
        <time>2025-02-18T13:54:50.788Z</time>
      </trkpt>
      <trkpt lat="59.32828998193145" lon="14.095178944990039">
        <ele>63.54</ele>
        <time>2025-02-18T13:55:48.996Z</time>
      </trkpt>
      <trkpt lat="59.328371956944466" lon="14.09511398524046">
        <ele>63.56</ele>
        <time>2025-02-18T13:56:47.206Z</time>
      </trkpt>
      <trkpt lat="59.328454937785864" lon="14.09503293223679">
        <ele>63.59</ele>
        <time>2025-02-18T13:57:45.417Z</time>
      </trkpt>
      <trkpt lat="59.32853397913277" lon="14.094938971102238">
        <ele>63.61</ele>
        <time>2025-02-18T13:58:43.630Z</time>
      </trkpt>
      <trkpt lat="59.328609919175506" lon="14.094833945855498">
        <ele>63.64</ele>
        <time>2025-02-18T13:59:41.844Z</time>
      </trkpt>
      <trkpt lat="59.32868493720889" lon="14.094716934487224">
        <ele>63.66</ele>
        <time>2025-02-18T14:00:40.060Z</time>
      </trkpt>
      <trkpt lat="59.32875492610037" lon="14.094593971967697">
        <ele>63.68</ele>
        <time>2025-02-18T14:01:38.277Z</time>
      </trkpt>
      <trkpt lat="59.32882399298251" lon="14.094467991963029">
        <ele>63.7</ele>
        <time>2025-02-18T14:02:36.496Z</time>
      </trkpt>
      <trkpt lat="59.32889398187399" lon="14.094339916482568">
        <ele>63.72</ele>
        <time>2025-02-18T14:03:34.716Z</time>
      </trkpt>
      <trkpt lat="59.32896296493709" lon="14.094208991155028">
        <ele>63.74</ele>
        <time>2025-02-18T14:04:32.938Z</time>
      </trkpt>
      <trkpt lat="59.32903295382857" lon="14.094073958694935">
        <ele>63.75</ele>
        <time>2025-02-18T14:05:31.161Z</time>
      </trkpt>
      <trkpt lat="59.329103948548436" lon="14.09393792040646">
        <ele>63.77</ele>
        <time>2025-02-18T14:06:29.386Z</time>
      </trkpt>
      <trkpt lat="59.32917695492506" lon="14.093799954280257">
        <ele>63.78</ele>
        <time>2025-02-18T14:07:27.613Z</time>
      </trkpt>
      <trkpt lat="59.329250967130065" lon="14.093660982325673">
        <ele>63.79</ele>
        <time>2025-02-18T14:08:25.841Z</time>
      </trkpt>
      <trkpt lat="59.32932598516345" lon="14.093517987057567">
        <ele>63.8</ele>
        <time>2025-02-18T14:09:24.071Z</time>
      </trkpt>
      <trkpt lat="59.329401925206184" lon="14.09337499178946">
        <ele>63.81</ele>
        <time>2025-02-18T14:10:22.303Z</time>
      </trkpt>
      <trkpt lat="59.32947996072471" lon="14.093230990692973">
        <ele>63.81</ele>
        <time>2025-02-18T14:11:20.536Z</time>
      </trkpt>
      <trkpt lat="59.32955699041486" lon="14.093084977939725">
        <ele>63.82</ele>
        <time>2025-02-18T14:12:18.771Z</time>
      </trkpt>
      <trkpt lat="59.329635947942734" lon="14.092939971014857">
        <ele>63.82</ele>
        <time>2025-02-18T14:13:17.008Z</time>
      </trkpt>
      <trkpt lat="59.32971599511802" lon="14.09279496408999">
        <ele>63.8</ele>
        <time>2025-02-18T14:14:15.247Z</time>
      </trkpt>
      <trkpt lat="59.32979696430266" lon="14.09264693967998">
        <ele>63.79</ele>
        <time>2025-02-18T14:15:13.487Z</time>
      </trkpt>
      <trkpt lat="59.32987994514406" lon="14.092499921098351">
        <ele>63.78</ele>
        <time>2025-02-18T14:16:11.729Z</time>
      </trkpt>
      <trkpt lat="59.32996493764222" lon="14.092360949143767">
        <ele>63.77</ele>
        <time>2025-02-18T14:17:09.973Z</time>
      </trkpt>
      <trkpt lat="59.330049930140376" lon="14.092226922512054">
        <ele>63.77</ele>
        <time>2025-02-18T14:18:08.219Z</time>
      </trkpt>
      <trkpt lat="59.330134922638535" lon="14.092096919193864">
        <ele>63.77</ele>
        <time>2025-02-18T14:19:06.466Z</time>
      </trkpt>
      <trkpt lat="59.33021999895573" lon="14.091971945017576">
        <ele>63.77</ele>
        <time>2025-02-18T14:20:04.715Z</time>
      </trkpt>
      <trkpt lat="59.330304991453886" lon="14.091851999983191">
        <ele>63.78</ele>
        <time>2025-02-18T14:21:02.966Z</time>
      </trkpt>
      <trkpt lat="59.330387972295284" lon="14.091735994443297">
        <ele>63.78</ele>
        <time>2025-02-18T14:22:01.218Z</time>
      </trkpt>
      <trkpt lat="59.33046793565154" lon="14.091623928397894">
        <ele>63.79</ele>
        <time>2025-02-18T14:22:59.472Z</time>
      </trkpt>
      <trkpt lat="59.33054496534169" lon="14.091513957828283">
        <ele>63.79</ele>
        <time>2025-02-18T14:23:57.728Z</time>
      </trkpt>
      <trkpt lat="59.330621995031834" lon="14.091408932581544">
        <ele>63.79</ele>
        <time>2025-02-18T14:24:55.985Z</time>
      </trkpt>
      <trkpt lat="59.33069592341781" lon="14.091304996982217">
        <ele>63.79</ele>
        <time>2025-02-18T14:25:54.244Z</time>
      </trkpt>
      <trkpt lat="59.33076792396605" lon="14.091199971735477">
        <ele>63.78</ele>
        <time>2025-02-18T14:26:52.504Z</time>
      </trkpt>
      <trkpt lat="59.330839924514294" lon="14.091092934831977">
        <ele>63.78</ele>
        <time>2025-02-18T14:27:50.765Z</time>
      </trkpt>
      <trkpt lat="59.3309139367193" lon="14.09098899923265">
        <ele>63.78</ele>
        <time>2025-02-18T14:28:49.028Z</time>
      </trkpt>
      <trkpt lat="59.33098694309592" lon="14.090879950672388">
        <ele>63.78</ele>
        <time>2025-02-18T14:29:47.292Z</time>
      </trkpt>
      <trkpt lat="59.33106196112931" lon="14.090766962617636">
        <ele>63.78</ele>
        <time>2025-02-18T14:30:45.558Z</time>
      </trkpt>
      <trkpt lat="59.331137984991074" lon="14.09064693376422">
        <ele>63.77</ele>
        <time>2025-02-18T14:31:43.825Z</time>
      </trkpt>
      <trkpt lat="59.33121392503381" lon="14.090523971244693">
        <ele>63.77</ele>
        <time>2025-02-18T14:32:42.094Z</time>
      </trkpt>
      <trkpt lat="59.331292966380715" lon="14.090396985411644">
        <ele>63.76</ele>
        <time>2025-02-18T14:33:40.365Z</time>
      </trkpt>
      <trkpt lat="59.33137393556535" lon="14.090269999578595">
        <ele>63.74</ele>
        <time>2025-02-18T14:34:38.637Z</time>
      </trkpt>
      <trkpt lat="59.3314559943974" lon="14.090140918269753">
        <ele>63.73</ele>
        <time>2025-02-18T14:35:36.911Z</time>
      </trkpt>
      <trkpt lat="59.3315389752388" lon="14.090011920779943">
        <ele>63.72</ele>
        <time>2025-02-18T14:36:35.187Z</time>
      </trkpt>
      <trkpt lat="59.33162296190858" lon="14.089878983795643">
        <ele>63.71</ele>
        <time>2025-02-18T14:37:33.464Z</time>
      </trkpt>
      <trkpt lat="59.33170594274998" lon="14.089749986305833">
        <ele>63.7</ele>
        <time>2025-02-18T14:38:31.743Z</time>
      </trkpt>
      <trkpt lat="59.331786995753646" lon="14.089624928310513">
        <ele>63.69</ele>
        <time>2025-02-18T14:39:30.024Z</time>
      </trkpt>
      <trkpt lat="59.33186796493828" lon="14.089502971619368">
        <ele>63.68</ele>
        <time>2025-02-18T14:40:28.306Z</time>
      </trkpt>
      <trkpt lat="59.33194893412292" lon="14.089382942765951">
        <ele>63.68</ele>
        <time>2025-02-18T14:41:26.590Z</time>
      </trkpt>
      <trkpt lat="59.33202898129821" lon="14.089261991903186">
        <ele>63.67</ele>
        <time>2025-02-18T14:42:24.876Z</time>
      </trkpt>
      <trkpt lat="59.332109950482845" lon="14.089144980534911">
        <ele>63.66</ele>
        <time>2025-02-18T14:43:23.163Z</time>
      </trkpt>
      <trkpt lat="59.33219192549586" lon="14.089029980823398">
        <ele>63.65</ele>
        <time>2025-02-18T14:44:21.452Z</time>
      </trkpt>
      <trkpt lat="59.33227398432791" lon="14.088916992768645">
        <ele>63.64</ele>
        <time>2025-02-18T14:45:19.743Z</time>
      </trkpt>
      <trkpt lat="59.33235797099769" lon="14.088802998885512">
        <ele>63.63</ele>
        <time>2025-02-18T14:46:18.035Z</time>
      </trkpt>
      <trkpt lat="59.33244296349585" lon="14.088690932840109">
        <ele>63.62</ele>
        <time>2025-02-18T14:47:16.329Z</time>
      </trkpt>
      <trkpt lat="59.33252795599401" lon="14.088580962270498">
        <ele>63.61</ele>
        <time>2025-02-18T14:48:14.624Z</time>
      </trkpt>
      <trkpt lat="59.33261395432055" lon="14.088471997529268">
        <ele>63.6</ele>
        <time>2025-02-18T14:49:12.921Z</time>
      </trkpt>
      <trkpt lat="59.33269894681871" lon="14.088357919827104">
        <ele>63.6</ele>
        <time>2025-02-18T14:50:11.220Z</time>
      </trkpt>
      <trkpt lat="59.33278494514525" lon="14.08824392594397">
        <ele>63.6</ele>
        <time>2025-02-18T14:51:09.520Z</time>
      </trkpt>
      <trkpt lat="59.33287094347179" lon="14.088129932060838">
        <ele>63.61</ele>
        <time>2025-02-18T14:52:07.822Z</time>
      </trkpt>
      <trkpt lat="59.33295694179833" lon="14.088014932349324">
        <ele>63.61</ele>
        <time>2025-02-18T14:53:06.126Z</time>
      </trkpt>
      <trkpt lat="59.33304193429649" lon="14.087900938466191">
        <ele>63.61</ele>
        <time>2025-02-18T14:54:04.431Z</time>
      </trkpt>
      <trkpt lat="59.33312592096627" lon="14.087787950411439">
        <ele>63.61</ele>
        <time>2025-02-18T14:55:02.738Z</time>
      </trkpt>
      <trkpt lat="59.3332089856267" lon="14.087678985670209">
        <ele>63.61</ele>
        <time>2025-02-18T14:56:01.047Z</time>
      </trkpt>
      <trkpt lat="59.33328794315457" lon="14.087571948766708">
        <ele>63.61</ele>
        <time>2025-02-18T14:56:59.357Z</time>
      </trkpt>
      <trkpt lat="59.3333659786731" lon="14.08746792934835">
        <ele>63.62</ele>
        <time>2025-02-18T14:57:57.669Z</time>
      </trkpt>
      <trkpt lat="59.333438985049725" lon="14.087365921586752">
        <ele>63.62</ele>
        <time>2025-02-18T14:58:55.982Z</time>
      </trkpt>
      <trkpt lat="59.33350997976959" lon="14.087264919653535">
        <ele>63.62</ele>
        <time>2025-02-18T14:59:54.297Z</time>
      </trkpt>
      <trkpt lat="59.33357896283269" lon="14.087161989882588">
        <ele>63.62</ele>
        <time>2025-02-18T15:00:52.613Z</time>
      </trkpt>
      <trkpt lat="59.33364794589579" lon="14.087055958807468">
        <ele>63.63</ele>
        <time>2025-02-18T15:01:50.930Z</time>
      </trkpt>
      <trkpt lat="59.33371491730213" lon="14.08695294521749">
        <ele>63.63</ele>
        <time>2025-02-18T15:02:49.249Z</time>
      </trkpt>
      <trkpt lat="59.33377996087074" lon="14.086849931627512">
        <ele>63.63</ele>
        <time>2025-02-18T15:03:47.569Z</time>
      </trkpt>
      <trkpt lat="59.3338459264487" lon="14.086747923865914">
        <ele>63.64</ele>
        <time>2025-02-18T15:04:45.890Z</time>
      </trkpt>
      <trkpt lat="59.333912981674075" lon="14.086645999923348">
        <ele>63.64</ele>
        <time>2025-02-18T15:05:44.213Z</time>
      </trkpt>
      <trkpt lat="59.333979953080416" lon="14.086544997990131">
        <ele>63.64</ele>
        <time>2025-02-18T15:06:42.537Z</time>
      </trkpt>
      <trkpt lat="59.334045918658376" lon="14.086441984400153">
        <ele>63.64</ele>
        <time>2025-02-18T15:07:40.862Z</time>
      </trkpt>
      <trkpt lat="59.334109956398606" lon="14.086339976638556">
        <ele>63.64</ele>
        <time>2025-02-18T15:08:39.189Z</time>
      </trkpt>
      <trkpt lat="59.334172988310456" lon="14.086232939735055">
        <ele>63.64</ele>
        <time>2025-02-18T15:09:37.517Z</time>
      </trkpt>
      <trkpt lat="59.33423392474651" lon="14.086129926145077">
        <ele>63.64</ele>
        <time>2025-02-18T15:10:35.846Z</time>
      </trkpt>
      <trkpt lat="59.33429393917322" lon="14.08602791838348">
        <ele>63.65</ele>
        <time>2025-02-18T15:11:34.177Z</time>
      </trkpt>
      <trkpt lat="59.33435395359993" lon="14.085931945592165">
        <ele>63.65</ele>
        <time>2025-02-18T15:12:32.509Z</time>
      </trkpt>
      <trkpt lat="59.33441497385502" lon="14.085840918123722">
        <ele>63.65</ele>
        <time>2025-02-18T15:13:30.842Z</time>
      </trkpt>
      <trkpt lat="59.334472976624966" lon="14.08574796281755">
        <ele>63.65</ele>
        <time>2025-02-18T15:14:29.176Z</time>
      </trkpt>
      <trkpt lat="59.33453097939491" lon="14.085656935349107">
        <ele>63.65</ele>
        <time>2025-02-18T15:15:27.512Z</time>
      </trkpt>
      <trkpt lat="59.33458797633648" lon="14.085566997528076">
        <ele>63.66</ele>
        <time>2025-02-18T15:16:25.849Z</time>
      </trkpt>
      <trkpt lat="59.334645979106426" lon="14.085477981716394">
        <ele>63.66</ele>
        <time>2025-02-18T15:17:24.187Z</time>
      </trkpt>
      <trkpt lat="59.33470398187637" lon="14.085385948419571">
        <ele>63.65</ele>
        <time>2025-02-18T15:18:22.526Z</time>
      </trkpt>
      <trkpt lat="59.33476198464632" lon="14.085290981456637">
        <ele>63.65</ele>
        <time>2025-02-18T15:19:20.866Z</time>
      </trkpt>
      <trkpt lat="59.33481998741627" lon="14.085196936503053">
        <ele>63.65</ele>
        <time>2025-02-18T15:20:19.208Z</time>
      </trkpt>
      <trkpt lat="59.334877990186214" lon="14.08510196954012">
        <ele>63.65</ele>
        <time>2025-02-18T15:21:17.551Z</time>
      </trkpt>
      <trkpt lat="59.33493599295616" lon="14.085008930414915">
        <ele>63.65</ele>
        <time>2025-02-18T15:22:15.895Z</time>
      </trkpt>
      <trkpt lat="59.33499399572611" lon="14.084916980937123">
        <ele>63.65</ele>
        <time>2025-02-18T15:23:14.240Z</time>
      </trkpt>
      <trkpt lat="59.335052920505404" lon="14.0848249476403">
        <ele>63.65</ele>
        <time>2025-02-18T15:24:12.586Z</time>
      </trkpt>
      <trkpt lat="59.33511092327535" lon="14.084733920171857">
        <ele>63.64</ele>
        <time>2025-02-18T15:25:10.934Z</time>
      </trkpt>
      <trkpt lat="59.33516699820757" lon="14.084647921845317">
        <ele>63.64</ele>
        <time>2025-02-18T15:26:09.283Z</time>
      </trkpt>
      <trkpt lat="59.335223995149136" lon="14.084558989852667">
        <ele>63.63</ele>
        <time>2025-02-18T15:27:07.633Z</time>
      </trkpt>
      <trkpt lat="59.33527998626232" lon="14.084468968212605">
        <ele>63.63</ele>
        <time>2025-02-18T15:28:05.984Z</time>
      </trkpt>
      <trkpt lat="59.33533497154713" lon="14.08437492325902">
        <ele>63.62</ele>
        <time>2025-02-18T15:29:04.336Z</time>
      </trkpt>
      <trkpt lat="59.33539096266031" lon="14.084278950467706">
        <ele>63.61</ele>
        <time>2025-02-18T15:30:02.689Z</time>
      </trkpt>
      <trkpt lat="59.33544997125864" lon="14.084182977676392">
        <ele>63.59</ele>
        <time>2025-02-18T15:31:01.044Z</time>
      </trkpt>
      <trkpt lat="59.33551291935146" lon="14.084090944379568">
        <ele>63.58</ele>
        <time>2025-02-18T15:31:59.400Z</time>
      </trkpt>
      <trkpt lat="59.33557997457683" lon="14.083996983245015">
        <ele>63.56</ele>
        <time>2025-02-18T15:32:57.757Z</time>
      </trkpt>
      <trkpt lat="59.335652980953455" lon="14.083904949948192">
        <ele>63.54</ele>
        <time>2025-02-18T15:33:56.116Z</time>
      </trkpt>
      <trkpt lat="59.33572992682457" lon="14.083823980763555">
        <ele>63.53</ele>
        <time>2025-02-18T15:34:54.476Z</time>
      </trkpt>
      <trkpt lat="59.335812991485" lon="14.083753991872072">
        <ele>63.51</ele>
        <time>2025-02-18T15:35:52.837Z</time>
      </trkpt>
      <trkpt lat="59.33590091764927" lon="14.083692971616983">
        <ele>63.49</ele>
        <time>2025-02-18T15:36:51.200Z</time>
      </trkpt>
      <trkpt lat="59.33599194511771" lon="14.08364494331181">
        <ele>63.47</ele>
        <time>2025-02-18T15:37:49.564Z</time>
      </trkpt>
      <trkpt lat="59.336084984242916" lon="14.083607979118824">
        <ele>63.45</ele>
        <time>2025-02-18T15:38:47.930Z</time>
      </trkpt>
      <trkpt lat="59.33617894537747" lon="14.083584928885102">
        <ele>63.43</ele>
        <time>2025-02-18T15:39:46.298Z</time>
      </trkpt>
      <trkpt lat="59.33627198450267" lon="14.083573948591948">
        <ele>63.42</ele>
        <time>2025-02-18T15:40:44.667Z</time>
      </trkpt>
      <trkpt lat="59.336364939808846" lon="14.08357696607709">
        <ele>63.4</ele>
        <time>2025-02-18T15:41:43.038Z</time>
      </trkpt>
      <trkpt lat="59.33645898476243" lon="14.083589958027005">
        <ele>63.38</ele>
        <time>2025-02-18T15:42:41.410Z</time>
      </trkpt>
      <trkpt lat="59.33654992841184" lon="14.083613930270076">
        <ele>63.35</ele>
        <time>2025-02-18T15:43:39.783Z</time>
      </trkpt>
      <trkpt lat="59.33663894422352" lon="14.083640919998288">
        <ele>63.33</ele>
        <time>2025-02-18T15:44:38.158Z</time>
      </trkpt>
      <trkpt lat="59.336728965863585" lon="14.083669921383262">
        <ele>63.3</ele>
        <time>2025-02-18T15:45:36.534Z</time>
      </trkpt>
      <trkpt lat="59.33681798167527" lon="14.083697916939855">
        <ele>63.27</ele>
        <time>2025-02-18T15:46:34.912Z</time>
      </trkpt>
      <trkpt lat="59.33690699748695" lon="14.08372599631548">
        <ele>63.24</ele>
        <time>2025-02-18T15:47:33.291Z</time>
      </trkpt>
      <trkpt lat="59.3369959294796" lon="14.083754997700453">
        <ele>63.22</ele>
        <time>2025-02-18T15:48:31.672Z</time>
      </trkpt>
      <trkpt lat="59.33708595111966" lon="14.083783999085426">
        <ele>63.19</ele>
        <time>2025-02-18T15:49:30.054Z</time>
      </trkpt>
      <trkpt lat="59.33717496693134" lon="14.083808977156878">
        <ele>63.17</ele>
        <time>2025-02-18T15:50:28.438Z</time>
      </trkpt>
      <trkpt lat="59.337265994399786" lon="14.083822974935174">
        <ele>63.14</ele>
        <time>2025-02-18T15:51:26.823Z</time>
      </trkpt>
      <trkpt lat="59.33735593222082" lon="14.083822974935174">
        <ele>63.12</ele>
        <time>2025-02-18T15:52:25.210Z</time>
      </trkpt>
      <trkpt lat="59.3374449480325" lon="14.083813922479749">
        <ele>63.09</ele>
        <time>2025-02-18T15:53:23.598Z</time>
      </trkpt>
      <trkpt lat="59.33753094635904" lon="14.083798918873072">
        <ele>63.05</ele>
        <time>2025-02-18T15:54:21.987Z</time>
      </trkpt>
      <trkpt lat="59.33761493302882" lon="14.083777964115143">
        <ele>63.01</ele>
        <time>2025-02-18T15:55:20.378Z</time>
      </trkpt>
      <trkpt lat="59.33769699186087" lon="14.08374896273017">
        <ele>62.97</ele>
        <time>2025-02-18T15:56:18.770Z</time>
      </trkpt>
      <trkpt lat="59.33777393773198" lon="14.083712920546532">
        <ele>62.92</ele>
        <time>2025-02-18T15:57:17.163Z</time>
      </trkpt>
      <trkpt lat="59.337846944108605" lon="14.083670927211642">
        <ele>62.87</ele>
        <time>2025-02-18T15:58:15.558Z</time>
      </trkpt>
      <trkpt lat="59.33791793882847" lon="14.08362197689712">
        <ele>62.82</ele>
        <time>2025-02-18T15:59:13.954Z</time>
      </trkpt>
      <trkpt lat="59.33798692189157" lon="14.083572942763567">
        <ele>62.77</ele>
        <time>2025-02-18T16:00:12.351Z</time>
      </trkpt>
      <trkpt lat="59.338055988773704" lon="14.083525920286775">
        <ele>62.71</ele>
        <time>2025-02-18T16:01:10.749Z</time>
      </trkpt>
      <trkpt lat="59.338125977665186" lon="14.083475964143872">
        <ele>62.65</ele>
        <time>2025-02-18T16:02:09.148Z</time>
      </trkpt>
      <trkpt lat="59.33819898404181" lon="14.083418967202306">
        <ele>62.59</ele>
        <time>2025-02-18T16:03:07.549Z</time>
      </trkpt>
      <trkpt lat="59.338272996246815" lon="14.0833639819175">
        <ele>62.53</ele>
        <time>2025-02-18T16:04:05.951Z</time>
      </trkpt>
      <trkpt lat="59.33835195377469" lon="14.083312936127186">
        <ele>62.47</ele>
        <time>2025-02-18T16:05:04.354Z</time>
      </trkpt>
      <trkpt lat="59.33843392878771" lon="14.083259962499142">
        <ele>62.41</ele>
        <time>2025-02-18T16:06:02.759Z</time>
      </trkpt>
      <trkpt lat="59.33851992711425" lon="14.083201959729195">
        <ele>62.34</ele>
        <time>2025-02-18T16:07:01.165Z</time>
      </trkpt>
      <trkpt lat="59.33860994875431" lon="14.083140939474106">
        <ele>62.27</ele>
        <time>2025-02-18T16:07:59.573Z</time>
      </trkpt>
      <trkpt lat="59.338702987879515" lon="14.083082936704159">
        <ele>62.2</ele>
        <time>2025-02-18T16:08:57.982Z</time>
      </trkpt>
      <trkpt lat="59.33880197815597" lon="14.083033986389637">
        <ele>62.14</ele>
        <time>2025-02-18T16:09:56.393Z</time>
      </trkpt>
      <trkpt lat="59.33890599757433" lon="14.082996938377619">
        <ele>62.07</ele>
        <time>2025-02-18T16:10:54.805Z</time>
      </trkpt>
      <trkpt lat="59.3390129506588" lon="14.082973971962929">
        <ele>62.0</ele>
        <time>2025-02-18T16:11:53.219Z</time>
      </trkpt>
      <trkpt lat="59.33912292122841" lon="14.08297598361969">
        <ele>61.94</ele>
        <time>2025-02-18T16:12:51.635Z</time>
      </trkpt>
      <trkpt lat="59.33923297561705" lon="14.082994926720858">
        <ele>61.88</ele>
        <time>2025-02-18T16:13:50.053Z</time>
      </trkpt>
      <trkpt lat="59.339346969500184" lon="14.083026945590973">
        <ele>61.81</ele>
        <time>2025-02-18T16:14:48.473Z</time>
      </trkpt>
      <trkpt lat="59.339456940069795" lon="14.083081930875778">
        <ele>61.75</ele>
        <time>2025-02-18T16:15:46.894Z</time>
      </trkpt>
      <trkpt lat="59.339564982801676" lon="14.083145968616009">
        <ele>61.68</ele>
        <time>2025-02-18T16:16:45.317Z</time>
      </trkpt>
      <trkpt lat="59.33966992422938" lon="14.083211934193969">
        <ele>61.61</ele>
        <time>2025-02-18T16:17:43.742Z</time>
      </trkpt>
      <trkpt lat="59.33977394364774" lon="14.083279995247722">
        <ele>61.54</ele>
        <time>2025-02-18T16:18:42.169Z</time>
      </trkpt>
      <trkpt lat="59.3398779630661" lon="14.08334394916892">
        <ele>61.47</ele>
        <time>2025-02-18T16:19:40.597Z</time>
      </trkpt>
      <trkpt lat="59.33998097665608" lon="14.083411926403642">
        <ele>61.41</ele>
        <time>2025-02-18T16:20:39.027Z</time>
      </trkpt>
      <trkpt lat="59.34008499607444" lon="14.083481999114156">
        <ele>61.35</ele>
        <time>2025-02-18T16:21:37.459Z</time>
      </trkpt>
      <trkpt lat="59.340188931673765" lon="14.083551988005638">
        <ele>61.29</ele>
        <time>2025-02-18T16:22:35.893Z</time>
      </trkpt>
      <trkpt lat="59.34029194526374" lon="14.083616947755218">
        <ele>61.23</ele>
        <time>2025-02-18T16:23:34.328Z</time>
      </trkpt>
      <trkpt lat="59.3403959646821" lon="14.083681991323829">
        <ele>61.17</ele>
        <time>2025-02-18T16:24:32.765Z</time>
      </trkpt>
      <trkpt lat="59.34049897827208" lon="14.083746951073408">
        <ele>61.11</ele>
        <time>2025-02-18T16:25:31.204Z</time>
      </trkpt>
      <trkpt lat="59.3405999802053" lon="14.08381199464202">
        <ele>61.05</ele>
        <time>2025-02-18T16:26:29.645Z</time>
      </trkpt>
      <trkpt lat="59.340700982138515" lon="14.08387796021998">
        <ele>60.99</ele>
        <time>2025-02-18T16:27:28.087Z</time>
      </trkpt>
      <trkpt lat="59.34080097824335" lon="14.08394099213183">
        <ele>60.93</ele>
        <time>2025-02-18T16:28:26.531Z</time>
      </trkpt>
      <trkpt lat="59.340898962691426" lon="14.084001928567886">
        <ele>60.88</ele>
        <time>2025-02-18T16:29:24.977Z</time>
      </trkpt>
      <trkpt lat="59.3409969471395" lon="14.084065966308117">
        <ele>60.82</ele>
        <time>2025-02-18T16:30:23.424Z</time>
      </trkpt>
      <trkpt lat="59.341093925759196" lon="14.084127992391586">
        <ele>60.77</ele>
        <time>2025-02-18T16:31:21.873Z</time>
      </trkpt>
      <trkpt lat="59.34118897654116" lon="14.084192952141166">
        <ele>60.72</ele>
        <time>2025-02-18T16:32:20.324Z</time>
      </trkpt>
      <trkpt lat="59.341283943504095" lon="14.084253972396255">
        <ele>60.67</ele>
        <time>2025-02-18T16:33:18.776Z</time>
      </trkpt>
      <trkpt lat="59.34137597680092" lon="14.084312980994582">
        <ele>60.62</ele>
        <time>2025-02-18T16:34:17.230Z</time>
      </trkpt>
      <trkpt lat="59.34146692045033" lon="14.084369977936149">
        <ele>60.57</ele>
        <time>2025-02-18T16:35:15.685Z</time>
      </trkpt>
      <trkpt lat="59.34155694209039" lon="14.084425969049335">
        <ele>60.52</ele>
        <time>2025-02-18T16:36:14.142Z</time>
      </trkpt>
      <trkpt lat="59.341645957902074" lon="14.084477936848998">
        <ele>60.47</ele>
        <time>2025-02-18T16:37:12.600Z</time>
      </trkpt>
      <trkpt lat="59.341734973713756" lon="14.08452395349741">
        <ele>60.42</ele>
        <time>2025-02-18T16:38:11.060Z</time>
      </trkpt>
      <trkpt lat="59.341821977868676" lon="14.084557984024286">
        <ele>60.38</ele>
        <time>2025-02-18T16:39:09.521Z</time>
      </trkpt>
      <trkpt lat="59.341907976195216" lon="14.084577932953835">
        <ele>60.33</ele>
        <time>2025-02-18T16:40:07.984Z</time>
      </trkpt>
      <trkpt lat="59.341990957036614" lon="14.084582962095737">
        <ele>60.3</ele>
        <time>2025-02-18T16:41:06.448Z</time>
      </trkpt>
      <trkpt lat="59.34207192622125" lon="14.084573993459344">
        <ele>60.26</ele>
        <time>2025-02-18T16:42:04.913Z</time>
      </trkpt>
      <trkpt lat="59.34215197339654" lon="14.084555972367525">
        <ele>60.22</ele>
        <time>2025-02-18T16:43:03.380Z</time>
      </trkpt>
      <trkpt lat="59.342228919267654" lon="14.084526970982552">
        <ele>60.18</ele>
        <time>2025-02-18T16:44:01.848Z</time>
      </trkpt>
      <trkpt lat="59.34230293147266" lon="14.08448095433414">
        <ele>60.13</ele>
        <time>2025-02-18T16:45:00.317Z</time>
      </trkpt>
      <trkpt lat="59.34237392619252" lon="14.08441599458456">
        <ele>60.09</ele>
        <time>2025-02-18T16:45:58.787Z</time>
      </trkpt>
      <trkpt lat="59.342441987246275" lon="14.084333935752511">
        <ele>60.06</ele>
        <time>2025-02-18T16:46:57.259Z</time>
      </trkpt>
      <trkpt lat="59.342507952824235" lon="14.0842429921031">
        <ele>60.01</ele>
        <time>2025-02-18T16:47:55.732Z</time>
      </trkpt>
      <trkpt lat="59.342574924230576" lon="14.084143918007612">
        <ele>59.97</ele>
        <time>2025-02-18T16:48:54.206Z</time>
      </trkpt>
      <trkpt lat="59.34264097362757" lon="14.084036964923143">
        <ele>59.93</ele>
        <time>2025-02-18T16:49:52.682Z</time>
      </trkpt>
      <trkpt lat="59.342704927548766" lon="14.083924982696772">
        <ele>59.89</ele>
        <time>2025-02-18T16:50:51.159Z</time>
      </trkpt>
      <trkpt lat="59.34276997111738" lon="14.083808977156878">
        <ele>59.85</ele>
        <time>2025-02-18T16:51:49.637Z</time>
      </trkpt>
      <trkpt lat="59.34283694252372" lon="14.083692971616983">
        <ele>59.82</ele>
        <time>2025-02-18T16:52:48.117Z</time>
      </trkpt>
      <trkpt lat="59.34290592558682" lon="14.08357897773385">
        <ele>59.79</ele>
        <time>2025-02-18T16:53:46.598Z</time>
      </trkpt>
      <trkpt lat="59.342978931963444" lon="14.083462972193956">
        <ele>59.76</ele>
        <time>2025-02-18T16:54:45.081Z</time>
      </trkpt>
      <trkpt lat="59.34305696748197" lon="14.083350989967585">
        <ele>59.73</ele>
        <time>2025-02-18T16:55:43.565Z</time>
      </trkpt>
      <trkpt lat="59.34313894249499" lon="14.083247976377606">
        <ele>59.69</ele>
        <time>2025-02-18T16:56:42.051Z</time>
      </trkpt>
      <trkpt lat="59.34322695247829" lon="14.083158960565925">
        <ele>59.66</ele>
        <time>2025-02-18T16:57:40.538Z</time>
      </trkpt>
      <trkpt lat="59.34331697411835" lon="14.083080925047398">
        <ele>59.63</ele>
        <time>2025-02-18T16:58:39.027Z</time>
      </trkpt>
      <trkpt lat="59.343408923596144" lon="14.08301898278296">
        <ele>59.61</ele>
        <time>2025-02-18T16:59:37.518Z</time>
      </trkpt>
      <trkpt lat="59.34350196272135" lon="14.082967936992645">
        <ele>59.59</ele>
        <time>2025-02-18T17:00:36.010Z</time>
      </trkpt>
      <trkpt lat="59.34359491802752" lon="14.082922926172614">
        <ele>59.56</ele>
        <time>2025-02-18T17:01:34.504Z</time>
      </trkpt>
      <trkpt lat="59.343687957152724" lon="14.082885961979628">
        <ele>59.53</ele>
        <time>2025-02-18T17:02:32.999Z</time>
      </trkpt>
      <trkpt lat="59.34377999044955" lon="14.08285092562437">
        <ele>59.51</ele>
        <time>2025-02-18T17:03:31.496Z</time>
      </trkpt>
      <trkpt lat="59.34387193992734" lon="14.082816978916526">
        <ele>59.48</ele>
        <time>2025-02-18T17:04:29.994Z</time>
      </trkpt>
      <trkpt lat="59.34396397322416" lon="14.08278395421803">
        <ele>59.46</ele>
        <time>2025-02-18T17:05:28.494Z</time>
      </trkpt>
      <trkpt lat="59.344055922701955" lon="14.082750929519534">
        <ele>59.44</ele>
        <time>2025-02-18T17:06:26.995Z</time>
      </trkpt>
      <trkpt lat="59.34414795599878" lon="14.0827199164778">
        <ele>59.42</ele>
        <time>2025-02-18T17:07:25.498Z</time>
      </trkpt>
      <trkpt lat="59.34423898346722" lon="14.082689993083477">
        <ele>59.4</ele>
        <time>2025-02-18T17:08:24.002Z</time>
      </trkpt>
      <trkpt lat="59.34433093294501" lon="14.082663925364614">
        <ele>59.39</ele>
        <time>2025-02-18T17:09:22.508Z</time>
      </trkpt>
      <trkpt lat="59.344421960413456" lon="14.082644982263446">
        <ele>59.38</ele>
        <time>2025-02-18T17:10:21.015Z</time>
      </trkpt>
      <trkpt lat="59.34451198205352" lon="14.082629978656769">
        <ele>59.38</ele>
        <time>2025-02-18T17:11:19.524Z</time>
      </trkpt>
      <trkpt lat="59.34460191987455" lon="14.082614975050092">
        <ele>59.37</ele>
        <time>2025-02-18T17:12:18.034Z</time>
      </trkpt>
      <trkpt lat="59.34469093568623" lon="14.082599971443415">
        <ele>59.37</ele>
        <time>2025-02-18T17:13:16.545Z</time>
      </trkpt>
      <trkpt lat="59.34477995149791" lon="14.082579938694835">
        <ele>59.37</ele>
        <time>2025-02-18T17:14:15.058Z</time>
      </trkpt>
      <trkpt lat="59.344870978966355" lon="14.0825489256531">
        <ele>59.36</ele>
        <time>2025-02-18T17:15:13.572Z</time>
      </trkpt>
      <trkpt lat="59.34496292844415" lon="14.08250693231821">
        <ele>59.36</ele>
        <time>2025-02-18T17:16:12.088Z</time>
      </trkpt>
      <trkpt lat="59.34505496174097" lon="14.082451947033405">
        <ele>59.36</ele>
        <time>2025-02-18T17:17:10.605Z</time>
      </trkpt>
      <trkpt lat="59.345146995037794" lon="14.0823779348284">
        <ele>59.35</ele>
        <time>2025-02-18T17:18:09.124Z</time>
      </trkpt>
      <trkpt lat="59.345236932858825" lon="14.08228699117899">
        <ele>59.34</ele>
        <time>2025-02-18T17:19:07.645Z</time>
      </trkpt>
      <trkpt lat="59.345324942842126" lon="14.082185989245772">
        <ele>59.34</ele>
        <time>2025-02-18T17:20:06.167Z</time>
      </trkpt>
      <trkpt lat="59.345410941168666" lon="14.082077946513891">
        <ele>59.33</ele>
        <time>2025-02-18T17:21:04.691Z</time>
      </trkpt>
      <trkpt lat="59.345496939495206" lon="14.081961940973997">
        <ele>59.33</ele>
        <time>2025-02-18T17:22:03.217Z</time>
      </trkpt>
      <trkpt lat="59.345578998327255" lon="14.081839984282851">
        <ele>59.34</ele>
        <time>2025-02-18T17:23:01.744Z</time>
      </trkpt>
      <trkpt lat="59.34566097334027" lon="14.081714926287532">
        <ele>59.35</ele>
        <time>2025-02-18T17:24:00.273Z</time>
      </trkpt>
      <trkpt lat="59.34573993086815" lon="14.081591963768005">
        <ele>59.36</ele>
        <time>2025-02-18T17:24:58.804Z</time>
      </trkpt>
      <trkpt lat="59.345817966386676" lon="14.081463972106576">
        <ele>59.38</ele>
        <time>2025-02-18T17:25:57.336Z</time>
      </trkpt>
      <trkpt lat="59.34589399024844" lon="14.081334974616766">
        <ele>59.41</ele>
        <time>2025-02-18T17:26:55.870Z</time>
      </trkpt>
      <trkpt lat="59.345970936119556" lon="14.081208994612098">
        <ele>59.44</ele>
        <time>2025-02-18T17:27:54.405Z</time>
      </trkpt>
      <trkpt lat="59.34604595415294" lon="14.081082930788398">
        <ele>59.47</ele>
        <time>2025-02-18T17:28:52.942Z</time>
      </trkpt>
      <trkpt lat="59.34612097218633" lon="14.08095695078373">
        <ele>59.5</ele>
        <time>2025-02-18T17:29:51.481Z</time>
      </trkpt>
      <trkpt lat="59.34619498439133" lon="14.080836921930313">
        <ele>59.53</ele>
        <time>2025-02-18T17:30:50.021Z</time>
      </trkpt>
      <trkpt lat="59.346268996596336" lon="14.080717982724309">
        <ele>59.56</ele>
        <time>2025-02-18T17:31:48.563Z</time>
      </trkpt>
      <trkpt lat="59.34634191915393" lon="14.080601977184415">
        <ele>59.6</ele>
        <time>2025-02-18T17:32:47.106Z</time>
      </trkpt>
      <trkpt lat="59.34641199186444" lon="14.08048395998776">
        <ele>59.63</ele>
        <time>2025-02-18T17:33:45.651Z</time>
      </trkpt>
      <trkpt lat="59.346482986584306" lon="14.080367954447865">
        <ele>59.67</ele>
        <time>2025-02-18T17:34:44.197Z</time>
      </trkpt>
      <trkpt lat="59.34655196964741" lon="14.080253960564733">
        <ele>59.7</ele>
        <time>2025-02-18T17:35:42.745Z</time>
      </trkpt>
      <trkpt lat="59.34662195853889" lon="14.080137955024838">
        <ele>59.74</ele>
        <time>2025-02-18T17:36:41.294Z</time>
      </trkpt>
      <trkpt lat="59.34669094160199" lon="14.080019937828183">
        <ele>59.78</ele>
        <time>2025-02-18T17:37:39.845Z</time>
      </trkpt>
      <trkpt lat="59.346760930493474" lon="14.079897981137037">
        <ele>59.82</ele>
        <time>2025-02-18T17:38:38.397Z</time>
      </trkpt>
      <trkpt lat="59.3468339368701" lon="14.07977795228362">
        <ele>59.86</ele>
        <time>2025-02-18T17:39:36.951Z</time>
      </trkpt>
      <trkpt lat="59.34690895490348" lon="14.079652978107333">
        <ele>59.91</ele>
        <time>2025-02-18T17:40:35.506Z</time>
      </trkpt>
      <trkpt lat="59.34698397293687" lon="14.079525992274284">
        <ele>59.96</ele>
        <time>2025-02-18T17:41:34.063Z</time>
      </trkpt>
      <trkpt lat="59.347065947949886" lon="14.079395988956094">
        <ele>60.01</ele>
        <time>2025-02-18T17:42:32.621Z</time>
      </trkpt>
      <trkpt lat="59.347151946276426" lon="14.079267997294664">
        <ele>60.06</ele>
        <time>2025-02-18T17:43:31.181Z</time>
      </trkpt>
      <trkpt lat="59.34724196791649" lon="14.079142939299345">
        <ele>60.13</ele>
        <time>2025-02-18T17:44:29.743Z</time>
      </trkpt>
      <trkpt lat="59.34733592905104" lon="14.07902492210269">
        <ele>60.21</ele>
        <time>2025-02-18T17:45:28.307Z</time>
      </trkpt>
      <trkpt lat="59.34743592515588" lon="14.078923920169473">
        <ele>60.29</ele>
        <time>2025-02-18T17:46:26.873Z</time>
      </trkpt>
      <trkpt lat="59.34753994457424" lon="14.078844962641597">
        <ele>60.36</ele>
        <time>2025-02-18T17:47:25.440Z</time>
      </trkpt>
      <trkpt lat="59.347644969820976" lon="14.078780924901366">
        <ele>60.44</ele>
        <time>2025-02-18T17:48:24.009Z</time>
      </trkpt>
      <trkpt lat="59.347746977582574" lon="14.078726945444942">
        <ele>60.52</ele>
        <time>2025-02-18T17:49:22.580Z</time>
      </trkpt>
      <trkpt lat="59.34784697368741" lon="14.07867992296815">
        <ele>60.59</ele>
        <time>2025-02-18T17:50:21.152Z</time>
      </trkpt>
      <trkpt lat="59.347945963963866" lon="14.07863893546164">
        <ele>60.67</ele>
        <time>2025-02-18T17:51:19.726Z</time>
      </trkpt>
      <trkpt lat="59.34803891927004" lon="14.078596942126751">
        <ele>60.76</ele>
        <time>2025-02-18T17:52:18.302Z</time>
      </trkpt>
      <trkpt lat="59.34812793508172" lon="14.078554948791862">
        <ele>60.84</ele>
        <time>2025-02-18T17:53:16.879Z</time>
      </trkpt>
      <trkpt lat="59.34821393340826" lon="14.078513961285353">
        <ele>60.93</ele>
        <time>2025-02-18T17:54:15.457Z</time>
      </trkpt>
      <trkpt lat="59.34829599224031" lon="14.078472973778844">
        <ele>61.01</ele>
        <time>2025-02-18T17:55:14.037Z</time>
      </trkpt>
      <trkpt lat="59.348375955596566" lon="14.078431986272335">
        <ele>61.1</ele>
        <time>2025-02-18T17:56:12.618Z</time>
      </trkpt>
      <trkpt lat="59.348454996943474" lon="14.078386975452304">
        <ele>61.19</ele>
        <time>2025-02-18T17:57:11.200Z</time>
      </trkpt>
      <trkpt lat="59.34853294864297" lon="14.07833299599588">
        <ele>61.29</ele>
        <time>2025-02-18T17:58:09.784Z</time>
      </trkpt>
      <trkpt lat="59.34861198998988" lon="14.078272981569171">
        <ele>61.39</ele>
        <time>2025-02-18T17:59:08.369Z</time>
      </trkpt>
      <trkpt lat="59.34868994168937" lon="14.078204920515418">
        <ele>61.48</ele>
        <time>2025-02-18T18:00:06.956Z</time>
      </trkpt>
      <trkpt lat="59.34876495972276" lon="14.078128980472684">
        <ele>61.58</ele>
        <time>2025-02-18T18:01:05.544Z</time>
      </trkpt>
      <trkpt lat="59.34883796609938" lon="14.078048933297396">
        <ele>61.69</ele>
        <time>2025-02-18T18:02:04.133Z</time>
      </trkpt>
      <trkpt lat="59.348908960819244" lon="14.07796896994114">
        <ele>61.79</ele>
        <time>2025-02-18T18:03:02.724Z</time>
      </trkpt>
      <trkpt lat="59.348976938053966" lon="14.07788791693747">
        <ele>61.89</ele>
        <time>2025-02-18T18:04:01.316Z</time>
      </trkpt>
      <trkpt lat="59.34904592111707" lon="14.077804936096072">
        <ele>61.98</ele>
        <time>2025-02-18T18:04:59.909Z</time>
      </trkpt>
      <trkpt lat="59.34911599382758" lon="14.077718937769532">
        <ele>62.08</ele>
        <time>2025-02-18T18:05:58.503Z</time>
      </trkpt>
      <trkpt lat="59.349185982719064" lon="14.07762992195785">
        <ele>62.18</ele>
        <time>2025-02-18T18:06:57.099Z</time>
      </trkpt>
      <trkpt lat="59.349254965782166" lon="14.07753998413682">
        <ele>62.28</ele>
        <time>2025-02-18T18:07:55.696Z</time>
      </trkpt>
      <trkpt lat="59.34932394884527" lon="14.077449962496758">
        <ele>62.37</ele>
        <time>2025-02-18T18:08:54.294Z</time>
      </trkpt>
      <trkpt lat="59.34939594939351" lon="14.077360946685076">
        <ele>62.46</ele>
        <time>2025-02-18T18:09:52.894Z</time>
      </trkpt>
      <trkpt lat="59.349468955770135" lon="14.077275954186916">
        <ele>62.57</ele>
        <time>2025-02-18T18:10:51.495Z</time>
      </trkpt>
      <trkpt lat="59.34954095631838" lon="14.077189955860376">
        <ele>62.68</ele>
        <time>2025-02-18T18:11:50.098Z</time>
      </trkpt>
      <trkpt lat="59.34961195103824" lon="14.077104963362217">
        <ele>62.79</ele>
        <time>2025-02-18T18:12:48.702Z</time>
      </trkpt>
      <trkpt lat="59.34967892244458" lon="14.077021982520819">
        <ele>62.89</ele>
        <time>2025-02-18T18:13:47.307Z</time>
      </trkpt>
      <trkpt lat="59.349745977669954" lon="14.07694193534553">
        <ele>63.0</ele>
        <time>2025-02-18T18:14:45.913Z</time>
      </trkpt>
      <trkpt lat="59.349811943247914" lon="14.076864989474416">
        <ele>63.11</ele>
        <time>2025-02-18T18:15:44.521Z</time>
      </trkpt>
      <trkpt lat="59.349874975159764" lon="14.07678896561265">
        <ele>63.22</ele>
        <time>2025-02-18T18:16:43.130Z</time>
      </trkpt>
      <trkpt lat="59.34993792325258" lon="14.076716965064406">
        <ele>63.32</ele>
        <time>2025-02-18T18:17:41.740Z</time>
      </trkpt>
      <trkpt lat="59.34999592602253" lon="14.076646976172924">
        <ele>63.42</ele>
        <time>2025-02-18T18:18:40.351Z</time>
      </trkpt>
      <trkpt lat="59.350052922964096" lon="14.076581932604313">
        <ele>63.52</ele>
        <time>2025-02-18T18:19:38.963Z</time>
      </trkpt>
      <trkpt lat="59.35010698623955" lon="14.076522924005985">
        <ele>63.62</ele>
        <time>2025-02-18T18:20:37.576Z</time>
      </trkpt>
      <trkpt lat="59.350155936554074" lon="14.076464921236038">
        <ele>63.71</ele>
        <time>2025-02-18T18:21:36.190Z</time>
      </trkpt>
      <trkpt lat="59.35020497068763" lon="14.076410941779613">
        <ele>63.81</ele>
        <time>2025-02-18T18:22:34.805Z</time>
      </trkpt>
      <trkpt lat="59.35025199316442" lon="14.07635796815157">
        <ele>63.9</ele>
        <time>2025-02-18T18:23:33.421Z</time>
      </trkpt>
      <trkpt lat="59.35029599815607" lon="14.076302982866764">
        <ele>63.98</ele>
        <time>2025-02-18T18:24:32.038Z</time>
      </trkpt>
      <trkpt lat="59.35034293681383" lon="14.076244980096817">
        <ele>64.06</ele>
        <time>2025-02-18T18:25:30.656Z</time>
      </trkpt>
      <trkpt lat="59.350389959290624" lon="14.076189994812012">
        <ele>64.14</ele>
        <time>2025-02-18T18:26:29.274Z</time>
      </trkpt>
      <trkpt lat="59.35043195262551" lon="14.076136937364936">
        <ele>64.22</ele>
        <time>2025-02-18T18:27:27.893Z</time>
      </trkpt>
      <trkpt lat="59.35047294013202" lon="14.07608094625175">
        <ele>64.3</ele>
        <time>2025-02-18T18:28:26.513Z</time>
      </trkpt>
      <trkpt lat="59.35051493346691" lon="14.076026966795325">
        <ele>64.37</ele>
        <time>2025-02-18T18:29:25.134Z</time>
      </trkpt>
      <trkpt lat="59.35055793263018" lon="14.07597198151052">
        <ele>64.44</ele>
        <time>2025-02-18T18:30:23.756Z</time>
      </trkpt>
      <trkpt lat="59.35059992596507" lon="14.075920935720205">
        <ele>64.51</ele>
        <time>2025-02-18T18:31:22.378Z</time>
      </trkpt>
      <trkpt lat="59.35064292512834" lon="14.075868967920542">
        <ele>64.57</ele>
        <time>2025-02-18T18:32:21.001Z</time>
      </trkpt>
      <trkpt lat="59.35068592429161" lon="14.075807947665453">
        <ele>64.63</ele>
        <time>2025-02-18T18:33:19.625Z</time>
      </trkpt>
      <trkpt lat="59.3507279176265" lon="14.075744999572635">
        <ele>64.69</ele>
        <time>2025-02-18T18:34:18.250Z</time>
      </trkpt>
      <trkpt lat="59.35077091678977" lon="14.075683979317546">
        <ele>64.74</ele>
        <time>2025-02-18T18:35:16.876Z</time>
      </trkpt>
      <trkpt lat="59.35081399977207" lon="14.075622959062457">
        <ele>64.79</ele>
        <time>2025-02-18T18:36:15.503Z</time>
      </trkpt>
      <trkpt lat="59.35085699893534" lon="14.07556495629251">
        <ele>64.84</ele>
        <time>2025-02-18T18:37:14.131Z</time>
      </trkpt>
      <trkpt lat="59.35089999809861" lon="14.075507959350944">
        <ele>64.88</ele>
        <time>2025-02-18T18:38:12.759Z</time>
      </trkpt>
      <trkpt lat="59.3509419914335" lon="14.075448950752616">
        <ele>64.92</ele>
        <time>2025-02-18T18:39:11.388Z</time>
      </trkpt>
      <trkpt lat="59.35098499059677" lon="14.07539195381105">
        <ele>64.96</ele>
        <time>2025-02-18T18:40:10.018Z</time>
      </trkpt>
      <trkpt lat="59.35102597810328" lon="14.075332945212722">
        <ele>64.99</ele>
        <time>2025-02-18T18:41:08.649Z</time>
      </trkpt>
      <trkpt lat="59.35106797143817" lon="14.075272930786014">
        <ele>65.02</ele>
        <time>2025-02-18T18:42:07.281Z</time>
      </trkpt>
      <trkpt lat="59.35111097060144" lon="14.075210988521576">
        <ele>65.05</ele>
        <time>2025-02-18T18:43:05.914Z</time>
      </trkpt>
      <trkpt lat="59.35115195810795" lon="14.075149968266487">
        <ele>65.06</ele>
        <time>2025-02-18T18:44:04.547Z</time>
      </trkpt>
      <trkpt lat="59.351189928129315" lon="14.075087942183018">
        <ele>65.08</ele>
        <time>2025-02-18T18:45:03.181Z</time>
      </trkpt>
      <trkpt lat="59.351227981969714" lon="14.075030945241451">
        <ele>65.09</ele>
        <time>2025-02-18T18:46:01.816Z</time>
      </trkpt>
      <trkpt lat="59.35126394033432" lon="14.074978977441788">
        <ele>65.09</ele>
        <time>2025-02-18T18:47:00.452Z</time>
      </trkpt>
      <trkpt lat="59.35130199417472" lon="14.074926925823092">
        <ele>65.09</ele>
        <time>2025-02-18T18:47:59.088Z</time>
      </trkpt>
      <trkpt lat="59.351336946710944" lon="14.074870934709907">
        <ele>65.09</ele>
        <time>2025-02-18T18:48:57.725Z</time>
      </trkpt>
      <trkpt lat="59.3513719830662" lon="14.07481494359672">
        <ele>65.08</ele>
        <time>2025-02-18T18:49:56.363Z</time>
      </trkpt>
      <trkpt lat="59.35140794143081" lon="14.074760964140296">
        <ele>65.06</ele>
        <time>2025-02-18T18:50:55.002Z</time>
      </trkpt>
      <trkpt lat="59.351444989442825" lon="14.074709918349981">
        <ele>65.04</ele>
        <time>2025-02-18T18:51:53.641Z</time>
      </trkpt>
      <trkpt lat="59.35148094780743" lon="14.074658956378698">
        <ele>65.02</ele>
        <time>2025-02-18T18:52:52.281Z</time>
      </trkpt>
      <trkpt lat="59.35151296667755" lon="14.074612939730287">
        <ele>64.99</ele>
        <time>2025-02-18T18:53:50.922Z</time>
      </trkpt>
      <trkpt lat="59.3515429738909" lon="14.074563989415765">
        <ele>64.96</ele>
        <time>2025-02-18T18:54:49.563Z</time>
      </trkpt>
      <trkpt lat="59.351571975275874" lon="14.074516966938972">
        <ele>64.93</ele>
        <time>2025-02-18T18:55:48.205Z</time>
      </trkpt>
      <trkpt lat="59.35160399414599" lon="14.074477991089225">
        <ele>64.89</ele>
        <time>2025-02-18T18:56:46.847Z</time>
      </trkpt>
      <trkpt lat="59.35163391754031" lon="14.074431974440813">
        <ele>64.85</ele>
        <time>2025-02-18T18:57:45.490Z</time>
      </trkpt>
      <trkpt lat="59.35166593641043" lon="14.074394926428795">
        <ele>64.8</ele>
        <time>2025-02-18T18:58:44.134Z</time>
      </trkpt>
      <trkpt lat="59.351700972765684" lon="14.07435997389257">
        <ele>64.75</ele>
        <time>2025-02-18T18:59:42.778Z</time>
      </trkpt>
      <trkpt lat="59.35173592530191" lon="14.0743169747293">
        <ele>64.69</ele>
        <time>2025-02-18T19:00:41.423Z</time>
      </trkpt>
      <trkpt lat="59.35177096165717" lon="14.074263917282224">
        <ele>64.64</ele>
        <time>2025-02-18T19:01:40.069Z</time>
      </trkpt>
      <trkpt lat="59.35180599801242" lon="14.074208931997418">
        <ele>64.58</ele>
        <time>2025-02-18T19:02:38.715Z</time>
      </trkpt>
      <trkpt lat="59.35184396803379" lon="14.074147995561361">
        <ele>64.52</ele>
        <time>2025-02-18T19:03:37.362Z</time>
      </trkpt>
      <trkpt lat="59.35188294388354" lon="14.074084963649511">
        <ele>64.45</ele>
        <time>2025-02-18T19:04:36.010Z</time>
      </trkpt>
      <trkpt lat="59.35192292556167" lon="14.074009945616126">
        <ele>64.38</ele>
        <time>2025-02-18T19:05:34.659Z</time>
      </trkpt>
      <trkpt lat="59.351960979402065" lon="14.073920929804444">
        <ele>64.31</ele>
        <time>2025-02-18T19:06:33.309Z</time>
      </trkpt>
      <trkpt lat="59.35199492610991" lon="14.073822945356369">
        <ele>64.23</ele>
        <time>2025-02-18T19:07:31.960Z</time>
      </trkpt>
      <trkpt lat="59.35202895663679" lon="14.07371792010963">
        <ele>64.15</ele>
        <time>2025-02-18T19:08:30.612Z</time>
      </trkpt>
      <trkpt lat="59.352064998820424" lon="14.073604932054877">
        <ele>64.07</ele>
        <time>2025-02-18T19:09:29.265Z</time>
      </trkpt>
      <trkpt lat="59.35210296884179" lon="14.073469983413815">
        <ele>63.98</ele>
        <time>2025-02-18T19:10:27.919Z</time>
      </trkpt>
      <trkpt lat="59.3521389272064" lon="14.07332899980247">
        <ele>63.89</ele>
        <time>2025-02-18T19:11:26.574Z</time>
      </trkpt>
      <trkpt lat="59.352174969390035" lon="14.073182987049222">
        <ele>63.8</ele>
        <time>2025-02-18T19:12:25.231Z</time>
      </trkpt>
      <trkpt lat="59.35221092775464" lon="14.073022976517677">
        <ele>63.7</ele>
        <time>2025-02-18T19:13:23.889Z</time>
      </trkpt>
      <trkpt lat="59.3522509932518" lon="14.07285994850099">
        <ele>63.6</ele>
        <time>2025-02-18T19:14:22.549Z</time>
      </trkpt>
      <trkpt lat="59.35229399241507" lon="14.072699937969446">
        <ele>63.5</ele>
        <time>2025-02-18T19:15:21.210Z</time>
      </trkpt>
      <trkpt lat="59.35233799740672" lon="14.072521990165114">
        <ele>63.39</ele>
        <time>2025-02-18T19:16:19.873Z</time>
      </trkpt>
      <trkpt lat="59.35238099656999" lon="14.072326943278313">
        <ele>63.28</ele>
        <time>2025-02-18T19:17:18.538Z</time>
      </trkpt>
      <trkpt lat="59.35242894105613" lon="14.07212795689702">
        <ele>63.17</ele>
        <time>2025-02-18T19:18:17.204Z</time>
      </trkpt>
      <trkpt lat="59.352475963532925" lon="14.071915978565812">
        <ele>63.04</ele>
        <time>2025-02-18T19:19:15.872Z</time>
      </trkpt>
      <trkpt lat="59.352518962696195" lon="14.071685979142785">
        <ele>62.91</ele>
        <time>2025-02-18T19:20:14.542Z</time>
      </trkpt>
      <trkpt lat="59.35255693271756" lon="14.071449944749475">
        <ele>62.79</ele>
        <time>2025-02-18T19:21:13.214Z</time>
      </trkpt>
      <trkpt lat="59.35259498655796" lon="14.071213994175196">
        <ele>62.66</ele>
        <time>2025-02-18T19:22:11.888Z</time>
      </trkpt>
      <trkpt lat="59.352623987942934" lon="14.07096496783197">
        <ele>62.52</ele>
        <time>2025-02-18T19:23:10.564Z</time>
      </trkpt>
      <trkpt lat="59.35264494270086" lon="14.070699932053685">
        <ele>62.39</ele>
        <time>2025-02-18T19:24:09.243Z</time>
      </trkpt>
      <trkpt lat="59.3526569288224" lon="14.070425927639008">
        <ele>62.26</ele>
        <time>2025-02-18T19:25:07.924Z</time>
      </trkpt>
      <trkpt lat="59.3526569288224" lon="14.07014798372984">
        <ele>62.14</ele>
        <time>2025-02-18T19:26:06.607Z</time>
      </trkpt>
      <trkpt lat="59.35264494270086" lon="14.069868950173259">
        <ele>62.02</ele>
        <time>2025-02-18T19:27:05.292Z</time>
      </trkpt>
      <trkpt lat="59.352624993771315" lon="14.069590922445059">
        <ele>61.91</ele>
        <time>2025-02-18T19:28:03.980Z</time>
      </trkpt>
      <trkpt lat="59.35260093770921" lon="14.06931297853589">
        <ele>61.81</ele>
        <time>2025-02-18T19:29:02.670Z</time>
      </trkpt>
      <trkpt lat="59.3525689188391" lon="14.069046936929226">
        <ele>61.7</ele>
        <time>2025-02-18T19:30:01.362Z</time>
      </trkpt>
      <trkpt lat="59.35253396630287" lon="14.068785924464464">
        <ele>61.6</ele>
        <time>2025-02-18T19:31:00.056Z</time>
      </trkpt>
      <trkpt lat="59.35249197296798" lon="14.068530946969986">
        <ele>61.5</ele>
        <time>2025-02-18T19:31:58.753Z</time>
      </trkpt>
      <trkpt lat="59.35244193300605" lon="14.06828192062676">
        <ele>61.41</ele>
        <time>2025-02-18T19:32:57.452Z</time>
      </trkpt>
      <trkpt lat="59.352388959378004" lon="14.068038929253817">
        <ele>61.32</ele>
        <time>2025-02-18T19:33:56.153Z</time>
      </trkpt>
      <trkpt lat="59.35233699157834" lon="14.067798955366015">
        <ele>61.23</ele>
        <time>2025-02-18T19:34:54.856Z</time>
      </trkpt>
      <trkpt lat="59.352285945788026" lon="14.067562920972705">
        <ele>61.15</ele>
        <time>2025-02-18T19:35:53.561Z</time>
      </trkpt>
      <trkpt lat="59.35223598964512" lon="14.067330993711948">
        <ele>61.07</ele>
        <time>2025-02-18T19:36:52.268Z</time>
      </trkpt>
      <trkpt lat="59.352196929976344" lon="14.06709797680378">
        <ele>61.0</ele>
        <time>2025-02-18T19:37:50.977Z</time>
      </trkpt>
      <trkpt lat="59.35217295773327" lon="14.066853979602456">
        <ele>60.94</ele>
        <time>2025-02-18T19:38:49.688Z</time>
      </trkpt>
      <trkpt lat="59.35217295773327" lon="14.066620962694287">
        <ele>60.87</ele>
        <time>2025-02-18T19:39:48.401Z</time>
      </trkpt>
      <trkpt lat="59.35218393802643" lon="14.066394986584783">
        <ele>60.81</ele>
        <time>2025-02-18T19:40:47.116Z</time>
      </trkpt>
      <trkpt lat="59.35218896716833" lon="14.066179990768433">
        <ele>60.75</ele>
        <time>2025-02-18T19:41:45.833Z</time>
      </trkpt>
      <trkpt lat="59.352176981046796" lon="14.065975975245237">
        <ele>60.69</ele>
        <time>2025-02-18T19:42:44.552Z</time>
      </trkpt>
      <trkpt lat="59.35214295051992" lon="14.065780928358436">
        <ele>60.63</ele>
        <time>2025-02-18T19:43:43.272Z</time>
      </trkpt>
      <trkpt lat="59.35209492221475" lon="14.065597951412201">
        <ele>60.57</ele>
        <time>2025-02-18T19:44:41.994Z</time>
      </trkpt>
      <trkpt lat="59.35204396024346" lon="14.065418997779489">
        <ele>60.53</ele>
        <time>2025-02-18T19:45:40.718Z</time>
      </trkpt>
      <trkpt lat="59.35199492610991" lon="14.065241971984506">
        <ele>60.48</ele>
        <time>2025-02-18T19:46:39.443Z</time>
      </trkpt>
      <trkpt lat="59.35194999910891" lon="14.065066957846284">
        <ele>60.43</ele>
        <time>2025-02-18T19:47:38.170Z</time>
      </trkpt>
      <trkpt lat="59.35190892778337" lon="14.064900996163487">
        <ele>60.39</ele>
        <time>2025-02-18T19:48:36.898Z</time>
      </trkpt>
      <trkpt lat="59.351870957762" lon="14.064733944833279">
        <ele>60.36</ele>
        <time>2025-02-18T19:49:35.628Z</time>
      </trkpt>
      <trkpt lat="59.3518349993974" lon="14.064570916816592">
        <ele>60.33</ele>
        <time>2025-02-18T19:50:34.359Z</time>
      </trkpt>
      <trkpt lat="59.35179895721376" lon="14.064407972618937">
        <ele>60.31</ele>
        <time>2025-02-18T19:51:33.092Z</time>
      </trkpt>
      <trkpt lat="59.351765932515264" lon="14.064251985400915">
        <ele>60.29</ele>
        <time>2025-02-18T19:52:31.826Z</time>
      </trkpt>
      <trkpt lat="59.35173399746418" lon="14.064098931849003">
        <ele>60.27</ele>
        <time>2025-02-18T19:53:30.562Z</time>
      </trkpt>
      <trkpt lat="59.35170499607921" lon="14.063952919095755">
        <ele>60.26</ele>
        <time>2025-02-18T19:54:29.299Z</time>
      </trkpt>
      <trkpt lat="59.35167498886585" lon="14.063809923827648">
        <ele>60.26</ele>
        <time>2025-02-18T19:55:28.037Z</time>
      </trkpt>
      <trkpt lat="59.35164699330926" lon="14.063669946044683">
        <ele>60.27</ele>
        <time>2025-02-18T19:56:26.776Z</time>
      </trkpt>
      <trkpt lat="59.351620925590396" lon="14.06353298574686">
        <ele>60.28</ele>
        <time>2025-02-18T19:57:25.517Z</time>
      </trkpt>
      <trkpt lat="59.35160198248923" lon="14.063393929973245">
        <ele>60.29</ele>
        <time>2025-02-18T19:58:24.259Z</time>
      </trkpt>
      <trkpt lat="59.3515929300338" lon="14.063255963847041">
        <ele>60.31</ele>
        <time>2025-02-18T19:59:23.002Z</time>
      </trkpt>
      <trkpt lat="59.35158899053931" lon="14.063121937215328">
        <ele>60.33</ele>
        <time>2025-02-18T20:00:21.746Z</time>
      </trkpt>
      <trkpt lat="59.35158597305417" lon="14.06299495138228">
        <ele>60.35</ele>
        <time>2025-02-18T20:01:20.491Z</time>
      </trkpt>
      <trkpt lat="59.35158396139741" lon="14.062873916700482">
        <ele>60.38</ele>
        <time>2025-02-18T20:02:19.237Z</time>
      </trkpt>
      <trkpt lat="59.351572981104255" lon="14.062758916988969">
        <ele>60.41</ele>
        <time>2025-02-18T20:03:17.984Z</time>
      </trkpt>
      <trkpt lat="59.351553954184055" lon="14.06265095807612">
        <ele>60.44</ele>
        <time>2025-02-18T20:04:16.732Z</time>
      </trkpt>
      <trkpt lat="59.351531993597746" lon="14.06254693865776">
        <ele>60.47</ele>
        <time>2025-02-18T20:05:15.481Z</time>
      </trkpt>
      <trkpt lat="59.351511960849166" lon="14.062444930896163">
        <ele>60.51</ele>
        <time>2025-02-18T20:06:14.231Z</time>
      </trkpt>
      <trkpt lat="59.35149293392897" lon="14.062344934791327">
        <ele>60.55</ele>
        <time>2025-02-18T20:07:12.982Z</time>
      </trkpt>
      <trkpt lat="59.35147197917104" lon="14.062248962000012">
        <ele>60.59</ele>
        <time>2025-02-18T20:08:11.733Z</time>
      </trkpt>
      <trkpt lat="59.351448928937316" lon="14.062160952016711">
        <ele>60.64</ele>
        <time>2025-02-18T20:09:10.485Z</time>
      </trkpt>
      <trkpt lat="59.351423950865865" lon="14.062080988660455">
        <ele>60.68</ele>
        <time>2025-02-18T20:10:09.238Z</time>
      </trkpt>
      <trkpt lat="59.351400984451175" lon="14.062002953141928">
        <ele>60.73</ele>
        <time>2025-02-18T20:11:07.992Z</time>
      </trkpt>
      <trkpt lat="59.351382963359356" lon="14.06192097812891">
        <ele>60.78</ele>
        <time>2025-02-18T20:12:06.746Z</time>
      </trkpt>
      <trkpt lat="59.35136594809592" lon="14.06183598563075">
        <ele>60.83</ele>
        <time>2025-02-18T20:13:05.501Z</time>
      </trkpt>
      <trkpt lat="59.35134692117572" lon="14.06175292097032">
        <ele>60.89</ele>
        <time>2025-02-18T20:14:04.257Z</time>
      </trkpt>
      <trkpt lat="59.35132797807455" lon="14.061670945957303">
        <ele>60.95</ele>
        <time>2025-02-18T20:15:03.014Z</time>
      </trkpt>
      <trkpt lat="59.35130693949759" lon="14.061590982601047">
        <ele>61.02</ele>
        <time>2025-02-18T20:16:01.771Z</time>
      </trkpt>
      <trkpt lat="59.35128598473966" lon="14.06151294708252">
        <ele>61.08</ele>
        <time>2025-02-18T20:17:00.529Z</time>
      </trkpt>
      <trkpt lat="59.3512649461627" lon="14.061437929049134">
        <ele>61.15</ele>
        <time>2025-02-18T20:17:59.288Z</time>
      </trkpt>
      <trkpt lat="59.35124499723315" lon="14.06136391684413">
        <ele>61.22</ele>
        <time>2025-02-18T20:18:58.048Z</time>
      </trkpt>
      <trkpt lat="59.35122295282781" lon="14.061289988458157">
        <ele>61.3</ele>
        <time>2025-02-18T20:19:56.808Z</time>
      </trkpt>
      <trkpt lat="59.3512009922415" lon="14.06121396459639">
        <ele>61.37</ele>
        <time>2025-02-18T20:20:55.569Z</time>
      </trkpt>
      <trkpt lat="59.35118095949292" lon="14.061139952391386">
        <ele>61.44</ele>
        <time>2025-02-18T20:21:54.331Z</time>
      </trkpt>
      <trkpt lat="59.35115698724985" lon="14.061066946014762">
        <ele>61.52</ele>
        <time>2025-02-18T20:22:53.093Z</time>
      </trkpt>
      <trkpt lat="59.35113594867289" lon="14.060993939638138">
        <ele>61.59</ele>
        <time>2025-02-18T20:23:51.856Z</time>
      </trkpt>
      <trkpt lat="59.35111599974334" lon="14.060919927433133">
        <ele>61.67</ele>
        <time>2025-02-18T20:24:50.620Z</time>
      </trkpt>
      <trkpt lat="59.35109697282314" lon="14.060846921056509">
        <ele>61.75</ele>
        <time>2025-02-18T20:25:49.384Z</time>
      </trkpt>
      <trkpt lat="59.351077945902944" lon="14.060774920508265">
        <ele>61.83</ele>
        <time>2025-02-18T20:26:48.149Z</time>
      </trkpt>
      <trkpt lat="59.351057996973395" lon="14.060705937445164">
        <ele>61.91</ele>
        <time>2025-02-18T20:27:46.915Z</time>
      </trkpt>
      <trkpt lat="59.351037964224815" lon="14.060638966038823">
        <ele>61.99</ele>
        <time>2025-02-18T20:28:45.681Z</time>
      </trkpt>
      <trkpt lat="59.351016925647855" lon="14.060572916641831">
        <ele>62.07</ele>
        <time>2025-02-18T20:29:44.448Z</time>
      </trkpt>
      <trkpt lat="59.350995970889926" lon="14.06050594523549">
        <ele>62.15</ele>
        <time>2025-02-18T20:30:43.216Z</time>
      </trkpt>
      <trkpt lat="59.35097694396973" lon="14.06043897382915">
        <ele>62.24</ele>
        <time>2025-02-18T20:31:41.984Z</time>
      </trkpt>
      <trkpt lat="59.35095992870629" lon="14.060377953574061">
        <ele>62.32</ele>
        <time>2025-02-18T20:32:40.753Z</time>
      </trkpt>
      <trkpt lat="59.35094794258475" lon="14.060319950804114">
        <ele>62.4</ele>
        <time>2025-02-18T20:33:39.522Z</time>
      </trkpt>
      <trkpt lat="59.35093394480646" lon="14.060258930549026">
        <ele>62.49</ele>
        <time>2025-02-18T20:34:38.292Z</time>
      </trkpt>
      <trkpt lat="59.35091491788626" lon="14.060193970799446">
        <ele>62.57</ele>
        <time>2025-02-18T20:35:37.062Z</time>
      </trkpt>
      <trkpt lat="59.35089396312833" lon="14.060125993564725">
        <ele>62.66</ele>
        <time>2025-02-18T20:36:35.833Z</time>
      </trkpt>
      <trkpt lat="59.35087099671364" lon="14.060057932510972">
        <ele>62.74</ele>
        <time>2025-02-18T20:37:34.605Z</time>
      </trkpt>
      <trkpt lat="59.35084794647992" lon="14.05998995527625">
        <ele>62.83</ele>
        <time>2025-02-18T20:38:33.377Z</time>
      </trkpt>
      <trkpt lat="59.35082799755037" lon="14.059918960556388">
        <ele>62.91</ele>
        <time>2025-02-18T20:39:32.150Z</time>
      </trkpt>
      <trkpt lat="59.35080796480179" lon="14.059850983321667">
        <ele>63.0</ele>
        <time>2025-02-18T20:40:30.924Z</time>
      </trkpt>
      <trkpt lat="59.35079094953835" lon="14.059783928096294">
        <ele>63.08</ele>
        <time>2025-02-18T20:41:29.698Z</time>
      </trkpt>
      <trkpt lat="59.35077292844653" lon="14.059715950861573">
        <ele>63.16</ele>
        <time>2025-02-18T20:42:28.473Z</time>
      </trkpt>
      <trkpt lat="59.350755997002125" lon="14.059651996940374">
        <ele>63.24</ele>
        <time>2025-02-18T20:43:27.249Z</time>
      </trkpt>
      <trkpt lat="59.35073998756707" lon="14.059582930058241">
        <ele>63.33</ele>
        <time>2025-02-18T20:44:26.025Z</time>
      </trkpt>
      <trkpt lat="59.35072498396039" lon="14.059510929509997">
        <ele>63.41</ele>
        <time>2025-02-18T20:45:24.802Z</time>
      </trkpt>
      <trkpt lat="59.350710986182094" lon="14.059437923133373">
        <ele>63.48</ele>
        <time>2025-02-18T20:46:23.580Z</time>
      </trkpt>
      <trkpt lat="59.35069598257542" lon="14.059360977262259">
        <ele>63.56</ele>
        <time>2025-02-18T20:47:22.358Z</time>
      </trkpt>
      <trkpt lat="59.3506829906255" lon="14.05927699059248">
        <ele>63.64</ele>
        <time>2025-02-18T20:48:21.137Z</time>
      </trkpt>
      <trkpt lat="59.350671926513314" lon="14.059186968952417">
        <ele>63.72</ele>
        <time>2025-02-18T20:49:19.917Z</time>
      </trkpt>
      <trkpt lat="59.3506639637053" lon="14.059092923998833">
        <ele>63.8</ele>
        <time>2025-02-18T20:50:18.697Z</time>
      </trkpt>
      <trkpt lat="59.35065499506891" lon="14.0589979570359">
        <ele>63.87</ele>
        <time>2025-02-18T20:51:17.478Z</time>
      </trkpt>
      <trkpt lat="59.350648960098624" lon="14.058903995901346">
        <ele>63.95</ele>
        <time>2025-02-18T20:52:16.260Z</time>
      </trkpt>
      <trkpt lat="59.35064393095672" lon="14.05880693346262">
        <ele>64.02</ele>
        <time>2025-02-18T20:53:15.043Z</time>
      </trkpt>
      <trkpt lat="59.35063999146223" lon="14.058706937357783">
        <ele>64.09</ele>
        <time>2025-02-18T20:54:13.827Z</time>
      </trkpt>
      <trkpt lat="59.35063898563385" lon="14.058605935424566">
        <ele>64.16</ele>
        <time>2025-02-18T20:55:12.611Z</time>
      </trkpt>
      <trkpt lat="59.35063898563385" lon="14.05850199982524">
        <ele>64.23</ele>
        <time>2025-02-18T20:56:11.396Z</time>
      </trkpt>
      <trkpt lat="59.35064191929996" lon="14.058399992063642">
        <ele>64.3</ele>
        <time>2025-02-18T20:57:10.182Z</time>
      </trkpt>
      <trkpt lat="59.35064292512834" lon="14.058298990130424">
        <ele>64.36</ele>
        <time>2025-02-18T20:58:08.969Z</time>
      </trkpt>
      <trkpt lat="59.35064594261348" lon="14.058197988197207">
        <ele>64.43</ele>
        <time>2025-02-18T20:59:07.757Z</time>
      </trkpt>
      <trkpt lat="59.35065298341215" lon="14.05809598043561">
        <ele>64.49</ele>
        <time>2025-02-18T21:00:06.546Z</time>
      </trkpt>
      <trkpt lat="59.35065994039178" lon="14.05798894353211">
        <ele>64.56</ele>
        <time>2025-02-18T21:01:05.336Z</time>
      </trkpt>
      <trkpt lat="59.350667987018824" lon="14.057873943820596">
        <ele>64.62</ele>
        <time>2025-02-18T21:02:04.126Z</time>
      </trkpt>
      <trkpt lat="59.35067594982684" lon="14.05775592662394">
        <ele>64.68</ele>
        <time>2025-02-18T21:03:02.917Z</time>
      </trkpt>
      <trkpt lat="59.35068491846323" lon="14.057633969932795">
        <ele>64.74</ele>
        <time>2025-02-18T21:04:01.709Z</time>
      </trkpt>
      <trkpt lat="59.35069799423218" lon="14.057510923594236">
        <ele>64.8</ele>
        <time>2025-02-18T21:05:00.502Z</time>
      </trkpt>
      <trkpt lat="59.350713919848204" lon="14.05738796107471">
        <ele>64.86</ele>
        <time>2025-02-18T21:05:59.297Z</time>
      </trkpt>
      <trkpt lat="59.350737975910306" lon="14.057270949706435">
        <ele>64.91</ele>
        <time>2025-02-18T21:06:58.093Z</time>
      </trkpt>
      <trkpt lat="59.35076697729528" lon="14.057160979136825">
        <ele>64.96</ele>
        <time>2025-02-18T21:07:56.890Z</time>
      </trkpt>
      <trkpt lat="59.350799918174744" lon="14.057057965546846">
        <ele>65.02</ele>
        <time>2025-02-18T21:08:55.688Z</time>
      </trkpt>
      <trkpt lat="59.35083797201514" lon="14.056962998583913">
        <ele>65.07</ele>
        <time>2025-02-18T21:09:54.487Z</time>
      </trkpt>
      <trkpt lat="59.35088097117841" lon="14.056877922266722">
        <ele>65.12</ele>
        <time>2025-02-18T21:10:53.287Z</time>
      </trkpt>
      <trkpt lat="59.350929921492934" lon="14.056806927546859">
        <ele>65.17</ele>
        <time>2025-02-18T21:11:52.088Z</time>
      </trkpt>
      <trkpt lat="59.35098499059677" lon="14.056745991110802">
        <ele>65.22</ele>
        <time>2025-02-18T21:12:50.890Z</time>
      </trkpt>
      <trkpt lat="59.35104592703283" lon="14.056690922006965">
        <ele>65.27</ele>
        <time>2025-02-18T21:13:49.693Z</time>
      </trkpt>
      <trkpt lat="59.35110996477306" lon="14.056653957813978">
        <ele>65.32</ele>
        <time>2025-02-18T21:14:48.497Z</time>
      </trkpt>
      <trkpt lat="59.35117391869426" lon="14.056629985570908">
        <ele>65.36</ele>
        <time>2025-02-18T21:15:47.302Z</time>
      </trkpt>
      <trkpt lat="59.35124097391963" lon="14.056618921458721">
        <ele>65.4</ele>
        <time>2025-02-18T21:16:46.108Z</time>
      </trkpt>
      <trkpt lat="59.35130593366921" lon="14.056610958650708">
        <ele>65.44</ele>
        <time>2025-02-18T21:17:44.915Z</time>
      </trkpt>
      <trkpt lat="59.35137097723782" lon="14.05661498196423">
        <ele>65.47</ele>
        <time>2025-02-18T21:18:43.723Z</time>
      </trkpt>
      <trkpt lat="59.35143694281578" lon="14.056622944772243">
        <ele>65.5</ele>
        <time>2025-02-18T21:19:42.532Z</time>
      </trkpt>
      <trkpt lat="59.35150198638439" lon="14.056630991399288">
        <ele>65.53</ele>
        <time>2025-02-18T21:20:41.342Z</time>
      </trkpt>
      <trkpt lat="59.35156694613397" lon="14.05663593672216">
        <ele>65.56</ele>
        <time>2025-02-18T21:21:40.153Z</time>
      </trkpt>
      <trkpt lat="59.3516309838742" lon="14.056643983349204">
        <ele>65.59</ele>
        <time>2025-02-18T21:22:38.965Z</time>
      </trkpt>
      <trkpt lat="59.35169292613864" lon="14.056649934500456">
        <ele>65.61</ele>
        <time>2025-02-18T21:23:37.778Z</time>
      </trkpt>
      <trkpt lat="59.35175696387887" lon="14.056651946157217">
        <ele>65.62</ele>
        <time>2025-02-18T21:24:36.592Z</time>
      </trkpt>
      <trkpt lat="59.351811949163675" lon="14.056654963642359">
        <ele>65.64</ele>
        <time>2025-02-18T21:25:35.407Z</time>
      </trkpt>
      <trkpt lat="59.35186894610524" lon="14.056650940328836">
        <ele>65.66</ele>
        <time>2025-02-18T21:26:34.223Z</time>
      </trkpt>
      <trkpt lat="59.35192099772394" lon="14.056643983349204">
        <ele>65.67</ele>
        <time>2025-02-18T21:27:33.040Z</time>
      </trkpt>
      <trkpt lat="59.35196994803846" lon="14.05663794837892">
        <ele>65.68</ele>
        <time>2025-02-18T21:28:31.858Z</time>
      </trkpt>
      <trkpt lat="59.35201395303011" lon="14.056632919237018">
        <ele>65.69</ele>
        <time>2025-02-18T21:29:30.676Z</time>
      </trkpt>
      <trkpt lat="59.352055946365" lon="14.056619927287102">
        <ele>65.7</ele>
        <time>2025-02-18T21:30:29.495Z</time>
      </trkpt>
      <trkpt lat="59.35210196301341" lon="14.056599978357553">
        <ele>65.7</ele>
        <time>2025-02-18T21:31:28.315Z</time>
      </trkpt>
      <trkpt lat="59.3521489854902" lon="14.056567959487438">
        <ele>65.7</ele>
        <time>2025-02-18T21:32:27.135Z</time>
      </trkpt>
      <trkpt lat="59.35219097882509" lon="14.056524960324168">
        <ele>65.7</ele>
        <time>2025-02-18T21:33:25.956Z</time>
      </trkpt>
      <trkpt lat="59.35223096050322" lon="14.056475926190615">
        <ele>65.7</ele>
        <time>2025-02-18T21:34:24.778Z</time>
      </trkpt>
      <trkpt lat="59.35227094218135" lon="14.056419935077429">
        <ele>65.69</ele>
        <time>2025-02-18T21:35:23.601Z</time>
      </trkpt>
      <trkpt lat="59.35230899602175" lon="14.05635992065072">
        <ele>65.69</ele>
        <time>2025-02-18T21:36:22.425Z</time>
      </trkpt>
      <trkpt lat="59.352345960214734" lon="14.056300995871425">
        <ele>65.68</ele>
        <time>2025-02-18T21:37:21.249Z</time>
      </trkpt>
      <trkpt lat="59.35238493606448" lon="14.056236958131194">
        <ele>65.68</ele>
        <time>2025-02-18T21:38:20.074Z</time>
      </trkpt>
      <trkpt lat="59.35242298990488" lon="14.056168980896473">
        <ele>65.67</ele>
        <time>2025-02-18T21:39:18.900Z</time>
      </trkpt>
      <trkpt lat="59.352456936612725" lon="14.056102931499481">
        <ele>65.65</ele>
        <time>2025-02-18T21:40:17.727Z</time>
      </trkpt>
      <trkpt lat="59.352498929947615" lon="14.056026991456747">
        <ele>65.64</ele>
        <time>2025-02-18T21:41:16.555Z</time>
      </trkpt>
      <trkpt lat="59.35254695825279" lon="14.055941998958588">
        <ele>65.63</ele>
        <time>2025-02-18T21:42:15.384Z</time>
      </trkpt>
      <trkpt lat="59.35259792022407" lon="14.055853988975286">
        <ele>65.62</ele>
        <time>2025-02-18T21:43:14.214Z</time>
      </trkpt>
      <trkpt lat="59.352647960186005" lon="14.05575499869883">
        <ele>65.6</ele>
        <time>2025-02-18T21:44:13.045Z</time>
      </trkpt>
      <trkpt lat="59.35270596295595" lon="14.055651985108852">
        <ele>65.58</ele>
        <time>2025-02-18T21:45:11.877Z</time>
      </trkpt>
      <trkpt lat="59.35276991687715" lon="14.055552994832397">
        <ele>65.57</ele>
        <time>2025-02-18T21:46:10.710Z</time>
      </trkpt>
      <trkpt lat="59.352843929082155" lon="14.055462973192334">
        <ele>65.56</ele>
        <time>2025-02-18T21:47:09.545Z</time>
      </trkpt>
      <trkpt lat="59.35291894711554" lon="14.055384937673807">
        <ele>65.54</ele>
        <time>2025-02-18T21:48:08.381Z</time>
      </trkpt>
      <trkpt lat="59.35299991630018" lon="14.055310925468802">
        <ele>65.52</ele>
        <time>2025-02-18T21:49:07.219Z</time>
      </trkpt>
      <trkpt lat="59.353078957647085" lon="14.05524093657732">
        <ele>65.5</ele>
        <time>2025-02-18T21:50:06.058Z</time>
      </trkpt>
      <trkpt lat="59.35315598733723" lon="14.05517497099936">
        <ele>65.49</ele>
        <time>2025-02-18T21:51:04.898Z</time>
      </trkpt>
      <trkpt lat="59.353231927379966" lon="14.055093917995691">
        <ele>65.47</ele>
        <time>2025-02-18T21:52:03.740Z</time>
      </trkpt>
      <trkpt lat="59.35330392792821" lon="14.055009931325912">
        <ele>65.45</ele>
        <time>2025-02-18T21:53:02.583Z</time>
      </trkpt>
      <trkpt lat="59.35337693430483" lon="14.05491697601974">
        <ele>65.43</ele>
        <time>2025-02-18T21:54:01.428Z</time>
      </trkpt>
      <trkpt lat="59.35344893485308" lon="14.054811950773">
        <ele>65.4</ele>
        <time>2025-02-18T21:55:00.274Z</time>
      </trkpt>
      <trkpt lat="59.35351699590683" lon="14.054699968546629">
        <ele>65.38</ele>
        <time>2025-02-18T21:55:59.121Z</time>
      </trkpt>
      <trkpt lat="59.35358094982803" lon="14.054581951349974">
        <ele>65.36</ele>
        <time>2025-02-18T21:56:57.970Z</time>
      </trkpt>
      <trkpt lat="59.3536429759115" lon="14.054457983002067">
        <ele>65.34</ele>
        <time>2025-02-18T21:57:56.820Z</time>
      </trkpt>
      <trkpt lat="59.353699972853065" lon="14.054333930835128">
        <ele>65.33</ele>
        <time>2025-02-18T21:58:55.672Z</time>
      </trkpt>
      <trkpt lat="59.35375294648111" lon="14.05420996248722">
        <ele>65.31</ele>
        <time>2025-02-18T21:59:54.525Z</time>
      </trkpt>
      <trkpt lat="59.35380592010915" lon="14.054089933633804">
        <ele>65.29</ele>
        <time>2025-02-18T22:00:53.379Z</time>
      </trkpt>
      <trkpt lat="59.35385998338461" lon="14.05397292226553">
        <ele>65.28</ele>
        <time>2025-02-18T22:01:52.235Z</time>
      </trkpt>
      <trkpt lat="59.353913962841034" lon="14.053857922554016">
        <ele>65.27</ele>
        <time>2025-02-18T22:02:51.092Z</time>
      </trkpt>
      <trkpt lat="59.3539659306407" lon="14.053742922842503">
        <ele>65.26</ele>
        <time>2025-02-18T22:03:49.950Z</time>
      </trkpt>
      <trkpt lat="59.35402192175388" lon="14.053632952272892">
        <ele>65.25</ele>
        <time>2025-02-18T22:04:48.809Z</time>
      </trkpt>
      <trkpt lat="59.3540779966861" lon="14.053522981703281">
        <ele>65.25</ele>
        <time>2025-02-18T22:05:47.670Z</time>
      </trkpt>
      <trkpt lat="59.354132981970906" lon="14.053418962284923">
        <ele>65.24</ele>
        <time>2025-02-18T22:06:46.532Z</time>
      </trkpt>
      <trkpt lat="59.35418796725571" lon="14.053315948694944">
        <ele>65.23</ele>
        <time>2025-02-18T22:07:45.395Z</time>
      </trkpt>
      <trkpt lat="59.3542439583689" lon="14.053221987560391">
        <ele>65.23</ele>
        <time>2025-02-18T22:08:44.259Z</time>
      </trkpt>
      <trkpt lat="59.354301961138844" lon="14.053138922899961">
        <ele>65.22</ele>
        <time>2025-02-18T22:09:43.124Z</time>
      </trkpt>
      <trkpt lat="59.35435895808041" lon="14.053065916523337">
        <ele>65.22</ele>
        <time>2025-02-18T22:10:41.990Z</time>
      </trkpt>
      <trkpt lat="59.35441796667874" lon="14.052996933460236">
        <ele>65.22</ele>
        <time>2025-02-18T22:11:40.858Z</time>
      </trkpt>
      <trkpt lat="59.354476975277066" lon="14.052929962053895">
        <ele>65.21</ele>
        <time>2025-02-18T22:12:39.727Z</time>
      </trkpt>
      <trkpt lat="59.35453296639025" lon="14.052867935970426">
        <ele>65.22</ele>
        <time>2025-02-18T22:13:38.597Z</time>
      </trkpt>
      <trkpt lat="59.35458895750344" lon="14.052806999534369">
        <ele>65.22</ele>
        <time>2025-02-18T22:14:37.468Z</time>
      </trkpt>
      <trkpt lat="59.354644948616624" lon="14.0527449734509">
        <ele>65.22</ele>
        <time>2025-02-18T22:15:36.340Z</time>
      </trkpt>
      <trkpt lat="59.35469892807305" lon="14.052685964852571">
        <ele>65.23</ele>
        <time>2025-02-18T22:16:35.213Z</time>
      </trkpt>
      <trkpt lat="59.354750979691744" lon="14.052627962082624">
        <ele>65.24</ele>
        <time>2025-02-18T22:17:34.087Z</time>
      </trkpt>
      <trkpt lat="59.354800935834646" lon="14.052567947655916">
        <ele>65.25</ele>
        <time>2025-02-18T22:18:32.962Z</time>
      </trkpt>
      <trkpt lat="59.35484695248306" lon="14.052507933229208">
        <ele>65.26</ele>
        <time>2025-02-18T22:19:31.838Z</time>
      </trkpt>
      <trkpt lat="59.35488793998957" lon="14.052446996793151">
        <ele>65.27</ele>
        <time>2025-02-18T22:20:30.714Z</time>
      </trkpt>
      <trkpt lat="59.354925993829966" lon="14.052383964881301">
        <ele>65.28</ele>
        <time>2025-02-18T22:21:29.591Z</time>
      </trkpt>
      <trkpt lat="59.35496195219457" lon="14.052327973768115">
        <ele>65.29</ele>
        <time>2025-02-18T22:22:28.469Z</time>
      </trkpt>
      <trkpt lat="59.35499799437821" lon="14.052279945462942">
        <ele>65.3</ele>
        <time>2025-02-18T22:23:27.348Z</time>
      </trkpt>
      <trkpt lat="59.355032946914434" lon="14.052238957956433">
        <ele>65.31</ele>
        <time>2025-02-18T22:24:26.227Z</time>
      </trkpt>
      <trkpt lat="59.35506295412779" lon="14.052195958793163">
        <ele>65.33</ele>
        <time>2025-02-18T22:25:25.107Z</time>
      </trkpt>
      <trkpt lat="59.35509094968438" lon="14.052151953801513">
        <ele>65.34</ele>
        <time>2025-02-18T22:26:23.987Z</time>
      </trkpt>
      <trkpt lat="59.35511492192745" lon="14.052110966295004">
        <ele>65.35</ele>
        <time>2025-02-18T22:27:22.868Z</time>
      </trkpt>
      <trkpt lat="59.35513394884765" lon="14.052069978788495">
        <ele>65.36</ele>
        <time>2025-02-18T22:28:21.749Z</time>
      </trkpt>
      <trkpt lat="59.35514995828271" lon="14.052031924948096">
        <ele>65.38</ele>
        <time>2025-02-18T22:29:20.631Z</time>
      </trkpt>
      <trkpt lat="59.35516697354615" lon="14.05199395492673">
        <ele>65.39</ele>
        <time>2025-02-18T22:30:19.513Z</time>
      </trkpt>
      <trkpt lat="59.355181977152824" lon="14.051964953541756">
        <ele>65.4</ele>
        <time>2025-02-18T22:31:18.396Z</time>
      </trkpt>
      <trkpt lat="59.3551969807595" lon="14.051938969641924">
        <ele>65.42</ele>
        <time>2025-02-18T22:32:17.279Z</time>
      </trkpt>
      <trkpt lat="59.35520997270942" lon="14.051910974085331">
        <ele>65.43</ele>
        <time>2025-02-18T22:33:16.162Z</time>
      </trkpt>
      <trkpt lat="59.35521894134581" lon="14.051883984357119">
        <ele>65.44</ele>
        <time>2025-02-18T22:34:15.045Z</time>
      </trkpt>
      <trkpt lat="59.355225982144475" lon="14.051862945780158">
        <ele>65.45</ele>
        <time>2025-02-18T22:35:13.929Z</time>
      </trkpt>
      <trkpt lat="59.355230927467346" lon="14.051849953830242">
        <ele>65.46</ele>
        <time>2025-02-18T22:36:12.813Z</time>
      </trkpt>
      <trkpt lat="59.35523293912411" lon="14.05184492468834">
        <ele>65.48</ele>
        <time>2025-02-18T22:37:11.697Z</time>
      </trkpt>
      <trkpt lat="59.35523394495249" lon="14.05184492468834">
        <ele>65.49</ele>
        <time>2025-02-18T22:38:10.581Z</time>
      </trkpt>
      <trkpt lat="59.35519798658788" lon="14.051906950771809">
        <ele>65.49</ele>
        <time>2025-02-18T22:39:09.466Z</time>
      </trkpt>
      <trkpt lat="59.355205949395895" lon="14.05188993550837">
        <ele>65.5</ele>
        <time>2025-02-18T22:40:08.351Z</time>
      </trkpt>
      <trkpt lat="59.35521198436618" lon="14.051867974922061">
        <ele>65.52</ele>
        <time>2025-02-18T22:41:07.236Z</time>
      </trkpt>
      <trkpt lat="59.35521894134581" lon="14.05184492468834">
        <ele>65.53</ele>
        <time>2025-02-18T22:42:06.121Z</time>
      </trkpt>
      <trkpt lat="59.355224976316094" lon="14.051824975758791">
        <ele>65.54</ele>
        <time>2025-02-18T22:43:05.006Z</time>
      </trkpt>
      <trkpt lat="59.35523293912411" lon="14.051805948838592">
        <ele>65.55</ele>
        <time>2025-02-18T22:44:03.892Z</time>
      </trkpt>
      <trkpt lat="59.35524199157953" lon="14.051784994080663">
        <ele>65.56</ele>
        <time>2025-02-18T22:45:02.778Z</time>
      </trkpt>
      <trkpt lat="59.355249954387546" lon="14.051761943846941">
        <ele>65.57</ele>
        <time>2025-02-18T22:46:01.664Z</time>
      </trkpt>
      <trkpt lat="59.35525699518621" lon="14.051743922755122">
        <ele>65.58</ele>
        <time>2025-02-18T22:47:00.550Z</time>
      </trkpt>
      <trkpt lat="59.35526495799422" lon="14.051725985482335">
        <ele>65.59</ele>
        <time>2025-02-18T22:47:59.436Z</time>
      </trkpt>
      <trkpt lat="59.355274932459" lon="14.051704946905375">
        <ele>65.59</ele>
        <time>2025-02-18T22:48:58.323Z</time>
      </trkpt>
      <trkpt lat="59.3552849907428" lon="14.051687931641936">
        <ele>65.6</ele>
        <time>2025-02-18T22:49:57.210Z</time>
      </trkpt>
      <trkpt lat="59.355292953550816" lon="14.051668988540769">
        <ele>65.61</ele>
        <time>2025-02-18T22:50:56.097Z</time>
      </trkpt>
      <trkpt lat="59.35529798269272" lon="14.051638981327415">
        <ele>65.62</ele>
        <time>2025-02-18T22:51:54.984Z</time>
      </trkpt>
      <trkpt lat="59.35530493967235" lon="14.051612997427583">
        <ele>65.62</ele>
        <time>2025-02-18T22:52:53.872Z</time>
      </trkpt>
      <trkpt lat="59.355315919965506" lon="14.051585923880339">
        <ele>65.63</ele>
        <time>2025-02-18T22:53:52.760Z</time>
      </trkpt>
      <trkpt lat="59.35532497242093" lon="14.051553988829255">
        <ele>65.63</ele>
        <time>2025-02-18T22:54:51.648Z</time>
      </trkpt>
      <trkpt lat="59.355332935228944" lon="14.05152196995914">
        <ele>65.64</ele>
        <time>2025-02-18T22:55:50.536Z</time>
      </trkpt>
      <trkpt lat="59.35534198768437" lon="14.051491962745786">
        <ele>65.64</ele>
        <time>2025-02-18T22:56:49.425Z</time>
      </trkpt>
      <trkpt lat="59.35535196214914" lon="14.051464973017573">
        <ele>65.64</ele>
        <time>2025-02-18T22:57:48.314Z</time>
      </trkpt>
      <trkpt lat="59.355358919128776" lon="14.051438989117742">
        <ele>65.64</ele>
        <time>2025-02-18T22:58:47.203Z</time>
      </trkpt>
      <trkpt lat="59.35536394827068" lon="14.05141199938953">
        <ele>65.64</ele>
        <time>2025-02-18T22:59:46.093Z</time>
      </trkpt>
      <trkpt lat="59.35537098906934" lon="14.051386937499046">
        <ele>65.64</ele>
        <time>2025-02-18T23:00:44.983Z</time>
      </trkpt>
      <trkpt lat="59.35538096353412" lon="14.051357936114073">
        <ele>65.63</ele>
        <time>2025-02-18T23:01:43.873Z</time>
      </trkpt>
      <trkpt lat="59.35538993217051" lon="14.051325917243958">
        <ele>65.63</ele>
        <time>2025-02-18T23:02:42.763Z</time>
      </trkpt>
      <trkpt lat="59.3554009962827" lon="14.051294988021255">
        <ele>65.62</ele>
        <time>2025-02-18T23:03:41.654Z</time>
      </trkpt>
      <trkpt lat="59.35540996491909" lon="14.051258945837617">
        <ele>65.61</ele>
        <time>2025-02-18T23:04:40.545Z</time>
      </trkpt>
      <trkpt lat="59.35541499406099" lon="14.05122097581625">
        <ele>65.6</ele>
        <time>2025-02-18T23:05:39.436Z</time>
      </trkpt>
      <trkpt lat="59.35542597435415" lon="14.05117898248136">
        <ele>65.59</ele>
        <time>2025-02-18T23:06:38.328Z</time>
      </trkpt>
      <trkpt lat="59.355438966304064" lon="14.051130954176188">
        <ele>65.58</ele>
        <time>2025-02-18T23:07:37.220Z</time>
      </trkpt>
      <trkpt lat="59.35545195825398" lon="14.051078986376524">
        <ele>65.56</ele>
        <time>2025-02-18T23:08:36.113Z</time>
      </trkpt>
      <trkpt lat="59.355465956032276" lon="14.051021989434958">
        <ele>65.55</ele>
        <time>2025-02-18T23:09:35.006Z</time>
      </trkpt>
      <trkpt lat="59.35547894798219" lon="14.050959963351488">
        <ele>65.53</ele>
        <time>2025-02-18T23:10:33.900Z</time>
      </trkpt>
      <trkpt lat="59.35549193993211" lon="14.050890980288386">
        <ele>65.52</ele>
        <time>2025-02-18T23:11:32.794Z</time>
      </trkpt>
      <trkpt lat="59.355505937710404" lon="14.05081294476986">
        <ele>65.5</ele>
        <time>2025-02-18T23:12:31.689Z</time>
      </trkpt>
      <trkpt lat="59.3555199354887" lon="14.050725940614939">
        <ele>65.48</ele>
        <time>2025-02-18T23:13:30.585Z</time>
      </trkpt>
      <trkpt lat="59.35553493909538" lon="14.050630973652005">
        <ele>65.46</ele>
        <time>2025-02-18T23:14:29.482Z</time>
      </trkpt>
      <trkpt lat="59.355550948530436" lon="14.050526954233646">
        <ele>65.43</ele>
        <time>2025-02-18T23:15:28.379Z</time>
      </trkpt>
      <trkpt lat="59.355568969622254" lon="14.050415977835655">
        <ele>65.4</ele>
        <time>2025-02-18T23:16:27.277Z</time>
      </trkpt>
      <trkpt lat="59.35558598488569" lon="14.050306929275393">
        <ele>65.37</ele>
        <time>2025-02-18T23:17:26.176Z</time>
      </trkpt>
      <trkpt lat="59.35559897683561" lon="14.050195952877402">
        <ele>65.34</ele>
        <time>2025-02-18T23:18:25.076Z</time>
      </trkpt>
      <trkpt lat="59.355611968785524" lon="14.05008296482265">
        <ele>65.3</ele>
        <time>2025-02-18T23:19:23.977Z</time>
      </trkpt>
      <trkpt lat="59.3556219432503" lon="14.049971988424659">
        <ele>65.26</ele>
        <time>2025-02-18T23:20:22.879Z</time>
      </trkpt>
      <trkpt lat="59.35562898404896" lon="14.049858916550875">
        <ele>65.22</ele>
        <time>2025-02-18T23:21:21.782Z</time>
      </trkpt>
      <trkpt lat="59.355635941028595" lon="14.049741989001632">
        <ele>65.18</ele>
        <time>2025-02-18T23:22:20.686Z</time>
      </trkpt>
      <trkpt lat="59.3556409701705" lon="14.049625983461738">
        <ele>65.13</ele>
        <time>2025-02-18T23:23:19.591Z</time>
      </trkpt>
      <trkpt lat="59.3556459993124" lon="14.049510983750224">
        <ele>65.09</ele>
        <time>2025-02-18T23:24:18.497Z</time>
      </trkpt>
      <trkpt lat="59.35564692132175" lon="14.049392966553569">
        <ele>65.04</ele>
        <time>2025-02-18T23:25:17.404Z</time>
      </trkpt>
      <trkpt lat="59.35564692132175" lon="14.049275955185294">
        <ele>65.0</ele>
        <time>2025-02-18T23:26:16.312Z</time>
      </trkpt>
      <trkpt lat="59.35564692132175" lon="14.049157937988639">
        <ele>64.96</ele>
        <time>2025-02-18T23:27:15.221Z</time>
      </trkpt>
      <trkpt lat="59.35564499348402" lon="14.049039920791984">
        <ele>64.91</ele>
        <time>2025-02-18T23:28:14.131Z</time>
      </trkpt>
      <trkpt lat="59.35563996434212" lon="14.04892098158598">
        <ele>64.87</ele>
        <time>2025-02-18T23:29:13.042Z</time>
      </trkpt>
      <trkpt lat="59.35563191771507" lon="14.048801958560944">
        <ele>64.82</ele>
        <time>2025-02-18T23:30:11.954Z</time>
      </trkpt>
      <trkpt lat="59.35562294907868" lon="14.048689976334572">
        <ele>64.78</ele>
        <time>2025-02-18T23:31:10.867Z</time>
      </trkpt>
      <trkpt lat="59.355611968785524" lon="14.04858092777431">
        <ele>64.73</ele>
        <time>2025-02-18T23:32:09.781Z</time>
      </trkpt>
      <trkpt lat="59.35559797100723" lon="14.04847296886146">
        <ele>64.69</ele>
        <time>2025-02-18T23:33:08.695Z</time>
      </trkpt>
      <trkpt lat="59.35558196157217" lon="14.04836693778634">
        <ele>64.64</ele>
        <time>2025-02-18T23:34:07.610Z</time>
      </trkpt>
      <trkpt lat="59.35556595213711" lon="14.048265935853124">
        <ele>64.58</ele>
        <time>2025-02-18T23:35:06.526Z</time>
      </trkpt>
      <trkpt lat="59.355550948530436" lon="14.048165939748287">
        <ele>64.53</ele>
        <time>2025-02-18T23:36:05.443Z</time>
      </trkpt>
      <trkpt lat="59.35553594492376" lon="14.048068961128592">
        <ele>64.48</ele>
        <time>2025-02-18T23:37:04.361Z</time>
      </trkpt>
      <trkpt lat="59.35551691800356" lon="14.04797994531691">
        <ele>64.42</ele>
        <time>2025-02-18T23:38:03.280Z</time>
      </trkpt>
      <trkpt lat="59.35549596324563" lon="14.04789294116199">
        <ele>64.36</ele>
        <time>2025-02-18T23:39:02.199Z</time>
      </trkpt>
      <trkpt lat="59.35547492466867" lon="14.047804931178689">
        <ele>64.3</ele>
        <time>2025-02-18T23:40:01.119Z</time>
      </trkpt>
      <trkpt lat="59.35545497573912" lon="14.04771993868053">
        <ele>64.24</ele>
        <time>2025-02-18T23:41:00.040Z</time>
      </trkpt>
      <trkpt lat="59.35543293133378" lon="14.047637963667512">
        <ele>64.18</ele>
        <time>2025-02-18T23:41:58.962Z</time>
      </trkpt>
      <trkpt lat="59.35540996491909" lon="14.047559928148985">
        <ele>64.12</ele>
        <time>2025-02-18T23:42:57.885Z</time>
      </trkpt>
      <trkpt lat="59.35538792051375" lon="14.04748398810625">
        <ele>64.05</ele>
        <time>2025-02-18T23:43:56.808Z</time>
      </trkpt>
      <trkpt lat="59.3553679715842" lon="14.047405952587724">
        <ele>63.98</ele>
        <time>2025-02-18T23:44:55.732Z</time>
      </trkpt>
      <trkpt lat="59.355348944664" lon="14.047327917069197">
        <ele>63.91</ele>
        <time>2025-02-18T23:45:54.657Z</time>
      </trkpt>
      <trkpt lat="59.3553299177438" lon="14.04724895954132">
        <ele>63.84</ele>
        <time>2025-02-18T23:46:53.582Z</time>
      </trkpt>
      <trkpt lat="59.355311980471015" lon="14.047169918194413">
        <ele>63.77</ele>
        <time>2025-02-18T23:47:52.508Z</time>
      </trkpt>
      <trkpt lat="59.355291947722435" lon="14.04709498398006">
        <ele>63.7</ele>
        <time>2025-02-18T23:48:51.435Z</time>
      </trkpt>
      <trkpt lat="59.355270992964506" lon="14.047015942633152">
        <ele>63.62</ele>
        <time>2025-02-18T23:49:50.363Z</time>
      </trkpt>
      <trkpt lat="59.355249954387546" lon="14.046929944306612">
        <ele>63.55</ele>
        <time>2025-02-18T23:50:49.291Z</time>
      </trkpt>
      <trkpt lat="59.355226987972856" lon="14.04684092849493">
        <ele>63.47</ele>
        <time>2025-02-18T23:51:48.220Z</time>
      </trkpt>
      <trkpt lat="59.35519899241626" lon="14.046746967360377">
        <ele>63.4</ele>
        <time>2025-02-18T23:52:47.150Z</time>
      </trkpt>
      <trkpt lat="59.35517191886902" lon="14.046647977083921">
        <ele>63.32</ele>
        <time>2025-02-18T23:53:46.081Z</time>
      </trkpt>
      <trkpt lat="59.355143923312426" lon="14.046544963493943">
        <ele>63.24</ele>
        <time>2025-02-18T23:54:45.013Z</time>
      </trkpt>
      <trkpt lat="59.35511592775583" lon="14.046437926590443">
        <ele>63.17</ele>
        <time>2025-02-18T23:55:43.946Z</time>
      </trkpt>
      <trkpt lat="59.35508592054248" lon="14.046325944364071">
        <ele>63.09</ele>
        <time>2025-02-18T23:56:42.880Z</time>
      </trkpt>
      <trkpt lat="59.355052979663014" lon="14.046210944652557">
        <ele>63.01</ele>
        <time>2025-02-18T23:57:41.815Z</time>
      </trkpt>
      <trkpt lat="59.35501894913614" lon="14.046092927455902">
        <ele>62.93</ele>
        <time>2025-02-18T23:58:40.751Z</time>
      </trkpt>
      <trkpt lat="59.35498491860926" lon="14.045967953279614">
        <ele>62.85</ele>
        <time>2025-02-18T23:59:39.688Z</time>
      </trkpt>
      <trkpt lat="59.35495097190142" lon="14.045837949961424">
        <ele>62.77</ele>
        <time>2025-02-19T00:00:38.626Z</time>
      </trkpt>
      <trkpt lat="59.35491492971778" lon="14.045703923329711">
        <ele>62.69</ele>
        <time>2025-02-19T00:01:37.566Z</time>
      </trkpt>
      <trkpt lat="59.35487695969641" lon="14.045565957203507">
        <ele>62.61</ele>
        <time>2025-02-19T00:02:36.507Z</time>
      </trkpt>
      <trkpt lat="59.354838989675045" lon="14.045424973592162">
        <ele>62.53</ele>
        <time>2025-02-19T00:03:35.449Z</time>
      </trkpt>
      <trkpt lat="59.354799930006266" lon="14.045281978324056">
        <ele>62.45</ele>
        <time>2025-02-19T00:04:34.393Z</time>
      </trkpt>
      <trkpt lat="59.35475894249976" lon="14.045135965570807">
        <ele>62.37</ele>
        <time>2025-02-19T00:05:33.338Z</time>
      </trkpt>
      <trkpt lat="59.35471795499325" lon="14.044987941160798">
        <ele>62.27</ele>
        <time>2025-02-19T00:06:32.284Z</time>
      </trkpt>
      <trkpt lat="59.35467495582998" lon="14.044839916750789">
        <ele>62.19</ele>
        <time>2025-02-19T00:07:31.232Z</time>
      </trkpt>
      <trkpt lat="59.35463396832347" lon="14.044692981988192">
        <ele>62.1</ele>
        <time>2025-02-19T00:08:30.181Z</time>
      </trkpt>
      <trkpt lat="59.35459197498858" lon="14.044547975063324">
        <ele>62.02</ele>
        <time>2025-02-19T00:09:29.131Z</time>
      </trkpt>
      <trkpt lat="59.35455098748207" lon="14.044405985623598">
        <ele>61.94</ele>
        <time>2025-02-19T00:10:28.083Z</time>
      </trkpt>
      <trkpt lat="59.35451293364167" lon="14.044264918193221">
        <ele>61.86</ele>
        <time>2025-02-19T00:11:27.036Z</time>
      </trkpt>
      <trkpt lat="59.35447194613516" lon="14.044125946238637">
        <ele>61.77</ele>
        <time>2025-02-19T00:12:25.990Z</time>
      </trkpt>
      <trkpt lat="59.354431964457035" lon="14.043989991769195">
        <ele>61.69</ele>
        <time>2025-02-19T00:13:24.946Z</time>
      </trkpt>
      <trkpt lat="59.35439399443567" lon="14.04385395348072">
        <ele>61.62</ele>
        <time>2025-02-19T00:14:23.903Z</time>
      </trkpt>
      <trkpt lat="59.35435594059527" lon="14.043717999011278">
        <ele>61.54</ele>
        <time>2025-02-19T00:15:22.861Z</time>
      </trkpt>
      <trkpt lat="59.35431998223066" lon="14.043581960722804">
        <ele>61.46</ele>
        <time>2025-02-19T00:16:21.821Z</time>
      </trkpt>
      <trkpt lat="59.35428595170379" lon="14.04344491660595">
        <ele>61.39</ele>
        <time>2025-02-19T00:17:20.782Z</time>
      </trkpt>
      <trkpt lat="59.35425192117691" lon="14.043308962136507">
        <ele>61.31</ele>
        <time>2025-02-19T00:18:19.744Z</time>
      </trkpt>
      <trkpt lat="59.35422099195421" lon="14.043170996010303">
        <ele>61.23</ele>
        <time>2025-02-19T00:19:18.707Z</time>
      </trkpt>
      <trkpt lat="59.354196935892105" lon="14.043027916923165">
        <ele>61.15</ele>
        <time>2025-02-19T00:20:17.671Z</time>
      </trkpt>
      <trkpt lat="59.35417992062867" lon="14.04288299381733">
        <ele>61.07</ele>
        <time>2025-02-19T00:21:16.637Z</time>
      </trkpt>
      <trkpt lat="59.35416491702199" lon="14.042737986892462">
        <ele>60.99</ele>
        <time>2025-02-19T00:22:15.604Z</time>
      </trkpt>
      <trkpt lat="59.35415091924369" lon="14.042590968310833">
        <ele>60.91</ele>
        <time>2025-02-19T00:23:14.572Z</time>
      </trkpt>
      <trkpt lat="59.35413792729378" lon="14.042442943900824">
        <ele>60.83</ele>
        <time>2025-02-19T00:24:13.541Z</time>
      </trkpt>
      <trkpt lat="59.35412594117224" lon="14.042290979996324">
        <ele>60.75</ele>
        <time>2025-02-19T00:25:12.512Z</time>
      </trkpt>
      <trkpt lat="59.35411395505071" lon="14.042135998606682">
        <ele>60.68</ele>
        <time>2025-02-19T00:26:11.484Z</time>
      </trkpt>
      <trkpt lat="59.35410096310079" lon="14.041978921741247">
        <ele>60.61</ele>
        <time>2025-02-19T00:27:10.457Z</time>
      </trkpt>
      <trkpt lat="59.35409098863602" lon="14.041814971715212">
        <ele>60.53</ele>
        <time>2025-02-19T00:28:09.432Z</time>
      </trkpt>
      <trkpt lat="59.35408093035221" lon="14.041646998375654">
        <ele>60.46</ele>
        <time>2025-02-19T00:29:08.408Z</time>
      </trkpt>
      <trkpt lat="59.35407095588744" lon="14.041476929560304">
        <ele>60.39</ele>
        <time>2025-02-19T00:30:07.385Z</time>
      </trkpt>
      <trkpt lat="59.354069950059056" lon="14.041305938735604">
        <ele>60.33</ele>
        <time>2025-02-19T00:31:06.364Z</time>
      </trkpt>
      <trkpt lat="59.35407497920096" lon="14.041136959567666">
        <ele>60.26</ele>
        <time>2025-02-19T00:32:05.344Z</time>
      </trkpt>
      <trkpt lat="59.354085959494114" lon="14.040971919894218">
        <ele>60.19</ele>
        <time>2025-02-19T00:33:04.326Z</time>
      </trkpt>
      <trkpt lat="59.35410196892917" lon="14.040816938504577">
        <ele>60.13</ele>
        <time>2025-02-19T00:34:03.309Z</time>
      </trkpt>
      <trkpt lat="59.3541229236871" lon="14.040667992085218">
        <ele>60.06</ele>
        <time>2025-02-19T00:35:02.293Z</time>
      </trkpt>
      <trkpt lat="59.35414597392082" lon="14.040526924654841">
        <ele>59.99</ele>
        <time>2025-02-19T00:36:01.278Z</time>
      </trkpt>
      <trkpt lat="59.35416692867875" lon="14.040386946871877">
        <ele>59.92</ele>
        <time>2025-02-19T00:37:00.264Z</time>
      </trkpt>
      <trkpt lat="59.35418997891247" lon="14.040247974917293">
        <ele>59.85</ele>
        <time>2025-02-19T00:37:59.252Z</time>
      </trkpt>
      <trkpt lat="59.35421193949878" lon="14.040110930800438">
        <ele>59.79</ele>
        <time>2025-02-19T00:38:58.241Z</time>
      </trkpt>
      <trkpt lat="59.35423297807574" lon="14.039971958845854">
        <ele>59.73</ele>
        <time>2025-02-19T00:39:57.231Z</time>
      </trkpt>
      <trkpt lat="59.35425493866205" lon="14.03983499854803">
        <ele>59.66</ele>
        <time>2025-02-19T00:40:56.222Z</time>
      </trkpt>
      <trkpt lat="59.35427597723901" lon="14.039694936946034">
        <ele>59.6</ele>
        <time>2025-02-19T00:41:55.214Z</time>
      </trkpt>
      <trkpt lat="59.35429592616856" lon="14.039550935849547">
        <ele>59.54</ele>
        <time>2025-02-19T00:42:54.208Z</time>
      </trkpt>
      <trkpt lat="59.35431394726038" lon="14.03940299525857">
        <ele>59.49</ele>
        <time>2025-02-19T00:43:53.203Z</time>
      </trkpt>
      <trkpt lat="59.35432895086706" lon="14.0392529591918">
        <ele>59.43</ele>
        <time>2025-02-19T00:44:52.199Z</time>
      </trkpt>
      <trkpt lat="59.354343954473734" lon="14.03910594061017">
        <ele>59.38</ele>
        <time>2025-02-19T00:45:51.196Z</time>
      </trkpt>
      <trkpt lat="59.35435895808041" lon="14.038960933685303">
        <ele>59.33</ele>
        <time>2025-02-19T00:46:50.195Z</time>
      </trkpt>
      <trkpt lat="59.35437496751547" lon="14.038816932588816">
        <ele>59.27</ele>
        <time>2025-02-19T00:47:49.195Z</time>
      </trkpt>
      <trkpt lat="59.35439298860729" lon="14.03867494314909">
        <ele>59.21</ele>
        <time>2025-02-19T00:48:48.196Z</time>
      </trkpt>
      <trkpt lat="59.354412937536836" lon="14.038535971194506">
        <ele>59.16</ele>
        <time>2025-02-19T00:49:47.198Z</time>
      </trkpt>
      <trkpt lat="59.35443498194218" lon="14.038401944562793">
        <ele>59.1</ele>
        <time>2025-02-19T00:50:46.201Z</time>
      </trkpt>
      <trkpt lat="59.35445895418525" lon="14.038276970386505">
        <ele>59.04</ele>
        <time>2025-02-19T00:51:45.205Z</time>
      </trkpt>
      <trkpt lat="59.35448594391346" lon="14.038156941533089">
        <ele>58.98</ele>
        <time>2025-02-19T00:52:44.210Z</time>
      </trkpt>
      <trkpt lat="59.35451393947005" lon="14.038040935993195">
        <ele>58.92</ele>
        <time>2025-02-19T00:53:43.217Z</time>
      </trkpt>
      <trkpt lat="59.354541935026646" lon="14.037925936281681">
        <ele>58.87</ele>
        <time>2025-02-19T00:54:42.225Z</time>
      </trkpt>
      <trkpt lat="59.35456892475486" lon="14.037809930741787">
        <ele>58.81</ele>
        <time>2025-02-19T00:55:41.234Z</time>
      </trkpt>
      <trkpt lat="59.3545909691602" lon="14.037688979879022">
        <ele>58.77</ele>
        <time>2025-02-19T00:56:40.244Z</time>
      </trkpt>
      <trkpt lat="59.35460899025202" lon="14.037562999874353">
        <ele>58.72</ele>
        <time>2025-02-19T00:57:39.255Z</time>
      </trkpt>
      <trkpt lat="59.354622988030314" lon="14.037433918565512">
        <ele>58.67</ele>
        <time>2025-02-19T00:58:38.267Z</time>
      </trkpt>
      <trkpt lat="59.35463597998023" lon="14.037302993237972">
        <ele>58.62</ele>
        <time>2025-02-19T00:59:37.280Z</time>
      </trkpt>
      <trkpt lat="59.354646960273385" lon="14.037167960777879">
        <ele>58.58</ele>
        <time>2025-02-19T01:00:36.294Z</time>
      </trkpt>
      <trkpt lat="59.3546599522233" lon="14.037029994651675">
        <ele>58.53</ele>
        <time>2025-02-19T01:01:35.309Z</time>
      </trkpt>
      <trkpt lat="59.354666993021965" lon="14.036888927221298">
        <ele>58.49</ele>
        <time>2025-02-19T01:02:34.325Z</time>
      </trkpt>
      <trkpt lat="59.354671938344836" lon="14.036749955266714">
        <ele>58.44</ele>
        <time>2025-02-19T01:03:33.342Z</time>
      </trkpt>
      <trkpt lat="59.35467495582998" lon="14.03661391697824">
        <ele>58.39</ele>
        <time>2025-02-19T01:04:32.361Z</time>
      </trkpt>
      <trkpt lat="59.35467797331512" lon="14.036477962508798">
        <ele>58.34</ele>
        <time>2025-02-19T01:05:31.381Z</time>
      </trkpt>
      <trkpt lat="59.35468099080026" lon="14.036340918391943">
        <ele>58.28</ele>
        <time>2025-02-19T01:06:30.402Z</time>
      </trkpt>
      <trkpt lat="59.35468493029475" lon="14.036197923123837">
        <ele>58.23</ele>
        <time>2025-02-19T01:07:29.424Z</time>
      </trkpt>
      <trkpt lat="59.354691971093416" lon="14.03605098836124">
        <ele>58.18</ele>
        <time>2025-02-19T01:08:28.447Z</time>
      </trkpt>
      <trkpt lat="59.35470093972981" lon="14.035897934809327">
        <ele>58.13</ele>
        <time>2025-02-19T01:09:27.471Z</time>
      </trkpt>
      <trkpt lat="59.354711920022964" lon="14.035741947591305">
        <ele>58.08</ele>
        <time>2025-02-19T01:10:26.497Z</time>
      </trkpt>
      <trkpt lat="59.35472692362964" lon="14.035578919574618">
        <ele>58.04</ele>
        <time>2025-02-19T01:11:25.524Z</time>
      </trkpt>
      <trkpt lat="59.35474595054984" lon="14.035416981205344">
        <ele>57.99</ele>
        <time>2025-02-19T01:12:24.552Z</time>
      </trkpt>
      <trkpt lat="59.35476497747004" lon="14.035253953188658">
        <ele>57.96</ele>
        <time>2025-02-19T01:13:23.582Z</time>
      </trkpt>
      <trkpt lat="59.35478299856186" lon="14.035087991505861">
        <ele>57.93</ele>
        <time>2025-02-19T01:14:22.613Z</time>
      </trkpt>
      <trkpt lat="59.354800935834646" lon="14.034924963489175">
        <ele>57.91</ele>
        <time>2025-02-19T01:15:21.646Z</time>
      </trkpt>
      <trkpt lat="59.354820968583226" lon="14.034759923815727">
        <ele>57.88</ele>
        <time>2025-02-19T01:16:20.680Z</time>
      </trkpt>
      <trkpt lat="59.354839995503426" lon="14.034597985446453">
        <ele>57.86</ele>
        <time>2025-02-19T01:17:19.715Z</time>
      </trkpt>
      <trkpt lat="59.35485793277621" lon="14.034437974914908">
        <ele>57.85</ele>
        <time>2025-02-19T01:18:18.752Z</time>
      </trkpt>
      <trkpt lat="59.35487394221127" lon="14.034278970211744">
        <ele>57.83</ele>
        <time>2025-02-19T01:19:17.790Z</time>
      </trkpt>
      <trkpt lat="59.35488793998957" lon="14.03411996550858">
        <ele>57.82</ele>
        <time>2025-02-19T01:20:16.829Z</time>
      </trkpt>
      <trkpt lat="59.354902943596244" lon="14.0339669957757">
        <ele>57.8</ele>
        <time>2025-02-19T01:21:15.870Z</time>
      </trkpt>
      <trkpt lat="59.35492096468806" lon="14.033814948052168">
        <ele>57.79</ele>
        <time>2025-02-19T01:22:14.912Z</time>
      </trkpt>
      <trkpt lat="59.35494292527437" lon="14.033663989976048">
        <ele>57.78</ele>
        <time>2025-02-19T01:23:13.955Z</time>
      </trkpt>
      <trkpt lat="59.354968992993236" lon="14.033513953909278">
        <ele>57.77</ele>
        <time>2025-02-19T01:24:13.000Z</time>
      </trkpt>
      <trkpt lat="59.35499891638756" lon="14.033363917842507">
        <ele>57.76</ele>
        <time>2025-02-19T01:25:12.046Z</time>
      </trkpt>
      <trkpt lat="59.355031941086054" lon="14.033214971423149">
        <ele>57.76</ele>
        <time>2025-02-19T01:26:11.093Z</time>
      </trkpt>
      <trkpt lat="59.35506898909807" lon="14.033064935356379">
        <ele>57.75</ele>
        <time>2025-02-19T01:27:10.142Z</time>
      </trkpt>
      <trkpt lat="59.35511098243296" lon="14.032910959795117">
        <ele>57.75</ele>
        <time>2025-02-19T01:28:09.192Z</time>
      </trkpt>
      <trkpt lat="59.35515398159623" lon="14.032748937606812">
        <ele>57.75</ele>
        <time>2025-02-19T01:29:08.243Z</time>
      </trkpt>
      <trkpt lat="59.355203937739134" lon="14.03259395621717">
        <ele>57.74</ele>
        <time>2025-02-19T01:30:07.296Z</time>
      </trkpt>
      <trkpt lat="59.35525892302394" lon="14.03244492597878">
        <ele>57.74</ele>
        <time>2025-02-19T01:31:06.350Z</time>
      </trkpt>
      <trkpt lat="59.355316925793886" lon="14.032300924882293">
        <ele>57.74</ele>
        <time>2025-02-19T01:32:05.406Z</time>
      </trkpt>
      <trkpt lat="59.355375934392214" lon="14.032160947099328">
        <ele>57.74</ele>
        <time>2025-02-19T01:33:04.463Z</time>
      </trkpt>
      <trkpt lat="59.35543594881892" lon="14.032028932124376">
        <ele>57.74</ele>
        <time>2025-02-19T01:34:03.522Z</time>
      </trkpt>
      <trkpt lat="59.35549395158887" lon="14.031899934634566">
        <ele>57.75</ele>
        <time>2025-02-19T01:35:02.582Z</time>
      </trkpt>
      <trkpt lat="59.355551954358816" lon="14.03177697211504">
        <ele>57.76</ele>
        <time>2025-02-19T01:36:01.644Z</time>
      </trkpt>
      <trkpt lat="59.35560995712876" lon="14.031660966575146">
        <ele>57.76</ele>
        <time>2025-02-19T01:37:00.707Z</time>
      </trkpt>
      <trkpt lat="59.35566695407033" lon="14.031546972692013">
        <ele>57.77</ele>
        <time>2025-02-19T01:37:59.771Z</time>
      </trkpt>
      <trkpt lat="59.355722945183516" lon="14.03143691830337">
        <ele>57.78</ele>
        <time>2025-02-19T01:38:58.837Z</time>
      </trkpt>
      <trkpt lat="59.35577994212508" lon="14.031329965218902">
        <ele>57.8</ele>
        <time>2025-02-19T01:39:57.904Z</time>
      </trkpt>
      <trkpt lat="59.35583299957216" lon="14.031227957457304">
        <ele>57.81</ele>
        <time>2025-02-19T01:40:56.972Z</time>
      </trkpt>
      <trkpt lat="59.35588496737182" lon="14.031136929988861">
        <ele>57.83</ele>
        <time>2025-02-19T01:41:56.041Z</time>
      </trkpt>
      <trkpt lat="59.35593995265663" lon="14.03104892000556">
        <ele>57.85</ele>
        <time>2025-02-19T01:42:55.111Z</time>
      </trkpt>
      <trkpt lat="59.35599594376981" lon="14.030973985791206">
        <ele>57.87</ele>
        <time>2025-02-19T01:43:54.182Z</time>
      </trkpt>
      <trkpt lat="59.356051934883" lon="14.030894944444299">
        <ele>57.9</ele>
        <time>2025-02-19T01:44:53.254Z</time>
      </trkpt>
      <trkpt lat="59.35611194930971" lon="14.030814981088042">
        <ele>57.92</ele>
        <time>2025-02-19T01:45:52.328Z</time>
      </trkpt>
      <trkpt lat="59.356169952079654" lon="14.030735939741135">
        <ele>57.95</ele>
        <time>2025-02-19T01:46:51.403Z</time>
      </trkpt>
      <trkpt lat="59.35622996650636" lon="14.03066092170775">
        <ele>57.98</ele>
        <time>2025-02-19T01:47:50.479Z</time>
      </trkpt>
      <trkpt lat="59.35629098676145" lon="14.030588921159506">
        <ele>58.02</ele>
        <time>2025-02-19T01:48:49.556Z</time>
      </trkpt>
      <trkpt lat="59.35635695233941" lon="14.030521949753165">
        <ele>58.05</ele>
        <time>2025-02-19T01:49:48.634Z</time>
      </trkpt>
      <trkpt lat="59.35642694123089" lon="14.030461935326457">
        <ele>58.1</ele>
        <time>2025-02-19T01:50:47.713Z</time>
      </trkpt>
      <trkpt lat="59.35649994760752" lon="14.030406950041652">
        <ele>58.15</ele>
        <time>2025-02-19T01:51:46.794Z</time>
      </trkpt>
      <trkpt lat="59.3565749656409" lon="14.03035799972713">
        <ele>58.2</ele>
        <time>2025-02-19T01:52:45.876Z</time>
      </trkpt>
      <trkpt lat="59.35665098950267" lon="14.030311983078718">
        <ele>58.24</ele>
        <time>2025-02-19T01:53:44.959Z</time>
      </trkpt>
      <trkpt lat="59.35672793537378" lon="14.030266972258687">
        <ele>58.29</ele>
        <time>2025-02-19T01:54:44.044Z</time>
      </trkpt>
      <trkpt lat="59.35680496506393" lon="14.030220955610275">
        <ele>58.34</ele>
        <time>2025-02-19T01:55:43.130Z</time>
      </trkpt>
      <trkpt lat="59.35688593424857" lon="14.030173933133483">
        <ele>58.39</ele>
        <time>2025-02-19T01:56:42.217Z</time>
      </trkpt>
      <trkpt lat="59.356966987252235" lon="14.030126994475722">
        <ele>58.43</ele>
        <time>2025-02-19T01:57:41.306Z</time>
      </trkpt>
      <trkpt lat="59.357052985578775" lon="14.030081983655691">
        <ele>58.48</ele>
        <time>2025-02-19T01:58:40.396Z</time>
      </trkpt>
      <trkpt lat="59.35714099556208" lon="14.03003596700728">
        <ele>58.53</ele>
        <time>2025-02-19T01:59:39.487Z</time>
      </trkpt>
      <trkpt lat="59.357228921726346" lon="14.029991962015629">
        <ele>58.59</ele>
        <time>2025-02-19T02:00:38.580Z</time>
      </trkpt>
      <trkpt lat="59.35731592588127" lon="14.02994996868074">
        <ele>58.65</ele>
        <time>2025-02-19T02:01:37.674Z</time>
      </trkpt>
      <trkpt lat="59.35740393586457" lon="14.029903952032328">
        <ele>58.71</ele>
        <time>2025-02-19T02:02:36.770Z</time>
      </trkpt>
      <trkpt lat="59.35749094001949" lon="14.029855923727155">
        <ele>58.78</ele>
        <time>2025-02-19T02:03:35.867Z</time>
      </trkpt>
      <trkpt lat="59.35757593251765" lon="14.029811918735504">
        <ele>58.87</ele>
        <time>2025-02-19T02:04:34.966Z</time>
      </trkpt>
      <trkpt lat="59.357654973864555" lon="14.029768919572234">
        <ele>58.95</ele>
        <time>2025-02-19T02:05:34.066Z</time>
      </trkpt>
      <trkpt lat="59.35773493722081" lon="14.029719969257712">
        <ele>59.04</ele>
        <time>2025-02-19T02:06:33.167Z</time>
      </trkpt>
      <trkpt lat="59.357807943597436" lon="14.02967194095254">
        <ele>59.13</ele>
        <time>2025-02-19T02:07:32.270Z</time>
      </trkpt>
      <trkpt lat="59.35787592083216" lon="14.029633970931172">
        <ele>59.22</ele>
        <time>2025-02-19T02:08:31.374Z</time>
      </trkpt>
      <trkpt lat="59.35793995857239" lon="14.029594995081425">
        <ele>59.31</ele>
        <time>2025-02-19T02:09:30.479Z</time>
      </trkpt>
      <trkpt lat="59.35800299048424" lon="14.029552917927504">
        <ele>59.41</ele>
        <time>2025-02-19T02:10:29.585Z</time>
      </trkpt>
      <trkpt lat="59.358061999082565" lon="14.029509918764234">
        <ele>59.5</ele>
        <time>2025-02-19T02:11:28.692Z</time>
      </trkpt>
      <trkpt lat="59.35811698436737" lon="14.029463985934854">
        <ele>59.6</ele>
        <time>2025-02-19T02:12:27.800Z</time>
      </trkpt>
      <trkpt lat="59.358170963823795" lon="14.029412940144539">
        <ele>59.69</ele>
        <time>2025-02-19T02:13:26.909Z</time>
      </trkpt>
      <trkpt lat="59.35822293162346" lon="14.029355943202972">
        <ele>59.79</ele>
        <time>2025-02-19T02:14:26.019Z</time>
      </trkpt>
      <trkpt lat="59.35827397741377" lon="14.029294922947884">
        <ele>59.9</ele>
        <time>2025-02-19T02:15:25.130Z</time>
      </trkpt>
      <trkpt lat="59.35832493938506" lon="14.029237926006317">
        <ele>60.0</ele>
        <time>2025-02-19T02:16:24.242Z</time>
      </trkpt>
      <trkpt lat="59.35837799683213" lon="14.02917598374188">
        <ele>60.1</ele>
        <time>2025-02-19T02:17:23.355Z</time>
      </trkpt>
      <trkpt lat="59.35843097046018" lon="14.029116975143552">
        <ele>60.2</ele>
        <time>2025-02-19T02:18:22.469Z</time>
      </trkpt>
      <trkpt lat="59.35848293825984" lon="14.029060984030366">
        <ele>60.3</ele>
        <time>2025-02-19T02:19:21.584Z</time>
      </trkpt>
      <trkpt lat="59.358532978221774" lon="14.029011949896812">
        <ele>60.41</ele>
        <time>2025-02-19T02:20:20.699Z</time>
      </trkpt>
      <trkpt lat="59.35858394019306" lon="14.02896199375391">
        <ele>60.52</ele>
        <time>2025-02-19T02:21:19.815Z</time>
      </trkpt>
      <trkpt lat="59.35863398015499" lon="14.028905918821692">
        <ele>60.63</ele>
        <time>2025-02-19T02:22:18.932Z</time>
      </trkpt>
      <trkpt lat="59.358685947954655" lon="14.028849927708507">
        <ele>60.74</ele>
        <time>2025-02-19T02:23:18.050Z</time>
      </trkpt>
      <trkpt lat="59.35873992741108" lon="14.028798965737224">
        <ele>60.85</ele>
        <time>2025-02-19T02:24:17.169Z</time>
      </trkpt>
      <trkpt lat="59.358790973201394" lon="14.02874599210918">
        <ele>60.96</ele>
        <time>2025-02-19T02:25:16.289Z</time>
      </trkpt>
      <trkpt lat="59.35884294100106" lon="14.028692934662104">
        <ele>61.08</ele>
        <time>2025-02-19T02:26:15.410Z</time>
      </trkpt>
      <trkpt lat="59.35889792628586" lon="14.02864197269082">
        <ele>61.2</ele>
        <time>2025-02-19T02:27:14.532Z</time>
      </trkpt>
      <trkpt lat="59.35895098373294" lon="14.028591932728887">
        <ele>61.31</ele>
        <time>2025-02-19T02:28:13.655Z</time>
      </trkpt>
      <trkpt lat="59.35900496318936" lon="14.028539964929223">
        <ele>61.43</ele>
        <time>2025-02-19T02:29:12.779Z</time>
      </trkpt>
      <trkpt lat="59.359055925160646" lon="14.028485985472798">
        <ele>61.55</ele>
        <time>2025-02-19T02:30:11.904Z</time>
      </trkpt>
      <trkpt lat="59.35910797677934" lon="14.028428988531232">
        <ele>61.67</ele>
        <time>2025-02-19T02:31:11.030Z</time>
      </trkpt>
      <trkpt lat="59.359160950407386" lon="14.028374925255775">
        <ele>61.79</ele>
        <time>2025-02-19T02:32:10.157Z</time>
      </trkpt>
      <trkpt lat="59.35921694152057" lon="14.02831893414259">
        <ele>61.91</ele>
        <time>2025-02-19T02:33:09.285Z</time>
      </trkpt>
      <trkpt lat="59.35927293263376" lon="14.028259925544262">
        <ele>62.03</ele>
        <time>2025-02-19T02:34:08.414Z</time>
      </trkpt>
      <trkpt lat="59.35932892374694" lon="14.028204940259457">
        <ele>62.15</ele>
        <time>2025-02-19T02:35:07.544Z</time>
      </trkpt>
      <trkpt lat="59.3593829870224" lon="14.028150960803032">
        <ele>62.26</ele>
        <time>2025-02-19T02:36:06.675Z</time>
      </trkpt>
      <trkpt lat="59.359438978135586" lon="14.028091952204704">
        <ele>62.38</ele>
        <time>2025-02-19T02:37:05.807Z</time>
      </trkpt>
      <trkpt lat="59.35949295759201" lon="14.028014922514558">
        <ele>62.5</ele>
        <time>2025-02-19T02:38:04.940Z</time>
      </trkpt>
      <trkpt lat="59.35954995453358" lon="14.027940994128585">
        <ele>62.62</ele>
        <time>2025-02-19T02:39:04.074Z</time>
      </trkpt>
      <trkpt lat="59.35960493981838" lon="14.02786698192358">
        <ele>62.75</ele>
        <time>2025-02-19T02:40:03.209Z</time>
      </trkpt>
      <trkpt lat="59.35966093093157" lon="14.027791963890195">
        <ele>62.87</ele>
        <time>2025-02-19T02:41:02.345Z</time>
      </trkpt>
      <trkpt lat="59.35971298255026" lon="14.02771895751357">
        <ele>62.99</ele>
        <time>2025-02-19T02:42:01.482Z</time>
      </trkpt>
      <trkpt lat="59.35976796783507" lon="14.027638994157314">
        <ele>63.11</ele>
        <time>2025-02-19T02:43:00.620Z</time>
      </trkpt>
      <trkpt lat="59.359825970605016" lon="14.027553917840123">
        <ele>63.23</ele>
        <time>2025-02-19T02:43:59.759Z</time>
      </trkpt>
      <trkpt lat="59.35987995006144" lon="14.027461968362331">
        <ele>63.34</ele>
        <time>2025-02-19T02:44:58.900Z</time>
      </trkpt>
      <trkpt lat="59.359935941174626" lon="14.027360966429114">
        <ele>63.45</ele>
        <time>2025-02-19T02:45:58.042Z</time>
      </trkpt>
      <trkpt lat="59.35999193228781" lon="14.027254935353994">
        <ele>63.58</ele>
        <time>2025-02-19T02:46:57.185Z</time>
      </trkpt>
      <trkpt lat="59.360041972249746" lon="14.027146976441145">
        <ele>63.7</ele>
        <time>2025-02-19T02:47:56.329Z</time>
      </trkpt>
      <trkpt lat="59.36009192839265" lon="14.027036922052503">
        <ele>63.82</ele>
        <time>2025-02-19T02:48:55.474Z</time>
      </trkpt>
      <trkpt lat="59.360143980011344" lon="14.026927957311273">
        <ele>63.93</ele>
        <time>2025-02-19T02:49:54.621Z</time>
      </trkpt>
      <trkpt lat="59.36019695363939" lon="14.026810945942998">
        <ele>64.05</ele>
        <time>2025-02-19T02:50:53.769Z</time>
      </trkpt>
      <trkpt lat="59.36024892143905" lon="14.026691922917962">
        <ele>64.17</ele>
        <time>2025-02-19T02:51:52.918Z</time>
      </trkpt>
      <trkpt lat="59.36030097305775" lon="14.026569966226816">
        <ele>64.29</ele>
        <time>2025-02-19T02:52:52.069Z</time>
      </trkpt>
      <trkpt lat="59.36034799553454" lon="14.026447925716639">
        <ele>64.41</ele>
        <time>2025-02-19T02:53:51.221Z</time>
      </trkpt>
      <trkpt lat="59.3603949341923" lon="14.026323957368731">
        <ele>64.53</ele>
        <time>2025-02-19T02:54:50.374Z</time>
      </trkpt>
      <trkpt lat="59.36044095084071" lon="14.026199989020824">
        <ele>64.64</ele>
        <time>2025-02-19T02:55:49.528Z</time>
      </trkpt>
      <trkpt lat="59.36048495583236" lon="14.026069985702634">
        <ele>64.76</ele>
        <time>2025-02-19T02:56:48.684Z</time>
      </trkpt>
      <trkpt lat="59.36052594333887" lon="14.025937970727682">
        <ele>64.87</ele>
        <time>2025-02-19T02:57:47.841Z</time>
      </trkpt>
      <trkpt lat="59.360565925017" lon="14.02580494992435">
        <ele>64.98</ele>
        <time>2025-02-19T02:58:46.999Z</time>
      </trkpt>
      <trkpt lat="59.36060196720064" lon="14.025668995454907">
        <ele>65.1</ele>
        <time>2025-02-19T02:59:46.158Z</time>
      </trkpt>
      <trkpt lat="59.36063792556524" lon="14.025534968823195">
        <ele>65.2</ele>
        <time>2025-02-19T03:00:45.319Z</time>
      </trkpt>
      <trkpt lat="59.36067095026374" lon="14.025400942191482">
        <ele>65.31</ele>
        <time>2025-02-19T03:01:44.481Z</time>
      </trkpt>
      <trkpt lat="59.360703974962234" lon="14.02526498772204">
        <ele>65.41</ele>
        <time>2025-02-19T03:02:43.644Z</time>
      </trkpt>
      <trkpt lat="59.36073398217559" lon="14.025125931948423">
        <ele>65.51</ele>
        <time>2025-02-19T03:03:42.808Z</time>
      </trkpt>
      <trkpt lat="59.36076197773218" lon="14.024983942508698">
        <ele>65.61</ele>
        <time>2025-02-19T03:04:41.974Z</time>
      </trkpt>
      <trkpt lat="59.36078796163201" lon="14.024840947240591">
        <ele>65.71</ele>
        <time>2025-02-19T03:05:41.141Z</time>
      </trkpt>
      <trkpt lat="59.360813945531845" lon="14.024695940315723">
        <ele>65.8</ele>
        <time>2025-02-19T03:06:40.309Z</time>
      </trkpt>
      <trkpt lat="59.360837917774916" lon="14.024551939219236">
        <ele>65.89</ele>
        <time>2025-02-19T03:07:39.478Z</time>
      </trkpt>
      <trkpt lat="59.36086197383702" lon="14.02440894395113">
        <ele>65.98</ele>
        <time>2025-02-19T03:08:38.649Z</time>
      </trkpt>
      <trkpt lat="59.36088594608009" lon="14.024266954511404">
        <ele>66.07</ele>
        <time>2025-02-19T03:09:37.821Z</time>
      </trkpt>
      <trkpt lat="59.36090799048543" lon="14.024122953414917">
        <ele>66.16</ele>
        <time>2025-02-19T03:10:36.994Z</time>
      </trkpt>
      <trkpt lat="59.36092995107174" lon="14.023980963975191">
        <ele>66.24</ele>
        <time>2025-02-19T03:11:36.168Z</time>
      </trkpt>
      <trkpt lat="59.36095291748643" lon="14.023836962878704">
        <ele>66.32</ele>
        <time>2025-02-19T03:12:35.343Z</time>
      </trkpt>
      <trkpt lat="59.36097596772015" lon="14.023694973438978">
        <ele>66.39</ele>
        <time>2025-02-19T03:13:34.520Z</time>
      </trkpt>
      <trkpt lat="59.36099692247808" lon="14.02354795485735">
        <ele>66.47</ele>
        <time>2025-02-19T03:14:33.698Z</time>
      </trkpt>
      <trkpt lat="59.36101796105504" lon="14.02340093627572">
        <ele>66.54</ele>
        <time>2025-02-19T03:15:32.877Z</time>
      </trkpt>
      <trkpt lat="59.36103799380362" lon="14.023253917694092">
        <ele>66.61</ele>
        <time>2025-02-19T03:16:32.057Z</time>
      </trkpt>
      <trkpt lat="59.36105492524803" lon="14.023101953789592">
        <ele>66.68</ele>
        <time>2025-02-19T03:17:31.239Z</time>
      </trkpt>
      <trkpt lat="59.361071940511465" lon="14.022949989885092">
        <ele>66.75</ele>
        <time>2025-02-19T03:18:30.422Z</time>
      </trkpt>
      <trkpt lat="59.36108694411814" lon="14.022791991010308">
        <ele>66.82</ele>
        <time>2025-02-19T03:19:29.606Z</time>
      </trkpt>
      <trkpt lat="59.36109993606806" lon="14.022633992135525">
        <ele>66.88</ele>
        <time>2025-02-19T03:20:28.792Z</time>
      </trkpt>
      <trkpt lat="59.36111192218959" lon="14.0224729757756">
        <ele>66.94</ele>
        <time>2025-02-19T03:21:27.979Z</time>
      </trkpt>
      <trkpt lat="59.36112298630178" lon="14.022310953587294">
        <ele>67.0</ele>
        <time>2025-02-19T03:22:27.167Z</time>
      </trkpt>
      <trkpt lat="59.36113195493817" lon="14.022145997732878">
        <ele>67.05</ele>
        <time>2025-02-19T03:23:26.357Z</time>
      </trkpt>
      <trkpt lat="59.36113899573684" lon="14.02197995223105">
        <ele>67.11</ele>
        <time>2025-02-19T03:24:25.548Z</time>
      </trkpt>
      <trkpt lat="59.36114494688809" lon="14.021810973063111">
        <ele>67.16</ele>
        <time>2025-02-19T03:25:24.740Z</time>
      </trkpt>
      <trkpt lat="59.36114796437323" lon="14.021639982238412">
        <ele>67.2</ele>
        <time>2025-02-19T03:26:23.934Z</time>
      </trkpt>
      <trkpt lat="59.36114695854485" lon="14.02146396227181">
        <ele>67.24</ele>
        <time>2025-02-19T03:27:23.129Z</time>
      </trkpt>
      <trkpt lat="59.36114293523133" lon="14.021288948133588">
        <ele>67.28</ele>
        <time>2025-02-19T03:28:22.326Z</time>
      </trkpt>
      <trkpt lat="59.36113899573684" lon="14.021108988672495">
        <ele>67.3</ele>
        <time>2025-02-19T03:29:21.524Z</time>
      </trkpt>
      <trkpt lat="59.361134972423315" lon="14.020924922078848">
        <ele>67.33</ele>
        <time>2025-02-19T03:30:20.724Z</time>
      </trkpt>
      <trkpt lat="59.361132960766554" lon="14.020738927647471">
        <ele>67.35</ele>
        <time>2025-02-19T03:31:19.925Z</time>
      </trkpt>
      <trkpt lat="59.361133966594934" lon="14.020546982064843">
        <ele>67.37</ele>
        <time>2025-02-19T03:32:19.128Z</time>
      </trkpt>
      <trkpt lat="59.36114092357457" lon="14.020354952663183">
        <ele>67.39</ele>
        <time>2025-02-19T03:33:18.332Z</time>
      </trkpt>
      <trkpt lat="59.361155927181244" lon="14.020158983767033">
        <ele>67.4</ele>
        <time>2025-02-19T03:34:17.538Z</time>
      </trkpt>
      <trkpt lat="59.361176965758204" lon="14.01996091939509">
        <ele>67.43</ele>
        <time>2025-02-19T03:35:16.746Z</time>
      </trkpt>
      <trkpt lat="59.3612049613148" lon="14.0197669621557">
        <ele>67.45</ele>
        <time>2025-02-19T03:36:15.955Z</time>
      </trkpt>
      <trkpt lat="59.36123597435653" lon="14.019579961895943">
        <ele>67.48</ele>
        <time>2025-02-19T03:37:15.166Z</time>
      </trkpt>
      <trkpt lat="59.36126799322665" lon="14.01940293610096">
        <ele>67.5</ele>
        <time>2025-02-19T03:38:14.378Z</time>
      </trkpt>
      <trkpt lat="59.361304957419634" lon="14.019238986074924">
        <ele>67.52</ele>
        <time>2025-02-19T03:39:13.592Z</time>
      </trkpt>
      <trkpt lat="59.36134393326938" lon="14.019083920866251">
        <ele>67.55</ele>
        <time>2025-02-19T03:40:12.807Z</time>
      </trkpt>
      <trkpt lat="59.36138793826103" lon="14.018936986103654">
        <ele>67.57</ele>
        <time>2025-02-19T03:41:12.024Z</time>
      </trkpt>
      <trkpt lat="59.36143294908106" lon="14.018803965300322">
        <ele>67.6</ele>
        <time>2025-02-19T03:42:11.242Z</time>
      </trkpt>
      <trkpt lat="59.361479971557856" lon="14.018681924790144">
        <ele>67.61</ele>
        <time>2025-02-19T03:43:10.461Z</time>
      </trkpt>
      <trkpt lat="59.36152598820627" lon="14.01856692507863">
        <ele>67.63</ele>
        <time>2025-02-19T03:44:09.681Z</time>
      </trkpt>
      <trkpt lat="59.36156999319792" lon="14.0184579603374">
        <ele>67.64</ele>
        <time>2025-02-19T03:45:08.903Z</time>
      </trkpt>
      <trkpt lat="59.36161198653281" lon="14.018343966454268">
        <ele>67.65</ele>
        <time>2025-02-19T03:46:08.126Z</time>
      </trkpt>
      <trkpt lat="59.361650962382555" lon="14.018225949257612">
        <ele>67.67</ele>
        <time>2025-02-19T03:47:07.350Z</time>
      </trkpt>
      <trkpt lat="59.36168599873781" lon="14.018101980909705">
        <ele>67.67</ele>
        <time>2025-02-19T03:48:06.575Z</time>
      </trkpt>
      <trkpt lat="59.36172095127404" lon="14.01798396371305">
        <ele>67.68</ele>
        <time>2025-02-19T03:49:05.801Z</time>
      </trkpt>
      <trkpt lat="59.36176495626569" lon="14.017881955951452">
        <ele>67.68</ele>
        <time>2025-02-19T03:50:05.028Z</time>
      </trkpt>
      <trkpt lat="59.361823964864016" lon="14.017809955403209">
        <ele>67.69</ele>
        <time>2025-02-19T03:51:04.256Z</time>
      </trkpt>
      <trkpt lat="59.361886996775866" lon="14.017786988988519">
        <ele>67.7</ele>
        <time>2025-02-19T03:52:03.485Z</time>
      </trkpt>
      <trkpt lat="59.36194399371743" lon="14.017801992595196">
        <ele>67.69</ele>
        <time>2025-02-19T03:53:02.715Z</time>
      </trkpt>
      <trkpt lat="59.36199797317386" lon="14.01783199980855">
        <ele>67.69</ele>
        <time>2025-02-19T03:54:01.946Z</time>
      </trkpt>
      <trkpt lat="59.36205295845866" lon="14.017859995365143">
        <ele>67.68</ele>
        <time>2025-02-19T03:55:01.178Z</time>
      </trkpt>
      <trkpt lat="59.36211096122861" lon="14.01787499897182">
        <ele>67.68</ele>
        <time>2025-02-19T03:56:00.411Z</time>
      </trkpt>
      <trkpt lat="59.362167958170176" lon="14.017881955951452">
        <ele>67.67</ele>
        <time>2025-02-19T03:56:59.645Z</time>
      </trkpt>
      <trkpt lat="59.3622269667685" lon="14.017880950123072">
        <ele>67.67</ele>
        <time>2025-02-19T03:57:58.880Z</time>
      </trkpt>
      <trkpt lat="59.36228396371007" lon="14.017867958173156">
        <ele>67.66</ele>
        <time>2025-02-19T03:58:58.116Z</time>
      </trkpt>
      <trkpt lat="59.362340960651636" lon="14.017848931252956">
        <ele>67.65</ele>
        <time>2025-02-19T03:59:57.353Z</time>
      </trkpt>
      <trkpt lat="59.3623979575932" lon="14.017841974273324">
        <ele>67.64</ele>
        <time>2025-02-19T04:00:56.591Z</time>
      </trkpt>
      <trkpt lat="59.36245596036315" lon="14.017842980101705">
        <ele>67.63</ele>
        <time>2025-02-19T04:01:55.830Z</time>
      </trkpt>
      <trkpt lat="59.36251698061824" lon="14.017840968444943">
        <ele>67.61</ele>
        <time>2025-02-19T04:02:55.070Z</time>
      </trkpt>
      <trkpt lat="59.36258093453944" lon="14.01783593930304">
        <ele>67.59</ele>
        <time>2025-02-19T04:03:54.311Z</time>
      </trkpt>
      <trkpt lat="59.36264497227967" lon="14.017839962616563">
        <ele>67.56</ele>
        <time>2025-02-19T04:04:53.553Z</time>
      </trkpt>
      <trkpt lat="59.36271093785763" lon="14.01785396039486">
        <ele>67.54</ele>
        <time>2025-02-19T04:05:52.796Z</time>
      </trkpt>
      <trkpt lat="59.36277698725462" lon="14.017868964001536">
        <ele>67.51</ele>
        <time>2025-02-19T04:06:52.040Z</time>
      </trkpt>
      <trkpt lat="59.36284295283258" lon="14.017885979264975">
        <ele>67.48</ele>
        <time>2025-02-19T04:07:51.285Z</time>
      </trkpt>
      <trkpt lat="59.36290891841054" lon="14.017904922366142">
        <ele>67.45</ele>
        <time>2025-02-19T04:08:50.531Z</time>
      </trkpt>
      <trkpt lat="59.362979996949434" lon="14.017922943457961">
        <ele>67.42</ele>
        <time>2025-02-19T04:09:49.778Z</time>
      </trkpt>
      <trkpt lat="59.363045962527394" lon="14.017943982034922">
        <ele>67.38</ele>
        <time>2025-02-19T04:10:49.026Z</time>
      </trkpt>
      <trkpt lat="59.36311595141888" lon="14.017969965934753">
        <ele>67.35</ele>
        <time>2025-02-19T04:11:48.275Z</time>
      </trkpt>
      <trkpt lat="59.36318292282522" lon="14.017999973148108">
        <ele>67.31</ele>
        <time>2025-02-19T04:12:47.525Z</time>
      </trkpt>
      <trkpt lat="59.36325098387897" lon="14.01802595704794">
        <ele>67.27</ele>
        <time>2025-02-19T04:13:46.776Z</time>
      </trkpt>
      <trkpt lat="59.363326923921704" lon="14.018039954826236">
        <ele>67.23</ele>
        <time>2025-02-19T04:14:46.029Z</time>
      </trkpt>
      <trkpt lat="59.36340395361185" lon="14.0180469956249">
        <ele>67.19</ele>
        <time>2025-02-19T04:15:45.283Z</time>
      </trkpt>
      <trkpt lat="59.363477965816855" lon="14.018073985353112">
        <ele>67.15</ele>
        <time>2025-02-19T04:16:44.538Z</time>
      </trkpt>
      <trkpt lat="59.36354896053672" lon="14.018107932060957">
        <ele>67.11</ele>
        <time>2025-02-19T04:17:43.794Z</time>
      </trkpt>
      <trkpt lat="59.36361995525658" lon="14.018148919567466">
        <ele>67.06</ele>
        <time>2025-02-19T04:18:43.052Z</time>
      </trkpt>
      <trkpt lat="59.36368893831968" lon="14.0181989595294">
        <ele>67.02</ele>
        <time>2025-02-19T04:19:42.311Z</time>
      </trkpt>
      <trkpt lat="59.36376194469631" lon="14.01824095286429">
        <ele>66.97</ele>
        <time>2025-02-19T04:20:41.571Z</time>
      </trkpt>
      <trkpt lat="59.36382992193103" lon="14.018292920663953">
        <ele>66.92</ele>
        <time>2025-02-19T04:21:40.832Z</time>
      </trkpt>
      <trkpt lat="59.3638969771564" lon="14.018357964232564">
        <ele>66.87</ele>
        <time>2025-02-19T04:22:40.094Z</time>
      </trkpt>
      <trkpt lat="59.36396495439112" lon="14.018415967002511">
        <ele>66.81</ele>
        <time>2025-02-19T04:23:39.357Z</time>
      </trkpt>
      <trkpt lat="59.364035949110985" lon="14.01847799308598">
        <ele>66.76</ele>
        <time>2025-02-19T04:24:38.622Z</time>
      </trkpt>
      <trkpt lat="59.36410895548761" lon="14.018538929522038">
        <ele>66.7</ele>
        <time>2025-02-19T04:25:37.888Z</time>
      </trkpt>
      <trkpt lat="59.36417693272233" lon="14.01860497891903">
        <ele>66.64</ele>
        <time>2025-02-19T04:26:37.155Z</time>
      </trkpt>
      <trkpt lat="59.364248933270574" lon="14.018656946718693">
        <ele>66.58</ele>
        <time>2025-02-19T04:27:36.423Z</time>
      </trkpt>
      <trkpt lat="59.3643219396472" lon="14.018704975023866">
        <ele>66.51</ele>
        <time>2025-02-19T04:28:35.693Z</time>
      </trkpt>
      <trkpt lat="59.36439394019544" lon="14.018752919510007">
        <ele>66.45</ele>
        <time>2025-02-19T04:29:34.964Z</time>
      </trkpt>
      <trkpt lat="59.364465940743685" lon="14.018798936158419">
        <ele>66.38</ele>
        <time>2025-02-19T04:30:34.236Z</time>
      </trkpt>
      <trkpt lat="59.36453894712031" lon="14.018837995827198">
        <ele>66.31</ele>
        <time>2025-02-19T04:31:33.509Z</time>
      </trkpt>
      <trkpt lat="59.36461094766855" lon="14.018871942535043">
        <ele>66.24</ele>
        <time>2025-02-19T04:32:32.784Z</time>
      </trkpt>
      <trkpt lat="59.36468998901546" lon="14.018890969455242">
        <ele>66.17</ele>
        <time>2025-02-19T04:33:32.060Z</time>
      </trkpt>
      <trkpt lat="59.364767940714955" lon="14.018908990547061">
        <ele>66.09</ele>
        <time>2025-02-19T04:34:31.337Z</time>
      </trkpt>
      <trkpt lat="59.36484798789024" lon="14.018912930041552">
        <ele>66.01</ele>
        <time>2025-02-19T04:35:30.615Z</time>
      </trkpt>
      <trkpt lat="59.36492493376136" lon="14.018912930041552">
        <ele>65.94</ele>
        <time>2025-02-19T04:36:29.895Z</time>
      </trkpt>
      <trkpt lat="59.36500699259341" lon="14.018891975283623">
        <ele>65.86</ele>
        <time>2025-02-19T04:37:29.176Z</time>
      </trkpt>
      <trkpt lat="59.36509299091995" lon="14.018853921443224">
        <ele>65.77</ele>
        <time>2025-02-19T04:38:28.458Z</time>
      </trkpt>
      <trkpt lat="59.36517898924649" lon="14.018803965300322">
        <ele>65.69</ele>
        <time>2025-02-19T04:39:27.742Z</time>
      </trkpt>
      <trkpt lat="59.36526699922979" lon="14.018740933388472">
        <ele>65.61</ele>
        <time>2025-02-19T04:40:27.027Z</time>
      </trkpt>
      <trkpt lat="59.36535199172795" lon="14.018681924790144">
        <ele>65.52</ele>
        <time>2025-02-19T04:41:26.314Z</time>
      </trkpt>
      <trkpt lat="59.365431955084205" lon="14.018617970868945">
        <ele>65.43</ele>
        <time>2025-02-19T04:42:25.602Z</time>
      </trkpt>
      <trkpt lat="59.36550697311759" lon="14.01854194700718">
        <ele>65.35</ele>
        <time>2025-02-19T04:43:24.891Z</time>
      </trkpt>
      <trkpt lat="59.365579979494214" lon="14.018446980044246">
        <ele>65.26</ele>
        <time>2025-02-19T04:44:24.182Z</time>
      </trkpt>
      <trkpt lat="59.36565399169922" lon="14.018342960625887">
        <ele>65.17</ele>
        <time>2025-02-19T04:45:23.474Z</time>
      </trkpt>
      <trkpt lat="59.36572699807584" lon="14.018229972571135">
        <ele>65.08</ele>
        <time>2025-02-19T04:46:22.768Z</time>
      </trkpt>
      <trkpt lat="59.365797992795706" lon="14.018110949546099">
        <ele>64.99</ele>
        <time>2025-02-19T04:47:22.063Z</time>
      </trkpt>
      <trkpt lat="59.36586798168719" lon="14.01798295788467">
        <ele>64.9</ele>
        <time>2025-02-19T04:48:21.360Z</time>
      </trkpt>
      <trkpt lat="59.36593897640705" lon="14.017849937081337">
        <ele>64.81</ele>
        <time>2025-02-19T04:49:20.658Z</time>
      </trkpt>
      <trkpt lat="59.366009971126914" lon="14.017710965126753">
        <ele>64.72</ele>
        <time>2025-02-19T04:50:19.958Z</time>
      </trkpt>
      <trkpt lat="59.36608096584678" lon="14.017569981515408">
        <ele>64.62</ele>
        <time>2025-02-19T04:51:19.260Z</time>
      </trkpt>
      <trkpt lat="59.36615196056664" lon="14.017422962933779">
        <ele>64.52</ele>
        <time>2025-02-19T04:52:18.563Z</time>
      </trkpt>
      <trkpt lat="59.36622396111488" lon="14.017278961837292">
        <ele>64.42</ele>
        <time>2025-02-19T04:53:17.868Z</time>
      </trkpt>
      <trkpt lat="59.366294955834746" lon="14.017130937427282">
        <ele>64.32</ele>
        <time>2025-02-19T04:54:17.175Z</time>
      </trkpt>
      <trkpt lat="59.36636293306947" lon="14.016985930502415">
        <ele>64.23</ele>
        <time>2025-02-19T04:55:16.483Z</time>
      </trkpt>
      <trkpt lat="59.36643099412322" lon="14.016839917749166">
        <ele>64.14</ele>
        <time>2025-02-19T04:56:15.793Z</time>
      </trkpt>
      <trkpt lat="59.36649796552956" lon="14.01669792830944">
        <ele>64.04</ele>
        <time>2025-02-19T04:57:15.104Z</time>
      </trkpt>
      <trkpt lat="59.36656795442104" lon="14.016554933041334">
        <ele>63.94</ele>
        <time>2025-02-19T04:58:14.417Z</time>
      </trkpt>
      <trkpt lat="59.366636937484145" lon="14.01641596108675">
        <ele>63.85</ele>
        <time>2025-02-19T04:59:13.732Z</time>
      </trkpt>
      <trkpt lat="59.36670893803239" lon="14.016277994960546">
        <ele>63.76</ele>
        <time>2025-02-19T05:00:13.048Z</time>
      </trkpt>
      <trkpt lat="59.36677599325776" lon="14.016140950843692">
        <ele>63.67</ele>
        <time>2025-02-19T05:01:12.366Z</time>
      </trkpt>
      <trkpt lat="59.36684095300734" lon="14.01600499637425">
        <ele>63.58</ele>
        <time>2025-02-19T05:02:11.685Z</time>
      </trkpt>
      <trkpt lat="59.36690499074757" lon="14.015870969742537">
        <ele>63.48</ele>
        <time>2025-02-19T05:03:11.006Z</time>
      </trkpt>
      <trkpt lat="59.36696995049715" lon="14.015739960595965">
        <ele>63.38</ele>
        <time>2025-02-19T05:04:10.328Z</time>
      </trkpt>
      <trkpt lat="59.367032982409" lon="14.015611968934536">
        <ele>63.28</ele>
        <time>2025-02-19T05:05:09.652Z</time>
      </trkpt>
      <trkpt lat="59.36709492467344" lon="14.015484983101487">
        <ele>63.18</ele>
        <time>2025-02-19T05:06:08.977Z</time>
      </trkpt>
      <trkpt lat="59.367154939100146" lon="14.015357997268438">
        <ele>63.08</ele>
        <time>2025-02-19T05:07:08.304Z</time>
      </trkpt>
      <trkpt lat="59.367215959355235" lon="14.0152339451015">
        <ele>62.98</ele>
        <time>2025-02-19T05:08:07.632Z</time>
      </trkpt>
      <trkpt lat="59.367276979610324" lon="14.015110982581973">
        <ele>62.89</ele>
        <time>2025-02-19T05:09:06.961Z</time>
      </trkpt>
      <trkpt lat="59.36733799986541" lon="14.014987936243415">
        <ele>62.79</ele>
        <time>2025-02-19T05:10:06.292Z</time>
      </trkpt>
      <trkpt lat="59.36739692464471" lon="14.01486698538065">
        <ele>62.69</ele>
        <time>2025-02-19T05:11:05.624Z</time>
      </trkpt>
      <trkpt lat="59.36745693907142" lon="14.014752991497517">
        <ele>62.59</ele>
        <time>2025-02-19T05:12:04.958Z</time>
      </trkpt>
      <trkpt lat="59.367515947669744" lon="14.014642937108874">
        <ele>62.49</ele>
        <time>2025-02-19T05:13:04.293Z</time>
      </trkpt>
      <trkpt lat="59.36757395043969" lon="14.014534978196025">
        <ele>62.4</ele>
        <time>2025-02-19T05:14:03.629Z</time>
      </trkpt>
      <trkpt lat="59.3676339648664" lon="14.014429952949286">
        <ele>62.3</ele>
        <time>2025-02-19T05:15:02.966Z</time>
      </trkpt>
      <trkpt lat="59.367690961807966" lon="14.014323921874166">
        <ele>62.2</ele>
        <time>2025-02-19T05:16:02.305Z</time>
      </trkpt>
      <trkpt lat="59.367749970406294" lon="14.014216968789697">
        <ele>62.1</ele>
        <time>2025-02-19T05:17:01.645Z</time>
      </trkpt>
      <trkpt lat="59.36781099066138" lon="14.014112949371338">
        <ele>62.0</ele>
        <time>2025-02-19T05:18:00.986Z</time>
      </trkpt>
      <trkpt lat="59.36787494458258" lon="14.01401194743812">
        <ele>61.9</ele>
        <time>2025-02-19T05:19:00.329Z</time>
      </trkpt>
      <trkpt lat="59.36793998815119" lon="14.01390097104013">
        <ele>61.8</ele>
        <time>2025-02-19T05:19:59.673Z</time>
      </trkpt>
      <trkpt lat="59.368011988699436" lon="14.013800974935293">
        <ele>61.7</ele>
        <time>2025-02-19T05:20:59.018Z</time>
      </trkpt>
      <trkpt lat="59.36808398924768" lon="14.013702990487218">
        <ele>61.6</ele>
        <time>2025-02-19T05:21:58.365Z</time>
      </trkpt>
      <trkpt lat="59.36815892346203" lon="14.013606933876872">
        <ele>61.5</ele>
        <time>2025-02-19T05:22:57.713Z</time>
      </trkpt>
      <trkpt lat="59.36823695898056" lon="14.013511966913939">
        <ele>61.4</ele>
        <time>2025-02-19T05:23:57.063Z</time>
      </trkpt>
      <trkpt lat="59.368312982842326" lon="14.013422951102257">
        <ele>61.3</ele>
        <time>2025-02-19T05:24:56.414Z</time>
      </trkpt>
      <trkpt lat="59.36838699504733" lon="14.013323960825801">
        <ele>61.2</ele>
        <time>2025-02-19T05:25:55.767Z</time>
      </trkpt>
      <trkpt lat="59.368461929261684" lon="14.013228993862867">
        <ele>61.1</ele>
        <time>2025-02-19T05:26:55.121Z</time>
      </trkpt>
      <trkpt lat="59.36853594146669" lon="14.013133943080902">
        <ele>61.0</ele>
        <time>2025-02-19T05:27:54.476Z</time>
      </trkpt>
      <trkpt lat="59.368610959500074" lon="14.01304392144084">
        <ele>60.9</ele>
        <time>2025-02-19T05:28:53.833Z</time>
      </trkpt>
      <trkpt lat="59.36868296004832" lon="14.01295498944819">
        <ele>60.81</ele>
        <time>2025-02-19T05:29:53.191Z</time>
      </trkpt>
      <trkpt lat="59.36875395476818" lon="14.01286899112165">
        <ele>60.72</ele>
        <time>2025-02-19T05:30:52.551Z</time>
      </trkpt>
      <trkpt lat="59.36881598085165" lon="14.01278492063284">
        <ele>60.62</ele>
        <time>2025-02-19T05:31:51.912Z</time>
      </trkpt>
      <trkpt lat="59.36887297779322" lon="14.012703951448202">
        <ele>60.53</ele>
        <time>2025-02-19T05:32:51.274Z</time>
      </trkpt>
      <trkpt lat="59.36892695724964" lon="14.012628933414817">
        <ele>60.44</ele>
        <time>2025-02-19T05:33:50.637Z</time>
      </trkpt>
      <trkpt lat="59.368973979726434" lon="14.012551987543702">
        <ele>60.36</ele>
        <time>2025-02-19T05:34:50.001Z</time>
      </trkpt>
      <trkpt lat="59.369016978889704" lon="14.012476969510317">
        <ele>60.27</ele>
        <time>2025-02-19T05:35:49.366Z</time>
      </trkpt>
      <trkpt lat="59.36905193142593" lon="14.01239893399179">
        <ele>60.19</ele>
        <time>2025-02-19T05:36:48.732Z</time>
      </trkpt>
      <trkpt lat="59.369083950296044" lon="14.012328945100307">
        <ele>60.1</ele>
        <time>2025-02-19T05:37:48.098Z</time>
      </trkpt>
      <trkpt lat="59.36911496333778" lon="14.012267924845219">
        <ele>60.01</ele>
        <time>2025-02-19T05:38:47.465Z</time>
      </trkpt>
      <trkpt lat="59.369145976379514" lon="14.012210927903652">
        <ele>59.92</ele>
        <time>2025-02-19T05:39:46.833Z</time>
      </trkpt>
      <trkpt lat="59.36917992308736" lon="14.01215996593237">
        <ele>59.83</ele>
        <time>2025-02-19T05:40:46.202Z</time>
      </trkpt>
      <trkpt lat="59.36921797692776" lon="14.01211797259748">
        <ele>59.74</ele>
        <time>2025-02-19T05:41:45.571Z</time>
      </trkpt>
      <trkpt lat="59.36926399357617" lon="14.0120979398489">
        <ele>59.66</ele>
        <time>2025-02-19T05:42:44.941Z</time>
      </trkpt>
      <trkpt lat="59.36931093223393" lon="14.012077990919352">
        <ele>59.57</ele>
        <time>2025-02-19T05:43:44.312Z</time>
      </trkpt>
      <trkpt lat="59.36935493722558" lon="14.012058963999152">
        <ele>59.49</ele>
        <time>2025-02-19T05:44:43.684Z</time>
      </trkpt>
      <trkpt lat="59.36940296553075" lon="14.012041948735714">
        <ele>59.41</ele>
        <time>2025-02-19T05:45:43.056Z</time>
      </trkpt>
      <trkpt lat="59.369448982179165" lon="14.012022921815515">
        <ele>59.32</ele>
        <time>2025-02-19T05:46:42.429Z</time>
      </trkpt>
      <trkpt lat="59.369491981342435" lon="14.012004984542727">
        <ele>59.24</ele>
        <time>2025-02-19T05:47:41.803Z</time>
      </trkpt>
      <trkpt lat="59.36953196302056" lon="14.011979922652245">
        <ele>59.16</ele>
        <time>2025-02-19T05:48:41.177Z</time>
      </trkpt>
      <trkpt lat="59.36957496218383" lon="14.0119459759444">
        <ele>59.08</ele>
        <time>2025-02-19T05:49:40.552Z</time>
      </trkpt>
      <trkpt lat="59.36960798688233" lon="14.011913957074285">
        <ele>59.0</ele>
        <time>2025-02-19T05:50:39.928Z</time>
      </trkpt>
      <trkpt lat="59.36963992193341" lon="14.01188294403255">
        <ele>58.92</ele>
        <time>2025-02-19T05:51:39.304Z</time>
      </trkpt>
      <trkpt lat="59.36967495828867" lon="14.011850925162435">
        <ele>58.84</ele>
        <time>2025-02-19T05:52:38.681Z</time>
      </trkpt>
      <trkpt lat="59.36971795745194" lon="14.011836927384138">
        <ele>58.77</ele>
        <time>2025-02-19T05:53:38.059Z</time>
      </trkpt>
      <trkpt lat="59.36976598575711" lon="14.011852936819196">
        <ele>58.69</ele>
        <time>2025-02-19T05:54:37.437Z</time>
      </trkpt>
      <trkpt lat="59.36979892663658" lon="14.011895935982466">
        <ele>58.61</ele>
        <time>2025-02-19T05:55:36.816Z</time>
      </trkpt>
      <trkpt lat="59.369816947728395" lon="14.011957962065935">
        <ele>58.54</ele>
        <time>2025-02-19T05:56:36.196Z</time>
      </trkpt>
      <trkpt lat="59.36981895938516" lon="14.012024933472276">
        <ele>58.47</ele>
        <time>2025-02-19T05:57:35.576Z</time>
      </trkpt>
      <trkpt lat="59.36980194412172" lon="14.012080924585462">
        <ele>58.39</ele>
        <time>2025-02-19T05:58:34.957Z</time>
      </trkpt>
      <trkpt lat="59.36977797187865" lon="14.012113949283957">
        <ele>58.33</ele>
        <time>2025-02-19T05:59:34.338Z</time>
      </trkpt>
      <trkpt lat="59.369747964665294" lon="14.012133982032537">
        <ele>58.26</ele>
        <time>2025-02-19T06:00:33.720Z</time>
      </trkpt>
      <trkpt lat="59.36971795745194" lon="14.012148985639215">
        <ele>58.19</ele>
        <time>2025-02-19T06:01:33.102Z</time>
      </trkpt>
      <trkpt lat="59.369688956066966" lon="14.012163989245892">
        <ele>58.12</ele>
        <time>2025-02-19T06:02:32.485Z</time>
      </trkpt>
      <trkpt lat="59.36965894885361" lon="14.012180920690298">
        <ele>58.05</ele>
        <time>2025-02-19T06:03:31.868Z</time>
      </trkpt>
      <trkpt lat="59.36962894164026" lon="14.012196930125356">
        <ele>57.99</ele>
        <time>2025-02-19T06:04:31.252Z</time>
      </trkpt>
      <trkpt lat="59.36959591694176" lon="14.012224925681949">
        <ele>57.92</ele>
        <time>2025-02-19T06:05:30.636Z</time>
      </trkpt>
      <trkpt lat="59.36956892721355" lon="14.012262979522347">
        <ele>57.86</ele>
        <time>2025-02-19T06:06:30.021Z</time>
      </trkpt>
      <trkpt lat="59.36954596079886" lon="14.012318970635533">
        <ele>57.79</ele>
        <time>2025-02-19T06:07:29.406Z</time>
      </trkpt>
      <trkpt lat="59.369534980505705" lon="14.012384936213493">
        <ele>57.73</ele>
        <time>2025-02-19T06:08:28.792Z</time>
      </trkpt>
      <trkpt lat="59.369536992162466" lon="14.012451991438866">
        <ele>57.67</ele>
        <time>2025-02-19T06:09:28.179Z</time>
      </trkpt>
      <trkpt lat="59.36954998411238" lon="14.012511922046542">
        <ele>57.61</ele>
        <time>2025-02-19T06:10:27.566Z</time>
      </trkpt>
      <trkpt lat="59.36957093887031" lon="14.012568918988109">
        <ele>57.54</ele>
        <time>2025-02-19T06:11:26.954Z</time>
      </trkpt>
      <trkpt lat="59.36959692277014" lon="14.01261493563652">
        <ele>57.48</ele>
        <time>2025-02-19T06:12:26.342Z</time>
      </trkpt>
      <trkpt lat="59.369622990489006" lon="14.01265692897141">
        <ele>57.42</ele>
        <time>2025-02-19T06:13:25.731Z</time>
      </trkpt>
      <trkpt lat="59.3696509860456" lon="14.01269992813468">
        <ele>57.35</ele>
        <time>2025-02-19T06:14:25.120Z</time>
      </trkpt>
      <trkpt lat="59.36967898160219" lon="14.01273999363184">
        <ele>57.29</ele>
        <time>2025-02-19T06:15:24.510Z</time>
      </trkpt>
      <trkpt lat="59.369711922481656" lon="14.012780981138349">
        <ele>57.22</ele>
        <time>2025-02-19T06:16:23.900Z</time>
      </trkpt>
      <trkpt lat="59.36974695883691" lon="14.01282599195838">
        <ele>57.16</ele>
        <time>2025-02-19T06:17:23.291Z</time>
      </trkpt>
      <trkpt lat="59.36978291720152" lon="14.012873936444521">
        <ele>57.09</ele>
        <time>2025-02-19T06:18:22.683Z</time>
      </trkpt>
      <trkpt lat="59.369816947728395" lon="14.012920958921313">
        <ele>57.03</ele>
        <time>2025-02-19T06:19:22.076Z</time>
      </trkpt>
      <trkpt lat="59.36985198408365" lon="14.012971920892596">
        <ele>56.96</ele>
        <time>2025-02-19T06:20:21.469Z</time>
      </trkpt>
      <trkpt lat="59.36988894827664" lon="14.013023972511292">
        <ele>56.9</ele>
        <time>2025-02-19T06:21:20.863Z</time>
      </trkpt>
      <trkpt lat="59.36993395909667" lon="14.013068983331323">
        <ele>56.83</ele>
        <time>2025-02-19T06:22:20.258Z</time>
      </trkpt>
      <trkpt lat="59.369985926896334" lon="14.013089938089252">
        <ele>56.77</ele>
        <time>2025-02-19T06:23:19.654Z</time>
      </trkpt>
      <trkpt lat="59.37003596685827" lon="14.0130649600178">
        <ele>56.7</ele>
        <time>2025-02-19T06:24:19.050Z</time>
      </trkpt>
      <trkpt lat="59.370072931051254" lon="14.012987930327654">
        <ele>56.64</ele>
        <time>2025-02-19T06:25:18.447Z</time>
      </trkpt>
      <trkpt lat="59.37009095214307" lon="14.01287293061614">
        <ele>56.58</ele>
        <time>2025-02-19T06:26:17.845Z</time>
      </trkpt>
      <trkpt lat="59.37010394409299" lon="14.012744938954711">
        <ele>56.51</ele>
        <time>2025-02-19T06:27:17.244Z</time>
      </trkpt>
      <trkpt lat="59.370118947699666" lon="14.012616947293282">
        <ele>56.45</ele>
        <time>2025-02-19T06:28:16.644Z</time>
      </trkpt>
      <trkpt lat="59.37014392577112" lon="14.012497924268246">
        <ele>56.39</ele>
        <time>2025-02-19T06:29:16.045Z</time>
      </trkpt>
      <trkpt lat="59.37018893659115" lon="14.012410920113325">
        <ele>56.33</ele>
        <time>2025-02-19T06:30:15.447Z</time>
      </trkpt>
      <trkpt lat="59.370247945189476" lon="14.012363981455564">
        <ele>56.27</ele>
        <time>2025-02-19T06:31:14.851Z</time>
      </trkpt>
      <trkpt lat="59.370309971272945" lon="14.012377979233861">
        <ele>56.21</ele>
        <time>2025-02-19T06:32:14.256Z</time>
      </trkpt>
      <trkpt lat="59.37036495655775" lon="14.01244293898344">
        <ele>56.15</ele>
        <time>2025-02-19T06:33:13.662Z</time>
      </trkpt>
      <trkpt lat="59.370412984862924" lon="14.01250597089529">
        <ele>56.08</ele>
        <time>2025-02-19T06:34:13.068Z</time>
      </trkpt>
      <trkpt lat="59.37047492712736" lon="14.012507982552052">
        <ele>56.02</ele>
        <time>2025-02-19T06:35:12.475Z</time>
      </trkpt>
      <trkpt lat="59.37053997069597" lon="14.01246297173202">
        <ele>55.97</ele>
        <time>2025-02-19T06:36:11.884Z</time>
      </trkpt>
      <trkpt lat="59.37060593627393" lon="14.012424917891622">
        <ele>55.91</ele>
        <time>2025-02-19T06:37:11.294Z</time>
      </trkpt>
      <trkpt lat="59.370676930993795" lon="14.012410920113325">
        <ele>55.86</ele>
        <time>2025-02-19T06:38:10.705Z</time>
      </trkpt>
      <trkpt lat="59.37074691988528" lon="14.012406980618834">
        <ele>55.81</ele>
        <time>2025-02-19T06:39:10.117Z</time>
      </trkpt>
      <trkpt lat="59.3708199262619" lon="14.01239993982017">
        <ele>55.75</ele>
        <time>2025-02-19T06:40:09.530Z</time>
      </trkpt>
      <trkpt lat="59.37089494429529" lon="14.012392982840538">
        <ele>55.69</ele>
        <time>2025-02-19T06:41:08.944Z</time>
      </trkpt>
      <trkpt lat="59.37097096815705" lon="14.012386947870255">
        <ele>55.63</ele>
        <time>2025-02-19T06:42:08.360Z</time>
      </trkpt>
      <trkpt lat="59.3710479978472" lon="14.012377979233861">
        <ele>55.57</ele>
        <time>2025-02-19T06:43:07.777Z</time>
      </trkpt>
      <trkpt lat="59.371124943718314" lon="14.012367920950055">
        <ele>55.51</ele>
        <time>2025-02-19T06:44:07.195Z</time>
      </trkpt>
      <trkpt lat="59.37120197340846" lon="14.012353923171759">
        <ele>55.44</ele>
        <time>2025-02-19T06:45:06.614Z</time>
      </trkpt>
      <trkpt lat="59.371279925107956" lon="14.012335985898972">
        <ele>55.38</ele>
        <time>2025-02-19T06:46:06.035Z</time>
      </trkpt>
      <trkpt lat="59.3713569547981" lon="14.01231293566525">
        <ele>55.32</ele>
        <time>2025-02-19T06:47:05.457Z</time>
      </trkpt>
      <trkpt lat="59.37143197283149" lon="14.012281922623515">
        <ele>55.26</ele>
        <time>2025-02-19T06:48:04.880Z</time>
      </trkpt>
      <trkpt lat="59.37150699086487" lon="14.012242946773767">
        <ele>55.2</ele>
        <time>2025-02-19T06:49:04.304Z</time>
      </trkpt>
      <trkpt lat="59.3715799972415" lon="14.012199947610497">
        <ele>55.14</ele>
        <time>2025-02-19T06:50:03.729Z</time>
      </trkpt>
      <trkpt lat="59.37165199778974" lon="14.012150997295976">
        <ele>55.08</ele>
        <time>2025-02-19T06:51:03.156Z</time>
      </trkpt>
      <trkpt lat="59.371723998337984" lon="14.012101963162422">
        <ele>55.02</ele>
        <time>2025-02-19T06:52:02.584Z</time>
      </trkpt>
      <trkpt lat="59.37179499305785" lon="14.012056952342391">
        <ele>54.96</ele>
        <time>2025-02-19T06:53:02.013Z</time>
      </trkpt>
      <trkpt lat="59.37186397612095" lon="14.01201194152236">
        <ele>54.9</ele>
        <time>2025-02-19T06:54:01.443Z</time>
      </trkpt>
      <trkpt lat="59.37192994169891" lon="14.011960979551077">
        <ele>54.84</ele>
        <time>2025-02-19T06:55:00.874Z</time>
      </trkpt>
      <trkpt lat="59.3719959910959" lon="14.011909933760762">
        <ele>54.78</ele>
        <time>2025-02-19T06:56:00.307Z</time>
      </trkpt>
      <trkpt lat="59.37205793336034" lon="14.011862995103002">
        <ele>54.72</ele>
        <time>2025-02-19T06:56:59.741Z</time>
      </trkpt>
      <trkpt lat="59.372114930301905" lon="14.011814966797829">
        <ele>54.66</ele>
        <time>2025-02-19T06:57:59.176Z</time>
      </trkpt>
      <trkpt lat="59.37216899357736" lon="14.011763921007514">
        <ele>54.6</ele>
        <time>2025-02-19T06:58:58.612Z</time>
      </trkpt>
      <trkpt lat="59.372220961377025" lon="14.011708935722709">
        <ele>54.54</ele>
        <time>2025-02-19T06:59:58.049Z</time>
      </trkpt>
      <trkpt lat="59.37227091751993" lon="14.011652944609523">
        <ele>54.47</ele>
        <time>2025-02-19T07:00:57.486Z</time>
      </trkpt>
      <trkpt lat="59.37231793999672" lon="14.011599970981479">
        <ele>54.41</ele>
        <time>2025-02-19T07:01:56.924Z</time>
      </trkpt>
      <trkpt lat="59.37236395664513" lon="14.011545991525054">
        <ele>54.35</ele>
        <time>2025-02-19T07:02:56.363Z</time>
      </trkpt>
      <trkpt lat="59.372411984950304" lon="14.01149494573474">
        <ele>54.29</ele>
        <time>2025-02-19T07:03:55.803Z</time>
      </trkpt>
      <trkpt lat="59.372456995770335" lon="14.011445995420218">
        <ele>54.22</ele>
        <time>2025-02-19T07:04:55.244Z</time>
      </trkpt>
      <trkpt lat="59.372503934428096" lon="14.011398972943425">
        <ele>54.16</ele>
        <time>2025-02-19T07:05:54.686Z</time>
      </trkpt>
      <trkpt lat="59.37255196273327" lon="14.011352956295013">
        <ele>54.1</ele>
        <time>2025-02-19T07:06:54.129Z</time>
      </trkpt>
      <trkpt lat="59.37259797938168" lon="14.01130291633308">
        <ele>54.04</ele>
        <time>2025-02-19T07:07:53.572Z</time>
      </trkpt>
      <trkpt lat="59.37264299020171" lon="14.011247931048274">
        <ele>53.97</ele>
        <time>2025-02-19T07:08:53.016Z</time>
      </trkpt>
      <trkpt lat="59.37269194051623" lon="14.011191939935088">
        <ele>53.91</ele>
        <time>2025-02-19T07:09:52.461Z</time>
      </trkpt>
      <trkpt lat="59.37274499796331" lon="14.01113293133676">
        <ele>53.85</ele>
        <time>2025-02-19T07:10:51.907Z</time>
      </trkpt>
      <trkpt lat="59.372799983248115" lon="14.011073922738433">
        <ele>53.79</ele>
        <time>2025-02-19T07:11:51.354Z</time>
      </trkpt>
      <trkpt lat="59.37285295687616" lon="14.011011980473995">
        <ele>53.72</ele>
        <time>2025-02-19T07:12:50.802Z</time>
      </trkpt>
      <trkpt lat="59.372907942160964" lon="14.010950960218906">
        <ele>53.66</ele>
        <time>2025-02-19T07:13:50.251Z</time>
      </trkpt>
      <trkpt lat="59.37296099960804" lon="14.010889939963818">
        <ele>53.59</ele>
        <time>2025-02-19T07:14:49.701Z</time>
      </trkpt>
      <trkpt lat="59.373014979064465" lon="14.010825986042619">
        <ele>53.52</ele>
        <time>2025-02-19T07:15:49.152Z</time>
      </trkpt>
      <trkpt lat="59.37307398766279" lon="14.010768989101052">
        <ele>53.45</ele>
        <time>2025-02-19T07:16:48.604Z</time>
      </trkpt>
      <trkpt lat="59.37313693575561" lon="14.010715931653976">
        <ele>53.39</ele>
        <time>2025-02-19T07:17:48.057Z</time>
      </trkpt>
      <trkpt lat="59.37319896183908" lon="14.010666981339455">
        <ele>53.32</ele>
        <time>2025-02-19T07:18:47.511Z</time>
      </trkpt>
      <trkpt lat="59.37326199375093" lon="14.010621970519423">
        <ele>53.26</ele>
        <time>2025-02-19T07:19:46.966Z</time>
      </trkpt>
      <trkpt lat="59.37332795932889" lon="14.010574948042631">
        <ele>53.2</ele>
        <time>2025-02-19T07:20:46.423Z</time>
      </trkpt>
      <trkpt lat="59.37339291907847" lon="14.01052893139422">
        <ele>53.13</ele>
        <time>2025-02-19T07:21:45.881Z</time>
      </trkpt>
      <trkpt lat="59.3734569568187" lon="14.010490961372852">
        <ele>53.07</ele>
        <time>2025-02-19T07:22:45.340Z</time>
      </trkpt>
      <trkpt lat="59.37351998873055" lon="14.010447962209582">
        <ele>53.01</ele>
        <time>2025-02-19T07:23:44.800Z</time>
      </trkpt>
      <trkpt lat="59.37358494848013" lon="14.010402951389551">
        <ele>52.94</ele>
        <time>2025-02-19T07:24:44.261Z</time>
      </trkpt>
      <trkpt lat="59.37364596873522" lon="14.01035693474114">
        <ele>52.88</ele>
        <time>2025-02-19T07:25:43.723Z</time>
      </trkpt>
      <trkpt lat="59.373705983161926" lon="14.010302955284715">
        <ele>52.82</ele>
        <time>2025-02-19T07:26:43.186Z</time>
      </trkpt>
      <trkpt lat="59.37376298010349" lon="14.010243946686387">
        <ele>52.76</ele>
        <time>2025-02-19T07:27:42.650Z</time>
      </trkpt>
      <trkpt lat="59.3738229945302" lon="14.010179992765188">
        <ele>52.7</ele>
        <time>2025-02-19T07:28:42.115Z</time>
      </trkpt>
      <trkpt lat="59.37388292513788" lon="14.010105980560184">
        <ele>52.65</ele>
        <time>2025-02-19T07:29:41.581Z</time>
      </trkpt>
      <trkpt lat="59.373942939564586" lon="14.010018976405263">
        <ele>52.6</ele>
        <time>2025-02-19T07:30:41.049Z</time>
      </trkpt>
      <trkpt lat="59.37399893067777" lon="14.009912945330143">
        <ele>52.55</ele>
        <time>2025-02-19T07:31:40.518Z</time>
      </trkpt>
      <trkpt lat="59.374047964811325" lon="14.009793922305107">
        <ele>52.49</ele>
        <time>2025-02-19T07:32:39.988Z</time>
      </trkpt>
      <trkpt lat="59.37409398145974" lon="14.009664924815297">
        <ele>52.43</ele>
        <time>2025-02-19T07:33:39.459Z</time>
      </trkpt>
      <trkpt lat="59.374134968966246" lon="14.009528970345855">
        <ele>52.37</ele>
        <time>2025-02-19T07:34:38.932Z</time>
      </trkpt>
      <trkpt lat="59.37416899949312" lon="14.009378934279084">
        <ele>52.31</ele>
        <time>2025-02-19T07:35:38.406Z</time>
      </trkpt>
      <trkpt lat="59.37420495785773" lon="14.0092209354043">
        <ele>52.24</ele>
        <time>2025-02-19T07:36:37.881Z</time>
      </trkpt>
      <trkpt lat="59.374239994212985" lon="14.009057991206646">
        <ele>52.18</ele>
        <time>2025-02-19T07:37:37.358Z</time>
      </trkpt>
      <trkpt lat="59.37427796423435" lon="14.008890939876437">
        <ele>52.1</ele>
        <time>2025-02-19T07:38:36.836Z</time>
      </trkpt>
      <trkpt lat="59.37431593425572" lon="14.008716931566596">
        <ele>52.03</ele>
        <time>2025-02-19T07:39:36.316Z</time>
      </trkpt>
      <trkpt lat="59.37436094507575" lon="14.008535966277122">
        <ele>51.96</ele>
        <time>2025-02-19T07:40:35.798Z</time>
      </trkpt>
      <trkpt lat="59.374413918703794" lon="14.008355922996998">
        <ele>51.89</ele>
        <time>2025-02-19T07:41:35.281Z</time>
      </trkpt>
      <trkpt lat="59.37446597032249" lon="14.008182920515537">
        <ele>51.83</ele>
        <time>2025-02-19T07:42:34.766Z</time>
      </trkpt>
      <trkpt lat="59.374521961435676" lon="14.008010923862457">
        <ele>51.76</ele>
        <time>2025-02-19T07:43:34.253Z</time>
      </trkpt>
      <trkpt lat="59.374582981690764" lon="14.007845968008041">
        <ele>51.71</ele>
        <time>2025-02-19T07:44:33.741Z</time>
      </trkpt>
      <trkpt lat="59.37464098446071" lon="14.007689980790019">
        <ele>51.66</ele>
        <time>2025-02-19T07:45:33.231Z</time>
      </trkpt>
      <trkpt lat="59.37470192089677" lon="14.007534999400377">
        <ele>51.62</ele>
        <time>2025-02-19T07:46:32.722Z</time>
      </trkpt>
      <trkpt lat="59.37476294115186" lon="14.007380940020084">
        <ele>51.58</ele>
        <time>2025-02-19T07:47:32.215Z</time>
      </trkpt>
      <trkpt lat="59.374822955578566" lon="14.007228976115584">
        <ele>51.55</ele>
        <time>2025-02-19T07:48:31.710Z</time>
      </trkpt>
      <trkpt lat="59.374882970005274" lon="14.007076928392053">
        <ele>51.52</ele>
        <time>2025-02-19T07:49:31.206Z</time>
      </trkpt>
      <trkpt lat="59.37494298443198" lon="14.006926976144314">
        <ele>51.49</ele>
        <time>2025-02-19T07:50:30.704Z</time>
      </trkpt>
      <trkpt lat="59.37500299885869" lon="14.006777945905924">
        <ele>51.47</ele>
        <time>2025-02-19T07:51:30.203Z</time>
      </trkpt>
      <trkpt lat="59.375060917809606" lon="14.006628999486566">
        <ele>51.44</ele>
        <time>2025-02-19T07:52:29.704Z</time>
      </trkpt>
      <trkpt lat="59.37511892057955" lon="14.006480975076556">
        <ele>51.43</ele>
        <time>2025-02-19T07:53:29.206Z</time>
      </trkpt>
      <trkpt lat="59.37517591752112" lon="14.006335968151689">
        <ele>51.42</ele>
        <time>2025-02-19T07:54:28.710Z</time>
      </trkpt>
      <trkpt lat="59.37523492611945" lon="14.006193978711963">
        <ele>51.41</ele>
        <time>2025-02-19T07:55:28.215Z</time>
      </trkpt>
      <trkpt lat="59.375292928889394" lon="14.006052995100617">
        <ele>51.39</ele>
        <time>2025-02-19T07:56:27.722Z</time>
      </trkpt>
      <trkpt lat="59.37534992583096" lon="14.005915950983763">
        <ele>51.39</ele>
        <time>2025-02-19T07:57:27.230Z</time>
      </trkpt>
      <trkpt lat="59.375405916944146" lon="14.00577899068594">
        <ele>51.39</ele>
        <time>2025-02-19T07:58:26.740Z</time>
      </trkpt>
      <trkpt lat="59.375462997704744" lon="14.005644964054227">
        <ele>51.39</ele>
        <time>2025-02-19T07:59:26.251Z</time>
      </trkpt>
      <trkpt lat="59.37551898881793" lon="14.005509931594133">
        <ele>51.38</ele>
        <time>2025-02-19T08:00:25.764Z</time>
      </trkpt>
      <trkpt lat="59.375574979931116" lon="14.005376994609833">
        <ele>51.39</ele>
        <time>2025-02-19T08:01:25.278Z</time>
      </trkpt>
      <trkpt lat="59.375633988529444" lon="14.005250930786133">
        <ele>51.4</ele>
        <time>2025-02-19T08:02:24.793Z</time>
      </trkpt>
      <trkpt lat="59.3756949249655" lon="14.005129979923368">
        <ele>51.41</ele>
        <time>2025-02-19T08:03:24.310Z</time>
      </trkpt>
      <trkpt lat="59.37575695104897" lon="14.005013974383473">
        <ele>51.43</ele>
        <time>2025-02-19T08:04:23.828Z</time>
      </trkpt>
      <trkpt lat="59.3758159596473" lon="14.00489796884358">
        <ele>51.44</ele>
        <time>2025-02-19T08:05:23.347Z</time>
      </trkpt>
      <trkpt lat="59.375874968245625" lon="14.004784980788827">
        <ele>51.46</ele>
        <time>2025-02-19T08:06:22.868Z</time>
      </trkpt>
      <trkpt lat="59.37593397684395" lon="14.004672998562455">
        <ele>51.47</ele>
        <time>2025-02-19T08:07:22.390Z</time>
      </trkpt>
      <trkpt lat="59.37599298544228" lon="14.00455892086029">
        <ele>51.49</ele>
        <time>2025-02-19T08:08:21.913Z</time>
      </trkpt>
      <trkpt lat="59.37605392187834" lon="14.004442999139428">
        <ele>51.52</ele>
        <time>2025-02-19T08:09:21.438Z</time>
      </trkpt>
      <trkpt lat="59.37611795961857" lon="14.004328921437263">
        <ele>51.54</ele>
        <time>2025-02-19T08:10:20.964Z</time>
      </trkpt>
      <trkpt lat="59.37618392519653" lon="14.004215933382511">
        <ele>51.57</ele>
        <time>2025-02-19T08:11:20.492Z</time>
      </trkpt>
      <trkpt lat="59.37625299207866" lon="14.00410495698452">
        <ele>51.61</ele>
        <time>2025-02-19T08:12:20.021Z</time>
      </trkpt>
      <trkpt lat="59.376324992626905" lon="14.00399599224329">
        <ele>51.65</ele>
        <time>2025-02-19T08:13:19.551Z</time>
      </trkpt>
      <trkpt lat="59.37640093266964" lon="14.00388895533979">
        <ele>51.69</ele>
        <time>2025-02-19T08:14:19.083Z</time>
      </trkpt>
      <trkpt lat="59.376477962359786" lon="14.00378493592143">
        <ele>51.74</ele>
        <time>2025-02-19T08:15:18.616Z</time>
      </trkpt>
      <trkpt lat="59.37655792571604" lon="14.003682928159833">
        <ele>51.79</ele>
        <time>2025-02-19T08:16:18.151Z</time>
      </trkpt>
      <trkpt lat="59.37663797289133" lon="14.003581926226616">
        <ele>51.85</ele>
        <time>2025-02-19T08:17:17.688Z</time>
      </trkpt>
      <trkpt lat="59.37671793624759" lon="14.00348394177854">
        <ele>51.91</ele>
        <time>2025-02-19T08:18:17.226Z</time>
      </trkpt>
      <trkpt lat="59.376800917088985" lon="14.003390986472368">
        <ele>51.97</ele>
        <time>2025-02-19T08:19:16.766Z</time>
      </trkpt>
      <trkpt lat="59.376883981749415" lon="14.003301970660686">
        <ele>52.04</ele>
        <time>2025-02-19T08:20:16.307Z</time>
      </trkpt>
      <trkpt lat="59.376967968419194" lon="14.003216978162527">
        <ele>52.11</ele>
        <time>2025-02-19T08:21:15.850Z</time>
      </trkpt>
      <trkpt lat="59.37705195508897" lon="14.003134919330478">
        <ele>52.2</ele>
        <time>2025-02-19T08:22:15.394Z</time>
      </trkpt>
      <trkpt lat="59.37713594175875" lon="14.003055961802602">
        <ele>52.28</ele>
        <time>2025-02-19T08:23:14.940Z</time>
      </trkpt>
      <trkpt lat="59.37721791677177" lon="14.002980943769217">
        <ele>52.37</ele>
        <time>2025-02-19T08:24:14.487Z</time>
      </trkpt>
      <trkpt lat="59.37729796394706" lon="14.002909949049354">
        <ele>52.46</ele>
        <time>2025-02-19T08:25:14.035Z</time>
      </trkpt>
      <trkpt lat="59.37737298198044" lon="14.002843983471394">
        <ele>52.55</ele>
        <time>2025-02-19T08:26:13.585Z</time>
      </trkpt>
      <trkpt lat="59.37744598835707" lon="14.002784974873066">
        <ele>52.64</ele>
        <time>2025-02-19T08:27:13.136Z</time>
      </trkpt>
      <trkpt lat="59.37751991674304" lon="14.00273191742599">
        <ele>52.74</ele>
        <time>2025-02-19T08:28:12.688Z</time>
      </trkpt>
      <trkpt lat="59.377589989453554" lon="14.002681961283088">
        <ele>52.84</ele>
        <time>2025-02-19T08:29:12.241Z</time>
      </trkpt>
      <trkpt lat="59.377658972516656" lon="14.002635944634676">
        <ele>52.95</ele>
        <time>2025-02-19T08:30:11.796Z</time>
      </trkpt>
      <trkpt lat="59.37772896140814" lon="14.002592945471406">
        <ele>53.05</ele>
        <time>2025-02-19T08:31:11.352Z</time>
      </trkpt>
      <trkpt lat="59.37779895029962" lon="14.002552963793278">
        <ele>53.16</ele>
        <time>2025-02-19T08:32:10.909Z</time>
      </trkpt>
      <trkpt lat="59.377869945019484" lon="14.00251298211515">
        <ele>53.27</ele>
        <time>2025-02-19T08:33:10.467Z</time>
      </trkpt>
      <trkpt lat="59.377939933910966" lon="14.00247492827475">
        <ele>53.39</ele>
        <time>2025-02-19T08:34:10.026Z</time>
      </trkpt>
      <trkpt lat="59.37801193445921" lon="14.002440981566906">
        <ele>53.51</ele>
        <time>2025-02-19T08:35:09.587Z</time>
      </trkpt>
      <trkpt lat="59.378085946664214" lon="14.00240795686841">
        <ele>53.63</ele>
        <time>2025-02-19T08:36:09.149Z</time>
      </trkpt>
      <trkpt lat="59.3781609646976" lon="14.002378955483437">
        <ele>53.76</ele>
        <time>2025-02-19T08:37:08.712Z</time>
      </trkpt>
      <trkpt lat="59.378234976902604" lon="14.002352971583605">
        <ele>53.89</ele>
        <time>2025-02-19T08:38:08.276Z</time>
      </trkpt>
      <trkpt lat="59.37830898910761" lon="14.002326987683773">
        <ele>54.02</ele>
        <time>2025-02-19T08:39:07.841Z</time>
      </trkpt>
      <trkpt lat="59.37838291749358" lon="14.002303937450051">
        <ele>54.16</ele>
        <time>2025-02-19T08:40:07.408Z</time>
      </trkpt>
      <trkpt lat="59.378455923870206" lon="14.002283988520503">
        <ele>54.29</ele>
        <time>2025-02-19T08:41:06.976Z</time>
      </trkpt>
      <trkpt lat="59.37852691859007" lon="14.002268984913826">
        <ele>54.43</ele>
        <time>2025-02-19T08:42:06.545Z</time>
      </trkpt>
      <trkpt lat="59.3785959854722" lon="14.002262949943542">
        <ele>54.57</ele>
        <time>2025-02-19T08:43:06.115Z</time>
      </trkpt>
      <trkpt lat="59.378665974363685" lon="14.002262949943542">
        <ele>54.71</ele>
        <time>2025-02-19T08:44:05.686Z</time>
      </trkpt>
      <trkpt lat="59.378734957426786" lon="14.00225892663002">
        <ele>54.85</ele>
        <time>2025-02-19T08:45:05.258Z</time>
      </trkpt>
      <trkpt lat="59.37880192883313" lon="14.002261944115162">
        <ele>54.99</ele>
        <time>2025-02-19T08:46:04.831Z</time>
      </trkpt>
      <trkpt lat="59.37886998988688" lon="14.002270996570587">
        <ele>55.14</ele>
        <time>2025-02-19T08:47:04.405Z</time>
      </trkpt>
      <trkpt lat="59.37893897294998" lon="14.002282982692122">
        <ele>55.29</ele>
        <time>2025-02-19T08:48:03.981Z</time>
      </trkpt>
      <trkpt lat="59.379011979326606" lon="14.0022979862988">
        <ele>55.44</ele>
        <time>2025-02-19T08:49:03.558Z</time>
      </trkpt>
      <trkpt lat="59.37909093685448" lon="14.002310978248715">
        <ele>55.59</ele>
        <time>2025-02-19T08:50:03.136Z</time>
      </trkpt>
      <trkpt lat="59.37917299568653" lon="14.002317935228348">
        <ele>55.74</ele>
        <time>2025-02-19T08:51:02.715Z</time>
      </trkpt>
      <trkpt lat="59.37925597652793" lon="14.002326987683773">
        <ele>55.89</ele>
        <time>2025-02-19T08:52:02.296Z</time>
      </trkpt>
      <trkpt lat="59.37933996319771" lon="14.002332938835025">
        <ele>56.04</ele>
        <time>2025-02-19T08:53:01.878Z</time>
      </trkpt>
      <trkpt lat="59.37942495569587" lon="14.002326987683773">
        <ele>56.19</ele>
        <time>2025-02-19T08:54:01.461Z</time>
      </trkpt>
      <trkpt lat="59.37951095402241" lon="14.002318941056728">
        <ele>56.34</ele>
        <time>2025-02-19T08:55:01.046Z</time>
      </trkpt>
      <trkpt lat="59.37959896400571" lon="14.00230192579329">
        <ele>56.49</ele>
        <time>2025-02-19T08:56:00.632Z</time>
      </trkpt>
      <trkpt lat="59.37968496233225" lon="14.002276947721839">
        <ele>56.64</ele>
        <time>2025-02-19T08:57:00.220Z</time>
      </trkpt>
      <trkpt lat="59.379766937345266" lon="14.002244928851724">
        <ele>56.79</ele>
        <time>2025-02-19T08:57:59.809Z</time>
      </trkpt>
      <trkpt lat="59.379850924015045" lon="14.002202935516834">
        <ele>56.94</ele>
        <time>2025-02-19T08:58:59.399Z</time>
      </trkpt>
      <trkpt lat="59.37992795370519" lon="14.002160942181945">
        <ele>57.1</ele>
        <time>2025-02-19T08:59:58.991Z</time>
      </trkpt>
      <trkpt lat="59.38000598922372" lon="14.002117943018675">
        <ele>57.26</ele>
        <time>2025-02-19T09:00:58.584Z</time>
      </trkpt>
      <trkpt lat="59.38008293509483" lon="14.002071926370263">
        <ele>57.42</ele>
        <time>2025-02-19T09:01:58.178Z</time>
      </trkpt>
      <trkpt lat="59.38015493564308" lon="14.002025993540883">
        <ele>57.57</ele>
        <time>2025-02-19T09:02:57.773Z</time>
      </trkpt>
      <trkpt lat="59.38022693619132" lon="14.001979976892471">
        <ele>57.73</ele>
        <time>2025-02-19T09:03:57.370Z</time>
      </trkpt>
      <trkpt lat="59.38029399141669" lon="14.00193396024406">
        <ele>57.9</ele>
        <time>2025-02-19T09:04:56.968Z</time>
      </trkpt>
      <trkpt lat="59.38035995699465" lon="14.00189297273755">
        <ele>58.06</ele>
        <time>2025-02-19T09:05:56.567Z</time>
      </trkpt>
      <trkpt lat="59.38042399473488" lon="14.001854918897152">
        <ele>58.23</ele>
        <time>2025-02-19T09:06:56.167Z</time>
      </trkpt>
      <trkpt lat="59.38048593699932" lon="14.001819966360927">
        <ele>58.39</ele>
        <time>2025-02-19T09:07:55.768Z</time>
      </trkpt>
      <trkpt lat="59.38054595142603" lon="14.001789959147573">
        <ele>58.56</ele>
        <time>2025-02-19T09:08:55.370Z</time>
      </trkpt>
      <trkpt lat="59.380603954195976" lon="14.001765986904502">
        <ele>58.72</ele>
        <time>2025-02-19T09:09:54.973Z</time>
      </trkpt>
      <trkpt lat="59.380664974451065" lon="14.001747965812683">
        <ele>58.89</ele>
        <time>2025-02-19T09:10:54.577Z</time>
      </trkpt>
      <trkpt lat="59.38072096556425" lon="14.001736985519528">
        <ele>59.05</ele>
        <time>2025-02-19T09:11:54.182Z</time>
      </trkpt>
      <trkpt lat="59.380773939192295" lon="14.001732962206006">
        <ele>59.21</ele>
        <time>2025-02-19T09:12:53.788Z</time>
      </trkpt>
      <trkpt lat="59.38082498498261" lon="14.001734973862767">
        <ele>59.37</ele>
        <time>2025-02-19T09:13:53.394Z</time>
      </trkpt>
      <trkpt lat="59.38087192364037" lon="14.001744948327541">
        <ele>59.53</ele>
        <time>2025-02-19T09:14:53.001Z</time>
      </trkpt>
      <trkpt lat="59.38091492280364" lon="14.001756934449077">
        <ele>59.68</ele>
        <time>2025-02-19T09:15:52.609Z</time>
      </trkpt>
      <trkpt lat="59.3809549883008" lon="14.001772943884134">
        <ele>59.83</ele>
        <time>2025-02-19T09:16:52.218Z</time>
      </trkpt>
      <trkpt lat="59.38099295832217" lon="14.001791970804334">
        <ele>59.98</ele>
        <time>2025-02-19T09:17:51.827Z</time>
      </trkpt>
      <trkpt lat="59.381029922515154" lon="14.001812925562263">
        <ele>60.12</ele>
        <time>2025-02-19T09:18:51.437Z</time>
      </trkpt>
      <trkpt lat="59.38106898218393" lon="14.001833964139223">
        <ele>60.27</ele>
        <time>2025-02-19T09:19:51.047Z</time>
      </trkpt>
      <trkpt lat="59.38110795803368" lon="14.001856930553913">
        <ele>60.41</ele>
        <time>2025-02-19T09:20:50.658Z</time>
      </trkpt>
      <trkpt lat="59.38114693388343" lon="14.001879980787635">
        <ele>60.55</ele>
        <time>2025-02-19T09:21:50.270Z</time>
      </trkpt>
      <trkpt lat="59.38118599355221" lon="14.001903953030705">
        <ele>60.68</ele>
        <time>2025-02-19T09:22:49.882Z</time>
      </trkpt>
      <trkpt lat="59.381225975230336" lon="14.001924991607666">
        <ele>60.82</ele>
        <time>2025-02-19T09:23:49.495Z</time>
      </trkpt>
      <trkpt lat="59.381267968565226" lon="14.001943934708834">
        <ele>60.95</ele>
        <time>2025-02-19T09:24:49.109Z</time>
      </trkpt>
      <trkpt lat="59.381310967728496" lon="14.001961955800653">
        <ele>61.08</ele>
        <time>2025-02-19T09:25:48.723Z</time>
      </trkpt>
      <trkpt lat="59.381352961063385" lon="14.00197796523571">
        <ele>61.21</ele>
        <time>2025-02-19T09:26:48.338Z</time>
      </trkpt>
      <trkpt lat="59.381395960226655" lon="14.001989951357245">
        <ele>61.33</ele>
        <time>2025-02-19T09:27:47.954Z</time>
      </trkpt>
      <trkpt lat="59.381440971046686" lon="14.00199992582202">
        <ele>61.45</ele>
        <time>2025-02-19T09:28:47.571Z</time>
      </trkpt>
      <trkpt lat="59.3814869876951" lon="14.002003949135542">
        <ele>61.57</ele>
        <time>2025-02-19T09:29:47.188Z</time>
      </trkpt>
      <trkpt lat="59.38153493218124" lon="14.002003949135542">
        <ele>61.69</ele>
        <time>2025-02-19T09:30:46.806Z</time>
      </trkpt>
      <trkpt lat="59.38158497214317" lon="14.00199799798429">
        <ele>61.8</ele>
        <time>2025-02-19T09:31:46.425Z</time>
      </trkpt>
      <trkpt lat="59.38163693994284" lon="14.001986933872104">
        <ele>61.92</ele>
        <time>2025-02-19T09:32:46.045Z</time>
      </trkpt>
      <trkpt lat="59.38169091939926" lon="14.001966984942555">
        <ele>62.03</ele>
        <time>2025-02-19T09:33:45.666Z</time>
      </trkpt>
      <trkpt lat="59.38174791634083" lon="14.001940917223692">
        <ele>62.14</ele>
        <time>2025-02-19T09:34:45.288Z</time>
      </trkpt>
      <trkpt lat="59.381807930767536" lon="14.001907976344228">
        <ele>62.24</ele>
        <time>2025-02-19T09:35:44.911Z</time>
      </trkpt>
      <trkpt lat="59.381869956851006" lon="14.001869922503829">
        <ele>62.34</ele>
        <time>2025-02-19T09:36:44.535Z</time>
      </trkpt>
      <trkpt lat="59.381933994591236" lon="14.00182893499732">
        <ele>62.43</ele>
        <time>2025-02-19T09:37:44.160Z</time>
      </trkpt>
      <trkpt lat="59.381999960169196" lon="14.00178694166243">
        <ele>62.53</ele>
        <time>2025-02-19T09:38:43.786Z</time>
      </trkpt>
      <trkpt lat="59.38206693157554" lon="14.001746959984303">
        <ele>62.62</ele>
        <time>2025-02-19T09:39:43.413Z</time>
      </trkpt>
      <trkpt lat="59.38213499262929" lon="14.001708989962935">
        <ele>62.71</ele>
        <time>2025-02-19T09:40:43.041Z</time>
      </trkpt>
      <trkpt lat="59.38220397569239" lon="14.001671941950917">
        <ele>62.79</ele>
        <time>2025-02-19T09:41:42.670Z</time>
      </trkpt>
      <trkpt lat="59.382274970412254" lon="14.001637995243073">
        <ele>62.86</ele>
        <time>2025-02-19T09:42:42.300Z</time>
      </trkpt>
      <trkpt lat="59.38234596513212" lon="14.00160999968648">
        <ele>62.94</ele>
        <time>2025-02-19T09:43:41.932Z</time>
      </trkpt>
      <trkpt lat="59.38241695985198" lon="14.001583931967616">
        <ele>63.01</ele>
        <time>2025-02-19T09:44:41.565Z</time>
      </trkpt>
      <trkpt lat="59.382488960400224" lon="14.001560965552926">
        <ele>63.08</ele>
        <time>2025-02-19T09:45:41.199Z</time>
      </trkpt>
      <trkpt lat="59.38256498426199" lon="14.001540932804346">
        <ele>63.14</ele>
        <time>2025-02-19T09:46:40.834Z</time>
      </trkpt>
      <trkpt lat="59.38264695927501" lon="14.001523917540908">
        <ele>63.2</ele>
        <time>2025-02-19T09:47:40.470Z</time>
      </trkpt>
      <trkpt lat="59.38273698091507" lon="14.001508997753263">
        <ele>63.25</ele>
        <time>2025-02-19T09:48:40.108Z</time>
      </trkpt>
      <trkpt lat="59.38282993622124" lon="14.001492988318205">
        <ele>63.3</ele>
        <time>2025-02-19T09:49:39.747Z</time>
      </trkpt>
      <trkpt lat="59.38292498700321" lon="14.001476978883147">
        <ele>63.36</ele>
        <time>2025-02-19T09:50:39.388Z</time>
      </trkpt>
      <trkpt lat="59.38301794230938" lon="14.001465998589993">
        <ele>63.4</ele>
        <time>2025-02-19T09:51:39.030Z</time>
      </trkpt>
      <trkpt lat="59.383111987262964" lon="14.001456946134567">
        <ele>63.45</ele>
        <time>2025-02-19T09:52:38.674Z</time>
      </trkpt>
      <trkpt lat="59.38320494256914" lon="14.00144093669951">
        <ele>63.49</ele>
        <time>2025-02-19T09:53:38.319Z</time>
      </trkpt>
      <trkpt lat="59.38329798169434" lon="14.001416964456439">
        <ele>63.53</ele>
        <time>2025-02-19T09:54:37.966Z</time>
      </trkpt>
      <trkpt lat="59.38339093700051" lon="14.001386957243085">
        <ele>63.57</ele>
        <time>2025-02-19T09:55:37.614Z</time>
      </trkpt>
      <trkpt lat="59.383480958640575" lon="14.001350998878479">
        <ele>63.61</ele>
        <time>2025-02-19T09:56:37.264Z</time>
      </trkpt>
      <trkpt lat="59.38357198610902" lon="14.0013119392097">
        <ele>63.65</ele>
        <time>2025-02-19T09:57:36.915Z</time>
      </trkpt>
      <trkpt lat="59.38366292975843" lon="14.001266928389668">
        <ele>63.68</ele>
        <time>2025-02-19T09:58:36.568Z</time>
      </trkpt>
      <trkpt lat="59.38375093974173" lon="14.001218983903527">
        <ele>63.7</ele>
        <time>2025-02-19T09:59:36.222Z</time>
      </trkpt>
      <trkpt lat="59.38383693806827" lon="14.001168943941593">
        <ele>63.73</ele>
        <time>2025-02-19T10:00:35.878Z</time>
      </trkpt>
      <trkpt lat="59.38391991890967" lon="14.00111898779869">
        <ele>63.75</ele>
        <time>2025-02-19T10:01:35.535Z</time>
      </trkpt>
      <trkpt lat="59.38400097191334" lon="14.001070959493518">
        <ele>63.76</ele>
        <time>2025-02-19T10:02:35.194Z</time>
      </trkpt>
      <trkpt lat="59.384079929441214" lon="14.001023937016726">
        <ele>63.78</ele>
        <time>2025-02-19T10:03:34.854Z</time>
      </trkpt>
      <trkpt lat="59.38415595330298" lon="14.000978926196694">
        <ele>63.79</ele>
        <time>2025-02-19T10:04:34.515Z</time>
      </trkpt>
      <trkpt lat="59.384230971336365" lon="14.000941962003708">
        <ele>63.81</ele>
        <time>2025-02-19T10:05:34.177Z</time>
      </trkpt>
      <trkpt lat="59.38430397771299" lon="14.000911954790354">
        <ele>63.82</ele>
        <time>2025-02-19T10:06:33.841Z</time>
      </trkpt>
      <trkpt lat="59.38437296077609" lon="14.000885970890522">
        <ele>63.83</ele>
        <time>2025-02-19T10:07:33.506Z</time>
      </trkpt>
      <trkpt lat="59.38443993218243" lon="14.000870967283845">
        <ele>63.84</ele>
        <time>2025-02-19T10:08:33.172Z</time>
      </trkpt>
      <trkpt lat="59.384507993236184" lon="14.00086392648518">
        <ele>63.85</ele>
        <time>2025-02-19T10:09:32.839Z</time>
      </trkpt>
      <trkpt lat="59.38457295298576" lon="14.00086392648518">
        <ele>63.85</ele>
        <time>2025-02-19T10:10:32.507Z</time>
      </trkpt>
      <trkpt lat="59.38463296741247" lon="14.000869961455464">
        <ele>63.85</ele>
        <time>2025-02-19T10:11:32.176Z</time>
      </trkpt>
      <trkpt lat="59.38469097018242" lon="14.000878930091858">
        <ele>63.85</ele>
        <time>2025-02-19T10:12:31.846Z</time>
      </trkpt>
      <trkpt lat="59.384747967123985" lon="14.000891922041774">
        <ele>63.84</ele>
        <time>2025-02-19T10:13:31.517Z</time>
      </trkpt>
      <trkpt lat="59.38480596989393" lon="14.000911954790354">
        <ele>63.83</ele>
        <time>2025-02-19T10:14:31.189Z</time>
      </trkpt>
      <trkpt lat="59.38486497849226" lon="14.000937938690186">
        <ele>63.82</ele>
        <time>2025-02-19T10:15:30.862Z</time>
      </trkpt>
      <trkpt lat="59.3849269207567" lon="14.0009699575603">
        <ele>63.81</ele>
        <time>2025-02-19T10:16:30.536Z</time>
      </trkpt>
      <trkpt lat="59.384984923526645" lon="14.001007927581668">
        <ele>63.79</ele>
        <time>2025-02-19T10:17:30.211Z</time>
      </trkpt>
      <trkpt lat="59.385047955438495" lon="14.001041958108544">
        <ele>63.77</ele>
        <time>2025-02-19T10:18:29.887Z</time>
      </trkpt>
      <trkpt lat="59.385110987350345" lon="14.001072971150279">
        <ele>63.75</ele>
        <time>2025-02-19T10:19:29.564Z</time>
      </trkpt>
      <trkpt lat="59.385175947099924" lon="14.001099960878491">
        <ele>63.73</ele>
        <time>2025-02-19T10:20:29.242Z</time>
      </trkpt>
      <trkpt lat="59.385240990668535" lon="14.001123933121562">
        <ele>63.71</ele>
        <time>2025-02-19T10:21:28.921Z</time>
      </trkpt>
      <trkpt lat="59.385304944589734" lon="14.001144971698523">
        <ele>63.69</ele>
        <time>2025-02-19T10:22:28.601Z</time>
      </trkpt>
      <trkpt lat="59.385368982329965" lon="14.001162992790341">
        <ele>63.67</ele>
        <time>2025-02-19T10:23:28.282Z</time>
      </trkpt>
      <trkpt lat="59.3854309245944" lon="14.001174978911877">
        <ele>63.65</ele>
        <time>2025-02-19T10:24:27.964Z</time>
      </trkpt>
      <trkpt lat="59.38549295067787" lon="14.001180930063128">
        <ele>63.63</ele>
        <time>2025-02-19T10:25:27.647Z</time>
      </trkpt>
      <trkpt lat="59.38555598258972" lon="14.001178918406367">
        <ele>63.61</ele>
        <time>2025-02-19T10:26:27.331Z</time>
      </trkpt>
      <trkpt lat="59.38561599701643" lon="14.001171961426735">
        <ele>63.59</ele>
        <time>2025-02-19T10:27:27.016Z</time>
      </trkpt>
      <trkpt lat="59.385675927624106" lon="14.00116098113358">
        <ele>63.57</ele>
        <time>2025-02-19T10:28:26.702Z</time>
      </trkpt>
      <trkpt lat="59.38573393039405" lon="14.001144971698523">
        <ele>63.54</ele>
        <time>2025-02-19T10:29:26.389Z</time>
      </trkpt>
      <trkpt lat="59.385791933164" lon="14.001119993627071">
        <ele>63.52</ele>
        <time>2025-02-19T10:30:26.077Z</time>
      </trkpt>
      <trkpt lat="59.385847924277186" lon="14.001086968928576">
        <ele>63.49</ele>
        <time>2025-02-19T10:31:25.766Z</time>
      </trkpt>
      <trkpt lat="59.38590299338102" lon="14.001052938401699">
        <ele>63.47</ele>
        <time>2025-02-19T10:32:25.456Z</time>
      </trkpt>
      <trkpt lat="59.38595697283745" lon="14.001015974208713">
        <ele>63.44</ele>
        <time>2025-02-19T10:33:25.147Z</time>
      </trkpt>
      <trkpt lat="59.38600994646549" lon="14.000979932025075">
        <ele>63.41</ele>
        <time>2025-02-19T10:34:24.838Z</time>
      </trkpt>
      <trkpt lat="59.38606099225581" lon="14.000942967832088">
        <ele>63.39</ele>
        <time>2025-02-19T10:35:24.530Z</time>
      </trkpt>
      <trkpt lat="59.38611296005547" lon="14.00090399198234">
        <ele>63.36</ele>
        <time>2025-02-19T10:36:24.223Z</time>
      </trkpt>
      <trkpt lat="59.386166939511895" lon="14.000865938141942">
        <ele>63.34</ele>
        <time>2025-02-19T10:37:23.917Z</time>
      </trkpt>
      <trkpt lat="59.38622091896832" lon="14.000828973948956">
        <ele>63.32</ele>
        <time>2025-02-19T10:38:23.612Z</time>
      </trkpt>
      <trkpt lat="59.38627699390054" lon="14.000794943422079">
        <ele>63.29</ele>
        <time>2025-02-19T10:39:23.308Z</time>
      </trkpt>
      <trkpt lat="59.38633298501372" lon="14.000765942037106">
        <ele>63.26</ele>
        <time>2025-02-19T10:40:23.005Z</time>
      </trkpt>
      <trkpt lat="59.38638897612691" lon="14.000744987279177">
        <ele>63.23</ele>
        <time>2025-02-19T10:41:22.703Z</time>
      </trkpt>
      <trkpt lat="59.386446978896856" lon="14.000726966187358">
        <ele>63.21</ele>
        <time>2025-02-19T10:42:22.402Z</time>
      </trkpt>
      <trkpt lat="59.386505987495184" lon="14.000716991722584">
        <ele>63.18</ele>
        <time>2025-02-19T10:43:22.102Z</time>
      </trkpt>
      <trkpt lat="59.38656692393124" lon="14.000717997550964">
        <ele>63.16</ele>
        <time>2025-02-19T10:44:21.803Z</time>
      </trkpt>
      <trkpt lat="59.38662199303508" lon="14.00073392316699">
        <ele>63.13</ele>
        <time>2025-02-19T10:45:21.505Z</time>
      </trkpt>
      <trkpt lat="59.3866759724915" lon="14.000760996714234">
        <ele>63.1</ele>
        <time>2025-02-19T10:46:21.208Z</time>
      </trkpt>
      <trkpt lat="59.386722994968295" lon="14.000801984220743">
        <ele>63.06</ele>
        <time>2025-02-19T10:47:20.911Z</time>
      </trkpt>
      <trkpt lat="59.386765994131565" lon="14.000850934535265">
        <ele>63.03</ele>
        <time>2025-02-19T10:48:20.615Z</time>
      </trkpt>
      <trkpt lat="59.38680597580969" lon="14.000900974497199">
        <ele>63.0</ele>
        <time>2025-02-19T10:49:20.320Z</time>
      </trkpt>
      <trkpt lat="59.38684595748782" lon="14.00094891898334">
        <ele>62.96</ele>
        <time>2025-02-19T10:50:20.026Z</time>
      </trkpt>
      <trkpt lat="59.38688694499433" lon="14.001003988087177">
        <ele>62.93</ele>
        <time>2025-02-19T10:51:19.732Z</time>
      </trkpt>
      <trkpt lat="59.38693094998598" lon="14.001065930351615">
        <ele>62.89</ele>
        <time>2025-02-19T10:52:19.439Z</time>
      </trkpt>
      <trkpt lat="59.386981995776296" lon="14.001134997233748">
        <ele>62.86</ele>
        <time>2025-02-19T10:53:19.147Z</time>
      </trkpt>
      <trkpt lat="59.38703899271786" lon="14.001201968640089">
        <ele>62.82</ele>
        <time>2025-02-19T10:54:18.856Z</time>
      </trkpt>
      <trkpt lat="59.3871009349823" lon="14.001262988895178">
        <ele>62.79</ele>
        <time>2025-02-19T10:55:18.566Z</time>
      </trkpt>
      <trkpt lat="59.38716799020767" lon="14.001325936987996">
        <ele>62.75</ele>
        <time>2025-02-19T10:56:18.278Z</time>
      </trkpt>
      <trkpt lat="59.387237979099154" lon="14.001390980556607">
        <ele>62.73</ele>
        <time>2025-02-19T10:57:17.991Z</time>
      </trkpt>
      <trkpt lat="59.38731098547578" lon="14.001452922821045">
        <ele>62.7</ele>
        <time>2025-02-19T10:58:17.705Z</time>
      </trkpt>
      <trkpt lat="59.38738591969013" lon="14.001507991924882">
        <ele>62.68</ele>
        <time>2025-02-19T10:59:17.420Z</time>
      </trkpt>
      <trkpt lat="59.38746294938028" lon="14.001559959724545">
        <ele>62.65</ele>
        <time>2025-02-19T11:00:17.137Z</time>
      </trkpt>
      <trkpt lat="59.387538973242044" lon="14.001608993858099">
        <ele>62.62</ele>
        <time>2025-02-19T11:01:16.855Z</time>
      </trkpt>
      <trkpt lat="59.38761692494154" lon="14.001653920859098">
        <ele>62.59</ele>
        <time>2025-02-19T11:02:16.574Z</time>
      </trkpt>
      <trkpt lat="59.387692948803306" lon="14.00169893167913">
        <ele>62.57</ele>
        <time>2025-02-19T11:03:16.295Z</time>
      </trkpt>
      <trkpt lat="59.38776796683669" lon="14.00174394249916">
        <ele>62.54</ele>
        <time>2025-02-19T11:04:16.017Z</time>
      </trkpt>
      <trkpt lat="59.387841979041696" lon="14.001789959147573">
        <ele>62.51</ele>
        <time>2025-02-19T11:05:15.740Z</time>
      </trkpt>
      <trkpt lat="59.38791498541832" lon="14.001837987452745">
        <ele>62.48</ele>
        <time>2025-02-19T11:06:15.464Z</time>
      </trkpt>
      <trkpt lat="59.387987991794944" lon="14.001886937767267">
        <ele>62.45</ele>
        <time>2025-02-19T11:07:15.190Z</time>
      </trkpt>
      <trkpt lat="59.38806192018092" lon="14.001939995214343">
        <ele>62.42</ele>
        <time>2025-02-19T11:08:14.917Z</time>
      </trkpt>
      <trkpt lat="59.38813593238592" lon="14.001993974670768">
        <ele>62.4</ele>
        <time>2025-02-19T11:09:14.645Z</time>
      </trkpt>
      <trkpt lat="59.388209944590926" lon="14.00204493664205">
        <ele>62.37</ele>
        <time>2025-02-19T11:10:14.374Z</time>
      </trkpt>
      <trkpt lat="59.38828596845269" lon="14.002091959118843">
        <ele>62.34</ele>
        <time>2025-02-19T11:11:14.105Z</time>
      </trkpt>
      <trkpt lat="59.3883599806577" lon="14.002137975767255">
        <ele>62.32</ele>
        <time>2025-02-19T11:12:13.837Z</time>
      </trkpt>
      <trkpt lat="59.38843499869108" lon="14.002179969102144">
        <ele>62.3</ele>
        <time>2025-02-19T11:13:13.570Z</time>
      </trkpt>
      <trkpt lat="59.388510938733816" lon="14.002222968265414">
        <ele>62.28</ele>
        <time>2025-02-19T11:14:13.304Z</time>
      </trkpt>
      <trkpt lat="59.3885859567672" lon="14.002265967428684">
        <ele>62.26</ele>
        <time>2025-02-19T11:15:13.040Z</time>
      </trkpt>
      <trkpt lat="59.38866298645735" lon="14.002308966591954">
        <ele>62.24</ele>
        <time>2025-02-19T11:16:12.777Z</time>
      </trkpt>
      <trkpt lat="59.388741943985224" lon="14.002353977411985">
        <ele>62.21</ele>
        <time>2025-02-19T11:17:12.515Z</time>
      </trkpt>
      <trkpt lat="59.38881997950375" lon="14.002401921898127">
        <ele>62.19</ele>
        <time>2025-02-19T11:18:12.255Z</time>
      </trkpt>
      <trkpt lat="59.38890094868839" lon="14.00245095603168">
        <ele>62.16</ele>
        <time>2025-02-19T11:19:11.996Z</time>
      </trkpt>
      <trkpt lat="59.388980995863676" lon="14.002499990165234">
        <ele>62.14</ele>
        <time>2025-02-19T11:20:11.738Z</time>
      </trkpt>
      <trkpt lat="59.38906196504831" lon="14.002549946308136">
        <ele>62.12</ele>
        <time>2025-02-19T11:21:11.482Z</time>
      </trkpt>
      <trkpt lat="59.38914192840457" lon="14.002604931592941">
        <ele>62.1</ele>
        <time>2025-02-19T11:22:11.227Z</time>
      </trkpt>
      <trkpt lat="59.3892199639231" lon="14.00266494601965">
        <ele>62.07</ele>
        <time>2025-02-19T11:23:10.973Z</time>
      </trkpt>
      <trkpt lat="59.38929598778486" lon="14.00272898375988">
        <ele>62.05</ele>
        <time>2025-02-19T11:24:10.721Z</time>
      </trkpt>
      <trkpt lat="59.38936899416149" lon="14.002790926024318">
        <ele>62.03</ele>
        <time>2025-02-19T11:25:10.470Z</time>
      </trkpt>
      <trkpt lat="59.38943998888135" lon="14.002855969592929">
        <ele>62.02</ele>
        <time>2025-02-19T11:26:10.220Z</time>
      </trkpt>
      <trkpt lat="59.38950796611607" lon="14.00292394682765">
        <ele>62.0</ele>
        <time>2025-02-19T11:27:09.971Z</time>
      </trkpt>
      <trkpt lat="59.38957493752241" lon="14.002992929890752">
        <ele>61.99</ele>
        <time>2025-02-19T11:28:09.724Z</time>
      </trkpt>
      <trkpt lat="59.3896409869194" lon="14.003063924610615">
        <ele>61.97</ele>
        <time>2025-02-19T11:29:09.478Z</time>
      </trkpt>
      <trkpt lat="59.389707958325744" lon="14.00313994847238">
        <ele>61.95</ele>
        <time>2025-02-19T11:30:09.233Z</time>
      </trkpt>
      <trkpt lat="59.389776941388845" lon="14.003218989819288">
        <ele>61.94</ele>
        <time>2025-02-19T11:31:08.989Z</time>
      </trkpt>
      <trkpt lat="59.38984894193709" lon="14.003300964832306">
        <ele>61.93</ele>
        <time>2025-02-19T11:32:08.747Z</time>
      </trkpt>
      <trkpt lat="59.38991792500019" lon="14.003387968987226">
        <ele>61.92</ele>
        <time>2025-02-19T11:33:08.506Z</time>
      </trkpt>
      <trkpt lat="59.38999495469034" lon="14.003466926515102">
        <ele>61.91</ele>
        <time>2025-02-19T11:34:08.266Z</time>
      </trkpt>
      <trkpt lat="59.390076929703355" lon="14.003534987568855">
        <ele>61.91</ele>
        <time>2025-02-19T11:35:08.028Z</time>
      </trkpt>
      <trkpt lat="59.390161922201514" lon="14.00358997285366">
        <ele>61.9</ele>
        <time>2025-02-19T11:36:07.791Z</time>
      </trkpt>
      <trkpt lat="59.390249932184815" lon="14.003628948703408">
        <ele>61.9</ele>
        <time>2025-02-19T11:37:07.556Z</time>
      </trkpt>
      <trkpt lat="59.39033995382488" lon="14.00365392677486">
        <ele>61.9</ele>
        <time>2025-02-19T11:38:07.322Z</time>
      </trkpt>
      <trkpt lat="59.39043098129332" lon="14.003666918724775">
        <ele>61.89</ele>
        <time>2025-02-19T11:39:07.090Z</time>
      </trkpt>
      <trkpt lat="59.39052192494273" lon="14.003667924553156">
        <ele>61.89</ele>
        <time>2025-02-19T11:40:06.859Z</time>
      </trkpt>
      <trkpt lat="59.390611946582794" lon="14.003659961745143">
        <ele>61.89</ele>
        <time>2025-02-19T11:41:06.630Z</time>
      </trkpt>
      <trkpt lat="59.39070196822286" lon="14.003646969795227">
        <ele>61.89</ele>
        <time>2025-02-19T11:42:06.402Z</time>
      </trkpt>
      <trkpt lat="59.39078897237778" lon="14.00363297201693">
        <ele>61.88</ele>
        <time>2025-02-19T11:43:06.175Z</time>
      </trkpt>
      <trkpt lat="59.390872959047556" lon="14.003620985895395">
        <ele>61.88</ele>
        <time>2025-02-19T11:44:05.950Z</time>
      </trkpt>
      <trkpt lat="59.39095392823219" lon="14.003606988117099">
        <ele>61.88</ele>
        <time>2025-02-19T11:45:05.726Z</time>
      </trkpt>
      <trkpt lat="59.39103397540748" lon="14.003593996167183">
        <ele>61.88</ele>
        <time>2025-02-19T11:46:05.503Z</time>
      </trkpt>
      <trkpt lat="59.391110921278596" lon="14.003581926226616">
        <ele>61.88</ele>
        <time>2025-02-19T11:47:05.282Z</time>
      </trkpt>
      <trkpt lat="59.39118795096874" lon="14.00356994010508">
        <ele>61.88</ele>
        <time>2025-02-19T11:48:05.062Z</time>
      </trkpt>
      <trkpt lat="59.39126397483051" lon="14.003556948155165">
        <ele>61.88</ele>
        <time>2025-02-19T11:49:04.843Z</time>
      </trkpt>
      <trkpt lat="59.39133899286389" lon="14.00354496203363">
        <ele>61.89</ele>
        <time>2025-02-19T11:50:04.625Z</time>
      </trkpt>
      <trkpt lat="59.39141199924052" lon="14.003532975912094">
        <ele>61.89</ele>
        <time>2025-02-19T11:51:04.409Z</time>
      </trkpt>
      <trkpt lat="59.39148299396038" lon="14.003520989790559">
        <ele>61.88</ele>
        <time>2025-02-19T11:52:04.194Z</time>
      </trkpt>
      <trkpt lat="59.39155197702348" lon="14.003509925678372">
        <ele>61.88</ele>
        <time>2025-02-19T11:53:03.980Z</time>
      </trkpt>
      <trkpt lat="59.3916199542582" lon="14.003499951213598">
        <ele>61.88</ele>
        <time>2025-02-19T11:54:03.767Z</time>
      </trkpt>
      <trkpt lat="59.391687931492925" lon="14.003490982577205">
        <ele>61.88</ele>
        <time>2025-02-19T11:55:03.555Z</time>
      </trkpt>
      <trkpt lat="59.3917549867183" lon="14.00348293595016">
        <ele>61.88</ele>
        <time>2025-02-19T11:56:03.344Z</time>
      </trkpt>
      <trkpt lat="59.39182296395302" lon="14.003475978970528">
        <ele>61.87</ele>
        <time>2025-02-19T11:57:03.134Z</time>
      </trkpt>
      <trkpt lat="59.39189094118774" lon="14.003467932343483">
        <ele>61.87</ele>
        <time>2025-02-19T11:58:02.925Z</time>
      </trkpt>
      <trkpt lat="59.39195699058473" lon="14.003457957878709">
        <ele>61.87</ele>
        <time>2025-02-19T11:59:02.717Z</time>
      </trkpt>
      <trkpt lat="59.39202396199107" lon="14.003446977585554">
        <ele>61.87</ele>
        <time>2025-02-19T12:00:02.510Z</time>
      </trkpt>
      <trkpt lat="59.39209093339741" lon="14.0034359972924">
        <ele>61.86</ele>
        <time>2025-02-19T12:01:02.304Z</time>
      </trkpt>
      <trkpt lat="59.392158994451165" lon="14.003423927351832">
        <ele>61.86</ele>
        <time>2025-02-19T12:02:02.100Z</time>
      </trkpt>
      <trkpt lat="59.392225965857506" lon="14.003411941230297">
        <ele>61.86</ele>
        <time>2025-02-19T12:03:01.897Z</time>
      </trkpt>
      <trkpt lat="59.392292937263846" lon="14.003403978422284">
        <ele>61.85</ele>
        <time>2025-02-19T12:04:01.695Z</time>
      </trkpt>
      <trkpt lat="59.39235898666084" lon="14.00339693762362">
        <ele>61.85</ele>
        <time>2025-02-19T12:05:01.494Z</time>
      </trkpt>
      <trkpt lat="59.39242595806718" lon="14.003387968987226">
        <ele>61.84</ele>
        <time>2025-02-19T12:06:01.294Z</time>
      </trkpt>
      <trkpt lat="59.39249292947352" lon="14.003379922360182">
        <ele>61.83</ele>
        <time>2025-02-19T12:07:01.095Z</time>
      </trkpt>
      <trkpt lat="59.39256099052727" lon="14.00337296538055">
        <ele>61.81</ele>
        <time>2025-02-19T12:08:00.897Z</time>
      </trkpt>
      <trkpt lat="59.392630979418755" lon="14.003364918753505">
        <ele>61.8</ele>
        <time>2025-02-19T12:09:00.700Z</time>
      </trkpt>
      <trkpt lat="59.39270096831024" lon="14.003351926803589">
        <ele>61.79</ele>
        <time>2025-02-19T12:10:00.504Z</time>
      </trkpt>
      <trkpt lat="59.39276995137334" lon="14.00332996621728">
        <ele>61.77</ele>
        <time>2025-02-19T12:11:00.309Z</time>
      </trkpt>
      <trkpt lat="59.39283893443644" lon="14.003300964832306">
        <ele>61.75</ele>
        <time>2025-02-19T12:12:00.115Z</time>
      </trkpt>
      <trkpt lat="59.39290598966181" lon="14.003265928477049">
        <ele>61.73</ele>
        <time>2025-02-19T12:12:59.923Z</time>
      </trkpt>
      <trkpt lat="59.39297296106815" lon="14.003221923485398">
        <ele>61.72</ele>
        <time>2025-02-19T12:13:59.732Z</time>
      </trkpt>
      <trkpt lat="59.393036998808384" lon="14.003167944028974">
        <ele>61.7</ele>
        <time>2025-02-19T12:14:59.542Z</time>
      </trkpt>
      <trkpt lat="59.39310195855796" lon="14.003105917945504">
        <ele>61.68</ele>
        <time>2025-02-19T12:15:59.353Z</time>
      </trkpt>
      <trkpt lat="59.393165996298194" lon="14.003038946539164">
        <ele>61.65</ele>
        <time>2025-02-19T12:16:59.165Z</time>
      </trkpt>
      <trkpt lat="59.39322793856263" lon="14.002963928505778">
        <ele>61.63</ele>
        <time>2025-02-19T12:17:58.978Z</time>
      </trkpt>
      <trkpt lat="59.39329298213124" lon="14.002885976806283">
        <ele>61.61</ele>
        <time>2025-02-19T12:18:58.793Z</time>
      </trkpt>
      <trkpt lat="59.39335693605244" lon="14.002808947116137">
        <ele>61.58</ele>
        <time>2025-02-19T12:19:58.609Z</time>
      </trkpt>
      <trkpt lat="59.39341896213591" lon="14.002726972103119">
        <ele>61.55</ele>
        <time>2025-02-19T12:20:58.426Z</time>
      </trkpt>
      <trkpt lat="59.39348299987614" lon="14.002639967948198">
        <ele>61.51</ele>
        <time>2025-02-19T12:21:58.244Z</time>
      </trkpt>
      <trkpt lat="59.3935489654541" lon="14.00255799293518">
        <ele>61.48</ele>
        <time>2025-02-19T12:22:58.063Z</time>
      </trkpt>
      <trkpt lat="59.3936129193753" lon="14.002466965466738">
        <ele>61.44</ele>
        <time>2025-02-19T12:23:57.884Z</time>
      </trkpt>
      <trkpt lat="59.39367695711553" lon="14.002374932169914">
        <ele>61.4</ele>
        <time>2025-02-19T12:24:57.706Z</time>
      </trkpt>
      <trkpt lat="59.39374099485576" lon="14.002284994348884">
        <ele>61.36</ele>
        <time>2025-02-19T12:25:57.529Z</time>
      </trkpt>
      <trkpt lat="59.39380193129182" lon="14.002189943566918">
        <ele>61.31</ele>
        <time>2025-02-19T12:26:57.354Z</time>
      </trkpt>
      <trkpt lat="59.393855994567275" lon="14.002084918320179">
        <ele>61.27</ele>
        <time>2025-02-19T12:27:57.180Z</time>
      </trkpt>
      <trkpt lat="59.3939049448818" lon="14.001972936093807">
        <ele>61.22</ele>
        <time>2025-02-19T12:28:57.007Z</time>
      </trkpt>
      <trkpt lat="59.39395096153021" lon="14.001857936382294">
        <ele>61.17</ele>
        <time>2025-02-19T12:29:56.835Z</time>
      </trkpt>
      <trkpt lat="59.39399496652186" lon="14.0017419308424">
        <ele>61.12</ele>
        <time>2025-02-19T12:30:56.664Z</time>
      </trkpt>
      <trkpt lat="59.39403897151351" lon="14.001627936959267">
        <ele>61.06</ele>
        <time>2025-02-19T12:31:56.495Z</time>
      </trkpt>
      <trkpt lat="59.39408197067678" lon="14.001518972218037">
        <ele>61.0</ele>
        <time>2025-02-19T12:32:56.327Z</time>
      </trkpt>
      <trkpt lat="59.39412698149681" lon="14.001409923657775">
        <ele>60.94</ele>
        <time>2025-02-19T12:33:56.160Z</time>
      </trkpt>
      <trkpt lat="59.39417299814522" lon="14.001305988058448">
        <ele>60.88</ele>
        <time>2025-02-19T12:34:55.994Z</time>
      </trkpt>
      <trkpt lat="59.39422697760165" lon="14.00120297446847">
        <ele>60.81</ele>
        <time>2025-02-19T12:35:55.829Z</time>
      </trkpt>
      <trkpt lat="59.394288919866085" lon="14.001114964485168">
        <ele>60.74</ele>
        <time>2025-02-19T12:36:55.665Z</time>
      </trkpt>
      <trkpt lat="59.3943589925766" lon="14.001043969765306">
        <ele>60.67</ele>
        <time>2025-02-19T12:37:55.503Z</time>
      </trkpt>
      <trkpt lat="59.39443493261933" lon="14.001000970602036">
        <ele>60.59</ele>
        <time>2025-02-19T12:38:55.342Z</time>
      </trkpt>
      <trkpt lat="59.39451699145138" lon="14.000979932025075">
        <ele>60.51</ele>
        <time>2025-02-19T12:39:55.182Z</time>
      </trkpt>
      <trkpt lat="59.39460198394954" lon="14.000976998358965">
        <ele>60.44</ele>
        <time>2025-02-19T12:40:55.024Z</time>
      </trkpt>
      <trkpt lat="59.39468496479094" lon="14.00099292397499">
        <ele>60.36</ele>
        <time>2025-02-19T12:41:54.867Z</time>
      </trkpt>
      <trkpt lat="59.39476794563234" lon="14.001017985865474">
        <ele>60.28</ele>
        <time>2025-02-19T12:42:54.711Z</time>
      </trkpt>
      <trkpt lat="59.39485092647374" lon="14.001048998907208">
        <ele>60.19</ele>
        <time>2025-02-19T12:43:54.557Z</time>
      </trkpt>
      <trkpt lat="59.39493399113417" lon="14.001080933958292">
        <ele>60.11</ele>
        <time>2025-02-19T12:44:54.404Z</time>
      </trkpt>
      <trkpt lat="59.395018983632326" lon="14.001110941171646">
        <ele>60.03</ele>
        <time>2025-02-19T12:45:54.252Z</time>
      </trkpt>
      <trkpt lat="59.39510598778725" lon="14.001132985576987">
        <ele>59.94</ele>
        <time>2025-02-19T12:46:54.102Z</time>
      </trkpt>
      <trkpt lat="59.39519693143666" lon="14.001144971698523">
        <ele>59.86</ele>
        <time>2025-02-19T12:47:53.953Z</time>
      </trkpt>
      <trkpt lat="59.39528393559158" lon="14.001138936728239">
        <ele>59.78</ele>
        <time>2025-02-19T12:48:53.806Z</time>
      </trkpt>
      <trkpt lat="59.39536892808974" lon="14.00111697614193">
        <ele>59.69</ele>
        <time>2025-02-19T12:49:53.660Z</time>
      </trkpt>
      <trkpt lat="59.39545098692179" lon="14.001084957271814">
        <ele>59.6</ele>
        <time>2025-02-19T12:50:53.515Z</time>
      </trkpt>
      <trkpt lat="59.395533967763186" lon="14.001048998907208">
        <ele>59.51</ele>
        <time>2025-02-19T12:51:53.372Z</time>
      </trkpt>
      <trkpt lat="59.395616948604584" lon="14.001022931188345">
        <ele>59.41</ele>
        <time>2025-02-19T12:52:53.230Z</time>
      </trkpt>
      <trkpt lat="59.395702946931124" lon="14.001005999743938">
        <ele>59.31</ele>
        <time>2025-02-19T12:53:53.089Z</time>
      </trkpt>
      <trkpt lat="59.395792968571186" lon="14.00098797865212">
        <ele>59.2</ele>
        <time>2025-02-19T12:54:52.950Z</time>
      </trkpt>
      <trkpt lat="59.39588299021125" lon="14.000962916761637">
        <ele>59.09</ele>
        <time>2025-02-19T12:55:52.812Z</time>
      </trkpt>
      <trkpt lat="59.39596999436617" lon="14.000920923426747">
        <ele>58.98</ele>
        <time>2025-02-19T12:56:52.676Z</time>
      </trkpt>
      <trkpt lat="59.39605498686433" lon="14.00085898116231">
        <ele>58.87</ele>
        <time>2025-02-19T12:57:52.541Z</time>
      </trkpt>
      <trkpt lat="59.396135956048965" lon="14.00077792815864">
        <ele>58.76</ele>
        <time>2025-02-19T12:58:52.408Z</time>
      </trkpt>
      <trkpt lat="59.39621591940522" lon="14.000680949538946">
        <ele>58.64</ele>
        <time>2025-02-19T12:59:52.276Z</time>
      </trkpt>
      <trkpt lat="59.39629395492375" lon="14.000569973140955">
        <ele>58.53</ele>
        <time>2025-02-19T13:00:52.146Z</time>
      </trkpt>
      <trkpt lat="59.396371990442276" lon="14.000449944287539">
        <ele>58.41</ele>
        <time>2025-02-19T13:01:52.017Z</time>
      </trkpt>
      <trkpt lat="59.39644893631339" lon="14.00032195262611">
        <ele>58.29</ele>
        <time>2025-02-19T13:02:51.890Z</time>
      </trkpt>
      <trkpt lat="59.39652697183192" lon="14.000182980671525">
        <ele>58.16</ele>
        <time>2025-02-19T13:03:51.765Z</time>
      </trkpt>
      <trkpt lat="59.39659897238016" lon="14.000034956261516">
        <ele>58.02</ele>
        <time>2025-02-19T13:04:51.641Z</time>
      </trkpt>
      <trkpt lat="59.39666292630136" lon="13.999870922416449">
        <ele>57.9</ele>
        <time>2025-02-19T13:05:51.519Z</time>
      </trkpt>
      <trkpt lat="59.396718917414546" lon="13.999689957126975">
        <ele>57.78</ele>
        <time>2025-02-19T13:06:51.399Z</time>
      </trkpt>
      <trkpt lat="59.3967679515481" lon="13.999497927725315">
        <ele>57.66</ele>
        <time>2025-02-19T13:07:51.280Z</time>
      </trkpt>
      <trkpt lat="59.39681597985327" lon="13.999302964657545">
        <ele>57.54</ele>
        <time>2025-02-19T13:08:51.163Z</time>
      </trkpt>
      <trkpt lat="59.39685394987464" lon="13.999111941084266">
        <ele>57.42</ele>
        <time>2025-02-19T13:09:51.048Z</time>
      </trkpt>
      <trkpt lat="59.396887980401516" lon="13.998917983844876">
        <ele>57.31</ele>
        <time>2025-02-19T13:10:50.935Z</time>
      </trkpt>
      <trkpt lat="59.39692092128098" lon="13.998724948614836">
        <ele>57.19</ele>
        <time>2025-02-19T13:11:50.823Z</time>
      </trkpt>
      <trkpt lat="59.396951934322715" lon="13.998535936698318">
        <ele>57.07</ele>
        <time>2025-02-19T13:12:50.713Z</time>
      </trkpt>
      <trkpt lat="59.39698395319283" lon="13.998349942266941">
        <ele>56.95</ele>
        <time>2025-02-19T13:13:50.605Z</time>
      </trkpt>
      <trkpt lat="59.39701798371971" lon="13.998167971149087">
        <ele>56.83</ele>
        <time>2025-02-19T13:14:50.498Z</time>
      </trkpt>
      <trkpt lat="59.397058971226215" lon="13.997995974496007">
        <ele>56.71</ele>
        <time>2025-02-19T13:15:50.393Z</time>
      </trkpt>
      <trkpt lat="59.39711093902588" lon="13.997838981449604">
        <ele>56.6</ele>
        <time>2025-02-19T13:16:50.289Z</time>
      </trkpt>
      <trkpt lat="59.39717397093773" lon="13.99770193733275">
        <ele>56.48</ele>
        <time>2025-02-19T13:17:50.187Z</time>
      </trkpt>
      <trkpt lat="59.39724597148597" lon="13.997584925964475">
        <ele>56.36</ele>
        <time>2025-02-19T13:18:50.086Z</time>
      </trkpt>
      <trkpt lat="59.39732593484223" lon="13.997485935688019">
        <ele>56.24</ele>
        <time>2025-02-19T13:19:49.987Z</time>
      </trkpt>
      <trkpt lat="59.39740992151201" lon="13.997399937361479">
        <ele>56.12</ele>
        <time>2025-02-19T13:20:49.889Z</time>
      </trkpt>
      <trkpt lat="59.39749692566693" lon="13.997323997318745">
        <ele>56.0</ele>
        <time>2025-02-19T13:21:49.793Z</time>
      </trkpt>
      <trkpt lat="59.39758594147861" lon="13.997259959578514">
        <ele>55.87</ele>
        <time>2025-02-19T13:22:49.698Z</time>
      </trkpt>
      <trkpt lat="59.397678980603814" lon="13.99721092544496">
        <ele>55.75</ele>
        <time>2025-02-19T13:23:49.605Z</time>
      </trkpt>
      <trkpt lat="59.39777595922351" lon="13.99718594737351">
        <ele>55.63</ele>
        <time>2025-02-19T13:24:49.513Z</time>
      </trkpt>
      <trkpt lat="59.39787193201482" lon="13.99718594737351">
        <ele>55.51</ele>
        <time>2025-02-19T13:25:49.423Z</time>
      </trkpt>
      <trkpt lat="59.39796698279679" lon="13.997197933495045">
        <ele>55.39</ele>
        <time>2025-02-19T13:26:49.334Z</time>
      </trkpt>
      <trkpt lat="59.39805993810296" lon="13.99720991961658">
        <ele>55.26</ele>
        <time>2025-02-19T13:27:49.247Z</time>
      </trkpt>
      <trkpt lat="59.398151971399784" lon="13.997221989557147">
        <ele>55.14</ele>
        <time>2025-02-19T13:28:49.161Z</time>
      </trkpt>
      <trkpt lat="59.398240987211466" lon="13.997236993163824">
        <ele>55.02</ele>
        <time>2025-02-19T13:29:49.077Z</time>
      </trkpt>
      <trkpt lat="59.398329919204116" lon="13.99725392460823">
        <ele>54.9</ele>
        <time>2025-02-19T13:30:48.994Z</time>
      </trkpt>
      <trkpt lat="59.39841994084418" lon="13.997268928214908">
        <ele>54.79</ele>
        <time>2025-02-19T13:31:48.913Z</time>
      </trkpt>
      <trkpt lat="59.39851096831262" lon="13.997285943478346">
        <ele>54.67</ele>
        <time>2025-02-19T13:32:48.833Z</time>
      </trkpt>
      <trkpt lat="59.39860392361879" lon="13.997304970398545">
        <ele>54.55</ele>
        <time>2025-02-19T13:33:48.755Z</time>
      </trkpt>
      <trkpt lat="59.39869796857238" lon="13.997325925156474">
        <ele>54.44</ele>
        <time>2025-02-19T13:34:48.678Z</time>
      </trkpt>
      <trkpt lat="59.39879293553531" lon="13.997349981218576">
        <ele>54.32</ele>
        <time>2025-02-19T13:35:48.603Z</time>
      </trkpt>
      <trkpt lat="59.398885974660516" lon="13.997373953461647">
        <ele>54.2</ele>
        <time>2025-02-19T13:36:48.529Z</time>
      </trkpt>
      <trkpt lat="59.39897892996669" lon="13.99740094318986">
        <ele>54.09</ele>
        <time>2025-02-19T13:37:48.457Z</time>
      </trkpt>
      <trkpt lat="59.39907297492027" lon="13.997431956231594">
        <ele>53.97</ele>
        <time>2025-02-19T13:38:48.386Z</time>
      </trkpt>
      <trkpt lat="59.399164924398065" lon="13.997469926252961">
        <ele>53.86</ele>
        <time>2025-02-19T13:39:48.317Z</time>
      </trkpt>
      <trkpt lat="59.39925896935165" lon="13.997514937072992">
        <ele>53.75</ele>
        <time>2025-02-19T13:40:48.249Z</time>
      </trkpt>
      <trkpt lat="59.39935192465782" lon="13.997566988691688">
        <ele>53.64</ele>
        <time>2025-02-19T13:41:48.183Z</time>
      </trkpt>
      <trkpt lat="59.399442952126265" lon="13.997626919299364">
        <ele>53.54</ele>
        <time>2025-02-19T13:42:48.118Z</time>
      </trkpt>
      <trkpt lat="59.39953397959471" lon="13.997689951211214">
        <ele>53.43</ele>
        <time>2025-02-19T13:43:48.055Z</time>
      </trkpt>
      <trkpt lat="59.39962391741574" lon="13.997759940102696">
        <ele>53.32</ele>
        <time>2025-02-19T13:44:47.994Z</time>
      </trkpt>
      <trkpt lat="59.39971293322742" lon="13.997833952307701">
        <ele>53.21</ele>
        <time>2025-02-19T13:45:47.934Z</time>
      </trkpt>
      <trkpt lat="59.3998019490391" lon="13.997908970341086">
        <ele>53.1</ele>
        <time>2025-02-19T13:46:47.876Z</time>
      </trkpt>
      <trkpt lat="59.39989096485078" lon="13.997985916212201">
        <ele>53.0</ele>
        <time>2025-02-19T13:47:47.819Z</time>
      </trkpt>
      <trkpt lat="59.399978974834085" lon="13.998061940073967">
        <ele>52.89</ele>
        <time>2025-02-19T13:48:47.764Z</time>
      </trkpt>
      <trkpt lat="59.400066984817386" lon="13.998139975592494">
        <ele>52.78</ele>
        <time>2025-02-19T13:49:47.710Z</time>
      </trkpt>
      <trkpt lat="59.40015499480069" lon="13.998216921463609">
        <ele>52.68</ele>
        <time>2025-02-19T13:50:47.658Z</time>
      </trkpt>
      <trkpt lat="59.40024199895561" lon="13.998290933668613">
        <ele>52.58</ele>
        <time>2025-02-19T13:51:47.607Z</time>
      </trkpt>
      <trkpt lat="59.400328919291496" lon="13.998364945873618">
        <ele>52.48</ele>
        <time>2025-02-19T13:52:47.558Z</time>
      </trkpt>
      <trkpt lat="59.400414917618036" lon="13.998437952250242">
        <ele>52.38</ele>
        <time>2025-02-19T13:53:47.510Z</time>
      </trkpt>
      <trkpt lat="59.40050192177296" lon="13.998505929484963">
        <ele>52.28</ele>
        <time>2025-02-19T13:54:47.464Z</time>
      </trkpt>
      <trkpt lat="59.4005879200995" lon="13.998572984710336">
        <ele>52.18</ele>
        <time>2025-02-19T13:55:47.419Z</time>
      </trkpt>
      <trkpt lat="59.40067299641669" lon="13.998637944459915">
        <ele>52.09</ele>
        <time>2025-02-19T13:56:47.376Z</time>
      </trkpt>
      <trkpt lat="59.40075698308647" lon="13.998699970543385">
        <ele>52.0</ele>
        <time>2025-02-19T13:57:47.334Z</time>
      </trkpt>
      <trkpt lat="59.400840969756246" lon="13.998756967484951">
        <ele>51.91</ele>
        <time>2025-02-19T13:58:47.294Z</time>
      </trkpt>
      <trkpt lat="59.400924956426024" lon="13.998808935284615">
        <ele>51.83</ele>
        <time>2025-02-19T13:59:47.255Z</time>
      </trkpt>
      <trkpt lat="59.40100693143904" lon="13.99886098690331">
        <ele>51.74</ele>
        <time>2025-02-19T14:00:47.218Z</time>
      </trkpt>
      <trkpt lat="59.40108899027109" lon="13.998914966359735">
        <ele>51.66</ele>
        <time>2025-02-19T14:01:47.182Z</time>
      </trkpt>
      <trkpt lat="59.40117096528411" lon="13.998972969129682">
        <ele>51.58</ele>
        <time>2025-02-19T14:02:47.147Z</time>
      </trkpt>
      <trkpt lat="59.40125294029713" lon="13.99903692305088">
        <ele>51.49</ele>
        <time>2025-02-19T14:03:47.114Z</time>
      </trkpt>
      <trkpt lat="59.401335921138525" lon="13.999103978276253">
        <ele>51.42</ele>
        <time>2025-02-19T14:04:47.082Z</time>
      </trkpt>
      <trkpt lat="59.401418985798955" lon="13.999168938025832">
        <ele>51.34</ele>
        <time>2025-02-19T14:05:47.052Z</time>
      </trkpt>
      <trkpt lat="59.401504984125495" lon="13.99922794662416">
        <ele>51.26</ele>
        <time>2025-02-19T14:06:47.023Z</time>
      </trkpt>
      <trkpt lat="59.401592994108796" lon="13.999272957444191">
        <ele>51.19</ele>
        <time>2025-02-19T14:07:46.996Z</time>
      </trkpt>
      <trkpt lat="59.40168494358659" lon="13.999300953000784">
        <ele>51.12</ele>
        <time>2025-02-19T14:08:46.970Z</time>
      </trkpt>
      <trkpt lat="59.40177697688341" lon="13.999307993799448">
        <ele>51.05</ele>
        <time>2025-02-19T14:09:46.945Z</time>
      </trkpt>
      <trkpt lat="59.40186792053282" lon="13.999296929687262">
        <ele>50.99</ele>
        <time>2025-02-19T14:10:46.922Z</time>
      </trkpt>
      <trkpt lat="59.401958948001266" lon="13.999272957444191">
        <ele>50.92</ele>
        <time>2025-02-19T14:11:46.900Z</time>
      </trkpt>
      <trkpt lat="59.40204997546971" lon="13.999245967715979">
        <ele>50.86</ele>
        <time>2025-02-19T14:12:46.880Z</time>
      </trkpt>
      <trkpt lat="59.40214091911912" lon="13.99922794662416">
        <ele>50.8</ele>
        <time>2025-02-19T14:13:46.861Z</time>
      </trkpt>
      <trkpt lat="59.40223295241594" lon="13.999221995472908">
        <ele>50.73</ele>
        <time>2025-02-19T14:14:46.844Z</time>
      </trkpt>
      <trkpt lat="59.402323979884386" lon="13.99922794662416">
        <ele>50.67</ele>
        <time>2025-02-19T14:15:46.828Z</time>
      </trkpt>
      <trkpt lat="59.40241391770542" lon="13.999244961887598">
        <ele>50.61</ele>
        <time>2025-02-19T14:16:46.814Z</time>
      </trkpt>
      <trkpt lat="59.4025029335171" lon="13.999272957444191">
        <ele>50.55</ele>
        <time>2025-02-19T14:17:46.801Z</time>
      </trkpt>
      <trkpt lat="59.4025909435004" lon="13.999305982142687">
        <ele>50.49</ele>
        <time>2025-02-19T14:18:46.790Z</time>
      </trkpt>
      <trkpt lat="59.40267794765532" lon="13.999343952164054">
        <ele>50.44</ele>
        <time>2025-02-19T14:19:46.780Z</time>
      </trkpt>
      <trkpt lat="59.40276294015348" lon="13.999387957155704">
        <ele>50.39</ele>
        <time>2025-02-19T14:20:46.771Z</time>
      </trkpt>
      <trkpt lat="59.40284692682326" lon="13.999438919126987">
        <ele>50.35</ele>
        <time>2025-02-19T14:21:46.764Z</time>
      </trkpt>
      <trkpt lat="59.40293099731207" lon="13.999492982402444">
        <ele>50.3</ele>
        <time>2025-02-19T14:22:46.758Z</time>
      </trkpt>
      <trkpt lat="59.40301498398185" lon="13.999550985172391">
        <ele>50.26</ele>
        <time>2025-02-19T14:23:46.754Z</time>
      </trkpt>
      <trkpt lat="59.403097964823246" lon="13.999612927436829">
        <ele>50.22</ele>
        <time>2025-02-19T14:24:46.751Z</time>
      </trkpt>
      <trkpt lat="59.403179939836264" lon="13.99967897683382">
        <ele>50.18</ele>
        <time>2025-02-19T14:25:46.750Z</time>
      </trkpt>
      <trkpt lat="59.40326199866831" lon="13.999748965725303">
        <ele>50.14</ele>
        <time>2025-02-19T14:26:46.750Z</time>
      </trkpt>
      <trkpt lat="59.40334296785295" lon="13.999821972101927">
        <ele>50.1</ele>
        <time>2025-02-19T14:27:46.751Z</time>
      </trkpt>
      <trkpt lat="59.40342293120921" lon="13.999897995963693">
        <ele>50.06</ele>
        <time>2025-02-19T14:28:46.754Z</time>
      </trkpt>
      <trkpt lat="59.403501972556114" lon="13.999976953491569">
        <ele>50.03</ele>
        <time>2025-02-19T14:29:46.758Z</time>
      </trkpt>
      <trkpt lat="59.40357992425561" lon="14.000058928504586">
        <ele>49.99</ele>
        <time>2025-02-19T14:30:46.764Z</time>
      </trkpt>
      <trkpt lat="59.40365795977414" lon="14.000140987336636">
        <ele>49.96</ele>
        <time>2025-02-19T14:31:46.771Z</time>
      </trkpt>
      <trkpt lat="59.403735995292664" lon="14.000223968178034">
        <ele>49.92</ele>
        <time>2025-02-19T14:32:46.780Z</time>
      </trkpt>
      <trkpt lat="59.40381294116378" lon="14.000306949019432">
        <ele>49.89</ele>
        <time>2025-02-19T14:33:46.790Z</time>
      </trkpt>
      <trkpt lat="59.403891982510686" lon="14.00038699619472">
        <ele>49.87</ele>
        <time>2025-02-19T14:34:46.801Z</time>
      </trkpt>
      <trkpt lat="59.40397094003856" lon="14.000458996742964">
        <ele>49.85</ele>
        <time>2025-02-19T14:35:46.814Z</time>
      </trkpt>
      <trkpt lat="59.40405199304223" lon="14.000522950664163">
        <ele>49.83</ele>
        <time>2025-02-19T14:36:46.828Z</time>
      </trkpt>
      <trkpt lat="59.40413396805525" lon="14.000579947605729">
        <ele>49.81</ele>
        <time>2025-02-19T14:37:46.844Z</time>
      </trkpt>
      <trkpt lat="59.40421694889665" lon="14.000628981739283">
        <ele>49.79</ele>
        <time>2025-02-19T14:38:46.861Z</time>
      </trkpt>
      <trkpt lat="59.404299929738045" lon="14.000669969245791">
        <ele>49.77</ele>
        <time>2025-02-19T14:39:46.879Z</time>
      </trkpt>
      <trkpt lat="59.404384922236204" lon="14.000702993944287">
        <ele>49.76</ele>
        <time>2025-02-19T14:40:46.899Z</time>
      </trkpt>
      <trkpt lat="59.404469998553395" lon="14.00073199532926">
        <ele>49.74</ele>
        <time>2025-02-19T14:41:46.920Z</time>
      </trkpt>
      <trkpt lat="59.404554991051555" lon="14.000757979229093">
        <ele>49.73</ele>
        <time>2025-02-19T14:42:46.943Z</time>
      </trkpt>
      <trkpt lat="59.404640989378095" lon="14.000780945643783">
        <ele>49.72</ele>
        <time>2025-02-19T14:43:46.967Z</time>
      </trkpt>
      <trkpt lat="59.404726987704635" lon="14.000801984220743">
        <ele>49.71</ele>
        <time>2025-02-19T14:44:46.992Z</time>
      </trkpt>
      <trkpt lat="59.404813991859555" lon="14.000823944807053">
        <ele>49.71</ele>
        <time>2025-02-19T14:45:47.019Z</time>
      </trkpt>
      <trkpt lat="59.404900996014476" lon="14.000843977555633">
        <ele>49.7</ele>
        <time>2025-02-19T14:46:47.047Z</time>
      </trkpt>
      <trkpt lat="59.404987916350365" lon="14.000865938141942">
        <ele>49.7</ele>
        <time>2025-02-19T14:47:47.077Z</time>
      </trkpt>
      <trkpt lat="59.405074920505285" lon="14.000887982547283">
        <ele>49.69</ele>
        <time>2025-02-19T14:48:47.108Z</time>
      </trkpt>
      <trkpt lat="59.405162930488586" lon="14.000911954790354">
        <ele>49.69</ele>
        <time>2025-02-19T14:49:47.140Z</time>
      </trkpt>
      <trkpt lat="59.40525194630027" lon="14.000934921205044">
        <ele>49.7</ele>
        <time>2025-02-19T14:50:47.174Z</time>
      </trkpt>
      <trkpt lat="59.40534096211195" lon="14.000959983095527">
        <ele>49.7</ele>
        <time>2025-02-19T14:51:47.209Z</time>
      </trkpt>
      <trkpt lat="59.40542997792363" lon="14.000986972823739">
        <ele>49.71</ele>
        <time>2025-02-19T14:52:47.246Z</time>
      </trkpt>
      <trkpt lat="59.40551899373531" lon="14.00101295672357">
        <ele>49.72</ele>
        <time>2025-02-19T14:53:47.284Z</time>
      </trkpt>
      <trkpt lat="59.405608931556344" lon="14.001037934795022">
        <ele>49.73</ele>
        <time>2025-02-19T14:54:47.324Z</time>
      </trkpt>
      <trkpt lat="59.405697947368026" lon="14.001063918694854">
        <ele>49.73</ele>
        <time>2025-02-19T14:55:47.365Z</time>
      </trkpt>
      <trkpt lat="59.40578696317971" lon="14.001090992242098">
        <ele>49.74</ele>
        <time>2025-02-19T14:56:47.407Z</time>
      </trkpt>
      <trkpt lat="59.40587497316301" lon="14.00111697614193">
        <ele>49.76</ele>
        <time>2025-02-19T14:57:47.451Z</time>
      </trkpt>
      <trkpt lat="59.40596197731793" lon="14.001144971698523">
        <ele>49.77</ele>
        <time>2025-02-19T14:58:47.496Z</time>
      </trkpt>
      <trkpt lat="59.40604998730123" lon="14.001171961426735">
        <ele>49.78</ele>
        <time>2025-02-19T14:59:47.543Z</time>
      </trkpt>
      <trkpt lat="59.40613598562777" lon="14.001197945326567">
        <ele>49.8</ele>
        <time>2025-02-19T15:00:47.591Z</time>
      </trkpt>
      <trkpt lat="59.40622298978269" lon="14.00122594088316">
        <ele>49.82</ele>
        <time>2025-02-19T15:01:47.641Z</time>
      </trkpt>
      <trkpt lat="59.40630999393761" lon="14.001257959753275">
        <ele>49.84</ele>
        <time>2025-02-19T15:02:47.692Z</time>
      </trkpt>
      <trkpt lat="59.40639699809253" lon="14.00128897279501">
        <ele>49.86</ele>
        <time>2025-02-19T15:03:47.744Z</time>
      </trkpt>
      <trkpt lat="59.40648391842842" lon="14.001319985836744">
        <ele>49.88</ele>
        <time>2025-02-19T15:04:47.798Z</time>
      </trkpt>
      <trkpt lat="59.40656991675496" lon="14.001353932544589">
        <ele>49.91</ele>
        <time>2025-02-19T15:05:47.853Z</time>
      </trkpt>
      <trkpt lat="59.40665499307215" lon="14.001394920051098">
        <ele>49.93</ele>
        <time>2025-02-19T15:06:47.910Z</time>
      </trkpt>
      <trkpt lat="59.40673897974193" lon="14.00144093669951">
        <ele>49.96</ele>
        <time>2025-02-19T15:07:47.968Z</time>
      </trkpt>
      <trkpt lat="59.40682296641171" lon="14.001487959176302">
        <ele>49.99</ele>
        <time>2025-02-19T15:08:48.027Z</time>
      </trkpt>
      <trkpt lat="59.40690494142473" lon="14.001534981653094">
        <ele>50.02</ele>
        <time>2025-02-19T15:09:48.088Z</time>
      </trkpt>
      <trkpt lat="59.406986916437745" lon="14.001582926139235">
        <ele>50.06</ele>
        <time>2025-02-19T15:10:48.150Z</time>
      </trkpt>
      <trkpt lat="59.407068975269794" lon="14.00163296610117">
        <ele>50.09</ele>
        <time>2025-02-19T15:11:48.214Z</time>
      </trkpt>
      <trkpt lat="59.40714994445443" lon="14.001682922244072">
        <ele>50.13</ele>
        <time>2025-02-19T15:12:48.279Z</time>
      </trkpt>
      <trkpt lat="59.40723191946745" lon="14.001734973862767">
        <ele>50.16</ele>
        <time>2025-02-19T15:13:48.345Z</time>
      </trkpt>
      <trkpt lat="59.4073139782995" lon="14.00178593583405">
        <ele>50.2</ele>
        <time>2025-02-19T15:14:48.413Z</time>
      </trkpt>
      <trkpt lat="59.407395953312516" lon="14.001836981624365">
        <ele>50.24</ele>
        <time>2025-02-19T15:15:48.482Z</time>
      </trkpt>
      <trkpt lat="59.407479939982295" lon="14.001887943595648">
        <ele>50.29</ele>
        <time>2025-02-19T15:16:48.552Z</time>
      </trkpt>
      <trkpt lat="59.40756292082369" lon="14.001938989385962">
        <ele>50.33</ele>
        <time>2025-02-19T15:17:48.624Z</time>
      </trkpt>
      <trkpt lat="59.40764598548412" lon="14.001990957185626">
        <ele>50.38</ele>
        <time>2025-02-19T15:18:48.697Z</time>
      </trkpt>
      <trkpt lat="59.4077299721539" lon="14.00204292498529">
        <ele>50.43</ele>
        <time>2025-02-19T15:19:48.772Z</time>
      </trkpt>
      <trkpt lat="59.4078129529953" lon="14.002097994089127">
        <ele>50.48</ele>
        <time>2025-02-19T15:20:48.848Z</time>
      </trkpt>
      <trkpt lat="59.4078959338367" lon="14.002154991030693">
        <ele>50.53</ele>
        <time>2025-02-19T15:21:48.925Z</time>
      </trkpt>
      <trkpt lat="59.40797992050648" lon="14.00221299380064">
        <ele>50.58</ele>
        <time>2025-02-19T15:22:49.004Z</time>
      </trkpt>
      <trkpt lat="59.40806197933853" lon="14.002275941893458">
        <ele>50.63</ele>
        <time>2025-02-19T15:23:49.084Z</time>
      </trkpt>
      <trkpt lat="59.408142948523164" lon="14.00234299711883">
        <ele>50.69</ele>
        <time>2025-02-19T15:24:49.166Z</time>
      </trkpt>
      <trkpt lat="59.40822299569845" lon="14.002413991838694">
        <ele>50.74</ele>
        <time>2025-02-19T15:25:49.249Z</time>
      </trkpt>
      <trkpt lat="59.40830295905471" lon="14.002485992386937">
        <ele>50.8</ele>
        <time>2025-02-19T15:26:49.334Z</time>
      </trkpt>
      <trkpt lat="59.408380994573236" lon="14.002558998763561">
        <ele>50.85</ele>
        <time>2025-02-19T15:27:49.420Z</time>
      </trkpt>
      <trkpt lat="59.40845995210111" lon="14.002630999311805">
        <ele>50.91</ele>
        <time>2025-02-19T15:28:49.507Z</time>
      </trkpt>
      <trkpt lat="59.40853899344802" lon="14.002698976546526">
        <ele>50.97</ele>
        <time>2025-02-19T15:29:49.596Z</time>
      </trkpt>
      <trkpt lat="59.408617950975895" lon="14.002765947952867">
        <ele>51.04</ele>
        <time>2025-02-19T15:30:49.686Z</time>
      </trkpt>
      <trkpt lat="59.40869799815118" lon="14.002831997349858">
        <ele>51.11</ele>
        <time>2025-02-19T15:31:49.777Z</time>
      </trkpt>
      <trkpt lat="59.40877695567906" lon="14.002896957099438">
        <ele>51.17</ele>
        <time>2025-02-19T15:32:49.870Z</time>
      </trkpt>
      <trkpt lat="59.408856919035316" lon="14.002958983182907">
        <ele>51.24</ele>
        <time>2025-02-19T15:33:49.964Z</time>
      </trkpt>
      <trkpt lat="59.408937972038984" lon="14.003018997609615">
        <ele>51.31</ele>
        <time>2025-02-19T15:34:50.060Z</time>
      </trkpt>
      <trkpt lat="59.409019947052" lon="14.003075994551182">
        <ele>51.38</ele>
        <time>2025-02-19T15:35:50.157Z</time>
      </trkpt>
      <trkpt lat="59.40910192206502" lon="14.003129974007607">
        <ele>51.45</ele>
        <time>2025-02-19T15:36:50.255Z</time>
      </trkpt>
      <trkpt lat="59.40918498672545" lon="14.003179930150509">
        <ele>51.52</ele>
        <time>2025-02-19T15:37:50.355Z</time>
      </trkpt>
      <trkpt lat="59.40926796756685" lon="14.00322594679892">
        <ele>51.59</ele>
        <time>2025-02-19T15:38:50.456Z</time>
      </trkpt>
      <trkpt lat="59.40935195423663" lon="14.003270957618952">
        <ele>51.67</ele>
        <time>2025-02-19T15:39:50.559Z</time>
      </trkpt>
      <trkpt lat="59.409436946734786" lon="14.003314962610602">
        <ele>51.74</ele>
        <time>2025-02-19T15:40:50.663Z</time>
      </trkpt>
      <trkpt lat="59.409522945061326" lon="14.003358967602253">
        <ele>51.82</ele>
        <time>2025-02-19T15:41:50.768Z</time>
      </trkpt>
      <trkpt lat="59.409608943387866" lon="14.003401966765523">
        <ele>51.9</ele>
        <time>2025-02-19T15:42:50.875Z</time>
      </trkpt>
      <trkpt lat="59.40969594754279" lon="14.003442954272032">
        <ele>51.98</ele>
        <time>2025-02-19T15:43:50.983Z</time>
      </trkpt>
      <trkpt lat="59.40978194586933" lon="14.003484947606921">
        <ele>52.06</ele>
        <time>2025-02-19T15:44:51.093Z</time>
      </trkpt>
      <trkpt lat="59.40986995585263" lon="14.003527946770191">
        <ele>52.14</ele>
        <time>2025-02-19T15:45:51.204Z</time>
      </trkpt>
      <trkpt lat="59.40995696000755" lon="14.003572957590222">
        <ele>52.22</ele>
        <time>2025-02-19T15:46:51.317Z</time>
      </trkpt>
      <trkpt lat="59.41004396416247" lon="14.003617968410254">
        <ele>52.31</ele>
        <time>2025-02-19T15:47:51.431Z</time>
      </trkpt>
      <trkpt lat="59.41013197414577" lon="14.003665996715426">
        <ele>52.39</ele>
        <time>2025-02-19T15:48:51.547Z</time>
      </trkpt>
      <trkpt lat="59.41021897830069" lon="14.00371796451509">
        <ele>52.48</ele>
        <time>2025-02-19T15:49:51.664Z</time>
      </trkpt>
      <trkpt lat="59.41030598245561" lon="14.003772949799895">
        <ele>52.57</ele>
        <time>2025-02-19T15:50:51.782Z</time>
      </trkpt>
      <trkpt lat="59.41039198078215" lon="14.003830952569842">
        <ele>52.65</ele>
        <time>2025-02-19T15:51:51.902Z</time>
      </trkpt>
      <trkpt lat="59.41047797910869" lon="14.003892978653312">
        <ele>52.74</ele>
        <time>2025-02-19T15:52:52.023Z</time>
      </trkpt>
      <trkpt lat="59.41056196577847" lon="14.003958944231272">
        <ele>52.83</ele>
        <time>2025-02-19T15:53:52.146Z</time>
      </trkpt>
      <trkpt lat="59.41064595244825" lon="14.004029938951135">
        <ele>52.92</ele>
        <time>2025-02-19T15:54:52.270Z</time>
      </trkpt>
      <trkpt lat="59.410726921632886" lon="14.004106968641281">
        <ele>53.02</ele>
        <time>2025-02-19T15:55:52.396Z</time>
      </trkpt>
      <trkpt lat="59.410806968808174" lon="14.00419196113944">
        <ele>53.12</ele>
        <time>2025-02-19T15:56:52.523Z</time>
      </trkpt>
      <trkpt lat="59.41088592633605" lon="14.004280976951122">
        <ele>53.21</ele>
        <time>2025-02-19T15:57:52.652Z</time>
      </trkpt>
      <trkpt lat="59.41096396185458" lon="14.004368986934423">
        <ele>53.31</ele>
        <time>2025-02-19T15:58:52.782Z</time>
      </trkpt>
      <trkpt lat="59.41104291938245" lon="14.004454985260963">
        <ele>53.41</ele>
        <time>2025-02-19T15:59:52.914Z</time>
      </trkpt>
      <trkpt lat="59.41112296655774" lon="14.004538971930742">
        <ele>53.51</ele>
        <time>2025-02-19T16:00:53.047Z</time>
      </trkpt>
      <trkpt lat="59.41120393574238" lon="14.004618935286999">
        <ele>53.61</ele>
        <time>2025-02-19T16:01:53.181Z</time>
      </trkpt>
      <trkpt lat="59.41128691658378" lon="14.004691941663623">
        <ele>53.72</ele>
        <time>2025-02-19T16:02:53.317Z</time>
      </trkpt>
      <trkpt lat="59.41137199290097" lon="14.004754973575473">
        <ele>53.82</ele>
        <time>2025-02-19T16:03:53.454Z</time>
      </trkpt>
      <trkpt lat="59.41145799122751" lon="14.004809958860278">
        <ele>53.93</ele>
        <time>2025-02-19T16:04:53.593Z</time>
      </trkpt>
      <trkpt lat="59.41154499538243" lon="14.004857987165451">
        <ele>54.04</ele>
        <time>2025-02-19T16:05:53.733Z</time>
      </trkpt>
      <trkpt lat="59.41163199953735" lon="14.00489998050034">
        <ele>54.15</ele>
        <time>2025-02-19T16:06:53.875Z</time>
      </trkpt>
      <trkpt lat="59.41171891987324" lon="14.004937950521708">
        <ele>54.26</ele>
        <time>2025-02-19T16:07:54.018Z</time>
      </trkpt>
      <trkpt lat="59.41180692985654" lon="14.004973992705345">
        <ele>54.37</ele>
        <time>2025-02-19T16:08:54.163Z</time>
      </trkpt>
      <trkpt lat="59.41189594566822" lon="14.0050039999187">
        <ele>54.48</ele>
        <time>2025-02-19T16:09:54.309Z</time>
      </trkpt>
      <trkpt lat="59.41198596730828" lon="14.00502696633339">
        <ele>54.59</ele>
        <time>2025-02-19T16:10:54.456Z</time>
      </trkpt>
      <trkpt lat="59.412075988948345" lon="14.005039958283305">
        <ele>54.71</ele>
        <time>2025-02-19T16:11:54.605Z</time>
      </trkpt>
      <trkpt lat="59.412164920940995" lon="14.005042975768447">
        <ele>54.83</ele>
        <time>2025-02-19T16:12:54.755Z</time>
      </trkpt>
      <trkpt lat="59.41225494258106" lon="14.005036940798163">
        <ele>54.94</ele>
        <time>2025-02-19T16:13:54.907Z</time>
      </trkpt>
      <trkpt lat="59.41234496422112" lon="14.005023948848248">
        <ele>55.06</ele>
        <time>2025-02-19T16:14:55.060Z</time>
      </trkpt>
      <trkpt lat="59.4124339800328" lon="14.005005927756429">
        <ele>55.18</ele>
        <time>2025-02-19T16:15:55.215Z</time>
      </trkpt>
      <trkpt lat="59.41252299584448" lon="14.0049849729985">
        <ele>55.29</ele>
        <time>2025-02-19T16:16:55.371Z</time>
      </trkpt>
      <trkpt lat="59.41261092200875" lon="14.004961922764778">
        <ele>55.41</ele>
        <time>2025-02-19T16:17:55.529Z</time>
      </trkpt>
      <trkpt lat="59.41269792616367" lon="14.004937950521708">
        <ele>55.53</ele>
        <time>2025-02-19T16:18:55.688Z</time>
      </trkpt>
      <trkpt lat="59.41278392449021" lon="14.004911966621876">
        <ele>55.65</ele>
        <time>2025-02-19T16:19:55.848Z</time>
      </trkpt>
      <trkpt lat="59.41286992281675" lon="14.004887994378805">
        <ele>55.78</ele>
        <time>2025-02-19T16:20:56.010Z</time>
      </trkpt>
      <trkpt lat="59.41295592114329" lon="14.004866955801845">
        <ele>55.9</ele>
        <time>2025-02-19T16:21:56.173Z</time>
      </trkpt>
      <trkpt lat="59.41304191946983" lon="14.004847928881645">
        <ele>56.03</ele>
        <time>2025-02-19T16:22:56.338Z</time>
      </trkpt>
      <trkpt lat="59.413126995787024" lon="14.004827979952097">
        <ele>56.15</ele>
        <time>2025-02-19T16:23:56.504Z</time>
      </trkpt>
      <trkpt lat="59.413211988285184" lon="14.004807947203517">
        <ele>56.27</ele>
        <time>2025-02-19T16:24:56.671Z</time>
      </trkpt>
      <trkpt lat="59.413297986611724" lon="14.004790931940079">
        <ele>56.4</ele>
        <time>2025-02-19T16:25:56.840Z</time>
      </trkpt>
      <trkpt lat="59.413383984938264" lon="14.004777939990163">
        <ele>56.53</ele>
        <time>2025-02-19T16:26:57.010Z</time>
      </trkpt>
      <trkpt lat="59.413470989093184" lon="14.004767965525389">
        <ele>56.65</ele>
        <time>2025-02-19T16:27:57.181Z</time>
      </trkpt>
      <trkpt lat="59.413558999076486" lon="14.004762936383486">
        <ele>56.78</ele>
        <time>2025-02-19T16:28:57.354Z</time>
      </trkpt>
      <trkpt lat="59.413646925240755" lon="14.004763942211866">
        <ele>56.91</ele>
        <time>2025-02-19T16:29:57.528Z</time>
      </trkpt>
      <trkpt lat="59.413734935224056" lon="14.00477391667664">
        <ele>57.03</ele>
        <time>2025-02-19T16:30:57.704Z</time>
      </trkpt>
      <trkpt lat="59.41382395103574" lon="14.004790931940079">
        <ele>57.16</ele>
        <time>2025-02-19T16:31:57.881Z</time>
      </trkpt>
      <trkpt lat="59.41391296684742" lon="14.004816999658942">
        <ele>57.29</ele>
        <time>2025-02-19T16:32:58.060Z</time>
      </trkpt>
      <trkpt lat="59.4140019826591" lon="14.004847928881645">
        <ele>57.42</ele>
        <time>2025-02-19T16:33:58.240Z</time>
      </trkpt>
      <trkpt lat="59.41408898681402" lon="14.004882965236902">
        <ele>57.56</ele>
        <time>2025-02-19T16:34:58.421Z</time>
      </trkpt>
      <trkpt lat="59.41417498514056" lon="14.00492194108665">
        <ele>57.69</ele>
        <time>2025-02-19T16:35:58.604Z</time>
      </trkpt>
      <trkpt lat="59.41425897181034" lon="14.004961922764778">
        <ele>57.82</ele>
        <time>2025-02-19T16:36:58.788Z</time>
      </trkpt>
      <trkpt lat="59.41434195265174" lon="14.005002994090319">
        <ele>57.95</ele>
        <time>2025-02-19T16:37:58.974Z</time>
      </trkpt>
      <trkpt lat="59.414422921836376" lon="14.005043981596828">
        <ele>58.08</ele>
        <time>2025-02-19T16:38:59.161Z</time>
      </trkpt>
      <trkpt lat="59.414502969011664" lon="14.005084969103336">
        <ele>58.22</ele>
        <time>2025-02-19T16:39:59.349Z</time>
      </trkpt>
      <trkpt lat="59.41458092071116" lon="14.005124950781465">
        <ele>58.36</ele>
        <time>2025-02-19T16:40:59.539Z</time>
      </trkpt>
      <trkpt lat="59.414655938744545" lon="14.005163926631212">
        <ele>58.5</ele>
        <time>2025-02-19T16:41:59.730Z</time>
      </trkpt>
      <trkpt lat="59.41472894512117" lon="14.005201980471611">
        <ele>58.63</ele>
        <time>2025-02-19T16:42:59.922Z</time>
      </trkpt>
      <trkpt lat="59.41480094566941" lon="14.005237938836217">
        <ele>58.77</ele>
        <time>2025-02-19T16:44:00.115Z</time>
      </trkpt>
      <trkpt lat="59.414868922904134" lon="14.005273981019855">
        <ele>58.9</ele>
        <time>2025-02-19T16:45:00.309Z</time>
      </trkpt>
      <trkpt lat="59.414933966472745" lon="14.0053079277277">
        <ele>59.03</ele>
        <time>2025-02-19T16:46:00.504Z</time>
      </trkpt>
      <trkpt lat="59.414995992556214" lon="14.005339946597815">
        <ele>59.16</ele>
        <time>2025-02-19T16:47:00.700Z</time>
      </trkpt>
      <trkpt lat="59.41505491733551" lon="14.00537095963955">
        <ele>59.29</ele>
        <time>2025-02-19T16:48:00.897Z</time>
      </trkpt>
      <trkpt lat="59.41511099226773" lon="14.005400966852903">
        <ele>59.42</ele>
        <time>2025-02-19T16:49:01.095Z</time>
      </trkpt>
      <trkpt lat="59.41516597755253" lon="14.005428962409496">
        <ele>59.55</ele>
        <time>2025-02-19T16:50:01.294Z</time>
      </trkpt>
      <trkpt lat="59.41521895118058" lon="14.005454946309328">
        <ele>59.68</ele>
        <time>2025-02-19T16:51:01.494Z</time>
      </trkpt>
      <trkpt lat="59.41527091898024" lon="14.00547799654305">
        <ele>59.81</ele>
        <time>2025-02-19T16:52:01.695Z</time>
      </trkpt>
      <trkpt lat="59.415319953113794" lon="14.00550196878612">
        <ele>59.93</ele>
        <time>2025-02-19T16:53:01.897Z</time>
      </trkpt>
      <trkpt lat="59.415365969762206" lon="14.005526946857572">
        <ele>60.06</ele>
        <time>2025-02-19T16:54:02.100Z</time>
      </trkpt>
      <trkpt lat="59.41541098058224" lon="14.005550919100642">
        <ele>60.18</ele>
        <time>2025-02-19T16:55:02.303Z</time>
      </trkpt>
      <trkpt lat="59.41545498557389" lon="14.00556793436408">
        <ele>60.3</ele>
        <time>2025-02-19T16:56:02.507Z</time>
      </trkpt>
      <trkpt lat="59.41549999639392" lon="14.005581932142377">
        <ele>60.42</ele>
        <time>2025-02-19T16:57:02.712Z</time>
      </trkpt>
      <trkpt lat="59.41554098390043" lon="14.005599953234196">
        <ele>60.53</ele>
        <time>2025-02-19T16:58:02.917Z</time>
      </trkpt>
      <trkpt lat="59.41558197140694" lon="14.005617974326015">
        <ele>60.65</ele>
        <time>2025-02-19T16:59:03.123Z</time>
      </trkpt>
      <trkpt lat="59.415622958913445" lon="14.005636917427182">
        <ele>60.76</ele>
        <time>2025-02-19T17:00:03.330Z</time>
      </trkpt>
      <trkpt lat="59.415663946419954" lon="14.005658961832523">
        <ele>60.88</ele>
        <time>2025-02-19T17:01:03.537Z</time>
      </trkpt>
      <trkpt lat="59.415708957239985" lon="14.005682934075594">
        <ele>60.99</ele>
        <time>2025-02-19T17:02:03.745Z</time>
      </trkpt>
      <trkpt lat="59.4157549738884" lon="14.005707995966077">
        <ele>61.1</ele>
        <time>2025-02-19T17:03:03.954Z</time>
      </trkpt>
      <trkpt lat="59.41580199636519" lon="14.00573498569429">
        <ele>61.21</ele>
        <time>2025-02-19T17:04:04.164Z</time>
      </trkpt>
      <trkpt lat="59.41584994085133" lon="14.005763987079263">
        <ele>61.32</ele>
        <time>2025-02-19T17:05:04.375Z</time>
      </trkpt>
      <trkpt lat="59.415897969156504" lon="14.005787959322333">
        <ele>61.42</ele>
        <time>2025-02-19T17:06:04.586Z</time>
      </trkpt>
      <trkpt lat="59.415944991633296" lon="14.005815954878926">
        <ele>61.52</ele>
        <time>2025-02-19T17:07:04.798Z</time>
      </trkpt>
      <trkpt lat="59.41599394194782" lon="14.005847973749042">
        <ele>61.62</ele>
        <time>2025-02-19T17:08:05.011Z</time>
      </trkpt>
      <trkpt lat="59.41604498773813" lon="14.005876975134015">
        <ele>61.72</ele>
        <time>2025-02-19T17:09:05.225Z</time>
      </trkpt>
      <trkpt lat="59.41609796136618" lon="14.005900947377086">
        <ele>61.82</ele>
        <time>2025-02-19T17:10:05.440Z</time>
      </trkpt>
      <trkpt lat="59.4161519408226" lon="14.005921985954046">
        <ele>61.9</ele>
        <time>2025-02-19T17:11:05.656Z</time>
      </trkpt>
      <trkpt lat="59.41620793193579" lon="14.005940929055214">
        <ele>61.99</ele>
        <time>2025-02-19T17:12:05.873Z</time>
      </trkpt>
      <trkpt lat="59.416265934705734" lon="14.005965990945697">
        <ele>62.08</ele>
        <time>2025-02-19T17:13:06.090Z</time>
      </trkpt>
      <trkpt lat="59.416331984102726" lon="14.005989963188767">
        <ele>62.16</ele>
        <time>2025-02-19T17:14:06.309Z</time>
      </trkpt>
      <trkpt lat="59.416396943852305" lon="14.006012929603457">
        <ele>62.24</ele>
        <time>2025-02-19T17:15:06.529Z</time>
      </trkpt>
      <trkpt lat="59.41646793857217" lon="14.006033968180418">
        <ele>62.32</ele>
        <time>2025-02-19T17:16:06.750Z</time>
      </trkpt>
      <trkpt lat="59.41653499379754" lon="14.00605995208025">
        <ele>62.4</ele>
        <time>2025-02-19T17:17:06.972Z</time>
      </trkpt>
      <trkpt lat="59.416606994345784" lon="14.006086941808462">
        <ele>62.48</ele>
        <time>2025-02-19T17:18:07.195Z</time>
      </trkpt>
      <trkpt lat="59.41667899489403" lon="14.006111919879913">
        <ele>62.56</ele>
        <time>2025-02-19T17:19:07.419Z</time>
      </trkpt>
      <trkpt lat="59.41675099544227" lon="14.006136981770396">
        <ele>62.65</ele>
        <time>2025-02-19T17:20:07.644Z</time>
      </trkpt>
      <trkpt lat="59.416824923828244" lon="14.006161959841847">
        <ele>62.73</ele>
        <time>2025-02-19T17:21:07.871Z</time>
      </trkpt>
      <trkpt lat="59.41689893603325" lon="14.006183920428157">
        <ele>62.81</ele>
        <time>2025-02-19T17:22:08.099Z</time>
      </trkpt>
      <trkpt lat="59.416974959895015" lon="14.006206970661879">
        <ele>62.89</ele>
        <time>2025-02-19T17:23:08.328Z</time>
      </trkpt>
      <trkpt lat="59.41705198958516" lon="14.00623295456171">
        <ele>62.97</ele>
        <time>2025-02-19T17:24:08.558Z</time>
      </trkpt>
      <trkpt lat="59.41712994128466" lon="14.006258938461542">
        <ele>63.05</ele>
        <time>2025-02-19T17:25:08.790Z</time>
      </trkpt>
      <trkpt lat="59.417208982631564" lon="14.006282994523644">
        <ele>63.13</ele>
        <time>2025-02-19T17:26:09.023Z</time>
      </trkpt>
      <trkpt lat="59.4172899518162" lon="14.006308978423476">
        <ele>63.2</ele>
        <time>2025-02-19T17:27:09.257Z</time>
      </trkpt>
      <trkpt lat="59.41737393848598" lon="14.00633697398007">
        <ele>63.28</ele>
        <time>2025-02-19T17:28:09.493Z</time>
      </trkpt>
      <trkpt lat="59.41745792515576" lon="14.006365975365043">
        <ele>63.35</ele>
        <time>2025-02-19T17:29:09.730Z</time>
      </trkpt>
      <trkpt lat="59.41754291765392" lon="14.006395982578397">
        <ele>63.43</ele>
        <time>2025-02-19T17:30:09.968Z</time>
      </trkpt>
      <trkpt lat="59.41762799397111" lon="14.00642498396337">
        <ele>63.5</ele>
        <time>2025-02-19T17:31:10.208Z</time>
      </trkpt>
      <trkpt lat="59.41771298646927" lon="14.006450967863202">
        <ele>63.58</ele>
        <time>2025-02-19T17:32:10.449Z</time>
      </trkpt>
      <trkpt lat="59.41779797896743" lon="14.006475945934653">
        <ele>63.65</ele>
        <time>2025-02-19T17:33:10.691Z</time>
      </trkpt>
      <trkpt lat="59.41788498312235" lon="14.006500924006104">
        <ele>63.73</ele>
        <time>2025-02-19T17:34:10.935Z</time>
      </trkpt>
      <trkpt lat="59.41797098144889" lon="14.006527997553349">
        <ele>63.81</ele>
        <time>2025-02-19T17:35:11.180Z</time>
      </trkpt>
      <trkpt lat="59.41805697977543" lon="14.006554987281561">
        <ele>63.88</ele>
        <time>2025-02-19T17:36:11.427Z</time>
      </trkpt>
      <trkpt lat="59.41814297810197" lon="14.006580971181393">
        <ele>63.95</ele>
        <time>2025-02-19T17:37:11.675Z</time>
      </trkpt>
      <trkpt lat="59.41822998225689" lon="14.006605949252844">
        <ele>64.02</ele>
        <time>2025-02-19T17:38:11.924Z</time>
      </trkpt>
      <trkpt lat="59.41831698641181" lon="14.006634950637817">
        <ele>64.09</ele>
        <time>2025-02-19T17:39:12.175Z</time>
      </trkpt>
      <trkpt lat="59.41840499639511" lon="14.006666969507933">
        <ele>64.15</ele>
        <time>2025-02-19T17:40:12.427Z</time>
      </trkpt>
      <trkpt lat="59.41849493421614" lon="14.006701922044158">
        <ele>64.22</ele>
        <time>2025-02-19T17:41:12.681Z</time>
      </trkpt>
      <trkpt lat="59.418584955856204" lon="14.006742993369699">
        <ele>64.28</ele>
        <time>2025-02-19T17:42:12.936Z</time>
      </trkpt>
      <trkpt lat="59.418674977496266" lon="14.006785992532969">
        <ele>64.34</ele>
        <time>2025-02-19T17:43:13.193Z</time>
      </trkpt>
      <trkpt lat="59.41876692697406" lon="14.00683393701911">
        <ele>64.4</ele>
        <time>2025-02-19T17:44:13.451Z</time>
      </trkpt>
      <trkpt lat="59.41885896027088" lon="14.006884982809424">
        <ele>64.46</ele>
        <time>2025-02-19T17:45:13.711Z</time>
      </trkpt>
      <trkpt lat="59.418950993567705" lon="14.006936950609088">
        <ele>64.53</ele>
        <time>2025-02-19T17:46:13.972Z</time>
      </trkpt>
      <trkpt lat="59.4190429430455" lon="14.006987996399403">
        <ele>64.59</ele>
        <time>2025-02-19T17:47:14.235Z</time>
      </trkpt>
      <trkpt lat="59.41913497634232" lon="14.007038958370686">
        <ele>64.66</ele>
        <time>2025-02-19T17:48:14.499Z</time>
      </trkpt>
      <trkpt lat="59.41922591999173" lon="14.007084975019097">
        <ele>64.72</ele>
        <time>2025-02-19T17:49:14.765Z</time>
      </trkpt>
      <trkpt lat="59.419316947460175" lon="14.007129985839128">
        <ele>64.79</ele>
        <time>2025-02-19T17:50:15.032Z</time>
      </trkpt>
      <trkpt lat="59.41940797492862" lon="14.007173990830779">
        <ele>64.85</ele>
        <time>2025-02-19T17:51:15.301Z</time>
      </trkpt>
      <trkpt lat="59.41949992440641" lon="14.007213972508907">
        <ele>64.92</ele>
        <time>2025-02-19T17:52:15.571Z</time>
      </trkpt>
      <trkpt lat="59.41959095187485" lon="14.007252948358655">
        <ele>64.98</ele>
        <time>2025-02-19T17:53:15.843Z</time>
      </trkpt>
      <trkpt lat="59.419681979343295" lon="14.007290918380022">
        <ele>65.05</ele>
        <time>2025-02-19T17:54:16.116Z</time>
      </trkpt>
      <trkpt lat="59.41977392882109" lon="14.007331989705563">
        <ele>65.12</ele>
        <time>2025-02-19T17:55:16.391Z</time>
      </trkpt>
      <trkpt lat="59.41986495628953" lon="14.007372977212071">
        <ele>65.18</ele>
        <time>2025-02-19T17:56:16.667Z</time>
      </trkpt>
      <trkpt lat="59.41995698958635" lon="14.007411953061819">
        <ele>65.25</ele>
        <time>2025-02-19T17:57:16.945Z</time>
      </trkpt>
      <trkpt lat="59.420047933235765" lon="14.007446989417076">
        <ele>65.31</ele>
        <time>2025-02-19T17:58:17.224Z</time>
      </trkpt>
      <trkpt lat="59.42013896070421" lon="14.007473979145288">
        <ele>65.38</ele>
        <time>2025-02-19T17:59:17.505Z</time>
      </trkpt>
      <trkpt lat="59.42022797651589" lon="14.007492922246456">
        <ele>65.44</ele>
        <time>2025-02-19T18:00:17.787Z</time>
      </trkpt>
      <trkpt lat="59.42031498067081" lon="14.007501974701881">
        <ele>65.51</ele>
        <time>2025-02-19T18:01:18.071Z</time>
      </trkpt>
      <trkpt lat="59.42039896734059" lon="14.00749895721674">
        <ele>65.57</ele>
        <time>2025-02-19T18:02:18.356Z</time>
      </trkpt>
      <trkpt lat="59.420478930696845" lon="14.007477918639779">
        <ele>65.63</ele>
        <time>2025-02-19T18:03:18.642Z</time>
      </trkpt>
      <trkpt lat="59.42055495455861" lon="14.007440954446793">
        <ele>65.7</ele>
        <time>2025-02-19T18:04:18.930Z</time>
      </trkpt>
      <trkpt lat="59.420628966763616" lon="14.007397955283523">
        <ele>65.77</ele>
        <time>2025-02-19T18:05:19.219Z</time>
      </trkpt>
      <trkpt lat="59.4206989556551" lon="14.00735093280673">
        <ele>65.83</ele>
        <time>2025-02-19T18:06:19.509Z</time>
      </trkpt>
      <trkpt lat="59.42076299339533" lon="14.007299970835447">
        <ele>65.9</ele>
        <time>2025-02-19T18:07:19.800Z</time>
      </trkpt>
      <trkpt lat="59.420823929831386" lon="14.007244985550642">
        <ele>65.96</ele>
        <time>2025-02-19T18:08:20.092Z</time>
      </trkpt>
      <trkpt lat="59.420883944258094" lon="14.007190922275186">
        <ele>66.03</ele>
        <time>2025-02-19T18:09:20.385Z</time>
      </trkpt>
      <trkpt lat="59.42094194702804" lon="14.007139960303903">
        <ele>66.1</ele>
        <time>2025-02-19T18:10:20.679Z</time>
      </trkpt>
      <trkpt lat="59.42099894396961" lon="14.007095955312252">
        <ele>66.17</ele>
        <time>2025-02-19T18:11:20.974Z</time>
      </trkpt>
      <trkpt lat="59.42105493508279" lon="14.007053961977363">
        <ele>66.23</ele>
        <time>2025-02-19T18:12:21.270Z</time>
      </trkpt>
      <trkpt lat="59.4211099203676" lon="14.007013980299234">
        <ele>66.29</ele>
        <time>2025-02-19T18:13:21.567Z</time>
      </trkpt>
      <trkpt lat="59.421165995299816" lon="14.006977938115597">
        <ele>66.36</ele>
        <time>2025-02-19T18:14:21.865Z</time>
      </trkpt>
      <trkpt lat="59.421221986413" lon="14.00694097392261">
        <ele>66.42</ele>
        <time>2025-02-19T18:15:22.164Z</time>
      </trkpt>
      <trkpt lat="59.42127697169781" lon="14.006907949224114">
        <ele>66.49</ele>
        <time>2025-02-19T18:16:22.464Z</time>
      </trkpt>
      <trkpt lat="59.42133095115423" lon="14.00687693618238">
        <ele>66.55</ele>
        <time>2025-02-19T18:17:22.765Z</time>
      </trkpt>
      <trkpt lat="59.42138199694455" lon="14.006847934797406">
        <ele>66.62</ele>
        <time>2025-02-19T18:18:23.067Z</time>
      </trkpt>
      <trkpt lat="59.42143295891583" lon="14.006819939240813">
        <ele>66.68</ele>
        <time>2025-02-19T18:19:23.370Z</time>
      </trkpt>
      <trkpt lat="59.42147998139262" lon="14.006792949512601">
        <ele>66.74</ele>
        <time>2025-02-19T18:20:23.673Z</time>
      </trkpt>
      <trkpt lat="59.421525998041034" lon="14.006765959784389">
        <ele>66.8</ele>
        <time>2025-02-19T18:21:23.977Z</time>
      </trkpt>
      <trkpt lat="59.42157092504203" lon="14.006741987541318">
        <ele>66.86</ele>
        <time>2025-02-19T18:22:24.282Z</time>
      </trkpt>
      <trkpt lat="59.4216139242053" lon="14.006714997813106">
        <ele>66.92</ele>
        <time>2025-02-19T18:23:24.588Z</time>
      </trkpt>
      <trkpt lat="59.42165591754019" lon="14.006684990599751">
        <ele>66.97</ele>
        <time>2025-02-19T18:24:24.894Z</time>
      </trkpt>
      <trkpt lat="59.421697994694114" lon="14.006652971729636">
        <ele>67.02</ele>
        <time>2025-02-19T18:25:25.201Z</time>
      </trkpt>
      <trkpt lat="59.421740993857384" lon="14.006615923717618">
        <ele>67.07</ele>
        <time>2025-02-19T18:26:25.509Z</time>
      </trkpt>
      <trkpt lat="59.42178592085838" lon="14.00657594203949">
        <ele>67.12</ele>
        <time>2025-02-19T18:27:25.818Z</time>
      </trkpt>
      <trkpt lat="59.421832943335176" lon="14.006526991724968">
        <ele>67.17</ele>
        <time>2025-02-19T18:28:26.127Z</time>
      </trkpt>
      <trkpt lat="59.42188197746873" lon="14.006472928449512">
        <ele>67.21</ele>
        <time>2025-02-19T18:29:26.437Z</time>
      </trkpt>
      <trkpt lat="59.42193092778325" lon="14.006416937336326">
        <ele>67.25</ele>
        <time>2025-02-19T18:30:26.748Z</time>
      </trkpt>
      <trkpt lat="59.421979961916804" lon="14.006354995071888">
        <ele>67.29</ele>
        <time>2025-02-19T18:31:27.060Z</time>
      </trkpt>
      <trkpt lat="59.42202899605036" lon="14.006286934018135">
        <ele>67.33</ele>
        <time>2025-02-19T18:32:27.373Z</time>
      </trkpt>
      <trkpt lat="59.4220769405365" lon="14.006217950955033">
        <ele>67.37</ele>
        <time>2025-02-19T18:33:27.687Z</time>
      </trkpt>
      <trkpt lat="59.422127986326814" lon="14.00614595040679">
        <ele>67.4</ele>
        <time>2025-02-19T18:34:28.002Z</time>
      </trkpt>
      <trkpt lat="59.42218095995486" lon="14.006073949858546">
        <ele>67.43</ele>
        <time>2025-02-19T18:35:28.318Z</time>
      </trkpt>
      <trkpt lat="59.42223292775452" lon="14.006005972623825">
        <ele>67.46</ele>
        <time>2025-02-19T18:36:28.635Z</time>
      </trkpt>
      <trkpt lat="59.42228699102998" lon="14.005939923226833">
        <ele>67.49</ele>
        <time>2025-02-19T18:37:28.953Z</time>
      </trkpt>
      <trkpt lat="59.4223409704864" lon="14.005874963477254">
        <ele>67.52</ele>
        <time>2025-02-19T18:38:29.272Z</time>
      </trkpt>
      <trkpt lat="59.42239394411445" lon="14.005814949050546">
        <ele>67.56</ele>
        <time>2025-02-19T18:39:29.592Z</time>
      </trkpt>
      <trkpt lat="59.42244892939925" lon="14.005760969594121">
        <ele>67.59</ele>
        <time>2025-02-19T18:40:29.913Z</time>
      </trkpt>
      <trkpt lat="59.42250399850309" lon="14.005710929632187">
        <ele>67.62</ele>
        <time>2025-02-19T18:41:30.235Z</time>
      </trkpt>
      <trkpt lat="59.422559989616275" lon="14.005665918812156">
        <ele>67.65</ele>
        <time>2025-02-19T18:42:30.558Z</time>
      </trkpt>
      <trkpt lat="59.42261698655784" lon="14.005627948790789">
        <ele>67.67</ele>
        <time>2025-02-19T18:43:30.882Z</time>
      </trkpt>
      <trkpt lat="59.42267498932779" lon="14.005599953234196">
        <ele>67.7</ele>
        <time>2025-02-19T18:44:31.207Z</time>
      </trkpt>
      <trkpt lat="59.422732992097735" lon="14.0055859554559">
        <ele>67.73</ele>
        <time>2025-02-19T18:45:31.533Z</time>
      </trkpt>
      <trkpt lat="59.4227899890393" lon="14.005588972941041">
        <ele>67.75</ele>
        <time>2025-02-19T18:46:31.860Z</time>
      </trkpt>
      <trkpt lat="59.422842962667346" lon="14.00560992769897">
        <ele>67.77</ele>
        <time>2025-02-19T18:47:32.188Z</time>
      </trkpt>
      <trkpt lat="59.42288998514414" lon="14.005639934912324">
        <ele>67.79</ele>
        <time>2025-02-19T18:48:32.517Z</time>
      </trkpt>
      <trkpt lat="59.42293197847903" lon="14.00567295961082">
        <ele>67.81</ele>
        <time>2025-02-19T18:49:32.846Z</time>
      </trkpt>
      <trkpt lat="59.422970954328775" lon="14.005705984309316">
        <ele>67.82</ele>
        <time>2025-02-19T18:50:33.176Z</time>
      </trkpt>
      <trkpt lat="59.42300791852176" lon="14.005740936845541">
        <ele>67.83</ele>
        <time>2025-02-19T18:51:33.507Z</time>
      </trkpt>
      <trkpt lat="59.42304496653378" lon="14.005774967372417">
        <ele>67.83</ele>
        <time>2025-02-19T18:52:33.838Z</time>
      </trkpt>
      <trkpt lat="59.423080924898386" lon="14.005807992070913">
        <ele>67.83</ele>
        <time>2025-02-19T18:53:34.170Z</time>
      </trkpt>
      <trkpt lat="59.423116967082024" lon="14.005838921293616">
        <ele>67.83</ele>
        <time>2025-02-19T18:54:34.503Z</time>
      </trkpt>
      <trkpt lat="59.42315493710339" lon="14.00586599484086">
        <ele>67.83</ele>
        <time>2025-02-19T18:55:34.836Z</time>
      </trkpt>
      <trkpt lat="59.42319399677217" lon="14.005890972912312">
        <ele>67.82</ele>
        <time>2025-02-19T18:56:35.170Z</time>
      </trkpt>
      <trkpt lat="59.42323297262192" lon="14.005917962640524">
        <ele>67.81</ele>
        <time>2025-02-19T18:57:35.505Z</time>
      </trkpt>
      <trkpt lat="59.423271948471665" lon="14.005943946540356">
        <ele>67.8</ele>
        <time>2025-02-19T18:58:35.840Z</time>
      </trkpt>
      <trkpt lat="59.423308996483684" lon="14.005966996774077">
        <ele>67.78</ele>
        <time>2025-02-19T18:59:36.176Z</time>
      </trkpt>
      <trkpt lat="59.42334897816181" lon="14.005984934046865">
        <ele>67.76</ele>
        <time>2025-02-19T19:00:36.512Z</time>
      </trkpt>
      <trkpt lat="59.42338795401156" lon="14.005998931825161">
        <ele>67.74</ele>
        <time>2025-02-19T19:01:36.849Z</time>
      </trkpt>
      <trkpt lat="59.42342592403293" lon="14.006008990108967">
        <ele>67.72</ele>
        <time>2025-02-19T19:02:37.187Z</time>
      </trkpt>
      <trkpt lat="59.42346598953009" lon="14.006009995937347">
        <ele>67.7</ele>
        <time>2025-02-19T19:03:37.525Z</time>
      </trkpt>
      <trkpt lat="59.423504965379834" lon="14.006007984280586">
        <ele>67.67</ele>
        <time>2025-02-19T19:04:37.864Z</time>
      </trkpt>
      <trkpt lat="59.42354394122958" lon="14.006000943481922">
        <ele>67.64</ele>
        <time>2025-02-19T19:05:38.204Z</time>
      </trkpt>
      <trkpt lat="59.4235809892416" lon="14.005990969017148">
        <ele>67.61</ele>
        <time>2025-02-19T19:06:38.544Z</time>
      </trkpt>
      <trkpt lat="59.423616947606206" lon="14.005977977067232">
        <ele>67.58</ele>
        <time>2025-02-19T19:07:38.885Z</time>
      </trkpt>
      <trkpt lat="59.42365491762757" lon="14.005965990945697">
        <ele>67.54</ele>
        <time>2025-02-19T19:08:39.226Z</time>
      </trkpt>
      <trkpt lat="59.42369397729635" lon="14.0059519931674">
        <ele>67.5</ele>
        <time>2025-02-19T19:09:39.568Z</time>
      </trkpt>
      <trkpt lat="59.42373395897448" lon="14.005934977903962">
        <ele>67.45</ele>
        <time>2025-02-19T19:10:39.911Z</time>
      </trkpt>
      <trkpt lat="59.42377997562289" lon="14.005913939327002">
        <ele>67.41</ele>
        <time>2025-02-19T19:11:40.254Z</time>
      </trkpt>
      <trkpt lat="59.42382498644292" lon="14.005890972912312">
        <ele>67.36</ele>
        <time>2025-02-19T19:12:40.598Z</time>
      </trkpt>
      <trkpt lat="59.42387695424259" lon="14.0058639831841">
        <ele>67.32</ele>
        <time>2025-02-19T19:13:40.943Z</time>
      </trkpt>
      <trkpt lat="59.42393294535577" lon="14.005832970142365">
        <ele>67.27</ele>
        <time>2025-02-19T19:14:41.289Z</time>
      </trkpt>
      <trkpt lat="59.42399497143924" lon="14.005795922130346">
        <ele>67.22</ele>
        <time>2025-02-19T19:15:41.636Z</time>
      </trkpt>
      <trkpt lat="59.42405791953206" lon="14.005756946280599">
        <ele>67.17</ele>
        <time>2025-02-19T19:16:41.984Z</time>
      </trkpt>
      <trkpt lat="59.42412195727229" lon="14.005711935460567">
        <ele>67.11</ele>
        <time>2025-02-19T19:17:42.333Z</time>
      </trkpt>
      <trkpt lat="59.424192951992154" lon="14.005661979317665">
        <ele>67.05</ele>
        <time>2025-02-19T19:18:42.683Z</time>
      </trkpt>
      <trkpt lat="59.424256989732385" lon="14.005613951012492">
        <ele>66.99</ele>
        <time>2025-02-19T19:19:43.035Z</time>
      </trkpt>
      <trkpt lat="59.42432094365358" lon="14.005558965727687">
        <ele>66.93</ele>
        <time>2025-02-19T19:20:43.388Z</time>
      </trkpt>
      <trkpt lat="59.42438296973705" lon="14.005494927987456">
        <ele>66.87</ele>
        <time>2025-02-19T19:21:43.742Z</time>
      </trkpt>
      <trkpt lat="59.42444591782987" lon="14.005426950752735">
        <ele>66.8</ele>
        <time>2025-02-19T19:22:44.097Z</time>
      </trkpt>
      <trkpt lat="59.42450593225658" lon="14.005355956032872">
        <ele>66.74</ele>
        <time>2025-02-19T19:23:44.453Z</time>
      </trkpt>
      <trkpt lat="59.424562929198146" lon="14.005281943827868">
        <ele>66.67</ele>
        <time>2025-02-19T19:24:44.810Z</time>
      </trkpt>
      <trkpt lat="59.424624955281615" lon="14.005208937451243">
        <ele>66.6</ele>
        <time>2025-02-19T19:25:45.168Z</time>
      </trkpt>
      <trkpt lat="59.424685975536704" lon="14.005138948559761">
        <ele>66.53</ele>
        <time>2025-02-19T19:26:45.527Z</time>
      </trkpt>
      <trkpt lat="59.42474892362952" lon="14.005068959668279">
        <ele>66.45</ele>
        <time>2025-02-19T19:27:45.888Z</time>
      </trkpt>
      <trkpt lat="59.42481296136975" lon="14.005001988261938">
        <ele>66.37</ele>
        <time>2025-02-19T19:28:46.250Z</time>
      </trkpt>
      <trkpt lat="59.42487699910998" lon="14.00494197383523">
        <ele>66.29</ele>
        <time>2025-02-19T19:29:46.613Z</time>
      </trkpt>
      <trkpt lat="59.4249399472028" lon="14.004881959408522">
        <ele>66.21</ele>
        <time>2025-02-19T19:30:46.977Z</time>
      </trkpt>
      <trkpt lat="59.42500398494303" lon="14.004826974123716">
        <ele>66.12</ele>
        <time>2025-02-19T19:31:47.342Z</time>
      </trkpt>
      <trkpt lat="59.425072968006134" lon="14.004777939990163">
        <ele>66.03</ele>
        <time>2025-02-19T19:32:47.708Z</time>
      </trkpt>
      <trkpt lat="59.42514597438276" lon="14.004731923341751">
        <ele>65.94</ele>
        <time>2025-02-19T19:33:48.076Z</time>
      </trkpt>
      <trkpt lat="59.42522996105254" lon="14.004685990512371">
        <ele>65.84</ele>
        <time>2025-02-19T19:34:48.445Z</time>
      </trkpt>
      <trkpt lat="59.42532098852098" lon="14.00464097969234">
        <ele>65.75</ele>
        <time>2025-02-19T19:35:48.815Z</time>
      </trkpt>
      <trkpt lat="59.425419978797436" lon="14.004603931680322">
        <ele>65.64</ele>
        <time>2025-02-19T19:36:49.187Z</time>
      </trkpt>
      <trkpt lat="59.425523998215795" lon="14.004575936123729">
        <ele>65.54</ele>
        <time>2025-02-19T19:37:49.561Z</time>
      </trkpt>
      <trkpt lat="59.425631957128644" lon="14.004552969709039">
        <ele>65.44</ele>
        <time>2025-02-19T19:38:49.936Z</time>
      </trkpt>
      <trkpt lat="59.425740921869874" lon="14.004529919475317">
        <ele>65.34</ele>
        <time>2025-02-19T19:39:50.313Z</time>
      </trkpt>
      <trkpt lat="59.4258519820869" lon="14.004506953060627">
        <ele>65.24</ele>
        <time>2025-02-19T19:40:50.692Z</time>
      </trkpt>
      <trkpt lat="59.42596295848489" lon="14.004486920312047">
        <ele>65.15</ele>
        <time>2025-02-19T19:41:51.073Z</time>
      </trkpt>
      <trkpt lat="59.42607695236802" lon="14.00446797721088">
        <ele>65.05</ele>
        <time>2025-02-19T19:42:51.456Z</time>
      </trkpt>
      <trkpt lat="59.42618994042277" lon="14.004454985260963">
        <ele>64.96</ele>
        <time>2025-02-19T19:43:51.840Z</time>
      </trkpt>
      <trkpt lat="59.426302928477526" lon="14.004451967775822">
        <ele>64.87</ele>
        <time>2025-02-19T19:44:52.226Z</time>
      </trkpt>
      <trkpt lat="59.42641298286617" lon="14.004461942240596">
        <ele>64.79</ele>
        <time>2025-02-19T19:45:52.614Z</time>
      </trkpt>
      <trkpt lat="59.42652295343578" lon="14.004480969160795">
        <ele>64.7</ele>
        <time>2025-02-19T19:46:53.004Z</time>
      </trkpt>
      <trkpt lat="59.42662999033928" lon="14.004501923918724">
        <ele>64.61</ele>
        <time>2025-02-19T19:47:53.396Z</time>
      </trkpt>
      <trkpt lat="59.42673694342375" lon="14.004519945010543">
        <ele>64.52</ele>
        <time>2025-02-19T19:48:53.789Z</time>
      </trkpt>
      <trkpt lat="59.42684196867049" lon="14.004529919475317">
        <ele>64.43</ele>
        <time>2025-02-19T19:49:54.184Z</time>
      </trkpt>
      <trkpt lat="59.42694699391723" lon="14.004527991637588">
        <ele>64.34</ele>
        <time>2025-02-19T19:50:54.581Z</time>
      </trkpt>
      <trkpt lat="59.427050929516554" lon="14.00451298803091">
        <ele>64.27</ele>
        <time>2025-02-19T19:51:54.979Z</time>
      </trkpt>
      <trkpt lat="59.42715394310653" lon="14.004486920312047">
        <ele>64.19</ele>
        <time>2025-02-19T19:52:55.379Z</time>
      </trkpt>
      <trkpt lat="59.42725595086813" lon="14.00444895029068">
        <ele>64.11</ele>
        <time>2025-02-19T19:53:55.781Z</time>
      </trkpt>
      <trkpt lat="59.427354941144586" lon="14.004399999976158">
        <ele>64.04</ele>
        <time>2025-02-19T19:54:56.184Z</time>
      </trkpt>
      <trkpt lat="59.42745393142104" lon="14.00434291921556">
        <ele>63.96</ele>
        <time>2025-02-19T19:55:56.589Z</time>
      </trkpt>
      <trkpt lat="59.42754998803139" lon="14.004285922273993">
        <ele>63.88</ele>
        <time>2025-02-19T19:56:56.996Z</time>
      </trkpt>
      <trkpt lat="59.42764495499432" lon="14.004228925332427">
        <ele>63.8</ele>
        <time>2025-02-19T19:57:57.404Z</time>
      </trkpt>
      <trkpt lat="59.427738999947906" lon="14.004173940047622">
        <ele>63.73</ele>
        <time>2025-02-19T19:58:57.814Z</time>
      </trkpt>
      <trkpt lat="59.42783396691084" lon="14.004118954762816">
        <ele>63.66</ele>
        <time>2025-02-19T19:59:58.225Z</time>
      </trkpt>
      <trkpt lat="59.42792893387377" lon="14.00406195782125">
        <ele>63.59</ele>
        <time>2025-02-19T20:00:58.638Z</time>
      </trkpt>
      <trkpt lat="59.42802297882736" lon="14.004002949222922">
        <ele>63.53</ele>
        <time>2025-02-19T20:01:59.052Z</time>
      </trkpt>
      <trkpt lat="59.42811693996191" lon="14.003941928967834">
        <ele>63.46</ele>
        <time>2025-02-19T20:02:59.468Z</time>
      </trkpt>
      <trkpt lat="59.428208973258734" lon="14.003880992531776">
        <ele>63.4</ele>
        <time>2025-02-19T20:03:59.886Z</time>
      </trkpt>
      <trkpt lat="59.428301928564906" lon="14.003821983933449">
        <ele>63.35</ele>
        <time>2025-02-19T20:05:00.305Z</time>
      </trkpt>
      <trkpt lat="59.42839396186173" lon="14.003765992820263">
        <ele>63.29</ele>
        <time>2025-02-19T20:06:00.726Z</time>
      </trkpt>
      <trkpt lat="59.42848498933017" lon="14.003714947029948">
        <ele>63.24</ele>
        <time>2025-02-19T20:07:01.148Z</time>
      </trkpt>
      <trkpt lat="59.428576938807964" lon="14.003668930381536">
        <ele>63.18</ele>
        <time>2025-02-19T20:08:01.572Z</time>
      </trkpt>
      <trkpt lat="59.42866796627641" lon="14.003625931218266">
        <ele>63.14</ele>
        <time>2025-02-19T20:09:01.997Z</time>
      </trkpt>
      <trkpt lat="59.42875798791647" lon="14.003583937883377">
        <ele>63.09</ele>
        <time>2025-02-19T20:10:02.424Z</time>
      </trkpt>
      <trkpt lat="59.4288479257375" lon="14.00354596786201">
        <ele>63.06</ele>
        <time>2025-02-19T20:11:02.852Z</time>
      </trkpt>
      <trkpt lat="59.42893794737756" lon="14.003510931506753">
        <ele>63.02</ele>
        <time>2025-02-19T20:12:03.282Z</time>
      </trkpt>
      <trkpt lat="59.429026963189244" lon="14.003475978970528">
        <ele>62.98</ele>
        <time>2025-02-19T20:13:03.713Z</time>
      </trkpt>
      <trkpt lat="59.429115979000926" lon="14.00343993678689">
        <ele>62.95</ele>
        <time>2025-02-19T20:14:04.146Z</time>
      </trkpt>
      <trkpt lat="59.42920499481261" lon="14.003404984250665">
        <ele>62.91</ele>
        <time>2025-02-19T20:15:04.580Z</time>
      </trkpt>
      <trkpt lat="59.42929493263364" lon="14.00337397120893">
        <ele>62.89</ele>
        <time>2025-02-19T20:16:05.016Z</time>
      </trkpt>
      <trkpt lat="59.42938294261694" lon="14.003345975652337">
        <ele>62.86</ele>
        <time>2025-02-19T20:17:05.453Z</time>
      </trkpt>
      <trkpt lat="59.42946994677186" lon="14.003318985924125">
        <ele>62.84</ele>
        <time>2025-02-19T20:18:05.891Z</time>
      </trkpt>
      <trkpt lat="59.42955695092678" lon="14.003290990367532">
        <ele>62.82</ele>
        <time>2025-02-19T20:19:06.331Z</time>
      </trkpt>
      <trkpt lat="59.42964294925332" lon="14.003264922648668">
        <ele>62.8</ele>
        <time>2025-02-19T20:20:06.772Z</time>
      </trkpt>
      <trkpt lat="59.42972794175148" lon="14.003240950405598">
        <ele>62.79</ele>
        <time>2025-02-19T20:21:07.215Z</time>
      </trkpt>
      <trkpt lat="59.42981293424964" lon="14.003218989819288">
        <ele>62.78</ele>
        <time>2025-02-19T20:22:07.659Z</time>
      </trkpt>
      <trkpt lat="59.42989692091942" lon="14.003198957070708">
        <ele>62.78</ele>
        <time>2025-02-19T20:23:08.104Z</time>
      </trkpt>
      <trkpt lat="59.42998099140823" lon="14.003176996484399">
        <ele>62.78</ele>
        <time>2025-02-19T20:24:08.551Z</time>
      </trkpt>
      <trkpt lat="59.43006598390639" lon="14.003155957907438">
        <ele>62.77</ele>
        <time>2025-02-19T20:25:08.999Z</time>
      </trkpt>
      <trkpt lat="59.43015097640455" lon="14.00313793681562">
        <ele>62.77</ele>
        <time>2025-02-19T20:26:09.448Z</time>
      </trkpt>
      <trkpt lat="59.43023596890271" lon="14.003119999542832">
        <ele>62.78</ele>
        <time>2025-02-19T20:27:09.899Z</time>
      </trkpt>
      <trkpt lat="59.43032096140087" lon="14.003104995936155">
        <ele>62.79</ele>
        <time>2025-02-19T20:28:10.351Z</time>
      </trkpt>
      <trkpt lat="59.43040695972741" lon="14.003093931823969">
        <ele>62.81</ele>
        <time>2025-02-19T20:29:10.805Z</time>
      </trkpt>
      <trkpt lat="59.43049295805395" lon="14.003086974844337">
        <ele>62.82</ele>
        <time>2025-02-19T20:30:11.260Z</time>
      </trkpt>
      <trkpt lat="59.43057895638049" lon="14.003082951530814">
        <ele>62.84</ele>
        <time>2025-02-19T20:31:11.716Z</time>
      </trkpt>
      <trkpt lat="59.43066596053541" lon="14.003081945702434">
        <ele>62.87</ele>
        <time>2025-02-19T20:32:12.174Z</time>
      </trkpt>
      <trkpt lat="59.43075195886195" lon="14.003086974844337">
        <ele>62.89</ele>
        <time>2025-02-19T20:33:12.633Z</time>
      </trkpt>
      <trkpt lat="59.43083896301687" lon="14.00309694930911">
        <ele>62.93</ele>
        <time>2025-02-19T20:34:13.093Z</time>
      </trkpt>
      <trkpt lat="59.43092596717179" lon="14.003109941259027">
        <ele>62.97</ele>
        <time>2025-02-19T20:35:13.555Z</time>
      </trkpt>
      <trkpt lat="59.43101297132671" lon="14.003125950694084">
        <ele>63.01</ele>
        <time>2025-02-19T20:36:14.018Z</time>
      </trkpt>
      <trkpt lat="59.43109896965325" lon="14.003141960129142">
        <ele>63.05</ele>
        <time>2025-02-19T20:37:14.483Z</time>
      </trkpt>
      <trkpt lat="59.43118496797979" lon="14.00315897539258">
        <ele>63.09</ele>
        <time>2025-02-19T20:38:14.949Z</time>
      </trkpt>
      <trkpt lat="59.43126895464957" lon="14.003176996484399">
        <ele>63.14</ele>
        <time>2025-02-19T20:39:15.416Z</time>
      </trkpt>
      <trkpt lat="59.431351935490966" lon="14.003198957070708">
        <ele>63.19</ele>
        <time>2025-02-19T20:40:15.885Z</time>
      </trkpt>
      <trkpt lat="59.431434916332364" lon="14.003222929313779">
        <ele>63.25</ele>
        <time>2025-02-19T20:41:16.355Z</time>
      </trkpt>
      <trkpt lat="59.43151697516441" lon="14.003246985375881">
        <ele>63.31</ele>
        <time>2025-02-19T20:42:16.826Z</time>
      </trkpt>
      <trkpt lat="59.43159895017743" lon="14.00326693430543">
        <ele>63.37</ele>
        <time>2025-02-19T20:43:17.299Z</time>
      </trkpt>
      <trkpt lat="59.43168293684721" lon="14.003281937912107">
        <ele>63.43</ele>
        <time>2025-02-19T20:44:17.773Z</time>
      </trkpt>
      <trkpt lat="59.43176792934537" lon="14.003291996195912">
        <ele>63.51</ele>
        <time>2025-02-19T20:45:18.248Z</time>
      </trkpt>
      <trkpt lat="59.4318509940058" lon="14.003299959003925">
        <ele>63.58</ele>
        <time>2025-02-19T20:46:18.725Z</time>
      </trkpt>
      <trkpt lat="59.43193296901882" lon="14.003305993974209">
        <ele>63.66</ele>
        <time>2025-02-19T20:47:19.203Z</time>
      </trkpt>
      <trkpt lat="59.432013938203454" lon="14.0033099334687">
        <ele>63.74</ele>
        <time>2025-02-19T20:48:19.682Z</time>
      </trkpt>
      <trkpt lat="59.43209197372198" lon="14.00331194512546">
        <ele>63.83</ele>
        <time>2025-02-19T20:49:20.163Z</time>
      </trkpt>
      <trkpt lat="59.43216799758375" lon="14.00331194512546">
        <ele>63.91</ele>
        <time>2025-02-19T20:50:20.645Z</time>
      </trkpt>
      <trkpt lat="59.43224494345486" lon="14.003312950953841">
        <ele>64.0</ele>
        <time>2025-02-19T20:51:21.128Z</time>
      </trkpt>
      <trkpt lat="59.43231996148825" lon="14.003312950953841">
        <ele>64.1</ele>
        <time>2025-02-19T20:52:21.612Z</time>
      </trkpt>
      <trkpt lat="59.43239598535001" lon="14.00331093929708">
        <ele>64.19</ele>
        <time>2025-02-19T20:53:22.098Z</time>
      </trkpt>
      <trkpt lat="59.432470919564366" lon="14.00331093929708">
        <ele>64.29</ele>
        <time>2025-02-19T20:54:22.585Z</time>
      </trkpt>
      <trkpt lat="59.43254593759775" lon="14.003313956782222">
        <ele>64.39</ele>
        <time>2025-02-19T20:55:23.073Z</time>
      </trkpt>
      <trkpt lat="59.432619949802756" lon="14.003314962610602">
        <ele>64.5</ele>
        <time>2025-02-19T20:56:23.562Z</time>
      </trkpt>
      <trkpt lat="59.43269295617938" lon="14.003319991752505">
        <ele>64.61</ele>
        <time>2025-02-19T20:57:24.052Z</time>
      </trkpt>
      <trkpt lat="59.432765962556005" lon="14.003323931246996">
        <ele>64.72</ele>
        <time>2025-02-19T20:58:24.543Z</time>
      </trkpt>
      <trkpt lat="59.43283997476101" lon="14.003324937075377">
        <ele>64.83</ele>
        <time>2025-02-19T20:59:25.036Z</time>
      </trkpt>
      <trkpt lat="59.432913986966014" lon="14.003322925418615">
        <ele>64.95</ele>
        <time>2025-02-19T21:00:25.530Z</time>
      </trkpt>
      <trkpt lat="59.43298892118037" lon="14.003318985924125">
        <ele>65.07</ele>
        <time>2025-02-19T21:01:26.025Z</time>
      </trkpt>
      <trkpt lat="59.433065950870514" lon="14.003315968438983">
        <ele>65.19</ele>
        <time>2025-02-19T21:02:26.521Z</time>
      </trkpt>
      <trkpt lat="59.43314197473228" lon="14.003313956782222">
        <ele>65.31</ele>
        <time>2025-02-19T21:03:27.019Z</time>
      </trkpt>
      <trkpt lat="59.433215986937284" lon="14.00331093929708">
        <ele>65.44</ele>
        <time>2025-02-19T21:04:27.518Z</time>
      </trkpt>
      <trkpt lat="59.43328899331391" lon="14.00331194512546">
        <ele>65.58</ele>
        <time>2025-02-19T21:05:28.018Z</time>
      </trkpt>
      <trkpt lat="59.43336099386215" lon="14.003315968438983">
        <ele>65.72</ele>
        <time>2025-02-19T21:06:28.519Z</time>
      </trkpt>
      <trkpt lat="59.433432994410396" lon="14.003322925418615">
        <ele>65.86</ele>
        <time>2025-02-19T21:07:29.021Z</time>
      </trkpt>
      <trkpt lat="59.43350499495864" lon="14.003335917368531">
        <ele>66.0</ele>
        <time>2025-02-19T21:08:29.524Z</time>
      </trkpt>
      <trkpt lat="59.43357699550688" lon="14.003351926803589">
        <ele>66.15</ele>
        <time>2025-02-19T21:09:30.029Z</time>
      </trkpt>
      <trkpt lat="59.433647990226746" lon="14.003370953723788">
        <ele>66.3</ele>
        <time>2025-02-19T21:10:30.535Z</time>
      </trkpt>
      <trkpt lat="59.43371797911823" lon="14.003390986472368">
        <ele>66.45</ele>
        <time>2025-02-19T21:11:31.042Z</time>
      </trkpt>
      <trkpt lat="59.43378595635295" lon="14.003411941230297">
        <ele>66.6</ele>
        <time>2025-02-19T21:12:31.550Z</time>
      </trkpt>
      <trkpt lat="59.43385192193091" lon="14.003430968150496">
        <ele>66.76</ele>
        <time>2025-02-19T21:13:32.059Z</time>
      </trkpt>
      <trkpt lat="59.43391998298466" lon="14.003445971757174">
        <ele>66.91</ele>
        <time>2025-02-19T21:14:32.569Z</time>
      </trkpt>
      <trkpt lat="59.43398796021938" lon="14.00345896370709">
        <ele>67.07</ele>
        <time>2025-02-19T21:15:33.080Z</time>
      </trkpt>
      <trkpt lat="59.434057949110866" lon="14.003467932343483">
        <ele>67.23</ele>
        <time>2025-02-19T21:16:33.592Z</time>
      </trkpt>
      <trkpt lat="59.43412793800235" lon="14.003469944000244">
        <ele>67.39</ele>
        <time>2025-02-19T21:17:34.105Z</time>
      </trkpt>
      <trkpt lat="59.43419792689383" lon="14.00345896370709">
        <ele>67.55</ele>
        <time>2025-02-19T21:18:34.620Z</time>
      </trkpt>
      <trkpt lat="59.43426598794758" lon="14.003432979807258">
        <ele>67.71</ele>
        <time>2025-02-19T21:19:35.136Z</time>
      </trkpt>
      <trkpt lat="59.434333965182304" lon="14.003394925966859">
        <ele>67.88</ele>
        <time>2025-02-19T21:20:35.653Z</time>
      </trkpt>
      <trkpt lat="59.434400936588645" lon="14.003348993137479">
        <ele>68.05</ele>
        <time>2025-02-19T21:21:36.171Z</time>
      </trkpt>
      <trkpt lat="59.43446799181402" lon="14.003293924033642">
        <ele>68.23</ele>
        <time>2025-02-19T21:22:36.690Z</time>
      </trkpt>
      <trkpt lat="59.43453395739198" lon="14.003234999254346">
        <ele>68.4</ele>
        <time>2025-02-19T21:23:37.210Z</time>
      </trkpt>
      <trkpt lat="59.43459992296994" lon="14.003179930150509">
        <ele>68.57</ele>
        <time>2025-02-19T21:24:37.731Z</time>
      </trkpt>
      <trkpt lat="59.43466496653855" lon="14.003122933208942">
        <ele>68.75</ele>
        <time>2025-02-19T21:25:38.254Z</time>
      </trkpt>
      <trkpt lat="59.43472892045975" lon="14.003062918782234">
        <ele>68.92</ele>
        <time>2025-02-19T21:26:38.778Z</time>
      </trkpt>
      <trkpt lat="59.4347919523716" lon="14.003002988174558">
        <ele>69.1</ele>
        <time>2025-02-19T21:27:39.303Z</time>
      </trkpt>
      <trkpt lat="59.43485599011183" lon="14.002945991232991">
        <ele>69.28</ele>
        <time>2025-02-19T21:28:39.829Z</time>
      </trkpt>
      <trkpt lat="59.43492195568979" lon="14.002894945442677">
        <ele>69.47</ele>
        <time>2025-02-19T21:29:40.356Z</time>
      </trkpt>
      <trkpt lat="59.43498892709613" lon="14.002850940451026">
        <ele>69.65</ele>
        <time>2025-02-19T21:30:40.884Z</time>
      </trkpt>
      <trkpt lat="59.4350559823215" lon="14.002812970429659">
        <ele>69.84</ele>
        <time>2025-02-19T21:31:41.413Z</time>
      </trkpt>
      <trkpt lat="59.43512395955622" lon="14.002780951559544">
        <ele>70.03</ele>
        <time>2025-02-19T21:32:41.943Z</time>
      </trkpt>
      <trkpt lat="59.43519193679094" lon="14.002753961831331">
        <ele>70.23</ele>
        <time>2025-02-19T21:33:42.475Z</time>
      </trkpt>
      <trkpt lat="59.435259997844696" lon="14.00273191742599">
        <ele>70.42</ele>
        <time>2025-02-19T21:34:43.008Z</time>
      </trkpt>
      <trkpt lat="59.435325963422656" lon="14.002715991809964">
        <ele>70.62</ele>
        <time>2025-02-19T21:35:43.542Z</time>
      </trkpt>
      <trkpt lat="59.435390923172235" lon="14.002706939354539">
        <ele>70.82</ele>
        <time>2025-02-19T21:36:44.077Z</time>
      </trkpt>
      <trkpt lat="59.435454960912466" lon="14.002700988203287">
        <ele>71.02</ele>
        <time>2025-02-19T21:37:44.613Z</time>
      </trkpt>
      <trkpt lat="59.4355189986527" lon="14.002700988203287">
        <ele>71.23</ele>
        <time>2025-02-19T21:38:45.150Z</time>
      </trkpt>
      <trkpt lat="59.435581946745515" lon="14.002706939354539">
        <ele>71.43</ele>
        <time>2025-02-19T21:39:45.688Z</time>
      </trkpt>
      <trkpt lat="59.435644978657365" lon="14.002718925476074">
        <ele>71.63</ele>
        <time>2025-02-19T21:40:46.227Z</time>
      </trkpt>
      <trkpt lat="59.43570499308407" lon="14.002735940739512">
        <ele>71.84</ele>
        <time>2025-02-19T21:41:46.767Z</time>
      </trkpt>
      <trkpt lat="59.43576391786337" lon="14.002754967659712">
        <ele>72.04</ele>
        <time>2025-02-19T21:42:47.308Z</time>
      </trkpt>
      <trkpt lat="59.43581999279559" lon="14.002777934074402">
        <ele>72.24</ele>
        <time>2025-02-19T21:43:47.850Z</time>
      </trkpt>
      <trkpt lat="59.43587095476687" lon="14.002804923802614">
        <ele>72.45</ele>
        <time>2025-02-19T21:44:48.393Z</time>
      </trkpt>
      <trkpt lat="59.43592191673815" lon="14.002833925187588">
        <ele>72.66</ele>
        <time>2025-02-19T21:45:48.936Z</time>
      </trkpt>
      <trkpt lat="59.43597497418523" lon="14.00285898707807">
        <ele>72.86</ele>
        <time>2025-02-19T21:46:49.480Z</time>
      </trkpt>
      <trkpt lat="59.43602493032813" lon="14.002884970977902">
        <ele>73.07</ele>
        <time>2025-02-19T21:47:50.025Z</time>
      </trkpt>
      <trkpt lat="59.436074970290065" lon="14.002916989848018">
        <ele>73.28</ele>
        <time>2025-02-19T21:48:50.571Z</time>
      </trkpt>
      <trkpt lat="59.43612693808973" lon="14.002950936555862">
        <ele>73.49</ele>
        <time>2025-02-19T21:49:51.118Z</time>
      </trkpt>
      <trkpt lat="59.436179995536804" lon="14.002981949597597">
        <ele>73.7</ele>
        <time>2025-02-19T21:50:51.666Z</time>
      </trkpt>
      <trkpt lat="59.43623296916485" lon="14.003012962639332">
        <ele>73.91</ele>
        <time>2025-02-19T21:51:52.215Z</time>
      </trkpt>
      <trkpt lat="59.436288960278034" lon="14.003041964024305">
        <ele>74.12</ele>
        <time>2025-02-19T21:52:52.765Z</time>
      </trkpt>
      <trkpt lat="59.4363459572196" lon="14.003062918782234">
        <ele>74.33</ele>
        <time>2025-02-19T21:53:53.315Z</time>
      </trkpt>
      <trkpt lat="59.43640295416117" lon="14.003075994551182">
        <ele>74.55</ele>
        <time>2025-02-19T21:54:53.866Z</time>
      </trkpt>
      <trkpt lat="59.436460956931114" lon="14.003081945702434">
        <ele>74.76</ele>
        <time>2025-02-19T21:55:54.418Z</time>
      </trkpt>
      <trkpt lat="59.43651895970106" lon="14.003080939874053">
        <ele>74.97</ele>
        <time>2025-02-19T21:56:54.971Z</time>
      </trkpt>
      <trkpt lat="59.43657796829939" lon="14.00307691656053">
        <ele>75.18</ele>
        <time>2025-02-19T21:57:55.525Z</time>
      </trkpt>
      <trkpt lat="59.4366379827261" lon="14.003070965409279">
        <ele>75.38</ele>
        <time>2025-02-19T21:58:56.080Z</time>
      </trkpt>
      <trkpt lat="59.436699924990535" lon="14.003069959580898">
        <ele>75.59</ele>
        <time>2025-02-19T21:59:56.636Z</time>
      </trkpt>
      <trkpt lat="59.436763962730765" lon="14.00307197123766">
        <ele>75.8</ele>
        <time>2025-02-19T22:00:57.193Z</time>
      </trkpt>
      <trkpt lat="59.436828922480345" lon="14.003078928217292">
        <ele>76.01</ele>
        <time>2025-02-19T22:01:57.751Z</time>
      </trkpt>
      <trkpt lat="59.43689597770572" lon="14.003088986501098">
        <ele>76.21</ele>
        <time>2025-02-19T22:02:58.310Z</time>
      </trkpt>
      <trkpt lat="59.43696294911206" lon="14.003106923773885">
        <ele>76.42</ele>
        <time>2025-02-19T22:03:58.870Z</time>
      </trkpt>
      <trkpt lat="59.43703092634678" lon="14.003134919330478">
        <ele>76.62</ele>
        <time>2025-02-19T22:04:59.431Z</time>
      </trkpt>
      <trkpt lat="59.43709898740053" lon="14.003169955685735">
        <ele>76.83</ele>
        <time>2025-02-19T22:05:59.994Z</time>
      </trkpt>
      <trkpt lat="59.43716696463525" lon="14.003211949020624">
        <ele>77.03</ele>
        <time>2025-02-19T22:07:00.558Z</time>
      </trkpt>
      <trkpt lat="59.437234941869974" lon="14.003257965669036">
        <ele>77.23</ele>
        <time>2025-02-19T22:08:01.123Z</time>
      </trkpt>
      <trkpt lat="59.437302919104695" lon="14.00331093929708">
        <ele>77.43</ele>
        <time>2025-02-19T22:09:01.689Z</time>
      </trkpt>
      <trkpt lat="59.43736997433007" lon="14.003368942067027">
        <ele>77.63</ele>
        <time>2025-02-19T22:10:02.256Z</time>
      </trkpt>
      <trkpt lat="59.43743694573641" lon="14.003429962322116">
        <ele>77.83</ele>
        <time>2025-02-19T22:11:02.824Z</time>
      </trkpt>
      <trkpt lat="59.43750391714275" lon="14.003495927900076">
        <ele>78.03</ele>
        <time>2025-02-19T22:12:03.394Z</time>
      </trkpt>
      <trkpt lat="59.43757097236812" lon="14.003562983125448">
        <ele>78.23</ele>
        <time>2025-02-19T22:13:03.965Z</time>
      </trkpt>
      <trkpt lat="59.43763693794608" lon="14.003629954531789">
        <ele>78.42</ele>
        <time>2025-02-19T22:14:04.537Z</time>
      </trkpt>
      <trkpt lat="59.43770298734307" lon="14.003695920109749">
        <ele>78.62</ele>
        <time>2025-02-19T22:15:05.110Z</time>
      </trkpt>
      <trkpt lat="59.43776694126427" lon="14.00376096367836">
        <ele>78.82</ele>
        <time>2025-02-19T22:16:05.684Z</time>
      </trkpt>
      <trkpt lat="59.4378309790045" lon="14.00382592342794">
        <ele>79.02</ele>
        <time>2025-02-19T22:17:06.260Z</time>
      </trkpt>
      <trkpt lat="59.43789292126894" lon="14.003891972824931">
        <ele>79.22</ele>
        <time>2025-02-19T22:18:06.837Z</time>
      </trkpt>
      <trkpt lat="59.43795595318079" lon="14.003960955888033">
        <ele>79.42</ele>
        <time>2025-02-19T22:19:07.415Z</time>
      </trkpt>
      <trkpt lat="59.43801797926426" lon="14.004030944779515">
        <ele>79.62</ele>
        <time>2025-02-19T22:20:07.994Z</time>
      </trkpt>
      <trkpt lat="59.43807899951935" lon="14.004101939499378">
        <ele>79.81</ele>
        <time>2025-02-19T22:21:08.574Z</time>
      </trkpt>
      <trkpt lat="59.438138930127025" lon="14.00417192839086">
        <ele>80.01</ele>
        <time>2025-02-19T22:22:09.155Z</time>
      </trkpt>
      <trkpt lat="59.43819995038211" lon="14.00423395447433">
        <ele>80.2</ele>
        <time>2025-02-19T22:23:09.737Z</time>
      </trkpt>
      <trkpt lat="59.43826197646558" lon="14.004288939759135">
        <ele>80.38</ele>
        <time>2025-02-19T22:24:10.320Z</time>
      </trkpt>
      <trkpt lat="59.43832391873002" lon="14.004337973892689">
        <ele>80.57</ele>
        <time>2025-02-19T22:25:10.905Z</time>
      </trkpt>
      <trkpt lat="59.43838594481349" lon="14.004380973055959">
        <ele>80.76</ele>
        <time>2025-02-19T22:26:11.491Z</time>
      </trkpt>
      <trkpt lat="59.43844696506858" lon="14.004419948905706">
        <ele>80.95</ele>
        <time>2025-02-19T22:27:12.078Z</time>
      </trkpt>
      <trkpt lat="59.43850798532367" lon="14.004452973604202">
        <ele>81.13</ele>
        <time>2025-02-19T22:28:12.666Z</time>
      </trkpt>
      <trkpt lat="59.438567999750376" lon="14.004480969160795">
        <ele>81.32</ele>
        <time>2025-02-19T22:29:13.255Z</time>
      </trkpt>
      <trkpt lat="59.43862793035805" lon="14.004503935575485">
        <ele>81.5</ele>
        <time>2025-02-19T22:30:13.845Z</time>
      </trkpt>
      <trkpt lat="59.43868693895638" lon="14.004527991637588">
        <ele>81.69</ele>
        <time>2025-02-19T22:31:14.436Z</time>
      </trkpt>
      <trkpt lat="59.438741924241185" lon="14.00455598719418">
        <ele>81.87</ele>
        <time>2025-02-19T22:32:15.027Z</time>
      </trkpt>
      <trkpt lat="59.4387979991734" lon="14.004584988579154">
        <ele>82.06</ele>
        <time>2025-02-19T22:33:15.619Z</time>
      </trkpt>
      <trkpt lat="59.43885591812432" lon="14.004611978307366">
        <ele>82.24</ele>
        <time>2025-02-19T22:34:16.212Z</time>
      </trkpt>
      <trkpt lat="59.438914926722646" lon="14.004638968035579">
        <ele>82.42</ele>
        <time>2025-02-19T22:35:16.806Z</time>
      </trkpt>
      <trkpt lat="59.43897192366421" lon="14.00466394610703">
        <ele>82.6</ele>
        <time>2025-02-19T22:36:17.401Z</time>
      </trkpt>
      <trkpt lat="59.43902699276805" lon="14.004688924178481">
        <ele>82.78</ele>
        <time>2025-02-19T22:37:17.997Z</time>
      </trkpt>
      <trkpt lat="59.439080972224474" lon="14.004715997725725">
        <ele>82.96</ele>
        <time>2025-02-19T22:38:18.594Z</time>
      </trkpt>
      <trkpt lat="59.43913294002414" lon="14.004747932776809">
        <ele>83.13</ele>
        <time>2025-02-19T22:39:19.192Z</time>
      </trkpt>
      <trkpt lat="59.43918297998607" lon="14.004785986617208">
        <ele>83.31</ele>
        <time>2025-02-19T22:40:19.791Z</time>
      </trkpt>
      <trkpt lat="59.439234947785735" lon="14.004819933325052">
        <ele>83.48</ele>
        <time>2025-02-19T22:41:20.391Z</time>
      </trkpt>
      <trkpt lat="59.43928699940443" lon="14.004852958023548">
        <ele>83.66</ele>
        <time>2025-02-19T22:42:20.992Z</time>
      </trkpt>
      <trkpt lat="59.43933796137571" lon="14.004885982722044">
        <ele>83.83</ele>
        <time>2025-02-19T22:43:21.593Z</time>
      </trkpt>
      <trkpt lat="59.439388923346996" lon="14.004916995763779">
        <ele>84.0</ele>
        <time>2025-02-19T22:44:22.195Z</time>
      </trkpt>
      <trkpt lat="59.43944198079407" lon="14.004946919158101">
        <ele>84.16</ele>
        <time>2025-02-19T22:45:22.798Z</time>
      </trkpt>
      <trkpt lat="59.439494954422116" lon="14.004971981048584">
        <ele>84.32</ele>
        <time>2025-02-19T22:46:23.402Z</time>
      </trkpt>
      <trkpt lat="59.43955195136368" lon="14.004993941634893">
        <ele>84.48</ele>
        <time>2025-02-19T22:47:24.007Z</time>
      </trkpt>
      <trkpt lat="59.43960593082011" lon="14.00500894524157">
        <ele>84.64</ele>
        <time>2025-02-19T22:48:24.613Z</time>
      </trkpt>
      <trkpt lat="59.4396579824388" lon="14.005021937191486">
        <ele>84.8</ele>
        <time>2025-02-19T22:49:25.220Z</time>
      </trkpt>
      <trkpt lat="59.439708944410086" lon="14.005031995475292">
        <ele>84.96</ele>
        <time>2025-02-19T22:50:25.827Z</time>
      </trkpt>
      <trkpt lat="59.43976099602878" lon="14.005035934969783">
        <ele>85.12</ele>
        <time>2025-02-19T22:51:26.435Z</time>
      </trkpt>
      <trkpt lat="59.439811958000064" lon="14.005036940798163">
        <ele>85.27</ele>
        <time>2025-02-19T22:52:27.044Z</time>
      </trkpt>
      <trkpt lat="59.43986099213362" lon="14.005033923313022">
        <ele>85.43</ele>
        <time>2025-02-19T22:53:27.654Z</time>
      </trkpt>
      <trkpt lat="59.43990893661976" lon="14.005025960505009">
        <ele>85.58</ele>
        <time>2025-02-19T22:54:28.265Z</time>
      </trkpt>
      <trkpt lat="59.43995595909655" lon="14.005012968555093">
        <ele>85.74</ele>
        <time>2025-02-19T22:55:28.876Z</time>
      </trkpt>
      <trkpt lat="59.44000298157334" lon="14.004995953291655">
        <ele>85.89</ele>
        <time>2025-02-19T22:56:29.488Z</time>
      </trkpt>
      <trkpt lat="59.440049920231104" lon="14.004978938028216">
        <ele>86.05</ele>
        <time>2025-02-19T22:57:30.101Z</time>
      </trkpt>
      <trkpt lat="59.440095936879516" lon="14.004960916936398">
        <ele>86.21</ele>
        <time>2025-02-19T22:58:30.715Z</time>
      </trkpt>
      <trkpt lat="59.44014094769955" lon="14.004933927208185">
        <ele>86.36</ele>
        <time>2025-02-19T22:59:31.330Z</time>
      </trkpt>
      <trkpt lat="59.44018595851958" lon="14.004902997985482">
        <ele>86.52</ele>
        <time>2025-02-19T23:00:31.945Z</time>
      </trkpt>
      <trkpt lat="59.44022895768285" lon="14.004871984943748">
        <ele>86.68</ele>
        <time>2025-02-19T23:01:32.561Z</time>
      </trkpt>
      <trkpt lat="59.44027095101774" lon="14.004838960245252">
        <ele>86.83</ele>
        <time>2025-02-19T23:02:33.178Z</time>
      </trkpt>
      <trkpt lat="59.44031395018101" lon="14.004803923889995">
        <ele>86.99</ele>
        <time>2025-02-19T23:03:33.795Z</time>
      </trkpt>
      <trkpt lat="59.4403559435159" lon="14.004772994667292">
        <ele>87.15</ele>
        <time>2025-02-19T23:04:34.413Z</time>
      </trkpt>
      <trkpt lat="59.440397936850786" lon="14.004747932776809">
        <ele>87.31</ele>
        <time>2025-02-19T23:05:35.032Z</time>
      </trkpt>
      <trkpt lat="59.440438924357295" lon="14.004721948876977">
        <ele>87.46</ele>
        <time>2025-02-19T23:06:35.652Z</time>
      </trkpt>
      <trkpt lat="59.440479995682836" lon="14.004686996340752">
        <ele>87.62</ele>
        <time>2025-02-19T23:07:36.272Z</time>
      </trkpt>
      <trkpt lat="59.44051897153258" lon="14.004652965813875">
        <ele>87.78</ele>
        <time>2025-02-19T23:08:36.893Z</time>
      </trkpt>
      <trkpt lat="59.44056197069585" lon="14.004623964428902">
        <ele>87.93</ele>
        <time>2025-02-19T23:09:37.515Z</time>
      </trkpt>
      <trkpt lat="59.440605975687504" lon="14.004593957215548">
        <ele>88.09</ele>
        <time>2025-02-19T23:10:38.137Z</time>
      </trkpt>
      <trkpt lat="59.440650986507535" lon="14.004564955830574">
        <ele>88.24</ele>
        <time>2025-02-19T23:11:38.760Z</time>
      </trkpt>
      <trkpt lat="59.440698930993676" lon="14.0045359544456">
        <ele>88.4</ele>
        <time>2025-02-19T23:12:39.384Z</time>
      </trkpt>
      <trkpt lat="59.44074695929885" lon="14.004513993859291">
        <ele>88.55</ele>
        <time>2025-02-19T23:13:40.009Z</time>
      </trkpt>
      <trkpt lat="59.44079197011888" lon="14.004489937797189">
        <ele>88.7</ele>
        <time>2025-02-19T23:14:40.635Z</time>
      </trkpt>
      <trkpt lat="59.44083295762539" lon="14.004462948068976">
        <ele>88.86</ele>
        <time>2025-02-19T23:15:41.261Z</time>
      </trkpt>
      <trkpt lat="59.44087193347514" lon="14.004432940855622">
        <ele>89.0</ele>
        <time>2025-02-19T23:16:41.888Z</time>
      </trkpt>
      <trkpt lat="59.440908981487155" lon="14.004393965005875">
        <ele>89.15</ele>
        <time>2025-02-19T23:17:42.516Z</time>
      </trkpt>
      <trkpt lat="59.440950974822044" lon="14.004354989156127">
        <ele>89.3</ele>
        <time>2025-02-19T23:18:43.144Z</time>
      </trkpt>
      <trkpt lat="59.44099095650017" lon="14.004311989992857">
        <ele>89.45</ele>
        <time>2025-02-19T23:19:43.773Z</time>
      </trkpt>
      <trkpt lat="59.44103395566344" lon="14.004271924495697">
        <ele>89.6</ele>
        <time>2025-02-19T23:20:44.403Z</time>
      </trkpt>
      <trkpt lat="59.441079972311854" lon="14.00423395447433">
        <ele>89.75</ele>
        <time>2025-02-19T23:21:45.034Z</time>
      </trkpt>
      <trkpt lat="59.44112095981836" lon="14.004188943654299">
        <ele>89.89</ele>
        <time>2025-02-19T23:22:45.665Z</time>
      </trkpt>
      <trkpt lat="59.441167982295156" lon="14.004136975854635">
        <ele>90.04</ele>
        <time>2025-02-19T23:23:46.297Z</time>
      </trkpt>
      <trkpt lat="59.441214920952916" lon="14.00408492423594">
        <ele>90.18</ele>
        <time>2025-02-19T23:24:46.930Z</time>
      </trkpt>
      <trkpt lat="59.44126496091485" lon="14.004036979749799">
        <ele>90.33</ele>
        <time>2025-02-19T23:25:47.564Z</time>
      </trkpt>
      <trkpt lat="59.44131592288613" lon="14.003991968929768">
        <ele>90.47</ele>
        <time>2025-02-19T23:26:48.199Z</time>
      </trkpt>
      <trkpt lat="59.44136998616159" lon="14.00395592674613">
        <ele>90.62</ele>
        <time>2025-02-19T23:27:48.835Z</time>
      </trkpt>
      <trkpt lat="59.44142798893154" lon="14.003935977816582">
        <ele>90.76</ele>
        <time>2025-02-19T23:28:49.472Z</time>
      </trkpt>
      <trkpt lat="59.441492948681116" lon="14.003926925361156">
        <ele>90.9</ele>
        <time>2025-02-19T23:29:50.110Z</time>
      </trkpt>
      <trkpt lat="59.44155799224973" lon="14.003919968381524">
        <ele>91.04</ele>
        <time>2025-02-19T23:30:50.749Z</time>
      </trkpt>
      <trkpt lat="59.441619934514165" lon="14.003921980038285">
        <ele>91.19</ele>
        <time>2025-02-19T23:31:51.389Z</time>
      </trkpt>
      <trkpt lat="59.44167399778962" lon="14.003922985866666">
        <ele>91.33</ele>
        <time>2025-02-19T23:32:52.030Z</time>
      </trkpt>
      <trkpt lat="59.44173099473119" lon="14.003918962553144">
        <ele>91.46</ele>
        <time>2025-02-19T23:33:52.672Z</time>
      </trkpt>
      <trkpt lat="59.441787991672754" lon="14.00391099974513">
        <ele>91.6</ele>
        <time>2025-02-19T23:34:53.315Z</time>
      </trkpt>
      <trkpt lat="59.441836941987276" lon="14.00389096699655">
        <ele>91.74</ele>
        <time>2025-02-19T23:35:53.958Z</time>
      </trkpt>
      <trkpt lat="59.44188597612083" lon="14.003859953954816">
        <ele>91.88</ele>
        <time>2025-02-19T23:36:54.602Z</time>
      </trkpt>
      <trkpt lat="59.44193392060697" lon="14.003829946741462">
        <ele>92.02</ele>
        <time>2025-02-19T23:37:55.247Z</time>
      </trkpt>
      <trkpt lat="59.441983960568905" lon="14.003807986155152">
        <ele>92.15</ele>
        <time>2025-02-19T23:38:55.893Z</time>
      </trkpt>
      <trkpt lat="59.44203592836857" lon="14.003790970891714">
        <ele>92.29</ele>
        <time>2025-02-19T23:39:56.540Z</time>
      </trkpt>
      <trkpt lat="59.442088985815644" lon="14.003766998648643">
        <ele>92.42</ele>
        <time>2025-02-19T23:40:57.188Z</time>
      </trkpt>
      <trkpt lat="59.44214296527207" lon="14.003734979778528">
        <ele>92.56</ele>
        <time>2025-02-19T23:41:57.836Z</time>
      </trkpt>
      <trkpt lat="59.44219199940562" lon="14.003702960908413">
        <ele>92.69</ele>
        <time>2025-02-19T23:42:58.485Z</time>
      </trkpt>
      <trkpt lat="59.442241955548525" lon="14.003671947866678">
        <ele>92.82</ele>
        <time>2025-02-19T23:43:59.135Z</time>
      </trkpt>
      <trkpt lat="59.44229291751981" lon="14.003641940653324">
        <ele>92.95</ele>
        <time>2025-02-19T23:44:59.786Z</time>
      </trkpt>
      <trkpt lat="59.44234295748174" lon="14.00361293926835">
        <ele>93.08</ele>
        <time>2025-02-19T23:46:00.438Z</time>
      </trkpt>
      <trkpt lat="59.442392997443676" lon="14.003585949540138">
        <ele>93.21</ele>
        <time>2025-02-19T23:47:01.091Z</time>
      </trkpt>
      <trkpt lat="59.44244094192982" lon="14.003556948155165">
        <ele>93.34</ele>
        <time>2025-02-19T23:48:01.744Z</time>
      </trkpt>
      <trkpt lat="59.44249198772013" lon="14.00352694094181">
        <ele>93.47</ele>
        <time>2025-02-19T23:49:02.398Z</time>
      </trkpt>
      <trkpt lat="59.44253993220627" lon="14.003496933728456">
        <ele>93.6</ele>
        <time>2025-02-19T23:50:03.053Z</time>
      </trkpt>
      <trkpt lat="59.44258997216821" lon="14.003469944000244">
        <ele>93.72</ele>
        <time>2025-02-19T23:51:03.709Z</time>
      </trkpt>
      <trkpt lat="59.44264294579625" lon="14.003446977585554">
        <ele>93.84</ele>
        <time>2025-02-19T23:52:04.366Z</time>
      </trkpt>
      <trkpt lat="59.442695919424295" lon="14.003420993685722">
        <ele>93.96</ele>
        <time>2025-02-19T23:53:05.024Z</time>
      </trkpt>
      <trkpt lat="59.44274897687137" lon="14.003398949280381">
        <ele>94.08</ele>
        <time>2025-02-19T23:54:05.683Z</time>
      </trkpt>
      <trkpt lat="59.44280396215618" lon="14.003377994522452">
        <ele>94.2</ele>
        <time>2025-02-19T23:55:06.342Z</time>
      </trkpt>
      <trkpt lat="59.442861964926124" lon="14.003358967602253">
        <ele>94.32</ele>
        <time>2025-02-19T23:56:07.002Z</time>
      </trkpt>
      <trkpt lat="59.44292298518121" lon="14.003344969823956">
        <ele>94.43</ele>
        <time>2025-02-19T23:57:07.663Z</time>
      </trkpt>
      <trkpt lat="59.44298392161727" lon="14.00333197787404">
        <ele>94.55</ele>
        <time>2025-02-19T23:58:08.325Z</time>
      </trkpt>
      <trkpt lat="59.44304695352912" lon="14.003323931246996">
        <ele>94.66</ele>
        <time>2025-02-19T23:59:08.988Z</time>
      </trkpt>
      <trkpt lat="59.44311199709773" lon="14.003321919590235">
        <ele>94.77</ele>
        <time>2025-02-20T00:00:09.652Z</time>
      </trkpt>
      <trkpt lat="59.44317494519055" lon="14.003325942903757">
        <ele>94.87</ele>
        <time>2025-02-20T00:01:10.317Z</time>
      </trkpt>
      <trkpt lat="59.44323998875916" lon="14.003334995359182">
        <ele>94.98</ele>
        <time>2025-02-20T00:02:10.983Z</time>
      </trkpt>
      <trkpt lat="59.44330494850874" lon="14.003351926803589">
        <ele>95.08</ele>
        <time>2025-02-20T00:03:11.651Z</time>
      </trkpt>
      <trkpt lat="59.44336999207735" lon="14.003379922360182">
        <ele>95.18</ele>
        <time>2025-02-20T00:04:12.320Z</time>
      </trkpt>
      <trkpt lat="59.44343796931207" lon="14.003414958715439">
        <ele>95.28</ele>
        <time>2025-02-20T00:05:12.990Z</time>
      </trkpt>
      <trkpt lat="59.44350292906165" lon="14.00345896370709">
        <ele>95.37</ele>
        <time>2025-02-20T00:06:13.661Z</time>
      </trkpt>
      <trkpt lat="59.44356998428702" lon="14.003505986183882">
        <ele>95.47</ele>
        <time>2025-02-20T00:07:14.333Z</time>
      </trkpt>
      <trkpt lat="59.4436349440366" lon="14.003554936498404">
        <ele>95.56</ele>
        <time>2025-02-20T00:08:15.006Z</time>
      </trkpt>
      <trkpt lat="59.44369898177683" lon="14.003606988117099">
        <ele>95.65</ele>
        <time>2025-02-20T00:09:15.680Z</time>
      </trkpt>
      <trkpt lat="59.44376192986965" lon="14.003663985058665">
        <ele>95.74</ele>
        <time>2025-02-20T00:10:16.355Z</time>
      </trkpt>
      <trkpt lat="59.4438249617815" lon="14.003722993656993">
        <ele>95.83</ele>
        <time>2025-02-20T00:11:17.031Z</time>
      </trkpt>
      <trkpt lat="59.44388899952173" lon="14.00378099642694">
        <ele>95.91</ele>
        <time>2025-02-20T00:12:17.709Z</time>
      </trkpt>
      <trkpt lat="59.44395597092807" lon="14.003835981711745">
        <ele>95.98</ele>
        <time>2025-02-20T00:13:18.388Z</time>
      </trkpt>
      <trkpt lat="59.44402193650603" lon="14.003885937854648">
        <ele>96.05</ele>
        <time>2025-02-20T00:14:19.068Z</time>
      </trkpt>
      <trkpt lat="59.444086980074644" lon="14.00393296033144">
        <ele>96.12</ele>
        <time>2025-02-20T00:15:19.749Z</time>
      </trkpt>
      <trkpt lat="59.444153951480985" lon="14.003979982808232">
        <ele>96.19</ele>
        <time>2025-02-20T00:16:20.431Z</time>
      </trkpt>
      <trkpt lat="59.44422293454409" lon="14.004024993628263">
        <ele>96.25</ele>
        <time>2025-02-20T00:17:21.114Z</time>
      </trkpt>
      <trkpt lat="59.44429493509233" lon="14.00406296364963">
        <ele>96.3</ele>
        <time>2025-02-20T00:18:21.798Z</time>
      </trkpt>
      <trkpt lat="59.444370958954096" lon="14.004100933670998">
        <ele>96.35</ele>
        <time>2025-02-20T00:19:22.484Z</time>
      </trkpt>
      <trkpt lat="59.44444094784558" lon="14.004138987511396">
        <ele>96.4</ele>
        <time>2025-02-20T00:20:23.171Z</time>
      </trkpt>
      <trkpt lat="59.44451194256544" lon="14.004178969189525">
        <ele>96.44</ele>
        <time>2025-02-20T00:21:23.859Z</time>
      </trkpt>
      <trkpt lat="59.444582937285304" lon="14.004215933382511">
        <ele>96.47</ele>
        <time>2025-02-20T00:22:24.548Z</time>
      </trkpt>
      <trkpt lat="59.444651920348406" lon="14.004251975566149">
        <ele>96.51</ele>
        <time>2025-02-20T00:23:25.238Z</time>
      </trkpt>
      <trkpt lat="59.44472098723054" lon="14.004281982779503">
        <ele>96.54</ele>
        <time>2025-02-20T00:24:25.930Z</time>
      </trkpt>
      <trkpt lat="59.44478795863688" lon="14.004301931709051">
        <ele>96.57</ele>
        <time>2025-02-20T00:25:26.623Z</time>
      </trkpt>
      <trkpt lat="59.44485493004322" lon="14.004311989992857">
        <ele>96.6</ele>
        <time>2025-02-20T00:26:27.317Z</time>
      </trkpt>
      <trkpt lat="59.44492198526859" lon="14.00431894697249">
        <ele>96.63</ele>
        <time>2025-02-20T00:27:28.012Z</time>
      </trkpt>
      <trkpt lat="59.44498795084655" lon="14.00431894697249">
        <ele>96.65</ele>
        <time>2025-02-20T00:28:28.708Z</time>
      </trkpt>
      <trkpt lat="59.44505391642451" lon="14.004301931709051">
        <ele>96.66</ele>
        <time>2025-02-20T00:29:29.405Z</time>
      </trkpt>
      <trkpt lat="59.445122983306646" lon="14.004270918667316">
        <ele>96.68</ele>
        <time>2025-02-20T00:30:30.103Z</time>
      </trkpt>
      <trkpt lat="59.44519397802651" lon="14.004227919504046">
        <ele>96.69</ele>
        <time>2025-02-20T00:31:30.802Z</time>
      </trkpt>
      <trkpt lat="59.44526597857475" lon="14.004176957532763">
        <ele>96.69</ele>
        <time>2025-02-20T00:32:31.502Z</time>
      </trkpt>
      <trkpt lat="59.445337979122996" lon="14.004122978076339">
        <ele>96.7</ele>
        <time>2025-02-20T00:33:32.204Z</time>
      </trkpt>
      <trkpt lat="59.44540997967124" lon="14.004066986963153">
        <ele>96.71</ele>
        <time>2025-02-20T00:34:32.907Z</time>
      </trkpt>
      <trkpt lat="59.44548198021948" lon="14.004012923687696">
        <ele>96.71</ele>
        <time>2025-02-20T00:35:33.611Z</time>
      </trkpt>
      <trkpt lat="59.44555599242449" lon="14.003967996686697">
        <ele>96.72</ele>
        <time>2025-02-20T00:36:34.316Z</time>
      </trkpt>
      <trkpt lat="59.44562799297273" lon="14.003934971988201">
        <ele>96.73</ele>
        <time>2025-02-20T00:37:35.023Z</time>
      </trkpt>
      <trkpt lat="59.445704938843846" lon="14.003914939239621">
        <ele>96.73</ele>
        <time>2025-02-20T00:38:35.731Z</time>
      </trkpt>
      <trkpt lat="59.44577593356371" lon="14.003899935632944">
        <ele>96.73</ele>
        <time>2025-02-20T00:39:36.440Z</time>
      </trkpt>
      <trkpt lat="59.44584793411195" lon="14.003893984481692">
        <ele>96.73</ele>
        <time>2025-02-20T00:40:37.150Z</time>
      </trkpt>
      <trkpt lat="59.445918928831816" lon="14.003898929804564">
        <ele>96.73</ele>
        <time>2025-02-20T00:41:37.861Z</time>
      </trkpt>
      <trkpt lat="59.44598992355168" lon="14.00390999391675">
        <ele>96.73</ele>
        <time>2025-02-20T00:42:38.573Z</time>
      </trkpt>
      <trkpt lat="59.44606091827154" lon="14.003927931189537">
        <ele>96.72</ele>
        <time>2025-02-20T00:43:39.287Z</time>
      </trkpt>
      <trkpt lat="59.446130990982056" lon="14.0039539989084">
        <ele>96.7</ele>
        <time>2025-02-20T00:44:40.002Z</time>
      </trkpt>
      <trkpt lat="59.44619997404516" lon="14.003986939787865">
        <ele>96.68</ele>
        <time>2025-02-20T00:45:40.718Z</time>
      </trkpt>
      <trkpt lat="59.44626895710826" lon="14.004027927294374">
        <ele>96.66</ele>
        <time>2025-02-20T00:46:41.435Z</time>
      </trkpt>
      <trkpt lat="59.44633894599974" lon="14.004074949771166">
        <ele>96.63</ele>
        <time>2025-02-20T00:47:42.153Z</time>
      </trkpt>
      <trkpt lat="59.446408934891224" lon="14.00412691757083">
        <ele>96.59</ele>
        <time>2025-02-20T00:48:42.872Z</time>
      </trkpt>
      <trkpt lat="59.44648093543947" lon="14.004179975017905">
        <ele>96.55</ele>
        <time>2025-02-20T00:49:43.593Z</time>
      </trkpt>
      <trkpt lat="59.44655293598771" lon="14.004237977787852">
        <ele>96.5</ele>
        <time>2025-02-20T00:50:44.315Z</time>
      </trkpt>
      <trkpt lat="59.446624936535954" lon="14.004298998042941">
        <ele>96.45</ele>
        <time>2025-02-20T00:51:45.038Z</time>
      </trkpt>
      <trkpt lat="59.4466969370842" lon="14.004359934478998">
        <ele>96.39</ele>
        <time>2025-02-20T00:52:45.762Z</time>
      </trkpt>
      <trkpt lat="59.44676994346082" lon="14.004422966390848">
        <ele>96.33</ele>
        <time>2025-02-20T00:53:46.488Z</time>
      </trkpt>
      <trkpt lat="59.446842949837446" lon="14.004488931968808">
        <ele>96.26</ele>
        <time>2025-02-20T00:54:47.215Z</time>
      </trkpt>
      <trkpt lat="59.44691495038569" lon="14.0045549813658">
        <ele>96.19</ele>
        <time>2025-02-20T00:55:47.943Z</time>
      </trkpt>
      <trkpt lat="59.446987956762314" lon="14.00462195277214">
        <ele>96.12</ele>
        <time>2025-02-20T00:56:48.673Z</time>
      </trkpt>
      <trkpt lat="59.44705995731056" lon="14.004688924178481">
        <ele>96.04</ele>
        <time>2025-02-20T00:57:49.404Z</time>
      </trkpt>
      <trkpt lat="59.44713497534394" lon="14.004755979403853">
        <ele>95.96</ele>
        <time>2025-02-20T00:58:50.136Z</time>
      </trkpt>
      <trkpt lat="59.44720898754895" lon="14.004826974123716">
        <ele>95.88</ele>
        <time>2025-02-20T00:59:50.869Z</time>
      </trkpt>
      <trkpt lat="59.44728199392557" lon="14.004885982722044">
        <ele>95.8</ele>
        <time>2025-02-20T01:00:51.604Z</time>
      </trkpt>
      <trkpt lat="59.447353994473815" lon="14.004947924986482">
        <ele>95.72</ele>
        <time>2025-02-20T01:01:52.340Z</time>
      </trkpt>
      <trkpt lat="59.44742599502206" lon="14.00500793941319">
        <ele>95.64</ele>
        <time>2025-02-20T01:02:53.077Z</time>
      </trkpt>
      <trkpt lat="59.44749598391354" lon="14.005065942183137">
        <ele>95.56</ele>
        <time>2025-02-20T01:03:53.815Z</time>
      </trkpt>
      <trkpt lat="59.44756396114826" lon="14.005123944953084">
        <ele>95.47</ele>
        <time>2025-02-20T01:04:54.555Z</time>
      </trkpt>
      <trkpt lat="59.44762598723173" lon="14.005185971036553">
        <ele>95.37</ele>
        <time>2025-02-20T01:05:55.296Z</time>
      </trkpt>
      <trkpt lat="59.44768591783941" lon="14.005237938836217">
        <ele>95.28</ele>
        <time>2025-02-20T01:06:56.038Z</time>
      </trkpt>
      <trkpt lat="59.447744926437736" lon="14.005271969363093">
        <ele>95.18</ele>
        <time>2025-02-20T01:07:56.781Z</time>
      </trkpt>
      <trkpt lat="59.44780393503606" lon="14.005282949656248">
        <ele>95.08</ele>
        <time>2025-02-20T01:08:57.525Z</time>
      </trkpt>
      <trkpt lat="59.447853974998" lon="14.005277920514345">
        <ele>94.98</ele>
        <time>2025-02-20T01:09:58.270Z</time>
      </trkpt>
      <trkpt lat="59.44790493696928" lon="14.005249924957752">
        <ele>94.88</ele>
        <time>2025-02-20T01:10:59.015Z</time>
      </trkpt>
      <trkpt lat="59.44796193391085" lon="14.00517893023789">
        <ele>94.78</ele>
        <time>2025-02-20T01:11:59.762Z</time>
      </trkpt>
      <trkpt lat="59.4480159971863" lon="14.005087986588478">
        <ele>94.68</ele>
        <time>2025-02-20T01:13:00.510Z</time>
      </trkpt>
      <trkpt lat="59.44805991835892" lon="14.004978938028216">
        <ele>94.57</ele>
        <time>2025-02-20T01:14:01.259Z</time>
      </trkpt>
      <trkpt lat="59.44810199551284" lon="14.004858992993832">
        <ele>94.46</ele>
        <time>2025-02-20T01:15:02.009Z</time>
      </trkpt>
      <trkpt lat="59.44813694804907" lon="14.004734940826893">
        <ele>94.34</ele>
        <time>2025-02-20T01:16:02.760Z</time>
      </trkpt>
      <trkpt lat="59.448171984404325" lon="14.004605943337083">
        <ele>94.22</ele>
        <time>2025-02-20T01:17:03.512Z</time>
      </trkpt>
      <trkpt lat="59.44820391945541" lon="14.004473928362131">
        <ele>94.09</ele>
        <time>2025-02-20T01:18:04.266Z</time>
      </trkpt>
      <trkpt lat="59.44823292084038" lon="14.00434291921556">
        <ele>93.96</ele>
        <time>2025-02-20T01:19:05.021Z</time>
      </trkpt>
      <trkpt lat="59.448258988559246" lon="14.004203947260976">
        <ele>93.82</ele>
        <time>2025-02-20T01:20:05.777Z</time>
      </trkpt>
      <trkpt lat="59.44828597828746" lon="14.004065981134772">
        <ele>93.67</ele>
        <time>2025-02-20T01:21:06.534Z</time>
      </trkpt>
      <trkpt lat="59.44831095635891" lon="14.003918962553144">
        <ele>93.52</ele>
        <time>2025-02-20T01:22:07.292Z</time>
      </trkpt>
      <trkpt lat="59.4483389519155" lon="14.003770938143134">
        <ele>93.37</ele>
        <time>2025-02-20T01:23:08.052Z</time>
      </trkpt>
      <trkpt lat="59.448365941643715" lon="14.003627942875028">
        <ele>93.21</ele>
        <time>2025-02-20T01:24:08.813Z</time>
      </trkpt>
      <trkpt lat="59.44839594885707" lon="14.003494922071695">
        <ele>93.06</ele>
        <time>2025-02-20T01:25:09.575Z</time>
      </trkpt>
      <trkpt lat="59.44841992110014" lon="14.003351926803589">
        <ele>92.9</ele>
        <time>2025-02-20T01:26:10.338Z</time>
      </trkpt>
      <trkpt lat="59.448445988819" lon="14.003204992040992">
        <ele>92.73</ele>
        <time>2025-02-20T01:27:11.103Z</time>
      </trkpt>
      <trkpt lat="59.44846895523369" lon="14.003047998994589">
        <ele>92.58</ele>
        <time>2025-02-20T01:28:11.869Z</time>
      </trkpt>
      <trkpt lat="59.44848597049713" lon="14.002874996513128">
        <ele>92.42</ele>
        <time>2025-02-20T01:29:12.636Z</time>
      </trkpt>
      <trkpt lat="59.44850298576057" lon="14.002700988203287">
        <ele>92.26</ele>
        <time>2025-02-20T01:30:13.405Z</time>
      </trkpt>
      <trkpt lat="59.44851899519563" lon="14.002530919387937">
        <ele>92.09</ele>
        <time>2025-02-20T01:31:14.175Z</time>
      </trkpt>
      <trkpt lat="59.448532992973924" lon="14.002356994897127">
        <ele>91.93</ele>
        <time>2025-02-20T01:32:14.947Z</time>
      </trkpt>
      <trkpt lat="59.44854699075222" lon="14.002177957445383">
        <ele>91.77</ele>
        <time>2025-02-20T01:33:15.720Z</time>
      </trkpt>
      <trkpt lat="59.448557971045375" lon="14.001992968842387">
        <ele>91.61</ele>
        <time>2025-02-20T01:34:16.495Z</time>
      </trkpt>
      <trkpt lat="59.44856794551015" lon="14.001810997724533">
        <ele>91.44</ele>
        <time>2025-02-20T01:35:17.271Z</time>
      </trkpt>
      <trkpt lat="59.44857791997492" lon="14.001631960272789">
        <ele>91.27</ele>
        <time>2025-02-20T01:36:18.049Z</time>
      </trkpt>
      <trkpt lat="59.44858697243035" lon="14.001451916992664">
        <ele>91.09</ele>
        <time>2025-02-20T01:37:18.828Z</time>
      </trkpt>
      <trkpt lat="59.4485979527235" lon="14.00126894004643">
        <ele>90.92</ele>
        <time>2025-02-20T01:38:19.609Z</time>
      </trkpt>
      <trkpt lat="59.448601976037025" lon="14.001092920079827">
        <ele>90.74</ele>
        <time>2025-02-20T01:39:20.391Z</time>
      </trkpt>
      <trkpt lat="59.4486069213599" lon="14.000933999195695">
        <ele>90.56</ele>
        <time>2025-02-20T01:40:21.174Z</time>
      </trkpt>
      <trkpt lat="59.448624942451715" lon="14.000781951472163">
        <ele>90.38</ele>
        <time>2025-02-20T01:41:21.959Z</time>
      </trkpt>
      <trkpt lat="59.44863592274487" lon="14.00062596425414">
        <ele>90.2</ele>
        <time>2025-02-20T01:42:22.745Z</time>
      </trkpt>
      <trkpt lat="59.44863592274487" lon="14.000461930409074">
        <ele>90.01</ele>
        <time>2025-02-20T01:43:23.532Z</time>
      </trkpt>
      <trkpt lat="59.44863894023001" lon="14.000306949019432">
        <ele>89.82</ele>
        <time>2025-02-20T01:44:24.321Z</time>
      </trkpt>
      <trkpt lat="59.448643969371915" lon="14.000154985114932">
        <ele>89.64</ele>
        <time>2025-02-20T01:45:25.111Z</time>
      </trkpt>
      <trkpt lat="59.448643969371915" lon="14.000003943219781">
        <ele>89.44</ele>
        <time>2025-02-20T01:46:25.902Z</time>
      </trkpt>
      <trkpt lat="59.448642963543534" lon="13.999857930466533">
        <ele>89.25</ele>
        <time>2025-02-20T01:47:26.694Z</time>
      </trkpt>
      <trkpt lat="59.44863894023001" lon="13.999713929370046">
        <ele>89.06</ele>
        <time>2025-02-20T01:48:27.487Z</time>
      </trkpt>
      <trkpt lat="59.44863399490714" lon="13.9995729457587">
        <ele>88.87</ele>
        <time>2025-02-20T01:49:28.282Z</time>
      </trkpt>
      <trkpt lat="59.44862997159362" lon="13.999431962147355">
        <ele>88.68</ele>
        <time>2025-02-20T01:50:29.078Z</time>
      </trkpt>
      <trkpt lat="59.448624942451715" lon="13.99928997270763">
        <ele>88.5</ele>
        <time>2025-02-20T01:51:29.875Z</time>
      </trkpt>
      <trkpt lat="59.44861798547208" lon="13.999152928590775">
        <ele>88.31</ele>
        <time>2025-02-20T01:52:30.673Z</time>
      </trkpt>
      <trkpt lat="59.4486069213599" lon="13.99901295080781">
        <ele>88.11</ele>
        <time>2025-02-20T01:53:31.472Z</time>
      </trkpt>
      <trkpt lat="59.448598958551884" lon="13.998874984681606">
        <ele>87.92</ele>
        <time>2025-02-20T01:54:32.272Z</time>
      </trkpt>
      <trkpt lat="59.44858898408711" lon="13.998738946393132">
        <ele>87.72</ele>
        <time>2025-02-20T01:55:33.073Z</time>
      </trkpt>
      <trkpt lat="59.448578925803304" lon="13.9986059255898">
        <ele>87.53</ele>
        <time>2025-02-20T01:56:33.875Z</time>
      </trkpt>
      <trkpt lat="59.44856794551015" lon="13.99847692809999">
        <ele>87.33</ele>
        <time>2025-02-20T01:57:34.679Z</time>
      </trkpt>
      <trkpt lat="59.448555959388614" lon="13.99834499694407">
        <ele>87.13</ele>
        <time>2025-02-20T01:58:35.484Z</time>
      </trkpt>
      <trkpt lat="59.4485429674387" lon="13.998206946998835">
        <ele>86.93</ele>
        <time>2025-02-20T01:59:36.290Z</time>
      </trkpt>
      <trkpt lat="59.4485289696604" lon="13.998069986701012">
        <ele>86.72</ele>
        <time>2025-02-20T02:00:37.097Z</time>
      </trkpt>
      <trkpt lat="59.448514971882105" lon="13.997929925099015">
        <ele>86.51</ele>
        <time>2025-02-20T02:01:37.905Z</time>
      </trkpt>
      <trkpt lat="59.44850298576057" lon="13.997786929830909">
        <ele>86.3</ele>
        <time>2025-02-20T02:02:38.714Z</time>
      </trkpt>
      <trkpt lat="59.448494939133525" lon="13.997639995068312">
        <ele>86.09</ele>
        <time>2025-02-20T02:03:39.524Z</time>
      </trkpt>
      <trkpt lat="59.44848697632551" lon="13.997490964829922">
        <ele>85.89</ele>
        <time>2025-02-20T02:04:40.336Z</time>
      </trkpt>
      <trkpt lat="59.44847499020398" lon="13.99733598344028">
        <ele>85.68</ele>
        <time>2025-02-20T02:05:41.149Z</time>
      </trkpt>
      <trkpt lat="59.44846199825406" lon="13.997179996222258">
        <ele>85.46</ele>
        <time>2025-02-20T02:06:41.963Z</time>
      </trkpt>
      <trkpt lat="59.448449928313494" lon="13.997020991519094">
        <ele>85.25</ele>
        <time>2025-02-20T02:07:42.779Z</time>
      </trkpt>
      <trkpt lat="59.4484359305352" lon="13.996860980987549">
        <ele>85.03</ele>
        <time>2025-02-20T02:08:43.596Z</time>
      </trkpt>
      <trkpt lat="59.44841899909079" lon="13.996702982112765">
        <ele>84.81</ele>
        <time>2025-02-20T02:09:44.414Z</time>
      </trkpt>
      <trkpt lat="59.44840592332184" lon="13.996555963531137">
        <ele>84.6</ele>
        <time>2025-02-20T02:10:45.233Z</time>
      </trkpt>
      <trkpt lat="59.44839293137193" lon="13.996404921635985">
        <ele>84.37</ele>
        <time>2025-02-20T02:11:46.054Z</time>
      </trkpt>
      <trkpt lat="59.44838094525039" lon="13.996248934417963">
        <ele>84.15</ele>
        <time>2025-02-20T02:12:46.876Z</time>
      </trkpt>
      <trkpt lat="59.44836895912886" lon="13.996087918058038">
        <ele>83.92</ele>
        <time>2025-02-20T02:13:47.699Z</time>
      </trkpt>
      <trkpt lat="59.44835395552218" lon="13.995922962203622">
        <ele>83.69</ele>
        <time>2025-02-20T02:14:48.524Z</time>
      </trkpt>
      <trkpt lat="59.4483389519155" lon="13.995757922530174">
        <ele>83.45</ele>
        <time>2025-02-20T02:15:49.350Z</time>
      </trkpt>
      <trkpt lat="59.448323948308825" lon="13.995590955018997">
        <ele>83.22</ele>
        <time>2025-02-20T02:16:50.177Z</time>
      </trkpt>
      <trkpt lat="59.44831095635891" lon="13.99542298167944">
        <ele>82.99</ele>
        <time>2025-02-20T02:17:51.006Z</time>
      </trkpt>
      <trkpt lat="59.44829494692385" lon="13.99525391869247">
        <ele>82.75</ele>
        <time>2025-02-20T02:18:51.836Z</time>
      </trkpt>
      <trkpt lat="59.44827399216592" lon="13.995077982544899">
        <ele>82.52</ele>
        <time>2025-02-20T02:19:52.668Z</time>
      </trkpt>
      <trkpt lat="59.4482509419322" lon="13.99490799754858">
        <ele>82.3</ele>
        <time>2025-02-20T02:20:53.501Z</time>
      </trkpt>
      <trkpt lat="59.44822194054723" lon="13.994745975360274">
        <ele>82.08</ele>
        <time>2025-02-20T02:21:54.336Z</time>
      </trkpt>
      <trkpt lat="59.44818992167711" lon="13.994594933465123">
        <ele>81.86</ele>
        <time>2025-02-20T02:22:55.172Z</time>
      </trkpt>
      <trkpt lat="59.44815396331251" lon="13.994451938197017">
        <ele>81.64</ele>
        <time>2025-02-20T02:23:56.009Z</time>
      </trkpt>
      <trkpt lat="59.44812194444239" lon="13.994313972070813">
        <ele>81.43</ele>
        <time>2025-02-20T02:24:56.847Z</time>
      </trkpt>
      <trkpt lat="59.44809294305742" lon="13.99417893961072">
        <ele>81.21</ele>
        <time>2025-02-20T02:25:57.687Z</time>
      </trkpt>
      <trkpt lat="59.448066959157586" lon="13.994045918807387">
        <ele>80.99</ele>
        <time>2025-02-20T02:26:58.528Z</time>
      </trkpt>
      <trkpt lat="59.44804499857128" lon="13.993904935196042">
        <ele>80.77</ele>
        <time>2025-02-20T02:27:59.370Z</time>
      </trkpt>
      <trkpt lat="59.44802697747946" lon="13.993760934099555">
        <ele>80.55</ele>
        <time>2025-02-20T02:29:00.213Z</time>
      </trkpt>
      <trkpt lat="59.44801297970116" lon="13.993607964366674">
        <ele>80.33</ele>
        <time>2025-02-20T02:30:01.057Z</time>
      </trkpt>
      <trkpt lat="59.44800493307412" lon="13.993449965491891">
        <ele>80.11</ele>
        <time>2025-02-20T02:31:01.903Z</time>
      </trkpt>
      <trkpt lat="59.448000993579626" lon="13.993290960788727">
        <ele>79.89</ele>
        <time>2025-02-20T02:32:02.750Z</time>
      </trkpt>
      <trkpt lat="59.44799596443772" lon="13.993133967742324">
        <ele>79.68</ele>
        <time>2025-02-20T02:33:03.598Z</time>
      </trkpt>
      <trkpt lat="59.44798397831619" lon="13.992982925847173">
        <ele>79.47</ele>
        <time>2025-02-20T02:34:04.448Z</time>
      </trkpt>
      <trkpt lat="59.44796293973923" lon="13.992834985256195">
        <ele>79.25</ele>
        <time>2025-02-20T02:35:05.299Z</time>
      </trkpt>
      <trkpt lat="59.44793293252587" lon="13.992690984159708">
        <ele>79.04</ele>
        <time>2025-02-20T02:36:06.151Z</time>
      </trkpt>
      <trkpt lat="59.447891945019364" lon="13.992561986669898">
        <ele>78.83</ele>
        <time>2025-02-20T02:37:07.004Z</time>
      </trkpt>
      <trkpt lat="59.44784098304808" lon="13.992444975301623">
        <ele>78.62</ele>
        <time>2025-02-20T02:38:07.859Z</time>
      </trkpt>
      <trkpt lat="59.447781974449754" lon="13.992336932569742">
        <ele>78.41</ele>
        <time>2025-02-20T02:39:08.715Z</time>
      </trkpt>
      <trkpt lat="59.447718942537904" lon="13.992237942293286">
        <ele>78.2</ele>
        <time>2025-02-20T02:40:09.572Z</time>
      </trkpt>
      <trkpt lat="59.447652976959944" lon="13.992143981158733">
        <ele>77.99</ele>
        <time>2025-02-20T02:41:10.431Z</time>
      </trkpt>
      <trkpt lat="59.44758592173457" lon="13.992053959518671">
        <ele>77.79</ele>
        <time>2025-02-20T02:42:11.291Z</time>
      </trkpt>
      <trkpt lat="59.44751693867147" lon="13.991967961192131">
        <ele>77.59</ele>
        <time>2025-02-20T02:43:12.152Z</time>
      </trkpt>
      <trkpt lat="59.44744594395161" lon="13.991885986179113">
        <ele>77.39</ele>
        <time>2025-02-20T02:44:13.014Z</time>
      </trkpt>
      <trkpt lat="59.44737293757498" lon="13.991804933175445">
        <ele>77.19</ele>
        <time>2025-02-20T02:45:13.878Z</time>
      </trkpt>
      <trkpt lat="59.4472979195416" lon="13.991725975647569">
        <ele>76.99</ele>
        <time>2025-02-20T02:46:14.743Z</time>
      </trkpt>
      <trkpt lat="59.44722197949886" lon="13.991648945957422">
        <ele>76.79</ele>
        <time>2025-02-20T02:47:15.610Z</time>
      </trkpt>
      <trkpt lat="59.4471459556371" lon="13.991569988429546">
        <ele>76.59</ele>
        <time>2025-02-20T02:48:16.478Z</time>
      </trkpt>
      <trkpt lat="59.44707093760371" lon="13.99149195291102">
        <ele>76.4</ele>
        <time>2025-02-20T02:49:17.347Z</time>
      </trkpt>
      <trkpt lat="59.44699499756098" lon="13.991411989554763">
        <ele>76.2</ele>
        <time>2025-02-20T02:50:18.218Z</time>
      </trkpt>
      <trkpt lat="59.44691897369921" lon="13.991326997056603">
        <ele>76.0</ele>
        <time>2025-02-20T02:51:19.090Z</time>
      </trkpt>
      <trkpt lat="59.44684496149421" lon="13.991236975416541">
        <ele>75.81</ele>
        <time>2025-02-20T02:52:19.963Z</time>
      </trkpt>
      <trkpt lat="59.446773966774344" lon="13.991140918806195">
        <ele>75.62</ele>
        <time>2025-02-20T02:53:20.838Z</time>
      </trkpt>
      <trkpt lat="59.44670297205448" lon="13.991037989035249">
        <ele>75.43</ele>
        <time>2025-02-20T02:54:21.714Z</time>
      </trkpt>
      <trkpt lat="59.44663499481976" lon="13.990930952131748">
        <ele>75.24</ele>
        <time>2025-02-20T02:55:22.592Z</time>
      </trkpt>
      <trkpt lat="59.44656693376601" lon="13.990824921056628">
        <ele>75.06</ele>
        <time>2025-02-20T02:56:23.471Z</time>
      </trkpt>
      <trkpt lat="59.446496944874525" lon="13.990721991285682">
        <ele>74.88</ele>
        <time>2025-02-20T02:57:24.351Z</time>
      </trkpt>
      <trkpt lat="59.4464239384979" lon="13.990622917190194">
        <ele>74.7</ele>
        <time>2025-02-20T02:58:25.233Z</time>
      </trkpt>
      <trkpt lat="59.446348920464516" lon="13.99052795022726">
        <ele>74.52</ele>
        <time>2025-02-20T02:59:26.116Z</time>
      </trkpt>
      <trkpt lat="59.4462719745934" lon="13.990434994921088">
        <ele>74.35</ele>
        <time>2025-02-20T03:00:27.001Z</time>
      </trkpt>
      <trkpt lat="59.446195950731635" lon="13.990341955795884">
        <ele>74.18</ele>
        <time>2025-02-20T03:01:27.887Z</time>
      </trkpt>
      <trkpt lat="59.44612093269825" lon="13.99024698883295">
        <ele>74.0</ele>
        <time>2025-02-20T03:02:28.775Z</time>
      </trkpt>
      <trkpt lat="59.446047926321626" lon="13.990149926394224">
        <ele>73.83</ele>
        <time>2025-02-20T03:03:29.664Z</time>
      </trkpt>
      <trkpt lat="59.445978943258524" lon="13.990047918632627">
        <ele>73.67</ele>
        <time>2025-02-20T03:04:30.554Z</time>
      </trkpt>
      <trkpt lat="59.445914989337325" lon="13.989940965548158">
        <ele>73.5</ele>
        <time>2025-02-20T03:05:31.446Z</time>
      </trkpt>
      <trkpt lat="59.44585497491062" lon="13.989826971665025">
        <ele>73.33</ele>
        <time>2025-02-20T03:06:32.339Z</time>
      </trkpt>
      <trkpt lat="59.44579797796905" lon="13.989706942811608">
        <ele>73.17</ele>
        <time>2025-02-20T03:07:33.233Z</time>
      </trkpt>
      <trkpt lat="59.445743998512626" lon="13.98958096280694">
        <ele>73.01</ele>
        <time>2025-02-20T03:08:34.129Z</time>
      </trkpt>
      <trkpt lat="59.44569395855069" lon="13.989446936175227">
        <ele>72.86</ele>
        <time>2025-02-20T03:09:35.026Z</time>
      </trkpt>
      <trkpt lat="59.44564894773066" lon="13.989306958392262">
        <ele>72.7</ele>
        <time>2025-02-20T03:10:35.925Z</time>
      </trkpt>
      <trkpt lat="59.44560796022415" lon="13.989162957295775">
        <ele>72.55</ele>
        <time>2025-02-20T03:11:36.825Z</time>
      </trkpt>
      <trkpt lat="59.445568984374404" lon="13.989014932885766">
        <ele>72.39</ele>
        <time>2025-02-20T03:12:37.726Z</time>
      </trkpt>
      <trkpt lat="59.445529924705625" lon="13.988863974809647">
        <ele>72.25</ele>
        <time>2025-02-20T03:13:38.629Z</time>
      </trkpt>
      <trkpt lat="59.44549094885588" lon="13.988708993420005">
        <ele>72.1</ele>
        <time>2025-02-20T03:14:39.533Z</time>
      </trkpt>
      <trkpt lat="59.44545096717775" lon="13.98855292238295">
        <ele>71.95</ele>
        <time>2025-02-20T03:15:40.438Z</time>
      </trkpt>
      <trkpt lat="59.44541299715638" lon="13.988397940993309">
        <ele>71.81</ele>
        <time>2025-02-20T03:16:41.345Z</time>
      </trkpt>
      <trkpt lat="59.44537594914436" lon="13.988242959603667">
        <ele>71.66</ele>
        <time>2025-02-20T03:17:42.253Z</time>
      </trkpt>
      <trkpt lat="59.44533898495138" lon="13.988087978214025">
        <ele>71.52</ele>
        <time>2025-02-20T03:18:43.163Z</time>
      </trkpt>
      <trkpt lat="59.44530193693936" lon="13.987929979339242">
        <ele>71.38</ele>
        <time>2025-02-20T03:19:44.074Z</time>
      </trkpt>
      <trkpt lat="59.44526597857475" lon="13.987770974636078">
        <ele>71.24</ele>
        <time>2025-02-20T03:20:44.987Z</time>
      </trkpt>
      <trkpt lat="59.44523295387626" lon="13.987610964104533">
        <ele>71.1</ele>
        <time>2025-02-20T03:21:45.901Z</time>
      </trkpt>
      <trkpt lat="59.44520093500614" lon="13.987446930259466">
        <ele>70.97</ele>
        <time>2025-02-20T03:22:46.816Z</time>
      </trkpt>
      <trkpt lat="59.44517394527793" lon="13.987277951091528">
        <ele>70.84</ele>
        <time>2025-02-20T03:23:47.733Z</time>
      </trkpt>
      <trkpt lat="59.44515299052" lon="13.987105954438448">
        <ele>70.71</ele>
        <time>2025-02-20T03:24:48.651Z</time>
      </trkpt>
      <trkpt lat="59.44513698108494" lon="13.986931946128607">
        <ele>70.58</ele>
        <time>2025-02-20T03:25:49.571Z</time>
      </trkpt>
      <trkpt lat="59.44512692280114" lon="13.986758943647146">
        <ele>70.46</ele>
        <time>2025-02-20T03:26:50.492Z</time>
      </trkpt>
      <trkpt lat="59.445119965821505" lon="13.986585941165686">
        <ele>70.34</ele>
        <time>2025-02-20T03:27:51.415Z</time>
      </trkpt>
      <trkpt lat="59.44511594250798" lon="13.986413944512606">
        <ele>70.23</ele>
        <time>2025-02-20T03:28:52.339Z</time>
      </trkpt>
      <trkpt lat="59.44511594250798" lon="13.986243959516287">
        <ele>70.11</ele>
        <time>2025-02-20T03:29:53.264Z</time>
      </trkpt>
      <trkpt lat="59.445120971649885" lon="13.986073974519968">
        <ele>70.0</ele>
        <time>2025-02-20T03:30:54.191Z</time>
      </trkpt>
      <trkpt lat="59.44513195194304" lon="13.98590499535203">
        <ele>69.89</ele>
        <time>2025-02-20T03:31:55.119Z</time>
      </trkpt>
      <trkpt lat="59.44515097886324" lon="13.985738949850202">
        <ele>69.79</ele>
        <time>2025-02-20T03:32:56.048Z</time>
      </trkpt>
      <trkpt lat="59.44517394527793" lon="13.985576927661896">
        <ele>69.68</ele>
        <time>2025-02-20T03:33:56.979Z</time>
      </trkpt>
      <trkpt lat="59.44520194083452" lon="13.985418928787112">
        <ele>69.58</ele>
        <time>2025-02-20T03:34:57.911Z</time>
      </trkpt>
      <trkpt lat="59.4452359713614" lon="13.985265959054232">
        <ele>69.48</ele>
        <time>2025-02-20T03:35:58.845Z</time>
      </trkpt>
      <trkpt lat="59.445272935554385" lon="13.985116928815842">
        <ele>69.38</ele>
        <time>2025-02-20T03:36:59.780Z</time>
      </trkpt>
      <trkpt lat="59.445310989394784" lon="13.984969994053245">
        <ele>69.28</ele>
        <time>2025-02-20T03:38:00.716Z</time>
      </trkpt>
      <trkpt lat="59.44535197690129" lon="13.984825992956758">
        <ele>69.18</ele>
        <time>2025-02-20T03:39:01.654Z</time>
      </trkpt>
      <trkpt lat="59.4453929644078" lon="13.98468098603189">
        <ele>69.08</ele>
        <time>2025-02-20T03:40:02.593Z</time>
      </trkpt>
      <trkpt lat="59.44543495774269" lon="13.984537990763783">
        <ele>68.99</ele>
        <time>2025-02-20T03:41:03.533Z</time>
      </trkpt>
      <trkpt lat="59.44547493942082" lon="13.984394995495677">
        <ele>68.9</ele>
        <time>2025-02-20T03:42:04.475Z</time>
      </trkpt>
      <trkpt lat="59.44551592692733" lon="13.98425099439919">
        <ele>68.81</ele>
        <time>2025-02-20T03:43:05.418Z</time>
      </trkpt>
      <trkpt lat="59.44555792026222" lon="13.984107999131083">
        <ele>68.73</ele>
        <time>2025-02-20T03:44:06.362Z</time>
      </trkpt>
      <trkpt lat="59.44559999741614" lon="13.983966931700706">
        <ele>68.66</ele>
        <time>2025-02-20T03:45:07.308Z</time>
      </trkpt>
      <trkpt lat="59.44564299657941" lon="13.98382494226098">
        <ele>68.58</ele>
        <time>2025-02-20T03:46:08.255Z</time>
      </trkpt>
      <trkpt lat="59.44568398408592" lon="13.983681946992874">
        <ele>68.51</ele>
        <time>2025-02-20T03:47:09.203Z</time>
      </trkpt>
      <trkpt lat="59.44572698324919" lon="13.983540963381529">
        <ele>68.44</ele>
        <time>2025-02-20T03:48:10.153Z</time>
      </trkpt>
      <trkpt lat="59.44576897658408" lon="13.983401991426945">
        <ele>68.38</ele>
        <time>2025-02-20T03:49:11.104Z</time>
      </trkpt>
      <trkpt lat="59.445810969918966" lon="13.983262935653329">
        <ele>68.32</ele>
        <time>2025-02-20T03:50:12.056Z</time>
      </trkpt>
      <trkpt lat="59.445852963253856" lon="13.983120946213603">
        <ele>68.26</ele>
        <time>2025-02-20T03:51:13.010Z</time>
      </trkpt>
      <trkpt lat="59.445894956588745" lon="13.982977950945497">
        <ele>68.2</ele>
        <time>2025-02-20T03:52:13.965Z</time>
      </trkpt>
      <trkpt lat="59.445937955752015" lon="13.98283495567739">
        <ele>68.14</ele>
        <time>2025-02-20T03:53:14.921Z</time>
      </trkpt>
      <trkpt lat="59.445979949086905" lon="13.982691960409284">
        <ele>68.08</ele>
        <time>2025-02-20T03:54:15.879Z</time>
      </trkpt>
      <trkpt lat="59.44601993076503" lon="13.982547959312797">
        <ele>68.03</ele>
        <time>2025-02-20T03:55:16.838Z</time>
      </trkpt>
      <trkpt lat="59.44605798460543" lon="13.98240395821631">
        <ele>67.99</ele>
        <time>2025-02-20T03:56:17.798Z</time>
      </trkpt>
      <trkpt lat="59.44609494879842" lon="13.982263980433345">
        <ele>67.94</ele>
        <time>2025-02-20T03:57:18.760Z</time>
      </trkpt>
      <trkpt lat="59.44612596184015" lon="13.982117967680097">
        <ele>67.89</ele>
        <time>2025-02-20T03:58:19.723Z</time>
      </trkpt>
      <trkpt lat="59.44614792242646" lon="13.981965919956565">
        <ele>67.84</ele>
        <time>2025-02-20T03:59:20.687Z</time>
      </trkpt>
      <trkpt lat="59.44615898653865" lon="13.981810938566923">
        <ele>67.79</ele>
        <time>2025-02-20T04:00:21.653Z</time>
      </trkpt>
      <trkpt lat="59.44616292603314" lon="13.98165394552052">
        <ele>67.75</ele>
        <time>2025-02-20T04:01:22.620Z</time>
      </trkpt>
      <trkpt lat="59.44615798071027" lon="13.981494940817356">
        <ele>67.72</ele>
        <time>2025-02-20T04:02:23.588Z</time>
      </trkpt>
      <trkpt lat="59.44614599458873" lon="13.981336941942573">
        <ele>67.68</ele>
        <time>2025-02-20T04:03:24.557Z</time>
      </trkpt>
      <trkpt lat="59.446130990982056" lon="13.981176931411028">
        <ele>67.64</ele>
        <time>2025-02-20T04:04:25.528Z</time>
      </trkpt>
      <trkpt lat="59.44611397571862" lon="13.981018932536244">
        <ele>67.61</ele>
        <time>2025-02-20T04:05:26.500Z</time>
      </trkpt>
      <trkpt lat="59.4460959546268" lon="13.980861939489841">
        <ele>67.58</ele>
        <time>2025-02-20T04:06:27.473Z</time>
      </trkpt>
      <trkpt lat="59.44607592187822" lon="13.980700923129916">
        <ele>67.55</ele>
        <time>2025-02-20T04:07:28.448Z</time>
      </trkpt>
      <trkpt lat="59.44605295546353" lon="13.980538984760642">
        <ele>67.52</ele>
        <time>2025-02-20T04:08:29.424Z</time>
      </trkpt>
      <trkpt lat="59.446024959906936" lon="13.980375956743956">
        <ele>67.5</ele>
        <time>2025-02-20T04:09:30.402Z</time>
      </trkpt>
      <trkpt lat="59.44599495269358" lon="13.980211922898889">
        <ele>67.48</ele>
        <time>2025-02-20T04:10:31.381Z</time>
      </trkpt>
      <trkpt lat="59.445961927995086" lon="13.980047972872853">
        <ele>67.46</ele>
        <time>2025-02-20T04:11:32.361Z</time>
      </trkpt>
      <trkpt lat="59.4459249638021" lon="13.979885950684547">
        <ele>67.44</ele>
        <time>2025-02-20T04:12:33.343Z</time>
      </trkpt>
      <trkpt lat="59.44588196463883" lon="13.979728957638144">
        <ele>67.42</ele>
        <time>2025-02-20T04:13:34.326Z</time>
      </trkpt>
      <trkpt lat="59.445833936333656" lon="13.979576993733644">
        <ele>67.41</ele>
        <time>2025-02-20T04:14:35.311Z</time>
      </trkpt>
      <trkpt lat="59.44578297436237" lon="13.979427963495255">
        <ele>67.4</ele>
        <time>2025-02-20T04:15:36.297Z</time>
      </trkpt>
      <trkpt lat="59.44573092274368" lon="13.979277927428484">
        <ele>67.38</ele>
        <time>2025-02-20T04:16:37.285Z</time>
      </trkpt>
      <trkpt lat="59.445678954944015" lon="13.979126969352365">
        <ele>67.38</ele>
        <time>2025-02-20T04:17:38.274Z</time>
      </trkpt>
      <trkpt lat="59.44562396965921" lon="13.978977939113975">
        <ele>67.37</ele>
        <time>2025-02-20T04:18:39.265Z</time>
      </trkpt>
      <trkpt lat="59.445568984374404" lon="13.978829998522997">
        <ele>67.37</ele>
        <time>2025-02-20T04:19:40.257Z</time>
      </trkpt>
      <trkpt lat="59.44551693275571" lon="13.978677950799465">
        <ele>67.37</ele>
        <time>2025-02-20T04:20:41.251Z</time>
      </trkpt>
      <trkpt lat="59.44547099992633" lon="13.97851592861116">
        <ele>67.37</ele>
        <time>2025-02-20T04:21:42.246Z</time>
      </trkpt>
      <trkpt lat="59.44543194025755" lon="13.97834594361484">
        <ele>67.37</ele>
        <time>2025-02-20T04:22:43.243Z</time>
      </trkpt>
      <trkpt lat="59.445401933044195" lon="13.978169923648238">
        <ele>67.37</ele>
        <time>2025-02-20T04:23:44.241Z</time>
      </trkpt>
      <trkpt lat="59.44538198411465" lon="13.977987952530384">
        <ele>67.39</ele>
        <time>2025-02-20T04:24:45.241Z</time>
      </trkpt>
      <trkpt lat="59.4453739374876" lon="13.977803969755769">
        <ele>67.41</ele>
        <time>2025-02-20T04:25:46.242Z</time>
      </trkpt>
      <trkpt lat="59.44537293165922" lon="13.977622920647264">
        <ele>67.42</ele>
        <time>2025-02-20T04:26:47.245Z</time>
      </trkpt>
      <trkpt lat="59.44537293165922" lon="13.977444972842932">
        <ele>67.43</ele>
        <time>2025-02-20T04:27:48.249Z</time>
      </trkpt>
      <trkpt lat="59.445376954972744" lon="13.97727096453309">
        <ele>67.45</ele>
        <time>2025-02-20T04:28:49.255Z</time>
      </trkpt>
      <trkpt lat="59.44538298994303" lon="13.977100979536772">
        <ele>67.47</ele>
        <time>2025-02-20T04:29:50.262Z</time>
      </trkpt>
      <trkpt lat="59.44538592360914" lon="13.976934934034944">
        <ele>67.49</ele>
        <time>2025-02-20T04:30:51.270Z</time>
      </trkpt>
      <trkpt lat="59.44538994692266" lon="13.976770984008908">
        <ele>67.52</ele>
        <time>2025-02-20T04:31:52.280Z</time>
      </trkpt>
      <trkpt lat="59.44539397023618" lon="13.976608961820602">
        <ele>67.54</ele>
        <time>2025-02-20T04:32:53.291Z</time>
      </trkpt>
      <trkpt lat="59.445397993549705" lon="13.976445933803916">
        <ele>67.56</ele>
        <time>2025-02-20T04:33:54.303Z</time>
      </trkpt>
      <trkpt lat="59.445400927215815" lon="13.976282989606261">
        <ele>67.59</ele>
        <time>2025-02-20T04:34:55.317Z</time>
      </trkpt>
      <trkpt lat="59.445402938872576" lon="13.976116944104433">
        <ele>67.62</ele>
        <time>2025-02-20T04:35:56.332Z</time>
      </trkpt>
      <trkpt lat="59.445400927215815" lon="13.975950982421637">
        <ele>67.65</ele>
        <time>2025-02-20T04:36:57.348Z</time>
      </trkpt>
      <trkpt lat="59.44539397023618" lon="13.975785942748189">
        <ele>67.69</ele>
        <time>2025-02-20T04:37:58.366Z</time>
      </trkpt>
      <trkpt lat="59.44538298994303" lon="13.975619981065392">
        <ele>67.72</ele>
        <time>2025-02-20T04:38:59.385Z</time>
      </trkpt>
      <trkpt lat="59.44537192583084" lon="13.975452929735184">
        <ele>67.76</ele>
        <time>2025-02-20T04:40:00.406Z</time>
      </trkpt>
      <trkpt lat="59.44536195136607" lon="13.975285962224007">
        <ele>67.8</ele>
        <time>2025-02-20T04:41:01.428Z</time>
      </trkpt>
      <trkpt lat="59.44534795358777" lon="13.975119916722178">
        <ele>67.84</ele>
        <time>2025-02-20T04:42:02.451Z</time>
      </trkpt>
      <trkpt lat="59.44533294998109" lon="13.974953955039382">
        <ele>67.88</ele>
        <time>2025-02-20T04:43:03.476Z</time>
      </trkpt>
      <trkpt lat="59.44531995803118" lon="13.974787993356586">
        <ele>67.92</ele>
        <time>2025-02-20T04:44:04.502Z</time>
      </trkpt>
      <trkpt lat="59.44530797190964" lon="13.974618930369616">
        <ele>67.97</ele>
        <time>2025-02-20T04:45:05.529Z</time>
      </trkpt>
      <trkpt lat="59.44530093111098" lon="13.974450957030058">
        <ele>68.01</ele>
        <time>2025-02-20T04:46:06.558Z</time>
      </trkpt>
      <trkpt lat="59.445293974131346" lon="13.9742829836905">
        <ele>68.06</ele>
        <time>2025-02-20T04:47:07.588Z</time>
      </trkpt>
      <trkpt lat="59.44528492167592" lon="13.974117944017053">
        <ele>68.11</ele>
        <time>2025-02-20T04:48:08.620Z</time>
      </trkpt>
      <trkpt lat="59.445274947211146" lon="13.973954999819398">
        <ele>68.16</ele>
        <time>2025-02-20T04:49:09.653Z</time>
      </trkpt>
      <trkpt lat="59.44526497274637" lon="13.973794989287853">
        <ele>68.22</ele>
        <time>2025-02-20T04:50:10.687Z</time>
      </trkpt>
      <trkpt lat="59.44525793194771" lon="13.973634978756309">
        <ele>68.27</ele>
        <time>2025-02-20T04:51:11.723Z</time>
      </trkpt>
      <trkpt lat="59.44525298662484" lon="13.973471950739622">
        <ele>68.33</ele>
        <time>2025-02-20T04:52:12.760Z</time>
      </trkpt>
      <trkpt lat="59.445247957482934" lon="13.973307916894555">
        <ele>68.39</ele>
        <time>2025-02-20T04:53:13.798Z</time>
      </trkpt>
      <trkpt lat="59.44524292834103" lon="13.97314296104014">
        <ele>68.45</ele>
        <time>2025-02-20T04:54:14.838Z</time>
      </trkpt>
      <trkpt lat="59.44523798301816" lon="13.972979933023453">
        <ele>68.51</ele>
        <time>2025-02-20T04:55:15.879Z</time>
      </trkpt>
      <trkpt lat="59.44523496553302" lon="13.972813971340656">
        <ele>68.58</ele>
        <time>2025-02-20T04:56:16.921Z</time>
      </trkpt>
      <trkpt lat="59.4452359713614" lon="13.972645998001099">
        <ele>68.65</ele>
        <time>2025-02-20T04:57:17.965Z</time>
      </trkpt>
      <trkpt lat="59.44524594582617" lon="13.972476935014129">
        <ele>68.72</ele>
        <time>2025-02-20T04:58:19.010Z</time>
      </trkpt>
      <trkpt lat="59.44526296108961" lon="13.972308961674571">
        <ele>68.79</ele>
        <time>2025-02-20T04:59:20.056Z</time>
      </trkpt>
      <trkpt lat="59.44528492167592" lon="13.972144927829504">
        <ele>68.86</ele>
        <time>2025-02-20T05:00:21.104Z</time>
      </trkpt>
      <trkpt lat="59.445313923060894" lon="13.97198592312634">
        <ele>68.93</ele>
        <time>2025-02-20T05:01:22.153Z</time>
      </trkpt>
      <trkpt lat="59.44534895941615" lon="13.971831947565079">
        <ele>69.01</ele>
        <time>2025-02-20T05:02:23.204Z</time>
      </trkpt>
      <trkpt lat="59.44538692943752" lon="13.971682917326689">
        <ele>69.08</ele>
        <time>2025-02-20T05:03:24.256Z</time>
      </trkpt>
      <trkpt lat="59.4454259891063" lon="13.971538916230202">
        <ele>69.15</ele>
        <time>2025-02-20T05:04:25.309Z</time>
      </trkpt>
      <trkpt lat="59.44546798244119" lon="13.971399944275618">
        <ele>69.23</ele>
        <time>2025-02-20T05:05:26.364Z</time>
      </trkpt>
      <trkpt lat="59.44551592692733" lon="13.971268935129046">
        <ele>69.31</ele>
        <time>2025-02-20T05:06:27.420Z</time>
      </trkpt>
      <trkpt lat="59.44556697271764" lon="13.971141949295998">
        <ele>69.38</ele>
        <time>2025-02-20T05:07:28.477Z</time>
      </trkpt>
      <trkpt lat="59.44562296383083" lon="13.971018986776471">
        <ele>69.45</ele>
        <time>2025-02-20T05:08:29.536Z</time>
      </trkpt>
      <trkpt lat="59.4456849899143" lon="13.97090993821621">
        <ele>69.53</ele>
        <time>2025-02-20T05:09:30.596Z</time>
      </trkpt>
      <trkpt lat="59.44574994966388" lon="13.970808936282992">
        <ele>69.62</ele>
        <time>2025-02-20T05:10:31.657Z</time>
      </trkpt>
      <trkpt lat="59.44581599906087" lon="13.970711957663298">
        <ele>69.7</ele>
        <time>2025-02-20T05:11:32.720Z</time>
      </trkpt>
      <trkpt lat="59.44588498212397" lon="13.970621936023235">
        <ele>69.78</ele>
        <time>2025-02-20T05:12:33.784Z</time>
      </trkpt>
      <trkpt lat="59.44595195353031" lon="13.970533926039934">
        <ele>69.86</ele>
        <time>2025-02-20T05:13:34.849Z</time>
      </trkpt>
      <trkpt lat="59.44601599127054" lon="13.970444994047284">
        <ele>69.95</ele>
        <time>2025-02-20T05:14:35.915Z</time>
      </trkpt>
      <trkpt lat="59.44607994519174" lon="13.970360923558474">
        <ele>70.03</ele>
        <time>2025-02-20T05:15:36.983Z</time>
      </trkpt>
      <trkpt lat="59.44614398293197" lon="13.970281966030598">
        <ele>70.11</ele>
        <time>2025-02-20T05:16:38.052Z</time>
      </trkpt>
      <trkpt lat="59.44621196016669" lon="13.970207953825593">
        <ele>70.2</ele>
        <time>2025-02-20T05:17:39.122Z</time>
      </trkpt>
      <trkpt lat="59.44627893157303" lon="13.970132935792208">
        <ele>70.28</ele>
        <time>2025-02-20T05:18:40.193Z</time>
      </trkpt>
      <trkpt lat="59.446346992626786" lon="13.970059929415584">
        <ele>70.37</ele>
        <time>2025-02-20T05:19:41.266Z</time>
      </trkpt>
      <trkpt lat="59.44641597568989" lon="13.969989940524101">
        <ele>70.45</ele>
        <time>2025-02-20T05:20:42.340Z</time>
      </trkpt>
      <trkpt lat="59.44648697040975" lon="13.96992196328938">
        <ele>70.54</ele>
        <time>2025-02-20T05:21:43.415Z</time>
      </trkpt>
      <trkpt lat="59.44655695930123" lon="13.969856919720769">
        <ele>70.62</ele>
        <time>2025-02-20T05:22:44.491Z</time>
      </trkpt>
      <trkpt lat="59.446626948192716" lon="13.969796989113092">
        <ele>70.7</ele>
        <time>2025-02-20T05:23:45.569Z</time>
      </trkpt>
      <trkpt lat="59.4466969370842" lon="13.969741920009255">
        <ele>70.78</ele>
        <time>2025-02-20T05:24:46.648Z</time>
      </trkpt>
      <trkpt lat="59.4467659201473" lon="13.96968693472445">
        <ele>70.86</ele>
        <time>2025-02-20T05:25:47.728Z</time>
      </trkpt>
      <trkpt lat="59.44683096371591" lon="13.969628931954503">
        <ele>70.94</ele>
        <time>2025-02-20T05:26:48.809Z</time>
      </trkpt>
      <trkpt lat="59.44689399562776" lon="13.969566989690065">
        <ele>71.03</ele>
        <time>2025-02-20T05:27:49.891Z</time>
      </trkpt>
      <trkpt lat="59.44695493206382" lon="13.969499934464693">
        <ele>71.11</ele>
        <time>2025-02-20T05:28:50.974Z</time>
      </trkpt>
      <trkpt lat="59.447013940662146" lon="13.96942793391645">
        <ele>71.19</ele>
        <time>2025-02-20T05:29:52.059Z</time>
      </trkpt>
      <trkpt lat="59.44707093760371" lon="13.969348976388574">
        <ele>71.27</ele>
        <time>2025-02-20T05:30:53.145Z</time>
      </trkpt>
      <trkpt lat="59.4471269287169" lon="13.969262978062034">
        <ele>71.35</ele>
        <time>2025-02-20T05:31:54.232Z</time>
      </trkpt>
      <trkpt lat="59.447179986163974" lon="13.969168933108449">
        <ele>71.43</ele>
        <time>2025-02-20T05:32:55.320Z</time>
      </trkpt>
      <trkpt lat="59.44723195396364" lon="13.969066925346851">
        <ele>71.5</ele>
        <time>2025-02-20T05:33:56.409Z</time>
      </trkpt>
      <trkpt lat="59.44728199392557" lon="13.968959972262383">
        <ele>71.58</ele>
        <time>2025-02-20T05:34:57.499Z</time>
      </trkpt>
      <trkpt lat="59.44732993841171" lon="13.96884597837925">
        <ele>71.66</ele>
        <time>2025-02-20T05:35:58.590Z</time>
      </trkpt>
      <trkpt lat="59.447377966716886" lon="13.968729972839355">
        <ele>71.74</ele>
        <time>2025-02-20T05:36:59.683Z</time>
      </trkpt>
      <trkpt lat="59.44742297753692" lon="13.9686119556427">
        <ele>71.82</ele>
        <time>2025-02-20T05:38:00.777Z</time>
      </trkpt>
      <trkpt lat="59.44746698252857" lon="13.968496955931187">
        <ele>71.9</ele>
        <time>2025-02-20T05:39:01.872Z</time>
      </trkpt>
      <trkpt lat="59.44750998169184" lon="13.968383967876434">
        <ele>71.97</ele>
        <time>2025-02-20T05:40:02.968Z</time>
      </trkpt>
      <trkpt lat="59.447550969198346" lon="13.968269973993301">
        <ele>72.04</ele>
        <time>2025-02-20T05:41:04.065Z</time>
      </trkpt>
      <trkpt lat="59.447590950876474" lon="13.968151956796646">
        <ele>72.12</ele>
        <time>2025-02-20T05:42:05.164Z</time>
      </trkpt>
      <trkpt lat="59.44762892089784" lon="13.968029916286469">
        <ele>72.2</ele>
        <time>2025-02-20T05:43:06.264Z</time>
      </trkpt>
      <trkpt lat="59.44766093976796" lon="13.967900918796659">
        <ele>72.27</ele>
        <time>2025-02-20T05:44:07.365Z</time>
      </trkpt>
      <trkpt lat="59.44768792949617" lon="13.967767981812358">
        <ele>72.34</ele>
        <time>2025-02-20T05:45:08.467Z</time>
      </trkpt>
      <trkpt lat="59.44770896807313" lon="13.967631943523884">
        <ele>72.42</ele>
        <time>2025-02-20T05:46:09.570Z</time>
      </trkpt>
      <trkpt lat="59.447721960023046" lon="13.967490959912539">
        <ele>72.49</ele>
        <time>2025-02-20T05:47:10.674Z</time>
      </trkpt>
      <trkpt lat="59.44772799499333" lon="13.967346958816051">
        <ele>72.56</ele>
        <time>2025-02-20T05:48:11.780Z</time>
      </trkpt>
      <trkpt lat="59.44772799499333" lon="13.967201951891184">
        <ele>72.62</ele>
        <time>2025-02-20T05:49:12.887Z</time>
      </trkpt>
      <trkpt lat="59.44772397167981" lon="13.967054933309555">
        <ele>72.69</ele>
        <time>2025-02-20T05:50:13.995Z</time>
      </trkpt>
      <trkpt lat="59.44771693088114" lon="13.966907998546958">
        <ele>72.75</ele>
        <time>2025-02-20T05:51:15.104Z</time>
      </trkpt>
      <trkpt lat="59.44770796224475" lon="13.966758968308568">
        <ele>72.81</ele>
        <time>2025-02-20T05:52:16.214Z</time>
      </trkpt>
      <trkpt lat="59.447700921446085" lon="13.966609938070178">
        <ele>72.87</ele>
        <time>2025-02-20T05:53:17.326Z</time>
      </trkpt>
      <trkpt lat="59.44769497029483" lon="13.96646291948855">
        <ele>72.92</ele>
        <time>2025-02-20T05:54:18.439Z</time>
      </trkpt>
      <trkpt lat="59.44768792949617" lon="13.966316990554333">
        <ele>72.98</ele>
        <time>2025-02-20T05:55:19.553Z</time>
      </trkpt>
      <trkpt lat="59.447678960859776" lon="13.966170977801085">
        <ele>73.02</ele>
        <time>2025-02-20T05:56:20.668Z</time>
      </trkpt>
      <trkpt lat="59.44767099805176" lon="13.966020941734314">
        <ele>73.07</ele>
        <time>2025-02-20T05:57:21.784Z</time>
      </trkpt>
      <trkpt lat="59.44766496308148" lon="13.965875934809446">
        <ele>73.11</ele>
        <time>2025-02-20T05:58:22.902Z</time>
      </trkpt>
      <trkpt lat="59.447656916454434" lon="13.965730927884579">
        <ele>73.15</ele>
        <time>2025-02-20T05:59:24.021Z</time>
      </trkpt>
      <trkpt lat="59.44764593616128" lon="13.96558097563684">
        <ele>73.19</ele>
        <time>2025-02-20T06:00:25.141Z</time>
      </trkpt>
      <trkpt lat="59.447632944211364" lon="13.965428927913308">
        <ele>73.22</ele>
        <time>2025-02-20T06:01:26.262Z</time>
      </trkpt>
      <trkpt lat="59.44761894643307" lon="13.965277969837189">
        <ele>73.26</ele>
        <time>2025-02-20T06:02:27.385Z</time>
      </trkpt>
      <trkpt lat="59.44760193116963" lon="13.965122988447547">
        <ele>73.29</ele>
        <time>2025-02-20T06:03:28.509Z</time>
      </trkpt>
      <trkpt lat="59.44758399389684" lon="13.964965995401144">
        <ele>73.32</ele>
        <time>2025-02-20T06:04:29.634Z</time>
      </trkpt>
      <trkpt lat="59.44756496697664" lon="13.96480799652636">
        <ele>73.35</ele>
        <time>2025-02-20T06:05:30.761Z</time>
      </trkpt>
      <trkpt lat="59.44754594005644" lon="13.964647985994816">
        <ele>73.38</ele>
        <time>2025-02-20T06:06:31.889Z</time>
      </trkpt>
      <trkpt lat="59.447526996955276" lon="13.96448495797813">
        <ele>73.41</ele>
        <time>2025-02-20T06:07:33.018Z</time>
      </trkpt>
      <trkpt lat="59.44750998169184" lon="13.964317990466952">
        <ele>73.43</ele>
        <time>2025-02-20T06:08:34.149Z</time>
      </trkpt>
      <trkpt lat="59.44749397225678" lon="13.964149933308363">
        <ele>73.45</ele>
        <time>2025-02-20T06:09:35.281Z</time>
      </trkpt>
      <trkpt lat="59.44747997447848" lon="13.963979948312044">
        <ele>73.47</ele>
        <time>2025-02-20T06:10:36.414Z</time>
      </trkpt>
      <trkpt lat="59.44746798835695" lon="13.963808957487345">
        <ele>73.5</ele>
        <time>2025-02-20T06:11:37.549Z</time>
      </trkpt>
      <trkpt lat="59.44745793007314" lon="13.963640984147787">
        <ele>73.52</ele>
        <time>2025-02-20T06:12:38.685Z</time>
      </trkpt>
      <trkpt lat="59.44744896143675" lon="13.96347594447434">
        <ele>73.54</ele>
        <time>2025-02-20T06:13:39.823Z</time>
      </trkpt>
      <trkpt lat="59.447441920638084" lon="13.963313922286034">
        <ele>73.56</ele>
        <time>2025-02-20T06:14:40.962Z</time>
      </trkpt>
      <trkpt lat="59.44743697531521" lon="13.96315491758287">
        <ele>73.58</ele>
        <time>2025-02-20T06:15:42.102Z</time>
      </trkpt>
      <trkpt lat="59.44743295200169" lon="13.962998930364847">
        <ele>73.6</ele>
        <time>2025-02-20T06:16:43.243Z</time>
      </trkpt>
      <trkpt lat="59.44743094034493" lon="13.962841937318444">
        <ele>73.62</ele>
        <time>2025-02-20T06:17:44.386Z</time>
      </trkpt>
      <trkpt lat="59.44742892868817" lon="13.962684944272041">
        <ele>73.64</ele>
        <time>2025-02-20T06:18:45.530Z</time>
      </trkpt>
      <trkpt lat="59.44742792285979" lon="13.962524933740497">
        <ele>73.65</ele>
        <time>2025-02-20T06:19:46.675Z</time>
      </trkpt>
      <trkpt lat="59.44742892868817" lon="13.962363917380571">
        <ele>73.66</ele>
        <time>2025-02-20T06:20:47.822Z</time>
      </trkpt>
      <trkpt lat="59.44742993451655" lon="13.962201979011297">
        <ele>73.67</ele>
        <time>2025-02-20T06:21:48.970Z</time>
      </trkpt>
      <trkpt lat="59.44743194617331" lon="13.962039956822991">
        <ele>73.68</ele>
        <time>2025-02-20T06:22:50.119Z</time>
      </trkpt>
      <trkpt lat="59.44743496365845" lon="13.961878940463066">
        <ele>73.69</ele>
        <time>2025-02-20T06:23:51.270Z</time>
      </trkpt>
      <trkpt lat="59.447437981143594" lon="13.961718929931521">
        <ele>73.69</ele>
        <time>2025-02-20T06:24:52.422Z</time>
      </trkpt>
      <trkpt lat="59.447439992800355" lon="13.961559925228357">
        <ele>73.69</ele>
        <time>2025-02-20T06:25:53.575Z</time>
      </trkpt>
      <trkpt lat="59.447442926466465" lon="13.961402932181954">
        <ele>73.69</ele>
        <time>2025-02-20T06:26:54.730Z</time>
      </trkpt>
      <trkpt lat="59.44744694977999" lon="13.961246944963932">
        <ele>73.69</ele>
        <time>2025-02-20T06:27:55.886Z</time>
      </trkpt>
      <trkpt lat="59.44744896143675" lon="13.961089951917529">
        <ele>73.68</ele>
        <time>2025-02-20T06:28:57.043Z</time>
      </trkpt>
      <trkpt lat="59.44745097309351" lon="13.960931953042746">
        <ele>73.67</ele>
        <time>2025-02-20T06:29:58.201Z</time>
      </trkpt>
      <trkpt lat="59.44745499640703" lon="13.960771942511201">
        <ele>73.65</ele>
        <time>2025-02-20T06:30:59.361Z</time>
      </trkpt>
      <trkpt lat="59.44745793007314" lon="13.960612937808037">
        <ele>73.64</ele>
        <time>2025-02-20T06:32:00.522Z</time>
      </trkpt>
      <trkpt lat="59.4474599417299" lon="13.960454938933253">
        <ele>73.62</ele>
        <time>2025-02-20T06:33:01.684Z</time>
      </trkpt>
      <trkpt lat="59.447463965043426" lon="13.960299957543612">
        <ele>73.6</ele>
        <time>2025-02-20T06:34:02.848Z</time>
      </trkpt>
      <trkpt lat="59.44746798835695" lon="13.96014598198235">
        <ele>73.58</ele>
        <time>2025-02-20T06:35:04.013Z</time>
      </trkpt>
      <trkpt lat="59.4474739395082" lon="13.959993934258819">
        <ele>73.56</ele>
        <time>2025-02-20T06:36:05.179Z</time>
      </trkpt>
      <trkpt lat="59.447481986135244" lon="13.959839958697557">
        <ele>73.54</ele>
        <time>2025-02-20T06:37:06.346Z</time>
      </trkpt>
      <trkpt lat="59.4474929664284" lon="13.959684977307916">
        <ele>73.51</ele>
        <time>2025-02-20T06:38:07.515Z</time>
      </trkpt>
      <trkpt lat="59.447505958378315" lon="13.959525972604752">
        <ele>73.49</ele>
        <time>2025-02-20T06:39:08.685Z</time>
      </trkpt>
      <trkpt lat="59.44751995615661" lon="13.959367973729968">
        <ele>73.46</ele>
        <time>2025-02-20T06:40:09.856Z</time>
      </trkpt>
      <trkpt lat="59.44753495976329" lon="13.959213998168707">
        <ele>73.43</ele>
        <time>2025-02-20T06:41:11.028Z</time>
      </trkpt>
      <trkpt lat="59.447550969198346" lon="13.959059938788414">
        <ele>73.4</ele>
        <time>2025-02-20T06:42:12.202Z</time>
      </trkpt>
      <trkpt lat="59.44756597280502" lon="13.958905963227153">
        <ele>73.37</ele>
        <time>2025-02-20T06:43:13.377Z</time>
      </trkpt>
      <trkpt lat="59.4475809764117" lon="13.958751987665892">
        <ele>73.34</ele>
        <time>2025-02-20T06:44:14.553Z</time>
      </trkpt>
      <trkpt lat="59.447590950876474" lon="13.958594994619489">
        <ele>73.3</ele>
        <time>2025-02-20T06:45:15.731Z</time>
      </trkpt>
      <trkpt lat="59.44759598001838" lon="13.958435989916325">
        <ele>73.27</ele>
        <time>2025-02-20T06:46:16.910Z</time>
      </trkpt>
      <trkpt lat="59.44759497419" lon="13.95827597938478">
        <ele>73.22</ele>
        <time>2025-02-20T06:47:18.090Z</time>
      </trkpt>
      <trkpt lat="59.44758893921971" lon="13.958115968853235">
        <ele>73.18</ele>
        <time>2025-02-20T06:48:19.272Z</time>
      </trkpt>
      <trkpt lat="59.44757795892656" lon="13.95795394666493">
        <ele>73.14</ele>
        <time>2025-02-20T06:49:20.455Z</time>
      </trkpt>
      <trkpt lat="59.44756396114826" lon="13.957793936133385">
        <ele>73.1</ele>
        <time>2025-02-20T06:50:21.639Z</time>
      </trkpt>
      <trkpt lat="59.44754493422806" lon="13.957635937258601">
        <ele>73.05</ele>
        <time>2025-02-20T06:51:22.825Z</time>
      </trkpt>
      <trkpt lat="59.44752297364175" lon="13.957476932555437">
        <ele>73.0</ele>
        <time>2025-02-20T06:52:24.012Z</time>
      </trkpt>
      <trkpt lat="59.44750092923641" lon="13.957316922023892">
        <ele>72.95</ele>
        <time>2025-02-20T06:53:25.200Z</time>
      </trkpt>
      <trkpt lat="59.44747796282172" lon="13.957153977826238">
        <ele>72.9</ele>
        <time>2025-02-20T06:54:26.390Z</time>
      </trkpt>
      <trkpt lat="59.44745298475027" lon="13.956990949809551">
        <ele>72.85</ele>
        <time>2025-02-20T06:55:27.581Z</time>
      </trkpt>
      <trkpt lat="59.44742892868817" lon="13.956829933449626">
        <ele>72.8</ele>
        <time>2025-02-20T06:56:28.773Z</time>
      </trkpt>
      <trkpt lat="59.44740596227348" lon="13.956670928746462">
        <ele>72.74</ele>
        <time>2025-02-20T06:57:29.967Z</time>
      </trkpt>
      <trkpt lat="59.4473859295249" lon="13.956511924043298">
        <ele>72.68</ele>
        <time>2025-02-20T06:58:31.162Z</time>
      </trkpt>
      <trkpt lat="59.44736799225211" lon="13.956352919340134">
        <ele>72.62</ele>
        <time>2025-02-20T06:59:32.358Z</time>
      </trkpt>
      <trkpt lat="59.447351982817054" lon="13.95619492046535">
        <ele>72.55</ele>
        <time>2025-02-20T07:00:33.556Z</time>
      </trkpt>
      <trkpt lat="59.44733697921038" lon="13.956037927418947">
        <ele>72.48</ele>
        <time>2025-02-20T07:01:34.755Z</time>
      </trkpt>
      <trkpt lat="59.44731996394694" lon="13.955882946029305">
        <ele>72.42</ele>
        <time>2025-02-20T07:02:35.955Z</time>
      </trkpt>
      <trkpt lat="59.44730496034026" lon="13.955723941326141">
        <ele>72.35</ele>
        <time>2025-02-20T07:03:37.157Z</time>
      </trkpt>
      <trkpt lat="59.447289956733584" lon="13.955565942451358">
        <ele>72.28</ele>
        <time>2025-02-20T07:04:38.360Z</time>
      </trkpt>
      <trkpt lat="59.44727495312691" lon="13.955406937748194">
        <ele>72.2</ele>
        <time>2025-02-20T07:05:39.564Z</time>
      </trkpt>
      <trkpt lat="59.44725894369185" lon="13.955245921388268">
        <ele>72.13</ele>
        <time>2025-02-20T07:06:40.770Z</time>
      </trkpt>
      <trkpt lat="59.44724394008517" lon="13.955085994675756">
        <ele>72.05</ele>
        <time>2025-02-20T07:07:41.977Z</time>
      </trkpt>
      <trkpt lat="59.447229942306876" lon="13.95492497831583">
        <ele>71.96</ele>
        <time>2025-02-20T07:08:43.185Z</time>
      </trkpt>
      <trkpt lat="59.44721695035696" lon="13.954761950299144">
        <ele>71.88</ele>
        <time>2025-02-20T07:09:44.395Z</time>
      </trkpt>
      <trkpt lat="59.447206975892186" lon="13.954595988616347">
        <ele>71.8</ele>
        <time>2025-02-20T07:10:45.606Z</time>
      </trkpt>
      <trkpt lat="59.4472009409219" lon="13.954425919800997">
        <ele>71.71</ele>
        <time>2025-02-20T07:11:46.818Z</time>
      </trkpt>
      <trkpt lat="59.44720194675028" lon="13.954254928976297">
        <ele>71.62</ele>
        <time>2025-02-20T07:12:48.032Z</time>
      </trkpt>
      <trkpt lat="59.447205970063806" lon="13.954081926494837">
        <ele>71.54</ele>
        <time>2025-02-20T07:13:49.247Z</time>
      </trkpt>
      <trkpt lat="59.44721393287182" lon="13.953909929841757">
        <ele>71.45</ele>
        <time>2025-02-20T07:14:50.464Z</time>
      </trkpt>
      <trkpt lat="59.447223991155624" lon="13.953739944845438">
        <ele>71.36</ele>
        <time>2025-02-20T07:15:51.682Z</time>
      </trkpt>
      <trkpt lat="59.4472339656204" lon="13.95356995984912">
        <ele>71.26</ele>
        <time>2025-02-20T07:16:52.901Z</time>
      </trkpt>
      <trkpt lat="59.44724494591355" lon="13.953400980681181">
        <ele>71.17</ele>
        <time>2025-02-20T07:17:54.122Z</time>
      </trkpt>
      <trkpt lat="59.44725592620671" lon="13.953233929350972">
        <ele>71.08</ele>
        <time>2025-02-20T07:18:55.344Z</time>
      </trkpt>
      <trkpt lat="59.447267996147275" lon="13.953066961839795">
        <ele>70.98</ele>
        <time>2025-02-20T07:19:56.568Z</time>
      </trkpt>
      <trkpt lat="59.44727998226881" lon="13.952900916337967">
        <ele>70.89</ele>
        <time>2025-02-20T07:20:57.793Z</time>
      </trkpt>
      <trkpt lat="59.447292974218726" lon="13.952735960483551">
        <ele>70.79</ele>
        <time>2025-02-20T07:21:59.019Z</time>
      </trkpt>
      <trkpt lat="59.44730596616864" lon="13.952571926638484">
        <ele>70.7</ele>
        <time>2025-02-20T07:23:00.247Z</time>
      </trkpt>
      <trkpt lat="59.44731996394694" lon="13.95240898244083">
        <ele>70.61</ele>
        <time>2025-02-20T07:24:01.476Z</time>
      </trkpt>
      <trkpt lat="59.447333961725235" lon="13.952245954424143">
        <ele>70.51</ele>
        <time>2025-02-20T07:25:02.706Z</time>
      </trkpt>
      <trkpt lat="59.44734795950353" lon="13.952084938064218">
        <ele>70.41</ele>
        <time>2025-02-20T07:26:03.938Z</time>
      </trkpt>
      <trkpt lat="59.44736195728183" lon="13.951923921704292">
        <ele>70.31</ele>
        <time>2025-02-20T07:27:05.171Z</time>
      </trkpt>
      <trkpt lat="59.447374949231744" lon="13.951764917001128">
        <ele>70.21</ele>
        <time>2025-02-20T07:28:06.405Z</time>
      </trkpt>
      <trkpt lat="59.44738794118166" lon="13.951609935611486">
        <ele>70.11</ele>
        <time>2025-02-20T07:29:07.641Z</time>
      </trkpt>
      <trkpt lat="59.44740294478834" lon="13.951461995020509">
        <ele>70.01</ele>
        <time>2025-02-20T07:30:08.878Z</time>
      </trkpt>
      <trkpt lat="59.44741593673825" lon="13.951319921761751">
        <ele>69.9</ele>
        <time>2025-02-20T07:31:10.116Z</time>
      </trkpt>
      <trkpt lat="59.447421971708536" lon="13.951180949807167">
        <ele>69.8</ele>
        <time>2025-02-20T07:32:11.355Z</time>
      </trkpt>
      <trkpt lat="59.447421971708536" lon="13.951041977852583">
        <ele>69.7</ele>
        <time>2025-02-20T07:33:12.595Z</time>
      </trkpt>
      <trkpt lat="59.44741392508149" lon="13.950904933735728">
        <ele>69.59</ele>
        <time>2025-02-20T07:34:13.836Z</time>
      </trkpt>
      <trkpt lat="59.447395987808704" lon="13.950769985094666">
        <ele>69.48</ele>
        <time>2025-02-20T07:35:15.079Z</time>
      </trkpt>
      <trkpt lat="59.44736598059535" lon="13.950636964291334">
        <ele>69.37</ele>
        <time>2025-02-20T07:36:16.323Z</time>
      </trkpt>
      <trkpt lat="59.44732499308884" lon="13.950504949316382">
        <ele>69.25</ele>
        <time>2025-02-20T07:37:17.568Z</time>
      </trkpt>
      <trkpt lat="59.44727897644043" lon="13.950373940169811">
        <ele>69.14</ele>
        <time>2025-02-20T07:38:18.814Z</time>
      </trkpt>
      <trkpt lat="59.447226924821734" lon="13.95024293102324">
        <ele>69.02</ele>
        <time>2025-02-20T07:39:20.062Z</time>
      </trkpt>
      <trkpt lat="59.44717193953693" lon="13.950108988210559">
        <ele>68.9</ele>
        <time>2025-02-20T07:40:21.311Z</time>
      </trkpt>
      <trkpt lat="59.44711494259536" lon="13.949972949922085">
        <ele>68.77</ele>
        <time>2025-02-20T07:41:22.561Z</time>
      </trkpt>
      <trkpt lat="59.44706096313894" lon="13.949838923290372">
        <ele>68.64</ele>
        <time>2025-02-20T07:42:23.813Z</time>
      </trkpt>
      <trkpt lat="59.44700597785413" lon="13.94970397464931">
        <ele>68.52</ele>
        <time>2025-02-20T07:43:25.066Z</time>
      </trkpt>
      <trkpt lat="59.44695292040706" lon="13.949567936360836">
        <ele>68.39</ele>
        <time>2025-02-20T07:44:26.321Z</time>
      </trkpt>
      <trkpt lat="59.44689994677901" lon="13.949435921385884">
        <ele>68.27</ele>
        <time>2025-02-20T07:45:27.577Z</time>
      </trkpt>
      <trkpt lat="59.44684596732259" lon="13.949306923896074">
        <ele>68.15</ele>
        <time>2025-02-20T07:46:28.834Z</time>
      </trkpt>
      <trkpt lat="59.446793999522924" lon="13.949175998568535">
        <ele>68.03</ele>
        <time>2025-02-20T07:47:30.093Z</time>
      </trkpt>
      <trkpt lat="59.44674295373261" lon="13.949045995250344">
        <ele>67.91</ele>
        <time>2025-02-20T07:48:31.353Z</time>
      </trkpt>
      <trkpt lat="59.44669199176133" lon="13.948921943083405">
        <ele>67.79</ele>
        <time>2025-02-20T07:49:32.614Z</time>
      </trkpt>
      <trkpt lat="59.44664195179939" lon="13.948805937543511">
        <ele>67.67</ele>
        <time>2025-02-20T07:50:33.877Z</time>
      </trkpt>
      <trkpt lat="59.44659199565649" lon="13.948701918125153">
        <ele>67.55</ele>
        <time>2025-02-20T07:51:35.141Z</time>
      </trkpt>
      <trkpt lat="59.446538938209414" lon="13.948613991960883">
        <ele>67.43</ele>
        <time>2025-02-20T07:52:36.406Z</time>
      </trkpt>
      <trkpt lat="59.446478923782706" lon="13.94854593090713">
        <ele>67.31</ele>
        <time>2025-02-20T07:53:37.672Z</time>
      </trkpt>
      <trkpt lat="59.446412958204746" lon="13.948505949229002">
        <ele>67.19</ele>
        <time>2025-02-20T07:54:38.939Z</time>
      </trkpt>
      <trkpt lat="59.44634196348488" lon="13.94849999807775">
        <ele>67.07</ele>
        <time>2025-02-20T07:55:40.207Z</time>
      </trkpt>
      <trkpt lat="59.44626895710826" lon="13.94852397032082">
        <ele>66.95</ele>
        <time>2025-02-20T07:56:41.476Z</time>
      </trkpt>
      <trkpt lat="59.446196956560016" lon="13.948562946170568">
        <ele>66.83</ele>
        <time>2025-02-20T07:57:42.747Z</time>
      </trkpt>
      <trkpt lat="59.44612294435501" lon="13.94860896281898">
        <ele>66.71</ele>
        <time>2025-02-20T07:58:44.019Z</time>
      </trkpt>
      <trkpt lat="59.446047926321626" lon="13.948659924790263">
        <ele>66.59</ele>
        <time>2025-02-20T07:59:45.292Z</time>
      </trkpt>
      <trkpt lat="59.44597098045051" lon="13.948702923953533">
        <ele>66.47</ele>
        <time>2025-02-20T08:00:46.567Z</time>
      </trkpt>
      <trkpt lat="59.445892944931984" lon="13.94873796030879">
        <ele>66.36</ele>
        <time>2025-02-20T08:01:47.843Z</time>
      </trkpt>
      <trkpt lat="59.44581599906087" lon="13.948767967522144">
        <ele>66.24</ele>
        <time>2025-02-20T08:02:49.120Z</time>
      </trkpt>
      <trkpt lat="59.44573796354234" lon="13.948791939765215">
        <ele>66.12</ele>
        <time>2025-02-20T08:03:50.398Z</time>
      </trkpt>
      <trkpt lat="59.445657916367054" lon="13.948811972513795">
        <ele>66.01</ele>
        <time>2025-02-20T08:04:51.678Z</time>
      </trkpt>
      <trkpt lat="59.445575941354036" lon="13.948833933100104">
        <ele>65.89</ele>
        <time>2025-02-20T08:05:52.959Z</time>
      </trkpt>
      <trkpt lat="59.44549296051264" lon="13.948856983333826">
        <ele>65.78</ele>
        <time>2025-02-20T08:06:54.241Z</time>
      </trkpt>
      <trkpt lat="59.44540997967124" lon="13.948879949748516">
        <ele>65.66</ele>
        <time>2025-02-20T08:07:55.525Z</time>
      </trkpt>
      <trkpt lat="59.44532498717308" lon="13.948901994153857">
        <ele>65.55</ele>
        <time>2025-02-20T08:08:56.810Z</time>
      </trkpt>
      <trkpt lat="59.44523898884654" lon="13.948923954740167">
        <ele>65.43</ele>
        <time>2025-02-20T08:09:58.096Z</time>
      </trkpt>
      <trkpt lat="59.44515299052" lon="13.948947926983237">
        <ele>65.31</ele>
        <time>2025-02-20T08:10:59.384Z</time>
      </trkpt>
      <trkpt lat="59.44506598636508" lon="13.94897198304534">
        <ele>65.2</ele>
        <time>2025-02-20T08:12:00.673Z</time>
      </trkpt>
      <trkpt lat="59.44497797638178" lon="13.94899494946003">
        <ele>65.09</ele>
        <time>2025-02-20T08:13:01.964Z</time>
      </trkpt>
      <trkpt lat="59.44488996639848" lon="13.94901498220861">
        <ele>64.99</ele>
        <time>2025-02-20T08:14:03.256Z</time>
      </trkpt>
      <trkpt lat="59.444800950586796" lon="13.949029985815287">
        <ele>64.88</ele>
        <time>2025-02-20T08:15:04.549Z</time>
      </trkpt>
      <trkpt lat="59.444711934775114" lon="13.949036942794919">
        <ele>64.77</ele>
        <time>2025-02-20T08:16:05.844Z</time>
      </trkpt>
      <trkpt lat="59.44462392479181" lon="13.949035936966538">
        <ele>64.67</ele>
        <time>2025-02-20T08:17:07.140Z</time>
      </trkpt>
      <trkpt lat="59.44453499279916" lon="13.949023950845003">
        <ele>64.56</ele>
        <time>2025-02-20T08:18:08.438Z</time>
      </trkpt>
      <trkpt lat="59.44444597698748" lon="13.949005929753184">
        <ele>64.46</ele>
        <time>2025-02-20T08:19:09.737Z</time>
      </trkpt>
      <trkpt lat="59.4443569611758" lon="13.94897692836821">
        <ele>64.36</ele>
        <time>2025-02-20T08:20:11.038Z</time>
      </trkpt>
      <trkpt lat="59.4442689511925" lon="13.948939964175224">
        <ele>64.26</ele>
        <time>2025-02-20T08:21:12.340Z</time>
      </trkpt>
      <trkpt lat="59.44418194703758" lon="13.948895959183574">
        <ele>64.16</ele>
        <time>2025-02-20T08:22:13.644Z</time>
      </trkpt>
      <trkpt lat="59.44409594871104" lon="13.94884692505002">
        <ele>64.06</ele>
        <time>2025-02-20T08:23:14.949Z</time>
      </trkpt>
      <trkpt lat="59.44401196204126" lon="13.948794957250357">
        <ele>63.96</ele>
        <time>2025-02-20T08:24:16.255Z</time>
      </trkpt>
      <trkpt lat="59.4439269695431" lon="13.948744917288423">
        <ele>63.86</ele>
        <time>2025-02-20T08:25:17.563Z</time>
      </trkpt>
      <trkpt lat="59.44384298287332" lon="13.948697978630662">
        <ele>63.76</ele>
        <time>2025-02-20T08:26:18.872Z</time>
      </trkpt>
      <trkpt lat="59.44375799037516" lon="13.948653973639011">
        <ele>63.67</ele>
        <time>2025-02-20T08:27:20.183Z</time>
      </trkpt>
      <trkpt lat="59.44367199204862" lon="13.948613991960883">
        <ele>63.58</ele>
        <time>2025-02-20T08:28:21.495Z</time>
      </trkpt>
      <trkpt lat="59.44358599372208" lon="13.948578955605626">
        <ele>63.49</ele>
        <time>2025-02-20T08:29:22.808Z</time>
      </trkpt>
      <trkpt lat="59.44349999539554" lon="13.948549954220653">
        <ele>63.4</ele>
        <time>2025-02-20T08:30:24.123Z</time>
      </trkpt>
      <trkpt lat="59.44341299124062" lon="13.948526987805963">
        <ele>63.32</ele>
        <time>2025-02-20T08:31:25.439Z</time>
      </trkpt>
      <trkpt lat="59.44332699291408" lon="13.948510978370905">
        <ele>63.23</ele>
        <time>2025-02-20T08:32:26.757Z</time>
      </trkpt>
      <trkpt lat="59.44324191659689" lon="13.948500920087099">
        <ele>63.15</ele>
        <time>2025-02-20T08:33:28.076Z</time>
      </trkpt>
      <trkpt lat="59.44315792992711" lon="13.948492957279086">
        <ele>63.06</ele>
        <time>2025-02-20T08:34:29.396Z</time>
      </trkpt>
      <trkpt lat="59.44307293742895" lon="13.948487928137183">
        <ele>62.98</ele>
        <time>2025-02-20T08:35:30.718Z</time>
      </trkpt>
      <trkpt lat="59.44298693910241" lon="13.948486922308803">
        <ele>62.9</ele>
        <time>2025-02-20T08:36:32.041Z</time>
      </trkpt>
      <trkpt lat="59.44290194660425" lon="13.948491951450706">
        <ele>62.82</ele>
        <time>2025-02-20T08:37:33.365Z</time>
      </trkpt>
      <trkpt lat="59.44281594827771" lon="13.948505949229002">
        <ele>62.75</ele>
        <time>2025-02-20T08:38:34.691Z</time>
      </trkpt>
      <trkpt lat="59.44273095577955" lon="13.948526987805963">
        <ele>62.68</ele>
        <time>2025-02-20T08:39:36.018Z</time>
      </trkpt>
      <trkpt lat="59.44264596328139" lon="13.948549954220653">
        <ele>62.61</ele>
        <time>2025-02-20T08:40:37.347Z</time>
      </trkpt>
      <trkpt lat="59.442560970783234" lon="13.948573926463723">
        <ele>62.54</ele>
        <time>2025-02-20T08:41:38.677Z</time>
      </trkpt>
      <trkpt lat="59.442474972456694" lon="13.948602927848697">
        <ele>62.48</ele>
        <time>2025-02-20T08:42:40.008Z</time>
      </trkpt>
      <trkpt lat="59.442388974130154" lon="13.948637964203954">
        <ele>62.41</ele>
        <time>2025-02-20T08:43:41.341Z</time>
      </trkpt>
      <trkpt lat="59.442303981631994" lon="13.94867199473083">
        <ele>62.35</ele>
        <time>2025-02-20T08:44:42.675Z</time>
      </trkpt>
      <trkpt lat="59.442217983305454" lon="13.948702923953533">
        <ele>62.29</ele>
        <time>2025-02-20T08:45:44.011Z</time>
      </trkpt>
      <trkpt lat="59.442133996635675" lon="13.948730919510126">
        <ele>62.24</ele>
        <time>2025-02-20T08:46:45.348Z</time>
      </trkpt>
      <trkpt lat="59.442049926146865" lon="13.9487599208951">
        <ele>62.18</ele>
        <time>2025-02-20T08:47:46.686Z</time>
      </trkpt>
      <trkpt lat="59.44196694530547" lon="13.948785988613963">
        <ele>62.13</ele>
        <time>2025-02-20T08:48:48.026Z</time>
      </trkpt>
      <trkpt lat="59.44188195280731" lon="13.948806943371892">
        <ele>62.08</ele>
        <time>2025-02-20T08:49:49.367Z</time>
      </trkpt>
      <trkpt lat="59.44179897196591" lon="13.948821946978569">
        <ele>62.03</ele>
        <time>2025-02-20T08:50:50.709Z</time>
      </trkpt>
      <trkpt lat="59.44171498529613" lon="13.948830999433994">
        <ele>61.99</ele>
        <time>2025-02-20T08:51:52.053Z</time>
      </trkpt>
      <trkpt lat="59.4416319206357" lon="13.948832927271724">
        <ele>61.94</ele>
        <time>2025-02-20T08:52:53.398Z</time>
      </trkpt>
      <trkpt lat="59.4415489397943" lon="13.948826976120472">
        <ele>61.9</ele>
        <time>2025-02-20T08:53:54.744Z</time>
      </trkpt>
      <trkpt lat="59.44146495312452" lon="13.948813984170556">
        <ele>61.86</ele>
        <time>2025-02-20T08:54:56.092Z</time>
      </trkpt>
      <trkpt lat="59.441381972283125" lon="13.948793951421976">
        <ele>61.82</ele>
        <time>2025-02-20T08:55:57.441Z</time>
      </trkpt>
      <trkpt lat="59.44129899144173" lon="13.948766961693764">
        <ele>61.78</ele>
        <time>2025-02-20T08:56:58.791Z</time>
      </trkpt>
      <trkpt lat="59.44121793843806" lon="13.948735948652029">
        <ele>61.74</ele>
        <time>2025-02-20T08:58:00.143Z</time>
      </trkpt>
      <trkpt lat="59.44113495759666" lon="13.948700996115804">
        <ele>61.7</ele>
        <time>2025-02-20T08:59:01.496Z</time>
      </trkpt>
      <trkpt lat="59.44105097092688" lon="13.948665959760547">
        <ele>61.67</ele>
        <time>2025-02-20T09:00:02.850Z</time>
      </trkpt>
      <trkpt lat="59.4409669842571" lon="13.94862899556756">
        <ele>61.63</ele>
        <time>2025-02-20T09:01:04.206Z</time>
      </trkpt>
      <trkpt lat="59.44088299758732" lon="13.948591947555542">
        <ele>61.6</ele>
        <time>2025-02-20T09:02:05.563Z</time>
      </trkpt>
      <trkpt lat="59.44079892709851" lon="13.948552971705794">
        <ele>61.58</ele>
        <time>2025-02-20T09:03:06.922Z</time>
      </trkpt>
      <trkpt lat="59.44071292877197" lon="13.948514917865396">
        <ele>61.56</ele>
        <time>2025-02-20T09:04:08.282Z</time>
      </trkpt>
      <trkpt lat="59.44062793627381" lon="13.948475942015648">
        <ele>61.54</ele>
        <time>2025-02-20T09:05:09.643Z</time>
      </trkpt>
      <trkpt lat="59.44054193794727" lon="13.94843596033752">
        <ele>61.52</ele>
        <time>2025-02-20T09:06:11.006Z</time>
      </trkpt>
      <trkpt lat="59.44045593962073" lon="13.948395978659391">
        <ele>61.51</ele>
        <time>2025-02-20T09:07:12.370Z</time>
      </trkpt>
      <trkpt lat="59.44036893546581" lon="13.948356918990612">
        <ele>61.5</ele>
        <time>2025-02-20T09:08:13.736Z</time>
      </trkpt>
      <trkpt lat="59.44028394296765" lon="13.948316937312484">
        <ele>61.49</ele>
        <time>2025-02-20T09:09:15.103Z</time>
      </trkpt>
      <trkpt lat="59.440199956297874" lon="13.948275949805975">
        <ele>61.49</ele>
        <time>2025-02-20T09:10:16.471Z</time>
      </trkpt>
      <trkpt lat="59.440116975456476" lon="13.948231944814324">
        <ele>61.49</ele>
        <time>2025-02-20T09:11:17.841Z</time>
      </trkpt>
      <trkpt lat="59.44003592245281" lon="13.948187939822674">
        <ele>61.49</ele>
        <time>2025-02-20T09:12:19.212Z</time>
      </trkpt>
      <trkpt lat="59.43995495326817" lon="13.948145946487784">
        <ele>61.49</ele>
        <time>2025-02-20T09:13:20.585Z</time>
      </trkpt>
      <trkpt lat="59.439874989911914" lon="13.948106970638037">
        <ele>61.48</ele>
        <time>2025-02-20T09:14:21.959Z</time>
      </trkpt>
      <trkpt lat="59.439794942736626" lon="13.948061959818006">
        <ele>61.48</ele>
        <time>2025-02-20T09:15:23.334Z</time>
      </trkpt>
      <trkpt lat="59.43971497938037" lon="13.948009992018342">
        <ele>61.48</ele>
        <time>2025-02-20T09:16:24.711Z</time>
      </trkpt>
      <trkpt lat="59.43963493220508" lon="13.947953917086124">
        <ele>61.48</ele>
        <time>2025-02-20T09:17:26.089Z</time>
      </trkpt>
      <trkpt lat="59.439554968848825" lon="13.947894992306828">
        <ele>61.49</ele>
        <time>2025-02-20T09:18:27.468Z</time>
      </trkpt>
      <trkpt lat="59.439474921673536" lon="13.947831960394979">
        <ele>61.5</ele>
        <time>2025-02-20T09:19:28.849Z</time>
      </trkpt>
      <trkpt lat="59.43939495831728" lon="13.947765994817019">
        <ele>61.52</ele>
        <time>2025-02-20T09:20:30.231Z</time>
      </trkpt>
      <trkpt lat="59.43931591697037" lon="13.947695922106504">
        <ele>61.54</ele>
        <time>2025-02-20T09:21:31.614Z</time>
      </trkpt>
      <trkpt lat="59.439236959442496" lon="13.94762098789215">
        <ele>61.56</ele>
        <time>2025-02-20T09:22:32.999Z</time>
      </trkpt>
      <trkpt lat="59.43915892392397" lon="13.947541946545243">
        <ele>61.58</ele>
        <time>2025-02-20T09:23:34.385Z</time>
      </trkpt>
      <trkpt lat="59.439082983881235" lon="13.947460977360606">
        <ele>61.6</ele>
        <time>2025-02-20T09:24:35.773Z</time>
      </trkpt>
      <trkpt lat="59.43900696001947" lon="13.947376990690827">
        <ele>61.63</ele>
        <time>2025-02-20T09:25:37.162Z</time>
      </trkpt>
      <trkpt lat="59.438931941986084" lon="13.947290992364287">
        <ele>61.65</ele>
        <time>2025-02-20T09:26:38.552Z</time>
      </trkpt>
      <trkpt lat="59.43885792978108" lon="13.947201976552606">
        <ele>61.68</ele>
        <time>2025-02-20T09:27:39.944Z</time>
      </trkpt>
      <trkpt lat="59.438784923404455" lon="13.947110949084163">
        <ele>61.71</ele>
        <time>2025-02-20T09:28:41.337Z</time>
      </trkpt>
      <trkpt lat="59.43871292285621" lon="13.94701598212123">
        <ele>61.74</ele>
        <time>2025-02-20T09:29:42.732Z</time>
      </trkpt>
      <trkpt lat="59.43864293396473" lon="13.946916991844773">
        <ele>61.78</ele>
        <time>2025-02-20T09:30:44.128Z</time>
      </trkpt>
      <trkpt lat="59.43857395090163" lon="13.946814984083176">
        <ele>61.81</ele>
        <time>2025-02-20T09:31:45.525Z</time>
      </trkpt>
      <trkpt lat="59.438504967838526" lon="13.946709958836436">
        <ele>61.86</ele>
        <time>2025-02-20T09:32:46.924Z</time>
      </trkpt>
      <trkpt lat="59.438436990603805" lon="13.946605939418077">
        <ele>61.9</ele>
        <time>2025-02-20T09:33:48.324Z</time>
      </trkpt>
      <trkpt lat="59.43837094120681" lon="13.94650099799037">
        <ele>61.95</ele>
        <time>2025-02-20T09:34:49.726Z</time>
      </trkpt>
      <trkpt lat="59.438307993113995" lon="13.94639396108687">
        <ele>62.0</ele>
        <time>2025-02-20T09:35:51.129Z</time>
      </trkpt>
      <trkpt lat="59.438247978687286" lon="13.94628793001175">
        <ele>62.05</ele>
        <time>2025-02-20T09:36:52.533Z</time>
      </trkpt>
      <trkpt lat="59.43818997591734" lon="13.946183994412422">
        <ele>62.1</ele>
        <time>2025-02-20T09:37:53.938Z</time>
      </trkpt>
      <trkpt lat="59.43813297897577" lon="13.946078969165683">
        <ele>62.15</ele>
        <time>2025-02-20T09:38:55.345Z</time>
      </trkpt>
      <trkpt lat="59.43807698786259" lon="13.945972938090563">
        <ele>62.21</ele>
        <time>2025-02-20T09:39:56.753Z</time>
      </trkpt>
      <trkpt lat="59.43802292458713" lon="13.945864979177713">
        <ele>62.27</ele>
        <time>2025-02-20T09:40:58.162Z</time>
      </trkpt>
      <trkpt lat="59.437969950959086" lon="13.945752996951342">
        <ele>62.33</ele>
        <time>2025-02-20T09:41:59.572Z</time>
      </trkpt>
      <trkpt lat="59.4379189889878" lon="13.945640930905938">
        <ele>62.39</ele>
        <time>2025-02-20T09:43:00.984Z</time>
      </trkpt>
      <trkpt lat="59.43786794319749" lon="13.945527942851186">
        <ele>62.45</ele>
        <time>2025-02-20T09:44:02.397Z</time>
      </trkpt>
      <trkpt lat="59.437817987054586" lon="13.945414954796433">
        <ele>62.5</ele>
        <time>2025-02-20T09:45:03.811Z</time>
      </trkpt>
      <trkpt lat="59.43776995874941" lon="13.945301966741681">
        <ele>62.57</ele>
        <time>2025-02-20T09:46:05.226Z</time>
      </trkpt>
      <trkpt lat="59.43772293627262" lon="13.945184955373406">
        <ele>62.65</ele>
        <time>2025-02-20T09:47:06.643Z</time>
      </trkpt>
      <trkpt lat="59.43767691962421" lon="13.94506492651999">
        <ele>62.72</ele>
        <time>2025-02-20T09:48:08.061Z</time>
      </trkpt>
      <trkpt lat="59.43762998096645" lon="13.944943975657225">
        <ele>62.79</ele>
        <time>2025-02-20T09:49:09.480Z</time>
      </trkpt>
      <trkpt lat="59.43758295848966" lon="13.944817995652556">
        <ele>62.86</ele>
        <time>2025-02-20T09:50:10.900Z</time>
      </trkpt>
      <trkpt lat="59.437535936012864" lon="13.944688998162746">
        <ele>62.94</ele>
        <time>2025-02-20T09:51:12.322Z</time>
      </trkpt>
      <trkpt lat="59.43749092519283" lon="13.944556983187795">
        <ele>63.02</ele>
        <time>2025-02-20T09:52:13.745Z</time>
      </trkpt>
      <trkpt lat="59.43744792602956" lon="13.94441893324256">
        <ele>63.1</ele>
        <time>2025-02-20T09:53:15.169Z</time>
      </trkpt>
      <trkpt lat="59.43740593269467" lon="13.944277949631214">
        <ele>63.18</ele>
        <time>2025-02-20T09:54:16.595Z</time>
      </trkpt>
      <trkpt lat="59.437363939359784" lon="13.944134954363108">
        <ele>63.25</ele>
        <time>2025-02-20T09:55:18.022Z</time>
      </trkpt>
      <trkpt lat="59.437323957681656" lon="13.94398994743824">
        <ele>63.33</ele>
        <time>2025-02-20T09:56:19.450Z</time>
      </trkpt>
      <trkpt lat="59.43728498183191" lon="13.943842928856611">
        <ele>63.41</ele>
        <time>2025-02-20T09:57:20.880Z</time>
      </trkpt>
      <trkpt lat="59.43724692799151" lon="13.943693982437253">
        <ele>63.49</ele>
        <time>2025-02-20T09:58:22.311Z</time>
      </trkpt>
      <trkpt lat="59.43720795214176" lon="13.943542940542102">
        <ele>63.57</ele>
        <time>2025-02-20T09:59:23.743Z</time>
      </trkpt>
      <trkpt lat="59.437170987948775" lon="13.943390976637602">
        <ele>63.65</ele>
        <time>2025-02-20T10:00:25.177Z</time>
      </trkpt>
      <trkpt lat="59.43713494576514" lon="13.94323792308569">
        <ele>63.72</ele>
        <time>2025-02-20T10:01:26.612Z</time>
      </trkpt>
      <trkpt lat="59.43710099905729" lon="13.943084953352809">
        <ele>63.81</ele>
        <time>2025-02-20T10:02:28.048Z</time>
      </trkpt>
      <trkpt lat="59.43706696853042" lon="13.942931983619928">
        <ele>63.89</ele>
        <time>2025-02-20T10:03:29.486Z</time>
      </trkpt>
      <trkpt lat="59.43703193217516" lon="13.942779935896397">
        <ele>63.98</ele>
        <time>2025-02-20T10:04:30.925Z</time>
      </trkpt>
      <trkpt lat="59.436997985467315" lon="13.942625960335135">
        <ele>64.07</ele>
        <time>2025-02-20T10:05:32.366Z</time>
      </trkpt>
      <trkpt lat="59.43696294911206" lon="13.942473996430635">
        <ele>64.17</ele>
        <time>2025-02-20T10:06:33.808Z</time>
      </trkpt>
      <trkpt lat="59.43692891858518" lon="13.942321948707104">
        <ele>64.26</ele>
        <time>2025-02-20T10:07:35.251Z</time>
      </trkpt>
      <trkpt lat="59.436893966048956" lon="13.942169984802604">
        <ele>64.36</ele>
        <time>2025-02-20T10:08:36.696Z</time>
      </trkpt>
      <trkpt lat="59.4368589296937" lon="13.942019948735833">
        <ele>64.45</ele>
        <time>2025-02-20T10:09:38.142Z</time>
      </trkpt>
      <trkpt lat="59.436824982985854" lon="13.941867984831333">
        <ele>64.56</ele>
        <time>2025-02-20T10:10:39.589Z</time>
      </trkpt>
      <trkpt lat="59.43679396994412" lon="13.941717948764563">
        <ele>64.66</ele>
        <time>2025-02-20T10:11:41.038Z</time>
      </trkpt>
      <trkpt lat="59.436761951074004" lon="13.941569924354553">
        <ele>64.75</ele>
        <time>2025-02-20T10:12:42.488Z</time>
      </trkpt>
      <trkpt lat="59.43672993220389" lon="13.941422989591956">
        <ele>64.85</ele>
        <time>2025-02-20T10:13:43.939Z</time>
      </trkpt>
      <trkpt lat="59.436698919162154" lon="13.941277982667089">
        <ele>64.95</ele>
        <time>2025-02-20T10:14:45.392Z</time>
      </trkpt>
      <trkpt lat="59.43666798993945" lon="13.941136999055743">
        <ele>65.05</ele>
        <time>2025-02-20T10:15:46.846Z</time>
      </trkpt>
      <trkpt lat="59.43663697689772" lon="13.940996937453747">
        <ele>65.15</ele>
        <time>2025-02-20T10:16:48.301Z</time>
      </trkpt>
      <trkpt lat="59.43660696968436" lon="13.940857965499163">
        <ele>65.25</ele>
        <time>2025-02-20T10:17:49.757Z</time>
      </trkpt>
      <trkpt lat="59.43657796829939" lon="13.940715976059437">
        <ele>65.35</ele>
        <time>2025-02-20T10:18:51.215Z</time>
      </trkpt>
      <trkpt lat="59.436549972742796" lon="13.940573986619711">
        <ele>65.45</ele>
        <time>2025-02-20T10:19:52.674Z</time>
      </trkpt>
      <trkpt lat="59.4365219771862" lon="13.940430991351604">
        <ele>65.56</ele>
        <time>2025-02-20T10:20:54.134Z</time>
      </trkpt>
      <trkpt lat="59.43649297580123" lon="13.940287996083498">
        <ele>65.66</ele>
        <time>2025-02-20T10:21:55.595Z</time>
      </trkpt>
      <trkpt lat="59.436463974416256" lon="13.94014298915863">
        <ele>65.77</ele>
        <time>2025-02-20T10:22:57.058Z</time>
      </trkpt>
      <trkpt lat="59.436436984688044" lon="13.939994964748621">
        <ele>65.88</ele>
        <time>2025-02-20T10:23:58.522Z</time>
      </trkpt>
      <trkpt lat="59.43640999495983" lon="13.939845934510231">
        <ele>65.99</ele>
        <time>2025-02-20T10:24:59.987Z</time>
      </trkpt>
      <trkpt lat="59.43637998774648" lon="13.939696988090873">
        <ele>66.1</ele>
        <time>2025-02-20T10:26:01.453Z</time>
      </trkpt>
      <trkpt lat="59.436350986361504" lon="13.939546952024102">
        <ele>66.21</ele>
        <time>2025-02-20T10:27:02.921Z</time>
      </trkpt>
      <trkpt lat="59.43632097914815" lon="13.939396999776363">
        <ele>66.32</ele>
        <time>2025-02-20T10:28:04.390Z</time>
      </trkpt>
      <trkpt lat="59.436290971934795" lon="13.939247969537973">
        <ele>66.43</ele>
        <time>2025-02-20T10:29:05.860Z</time>
      </trkpt>
      <trkpt lat="59.43626197054982" lon="13.939097933471203">
        <ele>66.54</ele>
        <time>2025-02-20T10:30:07.332Z</time>
      </trkpt>
      <trkpt lat="59.43623397499323" lon="13.938948987051845">
        <ele>66.65</ele>
        <time>2025-02-20T10:31:08.805Z</time>
      </trkpt>
      <trkpt lat="59.436205979436636" lon="13.938798950985074">
        <ele>66.76</ele>
        <time>2025-02-20T10:32:10.279Z</time>
      </trkpt>
      <trkpt lat="59.436178989708424" lon="13.938647992908955">
        <ele>66.87</ele>
        <time>2025-02-20T10:33:11.755Z</time>
      </trkpt>
      <trkpt lat="59.43615199998021" lon="13.938495945185423">
        <ele>66.98</ele>
        <time>2025-02-20T10:34:13.232Z</time>
      </trkpt>
      <trkpt lat="59.43612392060459" lon="13.938344987109303">
        <ele>67.09</ele>
        <time>2025-02-20T10:35:14.710Z</time>
      </trkpt>
      <trkpt lat="59.436093997210264" lon="13.938193945214152">
        <ele>67.21</ele>
        <time>2025-02-20T10:36:16.190Z</time>
      </trkpt>
      <trkpt lat="59.43606398999691" lon="13.938043992966413">
        <ele>67.32</ele>
        <time>2025-02-20T10:37:17.671Z</time>
      </trkpt>
      <trkpt lat="59.436033982783556" lon="13.937893956899643">
        <ele>67.44</ele>
        <time>2025-02-20T10:38:19.153Z</time>
      </trkpt>
      <trkpt lat="59.43600598722696" lon="13.937743920832872">
        <ele>67.55</ele>
        <time>2025-02-20T10:39:20.637Z</time>
      </trkpt>
      <trkpt lat="59.43597799167037" lon="13.937595980241895">
        <ele>67.66</ele>
        <time>2025-02-20T10:40:22.122Z</time>
      </trkpt>
      <trkpt lat="59.43594999611378" lon="13.937448961660266">
        <ele>67.78</ele>
        <time>2025-02-20T10:41:23.608Z</time>
      </trkpt>
      <trkpt lat="59.43592292256653" lon="13.937304960563779">
        <ele>67.9</ele>
        <time>2025-02-20T10:42:25.095Z</time>
      </trkpt>
      <trkpt lat="59.43589593283832" lon="13.937160959467292">
        <ele>68.01</ele>
        <time>2025-02-20T10:43:26.584Z</time>
      </trkpt>
      <trkpt lat="59.43586994893849" lon="13.937020981684327">
        <ele>68.12</ele>
        <time>2025-02-20T10:44:28.074Z</time>
      </trkpt>
      <trkpt lat="59.43584396503866" lon="13.936886955052614">
        <ele>68.23</ele>
        <time>2025-02-20T10:45:29.565Z</time>
      </trkpt>
      <trkpt lat="59.435817981138825" lon="13.936759969219565">
        <ele>68.34</ele>
        <time>2025-02-20T10:46:31.057Z</time>
      </trkpt>
      <trkpt lat="59.435791997238994" lon="13.936638934537768">
        <ele>68.46</ele>
        <time>2025-02-20T10:47:32.550Z</time>
      </trkpt>
      <trkpt lat="59.43576794117689" lon="13.936519995331764">
        <ele>68.58</ele>
        <time>2025-02-20T10:48:34.044Z</time>
      </trkpt>
      <trkpt lat="59.43574598059058" lon="13.936401978135109">
        <ele>68.69</ele>
        <time>2025-02-20T10:49:35.539Z</time>
      </trkpt>
      <trkpt lat="59.435725947842" lon="13.936289995908737">
        <ele>68.8</ele>
        <time>2025-02-20T10:50:37.035Z</time>
      </trkpt>
      <trkpt lat="59.435705998912454" lon="13.936181953176856">
        <ele>68.92</ele>
        <time>2025-02-20T10:51:38.532Z</time>
      </trkpt>
      <trkpt lat="59.435685966163874" lon="13.936077933758497">
        <ele>69.03</ele>
        <time>2025-02-20T10:52:40.030Z</time>
      </trkpt>
      <trkpt lat="59.435666939243674" lon="13.935978943482041">
        <ele>69.15</ele>
        <time>2025-02-20T10:53:41.529Z</time>
      </trkpt>
      <trkpt lat="59.435646990314126" lon="13.935882970690727">
        <ele>69.26</ele>
        <time>2025-02-20T10:54:43.029Z</time>
      </trkpt>
      <trkpt lat="59.43562796339393" lon="13.935788925737143">
        <ele>69.38</ele>
        <time>2025-02-20T10:55:44.530Z</time>
      </trkpt>
      <trkpt lat="59.43560994230211" lon="13.935698987916112">
        <ele>69.49</ele>
        <time>2025-02-20T10:56:46.031Z</time>
      </trkpt>
      <trkpt lat="59.43558898754418" lon="13.935606954619288">
        <ele>69.6</ele>
        <time>2025-02-20T10:57:47.533Z</time>
      </trkpt>
      <trkpt lat="59.43556593731046" lon="13.935510981827974">
        <ele>69.72</ele>
        <time>2025-02-20T10:58:49.036Z</time>
      </trkpt>
      <trkpt lat="59.435539953410625" lon="13.935411991551518">
        <ele>69.83</ele>
        <time>2025-02-20T10:59:50.540Z</time>
      </trkpt>
      <trkpt lat="59.435515981167555" lon="13.935313923284411">
        <ele>69.93</ele>
        <time>2025-02-20T11:00:52.045Z</time>
      </trkpt>
      <trkpt lat="59.43548899143934" lon="13.935210993513465">
        <ele>70.04</ele>
        <time>2025-02-20T11:01:53.551Z</time>
      </trkpt>
      <trkpt lat="59.4354619178921" lon="13.935110997408628">
        <ele>70.14</ele>
        <time>2025-02-20T11:02:55.058Z</time>
      </trkpt>
      <trkpt lat="59.435430988669395" lon="13.935012929141521">
        <ele>70.24</ele>
        <time>2025-02-20T11:03:56.566Z</time>
      </trkpt>
      <trkpt lat="59.43539997562766" lon="13.934912933036685">
        <ele>70.35</ele>
        <time>2025-02-20T11:04:58.075Z</time>
      </trkpt>
      <trkpt lat="59.435367956757545" lon="13.934808997437358">
        <ele>70.45</ele>
        <time>2025-02-20T11:05:59.585Z</time>
      </trkpt>
      <trkpt lat="59.43533493205905" lon="13.934704978018999">
        <ele>70.55</ele>
        <time>2025-02-20T11:07:01.096Z</time>
      </trkpt>
      <trkpt lat="59.43529796786606" lon="13.93460095860064">
        <ele>70.65</ele>
        <time>2025-02-20T11:08:02.608Z</time>
      </trkpt>
      <trkpt lat="59.435260919854045" lon="13.934499956667423">
        <ele>70.74</ele>
        <time>2025-02-20T11:09:04.121Z</time>
      </trkpt>
      <trkpt lat="59.43522093817592" lon="13.934394931420684">
        <ele>70.84</ele>
        <time>2025-02-20T11:10:05.635Z</time>
      </trkpt>
      <trkpt lat="59.43517894484103" lon="13.934289989992976">
        <ele>70.93</ele>
        <time>2025-02-20T11:11:07.150Z</time>
      </trkpt>
      <trkpt lat="59.43513594567776" lon="13.934186976402998">
        <ele>71.02</ele>
        <time>2025-02-20T11:12:08.666Z</time>
      </trkpt>
      <trkpt lat="59.43509495817125" lon="13.934085974469781">
        <ele>71.11</ele>
        <time>2025-02-20T11:13:10.183Z</time>
      </trkpt>
      <trkpt lat="59.43505296483636" lon="13.933990923687816">
        <ele>71.2</ele>
        <time>2025-02-20T11:14:11.701Z</time>
      </trkpt>
      <trkpt lat="59.43500694818795" lon="13.933900985866785">
        <ele>71.28</ele>
        <time>2025-02-20T11:15:13.220Z</time>
      </trkpt>
      <trkpt lat="59.4349629431963" lon="13.933812975883484">
        <ele>71.37</ele>
        <time>2025-02-20T11:16:14.740Z</time>
      </trkpt>
      <trkpt lat="59.43491994403303" lon="13.9337189309299">
        <ele>71.46</ele>
        <time>2025-02-20T11:17:16.261Z</time>
      </trkpt>
      <trkpt lat="59.43488096818328" lon="13.933621952310205">
        <ele>71.54</ele>
        <time>2025-02-20T11:18:17.783Z</time>
      </trkpt>
      <trkpt lat="59.43484199233353" lon="13.933526985347271">
        <ele>71.62</ele>
        <time>2025-02-20T11:19:19.306Z</time>
      </trkpt>
      <trkpt lat="59.43480192683637" lon="13.933432940393686">
        <ele>71.71</ele>
        <time>2025-02-20T11:20:20.830Z</time>
      </trkpt>
      <trkpt lat="59.434765968471766" lon="13.933346942067146">
        <ele>71.79</ele>
        <time>2025-02-20T11:21:22.355Z</time>
      </trkpt>
      <trkpt lat="59.43473394960165" lon="13.933264967054129">
        <ele>71.87</ele>
        <time>2025-02-20T11:22:23.881Z</time>
      </trkpt>
      <trkpt lat="59.434700924903154" lon="13.933187937363982">
        <ele>71.95</ele>
        <time>2025-02-20T11:23:25.408Z</time>
      </trkpt>
      <trkpt lat="59.43466697819531" lon="13.933112919330597">
        <ele>72.04</ele>
        <time>2025-02-20T11:24:26.936Z</time>
      </trkpt>
      <trkpt lat="59.43463294766843" lon="13.933035973459482">
        <ele>72.12</ele>
        <time>2025-02-20T11:25:28.464Z</time>
      </trkpt>
      <trkpt lat="59.43459799513221" lon="13.932952992618084">
        <ele>72.2</ele>
        <time>2025-02-20T11:26:29.993Z</time>
      </trkpt>
      <trkpt lat="59.43456195294857" lon="13.932867916300893">
        <ele>72.28</ele>
        <time>2025-02-20T11:27:31.523Z</time>
      </trkpt>
      <trkpt lat="59.43452297709882" lon="13.932781917974353">
        <ele>72.36</ele>
        <time>2025-02-20T11:28:33.054Z</time>
      </trkpt>
      <trkpt lat="59.434482995420694" lon="13.932693991810083">
        <ele>72.44</ele>
        <time>2025-02-20T11:29:34.586Z</time>
      </trkpt>
      <trkpt lat="59.434443935751915" lon="13.93260296434164">
        <ele>72.52</ele>
        <time>2025-02-20T11:30:36.119Z</time>
      </trkpt>
      <trkpt lat="59.43440395407379" lon="13.932512942701578">
        <ele>72.6</ele>
        <time>2025-02-20T11:31:37.653Z</time>
      </trkpt>
      <trkpt lat="59.4343619607389" lon="13.932421999052167">
        <ele>72.67</ele>
        <time>2025-02-20T11:32:39.188Z</time>
      </trkpt>
      <trkpt lat="59.43431896157563" lon="13.932331977412105">
        <ele>72.74</ele>
        <time>2025-02-20T11:33:40.724Z</time>
      </trkpt>
      <trkpt lat="59.43427596241236" lon="13.932241955772042">
        <ele>72.81</ele>
        <time>2025-02-20T11:34:42.261Z</time>
      </trkpt>
      <trkpt lat="59.43423195742071" lon="13.9321509283036">
        <ele>72.88</ele>
        <time>2025-02-20T11:35:43.799Z</time>
      </trkpt>
      <trkpt lat="59.434186946600676" lon="13.932059984654188">
        <ele>72.94</ele>
        <time>2025-02-20T11:36:45.338Z</time>
      </trkpt>
      <trkpt lat="59.434141935780644" lon="13.931970968842506">
        <ele>73.01</ele>
        <time>2025-02-20T11:37:46.878Z</time>
      </trkpt>
      <trkpt lat="59.434098936617374" lon="13.931882958859205">
        <ele>73.07</ele>
        <time>2025-02-20T11:38:48.419Z</time>
      </trkpt>
      <trkpt lat="59.434055937454104" lon="13.931797966361046">
        <ele>73.13</ele>
        <time>2025-02-20T11:39:49.961Z</time>
      </trkpt>
      <trkpt lat="59.43401092663407" lon="13.931717919185758">
        <ele>73.19</ele>
        <time>2025-02-20T11:40:51.504Z</time>
      </trkpt>
      <trkpt lat="59.433965999633074" lon="13.931639967486262">
        <ele>73.24</ele>
        <time>2025-02-20T11:41:53.048Z</time>
      </trkpt>
      <trkpt lat="59.43391998298466" lon="13.931560926139355">
        <ele>73.3</ele>
        <time>2025-02-20T11:42:54.593Z</time>
      </trkpt>
      <trkpt lat="59.43387396633625" lon="13.93148498609662">
        <ele>73.35</ele>
        <time>2025-02-20T11:43:56.139Z</time>
      </trkpt>
      <trkpt lat="59.43383096717298" lon="13.931415919214487">
        <ele>73.4</ele>
        <time>2025-02-20T11:44:57.686Z</time>
      </trkpt>
      <trkpt lat="59.43378897383809" lon="13.931352971121669">
        <ele>73.45</ele>
        <time>2025-02-20T11:45:59.234Z</time>
      </trkpt>
      <trkpt lat="59.4337469805032" lon="13.931294968351722">
        <ele>73.49</ele>
        <time>2025-02-20T11:47:00.783Z</time>
      </trkpt>
      <trkpt lat="59.4337089266628" lon="13.931237971410155">
        <ele>73.54</ele>
        <time>2025-02-20T11:48:02.332Z</time>
      </trkpt>
      <trkpt lat="59.433671962469816" lon="13.931179968640208">
        <ele>73.58</ele>
        <time>2025-02-20T11:49:03.882Z</time>
      </trkpt>
      <trkpt lat="59.43363793194294" lon="13.93112096004188">
        <ele>73.63</ele>
        <time>2025-02-20T11:50:05.433Z</time>
      </trkpt>
      <trkpt lat="59.433602979406714" lon="13.931064968928695">
        <ele>73.67</ele>
        <time>2025-02-20T11:51:06.984Z</time>
      </trkpt>
      <trkpt lat="59.43356693722308" lon="13.931007971987128">
        <ele>73.71</ele>
        <time>2025-02-20T11:52:08.536Z</time>
      </trkpt>
      <trkpt lat="59.43353399634361" lon="13.930950975045562">
        <ele>73.74</ele>
        <time>2025-02-20T11:53:10.089Z</time>
      </trkpt>
      <trkpt lat="59.433499965816736" lon="13.930897917598486">
        <ele>73.78</ele>
        <time>2025-02-20T11:54:11.643Z</time>
      </trkpt>
      <trkpt lat="59.4334639236331" lon="13.930850978940725">
        <ele>73.82</ele>
        <time>2025-02-20T11:55:13.197Z</time>
      </trkpt>
      <trkpt lat="59.433429976925254" lon="13.93079993315041">
        <ele>73.85</ele>
        <time>2025-02-20T11:56:14.752Z</time>
      </trkpt>
      <trkpt lat="59.43339695222676" lon="13.930746959522367">
        <ele>73.89</ele>
        <time>2025-02-20T11:57:16.308Z</time>
      </trkpt>
      <trkpt lat="59.43336392752826" lon="13.930695997551084">
        <ele>73.92</ele>
        <time>2025-02-20T11:58:17.864Z</time>
      </trkpt>
      <trkpt lat="59.43333299830556" lon="13.930642940104008">
        <ele>73.95</ele>
        <time>2025-02-20T11:59:19.421Z</time>
      </trkpt>
      <trkpt lat="59.43329997360706" lon="13.930589966475964">
        <ele>73.97</ele>
        <time>2025-02-20T12:00:20.979Z</time>
      </trkpt>
      <trkpt lat="59.43326694890857" lon="13.930534981191158">
        <ele>74.0</ele>
        <time>2025-02-20T12:01:22.537Z</time>
      </trkpt>
      <trkpt lat="59.43323493003845" lon="13.93047597259283">
        <ele>74.02</ele>
        <time>2025-02-20T12:02:24.096Z</time>
      </trkpt>
      <trkpt lat="59.43320299498737" lon="13.930413946509361">
        <ele>74.04</ele>
        <time>2025-02-20T12:03:25.656Z</time>
      </trkpt>
      <trkpt lat="59.433171981945634" lon="13.930348986759782">
        <ele>74.06</ele>
        <time>2025-02-20T12:04:27.217Z</time>
      </trkpt>
      <trkpt lat="59.43313895724714" lon="13.930280925706029">
        <ele>74.08</ele>
        <time>2025-02-20T12:05:28.778Z</time>
      </trkpt>
      <trkpt lat="59.43310392089188" lon="13.930212948471308">
        <ele>74.1</ele>
        <time>2025-02-20T12:06:30.340Z</time>
      </trkpt>
      <trkpt lat="59.433068968355656" lon="13.930142959579825">
        <ele>74.12</ele>
        <time>2025-02-20T12:07:31.903Z</time>
      </trkpt>
      <trkpt lat="59.43303192034364" lon="13.930071964859962">
        <ele>74.13</ele>
        <time>2025-02-20T12:08:33.467Z</time>
      </trkpt>
      <trkpt lat="59.43299395032227" lon="13.929998958483338">
        <ele>74.14</ele>
        <time>2025-02-20T12:09:35.032Z</time>
      </trkpt>
      <trkpt lat="59.4329559803009" lon="13.929928969591856">
        <ele>74.14</ele>
        <time>2025-02-20T12:10:36.597Z</time>
      </trkpt>
      <trkpt lat="59.432916920632124" lon="13.929860992357135">
        <ele>74.15</ele>
        <time>2025-02-20T12:11:38.163Z</time>
      </trkpt>
      <trkpt lat="59.43287895061076" lon="13.929784968495369">
        <ele>74.16</ele>
        <time>2025-02-20T12:12:39.730Z</time>
      </trkpt>
      <trkpt lat="59.43284098058939" lon="13.92970098182559">
        <ele>74.16</ele>
        <time>2025-02-20T12:13:41.298Z</time>
      </trkpt>
      <trkpt lat="59.43280099891126" lon="13.929609954357147">
        <ele>74.17</ele>
        <time>2025-02-20T12:14:42.867Z</time>
      </trkpt>
      <trkpt lat="59.43275892175734" lon="13.929514987394214">
        <ele>74.17</ele>
        <time>2025-02-20T12:15:44.437Z</time>
      </trkpt>
      <trkpt lat="59.43271692842245" lon="13.929415997117758">
        <ele>74.18</ele>
        <time>2025-02-20T12:16:46.008Z</time>
      </trkpt>
      <trkpt lat="59.4326729234308" lon="13.929318934679031">
        <ele>74.18</ele>
        <time>2025-02-20T12:17:47.580Z</time>
      </trkpt>
      <trkpt lat="59.4326279964298" lon="13.929221956059337">
        <ele>74.19</ele>
        <time>2025-02-20T12:18:49.153Z</time>
      </trkpt>
      <trkpt lat="59.43258197978139" lon="13.929125983268023">
        <ele>74.2</ele>
        <time>2025-02-20T12:19:50.727Z</time>
      </trkpt>
      <trkpt lat="59.432533951476216" lon="13.929030932486057">
        <ele>74.21</ele>
        <time>2025-02-20T12:20:52.302Z</time>
      </trkpt>
      <trkpt lat="59.432486928999424" lon="13.92893093638122">
        <ele>74.22</ele>
        <time>2025-02-20T12:21:53.879Z</time>
      </trkpt>
      <trkpt lat="59.4324379786849" lon="13.928828928619623">
        <ele>74.23</ele>
        <time>2025-02-20T12:22:55.457Z</time>
      </trkpt>
      <trkpt lat="59.43238592706621" lon="13.928721975535154">
        <ele>74.23</ele>
        <time>2025-02-20T12:23:57.036Z</time>
      </trkpt>
      <trkpt lat="59.43233295343816" lon="13.928611921146512">
        <ele>74.24</ele>
        <time>2025-02-20T12:24:58.616Z</time>
      </trkpt>
      <trkpt lat="59.43227696232498" lon="13.92849893309176">
        <ele>74.25</ele>
        <time>2025-02-20T12:26:00.197Z</time>
      </trkpt>
      <trkpt lat="59.43222097121179" lon="13.928382927551866">
        <ele>74.25</ele>
        <time>2025-02-20T12:27:01.780Z</time>
      </trkpt>
      <trkpt lat="59.432162968441844" lon="13.92826298251748">
        <ele>74.24</ele>
        <time>2025-02-20T12:28:03.364Z</time>
      </trkpt>
      <trkpt lat="59.432103959843516" lon="13.928134990856051">
        <ele>74.24</ele>
        <time>2025-02-20T12:29:04.949Z</time>
      </trkpt>
      <trkpt lat="59.43204595707357" lon="13.927999958395958">
        <ele>74.23</ele>
        <time>2025-02-20T12:30:06.536Z</time>
      </trkpt>
      <trkpt lat="59.43198795430362" lon="13.927856963127851">
        <ele>74.22</ele>
        <time>2025-02-20T12:31:08.124Z</time>
      </trkpt>
      <trkpt lat="59.431929951533675" lon="13.927706927061081">
        <ele>74.21</ele>
        <time>2025-02-20T12:32:09.714Z</time>
      </trkpt>
      <trkpt lat="59.43187597207725" lon="13.927549934014678">
        <ele>74.2</ele>
        <time>2025-02-20T12:33:11.306Z</time>
      </trkpt>
      <trkpt lat="59.431824926286936" lon="13.927382966503501">
        <ele>74.19</ele>
        <time>2025-02-20T12:34:12.899Z</time>
      </trkpt>
      <trkpt lat="59.431776981800795" lon="13.927215998992324">
        <ele>74.18</ele>
        <time>2025-02-20T12:35:14.494Z</time>
      </trkpt>
      <trkpt lat="59.43172694183886" lon="13.927046936005354">
        <ele>74.18</ele>
        <time>2025-02-20T12:36:16.090Z</time>
      </trkpt>
      <trkpt lat="59.43167899735272" lon="13.926875945180655">
        <ele>74.19</ele>
        <time>2025-02-20T12:37:17.688Z</time>
      </trkpt>
      <trkpt lat="59.43163298070431" lon="13.926705960184336">
        <ele>74.2</ele>
        <time>2025-02-20T12:38:19.287Z</time>
      </trkpt>
      <trkpt lat="59.431587969884276" lon="13.926536981016397">
        <ele>74.21</ele>
        <time>2025-02-20T12:39:20.888Z</time>
      </trkpt>
      <trkpt lat="59.431544970721006" lon="13.92637093551457">
        <ele>74.23</ele>
        <time>2025-02-20T12:40:22.491Z</time>
      </trkpt>
      <trkpt lat="59.431499959900975" lon="13.926208997145295">
        <ele>74.24</ele>
        <time>2025-02-20T12:41:24.095Z</time>
      </trkpt>
      <trkpt lat="59.43145394325256" lon="13.92604898661375">
        <ele>74.26</ele>
        <time>2025-02-20T12:42:25.701Z</time>
      </trkpt>
      <trkpt lat="59.43140792660415" lon="13.925891993567348">
        <ele>74.27</ele>
        <time>2025-02-20T12:43:27.308Z</time>
      </trkpt>
      <trkpt lat="59.43136299960315" lon="13.925736928358674">
        <ele>74.28</ele>
        <time>2025-02-20T12:44:28.916Z</time>
      </trkpt>
      <trkpt lat="59.43132092244923" lon="13.925583958625793">
        <ele>74.3</ele>
        <time>2025-02-20T12:45:30.526Z</time>
      </trkpt>
      <trkpt lat="59.4312809407711" lon="13.925432916730642">
        <ele>74.33</ele>
        <time>2025-02-20T12:46:32.137Z</time>
      </trkpt>
      <trkpt lat="59.431242970749736" lon="13.925284976139665">
        <ele>74.35</ele>
        <time>2025-02-20T12:47:33.750Z</time>
      </trkpt>
      <trkpt lat="59.4312069285661" lon="13.925140975043178">
        <ele>74.38</ele>
        <time>2025-02-20T12:48:35.364Z</time>
      </trkpt>
      <trkpt lat="59.43116996437311" lon="13.925001919269562">
        <ele>74.41</ele>
        <time>2025-02-20T12:49:36.979Z</time>
      </trkpt>
      <trkpt lat="59.43113291636109" lon="13.924864958971739">
        <ele>74.44</ele>
        <time>2025-02-20T12:50:38.595Z</time>
      </trkpt>
      <trkpt lat="59.43109695799649" lon="13.924726992845535">
        <ele>74.48</ele>
        <time>2025-02-20T12:51:40.213Z</time>
      </trkpt>
      <trkpt lat="59.43106393329799" lon="13.92458793707192">
        <ele>74.51</ele>
        <time>2025-02-20T12:52:41.832Z</time>
      </trkpt>
      <trkpt lat="59.43102998659015" lon="13.924449970945716">
        <ele>74.55</ele>
        <time>2025-02-20T12:53:43.452Z</time>
      </trkpt>
      <trkpt lat="59.43099696189165" lon="13.924312926828861">
        <ele>74.58</ele>
        <time>2025-02-20T12:54:45.074Z</time>
      </trkpt>
      <trkpt lat="59.430962931364775" lon="13.924173954874277">
        <ele>74.62</ele>
        <time>2025-02-20T12:55:46.697Z</time>
      </trkpt>
      <trkpt lat="59.43092898465693" lon="13.924034982919693">
        <ele>74.66</ele>
        <time>2025-02-20T12:56:48.321Z</time>
      </trkpt>
      <trkpt lat="59.43089294247329" lon="13.923893999308348">
        <ele>74.71</ele>
        <time>2025-02-20T12:57:49.946Z</time>
      </trkpt>
      <trkpt lat="59.430856984108686" lon="13.923754943534732">
        <ele>74.75</ele>
        <time>2025-02-20T12:58:51.573Z</time>
      </trkpt>
      <trkpt lat="59.43082194775343" lon="13.923614965751767">
        <ele>74.8</ele>
        <time>2025-02-20T12:59:53.201Z</time>
      </trkpt>
      <trkpt lat="59.430786995217204" lon="13.923475993797183">
        <ele>74.85</ele>
        <time>2025-02-20T13:00:54.830Z</time>
      </trkpt>
      <trkpt lat="59.43075195886195" lon="13.923337943851948">
        <ele>74.91</ele>
        <time>2025-02-20T13:01:56.460Z</time>
      </trkpt>
      <trkpt lat="59.43071591667831" lon="13.923199977725744">
        <ele>74.97</ele>
        <time>2025-02-20T13:02:58.092Z</time>
      </trkpt>
      <trkpt lat="59.4306799583137" lon="13.92306293360889">
        <ele>75.03</ele>
        <time>2025-02-20T13:03:59.725Z</time>
      </trkpt>
      <trkpt lat="59.4306439999491" lon="13.922928990796208">
        <ele>75.09</ele>
        <time>2025-02-20T13:05:01.359Z</time>
      </trkpt>
      <trkpt lat="59.43060896359384" lon="13.922796975821257">
        <ele>75.16</ele>
        <time>2025-02-20T13:06:02.994Z</time>
      </trkpt>
      <trkpt lat="59.430575938895345" lon="13.922666972503066">
        <ele>75.22</ele>
        <time>2025-02-20T13:07:04.631Z</time>
      </trkpt>
      <trkpt lat="59.43054392002523" lon="13.922541998326778">
        <ele>75.29</ele>
        <time>2025-02-20T13:08:06.269Z</time>
      </trkpt>
      <trkpt lat="59.430509973317385" lon="13.9224199578166">
        <ele>75.36</ele>
        <time>2025-02-20T13:09:07.908Z</time>
      </trkpt>
      <trkpt lat="59.43047694861889" lon="13.922298923134804">
        <ele>75.42</ele>
        <time>2025-02-20T13:10:09.548Z</time>
      </trkpt>
      <trkpt lat="59.43044291809201" lon="13.922177972272038">
        <ele>75.49</ele>
        <time>2025-02-20T13:11:11.189Z</time>
      </trkpt>
      <trkpt lat="59.43040796555579" lon="13.922057943418622">
        <ele>75.57</ele>
        <time>2025-02-20T13:12:12.831Z</time>
      </trkpt>
      <trkpt lat="59.43037292920053" lon="13.921939926221967">
        <ele>75.64</ele>
        <time>2025-02-20T13:13:14.474Z</time>
      </trkpt>
      <trkpt lat="59.430335965007544" lon="13.921824926510453">
        <ele>75.72</ele>
        <time>2025-02-20T13:14:16.118Z</time>
      </trkpt>
      <trkpt lat="59.430298916995525" lon="13.9217119384557">
        <ele>75.8</ele>
        <time>2025-02-20T13:15:17.764Z</time>
      </trkpt>
      <trkpt lat="59.43026295863092" lon="13.92160297371447">
        <ele>75.88</ele>
        <time>2025-02-20T13:16:19.411Z</time>
      </trkpt>
      <trkpt lat="59.43022498860955" lon="13.921498954296112">
        <ele>75.96</ele>
        <time>2025-02-20T13:17:21.059Z</time>
      </trkpt>
      <trkpt lat="59.430186934769154" lon="13.921397952362895">
        <ele>76.04</ele>
        <time>2025-02-20T13:18:22.708Z</time>
      </trkpt>
      <trkpt lat="59.430147958919406" lon="13.921297956258059">
        <ele>76.13</ele>
        <time>2025-02-20T13:19:24.358Z</time>
      </trkpt>
      <trkpt lat="59.43010998889804" lon="13.921199971809983">
        <ele>76.21</ele>
        <time>2025-02-20T13:20:26.009Z</time>
      </trkpt>
      <trkpt lat="59.43007193505764" lon="13.92110399901867">
        <ele>76.31</ele>
        <time>2025-02-20T13:21:27.661Z</time>
      </trkpt>
      <trkpt lat="59.43003295920789" lon="13.921011965721846">
        <ele>76.4</ele>
        <time>2025-02-20T13:22:29.314Z</time>
      </trkpt>
      <trkpt lat="59.429994989186525" lon="13.920921944081783">
        <ele>76.49</ele>
        <time>2025-02-20T13:23:30.968Z</time>
      </trkpt>
      <trkpt lat="59.429955929517746" lon="13.920832928270102">
        <ele>76.59</ele>
        <time>2025-02-20T13:24:32.623Z</time>
      </trkpt>
      <trkpt lat="59.429916953668" lon="13.9207449182868">
        <ele>76.69</ele>
        <time>2025-02-20T13:25:34.279Z</time>
      </trkpt>
      <trkpt lat="59.42987697198987" lon="13.920656992122531">
        <ele>76.79</ele>
        <time>2025-02-20T13:26:35.936Z</time>
      </trkpt>
      <trkpt lat="59.42983699031174" lon="13.920566970482469">
        <ele>76.9</ele>
        <time>2025-02-20T13:27:37.593Z</time>
      </trkpt>
      <trkpt lat="59.4297959189862" lon="13.920476948842406">
        <ele>77.0</ele>
        <time>2025-02-20T13:28:39.251Z</time>
      </trkpt>
      <trkpt lat="59.42975493147969" lon="13.920385921373963">
        <ele>77.11</ele>
        <time>2025-02-20T13:29:40.910Z</time>
      </trkpt>
      <trkpt lat="59.4297129381448" lon="13.920293971896172">
        <ele>77.21</ele>
        <time>2025-02-20T13:30:42.570Z</time>
      </trkpt>
      <trkpt lat="59.429670944809914" lon="13.920202944427729">
        <ele>77.32</ele>
        <time>2025-02-20T13:31:44.231Z</time>
      </trkpt>
      <trkpt lat="59.429627945646644" lon="13.920110994949937">
        <ele>77.43</ele>
        <time>2025-02-20T13:32:45.894Z</time>
      </trkpt>
      <trkpt lat="59.429585952311754" lon="13.920016949996352">
        <ele>77.53</ele>
        <time>2025-02-20T13:33:47.558Z</time>
      </trkpt>
      <trkpt lat="59.429544964805245" lon="13.9199229888618">
        <ele>77.63</ele>
        <time>2025-02-20T13:34:49.223Z</time>
      </trkpt>
      <trkpt lat="59.42950397729874" lon="13.919829949736595">
        <ele>77.74</ele>
        <time>2025-02-20T13:35:50.889Z</time>
      </trkpt>
      <trkpt lat="59.42946399562061" lon="13.919734982773662">
        <ele>77.84</ele>
        <time>2025-02-20T13:36:52.556Z</time>
      </trkpt>
      <trkpt lat="59.42942292429507" lon="13.919639931991696">
        <ele>77.94</ele>
        <time>2025-02-20T13:37:54.224Z</time>
      </trkpt>
      <trkpt lat="59.42938193678856" lon="13.919545970857143">
        <ele>78.04</ele>
        <time>2025-02-20T13:38:55.893Z</time>
      </trkpt>
      <trkpt lat="59.42934195511043" lon="13.91945393756032">
        <ele>78.14</ele>
        <time>2025-02-20T13:39:57.563Z</time>
      </trkpt>
      <trkpt lat="59.42930096760392" lon="13.919360982254148">
        <ele>78.25</ele>
        <time>2025-02-20T13:40:59.234Z</time>
      </trkpt>
      <trkpt lat="59.42925998009741" lon="13.919271966442466">
        <ele>78.35</ele>
        <time>2025-02-20T13:42:00.906Z</time>
      </trkpt>
      <trkpt lat="59.429219998419285" lon="13.919184962287545">
        <ele>78.45</ele>
        <time>2025-02-20T13:43:02.579Z</time>
      </trkpt>
      <trkpt lat="59.42918295040727" lon="13.919097958132625">
        <ele>78.55</ele>
        <time>2025-02-20T13:44:04.252Z</time>
      </trkpt>
      <trkpt lat="59.42914699204266" lon="13.919011959806085">
        <ele>78.65</ele>
        <time>2025-02-20T13:45:05.926Z</time>
      </trkpt>
      <trkpt lat="59.42910893820226" lon="13.918928978964686">
        <ele>78.75</ele>
        <time>2025-02-20T13:46:07.601Z</time>
      </trkpt>
      <trkpt lat="59.429071974009275" lon="13.918848931789398">
        <ele>78.85</ele>
        <time>2025-02-20T13:47:09.277Z</time>
      </trkpt>
      <trkpt lat="59.42903593182564" lon="13.918767962604761">
        <ele>78.95</ele>
        <time>2025-02-20T13:48:10.954Z</time>
      </trkpt>
      <trkpt lat="59.42899896763265" lon="13.918685987591743">
        <ele>79.05</ele>
        <time>2025-02-20T13:49:12.632Z</time>
      </trkpt>
      <trkpt lat="59.428963931277394" lon="13.918604934588075">
        <ele>79.15</ele>
        <time>2025-02-20T13:50:14.311Z</time>
      </trkpt>
      <trkpt lat="59.42892696708441" lon="13.918523965403438">
        <ele>79.24</ele>
        <time>2025-02-20T13:51:15.991Z</time>
      </trkpt>
      <trkpt lat="59.42888991907239" lon="13.91844199039042">
        <ele>79.34</ele>
        <time>2025-02-20T13:52:17.672Z</time>
      </trkpt>
      <trkpt lat="59.4288529548794" lon="13.918360937386751">
        <ele>79.43</ele>
        <time>2025-02-20T13:53:19.353Z</time>
      </trkpt>
      <trkpt lat="59.428814984858036" lon="13.918274939060211">
        <ele>79.52</ele>
        <time>2025-02-20T13:54:21.035Z</time>
      </trkpt>
      <trkpt lat="59.42877793684602" lon="13.918188940733671">
        <ele>79.61</ele>
        <time>2025-02-20T13:55:22.718Z</time>
      </trkpt>
      <trkpt lat="59.42873896099627" lon="13.91809992492199">
        <ele>79.7</ele>
        <time>2025-02-20T13:56:24.402Z</time>
      </trkpt>
      <trkpt lat="59.42869897931814" lon="13.91801099292934">
        <ele>79.79</ele>
        <time>2025-02-20T13:57:26.087Z</time>
      </trkpt>
      <trkpt lat="59.42866092547774" lon="13.917918959632516">
        <ele>79.87</ele>
        <time>2025-02-20T13:58:27.773Z</time>
      </trkpt>
      <trkpt lat="59.428622955456376" lon="13.917824998497963">
        <ele>79.95</ele>
        <time>2025-02-20T13:59:29.460Z</time>
      </trkpt>
      <trkpt lat="59.42858498543501" lon="13.917731959372759">
        <ele>80.04</ele>
        <time>2025-02-20T14:00:31.148Z</time>
      </trkpt>
      <trkpt lat="59.42854491993785" lon="13.917640931904316">
        <ele>80.12</ele>
        <time>2025-02-20T14:01:32.837Z</time>
      </trkpt>
      <trkpt lat="59.4285059440881" lon="13.917552921921015">
        <ele>80.2</ele>
        <time>2025-02-20T14:02:34.527Z</time>
      </trkpt>
      <trkpt lat="59.428467974066734" lon="13.917467929422855">
        <ele>80.28</ele>
        <time>2025-02-20T14:03:36.218Z</time>
      </trkpt>
      <trkpt lat="59.428430926054716" lon="13.917375979945064">
        <ele>80.36</ele>
        <time>2025-02-20T14:04:37.910Z</time>
      </trkpt>
      <trkpt lat="59.42839396186173" lon="13.91728294081986">
        <ele>80.43</ele>
        <time>2025-02-20T14:05:39.603Z</time>
      </trkpt>
      <trkpt lat="59.42835599184036" lon="13.917190991342068">
        <ele>80.5</ele>
        <time>2025-02-20T14:06:41.297Z</time>
      </trkpt>
      <trkpt lat="59.428318943828344" lon="13.917098958045244">
        <ele>80.57</ele>
        <time>2025-02-20T14:07:42.992Z</time>
      </trkpt>
      <trkpt lat="59.42828298546374" lon="13.917007930576801">
        <ele>80.64</ele>
        <time>2025-02-20T14:08:44.688Z</time>
      </trkpt>
      <trkpt lat="59.42824895493686" lon="13.91691598109901">
        <ele>80.71</ele>
        <time>2025-02-20T14:09:46.385Z</time>
      </trkpt>
      <trkpt lat="59.428215930238366" lon="13.916824953630567">
        <ele>80.77</ele>
        <time>2025-02-20T14:10:48.083Z</time>
      </trkpt>
      <trkpt lat="59.42818399518728" lon="13.916733926162124">
        <ele>80.84</ele>
        <time>2025-02-20T14:11:49.782Z</time>
      </trkpt>
      <trkpt lat="59.428146947175264" lon="13.91663996502757">
        <ele>80.9</ele>
        <time>2025-02-20T14:12:51.482Z</time>
      </trkpt>
      <trkpt lat="59.42811098881066" lon="13.916542986407876">
        <ele>80.96</ele>
        <time>2025-02-20T14:13:53.183Z</time>
      </trkpt>
      <trkpt lat="59.42807695828378" lon="13.91644399613142">
        <ele>81.02</ele>
        <time>2025-02-20T14:14:54.884Z</time>
      </trkpt>
      <trkpt lat="59.428037982434034" lon="13.916343916207552">
        <ele>81.08</ele>
        <time>2025-02-20T14:15:56.587Z</time>
      </trkpt>
      <trkpt lat="59.427998922765255" lon="13.916240986436605">
        <ele>81.13</ele>
        <time>2025-02-20T14:16:58.291Z</time>
      </trkpt>
      <trkpt lat="59.427956929430366" lon="13.916135961189866">
        <ele>81.18</ele>
        <time>2025-02-20T14:17:59.996Z</time>
      </trkpt>
      <trkpt lat="59.427913930267096" lon="13.916030935943127">
        <ele>81.23</ele>
        <time>2025-02-20T14:19:01.702Z</time>
      </trkpt>
      <trkpt lat="59.427869925275445" lon="13.915928928181529">
        <ele>81.28</ele>
        <time>2025-02-20T14:20:03.409Z</time>
      </trkpt>
      <trkpt lat="59.42782097496092" lon="13.915826920419931">
        <ele>81.32</ele>
        <time>2025-02-20T14:21:05.117Z</time>
      </trkpt>
      <trkpt lat="59.42777093499899" lon="13.915723990648985">
        <ele>81.37</ele>
        <time>2025-02-20T14:22:06.826Z</time>
      </trkpt>
      <trkpt lat="59.42772299051285" lon="13.915621982887387">
        <ele>81.4</ele>
        <time>2025-02-20T14:23:08.536Z</time>
      </trkpt>
      <trkpt lat="59.427673956379294" lon="13.91552198678255">
        <ele>81.43</ele>
        <time>2025-02-20T14:24:10.247Z</time>
      </trkpt>
      <trkpt lat="59.42762299440801" lon="13.915424924343824">
        <ele>81.45</ele>
        <time>2025-02-20T14:25:11.960Z</time>
      </trkpt>
      <trkpt lat="59.427568931132555" lon="13.91532895155251">
        <ele>81.47</ele>
        <time>2025-02-20T14:26:13.674Z</time>
      </trkpt>
      <trkpt lat="59.42751495167613" lon="13.915234990417957">
        <ele>81.48</ele>
        <time>2025-02-20T14:27:15.389Z</time>
      </trkpt>
      <trkpt lat="59.427458960562944" lon="13.915142957121134">
        <ele>81.5</ele>
        <time>2025-02-20T14:28:17.105Z</time>
      </trkpt>
      <trkpt lat="59.427400957793" lon="13.91504899598658">
        <ele>81.5</ele>
        <time>2025-02-20T14:29:18.822Z</time>
      </trkpt>
      <trkpt lat="59.42734697833657" lon="13.914953945204616">
        <ele>81.51</ele>
        <time>2025-02-20T14:30:20.540Z</time>
      </trkpt>
      <trkpt lat="59.4272939208895" lon="13.914851937443018">
        <ele>81.52</ele>
        <time>2025-02-20T14:31:22.260Z</time>
      </trkpt>
      <trkpt lat="59.42723893560469" lon="13.91474892385304">
        <ele>81.52</ele>
        <time>2025-02-20T14:32:23.981Z</time>
      </trkpt>
      <trkpt lat="59.42718696780503" lon="13.914647921919823">
        <ele>81.51</ele>
        <time>2025-02-20T14:33:25.703Z</time>
      </trkpt>
      <trkpt lat="59.427133994176984" lon="13.914548931643367">
        <ele>81.51</ele>
        <time>2025-02-20T14:34:27.426Z</time>
      </trkpt>
      <trkpt lat="59.42708194255829" lon="13.914453964680433">
        <ele>81.5</ele>
        <time>2025-02-20T14:35:29.150Z</time>
      </trkpt>
      <trkpt lat="59.4270259514451" lon="13.91436293721199">
        <ele>81.49</ele>
        <time>2025-02-20T14:36:30.875Z</time>
      </trkpt>
      <trkpt lat="59.4269709661603" lon="13.914273921400309">
        <ele>81.48</ele>
        <time>2025-02-20T14:37:32.602Z</time>
      </trkpt>
      <trkpt lat="59.42691698670387" lon="13.914184989407659">
        <ele>81.46</ele>
        <time>2025-02-20T14:38:34.330Z</time>
      </trkpt>
      <trkpt lat="59.4268639292568" lon="13.914094967767596">
        <ele>81.45</ele>
        <time>2025-02-20T14:39:36.059Z</time>
      </trkpt>
      <trkpt lat="59.42681095562875" lon="13.914000922814012">
        <ele>81.43</ele>
        <time>2025-02-20T14:40:37.789Z</time>
      </trkpt>
      <trkpt lat="59.426753958687186" lon="13.913902938365936">
        <ele>81.4</ele>
        <time>2025-02-20T14:41:39.520Z</time>
      </trkpt>
      <trkpt lat="59.42669696174562" lon="13.913804953917861">
        <ele>81.37</ele>
        <time>2025-02-20T14:42:41.252Z</time>
      </trkpt>
      <trkpt lat="59.42663694731891" lon="13.913700934499502">
        <ele>81.34</ele>
        <time>2025-02-20T14:43:42.986Z</time>
      </trkpt>
      <trkpt lat="59.426577938720584" lon="13.913594987243414">
        <ele>81.3</ele>
        <time>2025-02-20T14:44:44.721Z</time>
      </trkpt>
      <trkpt lat="59.426518930122256" lon="13.913486944511533">
        <ele>81.25</ele>
        <time>2025-02-20T14:45:46.457Z</time>
      </trkpt>
      <trkpt lat="59.4264579936862" lon="13.913374962285161">
        <ele>81.21</ele>
        <time>2025-02-20T14:46:48.195Z</time>
      </trkpt>
      <trkpt lat="59.42639496177435" lon="13.913260968402028">
        <ele>81.16</ele>
        <time>2025-02-20T14:47:49.934Z</time>
      </trkpt>
      <trkpt lat="59.42633092403412" lon="13.913149992004037">
        <ele>81.11</ele>
        <time>2025-02-20T14:48:51.674Z</time>
      </trkpt>
      <trkpt lat="59.42626495845616" lon="13.913045972585678">
        <ele>81.05</ele>
        <time>2025-02-20T14:49:53.416Z</time>
      </trkpt>
      <trkpt lat="59.4261989928782" lon="13.912940947338939">
        <ele>80.99</ele>
        <time>2025-02-20T14:50:55.159Z</time>
      </trkpt>
      <trkpt lat="59.42613394930959" lon="13.91283298842609">
        <ele>80.93</ele>
        <time>2025-02-20T14:51:56.904Z</time>
      </trkpt>
      <trkpt lat="59.426064966246486" lon="13.912725951522589">
        <ele>80.86</ele>
        <time>2025-02-20T14:52:58.650Z</time>
      </trkpt>
      <trkpt lat="59.425995983183384" lon="13.91261899843812">
        <ele>80.79</ele>
        <time>2025-02-20T14:54:00.397Z</time>
      </trkpt>
      <trkpt lat="59.42592498846352" lon="13.91251397319138">
        <ele>80.72</ele>
        <time>2025-02-20T14:55:02.146Z</time>
      </trkpt>
      <trkpt lat="59.4258519820869" lon="13.912418922409415">
        <ele>80.65</ele>
        <time>2025-02-20T14:56:03.896Z</time>
      </trkpt>
      <trkpt lat="59.42577897571027" lon="13.91232194378972">
        <ele>80.58</ele>
        <time>2025-02-20T14:57:05.648Z</time>
      </trkpt>
      <trkpt lat="59.42570395767689" lon="13.912227982655168">
        <ele>80.5</ele>
        <time>2025-02-20T14:58:07.401Z</time>
      </trkpt>
      <trkpt lat="59.42562692798674" lon="13.912135949358344">
        <ele>80.43</ele>
        <time>2025-02-20T14:59:09.155Z</time>
      </trkpt>
      <trkpt lat="59.425549982115626" lon="13.912051962688565">
        <ele>80.35</ele>
        <time>2025-02-20T15:00:10.911Z</time>
      </trkpt>
      <trkpt lat="59.42546993494034" lon="13.911974932998419">
        <ele>80.27</ele>
        <time>2025-02-20T15:01:12.668Z</time>
      </trkpt>
      <trkpt lat="59.42539097741246" lon="13.911905949935317">
        <ele>80.19</ele>
        <time>2025-02-20T15:02:14.427Z</time>
      </trkpt>
      <trkpt lat="59.425312941893935" lon="13.911837972700596">
        <ele>80.11</ele>
        <time>2025-02-20T15:03:16.187Z</time>
      </trkpt>
      <trkpt lat="59.42523297853768" lon="13.911772929131985">
        <ele>80.03</ele>
        <time>2025-02-20T15:04:17.948Z</time>
      </trkpt>
      <trkpt lat="59.42515494301915" lon="13.911704951897264">
        <ele>79.93</ele>
        <time>2025-02-20T15:05:19.711Z</time>
      </trkpt>
      <trkpt lat="59.425073973834515" lon="13.911640997976065">
        <ele>79.84</ele>
        <time>2025-02-20T15:06:21.475Z</time>
      </trkpt>
      <trkpt lat="59.4249919988215" lon="13.911581989377737">
        <ele>79.74</ele>
        <time>2025-02-20T15:07:23.241Z</time>
      </trkpt>
      <trkpt lat="59.42491094581783" lon="13.91152499243617">
        <ele>79.64</ele>
        <time>2025-02-20T15:08:25.008Z</time>
      </trkpt>
      <trkpt lat="59.42482997663319" lon="13.911469923332334">
        <ele>79.54</ele>
        <time>2025-02-20T15:09:26.776Z</time>
      </trkpt>
      <trkpt lat="59.42474699579179" lon="13.91141694970429">
        <ele>79.44</ele>
        <time>2025-02-20T15:10:28.546Z</time>
      </trkpt>
      <trkpt lat="59.42466493695974" lon="13.911364981904626">
        <ele>79.33</ele>
        <time>2025-02-20T15:11:30.317Z</time>
      </trkpt>
      <trkpt lat="59.424583967775106" lon="13.911313936114311">
        <ele>79.21</ele>
        <time>2025-02-20T15:12:32.090Z</time>
      </trkpt>
      <trkpt lat="59.4245049264282" lon="13.911259956657887">
        <ele>79.09</ele>
        <time>2025-02-20T15:13:33.864Z</time>
      </trkpt>
      <trkpt lat="59.42442496307194" lon="13.9112039655447">
        <ele>78.97</ele>
        <time>2025-02-20T15:14:35.639Z</time>
      </trkpt>
      <trkpt lat="59.424346927553415" lon="13.911142945289612">
        <ele>78.85</ele>
        <time>2025-02-20T15:15:37.416Z</time>
      </trkpt>
      <trkpt lat="59.42427098751068" lon="13.911082930862904">
        <ele>78.73</ele>
        <time>2025-02-20T15:16:39.194Z</time>
      </trkpt>
      <trkpt lat="59.424193957820535" lon="13.911018976941705">
        <ele>78.61</ele>
        <time>2025-02-20T15:17:40.973Z</time>
      </trkpt>
      <trkpt lat="59.42411592230201" lon="13.910952927544713">
        <ele>78.49</ele>
        <time>2025-02-20T15:18:42.754Z</time>
      </trkpt>
      <trkpt lat="59.42403495311737" lon="13.910885956138372">
        <ele>78.37</ele>
        <time>2025-02-20T15:19:44.536Z</time>
      </trkpt>
      <trkpt lat="59.423955995589495" lon="13.910820996388793">
        <ele>78.25</ele>
        <time>2025-02-20T15:20:46.319Z</time>
      </trkpt>
      <trkpt lat="59.42387594841421" lon="13.910754946991801">
        <ele>78.12</ele>
        <time>2025-02-20T15:21:48.104Z</time>
      </trkpt>
      <trkpt lat="59.42379497922957" lon="13.9106859639287">
        <ele>78.0</ele>
        <time>2025-02-20T15:22:49.890Z</time>
      </trkpt>
      <trkpt lat="59.42371199838817" lon="13.910607928410172">
        <ele>77.87</ele>
        <time>2025-02-20T15:23:51.678Z</time>
      </trkpt>
      <trkpt lat="59.42362792789936" lon="13.910524947568774">
        <ele>77.74</ele>
        <time>2025-02-20T15:24:53.467Z</time>
      </trkpt>
      <trkpt lat="59.42354595288634" lon="13.910439955070615">
        <ele>77.61</ele>
        <time>2025-02-20T15:25:55.258Z</time>
      </trkpt>
      <trkpt lat="59.423461966216564" lon="13.910351945087314">
        <ele>77.47</ele>
        <time>2025-02-20T15:26:57.050Z</time>
      </trkpt>
      <trkpt lat="59.423374962061644" lon="13.910261923447251">
        <ele>77.33</ele>
        <time>2025-02-20T15:27:58.844Z</time>
      </trkpt>
      <trkpt lat="59.42328594624996" lon="13.910172991454601">
        <ele>77.2</ele>
        <time>2025-02-20T15:29:00.639Z</time>
      </trkpt>
      <trkpt lat="59.42319693043828" lon="13.910077940672636">
        <ele>77.07</ele>
        <time>2025-02-20T15:30:02.436Z</time>
      </trkpt>
      <trkpt lat="59.42310992628336" lon="13.90997895039618">
        <ele>76.93</ele>
        <time>2025-02-20T15:31:04.235Z</time>
      </trkpt>
      <trkpt lat="59.42302392795682" lon="13.909874930977821">
        <ele>76.79</ele>
        <time>2025-02-20T15:32:06.035Z</time>
      </trkpt>
      <trkpt lat="59.42293792963028" lon="13.909772923216224">
        <ele>76.66</ele>
        <time>2025-02-20T15:33:07.837Z</time>
      </trkpt>
      <trkpt lat="59.42285293713212" lon="13.909667981788516">
        <ele>76.52</ele>
        <time>2025-02-20T15:34:09.640Z</time>
      </trkpt>
      <trkpt lat="59.42276895046234" lon="13.909565974026918">
        <ele>76.39</ele>
        <time>2025-02-20T15:35:11.445Z</time>
      </trkpt>
      <trkpt lat="59.42268596962094" lon="13.909459942951798">
        <ele>76.25</ele>
        <time>2025-02-20T15:36:13.252Z</time>
      </trkpt>
      <trkpt lat="59.422604916617274" lon="13.90935399569571">
        <ele>76.12</ele>
        <time>2025-02-20T15:37:15.060Z</time>
      </trkpt>
      <trkpt lat="59.42252495326102" lon="13.909250982105732">
        <ele>75.98</ele>
        <time>2025-02-20T15:38:16.870Z</time>
      </trkpt>
      <trkpt lat="59.42244398407638" lon="13.909145956858993">
        <ele>75.85</ele>
        <time>2025-02-20T15:39:18.681Z</time>
      </trkpt>
      <trkpt lat="59.42236494272947" lon="13.909042943269014">
        <ele>75.72</ele>
        <time>2025-02-20T15:40:20.494Z</time>
      </trkpt>
      <trkpt lat="59.42228497937322" lon="13.908941941335797">
        <ele>75.58</ele>
        <time>2025-02-20T15:41:22.308Z</time>
      </trkpt>
      <trkpt lat="59.42220493219793" lon="13.9088399335742">
        <ele>75.45</ele>
        <time>2025-02-20T15:42:24.124Z</time>
      </trkpt>
      <trkpt lat="59.42212295718491" lon="13.908739937469363">
        <ele>75.31</ele>
        <time>2025-02-20T15:43:25.941Z</time>
      </trkpt>
      <trkpt lat="59.422041988000274" lon="13.908638935536146">
        <ele>75.18</ele>
        <time>2025-02-20T15:44:27.760Z</time>
      </trkpt>
      <trkpt lat="59.42196395248175" lon="13.90853793360293">
        <ele>75.04</ele>
        <time>2025-02-20T15:45:29.580Z</time>
      </trkpt>
      <trkpt lat="59.42188499495387" lon="13.908437937498093">
        <ele>74.91</ele>
        <time>2025-02-20T15:46:31.402Z</time>
      </trkpt>
      <trkpt lat="59.42180595360696" lon="13.908333918079734">
        <ele>74.78</ele>
        <time>2025-02-20T15:47:33.225Z</time>
      </trkpt>
      <trkpt lat="59.421727918088436" lon="13.908225959166884">
        <ele>74.64</ele>
        <time>2025-02-20T15:48:35.050Z</time>
      </trkpt>
      <trkpt lat="59.42164996638894" lon="13.908114982768893">
        <ele>74.51</ele>
        <time>2025-02-20T15:49:36.877Z</time>
      </trkpt>
      <trkpt lat="59.42157092504203" lon="13.907998977229">
        <ele>74.37</ele>
        <time>2025-02-20T15:50:38.705Z</time>
      </trkpt>
      <trkpt lat="59.42149599082768" lon="13.907877942547202">
        <ele>74.24</ele>
        <time>2025-02-20T15:51:40.535Z</time>
      </trkpt>
      <trkpt lat="59.421421978622675" lon="13.907754980027676">
        <ele>74.1</ele>
        <time>2025-02-20T15:52:42.366Z</time>
      </trkpt>
      <trkpt lat="59.42134897224605" lon="13.907629922032356">
        <ele>73.97</ele>
        <time>2025-02-20T15:53:44.199Z</time>
      </trkpt>
      <trkpt lat="59.421273954212666" lon="13.907508971169591">
        <ele>73.84</ele>
        <time>2025-02-20T15:54:46.033Z</time>
      </trkpt>
      <trkpt lat="59.42120094783604" lon="13.907385924831033">
        <ele>73.72</ele>
        <time>2025-02-20T15:55:47.869Z</time>
      </trkpt>
      <trkpt lat="59.421124923974276" lon="13.907261956483126">
        <ele>73.59</ele>
        <time>2025-02-20T15:56:49.706Z</time>
      </trkpt>
      <trkpt lat="59.4210509955883" lon="13.907137988135219">
        <ele>73.46</ele>
        <time>2025-02-20T15:57:51.545Z</time>
      </trkpt>
      <trkpt lat="59.42097899504006" lon="13.90701393596828">
        <ele>73.34</ele>
        <time>2025-02-20T15:58:53.386Z</time>
      </trkpt>
      <trkpt lat="59.420905988663435" lon="13.906886950135231">
        <ele>73.21</ele>
        <time>2025-02-20T15:59:55.228Z</time>
      </trkpt>
      <trkpt lat="59.42083599977195" lon="13.906763987615705">
        <ele>73.08</ele>
        <time>2025-02-20T16:00:57.072Z</time>
      </trkpt>
      <trkpt lat="59.42076492123306" lon="13.906642952933908">
        <ele>72.95</ele>
        <time>2025-02-20T16:01:58.917Z</time>
      </trkpt>
      <trkpt lat="59.420693926513195" lon="13.906524935737252">
        <ele>72.83</ele>
        <time>2025-02-20T16:03:00.764Z</time>
      </trkpt>
      <trkpt lat="59.42063097842038" lon="13.906404990702868">
        <ele>72.7</ele>
        <time>2025-02-20T16:04:02.612Z</time>
      </trkpt>
      <trkpt lat="59.42056794650853" lon="13.906285967677832">
        <ele>72.58</ele>
        <time>2025-02-20T16:05:04.461Z</time>
      </trkpt>
      <trkpt lat="59.420500975102186" lon="13.906167950481176">
        <ele>72.45</ele>
        <time>2025-02-20T16:06:06.312Z</time>
      </trkpt>
      <trkpt lat="59.420433919876814" lon="13.906051944941282">
        <ele>72.33</ele>
        <time>2025-02-20T16:07:08.164Z</time>
      </trkpt>
      <trkpt lat="59.420368960127234" lon="13.905935939401388">
        <ele>72.21</ele>
        <time>2025-02-20T16:08:10.018Z</time>
      </trkpt>
      <trkpt lat="59.420304922387004" lon="13.905817922204733">
        <ele>72.1</ele>
        <time>2025-02-20T16:09:11.873Z</time>
      </trkpt>
      <trkpt lat="59.420238956809044" lon="13.90570099465549">
        <ele>71.98</ele>
        <time>2025-02-20T16:10:13.730Z</time>
      </trkpt>
      <trkpt lat="59.4201719854027" lon="13.905584989115596">
        <ele>71.87</ele>
        <time>2025-02-20T16:11:15.588Z</time>
      </trkpt>
      <trkpt lat="59.42010694183409" lon="13.905469989404082">
        <ele>71.76</ele>
        <time>2025-02-20T16:12:17.447Z</time>
      </trkpt>
      <trkpt lat="59.42004097625613" lon="13.905354989692569">
        <ele>71.65</ele>
        <time>2025-02-20T16:13:19.308Z</time>
      </trkpt>
      <trkpt lat="59.41997392103076" lon="13.905241917818785">
        <ele>71.54</ele>
        <time>2025-02-20T16:14:21.170Z</time>
      </trkpt>
      <trkpt lat="59.41990694962442" lon="13.905128929764032">
        <ele>71.43</ele>
        <time>2025-02-20T16:15:23.034Z</time>
      </trkpt>
      <trkpt lat="59.41984098404646" lon="13.90501594170928">
        <ele>71.32</ele>
        <time>2025-02-20T16:16:24.899Z</time>
      </trkpt>
      <trkpt lat="59.41977594047785" lon="13.904901947826147">
        <ele>71.22</ele>
        <time>2025-02-20T16:17:26.765Z</time>
      </trkpt>
      <trkpt lat="59.41971299238503" lon="13.904787953943014">
        <ele>71.11</ele>
        <time>2025-02-20T16:18:28.633Z</time>
      </trkpt>
      <trkpt lat="59.41964694298804" lon="13.904673960059881">
        <ele>71.0</ele>
        <time>2025-02-20T16:19:30.502Z</time>
      </trkpt>
      <trkpt lat="59.4195799715817" lon="13.904557954519987">
        <ele>70.9</ele>
        <time>2025-02-20T16:20:32.373Z</time>
      </trkpt>
      <trkpt lat="59.419513922184706" lon="13.904440943151712">
        <ele>70.79</ele>
        <time>2025-02-20T16:21:34.245Z</time>
      </trkpt>
      <trkpt lat="59.419448962435126" lon="13.904325943440199">
        <ele>70.68</ele>
        <time>2025-02-20T16:22:36.119Z</time>
      </trkpt>
      <trkpt lat="59.419382996857166" lon="13.904212955385447">
        <ele>70.58</ele>
        <time>2025-02-20T16:23:37.994Z</time>
      </trkpt>
      <trkpt lat="59.419316947460175" lon="13.904100973159075">
        <ele>70.48</ele>
        <time>2025-02-20T16:24:39.870Z</time>
      </trkpt>
      <trkpt lat="59.419250981882215" lon="13.90398496761918">
        <ele>70.38</ele>
        <time>2025-02-20T16:25:41.748Z</time>
      </trkpt>
      <trkpt lat="59.41918493248522" lon="13.903863932937384">
        <ele>70.28</ele>
        <time>2025-02-20T16:26:43.627Z</time>
      </trkpt>
      <trkpt lat="59.4191169552505" lon="13.903741976246238">
        <ele>70.19</ele>
        <time>2025-02-20T16:27:45.508Z</time>
      </trkpt>
      <trkpt lat="59.41904696635902" lon="13.903621947392821">
        <ele>70.1</ele>
        <time>2025-02-20T16:28:47.390Z</time>
      </trkpt>
      <trkpt lat="59.41897697746754" lon="13.903499990701675">
        <ele>70.0</ele>
        <time>2025-02-20T16:29:49.274Z</time>
      </trkpt>
      <trkpt lat="59.418907994404435" lon="13.903374932706356">
        <ele>69.91</ele>
        <time>2025-02-20T16:30:51.159Z</time>
      </trkpt>
      <trkpt lat="59.41883993335068" lon="13.903249958530068">
        <ele>69.82</ele>
        <time>2025-02-20T16:31:53.046Z</time>
      </trkpt>
      <trkpt lat="59.41877095028758" lon="13.903126996010542">
        <ele>69.74</ele>
        <time>2025-02-20T16:32:54.934Z</time>
      </trkpt>
      <trkpt lat="59.41869995556772" lon="13.903006967157125">
        <ele>69.65</ele>
        <time>2025-02-20T16:33:56.824Z</time>
      </trkpt>
      <trkpt lat="59.418628960847855" lon="13.902891967445612">
        <ele>69.57</ele>
        <time>2025-02-20T16:34:58.715Z</time>
      </trkpt>
      <trkpt lat="59.41855997778475" lon="13.902770932763815">
        <ele>69.49</ele>
        <time>2025-02-20T16:36:00.608Z</time>
      </trkpt>
      <trkpt lat="59.41848998889327" lon="13.902646964415908">
        <ele>69.41</ele>
        <time>2025-02-20T16:37:02.502Z</time>
      </trkpt>
      <trkpt lat="59.41842192783952" lon="13.90252492390573">
        <ele>69.33</ele>
        <time>2025-02-20T16:38:04.398Z</time>
      </trkpt>
      <trkpt lat="59.418353950604796" lon="13.902401961386204">
        <ele>69.26</ele>
        <time>2025-02-20T16:39:06.295Z</time>
      </trkpt>
      <trkpt lat="59.418284967541695" lon="13.902281932532787">
        <ele>69.18</ele>
        <time>2025-02-20T16:40:08.194Z</time>
      </trkpt>
      <trkpt lat="59.41821598447859" lon="13.902163999155164">
        <ele>69.11</ele>
        <time>2025-02-20T16:41:10.094Z</time>
      </trkpt>
      <trkpt lat="59.41814792342484" lon="13.902044976130128">
        <ele>69.04</ele>
        <time>2025-02-20T16:42:11.996Z</time>
      </trkpt>
      <trkpt lat="59.41807994619012" lon="13.901924947276711">
        <ele>68.97</ele>
        <time>2025-02-20T16:43:13.899Z</time>
      </trkpt>
      <trkpt lat="59.4180119689554" lon="13.901806930080056">
        <ele>68.91</ele>
        <time>2025-02-20T16:44:15.803Z</time>
      </trkpt>
      <trkpt lat="59.417942985892296" lon="13.901688996702433">
        <ele>68.85</ele>
        <time>2025-02-20T16:45:17.709Z</time>
      </trkpt>
      <trkpt lat="59.41787391901016" lon="13.901572991162539">
        <ele>68.78</ele>
        <time>2025-02-20T16:46:19.616Z</time>
      </trkpt>
      <trkpt lat="59.41780694760382" lon="13.901452962309122">
        <ele>68.71</ele>
        <time>2025-02-20T16:47:21.525Z</time>
      </trkpt>
      <trkpt lat="59.41774098202586" lon="13.901327988132834">
        <ele>68.65</ele>
        <time>2025-02-20T16:48:23.435Z</time>
      </trkpt>
      <trkpt lat="59.41767493262887" lon="13.901207959279418">
        <ele>68.58</ele>
        <time>2025-02-20T16:49:25.347Z</time>
      </trkpt>
      <trkpt lat="59.41760695539415" lon="13.901091953739524">
        <ele>68.51</ele>
        <time>2025-02-20T16:50:27.260Z</time>
      </trkpt>
      <trkpt lat="59.41753797233105" lon="13.90097494237125">
        <ele>68.45</ele>
        <time>2025-02-20T16:51:29.175Z</time>
      </trkpt>
      <trkpt lat="59.417470917105675" lon="13.900855919346213">
        <ele>68.39</ele>
        <time>2025-02-20T16:52:31.091Z</time>
      </trkpt>
      <trkpt lat="59.417403945699334" lon="13.90073798596859">
        <ele>68.33</ele>
        <time>2025-02-20T16:53:33.009Z</time>
      </trkpt>
      <trkpt lat="59.41733596846461" lon="13.900619968771935">
        <ele>68.28</ele>
        <time>2025-02-20T16:54:34.928Z</time>
      </trkpt>
      <trkpt lat="59.41726799122989" lon="13.900499939918518">
        <ele>68.23</ele>
        <time>2025-02-20T16:55:36.848Z</time>
      </trkpt>
      <trkpt lat="59.41720093600452" lon="13.900378989055753">
        <ele>68.17</ele>
        <time>2025-02-20T16:56:38.770Z</time>
      </trkpt>
      <trkpt lat="59.41713497042656" lon="13.900258960202336">
        <ele>68.12</ele>
        <time>2025-02-20T16:57:40.693Z</time>
      </trkpt>
      <trkpt lat="59.41706892102957" lon="13.900140943005681">
        <ele>68.07</ele>
        <time>2025-02-20T16:58:42.618Z</time>
      </trkpt>
      <trkpt lat="59.41700396127999" lon="13.900020997971296">
        <ele>68.01</ele>
        <time>2025-02-20T16:59:44.544Z</time>
      </trkpt>
      <trkpt lat="59.41694092936814" lon="13.899903986603022">
        <ele>67.96</ele>
        <time>2025-02-20T17:00:46.472Z</time>
      </trkpt>
      <trkpt lat="59.41687999293208" lon="13.899783957749605">
        <ele>67.91</ele>
        <time>2025-02-20T17:01:48.401Z</time>
      </trkpt>
      <trkpt lat="59.41681997850537" lon="13.899659989401698">
        <ele>67.85</ele>
        <time>2025-02-20T17:02:50.331Z</time>
      </trkpt>
      <trkpt lat="59.416761975735426" lon="13.899534931406379">
        <ele>67.8</ele>
        <time>2025-02-20T17:03:52.263Z</time>
      </trkpt>
      <trkpt lat="59.41670397296548" lon="13.899409957230091">
        <ele>67.75</ele>
        <time>2025-02-20T17:04:54.196Z</time>
      </trkpt>
      <trkpt lat="59.41664697602391" lon="13.89927894808352">
        <ele>67.7</ele>
        <time>2025-02-20T17:05:56.131Z</time>
      </trkpt>
      <trkpt lat="59.416586961597204" lon="13.899141987785697">
        <ele>67.65</ele>
        <time>2025-02-20T17:06:58.067Z</time>
      </trkpt>
      <trkpt lat="59.416522923856974" lon="13.898999998345971">
        <ele>67.6</ele>
        <time>2025-02-20T17:08:00.005Z</time>
      </trkpt>
      <trkpt lat="59.41645293496549" lon="13.89887192286551">
        <ele>67.56</ele>
        <time>2025-02-20T17:09:01.944Z</time>
      </trkpt>
      <trkpt lat="59.41638898104429" lon="13.898757928982377">
        <ele>67.51</ele>
        <time>2025-02-20T17:10:03.885Z</time>
      </trkpt>
      <trkpt lat="59.41631798632443" lon="13.89863496646285">
        <ele>67.46</ele>
        <time>2025-02-20T17:11:05.827Z</time>
      </trkpt>
      <trkpt lat="59.4162399508059" lon="13.898498928174376">
        <ele>67.42</ele>
        <time>2025-02-20T17:12:07.771Z</time>
      </trkpt>
      <trkpt lat="59.41617691889405" lon="13.898382922634482">
        <ele>67.37</ele>
        <time>2025-02-20T17:13:09.716Z</time>
      </trkpt>
      <trkpt lat="59.41613199189305" lon="13.898244956508279">
        <ele>67.32</ele>
        <time>2025-02-20T17:14:11.662Z</time>
      </trkpt>
      <trkpt lat="59.416069965809584" lon="13.898099949583411">
        <ele>67.28</ele>
        <time>2025-02-20T17:15:13.610Z</time>
      </trkpt>
      <trkpt lat="59.416007939726114" lon="13.897971957921982">
        <ele>67.22</ele>
        <time>2025-02-20T17:16:15.559Z</time>
      </trkpt>
      <trkpt lat="59.41593694500625" lon="13.897871961817145">
        <ele>67.17</ele>
        <time>2025-02-20T17:17:17.510Z</time>
      </trkpt>
      <trkpt lat="59.41585999913514" lon="13.897759979590774">
        <ele>67.12</ele>
        <time>2025-02-20T17:18:19.462Z</time>
      </trkpt>
      <trkpt lat="59.41578498110175" lon="13.897642968222499">
        <ele>67.07</ele>
        <time>2025-02-20T17:19:21.416Z</time>
      </trkpt>
      <trkpt lat="59.4157029222697" lon="13.897527968510985">
        <ele>67.02</ele>
        <time>2025-02-20T17:20:23.372Z</time>
      </trkpt>
      <trkpt lat="59.41562698222697" lon="13.897401988506317">
        <ele>66.98</ele>
        <time>2025-02-20T17:21:25.329Z</time>
      </trkpt>
      <trkpt lat="59.41556596197188" lon="13.897276930510998">
        <ele>66.93</ele>
        <time>2025-02-20T17:22:27.288Z</time>
      </trkpt>
      <trkpt lat="59.415493961423635" lon="13.897154973819852">
        <ele>66.88</ele>
        <time>2025-02-20T17:23:29.248Z</time>
      </trkpt>
      <trkpt lat="59.41542095504701" lon="13.8970229588449">
        <ele>66.83</ele>
        <time>2025-02-20T17:24:31.210Z</time>
      </trkpt>
      <trkpt lat="59.41535498946905" lon="13.896878957748413">
        <ele>66.78</ele>
        <time>2025-02-20T17:25:33.173Z</time>
      </trkpt>
      <trkpt lat="59.415298998355865" lon="13.89674099162221">
        <ele>66.73</ele>
        <time>2025-02-20T17:26:35.138Z</time>
      </trkpt>
      <trkpt lat="59.41523998975754" lon="13.896601935848594">
        <ele>66.68</ele>
        <time>2025-02-20T17:27:37.104Z</time>
      </trkpt>
      <trkpt lat="59.41518793813884" lon="13.896490959450603">
        <ele>66.63</ele>
        <time>2025-02-20T17:28:39.071Z</time>
      </trkpt>
      <trkpt lat="59.415124990046024" lon="13.896394986659288">
        <ele>66.58</ele>
        <time>2025-02-20T17:29:41.040Z</time>
      </trkpt>
      <trkpt lat="59.41507293842733" lon="13.896286943927407">
        <ele>66.52</ele>
        <time>2025-02-20T17:30:43.010Z</time>
      </trkpt>
      <trkpt lat="59.415013929829" lon="13.896175967529416">
        <ele>66.47</ele>
        <time>2025-02-20T17:31:44.981Z</time>
      </trkpt>
      <trkpt lat="59.41494595259428" lon="13.896061973646283">
        <ele>66.41</ele>
        <time>2025-02-20T17:32:46.954Z</time>
      </trkpt>
      <trkpt lat="59.41487998701632" lon="13.89594697393477">
        <ele>66.34</ele>
        <time>2025-02-20T17:33:48.928Z</time>
      </trkpt>
      <trkpt lat="59.414826929569244" lon="13.89582292176783">
        <ele>66.27</ele>
        <time>2025-02-20T17:34:50.903Z</time>
      </trkpt>
      <trkpt lat="59.414762975648046" lon="13.895698953419924">
        <ele>66.19</ele>
        <time>2025-02-20T17:35:52.880Z</time>
      </trkpt>
      <trkpt lat="59.414700949564576" lon="13.895572973415256">
        <ele>66.11</ele>
        <time>2025-02-20T17:36:54.858Z</time>
      </trkpt>
      <trkpt lat="59.41464093513787" lon="13.895449927076697">
        <ele>66.02</ele>
        <time>2025-02-20T17:37:56.838Z</time>
      </trkpt>
      <trkpt lat="59.41458594985306" lon="13.89532696455717">
        <ele>65.94</ele>
        <time>2025-02-20T17:38:58.819Z</time>
      </trkpt>
      <trkpt lat="59.41452995873988" lon="13.895204924046993">
        <ele>65.86</ele>
        <time>2025-02-20T17:40:00.801Z</time>
      </trkpt>
      <trkpt lat="59.414485953748226" lon="13.895076932385564">
        <ele>65.77</ele>
        <time>2025-02-20T17:41:02.785Z</time>
      </trkpt>
      <trkpt lat="59.414435997605324" lon="13.894952964037657">
        <ele>65.69</ele>
        <time>2025-02-20T17:42:04.770Z</time>
      </trkpt>
      <trkpt lat="59.41438897512853" lon="13.89483192935586">
        <ele>65.6</ele>
        <time>2025-02-20T17:43:06.756Z</time>
      </trkpt>
      <trkpt lat="59.414349999278784" lon="13.894713995978236">
        <ele>65.52</ele>
        <time>2025-02-20T17:44:08.743Z</time>
      </trkpt>
      <trkpt lat="59.41430398263037" lon="13.894587932154536">
        <ele>65.44</ele>
        <time>2025-02-20T17:45:10.732Z</time>
      </trkpt>
      <trkpt lat="59.41425293684006" lon="13.894457928836346">
        <ele>65.35</ele>
        <time>2025-02-20T17:46:12.722Z</time>
      </trkpt>
      <trkpt lat="59.414206920191646" lon="13.894325997680426">
        <ele>65.27</ele>
        <time>2025-02-20T17:47:14.713Z</time>
      </trkpt>
      <trkpt lat="59.414159981533885" lon="13.894192976877093">
        <ele>65.18</ele>
        <time>2025-02-20T17:48:16.706Z</time>
      </trkpt>
      <trkpt lat="59.414115976542234" lon="13.894057944417">
        <ele>65.08</ele>
        <time>2025-02-20T17:49:18.700Z</time>
      </trkpt>
      <trkpt lat="59.4140709657222" lon="13.893921989947557">
        <ele>64.98</ele>
        <time>2025-02-20T17:50:20.695Z</time>
      </trkpt>
      <trkpt lat="59.41404892131686" lon="13.893781928345561">
        <ele>64.89</ele>
        <time>2025-02-20T17:51:22.691Z</time>
      </trkpt>
      <trkpt lat="59.414009945467114" lon="13.893644968047738">
        <ele>64.79</ele>
        <time>2025-02-20T17:52:24.689Z</time>
      </trkpt>
      <trkpt lat="59.413967952132225" lon="13.893504990264773">
        <ele>64.69</ele>
        <time>2025-02-20T17:53:26.688Z</time>
      </trkpt>
      <trkpt lat="59.41392897628248" lon="13.893362917006016">
        <ele>64.59</ele>
        <time>2025-02-20T17:54:28.688Z</time>
      </trkpt>
      <trkpt lat="59.41388698294759" lon="13.893212964758277">
        <ele>64.49</ele>
        <time>2025-02-20T17:55:30.690Z</time>
      </trkpt>
      <trkpt lat="59.41384197212756" lon="13.89306996949017">
        <ele>64.38</ele>
        <time>2025-02-20T17:56:32.693Z</time>
      </trkpt>
      <trkpt lat="59.41380199044943" lon="13.892921945080161">
        <ele>64.27</ele>
        <time>2025-02-20T17:57:34.697Z</time>
      </trkpt>
      <trkpt lat="59.41376091912389" lon="13.892788924276829">
        <ele>64.17</ele>
        <time>2025-02-20T17:58:36.703Z</time>
      </trkpt>
      <trkpt lat="59.41372194327414" lon="13.892658920958638">
        <ele>64.06</ele>
        <time>2025-02-20T17:59:38.710Z</time>
      </trkpt>
      <trkpt lat="59.41368397325277" lon="13.892524978145957">
        <ele>63.95</ele>
        <time>2025-02-20T18:00:40.718Z</time>
      </trkpt>
      <trkpt lat="59.413645919412374" lon="13.892385922372341">
        <ele>63.84</ele>
        <time>2025-02-20T18:01:42.727Z</time>
      </trkpt>
      <trkpt lat="59.413603926077485" lon="13.892234964296222">
        <ele>63.73</ele>
        <time>2025-02-20T18:02:44.738Z</time>
      </trkpt>
      <trkpt lat="59.413560926914215" lon="13.8920789770782">
        <ele>63.61</ele>
        <time>2025-02-20T18:03:46.750Z</time>
      </trkpt>
      <trkpt lat="59.413519939407706" lon="13.891924917697906">
        <ele>63.49</ele>
        <time>2025-02-20T18:04:48.764Z</time>
      </trkpt>
      <trkpt lat="59.413471994921565" lon="13.891766918823123">
        <ele>63.37</ele>
        <time>2025-02-20T18:05:50.779Z</time>
      </trkpt>
      <trkpt lat="59.413427989929914" lon="13.891602968797088">
        <ele>63.26</ele>
        <time>2025-02-20T18:06:52.796Z</time>
      </trkpt>
      <trkpt lat="59.413388930261135" lon="13.891432983800769">
        <ele>63.13</ele>
        <time>2025-02-20T18:07:54.814Z</time>
      </trkpt>
      <trkpt lat="59.41335992887616" lon="13.891253946349025">
        <ele>63.01</ele>
        <time>2025-02-20T18:08:56.834Z</time>
      </trkpt>
      <trkpt lat="59.413340985774994" lon="13.891068957746029">
        <ele>62.89</ele>
        <time>2025-02-20T18:09:58.855Z</time>
      </trkpt>
      <trkpt lat="59.4133269879967" lon="13.890875922515988">
        <ele>62.77</ele>
        <time>2025-02-20T18:11:00.878Z</time>
      </trkpt>
      <trkpt lat="59.41331399604678" lon="13.890677941963077">
        <ele>62.66</ele>
        <time>2025-02-20T18:12:02.903Z</time>
      </trkpt>
      <trkpt lat="59.413303937762976" lon="13.890477949753404">
        <ele>62.53</ele>
        <time>2025-02-20T18:13:04.929Z</time>
      </trkpt>
      <trkpt lat="59.41329698078334" lon="13.89027695171535">
        <ele>62.41</ele>
        <time>2025-02-20T18:14:06.957Z</time>
      </trkpt>
      <trkpt lat="59.41329597495496" lon="13.890076959505677">
        <ele>62.28</ele>
        <time>2025-02-20T18:15:08.987Z</time>
      </trkpt>
      <trkpt lat="59.41329295746982" lon="13.889877973124385">
        <ele>62.15</ele>
        <time>2025-02-20T18:16:11.018Z</time>
      </trkpt>
      <trkpt lat="59.41328792832792" lon="13.889670940116048">
        <ele>62.03</ele>
        <time>2025-02-20T18:17:13.051Z</time>
      </trkpt>
      <trkpt lat="59.41328298300505" lon="13.88945996761322">
        <ele>61.9</ele>
        <time>2025-02-20T18:18:15.086Z</time>
      </trkpt>
      <trkpt lat="59.413274936378" lon="13.889250922948122">
        <ele>61.76</ele>
        <time>2025-02-20T18:19:17.122Z</time>
      </trkpt>
      <trkpt lat="59.41326999105513" lon="13.889039950445294">
        <ele>61.62</ele>
        <time>2025-02-20T18:20:19.160Z</time>
      </trkpt>
      <trkpt lat="59.41326596774161" lon="13.888827972114086">
        <ele>61.47</ele>
        <time>2025-02-20T18:21:21.200Z</time>
      </trkpt>
      <trkpt lat="59.41326295025647" lon="13.888610964640975">
        <ele>61.33</ele>
        <time>2025-02-20T18:22:23.242Z</time>
      </trkpt>
      <trkpt lat="59.413260938599706" lon="13.888393957167864">
        <ele>61.19</ele>
        <time>2025-02-20T18:23:25.285Z</time>
      </trkpt>
      <trkpt lat="59.413259932771325" lon="13.88817292638123">
        <ele>61.05</ele>
        <time>2025-02-20T18:24:27.330Z</time>
      </trkpt>
      <trkpt lat="59.41325398162007" lon="13.88795499689877">
        <ele>60.92</ele>
        <time>2025-02-20T18:25:29.377Z</time>
      </trkpt>
      <trkpt lat="59.41324895247817" lon="13.88773798942566">
        <ele>60.79</ele>
        <time>2025-02-20T18:26:31.426Z</time>
      </trkpt>
      <trkpt lat="59.41324199549854" lon="13.887518970295787">
        <ele>60.66</ele>
        <time>2025-02-20T18:27:33.476Z</time>
      </trkpt>
      <trkpt lat="59.41323394887149" lon="13.887295927852392">
        <ele>60.52</ele>
        <time>2025-02-20T18:28:35.528Z</time>
      </trkpt>
      <trkpt lat="59.4132249802351" lon="13.88707498088479">
        <ele>60.39</ele>
        <time>2025-02-20T18:29:37.582Z</time>
      </trkpt>
      <trkpt lat="59.413215927779675" lon="13.886854955926538">
        <ele>60.26</ele>
        <time>2025-02-20T18:30:39.638Z</time>
      </trkpt>
      <trkpt lat="59.41320796497166" lon="13.886633925139904">
        <ele>60.13</ele>
        <time>2025-02-20T18:31:41.696Z</time>
      </trkpt>
      <trkpt lat="59.413195978850126" lon="13.886418929323554">
        <ele>60.0</ele>
        <time>2025-02-20T18:32:43.755Z</time>
      </trkpt>
      <trkpt lat="59.41318592056632" lon="13.886207956820726">
        <ele>59.87</ele>
        <time>2025-02-20T18:33:45.816Z</time>
      </trkpt>
      <trkpt lat="59.41317695192993" lon="13.88599899597466">
        <ele>59.74</ele>
        <time>2025-02-20T18:34:47.879Z</time>
      </trkpt>
      <trkpt lat="59.41316395998001" lon="13.885792968794703">
        <ele>59.61</ele>
        <time>2025-02-20T18:35:49.944Z</time>
      </trkpt>
      <trkpt lat="59.413152979686856" lon="13.885589959099889">
        <ele>59.48</ele>
        <time>2025-02-20T18:36:52.010Z</time>
      </trkpt>
      <trkpt lat="59.41313898190856" lon="13.885389966890216">
        <ele>59.36</ele>
        <time>2025-02-20T18:37:54.078Z</time>
      </trkpt>
      <trkpt lat="59.41312196664512" lon="13.885191986337304">
        <ele>59.24</ele>
        <time>2025-02-20T18:38:56.148Z</time>
      </trkpt>
      <trkpt lat="59.413107968866825" lon="13.884992999956012">
        <ele>59.11</ele>
        <time>2025-02-20T18:39:58.219Z</time>
      </trkpt>
      <trkpt lat="59.41309296526015" lon="13.884787978604436">
        <ele>58.99</ele>
        <time>2025-02-20T18:41:00.292Z</time>
      </trkpt>
      <trkpt lat="59.41307796165347" lon="13.88458396308124">
        <ele>58.87</ele>
        <time>2025-02-20T18:42:02.367Z</time>
      </trkpt>
      <trkpt lat="59.41306094639003" lon="13.884377935901284">
        <ele>58.75</ele>
        <time>2025-02-20T18:43:04.443Z</time>
      </trkpt>
      <trkpt lat="59.413044936954975" lon="13.884166963398457">
        <ele>58.63</ele>
        <time>2025-02-20T18:44:06.521Z</time>
      </trkpt>
      <trkpt lat="59.41303093917668" lon="13.883957918733358">
        <ele>58.52</ele>
        <time>2025-02-20T18:45:08.601Z</time>
      </trkpt>
      <trkpt lat="59.413019958883524" lon="13.883750969544053">
        <ele>58.41</ele>
        <time>2025-02-20T18:46:10.682Z</time>
      </trkpt>
      <trkpt lat="59.41301199607551" lon="13.883537985384464">
        <ele>58.3</ele>
        <time>2025-02-20T18:47:12.765Z</time>
      </trkpt>
      <trkpt lat="59.41300495527685" lon="13.883325923234224">
        <ele>58.19</ele>
        <time>2025-02-20T18:48:14.850Z</time>
      </trkpt>
      <trkpt lat="59.412999926134944" lon="13.883113944903016">
        <ele>58.08</ele>
        <time>2025-02-20T18:49:16.937Z</time>
      </trkpt>
      <trkpt lat="59.412997998297215" lon="13.88290498405695">
        <ele>57.98</ele>
        <time>2025-02-20T18:50:19.025Z</time>
      </trkpt>
      <trkpt lat="59.41299892030656" lon="13.882702980190516">
        <ele>57.88</ele>
        <time>2025-02-20T18:51:21.115Z</time>
      </trkpt>
      <trkpt lat="59.412999926134944" lon="13.88249795883894">
        <ele>57.78</ele>
        <time>2025-02-20T18:52:23.207Z</time>
      </trkpt>
      <trkpt lat="59.412997998297215" lon="13.882291931658983">
        <ele>57.68</ele>
        <time>2025-02-20T18:53:25.300Z</time>
      </trkpt>
      <trkpt lat="59.41299598664045" lon="13.88208799995482">
        <ele>57.58</ele>
        <time>2025-02-20T18:54:27.395Z</time>
      </trkpt>
      <trkpt lat="59.41299296915531" lon="13.881887923926115">
        <ele>57.48</ele>
        <time>2025-02-20T18:55:29.492Z</time>
      </trkpt>
      <trkpt lat="59.41298995167017" lon="13.881685920059681">
        <ele>57.39</ele>
        <time>2025-02-20T18:56:31.590Z</time>
      </trkpt>
      <trkpt lat="59.41298894584179" lon="13.881486933678389">
        <ele>57.28</ele>
        <time>2025-02-20T18:57:33.690Z</time>
      </trkpt>
      <trkpt lat="59.41298693418503" lon="13.881284929811954">
        <ele>57.2</ele>
        <time>2025-02-20T18:58:35.792Z</time>
      </trkpt>
      <trkpt lat="59.41298198886216" lon="13.881086949259043">
        <ele>57.1</ele>
        <time>2025-02-20T18:59:37.895Z</time>
      </trkpt>
      <trkpt lat="59.412978971377015" lon="13.88088595122099">
        <ele>57.01</ele>
        <time>2025-02-20T19:00:40.000Z</time>
      </trkpt>
      <trkpt lat="59.41297595389187" lon="13.880685959011316">
        <ele>56.93</ele>
        <time>2025-02-20T19:01:42.107Z</time>
      </trkpt>
      <trkpt lat="59.41297394223511" lon="13.880487978458405">
        <ele>56.84</ele>
        <time>2025-02-20T19:02:44.215Z</time>
      </trkpt>
      <trkpt lat="59.41297494806349" lon="13.880291925743222">
        <ele>56.76</ele>
        <time>2025-02-20T19:03:46.325Z</time>
      </trkpt>
      <trkpt lat="59.41297494806349" lon="13.880097968503833">
        <ele>56.69</ele>
        <time>2025-02-20T19:04:48.436Z</time>
      </trkpt>
      <trkpt lat="59.41297595389187" lon="13.879905939102173">
        <ele>56.62</ele>
        <time>2025-02-20T19:05:50.549Z</time>
      </trkpt>
      <trkpt lat="59.412977965548635" lon="13.879715921357274">
        <ele>56.55</ele>
        <time>2025-02-20T19:06:52.664Z</time>
      </trkpt>
      <trkpt lat="59.412980983033776" lon="13.87953294441104">
        <ele>56.48</ele>
        <time>2025-02-20T19:07:54.780Z</time>
      </trkpt>
      <trkpt lat="59.412983916699886" lon="13.879346949979663">
        <ele>56.41</ele>
        <time>2025-02-20T19:08:56.898Z</time>
      </trkpt>
      <trkpt lat="59.41298693418503" lon="13.879156932234764">
        <ele>56.34</ele>
        <time>2025-02-20T19:09:59.017Z</time>
      </trkpt>
      <trkpt lat="59.41298894584179" lon="13.878964986652136">
        <ele>56.28</ele>
        <time>2025-02-20T19:11:01.138Z</time>
      </trkpt>
      <trkpt lat="59.41298995167017" lon="13.87878293171525">
        <ele>56.22</ele>
        <time>2025-02-20T19:12:03.260Z</time>
      </trkpt>
      <trkpt lat="59.41299296915531" lon="13.878600960597396">
        <ele>56.16</ele>
        <time>2025-02-20T19:13:05.384Z</time>
      </trkpt>
      <trkpt lat="59.41299498081207" lon="13.878423934802413">
        <ele>56.1</ele>
        <time>2025-02-20T19:14:07.509Z</time>
      </trkpt>
      <trkpt lat="59.41299498081207" lon="13.878246992826462">
        <ele>56.04</ele>
        <time>2025-02-20T19:15:09.636Z</time>
      </trkpt>
      <trkpt lat="59.412997998297215" lon="13.87807097285986">
        <ele>55.99</ele>
        <time>2025-02-20T19:16:11.764Z</time>
      </trkpt>
      <trkpt lat="59.413000931963325" lon="13.877889923751354">
        <ele>55.94</ele>
        <time>2025-02-20T19:17:13.893Z</time>
      </trkpt>
      <trkpt lat="59.413003949448466" lon="13.877712981775403">
        <ele>55.88</ele>
        <time>2025-02-20T19:18:16.024Z</time>
      </trkpt>
      <trkpt lat="59.41300495527685" lon="13.87753595598042">
        <ele>55.84</ele>
        <time>2025-02-20T19:19:18.156Z</time>
      </trkpt>
      <trkpt lat="59.41300596110523" lon="13.877350967377424">
        <ele>55.79</ele>
        <time>2025-02-20T19:20:20.290Z</time>
      </trkpt>
      <trkpt lat="59.41300897859037" lon="13.877164972946048">
        <ele>55.74</ele>
        <time>2025-02-20T19:21:22.425Z</time>
      </trkpt>
      <trkpt lat="59.41301199607551" lon="13.876981995999813">
        <ele>55.69</ele>
        <time>2025-02-20T19:22:24.562Z</time>
      </trkpt>
      <trkpt lat="59.41301392391324" lon="13.87680396437645">
        <ele>55.65</ele>
        <time>2025-02-20T19:23:26.700Z</time>
      </trkpt>
      <trkpt lat="59.41301492974162" lon="13.876626938581467">
        <ele>55.61</ele>
        <time>2025-02-20T19:24:28.840Z</time>
      </trkpt>
      <trkpt lat="59.41301694139838" lon="13.876449996605515">
        <ele>55.57</ele>
        <time>2025-02-20T19:25:30.981Z</time>
      </trkpt>
      <trkpt lat="59.41301794722676" lon="13.876274982467294">
        <ele>55.54</ele>
        <time>2025-02-20T19:26:33.124Z</time>
      </trkpt>
      <trkpt lat="59.413020964711905" lon="13.876101979985833">
        <ele>55.51</ele>
        <time>2025-02-20T19:27:35.268Z</time>
      </trkpt>
      <trkpt lat="59.413022976368666" lon="13.875930989161134">
        <ele>55.48</ele>
        <time>2025-02-20T19:28:37.413Z</time>
      </trkpt>
      <trkpt lat="59.41302498802543" lon="13.875761926174164">
        <ele>55.45</ele>
        <time>2025-02-20T19:29:39.560Z</time>
      </trkpt>
      <trkpt lat="59.4130299333483" lon="13.875594958662987">
        <ele>55.42</ele>
        <time>2025-02-20T19:30:41.708Z</time>
      </trkpt>
      <trkpt lat="59.4130349624902" lon="13.875432936474681">
        <ele>55.4</ele>
        <time>2025-02-20T19:31:43.858Z</time>
      </trkpt>
      <trkpt lat="59.41303898580372" lon="13.875270998105407">
        <ele>55.38</ele>
        <time>2025-02-20T19:32:46.009Z</time>
      </trkpt>
      <trkpt lat="59.413042925298214" lon="13.875110987573862">
        <ele>55.35</ele>
        <time>2025-02-20T19:33:48.161Z</time>
      </trkpt>
      <trkpt lat="59.41304996609688" lon="13.874951982870698">
        <ele>55.33</ele>
        <time>2025-02-20T19:34:50.314Z</time>
      </trkpt>
      <trkpt lat="59.41305692307651" lon="13.874793983995914">
        <ele>55.31</ele>
        <time>2025-02-20T19:35:52.469Z</time>
      </trkpt>
      <trkpt lat="59.413065975531936" lon="13.874638918787241">
        <ele>55.29</ele>
        <time>2025-02-20T19:36:54.625Z</time>
      </trkpt>
      <trkpt lat="59.41307896748185" lon="13.8744839373976">
        <ele>55.27</ele>
        <time>2025-02-20T19:37:56.782Z</time>
      </trkpt>
      <trkpt lat="59.41309296526015" lon="13.874330967664719">
        <ele>55.25</ele>
        <time>2025-02-20T19:38:58.941Z</time>
      </trkpt>
      <trkpt lat="59.413109980523586" lon="13.874177997931838">
        <ele>55.22</ele>
        <time>2025-02-20T19:40:01.101Z</time>
      </trkpt>
      <trkpt lat="59.413131941109896" lon="13.874027961865067">
        <ele>55.21</ele>
        <time>2025-02-20T19:41:03.262Z</time>
      </trkpt>
      <trkpt lat="59.413155997172" lon="13.87388194911182">
        <ele>55.19</ele>
        <time>2025-02-20T19:42:05.424Z</time>
      </trkpt>
      <trkpt lat="59.41318198107183" lon="13.873735936358571">
        <ele>55.18</ele>
        <time>2025-02-20T19:43:07.588Z</time>
      </trkpt>
      <trkpt lat="59.41320997662842" lon="13.873589923605323">
        <ele>55.17</ele>
        <time>2025-02-20T19:44:09.753Z</time>
      </trkpt>
      <trkpt lat="59.413238978013396" lon="13.873447934165597">
        <ele>55.15</ele>
        <time>2025-02-20T19:45:11.919Z</time>
      </trkpt>
      <trkpt lat="59.41326596774161" lon="13.873310973867774">
        <ele>55.14</ele>
        <time>2025-02-20T19:46:14.086Z</time>
      </trkpt>
      <trkpt lat="59.41329094581306" lon="13.873179964721203">
        <ele>55.14</ele>
        <time>2025-02-20T19:47:16.255Z</time>
      </trkpt>
      <trkpt lat="59.41331491805613" lon="13.873052978888154">
        <ele>55.13</ele>
        <time>2025-02-20T19:48:18.425Z</time>
      </trkpt>
      <trkpt lat="59.41333796828985" lon="13.872929932549596">
        <ele>55.13</ele>
        <time>2025-02-20T19:49:20.596Z</time>
      </trkpt>
      <trkpt lat="59.41335892304778" lon="13.872809987515211">
        <ele>55.13</ele>
        <time>2025-02-20T19:50:22.768Z</time>
      </trkpt>
      <trkpt lat="59.4133819732815" lon="13.872694987803698">
        <ele>55.13</ele>
        <time>2025-02-20T19:51:24.941Z</time>
      </trkpt>
      <trkpt lat="59.41340493969619" lon="13.872583927586675">
        <ele>55.12</ele>
        <time>2025-02-20T19:52:27.115Z</time>
      </trkpt>
      <trkpt lat="59.413426984101534" lon="13.872476974502206">
        <ele>55.12</ele>
        <time>2025-02-20T19:53:29.290Z</time>
      </trkpt>
      <trkpt lat="59.41344793885946" lon="13.872373960912228">
        <ele>55.11</ele>
        <time>2025-02-20T19:54:31.466Z</time>
      </trkpt>
      <trkpt lat="59.41346797160804" lon="13.87227195315063">
        <ele>55.11</ele>
        <time>2025-02-20T19:55:33.643Z</time>
      </trkpt>
      <trkpt lat="59.41348699852824" lon="13.872172962874174">
        <ele>55.1</ele>
        <time>2025-02-20T19:56:35.820Z</time>
      </trkpt>
      <trkpt lat="59.41350292414427" lon="13.87207799591124">
        <ele>55.1</ele>
        <time>2025-02-20T19:57:37.998Z</time>
      </trkpt>
      <trkpt lat="59.413518933579326" lon="13.871981939300895">
        <ele>55.09</ele>
        <time>2025-02-20T19:58:40.177Z</time>
      </trkpt>
      <trkpt lat="59.413536954671144" lon="13.871882949024439">
        <ele>55.08</ele>
        <time>2025-02-20T19:59:42.357Z</time>
      </trkpt>
      <trkpt lat="59.413555981591344" lon="13.871776917949319">
        <ele>55.08</ele>
        <time>2025-02-20T20:00:44.538Z</time>
      </trkpt>
      <trkpt lat="59.41357693634927" lon="13.871666947379708">
        <ele>55.06</ele>
        <time>2025-02-20T20:01:46.720Z</time>
      </trkpt>
      <trkpt lat="59.413598980754614" lon="13.871550941839814">
        <ele>55.05</ele>
        <time>2025-02-20T20:02:48.903Z</time>
      </trkpt>
      <trkpt lat="59.413622952997684" lon="13.871428985148668">
        <ele>55.03</ele>
        <time>2025-02-20T20:03:51.087Z</time>
      </trkpt>
      <trkpt lat="59.413646925240755" lon="13.871300993487239">
        <ele>55.02</ele>
        <time>2025-02-20T20:04:53.272Z</time>
      </trkpt>
      <trkpt lat="59.41367299295962" lon="13.871168978512287">
        <ele>55.0</ele>
        <time>2025-02-20T20:05:55.458Z</time>
      </trkpt>
      <trkpt lat="59.41369897685945" lon="13.871034951880574">
        <ele>54.97</ele>
        <time>2025-02-20T20:06:57.645Z</time>
      </trkpt>
      <trkpt lat="59.413727978244424" lon="13.870893968269229">
        <ele>54.96</ele>
        <time>2025-02-20T20:07:59.834Z</time>
      </trkpt>
      <trkpt lat="59.41375597380102" lon="13.870749967172742">
        <ele>54.93</ele>
        <time>2025-02-20T20:09:02.024Z</time>
      </trkpt>
      <trkpt lat="59.41378396935761" lon="13.870604960247874">
        <ele>54.91</ele>
        <time>2025-02-20T20:10:04.215Z</time>
      </trkpt>
      <trkpt lat="59.4138119649142" lon="13.870456935837865">
        <ele>54.89</ele>
        <time>2025-02-20T20:11:06.407Z</time>
      </trkpt>
      <trkpt lat="59.413837948814034" lon="13.870307989418507">
        <ele>54.87</ele>
        <time>2025-02-20T20:12:08.601Z</time>
      </trkpt>
      <trkpt lat="59.41386493854225" lon="13.870159965008497">
        <ele>54.84</ele>
        <time>2025-02-20T20:13:10.796Z</time>
      </trkpt>
      <trkpt lat="59.41389192827046" lon="13.870008923113346">
        <ele>54.83</ele>
        <time>2025-02-20T20:14:12.992Z</time>
      </trkpt>
      <trkpt lat="59.41392193548381" lon="13.869855953380466">
        <ele>54.81</ele>
        <time>2025-02-20T20:15:15.190Z</time>
      </trkpt>
      <trkpt lat="59.41395194269717" lon="13.869701977819204">
        <ele>54.78</ele>
        <time>2025-02-20T20:16:17.389Z</time>
      </trkpt>
      <trkpt lat="59.41398194991052" lon="13.869547918438911">
        <ele>54.76</ele>
        <time>2025-02-20T20:17:19.589Z</time>
      </trkpt>
      <trkpt lat="59.414010951295495" lon="13.86939394287765">
        <ele>54.74</ele>
        <time>2025-02-20T20:18:21.791Z</time>
      </trkpt>
      <trkpt lat="59.41403894685209" lon="13.869239967316389">
        <ele>54.73</ele>
        <time>2025-02-20T20:19:23.994Z</time>
      </trkpt>
      <trkpt lat="59.41406794823706" lon="13.869083980098367">
        <ele>54.71</ele>
        <time>2025-02-20T20:20:26.198Z</time>
      </trkpt>
      <trkpt lat="59.414096949622035" lon="13.868924975395203">
        <ele>54.69</ele>
        <time>2025-02-20T20:21:28.404Z</time>
      </trkpt>
      <trkpt lat="59.41412494517863" lon="13.868763959035277">
        <ele>54.67</ele>
        <time>2025-02-20T20:22:30.611Z</time>
      </trkpt>
      <trkpt lat="59.41415495239198" lon="13.86859891936183">
        <ele>54.65</ele>
        <time>2025-02-20T20:23:32.820Z</time>
      </trkpt>
      <trkpt lat="59.414184959605336" lon="13.868434969335794">
        <ele>54.63</ele>
        <time>2025-02-20T20:24:35.030Z</time>
      </trkpt>
      <trkpt lat="59.41421496681869" lon="13.868268923833966">
        <ele>54.6</ele>
        <time>2025-02-20T20:25:37.241Z</time>
      </trkpt>
      <trkpt lat="59.414243968203664" lon="13.86810296215117">
        <ele>54.58</ele>
        <time>2025-02-20T20:26:39.454Z</time>
      </trkpt>
      <trkpt lat="59.4142749812454" lon="13.867935994639993">
        <ele>54.56</ele>
        <time>2025-02-20T20:27:41.668Z</time>
      </trkpt>
      <trkpt lat="59.41430599428713" lon="13.867768943309784">
        <ele>54.53</ele>
        <time>2025-02-20T20:28:43.884Z</time>
      </trkpt>
      <trkpt lat="59.414335917681456" lon="13.867603987455368">
        <ele>54.51</ele>
        <time>2025-02-20T20:29:46.101Z</time>
      </trkpt>
      <trkpt lat="59.41436693072319" lon="13.867441965267062">
        <ele>54.48</ele>
        <time>2025-02-20T20:30:48.320Z</time>
      </trkpt>
      <trkpt lat="59.414396937936544" lon="13.867280948907137">
        <ele>54.46</ele>
        <time>2025-02-20T20:31:50.540Z</time>
      </trkpt>
      <trkpt lat="59.41442795097828" lon="13.867119932547212">
        <ele>54.44</ele>
        <time>2025-02-20T20:32:52.761Z</time>
      </trkpt>
      <trkpt lat="59.41445695236325" lon="13.866959922015667">
        <ele>54.42</ele>
        <time>2025-02-20T20:33:54.984Z</time>
      </trkpt>
      <trkpt lat="59.41448695957661" lon="13.866800917312503">
        <ele>54.39</ele>
        <time>2025-02-20T20:34:57.208Z</time>
      </trkpt>
      <trkpt lat="59.41451596096158" lon="13.86663998477161">
        <ele>54.36</ele>
        <time>2025-02-20T20:35:59.434Z</time>
      </trkpt>
      <trkpt lat="59.41454395651817" lon="13.866479974240065">
        <ele>54.33</ele>
        <time>2025-02-20T20:37:01.661Z</time>
      </trkpt>
      <trkpt lat="59.41457396373153" lon="13.86631996370852">
        <ele>54.3</ele>
        <time>2025-02-20T20:38:03.889Z</time>
      </trkpt>
      <trkpt lat="59.41460195928812" lon="13.866161964833736">
        <ele>54.27</ele>
        <time>2025-02-20T20:39:06.119Z</time>
      </trkpt>
      <trkpt lat="59.414631966501474" lon="13.866000948473811">
        <ele>54.24</ele>
        <time>2025-02-20T20:40:08.350Z</time>
      </trkpt>
      <trkpt lat="59.41466096788645" lon="13.865840937942266">
        <ele>54.21</ele>
        <time>2025-02-20T20:41:10.582Z</time>
      </trkpt>
      <trkpt lat="59.41468896344304" lon="13.865677993744612">
        <ele>54.18</ele>
        <time>2025-02-20T20:42:12.816Z</time>
      </trkpt>
      <trkpt lat="59.41471595317125" lon="13.865518989041448">
        <ele>54.16</ele>
        <time>2025-02-20T20:43:15.051Z</time>
      </trkpt>
      <trkpt lat="59.414742942899466" lon="13.865361995995045">
        <ele>54.13</ele>
        <time>2025-02-20T20:44:17.288Z</time>
      </trkpt>
      <trkpt lat="59.41476993262768" lon="13.865207936614752">
        <ele>54.1</ele>
        <time>2025-02-20T20:45:19.526Z</time>
      </trkpt>
      <trkpt lat="59.41479692235589" lon="13.86505396105349">
        <ele>54.07</ele>
        <time>2025-02-20T20:46:21.765Z</time>
      </trkpt>
      <trkpt lat="59.414823995903134" lon="13.86490099132061">
        <ele>54.03</ele>
        <time>2025-02-20T20:47:24.006Z</time>
      </trkpt>
      <trkpt lat="59.414848973974586" lon="13.86475095525384">
        <ele>54.0</ele>
        <time>2025-02-20T20:48:26.248Z</time>
      </trkpt>
      <trkpt lat="59.41487495787442" lon="13.864600919187069">
        <ele>53.97</ele>
        <time>2025-02-20T20:49:28.491Z</time>
      </trkpt>
      <trkpt lat="59.41490094177425" lon="13.86445197276771">
        <ele>53.94</ele>
        <time>2025-02-20T20:50:30.735Z</time>
      </trkpt>
      <trkpt lat="59.41492793150246" lon="13.864303948357701">
        <ele>53.89</ele>
        <time>2025-02-20T20:51:32.981Z</time>
      </trkpt>
      <trkpt lat="59.414956932887435" lon="13.864155923947692">
        <ele>53.86</ele>
        <time>2025-02-20T20:52:35.228Z</time>
      </trkpt>
      <trkpt lat="59.41498199477792" lon="13.864006977528334">
        <ele>53.82</ele>
        <time>2025-02-20T20:53:37.476Z</time>
      </trkpt>
      <trkpt lat="59.41500697284937" lon="13.863857947289944">
        <ele>53.78</ele>
        <time>2025-02-20T20:54:39.726Z</time>
      </trkpt>
      <trkpt lat="59.41503698006272" lon="13.863704977557063">
        <ele>53.74</ele>
        <time>2025-02-20T20:55:41.977Z</time>
      </trkpt>
      <trkpt lat="59.4150659814477" lon="13.863549996167421">
        <ele>53.71</ele>
        <time>2025-02-20T20:56:44.229Z</time>
      </trkpt>
      <trkpt lat="59.41509598866105" lon="13.863393925130367">
        <ele>53.66</ele>
        <time>2025-02-20T20:57:46.483Z</time>
      </trkpt>
      <trkpt lat="59.415123984217644" lon="13.863234920427203">
        <ele>53.63</ele>
        <time>2025-02-20T20:58:48.738Z</time>
      </trkpt>
      <trkpt lat="59.415149968117476" lon="13.86307398788631">
        <ele>53.59</ele>
        <time>2025-02-20T20:59:50.994Z</time>
      </trkpt>
      <trkpt lat="59.41517695784569" lon="13.862909954041243">
        <ele>53.55</ele>
        <time>2025-02-20T21:00:53.252Z</time>
      </trkpt>
      <trkpt lat="59.41520595923066" lon="13.862745920196176">
        <ele>53.51</ele>
        <time>2025-02-20T21:01:55.511Z</time>
      </trkpt>
      <trkpt lat="59.415234960615635" lon="13.862577946856618">
        <ele>53.47</ele>
        <time>2025-02-20T21:02:57.772Z</time>
      </trkpt>
      <trkpt lat="59.41526798531413" lon="13.862406956031919">
        <ele>53.43</ele>
        <time>2025-02-20T21:04:00.034Z</time>
      </trkpt>
      <trkpt lat="59.415299920365214" lon="13.862234959378839">
        <ele>53.39</ele>
        <time>2025-02-20T21:05:02.298Z</time>
      </trkpt>
      <trkpt lat="59.41533093340695" lon="13.862061956897378">
        <ele>53.35</ele>
        <time>2025-02-20T21:06:04.563Z</time>
      </trkpt>
      <trkpt lat="59.415361946448684" lon="13.861887948587537">
        <ele>53.31</ele>
        <time>2025-02-20T21:07:06.830Z</time>
      </trkpt>
      <trkpt lat="59.4153939653188" lon="13.861713940277696">
        <ele>53.27</ele>
        <time>2025-02-20T21:08:09.098Z</time>
      </trkpt>
      <trkpt lat="59.415425984188914" lon="13.861534986644983">
        <ele>53.23</ele>
        <time>2025-02-20T21:09:11.368Z</time>
      </trkpt>
      <trkpt lat="59.41545791924" lon="13.861358966678381">
        <ele>53.19</ele>
        <time>2025-02-20T21:10:13.639Z</time>
      </trkpt>
      <trkpt lat="59.41548993811011" lon="13.86118495836854">
        <ele>53.15</ele>
        <time>2025-02-20T21:11:15.912Z</time>
      </trkpt>
      <trkpt lat="59.41552396863699" lon="13.861009944230318">
        <ele>53.1</ele>
        <time>2025-02-20T21:12:18.186Z</time>
      </trkpt>
      <trkpt lat="59.415556993335485" lon="13.860831996425986">
        <ele>53.06</ele>
        <time>2025-02-20T21:13:20.462Z</time>
      </trkpt>
      <trkpt lat="59.41558892838657" lon="13.860652958974242">
        <ele>53.02</ele>
        <time>2025-02-20T21:14:22.739Z</time>
      </trkpt>
      <trkpt lat="59.415619941428304" lon="13.860474927350879">
        <ele>52.98</ele>
        <time>2025-02-20T21:15:25.018Z</time>
      </trkpt>
      <trkpt lat="59.41565095447004" lon="13.860297985374928">
        <ele>52.93</ele>
        <time>2025-02-20T21:16:27.298Z</time>
      </trkpt>
      <trkpt lat="59.41568096168339" lon="13.860121965408325">
        <ele>52.88</ele>
        <time>2025-02-20T21:17:29.580Z</time>
      </trkpt>
      <trkpt lat="59.41571197472513" lon="13.859945945441723">
        <ele>52.83</ele>
        <time>2025-02-20T21:18:31.864Z</time>
      </trkpt>
      <trkpt lat="59.41574399359524" lon="13.859771937131882">
        <ele>52.79</ele>
        <time>2025-02-20T21:19:34.149Z</time>
      </trkpt>
      <trkpt lat="59.41577693447471" lon="13.85959692299366">
        <ele>52.74</ele>
        <time>2025-02-20T21:20:36.436Z</time>
      </trkpt>
      <trkpt lat="59.41580895334482" lon="13.85942199267447">
        <ele>52.7</ele>
        <time>2025-02-20T21:21:38.724Z</time>
      </trkpt>
      <trkpt lat="59.41583996638656" lon="13.859243961051106">
        <ele>52.65</ele>
        <time>2025-02-20T21:22:41.014Z</time>
      </trkpt>
      <trkpt lat="59.41586997359991" lon="13.859067941084504">
        <ele>52.61</ele>
        <time>2025-02-20T21:23:43.305Z</time>
      </trkpt>
      <trkpt lat="59.415900986641645" lon="13.858892926946282">
        <ele>52.56</ele>
        <time>2025-02-20T21:24:45.598Z</time>
      </trkpt>
      <trkpt lat="59.41593392752111" lon="13.858715984970331">
        <ele>52.52</ele>
        <time>2025-02-20T21:25:47.892Z</time>
      </trkpt>
      <trkpt lat="59.415966952219605" lon="13.858538959175348">
        <ele>52.47</ele>
        <time>2025-02-20T21:26:50.188Z</time>
      </trkpt>
      <trkpt lat="59.41600198857486" lon="13.858359921723604">
        <ele>52.43</ele>
        <time>2025-02-20T21:27:52.485Z</time>
      </trkpt>
      <trkpt lat="59.41603492945433" lon="13.858187925070524">
        <ele>52.38</ele>
        <time>2025-02-20T21:28:54.784Z</time>
      </trkpt>
      <trkpt lat="59.4160639308393" lon="13.858020957559347">
        <ele>52.34</ele>
        <time>2025-02-20T21:29:57.084Z</time>
      </trkpt>
      <trkpt lat="59.41609192639589" lon="13.857851978391409">
        <ele>52.3</ele>
        <time>2025-02-20T21:30:59.386Z</time>
      </trkpt>
      <trkpt lat="59.416119921952486" lon="13.85768392123282">
        <ele>52.25</ele>
        <time>2025-02-20T21:32:01.689Z</time>
      </trkpt>
      <trkpt lat="59.41614196635783" lon="13.857515947893262">
        <ele>52.21</ele>
        <time>2025-02-20T21:33:03.994Z</time>
      </trkpt>
      <trkpt lat="59.41616493277252" lon="13.857355937361717">
        <ele>52.16</ele>
        <time>2025-02-20T21:34:06.300Z</time>
      </trkpt>
      <trkpt lat="59.41618697717786" lon="13.857195926830173">
        <ele>52.11</ele>
        <time>2025-02-20T21:35:08.607Z</time>
      </trkpt>
      <trkpt lat="59.41620893776417" lon="13.857036922127008">
        <ele>52.06</ele>
        <time>2025-02-20T21:36:10.916Z</time>
      </trkpt>
      <trkpt lat="59.41623098216951" lon="13.856872972100973">
        <ele>52.01</ele>
        <time>2025-02-20T21:37:13.226Z</time>
      </trkpt>
      <trkpt lat="59.41625596024096" lon="13.856705920770764">
        <ele>51.96</ele>
        <time>2025-02-20T21:38:15.537Z</time>
      </trkpt>
      <trkpt lat="59.41627993248403" lon="13.85654498822987">
        <ele>51.92</ele>
        <time>2025-02-20T21:39:17.850Z</time>
      </trkpt>
      <trkpt lat="59.416304994374514" lon="13.856380954384804">
        <ele>51.87</ele>
        <time>2025-02-20T21:40:20.164Z</time>
      </trkpt>
      <trkpt lat="59.416328966617584" lon="13.856217926368117">
        <ele>51.82</ele>
        <time>2025-02-20T21:41:22.480Z</time>
      </trkpt>
      <trkpt lat="59.416353944689035" lon="13.856053976342082">
        <ele>51.78</ele>
        <time>2025-02-20T21:42:24.797Z</time>
      </trkpt>
      <trkpt lat="59.416377916932106" lon="13.855889942497015">
        <ele>51.73</ele>
        <time>2025-02-20T21:43:27.115Z</time>
      </trkpt>
      <trkpt lat="59.416395938023925" lon="13.855724986642599">
        <ele>51.68</ele>
        <time>2025-02-20T21:44:29.435Z</time>
      </trkpt>
      <trkpt lat="59.41641194745898" lon="13.85555692948401">
        <ele>51.63</ele>
        <time>2025-02-20T21:45:31.756Z</time>
      </trkpt>
      <trkpt lat="59.41642099991441" lon="13.855388956144452">
        <ele>51.59</ele>
        <time>2025-02-20T21:46:34.079Z</time>
      </trkpt>
      <trkpt lat="59.41642795689404" lon="13.855224922299385">
        <ele>51.54</ele>
        <time>2025-02-20T21:47:36.403Z</time>
      </trkpt>
      <trkpt lat="59.41643198020756" lon="13.855055943131447">
        <ele>51.49</ele>
        <time>2025-02-20T21:48:38.728Z</time>
      </trkpt>
      <trkpt lat="59.41643591970205" lon="13.85488897562027">
        <ele>51.45</ele>
        <time>2025-02-20T21:49:41.055Z</time>
      </trkpt>
      <trkpt lat="59.416434997692704" lon="13.854721924290061">
        <ele>51.4</ele>
        <time>2025-02-20T21:50:43.383Z</time>
      </trkpt>
      <trkpt lat="59.416434997692704" lon="13.854551939293742">
        <ele>51.35</ele>
        <time>2025-02-20T21:51:45.712Z</time>
      </trkpt>
      <trkpt lat="59.41643198020756" lon="13.854378936812282">
        <ele>51.31</ele>
        <time>2025-02-20T21:52:48.043Z</time>
      </trkpt>
      <trkpt lat="59.41642896272242" lon="13.854206940159202">
        <ele>51.25</ele>
        <time>2025-02-20T21:53:50.375Z</time>
      </trkpt>
      <trkpt lat="59.4164249394089" lon="13.854033937677741">
        <ele>51.2</ele>
        <time>2025-02-20T21:54:52.709Z</time>
      </trkpt>
      <trkpt lat="59.41641898825765" lon="13.853857917711139">
        <ele>51.15</ele>
        <time>2025-02-20T21:55:55.044Z</time>
      </trkpt>
      <trkpt lat="59.41640993580222" lon="13.85368399322033">
        <ele>51.11</ele>
        <time>2025-02-20T21:56:57.381Z</time>
      </trkpt>
      <trkpt lat="59.416397949680686" lon="13.853513924404979">
        <ele>51.06</ele>
        <time>2025-02-20T21:57:59.719Z</time>
      </trkpt>
      <trkpt lat="59.41638395190239" lon="13.853348968550563">
        <ele>51.02</ele>
        <time>2025-02-20T21:59:02.058Z</time>
      </trkpt>
      <trkpt lat="59.41636794246733" lon="13.853186946362257">
        <ele>50.97</ele>
        <time>2025-02-20T22:00:04.399Z</time>
      </trkpt>
      <trkpt lat="59.416350927203894" lon="13.853029953315854">
        <ele>50.92</ele>
        <time>2025-02-20T22:01:06.741Z</time>
      </trkpt>
      <trkpt lat="59.416331984102726" lon="13.852872960269451">
        <ele>50.88</ele>
        <time>2025-02-20T22:02:09.084Z</time>
      </trkpt>
      <trkpt lat="59.416310945525765" lon="13.852716973051429">
        <ele>50.83</ele>
        <time>2025-02-20T22:03:11.429Z</time>
      </trkpt>
      <trkpt lat="59.416291918605566" lon="13.852563919499516">
        <ele>50.79</ele>
        <time>2025-02-20T22:04:13.775Z</time>
      </trkpt>
      <trkpt lat="59.41627096384764" lon="13.852414973080158">
        <ele>50.74</ele>
        <time>2025-02-20T22:05:16.122Z</time>
      </trkpt>
      <trkpt lat="59.41624799743295" lon="13.85226996615529">
        <ele>50.7</ele>
        <time>2025-02-20T22:06:18.470Z</time>
      </trkpt>
      <trkpt lat="59.416222935542464" lon="13.852129988372326">
        <ele>50.65</ele>
        <time>2025-02-20T22:07:20.820Z</time>
      </trkpt>
      <trkpt lat="59.41619795747101" lon="13.85199193842709">
        <ele>50.61</ele>
        <time>2025-02-20T22:08:23.171Z</time>
      </trkpt>
      <trkpt lat="59.41617499105632" lon="13.851853972300887">
        <ele>50.57</ele>
        <time>2025-02-20T22:09:25.523Z</time>
      </trkpt>
      <trkpt lat="59.41615495830774" lon="13.851713994517922">
        <ele>50.52</ele>
        <time>2025-02-20T22:10:27.876Z</time>
      </trkpt>
      <trkpt lat="59.41614096052945" lon="13.851576950401068">
        <ele>50.48</ele>
        <time>2025-02-20T22:11:30.230Z</time>
      </trkpt>
      <trkpt lat="59.41612495109439" lon="13.851446947082877">
        <ele>50.44</ele>
        <time>2025-02-20T22:12:32.585Z</time>
      </trkpt>
      <trkpt lat="59.41610693000257" lon="13.851315937936306">
        <ele>50.4</ele>
        <time>2025-02-20T22:13:34.942Z</time>
      </trkpt>
      <trkpt lat="59.41608496941626" lon="13.851187946274877">
        <ele>50.35</ele>
        <time>2025-02-20T22:14:37.300Z</time>
      </trkpt>
      <trkpt lat="59.41606694832444" lon="13.851060960441828">
        <ele>50.31</ele>
        <time>2025-02-20T22:15:39.659Z</time>
      </trkpt>
      <trkpt lat="59.41604792140424" lon="13.850931962952018">
        <ele>50.27</ele>
        <time>2025-02-20T22:16:42.019Z</time>
      </trkpt>
      <trkpt lat="59.41602596081793" lon="13.85080992244184">
        <ele>50.23</ele>
        <time>2025-02-20T22:17:44.380Z</time>
      </trkpt>
      <trkpt lat="59.4159999769181" lon="13.850689977407455">
        <ele>50.18</ele>
        <time>2025-02-20T22:18:46.742Z</time>
      </trkpt>
      <trkpt lat="59.41597499884665" lon="13.850575983524323">
        <ele>50.14</ele>
        <time>2025-02-20T22:19:49.105Z</time>
      </trkpt>
      <trkpt lat="59.41594893112779" lon="13.85046198964119">
        <ele>50.1</ele>
        <time>2025-02-20T22:20:51.469Z</time>
      </trkpt>
      <trkpt lat="59.415923953056335" lon="13.850345984101295">
        <ele>50.05</ele>
        <time>2025-02-20T22:21:53.834Z</time>
      </trkpt>
      <trkpt lat="59.41589696332812" lon="13.850230984389782">
        <ele>50.01</ele>
        <time>2025-02-20T22:22:56.200Z</time>
      </trkpt>
      <trkpt lat="59.41586896777153" lon="13.85011799633503">
        <ele>49.97</ele>
        <time>2025-02-20T22:23:58.567Z</time>
      </trkpt>
      <trkpt lat="59.415837954729795" lon="13.850009953603148">
        <ele>49.93</ele>
        <time>2025-02-20T22:25:00.935Z</time>
      </trkpt>
      <trkpt lat="59.41580694168806" lon="13.849896965548396">
        <ele>49.9</ele>
        <time>2025-02-20T22:26:03.304Z</time>
      </trkpt>
      <trkpt lat="59.41577693447471" lon="13.849779954180121">
        <ele>49.86</ele>
        <time>2025-02-20T22:27:05.674Z</time>
      </trkpt>
      <trkpt lat="59.41574399359524" lon="13.849663948640227">
        <ele>49.83</ele>
        <time>2025-02-20T22:28:08.045Z</time>
      </trkpt>
      <trkpt lat="59.41571096889675" lon="13.849553978070617">
        <ele>49.79</ele>
        <time>2025-02-20T22:29:10.417Z</time>
      </trkpt>
      <trkpt lat="59.41567593254149" lon="13.849441995844245">
        <ele>49.75</ele>
        <time>2025-02-20T22:30:12.790Z</time>
      </trkpt>
      <trkpt lat="59.4156389683485" lon="13.849329929798841">
        <ele>49.71</ele>
        <time>2025-02-20T22:31:15.164Z</time>
      </trkpt>
      <trkpt lat="59.415598986670375" lon="13.84921694174409">
        <ele>49.68</ele>
        <time>2025-02-20T22:32:17.540Z</time>
      </trkpt>
      <trkpt lat="59.415557999163866" lon="13.849104959517717">
        <ele>49.64</ele>
        <time>2025-02-20T22:33:19.917Z</time>
      </trkpt>
      <trkpt lat="59.415515922009945" lon="13.848989959806204">
        <ele>49.61</ele>
        <time>2025-02-20T22:34:22.295Z</time>
      </trkpt>
      <trkpt lat="59.415472922846675" lon="13.848868925124407">
        <ele>49.58</ele>
        <time>2025-02-20T22:35:24.674Z</time>
      </trkpt>
      <trkpt lat="59.415429923683405" lon="13.84874395094812">
        <ele>49.55</ele>
        <time>2025-02-20T22:36:27.054Z</time>
      </trkpt>
      <trkpt lat="59.415386924520135" lon="13.848617970943451">
        <ele>49.52</ele>
        <time>2025-02-20T22:37:29.436Z</time>
      </trkpt>
      <trkpt lat="59.415343925356865" lon="13.848491990938783">
        <ele>49.49</ele>
        <time>2025-02-20T22:38:31.819Z</time>
      </trkpt>
      <trkpt lat="59.415297992527485" lon="13.848367938771844">
        <ele>49.46</ele>
        <time>2025-02-20T22:39:34.203Z</time>
      </trkpt>
      <trkpt lat="59.415255999192595" lon="13.848242964595556">
        <ele>49.43</ele>
        <time>2025-02-20T22:40:36.588Z</time>
      </trkpt>
      <trkpt lat="59.415211994200945" lon="13.84812293574214">
        <ele>49.4</ele>
        <time>2025-02-20T22:41:38.974Z</time>
      </trkpt>
      <trkpt lat="59.415169917047024" lon="13.848006930202246">
        <ele>49.37</ele>
        <time>2025-02-20T22:42:41.362Z</time>
      </trkpt>
      <trkpt lat="59.415130941197276" lon="13.847895953804255">
        <ele>49.35</ele>
        <time>2025-02-20T22:43:43.751Z</time>
      </trkpt>
      <trkpt lat="59.41509297117591" lon="13.847785983234644">
        <ele>49.32</ele>
        <time>2025-02-20T22:44:46.141Z</time>
      </trkpt>
      <trkpt lat="59.41505491733551" lon="13.847672995179892">
        <ele>49.29</ele>
        <time>2025-02-20T22:45:48.532Z</time>
      </trkpt>
      <trkpt lat="59.415017953142524" lon="13.847557995468378">
        <ele>49.26</ele>
        <time>2025-02-20T22:46:50.924Z</time>
      </trkpt>
      <trkpt lat="59.414977971464396" lon="13.847441989928484">
        <ele>49.24</ele>
        <time>2025-02-20T22:47:53.317Z</time>
      </trkpt>
      <trkpt lat="59.41493698395789" lon="13.84732699021697">
        <ele>49.21</ele>
        <time>2025-02-20T22:48:55.711Z</time>
      </trkpt>
      <trkpt lat="59.41489398479462" lon="13.847209978848696">
        <ele>49.18</ele>
        <time>2025-02-20T22:49:58.107Z</time>
      </trkpt>
      <trkpt lat="59.41485391929746" lon="13.847093973308802">
        <ele>49.15</ele>
        <time>2025-02-20T22:51:00.504Z</time>
      </trkpt>
      <trkpt lat="59.41481092013419" lon="13.846978973597288">
        <ele>49.13</ele>
        <time>2025-02-20T22:52:02.902Z</time>
      </trkpt>
      <trkpt lat="59.41476599313319" lon="13.846863973885775">
        <ele>49.1</ele>
        <time>2025-02-20T22:53:05.301Z</time>
      </trkpt>
      <trkpt lat="59.414720982313156" lon="13.846751991659403">
        <ele>49.08</ele>
        <time>2025-02-20T22:54:07.701Z</time>
      </trkpt>
      <trkpt lat="59.414674965664744" lon="13.846638919785619">
        <ele>49.06</ele>
        <time>2025-02-20T22:55:10.102Z</time>
      </trkpt>
      <trkpt lat="59.41462794318795" lon="13.846526937559247">
        <ele>49.03</ele>
        <time>2025-02-20T22:56:12.505Z</time>
      </trkpt>
      <trkpt lat="59.41457899287343" lon="13.846414955332875">
        <ele>49.01</ele>
        <time>2025-02-20T22:57:14.909Z</time>
      </trkpt>
      <trkpt lat="59.41452392376959" lon="13.846307918429375">
        <ele>48.99</ele>
        <time>2025-02-20T22:58:17.314Z</time>
      </trkpt>
      <trkpt lat="59.41446692682803" lon="13.846206916496158">
        <ele>48.97</ele>
        <time>2025-02-20T22:59:19.720Z</time>
      </trkpt>
      <trkpt lat="59.41440699622035" lon="13.846106920391321">
        <ele>48.96</ele>
        <time>2025-02-20T23:00:22.128Z</time>
      </trkpt>
      <trkpt lat="59.41434497013688" lon="13.846010947600007">
        <ele>48.95</ele>
        <time>2025-02-20T23:01:24.537Z</time>
      </trkpt>
      <trkpt lat="59.41427992656827" lon="13.845912963151932">
        <ele>48.93</ele>
        <time>2025-02-20T23:02:26.947Z</time>
      </trkpt>
      <trkpt lat="59.41421899013221" lon="13.845810955390334">
        <ele>48.92</ele>
        <time>2025-02-20T23:03:29.358Z</time>
      </trkpt>
      <trkpt lat="59.414160987362266" lon="13.845705930143595">
        <ele>48.91</ele>
        <time>2025-02-20T23:04:31.771Z</time>
      </trkpt>
      <trkpt lat="59.41410893574357" lon="13.845591936260462">
        <ele>48.89</ele>
        <time>2025-02-20T23:05:34.185Z</time>
      </trkpt>
      <trkpt lat="59.41406099125743" lon="13.845472997054458">
        <ele>48.87</ele>
        <time>2025-02-20T23:06:36.600Z</time>
      </trkpt>
      <trkpt lat="59.41401698626578" lon="13.845347939059138">
        <ele>48.85</ele>
        <time>2025-02-20T23:07:39.016Z</time>
      </trkpt>
      <trkpt lat="59.41397692076862" lon="13.845215924084187">
        <ele>48.84</ele>
        <time>2025-02-20T23:08:41.434Z</time>
      </trkpt>
      <trkpt lat="59.41393995657563" lon="13.845078963786364">
        <ele>48.83</ele>
        <time>2025-02-20T23:09:43.853Z</time>
      </trkpt>
      <trkpt lat="59.41390793770552" lon="13.844935968518257">
        <ele>48.81</ele>
        <time>2025-02-20T23:10:46.273Z</time>
      </trkpt>
      <trkpt lat="59.41387692466378" lon="13.84479096159339">
        <ele>48.8</ele>
        <time>2025-02-20T23:11:48.694Z</time>
      </trkpt>
      <trkpt lat="59.41384691745043" lon="13.84464394301176">
        <ele>48.79</ele>
        <time>2025-02-20T23:12:51.117Z</time>
      </trkpt>
      <trkpt lat="59.413815988227725" lon="13.844495918601751">
        <ele>48.78</ele>
        <time>2025-02-20T23:13:53.541Z</time>
      </trkpt>
      <trkpt lat="59.41378598101437" lon="13.844346972182393">
        <ele>48.77</ele>
        <time>2025-02-20T23:14:55.966Z</time>
      </trkpt>
      <trkpt lat="59.41375798545778" lon="13.844198947772384">
        <ele>48.76</ele>
        <time>2025-02-20T23:15:58.393Z</time>
      </trkpt>
      <trkpt lat="59.413728984072804" lon="13.844056958332658">
        <ele>48.75</ele>
        <time>2025-02-20T23:17:00.821Z</time>
      </trkpt>
      <trkpt lat="59.41369797103107" lon="13.843918992206454">
        <ele>48.74</ele>
        <time>2025-02-20T23:18:03.250Z</time>
      </trkpt>
      <trkpt lat="59.413665952160954" lon="13.8437819480896">
        <ele>48.73</ele>
        <time>2025-02-20T23:19:05.680Z</time>
      </trkpt>
      <trkpt lat="59.41363099962473" lon="13.843641970306635">
        <ele>48.73</ele>
        <time>2025-02-20T23:20:08.112Z</time>
      </trkpt>
      <trkpt lat="59.41359495744109" lon="13.8435039203614">
        <ele>48.72</ele>
        <time>2025-02-20T23:21:10.545Z</time>
      </trkpt>
      <trkpt lat="59.413556987419724" lon="13.843367965891957">
        <ele>48.71</ele>
        <time>2025-02-20T23:22:12.979Z</time>
      </trkpt>
      <trkpt lat="59.41352195106447" lon="13.843239974230528">
        <ele>48.71</ele>
        <time>2025-02-20T23:23:15.414Z</time>
      </trkpt>
      <trkpt lat="59.41348699852824" lon="13.843107959255576">
        <ele>48.7</ele>
        <time>2025-02-20T23:24:17.851Z</time>
      </trkpt>
      <trkpt lat="59.413449950516224" lon="13.842975944280624">
        <ele>48.7</ele>
        <time>2025-02-20T23:25:20.289Z</time>
      </trkpt>
      <trkpt lat="59.41341399215162" lon="13.842841917648911">
        <ele>48.7</ele>
        <time>2025-02-20T23:26:22.728Z</time>
      </trkpt>
      <trkpt lat="59.4133769441396" lon="13.842703951522708">
        <ele>48.69</ele>
        <time>2025-02-20T23:27:25.168Z</time>
      </trkpt>
      <trkpt lat="59.41333997994661" lon="13.842563973739743">
        <ele>48.69</ele>
        <time>2025-02-20T23:28:27.610Z</time>
      </trkpt>
      <trkpt lat="59.413301926106215" lon="13.842422990128398">
        <ele>48.68</ele>
        <time>2025-02-20T23:29:30.053Z</time>
      </trkpt>
      <trkpt lat="59.41326496191323" lon="13.842284940183163">
        <ele>48.68</ele>
        <time>2025-02-20T23:30:32.497Z</time>
      </trkpt>
      <trkpt lat="59.41322598606348" lon="13.842145968228579">
        <ele>48.68</ele>
        <time>2025-02-20T23:31:34.943Z</time>
      </trkpt>
      <trkpt lat="59.4131869263947" lon="13.842006996273994">
        <ele>48.68</ele>
        <time>2025-02-20T23:32:37.390Z</time>
      </trkpt>
      <trkpt lat="59.413148956373334" lon="13.841865928843617">
        <ele>48.68</ele>
        <time>2025-02-20T23:33:39.838Z</time>
      </trkpt>
      <trkpt lat="59.413107968866825" lon="13.841724945232272">
        <ele>48.68</ele>
        <time>2025-02-20T23:34:42.287Z</time>
      </trkpt>
      <trkpt lat="59.413063963875175" lon="13.84158798493445">
        <ele>48.69</ele>
        <time>2025-02-20T23:35:44.738Z</time>
      </trkpt>
      <trkpt lat="59.41301392391324" lon="13.841455969959497">
        <ele>48.69</ele>
        <time>2025-02-20T23:36:47.190Z</time>
      </trkpt>
      <trkpt lat="59.412960950285196" lon="13.84133099578321">
        <ele>48.69</ele>
        <time>2025-02-20T23:37:49.643Z</time>
      </trkpt>
      <trkpt lat="59.41290495917201" lon="13.841207949444652">
        <ele>48.69</ele>
        <time>2025-02-20T23:38:52.098Z</time>
      </trkpt>
      <trkpt lat="59.41284393891692" lon="13.841091943904757">
        <ele>48.7</ele>
        <time>2025-02-20T23:39:54.554Z</time>
      </trkpt>
      <trkpt lat="59.41277998499572" lon="13.840978955850005">
        <ele>48.7</ele>
        <time>2025-02-20T23:40:57.012Z</time>
      </trkpt>
      <trkpt lat="59.41271494142711" lon="13.840868985280395">
        <ele>48.7</ele>
        <time>2025-02-20T23:41:59.471Z</time>
      </trkpt>
      <trkpt lat="59.41265098750591" lon="13.840757925063372">
        <ele>48.71</ele>
        <time>2025-02-20T23:43:01.931Z</time>
      </trkpt>
      <trkpt lat="59.412589967250824" lon="13.84064493700862">
        <ele>48.72</ele>
        <time>2025-02-20T23:44:04.393Z</time>
      </trkpt>
      <trkpt lat="59.412530958652496" lon="13.840531948953867">
        <ele>48.73</ele>
        <time>2025-02-20T23:45:06.856Z</time>
      </trkpt>
      <trkpt lat="59.41247094422579" lon="13.840422984212637">
        <ele>48.74</ele>
        <time>2025-02-20T23:46:09.320Z</time>
      </trkpt>
      <trkpt lat="59.41241294145584" lon="13.840312929823995">
        <ele>48.75</ele>
        <time>2025-02-20T23:47:11.786Z</time>
      </trkpt>
      <trkpt lat="59.412357956171036" lon="13.840198935940862">
        <ele>48.76</ele>
        <time>2025-02-20T23:48:14.253Z</time>
      </trkpt>
      <trkpt lat="59.41230598837137" lon="13.840083936229348">
        <ele>48.77</ele>
        <time>2025-02-20T23:49:16.721Z</time>
      </trkpt>
      <trkpt lat="59.41225695423782" lon="13.839971954002976">
        <ele>48.78</ele>
        <time>2025-02-20T23:50:19.190Z</time>
      </trkpt>
      <trkpt lat="59.412208925932646" lon="13.839860977604985">
        <ele>48.8</ele>
        <time>2025-02-20T23:51:21.660Z</time>
      </trkpt>
      <trkpt lat="59.412162993103266" lon="13.839744972065091">
        <ele>48.82</ele>
        <time>2025-02-20T23:52:24.132Z</time>
      </trkpt>
      <trkpt lat="59.412116976454854" lon="13.839630978181958">
        <ele>48.84</ele>
        <time>2025-02-20T23:53:26.605Z</time>
      </trkpt>
      <trkpt lat="59.41206894814968" lon="13.839518995955586">
        <ele>48.86</ele>
        <time>2025-02-20T23:54:29.079Z</time>
      </trkpt>
      <trkpt lat="59.41202091984451" lon="13.839406929910183">
        <ele>48.88</ele>
        <time>2025-02-20T23:55:31.554Z</time>
      </trkpt>
      <trkpt lat="59.41197398118675" lon="13.839299976825714">
        <ele>48.9</ele>
        <time>2025-02-20T23:56:34.030Z</time>
      </trkpt>
      <trkpt lat="59.411925952881575" lon="13.839197969064116">
        <ele>48.92</ele>
        <time>2025-02-20T23:57:36.508Z</time>
      </trkpt>
      <trkpt lat="59.411883959546685" lon="13.839099984616041">
        <ele>48.94</ele>
        <time>2025-02-20T23:58:38.987Z</time>
      </trkpt>
      <trkpt lat="59.411840960383415" lon="13.838998982682824">
        <ele>48.97</ele>
        <time>2025-02-20T23:59:41.467Z</time>
      </trkpt>
      <trkpt lat="59.411798967048526" lon="13.838897980749607">
        <ele>48.99</ele>
        <time>2025-02-21T00:00:43.948Z</time>
      </trkpt>
      <trkpt lat="59.411755967885256" lon="13.83879597298801">
        <ele>49.0</ele>
        <time>2025-02-21T00:01:46.430Z</time>
      </trkpt>
      <trkpt lat="59.41171498037875" lon="13.838705951347947">
        <ele>49.03</ele>
        <time>2025-02-21T00:02:48.913Z</time>
      </trkpt>
      <trkpt lat="59.41168195568025" lon="13.83862498216331">
        <ele>49.04</ele>
        <time>2025-02-21T00:03:51.397Z</time>
      </trkpt>
      <trkpt lat="59.4116569776088" lon="13.838550969958305">
        <ele>49.06</ele>
        <time>2025-02-21T00:04:53.881Z</time>
      </trkpt>
      <trkpt lat="59.41163493320346" lon="13.838482992723584">
        <ele>49.08</ele>
        <time>2025-02-21T00:05:56.366Z</time>
      </trkpt>
      <trkpt lat="59.41162294708192" lon="13.83840998634696">
        <ele>49.1</ele>
        <time>2025-02-21T00:06:58.852Z</time>
      </trkpt>
      <trkpt lat="59.4116189237684" lon="13.838328933343291">
        <ele>49.12</ele>
        <time>2025-02-21T00:08:01.338Z</time>
      </trkpt>
      <trkpt lat="59.411627976223826" lon="13.838235978037119">
        <ele>49.14</ele>
        <time>2025-02-21T00:09:03.825Z</time>
      </trkpt>
      <trkpt lat="59.411647925153375" lon="13.838148973882198">
        <ele>49.17</ele>
        <time>2025-02-21T00:10:06.313Z</time>
      </trkpt>
      <trkpt lat="59.41167994402349" lon="13.838076973333955">
        <ele>49.19</ele>
        <time>2025-02-21T00:11:08.802Z</time>
      </trkpt>
      <trkpt lat="59.41171699203551" lon="13.838017964735627">
        <ele>49.22</ele>
        <time>2025-02-21T00:12:11.291Z</time>
      </trkpt>
      <trkpt lat="59.411754962056875" lon="13.837966918945312">
        <ele>49.25</ele>
        <time>2025-02-21T00:13:13.781Z</time>
      </trkpt>
      <trkpt lat="59.41179192624986" lon="13.83791696280241">
        <ele>49.27</ele>
        <time>2025-02-21T00:14:16.272Z</time>
      </trkpt>
      <trkpt lat="59.41183492541313" lon="13.837871951982379">
        <ele>49.3</ele>
        <time>2025-02-21T00:15:18.764Z</time>
      </trkpt>
      <trkpt lat="59.41187599673867" lon="13.837832976132631">
        <ele>49.33</ele>
        <time>2025-02-21T00:16:21.256Z</time>
      </trkpt>
      <trkpt lat="59.41191899590194" lon="13.837792994454503">
        <ele>49.36</ele>
        <time>2025-02-21T00:17:23.749Z</time>
      </trkpt>
      <trkpt lat="59.41195897758007" lon="13.837747983634472">
        <ele>49.39</ele>
        <time>2025-02-21T00:18:26.243Z</time>
      </trkpt>
      <trkpt lat="59.41200197674334" lon="13.837694926187396">
        <ele>49.42</ele>
        <time>2025-02-21T00:19:28.738Z</time>
      </trkpt>
      <trkpt lat="59.41204497590661" lon="13.837647987529635">
        <ele>49.45</ele>
        <time>2025-02-21T00:20:31.234Z</time>
      </trkpt>
      <trkpt lat="59.4120919983834" lon="13.83759493008256">
        <ele>49.48</ele>
        <time>2025-02-21T00:21:33.730Z</time>
      </trkpt>
      <trkpt lat="59.41213893704116" lon="13.83753097616136">
        <ele>49.51</ele>
        <time>2025-02-21T00:22:36.227Z</time>
      </trkpt>
      <trkpt lat="59.412182942032814" lon="13.837475990876555">
        <ele>49.55</ele>
        <time>2025-02-21T00:23:38.725Z</time>
      </trkpt>
      <trkpt lat="59.412226947024465" lon="13.837421927601099">
        <ele>49.58</ele>
        <time>2025-02-21T00:24:41.224Z</time>
      </trkpt>
      <trkpt lat="59.41227598115802" lon="13.837364930659533">
        <ele>49.61</ele>
        <time>2025-02-21T00:25:43.724Z</time>
      </trkpt>
      <trkpt lat="59.4123269431293" lon="13.837306927889585">
        <ele>49.64</ele>
        <time>2025-02-21T00:26:46.225Z</time>
      </trkpt>
      <trkpt lat="59.412374971434474" lon="13.837244985625148">
        <ele>49.67</ele>
        <time>2025-02-21T00:27:48.727Z</time>
      </trkpt>
      <trkpt lat="59.412423921748996" lon="13.837177930399776">
        <ele>49.71</ele>
        <time>2025-02-21T00:28:51.230Z</time>
      </trkpt>
      <trkpt lat="59.41248293034732" lon="13.837111964821815">
        <ele>49.74</ele>
        <time>2025-02-21T00:29:53.734Z</time>
      </trkpt>
      <trkpt lat="59.41253992728889" lon="13.837050944566727">
        <ele>49.77</ele>
        <time>2025-02-21T00:30:56.239Z</time>
      </trkpt>
      <trkpt lat="59.41259893588722" lon="13.836986990645528">
        <ele>49.8</ele>
        <time>2025-02-21T00:31:58.745Z</time>
      </trkpt>
      <trkpt lat="59.412659956142306" lon="13.836923958733678">
        <ele>49.83</ele>
        <time>2025-02-21T00:33:01.252Z</time>
      </trkpt>
      <trkpt lat="59.412718964740634" lon="13.83686394430697">
        <ele>49.87</ele>
        <time>2025-02-21T00:34:03.760Z</time>
      </trkpt>
      <trkpt lat="59.4127759616822" lon="13.836806947365403">
        <ele>49.9</ele>
        <time>2025-02-21T00:35:06.269Z</time>
      </trkpt>
      <trkpt lat="59.41283295862377" lon="13.836742993444204">
        <ele>49.94</ele>
        <time>2025-02-21T00:36:08.779Z</time>
      </trkpt>
      <trkpt lat="59.41288894973695" lon="13.836676944047213">
        <ele>49.98</ele>
        <time>2025-02-21T00:37:11.290Z</time>
      </trkpt>
      <trkpt lat="59.4129469525069" lon="13.836609972640872">
        <ele>50.01</ele>
        <time>2025-02-21T00:38:13.802Z</time>
      </trkpt>
      <trkpt lat="59.413003949448466" lon="13.836545934900641">
        <ele>50.05</ele>
        <time>2025-02-21T00:39:16.315Z</time>
      </trkpt>
      <trkpt lat="59.41306195221841" lon="13.8364789634943">
        <ele>50.08</ele>
        <time>2025-02-21T00:40:18.829Z</time>
      </trkpt>
      <trkpt lat="59.4131179433316" lon="13.836409980431199">
        <ele>50.12</ele>
        <time>2025-02-21T00:41:21.345Z</time>
      </trkpt>
      <trkpt lat="59.413172928616405" lon="13.836337979882956">
        <ele>50.16</ele>
        <time>2025-02-21T00:42:23.862Z</time>
      </trkpt>
      <trkpt lat="59.41322992555797" lon="13.836269918829203">
        <ele>50.2</ele>
        <time>2025-02-21T00:43:26.380Z</time>
      </trkpt>
      <trkpt lat="59.41328398883343" lon="13.8362009357661">
        <ele>50.24</ele>
        <time>2025-02-21T00:44:28.899Z</time>
      </trkpt>
      <trkpt lat="59.41333997994661" lon="13.836126923561096">
        <ele>50.28</ele>
        <time>2025-02-21T00:45:31.419Z</time>
      </trkpt>
      <trkpt lat="59.41339496523142" lon="13.836055928841233">
        <ele>50.31</ele>
        <time>2025-02-21T00:46:33.940Z</time>
      </trkpt>
      <trkpt lat="59.413451962172985" lon="13.83598493412137">
        <ele>50.34</ele>
        <time>2025-02-21T00:47:36.462Z</time>
      </trkpt>
      <trkpt lat="59.41351097077131" lon="13.835913939401507">
        <ele>50.37</ele>
        <time>2025-02-21T00:48:38.985Z</time>
      </trkpt>
      <trkpt lat="59.41356796771288" lon="13.835836993530393">
        <ele>50.41</ele>
        <time>2025-02-21T00:49:41.509Z</time>
      </trkpt>
      <trkpt lat="59.413624964654446" lon="13.835755940526724">
        <ele>50.45</ele>
        <time>2025-02-21T00:50:44.034Z</time>
      </trkpt>
      <trkpt lat="59.41367994993925" lon="13.835675977170467">
        <ele>50.49</ele>
        <time>2025-02-21T00:51:46.560Z</time>
      </trkpt>
      <trkpt lat="59.413733929395676" lon="13.83559299632907">
        <ele>50.53</ele>
        <time>2025-02-21T00:52:49.087Z</time>
      </trkpt>
      <trkpt lat="59.41378698684275" lon="13.835508925840259">
        <ele>50.57</ele>
        <time>2025-02-21T00:53:51.616Z</time>
      </trkpt>
      <trkpt lat="59.413838954642415" lon="13.83542099967599">
        <ele>50.61</ele>
        <time>2025-02-21T00:54:54.146Z</time>
      </trkpt>
      <trkpt lat="59.41388899460435" lon="13.835332989692688">
        <ele>50.66</ele>
        <time>2025-02-21T00:55:56.677Z</time>
      </trkpt>
      <trkpt lat="59.41394096240401" lon="13.835246991366148">
        <ele>50.7</ele>
        <time>2025-02-21T00:56:59.209Z</time>
      </trkpt>
      <trkpt lat="59.413992930203676" lon="13.835158981382847">
        <ele>50.75</ele>
        <time>2025-02-21T00:58:01.742Z</time>
      </trkpt>
      <trkpt lat="59.41404498182237" lon="13.835075916722417">
        <ele>50.79</ele>
        <time>2025-02-21T00:59:04.276Z</time>
      </trkpt>
      <trkpt lat="59.41410097293556" lon="13.834990924224257">
        <ele>50.83</ele>
        <time>2025-02-21T01:00:06.811Z</time>
      </trkpt>
      <trkpt lat="59.414158975705504" lon="13.834904925897717">
        <ele>50.88</ele>
        <time>2025-02-21T01:01:09.347Z</time>
      </trkpt>
      <trkpt lat="59.41421295516193" lon="13.834820939227939">
        <ele>50.93</ele>
        <time>2025-02-21T01:02:11.884Z</time>
      </trkpt>
      <trkpt lat="59.414267940446734" lon="13.83473795838654">
        <ele>50.98</ele>
        <time>2025-02-21T01:03:14.423Z</time>
      </trkpt>
      <trkpt lat="59.41432099789381" lon="13.834657995030284">
        <ele>51.03</ele>
        <time>2025-02-21T01:04:16.963Z</time>
      </trkpt>
      <trkpt lat="59.414374977350235" lon="13.834577947854996">
        <ele>51.07</ele>
        <time>2025-02-21T01:05:19.504Z</time>
      </trkpt>
      <trkpt lat="59.4144319742918" lon="13.8344999961555">
        <ele>51.12</ele>
        <time>2025-02-21T01:06:22.046Z</time>
      </trkpt>
      <trkpt lat="59.41449098289013" lon="13.834418943151832">
        <ele>51.17</ele>
        <time>2025-02-21T01:07:24.589Z</time>
      </trkpt>
      <trkpt lat="59.41455099731684" lon="13.834336968138814">
        <ele>51.23</ele>
        <time>2025-02-21T01:08:27.133Z</time>
      </trkpt>
      <trkpt lat="59.414610927924514" lon="13.834257926791906">
        <ele>51.28</ele>
        <time>2025-02-21T01:09:29.678Z</time>
      </trkpt>
      <trkpt lat="59.41467295400798" lon="13.834183998405933">
        <ele>51.33</ele>
        <time>2025-02-21T01:10:32.224Z</time>
      </trkpt>
      <trkpt lat="59.41473498009145" lon="13.83411199785769">
        <ele>51.39</ele>
        <time>2025-02-21T01:11:34.772Z</time>
      </trkpt>
      <trkpt lat="59.41479792818427" lon="13.834040919318795">
        <ele>51.44</ele>
        <time>2025-02-21T01:12:37.321Z</time>
      </trkpt>
      <trkpt lat="59.41486297175288" lon="13.833977971225977">
        <ele>51.5</ele>
        <time>2025-02-21T01:13:39.871Z</time>
      </trkpt>
      <trkpt lat="59.41492793150246" lon="13.833917956799269">
        <ele>51.56</ele>
        <time>2025-02-21T01:14:42.422Z</time>
      </trkpt>
      <trkpt lat="59.41499398089945" lon="13.833860959857702">
        <ele>51.62</ele>
        <time>2025-02-21T01:15:44.974Z</time>
      </trkpt>
      <trkpt lat="59.41505894064903" lon="13.833805974572897">
        <ele>51.67</ele>
        <time>2025-02-21T01:16:47.527Z</time>
      </trkpt>
      <trkpt lat="59.415123984217644" lon="13.833752917125821">
        <ele>51.73</ele>
        <time>2025-02-21T01:17:50.081Z</time>
      </trkpt>
      <trkpt lat="59.41518894396722" lon="13.83370497263968">
        <ele>51.8</ele>
        <time>2025-02-21T01:18:52.637Z</time>
      </trkpt>
      <trkpt lat="59.415253987535834" lon="13.833658955991268">
        <ele>51.86</ele>
        <time>2025-02-21T01:19:55.194Z</time>
      </trkpt>
      <trkpt lat="59.41531391814351" lon="13.833616962656379">
        <ele>51.93</ele>
        <time>2025-02-21T01:20:57.752Z</time>
      </trkpt>
      <trkpt lat="59.4153749383986" lon="13.83357597514987">
        <ele>51.99</ele>
        <time>2025-02-21T01:22:00.311Z</time>
      </trkpt>
      <trkpt lat="59.41543696448207" lon="13.833538927137852">
        <ele>52.06</ele>
        <time>2025-02-21T01:23:02.871Z</time>
      </trkpt>
      <trkpt lat="59.41549899056554" lon="13.833502968773246">
        <ele>52.12</ele>
        <time>2025-02-21T01:24:05.432Z</time>
      </trkpt>
      <trkpt lat="59.415558921173215" lon="13.833465920761228">
        <ele>52.18</ele>
        <time>2025-02-21T01:25:07.994Z</time>
      </trkpt>
      <trkpt lat="59.415621953085065" lon="13.833429962396622">
        <ele>52.25</ele>
        <time>2025-02-21T01:26:10.557Z</time>
      </trkpt>
      <trkpt lat="59.415686996653676" lon="13.833392998203635">
        <ele>52.32</ele>
        <time>2025-02-21T01:27:13.121Z</time>
      </trkpt>
      <trkpt lat="59.41574793308973" lon="13.833353938534856">
        <ele>52.39</ele>
        <time>2025-02-21T01:28:15.686Z</time>
      </trkpt>
      <trkpt lat="59.4158099591732" lon="13.833314962685108">
        <ele>52.45</ele>
        <time>2025-02-21T01:29:18.252Z</time>
      </trkpt>
      <trkpt lat="59.41587399691343" lon="13.833272969350219">
        <ele>52.52</ele>
        <time>2025-02-21T01:30:20.819Z</time>
      </trkpt>
      <trkpt lat="59.41593694500625" lon="13.83323298767209">
        <ele>52.58</ele>
        <time>2025-02-21T01:31:23.387Z</time>
      </trkpt>
      <trkpt lat="59.41599695943296" lon="13.83319292217493">
        <ele>52.65</ele>
        <time>2025-02-21T01:32:25.956Z</time>
      </trkpt>
      <trkpt lat="59.41605496220291" lon="13.833152940496802">
        <ele>52.72</ele>
        <time>2025-02-21T01:33:28.526Z</time>
      </trkpt>
      <trkpt lat="59.416113970801234" lon="13.833109941333532">
        <ele>52.78</ele>
        <time>2025-02-21T01:34:31.097Z</time>
      </trkpt>
      <trkpt lat="59.4161709677428" lon="13.833066942170262">
        <ele>52.84</ele>
        <time>2025-02-21T01:35:33.669Z</time>
      </trkpt>
      <trkpt lat="59.41622796468437" lon="13.833023943006992">
        <ele>52.9</ele>
        <time>2025-02-21T01:36:36.242Z</time>
      </trkpt>
      <trkpt lat="59.416286973282695" lon="13.832978932186961">
        <ele>52.96</ele>
        <time>2025-02-21T01:37:38.816Z</time>
      </trkpt>
      <trkpt lat="59.41634497605264" lon="13.8329319935292">
        <ele>53.03</ele>
        <time>2025-02-21T01:38:41.391Z</time>
      </trkpt>
      <trkpt lat="59.41639996133745" lon="13.83288698270917">
        <ele>53.09</ele>
        <time>2025-02-21T01:39:43.967Z</time>
      </trkpt>
      <trkpt lat="59.41645494662225" lon="13.832837948575616">
        <ele>53.15</ele>
        <time>2025-02-21T01:40:46.544Z</time>
      </trkpt>
      <trkpt lat="59.41650993190706" lon="13.832792937755585">
        <ele>53.2</ele>
        <time>2025-02-21T01:41:49.122Z</time>
      </trkpt>
      <trkpt lat="59.41656491719186" lon="13.832742981612682">
        <ele>53.26</ele>
        <time>2025-02-21T01:42:51.701Z</time>
      </trkpt>
      <trkpt lat="59.41662099212408" lon="13.832682967185974">
        <ele>53.32</ele>
        <time>2025-02-21T01:43:54.281Z</time>
      </trkpt>
      <trkpt lat="59.416673965752125" lon="13.832621946930885">
        <ele>53.38</ele>
        <time>2025-02-21T01:44:56.862Z</time>
      </trkpt>
      <trkpt lat="59.41672593355179" lon="13.832554975524545">
        <ele>53.43</ele>
        <time>2025-02-21T01:45:59.444Z</time>
      </trkpt>
      <trkpt lat="59.416779996827245" lon="13.832483980804682">
        <ele>53.48</ele>
        <time>2025-02-21T01:47:02.027Z</time>
      </trkpt>
      <trkpt lat="59.41683297045529" lon="13.832411980256438">
        <ele>53.54</ele>
        <time>2025-02-21T01:48:04.611Z</time>
      </trkpt>
      <trkpt lat="59.41688393242657" lon="13.83233293890953">
        <ele>53.59</ele>
        <time>2025-02-21T01:49:07.196Z</time>
      </trkpt>
      <trkpt lat="59.416933972388506" lon="13.832250963896513">
        <ele>53.65</ele>
        <time>2025-02-21T01:50:09.782Z</time>
      </trkpt>
      <trkpt lat="59.41698191687465" lon="13.832166977226734">
        <ele>53.7</ele>
        <time>2025-02-21T01:51:12.369Z</time>
      </trkpt>
      <trkpt lat="59.41702793352306" lon="13.832079973071814">
        <ele>53.75</ele>
        <time>2025-02-21T01:52:14.957Z</time>
      </trkpt>
      <trkpt lat="59.41707193851471" lon="13.831990957260132">
        <ele>53.79</ele>
        <time>2025-02-21T01:53:17.546Z</time>
      </trkpt>
      <trkpt lat="59.41711594350636" lon="13.831897918134928">
        <ele>53.84</ele>
        <time>2025-02-21T01:54:20.136Z</time>
      </trkpt>
      <trkpt lat="59.41715894266963" lon="13.831806974485517">
        <ele>53.88</ele>
        <time>2025-02-21T01:55:22.727Z</time>
      </trkpt>
      <trkpt lat="59.41720093600452" lon="13.831712929531932">
        <ele>53.93</ele>
        <time>2025-02-21T01:56:25.319Z</time>
      </trkpt>
      <trkpt lat="59.41724192351103" lon="13.83162098005414">
        <ele>53.98</ele>
        <time>2025-02-21T01:57:27.912Z</time>
      </trkpt>
      <trkpt lat="59.41728198900819" lon="13.831528946757317">
        <ele>54.02</ele>
        <time>2025-02-21T01:58:30.506Z</time>
      </trkpt>
      <trkpt lat="59.417319959029555" lon="13.831440936774015">
        <ele>54.06</ele>
        <time>2025-02-21T01:59:33.101Z</time>
      </trkpt>
      <trkpt lat="59.41735692322254" lon="13.831348987296224">
        <ele>54.1</ele>
        <time>2025-02-21T02:00:35.697Z</time>
      </trkpt>
      <trkpt lat="59.41739296540618" lon="13.831253936514258">
        <ele>54.13</ele>
        <time>2025-02-21T02:01:38.294Z</time>
      </trkpt>
      <trkpt lat="59.417429929599166" lon="13.831157963722944">
        <ele>54.17</ele>
        <time>2025-02-21T02:02:40.892Z</time>
      </trkpt>
      <trkpt lat="59.41746396012604" lon="13.83106391876936">
        <ele>54.21</ele>
        <time>2025-02-21T02:03:43.491Z</time>
      </trkpt>
      <trkpt lat="59.41749799065292" lon="13.830968951806426">
        <ele>54.24</ele>
        <time>2025-02-21T02:04:46.091Z</time>
      </trkpt>
      <trkpt lat="59.417532943189144" lon="13.830873984843493">
        <ele>54.27</ele>
        <time>2025-02-21T02:05:48.692Z</time>
      </trkpt>
      <trkpt lat="59.41756596788764" lon="13.830777928233147">
        <ele>54.3</ele>
        <time>2025-02-21T02:06:51.294Z</time>
      </trkpt>
      <trkpt lat="59.417597986757755" lon="13.830679943785071">
        <ele>54.33</ele>
        <time>2025-02-21T02:07:53.897Z</time>
      </trkpt>
      <trkpt lat="59.41762992180884" lon="13.830580953508615">
        <ele>54.36</ele>
        <time>2025-02-21T02:08:56.501Z</time>
      </trkpt>
      <trkpt lat="59.41766093485057" lon="13.83048296906054">
        <ele>54.37</ele>
        <time>2025-02-21T02:09:59.106Z</time>
      </trkpt>
      <trkpt lat="59.41769094206393" lon="13.830387918278575">
        <ele>54.39</ele>
        <time>2025-02-21T02:11:01.712Z</time>
      </trkpt>
      <trkpt lat="59.4177199434489" lon="13.83029093965888">
        <ele>54.4</ele>
        <time>2025-02-21T02:12:04.319Z</time>
      </trkpt>
      <trkpt lat="59.417747939005494" lon="13.830192955210805">
        <ele>54.41</ele>
        <time>2025-02-21T02:13:06.927Z</time>
      </trkpt>
      <trkpt lat="59.41777794621885" lon="13.830092959105968">
        <ele>54.42</ele>
        <time>2025-02-21T02:14:09.536Z</time>
      </trkpt>
      <trkpt lat="59.41780895926058" lon="13.82999095134437">
        <ele>54.42</ele>
        <time>2025-02-21T02:15:12.146Z</time>
      </trkpt>
      <trkpt lat="59.41783896647394" lon="13.829889949411154">
        <ele>54.42</ele>
        <time>2025-02-21T02:16:14.757Z</time>
      </trkpt>
      <trkpt lat="59.41787098534405" lon="13.829791964963078">
        <ele>54.42</ele>
        <time>2025-02-21T02:17:17.368Z</time>
      </trkpt>
      <trkpt lat="59.417900992557406" lon="13.82968995720148">
        <ele>54.42</ele>
        <time>2025-02-21T02:18:19.980Z</time>
      </trkpt>
      <trkpt lat="59.417928988114" lon="13.829588955268264">
        <ele>54.42</ele>
        <time>2025-02-21T02:19:22.593Z</time>
      </trkpt>
      <trkpt lat="59.41795798949897" lon="13.829490970820189">
        <ele>54.41</ele>
        <time>2025-02-21T02:20:25.207Z</time>
      </trkpt>
      <trkpt lat="59.41798799671233" lon="13.829398937523365">
        <ele>54.41</ele>
        <time>2025-02-21T02:21:27.822Z</time>
      </trkpt>
      <trkpt lat="59.41801892593503" lon="13.829304976388812">
        <ele>54.4</ele>
        <time>2025-02-21T02:22:30.438Z</time>
      </trkpt>
      <trkpt lat="59.41804692149162" lon="13.829212943091989">
        <ele>54.38</ele>
        <time>2025-02-21T02:23:33.055Z</time>
      </trkpt>
      <trkpt lat="59.418074917048216" lon="13.829122921451926">
        <ele>54.36</ele>
        <time>2025-02-21T02:24:35.673Z</time>
      </trkpt>
      <trkpt lat="59.41810391843319" lon="13.829031977802515">
        <ele>54.33</ele>
        <time>2025-02-21T02:25:38.292Z</time>
      </trkpt>
      <trkpt lat="59.41813392564654" lon="13.828940950334072">
        <ele>54.31</ele>
        <time>2025-02-21T02:26:40.912Z</time>
      </trkpt>
      <trkpt lat="59.41816493868828" lon="13.8288479950279">
        <ele>54.28</ele>
        <time>2025-02-21T02:27:43.533Z</time>
      </trkpt>
      <trkpt lat="59.41819595173001" lon="13.828749926760793">
        <ele>54.25</ele>
        <time>2025-02-21T02:28:46.154Z</time>
      </trkpt>
      <trkpt lat="59.41822696477175" lon="13.82865495979786">
        <ele>54.21</ele>
        <time>2025-02-21T02:29:48.776Z</time>
      </trkpt>
      <trkpt lat="59.41825797781348" lon="13.828561920672655">
        <ele>54.17</ele>
        <time>2025-02-21T02:30:51.399Z</time>
      </trkpt>
      <trkpt lat="59.418286979198456" lon="13.828465947881341">
        <ele>54.13</ele>
        <time>2025-02-21T02:31:54.023Z</time>
      </trkpt>
      <trkpt lat="59.41831799224019" lon="13.828367963433266">
        <ele>54.08</ele>
        <time>2025-02-21T02:32:56.648Z</time>
      </trkpt>
      <trkpt lat="59.418347999453545" lon="13.82826897315681">
        <ele>54.03</ele>
        <time>2025-02-21T02:33:59.274Z</time>
      </trkpt>
      <trkpt lat="59.418376917019486" lon="13.828166965395212">
        <ele>53.97</ele>
        <time>2025-02-21T02:35:01.901Z</time>
      </trkpt>
      <trkpt lat="59.41840692423284" lon="13.828062945976853">
        <ele>53.91</ele>
        <time>2025-02-21T02:36:04.529Z</time>
      </trkpt>
      <trkpt lat="59.418433997780085" lon="13.827960938215256">
        <ele>53.85</ele>
        <time>2025-02-21T02:37:07.158Z</time>
      </trkpt>
      <trkpt lat="59.41846299916506" lon="13.827856918796897">
        <ele>53.79</ele>
        <time>2025-02-21T02:38:09.788Z</time>
      </trkpt>
      <trkpt lat="59.41849392838776" lon="13.82775591686368">
        <ele>53.72</ele>
        <time>2025-02-21T02:39:12.419Z</time>
      </trkpt>
      <trkpt lat="59.418525947257876" lon="13.827649969607592">
        <ele>53.65</ele>
        <time>2025-02-21T02:40:15.051Z</time>
      </trkpt>
      <trkpt lat="59.41855997778475" lon="13.827542932704091">
        <ele>53.57</ele>
        <time>2025-02-21T02:41:17.684Z</time>
      </trkpt>
      <trkpt lat="59.41859291866422" lon="13.827437991276383">
        <ele>53.5</ele>
        <time>2025-02-21T02:42:20.318Z</time>
      </trkpt>
      <trkpt lat="59.418627955019474" lon="13.827329948544502">
        <ele>53.42</ele>
        <time>2025-02-21T02:43:22.953Z</time>
      </trkpt>
      <trkpt lat="59.41866097971797" lon="13.827214948832989">
        <ele>53.34</ele>
        <time>2025-02-21T02:44:25.589Z</time>
      </trkpt>
      <trkpt lat="59.418693920597434" lon="13.827096931636333">
        <ele>53.25</ele>
        <time>2025-02-21T02:45:28.226Z</time>
      </trkpt>
      <trkpt lat="59.41872694529593" lon="13.826975980773568">
        <ele>53.16</ele>
        <time>2025-02-21T02:46:30.864Z</time>
      </trkpt>
      <trkpt lat="59.418760975822806" lon="13.826850922778249">
        <ele>53.07</ele>
        <time>2025-02-21T02:47:33.503Z</time>
      </trkpt>
      <trkpt lat="59.41879098303616" lon="13.826720919460058">
        <ele>52.98</ele>
        <time>2025-02-21T02:48:36.144Z</time>
      </trkpt>
      <trkpt lat="59.418819984421134" lon="13.826586976647377">
        <ele>52.88</ele>
        <time>2025-02-21T02:49:38.786Z</time>
      </trkpt>
      <trkpt lat="59.41884797997773" lon="13.826446998864412">
        <ele>52.78</ele>
        <time>2025-02-21T02:50:41.429Z</time>
      </trkpt>
      <trkpt lat="59.41887396387756" lon="13.826303919777274">
        <ele>52.68</ele>
        <time>2025-02-21T02:51:44.073Z</time>
      </trkpt>
      <trkpt lat="59.41889793612063" lon="13.826153967529535">
        <ele>52.59</ele>
        <time>2025-02-21T02:52:46.719Z</time>
      </trkpt>
      <trkpt lat="59.41892098635435" lon="13.826002925634384">
        <ele>52.49</ele>
        <time>2025-02-21T02:53:49.366Z</time>
      </trkpt>
      <trkpt lat="59.41894697025418" lon="13.825850961729884">
        <ele>52.39</ele>
        <time>2025-02-21T02:54:52.014Z</time>
      </trkpt>
      <trkpt lat="59.41896993666887" lon="13.82569095119834">
        <ele>52.28</ele>
        <time>2025-02-21T02:55:54.664Z</time>
      </trkpt>
      <trkpt lat="59.41898896358907" lon="13.825527923181653">
        <ele>52.17</ele>
        <time>2025-02-21T02:56:57.315Z</time>
      </trkpt>
      <trkpt lat="59.41900799050927" lon="13.825365984812379">
        <ele>52.07</ele>
        <time>2025-02-21T02:57:59.967Z</time>
      </trkpt>
      <trkpt lat="59.41902492195368" lon="13.825200945138931">
        <ele>51.97</ele>
        <time>2025-02-21T02:59:02.621Z</time>
      </trkpt>
      <trkpt lat="59.419038919731975" lon="13.825035989284515">
        <ele>51.86</ele>
        <time>2025-02-21T03:00:05.276Z</time>
      </trkpt>
      <trkpt lat="59.41905392333865" lon="13.824871955439448">
        <ele>51.75</ele>
        <time>2025-02-21T03:01:07.932Z</time>
      </trkpt>
      <trkpt lat="59.41906792111695" lon="13.824708927422762">
        <ele>51.64</ele>
        <time>2025-02-21T03:02:10.590Z</time>
      </trkpt>
      <trkpt lat="59.419081918895245" lon="13.824542965739965">
        <ele>51.52</ele>
        <time>2025-02-21T03:03:13.249Z</time>
      </trkpt>
      <trkpt lat="59.41909591667354" lon="13.824378931894898">
        <ele>51.41</ele>
        <time>2025-02-21T03:04:15.909Z</time>
      </trkpt>
      <trkpt lat="59.41910899244249" lon="13.824205929413438">
        <ele>51.31</ele>
        <time>2025-02-21T03:05:18.571Z</time>
      </trkpt>
      <trkpt lat="59.41911896690726" lon="13.824029993265867">
        <ele>51.2</ele>
        <time>2025-02-21T03:06:21.234Z</time>
      </trkpt>
      <trkpt lat="59.419126929715276" lon="13.823854979127645">
        <ele>51.09</ele>
        <time>2025-02-21T03:07:23.899Z</time>
      </trkpt>
      <trkpt lat="59.41913296468556" lon="13.823675941675901">
        <ele>50.99</ele>
        <time>2025-02-21T03:08:26.565Z</time>
      </trkpt>
      <trkpt lat="59.41913698799908" lon="13.823490953072906">
        <ele>50.87</ele>
        <time>2025-02-21T03:09:29.233Z</time>
      </trkpt>
      <trkpt lat="59.41914092749357" lon="13.823304958641529">
        <ele>50.76</ele>
        <time>2025-02-21T03:10:31.902Z</time>
      </trkpt>
      <trkpt lat="59.419143944978714" lon="13.823118964210153">
        <ele>50.65</ele>
        <time>2025-02-21T03:11:34.573Z</time>
      </trkpt>
      <trkpt lat="59.419146962463856" lon="13.822922995314002">
        <ele>50.54</ele>
        <time>2025-02-21T03:12:37.245Z</time>
      </trkpt>
      <trkpt lat="59.41914897412062" lon="13.822721997275949">
        <ele>50.43</ele>
        <time>2025-02-21T03:13:39.919Z</time>
      </trkpt>
      <trkpt lat="59.419149979949" lon="13.822519993409514">
        <ele>50.33</ele>
        <time>2025-02-21T03:14:42.595Z</time>
      </trkpt>
      <trkpt lat="59.41915098577738" lon="13.8223169837147">
        <ele>50.21</ele>
        <time>2025-02-21T03:15:45.272Z</time>
      </trkpt>
      <trkpt lat="59.41914897412062" lon="13.822114979848266">
        <ele>50.11</ele>
        <time>2025-02-21T03:16:47.951Z</time>
      </trkpt>
      <trkpt lat="59.419147968292236" lon="13.821912975981832">
        <ele>50.01</ele>
        <time>2025-02-21T03:17:50.632Z</time>
      </trkpt>
      <trkpt lat="59.419145956635475" lon="13.821708960458636">
        <ele>49.9</ele>
        <time>2025-02-21T03:18:53.314Z</time>
      </trkpt>
      <trkpt lat="59.419144950807095" lon="13.821504944935441">
        <ele>49.8</ele>
        <time>2025-02-21T03:19:55.998Z</time>
      </trkpt>
      <trkpt lat="59.419143944978714" lon="13.821295984089375">
        <ele>49.71</ele>
        <time>2025-02-21T03:20:58.684Z</time>
      </trkpt>
      <trkpt lat="59.419143944978714" lon="13.821088951081038">
        <ele>49.62</ele>
        <time>2025-02-21T03:22:01.371Z</time>
      </trkpt>
      <trkpt lat="59.41913992166519" lon="13.82087898440659">
        <ele>49.53</ele>
        <time>2025-02-21T03:23:04.060Z</time>
      </trkpt>
      <trkpt lat="59.41913698799908" lon="13.820671951398253">
        <ele>49.45</ele>
        <time>2025-02-21T03:24:06.751Z</time>
      </trkpt>
      <trkpt lat="59.41913397051394" lon="13.820466930046678">
        <ele>49.35</ele>
        <time>2025-02-21T03:25:09.443Z</time>
      </trkpt>
      <trkpt lat="59.419127935543656" lon="13.820259980857372">
        <ele>49.26</ele>
        <time>2025-02-21T03:26:12.137Z</time>
      </trkpt>
      <trkpt lat="59.41911896690726" lon="13.820047918707132">
        <ele>49.18</ele>
        <time>2025-02-21T03:27:14.833Z</time>
      </trkpt>
      <trkpt lat="59.41910899244249" lon="13.819830995053053">
        <ele>49.1</ele>
        <time>2025-02-21T03:28:17.531Z</time>
      </trkpt>
      <trkpt lat="59.4190979283303" lon="13.819616921246052">
        <ele>49.02</ele>
        <time>2025-02-21T03:29:20.230Z</time>
      </trkpt>
      <trkpt lat="59.41908594220877" lon="13.819402931258082">
        <ele>48.95</ele>
        <time>2025-02-21T03:30:22.931Z</time>
      </trkpt>
      <trkpt lat="59.41907295025885" lon="13.819187935441732">
        <ele>48.87</ele>
        <time>2025-02-21T03:31:25.634Z</time>
      </trkpt>
      <trkpt lat="59.419061969965696" lon="13.818974951282144">
        <ele>48.8</ele>
        <time>2025-02-21T03:32:28.339Z</time>
      </trkpt>
      <trkpt lat="59.41904696635902" lon="13.818761967122555">
        <ele>48.74</ele>
        <time>2025-02-21T03:33:31.045Z</time>
      </trkpt>
      <trkpt lat="59.4190289452672" lon="13.818549988791347">
        <ele>48.67</ele>
        <time>2025-02-21T03:34:33.753Z</time>
      </trkpt>
      <trkpt lat="59.41901193000376" lon="13.81834496743977">
        <ele>48.61</ele>
        <time>2025-02-21T03:35:36.463Z</time>
      </trkpt>
      <trkpt lat="59.418991981074214" lon="13.818145981058478">
        <ele>48.55</ele>
        <time>2025-02-21T03:36:39.175Z</time>
      </trkpt>
      <trkpt lat="59.418973959982395" lon="13.817950934171677">
        <ele>48.5</ele>
        <time>2025-02-21T03:37:41.888Z</time>
      </trkpt>
      <trkpt lat="59.41895795054734" lon="13.817754965275526">
        <ele>48.45</ele>
        <time>2025-02-21T03:38:44.603Z</time>
      </trkpt>
      <trkpt lat="59.4189459644258" lon="13.817557990550995">
        <ele>48.4</ele>
        <time>2025-02-21T03:39:47.319Z</time>
      </trkpt>
      <trkpt lat="59.41893699578941" lon="13.817361937835813">
        <ele>48.35</ele>
        <time>2025-02-21T03:40:50.037Z</time>
      </trkpt>
      <trkpt lat="59.418928949162364" lon="13.817166974768043">
        <ele>48.31</ele>
        <time>2025-02-21T03:41:52.757Z</time>
      </trkpt>
      <trkpt lat="59.41891998052597" lon="13.816972933709621">
        <ele>48.28</ele>
        <time>2025-02-21T03:42:55.478Z</time>
      </trkpt>
      <trkpt lat="59.41891495138407" lon="13.816780988126993">
        <ele>48.26</ele>
        <time>2025-02-21T03:43:58.201Z</time>
      </trkpt>
      <trkpt lat="59.41891394555569" lon="13.816588958725333">
        <ele>48.24</ele>
        <time>2025-02-21T03:45:00.925Z</time>
      </trkpt>
      <trkpt lat="59.41891394555569" lon="13.816401958465576">
        <ele>48.22</ele>
        <time>2025-02-21T03:46:03.651Z</time>
      </trkpt>
      <trkpt lat="59.41891595721245" lon="13.81621797569096">
        <ele>48.21</ele>
        <time>2025-02-21T03:47:06.378Z</time>
      </trkpt>
      <trkpt lat="59.41892199218273" lon="13.816038938239217">
        <ele>48.19</ele>
        <time>2025-02-21T03:48:09.107Z</time>
      </trkpt>
      <trkpt lat="59.418930960819125" lon="13.815857972949743">
        <ele>48.19</ele>
        <time>2025-02-21T03:49:11.837Z</time>
      </trkpt>
      <trkpt lat="59.41894294694066" lon="13.815677929669619">
        <ele>48.19</ele>
        <time>2025-02-21T03:50:14.569Z</time>
      </trkpt>
      <trkpt lat="59.418954933062196" lon="13.815501993522048">
        <ele>48.19</ele>
        <time>2025-02-21T03:51:17.302Z</time>
      </trkpt>
      <trkpt lat="59.41896691918373" lon="13.815329996868968">
        <ele>48.2</ele>
        <time>2025-02-21T03:52:20.037Z</time>
      </trkpt>
      <trkpt lat="59.41897697746754" lon="13.815159928053617">
        <ele>48.21</ele>
        <time>2025-02-21T03:53:22.773Z</time>
      </trkpt>
      <trkpt lat="59.41898594610393" lon="13.814993966370821">
        <ele>48.22</ele>
        <time>2025-02-21T03:54:25.510Z</time>
      </trkpt>
      <trkpt lat="59.418995920568705" lon="13.814831944182515">
        <ele>48.24</ele>
        <time>2025-02-21T03:55:28.249Z</time>
      </trkpt>
      <trkpt lat="59.41900698468089" lon="13.81467193365097">
        <ele>48.27</ele>
        <time>2025-02-21T03:56:30.989Z</time>
      </trkpt>
      <trkpt lat="59.419017964974046" lon="13.814515946432948">
        <ele>48.3</ele>
        <time>2025-02-21T03:57:33.730Z</time>
      </trkpt>
      <trkpt lat="59.4190289452672" lon="13.814359959214926">
        <ele>48.34</ele>
        <time>2025-02-21T03:58:36.473Z</time>
      </trkpt>
      <trkpt lat="59.419041937217116" lon="13.814205983653665">
        <ele>48.38</ele>
        <time>2025-02-21T03:59:39.217Z</time>
      </trkpt>
      <trkpt lat="59.41905492916703" lon="13.814053935930133">
        <ele>48.43</ele>
        <time>2025-02-21T04:00:41.962Z</time>
      </trkpt>
      <trkpt lat="59.41906498745084" lon="13.813898954540491">
        <ele>48.48</ele>
        <time>2025-02-21T04:01:44.709Z</time>
      </trkpt>
      <trkpt lat="59.41907395608723" lon="13.813746990635991">
        <ele>48.54</ele>
        <time>2025-02-21T04:02:47.457Z</time>
      </trkpt>
      <trkpt lat="59.419082924723625" lon="13.813592931255698">
        <ele>48.61</ele>
        <time>2025-02-21T04:03:50.206Z</time>
      </trkpt>
      <trkpt lat="59.41909197717905" lon="13.813437949866056">
        <ele>48.68</ele>
        <time>2025-02-21T04:04:52.956Z</time>
      </trkpt>
      <trkpt lat="59.419101951643825" lon="13.813283974304795">
        <ele>48.75</ele>
        <time>2025-02-21T04:05:55.708Z</time>
      </trkpt>
      <trkpt lat="59.41911293193698" lon="13.813133938238025">
        <ele>48.83</ele>
        <time>2025-02-21T04:06:58.461Z</time>
      </trkpt>
      <trkpt lat="59.419124918058515" lon="13.812987925484776">
        <ele>48.91</ele>
        <time>2025-02-21T04:08:01.215Z</time>
      </trkpt>
      <trkpt lat="59.4191359821707" lon="13.81284493021667">
        <ele>48.99</ele>
        <time>2025-02-21T04:09:03.970Z</time>
      </trkpt>
      <trkpt lat="59.419146962463856" lon="13.812702940776944">
        <ele>49.09</ele>
        <time>2025-02-21T04:10:06.726Z</time>
      </trkpt>
      <trkpt lat="59.41915693692863" lon="13.812567992135882">
        <ele>49.19</ele>
        <time>2025-02-21T04:11:09.484Z</time>
      </trkpt>
      <trkpt lat="59.419166995212436" lon="13.81243497133255">
        <ele>49.29</ele>
        <time>2025-02-21T04:12:12.243Z</time>
      </trkpt>
      <trkpt lat="59.41917696967721" lon="13.81230597384274">
        <ele>49.4</ele>
        <time>2025-02-21T04:13:15.003Z</time>
      </trkpt>
      <trkpt lat="59.419186944141984" lon="13.81217597052455">
        <ele>49.51</ele>
        <time>2025-02-21T04:14:17.764Z</time>
      </trkpt>
      <trkpt lat="59.41919691860676" lon="13.812041943892837">
        <ele>49.62</ele>
        <time>2025-02-21T04:15:20.526Z</time>
      </trkpt>
      <trkpt lat="59.41920597106218" lon="13.811908923089504">
        <ele>49.74</ele>
        <time>2025-02-21T04:16:23.289Z</time>
      </trkpt>
      <trkpt lat="59.419213933870196" lon="13.811772968620062">
        <ele>49.87</ele>
        <time>2025-02-21T04:17:26.053Z</time>
      </trkpt>
      <trkpt lat="59.41922198049724" lon="13.811642965301871">
        <ele>50.0</ele>
        <time>2025-02-21T04:18:28.818Z</time>
      </trkpt>
      <trkpt lat="59.419230949133635" lon="13.81151095032692">
        <ele>50.13</ele>
        <time>2025-02-21T04:19:31.584Z</time>
      </trkpt>
      <trkpt lat="59.41923899576068" lon="13.811378935351968">
        <ele>50.28</ele>
        <time>2025-02-21T04:20:34.351Z</time>
      </trkpt>
      <trkpt lat="59.41924695856869" lon="13.811247926205397">
        <ele>50.42</ele>
        <time>2025-02-21T04:21:37.119Z</time>
      </trkpt>
      <trkpt lat="59.41925894469023" lon="13.811117922887206">
        <ele>50.57</ele>
        <time>2025-02-21T04:22:39.888Z</time>
      </trkpt>
      <trkpt lat="59.41926992498338" lon="13.810986997559667">
        <ele>50.73</ele>
        <time>2025-02-21T04:23:42.659Z</time>
      </trkpt>
      <trkpt lat="59.41927897743881" lon="13.810850959271193">
        <ele>50.88</ele>
        <time>2025-02-21T04:24:45.431Z</time>
      </trkpt>
      <trkpt lat="59.41928995773196" lon="13.81071399897337">
        <ele>51.05</ele>
        <time>2025-02-21T04:25:48.204Z</time>
      </trkpt>
      <trkpt lat="59.4193019438535" lon="13.810575949028134">
        <ele>51.21</ele>
        <time>2025-02-21T04:26:50.978Z</time>
      </trkpt>
      <trkpt lat="59.41931292414665" lon="13.810433959588408">
        <ele>51.38</ele>
        <time>2025-02-21T04:27:53.753Z</time>
      </trkpt>
      <trkpt lat="59.41932499408722" lon="13.810290964320302">
        <ele>51.56</ele>
        <time>2025-02-21T04:28:56.529Z</time>
      </trkpt>
      <trkpt lat="59.419336980208755" lon="13.810149980708957">
        <ele>51.73</ele>
        <time>2025-02-21T04:29:59.306Z</time>
      </trkpt>
      <trkpt lat="59.41934594884515" lon="13.810008997097611">
        <ele>51.91</ele>
        <time>2025-02-21T04:31:02.085Z</time>
      </trkpt>
      <trkpt lat="59.41935399547219" lon="13.809872958809137">
        <ele>52.1</ele>
        <time>2025-02-21T04:32:04.865Z</time>
      </trkpt>
      <trkpt lat="59.41936396993697" lon="13.809736920520663">
        <ele>52.3</ele>
        <time>2025-02-21T04:33:07.646Z</time>
      </trkpt>
      <trkpt lat="59.41937495023012" lon="13.80959996022284">
        <ele>52.49</ele>
        <time>2025-02-21T04:34:10.428Z</time>
      </trkpt>
      <trkpt lat="59.419384924694896" lon="13.80946895107627">
        <ele>52.7</ele>
        <time>2025-02-21T04:35:13.211Z</time>
      </trkpt>
      <trkpt lat="59.41939598880708" lon="13.809335930272937">
        <ele>52.9</ele>
        <time>2025-02-21T04:36:15.995Z</time>
      </trkpt>
      <trkpt lat="59.419404957443476" lon="13.809204921126366">
        <ele>53.11</ele>
        <time>2025-02-21T04:37:18.780Z</time>
      </trkpt>
      <trkpt lat="59.41941292025149" lon="13.809073995798826">
        <ele>53.33</ele>
        <time>2025-02-21T04:38:21.566Z</time>
      </trkpt>
      <trkpt lat="59.419423984363675" lon="13.808939969167113">
        <ele>53.55</ele>
        <time>2025-02-21T04:39:24.353Z</time>
      </trkpt>
      <trkpt lat="59.41943395882845" lon="13.808802925050259">
        <ele>53.77</ele>
        <time>2025-02-21T04:40:27.142Z</time>
      </trkpt>
      <trkpt lat="59.41944292746484" lon="13.808665964752436">
        <ele>54.0</ele>
        <time>2025-02-21T04:41:29.932Z</time>
      </trkpt>
      <trkpt lat="59.41945197992027" lon="13.808531938120723">
        <ele>54.23</ele>
        <time>2025-02-21T04:42:32.723Z</time>
      </trkpt>
      <trkpt lat="59.41946094855666" lon="13.808397995308042">
        <ele>54.47</ele>
        <time>2025-02-21T04:43:35.515Z</time>
      </trkpt>
      <trkpt lat="59.419469917193055" lon="13.808268997818232">
        <ele>54.71</ele>
        <time>2025-02-21T04:44:38.308Z</time>
      </trkpt>
      <trkpt lat="59.41947695799172" lon="13.80813991650939">
        <ele>54.96</ele>
        <time>2025-02-21T04:45:41.102Z</time>
      </trkpt>
      <trkpt lat="59.41948399879038" lon="13.808009997010231">
        <ele>55.2</ele>
        <time>2025-02-21T04:46:43.897Z</time>
      </trkpt>
      <trkpt lat="59.419490955770016" lon="13.80787999369204">
        <ele>55.45</ele>
        <time>2025-02-21T04:47:46.693Z</time>
      </trkpt>
      <trkpt lat="59.41949992440641" lon="13.807742949575186">
        <ele>55.7</ele>
        <time>2025-02-21T04:48:49.490Z</time>
      </trkpt>
      <trkpt lat="59.419510988518596" lon="13.807609928771853">
        <ele>55.95</ele>
        <time>2025-02-21T04:49:52.288Z</time>
      </trkpt>
      <trkpt lat="59.41952096298337" lon="13.807476991787553">
        <ele>56.21</ele>
        <time>2025-02-21T04:50:55.088Z</time>
      </trkpt>
      <trkpt lat="59.41952892579138" lon="13.807348916307092">
        <ele>56.47</ele>
        <time>2025-02-21T04:51:57.889Z</time>
      </trkpt>
      <trkpt lat="59.419534960761666" lon="13.807220924645662">
        <ele>56.73</ele>
        <time>2025-02-21T04:53:00.691Z</time>
      </trkpt>
      <trkpt lat="59.41954099573195" lon="13.807093938812613">
        <ele>56.99</ele>
        <time>2025-02-21T04:54:03.494Z</time>
      </trkpt>
      <trkpt lat="59.41954895853996" lon="13.806968964636326">
        <ele>57.26</ele>
        <time>2025-02-21T04:55:06.298Z</time>
      </trkpt>
      <trkpt lat="59.419554993510246" lon="13.806845918297768">
        <ele>57.53</ele>
        <time>2025-02-21T04:56:09.103Z</time>
      </trkpt>
      <trkpt lat="59.4195609446615" lon="13.80672194994986">
        <ele>57.8</ele>
        <time>2025-02-21T04:57:11.909Z</time>
      </trkpt>
      <trkpt lat="59.41956697963178" lon="13.806600999087095">
        <ele>58.07</ele>
        <time>2025-02-21T04:58:14.716Z</time>
      </trkpt>
      <trkpt lat="59.419573936611414" lon="13.806487927213311">
        <ele>58.35</ele>
        <time>2025-02-21T04:59:17.524Z</time>
      </trkpt>
      <trkpt lat="59.4195799715817" lon="13.8063779566437">
        <ele>58.63</ele>
        <time>2025-02-21T05:00:20.333Z</time>
      </trkpt>
      <trkpt lat="59.41958793438971" lon="13.806265974417329">
        <ele>58.91</ele>
        <time>2025-02-21T05:01:23.143Z</time>
      </trkpt>
      <trkpt lat="59.419593969359994" lon="13.806159943342209">
        <ele>59.19</ele>
        <time>2025-02-21T05:02:25.953Z</time>
      </trkpt>
      <trkpt lat="59.419599920511246" lon="13.80605491809547">
        <ele>59.47</ele>
        <time>2025-02-21T05:03:28.764Z</time>
      </trkpt>
      <trkpt lat="59.41960595548153" lon="13.80594695918262">
        <ele>59.76</ele>
        <time>2025-02-21T05:04:31.576Z</time>
      </trkpt>
      <trkpt lat="59.41961391828954" lon="13.805846963077784">
        <ele>60.04</ele>
        <time>2025-02-21T05:05:34.389Z</time>
      </trkpt>
      <trkpt lat="59.419620959088206" lon="13.805747972801328">
        <ele>60.33</ele>
        <time>2025-02-21T05:06:37.203Z</time>
      </trkpt>
      <trkpt lat="59.41962699405849" lon="13.805653927847743">
        <ele>60.62</ele>
        <time>2025-02-21T05:07:40.018Z</time>
      </trkpt>
      <trkpt lat="59.41963395103812" lon="13.805561978369951">
        <ele>60.91</ele>
        <time>2025-02-21T05:08:42.833Z</time>
      </trkpt>
      <trkpt lat="59.419642919674516" lon="13.805466927587986">
        <ele>61.19</ele>
        <time>2025-02-21T05:09:45.649Z</time>
      </trkpt>
      <trkpt lat="59.41965096630156" lon="13.805374978110194">
        <ele>61.48</ele>
        <time>2025-02-21T05:10:48.466Z</time>
      </trkpt>
      <trkpt lat="59.41965792328119" lon="13.805293925106525">
        <ele>61.76</ele>
        <time>2025-02-21T05:11:51.284Z</time>
      </trkpt>
      <trkpt lat="59.41966496407986" lon="13.805213961750269">
        <ele>62.05</ele>
        <time>2025-02-21T05:12:54.102Z</time>
      </trkpt>
      <trkpt lat="59.41967393271625" lon="13.805131986737251">
        <ele>62.33</ele>
        <time>2025-02-21T05:13:56.921Z</time>
      </trkpt>
      <trkpt lat="59.41967795602977" lon="13.805053951218724">
        <ele>62.62</ele>
        <time>2025-02-21T05:14:59.741Z</time>
      </trkpt>
      <trkpt lat="59.419682985171676" lon="13.804974993690848">
        <ele>62.9</ele>
        <time>2025-02-21T05:16:02.561Z</time>
      </trkpt>
      <trkpt lat="59.41968893632293" lon="13.804891929030418">
        <ele>63.19</ele>
        <time>2025-02-21T05:17:05.382Z</time>
      </trkpt>
      <trkpt lat="59.41969698294997" lon="13.8048099540174">
        <ele>63.48</ele>
        <time>2025-02-21T05:18:08.204Z</time>
      </trkpt>
      <trkpt lat="59.419704945757985" lon="13.804727979004383">
        <ele>63.76</ele>
        <time>2025-02-21T05:19:11.026Z</time>
      </trkpt>
      <trkpt lat="59.41971492022276" lon="13.804643992334604">
        <ele>64.05</ele>
        <time>2025-02-21T05:20:13.849Z</time>
      </trkpt>
      <trkpt lat="59.419722966849804" lon="13.804556988179684">
        <ele>64.33</ele>
        <time>2025-02-21T05:21:16.673Z</time>
      </trkpt>
      <trkpt lat="59.419726990163326" lon="13.804467972368002">
        <ele>64.61</ele>
        <time>2025-02-21T05:22:19.497Z</time>
      </trkpt>
      <trkpt lat="59.4197319354862" lon="13.804385997354984">
        <ele>64.89</ele>
        <time>2025-02-21T05:23:22.322Z</time>
      </trkpt>
      <trkpt lat="59.41973897628486" lon="13.804309973493218">
        <ele>65.16</ele>
        <time>2025-02-21T05:24:25.148Z</time>
      </trkpt>
      <trkpt lat="59.419747944921255" lon="13.804236967116594">
        <ele>65.44</ele>
        <time>2025-02-21T05:25:27.974Z</time>
      </trkpt>
      <trkpt lat="59.41975791938603" lon="13.804159937426448">
        <ele>65.72</ele>
        <time>2025-02-21T05:26:30.801Z</time>
      </trkpt>
      <trkpt lat="59.419766971841455" lon="13.804079974070191">
        <ele>65.99</ele>
        <time>2025-02-21T05:27:33.629Z</time>
      </trkpt>
      <trkpt lat="59.41977694630623" lon="13.804004956036806">
        <ele>66.26</ele>
        <time>2025-02-21T05:28:36.457Z</time>
      </trkpt>
      <trkpt lat="59.41978398710489" lon="13.803926920518279">
        <ele>66.53</ele>
        <time>2025-02-21T05:29:39.286Z</time>
      </trkpt>
      <trkpt lat="59.419792955741286" lon="13.80384393967688">
        <ele>66.8</ele>
        <time>2025-02-21T05:30:42.116Z</time>
      </trkpt>
      <trkpt lat="59.41979999653995" lon="13.803767999634147">
        <ele>67.06</ele>
        <time>2025-02-21T05:31:44.946Z</time>
      </trkpt>
      <trkpt lat="59.4198059476912" lon="13.803692981600761">
        <ele>67.32</ele>
        <time>2025-02-21T05:32:47.777Z</time>
      </trkpt>
      <trkpt lat="59.419808965176344" lon="13.803619975224137">
        <ele>67.57</ele>
        <time>2025-02-21T05:33:50.608Z</time>
      </trkpt>
      <trkpt lat="59.419814916327596" lon="13.803543951362371">
        <ele>67.83</ele>
        <time>2025-02-21T05:34:53.440Z</time>
      </trkpt>
      <trkpt lat="59.41982095129788" lon="13.803470944985747">
        <ele>68.08</ele>
        <time>2025-02-21T05:35:56.273Z</time>
      </trkpt>
      <trkpt lat="59.41982799209654" lon="13.803398944437504">
        <ele>68.32</ele>
        <time>2025-02-21T05:36:59.106Z</time>
      </trkpt>
      <trkpt lat="59.41984198987484" lon="13.80332694388926">
        <ele>68.56</ele>
        <time>2025-02-21T05:38:01.940Z</time>
      </trkpt>
      <trkpt lat="59.41984995268285" lon="13.803262989968061">
        <ele>68.8</ele>
        <time>2025-02-21T05:39:04.774Z</time>
      </trkpt>
      <trkpt lat="59.4198579993099" lon="13.80319593474269">
        <ele>69.03</ele>
        <time>2025-02-21T05:40:07.609Z</time>
      </trkpt>
      <trkpt lat="59.41986495628953" lon="13.80313198082149">
        <ele>69.25</ele>
        <time>2025-02-21T05:41:10.445Z</time>
      </trkpt>
      <trkpt lat="59.41987291909754" lon="13.80306794308126">
        <ele>69.47</ele>
        <time>2025-02-21T05:42:13.281Z</time>
      </trkpt>
      <trkpt lat="59.41988197155297" lon="13.802997954189777">
        <ele>69.69</ele>
        <time>2025-02-21T05:43:16.118Z</time>
      </trkpt>
      <trkpt lat="59.41988792270422" lon="13.802928971126676">
        <ele>69.9</ele>
        <time>2025-02-21T05:44:18.955Z</time>
      </trkpt>
      <trkpt lat="59.4198939576745" lon="13.80285395309329">
        <ele>70.1</ele>
        <time>2025-02-21T05:45:21.793Z</time>
      </trkpt>
      <trkpt lat="59.419897980988026" lon="13.802776923403144">
        <ele>70.3</ele>
        <time>2025-02-21T05:46:24.632Z</time>
      </trkpt>
      <trkpt lat="59.41990594379604" lon="13.80270198918879">
        <ele>70.5</ele>
        <time>2025-02-21T05:47:27.471Z</time>
      </trkpt>
      <trkpt lat="59.41990996710956" lon="13.802619930356741">
        <ele>70.69</ele>
        <time>2025-02-21T05:48:30.311Z</time>
      </trkpt>
      <trkpt lat="59.41991399042308" lon="13.802534937858582">
        <ele>70.87</ele>
        <time>2025-02-21T05:49:33.152Z</time>
      </trkpt>
      <trkpt lat="59.419917929917574" lon="13.802450951188803">
        <ele>71.05</ele>
        <time>2025-02-21T05:50:35.993Z</time>
      </trkpt>
      <trkpt lat="59.41992396488786" lon="13.802372999489307">
        <ele>71.23</ele>
        <time>2025-02-21T05:51:38.835Z</time>
      </trkpt>
      <trkpt lat="59.41992798820138" lon="13.802297981455922">
        <ele>71.39</ele>
        <time>2025-02-21T05:52:41.677Z</time>
      </trkpt>
      <trkpt lat="59.41993192769587" lon="13.80222698673606">
        <ele>71.55</ele>
        <time>2025-02-21T05:53:44.520Z</time>
      </trkpt>
      <trkpt lat="59.41993595100939" lon="13.802160937339067">
        <ele>71.71</ele>
        <time>2025-02-21T05:54:47.364Z</time>
      </trkpt>
      <trkpt lat="59.419939974322915" lon="13.802091954275966">
        <ele>71.86</ele>
        <time>2025-02-21T05:55:50.208Z</time>
      </trkpt>
      <trkpt lat="59.41994399763644" lon="13.802024982869625">
        <ele>72.0</ele>
        <time>2025-02-21T05:56:53.053Z</time>
      </trkpt>
      <trkpt lat="59.41994793713093" lon="13.801958933472633">
        <ele>72.14</ele>
        <time>2025-02-21T05:57:55.898Z</time>
      </trkpt>
      <trkpt lat="59.41995397210121" lon="13.801895985379815">
        <ele>72.26</ele>
        <time>2025-02-21T05:58:58.744Z</time>
      </trkpt>
      <trkpt lat="59.41995891742408" lon="13.801834965124726">
        <ele>72.38</ele>
        <time>2025-02-21T06:00:01.590Z</time>
      </trkpt>
      <trkpt lat="59.419962940737605" lon="13.801775956526399">
        <ele>72.5</ele>
        <time>2025-02-21T06:01:04.437Z</time>
      </trkpt>
      <trkpt lat="59.41996897570789" lon="13.80171099677682">
        <ele>72.61</ele>
        <time>2025-02-21T06:02:07.284Z</time>
      </trkpt>
      <trkpt lat="59.41997392103076" lon="13.801645953208208">
        <ele>72.71</ele>
        <time>2025-02-21T06:03:10.132Z</time>
      </trkpt>
      <trkpt lat="59.41997895017266" lon="13.801579987630248">
        <ele>72.81</ele>
        <time>2025-02-21T06:04:12.980Z</time>
      </trkpt>
      <trkpt lat="59.41998699679971" lon="13.801517961546779">
        <ele>72.9</ele>
        <time>2025-02-21T06:05:15.829Z</time>
      </trkpt>
      <trkpt lat="59.41999898292124" lon="13.801453923806548">
        <ele>72.99</ele>
        <time>2025-02-21T06:06:18.678Z</time>
      </trkpt>
      <trkpt lat="59.420007951557636" lon="13.801388964056969">
        <ele>73.06</ele>
        <time>2025-02-21T06:07:21.528Z</time>
      </trkpt>
      <trkpt lat="59.42001692019403" lon="13.801317969337106">
        <ele>73.13</ele>
        <time>2025-02-21T06:08:24.379Z</time>
      </trkpt>
      <trkpt lat="59.420024966821074" lon="13.801250997930765">
        <ele>73.2</ele>
        <time>2025-02-21T06:09:27.230Z</time>
      </trkpt>
      <trkpt lat="59.42003192380071" lon="13.801182936877012">
        <ele>73.25</ele>
        <time>2025-02-21T06:10:30.082Z</time>
      </trkpt>
      <trkpt lat="59.42003695294261" lon="13.801115965470672">
        <ele>73.3</ele>
        <time>2025-02-21T06:11:32.934Z</time>
      </trkpt>
      <trkpt lat="59.420044999569654" lon="13.801042959094048">
        <ele>73.34</ele>
        <time>2025-02-21T06:12:35.787Z</time>
      </trkpt>
      <trkpt lat="59.42005597986281" lon="13.80095997825265">
        <ele>73.38</ele>
        <time>2025-02-21T06:13:38.641Z</time>
      </trkpt>
      <trkpt lat="59.4200649484992" lon="13.80087397992611">
        <ele>73.41</ele>
        <time>2025-02-21T06:14:41.495Z</time>
      </trkpt>
      <trkpt lat="59.42007492296398" lon="13.800781946629286">
        <ele>73.43</ele>
        <time>2025-02-21T06:15:44.350Z</time>
      </trkpt>
      <trkpt lat="59.420086992904544" lon="13.800684968009591">
        <ele>73.44</ele>
        <time>2025-02-21T06:16:47.206Z</time>
      </trkpt>
      <trkpt lat="59.42009696736932" lon="13.800581954419613">
        <ele>73.44</ele>
        <time>2025-02-21T06:17:50.063Z</time>
      </trkpt>
      <trkpt lat="59.420110965147614" lon="13.800474917516112">
        <ele>73.44</ele>
        <time>2025-02-21T06:18:52.921Z</time>
      </trkpt>
      <trkpt lat="59.42012596875429" lon="13.800355978310108">
        <ele>73.44</ele>
        <time>2025-02-21T06:19:55.780Z</time>
      </trkpt>
      <trkpt lat="59.420135943219066" lon="13.800238966941833">
        <ele>73.42</ele>
        <time>2025-02-21T06:20:58.640Z</time>
      </trkpt>
      <trkpt lat="59.4201479293406" lon="13.800117932260036">
        <ele>73.4</ele>
        <time>2025-02-21T06:22:01.501Z</time>
      </trkpt>
      <trkpt lat="59.420154970139265" lon="13.799990946426988">
        <ele>73.37</ele>
        <time>2025-02-21T06:23:04.363Z</time>
      </trkpt>
      <trkpt lat="59.42016595043242" lon="13.799858931452036">
        <ele>73.33</ele>
        <time>2025-02-21T06:24:07.226Z</time>
      </trkpt>
      <trkpt lat="59.420177936553955" lon="13.799718953669071">
        <ele>73.29</ele>
        <time>2025-02-21T06:25:10.090Z</time>
      </trkpt>
      <trkpt lat="59.42018497735262" lon="13.799577970057726">
        <ele>73.25</ele>
        <time>2025-02-21T06:26:12.955Z</time>
      </trkpt>
      <trkpt lat="59.42018992267549" lon="13.799432963132858">
        <ele>73.2</ele>
        <time>2025-02-21T06:27:15.821Z</time>
      </trkpt>
      <trkpt lat="59.420197969302535" lon="13.79928795620799">
        <ele>73.14</ele>
        <time>2025-02-21T06:28:18.688Z</time>
      </trkpt>
      <trkpt lat="59.42020794376731" lon="13.79913792014122">
        <ele>73.07</ele>
        <time>2025-02-21T06:29:21.557Z</time>
      </trkpt>
      <trkpt lat="59.42021791823208" lon="13.79898595623672">
        <ele>73.0</ele>
        <time>2025-02-21T06:30:24.427Z</time>
      </trkpt>
      <trkpt lat="59.42022395320237" lon="13.79883399233222">
        <ele>72.93</ele>
        <time>2025-02-21T06:31:27.298Z</time>
      </trkpt>
      <trkpt lat="59.42023493349552" lon="13.79868496209383">
        <ele>72.85</ele>
        <time>2025-02-21T06:32:30.170Z</time>
      </trkpt>
      <trkpt lat="59.42024499177933" lon="13.79853299818933">
        <ele>72.77</ele>
        <time>2025-02-21T06:33:33.044Z</time>
      </trkpt>
      <trkpt lat="59.42025396041572" lon="13.798376927152276">
        <ele>72.68</ele>
        <time>2025-02-21T06:34:35.919Z</time>
      </trkpt>
      <trkpt lat="59.420263934880495" lon="13.798228986561298">
        <ele>72.58</ele>
        <time>2025-02-21T06:35:38.795Z</time>
      </trkpt>
      <trkpt lat="59.42026996985078" lon="13.798073921352625">
        <ele>72.47</ele>
        <time>2025-02-21T06:36:41.672Z</time>
      </trkpt>
      <trkpt lat="59.4202739931643" lon="13.797919945791364">
        <ele>72.36</ele>
        <time>2025-02-21T06:37:44.551Z</time>
      </trkpt>
      <trkpt lat="59.420281955972314" lon="13.797769993543625">
        <ele>72.24</ele>
        <time>2025-02-21T06:38:47.431Z</time>
      </trkpt>
      <trkpt lat="59.42028899677098" lon="13.7976089771837">
        <ele>72.13</ele>
        <time>2025-02-21T06:39:50.312Z</time>
      </trkpt>
      <trkpt lat="59.42029394209385" lon="13.79744092002511">
        <ele>72.01</ele>
        <time>2025-02-21T06:40:53.195Z</time>
      </trkpt>
      <trkpt lat="59.42029796540737" lon="13.797279987484217">
        <ele>71.88</ele>
        <time>2025-02-21T06:41:56.079Z</time>
      </trkpt>
      <trkpt lat="59.420301988720894" lon="13.797114947810769">
        <ele>71.74</ele>
        <time>2025-02-21T06:42:58.964Z</time>
      </trkpt>
      <trkpt lat="59.420306934043765" lon="13.796946974471211">
        <ele>71.6</ele>
        <time>2025-02-21T06:44:01.851Z</time>
      </trkpt>
      <trkpt lat="59.420307939872146" lon="13.79677397198975">
        <ele>71.46</ele>
        <time>2025-02-21T06:45:04.739Z</time>
      </trkpt>
      <trkpt lat="59.42031397484243" lon="13.796607926487923">
        <ele>71.32</ele>
        <time>2025-02-21T06:46:07.628Z</time>
      </trkpt>
      <trkpt lat="59.4203189201653" lon="13.796443976461887">
        <ele>71.17</ele>
        <time>2025-02-21T06:47:10.519Z</time>
      </trkpt>
      <trkpt lat="59.42032294347882" lon="13.796273991465569">
        <ele>71.01</ele>
        <time>2025-02-21T06:48:13.411Z</time>
      </trkpt>
      <trkpt lat="59.420325960963964" lon="13.796095959842205">
        <ele>70.85</ele>
        <time>2025-02-21T06:49:16.305Z</time>
      </trkpt>
      <trkpt lat="59.42033199593425" lon="13.795924969017506">
        <ele>70.7</ele>
        <time>2025-02-21T06:50:19.200Z</time>
      </trkpt>
      <trkpt lat="59.42033492960036" lon="13.795752972364426">
        <ele>70.53</ele>
        <time>2025-02-21T06:51:22.096Z</time>
      </trkpt>
      <trkpt lat="59.42033694125712" lon="13.795576952397823">
        <ele>70.35</ele>
        <time>2025-02-21T06:52:24.994Z</time>
      </trkpt>
      <trkpt lat="59.4203379470855" lon="13.795401938259602">
        <ele>70.18</ele>
        <time>2025-02-21T06:53:27.893Z</time>
      </trkpt>
      <trkpt lat="59.42034197039902" lon="13.79522499628365">
        <ele>70.0</ele>
        <time>2025-02-21T06:54:30.794Z</time>
      </trkpt>
      <trkpt lat="59.420344987884164" lon="13.795041935518384">
        <ele>69.82</ele>
        <time>2025-02-21T06:55:33.696Z</time>
      </trkpt>
      <trkpt lat="59.420347921550274" lon="13.794855941087008">
        <ele>69.64</ele>
        <time>2025-02-21T06:56:36.600Z</time>
      </trkpt>
      <trkpt lat="59.42035295069218" lon="13.794665923342109">
        <ele>69.45</ele>
        <time>2025-02-21T06:57:39.505Z</time>
      </trkpt>
      <trkpt lat="59.4203569740057" lon="13.794475989416242">
        <ele>69.26</ele>
        <time>2025-02-21T06:58:42.412Z</time>
      </trkpt>
      <trkpt lat="59.42035999149084" lon="13.794282954186201">
        <ele>69.07</ele>
        <time>2025-02-21T06:59:45.321Z</time>
      </trkpt>
      <trkpt lat="59.42036292515695" lon="13.794087991118431">
        <ele>68.89</ele>
        <time>2025-02-21T07:00:48.231Z</time>
      </trkpt>
      <trkpt lat="59.42036694847047" lon="13.79389294423163">
        <ele>68.69</ele>
        <time>2025-02-21T07:01:51.143Z</time>
      </trkpt>
      <trkpt lat="59.42037398926914" lon="13.793696975335479">
        <ele>68.49</ele>
        <time>2025-02-21T07:02:54.056Z</time>
      </trkpt>
      <trkpt lat="59.42037994042039" lon="13.793502934277058">
        <ele>68.3</ele>
        <time>2025-02-21T07:03:56.971Z</time>
      </trkpt>
      <trkpt lat="59.42038597539067" lon="13.79331199452281">
        <ele>68.1</ele>
        <time>2025-02-21T07:04:59.887Z</time>
      </trkpt>
      <trkpt lat="59.420388992875814" lon="13.79311996512115">
        <ele>67.89</ele>
        <time>2025-02-21T07:06:02.805Z</time>
      </trkpt>
      <trkpt lat="59.420391926541924" lon="13.79292793571949">
        <ele>67.7</ele>
        <time>2025-02-21T07:07:05.725Z</time>
      </trkpt>
      <trkpt lat="59.42039594985545" lon="13.792736995965242">
        <ele>67.5</ele>
        <time>2025-02-21T07:08:08.646Z</time>
      </trkpt>
      <trkpt lat="59.42040097899735" lon="13.792546978220344">
        <ele>67.3</ele>
        <time>2025-02-21T07:09:11.569Z</time>
      </trkpt>
      <trkpt lat="59.42040491849184" lon="13.792360983788967">
        <ele>67.1</ele>
        <time>2025-02-21T07:10:14.493Z</time>
      </trkpt>
      <trkpt lat="59.42040793597698" lon="13.79217691719532">
        <ele>66.9</ele>
        <time>2025-02-21T07:11:17.419Z</time>
      </trkpt>
      <trkpt lat="59.420410953462124" lon="13.791998969390988">
        <ele>66.7</ele>
        <time>2025-02-21T07:12:20.346Z</time>
      </trkpt>
      <trkpt lat="59.420412965118885" lon="13.791823955252767">
        <ele>66.5</ele>
        <time>2025-02-21T07:13:23.275Z</time>
      </trkpt>
      <trkpt lat="59.42041992209852" lon="13.791647935286164">
        <ele>66.3</ele>
        <time>2025-02-21T07:14:26.205Z</time>
      </trkpt>
      <trkpt lat="59.42042293958366" lon="13.791473926976323">
        <ele>66.09</ele>
        <time>2025-02-21T07:15:29.137Z</time>
      </trkpt>
      <trkpt lat="59.42042998038232" lon="13.791297990828753">
        <ele>65.89</ele>
        <time>2025-02-21T07:16:32.070Z</time>
      </trkpt>
      <trkpt lat="59.420434925705194" lon="13.791123982518911">
        <ele>65.68</ele>
        <time>2025-02-21T07:17:35.004Z</time>
      </trkpt>
      <trkpt lat="59.42044397816062" lon="13.790946956723928">
        <ele>65.48</ele>
        <time>2025-02-21T07:18:37.940Z</time>
      </trkpt>
      <trkpt lat="59.42045093514025" lon="13.790767919272184">
        <ele>65.27</ele>
        <time>2025-02-21T07:19:40.877Z</time>
      </trkpt>
      <trkpt lat="59.42046199925244" lon="13.79058594815433">
        <ele>65.06</ele>
        <time>2025-02-21T07:20:43.816Z</time>
      </trkpt>
      <trkpt lat="59.420475997030735" lon="13.790401965379715">
        <ele>64.85</ele>
        <time>2025-02-21T07:21:46.756Z</time>
      </trkpt>
      <trkpt lat="59.42048697732389" lon="13.79021898843348">
        <ele>64.64</ele>
        <time>2025-02-21T07:22:49.698Z</time>
      </trkpt>
      <trkpt lat="59.420497957617044" lon="13.790036933496594">
        <ele>64.42</ele>
        <time>2025-02-21T07:23:52.641Z</time>
      </trkpt>
      <trkpt lat="59.420499969273806" lon="13.78985496237874">
        <ele>64.22</ele>
        <time>2025-02-21T07:24:55.586Z</time>
      </trkpt>
      <trkpt lat="59.42050399258733" lon="13.789671985432506">
        <ele>64.0</ele>
        <time>2025-02-21T07:25:58.532Z</time>
      </trkpt>
      <trkpt lat="59.42050499841571" lon="13.789490936324">
        <ele>63.79</ele>
        <time>2025-02-21T07:27:01.480Z</time>
      </trkpt>
      <trkpt lat="59.42050198093057" lon="13.789300918579102">
        <ele>63.58</ele>
        <time>2025-02-21T07:28:04.429Z</time>
      </trkpt>
      <trkpt lat="59.42050499841571" lon="13.789110984653234">
        <ele>63.38</ele>
        <time>2025-02-21T07:29:07.380Z</time>
      </trkpt>
      <trkpt lat="59.42051195539534" lon="13.788926918059587">
        <ele>63.18</ele>
        <time>2025-02-21T07:30:10.332Z</time>
      </trkpt>
      <trkpt lat="59.420518996194005" lon="13.788747964426875">
        <ele>62.98</ele>
        <time>2025-02-21T07:31:13.286Z</time>
      </trkpt>
      <trkpt lat="59.4205329939723" lon="13.788577979430556">
        <ele>62.78</ele>
        <time>2025-02-21T07:32:16.241Z</time>
      </trkpt>
      <trkpt lat="59.42054799757898" lon="13.788404976949096">
        <ele>62.59</ele>
        <time>2025-02-21T07:33:19.198Z</time>
      </trkpt>
      <trkpt lat="59.420561995357275" lon="13.788231974467635">
        <ele>62.41</ele>
        <time>2025-02-21T07:34:22.156Z</time>
      </trkpt>
      <trkpt lat="59.42057096399367" lon="13.788060983642936">
        <ele>62.22</ele>
        <time>2025-02-21T07:35:25.116Z</time>
      </trkpt>
      <trkpt lat="59.420582950115204" lon="13.787886975333095">
        <ele>62.04</ele>
        <time>2025-02-21T07:36:28.077Z</time>
      </trkpt>
      <trkpt lat="59.42059493623674" lon="13.787710955366492">
        <ele>61.87</ele>
        <time>2025-02-21T07:37:31.039Z</time>
      </trkpt>
      <trkpt lat="59.420605916529894" lon="13.787536947056651">
        <ele>61.7</ele>
        <time>2025-02-21T07:38:34.003Z</time>
      </trkpt>
      <trkpt lat="59.42061899229884" lon="13.787365956231952">
        <ele>61.53</ele>
        <time>2025-02-21T07:39:36.968Z</time>
      </trkpt>
      <trkpt lat="59.42063097842038" lon="13.78719194792211">
        <ele>61.36</ele>
        <time>2025-02-21T07:40:39.935Z</time>
      </trkpt>
      <trkpt lat="59.42064195871353" lon="13.78701995126903">
        <ele>61.19</ele>
        <time>2025-02-21T07:41:42.903Z</time>
      </trkpt>
      <trkpt lat="59.420650927349925" lon="13.786849966272712">
        <ele>61.03</ele>
        <time>2025-02-21T07:42:45.873Z</time>
      </trkpt>
      <trkpt lat="59.42066299729049" lon="13.786680987104774">
        <ele>60.87</ele>
        <time>2025-02-21T07:43:48.844Z</time>
      </trkpt>
      <trkpt lat="59.420671965926886" lon="13.786509996280074">
        <ele>60.7</ele>
        <time>2025-02-21T07:44:51.816Z</time>
      </trkpt>
      <trkpt lat="59.42068194039166" lon="13.786342944949865">
        <ele>60.55</ele>
        <time>2025-02-21T07:45:54.790Z</time>
      </trkpt>
      <trkpt lat="59.420694932341576" lon="13.786173965781927">
        <ele>60.4</ele>
        <time>2025-02-21T07:46:57.765Z</time>
      </trkpt>
      <trkpt lat="59.42070792429149" lon="13.786002974957228">
        <ele>60.25</ele>
        <time>2025-02-21T07:48:00.742Z</time>
      </trkpt>
      <trkpt lat="59.42071898840368" lon="13.785829972475767">
        <ele>60.11</ele>
        <time>2025-02-21T07:49:03.720Z</time>
      </trkpt>
      <trkpt lat="59.42073097452521" lon="13.78566493280232">
        <ele>59.97</ele>
        <time>2025-02-21T07:50:06.699Z</time>
      </trkpt>
      <trkpt lat="59.42074195481837" lon="13.785498971119523">
        <ele>59.83</ele>
        <time>2025-02-21T07:51:09.680Z</time>
      </trkpt>
      <trkpt lat="59.420755952596664" lon="13.785330997779965">
        <ele>59.7</ele>
        <time>2025-02-21T07:52:12.662Z</time>
      </trkpt>
      <trkpt lat="59.42076592706144" lon="13.78516897559166">
        <ele>59.57</ele>
        <time>2025-02-21T07:53:15.645Z</time>
      </trkpt>
      <trkpt lat="59.420777997002006" lon="13.785004941746593">
        <ele>59.44</ele>
        <time>2025-02-21T07:54:18.630Z</time>
      </trkpt>
      <trkpt lat="59.42078998312354" lon="13.78484794870019">
        <ele>59.32</ele>
        <time>2025-02-21T07:55:21.616Z</time>
      </trkpt>
      <trkpt lat="59.42080297507346" lon="13.784688943997025">
        <ele>59.21</ele>
        <time>2025-02-21T07:56:24.603Z</time>
      </trkpt>
      <trkpt lat="59.42081496119499" lon="13.7845279276371">
        <ele>59.09</ele>
        <time>2025-02-21T07:57:27.592Z</time>
      </trkpt>
      <trkpt lat="59.42082895897329" lon="13.784363977611065">
        <ele>58.98</ele>
        <time>2025-02-21T07:58:30.582Z</time>
      </trkpt>
      <trkpt lat="59.42083993926644" lon="13.784199943765998">
        <ele>58.87</ele>
        <time>2025-02-21T07:59:33.573Z</time>
      </trkpt>
      <trkpt lat="59.42085192538798" lon="13.784029958769679">
        <ele>58.77</ele>
        <time>2025-02-21T08:00:36.566Z</time>
      </trkpt>
      <trkpt lat="59.420864917337894" lon="13.78385896794498">
        <ele>58.68</ele>
        <time>2025-02-21T08:01:39.560Z</time>
      </trkpt>
      <trkpt lat="59.42087698727846" lon="13.783684959635139">
        <ele>58.6</ele>
        <time>2025-02-21T08:02:42.556Z</time>
      </trkpt>
      <trkpt lat="59.4208889734" lon="13.783511957153678">
        <ele>58.51</ele>
        <time>2025-02-21T08:03:45.553Z</time>
      </trkpt>
      <trkpt lat="59.42090095952153" lon="13.783333925530314">
        <ele>58.43</ele>
        <time>2025-02-21T08:04:48.552Z</time>
      </trkpt>
      <trkpt lat="59.42091294564307" lon="13.783154971897602">
        <ele>58.35</ele>
        <time>2025-02-21T08:05:51.552Z</time>
      </trkpt>
      <trkpt lat="59.4209249317646" lon="13.78297995775938">
        <ele>58.28</ele>
        <time>2025-02-21T08:06:54.553Z</time>
      </trkpt>
      <trkpt lat="59.42093792371452" lon="13.782804943621159">
        <ele>58.21</ele>
        <time>2025-02-21T08:07:57.556Z</time>
      </trkpt>
      <trkpt lat="59.420951921492815" lon="13.782632946968079">
        <ele>58.14</ele>
        <time>2025-02-21T08:09:00.560Z</time>
      </trkpt>
      <trkpt lat="59.42096591927111" lon="13.782457932829857">
        <ele>58.08</ele>
        <time>2025-02-21T08:10:03.566Z</time>
      </trkpt>
      <trkpt lat="59.4209769833833" lon="13.782285936176777">
        <ele>58.02</ele>
        <time>2025-02-21T08:11:06.573Z</time>
      </trkpt>
      <trkpt lat="59.420990981161594" lon="13.78211997449398">
        <ele>57.97</ele>
        <time>2025-02-21T08:12:09.582Z</time>
      </trkpt>
      <trkpt lat="59.42100598476827" lon="13.781949989497662">
        <ele>57.93</ele>
        <time>2025-02-21T08:13:12.592Z</time>
      </trkpt>
      <trkpt lat="59.42101797088981" lon="13.781784949824214">
        <ele>57.89</ele>
        <time>2025-02-21T08:14:15.603Z</time>
      </trkpt>
      <trkpt lat="59.42102794535458" lon="13.781623933464289">
        <ele>57.85</ele>
        <time>2025-02-21T08:15:18.616Z</time>
      </trkpt>
      <trkpt lat="59.421036997810006" lon="13.781460989266634">
        <ele>57.82</ele>
        <time>2025-02-21T08:16:21.630Z</time>
      </trkpt>
      <trkpt lat="59.4210459664464" lon="13.781298967078328">
        <ele>57.79</ele>
        <time>2025-02-21T08:17:24.645Z</time>
      </trkpt>
      <trkpt lat="59.421056946739554" lon="13.781138956546783">
        <ele>57.77</ele>
        <time>2025-02-21T08:18:27.662Z</time>
      </trkpt>
      <trkpt lat="59.42106993868947" lon="13.780977940186858">
        <ele>57.75</ele>
        <time>2025-02-21T08:19:30.680Z</time>
      </trkpt>
      <trkpt lat="59.42108393646777" lon="13.780816923826933">
        <ele>57.74</ele>
        <time>2025-02-21T08:20:33.699Z</time>
      </trkpt>
      <trkpt lat="59.4210959225893" lon="13.780657919123769">
        <ele>57.72</ele>
        <time>2025-02-21T08:21:36.720Z</time>
      </trkpt>
      <trkpt lat="59.42110396921635" lon="13.780500926077366">
        <ele>57.72</ele>
        <time>2025-02-21T08:22:39.742Z</time>
      </trkpt>
      <trkpt lat="59.4211149495095" lon="13.780348962172866">
        <ele>57.72</ele>
        <time>2025-02-21T08:23:42.765Z</time>
      </trkpt>
      <trkpt lat="59.421120984479785" lon="13.780202949419618">
        <ele>57.73</ele>
        <time>2025-02-21T08:24:45.789Z</time>
      </trkpt>
      <trkpt lat="59.421125929802656" lon="13.780059954151511">
        <ele>57.74</ele>
        <time>2025-02-21T08:25:48.815Z</time>
      </trkpt>
      <trkpt lat="59.42113095894456" lon="13.779923999682069">
        <ele>57.76</ele>
        <time>2025-02-21T08:26:51.842Z</time>
      </trkpt>
      <trkpt lat="59.42113699391484" lon="13.779789973050356">
        <ele>57.77</ele>
        <time>2025-02-21T08:27:54.870Z</time>
      </trkpt>
      <trkpt lat="59.42114696837962" lon="13.779661981388927">
        <ele>57.79</ele>
        <time>2025-02-21T08:28:57.899Z</time>
      </trkpt>
      <trkpt lat="59.42115493118763" lon="13.779546981677413">
        <ele>57.81</ele>
        <time>2025-02-21T08:30:00.929Z</time>
      </trkpt>
      <trkpt lat="59.421162977814674" lon="13.779430976137519">
        <ele>57.83</ele>
        <time>2025-02-21T08:31:03.960Z</time>
      </trkpt>
      <trkpt lat="59.42117194645107" lon="13.779320921748877">
        <ele>57.85</ele>
        <time>2025-02-21T08:32:06.992Z</time>
      </trkpt>
      <trkpt lat="59.42117898724973" lon="13.779215980321169">
        <ele>57.89</ele>
        <time>2025-02-21T08:33:10.025Z</time>
      </trkpt>
      <trkpt lat="59.421184938400984" lon="13.779120929539204">
        <ele>57.91</ele>
        <time>2025-02-21T08:34:13.058Z</time>
      </trkpt>
      <trkpt lat="59.421188961714506" lon="13.779022945091128">
        <ele>57.95</ele>
        <time>2025-02-21T08:35:16.092Z</time>
      </trkpt>
      <trkpt lat="59.42119399085641" lon="13.778927978128195">
        <ele>57.98</ele>
        <time>2025-02-21T08:36:19.127Z</time>
      </trkpt>
      <trkpt lat="59.4211979303509" lon="13.77883292734623">
        <ele>58.02</ele>
        <time>2025-02-21T08:37:22.163Z</time>
      </trkpt>
      <trkpt lat="59.4212029594928" lon="13.778735948726535">
        <ele>58.07</ele>
        <time>2025-02-21T08:38:25.199Z</time>
      </trkpt>
      <trkpt lat="59.42121393978596" lon="13.778633940964937">
        <ele>58.12</ele>
        <time>2025-02-21T08:39:28.236Z</time>
      </trkpt>
      <trkpt lat="59.42122399806976" lon="13.778524976223707">
        <ele>58.17</ele>
        <time>2025-02-21T08:40:31.274Z</time>
      </trkpt>
      <trkpt lat="59.42123296670616" lon="13.778408970683813">
        <ele>58.22</ele>
        <time>2025-02-21T08:41:34.313Z</time>
      </trkpt>
      <trkpt lat="59.42124394699931" lon="13.778290953487158">
        <ele>58.27</ele>
        <time>2025-02-21T08:42:37.353Z</time>
      </trkpt>
      <trkpt lat="59.421253921464086" lon="13.778174947947264">
        <ele>58.33</ele>
        <time>2025-02-21T08:43:40.394Z</time>
      </trkpt>
      <trkpt lat="59.42125895060599" lon="13.778050979599357">
        <ele>58.39</ele>
        <time>2025-02-21T08:44:43.436Z</time>
      </trkpt>
      <trkpt lat="59.42126397974789" lon="13.777922987937927">
        <ele>58.45</ele>
        <time>2025-02-21T08:45:46.479Z</time>
      </trkpt>
      <trkpt lat="59.42127697169781" lon="13.777786949649453">
        <ele>58.51</ele>
        <time>2025-02-21T08:46:49.523Z</time>
      </trkpt>
      <trkpt lat="59.42128694616258" lon="13.777645966038108">
        <ele>58.58</ele>
        <time>2025-02-21T08:47:52.568Z</time>
      </trkpt>
      <trkpt lat="59.421294992789626" lon="13.777502970770001">
        <ele>58.65</ele>
        <time>2025-02-21T08:48:55.615Z</time>
      </trkpt>
      <trkpt lat="59.42130597308278" lon="13.777356958016753">
        <ele>58.71</ele>
        <time>2025-02-21T08:49:58.663Z</time>
      </trkpt>
      <trkpt lat="59.421313935890794" lon="13.777213962748647">
        <ele>58.79</ele>
        <time>2025-02-21T08:51:01.712Z</time>
      </trkpt>
      <trkpt lat="59.421316953375936" lon="13.777074990794063">
        <ele>58.86</ele>
        <time>2025-02-21T08:52:04.762Z</time>
      </trkpt>
      <trkpt lat="59.42131997086108" lon="13.776935935020447">
        <ele>58.94</ele>
        <time>2025-02-21T08:53:07.813Z</time>
      </trkpt>
      <trkpt lat="59.42132491618395" lon="13.776797968894243">
        <ele>59.02</ele>
        <time>2025-02-21T08:54:10.865Z</time>
      </trkpt>
      <trkpt lat="59.42133296281099" lon="13.77666394226253">
        <ele>59.1</ele>
        <time>2025-02-21T08:55:13.919Z</time>
      </trkpt>
      <trkpt lat="59.42134293727577" lon="13.776528993621469">
        <ele>59.19</ele>
        <time>2025-02-21T08:56:16.974Z</time>
      </trkpt>
      <trkpt lat="59.42135592922568" lon="13.776393961161375">
        <ele>59.27</ele>
        <time>2025-02-21T08:57:20.030Z</time>
      </trkpt>
      <trkpt lat="59.42137193866074" lon="13.776260940358043">
        <ele>59.36</ele>
        <time>2025-02-21T08:58:23.087Z</time>
      </trkpt>
      <trkpt lat="59.421379985287786" lon="13.776126997545362">
        <ele>59.45</ele>
        <time>2025-02-21T08:59:26.145Z</time>
      </trkpt>
      <trkpt lat="59.42139096558094" lon="13.775992970913649">
        <ele>59.55</ele>
        <time>2025-02-21T09:00:29.204Z</time>
      </trkpt>
      <trkpt lat="59.421400940045714" lon="13.775853998959064">
        <ele>59.64</ele>
        <time>2025-02-21T09:01:32.264Z</time>
      </trkpt>
      <trkpt lat="59.42141099832952" lon="13.775714943185449">
        <ele>59.74</ele>
        <time>2025-02-21T09:02:35.325Z</time>
      </trkpt>
      <trkpt lat="59.421426923945546" lon="13.775572953745723">
        <ele>59.84</ele>
        <time>2025-02-21T09:03:38.388Z</time>
      </trkpt>
      <trkpt lat="59.42144192755222" lon="13.775425935164094">
        <ele>59.95</ele>
        <time>2025-02-21T09:04:41.452Z</time>
      </trkpt>
      <trkpt lat="59.42145592533052" lon="13.775281934067607">
        <ele>60.06</ele>
        <time>2025-02-21T09:05:44.517Z</time>
      </trkpt>
      <trkpt lat="59.42147495225072" lon="13.775132987648249">
        <ele>60.17</ele>
        <time>2025-02-21T09:06:47.583Z</time>
      </trkpt>
      <trkpt lat="59.4214949849993" lon="13.774977922439575">
        <ele>60.28</ele>
        <time>2025-02-21T09:07:50.651Z</time>
      </trkpt>
      <trkpt lat="59.421511916443706" lon="13.774826964363456">
        <ele>60.4</ele>
        <time>2025-02-21T09:08:53.720Z</time>
      </trkpt>
      <trkpt lat="59.42152792587876" lon="13.774674916639924">
        <ele>60.51</ele>
        <time>2025-02-21T09:09:56.790Z</time>
      </trkpt>
      <trkpt lat="59.42153999581933" lon="13.774520941078663">
        <ele>60.63</ele>
        <time>2025-02-21T09:10:59.861Z</time>
      </trkpt>
      <trkpt lat="59.42155793309212" lon="13.774358918890357">
        <ele>60.74</ele>
        <time>2025-02-21T09:12:02.934Z</time>
      </trkpt>
      <trkpt lat="59.421568997204304" lon="13.77419295720756">
        <ele>60.85</ele>
        <time>2025-02-21T09:13:06.008Z</time>
      </trkpt>
      <trkpt lat="59.42158592864871" lon="13.774021966382861">
        <ele>60.96</ele>
        <time>2025-02-21T09:14:09.084Z</time>
      </trkpt>
      <trkpt lat="59.42160596139729" lon="13.773849969729781">
        <ele>61.08</ele>
        <time>2025-02-21T09:15:12.161Z</time>
      </trkpt>
      <trkpt lat="59.421614930033684" lon="13.773678978905082">
        <ele>61.19</ele>
        <time>2025-02-21T09:16:15.239Z</time>
      </trkpt>
      <trkpt lat="59.4216279219836" lon="13.773505976423621">
        <ele>61.31</ele>
        <time>2025-02-21T09:17:18.319Z</time>
      </trkpt>
      <trkpt lat="59.42163999192417" lon="13.773333979770541">
        <ele>61.43</ele>
        <time>2025-02-21T09:18:21.400Z</time>
      </trkpt>
      <trkpt lat="59.42165298387408" lon="13.773162988945842">
        <ele>61.56</ele>
        <time>2025-02-21T09:19:24.483Z</time>
      </trkpt>
      <trkpt lat="59.42166899330914" lon="13.772991998121142">
        <ele>61.69</ele>
        <time>2025-02-21T09:20:27.567Z</time>
      </trkpt>
      <trkpt lat="59.42168693058193" lon="13.77281991764903">
        <ele>61.82</ele>
        <time>2025-02-21T09:21:30.653Z</time>
      </trkpt>
      <trkpt lat="59.421701934188604" lon="13.77264498732984">
        <ele>61.95</ele>
        <time>2025-02-21T09:22:33.740Z</time>
      </trkpt>
      <trkpt lat="59.42171392031014" lon="13.772465949878097">
        <ele>62.08</ele>
        <time>2025-02-21T09:23:36.828Z</time>
      </trkpt>
      <trkpt lat="59.42172699607909" lon="13.772288924083114">
        <ele>62.21</ele>
        <time>2025-02-21T09:24:39.918Z</time>
      </trkpt>
      <trkpt lat="59.421743927523494" lon="13.772114999592304">
        <ele>62.35</ele>
        <time>2025-02-21T09:25:43.009Z</time>
      </trkpt>
      <trkpt lat="59.42176094278693" lon="13.771940991282463">
        <ele>62.48</ele>
        <time>2025-02-21T09:26:46.102Z</time>
      </trkpt>
      <trkpt lat="59.42177594639361" lon="13.771772934123874">
        <ele>62.62</ele>
        <time>2025-02-21T09:27:49.196Z</time>
      </trkpt>
      <trkpt lat="59.421790950000286" lon="13.77161594107747">
        <ele>62.76</ele>
        <time>2025-02-21T09:28:52.292Z</time>
      </trkpt>
      <trkpt lat="59.421807965263724" lon="13.771460959687829">
        <ele>62.9</ele>
        <time>2025-02-21T09:29:55.389Z</time>
      </trkpt>
      <trkpt lat="59.421826992183924" lon="13.771311929449439">
        <ele>63.04</ele>
        <time>2025-02-21T09:30:58.487Z</time>
      </trkpt>
      <trkpt lat="59.42184392362833" lon="13.77116591669619">
        <ele>63.19</ele>
        <time>2025-02-21T09:32:01.586Z</time>
      </trkpt>
      <trkpt lat="59.42186093889177" lon="13.771021999418736">
        <ele>63.33</ele>
        <time>2025-02-21T09:33:04.686Z</time>
      </trkpt>
      <trkpt lat="59.421874936670065" lon="13.770875986665487">
        <ele>63.47</ele>
        <time>2025-02-21T09:34:07.788Z</time>
      </trkpt>
      <trkpt lat="59.4218869227916" lon="13.770729973912239">
        <ele>63.62</ele>
        <time>2025-02-21T09:35:10.891Z</time>
      </trkpt>
      <trkpt lat="59.42189999856055" lon="13.770587984472513">
        <ele>63.77</ele>
        <time>2025-02-21T09:36:13.995Z</time>
      </trkpt>
      <trkpt lat="59.421915924176574" lon="13.770444989204407">
        <ele>63.92</ele>
        <time>2025-02-21T09:37:17.100Z</time>
      </trkpt>
      <trkpt lat="59.42193293944001" lon="13.770295958966017">
        <ele>64.07</ele>
        <time>2025-02-21T09:38:20.207Z</time>
      </trkpt>
      <trkpt lat="59.42194894887507" lon="13.770157992839813">
        <ele>64.23</ele>
        <time>2025-02-21T09:39:23.315Z</time>
      </trkpt>
      <trkpt lat="59.42196395248175" lon="13.770013991743326">
        <ele>64.38</ele>
        <time>2025-02-21T09:40:26.424Z</time>
      </trkpt>
      <trkpt lat="59.4219749327749" lon="13.769867978990078">
        <ele>64.53</ele>
        <time>2025-02-21T09:41:29.534Z</time>
      </trkpt>
      <trkpt lat="59.42198993638158" lon="13.769714925438166">
        <ele>64.69</ele>
        <time>2025-02-21T09:42:32.645Z</time>
      </trkpt>
      <trkpt lat="59.422003934159875" lon="13.769563967362046">
        <ele>64.85</ele>
        <time>2025-02-21T09:43:35.758Z</time>
      </trkpt>
      <trkpt lat="59.42201692610979" lon="13.769416948780417">
        <ele>65.01</ele>
        <time>2025-02-21T09:44:38.872Z</time>
      </trkpt>
      <trkpt lat="59.42203092388809" lon="13.769267918542027">
        <ele>65.17</ele>
        <time>2025-02-21T09:45:41.987Z</time>
      </trkpt>
      <trkpt lat="59.422046933323145" lon="13.769117966294289">
        <ele>65.32</ele>
        <time>2025-02-21T09:46:45.103Z</time>
      </trkpt>
      <trkpt lat="59.42205699160695" lon="13.76897195354104">
        <ele>65.48</ele>
        <time>2025-02-21T09:47:48.221Z</time>
      </trkpt>
      <trkpt lat="59.422067971900105" lon="13.768823929131031">
        <ele>65.64</ele>
        <time>2025-02-21T09:48:51.340Z</time>
      </trkpt>
      <trkpt lat="59.42207995802164" lon="13.768676994368434">
        <ele>65.81</ele>
        <time>2025-02-21T09:49:54.460Z</time>
      </trkpt>
      <trkpt lat="59.422088926658034" lon="13.768530981615186">
        <ele>65.97</ele>
        <time>2025-02-21T09:50:57.581Z</time>
      </trkpt>
      <trkpt lat="59.4220959674567" lon="13.76838899217546">
        <ele>66.13</ele>
        <time>2025-02-21T09:52:00.703Z</time>
      </trkpt>
      <trkpt lat="59.42210191860795" lon="13.768244991078973">
        <ele>66.3</ele>
        <time>2025-02-21T09:53:03.827Z</time>
      </trkpt>
      <trkpt lat="59.422107953578234" lon="13.768096966668963">
        <ele>66.47</ele>
        <time>2025-02-21T09:54:06.952Z</time>
      </trkpt>
      <trkpt lat="59.422111976891756" lon="13.76795799471438">
        <ele>66.64</ele>
        <time>2025-02-21T09:55:10.078Z</time>
      </trkpt>
      <trkpt lat="59.4221149943769" lon="13.76781097613275">
        <ele>66.8</ele>
        <time>2025-02-21T09:56:13.205Z</time>
      </trkpt>
      <trkpt lat="59.4221149943769" lon="13.767669992521405">
        <ele>66.97</ele>
        <time>2025-02-21T09:57:16.333Z</time>
      </trkpt>
      <trkpt lat="59.4221149943769" lon="13.767538983374834">
        <ele>67.13</ele>
        <time>2025-02-21T09:58:19.462Z</time>
      </trkpt>
      <trkpt lat="59.422110971063375" lon="13.767407974228263">
        <ele>67.29</ele>
        <time>2025-02-21T09:59:22.592Z</time>
      </trkpt>
      <trkpt lat="59.42210594192147" lon="13.767277970910072">
        <ele>67.44</ele>
        <time>2025-02-21T10:00:25.723Z</time>
      </trkpt>
      <trkpt lat="59.4221009965986" lon="13.767150985077024">
        <ele>67.59</ele>
        <time>2025-02-21T10:01:28.855Z</time>
      </trkpt>
      <trkpt lat="59.422091944143176" lon="13.767029950395226">
        <ele>67.75</ele>
        <time>2025-02-21T10:02:31.988Z</time>
      </trkpt>
      <trkpt lat="59.42208297550678" lon="13.7669069878757">
        <ele>67.9</ele>
        <time>2025-02-21T10:03:35.123Z</time>
      </trkpt>
      <trkpt lat="59.42207392305136" lon="13.766784947365522">
        <ele>68.05</ele>
        <time>2025-02-21T10:04:38.259Z</time>
      </trkpt>
      <trkpt lat="59.4220629427582" lon="13.766669947654009">
        <ele>68.19</ele>
        <time>2025-02-21T10:05:41.395Z</time>
      </trkpt>
      <trkpt lat="59.42205397412181" lon="13.766553942114115">
        <ele>68.34</ele>
        <time>2025-02-21T10:06:44.532Z</time>
      </trkpt>
      <trkpt lat="59.422043999657035" lon="13.766441959887743">
        <ele>68.48</ele>
        <time>2025-02-21T10:07:47.670Z</time>
      </trkpt>
      <trkpt lat="59.42203394137323" lon="13.766332995146513">
        <ele>68.62</ele>
        <time>2025-02-21T10:08:50.809Z</time>
      </trkpt>
      <trkpt lat="59.422023966908455" lon="13.766224952414632">
        <ele>68.75</ele>
        <time>2025-02-21T10:09:53.949Z</time>
      </trkpt>
      <trkpt lat="59.42201592028141" lon="13.766115987673402">
        <ele>68.88</ele>
        <time>2025-02-21T10:10:57.090Z</time>
      </trkpt>
      <trkpt lat="59.4220079574734" lon="13.76600299961865">
        <ele>69.01</ele>
        <time>2025-02-21T10:12:00.232Z</time>
      </trkpt>
      <trkpt lat="59.421998988837004" lon="13.765890933573246">
        <ele>69.14</ele>
        <time>2025-02-21T10:13:03.375Z</time>
      </trkpt>
      <trkpt lat="59.42199496552348" lon="13.765777945518494">
        <ele>69.26</ele>
        <time>2025-02-21T10:14:06.519Z</time>
      </trkpt>
      <trkpt lat="59.42198993638158" lon="13.765665963292122">
        <ele>69.38</ele>
        <time>2025-02-21T10:15:09.664Z</time>
      </trkpt>
      <trkpt lat="59.42198599688709" lon="13.765555992722511">
        <ele>69.5</ele>
        <time>2025-02-21T10:16:12.810Z</time>
      </trkpt>
      <trkpt lat="59.421982979401946" lon="13.765444932505488">
        <ele>69.61</ele>
        <time>2025-02-21T10:17:15.957Z</time>
      </trkpt>
      <trkpt lat="59.421980967745185" lon="13.765335967764258">
        <ele>69.72</ele>
        <time>2025-02-21T10:18:19.104Z</time>
      </trkpt>
      <trkpt lat="59.4219749327749" lon="13.765224991366267">
        <ele>69.83</ele>
        <time>2025-02-21T10:19:22.252Z</time>
      </trkpt>
      <trkpt lat="59.42197099328041" lon="13.765108985826373">
        <ele>69.94</ele>
        <time>2025-02-21T10:20:25.401Z</time>
      </trkpt>
      <trkpt lat="59.42197199910879" lon="13.764981999993324">
        <ele>70.05</ele>
        <time>2025-02-21T10:21:28.551Z</time>
      </trkpt>
      <trkpt lat="59.42197593860328" lon="13.764861971139908">
        <ele>70.15</ele>
        <time>2025-02-21T10:22:31.702Z</time>
      </trkpt>
      <trkpt lat="59.421981973573565" lon="13.764734985306859">
        <ele>70.25</ele>
        <time>2025-02-21T10:23:34.854Z</time>
      </trkpt>
      <trkpt lat="59.42198691889644" lon="13.7646119389683">
        <ele>70.35</ele>
        <time>2025-02-21T10:24:38.007Z</time>
      </trkpt>
      <trkpt lat="59.42199194803834" lon="13.764489982277155">
        <ele>70.44</ele>
        <time>2025-02-21T10:25:41.161Z</time>
      </trkpt>
      <trkpt lat="59.42199798300862" lon="13.764363918453455">
        <ele>70.53</ele>
        <time>2025-02-21T10:26:44.316Z</time>
      </trkpt>
      <trkpt lat="59.42200896330178" lon="13.764236932620406">
        <ele>70.62</ele>
        <time>2025-02-21T10:27:47.472Z</time>
      </trkpt>
      <trkpt lat="59.42201793193817" lon="13.764102989807725">
        <ele>70.7</ele>
        <time>2025-02-21T10:28:50.630Z</time>
      </trkpt>
      <trkpt lat="59.42203092388809" lon="13.76396695151925">
        <ele>70.78</ele>
        <time>2025-02-21T10:29:53.789Z</time>
      </trkpt>
      <trkpt lat="59.422047939151525" lon="13.763831919059157">
        <ele>70.86</ele>
        <time>2025-02-21T10:30:56.949Z</time>
      </trkpt>
      <trkpt lat="59.42206998355687" lon="13.763691941276193">
        <ele>70.93</ele>
        <time>2025-02-21T10:32:00.110Z</time>
      </trkpt>
      <trkpt lat="59.4220959674567" lon="13.763543916866183">
        <ele>71.0</ele>
        <time>2025-02-21T10:33:03.272Z</time>
      </trkpt>
      <trkpt lat="59.42212195135653" lon="13.763387929648161">
        <ele>71.07</ele>
        <time>2025-02-21T10:34:06.436Z</time>
      </trkpt>
      <trkpt lat="59.422150952741504" lon="13.763224985450506">
        <ele>71.12</ele>
        <time>2025-02-21T10:35:09.601Z</time>
      </trkpt>
      <trkpt lat="59.42218095995486" lon="13.763055922463536">
        <ele>71.17</ele>
        <time>2025-02-21T10:36:12.768Z</time>
      </trkpt>
      <trkpt lat="59.42221096716821" lon="13.762884931638837">
        <ele>71.22</ele>
        <time>2025-02-21T10:37:15.936Z</time>
      </trkpt>
      <trkpt lat="59.422238962724805" lon="13.762714946642518">
        <ele>71.28</ele>
        <time>2025-02-21T10:38:19.106Z</time>
      </trkpt>
      <trkpt lat="59.4222669582814" lon="13.762549990788102">
        <ele>71.32</ele>
        <time>2025-02-21T10:39:22.277Z</time>
      </trkpt>
      <trkpt lat="59.42229595966637" lon="13.762380927801132">
        <ele>71.37</ele>
        <time>2025-02-21T10:40:25.449Z</time>
      </trkpt>
      <trkpt lat="59.422326972708106" lon="13.762208931148052">
        <ele>71.41</ele>
        <time>2025-02-21T10:41:28.623Z</time>
      </trkpt>
      <trkpt lat="59.42235396243632" lon="13.762038946151733">
        <ele>71.45</ele>
        <time>2025-02-21T10:42:31.798Z</time>
      </trkpt>
      <trkpt lat="59.42238095216453" lon="13.761874996125698">
        <ele>71.49</ele>
        <time>2025-02-21T10:43:34.975Z</time>
      </trkpt>
      <trkpt lat="59.42240794189274" lon="13.761711968109012">
        <ele>71.53</ele>
        <time>2025-02-21T10:44:38.153Z</time>
      </trkpt>
      <trkpt lat="59.42242797464132" lon="13.761554975062609">
        <ele>71.56</ele>
        <time>2025-02-21T10:45:41.332Z</time>
      </trkpt>
      <trkpt lat="59.42244993522763" lon="13.761401921510696">
        <ele>71.58</ele>
        <time>2025-02-21T10:46:44.513Z</time>
      </trkpt>
      <trkpt lat="59.422472985461354" lon="13.76125699840486">
        <ele>71.61</ele>
        <time>2025-02-21T10:47:47.695Z</time>
      </trkpt>
      <trkpt lat="59.42249394021928" lon="13.76112598925829">
        <ele>71.63</ele>
        <time>2025-02-21T10:48:50.878Z</time>
      </trkpt>
      <trkpt lat="59.42251095548272" lon="13.761004954576492">
        <ele>71.65</ele>
        <time>2025-02-21T10:49:54.062Z</time>
      </trkpt>
      <trkpt lat="59.42253299988806" lon="13.760887943208218">
        <ele>71.67</ele>
        <time>2025-02-21T10:50:57.247Z</time>
      </trkpt>
      <trkpt lat="59.42255395464599" lon="13.760772943496704">
        <ele>71.68</ele>
        <time>2025-02-21T10:52:00.433Z</time>
      </trkpt>
      <trkpt lat="59.42257398739457" lon="13.760662972927094">
        <ele>71.69</ele>
        <time>2025-02-21T10:53:03.620Z</time>
      </trkpt>
      <trkpt lat="59.42259393632412" lon="13.760552918538451">
        <ele>71.7</ele>
        <time>2025-02-21T10:54:06.808Z</time>
      </trkpt>
      <trkpt lat="59.42261095158756" lon="13.760447977110744">
        <ele>71.7</ele>
        <time>2025-02-21T10:55:09.997Z</time>
      </trkpt>
      <trkpt lat="59.422625955194235" lon="13.760346975177526">
        <ele>71.7</ele>
        <time>2025-02-21T10:56:13.187Z</time>
      </trkpt>
      <trkpt lat="59.42264196462929" lon="13.76025091856718">
        <ele>71.7</ele>
        <time>2025-02-21T10:57:16.378Z</time>
      </trkpt>
      <trkpt lat="59.42265696823597" lon="13.760157963261008">
        <ele>71.69</ele>
        <time>2025-02-21T10:58:19.569Z</time>
      </trkpt>
      <trkpt lat="59.42267398349941" lon="13.760060984641314">
        <ele>71.67</ele>
        <time>2025-02-21T10:59:22.761Z</time>
      </trkpt>
      <trkpt lat="59.422687981277704" lon="13.759966939687729">
        <ele>71.66</ele>
        <time>2025-02-21T11:00:25.954Z</time>
      </trkpt>
      <trkpt lat="59.42270399071276" lon="13.759870966896415">
        <ele>71.64</ele>
        <time>2025-02-21T11:01:29.148Z</time>
      </trkpt>
      <trkpt lat="59.42271899431944" lon="13.759765941649675">
        <ele>71.61</ele>
        <time>2025-02-21T11:02:32.343Z</time>
      </trkpt>
      <trkpt lat="59.422734919935465" lon="13.759659994393587">
        <ele>71.58</ele>
        <time>2025-02-21T11:03:35.539Z</time>
      </trkpt>
      <trkpt lat="59.42275092937052" lon="13.759552957490087">
        <ele>71.55</ele>
        <time>2025-02-21T11:04:38.736Z</time>
      </trkpt>
      <trkpt lat="59.4227709621191" lon="13.759443992748857">
        <ele>71.51</ele>
        <time>2025-02-21T11:05:41.934Z</time>
      </trkpt>
      <trkpt lat="59.4227899890393" lon="13.759331926703453">
        <ele>71.47</ele>
        <time>2025-02-21T11:06:45.133Z</time>
      </trkpt>
      <trkpt lat="59.42280499264598" lon="13.759221956133842">
        <ele>71.42</ele>
        <time>2025-02-21T11:07:48.332Z</time>
      </trkpt>
      <trkpt lat="59.422820918262005" lon="13.759110979735851">
        <ele>71.37</ele>
        <time>2025-02-21T11:08:51.532Z</time>
      </trkpt>
      <trkpt lat="59.42283592186868" lon="13.75900394283235">
        <ele>71.32</ele>
        <time>2025-02-21T11:09:54.733Z</time>
      </trkpt>
      <trkpt lat="59.42285092547536" lon="13.758897995576262">
        <ele>71.26</ele>
        <time>2025-02-21T11:10:57.935Z</time>
      </trkpt>
      <trkpt lat="59.422863917425275" lon="13.758791964501143">
        <ele>71.19</ele>
        <time>2025-02-21T11:12:01.138Z</time>
      </trkpt>
      <trkpt lat="59.42287992686033" lon="13.758686939254403">
        <ele>71.13</ele>
        <time>2025-02-21T11:13:04.342Z</time>
      </trkpt>
      <trkpt lat="59.42289794795215" lon="13.758575962856412">
        <ele>71.06</ele>
        <time>2025-02-21T11:14:07.547Z</time>
      </trkpt>
      <trkpt lat="59.42291496321559" lon="13.758465992286801">
        <ele>70.99</ele>
        <time>2025-02-21T11:15:10.753Z</time>
      </trkpt>
      <trkpt lat="59.42292996682227" lon="13.758353926241398">
        <ele>70.91</ele>
        <time>2025-02-21T11:16:13.960Z</time>
      </trkpt>
      <trkpt lat="59.42294396460056" lon="13.758250996470451">
        <ele>70.83</ele>
        <time>2025-02-21T11:17:17.168Z</time>
      </trkpt>
      <trkpt lat="59.42296299152076" lon="13.758147982880473">
        <ele>70.75</ele>
        <time>2025-02-21T11:18:20.377Z</time>
      </trkpt>
      <trkpt lat="59.42298394627869" lon="13.75803692266345">
        <ele>70.66</ele>
        <time>2025-02-21T11:19:23.587Z</time>
      </trkpt>
      <trkpt lat="59.42300397902727" lon="13.757929969578981">
        <ele>70.57</ele>
        <time>2025-02-21T11:20:26.798Z</time>
      </trkpt>
      <trkpt lat="59.42302795127034" lon="13.757824944332242">
        <ele>70.48</ele>
        <time>2025-02-21T11:21:30.009Z</time>
      </trkpt>
      <trkpt lat="59.42305192351341" lon="13.75771195627749">
        <ele>70.38</ele>
        <time>2025-02-21T11:22:33.221Z</time>
      </trkpt>
      <trkpt lat="59.423074973747134" lon="13.757593939080834">
        <ele>70.28</ele>
        <time>2025-02-21T11:23:36.434Z</time>
      </trkpt>
      <trkpt lat="59.423099951818585" lon="13.757472988218069">
        <ele>70.17</ele>
        <time>2025-02-21T11:24:39.649Z</time>
      </trkpt>
      <trkpt lat="59.42312492989004" lon="13.757353965193033">
        <ele>70.06</ele>
        <time>2025-02-21T11:25:42.865Z</time>
      </trkpt>
      <trkpt lat="59.42315191961825" lon="13.757229996845126">
        <ele>69.94</ele>
        <time>2025-02-21T11:26:46.082Z</time>
      </trkpt>
      <trkpt lat="59.42317496985197" lon="13.757104938849807">
        <ele>69.83</ele>
        <time>2025-02-21T11:27:49.300Z</time>
      </trkpt>
      <trkpt lat="59.42319693043828" lon="13.756987927481532">
        <ele>69.71</ele>
        <time>2025-02-21T11:28:52.519Z</time>
      </trkpt>
      <trkpt lat="59.423219980672" lon="13.756867982447147">
        <ele>69.59</ele>
        <time>2025-02-21T11:29:55.739Z</time>
      </trkpt>
      <trkpt lat="59.423247976228595" lon="13.756748959422112">
        <ele>69.46</ele>
        <time>2025-02-21T11:30:58.960Z</time>
      </trkpt>
      <trkpt lat="59.42327597178519" lon="13.756627924740314">
        <ele>69.32</ele>
        <time>2025-02-21T11:32:02.182Z</time>
      </trkpt>
      <trkpt lat="59.42330396734178" lon="13.756496999412775">
        <ele>69.19</ele>
        <time>2025-02-21T11:33:05.405Z</time>
      </trkpt>
      <trkpt lat="59.42332592792809" lon="13.756367918103933">
        <ele>69.05</ele>
        <time>2025-02-21T11:34:08.629Z</time>
      </trkpt>
      <trkpt lat="59.423351995646954" lon="13.756236992776394">
        <ele>68.91</ele>
        <time>2025-02-21T11:35:11.854Z</time>
      </trkpt>
      <trkpt lat="59.42337999120355" lon="13.756102966144681">
        <ele>68.77</ele>
        <time>2025-02-21T11:36:15.081Z</time>
      </trkpt>
      <trkpt lat="59.42341293208301" lon="13.755965922027826">
        <ele>68.62</ele>
        <time>2025-02-21T11:37:18.309Z</time>
      </trkpt>
      <trkpt lat="59.42345098592341" lon="13.75582292675972">
        <ele>68.46</ele>
        <time>2025-02-21T11:38:21.538Z</time>
      </trkpt>
      <trkpt lat="59.423484932631254" lon="13.755678925663233">
        <ele>68.31</ele>
        <time>2025-02-21T11:39:24.768Z</time>
      </trkpt>
      <trkpt lat="59.42351594567299" lon="13.755530985072255">
        <ele>68.16</ele>
        <time>2025-02-21T11:40:28.000Z</time>
      </trkpt>
      <trkpt lat="59.423550982028246" lon="13.755376925691962">
        <ele>67.99</ele>
        <time>2025-02-21T11:41:31.233Z</time>
      </trkpt>
      <trkpt lat="59.42358593456447" lon="13.75521699897945">
        <ele>67.84</ele>
        <time>2025-02-21T11:42:34.468Z</time>
      </trkpt>
      <trkpt lat="59.42362499423325" lon="13.755058916285634">
        <ele>67.67</ele>
        <time>2025-02-21T11:43:37.704Z</time>
      </trkpt>
      <trkpt lat="59.42366195842624" lon="13.754894966259599">
        <ele>67.5</ele>
        <time>2025-02-21T11:44:40.942Z</time>
      </trkpt>
      <trkpt lat="59.42369498312473" lon="13.754730932414532">
        <ele>67.34</ele>
        <time>2025-02-21T11:45:44.181Z</time>
      </trkpt>
      <trkpt lat="59.42372993566096" lon="13.754566982388496">
        <ele>67.17</ele>
        <time>2025-02-21T11:46:47.421Z</time>
      </trkpt>
      <trkpt lat="59.423764972016215" lon="13.754412923008204">
        <ele>67.0</ele>
        <time>2025-02-21T11:47:50.663Z</time>
      </trkpt>
      <trkpt lat="59.42379799671471" lon="13.754247967153788">
        <ele>66.83</ele>
        <time>2025-02-21T11:48:53.906Z</time>
      </trkpt>
      <trkpt lat="59.42383294925094" lon="13.754086950793862">
        <ele>66.65</ele>
        <time>2025-02-21T11:49:57.151Z</time>
      </trkpt>
      <trkpt lat="59.42386295646429" lon="13.75392995774746">
        <ele>66.47</ele>
        <time>2025-02-21T11:51:00.397Z</time>
      </trkpt>
      <trkpt lat="59.423894975334406" lon="13.753770953044295">
        <ele>66.29</ele>
        <time>2025-02-21T11:52:03.644Z</time>
      </trkpt>
      <trkpt lat="59.42392892204225" lon="13.75361094251275">
        <ele>66.11</ele>
        <time>2025-02-21T11:53:06.893Z</time>
      </trkpt>
      <trkpt lat="59.423959935083985" lon="13.753446992486715">
        <ele>65.93</ele>
        <time>2025-02-21T11:54:10.143Z</time>
      </trkpt>
      <trkpt lat="59.42398893646896" lon="13.753279941156507">
        <ele>65.74</ele>
        <time>2025-02-21T11:55:13.395Z</time>
      </trkpt>
      <trkpt lat="59.42401693202555" lon="13.753104927018285">
        <ele>65.56</ele>
        <time>2025-02-21T11:56:16.648Z</time>
      </trkpt>
      <trkpt lat="59.424042999744415" lon="13.752929996699095">
        <ele>65.37</ele>
        <time>2025-02-21T11:57:19.903Z</time>
      </trkpt>
      <trkpt lat="59.424066971987486" lon="13.75275095924735">
        <ele>65.18</ele>
        <time>2025-02-21T11:58:23.159Z</time>
      </trkpt>
      <trkpt lat="59.42408096976578" lon="13.752565970644355">
        <ele>64.98</ele>
        <time>2025-02-21T11:59:26.417Z</time>
      </trkpt>
      <trkpt lat="59.42409094423056" lon="13.752376958727837">
        <ele>64.79</ele>
        <time>2025-02-21T12:00:29.676Z</time>
      </trkpt>
      <trkpt lat="59.42409496754408" lon="13.752184929326177">
        <ele>64.59</ele>
        <time>2025-02-21T12:01:32.937Z</time>
      </trkpt>
      <trkpt lat="59.42409697920084" lon="13.751990972086787">
        <ele>64.4</ele>
        <time>2025-02-21T12:02:36.199Z</time>
      </trkpt>
      <trkpt lat="59.4240939617157" lon="13.751793997362256">
        <ele>64.22</ele>
        <time>2025-02-21T12:03:39.463Z</time>
      </trkpt>
      <trkpt lat="59.42409094423056" lon="13.751600962132215">
        <ele>64.03</ele>
        <time>2025-02-21T12:04:42.729Z</time>
      </trkpt>
      <trkpt lat="59.424086920917034" lon="13.7514169793576">
        <ele>63.83</ele>
        <time>2025-02-21T12:05:45.996Z</time>
      </trkpt>
      <trkpt lat="59.42408096976578" lon="13.751237941905856">
        <ele>63.64</ele>
        <time>2025-02-21T12:06:49.265Z</time>
      </trkpt>
      <trkpt lat="59.4240749347955" lon="13.751060999929905">
        <ele>63.44</ele>
        <time>2025-02-21T12:07:52.535Z</time>
      </trkpt>
      <trkpt lat="59.42407099530101" lon="13.75088196247816">
        <ele>63.24</ele>
        <time>2025-02-21T12:08:55.807Z</time>
      </trkpt>
      <trkpt lat="59.424066971987486" lon="13.750700997188687">
        <ele>63.04</ele>
        <time>2025-02-21T12:09:59.080Z</time>
      </trkpt>
      <trkpt lat="59.424064960330725" lon="13.75051399692893">
        <ele>62.84</ele>
        <time>2025-02-21T12:11:02.355Z</time>
      </trkpt>
      <trkpt lat="59.42405892536044" lon="13.750326996669173">
        <ele>62.63</ele>
        <time>2025-02-21T12:12:05.631Z</time>
      </trkpt>
      <trkpt lat="59.42405297420919" lon="13.750137984752655">
        <ele>62.42</ele>
        <time>2025-02-21T12:13:08.909Z</time>
      </trkpt>
      <trkpt lat="59.424045933410525" lon="13.749945955350995">
        <ele>62.21</ele>
        <time>2025-02-21T12:14:12.188Z</time>
      </trkpt>
      <trkpt lat="59.42403897643089" lon="13.749744957312942">
        <ele>61.99</ele>
        <time>2025-02-21T12:15:15.469Z</time>
      </trkpt>
      <trkpt lat="59.42403193563223" lon="13.749533984810114">
        <ele>61.79</ele>
        <time>2025-02-21T12:16:18.752Z</time>
      </trkpt>
      <trkpt lat="59.42402891814709" lon="13.749316977337003">
        <ele>61.57</ele>
        <time>2025-02-21T12:17:22.036Z</time>
      </trkpt>
      <trkpt lat="59.42402699030936" lon="13.749091923236847">
        <ele>61.35</ele>
        <time>2025-02-21T12:18:25.322Z</time>
      </trkpt>
      <trkpt lat="59.424021961167455" lon="13.748863935470581">
        <ele>61.15</ele>
        <time>2025-02-21T12:19:28.610Z</time>
      </trkpt>
      <trkpt lat="59.42401492036879" lon="13.748631924390793">
        <ele>60.94</ele>
        <time>2025-02-21T12:20:31.900Z</time>
      </trkpt>
      <trkpt lat="59.42400796338916" lon="13.748395973816514">
        <ele>60.73</ele>
        <time>2025-02-21T12:21:35.192Z</time>
      </trkpt>
      <trkpt lat="59.424002934247255" lon="13.748159939423203">
        <ele>60.54</ele>
        <time>2025-02-21T12:22:38.486Z</time>
      </trkpt>
      <trkpt lat="59.423997988924384" lon="13.747927928343415">
        <ele>60.34</ele>
        <time>2025-02-21T12:23:41.782Z</time>
      </trkpt>
      <trkpt lat="59.42398994229734" lon="13.74769994057715">
        <ele>60.15</ele>
        <time>2025-02-21T12:24:45.080Z</time>
      </trkpt>
      <trkpt lat="59.42398298531771" lon="13.747475976124406">
        <ele>59.97</ele>
        <time>2025-02-21T12:25:48.379Z</time>
      </trkpt>
      <trkpt lat="59.42397493869066" lon="13.747255951166153">
        <ele>59.78</ele>
        <time>2025-02-21T12:26:51.680Z</time>
      </trkpt>
      <trkpt lat="59.42396898753941" lon="13.747042967006564">
        <ele>59.59</ele>
        <time>2025-02-21T12:27:54.983Z</time>
      </trkpt>
      <trkpt lat="59.423959935083985" lon="13.746837945654988">
        <ele>59.4</ele>
        <time>2025-02-21T12:28:58.288Z</time>
      </trkpt>
      <trkpt lat="59.42395197227597" lon="13.746635941788554">
        <ele>59.22</ele>
        <time>2025-02-21T12:30:01.594Z</time>
      </trkpt>
      <trkpt lat="59.42394694313407" lon="13.746443996205926">
        <ele>59.03</ele>
        <time>2025-02-21T12:31:04.902Z</time>
      </trkpt>
      <trkpt lat="59.423936968669295" lon="13.746257917955518">
        <ele>58.84</ele>
        <time>2025-02-21T12:32:08.211Z</time>
      </trkpt>
      <trkpt lat="59.42392992787063" lon="13.746084999293089">
        <ele>58.65</ele>
        <time>2025-02-21T12:33:11.522Z</time>
      </trkpt>
      <trkpt lat="59.42392196506262" lon="13.745922977104783">
        <ele>58.46</ele>
        <time>2025-02-21T12:34:14.834Z</time>
      </trkpt>
      <trkpt lat="59.423914924263954" lon="13.74576598405838">
        <ele>58.27</ele>
        <time>2025-02-21T12:35:18.147Z</time>
      </trkpt>
      <trkpt lat="59.42390796728432" lon="13.74561795964837">
        <ele>58.08</ele>
        <time>2025-02-21T12:36:21.462Z</time>
      </trkpt>
      <trkpt lat="59.42390293814242" lon="13.745484938845038">
        <ele>57.88</ele>
        <time>2025-02-21T12:37:24.778Z</time>
      </trkpt>
      <trkpt lat="59.42389899864793" lon="13.74535795301199">
        <ele>57.69</ele>
        <time>2025-02-21T12:38:28.095Z</time>
      </trkpt>
      <trkpt lat="59.42389698699117" lon="13.74523096717894">
        <ele>57.51</ele>
        <time>2025-02-21T12:39:31.413Z</time>
      </trkpt>
      <trkpt lat="59.42389698699117" lon="13.745105993002653">
        <ele>57.32</ele>
        <time>2025-02-21T12:40:34.732Z</time>
      </trkpt>
      <trkpt lat="59.42389698699117" lon="13.74499099329114">
        <ele>57.12</ele>
        <time>2025-02-21T12:41:38.052Z</time>
      </trkpt>
      <trkpt lat="59.42389799281955" lon="13.744878927245736">
        <ele>56.93</ele>
        <time>2025-02-21T12:42:41.373Z</time>
      </trkpt>
      <trkpt lat="59.42390092648566" lon="13.744763927534223">
        <ele>56.73</ele>
        <time>2025-02-21T12:43:44.695Z</time>
      </trkpt>
      <trkpt lat="59.42390494979918" lon="13.744647921994328">
        <ele>56.54</ele>
        <time>2025-02-21T12:44:48.018Z</time>
      </trkpt>
      <trkpt lat="59.42390796728432" lon="13.744531916454434">
        <ele>56.35</ele>
        <time>2025-02-21T12:45:51.342Z</time>
      </trkpt>
      <trkpt lat="59.423912996426225" lon="13.744418928399682">
        <ele>56.16</ele>
        <time>2025-02-21T12:46:54.666Z</time>
      </trkpt>
      <trkpt lat="59.423916935920715" lon="13.744303928688169">
        <ele>55.97</ele>
        <time>2025-02-21T12:47:57.991Z</time>
      </trkpt>
      <trkpt lat="59.42392095923424" lon="13.744186917319894">
        <ele>55.79</ele>
        <time>2025-02-21T12:49:01.317Z</time>
      </trkpt>
      <trkpt lat="59.42392598837614" lon="13.744066972285509">
        <ele>55.6</ele>
        <time>2025-02-21T12:50:04.644Z</time>
      </trkpt>
      <trkpt lat="59.42393294535577" lon="13.743941998109221">
        <ele>55.41</ele>
        <time>2025-02-21T12:51:07.972Z</time>
      </trkpt>
      <trkpt lat="59.4239419978112" lon="13.74381199479103">
        <ele>55.22</ele>
        <time>2025-02-21T12:52:11.301Z</time>
      </trkpt>
      <trkpt lat="59.42395096644759" lon="13.74368391931057">
        <ele>55.03</ele>
        <time>2025-02-21T12:53:14.632Z</time>
      </trkpt>
      <trkpt lat="59.423958929255605" lon="13.743548970669508">
        <ele>54.84</ele>
        <time>2025-02-21T12:54:17.964Z</time>
      </trkpt>
      <trkpt lat="59.42396798171103" lon="13.743404969573021">
        <ele>54.66</ele>
        <time>2025-02-21T12:55:21.297Z</time>
      </trkpt>
      <trkpt lat="59.423977956175804" lon="13.74325099401176">
        <ele>54.47</ele>
        <time>2025-02-21T12:56:24.631Z</time>
      </trkpt>
      <trkpt lat="59.42398399114609" lon="13.743092995136976">
        <ele>54.28</ele>
        <time>2025-02-21T12:57:27.966Z</time>
      </trkpt>
      <trkpt lat="59.42398793064058" lon="13.742936924099922">
        <ele>54.09</ele>
        <time>2025-02-21T12:58:31.303Z</time>
      </trkpt>
      <trkpt lat="59.42398994229734" lon="13.74277993105352">
        <ele>53.91</ele>
        <time>2025-02-21T12:59:34.641Z</time>
      </trkpt>
      <trkpt lat="59.42398893646896" lon="13.742620926350355">
        <ele>53.73</ele>
        <time>2025-02-21T13:00:37.980Z</time>
      </trkpt>
      <trkpt lat="59.42398499697447" lon="13.742462927475572">
        <ele>53.55</ele>
        <time>2025-02-21T13:01:41.321Z</time>
      </trkpt>
      <trkpt lat="59.423977956175804" lon="13.74230895191431">
        <ele>53.38</ele>
        <time>2025-02-21T13:02:44.663Z</time>
      </trkpt>
      <trkpt lat="59.42397099919617" lon="13.742152964696288">
        <ele>53.2</ele>
        <time>2025-02-21T13:03:48.006Z</time>
      </trkpt>
      <trkpt lat="59.423957923427224" lon="13.741997983306646">
        <ele>53.02</ele>
        <time>2025-02-21T13:04:51.350Z</time>
      </trkpt>
      <trkpt lat="59.4239419978112" lon="13.741844929754734">
        <ele>52.85</ele>
        <time>2025-02-21T13:05:54.696Z</time>
      </trkpt>
      <trkpt lat="59.42392498254776" lon="13.741690954193473">
        <ele>52.68</ele>
        <time>2025-02-21T13:06:58.043Z</time>
      </trkpt>
      <trkpt lat="59.42390595562756" lon="13.741540918126702">
        <ele>52.51</ele>
        <time>2025-02-21T13:08:01.391Z</time>
      </trkpt>
      <trkpt lat="59.42388793453574" lon="13.741392977535725">
        <ele>52.34</ele>
        <time>2025-02-21T13:09:04.740Z</time>
      </trkpt>
      <trkpt lat="59.42386697977781" lon="13.741246964782476">
        <ele>52.17</ele>
        <time>2025-02-21T13:10:08.091Z</time>
      </trkpt>
      <trkpt lat="59.42384493537247" lon="13.741099946200848">
        <ele>52.0</ele>
        <time>2025-02-21T13:11:11.443Z</time>
      </trkpt>
      <trkpt lat="59.4238209631294" lon="13.74095594510436">
        <ele>51.83</ele>
        <time>2025-02-21T13:12:14.796Z</time>
      </trkpt>
      <trkpt lat="59.42379497922957" lon="13.740810938179493">
        <ele>51.66</ele>
        <time>2025-02-21T13:13:18.150Z</time>
      </trkpt>
      <trkpt lat="59.42376899532974" lon="13.740659980103374">
        <ele>51.5</ele>
        <time>2025-02-21T13:14:21.506Z</time>
      </trkpt>
      <trkpt lat="59.423739993944764" lon="13.740503992885351">
        <ele>51.34</ele>
        <time>2025-02-21T13:15:24.863Z</time>
      </trkpt>
      <trkpt lat="59.42370998673141" lon="13.740342976525426">
        <ele>51.18</ele>
        <time>2025-02-21T13:16:28.221Z</time>
      </trkpt>
      <trkpt lat="59.4236829970032" lon="13.74018095433712">
        <ele>51.03</ele>
        <time>2025-02-21T13:17:31.581Z</time>
      </trkpt>
      <trkpt lat="59.423653995618224" lon="13.740016920492053">
        <ele>50.87</ele>
        <time>2025-02-21T13:18:34.942Z</time>
      </trkpt>
      <trkpt lat="59.42362298257649" lon="13.739853976294398">
        <ele>50.72</ele>
        <time>2025-02-21T13:19:38.305Z</time>
      </trkpt>
      <trkpt lat="59.423589957877994" lon="13.73968499712646">
        <ele>50.58</ele>
        <time>2025-02-21T13:20:41.669Z</time>
      </trkpt>
      <trkpt lat="59.42355198785663" lon="13.739512916654348">
        <ele>50.44</ele>
        <time>2025-02-21T13:21:45.035Z</time>
      </trkpt>
      <trkpt lat="59.42351393401623" lon="13.739337986335158">
        <ele>50.3</ele>
        <time>2025-02-21T13:22:48.402Z</time>
      </trkpt>
      <trkpt lat="59.4234739523381" lon="13.739159954711795">
        <ele>50.16</ele>
        <time>2025-02-21T13:23:51.771Z</time>
      </trkpt>
      <trkpt lat="59.42343698814511" lon="13.73898091726005">
        <ele>50.02</ele>
        <time>2025-02-21T13:24:55.141Z</time>
      </trkpt>
      <trkpt lat="59.423400945961475" lon="13.738792994990945">
        <ele>49.88</ele>
        <time>2025-02-21T13:25:58.513Z</time>
      </trkpt>
      <trkpt lat="59.42336197011173" lon="13.738604988902807">
        <ele>49.75</ele>
        <time>2025-02-21T13:27:01.887Z</time>
      </trkpt>
      <trkpt lat="59.42331796512008" lon="13.738413965329528">
        <ele>49.61</ele>
        <time>2025-02-21T13:28:05.262Z</time>
      </trkpt>
      <trkpt lat="59.423271948471665" lon="13.738221935927868">
        <ele>49.47</ele>
        <time>2025-02-21T13:29:08.639Z</time>
      </trkpt>
      <trkpt lat="59.423228949308395" lon="13.738027978688478">
        <ele>49.34</ele>
        <time>2025-02-21T13:30:12.018Z</time>
      </trkpt>
      <trkpt lat="59.423183938488364" lon="13.737835949286819">
        <ele>49.2</ele>
        <time>2025-02-21T13:31:15.399Z</time>
      </trkpt>
      <trkpt lat="59.42313792183995" lon="13.73764492571354">
        <ele>49.08</ele>
        <time>2025-02-21T13:32:18.781Z</time>
      </trkpt>
      <trkpt lat="59.42309299483895" lon="13.737453985959291">
        <ele>48.96</ele>
        <time>2025-02-21T13:33:22.165Z</time>
      </trkpt>
      <trkpt lat="59.42305091768503" lon="13.737264974042773">
        <ele>48.84</ele>
        <time>2025-02-21T13:34:25.551Z</time>
      </trkpt>
      <trkpt lat="59.42300599068403" lon="13.737077973783016">
        <ele>48.73</ele>
        <time>2025-02-21T13:35:28.938Z</time>
      </trkpt>
      <trkpt lat="59.422960979864" lon="13.73689197935164">
        <ele>48.62</ele>
        <time>2025-02-21T13:36:32.327Z</time>
      </trkpt>
      <trkpt lat="59.42291798070073" lon="13.736709924414754">
        <ele>48.51</ele>
        <time>2025-02-21T13:37:35.718Z</time>
      </trkpt>
      <trkpt lat="59.42287498153746" lon="13.73652895912528">
        <ele>48.4</ele>
        <time>2025-02-21T13:38:39.110Z</time>
      </trkpt>
      <trkpt lat="59.42283298820257" lon="13.736349921673536">
        <ele>48.3</ele>
        <time>2025-02-21T13:39:42.504Z</time>
      </trkpt>
      <trkpt lat="59.42279099486768" lon="13.736167950555682">
        <ele>48.2</ele>
        <time>2025-02-21T13:40:45.900Z</time>
      </trkpt>
      <trkpt lat="59.42274992354214" lon="13.735985979437828">
        <ele>48.11</ele>
        <time>2025-02-21T13:41:49.297Z</time>
      </trkpt>
      <trkpt lat="59.42270793020725" lon="13.735803924500942">
        <ele>48.02</ele>
        <time>2025-02-21T13:42:52.696Z</time>
      </trkpt>
      <trkpt lat="59.422666942700744" lon="13.735621953383088">
        <ele>47.93</ele>
        <time>2025-02-21T13:43:56.097Z</time>
      </trkpt>
      <trkpt lat="59.422624949365854" lon="13.735439982265234">
        <ele>47.84</ele>
        <time>2025-02-21T13:44:59.499Z</time>
      </trkpt>
      <trkpt lat="59.422581950202584" lon="13.735256921499968">
        <ele>47.76</ele>
        <time>2025-02-21T13:46:02.903Z</time>
      </trkpt>
      <trkpt lat="59.422538951039314" lon="13.735073944553733">
        <ele>47.68</ele>
        <time>2025-02-21T13:47:06.308Z</time>
      </trkpt>
      <trkpt lat="59.422496957704425" lon="13.734891973435879">
        <ele>47.6</ele>
        <time>2025-02-21T13:48:09.715Z</time>
      </trkpt>
      <trkpt lat="59.422453958541155" lon="13.734708996489644">
        <ele>47.53</ele>
        <time>2025-02-21T13:49:13.124Z</time>
      </trkpt>
      <trkpt lat="59.422411965206265" lon="13.734525935724378">
        <ele>47.46</ele>
        <time>2025-02-21T13:50:16.534Z</time>
      </trkpt>
      <trkpt lat="59.42237198352814" lon="13.734339941293001">
        <ele>47.39</ele>
        <time>2025-02-21T13:51:19.946Z</time>
      </trkpt>
      <trkpt lat="59.42232797853649" lon="13.734150929376483">
        <ele>47.33</ele>
        <time>2025-02-21T13:52:23.360Z</time>
      </trkpt>
      <trkpt lat="59.422283973544836" lon="13.733960995450616">
        <ele>47.27</ele>
        <time>2025-02-21T13:53:26.775Z</time>
      </trkpt>
      <trkpt lat="59.422238962724805" lon="13.733773995190859">
        <ele>47.22</ele>
        <time>2025-02-21T13:54:30.192Z</time>
      </trkpt>
      <trkpt lat="59.422194957733154" lon="13.733591940253973">
        <ele>47.17</ele>
        <time>2025-02-21T13:55:33.611Z</time>
      </trkpt>
      <trkpt lat="59.422150952741504" lon="13.733407957479358">
        <ele>47.12</ele>
        <time>2025-02-21T13:56:37.031Z</time>
      </trkpt>
      <trkpt lat="59.42210594192147" lon="13.733221963047981">
        <ele>47.08</ele>
        <time>2025-02-21T13:57:40.453Z</time>
      </trkpt>
      <trkpt lat="59.4220629427582" lon="13.733032951131463">
        <ele>47.04</ele>
        <time>2025-02-21T13:58:43.877Z</time>
      </trkpt>
      <trkpt lat="59.42201893776655" lon="13.732843939214945">
        <ele>47.01</ele>
        <time>2025-02-21T13:59:47.303Z</time>
      </trkpt>
      <trkpt lat="59.421978956088424" lon="13.732652999460697">
        <ele>46.98</ele>
        <time>2025-02-21T14:00:50.730Z</time>
      </trkpt>
      <trkpt lat="59.421938974410295" lon="13.732463987544179">
        <ele>46.96</ele>
        <time>2025-02-21T14:01:54.159Z</time>
      </trkpt>
      <trkpt lat="59.4219009205699" lon="13.73227396979928">
        <ele>46.94</ele>
        <time>2025-02-21T14:02:57.590Z</time>
      </trkpt>
      <trkpt lat="59.42186395637691" lon="13.732083952054381">
        <ele>46.93</ele>
        <time>2025-02-21T14:04:01.022Z</time>
      </trkpt>
      <trkpt lat="59.42182498052716" lon="13.731894940137863">
        <ele>46.92</ele>
        <time>2025-02-21T14:05:04.456Z</time>
      </trkpt>
      <trkpt lat="59.421788938343525" lon="13.731710957363248">
        <ele>46.92</ele>
        <time>2025-02-21T14:06:07.892Z</time>
      </trkpt>
      <trkpt lat="59.4217539858073" lon="13.73152295127511">
        <ele>46.92</ele>
        <time>2025-02-21T14:07:11.329Z</time>
      </trkpt>
      <trkpt lat="59.421720961108804" lon="13.731337962672114">
        <ele>46.93</ele>
        <time>2025-02-21T14:08:14.768Z</time>
      </trkpt>
      <trkpt lat="59.42168793641031" lon="13.73115498572588">
        <ele>46.94</ele>
        <time>2025-02-21T14:09:18.208Z</time>
      </trkpt>
      <trkpt lat="59.42165398970246" lon="13.730974942445755">
        <ele>46.95</ele>
        <time>2025-02-21T14:10:21.650Z</time>
      </trkpt>
      <trkpt lat="59.42162297666073" lon="13.730800934135914">
        <ele>46.97</ele>
        <time>2025-02-21T14:11:25.093Z</time>
      </trkpt>
      <trkpt lat="59.42159095779061" lon="13.730629943311214">
        <ele>46.99</ele>
        <time>2025-02-21T14:12:28.538Z</time>
      </trkpt>
      <trkpt lat="59.42155994474888" lon="13.730462975800037">
        <ele>47.01</ele>
        <time>2025-02-21T14:13:31.984Z</time>
      </trkpt>
      <trkpt lat="59.421530943363905" lon="13.730299947783351">
        <ele>47.03</ele>
        <time>2025-02-21T14:14:35.432Z</time>
      </trkpt>
      <trkpt lat="59.42150194197893" lon="13.730136919766665">
        <ele>47.06</ele>
        <time>2025-02-21T14:15:38.881Z</time>
      </trkpt>
      <trkpt lat="59.42147294059396" lon="13.729980932548642">
        <ele>47.1</ele>
        <time>2025-02-21T14:16:42.332Z</time>
      </trkpt>
      <trkpt lat="59.421444945037365" lon="13.729828968644142">
        <ele>47.14</ele>
        <time>2025-02-21T14:17:45.784Z</time>
      </trkpt>
      <trkpt lat="59.42141694948077" lon="13.729683961719275">
        <ele>47.18</ele>
        <time>2025-02-21T14:18:49.237Z</time>
      </trkpt>
      <trkpt lat="59.42138895392418" lon="13.72954691760242">
        <ele>47.23</ele>
        <time>2025-02-21T14:19:52.691Z</time>
      </trkpt>
      <trkpt lat="59.42136498168111" lon="13.729416998103261">
        <ele>47.29</ele>
        <time>2025-02-21T14:20:56.146Z</time>
      </trkpt>
      <trkpt lat="59.421340925619006" lon="13.729290934279561">
        <ele>47.35</ele>
        <time>2025-02-21T14:21:59.603Z</time>
      </trkpt>
      <trkpt lat="59.42131997086108" lon="13.729162942618132">
        <ele>47.41</ele>
        <time>2025-02-21T14:23:03.061Z</time>
      </trkpt>
      <trkpt lat="59.421297926455736" lon="13.729037968441844">
        <ele>47.48</ele>
        <time>2025-02-21T14:24:06.520Z</time>
      </trkpt>
      <trkpt lat="59.421274960041046" lon="13.728918945416808">
        <ele>47.54</ele>
        <time>2025-02-21T14:25:09.980Z</time>
      </trkpt>
      <trkpt lat="59.42125299945474" lon="13.728807969018817">
        <ele>47.61</ele>
        <time>2025-02-21T14:26:13.441Z</time>
      </trkpt>
      <trkpt lat="59.421231960877776" lon="13.728702943772078">
        <ele>47.69</ele>
        <time>2025-02-21T14:27:16.903Z</time>
      </trkpt>
      <trkpt lat="59.421211928129196" lon="13.728597918525338">
        <ele>47.77</ele>
        <time>2025-02-21T14:28:20.366Z</time>
      </trkpt>
      <trkpt lat="59.421188961714506" lon="13.728497922420502">
        <ele>47.84</ele>
        <time>2025-02-21T14:29:23.829Z</time>
      </trkpt>
      <trkpt lat="59.42116993479431" lon="13.728396920487285">
        <ele>47.93</ele>
        <time>2025-02-21T14:30:27.293Z</time>
      </trkpt>
      <trkpt lat="59.42115099169314" lon="13.72829893603921">
        <ele>48.01</ele>
        <time>2025-02-21T14:31:30.758Z</time>
      </trkpt>
      <trkpt lat="59.42113196477294" lon="13.728205980733037">
        <ele>48.09</ele>
        <time>2025-02-21T14:32:34.224Z</time>
      </trkpt>
      <trkpt lat="59.42111193202436" lon="13.728111935779452">
        <ele>48.18</ele>
        <time>2025-02-21T14:33:37.691Z</time>
      </trkpt>
      <trkpt lat="59.421098940074444" lon="13.728023925796151">
        <ele>48.27</ele>
        <time>2025-02-21T14:34:41.159Z</time>
      </trkpt>
      <trkpt lat="59.42108494229615" lon="13.72793398797512">
        <ele>48.37</ele>
        <time>2025-02-21T14:35:44.627Z</time>
      </trkpt>
      <trkpt lat="59.42106692120433" lon="13.72784597799182">
        <ele>48.47</ele>
        <time>2025-02-21T14:36:48.096Z</time>
      </trkpt>
      <trkpt lat="59.42104395478964" lon="13.727752938866615">
        <ele>48.56</ele>
        <time>2025-02-21T14:37:51.566Z</time>
      </trkpt>
      <trkpt lat="59.4210269395262" lon="13.727656966075301">
        <ele>48.67</ele>
        <time>2025-02-21T14:38:55.037Z</time>
      </trkpt>
      <trkpt lat="59.42100799642503" lon="13.727561999112368">
        <ele>48.77</ele>
        <time>2025-02-21T14:39:58.509Z</time>
      </trkpt>
      <trkpt lat="59.420992992818356" lon="13.727466948330402">
        <ele>48.88</ele>
        <time>2025-02-21T14:41:01.981Z</time>
      </trkpt>
      <trkpt lat="59.4209769833833" lon="13.727370975539088">
        <ele>48.99</ele>
        <time>2025-02-21T14:42:05.454Z</time>
      </trkpt>
      <trkpt lat="59.42096097394824" lon="13.727273996919394">
        <ele>49.11</ele>
        <time>2025-02-21T14:43:08.928Z</time>
      </trkpt>
      <trkpt lat="59.42094295285642" lon="13.727174922823906">
        <ele>49.23</ele>
        <time>2025-02-21T14:44:12.403Z</time>
      </trkpt>
      <trkpt lat="59.42092099227011" lon="13.727068975567818">
        <ele>49.35</ele>
        <time>2025-02-21T14:45:15.879Z</time>
      </trkpt>
      <trkpt lat="59.420903977006674" lon="13.726964956149459">
        <ele>49.48</ele>
        <time>2025-02-21T14:46:19.356Z</time>
      </trkpt>
      <trkpt lat="59.42088092677295" lon="13.72685993090272">
        <ele>49.61</ele>
        <time>2025-02-21T14:47:22.834Z</time>
      </trkpt>
      <trkpt lat="59.420860977843404" lon="13.726753983646631">
        <ele>49.74</ele>
        <time>2025-02-21T14:48:26.313Z</time>
      </trkpt>
      <trkpt lat="59.42083893343806" lon="13.72664493508637">
        <ele>49.88</ele>
        <time>2025-02-21T14:49:29.793Z</time>
      </trkpt>
      <trkpt lat="59.420817978680134" lon="13.726533958688378">
        <ele>50.02</ele>
        <time>2025-02-21T14:50:33.274Z</time>
      </trkpt>
      <trkpt lat="59.42079694010317" lon="13.726418958976865">
        <ele>50.16</ele>
        <time>2025-02-21T14:51:36.756Z</time>
      </trkpt>
      <trkpt lat="59.420775985345244" lon="13.726296918466687">
        <ele>50.3</ele>
        <time>2025-02-21T14:52:40.239Z</time>
      </trkpt>
      <trkpt lat="59.4207539409399" lon="13.726168926805258">
        <ele>50.45</ele>
        <time>2025-02-21T14:53:43.723Z</time>
      </trkpt>
      <trkpt lat="59.420731980353594" lon="13.72604395262897">
        <ele>50.6</ele>
        <time>2025-02-21T14:54:47.208Z</time>
      </trkpt>
      <trkpt lat="59.42070993594825" lon="13.72591394931078">
        <ele>50.76</ele>
        <time>2025-02-21T14:55:50.694Z</time>
      </trkpt>
      <trkpt lat="59.420688981190324" lon="13.725778916850686">
        <ele>50.92</ele>
        <time>2025-02-21T14:56:54.181Z</time>
      </trkpt>
      <trkpt lat="59.4206659309566" lon="13.725646985694766">
        <ele>51.08</ele>
        <time>2025-02-21T14:57:57.669Z</time>
      </trkpt>
      <trkpt lat="59.42064296454191" lon="13.725512959063053">
        <ele>51.25</ele>
        <time>2025-02-21T14:59:01.158Z</time>
      </trkpt>
      <trkpt lat="59.42061798647046" lon="13.72537792660296">
        <ele>51.42</ele>
        <time>2025-02-21T15:00:04.649Z</time>
      </trkpt>
      <trkpt lat="59.42059594206512" lon="13.725244989618659">
        <ele>51.59</ele>
        <time>2025-02-21T15:01:08.141Z</time>
      </trkpt>
      <trkpt lat="59.42057498730719" lon="13.725107945501804">
        <ele>51.77</ele>
        <time>2025-02-21T15:02:11.634Z</time>
      </trkpt>
      <trkpt lat="59.42055696621537" lon="13.724974924698472">
        <ele>51.95</ele>
        <time>2025-02-21T15:03:15.128Z</time>
      </trkpt>
      <trkpt lat="59.42053693346679" lon="13.724841987714171">
        <ele>52.13</ele>
        <time>2025-02-21T15:04:18.623Z</time>
      </trkpt>
      <trkpt lat="59.420518996194005" lon="13.72470997273922">
        <ele>52.31</ele>
        <time>2025-02-21T15:05:22.119Z</time>
      </trkpt>
      <trkpt lat="59.42050198093057" lon="13.72458198107779">
        <ele>52.5</ele>
        <time>2025-02-21T15:06:25.616Z</time>
      </trkpt>
      <trkpt lat="59.42048295401037" lon="13.724447954446077">
        <ele>52.69</ele>
        <time>2025-02-21T15:07:29.115Z</time>
      </trkpt>
      <trkpt lat="59.42046199925244" lon="13.724309988319874">
        <ele>52.89</ele>
        <time>2025-02-21T15:08:32.615Z</time>
      </trkpt>
      <trkpt lat="59.420444983989" lon="13.724171938374639">
        <ele>53.09</ele>
        <time>2025-02-21T15:09:36.116Z</time>
      </trkpt>
      <trkpt lat="59.42042897455394" lon="13.724033972248435">
        <ele>53.29</ele>
        <time>2025-02-21T15:10:39.618Z</time>
      </trkpt>
      <trkpt lat="59.42040994763374" lon="13.723901957273483">
        <ele>53.49</ele>
        <time>2025-02-21T15:11:43.121Z</time>
      </trkpt>
      <trkpt lat="59.42039594985545" lon="13.723772959783673">
        <ele>53.7</ele>
        <time>2025-02-21T15:12:46.625Z</time>
      </trkpt>
      <trkpt lat="59.42037893459201" lon="13.723640944808722">
        <ele>53.91</ele>
        <time>2025-02-21T15:13:50.130Z</time>
      </trkpt>
      <trkpt lat="59.42036191932857" lon="13.723510941490531">
        <ele>54.13</ele>
        <time>2025-02-21T15:14:53.636Z</time>
      </trkpt>
      <trkpt lat="59.420345993712544" lon="13.723372975364327">
        <ele>54.34</ele>
        <time>2025-02-21T15:15:57.144Z</time>
      </trkpt>
      <trkpt lat="59.420327972620726" lon="13.723233919590712">
        <ele>54.56</ele>
        <time>2025-02-21T15:17:00.653Z</time>
      </trkpt>
      <trkpt lat="59.42030995152891" lon="13.723101988434792">
        <ele>54.78</ele>
        <time>2025-02-21T15:18:04.163Z</time>
      </trkpt>
      <trkpt lat="59.42029394209385" lon="13.72296997345984">
        <ele>55.0</ele>
        <time>2025-02-21T15:19:07.674Z</time>
      </trkpt>
      <trkpt lat="59.42027994431555" lon="13.722836952656507">
        <ele>55.23</ele>
        <time>2025-02-21T15:20:11.186Z</time>
      </trkpt>
      <trkpt lat="59.420265946537256" lon="13.722700998187065">
        <ele>55.45</ele>
        <time>2025-02-21T15:21:14.699Z</time>
      </trkpt>
      <trkpt lat="59.42025295458734" lon="13.72256395407021">
        <ele>55.68</ele>
        <time>2025-02-21T15:22:18.213Z</time>
      </trkpt>
      <trkpt lat="59.420240968465805" lon="13.722427999600768">
        <ele>55.91</ele>
        <time>2025-02-21T15:23:21.728Z</time>
      </trkpt>
      <trkpt lat="59.42022797651589" lon="13.722289949655533">
        <ele>56.15</ele>
        <time>2025-02-21T15:24:25.245Z</time>
      </trkpt>
      <trkpt lat="59.42021297290921" lon="13.722145948559046">
        <ele>56.38</ele>
        <time>2025-02-21T15:25:28.763Z</time>
      </trkpt>
      <trkpt lat="59.42019495181739" lon="13.721998929977417">
        <ele>56.62</ele>
        <time>2025-02-21T15:26:32.282Z</time>
      </trkpt>
      <trkpt lat="59.420177936553955" lon="13.72185392305255">
        <ele>56.86</ele>
        <time>2025-02-21T15:27:35.802Z</time>
      </trkpt>
      <trkpt lat="59.4201619271189" lon="13.721713945269585">
        <ele>57.1</ele>
        <time>2025-02-21T15:28:39.323Z</time>
      </trkpt>
      <trkpt lat="59.42014298401773" lon="13.721574973315">
        <ele>57.34</ele>
        <time>2025-02-21T15:29:42.846Z</time>
      </trkpt>
      <trkpt lat="59.42012697458267" lon="13.721434995532036">
        <ele>57.58</ele>
        <time>2025-02-21T15:30:46.370Z</time>
      </trkpt>
      <trkpt lat="59.420109959319234" lon="13.72129493393004">
        <ele>57.83</ele>
        <time>2025-02-21T15:31:49.895Z</time>
      </trkpt>
      <trkpt lat="59.42009495571256" lon="13.721151938661933">
        <ele>58.07</ele>
        <time>2025-02-21T15:32:53.421Z</time>
      </trkpt>
      <trkpt lat="59.42008196376264" lon="13.721005925908685">
        <ele>58.32</ele>
        <time>2025-02-21T15:33:56.948Z</time>
      </trkpt>
      <trkpt lat="59.420068971812725" lon="13.720862930640578">
        <ele>58.58</ele>
        <time>2025-02-21T15:35:00.477Z</time>
      </trkpt>
      <trkpt lat="59.42005396820605" lon="13.720724964514375">
        <ele>58.83</ele>
        <time>2025-02-21T15:36:04.007Z</time>
      </trkpt>
      <trkpt lat="59.42003997042775" lon="13.720589932054281">
        <ele>59.09</ele>
        <time>2025-02-21T15:37:07.538Z</time>
      </trkpt>
      <trkpt lat="59.420025972649455" lon="13.72045699506998">
        <ele>59.34</ele>
        <time>2025-02-21T15:38:11.070Z</time>
      </trkpt>
      <trkpt lat="59.42001398652792" lon="13.720323974266648">
        <ele>59.6</ele>
        <time>2025-02-21T15:39:14.603Z</time>
      </trkpt>
      <trkpt lat="59.41999998874962" lon="13.720189947634935">
        <ele>59.86</ele>
        <time>2025-02-21T15:40:18.137Z</time>
      </trkpt>
      <trkpt lat="59.419984985142946" lon="13.720055921003222">
        <ele>60.12</ele>
        <time>2025-02-21T15:41:21.672Z</time>
      </trkpt>
      <trkpt lat="59.41997199319303" lon="13.71991996653378">
        <ele>60.39</ele>
        <time>2025-02-21T15:42:25.208Z</time>
      </trkpt>
      <trkpt lat="59.41995891742408" lon="13.719786945730448">
        <ele>60.65</ele>
        <time>2025-02-21T15:43:28.746Z</time>
      </trkpt>
      <trkpt lat="59.419944919645786" lon="13.719652919098735">
        <ele>60.92</ele>
        <time>2025-02-21T15:44:32.285Z</time>
      </trkpt>
      <trkpt lat="59.41993393935263" lon="13.719523921608925">
        <ele>61.18</ele>
        <time>2025-02-21T15:45:35.825Z</time>
      </trkpt>
      <trkpt lat="59.419919941574335" lon="13.719397941604257">
        <ele>61.44</ele>
        <time>2025-02-21T15:46:39.366Z</time>
      </trkpt>
      <trkpt lat="59.41990694962442" lon="13.71927497908473">
        <ele>61.71</ele>
        <time>2025-02-21T15:47:42.908Z</time>
      </trkpt>
      <trkpt lat="59.419895969331264" lon="13.719156961888075">
        <ele>61.98</ele>
        <time>2025-02-21T15:48:46.451Z</time>
      </trkpt>
      <trkpt lat="59.41988498903811" lon="13.7190399505198">
        <ele>62.25</ele>
        <time>2025-02-21T15:49:49.995Z</time>
      </trkpt>
      <trkpt lat="59.419874930754304" lon="13.718928974121809">
        <ele>62.52</ele>
        <time>2025-02-21T15:50:53.540Z</time>
      </trkpt>
      <trkpt lat="59.41986797377467" lon="13.71882394887507">
        <ele>62.79</ele>
        <time>2025-02-21T15:51:57.086Z</time>
      </trkpt>
      <trkpt lat="59.419858921319246" lon="13.718721941113472">
        <ele>63.05</ele>
        <time>2025-02-21T15:53:00.632Z</time>
      </trkpt>
      <trkpt lat="59.41985095851123" lon="13.718620939180255">
        <ele>63.32</ele>
        <time>2025-02-21T15:54:04.179Z</time>
      </trkpt>
      <trkpt lat="59.41984198987484" lon="13.718519937247038">
        <ele>63.59</ele>
        <time>2025-02-21T15:55:07.727Z</time>
      </trkpt>
      <trkpt lat="59.419834949076176" lon="13.718422958627343">
        <ele>63.85</ele>
        <time>2025-02-21T15:56:11.276Z</time>
      </trkpt>
      <trkpt lat="59.419828997924924" lon="13.71832899749279">
        <ele>64.11</ele>
        <time>2025-02-21T15:57:14.826Z</time>
      </trkpt>
      <trkpt lat="59.41982396878302" lon="13.718235958367586">
        <ele>64.37</ele>
        <time>2025-02-21T15:58:18.376Z</time>
      </trkpt>
      <trkpt lat="59.41982095129788" lon="13.718143925070763">
        <ele>64.63</ele>
        <time>2025-02-21T15:59:21.927Z</time>
      </trkpt>
      <trkpt lat="59.419812988489866" lon="13.718054993078113">
        <ele>64.89</ele>
        <time>2025-02-21T16:00:25.479Z</time>
      </trkpt>
      <trkpt lat="59.4198059476912" lon="13.717967988923192">
        <ele>65.15</ele>
        <time>2025-02-21T16:01:29.032Z</time>
      </trkpt>
      <trkpt lat="59.41979899071157" lon="13.717883918434381">
        <ele>65.4</ele>
        <time>2025-02-21T16:02:32.585Z</time>
      </trkpt>
      <trkpt lat="59.41979496739805" lon="13.717795992270112">
        <ele>65.66</ele>
        <time>2025-02-21T16:03:36.139Z</time>
      </trkpt>
      <trkpt lat="59.419791949912906" lon="13.717710999771953">
        <ele>65.91</ele>
        <time>2025-02-21T16:04:39.694Z</time>
      </trkpt>
      <trkpt lat="59.419788932427764" lon="13.717628940939903">
        <ele>66.15</ele>
        <time>2025-02-21T16:05:43.249Z</time>
      </trkpt>
      <trkpt lat="59.419785998761654" lon="13.717543948441744">
        <ele>66.4</ele>
        <time>2025-02-21T16:06:46.805Z</time>
      </trkpt>
      <trkpt lat="59.41978398710489" lon="13.717458955943584">
        <ele>66.65</ele>
        <time>2025-02-21T16:07:50.362Z</time>
      </trkpt>
      <trkpt lat="59.41978096961975" lon="13.717375975102186">
        <ele>66.89</ele>
        <time>2025-02-21T16:08:53.919Z</time>
      </trkpt>
      <trkpt lat="59.41977795213461" lon="13.717292994260788">
        <ele>67.13</ele>
        <time>2025-02-21T16:09:57.477Z</time>
      </trkpt>
      <trkpt lat="59.41977392882109" lon="13.7172129470855">
        <ele>67.37</ele>
        <time>2025-02-21T16:11:01.036Z</time>
      </trkpt>
      <trkpt lat="59.419771917164326" lon="13.717136923223734">
        <ele>67.61</ele>
        <time>2025-02-21T16:12:04.595Z</time>
      </trkpt>
      <trkpt lat="59.419768983498216" lon="13.71706391684711">
        <ele>67.84</ele>
        <time>2025-02-21T16:13:08.155Z</time>
      </trkpt>
      <trkpt lat="59.419765966013074" lon="13.716987976804376">
        <ele>68.07</ele>
        <time>2025-02-21T16:14:11.716Z</time>
      </trkpt>
      <trkpt lat="59.41976395435631" lon="13.71691094711423">
        <ele>68.3</ele>
        <time>2025-02-21T16:15:15.277Z</time>
      </trkpt>
      <trkpt lat="59.41975993104279" lon="13.716831989586353">
        <ele>68.53</ele>
        <time>2025-02-21T16:16:18.839Z</time>
      </trkpt>
      <trkpt lat="59.41975791938603" lon="13.716751942411065">
        <ele>68.75</ele>
        <time>2025-02-21T16:17:22.402Z</time>
      </trkpt>
      <trkpt lat="59.41975791938603" lon="13.716671979054809">
        <ele>68.97</ele>
        <time>2025-02-21T16:18:25.965Z</time>
      </trkpt>
      <trkpt lat="59.4197559915483" lon="13.71658698655665">
        <ele>69.18</ele>
        <time>2025-02-21T16:19:29.529Z</time>
      </trkpt>
      <trkpt lat="59.41975196823478" lon="13.71650199405849">
        <ele>69.39</ele>
        <time>2025-02-21T16:20:33.094Z</time>
      </trkpt>
      <trkpt lat="59.419747944921255" lon="13.71641792356968">
        <ele>69.6</ele>
        <time>2025-02-21T16:21:36.659Z</time>
      </trkpt>
      <trkpt lat="59.41973998211324" lon="13.716330919414759">
        <ele>69.8</ele>
        <time>2025-02-21T16:22:40.225Z</time>
      </trkpt>
      <trkpt lat="59.41973394714296" lon="13.716239975765347">
        <ele>69.99</ele>
        <time>2025-02-21T16:23:43.792Z</time>
      </trkpt>
      <trkpt lat="59.419729923829436" lon="13.716148948296905">
        <ele>70.18</ele>
        <time>2025-02-21T16:24:47.360Z</time>
      </trkpt>
      <trkpt lat="59.419726990163326" lon="13.716059932485223">
        <ele>70.37</ele>
        <time>2025-02-21T16:25:50.928Z</time>
      </trkpt>
      <trkpt lat="59.419724978506565" lon="13.715967983007431">
        <ele>70.55</ele>
        <time>2025-02-21T16:26:54.497Z</time>
      </trkpt>
      <trkpt lat="59.41972095519304" lon="13.715881984680891">
        <ele>70.73</ele>
        <time>2025-02-21T16:27:58.067Z</time>
      </trkpt>
      <trkpt lat="59.4197179377079" lon="13.715787939727306">
        <ele>70.9</ele>
        <time>2025-02-21T16:29:01.638Z</time>
      </trkpt>
      <trkpt lat="59.41971198655665" lon="13.715685931965709">
        <ele>71.07</ele>
        <time>2025-02-21T16:30:05.209Z</time>
      </trkpt>
      <trkpt lat="59.419704945757985" lon="13.71557797305286">
        <ele>71.23</ele>
        <time>2025-02-21T16:31:08.781Z</time>
      </trkpt>
      <trkpt lat="59.41970092244446" lon="13.7154739536345">
        <ele>71.39</ele>
        <time>2025-02-21T16:32:12.354Z</time>
      </trkpt>
      <trkpt lat="59.41969597712159" lon="13.71536297723651">
        <ele>71.54</ele>
        <time>2025-02-21T16:33:15.928Z</time>
      </trkpt>
      <trkpt lat="59.41968994215131" lon="13.715255940333009">
        <ele>71.69</ele>
        <time>2025-02-21T16:34:19.503Z</time>
      </trkpt>
      <trkpt lat="59.419685918837786" lon="13.715140940621495">
        <ele>71.83</ele>
        <time>2025-02-21T16:35:23.079Z</time>
      </trkpt>
      <trkpt lat="59.419683991000056" lon="13.715024935081601">
        <ele>71.97</ele>
        <time>2025-02-21T16:36:26.656Z</time>
      </trkpt>
      <trkpt lat="59.419680973514915" lon="13.71491295285523">
        <ele>72.1</ele>
        <time>2025-02-21T16:37:30.234Z</time>
      </trkpt>
      <trkpt lat="59.41967795602977" lon="13.714801976457238">
        <ele>72.23</ele>
        <time>2025-02-21T16:38:33.813Z</time>
      </trkpt>
      <trkpt lat="59.41967594437301" lon="13.714693933725357">
        <ele>72.36</ele>
        <time>2025-02-21T16:39:37.392Z</time>
      </trkpt>
      <trkpt lat="59.41967393271625" lon="13.71459192596376">
        <ele>72.47</ele>
        <time>2025-02-21T16:40:40.972Z</time>
      </trkpt>
      <trkpt lat="59.41967099905014" lon="13.714486984536052">
        <ele>72.58</ele>
        <time>2025-02-21T16:41:44.553Z</time>
      </trkpt>
      <trkpt lat="59.41966898739338" lon="13.714382965117693">
        <ele>72.68</ele>
        <time>2025-02-21T16:42:48.135Z</time>
      </trkpt>
      <trkpt lat="59.41966496407986" lon="13.714276934042573">
        <ele>72.78</ele>
        <time>2025-02-21T16:43:51.718Z</time>
      </trkpt>
      <trkpt lat="59.41965892910957" lon="13.714171992614865">
        <ele>72.87</ele>
        <time>2025-02-21T16:44:55.302Z</time>
      </trkpt>
      <trkpt lat="59.41965792328119" lon="13.714065961539745">
        <ele>72.95</ele>
        <time>2025-02-21T16:45:58.887Z</time>
      </trkpt>
      <trkpt lat="59.41965197212994" lon="13.713954985141754">
        <ele>73.02</ele>
        <time>2025-02-21T16:47:02.473Z</time>
      </trkpt>
      <trkpt lat="59.41964694298804" lon="13.713845936581492">
        <ele>73.09</ele>
        <time>2025-02-21T16:48:06.059Z</time>
      </trkpt>
      <trkpt lat="59.419639986008406" lon="13.71373294852674">
        <ele>73.15</ele>
        <time>2025-02-21T16:49:09.646Z</time>
      </trkpt>
      <trkpt lat="59.41963093355298" lon="13.713620966300368">
        <ele>73.2</ele>
        <time>2025-02-21T16:50:13.234Z</time>
      </trkpt>
      <trkpt lat="59.419617941603065" lon="13.713506972417235">
        <ele>73.25</ele>
        <time>2025-02-21T16:51:16.823Z</time>
      </trkpt>
      <trkpt lat="59.41960293799639" lon="13.713396918028593">
        <ele>73.29</ele>
        <time>2025-02-21T16:52:20.413Z</time>
      </trkpt>
      <trkpt lat="59.41958298906684" lon="13.713287953287363">
        <ele>73.33</ele>
        <time>2025-02-21T16:53:24.004Z</time>
      </trkpt>
      <trkpt lat="59.41956295631826" lon="13.713179994374514">
        <ele>73.35</ele>
        <time>2025-02-21T16:54:27.596Z</time>
      </trkpt>
      <trkpt lat="59.4195419177413" lon="13.713076980784535">
        <ele>73.37</ele>
        <time>2025-02-21T16:55:31.189Z</time>
      </trkpt>
      <trkpt lat="59.41951995715499" lon="13.712973967194557">
        <ele>73.39</ele>
        <time>2025-02-21T16:56:34.783Z</time>
      </trkpt>
      <trkpt lat="59.41949891857803" lon="13.71287195943296">
        <ele>73.4</ele>
        <time>2025-02-21T16:57:38.378Z</time>
      </trkpt>
      <trkpt lat="59.41947595216334" lon="13.712772969156504">
        <ele>73.4</ele>
        <time>2025-02-21T16:58:41.974Z</time>
      </trkpt>
      <trkpt lat="59.41945097409189" lon="13.712675990536809">
        <ele>73.4</ele>
        <time>2025-02-21T16:59:45.571Z</time>
      </trkpt>
      <trkpt lat="59.419422978535295" lon="13.712580939754844">
        <ele>73.39</ele>
        <time>2025-02-21T17:00:49.168Z</time>
      </trkpt>
      <trkpt lat="59.41939699463546" lon="13.71248597279191">
        <ele>73.38</ele>
        <time>2025-02-21T17:01:52.766Z</time>
      </trkpt>
      <trkpt lat="59.41936799325049" lon="13.712394945323467">
        <ele>73.36</ele>
        <time>2025-02-21T17:02:56.365Z</time>
      </trkpt>
      <trkpt lat="59.419339997693896" lon="13.712303917855024">
        <ele>73.33</ele>
        <time>2025-02-21T17:03:59.965Z</time>
      </trkpt>
      <trkpt lat="59.41930898465216" lon="13.712213980033994">
        <ele>73.29</ele>
        <time>2025-02-21T17:05:03.566Z</time>
      </trkpt>
      <trkpt lat="59.41927897743881" lon="13.712114989757538">
        <ele>73.24</ele>
        <time>2025-02-21T17:06:07.168Z</time>
      </trkpt>
      <trkpt lat="59.41924695856869" lon="13.71201197616756">
        <ele>73.19</ele>
        <time>2025-02-21T17:07:10.771Z</time>
      </trkpt>
      <trkpt lat="59.41921493969858" lon="13.711908962577581">
        <ele>73.13</ele>
        <time>2025-02-21T17:08:14.375Z</time>
      </trkpt>
      <trkpt lat="59.419187949970365" lon="13.71180192567408">
        <ele>73.06</ele>
        <time>2025-02-21T17:09:17.980Z</time>
      </trkpt>
      <trkpt lat="59.41915794275701" lon="13.71169296093285">
        <ele>72.99</ele>
        <time>2025-02-21T17:10:21.586Z</time>
      </trkpt>
      <trkpt lat="59.419122990220785" lon="13.71158491820097">
        <ele>72.91</ele>
        <time>2025-02-21T17:11:25.193Z</time>
      </trkpt>
      <trkpt lat="59.41909197717905" lon="13.711482994258404">
        <ele>72.83</ele>
        <time>2025-02-21T17:12:28.801Z</time>
      </trkpt>
      <trkpt lat="59.419060964137316" lon="13.711379980668426">
        <ele>72.74</ele>
        <time>2025-02-21T17:13:32.410Z</time>
      </trkpt>
      <trkpt lat="59.41902399994433" lon="13.711269926279783">
        <ele>72.64</ele>
        <time>2025-02-21T17:14:36.020Z</time>
      </trkpt>
      <trkpt lat="59.41898795776069" lon="13.711159955710173">
        <ele>72.54</ele>
        <time>2025-02-21T17:15:39.631Z</time>
      </trkpt>
      <trkpt lat="59.418950993567705" lon="13.7110479734838">
        <ele>72.44</ele>
        <time>2025-02-21T17:16:43.243Z</time>
      </trkpt>
      <trkpt lat="59.41891495138407" lon="13.710933979600668">
        <ele>72.33</ele>
        <time>2025-02-21T17:17:46.856Z</time>
      </trkpt>
      <trkpt lat="59.41887999884784" lon="13.710818979889154">
        <ele>72.21</ele>
        <time>2025-02-21T17:18:50.470Z</time>
      </trkpt>
      <trkpt lat="59.41884194500744" lon="13.710703980177641">
        <ele>72.09</ele>
        <time>2025-02-21T17:19:54.085Z</time>
      </trkpt>
      <trkpt lat="59.418803974986076" lon="13.710583951324224">
        <ele>71.96</ele>
        <time>2025-02-21T17:20:57.702Z</time>
      </trkpt>
      <trkpt lat="59.41877195611596" lon="13.710457971319556">
        <ele>71.82</ele>
        <time>2025-02-21T17:22:01.320Z</time>
      </trkpt>
      <trkpt lat="59.418740943074226" lon="13.710328973829746">
        <ele>71.68</ele>
        <time>2025-02-21T17:23:04.939Z</time>
      </trkpt>
      <trkpt lat="59.41870892420411" lon="13.710194947198033">
        <ele>71.53</ele>
        <time>2025-02-21T17:24:08.559Z</time>
      </trkpt>
      <trkpt lat="59.41867992281914" lon="13.710058992728591">
        <ele>71.37</ele>
        <time>2025-02-21T17:25:12.180Z</time>
      </trkpt>
      <trkpt lat="59.41865595057607" lon="13.709922954440117">
        <ele>71.2</ele>
        <time>2025-02-21T17:26:15.803Z</time>
      </trkpt>
      <trkpt lat="59.41863298416138" lon="13.709782976657152">
        <ele>71.03</ele>
        <time>2025-02-21T17:27:19.427Z</time>
      </trkpt>
      <trkpt lat="59.418610939756036" lon="13.709643920883536">
        <ele>70.84</ele>
        <time>2025-02-21T17:28:23.052Z</time>
      </trkpt>
      <trkpt lat="59.41859291866422" lon="13.70950092561543">
        <ele>70.65</ele>
        <time>2025-02-21T17:29:26.678Z</time>
      </trkpt>
      <trkpt lat="59.41857892088592" lon="13.709350973367691">
        <ele>70.45</ele>
        <time>2025-02-21T17:30:30.305Z</time>
      </trkpt>
      <trkpt lat="59.418562995269895" lon="13.709197919815779">
        <ele>70.24</ele>
        <time>2025-02-21T17:31:33.934Z</time>
      </trkpt>
      <trkpt lat="59.41854991950095" lon="13.709040926769376">
        <ele>70.02</ele>
        <time>2025-02-21T17:32:37.564Z</time>
      </trkpt>
      <trkpt lat="59.418542962521315" lon="13.70887597091496">
        <ele>69.8</ele>
        <time>2025-02-21T17:33:41.195Z</time>
      </trkpt>
      <trkpt lat="59.41853592172265" lon="13.708708919584751">
        <ele>69.57</ele>
        <time>2025-02-21T17:34:44.828Z</time>
      </trkpt>
      <trkpt lat="59.41853097639978" lon="13.708545975387096">
        <ele>69.34</ele>
        <time>2025-02-21T17:35:48.462Z</time>
      </trkpt>
      <trkpt lat="59.4185299705714" lon="13.708378924056888">
        <ele>69.11</ele>
        <time>2025-02-21T17:36:52.097Z</time>
      </trkpt>
      <trkpt lat="59.41853097639978" lon="13.708206927403808">
        <ele>68.87</ele>
        <time>2025-02-21T17:37:55.734Z</time>
      </trkpt>
      <trkpt lat="59.41853994503617" lon="13.708029985427856">
        <ele>68.62</ele>
        <time>2025-02-21T17:38:59.372Z</time>
      </trkpt>
      <trkpt lat="59.41855293698609" lon="13.707851953804493">
        <ele>68.37</ele>
        <time>2025-02-21T17:40:03.012Z</time>
      </trkpt>
      <trkpt lat="59.418567940592766" lon="13.707666965201497">
        <ele>68.12</ele>
        <time>2025-02-21T17:41:06.653Z</time>
      </trkpt>
      <trkpt lat="59.418586967512965" lon="13.70747996494174">
        <ele>67.86</ele>
        <time>2025-02-21T17:42:10.296Z</time>
      </trkpt>
      <trkpt lat="59.418610939756036" lon="13.707293970510364">
        <ele>67.61</ele>
        <time>2025-02-21T17:43:13.940Z</time>
      </trkpt>
      <trkpt lat="59.41864195279777" lon="13.707109987735748">
        <ele>67.35</ele>
        <time>2025-02-21T17:44:17.586Z</time>
      </trkpt>
      <trkpt lat="59.418674977496266" lon="13.706926926970482">
        <ele>67.09</ele>
        <time>2025-02-21T17:45:21.234Z</time>
      </trkpt>
      <trkpt lat="59.41871294751763" lon="13.706740932539105">
        <ele>66.83</ele>
        <time>2025-02-21T17:46:24.883Z</time>
      </trkpt>
      <trkpt lat="59.41875292919576" lon="13.706550998613238">
        <ele>66.57</ele>
        <time>2025-02-21T17:47:28.534Z</time>
      </trkpt>
      <trkpt lat="59.41879492253065" lon="13.706359975039959">
        <ele>66.3</ele>
        <time>2025-02-21T17:48:32.187Z</time>
      </trkpt>
      <trkpt lat="59.41884093917906" lon="13.706162916496396">
        <ele>66.03</ele>
        <time>2025-02-21T17:49:35.841Z</time>
      </trkpt>
      <trkpt lat="59.41888192668557" lon="13.705972982570529">
        <ele>65.74</ele>
        <time>2025-02-21T17:50:39.497Z</time>
      </trkpt>
      <trkpt lat="59.4189269375056" lon="13.705787993967533">
        <ele>65.46</ele>
        <time>2025-02-21T17:51:43.155Z</time>
      </trkpt>
      <trkpt lat="59.418972954154015" lon="13.705601999536157">
        <ele>65.16</ele>
        <time>2025-02-21T17:52:46.814Z</time>
      </trkpt>
      <trkpt lat="59.419014947488904" lon="13.705413993448019">
        <ele>64.87</ele>
        <time>2025-02-21T17:53:50.475Z</time>
      </trkpt>
      <trkpt lat="59.419061969965696" lon="13.7052249815315">
        <ele>64.57</ele>
        <time>2025-02-21T17:54:54.138Z</time>
      </trkpt>
      <trkpt lat="59.41910798661411" lon="13.705039992928505">
        <ele>64.26</ele>
        <time>2025-02-21T17:55:57.802Z</time>
      </trkpt>
      <trkpt lat="59.41915492527187" lon="13.704851986840367">
        <ele>63.95</ele>
        <time>2025-02-21T17:57:01.468Z</time>
      </trkpt>
      <trkpt lat="59.41919599659741" lon="13.70466398075223">
        <ele>63.65</ele>
        <time>2025-02-21T17:58:05.136Z</time>
      </trkpt>
      <trkpt lat="59.41923597827554" lon="13.70447295717895">
        <ele>63.35</ele>
        <time>2025-02-21T17:59:08.806Z</time>
      </trkpt>
      <trkpt lat="59.419272942468524" lon="13.70427598245442">
        <ele>63.05</ele>
        <time>2025-02-21T18:00:12.477Z</time>
      </trkpt>
      <trkpt lat="59.41930294968188" lon="13.704068949446082">
        <ele>62.74</ele>
        <time>2025-02-21T18:01:16.150Z</time>
      </trkpt>
      <trkpt lat="59.41933094523847" lon="13.703859988600016">
        <ele>62.43</ele>
        <time>2025-02-21T18:02:19.825Z</time>
      </trkpt>
      <trkpt lat="59.419358940795064" lon="13.703649938106537">
        <ele>62.12</ele>
        <time>2025-02-21T18:03:23.502Z</time>
      </trkpt>
      <trkpt lat="59.41937495023012" lon="13.703433936461806">
        <ele>61.82</ele>
        <time>2025-02-21T18:04:27.180Z</time>
      </trkpt>
      <trkpt lat="59.419385930523276" lon="13.703209972009063">
        <ele>61.5</ele>
        <time>2025-02-21T18:05:30.860Z</time>
      </trkpt>
      <trkpt lat="59.4193899538368" lon="13.702987935394049">
        <ele>61.2</ele>
        <time>2025-02-21T18:06:34.542Z</time>
      </trkpt>
      <trkpt lat="59.419384924694896" lon="13.702765982598066">
        <ele>60.89</ele>
        <time>2025-02-21T18:07:38.226Z</time>
      </trkpt>
      <trkpt lat="59.419384924694896" lon="13.702547969296575">
        <ele>60.59</ele>
        <time>2025-02-21T18:08:41.912Z</time>
      </trkpt>
      <trkpt lat="59.419378973543644" lon="13.702330961823463">
        <ele>60.29</ele>
        <time>2025-02-21T18:09:45.599Z</time>
      </trkpt>
      <trkpt lat="59.41937193274498" lon="13.702118983492255">
        <ele>59.99</ele>
        <time>2025-02-21T18:10:49.288Z</time>
      </trkpt>
      <trkpt lat="59.41936799325049" lon="13.701905999332666">
        <ele>59.69</ele>
        <time>2025-02-21T18:11:52.979Z</time>
      </trkpt>
      <trkpt lat="59.41936698742211" lon="13.701692931354046">
        <ele>59.4</ele>
        <time>2025-02-21T18:12:56.672Z</time>
      </trkpt>
      <trkpt lat="59.41936396993697" lon="13.701476929709315">
        <ele>59.11</ele>
        <time>2025-02-21T18:14:00.366Z</time>
      </trkpt>
      <trkpt lat="59.4193569291383" lon="13.701260928064585">
        <ele>58.82</ele>
        <time>2025-02-21T18:15:04.062Z</time>
      </trkpt>
      <trkpt lat="59.41935198381543" lon="13.701048949733377">
        <ele>58.52</ele>
        <time>2025-02-21T18:16:07.760Z</time>
      </trkpt>
      <trkpt lat="59.419342931360006" lon="13.700835965573788">
        <ele>58.23</ele>
        <time>2025-02-21T18:17:11.460Z</time>
      </trkpt>
      <trkpt lat="59.419337986037135" lon="13.700619963929057">
        <ele>57.93</ele>
        <time>2025-02-21T18:18:15.161Z</time>
      </trkpt>
      <trkpt lat="59.41933396272361" lon="13.700405973941088">
        <ele>57.64</ele>
        <time>2025-02-21T18:19:18.864Z</time>
      </trkpt>
      <trkpt lat="59.41932792775333" lon="13.700187960639596">
        <ele>57.35</ele>
        <time>2025-02-21T18:20:22.569Z</time>
      </trkpt>
      <trkpt lat="59.41932298243046" lon="13.699967935681343">
        <ele>57.06</ele>
        <time>2025-02-21T18:21:26.276Z</time>
      </trkpt>
      <trkpt lat="59.419318959116936" lon="13.69974891655147">
        <ele>56.77</ele>
        <time>2025-02-21T18:22:29.984Z</time>
      </trkpt>
      <trkpt lat="59.41932197660208" lon="13.69952897541225">
        <ele>56.49</ele>
        <time>2025-02-21T18:23:33.694Z</time>
      </trkpt>
      <trkpt lat="59.41932197660208" lon="13.699308950453997">
        <ele>56.21</ele>
        <time>2025-02-21T18:24:37.406Z</time>
      </trkpt>
      <trkpt lat="59.41932398825884" lon="13.699082974344492">
        <ele>55.93</ele>
        <time>2025-02-21T18:25:41.120Z</time>
      </trkpt>
      <trkpt lat="59.41931493580341" lon="13.698852974921465">
        <ele>55.66</ele>
        <time>2025-02-21T18:26:44.836Z</time>
      </trkpt>
      <trkpt lat="59.41930294968188" lon="13.698613923043013">
        <ele>55.39</ele>
        <time>2025-02-21T18:27:48.554Z</time>
      </trkpt>
      <trkpt lat="59.41929096356034" lon="13.69837294332683">
        <ele>55.11</ele>
        <time>2025-02-21T18:28:52.274Z</time>
      </trkpt>
      <trkpt lat="59.41928392276168" lon="13.698124922811985">
        <ele>54.85</ele>
        <time>2025-02-21T18:29:55.996Z</time>
      </trkpt>
      <trkpt lat="59.419273948296905" lon="13.69787396863103">
        <ele>54.6</ele>
        <time>2025-02-21T18:30:59.720Z</time>
      </trkpt>
      <trkpt lat="59.41926296800375" lon="13.697622930631042">
        <ele>54.34</ele>
        <time>2025-02-21T18:32:03.446Z</time>
      </trkpt>
      <trkpt lat="59.419254921376705" lon="13.697365941479802">
        <ele>54.09</ele>
        <time>2025-02-21T18:33:07.174Z</time>
      </trkpt>
      <trkpt lat="59.419249976053834" lon="13.69710291735828">
        <ele>53.85</ele>
        <time>2025-02-21T18:34:10.904Z</time>
      </trkpt>
      <trkpt lat="59.41924796439707" lon="13.696838971227407">
        <ele>53.63</ele>
        <time>2025-02-21T18:35:14.636Z</time>
      </trkpt>
      <trkpt lat="59.41924394108355" lon="13.696581982076168">
        <ele>53.4</ele>
        <time>2025-02-21T18:36:18.370Z</time>
      </trkpt>
      <trkpt lat="59.41924293525517" lon="13.696326920762658">
        <ele>53.18</ele>
        <time>2025-02-21T18:37:22.106Z</time>
      </trkpt>
      <trkpt lat="59.41924092359841" lon="13.696074960753322">
        <ele>52.98</ele>
        <time>2025-02-21T18:38:25.845Z</time>
      </trkpt>
      <trkpt lat="59.41924192942679" lon="13.695825934410095">
        <ele>52.79</ele>
        <time>2025-02-21T18:39:29.586Z</time>
      </trkpt>
      <trkpt lat="59.419233966618776" lon="13.695581937208772">
        <ele>52.6</ele>
        <time>2025-02-21T18:40:33.329Z</time>
      </trkpt>
      <trkpt lat="59.419223992154" lon="13.695344980806112">
        <ele>52.43</ele>
        <time>2025-02-21T18:41:37.074Z</time>
      </trkpt>
      <trkpt lat="59.41922097466886" lon="13.695110958069563">
        <ele>52.26</ele>
        <time>2025-02-21T18:42:40.820Z</time>
      </trkpt>
      <trkpt lat="59.41921996884048" lon="13.694881964474916">
        <ele>52.1</ele>
        <time>2025-02-21T18:43:44.568Z</time>
      </trkpt>
      <trkpt lat="59.41921695135534" lon="13.694648947566748">
        <ele>51.94</ele>
        <time>2025-02-21T18:44:48.318Z</time>
      </trkpt>
      <trkpt lat="59.41921695135534" lon="13.694425988942385">
        <ele>51.78</ele>
        <time>2025-02-21T18:45:52.070Z</time>
      </trkpt>
      <trkpt lat="59.41921795718372" lon="13.694210993126035">
        <ele>51.64</ele>
        <time>2025-02-21T18:46:55.824Z</time>
      </trkpt>
      <trkpt lat="59.4192189630121" lon="13.693999936804175">
        <ele>51.5</ele>
        <time>2025-02-21T18:47:59.580Z</time>
      </trkpt>
      <trkpt lat="59.41921695135534" lon="13.693802962079644">
        <ele>51.36</ele>
        <time>2025-02-21T18:49:03.337Z</time>
      </trkpt>
      <trkpt lat="59.41921493969858" lon="13.69360196404159">
        <ele>51.24</ele>
        <time>2025-02-21T18:50:07.096Z</time>
      </trkpt>
      <trkpt lat="59.41921493969858" lon="13.69340498931706">
        <ele>51.13</ele>
        <time>2025-02-21T18:51:10.856Z</time>
      </trkpt>
      <trkpt lat="59.41921795718372" lon="13.693208936601877">
        <ele>51.02</ele>
        <time>2025-02-21T18:52:14.618Z</time>
      </trkpt>
      <trkpt lat="59.41922499798238" lon="13.693009950220585">
        <ele>50.92</ele>
        <time>2025-02-21T18:53:18.382Z</time>
      </trkpt>
      <trkpt lat="59.419229943305254" lon="13.692814987152815">
        <ele>50.83</ele>
        <time>2025-02-21T18:54:22.147Z</time>
      </trkpt>
      <trkpt lat="59.419233966618776" lon="13.692623963579535">
        <ele>50.74</ele>
        <time>2025-02-21T18:55:25.914Z</time>
      </trkpt>
      <trkpt lat="59.41924092359841" lon="13.692442998290062">
        <ele>50.66</ele>
        <time>2025-02-21T18:56:29.682Z</time>
      </trkpt>
      <trkpt lat="59.41924494691193" lon="13.692265972495079">
        <ele>50.58</ele>
        <time>2025-02-21T18:57:33.452Z</time>
      </trkpt>
      <trkpt lat="59.419249976053834" lon="13.692083917558193">
        <ele>50.52</ele>
        <time>2025-02-21T18:58:37.223Z</time>
      </trkpt>
      <trkpt lat="59.41926196217537" lon="13.6919039580971">
        <ele>50.46</ele>
        <time>2025-02-21T18:59:40.996Z</time>
      </trkpt>
      <trkpt lat="59.41927797161043" lon="13.691727938130498">
        <ele>50.41</ele>
        <time>2025-02-21T19:00:44.770Z</time>
      </trkpt>
      <trkpt lat="59.41931099630892" lon="13.691377993673086">
        <ele>50.37</ele>
        <time>2025-02-21T19:01:48.547Z</time>
      </trkpt>
      <trkpt lat="59.4193259999156" lon="13.691246984526515">
        <ele>50.33</ele>
        <time>2025-02-21T19:02:52.325Z</time>
      </trkpt>
      <trkpt lat="59.419339997693896" lon="13.691115975379944">
        <ele>50.3</ele>
        <time>2025-02-21T19:03:56.104Z</time>
      </trkpt>
      <trkpt lat="59.41936799325049" lon="13.690853957086802">
        <ele>50.29</ele>
        <time>2025-02-21T19:04:59.885Z</time>
      </trkpt>
      <trkpt lat="59.419382996857166" lon="13.690680954605341">
        <ele>50.28</ele>
        <time>2025-02-21T19:06:03.668Z</time>
      </trkpt>
      <trkpt lat="59.419402945786715" lon="13.690501917153597">
        <ele>50.27</ele>
        <time>2025-02-21T19:07:07.452Z</time>
      </trkpt>
      <trkpt lat="59.419423984363675" lon="13.690330926328897">
        <ele>50.27</ele>
        <time>2025-02-21T19:08:11.238Z</time>
      </trkpt>
      <trkpt lat="59.419445944949985" lon="13.690155996009707">
        <ele>50.29</ele>
        <time>2025-02-21T19:09:15.025Z</time>
      </trkpt>
      <trkpt lat="59.41945591941476" lon="13.690067986026406">
        <ele>50.31</ele>
        <time>2025-02-21T19:10:18.813Z</time>
      </trkpt>
      <trkpt lat="59.419465977698565" lon="13.689979976043105">
        <ele>50.34</ele>
        <time>2025-02-21T19:11:22.602Z</time>
      </trkpt>
      <trkpt lat="59.419487938284874" lon="13.68979993276298">
        <ele>50.37</ele>
        <time>2025-02-21T19:12:26.392Z</time>
      </trkpt>
      <trkpt lat="59.419508976861835" lon="13.689624918624759">
        <ele>50.42</ele>
        <time>2025-02-21T19:13:30.184Z</time>
      </trkpt>
      <trkpt lat="59.419532949104905" lon="13.689444959163666">
        <ele>50.48</ele>
        <time>2025-02-21T19:14:33.977Z</time>
      </trkpt>
      <trkpt lat="59.41955893300474" lon="13.68925896473229">
        <ele>50.54</ele>
        <time>2025-02-21T19:15:37.772Z</time>
      </trkpt>
      <trkpt lat="59.41957896575332" lon="13.689071964472532">
        <ele>50.62</ele>
        <time>2025-02-21T19:16:41.568Z</time>
      </trkpt>
      <trkpt lat="59.419600926339626" lon="13.68889493867755">
        <ele>50.7</ele>
        <time>2025-02-21T19:17:45.366Z</time>
      </trkpt>
      <trkpt lat="59.41962498240173" lon="13.688713973388076">
        <ele>50.79</ele>
        <time>2025-02-21T19:18:49.165Z</time>
      </trkpt>
      <trkpt lat="59.41964694298804" lon="13.688536947593093">
        <ele>50.89</ele>
        <time>2025-02-21T19:19:52.966Z</time>
      </trkpt>
      <trkpt lat="59.41966999322176" lon="13.688358999788761">
        <ele>51.0</ele>
        <time>2025-02-21T19:20:56.768Z</time>
      </trkpt>
      <trkpt lat="59.41968893632293" lon="13.688190942630172">
        <ele>51.12</ele>
        <time>2025-02-21T19:22:00.572Z</time>
      </trkpt>
      <trkpt lat="59.41970997489989" lon="13.688023975118995">
        <ele>51.24</ele>
        <time>2025-02-21T19:23:04.377Z</time>
      </trkpt>
      <trkpt lat="59.41973294131458" lon="13.687861952930689">
        <ele>51.37</ele>
        <time>2025-02-21T19:24:08.184Z</time>
      </trkpt>
      <trkpt lat="59.4197559915483" lon="13.687704959884286">
        <ele>51.51</ele>
        <time>2025-02-21T19:25:11.992Z</time>
      </trkpt>
      <trkpt lat="59.419772922992706" lon="13.68756196461618">
        <ele>51.66</ele>
        <time>2025-02-21T19:26:15.801Z</time>
      </trkpt>
      <trkpt lat="59.419790944084525" lon="13.68741494603455">
        <ele>51.81</ele>
        <time>2025-02-21T19:27:19.611Z</time>
      </trkpt>
      <trkpt lat="59.41980494186282" lon="13.687282931059599">
        <ele>51.96</ele>
        <time>2025-02-21T19:28:23.422Z</time>
      </trkpt>
      <trkpt lat="59.4198199454695" lon="13.687161980196834">
        <ele>52.13</ele>
        <time>2025-02-21T19:29:27.235Z</time>
      </trkpt>
      <trkpt lat="59.419828997924924" lon="13.687060978263617">
        <ele>52.31</ele>
        <time>2025-02-21T19:30:31.048Z</time>
      </trkpt>
      <trkpt lat="59.41983997821808" lon="13.686967939138412">
        <ele>52.49</ele>
        <time>2025-02-21T19:31:34.862Z</time>
      </trkpt>
      <trkpt lat="59.41984894685447" lon="13.686871966347098">
        <ele>52.67</ele>
        <time>2025-02-21T19:32:38.677Z</time>
      </trkpt>
      <trkpt lat="59.419854981824756" lon="13.686785968020558">
        <ele>52.87</ele>
        <time>2025-02-21T19:33:42.493Z</time>
      </trkpt>
      <trkpt lat="59.41986495628953" lon="13.686707932502031">
        <ele>53.07</ele>
        <time>2025-02-21T19:34:46.309Z</time>
      </trkpt>
      <trkpt lat="59.419871997088194" lon="13.686623945832253">
        <ele>53.28</ele>
        <time>2025-02-21T19:35:50.126Z</time>
      </trkpt>
      <trkpt lat="59.41987995989621" lon="13.686548927798867">
        <ele>53.49</ele>
        <time>2025-02-21T19:36:53.944Z</time>
      </trkpt>
      <trkpt lat="59.41989295184612" lon="13.68646896444261">
        <ele>53.7</ele>
        <time>2025-02-21T19:37:57.762Z</time>
      </trkpt>
      <trkpt lat="59.41990493796766" lon="13.686398975551128">
        <ele>53.93</ele>
        <time>2025-02-21T19:39:01.581Z</time>
      </trkpt>
      <trkpt lat="59.419919941574335" lon="13.686326975002885">
        <ele>54.17</ele>
        <time>2025-02-21T19:40:05.401Z</time>
      </trkpt>
      <trkpt lat="59.41993293352425" lon="13.686255980283022">
        <ele>54.4</ele>
        <time>2025-02-21T19:41:09.221Z</time>
      </trkpt>
      <trkpt lat="59.41994299180806" lon="13.68618892505765">
        <ele>54.65</ele>
        <time>2025-02-21T19:42:13.042Z</time>
      </trkpt>
      <trkpt lat="59.41995296627283" lon="13.686117930337787">
        <ele>54.9</ele>
        <time>2025-02-21T19:43:16.863Z</time>
      </trkpt>
      <trkpt lat="59.419960929080844" lon="13.686045929789543">
        <ele>55.15</ele>
        <time>2025-02-21T19:44:20.685Z</time>
      </trkpt>
      <trkpt lat="59.41996998153627" lon="13.685976946726441">
        <ele>55.41</ele>
        <time>2025-02-21T19:45:24.508Z</time>
      </trkpt>
      <trkpt lat="59.419980961829424" lon="13.68590796366334">
        <ele>55.67</ele>
        <time>2025-02-21T19:46:28.331Z</time>
      </trkpt>
      <trkpt lat="59.41998993046582" lon="13.685843925923109">
        <ele>55.93</ele>
        <time>2025-02-21T19:47:32.155Z</time>
      </trkpt>
      <trkpt lat="59.420000994578004" lon="13.685786928981543">
        <ele>56.2</ele>
        <time>2025-02-21T19:48:35.979Z</time>
      </trkpt>
      <trkpt lat="59.42001398652792" lon="13.685722975060344">
        <ele>56.48</ele>
        <time>2025-02-21T19:49:39.804Z</time>
      </trkpt>
      <trkpt lat="59.420027984306216" lon="13.6856509745121">
        <ele>56.75</ele>
        <time>2025-02-21T19:50:43.629Z</time>
      </trkpt>
      <trkpt lat="59.42003695294261" lon="13.685584925115108">
        <ele>57.03</ele>
        <time>2025-02-21T19:51:47.455Z</time>
      </trkpt>
      <trkpt lat="59.420045921579" lon="13.685517953708768">
        <ele>57.32</ele>
        <time>2025-02-21T19:52:51.281Z</time>
      </trkpt>
      <trkpt lat="59.42005195654929" lon="13.685448970645666">
        <ele>57.6</ele>
        <time>2025-02-21T19:53:55.108Z</time>
      </trkpt>
      <trkpt lat="59.42005899734795" lon="13.685378981754184">
        <ele>57.89</ele>
        <time>2025-02-21T19:54:58.936Z</time>
      </trkpt>
      <trkpt lat="59.42006394267082" lon="13.685313938185573">
        <ele>58.18</ele>
        <time>2025-02-21T19:56:02.764Z</time>
      </trkpt>
      <trkpt lat="59.420069977641106" lon="13.685251995921135">
        <ele>58.48</ele>
        <time>2025-02-21T19:57:06.593Z</time>
      </trkpt>
      <trkpt lat="59.42007592879236" lon="13.685189969837666">
        <ele>58.77</ele>
        <time>2025-02-21T19:58:10.422Z</time>
      </trkpt>
      <trkpt lat="59.4200839754194" lon="13.685125932097435">
        <ele>59.07</ele>
        <time>2025-02-21T19:59:14.252Z</time>
      </trkpt>
      <trkpt lat="59.420090932399035" lon="13.685062984004617">
        <ele>59.37</ele>
        <time>2025-02-21T20:00:18.082Z</time>
      </trkpt>
      <trkpt lat="59.42009897902608" lon="13.684999952092767">
        <ele>59.67</ele>
        <time>2025-02-21T20:01:21.913Z</time>
      </trkpt>
      <trkpt lat="59.42010593600571" lon="13.684938931837678">
        <ele>59.98</ele>
        <time>2025-02-21T20:02:25.744Z</time>
      </trkpt>
      <trkpt lat="59.420112976804376" lon="13.684883946552873">
        <ele>60.28</ele>
        <time>2025-02-21T20:03:29.576Z</time>
      </trkpt>
      <trkpt lat="59.42012295126915" lon="13.684822926297784">
        <ele>60.59</ele>
        <time>2025-02-21T20:04:33.408Z</time>
      </trkpt>
      <trkpt lat="59.420133931562304" lon="13.684759978204966">
        <ele>60.89</ele>
        <time>2025-02-21T20:05:37.241Z</time>
      </trkpt>
      <trkpt lat="59.42013996653259" lon="13.684696946293116">
        <ele>61.2</ele>
        <time>2025-02-21T20:06:41.074Z</time>
      </trkpt>
      <trkpt lat="59.42014398984611" lon="13.684636931866407">
        <ele>61.51</ele>
        <time>2025-02-21T20:07:44.908Z</time>
      </trkpt>
      <trkpt lat="59.42014994099736" lon="13.684570966288447">
        <ele>61.82</ele>
        <time>2025-02-21T20:08:48.742Z</time>
      </trkpt>
      <trkpt lat="59.42015798762441" lon="13.684508940204978">
        <ele>62.14</ele>
        <time>2025-02-21T20:09:52.577Z</time>
      </trkpt>
      <trkpt lat="59.4201669562608" lon="13.684443980455399">
        <ele>62.45</ele>
        <time>2025-02-21T20:10:56.412Z</time>
      </trkpt>
      <trkpt lat="59.420178942382336" lon="13.684377931058407">
        <ele>62.76</ele>
        <time>2025-02-21T20:12:00.248Z</time>
      </trkpt>
      <trkpt lat="59.42018497735262" lon="13.684305930510163">
        <ele>63.07</ele>
        <time>2025-02-21T20:13:04.085Z</time>
      </trkpt>
      <trkpt lat="59.42019193433225" lon="13.684235941618681">
        <ele>63.38</ele>
        <time>2025-02-21T20:14:07.922Z</time>
      </trkpt>
      <trkpt lat="59.420196963474154" lon="13.684169976040721">
        <ele>63.69</ele>
        <time>2025-02-21T20:15:11.760Z</time>
      </trkpt>
      <trkpt lat="59.42020894959569" lon="13.68410392664373">
        <ele>64.0</ele>
        <time>2025-02-21T20:16:15.598Z</time>
      </trkpt>
      <trkpt lat="59.42022395320237" lon="13.68403796106577">
        <ele>64.31</ele>
        <time>2025-02-21T20:17:19.437Z</time>
      </trkpt>
      <trkpt lat="59.42022898234427" lon="13.683973923325539">
        <ele>64.63</ele>
        <time>2025-02-21T20:18:23.276Z</time>
      </trkpt>
      <trkpt lat="59.42023392766714" lon="13.683906951919198">
        <ele>64.93</ele>
        <time>2025-02-21T20:19:27.116Z</time>
      </trkpt>
      <trkpt lat="59.420238956809044" lon="13.68384693749249">
        <ele>65.24</ele>
        <time>2025-02-21T20:20:30.957Z</time>
      </trkpt>
      <trkpt lat="59.420241974294186" lon="13.683786923065782">
        <ele>65.55</ele>
        <time>2025-02-21T20:21:34.798Z</time>
      </trkpt>
      <trkpt lat="59.420241974294186" lon="13.683726992458105">
        <ele>65.85</ele>
        <time>2025-02-21T20:22:38.639Z</time>
      </trkpt>
      <trkpt lat="59.420242980122566" lon="13.683660943061113">
        <ele>66.15</ele>
        <time>2025-02-21T20:23:42.481Z</time>
      </trkpt>
      <trkpt lat="59.42024893127382" lon="13.683595983311534">
        <ele>66.46</ele>
        <time>2025-02-21T20:24:46.324Z</time>
      </trkpt>
      <trkpt lat="59.4202549662441" lon="13.683525994420052">
        <ele>66.76</ele>
        <time>2025-02-21T20:25:50.167Z</time>
      </trkpt>
      <trkpt lat="59.42025798372924" lon="13.683461956679821">
        <ele>67.05</ele>
        <time>2025-02-21T20:26:54.011Z</time>
      </trkpt>
      <trkpt lat="59.420259995386004" lon="13.683396996930242">
        <ele>67.35</ele>
        <time>2025-02-21T20:27:57.855Z</time>
      </trkpt>
      <trkpt lat="59.420261923223734" lon="13.683334970846772">
        <ele>67.65</ele>
        <time>2025-02-21T20:29:01.700Z</time>
      </trkpt>
      <trkpt lat="59.420264940708876" lon="13.683270933106542">
        <ele>67.94</ele>
        <time>2025-02-21T20:30:05.545Z</time>
      </trkpt>
      <trkpt lat="59.42027298733592" lon="13.683203961700201">
        <ele>68.23</ele>
        <time>2025-02-21T20:31:09.391Z</time>
      </trkpt>
      <trkpt lat="59.42028095014393" lon="13.683137996122241">
        <ele>68.52</ele>
        <time>2025-02-21T20:32:13.237Z</time>
      </trkpt>
      <trkpt lat="59.420285979285836" lon="13.683065995573997">
        <ele>68.81</ele>
        <time>2025-02-21T20:33:17.084Z</time>
      </trkpt>
      <trkpt lat="59.42029092460871" lon="13.682995922863483">
        <ele>69.09</ele>
        <time>2025-02-21T20:34:20.932Z</time>
      </trkpt>
      <trkpt lat="59.42030098289251" lon="13.682930963113904">
        <ele>69.37</ele>
        <time>2025-02-21T20:35:24.780Z</time>
      </trkpt>
      <trkpt lat="59.420305928215384" lon="13.682859968394041">
        <ele>69.65</ele>
        <time>2025-02-21T20:36:28.629Z</time>
      </trkpt>
      <trkpt lat="59.42031196318567" lon="13.682788973674178">
        <ele>69.93</ele>
        <time>2025-02-21T20:37:32.478Z</time>
      </trkpt>
      <trkpt lat="59.4203189201653" lon="13.682718984782696">
        <ele>70.21</ele>
        <time>2025-02-21T20:38:36.328Z</time>
      </trkpt>
      <trkpt lat="59.42032193765044" lon="13.682652935385704">
        <ele>70.48</ele>
        <time>2025-02-21T20:39:40.178Z</time>
      </trkpt>
      <trkpt lat="59.42032193765044" lon="13.682595938444138">
        <ele>70.75</ele>
        <time>2025-02-21T20:40:44.029Z</time>
      </trkpt>
      <trkpt lat="59.4203189201653" lon="13.682528967037797">
        <ele>71.02</ele>
        <time>2025-02-21T20:41:47.880Z</time>
      </trkpt>
      <trkpt lat="59.42032093182206" lon="13.682460989803076">
        <ele>71.28</ele>
        <time>2025-02-21T20:42:51.732Z</time>
      </trkpt>
      <trkpt lat="59.4203239493072" lon="13.682392928749323">
        <ele>71.54</ele>
        <time>2025-02-21T20:43:55.585Z</time>
      </trkpt>
      <trkpt lat="59.420325960963964" lon="13.68232092820108">
        <ele>71.8</ele>
        <time>2025-02-21T20:44:59.438Z</time>
      </trkpt>
      <trkpt lat="59.420327972620726" lon="13.682248927652836">
        <ele>72.05</ele>
        <time>2025-02-21T20:46:03.292Z</time>
      </trkpt>
      <trkpt lat="59.42033099010587" lon="13.682182962074876">
        <ele>72.3</ele>
        <time>2025-02-21T20:47:07.146Z</time>
      </trkpt>
      <trkpt lat="59.4203329179436" lon="13.682115990668535">
        <ele>72.55</ele>
        <time>2025-02-21T20:48:11.001Z</time>
      </trkpt>
      <trkpt lat="59.42034096457064" lon="13.682047929614782">
        <ele>72.79</ele>
        <time>2025-02-21T20:49:14.856Z</time>
      </trkpt>
      <trkpt lat="59.420346999540925" lon="13.681974923238158">
        <ele>73.03</ele>
        <time>2025-02-21T20:50:18.712Z</time>
      </trkpt>
      <trkpt lat="59.420351944863796" lon="13.681902922689915">
        <ele>73.26</ele>
        <time>2025-02-21T20:51:22.569Z</time>
      </trkpt>
      <trkpt lat="59.42035596817732" lon="13.681831927970052">
        <ele>73.49</ele>
        <time>2025-02-21T20:52:26.426Z</time>
      </trkpt>
      <trkpt lat="59.42035395652056" lon="13.681760933250189">
        <ele>73.72</ele>
        <time>2025-02-21T20:53:30.284Z</time>
      </trkpt>
      <trkpt lat="59.420350939035416" lon="13.681688932701945">
        <ele>73.94</ele>
        <time>2025-02-21T20:54:34.142Z</time>
      </trkpt>
      <trkpt lat="59.420351944863796" lon="13.681617937982082">
        <ele>74.16</ele>
        <time>2025-02-21T20:55:38.001Z</time>
      </trkpt>
      <trkpt lat="59.42035395652056" lon="13.681544931605458">
        <ele>74.38</ele>
        <time>2025-02-21T20:56:41.860Z</time>
      </trkpt>
      <trkpt lat="59.420351944863796" lon="13.681470919400454">
        <ele>74.59</ele>
        <time>2025-02-21T20:57:45.720Z</time>
      </trkpt>
      <trkpt lat="59.420349933207035" lon="13.681390956044197">
        <ele>74.8</ele>
        <time>2025-02-21T20:58:49.581Z</time>
      </trkpt>
      <trkpt lat="59.420348927378654" lon="13.681314932182431">
        <ele>75.0</ele>
        <time>2025-02-21T20:59:53.442Z</time>
      </trkpt>
      <trkpt lat="59.420350939035416" lon="13.681242931634188">
        <ele>75.2</ele>
        <time>2025-02-21T21:00:57.304Z</time>
      </trkpt>
      <trkpt lat="59.420350939035416" lon="13.681169925257564">
        <ele>75.39</ele>
        <time>2025-02-21T21:02:01.167Z</time>
      </trkpt>
      <trkpt lat="59.420350939035416" lon="13.681090967729688">
        <ele>75.58</ele>
        <time>2025-02-21T21:03:05.030Z</time>
      </trkpt>
      <trkpt lat="59.420350939035416" lon="13.681014943867922">
        <ele>75.76</ele>
        <time>2025-02-21T21:04:08.894Z</time>
      </trkpt>
      <trkpt lat="59.42035295069218" lon="13.680936992168427">
        <ele>75.94</ele>
        <time>2025-02-21T21:05:12.758Z</time>
      </trkpt>
      <trkpt lat="59.42035395652056" lon="13.680855939164758">
        <ele>76.12</ele>
        <time>2025-02-21T21:06:16.623Z</time>
      </trkpt>
      <trkpt lat="59.420351944863796" lon="13.68077396415174">
        <ele>76.29</ele>
        <time>2025-02-21T21:07:20.489Z</time>
      </trkpt>
      <trkpt lat="59.420349933207035" lon="13.680685954168439">
        <ele>76.45</ele>
        <time>2025-02-21T21:08:24.356Z</time>
      </trkpt>
      <trkpt lat="59.420345993712544" lon="13.680593920871615">
        <ele>76.61</ele>
        <time>2025-02-21T21:09:28.223Z</time>
      </trkpt>
      <trkpt lat="59.42034096457064" lon="13.680510940030217">
        <ele>76.76</ele>
        <time>2025-02-21T21:10:32.091Z</time>
      </trkpt>
      <trkpt lat="59.42033895291388" lon="13.680433994159102">
        <ele>76.91</ele>
        <time>2025-02-21T21:11:35.960Z</time>
      </trkpt>
      <trkpt lat="59.42033593542874" lon="13.680353946983814">
        <ele>77.06</ele>
        <time>2025-02-21T21:12:39.829Z</time>
      </trkpt>
      <trkpt lat="59.42033492960036" lon="13.680270966142416">
        <ele>77.2</ele>
        <time>2025-02-21T21:13:43.699Z</time>
      </trkpt>
      <trkpt lat="59.4203329179436" lon="13.680177927017212">
        <ele>77.33</ele>
        <time>2025-02-21T21:14:47.570Z</time>
      </trkpt>
      <trkpt lat="59.420326966792345" lon="13.680087989196181">
        <ele>77.46</ele>
        <time>2025-02-21T21:15:51.441Z</time>
      </trkpt>
      <trkpt lat="59.420325960963964" lon="13.68000098504126">
        <ele>77.58</ele>
        <time>2025-02-21T21:16:55.313Z</time>
      </trkpt>
      <trkpt lat="59.420326966792345" lon="13.679921943694353">
        <ele>77.7</ele>
        <time>2025-02-21T21:17:59.186Z</time>
      </trkpt>
      <trkpt lat="59.420328978449106" lon="13.679829994216561">
        <ele>77.81</ele>
        <time>2025-02-21T21:19:03.060Z</time>
      </trkpt>
      <trkpt lat="59.42032294347882" lon="13.67974097840488">
        <ele>77.92</ele>
        <time>2025-02-21T21:20:06.934Z</time>
      </trkpt>
      <trkpt lat="59.4203189201653" lon="13.679653974249959">
        <ele>78.02</ele>
        <time>2025-02-21T21:21:10.809Z</time>
      </trkpt>
      <trkpt lat="59.42031699232757" lon="13.679567975923419">
        <ele>78.12</ele>
        <time>2025-02-21T21:22:14.685Z</time>
      </trkpt>
      <trkpt lat="59.42031397484243" lon="13.679481977596879">
        <ele>78.21</ele>
        <time>2025-02-21T21:23:18.561Z</time>
      </trkpt>
      <trkpt lat="59.42031296901405" lon="13.67940092459321">
        <ele>78.3</ele>
        <time>2025-02-21T21:24:22.438Z</time>
      </trkpt>
      <trkpt lat="59.42031397484243" lon="13.679320961236954">
        <ele>78.38</ele>
        <time>2025-02-21T21:25:26.316Z</time>
      </trkpt>
      <trkpt lat="59.420308945700526" lon="13.679234962910414">
        <ele>78.46</ele>
        <time>2025-02-21T21:26:30.194Z</time>
      </trkpt>
      <trkpt lat="59.42030098289251" lon="13.67914393544197">
        <ele>78.53</ele>
        <time>2025-02-21T21:27:34.073Z</time>
      </trkpt>
      <trkpt lat="59.42029394209385" lon="13.679048968479037">
        <ele>78.6</ele>
        <time>2025-02-21T21:28:37.953Z</time>
      </trkpt>
      <trkpt lat="59.42028095014393" lon="13.678961964324117">
        <ele>78.66</ele>
        <time>2025-02-21T21:29:41.834Z</time>
      </trkpt>
      <trkpt lat="59.42027198150754" lon="13.678871942684054">
        <ele>78.71</ele>
        <time>2025-02-21T21:30:45.715Z</time>
      </trkpt>
      <trkpt lat="59.420259995386004" lon="13.678778987377882">
        <ele>78.77</ele>
        <time>2025-02-21T21:31:49.597Z</time>
      </trkpt>
      <trkpt lat="59.42024893127382" lon="13.678682930767536">
        <ele>78.81</ele>
        <time>2025-02-21T21:32:53.480Z</time>
      </trkpt>
      <trkpt lat="59.420239962637424" lon="13.678585952147841">
        <ele>78.85</ele>
        <time>2025-02-21T21:33:57.364Z</time>
      </trkpt>
      <trkpt lat="59.42023392766714" lon="13.678484950214624">
        <ele>78.89</ele>
        <time>2025-02-21T21:35:01.249Z</time>
      </trkpt>
      <trkpt lat="59.42022495903075" lon="13.67838998325169">
        <ele>78.92</ele>
        <time>2025-02-21T21:36:05.134Z</time>
      </trkpt>
      <trkpt lat="59.420218924060464" lon="13.678288981318474">
        <ele>78.95</ele>
        <time>2025-02-21T21:37:09.020Z</time>
      </trkpt>
      <trkpt lat="59.42021297290921" lon="13.678186973556876">
        <ele>78.97</ele>
        <time>2025-02-21T21:38:12.907Z</time>
      </trkpt>
      <trkpt lat="59.42020894959569" lon="13.678079936653376">
        <ele>78.99</ele>
        <time>2025-02-21T21:39:16.795Z</time>
      </trkpt>
      <trkpt lat="59.42020392045379" lon="13.677972983568907">
        <ele>79.0</ele>
        <time>2025-02-21T21:40:20.684Z</time>
      </trkpt>
      <trkpt lat="59.420195957645774" lon="13.677865946665406">
        <ele>79.01</ele>
        <time>2025-02-21T21:41:24.574Z</time>
      </trkpt>
      <trkpt lat="59.42018397152424" lon="13.677756981924176">
        <ele>79.01</ele>
        <time>2025-02-21T21:42:28.465Z</time>
      </trkpt>
      <trkpt lat="59.42017097957432" lon="13.677650950849056">
        <ele>79.01</ele>
        <time>2025-02-21T21:43:32.357Z</time>
      </trkpt>
      <trkpt lat="59.42015899345279" lon="13.677539974451065">
        <ele>79.0</ele>
        <time>2025-02-21T21:44:36.250Z</time>
      </trkpt>
      <trkpt lat="59.42014692351222" lon="13.677423968911171">
        <ele>78.98</ele>
        <time>2025-02-21T21:45:40.143Z</time>
      </trkpt>
      <trkpt lat="59.420135943219066" lon="13.677303940057755">
        <ele>78.97</ele>
        <time>2025-02-21T21:46:44.037Z</time>
      </trkpt>
      <trkpt lat="59.42012697458267" lon="13.677177960053086">
        <ele>78.95</ele>
        <time>2025-02-21T21:47:47.933Z</time>
      </trkpt>
      <trkpt lat="59.420109959319234" lon="13.677048962563276">
        <ele>78.92</ele>
        <time>2025-02-21T21:48:51.830Z</time>
      </trkpt>
      <trkpt lat="59.420090932399035" lon="13.676923988386989">
        <ele>78.89</ele>
        <time>2025-02-21T21:49:55.728Z</time>
      </trkpt>
      <trkpt lat="59.420070983469486" lon="13.676793985068798">
        <ele>78.86</ele>
        <time>2025-02-21T21:50:59.627Z</time>
      </trkpt>
      <trkpt lat="59.420049944892526" lon="13.676659958437085">
        <ele>78.82</ele>
        <time>2025-02-21T21:52:03.527Z</time>
      </trkpt>
      <trkpt lat="59.42002999596298" lon="13.676528949290514">
        <ele>78.78</ele>
        <time>2025-02-21T21:53:07.428Z</time>
      </trkpt>
      <trkpt lat="59.42001398652792" lon="13.67639391683042">
        <ele>78.74</ele>
        <time>2025-02-21T21:54:11.330Z</time>
      </trkpt>
      <trkpt lat="59.4199959654361" lon="13.676258968189359">
        <ele>78.69</ele>
        <time>2025-02-21T21:55:15.233Z</time>
      </trkpt>
      <trkpt lat="59.4199769385159" lon="13.676124941557646">
        <ele>78.65</ele>
        <time>2025-02-21T21:56:19.137Z</time>
      </trkpt>
      <trkpt lat="59.419957995414734" lon="13.675991920754313">
        <ele>78.59</ele>
        <time>2025-02-21T21:57:23.043Z</time>
      </trkpt>
      <trkpt lat="59.419937962666154" lon="13.675858983770013">
        <ele>78.53</ele>
        <time>2025-02-21T21:58:26.950Z</time>
      </trkpt>
      <trkpt lat="59.419914996251464" lon="13.675720933824778">
        <ele>78.46</ele>
        <time>2025-02-21T21:59:30.858Z</time>
      </trkpt>
      <trkpt lat="59.41988993436098" lon="13.675579950213432">
        <ele>78.39</ele>
        <time>2025-02-21T22:00:34.767Z</time>
      </trkpt>
      <trkpt lat="59.41986495628953" lon="13.675436954945326">
        <ele>78.32</ele>
        <time>2025-02-21T22:01:38.677Z</time>
      </trkpt>
      <trkpt lat="59.419835954904556" lon="13.675296977162361">
        <ele>78.24</ele>
        <time>2025-02-21T22:02:42.589Z</time>
      </trkpt>
      <trkpt lat="59.419809971004725" lon="13.675157921388745">
        <ele>78.16</ele>
        <time>2025-02-21T22:03:46.502Z</time>
      </trkpt>
      <trkpt lat="59.41978792659938" lon="13.675026996061206">
        <ele>78.08</ele>
        <time>2025-02-21T22:04:50.416Z</time>
      </trkpt>
      <trkpt lat="59.419765966013074" lon="13.674896992743015">
        <ele>78.0</ele>
        <time>2025-02-21T22:05:54.331Z</time>
      </trkpt>
      <trkpt lat="59.41974392160773" lon="13.674767995253205">
        <ele>77.91</ele>
        <time>2025-02-21T22:06:58.247Z</time>
      </trkpt>
      <trkpt lat="59.419722966849804" lon="13.674646960571408">
        <ele>77.82</ele>
        <time>2025-02-21T22:08:02.164Z</time>
      </trkpt>
      <trkpt lat="59.41970192827284" lon="13.674526931717992">
        <ele>77.73</ele>
        <time>2025-02-21T22:09:06.082Z</time>
      </trkpt>
      <trkpt lat="59.41967896185815" lon="13.674400951713324">
        <ele>77.63</ele>
        <time>2025-02-21T22:10:10.001Z</time>
      </trkpt>
      <trkpt lat="59.41965792328119" lon="13.674275977537036">
        <ele>77.53</ele>
        <time>2025-02-21T22:11:13.921Z</time>
      </trkpt>
      <trkpt lat="59.419636968523264" lon="13.674148991703987">
        <ele>77.43</ele>
        <time>2025-02-21T22:12:17.843Z</time>
      </trkpt>
      <trkpt lat="59.41961199045181" lon="13.67402795702219">
        <ele>77.33</ele>
        <time>2025-02-21T22:13:21.766Z</time>
      </trkpt>
      <trkpt lat="59.41958692856133" lon="13.673904994502664">
        <ele>77.22</ele>
        <time>2025-02-21T22:14:25.690Z</time>
      </trkpt>
      <trkpt lat="59.41956195048988" lon="13.67379192262888">
        <ele>77.11</ele>
        <time>2025-02-21T22:15:29.615Z</time>
      </trkpt>
      <trkpt lat="59.41953797824681" lon="13.673676922917366">
        <ele>77.0</ele>
        <time>2025-02-21T22:16:33.541Z</time>
      </trkpt>
      <trkpt lat="59.419512916356325" lon="13.67355496622622">
        <ele>76.89</ele>
        <time>2025-02-21T22:17:37.468Z</time>
      </trkpt>
      <trkpt lat="59.41948693245649" lon="13.673437954857945">
        <ele>76.78</ele>
        <time>2025-02-21T22:18:41.396Z</time>
      </trkpt>
      <trkpt lat="59.41946195438504" lon="13.673317926004529">
        <ele>76.66</ele>
        <time>2025-02-21T22:19:45.325Z</time>
      </trkpt>
      <trkpt lat="59.41943597048521" lon="13.67319194599986">
        <ele>76.54</ele>
        <time>2025-02-21T22:20:49.255Z</time>
      </trkpt>
      <trkpt lat="59.41940998658538" lon="13.673064960166812">
        <ele>76.42</ele>
        <time>2025-02-21T22:21:53.186Z</time>
      </trkpt>
      <trkpt lat="59.41938693635166" lon="13.672936968505383">
        <ele>76.3</ele>
        <time>2025-02-21T22:22:57.118Z</time>
      </trkpt>
      <trkpt lat="59.419362964108586" lon="13.672819957137108">
        <ele>76.18</ele>
        <time>2025-02-21T22:24:01.051Z</time>
      </trkpt>
      <trkpt lat="59.419339997693896" lon="13.67269498296082">
        <ele>76.06</ele>
        <time>2025-02-21T22:25:04.985Z</time>
      </trkpt>
      <trkpt lat="59.41931392997503" lon="13.672570930793881">
        <ele>75.94</ele>
        <time>2025-02-21T22:26:08.920Z</time>
      </trkpt>
      <trkpt lat="59.41928593441844" lon="13.672446962445974">
        <ele>75.82</ele>
        <time>2025-02-21T22:27:12.857Z</time>
      </trkpt>
      <trkpt lat="59.41925894469023" lon="13.672314947471023">
        <ele>75.68</ele>
        <time>2025-02-21T22:28:16.795Z</time>
      </trkpt>
      <trkpt lat="59.41922893747687" lon="13.672185949981213">
        <ele>75.55</ele>
        <time>2025-02-21T22:29:20.734Z</time>
      </trkpt>
      <trkpt lat="59.41920395940542" lon="13.672058964148164">
        <ele>75.41</ele>
        <time>2025-02-21T22:30:24.674Z</time>
      </trkpt>
      <trkpt lat="59.41917898133397" lon="13.671916974708438">
        <ele>75.27</ele>
        <time>2025-02-21T22:31:28.615Z</time>
      </trkpt>
      <trkpt lat="59.419149979949" lon="13.671777918934822">
        <ele>75.12</ele>
        <time>2025-02-21T22:32:32.557Z</time>
      </trkpt>
      <trkpt lat="59.41911896690726" lon="13.671635929495096">
        <ele>74.97</ele>
        <time>2025-02-21T22:33:36.501Z</time>
      </trkpt>
      <trkpt lat="59.41908694803715" lon="13.671500980854034">
        <ele>74.82</ele>
        <time>2025-02-21T22:34:40.446Z</time>
      </trkpt>
      <trkpt lat="59.41905199550092" lon="13.67136494256556">
        <ele>74.67</ele>
        <time>2025-02-21T22:35:44.392Z</time>
      </trkpt>
      <trkpt lat="59.419014947488904" lon="13.671227982267737">
        <ele>74.53</ele>
        <time>2025-02-21T22:36:48.339Z</time>
      </trkpt>
      <trkpt lat="59.418971948325634" lon="13.671097978949547">
        <ele>74.38</ele>
        <time>2025-02-21T22:37:52.288Z</time>
      </trkpt>
      <trkpt lat="59.418929954990745" lon="13.670971998944879">
        <ele>74.22</ele>
        <time>2025-02-21T22:38:56.238Z</time>
      </trkpt>
      <trkpt lat="59.418885949999094" lon="13.670850964263082">
        <ele>74.07</ele>
        <time>2025-02-21T22:40:00.189Z</time>
      </trkpt>
      <trkpt lat="59.418843956664205" lon="13.670729929581285">
        <ele>73.91</ele>
        <time>2025-02-21T22:41:04.141Z</time>
      </trkpt>
      <trkpt lat="59.418802969157696" lon="13.67061291821301">
        <ele>73.75</ele>
        <time>2025-02-21T22:42:08.094Z</time>
      </trkpt>
      <trkpt lat="59.418759969994426" lon="13.670490961521864">
        <ele>73.6</ele>
        <time>2025-02-21T22:43:12.049Z</time>
      </trkpt>
      <trkpt lat="59.418716970831156" lon="13.670370932668447">
        <ele>73.44</ele>
        <time>2025-02-21T22:44:16.005Z</time>
      </trkpt>
      <trkpt lat="59.418672965839505" lon="13.670259956270456">
        <ele>73.28</ele>
        <time>2025-02-21T22:45:19.962Z</time>
      </trkpt>
      <trkpt lat="59.418627955019474" lon="13.67013992741704">
        <ele>73.12</ele>
        <time>2025-02-21T22:46:23.920Z</time>
      </trkpt>
      <trkpt lat="59.41857892088592" lon="13.670014953240752">
        <ele>72.96</ele>
        <time>2025-02-21T22:47:27.880Z</time>
      </trkpt>
      <trkpt lat="59.41852896474302" lon="13.669887967407703">
        <ele>72.8</ele>
        <time>2025-02-21T22:48:31.841Z</time>
      </trkpt>
      <trkpt lat="59.4184779189527" lon="13.669756958261132">
        <ele>72.64</ele>
        <time>2025-02-21T22:49:35.803Z</time>
      </trkpt>
      <trkpt lat="59.41842192783952" lon="13.6696239374578">
        <ele>72.48</ele>
        <time>2025-02-21T22:50:39.767Z</time>
      </trkpt>
      <trkpt lat="59.41836291924119" lon="13.669489994645119">
        <ele>72.32</ele>
        <time>2025-02-21T22:51:43.732Z</time>
      </trkpt>
      <trkpt lat="59.41829795949161" lon="13.669355968013406">
        <ele>72.15</ele>
        <time>2025-02-21T22:52:47.699Z</time>
      </trkpt>
      <trkpt lat="59.41823299974203" lon="13.669219929724932">
        <ele>71.99</ele>
        <time>2025-02-21T22:53:51.667Z</time>
      </trkpt>
      <trkpt lat="59.41816493868828" lon="13.66908498108387">
        <ele>71.83</ele>
        <time>2025-02-21T22:54:55.637Z</time>
      </trkpt>
      <trkpt lat="59.418094949796796" lon="13.668950954452157">
        <ele>71.67</ele>
        <time>2025-02-21T22:55:59.608Z</time>
      </trkpt>
      <trkpt lat="59.418025966733694" lon="13.668814999982715">
        <ele>71.51</ele>
        <time>2025-02-21T22:57:03.581Z</time>
      </trkpt>
      <trkpt lat="59.41795597784221" lon="13.668680973351002">
        <ele>71.34</ele>
        <time>2025-02-21T22:58:07.555Z</time>
      </trkpt>
      <trkpt lat="59.41788598895073" lon="13.66854795254767">
        <ele>71.18</ele>
        <time>2025-02-21T22:59:11.531Z</time>
      </trkpt>
      <trkpt lat="59.417814994230866" lon="13.668413925915956">
        <ele>71.01</ele>
        <time>2025-02-21T23:00:15.509Z</time>
      </trkpt>
      <trkpt lat="59.417743999511" lon="13.668278977274895">
        <ele>70.85</ele>
        <time>2025-02-21T23:01:19.488Z</time>
      </trkpt>
      <trkpt lat="59.41767593845725" lon="13.66814092732966">
        <ele>70.69</ele>
        <time>2025-02-21T23:02:23.469Z</time>
      </trkpt>
      <trkpt lat="59.41760594956577" lon="13.668003967031837">
        <ele>70.52</ele>
        <time>2025-02-21T23:03:27.451Z</time>
      </trkpt>
      <trkpt lat="59.417534954845905" lon="13.667867928743362">
        <ele>70.36</ele>
        <time>2025-02-21T23:04:31.435Z</time>
      </trkpt>
      <trkpt lat="59.41746396012604" lon="13.6677329801023">
        <ele>70.2</ele>
        <time>2025-02-21T23:05:35.420Z</time>
      </trkpt>
      <trkpt lat="59.41739296540618" lon="13.667600965127349">
        <ele>70.04</ele>
        <time>2025-02-21T23:06:39.407Z</time>
      </trkpt>
      <trkpt lat="59.417319959029555" lon="13.667467944324017">
        <ele>69.89</ele>
        <time>2025-02-21T23:07:43.396Z</time>
      </trkpt>
      <trkpt lat="59.41724594682455" lon="13.667336935177445">
        <ele>69.74</ele>
        <time>2025-02-21T23:08:47.386Z</time>
      </trkpt>
      <trkpt lat="59.41717495210469" lon="13.667207937687635">
        <ele>69.59</ele>
        <time>2025-02-21T23:09:51.378Z</time>
      </trkpt>
      <trkpt lat="59.417104963213205" lon="13.667075922712684">
        <ele>69.44</ele>
        <time>2025-02-21T23:10:55.371Z</time>
      </trkpt>
      <trkpt lat="59.41703497432172" lon="13.666944997385144">
        <ele>69.29</ele>
        <time>2025-02-21T23:11:59.366Z</time>
      </trkpt>
      <trkpt lat="59.41696892492473" lon="13.666815999895334">
        <ele>69.15</ele>
        <time>2025-02-21T23:13:03.362Z</time>
      </trkpt>
      <trkpt lat="59.41690295934677" lon="13.666690941900015">
        <ele>69.0</ele>
        <time>2025-02-21T23:14:07.360Z</time>
      </trkpt>
      <trkpt lat="59.41683397628367" lon="13.666565967723727">
        <ele>68.86</ele>
        <time>2025-02-21T23:15:11.359Z</time>
      </trkpt>
      <trkpt lat="59.4167669210583" lon="13.666438981890678">
        <ele>68.72</ele>
        <time>2025-02-21T23:16:15.360Z</time>
      </trkpt>
      <trkpt lat="59.41669994965196" lon="13.66631199605763">
        <ele>68.57</ele>
        <time>2025-02-21T23:17:19.362Z</time>
      </trkpt>
      <trkpt lat="59.416630966588855" lon="13.66618593223393">
        <ele>68.43</ele>
        <time>2025-02-21T23:18:23.366Z</time>
      </trkpt>
      <trkpt lat="59.41656198352575" lon="13.66605894640088">
        <ele>68.3</ele>
        <time>2025-02-21T23:19:27.371Z</time>
      </trkpt>
      <trkpt lat="59.41649291664362" lon="13.665932966396213">
        <ele>68.16</ele>
        <time>2025-02-21T23:20:31.378Z</time>
      </trkpt>
      <trkpt lat="59.4164249394089" lon="13.665809920057654">
        <ele>68.03</ele>
        <time>2025-02-21T23:21:35.386Z</time>
      </trkpt>
      <trkpt lat="59.41635696217418" lon="13.66568997502327">
        <ele>67.9</ele>
        <time>2025-02-21T23:22:39.396Z</time>
      </trkpt>
      <trkpt lat="59.41628999076784" lon="13.665568940341473">
        <ele>67.77</ele>
        <time>2025-02-21T23:23:43.407Z</time>
      </trkpt>
      <trkpt lat="59.416224947199225" lon="13.665444971993566">
        <ele>67.64</ele>
        <time>2025-02-21T23:24:47.420Z</time>
      </trkpt>
      <trkpt lat="59.416157975792885" lon="13.665320919826627">
        <ele>67.51</ele>
        <time>2025-02-21T23:25:51.434Z</time>
      </trkpt>
      <trkpt lat="59.416092932224274" lon="13.6651979573071">
        <ele>67.38</ele>
        <time>2025-02-21T23:26:55.450Z</time>
      </trkpt>
      <trkpt lat="59.416027972474694" lon="13.665073988959193">
        <ele>67.26</ele>
        <time>2025-02-21T23:27:59.467Z</time>
      </trkpt>
      <trkpt lat="59.4159619230777" lon="13.664950942620635">
        <ele>67.12</ele>
        <time>2025-02-21T23:29:03.486Z</time>
      </trkpt>
      <trkpt lat="59.41589696332812" lon="13.664826974272728">
        <ele>67.0</ele>
        <time>2025-02-21T23:30:07.506Z</time>
      </trkpt>
      <trkpt lat="59.41583099775016" lon="13.66470392793417">
        <ele>66.87</ele>
        <time>2025-02-21T23:31:11.527Z</time>
      </trkpt>
      <trkpt lat="59.41576394252479" lon="13.664581971243024">
        <ele>66.75</ele>
        <time>2025-02-21T23:32:15.550Z</time>
      </trkpt>
      <trkpt lat="59.41569898277521" lon="13.664458924904466">
        <ele>66.63</ele>
        <time>2025-02-21T23:33:19.574Z</time>
      </trkpt>
      <trkpt lat="59.41563293337822" lon="13.66433696821332">
        <ele>66.51</ele>
        <time>2025-02-21T23:34:23.600Z</time>
      </trkpt>
      <trkpt lat="59.41556897945702" lon="13.664213921874762">
        <ele>66.39</ele>
        <time>2025-02-21T23:35:27.627Z</time>
      </trkpt>
      <trkpt lat="59.41550192423165" lon="13.664090959355235">
        <ele>66.28</ele>
        <time>2025-02-21T23:36:31.656Z</time>
      </trkpt>
      <trkpt lat="59.41543595865369" lon="13.663962967693806">
        <ele>66.17</ele>
        <time>2025-02-21T23:37:35.686Z</time>
      </trkpt>
      <trkpt lat="59.41536999307573" lon="13.663837993517518">
        <ele>66.06</ele>
        <time>2025-02-21T23:38:39.718Z</time>
      </trkpt>
      <trkpt lat="59.41530494950712" lon="13.663717964664102">
        <ele>65.95</ele>
        <time>2025-02-21T23:39:43.751Z</time>
      </trkpt>
      <trkpt lat="59.41523797810078" lon="13.663593996316195">
        <ele>65.84</ele>
        <time>2025-02-21T23:40:47.786Z</time>
      </trkpt>
      <trkpt lat="59.415172934532166" lon="13.663469944149256">
        <ele>65.73</ele>
        <time>2025-02-21T23:41:51.822Z</time>
      </trkpt>
      <trkpt lat="59.415105963125825" lon="13.66334798745811">
        <ele>65.63</ele>
        <time>2025-02-21T23:42:55.860Z</time>
      </trkpt>
      <trkpt lat="59.415038991719484" lon="13.663224941119552">
        <ele>65.52</ele>
        <time>2025-02-21T23:43:59.899Z</time>
      </trkpt>
      <trkpt lat="59.41497193649411" lon="13.663099966943264">
        <ele>65.42</ele>
        <time>2025-02-21T23:45:03.939Z</time>
      </trkpt>
      <trkpt lat="59.41490496508777" lon="13.662973986938596">
        <ele>65.33</ele>
        <time>2025-02-21T23:46:07.981Z</time>
      </trkpt>
      <trkpt lat="59.41483992151916" lon="13.662852952256799">
        <ele>65.23</ele>
        <time>2025-02-21T23:47:12.024Z</time>
      </trkpt>
      <trkpt lat="59.4147739559412" lon="13.662734935060143">
        <ele>65.15</ele>
        <time>2025-02-21T23:48:16.069Z</time>
      </trkpt>
      <trkpt lat="59.41470899619162" lon="13.662614990025759">
        <ele>65.06</ele>
        <time>2025-02-21T23:49:20.115Z</time>
      </trkpt>
      <trkpt lat="59.41464697010815" lon="13.662495967000723">
        <ele>64.98</ele>
        <time>2025-02-21T23:50:24.163Z</time>
      </trkpt>
      <trkpt lat="59.41458494402468" lon="13.662376943975687">
        <ele>64.9</ele>
        <time>2025-02-21T23:51:28.212Z</time>
      </trkpt>
      <trkpt lat="59.41452291794121" lon="13.662255993112922">
        <ele>64.82</ele>
        <time>2025-02-21T23:52:32.262Z</time>
      </trkpt>
      <trkpt lat="59.414462987333536" lon="13.662131940945983">
        <ele>64.74</ele>
        <time>2025-02-21T23:53:36.314Z</time>
      </trkpt>
      <trkpt lat="59.41440498456359" lon="13.662006966769695">
        <ele>64.66</ele>
        <time>2025-02-21T23:54:40.367Z</time>
      </trkpt>
      <trkpt lat="59.414349999278784" lon="13.661877969279885">
        <ele>64.59</ele>
        <time>2025-02-21T23:55:44.422Z</time>
      </trkpt>
      <trkpt lat="59.41429199650884" lon="13.661748971790075">
        <ele>64.52</ele>
        <time>2025-02-21T23:56:48.478Z</time>
      </trkpt>
      <trkpt lat="59.41423893906176" lon="13.661616956815124">
        <ele>64.45</ele>
        <time>2025-02-21T23:57:52.535Z</time>
      </trkpt>
      <trkpt lat="59.414181942120194" lon="13.66148192435503">
        <ele>64.39</ele>
        <time>2025-02-21T23:58:56.594Z</time>
      </trkpt>
      <trkpt lat="59.41412393935025" lon="13.661345969885588">
        <ele>64.33</ele>
        <time>2025-02-22T00:00:00.654Z</time>
      </trkpt>
      <trkpt lat="59.4140659365803" lon="13.661207919940352">
        <ele>64.26</ele>
        <time>2025-02-22T00:01:04.716Z</time>
      </trkpt>
      <trkpt lat="59.41400592215359" lon="13.66107196547091">
        <ele>64.2</ele>
        <time>2025-02-22T00:02:08.779Z</time>
      </trkpt>
      <trkpt lat="59.413944985717535" lon="13.660938944667578">
        <ele>64.14</ele>
        <time>2025-02-22T00:03:12.844Z</time>
      </trkpt>
      <trkpt lat="59.413882959634066" lon="13.660808941349387">
        <ele>64.07</ele>
        <time>2025-02-22T00:04:16.910Z</time>
      </trkpt>
      <trkpt lat="59.413819927722216" lon="13.660681955516338">
        <ele>64.01</ele>
        <time>2025-02-22T00:05:20.978Z</time>
      </trkpt>
      <trkpt lat="59.4137569796294" lon="13.66055698134005">
        <ele>63.95</ele>
        <time>2025-02-22T00:06:25.047Z</time>
      </trkpt>
      <trkpt lat="59.41369394771755" lon="13.66043091751635">
        <ele>63.89</ele>
        <time>2025-02-22T00:07:29.117Z</time>
      </trkpt>
      <trkpt lat="59.41362898796797" lon="13.660306949168444">
        <ele>63.84</ele>
        <time>2025-02-22T00:08:33.189Z</time>
      </trkpt>
      <trkpt lat="59.413560926914215" lon="13.660180969163775">
        <ele>63.78</ele>
        <time>2025-02-22T00:09:37.262Z</time>
      </trkpt>
      <trkpt lat="59.413493955507874" lon="13.660052977502346">
        <ele>63.72</ele>
        <time>2025-02-22T00:10:41.337Z</time>
      </trkpt>
      <trkpt lat="59.413426984101534" lon="13.659925991669297">
        <ele>63.66</ele>
        <time>2025-02-22T00:11:45.413Z</time>
      </trkpt>
      <trkpt lat="59.41335992887616" lon="13.659795988351107">
        <ele>63.61</ele>
        <time>2025-02-22T00:12:49.491Z</time>
      </trkpt>
      <trkpt lat="59.41329094581306" lon="13.659664979204535">
        <ele>63.55</ele>
        <time>2025-02-22T00:13:53.570Z</time>
      </trkpt>
      <trkpt lat="59.41322196274996" lon="13.659534975886345">
        <ele>63.49</ele>
        <time>2025-02-22T00:14:57.651Z</time>
      </trkpt>
      <trkpt lat="59.413152979686856" lon="13.659402960911393">
        <ele>63.43</ele>
        <time>2025-02-22T00:16:01.734Z</time>
      </trkpt>
      <trkpt lat="59.413087936118245" lon="13.659272957593203">
        <ele>63.38</ele>
        <time>2025-02-22T00:17:05.818Z</time>
      </trkpt>
      <trkpt lat="59.413020964711905" lon="13.659145971760154">
        <ele>63.33</ele>
        <time>2025-02-22T00:18:09.904Z</time>
      </trkpt>
      <trkpt lat="59.412953993305564" lon="13.659019991755486">
        <ele>63.28</ele>
        <time>2025-02-22T00:19:13.991Z</time>
      </trkpt>
      <trkpt lat="59.41288492642343" lon="13.658894933760166">
        <ele>63.23</ele>
        <time>2025-02-22T00:20:18.080Z</time>
      </trkpt>
      <trkpt lat="59.41281694918871" lon="13.658770965412259">
        <ele>63.19</ele>
        <time>2025-02-22T00:21:22.170Z</time>
      </trkpt>
      <trkpt lat="59.41275098361075" lon="13.658646997064352">
        <ele>63.15</ele>
        <time>2025-02-22T00:22:26.261Z</time>
      </trkpt>
      <trkpt lat="59.4126879516989" lon="13.658522944897413">
        <ele>63.11</ele>
        <time>2025-02-22T00:23:30.354Z</time>
      </trkpt>
      <trkpt lat="59.4126239977777" lon="13.658397970721126">
        <ele>63.07</ele>
        <time>2025-02-22T00:24:34.448Z</time>
      </trkpt>
      <trkpt lat="59.41255895420909" lon="13.658271990716457">
        <ele>63.02</ele>
        <time>2025-02-22T00:25:38.544Z</time>
      </trkpt>
      <trkpt lat="59.41249399445951" lon="13.658145926892757">
        <ele>62.98</ele>
        <time>2025-02-22T00:26:42.641Z</time>
      </trkpt>
      <trkpt lat="59.41242794506252" lon="13.65802195854485">
        <ele>62.94</ele>
        <time>2025-02-22T00:27:46.740Z</time>
      </trkpt>
      <trkpt lat="59.41236197948456" lon="13.657896984368563">
        <ele>62.89</ele>
        <time>2025-02-22T00:28:50.840Z</time>
      </trkpt>
      <trkpt lat="59.412295930087566" lon="13.657771926373243">
        <ele>62.83</ele>
        <time>2025-02-22T00:29:54.942Z</time>
      </trkpt>
      <trkpt lat="59.41223097033799" lon="13.657648963853717">
        <ele>62.78</ele>
        <time>2025-02-22T00:30:59.045Z</time>
      </trkpt>
      <trkpt lat="59.4121699500829" lon="13.65752792917192">
        <ele>62.74</ele>
        <time>2025-02-22T00:32:03.150Z</time>
      </trkpt>
      <trkpt lat="59.41210892982781" lon="13.657412929460406">
        <ele>62.68</ele>
        <time>2025-02-22T00:33:07.256Z</time>
      </trkpt>
      <trkpt lat="59.41204698756337" lon="13.657298935577273">
        <ele>62.63</ele>
        <time>2025-02-22T00:34:11.363Z</time>
      </trkpt>
      <trkpt lat="59.41198395565152" lon="13.65718494169414">
        <ele>62.58</ele>
        <time>2025-02-22T00:35:15.472Z</time>
      </trkpt>
      <trkpt lat="59.411924947053194" lon="13.657069941982627">
        <ele>62.53</ele>
        <time>2025-02-22T00:36:19.582Z</time>
      </trkpt>
      <trkpt lat="59.411861998960376" lon="13.656960977241397">
        <ele>62.49</ele>
        <time>2025-02-22T00:37:23.693Z</time>
      </trkpt>
      <trkpt lat="59.411796955391765" lon="13.656856957823038">
        <ele>62.45</ele>
        <time>2025-02-22T00:38:27.806Z</time>
      </trkpt>
      <trkpt lat="59.41172897815704" lon="13.656755955889821">
        <ele>62.4</ele>
        <time>2025-02-22T00:39:31.920Z</time>
      </trkpt>
      <trkpt lat="59.41165999509394" lon="13.656659983098507">
        <ele>62.36</ele>
        <time>2025-02-22T00:40:36.035Z</time>
      </trkpt>
      <trkpt lat="59.41159092821181" lon="13.65656292065978">
        <ele>62.32</ele>
        <time>2025-02-22T00:41:40.152Z</time>
      </trkpt>
      <trkpt lat="59.411520939320326" lon="13.656464936211705">
        <ele>62.29</ele>
        <time>2025-02-22T00:42:44.270Z</time>
      </trkpt>
      <trkpt lat="59.411453967913985" lon="13.656369969248772">
        <ele>62.25</ele>
        <time>2025-02-22T00:43:48.389Z</time>
      </trkpt>
      <trkpt lat="59.4113839790225" lon="13.65628095343709">
        <ele>62.21</ele>
        <time>2025-02-22T00:44:52.510Z</time>
      </trkpt>
      <trkpt lat="59.41131298430264" lon="13.656201995909214">
        <ele>62.18</ele>
        <time>2025-02-22T00:45:56.632Z</time>
      </trkpt>
      <trkpt lat="59.411239977926016" lon="13.65613292902708">
        <ele>62.14</ele>
        <time>2025-02-22T00:47:00.755Z</time>
      </trkpt>
      <trkpt lat="59.41116697154939" lon="13.65606696344912">
        <ele>62.11</ele>
        <time>2025-02-22T00:48:04.880Z</time>
      </trkpt>
      <trkpt lat="59.41109899431467" lon="13.656006949022412">
        <ele>62.07</ele>
        <time>2025-02-22T00:49:09.006Z</time>
      </trkpt>
      <trkpt lat="59.41103093326092" lon="13.655949952080846">
        <ele>62.03</ele>
        <time>2025-02-22T00:50:13.133Z</time>
      </trkpt>
      <trkpt lat="59.410961950197816" lon="13.655899995937943">
        <ele>61.99</ele>
        <time>2025-02-22T00:51:17.261Z</time>
      </trkpt>
      <trkpt lat="59.410893972963095" lon="13.655854985117912">
        <ele>61.95</ele>
        <time>2025-02-22T00:52:21.390Z</time>
      </trkpt>
      <trkpt lat="59.41082498989999" lon="13.655812991783023">
        <ele>61.92</ele>
        <time>2025-02-22T00:53:25.521Z</time>
      </trkpt>
      <trkpt lat="59.41075592301786" lon="13.655768986791372">
        <ele>61.88</ele>
        <time>2025-02-22T00:54:29.653Z</time>
      </trkpt>
      <trkpt lat="59.41068593412638" lon="13.655726993456483">
        <ele>61.84</ele>
        <time>2025-02-22T00:55:33.786Z</time>
      </trkpt>
      <trkpt lat="59.41061292774975" lon="13.655685922130942">
        <ele>61.8</ele>
        <time>2025-02-22T00:56:37.920Z</time>
      </trkpt>
      <trkpt lat="59.4105379935354" lon="13.655648957937956">
        <ele>61.76</ele>
        <time>2025-02-22T00:57:42.055Z</time>
      </trkpt>
      <trkpt lat="59.410463981330395" lon="13.655617944896221">
        <ele>61.71</ele>
        <time>2025-02-22T00:58:46.192Z</time>
      </trkpt>
      <trkpt lat="59.41039298661053" lon="13.655594978481531">
        <ele>61.66</ele>
        <time>2025-02-22T00:59:50.330Z</time>
      </trkpt>
      <trkpt lat="59.41032299771905" lon="13.655574945732951">
        <ele>61.62</ele>
        <time>2025-02-22T01:00:54.469Z</time>
      </trkpt>
      <trkpt lat="59.4102549366653" lon="13.655553990975022">
        <ele>61.57</ele>
        <time>2025-02-22T01:01:58.609Z</time>
      </trkpt>
      <trkpt lat="59.410187965258956" lon="13.65552892908454">
        <ele>61.51</ele>
        <time>2025-02-22T01:03:02.750Z</time>
      </trkpt>
      <trkpt lat="59.410123927518725" lon="13.65550596266985">
        <ele>61.46</ele>
        <time>2025-02-22T01:04:06.892Z</time>
      </trkpt>
      <trkpt lat="59.41006198525429" lon="13.655479978770018">
        <ele>61.4</ele>
        <time>2025-02-22T01:05:11.035Z</time>
      </trkpt>
      <trkpt lat="59.41000197082758" lon="13.655446954071522">
        <ele>61.35</ele>
        <time>2025-02-22T01:06:15.179Z</time>
      </trkpt>
      <trkpt lat="59.40994497388601" lon="13.655408984050155">
        <ele>61.29</ele>
        <time>2025-02-22T01:07:19.324Z</time>
      </trkpt>
      <trkpt lat="59.40988898277283" lon="13.655361961573362">
        <ele>61.23</ele>
        <time>2025-02-22T01:08:23.470Z</time>
      </trkpt>
      <trkpt lat="59.40983592532575" lon="13.655304964631796">
        <ele>61.17</ele>
        <time>2025-02-22T01:09:27.617Z</time>
      </trkpt>
      <trkpt lat="59.40978798083961" lon="13.655242938548326">
        <ele>61.11</ele>
        <time>2025-02-22T01:10:31.765Z</time>
      </trkpt>
      <trkpt lat="59.4097419641912" lon="13.655178984627128">
        <ele>61.05</ele>
        <time>2025-02-22T01:11:35.914Z</time>
      </trkpt>
      <trkpt lat="59.40969896502793" lon="13.655111929401755">
        <ele>60.99</ele>
        <time>2025-02-22T01:12:40.064Z</time>
      </trkpt>
      <trkpt lat="59.40965596586466" lon="13.655043952167034">
        <ele>60.93</ele>
        <time>2025-02-22T01:13:44.215Z</time>
      </trkpt>
      <trkpt lat="59.40961497835815" lon="13.65497094579041">
        <ele>60.87</ele>
        <time>2025-02-22T01:14:48.367Z</time>
      </trkpt>
      <trkpt lat="59.40957893617451" lon="13.654891988262534">
        <ele>60.8</ele>
        <time>2025-02-22T01:15:52.519Z</time>
      </trkpt>
      <trkpt lat="59.40954498946667" lon="13.654812946915627">
        <ele>60.74</ele>
        <time>2025-02-22T01:16:56.672Z</time>
      </trkpt>
      <trkpt lat="59.409517999738455" lon="13.654734995216131">
        <ele>60.68</ele>
        <time>2025-02-22T01:18:00.826Z</time>
      </trkpt>
      <trkpt lat="59.40948899835348" lon="13.65465092472732">
        <ele>60.61</ele>
        <time>2025-02-22T01:19:04.981Z</time>
      </trkpt>
      <trkpt lat="59.40947097726166" lon="13.65456199273467">
        <ele>60.54</ele>
        <time>2025-02-22T01:20:09.137Z</time>
      </trkpt>
      <trkpt lat="59.40946091897786" lon="13.654462918639183">
        <ele>60.47</ele>
        <time>2025-02-22T01:21:13.293Z</time>
      </trkpt>
      <trkpt lat="59.40945899114013" lon="13.654361916705966">
        <ele>60.41</ele>
        <time>2025-02-22T01:22:17.450Z</time>
      </trkpt>
      <trkpt lat="59.40946695394814" lon="13.654254963621497">
        <ele>60.34</ele>
        <time>2025-02-22T01:23:21.608Z</time>
      </trkpt>
      <trkpt lat="59.409478940069675" lon="13.654145998880267">
        <ele>60.27</ele>
        <time>2025-02-22T01:24:25.767Z</time>
      </trkpt>
      <trkpt lat="59.40948899835348" lon="13.654030999168754">
        <ele>60.19</ele>
        <time>2025-02-22T01:25:29.927Z</time>
      </trkpt>
      <trkpt lat="59.40949193201959" lon="13.65391993895173">
        <ele>60.12</ele>
        <time>2025-02-22T01:26:34.088Z</time>
      </trkpt>
      <trkpt lat="59.4094829633832" lon="13.653812985867262">
        <ele>60.04</ele>
        <time>2025-02-22T01:27:38.250Z</time>
      </trkpt>
      <trkpt lat="59.40945798531175" lon="13.653712989762425">
        <ele>59.96</ele>
        <time>2025-02-22T01:28:42.413Z</time>
      </trkpt>
      <trkpt lat="59.40941699780524" lon="13.653623973950744">
        <ele>59.88</ele>
        <time>2025-02-22T01:29:46.577Z</time>
      </trkpt>
      <trkpt lat="59.409366957843304" lon="13.653565971180797">
        <ele>59.8</ele>
        <time>2025-02-22T01:30:50.742Z</time>
      </trkpt>
      <trkpt lat="59.409306943416595" lon="13.653543926775455">
        <ele>59.72</ele>
        <time>2025-02-22T01:31:54.908Z</time>
      </trkpt>
      <trkpt lat="59.40924692898989" lon="13.653561947867274">
        <ele>59.63</ele>
        <time>2025-02-22T01:32:59.075Z</time>
      </trkpt>
      <trkpt lat="59.409175934270024" lon="13.653606958687305">
        <ele>59.55</ele>
        <time>2025-02-22T01:34:03.243Z</time>
      </trkpt>
      <trkpt lat="59.409108962863684" lon="13.65366194397211">
        <ele>59.46</ele>
        <time>2025-02-22T01:35:07.412Z</time>
      </trkpt>
      <trkpt lat="59.40904199145734" lon="13.653714917600155">
        <ele>59.37</ele>
        <time>2025-02-22T01:36:11.582Z</time>
      </trkpt>
      <trkpt lat="59.40897393040359" lon="13.653760934248567">
        <ele>59.28</ele>
        <time>2025-02-22T01:37:15.753Z</time>
      </trkpt>
      <trkpt lat="59.40890192985535" lon="13.653791947290301">
        <ele>59.18</ele>
        <time>2025-02-22T01:38:19.925Z</time>
      </trkpt>
      <trkpt lat="59.40882791765034" lon="13.653799993917346">
        <ele>59.08</ele>
        <time>2025-02-22T01:39:24.099Z</time>
      </trkpt>
      <trkpt lat="59.40875298343599" lon="13.653776943683624">
        <ele>58.99</ele>
        <time>2025-02-22T01:40:28.274Z</time>
      </trkpt>
      <trkpt lat="59.40867695957422" lon="13.653727993369102">
        <ele>58.89</ele>
        <time>2025-02-22T01:41:32.450Z</time>
      </trkpt>
      <trkpt lat="59.4086039531976" lon="13.653652975335717">
        <ele>58.79</ele>
        <time>2025-02-22T01:42:36.627Z</time>
      </trkpt>
      <trkpt lat="59.40853597596288" lon="13.653557924553752">
        <ele>58.7</ele>
        <time>2025-02-22T01:43:40.806Z</time>
      </trkpt>
      <trkpt lat="59.40847193822265" lon="13.653440997004509">
        <ele>58.6</ele>
        <time>2025-02-22T01:44:44.986Z</time>
      </trkpt>
      <trkpt lat="59.40841997042298" lon="13.653302947059274">
        <ele>58.5</ele>
        <time>2025-02-22T01:45:49.168Z</time>
      </trkpt>
      <trkpt lat="59.40837395377457" lon="13.653152994811535">
        <ele>58.41</ele>
        <time>2025-02-22T01:46:53.351Z</time>
      </trkpt>
      <trkpt lat="59.408335983753204" lon="13.652998935431242">
        <ele>58.31</ele>
        <time>2025-02-22T01:47:57.535Z</time>
      </trkpt>
      <trkpt lat="59.40830497071147" lon="13.652841942384839">
        <ele>58.22</ele>
        <time>2025-02-22T01:49:01.721Z</time>
      </trkpt>
      <trkpt lat="59.40827898681164" lon="13.652677992358804">
        <ele>58.13</ele>
        <time>2025-02-22T01:50:05.908Z</time>
      </trkpt>
      <trkpt lat="59.408255936577916" lon="13.652507923543453">
        <ele>58.04</ele>
        <time>2025-02-22T01:51:10.097Z</time>
      </trkpt>
      <trkpt lat="59.408232970163226" lon="13.652335926890373">
        <ele>57.94</ele>
        <time>2025-02-22T01:52:14.287Z</time>
      </trkpt>
      <trkpt lat="59.408209919929504" lon="13.652166947722435">
        <ele>57.84</ele>
        <time>2025-02-22T01:53:18.479Z</time>
      </trkpt>
      <trkpt lat="59.408187959343195" lon="13.651990927755833">
        <ele>57.74</ele>
        <time>2025-02-22T01:54:22.672Z</time>
      </trkpt>
      <trkpt lat="59.408165998756886" lon="13.65181197412312">
        <ele>57.63</ele>
        <time>2025-02-22T01:55:26.867Z</time>
      </trkpt>
      <trkpt lat="59.40814194269478" lon="13.651630925014615">
        <ele>57.53</ele>
        <time>2025-02-22T01:56:31.063Z</time>
      </trkpt>
      <trkpt lat="59.40811394713819" lon="13.651444930583239">
        <ele>57.42</ele>
        <time>2025-02-22T01:57:35.261Z</time>
      </trkpt>
      <trkpt lat="59.40808494575322" lon="13.65125298500061">
        <ele>57.31</ele>
        <time>2025-02-22T01:58:39.460Z</time>
      </trkpt>
      <trkpt lat="59.40805493853986" lon="13.65105894394219">
        <ele>57.2</ele>
        <time>2025-02-22T01:59:43.661Z</time>
      </trkpt>
      <trkpt lat="59.40802099183202" lon="13.650860963389277">
        <ele>57.1</ele>
        <time>2025-02-22T02:00:47.864Z</time>
      </trkpt>
      <trkpt lat="59.40798696130514" lon="13.650659965351224">
        <ele>56.99</ele>
        <time>2025-02-22T02:01:52.068Z</time>
      </trkpt>
      <trkpt lat="59.407953936606646" lon="13.65045896731317">
        <ele>56.89</ele>
        <time>2025-02-22T02:02:56.274Z</time>
      </trkpt>
      <trkpt lat="59.40792292356491" lon="13.650257969275117">
        <ele>56.79</ele>
        <time>2025-02-22T02:04:00.482Z</time>
      </trkpt>
      <trkpt lat="59.40788998268545" lon="13.650056971237063">
        <ele>56.69</ele>
        <time>2025-02-22T02:05:04.692Z</time>
      </trkpt>
      <trkpt lat="59.40785092301667" lon="13.649852955713868">
        <ele>56.6</ele>
        <time>2025-02-22T02:06:08.903Z</time>
      </trkpt>
      <trkpt lat="59.40781194716692" lon="13.649648940190673">
        <ele>56.51</ele>
        <time>2025-02-22T02:07:13.116Z</time>
      </trkpt>
      <trkpt lat="59.40776995383203" lon="13.64944794215262">
        <ele>56.43</ele>
        <time>2025-02-22T02:08:17.331Z</time>
      </trkpt>
      <trkpt lat="59.40772293135524" lon="13.649250967428088">
        <ele>56.35</ele>
        <time>2025-02-22T02:09:21.548Z</time>
      </trkpt>
      <trkpt lat="59.40767792053521" lon="13.649052986875176">
        <ele>56.27</ele>
        <time>2025-02-22T02:10:25.766Z</time>
      </trkpt>
      <trkpt lat="59.407628970220685" lon="13.648856934159994">
        <ele>56.19</ele>
        <time>2025-02-22T02:11:29.986Z</time>
      </trkpt>
      <trkpt lat="59.40758094191551" lon="13.648662976920605">
        <ele>56.12</ele>
        <time>2025-02-22T02:12:34.208Z</time>
      </trkpt>
      <trkpt lat="59.40753199160099" lon="13.648473965004086">
        <ele>56.05</ele>
        <time>2025-02-22T02:13:38.432Z</time>
      </trkpt>
      <trkpt lat="59.407479939982295" lon="13.648290988057852">
        <ele>55.98</ele>
        <time>2025-02-22T02:14:42.657Z</time>
      </trkpt>
      <trkpt lat="59.40742797218263" lon="13.648111950606108">
        <ele>55.92</ele>
        <time>2025-02-22T02:15:46.884Z</time>
      </trkpt>
      <trkpt lat="59.40737399272621" lon="13.647932996973395">
        <ele>55.87</ele>
        <time>2025-02-22T02:16:51.113Z</time>
      </trkpt>
      <trkpt lat="59.40731892362237" lon="13.647753959521651">
        <ele>55.81</ele>
        <time>2025-02-22T02:17:55.344Z</time>
      </trkpt>
      <trkpt lat="59.407265949994326" lon="13.64757995121181">
        <ele>55.76</ele>
        <time>2025-02-22T02:18:59.576Z</time>
      </trkpt>
      <trkpt lat="59.40721096470952" lon="13.64740795455873">
        <ele>55.71</ele>
        <time>2025-02-22T02:20:03.810Z</time>
      </trkpt>
      <trkpt lat="59.407154973596334" lon="13.64723696373403">
        <ele>55.67</ele>
        <time>2025-02-22T02:21:08.046Z</time>
      </trkpt>
      <trkpt lat="59.40709998831153" lon="13.647068990394473">
        <ele>55.62</ele>
        <time>2025-02-22T02:22:12.283Z</time>
      </trkpt>
      <trkpt lat="59.40704299136996" lon="13.646900933235884">
        <ele>55.59</ele>
        <time>2025-02-22T02:23:16.522Z</time>
      </trkpt>
      <trkpt lat="59.406981971114874" lon="13.646732959896326">
        <ele>55.55</ele>
        <time>2025-02-22T02:24:20.762Z</time>
      </trkpt>
      <trkpt lat="59.406921956688166" lon="13.646563980728388">
        <ele>55.53</ele>
        <time>2025-02-22T02:25:25.004Z</time>
      </trkpt>
      <trkpt lat="59.406859930604696" lon="13.646394917741418">
        <ele>55.51</ele>
        <time>2025-02-22T02:26:29.248Z</time>
      </trkpt>
      <trkpt lat="59.40679999999702" lon="13.646229961887002">
        <ele>55.49</ele>
        <time>2025-02-22T02:27:33.494Z</time>
      </trkpt>
      <trkpt lat="59.40674099139869" lon="13.646067939698696">
        <ele>55.48</ele>
        <time>2025-02-22T02:28:37.741Z</time>
      </trkpt>
      <trkpt lat="59.406686928123236" lon="13.64590398967266">
        <ele>55.48</ele>
        <time>2025-02-22T02:29:41.990Z</time>
      </trkpt>
      <trkpt lat="59.40662993118167" lon="13.645739955827594">
        <ele>55.47</ele>
        <time>2025-02-22T02:30:46.240Z</time>
      </trkpt>
      <trkpt lat="59.406574945896864" lon="13.645577933639288">
        <ele>55.46</ele>
        <time>2025-02-22T02:31:50.492Z</time>
      </trkpt>
      <trkpt lat="59.40652096644044" lon="13.645416917279363">
        <ele>55.46</ele>
        <time>2025-02-22T02:32:54.746Z</time>
      </trkpt>
      <trkpt lat="59.406467992812395" lon="13.645254978910089">
        <ele>55.46</ele>
        <time>2025-02-22T02:33:59.001Z</time>
      </trkpt>
      <trkpt lat="59.40641694702208" lon="13.645089939236641">
        <ele>55.46</ele>
        <time>2025-02-22T02:35:03.258Z</time>
      </trkpt>
      <trkpt lat="59.4063659850508" lon="13.644928922876716">
        <ele>55.47</ele>
        <time>2025-02-22T02:36:07.516Z</time>
      </trkpt>
      <trkpt lat="59.406317956745625" lon="13.644768996164203">
        <ele>55.49</ele>
        <time>2025-02-22T02:37:11.776Z</time>
      </trkpt>
      <trkpt lat="59.40627093426883" lon="13.644609991461039">
        <ele>55.51</ele>
        <time>2025-02-22T02:38:16.037Z</time>
      </trkpt>
      <trkpt lat="59.40622399561107" lon="13.644451992586255">
        <ele>55.53</ele>
        <time>2025-02-22T02:39:20.300Z</time>
      </trkpt>
      <trkpt lat="59.40617898479104" lon="13.644294999539852">
        <ele>55.56</ele>
        <time>2025-02-22T02:40:24.564Z</time>
      </trkpt>
      <trkpt lat="59.40613598562777" lon="13.644137922674417">
        <ele>55.59</ele>
        <time>2025-02-22T02:41:28.830Z</time>
      </trkpt>
      <trkpt lat="59.40609692595899" lon="13.643985958769917">
        <ele>55.63</ele>
        <time>2025-02-22T02:42:33.097Z</time>
      </trkpt>
      <trkpt lat="59.40605795010924" lon="13.643835922703147">
        <ele>55.68</ele>
        <time>2025-02-22T02:43:37.365Z</time>
      </trkpt>
      <trkpt lat="59.40602199174464" lon="13.64368898794055">
        <ele>55.73</ele>
        <time>2025-02-22T02:44:41.635Z</time>
      </trkpt>
      <trkpt lat="59.40598997287452" lon="13.643542975187302">
        <ele>55.79</ele>
        <time>2025-02-22T02:45:45.906Z</time>
      </trkpt>
      <trkpt lat="59.40596097148955" lon="13.643400985747576">
        <ele>55.84</ele>
        <time>2025-02-22T02:46:50.178Z</time>
      </trkpt>
      <trkpt lat="59.405932975932956" lon="13.643265953287482">
        <ele>55.9</ele>
        <time>2025-02-22T02:47:54.452Z</time>
      </trkpt>
      <trkpt lat="59.40590598620474" lon="13.643137961626053">
        <ele>55.97</ele>
        <time>2025-02-22T02:48:58.727Z</time>
      </trkpt>
      <trkpt lat="59.40588092431426" lon="13.64300494082272">
        <ele>56.04</ele>
        <time>2025-02-22T02:50:03.003Z</time>
      </trkpt>
      <trkpt lat="59.40585594624281" lon="13.642871920019388">
        <ele>56.11</ele>
        <time>2025-02-22T02:51:07.280Z</time>
      </trkpt>
      <trkpt lat="59.4058289565146" lon="13.642736971378326">
        <ele>56.2</ele>
        <time>2025-02-22T02:52:11.558Z</time>
      </trkpt>
      <trkpt lat="59.40579995512962" lon="13.642595987766981">
        <ele>56.29</ele>
        <time>2025-02-22T02:53:15.837Z</time>
      </trkpt>
      <trkpt lat="59.40577095374465" lon="13.642457937821746">
        <ele>56.38</ele>
        <time>2025-02-22T02:54:20.118Z</time>
      </trkpt>
      <trkpt lat="59.40574396401644" lon="13.642320977523923">
        <ele>56.47</ele>
        <time>2025-02-22T02:55:24.400Z</time>
      </trkpt>
      <trkpt lat="59.405717980116606" lon="13.64218695089221">
        <ele>56.57</ele>
        <time>2025-02-22T02:56:28.683Z</time>
      </trkpt>
      <trkpt lat="59.40569291822612" lon="13.642055941745639">
        <ele>56.68</ele>
        <time>2025-02-22T02:57:32.967Z</time>
      </trkpt>
      <trkpt lat="59.40566592849791" lon="13.641923926770687">
        <ele>56.79</ele>
        <time>2025-02-22T02:58:37.252Z</time>
      </trkpt>
      <trkpt lat="59.40564195625484" lon="13.641790989786386">
        <ele>56.9</ele>
        <time>2025-02-22T02:59:41.538Z</time>
      </trkpt>
      <trkpt lat="59.40561898984015" lon="13.641657968983054">
        <ele>57.01</ele>
        <time>2025-02-22T03:00:45.826Z</time>
      </trkpt>
      <trkpt lat="59.40559795126319" lon="13.641525954008102">
        <ele>57.13</ele>
        <time>2025-02-22T03:01:50.115Z</time>
      </trkpt>
      <trkpt lat="59.4055749848485" lon="13.641396956518292">
        <ele>57.25</ele>
        <time>2025-02-22T03:02:54.405Z</time>
      </trkpt>
      <trkpt lat="59.40555294044316" lon="13.641269970685244">
        <ele>57.38</ele>
        <time>2025-02-22T03:03:58.696Z</time>
      </trkpt>
      <trkpt lat="59.40552896820009" lon="13.641141979023814">
        <ele>57.52</ele>
        <time>2025-02-22T03:05:02.988Z</time>
      </trkpt>
      <trkpt lat="59.405502984300256" lon="13.641012981534004">
        <ele>57.66</ele>
        <time>2025-02-22T03:06:07.281Z</time>
      </trkpt>
      <trkpt lat="59.40547892823815" lon="13.640880966559052">
        <ele>57.8</ele>
        <time>2025-02-22T03:07:11.575Z</time>
      </trkpt>
      <trkpt lat="59.40545495599508" lon="13.640745934098959">
        <ele>57.95</ele>
        <time>2025-02-22T03:08:15.871Z</time>
      </trkpt>
      <trkpt lat="59.40542796626687" lon="13.640615930780768">
        <ele>58.11</ele>
        <time>2025-02-22T03:09:20.168Z</time>
      </trkpt>
      <trkpt lat="59.40540298819542" lon="13.64048894494772">
        <ele>58.27</ele>
        <time>2025-02-22T03:10:24.466Z</time>
      </trkpt>
      <trkpt lat="59.4053799379617" lon="13.640362964943051">
        <ele>58.43</ele>
        <time>2025-02-22T03:11:28.765Z</time>
      </trkpt>
      <trkpt lat="59.40535697154701" lon="13.6402309499681">
        <ele>58.59</ele>
        <time>2025-02-22T03:12:33.065Z</time>
      </trkpt>
      <trkpt lat="59.405334927141666" lon="13.640094995498657">
        <ele>58.76</ele>
        <time>2025-02-22T03:13:37.366Z</time>
      </trkpt>
      <trkpt lat="59.40531296655536" lon="13.63995493389666">
        <ele>58.93</ele>
        <time>2025-02-22T03:14:41.668Z</time>
      </trkpt>
      <trkpt lat="59.405288994312286" lon="13.639811938628554">
        <ele>59.11</ele>
        <time>2025-02-22T03:15:45.972Z</time>
      </trkpt>
      <trkpt lat="59.405264938250184" lon="13.63967397250235">
        <ele>59.29</ele>
        <time>2025-02-22T03:16:50.277Z</time>
      </trkpt>
      <trkpt lat="59.405241971835494" lon="13.639536928385496">
        <ele>59.48</ele>
        <time>2025-02-22T03:17:54.583Z</time>
      </trkpt>
      <trkpt lat="59.40521892160177" lon="13.639403991401196">
        <ele>59.67</ele>
        <time>2025-02-22T03:18:58.890Z</time>
      </trkpt>
      <trkpt lat="59.40519696101546" lon="13.639270970597863">
        <ele>59.86</ele>
        <time>2025-02-22T03:20:03.198Z</time>
      </trkpt>
      <trkpt lat="59.40517298877239" lon="13.639133926481009">
        <ele>60.06</ele>
        <time>2025-02-22T03:21:07.507Z</time>
      </trkpt>
      <trkpt lat="59.40514893271029" lon="13.638994954526424">
        <ele>60.25</ele>
        <time>2025-02-22T03:22:11.818Z</time>
      </trkpt>
      <trkpt lat="59.4051259662956" lon="13.638860927894711">
        <ele>60.46</ele>
        <time>2025-02-22T03:23:16.130Z</time>
      </trkpt>
      <trkpt lat="59.40510593354702" lon="13.638732936233282">
        <ele>60.66</ele>
        <time>2025-02-22T03:24:20.443Z</time>
      </trkpt>
      <trkpt lat="59.40508397296071" lon="13.638602932915092">
        <ele>60.87</ele>
        <time>2025-02-22T03:25:24.757Z</time>
      </trkpt>
      <trkpt lat="59.40506293438375" lon="13.638474941253662">
        <ele>61.09</ele>
        <time>2025-02-22T03:26:29.072Z</time>
      </trkpt>
      <trkpt lat="59.40504097379744" lon="13.638350972905755">
        <ele>61.3</ele>
        <time>2025-02-22T03:27:33.388Z</time>
      </trkpt>
      <trkpt lat="59.4050189293921" lon="13.638228932395577">
        <ele>61.52</ele>
        <time>2025-02-22T03:28:37.705Z</time>
      </trkpt>
      <trkpt lat="59.40499998629093" lon="13.638105969876051">
        <ele>61.75</ele>
        <time>2025-02-22T03:29:42.023Z</time>
      </trkpt>
      <trkpt lat="59.40498095937073" lon="13.637983929365873">
        <ele>61.97</ele>
        <time>2025-02-22T03:30:46.342Z</time>
      </trkpt>
      <trkpt lat="59.40496092662215" lon="13.637860966846347">
        <ele>62.2</ele>
        <time>2025-02-22T03:31:50.662Z</time>
      </trkpt>
      <trkpt lat="59.404943995177746" lon="13.63773599267006">
        <ele>62.43</ele>
        <time>2025-02-22T03:32:54.984Z</time>
      </trkpt>
      <trkpt lat="59.404923962429166" lon="13.63761194050312">
        <ele>62.66</ele>
        <time>2025-02-22T03:33:59.307Z</time>
      </trkpt>
      <trkpt lat="59.404901918023825" lon="13.637483948841691">
        <ele>62.89</ele>
        <time>2025-02-22T03:35:03.631Z</time>
      </trkpt>
      <trkpt lat="59.404878951609135" lon="13.637354951351881">
        <ele>63.12</ele>
        <time>2025-02-22T03:36:07.956Z</time>
      </trkpt>
      <trkpt lat="59.404856991022825" lon="13.637228971347213">
        <ele>63.35</ele>
        <time>2025-02-22T03:37:12.282Z</time>
      </trkpt>
      <trkpt lat="59.404835952445865" lon="13.637102991342545">
        <ele>63.59</ele>
        <time>2025-02-22T03:38:16.609Z</time>
      </trkpt>
      <trkpt lat="59.404814997687936" lon="13.636978939175606">
        <ele>63.82</ele>
        <time>2025-02-22T03:39:20.937Z</time>
      </trkpt>
      <trkpt lat="59.404795970767736" lon="13.636854970827699">
        <ele>64.07</ele>
        <time>2025-02-22T03:40:25.266Z</time>
      </trkpt>
      <trkpt lat="59.404774932190776" lon="13.63672697916627">
        <ele>64.31</ele>
        <time>2025-02-22T03:41:29.596Z</time>
      </trkpt>
      <trkpt lat="59.40475791692734" lon="13.636600999161601">
        <ele>64.55</ele>
        <time>2025-02-22T03:42:33.927Z</time>
      </trkpt>
      <trkpt lat="59.40473897382617" lon="13.636476946994662">
        <ele>64.8</ele>
        <time>2025-02-22T03:43:38.259Z</time>
      </trkpt>
      <trkpt lat="59.40471994690597" lon="13.636351972818375">
        <ele>65.05</ele>
        <time>2025-02-22T03:44:42.592Z</time>
      </trkpt>
      <trkpt lat="59.40470192581415" lon="13.636231943964958">
        <ele>65.3</ele>
        <time>2025-02-22T03:45:46.926Z</time>
      </trkpt>
      <trkpt lat="59.404683988541365" lon="13.636114932596684">
        <ele>65.56</ele>
        <time>2025-02-22T03:46:51.261Z</time>
      </trkpt>
      <trkpt lat="59.404665967449546" lon="13.63599993288517">
        <ele>65.81</ele>
        <time>2025-02-22T03:47:55.597Z</time>
      </trkpt>
      <trkpt lat="59.40464694052935" lon="13.635885939002037">
        <ele>66.07</ele>
        <time>2025-02-22T03:48:59.934Z</time>
      </trkpt>
      <trkpt lat="59.4046269915998" lon="13.635772950947285">
        <ele>66.33</ele>
        <time>2025-02-22T03:50:04.272Z</time>
      </trkpt>
      <trkpt lat="59.4046079646796" lon="13.635661974549294">
        <ele>66.59</ele>
        <time>2025-02-22T03:51:08.611Z</time>
      </trkpt>
      <trkpt lat="59.40459094941616" lon="13.635550998151302">
        <ele>66.85</ele>
        <time>2025-02-22T03:52:12.951Z</time>
      </trkpt>
      <trkpt lat="59.40457292832434" lon="13.635434992611408">
        <ele>67.11</ele>
        <time>2025-02-22T03:53:17.292Z</time>
      </trkpt>
      <trkpt lat="59.40455297939479" lon="13.635319992899895">
        <ele>67.37</ele>
        <time>2025-02-22T03:54:21.634Z</time>
      </trkpt>
      <trkpt lat="59.40453294664621" lon="13.63520298153162">
        <ele>67.63</ele>
        <time>2025-02-22T03:55:25.977Z</time>
      </trkpt>
      <trkpt lat="59.404514925554395" lon="13.635079935193062">
        <ele>67.89</ele>
        <time>2025-02-22T03:56:30.321Z</time>
      </trkpt>
      <trkpt lat="59.40449899993837" lon="13.634958984330297">
        <ele>68.16</ele>
        <time>2025-02-22T03:57:34.666Z</time>
      </trkpt>
      <trkpt lat="59.40448299050331" lon="13.634835937991738">
        <ele>68.42</ele>
        <time>2025-02-22T03:58:39.012Z</time>
      </trkpt>
      <trkpt lat="59.40446597523987" lon="13.634712975472212">
        <ele>68.69</ele>
        <time>2025-02-22T03:59:43.359Z</time>
      </trkpt>
      <trkpt lat="59.404447954148054" lon="13.634586995467544">
        <ele>68.96</ele>
        <time>2025-02-22T04:00:47.707Z</time>
      </trkpt>
      <trkpt lat="59.404427921399474" lon="13.634466966614127">
        <ele>69.23</ele>
        <time>2025-02-22T04:01:52.057Z</time>
      </trkpt>
      <trkpt lat="59.40440998412669" lon="13.63434492610395">
        <ele>69.5</ele>
        <time>2025-02-22T04:02:56.408Z</time>
      </trkpt>
      <trkpt lat="59.40439095720649" lon="13.634221963584423">
        <ele>69.78</ele>
        <time>2025-02-22T04:04:00.760Z</time>
      </trkpt>
      <trkpt lat="59.40437394194305" lon="13.634095983579755">
        <ele>70.05</ele>
        <time>2025-02-22T04:05:05.113Z</time>
      </trkpt>
      <trkpt lat="59.40435692667961" lon="13.633972937241197">
        <ele>70.33</ele>
        <time>2025-02-22T04:06:09.467Z</time>
      </trkpt>
      <trkpt lat="59.40433798357844" lon="13.63385098055005">
        <ele>70.6</ele>
        <time>2025-02-22T04:07:13.822Z</time>
      </trkpt>
      <trkpt lat="59.404320968315005" lon="13.633731957525015">
        <ele>70.87</ele>
        <time>2025-02-22T04:08:18.178Z</time>
      </trkpt>
      <trkpt lat="59.404301941394806" lon="13.63361595198512">
        <ele>71.14</ele>
        <time>2025-02-22T04:09:22.535Z</time>
      </trkpt>
      <trkpt lat="59.40428492613137" lon="13.633499946445227">
        <ele>71.4</ele>
        <time>2025-02-22T04:10:26.893Z</time>
      </trkpt>
      <trkpt lat="59.40427092835307" lon="13.63337991759181">
        <ele>71.66</ele>
        <time>2025-02-22T04:11:31.252Z</time>
      </trkpt>
      <trkpt lat="59.404256930574775" lon="13.633260978385806">
        <ele>71.92</ele>
        <time>2025-02-22T04:12:35.612Z</time>
      </trkpt>
      <trkpt lat="59.40424494445324" lon="13.633143967017531">
        <ele>72.17</ele>
        <time>2025-02-22T04:13:39.973Z</time>
      </trkpt>
      <trkpt lat="59.40423094667494" lon="13.633027961477637">
        <ele>72.42</ele>
        <time>2025-02-22T04:14:44.335Z</time>
      </trkpt>
      <trkpt lat="59.40421694889665" lon="13.632916985079646">
        <ele>72.66</ele>
        <time>2025-02-22T04:15:48.698Z</time>
      </trkpt>
      <trkpt lat="59.40420093946159" lon="13.632807936519384">
        <ele>72.9</ele>
        <time>2025-02-22T04:16:53.062Z</time>
      </trkpt>
      <trkpt lat="59.40418493002653" lon="13.632702995091677">
        <ele>73.14</ele>
        <time>2025-02-22T04:17:57.426Z</time>
      </trkpt>
      <trkpt lat="59.404169926419854" lon="13.632596964016557">
        <ele>73.37</ele>
        <time>2025-02-22T04:19:01.791Z</time>
      </trkpt>
      <trkpt lat="59.40415492281318" lon="13.632486993446946">
        <ele>73.6</ele>
        <time>2025-02-22T04:20:06.157Z</time>
      </trkpt>
      <trkpt lat="59.40414092503488" lon="13.632381968200207">
        <ele>73.83</ele>
        <time>2025-02-22T04:21:10.524Z</time>
      </trkpt>
      <trkpt lat="59.404127933084965" lon="13.63228096626699">
        <ele>74.06</ele>
        <time>2025-02-22T04:22:14.892Z</time>
      </trkpt>
      <trkpt lat="59.40411494113505" lon="13.632180970162153">
        <ele>74.28</ele>
        <time>2025-02-22T04:23:19.261Z</time>
      </trkpt>
      <trkpt lat="59.40410194918513" lon="13.632082985714078">
        <ele>74.5</ele>
        <time>2025-02-22T04:24:23.631Z</time>
      </trkpt>
      <trkpt lat="59.4040899630636" lon="13.631987934932113">
        <ele>74.72</ele>
        <time>2025-02-22T04:25:28.002Z</time>
      </trkpt>
      <trkpt lat="59.40407697111368" lon="13.631899924948812">
        <ele>74.94</ele>
        <time>2025-02-22T04:26:32.373Z</time>
      </trkpt>
      <trkpt lat="59.404063979163766" lon="13.631813926622272">
        <ele>75.15</ele>
        <time>2025-02-22T04:27:36.745Z</time>
      </trkpt>
      <trkpt lat="59.40405199304223" lon="13.631728934124112">
        <ele>75.35</ele>
        <time>2025-02-22T04:28:41.118Z</time>
      </trkpt>
      <trkpt lat="59.404043946415186" lon="13.631638996303082">
        <ele>75.56</ele>
        <time>2025-02-22T04:29:45.491Z</time>
      </trkpt>
      <trkpt lat="59.40403397195041" lon="13.63155098631978">
        <ele>75.76</ele>
        <time>2025-02-22T04:30:49.865Z</time>
      </trkpt>
      <trkpt lat="59.40402399748564" lon="13.631461970508099">
        <ele>75.95</ele>
        <time>2025-02-22T04:31:54.240Z</time>
      </trkpt>
      <trkpt lat="59.40401393920183" lon="13.631371948868036">
        <ele>76.15</ele>
        <time>2025-02-22T04:32:58.616Z</time>
      </trkpt>
      <trkpt lat="59.40400295890868" lon="13.631282933056355">
        <ele>76.34</ele>
        <time>2025-02-22T04:34:02.992Z</time>
      </trkpt>
      <trkpt lat="59.40399197861552" lon="13.631191989406943">
        <ele>76.52</ele>
        <time>2025-02-22T04:35:07.369Z</time>
      </trkpt>
      <trkpt lat="59.40397999249399" lon="13.6311009619385">
        <ele>76.71</ele>
        <time>2025-02-22T04:36:11.747Z</time>
      </trkpt>
      <trkpt lat="59.40396993421018" lon="13.631011946126819">
        <ele>76.89</ele>
        <time>2025-02-22T04:37:16.126Z</time>
      </trkpt>
      <trkpt lat="59.40395995974541" lon="13.630925947800279">
        <ele>77.06</ele>
        <time>2025-02-22T04:38:20.505Z</time>
      </trkpt>
      <trkpt lat="59.40394897945225" lon="13.630835926160216">
        <ele>77.23</ele>
        <time>2025-02-22T04:39:24.885Z</time>
      </trkpt>
      <trkpt lat="59.40393699333072" lon="13.630748922005296">
        <ele>77.39</ele>
        <time>2025-02-22T04:40:29.266Z</time>
      </trkpt>
      <trkpt lat="59.40392492339015" lon="13.630657978355885">
        <ele>77.55</ele>
        <time>2025-02-22T04:41:33.648Z</time>
      </trkpt>
      <trkpt lat="59.40390991978347" lon="13.630567956715822">
        <ele>77.7</ele>
        <time>2025-02-22T04:42:38.030Z</time>
      </trkpt>
      <trkpt lat="59.40389692783356" lon="13.63047692924738">
        <ele>77.85</ele>
        <time>2025-02-22T04:43:42.413Z</time>
      </trkpt>
      <trkpt lat="59.40388695336878" lon="13.63038799725473">
        <ele>78.0</ele>
        <time>2025-02-22T04:44:46.797Z</time>
      </trkpt>
      <trkpt lat="59.40387597307563" lon="13.630302920937538">
        <ele>78.14</ele>
        <time>2025-02-22T04:45:51.182Z</time>
      </trkpt>
      <trkpt lat="59.403864992782474" lon="13.63021994009614">
        <ele>78.27</ele>
        <time>2025-02-22T04:46:55.567Z</time>
      </trkpt>
      <trkpt lat="59.40385493449867" lon="13.6301339417696">
        <ele>78.4</ele>
        <time>2025-02-22T04:47:59.953Z</time>
      </trkpt>
      <trkpt lat="59.403845965862274" lon="13.63004794344306">
        <ele>78.53</ele>
        <time>2025-02-22T04:49:04.340Z</time>
      </trkpt>
      <trkpt lat="59.40383397974074" lon="13.629958927631378">
        <ele>78.65</ele>
        <time>2025-02-22T04:50:08.728Z</time>
      </trkpt>
      <trkpt lat="59.40382392145693" lon="13.629867983981967">
        <ele>78.76</ele>
        <time>2025-02-22T04:51:13.116Z</time>
      </trkpt>
      <trkpt lat="59.40381394699216" lon="13.629774944856763">
        <ele>78.87</ele>
        <time>2025-02-22T04:52:17.505Z</time>
      </trkpt>
      <trkpt lat="59.403803972527385" lon="13.62968098372221">
        <ele>78.97</ele>
        <time>2025-02-22T04:53:21.895Z</time>
      </trkpt>
      <trkpt lat="59.40379299223423" lon="13.629586938768625">
        <ele>79.08</ele>
        <time>2025-02-22T04:54:26.286Z</time>
      </trkpt>
      <trkpt lat="59.40378092229366" lon="13.629493983462453">
        <ele>79.18</ele>
        <time>2025-02-22T04:55:30.678Z</time>
      </trkpt>
      <trkpt lat="59.40376692451537" lon="13.629399938508868">
        <ele>79.26</ele>
        <time>2025-02-22T04:56:35.070Z</time>
      </trkpt>
      <trkpt lat="59.40375393256545" lon="13.629307989031076">
        <ele>79.35</ele>
        <time>2025-02-22T04:57:39.463Z</time>
      </trkpt>
      <trkpt lat="59.403740940615535" lon="13.629213944077492">
        <ele>79.43</ele>
        <time>2025-02-22T04:58:43.857Z</time>
      </trkpt>
      <trkpt lat="59.403728954494" lon="13.629117971286178">
        <ele>79.49</ele>
        <time>2025-02-22T04:59:48.252Z</time>
      </trkpt>
      <trkpt lat="59.4037149567157" lon="13.629022920504212">
        <ele>79.56</ele>
        <time>2025-02-22T05:00:52.648Z</time>
      </trkpt>
      <trkpt lat="59.40370397642255" lon="13.62892895936966">
        <ele>79.62</ele>
        <time>2025-02-22T05:01:57.044Z</time>
      </trkpt>
      <trkpt lat="59.40369098447263" lon="13.628830974921584">
        <ele>79.67</ele>
        <time>2025-02-22T05:03:01.441Z</time>
      </trkpt>
      <trkpt lat="59.403676986694336" lon="13.628735924139619">
        <ele>79.72</ele>
        <time>2025-02-22T05:04:05.839Z</time>
      </trkpt>
      <trkpt lat="59.40366592258215" lon="13.628634922206402">
        <ele>79.76</ele>
        <time>2025-02-22T05:05:10.238Z</time>
      </trkpt>
      <trkpt lat="59.403654942288995" lon="13.628534926101565">
        <ele>79.79</ele>
        <time>2025-02-22T05:06:14.638Z</time>
      </trkpt>
      <trkpt lat="59.40364195033908" lon="13.628434929996729">
        <ele>79.82</ele>
        <time>2025-02-22T05:07:19.038Z</time>
      </trkpt>
      <trkpt lat="59.4036269467324" lon="13.628337951377034">
        <ele>79.85</ele>
        <time>2025-02-22T05:08:23.439Z</time>
      </trkpt>
      <trkpt lat="59.403610937297344" lon="13.6282429844141">
        <ele>79.87</ele>
        <time>2025-02-22T05:09:27.841Z</time>
      </trkpt>
      <trkpt lat="59.40359995700419" lon="13.628142988309264">
        <ele>79.88</ele>
        <time>2025-02-22T05:10:32.244Z</time>
      </trkpt>
      <trkpt lat="59.403589982539415" lon="13.628037963062525">
        <ele>79.89</ele>
        <time>2025-02-22T05:11:36.648Z</time>
      </trkpt>
      <trkpt lat="59.40357799641788" lon="13.627932937815785">
        <ele>79.89</ele>
        <time>2025-02-22T05:12:41.053Z</time>
      </trkpt>
      <trkpt lat="59.403563998639584" lon="13.627826990559697">
        <ele>79.9</ele>
        <time>2025-02-22T05:13:45.459Z</time>
      </trkpt>
      <trkpt lat="59.403549917042255" lon="13.627722971141338">
        <ele>79.89</ele>
        <time>2025-02-22T05:14:49.865Z</time>
      </trkpt>
      <trkpt lat="59.40353399142623" lon="13.62761895172298">
        <ele>79.88</ele>
        <time>2025-02-22T05:15:54.272Z</time>
      </trkpt>
      <trkpt lat="59.40351798199117" lon="13.627515938133001">
        <ele>79.86</ele>
        <time>2025-02-22T05:16:58.680Z</time>
      </trkpt>
      <trkpt lat="59.403500966727734" lon="13.627410996705294">
        <ele>79.84</ele>
        <time>2025-02-22T05:18:03.089Z</time>
      </trkpt>
      <trkpt lat="59.40348797477782" lon="13.627310916781425">
        <ele>79.81</ele>
        <time>2025-02-22T05:19:07.499Z</time>
      </trkpt>
      <trkpt lat="59.40347397699952" lon="13.627206981182098">
        <ele>79.78</ele>
        <time>2025-02-22T05:20:11.910Z</time>
      </trkpt>
      <trkpt lat="59.403460985049605" lon="13.627098938450217">
        <ele>79.75</ele>
        <time>2025-02-22T05:21:16.322Z</time>
      </trkpt>
      <trkpt lat="59.40344396978617" lon="13.626989973708987">
        <ele>79.7</ele>
        <time>2025-02-22T05:22:20.735Z</time>
      </trkpt>
      <trkpt lat="59.40342997200787" lon="13.626877991482615">
        <ele>79.66</ele>
        <time>2025-02-22T05:23:25.149Z</time>
      </trkpt>
      <trkpt lat="59.403417985886335" lon="13.626764919608831">
        <ele>79.6</ele>
        <time>2025-02-22T05:24:29.564Z</time>
      </trkpt>
      <trkpt lat="59.4034059997648" lon="13.626651931554079">
        <ele>79.55</ele>
        <time>2025-02-22T05:25:33.980Z</time>
      </trkpt>
      <trkpt lat="59.40339191816747" lon="13.626538943499327">
        <ele>79.49</ele>
        <time>2025-02-22T05:26:38.396Z</time>
      </trkpt>
      <trkpt lat="59.40337699837983" lon="13.626422937959433">
        <ele>79.43</ele>
        <time>2025-02-22T05:27:42.813Z</time>
      </trkpt>
      <trkpt lat="59.40336098894477" lon="13.626311961561441">
        <ele>79.36</ele>
        <time>2025-02-22T05:28:47.231Z</time>
      </trkpt>
      <trkpt lat="59.40334699116647" lon="13.62620199099183">
        <ele>79.29</ele>
        <time>2025-02-22T05:29:51.650Z</time>
      </trkpt>
      <trkpt lat="59.403332993388176" lon="13.626085985451937">
        <ele>79.22</ele>
        <time>2025-02-22T05:30:56.070Z</time>
      </trkpt>
      <trkpt lat="59.40331991761923" lon="13.6259669624269">
        <ele>79.14</ele>
        <time>2025-02-22T05:32:00.491Z</time>
      </trkpt>
      <trkpt lat="59.40330591984093" lon="13.625849951058626">
        <ele>79.06</ele>
        <time>2025-02-22T05:33:04.913Z</time>
      </trkpt>
      <trkpt lat="59.403291922062635" lon="13.62572992220521">
        <ele>78.97</ele>
        <time>2025-02-22T05:34:09.336Z</time>
      </trkpt>
      <trkpt lat="59.40327599644661" lon="13.625606959685683">
        <ele>78.88</ele>
        <time>2025-02-22T05:35:13.760Z</time>
      </trkpt>
      <trkpt lat="59.40325998701155" lon="13.625484919175506">
        <ele>78.78</ele>
        <time>2025-02-22T05:36:18.185Z</time>
      </trkpt>
      <trkpt lat="59.403244983404875" lon="13.625359944999218">
        <ele>78.69</ele>
        <time>2025-02-22T05:37:22.611Z</time>
      </trkpt>
      <trkpt lat="59.40322897396982" lon="13.62523497082293">
        <ele>78.58</ele>
        <time>2025-02-22T05:38:27.038Z</time>
      </trkpt>
      <trkpt lat="59.40321296453476" lon="13.625107984989882">
        <ele>78.48</ele>
        <time>2025-02-22T05:39:31.467Z</time>
      </trkpt>
      <trkpt lat="59.40319494344294" lon="13.624984938651323">
        <ele>78.37</ele>
        <time>2025-02-22T05:40:35.897Z</time>
      </trkpt>
      <trkpt lat="59.40317692235112" lon="13.624859964475036">
        <ele>78.25</ele>
        <time>2025-02-22T05:41:40.328Z</time>
      </trkpt>
      <trkpt lat="59.403158985078335" lon="13.624736918136477">
        <ele>78.13</ele>
        <time>2025-02-22T05:42:44.760Z</time>
      </trkpt>
      <trkpt lat="59.403138952329755" lon="13.62461194396019">
        <ele>78.01</ele>
        <time>2025-02-22T05:43:49.193Z</time>
      </trkpt>
      <trkpt lat="59.403117997571826" lon="13.62448395229876">
        <ele>77.88</ele>
        <time>2025-02-22T05:44:53.627Z</time>
      </trkpt>
      <trkpt lat="59.403095953166485" lon="13.624356966465712">
        <ele>77.76</ele>
        <time>2025-02-22T05:45:58.062Z</time>
      </trkpt>
      <trkpt lat="59.403071980923414" lon="13.624228974804282">
        <ele>77.63</ele>
        <time>2025-02-22T05:47:02.498Z</time>
      </trkpt>
      <trkpt lat="59.40304792486131" lon="13.62409695982933">
        <ele>77.5</ele>
        <time>2025-02-22T05:48:06.935Z</time>
      </trkpt>
      <trkpt lat="59.40302495844662" lon="13.623964944854379">
        <ele>77.36</ele>
        <time>2025-02-22T05:49:11.373Z</time>
      </trkpt>
      <trkpt lat="59.40299998037517" lon="13.623831924051046">
        <ele>77.22</ele>
        <time>2025-02-22T05:50:15.813Z</time>
      </trkpt>
      <trkpt lat="59.40297299064696" lon="13.623694963753223">
        <ele>77.08</ele>
        <time>2025-02-22T05:51:20.254Z</time>
      </trkpt>
      <trkpt lat="59.402945917099714" lon="13.623553980141878">
        <ele>76.94</ele>
        <time>2025-02-22T05:52:24.696Z</time>
      </trkpt>
      <trkpt lat="59.40291792154312" lon="13.623411990702152">
        <ele>76.79</ele>
        <time>2025-02-22T05:53:29.139Z</time>
      </trkpt>
      <trkpt lat="59.40289093181491" lon="13.623265977948904">
        <ele>76.65</ele>
        <time>2025-02-22T05:54:33.583Z</time>
      </trkpt>
      <trkpt lat="59.402860924601555" lon="13.623113930225372">
        <ele>76.5</ele>
        <time>2025-02-22T05:55:38.029Z</time>
      </trkpt>
      <trkpt lat="59.40282898955047" lon="13.622961966320872">
        <ele>76.34</ele>
        <time>2025-02-22T05:56:42.476Z</time>
      </trkpt>
      <trkpt lat="59.402794959023595" lon="13.62280698493123">
        <ele>76.18</ele>
        <time>2025-02-22T05:57:46.925Z</time>
      </trkpt>
      <trkpt lat="59.40276092849672" lon="13.622649991884828">
        <ele>76.01</ele>
        <time>2025-02-22T05:58:51.375Z</time>
      </trkpt>
      <trkpt lat="59.40272497013211" lon="13.622491993010044">
        <ele>75.84</ele>
        <time>2025-02-22T05:59:55.826Z</time>
      </trkpt>
      <trkpt lat="59.402684988453984" lon="13.62233298830688">
        <ele>75.67</ele>
        <time>2025-02-22T06:01:00.279Z</time>
      </trkpt>
      <trkpt lat="59.402641989290714" lon="13.622171971946955">
        <ele>75.5</ele>
        <time>2025-02-22T06:02:04.733Z</time>
      </trkpt>
      <trkpt lat="59.40259697847068" lon="13.622007938101888">
        <ele>75.32</ele>
        <time>2025-02-22T06:03:09.189Z</time>
      </trkpt>
      <trkpt lat="59.40255297347903" lon="13.621841976419091">
        <ele>75.14</ele>
        <time>2025-02-22T06:04:13.646Z</time>
      </trkpt>
      <trkpt lat="59.40250695683062" lon="13.621674925088882">
        <ele>74.96</ele>
        <time>2025-02-22T06:05:18.105Z</time>
      </trkpt>
      <trkpt lat="59.40246094018221" lon="13.621505945920944">
        <ele>74.79</ele>
        <time>2025-02-22T06:06:22.565Z</time>
      </trkpt>
      <trkpt lat="59.40241198986769" lon="13.621330931782722">
        <ele>74.62</ele>
        <time>2025-02-22T06:07:27.027Z</time>
      </trkpt>
      <trkpt lat="59.402362955734134" lon="13.621153989806771">
        <ele>74.44</ele>
        <time>2025-02-22T06:08:31.491Z</time>
      </trkpt>
      <trkpt lat="59.40231593325734" lon="13.620973946526647">
        <ele>74.27</ele>
        <time>2025-02-22T06:09:35.956Z</time>
      </trkpt>
      <trkpt lat="59.40226899459958" lon="13.620789963752031">
        <ele>74.11</ele>
        <time>2025-02-22T06:10:40.423Z</time>
      </trkpt>
      <trkpt lat="59.40222096629441" lon="13.620599946007133">
        <ele>73.95</ele>
        <time>2025-02-22T06:11:44.892Z</time>
      </trkpt>
      <trkpt lat="59.402170926332474" lon="13.620408922433853">
        <ele>73.77</ele>
        <time>2025-02-22T06:12:49.363Z</time>
      </trkpt>
      <trkpt lat="59.40211795270443" lon="13.620220916345716">
        <ele>73.6</ele>
        <time>2025-02-22T06:13:53.835Z</time>
      </trkpt>
      <trkpt lat="59.402063973248005" lon="13.620031988248229">
        <ele>73.43</ele>
        <time>2025-02-22T06:14:58.309Z</time>
      </trkpt>
      <trkpt lat="59.40201099961996" lon="13.61984096467495">
        <ele>73.24</ele>
        <time>2025-02-22T06:16:02.785Z</time>
      </trkpt>
      <trkpt lat="59.401959953829646" lon="13.619646923616529">
        <ele>73.05</ele>
        <time>2025-02-22T06:17:07.263Z</time>
      </trkpt>
      <trkpt lat="59.4019069802016" lon="13.619448943063617">
        <ele>72.85</ele>
        <time>2025-02-22T06:18:11.742Z</time>
      </trkpt>
      <trkpt lat="59.401853922754526" lon="13.619250962510705">
        <ele>72.67</ele>
        <time>2025-02-22T06:19:16.223Z</time>
      </trkpt>
      <trkpt lat="59.40180195495486" lon="13.619053987786174">
        <ele>72.47</ele>
        <time>2025-02-22T06:20:20.706Z</time>
      </trkpt>
      <trkpt lat="59.40175199881196" lon="13.618857935070992">
        <ele>72.28</ele>
        <time>2025-02-22T06:21:25.191Z</time>
      </trkpt>
      <trkpt lat="59.40170397050679" lon="13.61866096034646">
        <ele>72.09</ele>
        <time>2025-02-22T06:22:29.678Z</time>
      </trkpt>
      <trkpt lat="59.401657953858376" lon="13.618459962308407">
        <ele>71.89</ele>
        <time>2025-02-22T06:23:34.167Z</time>
      </trkpt>
      <trkpt lat="59.401612943038344" lon="13.618255946785212">
        <ele>71.69</ele>
        <time>2025-02-22T06:24:38.657Z</time>
      </trkpt>
      <trkpt lat="59.401568938046694" lon="13.618048997595906">
        <ele>71.5</ele>
        <time>2025-02-22T06:25:43.149Z</time>
      </trkpt>
      <trkpt lat="59.401529962196946" lon="13.617839952930808">
        <ele>71.3</ele>
        <time>2025-02-22T06:26:47.643Z</time>
      </trkpt>
      <trkpt lat="59.40149392001331" lon="13.617629986256361">
        <ele>71.1</ele>
        <time>2025-02-22T06:27:52.139Z</time>
      </trkpt>
      <trkpt lat="59.40145896747708" lon="13.617418929934502">
        <ele>70.91</ele>
        <time>2025-02-22T06:28:56.637Z</time>
      </trkpt>
      <trkpt lat="59.40142795443535" lon="13.617208963260055">
        <ele>70.72</ele>
        <time>2025-02-22T06:30:01.136Z</time>
      </trkpt>
      <trkpt lat="59.401396941393614" lon="13.616998996585608">
        <ele>70.54</ele>
        <time>2025-02-22T06:31:05.637Z</time>
      </trkpt>
      <trkpt lat="59.40136894583702" lon="13.616794981062412">
        <ele>70.37</ele>
        <time>2025-02-22T06:32:10.140Z</time>
      </trkpt>
      <trkpt lat="59.40134296193719" lon="13.616591971367598">
        <ele>70.2</ele>
        <time>2025-02-22T06:33:14.645Z</time>
      </trkpt>
      <trkpt lat="59.40131898969412" lon="13.616393990814686">
        <ele>70.03</ele>
        <time>2025-02-22T06:34:19.151Z</time>
      </trkpt>
      <trkpt lat="59.4012959394604" lon="13.616199949756265">
        <ele>69.87</ele>
        <time>2025-02-22T06:35:23.659Z</time>
      </trkpt>
      <trkpt lat="59.40127297304571" lon="13.616011943668127">
        <ele>69.71</ele>
        <time>2025-02-22T06:36:28.169Z</time>
      </trkpt>
      <trkpt lat="59.401250928640366" lon="13.615829972550273">
        <ele>69.55</ele>
        <time>2025-02-22T06:37:32.680Z</time>
      </trkpt>
      <trkpt lat="59.40123097971082" lon="13.61565294675529">
        <ele>69.39</ele>
        <time>2025-02-22T06:38:37.193Z</time>
      </trkpt>
      <trkpt lat="59.40121094696224" lon="13.61548095010221">
        <ele>69.23</ele>
        <time>2025-02-22T06:39:41.707Z</time>
      </trkpt>
      <trkpt lat="59.40119292587042" lon="13.615310965105891">
        <ele>69.06</ele>
        <time>2025-02-22T06:40:46.222Z</time>
      </trkpt>
      <trkpt lat="59.40117398276925" lon="13.615144919604063">
        <ele>68.9</ele>
        <time>2025-02-22T06:41:50.739Z</time>
      </trkpt>
      <trkpt lat="59.40115495584905" lon="13.614979963749647">
        <ele>68.73</ele>
        <time>2025-02-22T06:42:55.257Z</time>
      </trkpt>
      <trkpt lat="59.401138946413994" lon="13.614813918247819">
        <ele>68.56</ele>
        <time>2025-02-22T06:43:59.777Z</time>
      </trkpt>
      <trkpt lat="59.40113198943436" lon="13.614645944908261">
        <ele>68.4</ele>
        <time>2025-02-22T06:45:04.298Z</time>
      </trkpt>
      <trkpt lat="59.40113693475723" lon="13.614475959911942">
        <ele>68.24</ele>
        <time>2025-02-22T06:46:08.820Z</time>
      </trkpt>
      <trkpt lat="59.40115193836391" lon="13.614307986572385">
        <ele>68.08</ele>
        <time>2025-02-22T06:47:13.344Z</time>
      </trkpt>
      <trkpt lat="59.40117691643536" lon="13.614149987697601">
        <ele>67.91</ele>
        <time>2025-02-22T06:48:17.869Z</time>
      </trkpt>
      <trkpt lat="59.40119192004204" lon="13.614002969115973">
        <ele>67.75</ele>
        <time>2025-02-22T06:49:22.395Z</time>
      </trkpt>
      <trkpt lat="59.40118999220431" lon="13.613851927220821">
        <ele>67.6</ele>
        <time>2025-02-22T06:50:26.923Z</time>
      </trkpt>
      <trkpt lat="59.401161996647716" lon="13.613707926124334">
        <ele>67.45</ele>
        <time>2025-02-22T06:51:31.452Z</time>
      </trkpt>
      <trkpt lat="59.40110893920064" lon="13.613577922806144">
        <ele>67.3</ele>
        <time>2025-02-22T06:52:35.982Z</time>
      </trkpt>
      <trkpt lat="59.40104791894555" lon="13.613456971943378">
        <ele>67.16</ele>
        <time>2025-02-22T06:53:40.514Z</time>
      </trkpt>
      <trkpt lat="59.400988994166255" lon="13.613327974453568">
        <ele>67.01</ele>
        <time>2025-02-22T06:54:45.047Z</time>
      </trkpt>
      <trkpt lat="59.40093392506242" lon="13.613184979185462">
        <ele>66.88</ele>
        <time>2025-02-22T06:55:49.581Z</time>
      </trkpt>
      <trkpt lat="59.400883968919516" lon="13.61302899196744">
        <ele>66.74</ele>
        <time>2025-02-22T06:56:54.117Z</time>
      </trkpt>
      <trkpt lat="59.40084499306977" lon="13.61286194063723">
        <ele>66.61</ele>
        <time>2025-02-22T06:57:58.654Z</time>
      </trkpt>
      <trkpt lat="59.40080492757261" lon="13.61268893815577">
        <ele>66.47</ele>
        <time>2025-02-22T06:59:03.193Z</time>
      </trkpt>
      <trkpt lat="59.4007639400661" lon="13.61251492984593">
        <ele>66.34</ele>
        <time>2025-02-22T07:00:07.734Z</time>
      </trkpt>
      <trkpt lat="59.40072395838797" lon="13.61233999952674">
        <ele>66.21</ele>
        <time>2025-02-22T07:01:12.276Z</time>
      </trkpt>
      <trkpt lat="59.40068498253822" lon="13.612155932933092">
        <ele>66.09</ele>
        <time>2025-02-22T07:02:16.820Z</time>
      </trkpt>
      <trkpt lat="59.40064491704106" lon="13.611970944330096">
        <ele>65.96</ele>
        <time>2025-02-22T07:03:21.365Z</time>
      </trkpt>
      <trkpt lat="59.40060795284808" lon="13.6117859557271">
        <ele>65.85</ele>
        <time>2025-02-22T07:04:25.912Z</time>
      </trkpt>
      <trkpt lat="59.40057492814958" lon="13.611602978780866">
        <ele>65.73</ele>
        <time>2025-02-22T07:05:30.461Z</time>
      </trkpt>
      <trkpt lat="59.400540981441736" lon="13.6114199180156">
        <ele>65.62</ele>
        <time>2025-02-22T07:06:35.011Z</time>
      </trkpt>
      <trkpt lat="59.4005099684" lon="13.611232917755842">
        <ele>65.52</ele>
        <time>2025-02-22T07:07:39.563Z</time>
      </trkpt>
      <trkpt lat="59.40048096701503" lon="13.611043989658356">
        <ele>65.41</ele>
        <time>2025-02-22T07:08:44.116Z</time>
      </trkpt>
      <trkpt lat="59.40045598894358" lon="13.610854977741838">
        <ele>65.31</ele>
        <time>2025-02-22T07:09:48.671Z</time>
      </trkpt>
      <trkpt lat="59.400432938709855" lon="13.610663954168558">
        <ele>65.21</ele>
        <time>2025-02-22T07:10:53.228Z</time>
      </trkpt>
      <trkpt lat="59.40041592344642" lon="13.61047393642366">
        <ele>65.12</ele>
        <time>2025-02-22T07:11:57.786Z</time>
      </trkpt>
      <trkpt lat="59.4004029314965" lon="13.610284924507141">
        <ele>65.04</ele>
        <time>2025-02-22T07:13:02.346Z</time>
      </trkpt>
      <trkpt lat="59.400390945374966" lon="13.610093984752893">
        <ele>64.96</ele>
        <time>2025-02-22T07:14:06.907Z</time>
      </trkpt>
      <trkpt lat="59.40038298256695" lon="13.609899943694472">
        <ele>64.88</ele>
        <time>2025-02-22T07:15:11.470Z</time>
      </trkpt>
      <trkpt lat="59.40037895925343" lon="13.609705986455083">
        <ele>64.81</ele>
        <time>2025-02-22T07:16:16.035Z</time>
      </trkpt>
      <trkpt lat="59.400384994223714" lon="13.609516974538565">
        <ele>64.75</ele>
        <time>2025-02-22T07:17:20.601Z</time>
      </trkpt>
      <trkpt lat="59.400391951203346" lon="13.609324945136905">
        <ele>64.69</ele>
        <time>2025-02-22T07:18:25.169Z</time>
      </trkpt>
      <trkpt lat="59.40040494315326" lon="13.609132999554276">
        <ele>64.62</ele>
        <time>2025-02-22T07:19:29.738Z</time>
      </trkpt>
      <trkpt lat="59.40041793510318" lon="13.60894893296063">
        <ele>64.57</ele>
        <time>2025-02-22T07:20:34.309Z</time>
      </trkpt>
      <trkpt lat="59.40044199116528" lon="13.608765956014395">
        <ele>64.52</ele>
        <time>2025-02-22T07:21:38.881Z</time>
      </trkpt>
      <trkpt lat="59.40046395175159" lon="13.608585996553302">
        <ele>64.47</ele>
        <time>2025-02-22T07:22:43.455Z</time>
      </trkpt>
      <trkpt lat="59.400494964793324" lon="13.608405953273177">
        <ele>64.43</ele>
        <time>2025-02-22T07:23:48.030Z</time>
      </trkpt>
      <trkpt lat="59.40052497200668" lon="13.608230939134955">
        <ele>64.41</ele>
        <time>2025-02-22T07:24:52.607Z</time>
      </trkpt>
      <trkpt lat="59.40055891871452" lon="13.608056930825114">
        <ele>64.39</ele>
        <time>2025-02-22T07:25:57.185Z</time>
      </trkpt>
      <trkpt lat="59.40058993175626" lon="13.607879988849163">
        <ele>64.36</ele>
        <time>2025-02-22T07:27:01.765Z</time>
      </trkpt>
      <trkpt lat="59.40061499364674" lon="13.607692988589406">
        <ele>64.35</ele>
        <time>2025-02-22T07:28:06.347Z</time>
      </trkpt>
      <trkpt lat="59.40063695423305" lon="13.607505988329649">
        <ele>64.33</ele>
        <time>2025-02-22T07:29:10.930Z</time>
      </trkpt>
      <trkpt lat="59.40065598115325" lon="13.607303984463215">
        <ele>64.32</ele>
        <time>2025-02-22T07:30:15.515Z</time>
      </trkpt>
      <trkpt lat="59.400669978931546" lon="13.607093933969736">
        <ele>64.32</ele>
        <time>2025-02-22T07:31:20.101Z</time>
      </trkpt>
      <trkpt lat="59.40068196505308" lon="13.606877932325006">
        <ele>64.31</ele>
        <time>2025-02-22T07:32:24.689Z</time>
      </trkpt>
      <trkpt lat="59.40068196505308" lon="13.606662936508656">
        <ele>64.32</ele>
        <time>2025-02-22T07:33:29.279Z</time>
      </trkpt>
      <trkpt lat="59.4006809592247" lon="13.606443917378783">
        <ele>64.34</ele>
        <time>2025-02-22T07:34:33.871Z</time>
      </trkpt>
      <trkpt lat="59.40067391842604" lon="13.606233950704336">
        <ele>64.37</ele>
        <time>2025-02-22T07:35:38.465Z</time>
      </trkpt>
      <trkpt lat="59.40065992064774" lon="13.606023984029889">
        <ele>64.41</ele>
        <time>2025-02-22T07:36:43.060Z</time>
      </trkpt>
      <trkpt lat="59.40064097754657" lon="13.605820974335074">
        <ele>64.47</ele>
        <time>2025-02-22T07:37:47.657Z</time>
      </trkpt>
      <trkpt lat="59.40062195062637" lon="13.605628944933414">
        <ele>64.53</ele>
        <time>2025-02-22T07:38:52.256Z</time>
      </trkpt>
      <trkpt lat="59.4005979783833" lon="13.6054449621588">
        <ele>64.6</ele>
        <time>2025-02-22T07:39:56.856Z</time>
      </trkpt>
      <trkpt lat="59.40057794563472" lon="13.605266930535436">
        <ele>64.68</ele>
        <time>2025-02-22T07:41:01.458Z</time>
      </trkpt>
      <trkpt lat="59.40056897699833" lon="13.605097951367497">
        <ele>64.76</ele>
        <time>2025-02-22T07:42:06.061Z</time>
      </trkpt>
      <trkpt lat="59.40056696534157" lon="13.604934923350811">
        <ele>64.84</ele>
        <time>2025-02-22T07:43:10.665Z</time>
      </trkpt>
      <trkpt lat="59.40057593397796" lon="13.60478195361793">
        <ele>64.93</ele>
        <time>2025-02-22T07:44:15.271Z</time>
      </trkpt>
      <trkpt lat="59.400605941191316" lon="13.60465295612812">
        <ele>65.03</ele>
        <time>2025-02-22T07:45:19.878Z</time>
      </trkpt>
      <trkpt lat="59.400643995031714" lon="13.604550948366523">
        <ele>65.14</ele>
        <time>2025-02-22T07:46:24.486Z</time>
      </trkpt>
      <trkpt lat="59.40069395117462" lon="13.60447995364666">
        <ele>65.25</ele>
        <time>2025-02-22T07:47:29.095Z</time>
      </trkpt>
      <trkpt lat="59.400755977258086" lon="13.60443594865501">
        <ele>65.37</ele>
        <time>2025-02-22T07:48:33.705Z</time>
      </trkpt>
      <trkpt lat="59.400820937007666" lon="13.604402923956513">
        <ele>65.5</ele>
        <time>2025-02-22T07:49:38.316Z</time>
      </trkpt>
      <trkpt lat="59.400883968919516" lon="13.604380963370204">
        <ele>65.63</ele>
        <time>2025-02-22T07:50:42.928Z</time>
      </trkpt>
      <trkpt lat="59.400943983346224" lon="13.604363948106766">
        <ele>65.77</ele>
        <time>2025-02-22T07:51:47.541Z</time>
      </trkpt>
      <trkpt lat="59.40100399777293" lon="13.60435095615685">
        <ele>65.92</ele>
        <time>2025-02-22T07:52:52.155Z</time>
      </trkpt>
      <trkpt lat="59.40106594003737" lon="13.604318937286735">
        <ele>66.07</ele>
        <time>2025-02-22T07:53:56.770Z</time>
      </trkpt>
      <trkpt lat="59.4011249486357" lon="13.604292953386903">
        <ele>66.23</ele>
        <time>2025-02-22T07:55:01.386Z</time>
      </trkpt>
      <trkpt lat="59.40119192004204" lon="13.604282978922129">
        <ele>66.39</ele>
        <time>2025-02-22T07:56:06.003Z</time>
      </trkpt>
      <trkpt lat="59.40125394612551" lon="13.604268981143832">
        <ele>66.56</ele>
        <time>2025-02-22T07:57:10.621Z</time>
      </trkpt>
      <trkpt lat="59.40131597220898" lon="13.604247942566872">
        <ele>66.74</ele>
        <time>2025-02-22T07:58:15.240Z</time>
      </trkpt>
      <trkpt lat="59.40137196332216" lon="13.604228999465704">
        <ele>66.92</ele>
        <time>2025-02-22T07:59:19.860Z</time>
      </trkpt>
      <trkpt lat="59.40142594277859" lon="13.604218941181898">
        <ele>67.1</ele>
        <time>2025-02-22T08:00:24.481Z</time>
      </trkpt>
      <trkpt lat="59.401471959427" lon="13.604206955060363">
        <ele>67.28</ele>
        <time>2025-02-22T08:01:29.102Z</time>
      </trkpt>
      <trkpt lat="59.40151495859027" lon="13.60419899225235">
        <ele>67.47</ele>
        <time>2025-02-22T08:02:33.724Z</time>
      </trkpt>
      <trkpt lat="59.40155594609678" lon="13.604190945625305">
        <ele>67.67</ele>
        <time>2025-02-22T08:03:38.347Z</time>
      </trkpt>
      <trkpt lat="59.40159995108843" lon="13.604189939796925">
        <ele>67.86</ele>
        <time>2025-02-22T08:04:42.971Z</time>
      </trkpt>
      <trkpt lat="59.4016479793936" lon="13.60417996533215">
        <ele>68.06</ele>
        <time>2025-02-22T08:05:47.595Z</time>
      </trkpt>
      <trkpt lat="59.40169097855687" lon="13.604167979210615">
        <ele>68.27</ele>
        <time>2025-02-22T08:06:52.220Z</time>
      </trkpt>
      <trkpt lat="59.40172995440662" lon="13.60415699891746">
        <ele>68.48</ele>
        <time>2025-02-22T08:07:56.846Z</time>
      </trkpt>
      <trkpt lat="59.401766918599606" lon="13.604141995310783">
        <ele>68.7</ele>
        <time>2025-02-22T08:09:01.472Z</time>
      </trkpt>
      <trkpt lat="59.40180899575353" lon="13.604120956733823">
        <ele>68.92</ele>
        <time>2025-02-22T08:10:06.099Z</time>
      </trkpt>
      <trkpt lat="59.4018519949168" lon="13.604099918156862">
        <ele>69.14</ele>
        <time>2025-02-22T08:11:10.727Z</time>
      </trkpt>
      <trkpt lat="59.401890970766544" lon="13.60409195534885">
        <ele>69.36</ele>
        <time>2025-02-22T08:12:15.355Z</time>
      </trkpt>
      <trkpt lat="59.40192994661629" lon="13.604079969227314">
        <ele>69.59</ele>
        <time>2025-02-22T08:13:19.984Z</time>
      </trkpt>
      <trkpt lat="59.40196498297155" lon="13.604074940085411">
        <ele>69.83</ele>
        <time>2025-02-22T08:14:24.613Z</time>
      </trkpt>
      <trkpt lat="59.401998929679394" lon="13.604062953963876">
        <ele>70.07</ele>
        <time>2025-02-22T08:15:29.243Z</time>
      </trkpt>
      <trkpt lat="59.40203597769141" lon="13.604045938700438">
        <ele>70.31</ele>
        <time>2025-02-22T08:16:33.874Z</time>
      </trkpt>
      <trkpt lat="59.402068918570876" lon="13.604034958407283">
        <ele>70.55</ele>
        <time>2025-02-22T08:17:38.505Z</time>
      </trkpt>
      <trkpt lat="59.40210093744099" lon="13.604016937315464">
        <ele>70.8</ele>
        <time>2025-02-22T08:18:43.137Z</time>
      </trkpt>
      <trkpt lat="59.402129938825965" lon="13.604000927880406">
        <ele>71.05</ele>
        <time>2025-02-22T08:19:47.769Z</time>
      </trkpt>
      <trkpt lat="59.40215894021094" lon="13.603978967294097">
        <ele>71.3</ele>
        <time>2025-02-22T08:20:52.402Z</time>
      </trkpt>
      <trkpt lat="59.40218995325267" lon="13.60396295785904">
        <ele>71.55</ele>
        <time>2025-02-22T08:21:57.035Z</time>
      </trkpt>
      <trkpt lat="59.40222498960793" lon="13.60394099727273">
        <ele>71.81</ele>
        <time>2025-02-22T08:23:01.669Z</time>
      </trkpt>
      <trkpt lat="59.402256924659014" lon="13.60392096452415">
        <ele>72.07</ele>
        <time>2025-02-22T08:24:06.303Z</time>
      </trkpt>
      <trkpt lat="59.40228492021561" lon="13.60389799810946">
        <ele>72.34</ele>
        <time>2025-02-22T08:25:10.938Z</time>
      </trkpt>
      <trkpt lat="59.40230998210609" lon="13.603874947875738">
        <ele>72.61</ele>
        <time>2025-02-22T08:26:15.573Z</time>
      </trkpt>
      <trkpt lat="59.40233294852078" lon="13.603849969804287">
        <ele>72.88</ele>
        <time>2025-02-22T08:27:20.209Z</time>
      </trkpt>
      <trkpt lat="59.40235893242061" lon="13.603824991732836">
        <ele>73.15</ele>
        <time>2025-02-22T08:28:24.845Z</time>
      </trkpt>
      <trkpt lat="59.402386927977204" lon="13.603803953155875">
        <ele>73.42</ele>
        <time>2025-02-22T08:29:29.482Z</time>
      </trkpt>
      <trkpt lat="59.40242095850408" lon="13.603765983134508">
        <ele>73.7</ele>
        <time>2025-02-22T08:30:34.119Z</time>
      </trkpt>
      <trkpt lat="59.402448954060674" lon="13.603737987577915">
        <ele>73.98</ele>
        <time>2025-02-22T08:31:38.757Z</time>
      </trkpt>
      <trkpt lat="59.402475943788886" lon="13.603711919859052">
        <ele>74.26</ele>
        <time>2025-02-22T08:32:43.395Z</time>
      </trkpt>
      <trkpt lat="59.40250192768872" lon="13.60368199646473">
        <ele>74.54</ele>
        <time>2025-02-22T08:33:48.034Z</time>
      </trkpt>
      <trkpt lat="59.40252296626568" lon="13.603650983422995">
        <ele>74.82</ele>
        <time>2025-02-22T08:34:52.673Z</time>
      </trkpt>
      <trkpt lat="59.402555990964174" lon="13.603604966774583">
        <ele>75.1</ele>
        <time>2025-02-22T08:35:57.313Z</time>
      </trkpt>
      <trkpt lat="59.402578957378864" lon="13.603563979268074">
        <ele>75.39</ele>
        <time>2025-02-22T08:37:01.953Z</time>
      </trkpt>
      <trkpt lat="59.402600917965174" lon="13.603517962619662">
        <ele>75.68</ele>
        <time>2025-02-22T08:38:06.594Z</time>
      </trkpt>
      <trkpt lat="59.402621956542134" lon="13.603477980941534">
        <ele>75.96</ele>
        <time>2025-02-22T08:39:11.235Z</time>
      </trkpt>
      <trkpt lat="59.402640983462334" lon="13.603445962071419">
        <ele>76.25</ele>
        <time>2025-02-22T08:40:15.877Z</time>
      </trkpt>
      <trkpt lat="59.40266294404864" lon="13.603407992050052">
        <ele>76.54</ele>
        <time>2025-02-22T08:41:20.519Z</time>
      </trkpt>
      <trkpt lat="59.402690939605236" lon="13.60334194265306">
        <ele>76.83</ele>
        <time>2025-02-22T08:42:25.162Z</time>
      </trkpt>
      <trkpt lat="59.40271692350507" lon="13.603296931833029">
        <ele>77.12</ele>
        <time>2025-02-22T08:43:29.805Z</time>
      </trkpt>
      <trkpt lat="59.40274097956717" lon="13.603260973468423">
        <ele>77.41</ele>
        <time>2025-02-22T08:44:34.449Z</time>
      </trkpt>
      <trkpt lat="59.40276294015348" lon="13.60321395099163">
        <ele>77.71</ele>
        <time>2025-02-22T08:45:39.093Z</time>
      </trkpt>
      <trkpt lat="59.40278498455882" lon="13.603171957656741">
        <ele>78.0</ele>
        <time>2025-02-22T08:46:43.738Z</time>
      </trkpt>
      <trkpt lat="59.40280493348837" lon="13.603133987635374">
        <ele>78.29</ele>
        <time>2025-02-22T08:47:48.383Z</time>
      </trkpt>
      <trkpt lat="59.402816919609904" lon="13.603086965158582">
        <ele>78.58</ele>
        <time>2025-02-22T08:48:53.029Z</time>
      </trkpt>
      <trkpt lat="59.40282898955047" lon="13.603036925196648">
        <ele>78.87</ele>
        <time>2025-02-22T08:49:57.675Z</time>
      </trkpt>
      <trkpt lat="59.40284499898553" lon="13.602993926033378">
        <ele>79.16</ele>
        <time>2025-02-22T08:51:02.322Z</time>
      </trkpt>
      <trkpt lat="59.402858996763825" lon="13.602950926870108">
        <ele>79.45</ele>
        <time>2025-02-22T08:52:06.969Z</time>
      </trkpt>
      <trkpt lat="59.402879951521754" lon="13.602902982383966">
        <ele>79.74</ele>
        <time>2025-02-22T08:53:11.617Z</time>
      </trkpt>
      <trkpt lat="59.40290794707835" lon="13.602847997099161">
        <ele>80.03</ele>
        <time>2025-02-22T08:54:16.265Z</time>
      </trkpt>
      <trkpt lat="59.40293694846332" lon="13.602778930217028">
        <ele>80.32</ele>
        <time>2025-02-22T08:55:20.914Z</time>
      </trkpt>
      <trkpt lat="59.40296293236315" lon="13.602709947153926">
        <ele>80.61</ele>
        <time>2025-02-22T08:56:25.564Z</time>
      </trkpt>
      <trkpt lat="59.402987994253635" lon="13.602640964090824">
        <ele>80.9</ele>
        <time>2025-02-22T08:57:30.214Z</time>
      </trkpt>
      <trkpt lat="59.403009954839945" lon="13.602577932178974">
        <ele>81.18</ele>
        <time>2025-02-22T08:58:34.865Z</time>
      </trkpt>
      <trkpt lat="59.403025964275" lon="13.60252495855093">
        <ele>81.47</ele>
        <time>2025-02-22T08:59:39.517Z</time>
      </trkpt>
      <trkpt lat="59.40304297953844" lon="13.602463938295841">
        <ele>81.75</ele>
        <time>2025-02-22T09:00:44.169Z</time>
      </trkpt>
      <trkpt lat="59.4030589889735" lon="13.602404929697514">
        <ele>82.03</ele>
        <time>2025-02-22T09:01:48.822Z</time>
      </trkpt>
      <trkpt lat="59.40306996926665" lon="13.602339969947934">
        <ele>82.31</ele>
        <time>2025-02-22T09:02:53.475Z</time>
      </trkpt>
      <trkpt lat="59.40308094955981" lon="13.602279955521226">
        <ele>82.59</ele>
        <time>2025-02-22T09:03:58.129Z</time>
      </trkpt>
      <trkpt lat="59.40308799035847" lon="13.602216923609376">
        <ele>82.86</ele>
        <time>2025-02-22T09:05:02.783Z</time>
      </trkpt>
      <trkpt lat="59.403094947338104" lon="13.602153975516558">
        <ele>83.14</ele>
        <time>2025-02-22T09:06:07.438Z</time>
      </trkpt>
      <trkpt lat="59.40309897065163" lon="13.60209496691823">
        <ele>83.41</ele>
        <time>2025-02-22T09:07:12.093Z</time>
      </trkpt>
      <trkpt lat="59.40310592763126" lon="13.60202799551189">
        <ele>83.68</ele>
        <time>2025-02-22T09:08:16.749Z</time>
      </trkpt>
      <trkpt lat="59.40311296842992" lon="13.601947948336601">
        <ele>83.94</ele>
        <time>2025-02-22T09:09:21.405Z</time>
      </trkpt>
      <trkpt lat="59.403119925409555" lon="13.6018789652735">
        <ele>84.21</ele>
        <time>2025-02-22T09:10:26.062Z</time>
      </trkpt>
      <trkpt lat="59.40312897786498" lon="13.60181693919003">
        <ele>84.47</ele>
        <time>2025-02-22T09:11:30.720Z</time>
      </trkpt>
      <trkpt lat="59.40313492901623" lon="13.60174996778369">
        <ele>84.73</ele>
        <time>2025-02-22T09:12:35.378Z</time>
      </trkpt>
      <trkpt lat="59.403140963986516" lon="13.601690959185362">
        <ele>84.98</ele>
        <time>2025-02-22T09:13:40.037Z</time>
      </trkpt>
      <trkpt lat="59.40314599312842" lon="13.601626921445131">
        <ele>85.24</ele>
        <time>2025-02-22T09:14:44.696Z</time>
      </trkpt>
      <trkpt lat="59.40314398147166" lon="13.601562967523932">
        <ele>85.49</ele>
        <time>2025-02-22T09:15:49.356Z</time>
      </trkpt>
      <trkpt lat="59.4031469989568" lon="13.601498929783702">
        <ele>85.73</ele>
        <time>2025-02-22T09:16:54.016Z</time>
      </trkpt>
      <trkpt lat="59.40314993262291" lon="13.60142894089222">
        <ele>85.97</ele>
        <time>2025-02-22T09:17:58.677Z</time>
      </trkpt>
      <trkpt lat="59.403160996735096" lon="13.601356940343976">
        <ele>86.21</ele>
        <time>2025-02-22T09:19:03.338Z</time>
      </trkpt>
      <trkpt lat="59.403160996735096" lon="13.601286951452494">
        <ele>86.45</ele>
        <time>2025-02-22T09:20:08.000Z</time>
      </trkpt>
      <trkpt lat="59.40315596759319" lon="13.601210927590728">
        <ele>86.69</ele>
        <time>2025-02-22T09:21:12.663Z</time>
      </trkpt>
      <trkpt lat="59.40315496176481" lon="13.601132975891232">
        <ele>86.92</ele>
        <time>2025-02-22T09:22:17.326Z</time>
      </trkpt>
      <trkpt lat="59.403156973421574" lon="13.60106399282813">
        <ele>87.14</ele>
        <time>2025-02-22T09:23:21.990Z</time>
      </trkpt>
      <trkpt lat="59.40315295010805" lon="13.600996937602758">
        <ele>87.37</ele>
        <time>2025-02-22T09:24:26.654Z</time>
      </trkpt>
      <trkpt lat="59.40315295010805" lon="13.600938934832811">
        <ele>87.58</ele>
        <time>2025-02-22T09:25:31.319Z</time>
      </trkpt>
      <trkpt lat="59.40314993262291" lon="13.600874980911613">
        <ele>87.79</ele>
        <time>2025-02-22T09:26:35.984Z</time>
      </trkpt>
      <trkpt lat="59.40315194427967" lon="13.600800968706608">
        <ele>88.0</ele>
        <time>2025-02-22T09:27:40.650Z</time>
      </trkpt>
      <trkpt lat="59.40313593484461" lon="13.600723939016461">
        <ele>88.21</ele>
        <time>2025-02-22T09:28:45.317Z</time>
      </trkpt>
      <trkpt lat="59.40312495455146" lon="13.600645987316966">
        <ele>88.42</ele>
        <time>2025-02-22T09:29:49.984Z</time>
      </trkpt>
      <trkpt lat="59.403116991743445" lon="13.60057096928358">
        <ele>88.62</ele>
        <time>2025-02-22T09:30:54.652Z</time>
      </trkpt>
      <trkpt lat="59.40310995094478" lon="13.60050793737173">
        <ele>88.81</ele>
        <time>2025-02-22T09:31:59.320Z</time>
      </trkpt>
      <trkpt lat="59.403096958994865" lon="13.600438954308629">
        <ele>89.0</ele>
        <time>2025-02-22T09:33:03.989Z</time>
      </trkpt>
      <trkpt lat="59.40309092402458" lon="13.600356979295611">
        <ele>89.18</ele>
        <time>2025-02-22T09:34:08.659Z</time>
      </trkpt>
      <trkpt lat="59.40308296121657" lon="13.600283972918987">
        <ele>89.36</ele>
        <time>2025-02-22T09:35:13.329Z</time>
      </trkpt>
      <trkpt lat="59.403076926246285" lon="13.600208954885602">
        <ele>89.54</ele>
        <time>2025-02-22T09:36:18.000Z</time>
      </trkpt>
      <trkpt lat="59.40306393429637" lon="13.60013896599412">
        <ele>89.71</ele>
        <time>2025-02-22T09:37:22.672Z</time>
      </trkpt>
      <trkpt lat="59.40304691903293" lon="13.600072916597128">
        <ele>89.88</ele>
        <time>2025-02-22T09:38:27.344Z</time>
      </trkpt>
      <trkpt lat="59.403027975931764" lon="13.600012985989451">
        <ele>90.04</ele>
        <time>2025-02-22T09:39:32.017Z</time>
      </trkpt>
      <trkpt lat="59.403007943183184" lon="13.599943919107318">
        <ele>90.2</ele>
        <time>2025-02-22T09:40:36.690Z</time>
      </trkpt>
      <trkpt lat="59.402990927919745" lon="13.599869990721345">
        <ele>90.35</ele>
        <time>2025-02-22T09:41:41.364Z</time>
      </trkpt>
      <trkpt lat="59.402965949848294" lon="13.599804947152734">
        <ele>90.5</ele>
        <time>2025-02-22T09:42:46.039Z</time>
      </trkpt>
      <trkpt lat="59.402944995090365" lon="13.599742921069264">
        <ele>90.64</ele>
        <time>2025-02-22T09:43:50.714Z</time>
      </trkpt>
      <trkpt lat="59.402923956513405" lon="13.599679972976446">
        <ele>90.78</ele>
        <time>2025-02-22T09:44:55.390Z</time>
      </trkpt>
      <trkpt lat="59.402900990098715" lon="13.599612917751074">
        <ele>90.91</ele>
        <time>2025-02-22T09:46:00.067Z</time>
      </trkpt>
      <trkpt lat="59.40287793986499" lon="13.599546952173114">
        <ele>91.04</ele>
        <time>2025-02-22T09:47:04.744Z</time>
      </trkpt>
      <trkpt lat="59.402856985107064" lon="13.59947293996811">
        <ele>91.16</ele>
        <time>2025-02-22T09:48:09.422Z</time>
      </trkpt>
      <trkpt lat="59.402836952358484" lon="13.599399933591485">
        <ele>91.28</ele>
        <time>2025-02-22T09:49:14.101Z</time>
      </trkpt>
      <trkpt lat="59.402816919609904" lon="13.599336985498667">
        <ele>91.38</ele>
        <time>2025-02-22T09:50:18.780Z</time>
      </trkpt>
      <trkpt lat="59.40279797650874" lon="13.599271941930056">
        <ele>91.49</ele>
        <time>2025-02-22T09:51:23.460Z</time>
      </trkpt>
      <trkpt lat="59.40278196707368" lon="13.59919298440218">
        <ele>91.58</ele>
        <time>2025-02-22T09:52:28.141Z</time>
      </trkpt>
      <trkpt lat="59.40275891683996" lon="13.599122995510697">
        <ele>91.68</ele>
        <time>2025-02-22T09:53:32.822Z</time>
      </trkpt>
      <trkpt lat="59.40273494459689" lon="13.599053928628564">
        <ele>91.76</ele>
        <time>2025-02-22T09:54:37.504Z</time>
      </trkpt>
      <trkpt lat="59.402707954868674" lon="13.598985951393843">
        <ele>91.85</ele>
        <time>2025-02-22T09:55:42.187Z</time>
      </trkpt>
      <trkpt lat="59.402685994282365" lon="13.598919985815883">
        <ele>91.92</ele>
        <time>2025-02-22T09:56:46.870Z</time>
      </trkpt>
      <trkpt lat="59.40266897901893" lon="13.598843961954117">
        <ele>92.0</ele>
        <time>2025-02-22T09:57:51.554Z</time>
      </trkpt>
      <trkpt lat="59.402645928785205" lon="13.598774978891015">
        <ele>92.06</ele>
        <time>2025-02-22T09:58:56.239Z</time>
      </trkpt>
      <trkpt lat="59.40263193100691" lon="13.598709935322404">
        <ele>92.12</ele>
        <time>2025-02-22T10:00:00.924Z</time>
      </trkpt>
      <trkpt lat="59.40261298790574" lon="13.598647993057966">
        <ele>92.18</ele>
        <time>2025-02-22T10:01:05.610Z</time>
      </trkpt>
      <trkpt lat="59.402579963207245" lon="13.598579932004213">
        <ele>92.23</ele>
        <time>2025-02-22T10:02:10.297Z</time>
      </trkpt>
      <trkpt lat="59.40255196765065" lon="13.598511954769492">
        <ele>92.27</ele>
        <time>2025-02-22T10:03:14.984Z</time>
      </trkpt>
      <trkpt lat="59.4025219604373" lon="13.598445989191532">
        <ele>92.3</ele>
        <time>2025-02-22T10:04:19.672Z</time>
      </trkpt>
      <trkpt lat="59.40248994156718" lon="13.598382957279682">
        <ele>92.33</ele>
        <time>2025-02-22T10:05:24.361Z</time>
      </trkpt>
      <trkpt lat="59.40246596932411" lon="13.598320931196213">
        <ele>92.36</ele>
        <time>2025-02-22T10:06:29.050Z</time>
      </trkpt>
      <trkpt lat="59.40244493074715" lon="13.598239962011576">
        <ele>92.38</ele>
        <time>2025-02-22T10:07:33.740Z</time>
      </trkpt>
      <trkpt lat="59.4024199526757" lon="13.598168967291713">
        <ele>92.4</ele>
        <time>2025-02-22T10:08:38.431Z</time>
      </trkpt>
      <trkpt lat="59.402388939633965" lon="13.59809696674347">
        <ele>92.41</ele>
        <time>2025-02-22T10:09:43.123Z</time>
      </trkpt>
      <trkpt lat="59.40235993824899" lon="13.598018931224942">
        <ele>92.42</ele>
        <time>2025-02-22T10:10:47.815Z</time>
      </trkpt>
      <trkpt lat="59.4023319426924" lon="13.597942991182208">
        <ele>92.42</ele>
        <time>2025-02-22T10:11:52.508Z</time>
      </trkpt>
      <trkpt lat="59.402302941307425" lon="13.597866967320442">
        <ele>92.42</ele>
        <time>2025-02-22T10:12:57.202Z</time>
      </trkpt>
      <trkpt lat="59.40227192826569" lon="13.597787925973535">
        <ele>92.41</ele>
        <time>2025-02-22T10:14:01.897Z</time>
      </trkpt>
      <trkpt lat="59.40224594436586" lon="13.597720954567194">
        <ele>92.4</ele>
        <time>2025-02-22T10:15:06.592Z</time>
      </trkpt>
      <trkpt lat="59.402216942980886" lon="13.597650965675712">
        <ele>92.38</ele>
        <time>2025-02-22T10:16:11.288Z</time>
      </trkpt>
      <trkpt lat="59.402192970737815" lon="13.59758097678423">
        <ele>92.36</ele>
        <time>2025-02-22T10:17:15.985Z</time>
      </trkpt>
      <trkpt lat="59.40216698683798" lon="13.597504952922463">
        <ele>92.33</ele>
        <time>2025-02-22T10:18:20.683Z</time>
      </trkpt>
      <trkpt lat="59.40214594826102" lon="13.597425995394588">
        <ele>92.3</ele>
        <time>2025-02-22T10:19:25.381Z</time>
      </trkpt>
      <trkpt lat="59.40212692134082" lon="13.597343936562538">
        <ele>92.26</ele>
        <time>2025-02-22T10:20:30.080Z</time>
      </trkpt>
      <trkpt lat="59.40210395492613" lon="13.597266990691423">
        <ele>92.21</ele>
        <time>2025-02-22T10:21:34.780Z</time>
      </trkpt>
      <trkpt lat="59.4020779710263" lon="13.59719599597156">
        <ele>92.17</ele>
        <time>2025-02-22T10:22:39.481Z</time>
      </trkpt>
      <trkpt lat="59.40205399878323" lon="13.597123995423317">
        <ele>92.11</ele>
        <time>2025-02-22T10:23:44.182Z</time>
      </trkpt>
      <trkpt lat="59.40202994272113" lon="13.597039924934506">
        <ele>92.06</ele>
        <time>2025-02-22T10:24:48.884Z</time>
      </trkpt>
      <trkpt lat="59.4020089879632" lon="13.596956944093108">
        <ele>91.99</ele>
        <time>2025-02-22T10:25:53.587Z</time>
      </trkpt>
      <trkpt lat="59.40198593772948" lon="13.596878992393613">
        <ele>91.93</ele>
        <time>2025-02-22T10:26:58.290Z</time>
      </trkpt>
      <trkpt lat="59.40196196548641" lon="13.596801962703466">
        <ele>91.85</ele>
        <time>2025-02-22T10:28:02.994Z</time>
      </trkpt>
      <trkpt lat="59.40192793495953" lon="13.596716970205307">
        <ele>91.78</ele>
        <time>2025-02-22T10:29:07.699Z</time>
      </trkpt>
      <trkpt lat="59.401896921917796" lon="13.596633989363909">
        <ele>91.7</ele>
        <time>2025-02-22T10:30:12.405Z</time>
      </trkpt>
      <trkpt lat="59.401866998523474" lon="13.59655293636024">
        <ele>91.61</ele>
        <time>2025-02-22T10:31:17.112Z</time>
      </trkpt>
      <trkpt lat="59.4018329679966" lon="13.59646794386208">
        <ele>91.52</ele>
        <time>2025-02-22T10:32:21.820Z</time>
      </trkpt>
      <trkpt lat="59.40180195495486" lon="13.596374988555908">
        <ele>91.42</ele>
        <time>2025-02-22T10:33:26.529Z</time>
      </trkpt>
      <trkpt lat="59.40176599659026" lon="13.596284966915846">
        <ele>91.32</ele>
        <time>2025-02-22T10:34:31.239Z</time>
      </trkpt>
      <trkpt lat="59.40173297189176" lon="13.596193939447403">
        <ele>91.21</ele>
        <time>2025-02-22T10:35:35.949Z</time>
      </trkpt>
      <trkpt lat="59.40170296467841" lon="13.596107941120863">
        <ele>91.1</ele>
        <time>2025-02-22T10:36:40.660Z</time>
      </trkpt>
      <trkpt lat="59.401675974950194" lon="13.5960179194808">
        <ele>90.98</ele>
        <time>2025-02-22T10:37:45.372Z</time>
      </trkpt>
      <trkpt lat="59.40165099687874" lon="13.595924964174628">
        <ele>90.86</ele>
        <time>2025-02-22T10:38:50.085Z</time>
      </trkpt>
      <trkpt lat="59.40162492915988" lon="13.595833936706185">
        <ele>90.73</ele>
        <time>2025-02-22T10:39:54.799Z</time>
      </trkpt>
      <trkpt lat="59.401595927774906" lon="13.595737963914871">
        <ele>90.6</ele>
        <time>2025-02-22T10:40:59.514Z</time>
      </trkpt>
      <trkpt lat="59.401569943875074" lon="13.595645930618048">
        <ele>90.47</ele>
        <time>2025-02-22T10:42:04.230Z</time>
      </trkpt>
      <trkpt lat="59.401546977460384" lon="13.595552975311875">
        <ele>90.33</ele>
        <time>2025-02-22T10:43:08.946Z</time>
      </trkpt>
      <trkpt lat="59.401525938883424" lon="13.595467982813716">
        <ele>90.2</ele>
        <time>2025-02-22T10:44:13.663Z</time>
      </trkpt>
      <trkpt lat="59.401503978297114" lon="13.595373937860131">
        <ele>90.05</ele>
        <time>2025-02-22T10:45:18.381Z</time>
      </trkpt>
      <trkpt lat="59.401483945548534" lon="13.59528592787683">
        <ele>89.9</ele>
        <time>2025-02-22T10:46:23.100Z</time>
      </trkpt>
      <trkpt lat="59.401459973305464" lon="13.595197917893529">
        <ele>89.75</ele>
        <time>2025-02-22T10:47:27.820Z</time>
      </trkpt>
      <trkpt lat="59.40143499523401" lon="13.595101945102215">
        <ele>89.59</ele>
        <time>2025-02-22T10:48:32.541Z</time>
      </trkpt>
      <trkpt lat="59.40141295082867" lon="13.595011923462152">
        <ele>89.43</ele>
        <time>2025-02-22T10:49:37.262Z</time>
      </trkpt>
      <trkpt lat="59.40139199607074" lon="13.59491997398436">
        <ele>89.27</ele>
        <time>2025-02-22T10:50:41.984Z</time>
      </trkpt>
      <trkpt lat="59.4013699516654" lon="13.594829952344298">
        <ele>89.11</ele>
        <time>2025-02-22T10:51:46.707Z</time>
      </trkpt>
      <trkpt lat="59.40134899690747" lon="13.59474797733128">
        <ele>88.95</ele>
        <time>2025-02-22T10:52:51.431Z</time>
      </trkpt>
      <trkpt lat="59.40132896415889" lon="13.594657955691218">
        <ele>88.78</ele>
        <time>2025-02-22T10:53:56.156Z</time>
      </trkpt>
      <trkpt lat="59.40130691975355" lon="13.594562988728285">
        <ele>88.61</ele>
        <time>2025-02-22T10:55:00.881Z</time>
      </trkpt>
      <trkpt lat="59.40128294751048" lon="13.5944689437747">
        <ele>88.44</ele>
        <time>2025-02-22T10:56:05.607Z</time>
      </trkpt>
      <trkpt lat="59.40126392059028" lon="13.594370959326625">
        <ele>88.27</ele>
        <time>2025-02-22T10:57:10.334Z</time>
      </trkpt>
      <trkpt lat="59.40124397166073" lon="13.594276998192072">
        <ele>88.09</ele>
        <time>2025-02-22T10:58:15.062Z</time>
      </trkpt>
      <trkpt lat="59.40122293308377" lon="13.594175996258855">
        <ele>87.91</ele>
        <time>2025-02-22T10:59:19.791Z</time>
      </trkpt>
      <trkpt lat="59.401201978325844" lon="13.594070971012115">
        <ele>87.73</ele>
        <time>2025-02-22T11:00:24.521Z</time>
      </trkpt>
      <trkpt lat="59.40118093974888" lon="13.593962928280234">
        <ele>87.54</ele>
        <time>2025-02-22T11:01:29.252Z</time>
      </trkpt>
      <trkpt lat="59.401160990819335" lon="13.593848934397101">
        <ele>87.36</ele>
        <time>2025-02-22T11:02:33.984Z</time>
      </trkpt>
      <trkpt lat="59.40113794058561" lon="13.593726977705956">
        <ele>87.17</ele>
        <time>2025-02-22T11:03:38.717Z</time>
      </trkpt>
      <trkpt lat="59.40111497417092" lon="13.593603931367397">
        <ele>86.98</ele>
        <time>2025-02-22T11:04:43.451Z</time>
      </trkpt>
      <trkpt lat="59.401096953079104" lon="13.59347996301949">
        <ele>86.8</ele>
        <time>2025-02-22T11:05:48.186Z</time>
      </trkpt>
      <trkpt lat="59.40108194947243" lon="13.593357922509313">
        <ele>86.61</ele>
        <time>2025-02-22T11:06:52.922Z</time>
      </trkpt>
      <trkpt lat="59.40106795169413" lon="13.593235965818167">
        <ele>86.41</ele>
        <time>2025-02-22T11:07:57.659Z</time>
      </trkpt>
      <trkpt lat="59.40105093643069" lon="13.59311493113637">
        <ele>86.22</ele>
        <time>2025-02-22T11:09:02.397Z</time>
      </trkpt>
      <trkpt lat="59.401036938652396" lon="13.592994986101985">
        <ele>86.02</ele>
        <time>2025-02-22T11:10:07.136Z</time>
      </trkpt>
      <trkpt lat="59.40102193504572" lon="13.592871939763427">
        <ele>85.83</ele>
        <time>2025-02-22T11:11:11.876Z</time>
      </trkpt>
      <trkpt lat="59.40100399777293" lon="13.592745959758759">
        <ele>85.64</ele>
        <time>2025-02-22T11:12:16.617Z</time>
      </trkpt>
      <trkpt lat="59.40098195336759" lon="13.592624925076962">
        <ele>85.44</ele>
        <time>2025-02-22T11:13:21.359Z</time>
      </trkpt>
      <trkpt lat="59.40096099860966" lon="13.592499950900674">
        <ele>85.24</ele>
        <time>2025-02-22T11:14:26.102Z</time>
      </trkpt>
      <trkpt lat="59.4009399600327" lon="13.592365924268961">
        <ele>85.03</ele>
        <time>2025-02-22T11:15:30.846Z</time>
      </trkpt>
      <trkpt lat="59.40092897973955" lon="13.592239944264293">
        <ele>84.82</ele>
        <time>2025-02-22T11:16:35.591Z</time>
      </trkpt>
      <trkpt lat="59.40091297030449" lon="13.592111952602863">
        <ele>84.61</ele>
        <time>2025-02-22T11:17:40.337Z</time>
      </trkpt>
      <trkpt lat="59.40089394338429" lon="13.59197692014277">
        <ele>84.39</ele>
        <time>2025-02-22T11:18:45.085Z</time>
      </trkpt>
      <trkpt lat="59.40087994560599" lon="13.591838954016566">
        <ele>84.17</ele>
        <time>2025-02-22T11:19:49.834Z</time>
      </trkpt>
      <trkpt lat="59.40086795948446" lon="13.591683972626925">
        <ele>83.95</ele>
        <time>2025-02-22T11:20:54.584Z</time>
      </trkpt>
      <trkpt lat="59.400857985019684" lon="13.591527985408902">
        <ele>83.73</ele>
        <time>2025-02-22T11:21:59.335Z</time>
      </trkpt>
      <trkpt lat="59.400840969756246" lon="13.59135297127068">
        <ele>83.5</ele>
        <time>2025-02-22T11:23:04.088Z</time>
      </trkpt>
      <trkpt lat="59.40081398002803" lon="13.59117996878922">
        <ele>83.27</ele>
        <time>2025-02-22T11:24:08.842Z</time>
      </trkpt>
      <trkpt lat="59.40078397281468" lon="13.591001937165856">
        <ele>83.04</ele>
        <time>2025-02-22T11:25:13.598Z</time>
      </trkpt>
      <trkpt lat="59.400754971429706" lon="13.590823989361525">
        <ele>82.81</ele>
        <time>2025-02-22T11:26:18.355Z</time>
      </trkpt>
      <trkpt lat="59.40072295255959" lon="13.590646963566542">
        <ele>82.59</ele>
        <time>2025-02-22T11:27:23.114Z</time>
      </trkpt>
      <trkpt lat="59.40069395117462" lon="13.59047094359994">
        <ele>82.36</ele>
        <time>2025-02-22T11:28:27.874Z</time>
      </trkpt>
      <trkpt lat="59.400665955618024" lon="13.590297941118479">
        <ele>82.14</ele>
        <time>2025-02-22T11:29:32.636Z</time>
      </trkpt>
      <trkpt lat="59.40063293091953" lon="13.590121921151876">
        <ele>81.92</ele>
        <time>2025-02-22T11:30:37.399Z</time>
      </trkpt>
      <trkpt lat="59.400599990040064" lon="13.589943973347545">
        <ele>81.71</ele>
        <time>2025-02-22T11:31:42.164Z</time>
      </trkpt>
      <trkpt lat="59.40056696534157" lon="13.589761918410659">
        <ele>81.51</ele>
        <time>2025-02-22T11:32:46.931Z</time>
      </trkpt>
      <trkpt lat="59.400536958128214" lon="13.589583970606327">
        <ele>81.3</ele>
        <time>2025-02-22T11:33:51.699Z</time>
      </trkpt>
      <trkpt lat="59.40050795674324" lon="13.589407950639725">
        <ele>81.1</ele>
        <time>2025-02-22T11:34:56.469Z</time>
      </trkpt>
      <trkpt lat="59.40047996118665" lon="13.589230924844742">
        <ele>80.91</ele>
        <time>2025-02-22T11:36:01.240Z</time>
      </trkpt>
      <trkpt lat="59.400457916781306" lon="13.58905197121203">
        <ele>80.71</ele>
        <time>2025-02-22T11:37:06.013Z</time>
      </trkpt>
      <trkpt lat="59.4004409853369" lon="13.588877962902188">
        <ele>80.51</ele>
        <time>2025-02-22T11:38:10.787Z</time>
      </trkpt>
      <trkpt lat="59.40041894093156" lon="13.588710995391011">
        <ele>80.33</ele>
        <time>2025-02-22T11:39:15.562Z</time>
      </trkpt>
      <trkpt lat="59.40039899200201" lon="13.58853799290955">
        <ele>80.14</ele>
        <time>2025-02-22T11:40:20.339Z</time>
      </trkpt>
      <trkpt lat="59.40038097091019" lon="13.588356943801045">
        <ele>79.96</ele>
        <time>2025-02-22T11:41:25.117Z</time>
      </trkpt>
      <trkpt lat="59.40036294981837" lon="13.58817396685481">
        <ele>79.77</ele>
        <time>2025-02-22T11:42:29.897Z</time>
      </trkpt>
      <trkpt lat="59.40033998340368" lon="13.587992917746305">
        <ele>79.58</ele>
        <time>2025-02-22T11:43:34.678Z</time>
      </trkpt>
      <trkpt lat="59.40031299367547" lon="13.58780994080007">
        <ele>79.39</ele>
        <time>2025-02-22T11:44:39.461Z</time>
      </trkpt>
      <trkpt lat="59.40028994344175" lon="13.587619923055172">
        <ele>79.21</ele>
        <time>2025-02-22T11:45:44.246Z</time>
      </trkpt>
      <trkpt lat="59.40027493983507" lon="13.587429989129305">
        <ele>79.01</ele>
        <time>2025-02-22T11:46:49.032Z</time>
      </trkpt>
      <trkpt lat="59.40025691874325" lon="13.587242988869548">
        <ele>78.82</ele>
        <time>2025-02-22T11:47:53.820Z</time>
      </trkpt>
      <trkpt lat="59.40023395232856" lon="13.587052971124649">
        <ele>78.63</ele>
        <time>2025-02-22T11:48:58.609Z</time>
      </trkpt>
      <trkpt lat="59.40020193345845" lon="13.58686395920813">
        <ele>78.44</ele>
        <time>2025-02-22T11:50:03.400Z</time>
      </trkpt>
      <trkpt lat="59.400174943730235" lon="13.586680982261896">
        <ele>78.27</ele>
        <time>2025-02-22T11:51:08.193Z</time>
      </trkpt>
      <trkpt lat="59.40014594234526" lon="13.58649792149663">
        <ele>78.08</ele>
        <time>2025-02-22T11:52:12.987Z</time>
      </trkpt>
      <trkpt lat="59.40011593513191" lon="13.586313938722014">
        <ele>77.9</ele>
        <time>2025-02-22T11:53:17.783Z</time>
      </trkpt>
      <trkpt lat="59.40008592791855" lon="13.5861299559474">
        <ele>77.73</ele>
        <time>2025-02-22T11:54:22.580Z</time>
      </trkpt>
      <trkpt lat="59.40005994401872" lon="13.585943961516023">
        <ele>77.56</ele>
        <time>2025-02-22T11:55:27.379Z</time>
      </trkpt>
      <trkpt lat="59.40003295429051" lon="13.585754949599504">
        <ele>77.39</ele>
        <time>2025-02-22T11:56:32.179Z</time>
      </trkpt>
      <trkpt lat="59.40000797621906" lon="13.585568955168128">
        <ele>77.23</ele>
        <time>2025-02-22T11:57:36.981Z</time>
      </trkpt>
      <trkpt lat="59.399983920156956" lon="13.585383966565132">
        <ele>77.07</ele>
        <time>2025-02-22T11:58:41.785Z</time>
      </trkpt>
      <trkpt lat="59.399960953742266" lon="13.585198977962136">
        <ele>76.92</ele>
        <time>2025-02-22T11:59:46.590Z</time>
      </trkpt>
      <trkpt lat="59.399938993155956" lon="13.585014995187521">
        <ele>76.78</ele>
        <time>2025-02-22T12:00:51.397Z</time>
      </trkpt>
      <trkpt lat="59.39991292543709" lon="13.584825983271003">
        <ele>76.63</ele>
        <time>2025-02-22T12:01:56.205Z</time>
      </trkpt>
      <trkpt lat="59.39988593570888" lon="13.584635965526104">
        <ele>76.49</ele>
        <time>2025-02-22T12:03:01.015Z</time>
      </trkpt>
      <trkpt lat="59.39986095763743" lon="13.584445947781205">
        <ele>76.35</ele>
        <time>2025-02-22T12:04:05.827Z</time>
      </trkpt>
      <trkpt lat="59.39983597956598" lon="13.584254924207926">
        <ele>76.22</ele>
        <time>2025-02-22T12:05:10.640Z</time>
      </trkpt>
      <trkpt lat="59.399810917675495" lon="13.584067923948169">
        <ele>76.09</ele>
        <time>2025-02-22T12:06:15.455Z</time>
      </trkpt>
      <trkpt lat="59.39978493377566" lon="13.583879917860031">
        <ele>75.98</ele>
        <time>2025-02-22T12:07:20.271Z</time>
      </trkpt>
      <trkpt lat="59.399762973189354" lon="13.583696940913796">
        <ele>75.86</ele>
        <time>2025-02-22T12:08:25.089Z</time>
      </trkpt>
      <trkpt lat="59.39974193461239" lon="13.583516981452703">
        <ele>75.75</ele>
        <time>2025-02-22T12:09:29.908Z</time>
      </trkpt>
      <trkpt lat="59.39971796236932" lon="13.58333794400096">
        <ele>75.64</ele>
        <time>2025-02-22T12:10:34.729Z</time>
      </trkpt>
      <trkpt lat="59.39969692379236" lon="13.583162929862738">
        <ele>75.54</ele>
        <time>2025-02-22T12:11:39.551Z</time>
      </trkpt>
      <trkpt lat="59.39967395737767" lon="13.582988921552896">
        <ele>75.44</ele>
        <time>2025-02-22T12:12:44.375Z</time>
      </trkpt>
      <trkpt lat="59.39965199679136" lon="13.582818936556578">
        <ele>75.34</ele>
        <time>2025-02-22T12:13:49.200Z</time>
      </trkpt>
      <trkpt lat="59.399634981527925" lon="13.5826519690454">
        <ele>75.25</ele>
        <time>2025-02-22T12:14:54.027Z</time>
      </trkpt>
      <trkpt lat="59.39961897209287" lon="13.582490952685475">
        <ele>75.17</ele>
        <time>2025-02-22T12:15:58.855Z</time>
      </trkpt>
      <trkpt lat="59.399616960436106" lon="13.582326918840408">
        <ele>75.09</ele>
        <time>2025-02-22T12:17:03.684Z</time>
      </trkpt>
      <trkpt lat="59.39963196404278" lon="13.582168919965625">
        <ele>75.01</ele>
        <time>2025-02-22T12:18:08.515Z</time>
      </trkpt>
      <trkpt lat="59.39967093989253" lon="13.58202994801104">
        <ele>74.94</ele>
        <time>2025-02-22T12:19:13.347Z</time>
      </trkpt>
      <trkpt lat="59.399723997339606" lon="13.581916959956288">
        <ele>74.88</ele>
        <time>2025-02-22T12:20:18.180Z</time>
      </trkpt>
      <trkpt lat="59.39978493377566" lon="13.581825932487845">
        <ele>74.83</ele>
        <time>2025-02-22T12:21:23.014Z</time>
      </trkpt>
      <trkpt lat="59.39984695985913" lon="13.581753931939602">
        <ele>74.78</ele>
        <time>2025-02-22T12:22:27.850Z</time>
      </trkpt>
      <trkpt lat="59.39991099759936" lon="13.581697940826416">
        <ele>74.73</ele>
        <time>2025-02-22T12:23:32.687Z</time>
      </trkpt>
      <trkpt lat="59.3999729398638" lon="13.581655947491527">
        <ele>74.7</ele>
        <time>2025-02-22T12:24:37.525Z</time>
      </trkpt>
      <trkpt lat="59.40003396011889" lon="13.581616971641779">
        <ele>74.67</ele>
        <time>2025-02-22T12:25:42.364Z</time>
      </trkpt>
      <trkpt lat="59.40009196288884" lon="13.581567937508225">
        <ele>74.65</ele>
        <time>2025-02-22T12:26:47.204Z</time>
      </trkpt>
      <trkpt lat="59.40013596788049" lon="13.581498954445124">
        <ele>74.64</ele>
        <time>2025-02-22T12:27:52.045Z</time>
      </trkpt>
      <trkpt lat="59.40016698092222" lon="13.581416979432106">
        <ele>74.63</ele>
        <time>2025-02-22T12:28:56.887Z</time>
      </trkpt>
      <trkpt lat="59.40018592402339" lon="13.58131798915565">
        <ele>74.63</ele>
        <time>2025-02-22T12:30:01.729Z</time>
      </trkpt>
      <trkpt lat="59.400193970650434" lon="13.581213969737291">
        <ele>74.63</ele>
        <time>2025-02-22T12:31:06.572Z</time>
      </trkpt>
      <trkpt lat="59.40018994733691" lon="13.581107938662171">
        <ele>74.64</ele>
        <time>2025-02-22T12:32:11.416Z</time>
      </trkpt>
      <trkpt lat="59.400173937901855" lon="13.581005930900574">
        <ele>74.66</ele>
        <time>2025-02-22T12:33:16.261Z</time>
      </trkpt>
      <trkpt lat="59.40014795400202" lon="13.580912975594401">
        <ele>74.67</ele>
        <time>2025-02-22T12:34:21.107Z</time>
      </trkpt>
      <trkpt lat="59.40011199563742" lon="13.580828988924623">
        <ele>74.69</ele>
        <time>2025-02-22T12:35:25.954Z</time>
      </trkpt>
      <trkpt lat="59.400070924311876" lon="13.580755982547998">
        <ele>74.71</ele>
        <time>2025-02-22T12:36:30.802Z</time>
      </trkpt>
      <trkpt lat="59.400026919320226" lon="13.580692950636148">
        <ele>74.73</ele>
        <time>2025-02-22T12:37:35.651Z</time>
      </trkpt>
      <trkpt lat="59.3999869376421" lon="13.58063193038106">
        <ele>74.76</ele>
        <time>2025-02-22T12:38:40.500Z</time>
      </trkpt>
      <trkpt lat="59.39994695596397" lon="13.580568982288241">
        <ele>74.8</ele>
        <time>2025-02-22T12:39:45.350Z</time>
      </trkpt>
      <trkpt lat="59.3999089859426" lon="13.58050393871963">
        <ele>74.84</ele>
        <time>2025-02-22T12:40:50.201Z</time>
      </trkpt>
      <trkpt lat="59.39986992627382" lon="13.580431938171387">
        <ele>74.89</ele>
        <time>2025-02-22T12:41:55.053Z</time>
      </trkpt>
      <trkpt lat="59.399830950424075" lon="13.580356920138001">
        <ele>74.94</ele>
        <time>2025-02-22T12:42:59.906Z</time>
      </trkpt>
      <trkpt lat="59.39979398623109" lon="13.580276956781745">
        <ele>75.0</ele>
        <time>2025-02-22T12:44:04.760Z</time>
      </trkpt>
      <trkpt lat="59.39975794404745" lon="13.580195987597108">
        <ele>75.06</ele>
        <time>2025-02-22T12:45:09.614Z</time>
      </trkpt>
      <trkpt lat="59.399721985682845" lon="13.58011594042182">
        <ele>75.13</ele>
        <time>2025-02-22T12:46:14.469Z</time>
      </trkpt>
      <trkpt lat="59.39969197846949" lon="13.580033965408802">
        <ele>75.2</ele>
        <time>2025-02-22T12:47:19.325Z</time>
      </trkpt>
      <trkpt lat="59.399658953770995" lon="13.579957941547036">
        <ele>75.28</ele>
        <time>2025-02-22T12:48:24.182Z</time>
      </trkpt>
      <trkpt lat="59.3996309582144" lon="13.579884935170412">
        <ele>75.36</ele>
        <time>2025-02-22T12:49:29.040Z</time>
      </trkpt>
      <trkpt lat="59.39960698597133" lon="13.579812934622169">
        <ele>75.44</ele>
        <time>2025-02-22T12:50:33.898Z</time>
      </trkpt>
      <trkpt lat="59.39958091825247" lon="13.579753926023841">
        <ele>75.53</ele>
        <time>2025-02-22T12:51:38.757Z</time>
      </trkpt>
      <trkpt lat="59.39955594018102" lon="13.579695923253894">
        <ele>75.62</ele>
        <time>2025-02-22T12:52:43.617Z</time>
      </trkpt>
      <trkpt lat="59.399531967937946" lon="13.579633980989456">
        <ele>75.71</ele>
        <time>2025-02-22T12:53:48.477Z</time>
      </trkpt>
      <trkpt lat="59.399506989866495" lon="13.579570949077606">
        <ele>75.81</ele>
        <time>2025-02-22T12:54:53.338Z</time>
      </trkpt>
      <trkpt lat="59.39948293380439" lon="13.579509928822517">
        <ele>75.91</ele>
        <time>2025-02-22T12:55:58.200Z</time>
      </trkpt>
      <trkpt lat="59.3994599673897" lon="13.579452931880951">
        <ele>76.01</ele>
        <time>2025-02-22T12:57:03.062Z</time>
      </trkpt>
      <trkpt lat="59.39943691715598" lon="13.579389983788133">
        <ele>76.12</ele>
        <time>2025-02-22T12:58:07.925Z</time>
      </trkpt>
      <trkpt lat="59.39941596239805" lon="13.57932292856276">
        <ele>76.23</ele>
        <time>2025-02-22T12:59:12.789Z</time>
      </trkpt>
      <trkpt lat="59.39938897266984" lon="13.579263919964433">
        <ele>76.34</ele>
        <time>2025-02-22T13:00:17.653Z</time>
      </trkpt>
      <trkpt lat="59.399359971284866" lon="13.579207928851247">
        <ele>76.45</ele>
        <time>2025-02-22T13:01:22.518Z</time>
      </trkpt>
      <trkpt lat="59.399335999041796" lon="13.579141963273287">
        <ele>76.58</ele>
        <time>2025-02-22T13:02:27.383Z</time>
      </trkpt>
      <trkpt lat="59.39930599182844" lon="13.579085972160101">
        <ele>76.7</ele>
        <time>2025-02-22T13:03:32.249Z</time>
      </trkpt>
      <trkpt lat="59.39927799627185" lon="13.579028975218534">
        <ele>76.82</ele>
        <time>2025-02-22T13:04:37.116Z</time>
      </trkpt>
      <trkpt lat="59.399248994886875" lon="13.578969966620207">
        <ele>76.95</ele>
        <time>2025-02-22T13:05:41.983Z</time>
      </trkpt>
      <trkpt lat="59.39921697601676" lon="13.57891296967864">
        <ele>77.09</ele>
        <time>2025-02-22T13:06:46.851Z</time>
      </trkpt>
      <trkpt lat="59.399185962975025" lon="13.578854966908693">
        <ele>77.22</ele>
        <time>2025-02-22T13:07:51.720Z</time>
      </trkpt>
      <trkpt lat="59.39915696159005" lon="13.578791934996843">
        <ele>77.36</ele>
        <time>2025-02-22T13:08:56.590Z</time>
      </trkpt>
      <trkpt lat="59.39912997186184" lon="13.578728986904025">
        <ele>77.5</ele>
        <time>2025-02-22T13:10:01.460Z</time>
      </trkpt>
      <trkpt lat="59.39910499379039" lon="13.578660925850272">
        <ele>77.64</ele>
        <time>2025-02-22T13:11:06.331Z</time>
      </trkpt>
      <trkpt lat="59.399075992405415" lon="13.57859194278717">
        <ele>77.78</ele>
        <time>2025-02-22T13:12:11.203Z</time>
      </trkpt>
      <trkpt lat="59.39904799684882" lon="13.578521953895688">
        <ele>77.92</ele>
        <time>2025-02-22T13:13:16.075Z</time>
      </trkpt>
      <trkpt lat="59.39902092330158" lon="13.578458921983838">
        <ele>78.07</ele>
        <time>2025-02-22T13:14:20.948Z</time>
      </trkpt>
      <trkpt lat="59.398994939401746" lon="13.57839496806264">
        <ele>78.22</ele>
        <time>2025-02-22T13:15:25.822Z</time>
      </trkpt>
      <trkpt lat="59.398968955501914" lon="13.57833294197917">
        <ele>78.37</ele>
        <time>2025-02-22T13:16:30.696Z</time>
      </trkpt>
      <trkpt lat="59.39894297160208" lon="13.578264964744449">
        <ele>78.52</ele>
        <time>2025-02-22T13:17:35.571Z</time>
      </trkpt>
      <trkpt lat="59.39891899935901" lon="13.578199921175838">
        <ele>78.67</ele>
        <time>2025-02-22T13:18:40.447Z</time>
      </trkpt>
      <trkpt lat="59.39889393746853" lon="13.578127920627594">
        <ele>78.83</ele>
        <time>2025-02-22T13:19:45.323Z</time>
      </trkpt>
      <trkpt lat="59.39886895939708" lon="13.57805298641324">
        <ele>78.99</ele>
        <time>2025-02-22T13:20:50.200Z</time>
      </trkpt>
      <trkpt lat="59.39884498715401" lon="13.577975956723094">
        <ele>79.15</ele>
        <time>2025-02-22T13:21:55.078Z</time>
      </trkpt>
      <trkpt lat="59.398819925263524" lon="13.577890964224935">
        <ele>79.32</ele>
        <time>2025-02-22T13:22:59.957Z</time>
      </trkpt>
      <trkpt lat="59.39879595302045" lon="13.577800942584872">
        <ele>79.48</ele>
        <time>2025-02-22T13:24:04.837Z</time>
      </trkpt>
      <trkpt lat="59.398770974949" lon="13.57771192677319">
        <ele>79.65</ele>
        <time>2025-02-22T13:25:09.717Z</time>
      </trkpt>
      <trkpt lat="59.3987469188869" lon="13.57762198895216">
        <ele>79.81</ele>
        <time>2025-02-22T13:26:14.598Z</time>
      </trkpt>
      <trkpt lat="59.39872898161411" lon="13.577525932341814">
        <ele>79.98</ele>
        <time>2025-02-22T13:27:19.480Z</time>
      </trkpt>
      <trkpt lat="59.39870995469391" lon="13.577433982864022">
        <ele>80.15</ele>
        <time>2025-02-22T13:28:24.363Z</time>
      </trkpt>
      <trkpt lat="59.398690927773714" lon="13.577330969274044">
        <ele>80.31</ele>
        <time>2025-02-22T13:29:29.247Z</time>
      </trkpt>
      <trkpt lat="59.398667961359024" lon="13.57723399065435">
        <ele>80.48</ele>
        <time>2025-02-22T13:30:34.132Z</time>
      </trkpt>
      <trkpt lat="59.398650946095586" lon="13.577135922387242">
        <ele>80.65</ele>
        <time>2025-02-22T13:31:39.017Z</time>
      </trkpt>
      <trkpt lat="59.39863795414567" lon="13.577029975131154">
        <ele>80.82</ele>
        <time>2025-02-22T13:32:43.903Z</time>
      </trkpt>
      <trkpt lat="59.398627979680896" lon="13.576917992904782">
        <ele>80.99</ele>
        <time>2025-02-22T13:33:48.790Z</time>
      </trkpt>
      <trkpt lat="59.39861892722547" lon="13.57680693268776">
        <ele>81.16</ele>
        <time>2025-02-22T13:34:53.678Z</time>
      </trkpt>
      <trkpt lat="59.398607946932316" lon="13.57669897377491">
        <ele>81.32</ele>
        <time>2025-02-22T13:35:58.567Z</time>
      </trkpt>
      <trkpt lat="59.398601995781064" lon="13.576584979891777">
        <ele>81.49</ele>
        <time>2025-02-22T13:37:03.457Z</time>
      </trkpt>
      <trkpt lat="59.398601995781064" lon="13.576466962695122">
        <ele>81.66</ele>
        <time>2025-02-22T13:38:08.348Z</time>
      </trkpt>
      <trkpt lat="59.39860392361879" lon="13.576344922184944">
        <ele>81.82</ele>
        <time>2025-02-22T13:39:13.240Z</time>
      </trkpt>
      <trkpt lat="59.39861599355936" lon="13.576217936351895">
        <ele>81.98</ele>
        <time>2025-02-22T13:40:18.133Z</time>
      </trkpt>
      <trkpt lat="59.398631919175386" lon="13.576089944690466">
        <ele>82.14</ele>
        <time>2025-02-22T13:41:23.027Z</time>
      </trkpt>
      <trkpt lat="59.39864692278206" lon="13.575959941372275">
        <ele>82.31</ele>
        <time>2025-02-22T13:42:27.922Z</time>
      </trkpt>
      <trkpt lat="59.39865999855101" lon="13.575833961367607">
        <ele>82.46</ele>
        <time>2025-02-22T13:43:32.818Z</time>
      </trkpt>
      <trkpt lat="59.39867894165218" lon="13.575707981362939">
        <ele>82.63</ele>
        <time>2025-02-22T13:44:37.715Z</time>
      </trkpt>
      <trkpt lat="59.39869796857238" lon="13.57558493502438">
        <ele>82.79</ele>
        <time>2025-02-22T13:45:42.613Z</time>
      </trkpt>
      <trkpt lat="59.39871699549258" lon="13.575466917827725">
        <ele>82.95</ele>
        <time>2025-02-22T13:46:47.512Z</time>
      </trkpt>
      <trkpt lat="59.39873895607889" lon="13.575348984450102">
        <ele>83.11</ele>
        <time>2025-02-22T13:47:52.412Z</time>
      </trkpt>
      <trkpt lat="59.39876192249358" lon="13.575230967253447">
        <ele>83.27</ele>
        <time>2025-02-22T13:48:57.313Z</time>
      </trkpt>
      <trkpt lat="59.39878799021244" lon="13.575113955885172">
        <ele>83.43</ele>
        <time>2025-02-22T13:50:02.216Z</time>
      </trkpt>
      <trkpt lat="59.39881397411227" lon="13.5750019736588">
        <ele>83.59</ele>
        <time>2025-02-22T13:51:07.120Z</time>
      </trkpt>
      <trkpt lat="59.39883694052696" lon="13.57489694841206">
        <ele>83.76</ele>
        <time>2025-02-22T13:52:12.024Z</time>
      </trkpt>
      <trkpt lat="59.398860996589065" lon="13.574793934822083">
        <ele>83.92</ele>
        <time>2025-02-22T13:53:16.929Z</time>
      </trkpt>
      <trkpt lat="59.398882957175374" lon="13.574691927060485">
        <ele>84.08</ele>
        <time>2025-02-22T13:54:21.835Z</time>
      </trkpt>
      <trkpt lat="59.398905923590064" lon="13.574580950662494">
        <ele>84.24</ele>
        <time>2025-02-22T13:55:26.742Z</time>
      </trkpt>
      <trkpt lat="59.39893098548055" lon="13.574467962607741">
        <ele>84.4</ele>
        <time>2025-02-22T13:56:31.650Z</time>
      </trkpt>
      <trkpt lat="59.398952946066856" lon="13.574361931532621">
        <ele>84.56</ele>
        <time>2025-02-22T13:57:36.559Z</time>
      </trkpt>
      <trkpt lat="59.39897691830993" lon="13.574258917942643">
        <ele>84.72</ele>
        <time>2025-02-22T13:58:41.469Z</time>
      </trkpt>
      <trkpt lat="59.39900097437203" lon="13.574154982343316">
        <ele>84.87</ele>
        <time>2025-02-22T13:59:46.380Z</time>
      </trkpt>
      <trkpt lat="59.39902092330158" lon="13.574047945439816">
        <ele>85.03</ele>
        <time>2025-02-22T14:00:51.292Z</time>
      </trkpt>
      <trkpt lat="59.399036932736635" lon="13.573946943506598">
        <ele>85.19</ele>
        <time>2025-02-22T14:01:56.205Z</time>
      </trkpt>
      <trkpt lat="59.39905093051493" lon="13.573846947401762">
        <ele>85.35</ele>
        <time>2025-02-22T14:03:01.119Z</time>
      </trkpt>
      <trkpt lat="59.39906199462712" lon="13.573751980438828">
        <ele>85.5</ele>
        <time>2025-02-22T14:04:06.034Z</time>
      </trkpt>
      <trkpt lat="59.399074986577034" lon="13.573655923828483">
        <ele>85.66</ele>
        <time>2025-02-22T14:05:10.949Z</time>
      </trkpt>
      <trkpt lat="59.39908294938505" lon="13.573559951037169">
        <ele>85.81</ele>
        <time>2025-02-22T14:06:15.865Z</time>
      </trkpt>
      <trkpt lat="59.3990939296782" lon="13.573468923568726">
        <ele>85.95</ele>
        <time>2025-02-22T14:07:20.782Z</time>
      </trkpt>
      <trkpt lat="59.39910398796201" lon="13.573374962434173">
        <ele>86.1</ele>
        <time>2025-02-22T14:08:25.700Z</time>
      </trkpt>
      <trkpt lat="59.3991129565984" lon="13.573286952450871">
        <ele>86.24</ele>
        <time>2025-02-22T14:09:30.618Z</time>
      </trkpt>
      <trkpt lat="59.399120919406414" lon="13.573195924982429">
        <ele>86.39</ele>
        <time>2025-02-22T14:10:35.537Z</time>
      </trkpt>
      <trkpt lat="59.39912997186184" lon="13.573099952191114">
        <ele>86.53</ele>
        <time>2025-02-22T14:11:40.457Z</time>
      </trkpt>
      <trkpt lat="59.39913692884147" lon="13.573008924722672">
        <ele>86.67</ele>
        <time>2025-02-22T14:12:45.378Z</time>
      </trkpt>
      <trkpt lat="59.399143969640136" lon="13.572908928617835">
        <ele>86.81</ele>
        <time>2025-02-22T14:13:50.300Z</time>
      </trkpt>
      <trkpt lat="59.39914899878204" lon="13.572817984968424">
        <ele>86.95</ele>
        <time>2025-02-22T14:14:55.222Z</time>
      </trkpt>
      <trkpt lat="59.39915494993329" lon="13.572729974985123">
        <ele>87.08</ele>
        <time>2025-02-22T14:16:00.145Z</time>
      </trkpt>
      <trkpt lat="59.399160984903574" lon="13.572644982486963">
        <ele>87.22</ele>
        <time>2025-02-22T14:17:05.069Z</time>
      </trkpt>
      <trkpt lat="59.399166936054826" lon="13.572547920048237">
        <ele>87.35</ele>
        <time>2025-02-22T14:18:09.994Z</time>
      </trkpt>
      <trkpt lat="59.399167941883206" lon="13.572451947256923">
        <ele>87.48</ele>
        <time>2025-02-22T14:19:14.919Z</time>
      </trkpt>
      <trkpt lat="59.39916894771159" lon="13.572355974465609">
        <ele>87.61</ele>
        <time>2025-02-22T14:20:19.845Z</time>
      </trkpt>
      <trkpt lat="59.39917196519673" lon="13.572264946997166">
        <ele>87.74</ele>
        <time>2025-02-22T14:21:24.772Z</time>
      </trkpt>
      <trkpt lat="59.39917992800474" lon="13.572173919528723">
        <ele>87.87</ele>
        <time>2025-02-22T14:22:29.700Z</time>
      </trkpt>
      <trkpt lat="59.39918998628855" lon="13.572084987536073">
        <ele>87.99</ele>
        <time>2025-02-22T14:23:34.628Z</time>
      </trkpt>
      <trkpt lat="59.39919392578304" lon="13.571995971724391">
        <ele>88.12</ele>
        <time>2025-02-22T14:24:39.557Z</time>
      </trkpt>
      <trkpt lat="59.3992009665817" lon="13.571893963962793">
        <ele>88.24</ele>
        <time>2025-02-22T14:25:44.487Z</time>
      </trkpt>
      <trkpt lat="59.39920197241008" lon="13.571794973686337">
        <ele>88.36</ele>
        <time>2025-02-22T14:26:49.418Z</time>
      </trkpt>
      <trkpt lat="59.39920197241008" lon="13.571689948439598">
        <ele>88.48</ele>
        <time>2025-02-22T14:27:54.350Z</time>
      </trkpt>
      <trkpt lat="59.399204989895225" lon="13.571583917364478">
        <ele>88.59</ele>
        <time>2025-02-22T14:28:59.282Z</time>
      </trkpt>
      <trkpt lat="59.399208929389715" lon="13.571481993421912">
        <ele>88.71</ele>
        <time>2025-02-22T14:30:04.215Z</time>
      </trkpt>
      <trkpt lat="59.39921597018838" lon="13.571376968175173">
        <ele>88.82</ele>
        <time>2025-02-22T14:31:09.149Z</time>
      </trkpt>
      <trkpt lat="59.39922292716801" lon="13.571278983727098">
        <ele>88.93</ele>
        <time>2025-02-22T14:32:14.084Z</time>
      </trkpt>
      <trkpt lat="59.399229967966676" lon="13.571174964308739">
        <ele>89.03</ele>
        <time>2025-02-22T14:33:19.020Z</time>
      </trkpt>
      <trkpt lat="59.3992339912802" lon="13.571069939062">
        <ele>89.14</ele>
        <time>2025-02-22T14:34:23.957Z</time>
      </trkpt>
      <trkpt lat="59.39923692494631" lon="13.570970948785543">
        <ele>89.24</ele>
        <time>2025-02-22T14:35:28.894Z</time>
      </trkpt>
      <trkpt lat="59.39923893660307" lon="13.570868941023946">
        <ele>89.34</ele>
        <time>2025-02-22T14:36:33.832Z</time>
      </trkpt>
      <trkpt lat="59.39924195408821" lon="13.57076894491911">
        <ele>89.44</ele>
        <time>2025-02-22T14:37:38.771Z</time>
      </trkpt>
      <trkpt lat="59.399247989058495" lon="13.570662997663021">
        <ele>89.53</ele>
        <time>2025-02-22T14:38:43.711Z</time>
      </trkpt>
      <trkpt lat="59.399253940209746" lon="13.57055495493114">
        <ele>89.62</ele>
        <time>2025-02-22T14:39:48.652Z</time>
      </trkpt>
      <trkpt lat="59.39926299266517" lon="13.570435931906104">
        <ele>89.71</ele>
        <time>2025-02-22T14:40:53.594Z</time>
      </trkpt>
      <trkpt lat="59.399269949644804" lon="13.570324955508113">
        <ele>89.79</ele>
        <time>2025-02-22T14:41:58.537Z</time>
      </trkpt>
      <trkpt lat="59.39927992410958" lon="13.570214984938502">
        <ele>89.88</ele>
        <time>2025-02-22T14:43:03.481Z</time>
      </trkpt>
      <trkpt lat="59.399289982393384" lon="13.570095961913466">
        <ele>89.96</ele>
        <time>2025-02-22T14:44:08.426Z</time>
      </trkpt>
      <trkpt lat="59.3992979452014" lon="13.569973921403289">
        <ele>90.04</ele>
        <time>2025-02-22T14:45:13.372Z</time>
      </trkpt>
      <trkpt lat="59.39931194297969" lon="13.569850958883762">
        <ele>90.12</ele>
        <time>2025-02-22T14:46:18.319Z</time>
      </trkpt>
      <trkpt lat="59.39932795241475" lon="13.569721961393952">
        <ele>90.19</ele>
        <time>2025-02-22T14:47:23.267Z</time>
      </trkpt>
      <trkpt lat="59.39934195019305" lon="13.569593969732523">
        <ele>90.26</ele>
        <time>2025-02-22T14:48:28.216Z</time>
      </trkpt>
      <trkpt lat="59.399355947971344" lon="13.569462960585952">
        <ele>90.33</ele>
        <time>2025-02-22T14:49:33.166Z</time>
      </trkpt>
      <trkpt lat="59.39937396906316" lon="13.569333963096142">
        <ele>90.39</ele>
        <time>2025-02-22T14:50:38.117Z</time>
      </trkpt>
      <trkpt lat="59.39939199015498" lon="13.569206977263093">
        <ele>90.45</ele>
        <time>2025-02-22T14:51:43.069Z</time>
      </trkpt>
      <trkpt lat="59.39940799959004" lon="13.569074962288141">
        <ele>90.51</ele>
        <time>2025-02-22T14:52:48.022Z</time>
      </trkpt>
      <trkpt lat="59.39942694269121" lon="13.568947976455092">
        <ele>90.57</ele>
        <time>2025-02-22T14:53:52.976Z</time>
      </trkpt>
      <trkpt lat="59.399444963783026" lon="13.568812943994999">
        <ele>90.62</ele>
        <time>2025-02-22T14:54:57.931Z</time>
      </trkpt>
      <trkpt lat="59.399464996531606" lon="13.568680929020047">
        <ele>90.68</ele>
        <time>2025-02-22T14:56:02.888Z</time>
      </trkpt>
      <trkpt lat="59.399486957117915" lon="13.568546986207366">
        <ele>90.74</ele>
        <time>2025-02-22T14:57:07.846Z</time>
      </trkpt>
      <trkpt lat="59.399509923532605" lon="13.56840793043375">
        <ele>90.79</ele>
        <time>2025-02-22T14:58:12.805Z</time>
      </trkpt>
      <trkpt lat="59.39953397959471" lon="13.568265940994024">
        <ele>90.85</ele>
        <time>2025-02-22T14:59:17.765Z</time>
      </trkpt>
      <trkpt lat="59.3995569460094" lon="13.568121939897537">
        <ele>90.9</ele>
        <time>2025-02-22T15:00:22.726Z</time>
      </trkpt>
      <trkpt lat="59.39957798458636" lon="13.567985985428095">
        <ele>90.95</ele>
        <time>2025-02-22T15:01:27.689Z</time>
      </trkpt>
      <trkpt lat="59.39960195682943" lon="13.56784994713962">
        <ele>90.99</ele>
        <time>2025-02-22T15:02:32.653Z</time>
      </trkpt>
      <trkpt lat="59.39962492324412" lon="13.567703934386373">
        <ele>91.04</ele>
        <time>2025-02-22T15:03:37.618Z</time>
      </trkpt>
      <trkpt lat="59.3996499851346" lon="13.567565968260169">
        <ele>91.08</ele>
        <time>2025-02-22T15:04:42.584Z</time>
      </trkpt>
      <trkpt lat="59.39967596903443" lon="13.567429929971695">
        <ele>91.12</ele>
        <time>2025-02-22T15:05:47.551Z</time>
      </trkpt>
      <trkpt lat="59.39969893544912" lon="13.567296992987394">
        <ele>91.15</ele>
        <time>2025-02-22T15:06:52.520Z</time>
      </trkpt>
      <trkpt lat="59.3997189681977" lon="13.56715994887054">
        <ele>91.19</ele>
        <time>2025-02-22T15:07:57.490Z</time>
      </trkpt>
      <trkpt lat="59.399742940440774" lon="13.567021982744336">
        <ele>91.23</ele>
        <time>2025-02-22T15:09:02.461Z</time>
      </trkpt>
      <trkpt lat="59.399769930168986" lon="13.5668839327991">
        <ele>91.26</ele>
        <time>2025-02-22T15:10:07.433Z</time>
      </trkpt>
      <trkpt lat="59.39979792572558" lon="13.566742949187756">
        <ele>91.29</ele>
        <time>2025-02-22T15:11:12.406Z</time>
      </trkpt>
      <trkpt lat="59.39982499927282" lon="13.56659995391965">
        <ele>91.32</ele>
        <time>2025-02-22T15:12:17.381Z</time>
      </trkpt>
      <trkpt lat="59.39985794015229" lon="13.56645192950964">
        <ele>91.35</ele>
        <time>2025-02-22T15:13:22.357Z</time>
      </trkpt>
      <trkpt lat="59.3998899590224" lon="13.566295942291617">
        <ele>91.38</ele>
        <time>2025-02-22T15:14:27.334Z</time>
      </trkpt>
      <trkpt lat="59.3999229837209" lon="13.566141966730356">
        <ele>91.4</ele>
        <time>2025-02-22T15:15:32.313Z</time>
      </trkpt>
      <trkpt lat="59.39995299093425" lon="13.565985979512334">
        <ele>91.43</ele>
        <time>2025-02-22T15:16:37.293Z</time>
      </trkpt>
      <trkpt lat="59.399980986490846" lon="13.565829992294312">
        <ele>91.45</ele>
        <time>2025-02-22T15:17:42.274Z</time>
      </trkpt>
      <trkpt lat="59.40000697039068" lon="13.565672999247909">
        <ele>91.46</ele>
        <time>2025-02-22T15:18:47.257Z</time>
      </trkpt>
      <trkpt lat="59.40003396011889" lon="13.565515922382474">
        <ele>91.47</ele>
        <time>2025-02-22T15:19:52.241Z</time>
      </trkpt>
      <trkpt lat="59.40006195567548" lon="13.565355995669961">
        <ele>91.49</ele>
        <time>2025-02-22T15:20:57.226Z</time>
      </trkpt>
      <trkpt lat="59.40009196288884" lon="13.565195985138416">
        <ele>91.49</ele>
        <time>2025-02-22T15:22:02.213Z</time>
      </trkpt>
      <trkpt lat="59.40011895261705" lon="13.565038992092013">
        <ele>91.5</ele>
        <time>2025-02-22T15:23:07.201Z</time>
      </trkpt>
      <trkpt lat="59.40014795400202" lon="13.56488292105496">
        <ele>91.49</ele>
        <time>2025-02-22T15:24:12.191Z</time>
      </trkpt>
      <trkpt lat="59.40017796121538" lon="13.564726933836937">
        <ele>91.49</ele>
        <time>2025-02-22T15:25:17.182Z</time>
      </trkpt>
      <trkpt lat="59.40020796842873" lon="13.564569940790534">
        <ele>91.48</ele>
        <time>2025-02-22T15:26:22.174Z</time>
      </trkpt>
      <trkpt lat="59.400236969813704" lon="13.564416971057653">
        <ele>91.48</ele>
        <time>2025-02-22T15:27:27.168Z</time>
      </trkpt>
      <trkpt lat="59.4002649653703" lon="13.56425997801125">
        <ele>91.47</ele>
        <time>2025-02-22T15:28:32.163Z</time>
      </trkpt>
      <trkpt lat="59.40029698424041" lon="13.564097955822945">
        <ele>91.45</ele>
        <time>2025-02-22T15:29:37.159Z</time>
      </trkpt>
      <trkpt lat="59.4003339484334" lon="13.563935933634639">
        <ele>91.44</ele>
        <time>2025-02-22T15:30:42.157Z</time>
      </trkpt>
      <trkpt lat="59.40037393011153" lon="13.563776928931475">
        <ele>91.43</ele>
        <time>2025-02-22T15:31:47.156Z</time>
      </trkpt>
      <trkpt lat="59.40042095258832" lon="13.56361792422831">
        <ele>91.41</ele>
        <time>2025-02-22T15:32:52.157Z</time>
      </trkpt>
      <trkpt lat="59.40046797506511" lon="13.563469983637333">
        <ele>91.4</ele>
        <time>2025-02-22T15:33:57.159Z</time>
      </trkpt>
      <trkpt lat="59.400516925379634" lon="13.563326988369226">
        <ele>91.38</ele>
        <time>2025-02-22T15:35:02.163Z</time>
      </trkpt>
      <trkpt lat="59.40056998282671" lon="13.563188938423991">
        <ele>91.36</ele>
        <time>2025-02-22T15:36:07.168Z</time>
      </trkpt>
      <trkpt lat="59.40063192509115" lon="13.563067987561226">
        <ele>91.34</ele>
        <time>2025-02-22T15:37:12.174Z</time>
      </trkpt>
      <trkpt lat="59.400692945346236" lon="13.562954999506474">
        <ele>91.31</ele>
        <time>2025-02-22T15:38:17.182Z</time>
      </trkpt>
      <trkpt lat="59.400755977258086" lon="13.562851985916495">
        <ele>91.28</ele>
        <time>2025-02-22T15:39:22.191Z</time>
      </trkpt>
      <trkpt lat="59.40082395449281" lon="13.562759952619672">
        <ele>91.26</ele>
        <time>2025-02-22T15:40:27.201Z</time>
      </trkpt>
      <trkpt lat="59.40089997835457" lon="13.562678983435035">
        <ele>91.23</ele>
        <time>2025-02-22T15:41:32.213Z</time>
      </trkpt>
      <trkpt lat="59.40097793005407" lon="13.562608994543552">
        <ele>91.19</ele>
        <time>2025-02-22T15:42:37.226Z</time>
      </trkpt>
      <trkpt lat="59.401053953915834" lon="13.562550991773605">
        <ele>91.16</ele>
        <time>2025-02-22T15:43:42.241Z</time>
      </trkpt>
      <trkpt lat="59.40113391727209" lon="13.562500951811671">
        <ele>91.12</ele>
        <time>2025-02-22T15:44:47.257Z</time>
      </trkpt>
      <trkpt lat="59.40121698193252" lon="13.562457952648401">
        <ele>91.08</ele>
        <time>2025-02-22T15:45:52.274Z</time>
      </trkpt>
      <trkpt lat="59.40129795111716" lon="13.562429957091808">
        <ele>91.05</ele>
        <time>2025-02-22T15:46:57.293Z</time>
      </trkpt>
      <trkpt lat="59.401379926130176" lon="13.56241193599999">
        <ele>91.01</ele>
        <time>2025-02-22T15:48:02.313Z</time>
      </trkpt>
      <trkpt lat="59.401461984962225" lon="13.562396932393312">
        <ele>90.96</ele>
        <time>2025-02-22T15:49:07.334Z</time>
      </trkpt>
      <trkpt lat="59.40154395997524" lon="13.562398944050074">
        <ele>90.92</ele>
        <time>2025-02-22T15:50:12.357Z</time>
      </trkpt>
      <trkpt lat="59.40162694081664" lon="13.562400955706835">
        <ele>90.87</ele>
        <time>2025-02-22T15:51:17.381Z</time>
      </trkpt>
      <trkpt lat="59.40170698799193" lon="13.562408918514848">
        <ele>90.82</ele>
        <time>2025-02-22T15:52:22.406Z</time>
      </trkpt>
      <trkpt lat="59.401783933863044" lon="13.562415959313512">
        <ele>90.78</ele>
        <time>2025-02-22T15:53:27.432Z</time>
      </trkpt>
      <trkpt lat="59.40186096355319" lon="13.562429957091808">
        <ele>90.73</ele>
        <time>2025-02-22T15:54:32.460Z</time>
      </trkpt>
      <trkpt lat="59.401939921081066" lon="13.562447978183627">
        <ele>90.67</ele>
        <time>2025-02-22T15:55:37.489Z</time>
      </trkpt>
      <trkpt lat="59.40201493911445" lon="13.56247597374022">
        <ele>90.61</ele>
        <time>2025-02-22T15:56:42.519Z</time>
      </trkpt>
      <trkpt lat="59.40209297463298" lon="13.562506986781955">
        <ele>90.54</ele>
        <time>2025-02-22T15:57:47.550Z</time>
      </trkpt>
      <trkpt lat="59.4021659810096" lon="13.562534982338548">
        <ele>90.47</ele>
        <time>2025-02-22T15:58:52.583Z</time>
      </trkpt>
      <trkpt lat="59.402235969901085" lon="13.562566917389631">
        <ele>90.4</ele>
        <time>2025-02-22T15:59:57.617Z</time>
      </trkpt>
      <trkpt lat="59.402303947135806" lon="13.562599942088127">
        <ele>90.33</ele>
        <time>2025-02-22T16:01:02.652Z</time>
      </trkpt>
      <trkpt lat="59.40236899070442" lon="13.562631960958242">
        <ele>90.25</ele>
        <time>2025-02-22T16:02:07.688Z</time>
      </trkpt>
      <trkpt lat="59.402428921312094" lon="13.562672948464751">
        <ele>90.18</ele>
        <time>2025-02-22T16:03:12.725Z</time>
      </trkpt>
      <trkpt lat="59.40249094739556" lon="13.562708990648389">
        <ele>90.1</ele>
        <time>2025-02-22T16:04:17.763Z</time>
      </trkpt>
      <trkpt lat="59.40255096182227" lon="13.562743943184614">
        <ele>90.02</ele>
        <time>2025-02-22T16:05:22.802Z</time>
      </trkpt>
      <trkpt lat="59.40261198207736" lon="13.562779985368252">
        <ele>89.94</ele>
        <time>2025-02-22T16:06:27.842Z</time>
      </trkpt>
      <trkpt lat="59.40267199650407" lon="13.562816949561238">
        <ele>89.85</ele>
        <time>2025-02-22T16:07:32.883Z</time>
      </trkpt>
      <trkpt lat="59.402733938768506" lon="13.562855925410986">
        <ele>89.76</ele>
        <time>2025-02-22T16:08:37.925Z</time>
      </trkpt>
      <trkpt lat="59.402794959023595" lon="13.562895990908146">
        <ele>89.67</ele>
        <time>2025-02-22T16:09:42.968Z</time>
      </trkpt>
      <trkpt lat="59.402855979278684" lon="13.562936978414655">
        <ele>89.57</ele>
        <time>2025-02-22T16:10:48.012Z</time>
      </trkpt>
      <trkpt lat="59.40291993319988" lon="13.56297293677926">
        <ele>89.48</ele>
        <time>2025-02-22T16:11:53.057Z</time>
      </trkpt>
      <trkpt lat="59.402987994253635" lon="13.563005961477757">
        <ele>89.38</ele>
        <time>2025-02-22T16:12:58.103Z</time>
      </trkpt>
      <trkpt lat="59.4030589889735" lon="13.563029933720827">
        <ele>89.27</ele>
        <time>2025-02-22T16:14:03.151Z</time>
      </trkpt>
      <trkpt lat="59.40313199535012" lon="13.563052983954549">
        <ele>89.18</ele>
        <time>2025-02-22T16:15:08.200Z</time>
      </trkpt>
      <trkpt lat="59.403206929564476" lon="13.563066981732845">
        <ele>89.07</ele>
        <time>2025-02-22T16:16:13.250Z</time>
      </trkpt>
      <trkpt lat="59.40328094176948" lon="13.56307896785438">
        <ele>88.97</ele>
        <time>2025-02-22T16:17:18.301Z</time>
      </trkpt>
      <trkpt lat="59.40335696563125" lon="13.563080979511142">
        <ele>88.86</ele>
        <time>2025-02-22T16:18:23.353Z</time>
      </trkpt>
      <trkpt lat="59.40342997200787" lon="13.563080979511142">
        <ele>88.75</ele>
        <time>2025-02-22T16:19:28.406Z</time>
      </trkpt>
      <trkpt lat="59.403500966727734" lon="13.563073938712478">
        <ele>88.63</ele>
        <time>2025-02-22T16:20:33.461Z</time>
      </trkpt>
      <trkpt lat="59.4035719614476" lon="13.56305692344904">
        <ele>88.51</ele>
        <time>2025-02-22T16:21:38.517Z</time>
      </trkpt>
      <trkpt lat="59.4036459736526" lon="13.563027922064066">
        <ele>88.38</ele>
        <time>2025-02-22T16:22:43.574Z</time>
      </trkpt>
      <trkpt lat="59.4037239253521" lon="13.563003949820995">
        <ele>88.25</ele>
        <time>2025-02-22T16:23:48.632Z</time>
      </trkpt>
      <trkpt lat="59.403802966699004" lon="13.562982995063066">
        <ele>88.12</ele>
        <time>2025-02-22T16:24:53.692Z</time>
      </trkpt>
      <trkpt lat="59.4038809183985" lon="13.56296899728477">
        <ele>87.99</ele>
        <time>2025-02-22T16:25:58.753Z</time>
      </trkpt>
      <trkpt lat="59.40396197140217" lon="13.562952987849712">
        <ele>87.85</ele>
        <time>2025-02-22T16:27:03.815Z</time>
      </trkpt>
      <trkpt lat="59.40404696390033" lon="13.56292993761599">
        <ele>87.71</ele>
        <time>2025-02-22T16:28:08.878Z</time>
      </trkpt>
      <trkpt lat="59.404128938913345" lon="13.562913928180933">
        <ele>87.57</ele>
        <time>2025-02-22T16:29:13.943Z</time>
      </trkpt>
      <trkpt lat="59.40421795472503" lon="13.5629069712013">
        <ele>87.42</ele>
        <time>2025-02-22T16:30:19.009Z</time>
      </trkpt>
      <trkpt lat="59.40430495887995" lon="13.562908982858062">
        <ele>87.28</ele>
        <time>2025-02-22T16:31:24.077Z</time>
      </trkpt>
      <trkpt lat="59.40438894554973" lon="13.562919963151217">
        <ele>87.13</ele>
        <time>2025-02-22T16:32:29.146Z</time>
      </trkpt>
      <trkpt lat="59.40447494387627" lon="13.562933960929513">
        <ele>86.98</ele>
        <time>2025-02-22T16:33:34.216Z</time>
      </trkpt>
      <trkpt lat="59.404559936374426" lon="13.56294896453619">
        <ele>86.82</ele>
        <time>2025-02-22T16:34:39.288Z</time>
      </trkpt>
      <trkpt lat="59.404643923044205" lon="13.562965979799628">
        <ele>86.66</ele>
        <time>2025-02-22T16:35:44.361Z</time>
      </trkpt>
      <trkpt lat="59.404725981876254" lon="13.56299296952784">
        <ele>86.5</ele>
        <time>2025-02-22T16:36:49.435Z</time>
      </trkpt>
      <trkpt lat="59.40480795688927" lon="13.563024988397956">
        <ele>86.33</ele>
        <time>2025-02-22T16:37:54.511Z</time>
      </trkpt>
      <trkpt lat="59.40489194355905" lon="13.56305692344904">
        <ele>86.16</ele>
        <time>2025-02-22T16:38:59.588Z</time>
      </trkpt>
      <trkpt lat="59.40497299656272" lon="13.563095983117819">
        <ele>85.99</ele>
        <time>2025-02-22T16:40:04.666Z</time>
      </trkpt>
      <trkpt lat="59.40504893660545" lon="13.56314292177558">
        <ele>85.81</ele>
        <time>2025-02-22T16:41:09.746Z</time>
      </trkpt>
      <trkpt lat="59.40512496046722" lon="13.56318793259561">
        <ele>85.63</ele>
        <time>2025-02-22T16:42:14.827Z</time>
      </trkpt>
      <trkpt lat="59.405200984328985" lon="13.563231937587261">
        <ele>85.44</ele>
        <time>2025-02-22T16:43:19.909Z</time>
      </trkpt>
      <trkpt lat="59.4052779302001" lon="13.563263956457376">
        <ele>85.25</ele>
        <time>2025-02-22T16:44:24.993Z</time>
      </trkpt>
      <trkpt lat="59.405352948233485" lon="13.56329195201397">
        <ele>85.06</ele>
        <time>2025-02-22T16:45:30.078Z</time>
      </trkpt>
      <trkpt lat="59.40542293712497" lon="13.563310978934169">
        <ele>84.86</ele>
        <time>2025-02-22T16:46:35.164Z</time>
      </trkpt>
      <trkpt lat="59.40548798069358" lon="13.56331592425704">
        <ele>84.66</ele>
        <time>2025-02-22T16:47:40.251Z</time>
      </trkpt>
      <trkpt lat="59.4055509287864" lon="13.563309973105788">
        <ele>84.45</ele>
        <time>2025-02-22T16:48:45.339Z</time>
      </trkpt>
      <trkpt lat="59.40561496652663" lon="13.563265968114138">
        <ele>84.24</ele>
        <time>2025-02-22T16:49:50.428Z</time>
      </trkpt>
      <trkpt lat="59.40565897151828" lon="13.563200924545527">
        <ele>84.03</ele>
        <time>2025-02-22T16:50:55.518Z</time>
      </trkpt>
      <trkpt lat="59.40568294376135" lon="13.563117943704128">
        <ele>83.81</ele>
        <time>2025-02-22T16:52:00.609Z</time>
      </trkpt>
      <trkpt lat="59.40570498816669" lon="13.562996992841363">
        <ele>83.59</ele>
        <time>2025-02-22T16:53:05.701Z</time>
      </trkpt>
      <trkpt lat="59.40570197068155" lon="13.562888950109482">
        <ele>83.36</ele>
        <time>2025-02-22T16:54:10.794Z</time>
      </trkpt>
      <trkpt lat="59.40568696707487" lon="13.562788954004645">
        <ele>83.13</ele>
        <time>2025-02-22T16:55:15.888Z</time>
      </trkpt>
      <trkpt lat="59.40566894598305" lon="13.562679989263415">
        <ele>82.89</ele>
        <time>2025-02-22T16:56:20.982Z</time>
      </trkpt>
      <trkpt lat="59.405652936547995" lon="13.562568929046392">
        <ele>82.65</ele>
        <time>2025-02-22T16:57:26.077Z</time>
      </trkpt>
      <trkpt lat="59.405632987618446" lon="13.562453929334879">
        <ele>82.41</ele>
        <time>2025-02-22T16:58:31.173Z</time>
      </trkpt>
      <trkpt lat="59.40560298040509" lon="13.562341947108507">
        <ele>82.16</ele>
        <time>2025-02-22T16:59:36.270Z</time>
      </trkpt>
      <trkpt lat="59.40556392073631" lon="13.562232982367277">
        <ele>81.92</ele>
        <time>2025-02-22T17:00:41.369Z</time>
      </trkpt>
      <trkpt lat="59.40551497042179" lon="13.562127957120538">
        <ele>81.66</ele>
        <time>2025-02-22T17:01:46.469Z</time>
      </trkpt>
      <trkpt lat="59.405459985136986" lon="13.562022931873798">
        <ele>81.41</ele>
        <time>2025-02-22T17:02:51.570Z</time>
      </trkpt>
      <trkpt lat="59.40540592186153" lon="13.561912961304188">
        <ele>81.15</ele>
        <time>2025-02-22T17:03:56.672Z</time>
      </trkpt>
      <trkpt lat="59.405350936576724" lon="13.561801984906197">
        <ele>80.88</ele>
        <time>2025-02-22T17:05:01.775Z</time>
      </trkpt>
      <trkpt lat="59.40529393963516" lon="13.561686985194683">
        <ele>80.61</ele>
        <time>2025-02-22T17:06:06.880Z</time>
      </trkpt>
      <trkpt lat="59.40522897988558" lon="13.561566956341267">
        <ele>80.34</ele>
        <time>2025-02-22T17:07:11.986Z</time>
      </trkpt>
      <trkpt lat="59.405159996822476" lon="13.56144499965012">
        <ele>80.07</ele>
        <time>2025-02-22T17:08:17.094Z</time>
      </trkpt>
      <trkpt lat="59.40509193576872" lon="13.56131692416966">
        <ele>79.78</ele>
        <time>2025-02-22T17:09:22.203Z</time>
      </trkpt>
      <trkpt lat="59.40502094104886" lon="13.56118893250823">
        <ele>79.5</ele>
        <time>2025-02-22T17:10:27.314Z</time>
      </trkpt>
      <trkpt lat="59.404949946329" lon="13.56105892919004">
        <ele>79.21</ele>
        <time>2025-02-22T17:11:32.426Z</time>
      </trkpt>
      <trkpt lat="59.404880963265896" lon="13.56093093752861">
        <ele>78.91</ele>
        <time>2025-02-22T17:12:37.540Z</time>
      </trkpt>
      <trkpt lat="59.40480192191899" lon="13.560814931988716">
        <ele>78.61</ele>
        <time>2025-02-22T17:13:42.655Z</time>
      </trkpt>
      <trkpt lat="59.40471399575472" lon="13.560706973075867">
        <ele>78.31</ele>
        <time>2025-02-22T17:14:47.772Z</time>
      </trkpt>
      <trkpt lat="59.404621962457895" lon="13.560603959485888">
        <ele>77.99</ele>
        <time>2025-02-22T17:15:52.891Z</time>
      </trkpt>
      <trkpt lat="59.4045249838382" lon="13.56049994006753">
        <ele>77.68</ele>
        <time>2025-02-22T17:16:58.012Z</time>
      </trkpt>
      <trkpt lat="59.404426999390125" lon="13.560393992811441">
        <ele>77.36</ele>
        <time>2025-02-22T17:18:03.134Z</time>
      </trkpt>
      <trkpt lat="59.40433094277978" lon="13.560287961736321">
        <ele>77.05</ele>
        <time>2025-02-22T17:19:08.258Z</time>
      </trkpt>
      <trkpt lat="59.40422994084656" lon="13.560183942317963">
        <ele>76.73</ele>
        <time>2025-02-22T17:20:13.384Z</time>
      </trkpt>
      <trkpt lat="59.404126927256584" lon="13.560077995061874">
        <ele>76.42</ele>
        <time>2025-02-22T17:21:18.512Z</time>
      </trkpt>
      <trkpt lat="59.404017962515354" lon="13.559978920966387">
        <ele>76.11</ele>
        <time>2025-02-22T17:22:23.642Z</time>
      </trkpt>
      <trkpt lat="59.40391696058214" lon="13.559888983145356">
        <ele>75.8</ele>
        <time>2025-02-22T17:23:28.773Z</time>
      </trkpt>
      <trkpt lat="59.40381394699216" lon="13.559816982597113">
        <ele>75.49</ele>
        <time>2025-02-22T17:24:33.906Z</time>
      </trkpt>
      <trkpt lat="59.4037099275738" lon="13.559762919321656">
        <ele>75.18</ele>
        <time>2025-02-22T17:25:39.041Z</time>
      </trkpt>
      <trkpt lat="59.4036079198122" lon="13.55970692820847">
        <ele>74.88</ele>
        <time>2025-02-22T17:26:44.178Z</time>
      </trkpt>
      <trkpt lat="59.403504990041256" lon="13.559651942923665">
        <ele>74.57</ele>
        <time>2025-02-22T17:27:49.316Z</time>
      </trkpt>
      <trkpt lat="59.40340792760253" lon="13.559594945982099">
        <ele>74.25</ele>
        <time>2025-02-22T17:28:54.456Z</time>
      </trkpt>
      <trkpt lat="59.40331497229636" lon="13.559544989839196">
        <ele>73.94</ele>
        <time>2025-02-22T17:29:59.598Z</time>
      </trkpt>
      <trkpt lat="59.40321992151439" lon="13.559498973190784">
        <ele>73.63</ele>
        <time>2025-02-22T17:31:04.741Z</time>
      </trkpt>
      <trkpt lat="59.40312596037984" lon="13.559455974027514">
        <ele>73.31</ele>
        <time>2025-02-22T17:32:09.886Z</time>
      </trkpt>
      <trkpt lat="59.403034932911396" lon="13.559412974864244">
        <ele>73.0</ele>
        <time>2025-02-22T17:33:15.032Z</time>
      </trkpt>
      <trkpt lat="59.40295195207" lon="13.559367964044213">
        <ele>72.69</ele>
        <time>2025-02-22T17:34:20.180Z</time>
      </trkpt>
      <trkpt lat="59.40286695957184" lon="13.559329994022846">
        <ele>72.37</ele>
        <time>2025-02-22T17:35:25.329Z</time>
      </trkpt>
      <trkpt lat="59.40277995541692" lon="13.559289928525686">
        <ele>72.06</ele>
        <time>2025-02-22T17:36:30.479Z</time>
      </trkpt>
      <trkpt lat="59.40269697457552" lon="13.559241984039545">
        <ele>71.75</ele>
        <time>2025-02-22T17:37:35.631Z</time>
      </trkpt>
      <trkpt lat="59.4026149995625" lon="13.559197979047894">
        <ele>71.43</ele>
        <time>2025-02-22T17:38:40.784Z</time>
      </trkpt>
      <trkpt lat="59.40253092907369" lon="13.559153974056244">
        <ele>71.12</ele>
        <time>2025-02-22T17:39:45.939Z</time>
      </trkpt>
      <trkpt lat="59.40244794823229" lon="13.559105945751071">
        <ele>70.8</ele>
        <time>2025-02-22T17:40:51.095Z</time>
      </trkpt>
      <trkpt lat="59.40236094407737" lon="13.55905699543655">
        <ele>70.48</ele>
        <time>2025-02-22T17:41:56.252Z</time>
      </trkpt>
      <trkpt lat="59.40227393992245" lon="13.559005949646235">
        <ele>70.16</ele>
        <time>2025-02-22T17:43:01.411Z</time>
      </trkpt>
      <trkpt lat="59.40218391828239" lon="13.558949958533049">
        <ele>69.84</ele>
        <time>2025-02-22T17:44:06.571Z</time>
      </trkpt>
      <trkpt lat="59.40209297463298" lon="13.558895979076624">
        <ele>69.51</ele>
        <time>2025-02-22T17:45:11.733Z</time>
      </trkpt>
      <trkpt lat="59.402000941336155" lon="13.558839987963438">
        <ele>69.18</ele>
        <time>2025-02-22T17:46:16.896Z</time>
      </trkpt>
      <trkpt lat="59.40190899185836" lon="13.558781985193491">
        <ele>68.85</ele>
        <time>2025-02-22T17:47:22.061Z</time>
      </trkpt>
      <trkpt lat="59.40181695856154" lon="13.558727921918035">
        <ele>68.52</ele>
        <time>2025-02-22T17:48:27.227Z</time>
      </trkpt>
      <trkpt lat="59.401720985770226" lon="13.55867494828999">
        <ele>68.18</ele>
        <time>2025-02-22T17:49:32.395Z</time>
      </trkpt>
      <trkpt lat="59.40161998383701" lon="13.558610994368792">
        <ele>67.85</ele>
        <time>2025-02-22T17:50:37.565Z</time>
      </trkpt>
      <trkpt lat="59.40152099356055" lon="13.558554919436574">
        <ele>67.52</ele>
        <time>2025-02-22T17:51:42.736Z</time>
      </trkpt>
      <trkpt lat="59.401421919465065" lon="13.558503957465291">
        <ele>67.19</ele>
        <time>2025-02-22T17:52:47.909Z</time>
      </trkpt>
      <trkpt lat="59.40132393501699" lon="13.558454923331738">
        <ele>66.86</ele>
        <time>2025-02-22T17:53:53.084Z</time>
      </trkpt>
      <trkpt lat="59.40123491920531" lon="13.558401949703693">
        <ele>66.53</ele>
        <time>2025-02-22T17:54:58.260Z</time>
      </trkpt>
      <trkpt lat="59.40115193836391" lon="13.558345958590508">
        <ele>66.2</ele>
        <time>2025-02-22T17:56:03.438Z</time>
      </trkpt>
      <trkpt lat="59.40107096917927" lon="13.558281920850277">
        <ele>65.87</ele>
        <time>2025-02-22T17:57:08.617Z</time>
      </trkpt>
      <trkpt lat="59.400993939489126" lon="13.558204974979162">
        <ele>65.54</ele>
        <time>2025-02-22T17:58:13.797Z</time>
      </trkpt>
      <trkpt lat="59.40091799944639" lon="13.558111935853958">
        <ele>65.21</ele>
        <time>2025-02-22T17:59:18.979Z</time>
      </trkpt>
      <trkpt lat="59.40084599889815" lon="13.558017974719405">
        <ele>64.88</ele>
        <time>2025-02-22T18:00:24.162Z</time>
      </trkpt>
      <trkpt lat="59.400775926187634" lon="13.557927953079343">
        <ele>64.55</ele>
        <time>2025-02-22T18:01:29.347Z</time>
      </trkpt>
      <trkpt lat="59.40070694312453" lon="13.557848995551467">
        <ele>64.23</ele>
        <time>2025-02-22T18:02:34.533Z</time>
      </trkpt>
      <trkpt lat="59.400556990876794" lon="13.557694936171174">
        <ele>63.89</ele>
        <time>2025-02-22T18:03:39.722Z</time>
      </trkpt>
      <trkpt lat="59.400476943701506" lon="13.557631988078356">
        <ele>63.57</ele>
        <time>2025-02-22T18:04:44.912Z</time>
      </trkpt>
      <trkpt lat="59.40040594898164" lon="13.55757499113679">
        <ele>63.26</ele>
        <time>2025-02-22T18:05:50.103Z</time>
      </trkpt>
      <trkpt lat="59.400341995060444" lon="13.557529980316758">
        <ele>62.95</ele>
        <time>2025-02-22T18:06:55.295Z</time>
      </trkpt>
      <trkpt lat="59.40028499811888" lon="13.557473989203572">
        <ele>62.63</ele>
        <time>2025-02-22T18:08:00.488Z</time>
      </trkpt>
      <trkpt lat="59.40022598952055" lon="13.557411963120103">
        <ele>62.32</ele>
        <time>2025-02-22T18:09:05.682Z</time>
      </trkpt>
      <trkpt lat="59.40015893429518" lon="13.557367958128452">
        <ele>62.02</ele>
        <time>2025-02-22T18:10:10.878Z</time>
      </trkpt>
      <trkpt lat="59.40009891986847" lon="13.557332921773195">
        <ele>61.71</ele>
        <time>2025-02-22T18:11:16.075Z</time>
      </trkpt>
      <trkpt lat="59.40003697760403" lon="13.557280953973532">
        <ele>61.4</ele>
        <time>2025-02-22T18:12:21.273Z</time>
      </trkpt>
      <trkpt lat="59.399981992319226" lon="13.557227980345488">
        <ele>61.1</ele>
        <time>2025-02-22T18:13:26.472Z</time>
      </trkpt>
      <trkpt lat="59.39993295818567" lon="13.55714994482696">
        <ele>60.8</ele>
        <time>2025-02-22T18:14:31.672Z</time>
      </trkpt>
      <trkpt lat="59.39987998455763" lon="13.557037962600589">
        <ele>60.51</ele>
        <time>2025-02-22T18:15:36.873Z</time>
      </trkpt>
      <trkpt lat="59.39983597956598" lon="13.556919945403934">
        <ele>60.21</ele>
        <time>2025-02-22T18:16:42.075Z</time>
      </trkpt>
      <trkpt lat="59.39979298040271" lon="13.556791953742504">
        <ele>59.92</ele>
        <time>2025-02-22T18:17:47.278Z</time>
      </trkpt>
      <trkpt lat="59.39975693821907" lon="13.556670919060707">
        <ele>59.62</ele>
        <time>2025-02-22T18:18:52.482Z</time>
      </trkpt>
      <trkpt lat="59.399722991511226" lon="13.556549968197942">
        <ele>59.33</ele>
        <time>2025-02-22T18:19:57.688Z</time>
      </trkpt>
      <trkpt lat="59.399699941277504" lon="13.556488947942853">
        <ele>59.05</ele>
        <time>2025-02-22T18:21:02.894Z</time>
      </trkpt>
      <trkpt lat="59.399676974862814" lon="13.556428933516145">
        <ele>58.76</ele>
        <time>2025-02-22T18:22:08.101Z</time>
      </trkpt>
      <trkpt lat="59.399614948779345" lon="13.556321980431676">
        <ele>58.48</ele>
        <time>2025-02-22T18:23:13.309Z</time>
      </trkpt>
      <trkpt lat="59.39947698265314" lon="13.556120982393622">
        <ele>58.18</ele>
        <time>2025-02-22T18:24:18.520Z</time>
      </trkpt>
      <trkpt lat="59.39939299598336" lon="13.556045964360237">
        <ele>57.89</ele>
        <time>2025-02-22T18:25:23.732Z</time>
      </trkpt>
      <trkpt lat="59.39932191744447" lon="13.555980920791626">
        <ele>57.6</ele>
        <time>2025-02-22T18:26:28.946Z</time>
      </trkpt>
      <trkpt lat="59.399288976565" lon="13.555954936891794">
        <ele>57.32</ele>
        <time>2025-02-22T18:27:34.160Z</time>
      </trkpt>
      <trkpt lat="59.39925494603813" lon="13.555929958820343">
        <ele>57.04</ele>
        <time>2025-02-22T18:28:39.375Z</time>
      </trkpt>
      <trkpt lat="59.39919794909656" lon="13.555887965485454">
        <ele>56.76</ele>
        <time>2025-02-22T18:29:44.591Z</time>
      </trkpt>
      <trkpt lat="59.39915293827653" lon="13.5558579582721">
        <ele>56.48</ele>
        <time>2025-02-22T18:30:49.808Z</time>
      </trkpt>
      <trkpt lat="59.39911697991192" lon="13.555832980200648">
        <ele>56.21</ele>
        <time>2025-02-22T18:31:55.025Z</time>
      </trkpt>
      <trkpt lat="59.39908496104181" lon="13.555806996300817">
        <ele>55.94</ele>
        <time>2025-02-22T18:33:00.243Z</time>
      </trkpt>
      <trkpt lat="59.39905394800007" lon="13.55577296577394">
        <ele>55.68</ele>
        <time>2025-02-22T18:34:05.461Z</time>
      </trkpt>
      <trkpt lat="59.39902796410024" lon="13.555718986317515">
        <ele>55.42</ele>
        <time>2025-02-22T18:35:10.680Z</time>
      </trkpt>
      <trkpt lat="59.3990109488368" lon="13.555635921657085">
        <ele>55.16</ele>
        <time>2025-02-22T18:36:15.900Z</time>
      </trkpt>
      <trkpt lat="59.39900298602879" lon="13.555534919723868">
        <ele>54.9</ele>
        <time>2025-02-22T18:37:21.120Z</time>
      </trkpt>
      <trkpt lat="59.39900994300842" lon="13.555433917790651">
        <ele>54.65</ele>
        <time>2025-02-22T18:38:26.341Z</time>
      </trkpt>
      <trkpt lat="59.39902192912996" lon="13.555314978584647">
        <ele>54.4</ele>
        <time>2025-02-22T18:39:31.563Z</time>
      </trkpt>
      <trkpt lat="59.39902695827186" lon="13.555189920589328">
        <ele>54.15</ele>
        <time>2025-02-22T18:40:36.786Z</time>
      </trkpt>
      <trkpt lat="59.39902695827186" lon="13.555060923099518">
        <ele>53.91</ele>
        <time>2025-02-22T18:41:42.010Z</time>
      </trkpt>
      <trkpt lat="59.399034921079874" lon="13.554932931438088">
        <ele>53.68</ele>
        <time>2025-02-22T18:42:47.235Z</time>
      </trkpt>
      <trkpt lat="59.399037938565016" lon="13.554801922291517">
        <ele>53.45</ele>
        <time>2025-02-22T18:43:52.461Z</time>
      </trkpt>
      <trkpt lat="59.399037938565016" lon="13.554672924801707">
        <ele>53.22</ele>
        <time>2025-02-22T18:44:57.689Z</time>
      </trkpt>
      <trkpt lat="59.399032993242145" lon="13.554544933140278">
        <ele>53.0</ele>
        <time>2025-02-22T18:46:02.918Z</time>
      </trkpt>
      <trkpt lat="59.39902796410024" lon="13.554417947307229">
        <ele>52.78</ele>
        <time>2025-02-22T18:47:08.148Z</time>
      </trkpt>
      <trkpt lat="59.39902293495834" lon="13.554287943989038">
        <ele>52.56</ele>
        <time>2025-02-22T18:48:13.379Z</time>
      </trkpt>
      <trkpt lat="59.39901698380709" lon="13.554156934842467">
        <ele>52.35</ele>
        <time>2025-02-22T18:49:18.611Z</time>
      </trkpt>
      <trkpt lat="59.399011954665184" lon="13.554019974544644">
        <ele>52.14</ele>
        <time>2025-02-22T18:50:23.844Z</time>
      </trkpt>
      <trkpt lat="59.399011954665184" lon="13.553874967619777">
        <ele>51.94</ele>
        <time>2025-02-22T18:51:29.078Z</time>
      </trkpt>
      <trkpt lat="59.399011954665184" lon="13.553726943209767">
        <ele>51.74</ele>
        <time>2025-02-22T18:52:34.313Z</time>
      </trkpt>
      <trkpt lat="59.3990109488368" lon="13.553572967648506">
        <ele>51.55</ele>
        <time>2025-02-22T18:53:39.550Z</time>
      </trkpt>
      <trkpt lat="59.39900994300842" lon="13.553419997915626">
        <ele>51.35</ele>
        <time>2025-02-22T18:54:44.788Z</time>
      </trkpt>
      <trkpt lat="59.3990109488368" lon="13.553270967677236">
        <ele>51.17</ele>
        <time>2025-02-22T18:55:50.027Z</time>
      </trkpt>
      <trkpt lat="59.39900893718004" lon="13.553122943267226">
        <ele>50.98</ele>
        <time>2025-02-22T18:56:55.267Z</time>
      </trkpt>
      <trkpt lat="59.39900893718004" lon="13.552977936342359">
        <ele>50.8</ele>
        <time>2025-02-22T18:58:00.508Z</time>
      </trkpt>
      <trkpt lat="59.39900499768555" lon="13.552829995751381">
        <ele>50.62</ele>
        <time>2025-02-22T18:59:05.751Z</time>
      </trkpt>
      <trkpt lat="59.39900097437203" lon="13.552682977169752">
        <ele>50.44</ele>
        <time>2025-02-22T19:00:10.995Z</time>
      </trkpt>
      <trkpt lat="59.39899795688689" lon="13.552536964416504">
        <ele>50.27</ele>
        <time>2025-02-22T19:01:16.240Z</time>
      </trkpt>
      <trkpt lat="59.39900097437203" lon="13.552386928349733">
        <ele>50.11</ele>
        <time>2025-02-22T19:02:21.486Z</time>
      </trkpt>
      <trkpt lat="59.3990059196949" lon="13.552234964445233">
        <ele>49.95</ele>
        <time>2025-02-22T19:03:26.733Z</time>
      </trkpt>
      <trkpt lat="59.39900499768555" lon="13.552080988883972">
        <ele>49.8</ele>
        <time>2025-02-22T19:04:31.982Z</time>
      </trkpt>
      <trkpt lat="59.39900399185717" lon="13.551932964473963">
        <ele>49.65</ele>
        <time>2025-02-22T19:05:37.232Z</time>
      </trkpt>
      <trkpt lat="59.39900198020041" lon="13.551785945892334">
        <ele>49.5</ele>
        <time>2025-02-22T19:06:42.483Z</time>
      </trkpt>
      <trkpt lat="59.39899896271527" lon="13.551638927310705">
        <ele>49.35</ele>
        <time>2025-02-22T19:07:47.735Z</time>
      </trkpt>
      <trkpt lat="59.398990999907255" lon="13.551495932042599">
        <ele>49.22</ele>
        <time>2025-02-22T19:08:52.989Z</time>
      </trkpt>
      <trkpt lat="59.39897398464382" lon="13.551360983401537">
        <ele>49.08</ele>
        <time>2025-02-22T19:09:58.244Z</time>
      </trkpt>
      <trkpt lat="59.398948922753334" lon="13.551230980083346">
        <ele>48.95</ele>
        <time>2025-02-22T19:11:03.500Z</time>
      </trkpt>
      <trkpt lat="59.39891899935901" lon="13.551116986200213">
        <ele>48.82</ele>
        <time>2025-02-22T19:12:08.757Z</time>
      </trkpt>
      <trkpt lat="59.39889192581177" lon="13.55100592598319">
        <ele>48.7</ele>
        <time>2025-02-22T19:13:14.015Z</time>
      </trkpt>
      <trkpt lat="59.398864936083555" lon="13.55089595541358">
        <ele>48.57</ele>
        <time>2025-02-22T19:14:19.274Z</time>
      </trkpt>
      <trkpt lat="59.398842975497246" lon="13.550779949873686">
        <ele>48.45</ele>
        <time>2025-02-22T19:15:24.534Z</time>
      </trkpt>
      <trkpt lat="59.398817997425795" lon="13.550665955990553">
        <ele>48.33</ele>
        <time>2025-02-22T19:16:29.795Z</time>
      </trkpt>
      <trkpt lat="59.39879092387855" lon="13.550553973764181">
        <ele>48.22</ele>
        <time>2025-02-22T19:17:35.057Z</time>
      </trkpt>
      <trkpt lat="59.39876393415034" lon="13.55044199153781">
        <ele>48.11</ele>
        <time>2025-02-22T19:18:40.320Z</time>
      </trkpt>
      <trkpt lat="59.398735938593745" lon="13.550322968512774">
        <ele>48.0</ele>
        <time>2025-02-22T19:19:45.584Z</time>
      </trkpt>
      <trkpt lat="59.398710960522294" lon="13.550201933830976">
        <ele>47.9</ele>
        <time>2025-02-22T19:20:50.849Z</time>
      </trkpt>
      <trkpt lat="59.3986829649657" lon="13.550081988796592">
        <ele>47.8</ele>
        <time>2025-02-22T19:21:56.115Z</time>
      </trkpt>
      <trkpt lat="59.39865295775235" lon="13.549965983256698">
        <ele>47.7</ele>
        <time>2025-02-22T19:23:01.382Z</time>
      </trkpt>
      <trkpt lat="59.39862194471061" lon="13.549848971888423">
        <ele>47.61</ele>
        <time>2025-02-22T19:24:06.650Z</time>
      </trkpt>
      <trkpt lat="59.39858799800277" lon="13.54973598383367">
        <ele>47.52</ele>
        <time>2025-02-22T19:25:11.919Z</time>
      </trkpt>
      <trkpt lat="59.39855296164751" lon="13.549625929445028">
        <ele>47.44</ele>
        <time>2025-02-22T19:26:17.189Z</time>
      </trkpt>
      <trkpt lat="59.39851398579776" lon="13.54951998218894">
        <ele>47.36</ele>
        <time>2025-02-22T19:27:22.460Z</time>
      </trkpt>
      <trkpt lat="59.398472998291254" lon="13.5494149569422">
        <ele>47.28</ele>
        <time>2025-02-22T19:28:27.733Z</time>
      </trkpt>
      <trkpt lat="59.39843192696571" lon="13.5493079200387">
        <ele>47.21</ele>
        <time>2025-02-22T19:29:33.007Z</time>
      </trkpt>
      <trkpt lat="59.398392951115966" lon="13.549194931983948">
        <ele>47.13</ele>
        <time>2025-02-22T19:30:38.282Z</time>
      </trkpt>
      <trkpt lat="59.3983549810946" lon="13.549076998606324">
        <ele>47.06</ele>
        <time>2025-02-22T19:31:43.558Z</time>
      </trkpt>
      <trkpt lat="59.39831298775971" lon="13.54895998723805">
        <ele>47.0</ele>
        <time>2025-02-22T19:32:48.835Z</time>
      </trkpt>
      <trkpt lat="59.39827191643417" lon="13.548842975869775">
        <ele>46.94</ele>
        <time>2025-02-22T19:33:54.113Z</time>
      </trkpt>
      <trkpt lat="59.3982289172709" lon="13.548728981986642">
        <ele>46.88</ele>
        <time>2025-02-22T19:34:59.392Z</time>
      </trkpt>
      <trkpt lat="59.39818792976439" lon="13.548614988103509">
        <ele>46.82</ele>
        <time>2025-02-22T19:36:04.673Z</time>
      </trkpt>
      <trkpt lat="59.3981459364295" lon="13.548498982563615">
        <ele>46.77</ele>
        <time>2025-02-22T19:37:09.955Z</time>
      </trkpt>
      <trkpt lat="59.39810696057975" lon="13.548383982852101">
        <ele>46.72</ele>
        <time>2025-02-22T19:38:15.238Z</time>
      </trkpt>
      <trkpt lat="59.398066978901625" lon="13.548263953998685">
        <ele>46.67</ele>
        <time>2025-02-22T19:39:20.522Z</time>
      </trkpt>
      <trkpt lat="59.39802993088961" lon="13.54814694263041">
        <ele>46.63</ele>
        <time>2025-02-22T19:40:25.807Z</time>
      </trkpt>
      <trkpt lat="59.39798793755472" lon="13.548031942918897">
        <ele>46.59</ele>
        <time>2025-02-22T19:41:31.093Z</time>
      </trkpt>
      <trkpt lat="59.39794594421983" lon="13.547916943207383">
        <ele>46.55</ele>
        <time>2025-02-22T19:42:36.380Z</time>
      </trkpt>
      <trkpt lat="59.39790193922818" lon="13.54780194349587">
        <ele>46.52</ele>
        <time>2025-02-22T19:43:41.669Z</time>
      </trkpt>
      <trkpt lat="59.397856928408146" lon="13.547679986804724">
        <ele>46.48</ele>
        <time>2025-02-22T19:44:46.959Z</time>
      </trkpt>
      <trkpt lat="59.39781694673002" lon="13.547557946294546">
        <ele>46.45</ele>
        <time>2025-02-22T19:45:52.250Z</time>
      </trkpt>
      <trkpt lat="59.39777595922351" lon="13.547445964068174">
        <ele>46.42</ele>
        <time>2025-02-22T19:46:57.542Z</time>
      </trkpt>
      <trkpt lat="59.39773296006024" lon="13.5473289526999">
        <ele>46.4</ele>
        <time>2025-02-22T19:48:02.835Z</time>
      </trkpt>
      <trkpt lat="59.39768895506859" lon="13.547209929674864">
        <ele>46.37</ele>
        <time>2025-02-22T19:49:08.130Z</time>
      </trkpt>
      <trkpt lat="59.39764997921884" lon="13.547088978812099">
        <ele>46.35</ele>
        <time>2025-02-22T19:50:13.426Z</time>
      </trkpt>
      <trkpt lat="59.39760798588395" lon="13.546970961615443">
        <ele>46.32</ele>
        <time>2025-02-22T19:51:18.723Z</time>
      </trkpt>
      <trkpt lat="59.39756699837744" lon="13.546849926933646">
        <ele>46.3</ele>
        <time>2025-02-22T19:52:24.021Z</time>
      </trkpt>
      <trkpt lat="59.39752492122352" lon="13.54672595858574">
        <ele>46.28</ele>
        <time>2025-02-22T19:53:29.320Z</time>
      </trkpt>
      <trkpt lat="59.39748192206025" lon="13.546603918075562">
        <ele>46.26</ele>
        <time>2025-02-22T19:54:34.621Z</time>
      </trkpt>
      <trkpt lat="59.39743498340249" lon="13.546482967212796">
        <ele>46.25</ele>
        <time>2025-02-22T19:55:39.923Z</time>
      </trkpt>
      <trkpt lat="59.39739198423922" lon="13.54636394418776">
        <ele>46.24</ele>
        <time>2025-02-22T19:56:45.226Z</time>
      </trkpt>
      <trkpt lat="59.39734496176243" lon="13.546246932819486">
        <ele>46.23</ele>
        <time>2025-02-22T19:57:50.530Z</time>
      </trkpt>
      <trkpt lat="59.3972999509424" lon="13.546130927279592">
        <ele>46.23</ele>
        <time>2025-02-22T19:58:55.835Z</time>
      </trkpt>
      <trkpt lat="59.397252928465605" lon="13.546012993901968">
        <ele>46.23</ele>
        <time>2025-02-22T20:00:01.142Z</time>
      </trkpt>
      <trkpt lat="59.397206995636225" lon="13.545899922028184">
        <ele>46.23</ele>
        <time>2025-02-22T20:01:06.450Z</time>
      </trkpt>
      <trkpt lat="59.397168941795826" lon="13.545791963115335">
        <ele>46.24</ele>
        <time>2025-02-22T20:02:11.759Z</time>
      </trkpt>
      <trkpt lat="59.39712996594608" lon="13.545680986717343">
        <ele>46.25</ele>
        <time>2025-02-22T20:03:17.069Z</time>
      </trkpt>
      <trkpt lat="59.39708797261119" lon="13.54556892067194">
        <ele>46.26</ele>
        <time>2025-02-22T20:04:22.380Z</time>
      </trkpt>
      <trkpt lat="59.3970459792763" lon="13.545455932617188">
        <ele>46.27</ele>
        <time>2025-02-22T20:05:27.692Z</time>
      </trkpt>
      <trkpt lat="59.39700298011303" lon="13.545342944562435">
        <ele>46.28</ele>
        <time>2025-02-22T20:06:33.005Z</time>
      </trkpt>
      <trkpt lat="59.39696098677814" lon="13.545226939022541">
        <ele>46.29</ele>
        <time>2025-02-22T20:07:38.320Z</time>
      </trkpt>
      <trkpt lat="59.39692092128098" lon="13.545112945139408">
        <ele>46.31</ele>
        <time>2025-02-22T20:08:43.636Z</time>
      </trkpt>
      <trkpt lat="59.39688295125961" lon="13.544997945427895">
        <ele>46.32</ele>
        <time>2025-02-22T20:09:48.953Z</time>
      </trkpt>
      <trkpt lat="59.39684598706663" lon="13.544881939888">
        <ele>46.34</ele>
        <time>2025-02-22T20:10:54.271Z</time>
      </trkpt>
      <trkpt lat="59.39681296236813" lon="13.544760989025235">
        <ele>46.36</ele>
        <time>2025-02-22T20:11:59.590Z</time>
      </trkpt>
      <trkpt lat="59.39678396098316" lon="13.544637942686677">
        <ele>46.38</ele>
        <time>2025-02-22T20:13:04.910Z</time>
      </trkpt>
      <trkpt lat="59.396755965426564" lon="13.544510956853628">
        <ele>46.4</ele>
        <time>2025-02-22T20:14:10.231Z</time>
      </trkpt>
      <trkpt lat="59.39673098735511" lon="13.544381959363818">
        <ele>46.42</ele>
        <time>2025-02-22T20:15:15.553Z</time>
      </trkpt>
      <trkpt lat="59.39670592546463" lon="13.544250950217247">
        <ele>46.44</ele>
        <time>2025-02-22T20:16:20.877Z</time>
      </trkpt>
      <trkpt lat="59.39667893573642" lon="13.544118935242295">
        <ele>46.46</ele>
        <time>2025-02-22T20:17:26.202Z</time>
      </trkpt>
      <trkpt lat="59.396650940179825" lon="13.543985998257995">
        <ele>46.48</ele>
        <time>2025-02-22T20:18:31.528Z</time>
      </trkpt>
      <trkpt lat="59.396625962108374" lon="13.543856916949153">
        <ele>46.5</ele>
        <time>2025-02-22T20:19:36.855Z</time>
      </trkpt>
      <trkpt lat="59.39660098403692" lon="13.543724985793233">
        <ele>46.53</ele>
        <time>2025-02-22T20:20:42.183Z</time>
      </trkpt>
      <trkpt lat="59.39657592214644" lon="13.54359095916152">
        <ele>46.56</ele>
        <time>2025-02-22T20:21:47.512Z</time>
      </trkpt>
      <trkpt lat="59.39655194990337" lon="13.543455926701427">
        <ele>46.59</ele>
        <time>2025-02-22T20:22:52.843Z</time>
      </trkpt>
      <trkpt lat="59.39652697183192" lon="13.543319972231984">
        <ele>46.62</ele>
        <time>2025-02-22T20:23:58.175Z</time>
      </trkpt>
      <trkpt lat="59.396500987932086" lon="13.543185945600271">
        <ele>46.65</ele>
        <time>2025-02-22T20:25:03.508Z</time>
      </trkpt>
      <trkpt lat="59.396476931869984" lon="13.54305099695921">
        <ele>46.69</ele>
        <time>2025-02-22T20:26:08.842Z</time>
      </trkpt>
      <trkpt lat="59.39645094797015" lon="13.542918981984258">
        <ele>46.72</ele>
        <time>2025-02-22T20:27:14.177Z</time>
      </trkpt>
      <trkpt lat="59.39642395824194" lon="13.542787972837687">
        <ele>46.75</ele>
        <time>2025-02-22T20:28:19.513Z</time>
      </trkpt>
      <trkpt lat="59.396394956856966" lon="13.542658975347877">
        <ele>46.78</ele>
        <time>2025-02-22T20:29:24.851Z</time>
      </trkpt>
      <trkpt lat="59.39636494964361" lon="13.542535929009318">
        <ele>46.82</ele>
        <time>2025-02-22T20:30:30.190Z</time>
      </trkpt>
      <trkpt lat="59.39633393660188" lon="13.542413972318172">
        <ele>46.86</ele>
        <time>2025-02-22T20:31:35.530Z</time>
      </trkpt>
      <trkpt lat="59.39630099572241" lon="13.542290925979614">
        <ele>46.9</ele>
        <time>2025-02-22T20:32:40.871Z</time>
      </trkpt>
      <trkpt lat="59.3962689768523" lon="13.542169975116849">
        <ele>46.93</ele>
        <time>2025-02-22T20:33:46.213Z</time>
      </trkpt>
      <trkpt lat="59.39623494632542" lon="13.542049946263433">
        <ele>46.97</ele>
        <time>2025-02-22T20:34:51.556Z</time>
      </trkpt>
      <trkpt lat="59.396201921626925" lon="13.541930923238397">
        <ele>47.0</ele>
        <time>2025-02-22T20:35:56.900Z</time>
      </trkpt>
      <trkpt lat="59.39616998657584" lon="13.541812989860773">
        <ele>47.04</ele>
        <time>2025-02-22T20:37:02.245Z</time>
      </trkpt>
      <trkpt lat="59.396135956048965" lon="13.54169799014926">
        <ele>47.08</ele>
        <time>2025-02-22T20:38:07.591Z</time>
      </trkpt>
      <trkpt lat="59.39610192552209" lon="13.541582990437746">
        <ele>47.12</ele>
        <time>2025-02-22T20:39:12.938Z</time>
      </trkpt>
      <trkpt lat="59.39606596715748" lon="13.541471930220723">
        <ele>47.16</ele>
        <time>2025-02-22T20:40:18.287Z</time>
      </trkpt>
      <trkpt lat="59.396030930802226" lon="13.541363971307874">
        <ele>47.21</ele>
        <time>2025-02-22T20:41:23.637Z</time>
      </trkpt>
      <trkpt lat="59.39599497243762" lon="13.541257940232754">
        <ele>47.25</ele>
        <time>2025-02-22T20:42:28.988Z</time>
      </trkpt>
      <trkpt lat="59.39595993608236" lon="13.541153920814395">
        <ele>47.29</ele>
        <time>2025-02-22T20:43:34.340Z</time>
      </trkpt>
      <trkpt lat="59.39592498354614" lon="13.541050991043448">
        <ele>47.33</ele>
        <time>2025-02-22T20:44:39.693Z</time>
      </trkpt>
      <trkpt lat="59.39588692970574" lon="13.540952922776341">
        <ele>47.37</ele>
        <time>2025-02-22T20:45:45.047Z</time>
      </trkpt>
      <trkpt lat="59.39584795385599" lon="13.540852926671505">
        <ele>47.42</ele>
        <time>2025-02-22T20:46:50.402Z</time>
      </trkpt>
      <trkpt lat="59.39580294303596" lon="13.540751924738288">
        <ele>47.47</ele>
        <time>2025-02-22T20:47:55.758Z</time>
      </trkpt>
      <trkpt lat="59.395748963579535" lon="13.540638936683536">
        <ele>47.51</ele>
        <time>2025-02-22T20:49:01.115Z</time>
      </trkpt>
      <trkpt lat="59.39569992944598" lon="13.540532989427447">
        <ele>47.56</ele>
        <time>2025-02-22T20:50:06.473Z</time>
      </trkpt>
      <trkpt lat="59.39565299078822" lon="13.54043492116034">
        <ele>47.61</ele>
        <time>2025-02-22T20:51:11.832Z</time>
      </trkpt>
      <trkpt lat="59.39560697413981" lon="13.540342971682549">
        <ele>47.66</ele>
        <time>2025-02-22T20:52:17.192Z</time>
      </trkpt>
      <trkpt lat="59.3955609574914" lon="13.540249932557344">
        <ele>47.7</ele>
        <time>2025-02-22T20:53:22.553Z</time>
      </trkpt>
      <trkpt lat="59.395514940842986" lon="13.540158988907933">
        <ele>47.75</ele>
        <time>2025-02-22T20:54:27.916Z</time>
      </trkpt>
      <trkpt lat="59.395467918366194" lon="13.540070978924632">
        <ele>47.79</ele>
        <time>2025-02-22T20:55:33.280Z</time>
      </trkpt>
      <trkpt lat="59.39542097970843" lon="13.53998196311295">
        <ele>47.83</ele>
        <time>2025-02-22T20:56:38.645Z</time>
      </trkpt>
      <trkpt lat="59.39537395723164" lon="13.53989495895803">
        <ele>47.88</ele>
        <time>2025-02-22T20:57:44.011Z</time>
      </trkpt>
      <trkpt lat="59.39532391726971" lon="13.539806948974729">
        <ele>47.92</ele>
        <time>2025-02-22T20:58:49.378Z</time>
      </trkpt>
      <trkpt lat="59.395275972783566" lon="13.539718938991427">
        <ele>47.96</ele>
        <time>2025-02-22T20:59:54.746Z</time>
      </trkpt>
      <trkpt lat="59.39522895030677" lon="13.53963696397841">
        <ele>47.99</ele>
        <time>2025-02-22T21:01:00.115Z</time>
      </trkpt>
      <trkpt lat="59.39517798833549" lon="13.53955197148025">
        <ele>48.03</ele>
        <time>2025-02-22T21:02:05.485Z</time>
      </trkpt>
      <trkpt lat="59.395127948373556" lon="13.539466978982091">
        <ele>48.06</ele>
        <time>2025-02-22T21:03:10.856Z</time>
      </trkpt>
      <trkpt lat="59.395077992230654" lon="13.539376957342029">
        <ele>48.09</ele>
        <time>2025-02-22T21:04:16.228Z</time>
      </trkpt>
      <trkpt lat="59.3950289580971" lon="13.539283918216825">
        <ele>48.13</ele>
        <time>2025-02-22T21:05:21.601Z</time>
      </trkpt>
      <trkpt lat="59.39497992396355" lon="13.539189957082272">
        <ele>48.17</ele>
        <time>2025-02-22T21:06:26.975Z</time>
      </trkpt>
      <trkpt lat="59.394929967820644" lon="13.53910194709897">
        <ele>48.2</ele>
        <time>2025-02-22T21:07:32.350Z</time>
      </trkpt>
      <trkpt lat="59.39487992785871" lon="13.539017960429192">
        <ele>48.24</ele>
        <time>2025-02-22T21:08:37.726Z</time>
      </trkpt>
      <trkpt lat="59.39482896588743" lon="13.53892995044589">
        <ele>48.27</ele>
        <time>2025-02-22T21:09:43.103Z</time>
      </trkpt>
      <trkpt lat="59.39477792009711" lon="13.538845963776112">
        <ele>48.31</ele>
        <time>2025-02-22T21:10:48.482Z</time>
      </trkpt>
      <trkpt lat="59.39472695812583" lon="13.53875795379281">
        <ele>48.35</ele>
        <time>2025-02-22T21:11:53.862Z</time>
      </trkpt>
      <trkpt lat="59.39467599615455" lon="13.538675978779793">
        <ele>48.4</ele>
        <time>2025-02-22T21:12:59.243Z</time>
      </trkpt>
      <trkpt lat="59.39462293870747" lon="13.538592997938395">
        <ele>48.44</ele>
        <time>2025-02-22T21:14:04.625Z</time>
      </trkpt>
      <trkpt lat="59.39457197673619" lon="13.538510939106345">
        <ele>48.48</ele>
        <time>2025-02-22T21:15:10.008Z</time>
      </trkpt>
      <trkpt lat="59.39451992511749" lon="13.538428964093328">
        <ele>48.52</ele>
        <time>2025-02-22T21:16:15.392Z</time>
      </trkpt>
      <trkpt lat="59.39446695148945" lon="13.53834598325193">
        <ele>48.57</ele>
        <time>2025-02-22T21:17:20.777Z</time>
      </trkpt>
      <trkpt lat="59.394414983689785" lon="13.538269959390163">
        <ele>48.61</ele>
        <time>2025-02-22T21:18:26.163Z</time>
      </trkpt>
      <trkpt lat="59.39436293207109" lon="13.538190918043256">
        <ele>48.65</ele>
        <time>2025-02-22T21:19:31.550Z</time>
      </trkpt>
      <trkpt lat="59.39431197009981" lon="13.538105925545096">
        <ele>48.69</ele>
        <time>2025-02-22T21:20:36.938Z</time>
      </trkpt>
      <trkpt lat="59.39426293596625" lon="13.538020933046937">
        <ele>48.73</ele>
        <time>2025-02-22T21:21:42.327Z</time>
      </trkpt>
      <trkpt lat="59.39421297982335" lon="13.537934934720397">
        <ele>48.76</ele>
        <time>2025-02-22T21:22:47.717Z</time>
      </trkpt>
      <trkpt lat="59.39416293986142" lon="13.537850948050618">
        <ele>48.8</ele>
        <time>2025-02-22T21:23:53.108Z</time>
      </trkpt>
      <trkpt lat="59.394115917384624" lon="13.537756986916065">
        <ele>48.84</ele>
        <time>2025-02-22T21:24:58.500Z</time>
      </trkpt>
      <trkpt lat="59.394071996212006" lon="13.5376619361341">
        <ele>48.87</ele>
        <time>2025-02-22T21:26:03.893Z</time>
      </trkpt>
      <trkpt lat="59.394027991220355" lon="13.537568980827928">
        <ele>48.9</ele>
        <time>2025-02-22T21:27:09.287Z</time>
      </trkpt>
      <trkpt lat="59.39398197457194" lon="13.537477953359485">
        <ele>48.93</ele>
        <time>2025-02-22T21:28:14.683Z</time>
      </trkpt>
      <trkpt lat="59.39393595792353" lon="13.537386925891042">
        <ele>48.96</ele>
        <time>2025-02-22T21:29:20.080Z</time>
      </trkpt>
      <trkpt lat="59.39389195293188" lon="13.537291958928108">
        <ele>48.99</ele>
        <time>2025-02-22T21:30:25.478Z</time>
      </trkpt>
      <trkpt lat="59.39384995959699" lon="13.537197997793555">
        <ele>49.02</ele>
        <time>2025-02-22T21:31:30.877Z</time>
      </trkpt>
      <trkpt lat="59.39380595460534" lon="13.537099929526448">
        <ele>49.05</ele>
        <time>2025-02-22T21:32:36.277Z</time>
      </trkpt>
      <trkpt lat="59.39376396127045" lon="13.536999933421612">
        <ele>49.08</ele>
        <time>2025-02-22T21:33:41.678Z</time>
      </trkpt>
      <trkpt lat="59.39372297376394" lon="13.536899937316775">
        <ele>49.11</ele>
        <time>2025-02-22T21:34:47.080Z</time>
      </trkpt>
      <trkpt lat="59.393681986257434" lon="13.536797929555178">
        <ele>49.14</ele>
        <time>2025-02-22T21:35:52.483Z</time>
      </trkpt>
      <trkpt lat="59.393642926588655" lon="13.536697933450341">
        <ele>49.17</ele>
        <time>2025-02-22T21:36:57.887Z</time>
      </trkpt>
      <trkpt lat="59.39360596239567" lon="13.536595925688744">
        <ele>49.2</ele>
        <time>2025-02-22T21:38:03.292Z</time>
      </trkpt>
      <trkpt lat="59.3935679923743" lon="13.536497941240668">
        <ele>49.23</ele>
        <time>2025-02-22T21:39:08.698Z</time>
      </trkpt>
      <trkpt lat="59.3935299385339" lon="13.536397945135832">
        <ele>49.26</ele>
        <time>2025-02-22T21:40:14.105Z</time>
      </trkpt>
      <trkpt lat="59.393491968512535" lon="13.536295937374234">
        <ele>49.29</ele>
        <time>2025-02-22T21:41:19.513Z</time>
      </trkpt>
      <trkpt lat="59.39345299266279" lon="13.536194935441017">
        <ele>49.32</ele>
        <time>2025-02-22T21:42:24.922Z</time>
      </trkpt>
      <trkpt lat="59.39341393299401" lon="13.5360939335078">
        <ele>49.36</ele>
        <time>2025-02-22T21:43:30.332Z</time>
      </trkpt>
      <trkpt lat="59.39337596297264" lon="13.535994943231344">
        <ele>49.39</ele>
        <time>2025-02-22T21:44:35.743Z</time>
      </trkpt>
      <trkpt lat="59.393337992951274" lon="13.53589897044003">
        <ele>49.41</ele>
        <time>2025-02-22T21:45:41.155Z</time>
      </trkpt>
      <trkpt lat="59.393297927454114" lon="13.535804925486445">
        <ele>49.44</ele>
        <time>2025-02-22T21:46:46.568Z</time>
      </trkpt>
      <trkpt lat="59.393257945775986" lon="13.535710964351892">
        <ele>49.47</ele>
        <time>2025-02-22T21:47:51.982Z</time>
      </trkpt>
      <trkpt lat="59.393215952441096" lon="13.535615997388959">
        <ele>49.5</ele>
        <time>2025-02-22T21:48:57.397Z</time>
      </trkpt>
      <trkpt lat="59.39317395910621" lon="13.535521952435374">
        <ele>49.52</ele>
        <time>2025-02-22T21:50:02.813Z</time>
      </trkpt>
      <trkpt lat="59.39313196577132" lon="13.535430924966931">
        <ele>49.54</ele>
        <time>2025-02-22T21:51:08.230Z</time>
      </trkpt>
      <trkpt lat="59.39308896660805" lon="13.5353409871459">
        <ele>49.57</ele>
        <time>2025-02-22T21:52:13.648Z</time>
      </trkpt>
      <trkpt lat="59.3930449616164" lon="13.535255994647741">
        <ele>49.59</ele>
        <time>2025-02-22T21:53:19.067Z</time>
      </trkpt>
      <trkpt lat="59.392997939139605" lon="13.535176953300834">
        <ele>49.61</ele>
        <time>2025-02-22T21:54:24.487Z</time>
      </trkpt>
      <trkpt lat="59.39294898882508" lon="13.53510595858097">
        <ele>49.63</ele>
        <time>2025-02-22T21:55:29.908Z</time>
      </trkpt>
      <trkpt lat="59.39289693720639" lon="13.53504292666912">
        <ele>49.65</ele>
        <time>2025-02-22T21:56:35.330Z</time>
      </trkpt>
      <trkpt lat="59.39284396357834" lon="13.534985929727554">
        <ele>49.67</ele>
        <time>2025-02-22T21:57:40.753Z</time>
      </trkpt>
      <trkpt lat="59.39278897829354" lon="13.534934967756271">
        <ele>49.69</ele>
        <time>2025-02-22T21:58:46.177Z</time>
      </trkpt>
      <trkpt lat="59.39273097552359" lon="13.534886939451098">
        <ele>49.7</ele>
        <time>2025-02-22T21:59:51.602Z</time>
      </trkpt>
      <trkpt lat="59.39267096109688" lon="13.534843940287828">
        <ele>49.71</ele>
        <time>2025-02-22T22:00:57.028Z</time>
      </trkpt>
      <trkpt lat="59.392611952498555" lon="13.534805970266461">
        <ele>49.73</ele>
        <time>2025-02-22T22:02:02.455Z</time>
      </trkpt>
      <trkpt lat="59.39255495555699" lon="13.534768922254443">
        <ele>49.74</ele>
        <time>2025-02-22T22:03:07.883Z</time>
      </trkpt>
      <trkpt lat="59.3924989644438" lon="13.534733969718218">
        <ele>49.74</ele>
        <time>2025-02-22T22:04:13.312Z</time>
      </trkpt>
      <trkpt lat="59.39244297333062" lon="13.534701950848103">
        <ele>49.75</ele>
        <time>2025-02-22T22:05:18.742Z</time>
      </trkpt>
      <trkpt lat="59.39238597638905" lon="13.534672949463129">
        <ele>49.76</ele>
        <time>2025-02-22T22:06:24.173Z</time>
      </trkpt>
      <trkpt lat="59.3923279736191" lon="13.534644953906536">
        <ele>49.76</ele>
        <time>2025-02-22T22:07:29.605Z</time>
      </trkpt>
      <trkpt lat="59.392267959192395" lon="13.534619975835085">
        <ele>49.76</ele>
        <time>2025-02-22T22:08:35.038Z</time>
      </trkpt>
      <trkpt lat="59.392206938937306" lon="13.534601954743266">
        <ele>49.76</ele>
        <time>2025-02-22T22:09:40.472Z</time>
      </trkpt>
      <trkpt lat="59.39214499667287" lon="13.534586951136589">
        <ele>49.77</ele>
        <time>2025-02-22T22:10:45.907Z</time>
      </trkpt>
      <trkpt lat="59.3920829705894" lon="13.534573959186673">
        <ele>49.77</ele>
        <time>2025-02-22T22:11:51.343Z</time>
      </trkpt>
      <trkpt lat="59.39201893284917" lon="13.534561973065138">
        <ele>49.78</ele>
        <time>2025-02-22T22:12:56.780Z</time>
      </trkpt>
      <trkpt lat="59.39195799641311" lon="13.534554932266474">
        <ele>49.79</ele>
        <time>2025-02-22T22:14:02.218Z</time>
      </trkpt>
      <trkpt lat="59.3918979819864" lon="13.534548981115222">
        <ele>49.79</ele>
        <time>2025-02-22T22:15:07.657Z</time>
      </trkpt>
      <trkpt lat="59.39184391871095" lon="13.534539928659797">
        <ele>49.8</ele>
        <time>2025-02-22T22:16:13.097Z</time>
      </trkpt>
      <trkpt lat="59.391792956739664" lon="13.534531965851784">
        <ele>49.81</ele>
        <time>2025-02-22T22:17:18.537Z</time>
      </trkpt>
      <trkpt lat="59.39174593426287" lon="13.53452693670988">
        <ele>49.81</ele>
        <time>2025-02-22T22:18:23.978Z</time>
      </trkpt>
      <trkpt lat="59.39170192927122" lon="13.534520985558629">
        <ele>49.82</ele>
        <time>2025-02-22T22:19:29.420Z</time>
      </trkpt>
      <trkpt lat="59.39165893010795" lon="13.534512938931584">
        <ele>49.82</ele>
        <time>2025-02-22T22:20:34.863Z</time>
      </trkpt>
      <trkpt lat="59.39161693677306" lon="13.534496929496527">
        <ele>49.83</ele>
        <time>2025-02-22T22:21:40.306Z</time>
      </trkpt>
      <trkpt lat="59.39157594926655" lon="13.534473963081837">
        <ele>49.84</ele>
        <time>2025-02-22T22:22:45.750Z</time>
      </trkpt>
      <trkpt lat="59.391536973416805" lon="13.534445967525244">
        <ele>49.85</ele>
        <time>2025-02-22T22:23:51.195Z</time>
      </trkpt>
      <trkpt lat="59.39150193706155" lon="13.534409925341606">
        <ele>49.85</ele>
        <time>2025-02-22T22:24:56.640Z</time>
      </trkpt>
      <trkpt lat="59.391471929848194" lon="13.53437296114862">
        <ele>49.85</ele>
        <time>2025-02-22T22:26:02.086Z</time>
      </trkpt>
      <trkpt lat="59.39144795760512" lon="13.53433197364211">
        <ele>49.86</ele>
        <time>2025-02-22T22:27:07.532Z</time>
      </trkpt>
      <trkpt lat="59.39142691902816" lon="13.534292997792363">
        <ele>49.86</ele>
        <time>2025-02-22T22:28:12.979Z</time>
      </trkpt>
      <trkpt lat="59.391408981755376" lon="13.534258967265487">
        <ele>49.86</ele>
        <time>2025-02-22T22:29:18.426Z</time>
      </trkpt>
      <trkpt lat="59.39139498397708" lon="13.534219991415739">
        <ele>49.85</ele>
        <time>2025-02-22T22:30:23.874Z</time>
      </trkpt>
      <trkpt lat="59.39137897454202" lon="13.53418193757534">
        <ele>49.85</ele>
        <time>2025-02-22T22:31:29.322Z</time>
      </trkpt>
      <trkpt lat="59.39135693013668" lon="13.53415796533227">
        <ele>49.84</ele>
        <time>2025-02-22T22:32:34.770Z</time>
      </trkpt>
      <trkpt lat="59.39133195206523" lon="13.534148996695876">
        <ele>49.84</ele>
        <time>2025-02-22T22:33:40.219Z</time>
      </trkpt>
      <trkpt lat="59.39130496233702" lon="13.534146985039115">
        <ele>49.83</ele>
        <time>2025-02-22T22:34:45.668Z</time>
      </trkpt>
      <trkpt lat="59.391277972608805" lon="13.534146985039115">
        <ele>49.83</ele>
        <time>2025-02-22T22:35:51.118Z</time>
      </trkpt>
      <trkpt lat="59.39124897122383" lon="13.534142961725593">
        <ele>49.82</ele>
        <time>2025-02-22T22:36:56.568Z</time>
      </trkpt>
      <trkpt lat="59.39121996983886" lon="13.534129969775677">
        <ele>49.81</ele>
        <time>2025-02-22T22:38:02.019Z</time>
      </trkpt>
      <trkpt lat="59.391193985939026" lon="13.534099962562323">
        <ele>49.8</ele>
        <time>2025-02-22T22:39:07.470Z</time>
      </trkpt>
      <trkpt lat="59.39117797650397" lon="13.53405294008553">
        <ele>49.8</ele>
        <time>2025-02-22T22:40:12.922Z</time>
      </trkpt>
    </trkseg>
  </trk>
</gpx>
